<?xml version="1.0" encoding="UTF-8" standalone="no" ?>
<gpx xmlns="http://www.topografix.com/GPX/1/1" xmlns:xsi="http://www.w3.org/2001/XMLSchema-instance" xsi:schemaLocation="http://www.topografix.com/GPX/1/1 http://www.topografix.com/GPX/1/1/gpx.xsd" version="1.1" creator="VisuGPX - https://www.visugpx.com">
  <metadata>
    <name>Des Mouettes aux Cigales 2021</name>
  </metadata>
  <trk>
    <name><![CDATA[Étape 1 : Cherbourg - Vire]]></name>
    <extensions>
      <line xmlns="http://www.topografix.com/GPX/gpx_style/0/2">
        <color>0000FF</color>
        <width>4</width>
      </line>
    </extensions>
    <trkseg>
      <trkpt lat="49.65944" lon="-1.67547">
        <ele>10.994441</ele>
        <time>2021-09-05T07:38:05.000Z</time>
      </trkpt>
      <trkpt lat="49.65945" lon="-1.67545">
        <ele>10.994441</ele>
        <time>2021-09-05T07:38:20.000Z</time>
      </trkpt>
      <trkpt lat="49.65953" lon="-1.67535">
        <ele>10.994441</ele>
        <time>2021-09-05T07:38:25.000Z</time>
      </trkpt>
      <trkpt lat="49.65951" lon="-1.67518">
        <ele>10.994441</ele>
        <time>2021-09-05T07:38:28.000Z</time>
      </trkpt>
      <trkpt lat="49.65949" lon="-1.67514">
        <ele>10.994441</ele>
        <time>2021-09-05T07:38:29.000Z</time>
      </trkpt>
      <trkpt lat="49.65943" lon="-1.67504">
        <ele>10.994441</ele>
        <time>2021-09-05T07:38:32.000Z</time>
      </trkpt>
      <trkpt lat="49.65928" lon="-1.67479">
        <ele>10.994441</ele>
        <time>2021-09-05T07:38:36.000Z</time>
      </trkpt>
      <trkpt lat="49.65904" lon="-1.6744">
        <ele>10.988871</ele>
        <time>2021-09-05T07:38:43.000Z</time>
      </trkpt>
      <trkpt lat="49.65885" lon="-1.67408">
        <ele>10.926741</ele>
        <time>2021-09-05T07:38:49.000Z</time>
      </trkpt>
      <trkpt lat="49.65863" lon="-1.67372">
        <ele>10.854279</ele>
        <time>2021-09-05T07:38:56.000Z</time>
      </trkpt>
      <trkpt lat="49.6584" lon="-1.67333">
        <ele>10.777009</ele>
        <time>2021-09-05T07:39:04.000Z</time>
      </trkpt>
      <trkpt lat="49.65826" lon="-1.67309">
        <ele>10.7295</ele>
        <time>2021-09-05T07:39:10.000Z</time>
      </trkpt>
      <trkpt lat="49.65806" lon="-1.67272">
        <ele>10.660725</ele>
        <time>2021-09-05T07:39:16.000Z</time>
      </trkpt>
      <trkpt lat="49.65804" lon="-1.67267">
        <ele>10.651193</ele>
        <time>2021-09-05T07:39:17.000Z</time>
      </trkpt>
      <trkpt lat="49.65788" lon="-1.67226">
        <ele>10.568942</ele>
        <time>2021-09-05T07:39:24.000Z</time>
      </trkpt>
      <trkpt lat="49.65786" lon="-1.67219">
        <ele>10.545307</ele>
        <time>2021-09-05T07:39:25.000Z</time>
      </trkpt>
      <trkpt lat="49.65778" lon="-1.67188">
        <ele>10.429621</ele>
        <time>2021-09-05T07:39:30.000Z</time>
      </trkpt>
      <trkpt lat="49.65777" lon="-1.67183">
        <ele>10.40811</ele>
        <time>2021-09-05T07:39:31.000Z</time>
      </trkpt>
      <trkpt lat="49.65771" lon="-1.6715">
        <ele>10.290177</ele>
        <time>2021-09-05T07:39:36.000Z</time>
      </trkpt>
      <trkpt lat="49.6577" lon="-1.67136">
        <ele>10.240081</ele>
        <time>2021-09-05T07:39:38.000Z</time>
      </trkpt>
      <trkpt lat="49.65766" lon="-1.67109">
        <ele>10.145191</ele>
        <time>2021-09-05T07:39:42.000Z</time>
      </trkpt>
      <trkpt lat="49.65764" lon="-1.67073">
        <ele>10.019944</ele>
        <time>2021-09-05T07:39:47.000Z</time>
      </trkpt>
      <trkpt lat="49.65764" lon="-1.67067">
        <ele>9.996931</ele>
        <time>2021-09-05T07:39:48.000Z</time>
      </trkpt>
      <trkpt lat="49.65765" lon="-1.67041">
        <ele>9.906612</ele>
        <time>2021-09-05T07:39:52.000Z</time>
      </trkpt>
      <trkpt lat="49.65767" lon="-1.6702">
        <ele>9.834272</ele>
        <time>2021-09-05T07:39:55.000Z</time>
      </trkpt>
      <trkpt lat="49.65767" lon="-1.67013">
        <ele>9.809431</ele>
        <time>2021-09-05T07:39:56.000Z</time>
      </trkpt>
      <trkpt lat="49.65769" lon="-1.66979">
        <ele>9.691561</ele>
        <time>2021-09-05T07:40:01.000Z</time>
      </trkpt>
      <trkpt lat="49.65772" lon="-1.66925">
        <ele>9.609546</ele>
        <time>2021-09-05T07:40:10.000Z</time>
      </trkpt>
      <trkpt lat="49.65775" lon="-1.6689">
        <ele>9.595437</ele>
        <time>2021-09-05T07:40:16.000Z</time>
      </trkpt>
      <trkpt lat="49.6578" lon="-1.66858">
        <ele>9.58254</ele>
        <time>2021-09-05T07:40:22.000Z</time>
      </trkpt>
      <trkpt lat="49.65791" lon="-1.66831">
        <ele>9.569505</ele>
        <time>2021-09-05T07:40:28.000Z</time>
      </trkpt>
      <trkpt lat="49.65793" lon="-1.66797">
        <ele>9.555984</ele>
        <time>2021-09-05T07:40:34.000Z</time>
      </trkpt>
      <trkpt lat="49.65791" lon="-1.66786">
        <ele>9.551346</ele>
        <time>2021-09-05T07:40:36.000Z</time>
      </trkpt>
      <trkpt lat="49.65782" lon="-1.6676">
        <ele>9.539422</ele>
        <time>2021-09-05T07:40:40.000Z</time>
      </trkpt>
      <trkpt lat="49.6578" lon="-1.66753">
        <ele>9.536578</ele>
        <time>2021-09-05T07:40:41.000Z</time>
      </trkpt>
      <trkpt lat="49.65777" lon="-1.66738">
        <ele>9.530397</ele>
        <time>2021-09-05T07:40:43.000Z</time>
      </trkpt>
      <trkpt lat="49.65776" lon="-1.66731">
        <ele>9.527343</ele>
        <time>2021-09-05T07:40:44.000Z</time>
      </trkpt>
      <trkpt lat="49.6578" lon="-1.66676">
        <ele>9.49337</ele>
        <time>2021-09-05T07:40:51.000Z</time>
      </trkpt>
      <trkpt lat="49.65784" lon="-1.66623">
        <ele>9.438371</ele>
        <time>2021-09-05T07:40:58.000Z</time>
      </trkpt>
      <trkpt lat="49.65786" lon="-1.66602">
        <ele>9.416021</ele>
        <time>2021-09-05T07:41:01.000Z</time>
      </trkpt>
      <trkpt lat="49.65787" lon="-1.66589">
        <ele>9.402792</ele>
        <time>2021-09-05T07:41:03.000Z</time>
      </trkpt>
      <trkpt lat="49.65788" lon="-1.66583">
        <ele>9.396291</ele>
        <time>2021-09-05T07:41:04.000Z</time>
      </trkpt>
      <trkpt lat="49.65791" lon="-1.66546">
        <ele>9.357885</ele>
        <time>2021-09-05T07:41:09.000Z</time>
      </trkpt>
      <trkpt lat="49.65792" lon="-1.66538">
        <ele>9.349486</ele>
        <time>2021-09-05T07:41:10.000Z</time>
      </trkpt>
      <trkpt lat="49.65797" lon="-1.66481">
        <ele>9.288812</ele>
        <time>2021-09-05T07:41:17.000Z</time>
      </trkpt>
      <trkpt lat="49.65797" lon="-1.66472">
        <ele>9.279896</ele>
        <time>2021-09-05T07:41:18.000Z</time>
      </trkpt>
      <trkpt lat="49.658" lon="-1.66455">
        <ele>9.261656</ele>
        <time>2021-09-05T07:41:20.000Z</time>
      </trkpt>
      <trkpt lat="49.65801" lon="-1.66447">
        <ele>9.25259</ele>
        <time>2021-09-05T07:41:21.000Z</time>
      </trkpt>
      <trkpt lat="49.65802" lon="-1.66429">
        <ele>9.234531</ele>
        <time>2021-09-05T07:41:23.000Z</time>
      </trkpt>
      <trkpt lat="49.65802" lon="-1.66403">
        <ele>9.207898</ele>
        <time>2021-09-05T07:41:26.000Z</time>
      </trkpt>
      <trkpt lat="49.65802" lon="-1.6633">
        <ele>9.13494</ele>
        <time>2021-09-05T07:41:34.000Z</time>
      </trkpt>
      <trkpt lat="49.65802" lon="-1.66257">
        <ele>9.06218</ele>
        <time>2021-09-05T07:41:42.000Z</time>
      </trkpt>
      <trkpt lat="49.65797" lon="-1.66191">
        <ele>8.995339</ele>
        <time>2021-09-05T07:41:49.000Z</time>
      </trkpt>
      <trkpt lat="49.6579" lon="-1.66135">
        <ele>8.951148</ele>
        <time>2021-09-05T07:41:55.000Z</time>
      </trkpt>
      <trkpt lat="49.65778" lon="-1.6605">
        <ele>9.022395</ele>
        <time>2021-09-05T07:42:04.000Z</time>
      </trkpt>
      <trkpt lat="49.65767" lon="-1.65972">
        <ele>9.086825</ele>
        <time>2021-09-05T07:42:12.000Z</time>
      </trkpt>
      <trkpt lat="49.65762" lon="-1.65902">
        <ele>9.144062</ele>
        <time>2021-09-05T07:42:19.000Z</time>
      </trkpt>
      <trkpt lat="49.65761" lon="-1.65882">
        <ele>9.160737</ele>
        <time>2021-09-05T07:42:21.000Z</time>
      </trkpt>
      <trkpt lat="49.65758" lon="-1.65864">
        <ele>9.186984</ele>
        <time>2021-09-05T07:42:23.000Z</time>
      </trkpt>
      <trkpt lat="49.65754" lon="-1.65848">
        <ele>9.236262</ele>
        <time>2021-09-05T07:42:25.000Z</time>
      </trkpt>
      <trkpt lat="49.6575" lon="-1.65833">
        <ele>9.281738</ele>
        <time>2021-09-05T07:42:27.000Z</time>
      </trkpt>
      <trkpt lat="49.65748" lon="-1.65825">
        <ele>9.304931</ele>
        <time>2021-09-05T07:42:28.000Z</time>
      </trkpt>
      <trkpt lat="49.65747" lon="-1.65817">
        <ele>9.328292</ele>
        <time>2021-09-05T07:42:29.000Z</time>
      </trkpt>
      <trkpt lat="49.65745" lon="-1.65773">
        <ele>9.452702</ele>
        <time>2021-09-05T07:42:34.000Z</time>
      </trkpt>
      <trkpt lat="49.65742" lon="-1.6571">
        <ele>9.632292</ele>
        <time>2021-09-05T07:42:41.000Z</time>
      </trkpt>
      <trkpt lat="49.65736" lon="-1.65655">
        <ele>9.788934</ele>
        <time>2021-09-05T07:42:47.000Z</time>
      </trkpt>
      <trkpt lat="49.65735" lon="-1.65646">
        <ele>9.815439</ele>
        <time>2021-09-05T07:42:48.000Z</time>
      </trkpt>
      <trkpt lat="49.65731" lon="-1.65619">
        <ele>9.893627</ele>
        <time>2021-09-05T07:42:51.000Z</time>
      </trkpt>
      <trkpt lat="49.65727" lon="-1.65591">
        <ele>9.961104</ele>
        <time>2021-09-05T07:42:54.000Z</time>
      </trkpt>
      <trkpt lat="49.6571" lon="-1.65522">
        <ele>9.992369</ele>
        <time>2021-09-05T07:43:02.000Z</time>
      </trkpt>
      <trkpt lat="49.6569" lon="-1.65461">
        <ele>10.020793</ele>
        <time>2021-09-05T07:43:09.000Z</time>
      </trkpt>
      <trkpt lat="49.65663" lon="-1.65381">
        <ele>10.058748</ele>
        <time>2021-09-05T07:43:17.000Z</time>
      </trkpt>
      <trkpt lat="49.6566" lon="-1.65371">
        <ele>10.06356</ele>
        <time>2021-09-05T07:43:18.000Z</time>
      </trkpt>
      <trkpt lat="49.65655" lon="-1.6535">
        <ele>10.072881</ele>
        <time>2021-09-05T07:43:20.000Z</time>
      </trkpt>
      <trkpt lat="49.65653" lon="-1.65339">
        <ele>10.102065</ele>
        <time>2021-09-05T07:43:21.000Z</time>
      </trkpt>
      <trkpt lat="49.65634" lon="-1.65279">
        <ele>10.440517</ele>
        <time>2021-09-05T07:43:27.000Z</time>
      </trkpt>
      <trkpt lat="49.65621" lon="-1.65226">
        <ele>10.730038</ele>
        <time>2021-09-05T07:43:33.000Z</time>
      </trkpt>
      <trkpt lat="49.6562" lon="-1.65209">
        <ele>10.814238</ele>
        <time>2021-09-05T07:43:35.000Z</time>
      </trkpt>
      <trkpt lat="49.6562" lon="-1.65201">
        <ele>10.855661</ele>
        <time>2021-09-05T07:43:37.000Z</time>
      </trkpt>
      <trkpt lat="49.65614" lon="-1.6517">
        <ele>11.020935</ele>
        <time>2021-09-05T07:43:40.000Z</time>
      </trkpt>
      <trkpt lat="49.65612" lon="-1.65162">
        <ele>11.063698</ele>
        <time>2021-09-05T07:43:41.000Z</time>
      </trkpt>
      <trkpt lat="49.656" lon="-1.65137">
        <ele>11.221359</ele>
        <time>2021-09-05T07:43:45.000Z</time>
      </trkpt>
      <trkpt lat="49.65595" lon="-1.65125">
        <ele>11.294545</ele>
        <time>2021-09-05T07:43:47.000Z</time>
      </trkpt>
      <trkpt lat="49.65577" lon="-1.65097">
        <ele>11.502109</ele>
        <time>2021-09-05T07:43:53.000Z</time>
      </trkpt>
      <trkpt lat="49.65565" lon="-1.65081">
        <ele>11.761817</ele>
        <time>2021-09-05T07:43:57.000Z</time>
      </trkpt>
      <trkpt lat="49.65551" lon="-1.65069">
        <ele>12.021074</ele>
        <time>2021-09-05T07:44:01.000Z</time>
      </trkpt>
      <trkpt lat="49.65543" lon="-1.65064">
        <ele>12.15186</ele>
        <time>2021-09-05T07:44:03.000Z</time>
      </trkpt>
      <trkpt lat="49.65529" lon="-1.65048">
        <ele>12.436406</ele>
        <time>2021-09-05T07:44:07.000Z</time>
      </trkpt>
      <trkpt lat="49.65526" lon="-1.65043">
        <ele>12.509593</ele>
        <time>2021-09-05T07:44:08.000Z</time>
      </trkpt>
      <trkpt lat="49.6552" lon="-1.65033">
        <ele>12.654779</ele>
        <time>2021-09-05T07:44:10.000Z</time>
      </trkpt>
      <trkpt lat="49.65514" lon="-1.65022">
        <ele>12.799649</ele>
        <time>2021-09-05T07:44:13.000Z</time>
      </trkpt>
      <trkpt lat="49.65489" lon="-1.64981">
        <ele>13.399441</ele>
        <time>2021-09-05T07:44:20.000Z</time>
      </trkpt>
      <trkpt lat="49.65469" lon="-1.64958">
        <ele>13.800014</ele>
        <time>2021-09-05T07:44:26.000Z</time>
      </trkpt>
      <trkpt lat="49.65461" lon="-1.6495">
        <ele>13.95433</ele>
        <time>2021-09-05T07:44:27.000Z</time>
      </trkpt>
      <trkpt lat="49.65451" lon="-1.64948">
        <ele>14.111972</ele>
        <time>2021-09-05T07:44:29.000Z</time>
      </trkpt>
      <trkpt lat="49.65442" lon="-1.64942">
        <ele>14.263407</ele>
        <time>2021-09-05T07:44:31.000Z</time>
      </trkpt>
      <trkpt lat="49.65434" lon="-1.64934">
        <ele>14.41151</ele>
        <time>2021-09-05T07:44:33.000Z</time>
      </trkpt>
      <trkpt lat="49.65427" lon="-1.64923">
        <ele>14.487065</ele>
        <time>2021-09-05T07:44:35.000Z</time>
      </trkpt>
      <trkpt lat="49.65423" lon="-1.64908">
        <ele>14.563149</ele>
        <time>2021-09-05T07:44:37.000Z</time>
      </trkpt>
      <trkpt lat="49.65422" lon="-1.64901">
        <ele>14.599366</ele>
        <time>2021-09-05T07:44:39.000Z</time>
      </trkpt>
      <trkpt lat="49.65409" lon="-1.64884">
        <ele>14.724669</ele>
        <time>2021-09-05T07:44:42.000Z</time>
      </trkpt>
      <trkpt lat="49.65401" lon="-1.64879">
        <ele>14.787399</ele>
        <time>2021-09-05T07:44:44.000Z</time>
      </trkpt>
      <trkpt lat="49.65393" lon="-1.64882">
        <ele>14.85228</ele>
        <time>2021-09-05T07:44:46.000Z</time>
      </trkpt>
      <trkpt lat="49.65383" lon="-1.64882">
        <ele>14.927437</ele>
        <time>2021-09-05T07:44:48.000Z</time>
      </trkpt>
      <trkpt lat="49.65368" lon="-1.64868">
        <ele>15.054937</ele>
        <time>2021-09-05T07:44:52.000Z</time>
      </trkpt>
      <trkpt lat="49.6533" lon="-1.64832">
        <ele>15.38413</ele>
        <time>2021-09-05T07:44:59.000Z</time>
      </trkpt>
      <trkpt lat="49.65273" lon="-1.64779">
        <ele>15.76944</ele>
        <time>2021-09-05T07:45:08.000Z</time>
      </trkpt>
      <trkpt lat="49.65222" lon="-1.64728">
        <ele>15.867614</ele>
        <time>2021-09-05T07:45:18.000Z</time>
      </trkpt>
      <trkpt lat="49.65177" lon="-1.64682">
        <ele>15.955914</ele>
        <time>2021-09-05T07:45:25.000Z</time>
      </trkpt>
      <trkpt lat="49.65165" lon="-1.64671">
        <ele>15.978183</ele>
        <time>2021-09-05T07:45:28.000Z</time>
      </trkpt>
      <trkpt lat="49.65115" lon="-1.64621">
        <ele>16.022823</ele>
        <time>2021-09-05T07:45:37.000Z</time>
      </trkpt>
      <trkpt lat="49.65104" lon="-1.64609">
        <ele>16.01929</ele>
        <time>2021-09-05T07:45:39.000Z</time>
      </trkpt>
      <trkpt lat="49.65082" lon="-1.64588">
        <ele>16.012602</ele>
        <time>2021-09-05T07:45:42.000Z</time>
      </trkpt>
      <trkpt lat="49.65054" lon="-1.64559">
        <ele>16.003485</ele>
        <time>2021-09-05T07:45:48.000Z</time>
      </trkpt>
      <trkpt lat="49.65025" lon="-1.64531">
        <ele>15.994526</ele>
        <time>2021-09-05T07:45:55.000Z</time>
      </trkpt>
      <trkpt lat="49.64988" lon="-1.64492">
        <ele>15.982692</ele>
        <time>2021-09-05T07:46:03.000Z</time>
      </trkpt>
      <trkpt lat="49.64974" lon="-1.64477">
        <ele>15.920236</ele>
        <time>2021-09-05T07:46:06.000Z</time>
      </trkpt>
      <trkpt lat="49.6496" lon="-1.64463">
        <ele>15.860088</ele>
        <time>2021-09-05T07:46:08.000Z</time>
      </trkpt>
      <trkpt lat="49.64928" lon="-1.64429">
        <ele>15.720111</ele>
        <time>2021-09-05T07:46:16.000Z</time>
      </trkpt>
      <trkpt lat="49.649" lon="-1.64399">
        <ele>15.59517</ele>
        <time>2021-09-05T07:46:21.000Z</time>
      </trkpt>
      <trkpt lat="49.64865" lon="-1.64364">
        <ele>15.441848</ele>
        <time>2021-09-05T07:46:30.000Z</time>
      </trkpt>
      <trkpt lat="49.64845" lon="-1.64346">
        <ele>15.357686</ele>
        <time>2021-09-05T07:46:33.000Z</time>
      </trkpt>
      <trkpt lat="49.64831" lon="-1.64332">
        <ele>15.263685</ele>
        <time>2021-09-05T07:46:36.000Z</time>
      </trkpt>
      <trkpt lat="49.64806" lon="-1.6431">
        <ele>15.03626</ele>
        <time>2021-09-05T07:46:41.000Z</time>
      </trkpt>
      <trkpt lat="49.64802" lon="-1.64304">
        <ele>14.996875</ele>
        <time>2021-09-05T07:46:43.000Z</time>
      </trkpt>
      <trkpt lat="49.64797" lon="-1.64289">
        <ele>14.907792</ele>
        <time>2021-09-05T07:46:44.000Z</time>
      </trkpt>
      <trkpt lat="49.64789" lon="-1.6424">
        <ele>14.654771</ele>
        <time>2021-09-05T07:46:50.000Z</time>
      </trkpt>
      <trkpt lat="49.64775" lon="-1.64161">
        <ele>14.24388</ele>
        <time>2021-09-05T07:46:57.000Z</time>
      </trkpt>
      <trkpt lat="49.64761" lon="-1.6408">
        <ele>13.828213</ele>
        <time>2021-09-05T07:47:05.000Z</time>
      </trkpt>
      <trkpt lat="49.64755" lon="-1.64048">
        <ele>13.678695</ele>
        <time>2021-09-05T07:47:08.000Z</time>
      </trkpt>
      <trkpt lat="49.64746" lon="-1.63997">
        <ele>13.430976</ele>
        <time>2021-09-05T07:47:14.000Z</time>
      </trkpt>
      <trkpt lat="49.64723" lon="-1.63936">
        <ele>13.107978</ele>
        <time>2021-09-05T07:47:20.000Z</time>
      </trkpt>
      <trkpt lat="49.64699" lon="-1.63898">
        <ele>12.861365</ele>
        <time>2021-09-05T07:47:25.000Z</time>
      </trkpt>
      <trkpt lat="49.64668" lon="-1.63869">
        <ele>12.599822</ele>
        <time>2021-09-05T07:47:30.000Z</time>
      </trkpt>
      <trkpt lat="49.64655" lon="-1.6387">
        <ele>12.496854</ele>
        <time>2021-09-05T07:47:32.000Z</time>
      </trkpt>
      <trkpt lat="49.64649" lon="-1.6387">
        <ele>12.452179</ele>
        <time>2021-09-05T07:47:33.000Z</time>
      </trkpt>
      <trkpt lat="49.64631" lon="-1.63858">
        <ele>12.292041</ele>
        <time>2021-09-05T07:47:36.000Z</time>
      </trkpt>
      <trkpt lat="49.64612" lon="-1.63845">
        <ele>12.122264</ele>
        <time>2021-09-05T07:47:39.000Z</time>
      </trkpt>
      <trkpt lat="49.64594" lon="-1.63833">
        <ele>11.960224</ele>
        <time>2021-09-05T07:47:42.000Z</time>
      </trkpt>
      <trkpt lat="49.64581" lon="-1.63825">
        <ele>11.849437</ele>
        <time>2021-09-05T07:47:44.000Z</time>
      </trkpt>
      <trkpt lat="49.64575" lon="-1.63821">
        <ele>11.798389</ele>
        <time>2021-09-05T07:47:46.000Z</time>
      </trkpt>
      <trkpt lat="49.64565" lon="-1.63814">
        <ele>11.709529</ele>
        <time>2021-09-05T07:47:47.000Z</time>
      </trkpt>
      <trkpt lat="49.64562" lon="-1.63809">
        <ele>11.676292</ele>
        <time>2021-09-05T07:47:48.000Z</time>
      </trkpt>
      <trkpt lat="49.64552" lon="-1.63776">
        <ele>11.480528</ele>
        <time>2021-09-05T07:47:53.000Z</time>
      </trkpt>
      <trkpt lat="49.6454" lon="-1.63723">
        <ele>11.18845</ele>
        <time>2021-09-05T07:47:59.000Z</time>
      </trkpt>
      <trkpt lat="49.64539" lon="-1.63715">
        <ele>11.139725</ele>
        <time>2021-09-05T07:48:00.000Z</time>
      </trkpt>
      <trkpt lat="49.64538" lon="-1.63693">
        <ele>11.011966</ele>
        <time>2021-09-05T07:48:03.000Z</time>
      </trkpt>
      <trkpt lat="49.64531" lon="-1.63662">
        <ele>10.815926</ele>
        <time>2021-09-05T07:48:08.000Z</time>
      </trkpt>
      <trkpt lat="49.64526" lon="-1.63642">
        <ele>10.692714</ele>
        <time>2021-09-05T07:48:11.000Z</time>
      </trkpt>
      <trkpt lat="49.64523" lon="-1.63628">
        <ele>10.609359</ele>
        <time>2021-09-05T07:48:13.000Z</time>
      </trkpt>
      <trkpt lat="49.64513" lon="-1.63583">
        <ele>10.331909</ele>
        <time>2021-09-05T07:48:19.000Z</time>
      </trkpt>
      <trkpt lat="49.64501" lon="-1.63538">
        <ele>10.047674</ele>
        <time>2021-09-05T07:48:25.000Z</time>
      </trkpt>
      <trkpt lat="49.6449" lon="-1.63492">
        <ele>9.764726</ele>
        <time>2021-09-05T07:48:31.000Z</time>
      </trkpt>
      <trkpt lat="49.64489" lon="-1.63485">
        <ele>9.719046</ele>
        <time>2021-09-05T07:48:32.000Z</time>
      </trkpt>
      <trkpt lat="49.64487" lon="-1.63478">
        <ele>9.677241</ele>
        <time>2021-09-05T07:48:34.000Z</time>
      </trkpt>
      <trkpt lat="49.64485" lon="-1.63449">
        <ele>9.531411</ele>
        <time>2021-09-05T07:48:38.000Z</time>
      </trkpt>
      <trkpt lat="49.64477" lon="-1.63422">
        <ele>9.420136</ele>
        <time>2021-09-05T07:48:42.000Z</time>
      </trkpt>
      <trkpt lat="49.64473" lon="-1.63408">
        <ele>9.359256</ele>
        <time>2021-09-05T07:48:44.000Z</time>
      </trkpt>
      <trkpt lat="49.64468" lon="-1.63392">
        <ele>9.294524</ele>
        <time>2021-09-05T07:48:46.000Z</time>
      </trkpt>
      <trkpt lat="49.64461" lon="-1.63368">
        <ele>9.195152</ele>
        <time>2021-09-05T07:48:49.000Z</time>
      </trkpt>
      <trkpt lat="49.64458" lon="-1.63352">
        <ele>9.12985</ele>
        <time>2021-09-05T07:48:51.000Z</time>
      </trkpt>
      <trkpt lat="49.64452" lon="-1.63329">
        <ele>9.035544</ele>
        <time>2021-09-05T07:48:54.000Z</time>
      </trkpt>
      <trkpt lat="49.64445" lon="-1.63296">
        <ele>8.902789</ele>
        <time>2021-09-05T07:48:58.000Z</time>
      </trkpt>
      <trkpt lat="49.64442" lon="-1.63269">
        <ele>8.796965</ele>
        <time>2021-09-05T07:49:01.000Z</time>
      </trkpt>
      <trkpt lat="49.64444" lon="-1.63214">
        <ele>8.588627</ele>
        <time>2021-09-05T07:49:07.000Z</time>
      </trkpt>
      <trkpt lat="49.64447" lon="-1.63189">
        <ele>8.517507</ele>
        <time>2021-09-05T07:49:10.000Z</time>
      </trkpt>
      <trkpt lat="49.6445" lon="-1.63174">
        <ele>8.51916</ele>
        <time>2021-09-05T07:49:12.000Z</time>
      </trkpt>
      <trkpt lat="49.64457" lon="-1.63152">
        <ele>8.521733</ele>
        <time>2021-09-05T07:49:15.000Z</time>
      </trkpt>
      <trkpt lat="49.64459" lon="-1.63145">
        <ele>8.522559</ele>
        <time>2021-09-05T07:49:16.000Z</time>
      </trkpt>
      <trkpt lat="49.64462" lon="-1.63131">
        <ele>8.524164</ele>
        <time>2021-09-05T07:49:19.000Z</time>
      </trkpt>
      <trkpt lat="49.64464" lon="-1.63121">
        <ele>8.525236</ele>
        <time>2021-09-05T07:50:19.000Z</time>
      </trkpt>
      <trkpt lat="49.64471" lon="-1.63086">
        <ele>8.529145</ele>
        <time>2021-09-05T07:50:24.000Z</time>
      </trkpt>
      <trkpt lat="49.64483" lon="-1.63034">
        <ele>8.534986</ele>
        <time>2021-09-05T07:50:31.000Z</time>
      </trkpt>
      <trkpt lat="49.64496" lon="-1.62973">
        <ele>8.541744</ele>
        <time>2021-09-05T07:50:38.000Z</time>
      </trkpt>
      <trkpt lat="49.64505" lon="-1.62928">
        <ele>8.549653</ele>
        <time>2021-09-05T07:50:43.000Z</time>
      </trkpt>
      <trkpt lat="49.64511" lon="-1.6288">
        <ele>8.580639</ele>
        <time>2021-09-05T07:50:48.000Z</time>
      </trkpt>
      <trkpt lat="49.64511" lon="-1.62861">
        <ele>8.592391</ele>
        <time>2021-09-05T07:50:50.000Z</time>
      </trkpt>
      <trkpt lat="49.64508" lon="-1.62827">
        <ele>8.614372</ele>
        <time>2021-09-05T07:50:54.000Z</time>
      </trkpt>
      <trkpt lat="49.645" lon="-1.62783">
        <ele>8.643058</ele>
        <time>2021-09-05T07:50:59.000Z</time>
      </trkpt>
      <trkpt lat="49.64497" lon="-1.62774">
        <ele>8.64914</ele>
        <time>2021-09-05T07:51:00.000Z</time>
      </trkpt>
      <trkpt lat="49.64472" lon="-1.62718">
        <ele>8.692215</ele>
        <time>2021-09-05T07:51:07.000Z</time>
      </trkpt>
      <trkpt lat="49.64464" lon="-1.62706">
        <ele>8.703483</ele>
        <time>2021-09-05T07:51:09.000Z</time>
      </trkpt>
      <trkpt lat="49.64462" lon="-1.62699">
        <ele>8.708229</ele>
        <time>2021-09-05T07:51:10.000Z</time>
      </trkpt>
      <trkpt lat="49.64461" lon="-1.62692">
        <ele>8.712742</ele>
        <time>2021-09-05T07:51:11.000Z</time>
      </trkpt>
      <trkpt lat="49.64459" lon="-1.6268">
        <ele>8.720596</ele>
        <time>2021-09-05T07:51:13.000Z</time>
      </trkpt>
      <trkpt lat="49.64455" lon="-1.62676">
        <ele>8.737263</ele>
        <time>2021-09-05T07:51:15.000Z</time>
      </trkpt>
      <trkpt lat="49.64445" lon="-1.62672">
        <ele>8.78638</ele>
        <time>2021-09-05T07:51:16.000Z</time>
      </trkpt>
      <trkpt lat="49.6444" lon="-1.62667">
        <ele>8.811927</ele>
        <time>2021-09-05T07:51:17.000Z</time>
      </trkpt>
      <trkpt lat="49.64435" lon="-1.62661">
        <ele>8.839973</ele>
        <time>2021-09-05T07:51:19.000Z</time>
      </trkpt>
      <trkpt lat="49.64427" lon="-1.62647">
        <ele>8.896424</ele>
        <time>2021-09-05T07:51:20.000Z</time>
      </trkpt>
      <trkpt lat="49.64422" lon="-1.6264">
        <ele>8.926032</ele>
        <time>2021-09-05T07:51:21.000Z</time>
      </trkpt>
      <trkpt lat="49.64417" lon="-1.62622">
        <ele>8.982581</ele>
        <time>2021-09-05T07:51:23.000Z</time>
      </trkpt>
      <trkpt lat="49.64407" lon="-1.62589">
        <ele>9.090073</ele>
        <time>2021-09-05T07:51:27.000Z</time>
      </trkpt>
      <trkpt lat="49.64397" lon="-1.62575">
        <ele>9.15017</ele>
        <time>2021-09-05T07:51:29.000Z</time>
      </trkpt>
      <trkpt lat="49.64395" lon="-1.6257">
        <ele>9.169611</ele>
        <time>2021-09-05T07:51:30.000Z</time>
      </trkpt>
      <trkpt lat="49.64383" lon="-1.62569">
        <ele>9.224161</ele>
        <time>2021-09-05T07:51:32.000Z</time>
      </trkpt>
      <trkpt lat="49.64379" lon="-1.62567">
        <ele>9.241346</ele>
        <time>2021-09-05T07:51:34.000Z</time>
      </trkpt>
      <trkpt lat="49.64378" lon="-1.62593">
        <ele>9.316769</ele>
        <time>2021-09-05T07:51:38.000Z</time>
      </trkpt>
      <trkpt lat="49.64377" lon="-1.62595">
        <ele>9.326269</ele>
        <time>2021-09-05T07:51:39.000Z</time>
      </trkpt>
      <trkpt lat="49.64375" lon="-1.62561">
        <ele>9.429306</ele>
        <time>2021-09-05T07:51:42.000Z</time>
      </trkpt>
      <trkpt lat="49.6437" lon="-1.62545">
        <ele>9.480253</ele>
        <time>2021-09-05T07:51:47.000Z</time>
      </trkpt>
      <trkpt lat="49.64344" lon="-1.6251">
        <ele>9.580671</ele>
        <time>2021-09-05T07:51:52.000Z</time>
      </trkpt>
      <trkpt lat="49.64336" lon="-1.62494">
        <ele>9.607265</ele>
        <time>2021-09-05T07:51:54.000Z</time>
      </trkpt>
      <trkpt lat="49.64325" lon="-1.62472">
        <ele>9.643732</ele>
        <time>2021-09-05T07:51:59.000Z</time>
      </trkpt>
      <trkpt lat="49.64322" lon="-1.62465">
        <ele>9.655122</ele>
        <time>2021-09-05T07:52:03.000Z</time>
      </trkpt>
      <trkpt lat="49.64308" lon="-1.62437">
        <ele>9.700649</ele>
        <time>2021-09-05T07:52:24.000Z</time>
      </trkpt>
      <trkpt lat="49.64293" lon="-1.62401">
        <ele>9.755867</ele>
        <time>2021-09-05T07:52:30.000Z</time>
      </trkpt>
      <trkpt lat="49.64282" lon="-1.62351">
        <ele>9.823486</ele>
        <time>2021-09-05T07:52:37.000Z</time>
      </trkpt>
      <trkpt lat="49.64252" lon="-1.62296">
        <ele>9.865536</ele>
        <time>2021-09-05T07:52:43.000Z</time>
      </trkpt>
      <trkpt lat="49.64235" lon="-1.62257">
        <ele>9.764588</ele>
        <time>2021-09-05T07:52:49.000Z</time>
      </trkpt>
      <trkpt lat="49.64206" lon="-1.62207">
        <ele>9.624188</ele>
        <time>2021-09-05T07:52:55.000Z</time>
      </trkpt>
      <trkpt lat="49.64194" lon="-1.62173">
        <ele>9.542089</ele>
        <time>2021-09-05T07:52:58.000Z</time>
      </trkpt>
      <trkpt lat="49.64178" lon="-1.62151">
        <ele>9.473708</ele>
        <time>2021-09-05T07:53:01.000Z</time>
      </trkpt>
      <trkpt lat="49.64178" lon="-1.62151">
        <ele>9.473708</ele>
        <time>2021-09-05T07:53:03.000Z</time>
      </trkpt>
      <trkpt lat="49.6416" lon="-1.62136">
        <ele>9.405773</ele>
        <time>2021-09-05T07:53:05.000Z</time>
      </trkpt>
      <trkpt lat="49.6412" lon="-1.62124">
        <ele>9.278907</ele>
        <time>2021-09-05T07:53:10.000Z</time>
      </trkpt>
      <trkpt lat="49.64095" lon="-1.62129">
        <ele>9.209312</ele>
        <time>2021-09-05T07:53:14.000Z</time>
      </trkpt>
      <trkpt lat="49.64083" lon="-1.62132">
        <ele>9.175028</ele>
        <time>2021-09-05T07:53:16.000Z</time>
      </trkpt>
      <trkpt lat="49.64055" lon="-1.62138">
        <ele>9.09697</ele>
        <time>2021-09-05T07:53:21.000Z</time>
      </trkpt>
      <trkpt lat="49.64044" lon="-1.6214">
        <ele>9.065241</ele>
        <time>2021-09-05T07:53:25.000Z</time>
      </trkpt>
      <trkpt lat="49.64044" lon="-1.6214">
        <ele>9.065241</ele>
        <time>2021-09-05T07:53:31.000Z</time>
      </trkpt>
      <trkpt lat="49.64043" lon="-1.6214">
        <ele>9.061007</ele>
        <time>2021-09-05T07:53:40.000Z</time>
      </trkpt>
      <trkpt lat="49.6403" lon="-1.62143">
        <ele>9.024519</ele>
        <time>2021-09-05T07:53:45.000Z</time>
      </trkpt>
      <trkpt lat="49.64011" lon="-1.62147">
        <ele>8.973408</ele>
        <time>2021-09-05T07:53:52.000Z</time>
      </trkpt>
      <trkpt lat="49.63972" lon="-1.62136">
        <ele>8.861211</ele>
        <time>2021-09-05T07:53:58.000Z</time>
      </trkpt>
      <trkpt lat="49.63946" lon="-1.62122">
        <ele>8.786769</ele>
        <time>2021-09-05T07:54:04.000Z</time>
      </trkpt>
      <trkpt lat="49.63929" lon="-1.62113">
        <ele>8.741723</ele>
        <time>2021-09-05T07:54:10.000Z</time>
      </trkpt>
      <trkpt lat="49.63923" lon="-1.6211">
        <ele>8.725815</ele>
        <time>2021-09-05T07:54:16.000Z</time>
      </trkpt>
      <trkpt lat="49.63915" lon="-1.62072">
        <ele>8.659826</ele>
        <time>2021-09-05T07:55:07.000Z</time>
      </trkpt>
      <trkpt lat="49.63912" lon="-1.62024">
        <ele>8.580165</ele>
        <time>2021-09-05T07:55:14.000Z</time>
      </trkpt>
      <trkpt lat="49.63908" lon="-1.61962">
        <ele>8.478109</ele>
        <time>2021-09-05T07:55:21.000Z</time>
      </trkpt>
      <trkpt lat="49.63905" lon="-1.61919">
        <ele>8.408141</ele>
        <time>2021-09-05T07:55:26.000Z</time>
      </trkpt>
      <trkpt lat="49.63905" lon="-1.61911">
        <ele>8.394904</ele>
        <time>2021-09-05T07:55:27.000Z</time>
      </trkpt>
      <trkpt lat="49.63911" lon="-1.61904">
        <ele>8.374892</ele>
        <time>2021-09-05T07:55:29.000Z</time>
      </trkpt>
      <trkpt lat="49.63926" lon="-1.61896">
        <ele>8.355357</ele>
        <time>2021-09-05T07:55:32.000Z</time>
      </trkpt>
      <trkpt lat="49.63937" lon="-1.61891">
        <ele>8.358916</ele>
        <time>2021-09-05T07:55:34.000Z</time>
      </trkpt>
      <trkpt lat="49.63961" lon="-1.61859">
        <ele>8.369192</ele>
        <time>2021-09-05T07:55:39.000Z</time>
      </trkpt>
      <trkpt lat="49.63961" lon="-1.61859">
        <ele>8.369192</ele>
        <time>2021-09-05T07:55:40.000Z</time>
      </trkpt>
      <trkpt lat="49.63972" lon="-1.61848">
        <ele>8.37326</ele>
        <time>2021-09-05T07:55:41.000Z</time>
      </trkpt>
      <trkpt lat="49.63996" lon="-1.61834">
        <ele>8.381233</ele>
        <time>2021-09-05T07:55:45.000Z</time>
      </trkpt>
      <trkpt lat="49.64001" lon="-1.61831">
        <ele>8.383196</ele>
        <time>2021-09-05T07:55:46.000Z</time>
      </trkpt>
      <trkpt lat="49.64013" lon="-1.61825">
        <ele>8.387142</ele>
        <time>2021-09-05T07:55:48.000Z</time>
      </trkpt>
      <trkpt lat="49.64036" lon="-1.61815">
        <ele>8.39481</ele>
        <time>2021-09-05T07:55:52.000Z</time>
      </trkpt>
      <trkpt lat="49.64042" lon="-1.61813">
        <ele>8.396689</ele>
        <time>2021-09-05T07:55:53.000Z</time>
      </trkpt>
      <trkpt lat="49.64098" lon="-1.61802">
        <ele>8.423627</ele>
        <time>2021-09-05T07:56:02.000Z</time>
      </trkpt>
      <trkpt lat="49.64142" lon="-1.61801">
        <ele>8.467597</ele>
        <time>2021-09-05T07:56:10.000Z</time>
      </trkpt>
      <trkpt lat="49.64155" lon="-1.61796">
        <ele>8.48047</ele>
        <time>2021-09-05T07:56:11.000Z</time>
      </trkpt>
      <trkpt lat="49.64173" lon="-1.61782">
        <ele>8.500452</ele>
        <time>2021-09-05T07:56:14.000Z</time>
      </trkpt>
      <trkpt lat="49.64195" lon="-1.61759">
        <ele>8.526686</ele>
        <time>2021-09-05T07:56:19.000Z</time>
      </trkpt>
      <trkpt lat="49.642" lon="-1.61752">
        <ele>8.53331</ele>
        <time>2021-09-05T07:56:20.000Z</time>
      </trkpt>
      <trkpt lat="49.64214" lon="-1.61729">
        <ele>8.553392</ele>
        <time>2021-09-05T07:56:23.000Z</time>
      </trkpt>
      <trkpt lat="49.6422" lon="-1.6171">
        <ele>8.566519</ele>
        <time>2021-09-05T07:56:25.000Z</time>
      </trkpt>
      <trkpt lat="49.64232" lon="-1.61648">
        <ele>8.544208</ele>
        <time>2021-09-05T07:56:31.000Z</time>
      </trkpt>
      <trkpt lat="49.64233" lon="-1.61631">
        <ele>8.522107</ele>
        <time>2021-09-05T07:56:33.000Z</time>
      </trkpt>
      <trkpt lat="49.6424" lon="-1.6161">
        <ele>8.489909</ele>
        <time>2021-09-05T07:56:35.000Z</time>
      </trkpt>
      <trkpt lat="49.64242" lon="-1.61605">
        <ele>8.482512</ele>
        <time>2021-09-05T07:56:37.000Z</time>
      </trkpt>
      <trkpt lat="49.64247" lon="-1.616">
        <ele>8.470239</ele>
        <time>2021-09-05T07:56:38.000Z</time>
      </trkpt>
      <trkpt lat="49.64252" lon="-1.61608">
        <ele>8.456635</ele>
        <time>2021-09-05T07:56:39.000Z</time>
      </trkpt>
      <trkpt lat="49.64261" lon="-1.61606">
        <ele>8.437254</ele>
        <time>2021-09-05T07:56:41.000Z</time>
      </trkpt>
      <trkpt lat="49.64271" lon="-1.61569">
        <ele>8.38464</ele>
        <time>2021-09-05T07:56:46.000Z</time>
      </trkpt>
      <trkpt lat="49.64272" lon="-1.61561">
        <ele>8.373048</ele>
        <time>2021-09-05T07:56:47.000Z</time>
      </trkpt>
      <trkpt lat="49.64273" lon="-1.61515">
        <ele>8.312536</ele>
        <time>2021-09-05T07:56:53.000Z</time>
      </trkpt>
      <trkpt lat="49.64272" lon="-1.61497">
        <ele>8.287982</ele>
        <time>2021-09-05T07:56:54.000Z</time>
      </trkpt>
      <trkpt lat="49.64258" lon="-1.61427">
        <ele>8.186137</ele>
        <time>2021-09-05T07:57:02.000Z</time>
      </trkpt>
      <trkpt lat="49.64246" lon="-1.61363">
        <ele>8.085315</ele>
        <time>2021-09-05T07:57:09.000Z</time>
      </trkpt>
      <trkpt lat="49.64243" lon="-1.61298">
        <ele>7.986346</ele>
        <time>2021-09-05T07:57:16.000Z</time>
      </trkpt>
      <trkpt lat="49.64247" lon="-1.61243">
        <ele>7.903418</ele>
        <time>2021-09-05T07:57:22.000Z</time>
      </trkpt>
      <trkpt lat="49.64252" lon="-1.61167">
        <ele>7.789198</ele>
        <time>2021-09-05T07:57:30.000Z</time>
      </trkpt>
      <trkpt lat="49.64257" lon="-1.61092">
        <ele>7.692321</ele>
        <time>2021-09-05T07:57:38.000Z</time>
      </trkpt>
      <trkpt lat="49.64261" lon="-1.61023">
        <ele>7.604434</ele>
        <time>2021-09-05T07:57:45.000Z</time>
      </trkpt>
      <trkpt lat="49.64266" lon="-1.60947">
        <ele>7.506226</ele>
        <time>2021-09-05T07:57:53.000Z</time>
      </trkpt>
      <trkpt lat="49.64274" lon="-1.60862">
        <ele>7.459831</ele>
        <time>2021-09-05T07:58:02.000Z</time>
      </trkpt>
      <trkpt lat="49.64275" lon="-1.60853">
        <ele>7.463998</ele>
        <time>2021-09-05T07:58:03.000Z</time>
      </trkpt>
      <trkpt lat="49.6428" lon="-1.6079">
        <ele>7.494545</ele>
        <time>2021-09-05T07:58:10.000Z</time>
      </trkpt>
      <trkpt lat="49.64291" lon="-1.60705">
        <ele>7.536212</ele>
        <time>2021-09-05T07:58:19.000Z</time>
      </trkpt>
      <trkpt lat="49.64303" lon="-1.60617">
        <ele>7.59058</ele>
        <time>2021-09-05T07:58:28.000Z</time>
      </trkpt>
      <trkpt lat="49.64305" lon="-1.60608">
        <ele>7.611805</ele>
        <time>2021-09-05T07:58:29.000Z</time>
      </trkpt>
      <trkpt lat="49.64314" lon="-1.60552">
        <ele>7.739938</ele>
        <time>2021-09-05T07:58:35.000Z</time>
      </trkpt>
      <trkpt lat="49.64327" lon="-1.60469">
        <ele>7.927373</ele>
        <time>2021-09-05T07:58:44.000Z</time>
      </trkpt>
      <trkpt lat="49.64337" lon="-1.60397">
        <ele>8.090265</ele>
        <time>2021-09-05T07:58:52.000Z</time>
      </trkpt>
      <trkpt lat="49.64344" lon="-1.60348">
        <ele>8.189364</ele>
        <time>2021-09-05T07:58:58.000Z</time>
      </trkpt>
      <trkpt lat="49.64346" lon="-1.60342">
        <ele>8.189642</ele>
        <time>2021-09-05T07:58:59.000Z</time>
      </trkpt>
      <trkpt lat="49.6435" lon="-1.60329">
        <ele>8.190171</ele>
        <time>2021-09-05T07:59:02.000Z</time>
      </trkpt>
      <trkpt lat="49.64351" lon="-1.60322">
        <ele>8.190467</ele>
        <time>2021-09-05T07:59:08.000Z</time>
      </trkpt>
      <trkpt lat="49.6435" lon="-1.60319">
        <ele>8.190598</ele>
        <time>2021-09-05T07:59:12.000Z</time>
      </trkpt>
      <trkpt lat="49.64346" lon="-1.6031">
        <ele>8.191015</ele>
        <time>2021-09-05T07:59:16.000Z</time>
      </trkpt>
      <trkpt lat="49.64344" lon="-1.60307">
        <ele>8.19119</ele>
        <time>2021-09-05T07:59:17.000Z</time>
      </trkpt>
      <trkpt lat="49.64353" lon="-1.60259">
        <ele>8.193123</ele>
        <time>2021-09-05T07:59:23.000Z</time>
      </trkpt>
      <trkpt lat="49.64366" lon="-1.6021">
        <ele>8.195189</ele>
        <time>2021-09-05T07:59:29.000Z</time>
      </trkpt>
      <trkpt lat="49.6437" lon="-1.60185">
        <ele>8.196192</ele>
        <time>2021-09-05T07:59:32.000Z</time>
      </trkpt>
      <trkpt lat="49.64371" lon="-1.60169">
        <ele>8.196841</ele>
        <time>2021-09-05T07:59:34.000Z</time>
      </trkpt>
      <trkpt lat="49.64379" lon="-1.60127">
        <ele>8.198542</ele>
        <time>2021-09-05T07:59:39.000Z</time>
      </trkpt>
      <trkpt lat="49.64399" lon="-1.60048">
        <ele>8.202711</ele>
        <time>2021-09-05T07:59:48.000Z</time>
      </trkpt>
      <trkpt lat="49.64418" lon="-1.59975">
        <ele>8.207095</ele>
        <time>2021-09-05T07:59:56.000Z</time>
      </trkpt>
      <trkpt lat="49.64435" lon="-1.59911">
        <ele>8.211035</ele>
        <time>2021-09-05T08:00:03.000Z</time>
      </trkpt>
      <trkpt lat="49.64452" lon="-1.59868">
        <ele>8.213817</ele>
        <time>2021-09-05T08:00:08.000Z</time>
      </trkpt>
      <trkpt lat="49.64466" lon="-1.59837">
        <ele>8.215213</ele>
        <time>2021-09-05T08:00:12.000Z</time>
      </trkpt>
      <trkpt lat="49.64469" lon="-1.5983">
        <ele>8.214458</ele>
        <time>2021-09-05T08:00:13.000Z</time>
      </trkpt>
      <trkpt lat="49.64493" lon="-1.59775">
        <ele>8.209131</ele>
        <time>2021-09-05T08:00:20.000Z</time>
      </trkpt>
      <trkpt lat="49.64522" lon="-1.59711">
        <ele>8.202763</ele>
        <time>2021-09-05T08:00:28.000Z</time>
      </trkpt>
      <trkpt lat="49.64548" lon="-1.59656">
        <ele>8.197328</ele>
        <time>2021-09-05T08:00:35.000Z</time>
      </trkpt>
      <trkpt lat="49.64582" lon="-1.59584">
        <ele>8.155394</ele>
        <time>2021-09-05T08:00:44.000Z</time>
      </trkpt>
      <trkpt lat="49.64613" lon="-1.5952">
        <ele>8.076682</ele>
        <time>2021-09-05T08:00:52.000Z</time>
      </trkpt>
      <trkpt lat="49.64651" lon="-1.59453">
        <ele>7.989024</ele>
        <time>2021-09-05T08:01:01.000Z</time>
      </trkpt>
      <trkpt lat="49.64687" lon="-1.59387">
        <ele>7.906351</ele>
        <time>2021-09-05T08:01:10.000Z</time>
      </trkpt>
      <trkpt lat="49.64724" lon="-1.59317">
        <ele>7.831415</ele>
        <time>2021-09-05T08:01:19.000Z</time>
      </trkpt>
      <trkpt lat="49.64724" lon="-1.59317">
        <ele>7.831415</ele>
        <time>2021-09-05T08:01:20.000Z</time>
      </trkpt>
      <trkpt lat="49.64748" lon="-1.59271">
        <ele>7.781512</ele>
        <time>2021-09-05T08:01:25.000Z</time>
      </trkpt>
      <trkpt lat="49.64759" lon="-1.59261">
        <ele>7.764709</ele>
        <time>2021-09-05T08:01:27.000Z</time>
      </trkpt>
      <trkpt lat="49.64764" lon="-1.59257">
        <ele>7.757787</ele>
        <time>2021-09-05T08:01:28.000Z</time>
      </trkpt>
      <trkpt lat="49.64785" lon="-1.59213">
        <ele>7.712238</ele>
        <time>2021-09-05T08:01:34.000Z</time>
      </trkpt>
      <trkpt lat="49.64791" lon="-1.59199">
        <ele>7.698</ele>
        <time>2021-09-05T08:01:36.000Z</time>
      </trkpt>
      <trkpt lat="49.64795" lon="-1.59184">
        <ele>7.691622</ele>
        <time>2021-09-05T08:01:38.000Z</time>
      </trkpt>
      <trkpt lat="49.64792" lon="-1.59168">
        <ele>7.709258</ele>
        <time>2021-09-05T08:01:40.000Z</time>
      </trkpt>
      <trkpt lat="49.64791" lon="-1.59161">
        <ele>7.71675</ele>
        <time>2021-09-05T08:01:41.000Z</time>
      </trkpt>
      <trkpt lat="49.64782" lon="-1.59156">
        <ele>7.732002</ele>
        <time>2021-09-05T08:01:44.000Z</time>
      </trkpt>
      <trkpt lat="49.64781" lon="-1.59142">
        <ele>7.746959</ele>
        <time>2021-09-05T08:01:46.000Z</time>
      </trkpt>
      <trkpt lat="49.64773" lon="-1.59124">
        <ele>7.770877</ele>
        <time>2021-09-05T08:01:48.000Z</time>
      </trkpt>
      <trkpt lat="49.64763" lon="-1.59124">
        <ele>7.787306</ele>
        <time>2021-09-05T08:01:50.000Z</time>
      </trkpt>
      <trkpt lat="49.64752" lon="-1.59124">
        <ele>7.805227</ele>
        <time>2021-09-05T08:01:52.000Z</time>
      </trkpt>
      <trkpt lat="49.64746" lon="-1.59124">
        <ele>7.81452</ele>
        <time>2021-09-05T08:01:54.000Z</time>
      </trkpt>
      <trkpt lat="49.64747" lon="-1.59104">
        <ele>7.835887</ele>
        <time>2021-09-05T08:01:57.000Z</time>
      </trkpt>
      <trkpt lat="49.64768" lon="-1.59079">
        <ele>7.879562</ele>
        <time>2021-09-05T08:02:02.000Z</time>
      </trkpt>
      <trkpt lat="49.64778" lon="-1.59072">
        <ele>7.897413</ele>
        <time>2021-09-05T08:02:04.000Z</time>
      </trkpt>
      <trkpt lat="49.64788" lon="-1.59062">
        <ele>7.917717</ele>
        <time>2021-09-05T08:02:06.000Z</time>
      </trkpt>
      <trkpt lat="49.64811" lon="-1.59019">
        <ele>7.977938</ele>
        <time>2021-09-05T08:02:12.000Z</time>
      </trkpt>
      <trkpt lat="49.64839" lon="-1.58968">
        <ele>7.923454</ele>
        <time>2021-09-05T08:02:20.000Z</time>
      </trkpt>
      <trkpt lat="49.64847" lon="-1.58953">
        <ele>7.902889</ele>
        <time>2021-09-05T08:02:21.000Z</time>
      </trkpt>
      <trkpt lat="49.64858" lon="-1.58932">
        <ele>7.872767</ele>
        <time>2021-09-05T08:02:24.000Z</time>
      </trkpt>
      <trkpt lat="49.64862" lon="-1.58925">
        <ele>7.863479</ele>
        <time>2021-09-05T08:02:26.000Z</time>
      </trkpt>
      <trkpt lat="49.64873" lon="-1.58905">
        <ele>7.835348</ele>
        <time>2021-09-05T08:02:28.000Z</time>
      </trkpt>
      <trkpt lat="49.64883" lon="-1.58897">
        <ele>7.816597</ele>
        <time>2021-09-05T08:02:30.000Z</time>
      </trkpt>
      <trkpt lat="49.64902" lon="-1.58857">
        <ele>7.763569</ele>
        <time>2021-09-05T08:02:36.000Z</time>
      </trkpt>
      <trkpt lat="49.64922" lon="-1.58811">
        <ele>7.704018</ele>
        <time>2021-09-05T08:02:43.000Z</time>
      </trkpt>
      <trkpt lat="49.6494" lon="-1.5877">
        <ele>7.615984</ele>
        <time>2021-09-05T08:02:50.000Z</time>
      </trkpt>
      <trkpt lat="49.64958" lon="-1.58728">
        <ele>7.512936</ele>
        <time>2021-09-05T08:02:56.000Z</time>
      </trkpt>
      <trkpt lat="49.6497" lon="-1.587">
        <ele>7.442209</ele>
        <time>2021-09-05T08:02:59.000Z</time>
      </trkpt>
      <trkpt lat="49.64981" lon="-1.58675">
        <ele>7.379304</ele>
        <time>2021-09-05T08:03:03.000Z</time>
      </trkpt>
      <trkpt lat="49.64997" lon="-1.58638">
        <ele>7.287897</ele>
        <time>2021-09-05T08:03:09.000Z</time>
      </trkpt>
      <trkpt lat="49.65015" lon="-1.58596">
        <ele>7.183987</ele>
        <time>2021-09-05T08:03:16.000Z</time>
      </trkpt>
      <trkpt lat="49.65016" lon="-1.5859">
        <ele>7.172663</ele>
        <time>2021-09-05T08:03:18.000Z</time>
      </trkpt>
      <trkpt lat="49.65025" lon="-1.58576">
        <ele>7.131159</ele>
        <time>2021-09-05T08:03:20.000Z</time>
      </trkpt>
      <trkpt lat="49.6505" lon="-1.58531">
        <ele>7.062774</ele>
        <time>2021-09-05T08:03:27.000Z</time>
      </trkpt>
      <trkpt lat="49.65076" lon="-1.58471">
        <ele>6.990081</ele>
        <time>2021-09-05T08:03:36.000Z</time>
      </trkpt>
      <trkpt lat="49.65105" lon="-1.58412">
        <ele>6.916569</ele>
        <time>2021-09-05T08:03:43.000Z</time>
      </trkpt>
      <trkpt lat="49.65108" lon="-1.58404">
        <ele>6.906968</ele>
        <time>2021-09-05T08:03:44.000Z</time>
      </trkpt>
      <trkpt lat="49.65118" lon="-1.58392">
        <ele>6.888015</ele>
        <time>2021-09-05T08:03:46.000Z</time>
      </trkpt>
      <trkpt lat="49.65126" lon="-1.58377">
        <ele>6.86841</ele>
        <time>2021-09-05T08:03:49.000Z</time>
      </trkpt>
      <trkpt lat="49.65143" lon="-1.58342">
        <ele>6.829709</ele>
        <time>2021-09-05T08:03:52.000Z</time>
      </trkpt>
      <trkpt lat="49.65149" lon="-1.58329">
        <ele>6.820998</ele>
        <time>2021-09-05T08:03:54.000Z</time>
      </trkpt>
      <trkpt lat="49.65168" lon="-1.5829">
        <ele>6.79305</ele>
        <time>2021-09-05T08:04:01.000Z</time>
      </trkpt>
      <trkpt lat="49.65178" lon="-1.58268">
        <ele>6.777916</ele>
        <time>2021-09-05T08:04:05.000Z</time>
      </trkpt>
      <trkpt lat="49.65184" lon="-1.58251">
        <ele>6.767229</ele>
        <time>2021-09-05T08:04:07.000Z</time>
      </trkpt>
      <trkpt lat="49.65198" lon="-1.58203">
        <ele>6.736942</ele>
        <time>2021-09-05T08:04:12.000Z</time>
      </trkpt>
      <trkpt lat="49.652" lon="-1.58194">
        <ele>6.732073</ele>
        <time>2021-09-05T08:04:13.000Z</time>
      </trkpt>
      <trkpt lat="49.6521" lon="-1.58125">
        <ele>6.691936</ele>
        <time>2021-09-05T08:04:21.000Z</time>
      </trkpt>
      <trkpt lat="49.65214" lon="-1.5809">
        <ele>6.700431</ele>
        <time>2021-09-05T08:04:26.000Z</time>
      </trkpt>
      <trkpt lat="49.65217" lon="-1.58073">
        <ele>6.72734</ele>
        <time>2021-09-05T08:04:27.000Z</time>
      </trkpt>
      <trkpt lat="49.65209" lon="-1.58042">
        <ele>6.777503</ele>
        <time>2021-09-05T08:04:30.000Z</time>
      </trkpt>
      <trkpt lat="49.65179" lon="-1.58038">
        <ele>6.849762</ele>
        <time>2021-09-05T08:04:35.000Z</time>
      </trkpt>
      <trkpt lat="49.65141" lon="-1.58029">
        <ele>6.940366</ele>
        <time>2021-09-05T08:04:41.000Z</time>
      </trkpt>
      <trkpt lat="49.65095" lon="-1.58019">
        <ele>7.049555</ele>
        <time>2021-09-05T08:04:49.000Z</time>
      </trkpt>
      <trkpt lat="49.6503" lon="-1.58004">
        <ele>7.23526</ele>
        <time>2021-09-05T08:04:58.000Z</time>
      </trkpt>
      <trkpt lat="49.65023" lon="-1.58003">
        <ele>7.255152</ele>
        <time>2021-09-05T08:04:59.000Z</time>
      </trkpt>
      <trkpt lat="49.64982" lon="-1.57989">
        <ele>7.381284</ele>
        <time>2021-09-05T08:05:06.000Z</time>
      </trkpt>
      <trkpt lat="49.64955" lon="-1.5798">
        <ele>7.466018</ele>
        <time>2021-09-05T08:05:11.000Z</time>
      </trkpt>
      <trkpt lat="49.64949" lon="-1.57978">
        <ele>7.483988</ele>
        <time>2021-09-05T08:05:12.000Z</time>
      </trkpt>
      <trkpt lat="49.64915" lon="-1.57959">
        <ele>7.595667</ele>
        <time>2021-09-05T08:05:18.000Z</time>
      </trkpt>
      <trkpt lat="49.64897" lon="-1.57948">
        <ele>7.65228</ele>
        <time>2021-09-05T08:05:22.000Z</time>
      </trkpt>
      <trkpt lat="49.64881" lon="-1.57934">
        <ele>7.702636</ele>
        <time>2021-09-05T08:05:24.000Z</time>
      </trkpt>
      <trkpt lat="49.64848" lon="-1.57904">
        <ele>7.803962</ele>
        <time>2021-09-05T08:05:30.000Z</time>
      </trkpt>
      <trkpt lat="49.64812" lon="-1.57869">
        <ele>7.916937</ele>
        <time>2021-09-05T08:05:37.000Z</time>
      </trkpt>
      <trkpt lat="49.64787" lon="-1.57845">
        <ele>7.993743</ele>
        <time>2021-09-05T08:05:42.000Z</time>
      </trkpt>
      <trkpt lat="49.64775" lon="-1.57834">
        <ele>8.030453</ele>
        <time>2021-09-05T08:05:46.000Z</time>
      </trkpt>
      <trkpt lat="49.64774" lon="-1.57833">
        <ele>8.034472</ele>
        <time>2021-09-05T08:05:52.000Z</time>
      </trkpt>
      <trkpt lat="49.64774" lon="-1.57832">
        <ele>8.035737</ele>
        <time>2021-09-05T08:06:02.000Z</time>
      </trkpt>
      <trkpt lat="49.64764" lon="-1.57822">
        <ele>8.06735</ele>
        <time>2021-09-05T08:06:07.000Z</time>
      </trkpt>
      <trkpt lat="49.64728" lon="-1.57789">
        <ele>8.156118</ele>
        <time>2021-09-05T08:06:14.000Z</time>
      </trkpt>
      <trkpt lat="49.64692" lon="-1.57757">
        <ele>8.218405</ele>
        <time>2021-09-05T08:06:21.000Z</time>
      </trkpt>
      <trkpt lat="49.64666" lon="-1.57735">
        <ele>8.264826</ele>
        <time>2021-09-05T08:06:28.000Z</time>
      </trkpt>
      <trkpt lat="49.64616" lon="-1.57694">
        <ele>8.350459</ele>
        <time>2021-09-05T08:06:35.000Z</time>
      </trkpt>
      <trkpt lat="49.64571" lon="-1.57658">
        <ele>8.466367</ele>
        <time>2021-09-05T08:06:43.000Z</time>
      </trkpt>
      <trkpt lat="49.64531" lon="-1.57629">
        <ele>8.62982</ele>
        <time>2021-09-05T08:06:50.000Z</time>
      </trkpt>
      <trkpt lat="49.64479" lon="-1.57593">
        <ele>8.839813</ele>
        <time>2021-09-05T08:06:58.000Z</time>
      </trkpt>
      <trkpt lat="49.64462" lon="-1.57581">
        <ele>8.910182</ele>
        <time>2021-09-05T08:07:02.000Z</time>
      </trkpt>
      <trkpt lat="49.64445" lon="-1.57569">
        <ele>8.979874</ele>
        <time>2021-09-05T08:07:04.000Z</time>
      </trkpt>
      <trkpt lat="49.64434" lon="-1.57562">
        <ele>9.02449</ele>
        <time>2021-09-05T08:07:08.000Z</time>
      </trkpt>
      <trkpt lat="49.64417" lon="-1.57551">
        <ele>9.117556</ele>
        <time>2021-09-05T08:07:10.000Z</time>
      </trkpt>
      <trkpt lat="49.64383" lon="-1.5753">
        <ele>9.390086</ele>
        <time>2021-09-05T08:07:16.000Z</time>
      </trkpt>
      <trkpt lat="49.64377" lon="-1.57526">
        <ele>9.435828</ele>
        <time>2021-09-05T08:07:17.000Z</time>
      </trkpt>
      <trkpt lat="49.6435" lon="-1.57507">
        <ele>9.659797</ele>
        <time>2021-09-05T08:07:22.000Z</time>
      </trkpt>
      <trkpt lat="49.64306" lon="-1.57477">
        <ele>10.013557</ele>
        <time>2021-09-05T08:07:30.000Z</time>
      </trkpt>
      <trkpt lat="49.64256" lon="-1.57434">
        <ele>10.452564</ele>
        <time>2021-09-05T08:07:40.000Z</time>
      </trkpt>
      <trkpt lat="49.64222" lon="-1.57401">
        <ele>10.818314</ele>
        <time>2021-09-05T08:07:47.000Z</time>
      </trkpt>
      <trkpt lat="49.64198" lon="-1.57378">
        <ele>11.080692</ele>
        <time>2021-09-05T08:07:52.000Z</time>
      </trkpt>
      <trkpt lat="49.64188" lon="-1.57368">
        <ele>11.185652</ele>
        <time>2021-09-05T08:07:54.000Z</time>
      </trkpt>
      <trkpt lat="49.64174" lon="-1.57354">
        <ele>11.343578</ele>
        <time>2021-09-05T08:07:57.000Z</time>
      </trkpt>
      <trkpt lat="49.64143" lon="-1.57323">
        <ele>11.686847</ele>
        <time>2021-09-05T08:08:04.000Z</time>
      </trkpt>
      <trkpt lat="49.64111" lon="-1.57298">
        <ele>12.012331</ele>
        <time>2021-09-05T08:08:11.000Z</time>
      </trkpt>
      <trkpt lat="49.64083" lon="-1.5728">
        <ele>13.148705</ele>
        <time>2021-09-05T08:08:18.000Z</time>
      </trkpt>
      <trkpt lat="49.64061" lon="-1.57269">
        <ele>14.097095</ele>
        <time>2021-09-05T08:08:25.000Z</time>
      </trkpt>
      <trkpt lat="49.64042" lon="-1.57271">
        <ele>14.918914</ele>
        <time>2021-09-05T08:08:31.000Z</time>
      </trkpt>
      <trkpt lat="49.64029" lon="-1.57279">
        <ele>15.509833</ele>
        <time>2021-09-05T08:08:36.000Z</time>
      </trkpt>
      <trkpt lat="49.64028" lon="-1.5728">
        <ele>15.559095</ele>
        <time>2021-09-05T08:08:37.000Z</time>
      </trkpt>
      <trkpt lat="49.64018" lon="-1.57295">
        <ele>16.137794</ele>
        <time>2021-09-05T08:08:42.000Z</time>
      </trkpt>
      <trkpt lat="49.64018" lon="-1.57295">
        <ele>16.137794</ele>
        <time>2021-09-05T08:09:02.000Z</time>
      </trkpt>
      <trkpt lat="49.64018" lon="-1.57295">
        <ele>16.137794</ele>
        <time>2021-09-05T08:09:06.000Z</time>
      </trkpt>
      <trkpt lat="49.64018" lon="-1.57295">
        <ele>16.137794</ele>
        <time>2021-09-05T08:09:25.000Z</time>
      </trkpt>
      <trkpt lat="49.64018" lon="-1.57295">
        <ele>16.137794</ele>
        <time>2021-09-05T08:09:37.000Z</time>
      </trkpt>
      <trkpt lat="49.64018" lon="-1.57295">
        <ele>16.137794</ele>
        <time>2021-09-05T08:09:54.000Z</time>
      </trkpt>
      <trkpt lat="49.64018" lon="-1.57295">
        <ele>16.137794</ele>
        <time>2021-09-05T08:10:12.000Z</time>
      </trkpt>
      <trkpt lat="49.64018" lon="-1.57295">
        <ele>16.137794</ele>
        <time>2021-09-05T08:10:26.000Z</time>
      </trkpt>
      <trkpt lat="49.64018" lon="-1.57295">
        <ele>16.137794</ele>
        <time>2021-09-05T08:10:40.000Z</time>
      </trkpt>
      <trkpt lat="49.64018" lon="-1.57295">
        <ele>16.137794</ele>
        <time>2021-09-05T08:10:52.000Z</time>
      </trkpt>
      <trkpt lat="49.64018" lon="-1.57295">
        <ele>16.137794</ele>
        <time>2021-09-05T08:11:07.000Z</time>
      </trkpt>
      <trkpt lat="49.64018" lon="-1.57295">
        <ele>16.137794</ele>
        <time>2021-09-05T08:11:28.000Z</time>
      </trkpt>
      <trkpt lat="49.64018" lon="-1.57295">
        <ele>16.137794</ele>
        <time>2021-09-05T08:12:02.000Z</time>
      </trkpt>
      <trkpt lat="49.64018" lon="-1.57295">
        <ele>16.137794</ele>
        <time>2021-09-05T08:12:18.000Z</time>
      </trkpt>
      <trkpt lat="49.64019" lon="-1.57298">
        <ele>16.21087</ele>
        <time>2021-09-05T08:12:42.000Z</time>
      </trkpt>
      <trkpt lat="49.64019" lon="-1.57284">
        <ele>16.573036</ele>
        <time>2021-09-05T08:12:47.000Z</time>
      </trkpt>
      <trkpt lat="49.64017" lon="-1.57287">
        <ele>16.700052</ele>
        <time>2021-09-05T08:12:51.000Z</time>
      </trkpt>
      <trkpt lat="49.64013" lon="-1.57263">
        <ele>17.375419</ele>
        <time>2021-09-05T08:12:56.000Z</time>
      </trkpt>
      <trkpt lat="49.64004" lon="-1.5722">
        <ele>18.602391</ele>
        <time>2021-09-05T08:13:05.000Z</time>
      </trkpt>
      <trkpt lat="49.63996" lon="-1.57175">
        <ele>19.717636</ele>
        <time>2021-09-05T08:13:14.000Z</time>
      </trkpt>
      <trkpt lat="49.63989" lon="-1.5714">
        <ele>19.991057</ele>
        <time>2021-09-05T08:13:21.000Z</time>
      </trkpt>
      <trkpt lat="49.63983" lon="-1.57108">
        <ele>20.235301</ele>
        <time>2021-09-05T08:13:28.000Z</time>
      </trkpt>
      <trkpt lat="49.63977" lon="-1.5708">
        <ele>20.449661</ele>
        <time>2021-09-05T08:13:34.000Z</time>
      </trkpt>
      <trkpt lat="49.63969" lon="-1.5704">
        <ele>20.763147</ele>
        <time>2021-09-05T08:13:41.000Z</time>
      </trkpt>
      <trkpt lat="49.63954" lon="-1.57028">
        <ele>20.954475</ele>
        <time>2021-09-05T08:13:44.000Z</time>
      </trkpt>
      <trkpt lat="49.63954" lon="-1.57028">
        <ele>20.954475</ele>
        <time>2021-09-05T08:13:45.000Z</time>
      </trkpt>
      <trkpt lat="49.6393" lon="-1.57021">
        <ele>21.242864</ele>
        <time>2021-09-05T08:13:49.000Z</time>
      </trkpt>
      <trkpt lat="49.63912" lon="-1.57016">
        <ele>21.444451</ele>
        <time>2021-09-05T08:13:53.000Z</time>
      </trkpt>
      <trkpt lat="49.63904" lon="-1.57016">
        <ele>21.542536</ele>
        <time>2021-09-05T08:13:55.000Z</time>
      </trkpt>
      <trkpt lat="49.63896" lon="-1.5702">
        <ele>21.633478</ele>
        <time>2021-09-05T08:13:57.000Z</time>
      </trkpt>
      <trkpt lat="49.63888" lon="-1.57023">
        <ele>21.714935</ele>
        <time>2021-09-05T08:14:00.000Z</time>
      </trkpt>
      <trkpt lat="49.63873" lon="-1.57031">
        <ele>21.802136</ele>
        <time>2021-09-05T08:14:04.000Z</time>
      </trkpt>
      <trkpt lat="49.63869" lon="-1.57033">
        <ele>21.825356</ele>
        <time>2021-09-05T08:14:05.000Z</time>
      </trkpt>
      <trkpt lat="49.63851" lon="-1.57038">
        <ele>21.921939</ele>
        <time>2021-09-05T08:14:08.000Z</time>
      </trkpt>
      <trkpt lat="49.63833" lon="-1.57044">
        <ele>22.023677</ele>
        <time>2021-09-05T08:14:12.000Z</time>
      </trkpt>
      <trkpt lat="49.63799" lon="-1.57053">
        <ele>22.207423</ele>
        <time>2021-09-05T08:14:19.000Z</time>
      </trkpt>
      <trkpt lat="49.63794" lon="-1.57054">
        <ele>22.233148</ele>
        <time>2021-09-05T08:14:20.000Z</time>
      </trkpt>
      <trkpt lat="49.63768" lon="-1.57061">
        <ele>22.376028</ele>
        <time>2021-09-05T08:14:27.000Z</time>
      </trkpt>
      <trkpt lat="49.63742" lon="-1.57068">
        <ele>22.517785</ele>
        <time>2021-09-05T08:14:34.000Z</time>
      </trkpt>
      <trkpt lat="49.63728" lon="-1.57072">
        <ele>22.598332</ele>
        <time>2021-09-05T08:14:39.000Z</time>
      </trkpt>
      <trkpt lat="49.63711" lon="-1.57076">
        <ele>22.695903</ele>
        <time>2021-09-05T08:14:44.000Z</time>
      </trkpt>
      <trkpt lat="49.63682" lon="-1.57084">
        <ele>22.945485</ele>
        <time>2021-09-05T08:14:51.000Z</time>
      </trkpt>
      <trkpt lat="49.63659" lon="-1.5708">
        <ele>23.146978</ele>
        <time>2021-09-05T08:14:58.000Z</time>
      </trkpt>
      <trkpt lat="49.63627" lon="-1.57056">
        <ele>23.442087</ele>
        <time>2021-09-05T08:15:05.000Z</time>
      </trkpt>
      <trkpt lat="49.63623" lon="-1.57053">
        <ele>23.48111</ele>
        <time>2021-09-05T08:15:06.000Z</time>
      </trkpt>
      <trkpt lat="49.63598" lon="-1.5704">
        <ele>23.711126</ele>
        <time>2021-09-05T08:15:12.000Z</time>
      </trkpt>
      <trkpt lat="49.63588" lon="-1.5703">
        <ele>23.812835</ele>
        <time>2021-09-05T08:15:16.000Z</time>
      </trkpt>
      <trkpt lat="49.63579" lon="-1.57021">
        <ele>23.904118</ele>
        <time>2021-09-05T08:15:17.000Z</time>
      </trkpt>
      <trkpt lat="49.63551" lon="-1.56997">
        <ele>24.176312</ele>
        <time>2021-09-05T08:15:25.000Z</time>
      </trkpt>
      <trkpt lat="49.63531" lon="-1.56977">
        <ele>24.616715</ele>
        <time>2021-09-05T08:15:30.000Z</time>
      </trkpt>
      <trkpt lat="49.63517" lon="-1.56955">
        <ele>25.032583</ele>
        <time>2021-09-05T08:15:36.000Z</time>
      </trkpt>
      <trkpt lat="49.63504" lon="-1.56937">
        <ele>25.39315</ele>
        <time>2021-09-05T08:15:41.000Z</time>
      </trkpt>
      <trkpt lat="49.6348" lon="-1.56922">
        <ele>25.908778</ele>
        <time>2021-09-05T08:15:47.000Z</time>
      </trkpt>
      <trkpt lat="49.63446" lon="-1.56904">
        <ele>26.64467</ele>
        <time>2021-09-05T08:15:57.000Z</time>
      </trkpt>
      <trkpt lat="49.63442" lon="-1.56902">
        <ele>26.729284</ele>
        <time>2021-09-05T08:15:58.000Z</time>
      </trkpt>
      <trkpt lat="49.63428" lon="-1.56891">
        <ele>27.058407</ele>
        <time>2021-09-05T08:16:01.000Z</time>
      </trkpt>
      <trkpt lat="49.63428" lon="-1.56891">
        <ele>27.058407</ele>
        <time>2021-09-05T08:16:02.000Z</time>
      </trkpt>
      <trkpt lat="49.63425" lon="-1.56887">
        <ele>27.138418</ele>
        <time>2021-09-05T08:16:03.000Z</time>
      </trkpt>
      <trkpt lat="49.63413" lon="-1.56864">
        <ele>27.534068</ele>
        <time>2021-09-05T08:16:08.000Z</time>
      </trkpt>
      <trkpt lat="49.6339" lon="-1.56818">
        <ele>28.512594</ele>
        <time>2021-09-05T08:16:17.000Z</time>
      </trkpt>
      <trkpt lat="49.63378" lon="-1.56793">
        <ele>29.15986</ele>
        <time>2021-09-05T08:16:24.000Z</time>
      </trkpt>
      <trkpt lat="49.63365" lon="-1.56767">
        <ele>29.810341</ele>
        <time>2021-09-05T08:16:30.000Z</time>
      </trkpt>
      <trkpt lat="49.63355" lon="-1.56748">
        <ele>30.296339</ele>
        <time>2021-09-05T08:16:36.000Z</time>
      </trkpt>
      <trkpt lat="49.63343" lon="-1.56723">
        <ele>30.93341</ele>
        <time>2021-09-05T08:16:43.000Z</time>
      </trkpt>
      <trkpt lat="49.63326" lon="-1.56689">
        <ele>31.798043</ele>
        <time>2021-09-05T08:16:52.000Z</time>
      </trkpt>
      <trkpt lat="49.63314" lon="-1.56663">
        <ele>32.44692</ele>
        <time>2021-09-05T08:16:59.000Z</time>
      </trkpt>
      <trkpt lat="49.63304" lon="-1.56643">
        <ele>32.951425</ele>
        <time>2021-09-05T08:17:06.000Z</time>
      </trkpt>
      <trkpt lat="49.63276" lon="-1.56634">
        <ele>33.705867</ele>
        <time>2021-09-05T08:17:13.000Z</time>
      </trkpt>
      <trkpt lat="49.63252" lon="-1.56633">
        <ele>34.196633</ele>
        <time>2021-09-05T08:17:19.000Z</time>
      </trkpt>
      <trkpt lat="49.63232" lon="-1.56632">
        <ele>34.603923</ele>
        <time>2021-09-05T08:17:25.000Z</time>
      </trkpt>
      <trkpt lat="49.63223" lon="-1.56632">
        <ele>34.774229</ele>
        <time>2021-09-05T08:17:26.000Z</time>
      </trkpt>
      <trkpt lat="49.63215" lon="-1.56632">
        <ele>34.928485</ele>
        <time>2021-09-05T08:17:29.000Z</time>
      </trkpt>
      <trkpt lat="49.63212" lon="-1.56632">
        <ele>35.0066</ele>
        <time>2021-09-05T08:17:30.000Z</time>
      </trkpt>
      <trkpt lat="49.63204" lon="-1.56633">
        <ele>35.160893</ele>
        <time>2021-09-05T08:17:31.000Z</time>
      </trkpt>
      <trkpt lat="49.63197" lon="-1.56633">
        <ele>35.303107</ele>
        <time>2021-09-05T08:17:34.000Z</time>
      </trkpt>
      <trkpt lat="49.63188" lon="-1.56633">
        <ele>35.477417</ele>
        <time>2021-09-05T08:17:38.000Z</time>
      </trkpt>
      <trkpt lat="49.63165" lon="-1.56645">
        <ele>35.963209</ele>
        <time>2021-09-05T08:17:41.000Z</time>
      </trkpt>
      <trkpt lat="49.6316" lon="-1.56649">
        <ele>36.078149</ele>
        <time>2021-09-05T08:17:43.000Z</time>
      </trkpt>
      <trkpt lat="49.63149" lon="-1.56656">
        <ele>36.312225</ele>
        <time>2021-09-05T08:17:45.000Z</time>
      </trkpt>
      <trkpt lat="49.63138" lon="-1.56663">
        <ele>36.550498</ele>
        <time>2021-09-05T08:17:47.000Z</time>
      </trkpt>
      <trkpt lat="49.631" lon="-1.56692">
        <ele>37.132757</ele>
        <time>2021-09-05T08:17:53.000Z</time>
      </trkpt>
      <trkpt lat="49.6308" lon="-1.56713">
        <ele>37.190674</ele>
        <time>2021-09-05T08:17:56.000Z</time>
      </trkpt>
      <trkpt lat="49.63072" lon="-1.56717">
        <ele>37.209952</ele>
        <time>2021-09-05T08:17:57.000Z</time>
      </trkpt>
      <trkpt lat="49.63054" lon="-1.56723">
        <ele>37.254334</ele>
        <time>2021-09-05T08:17:58.000Z</time>
      </trkpt>
      <trkpt lat="49.63031" lon="-1.56724">
        <ele>37.309505</ele>
        <time>2021-09-05T08:18:02.000Z</time>
      </trkpt>
      <trkpt lat="49.63007" lon="-1.56723">
        <ele>37.365392</ele>
        <time>2021-09-05T08:18:05.000Z</time>
      </trkpt>
      <trkpt lat="49.63003" lon="-1.56723">
        <ele>37.37614</ele>
        <time>2021-09-05T08:18:06.000Z</time>
      </trkpt>
      <trkpt lat="49.62979" lon="-1.56722">
        <ele>37.433948</ele>
        <time>2021-09-05T08:18:13.000Z</time>
      </trkpt>
      <trkpt lat="49.62968" lon="-1.56722">
        <ele>37.460699</ele>
        <time>2021-09-05T08:18:15.000Z</time>
      </trkpt>
      <trkpt lat="49.62951" lon="-1.56722">
        <ele>37.499157</ele>
        <time>2021-09-05T08:18:19.000Z</time>
      </trkpt>
      <trkpt lat="49.62932" lon="-1.56721">
        <ele>37.645337</ele>
        <time>2021-09-05T08:18:24.000Z</time>
      </trkpt>
      <trkpt lat="49.62913" lon="-1.56721">
        <ele>37.911012</ele>
        <time>2021-09-05T08:18:30.000Z</time>
      </trkpt>
      <trkpt lat="49.62894" lon="-1.5672">
        <ele>38.16699</ele>
        <time>2021-09-05T08:18:32.000Z</time>
      </trkpt>
      <trkpt lat="49.62889" lon="-1.5672">
        <ele>38.233405</ele>
        <time>2021-09-05T08:18:34.000Z</time>
      </trkpt>
      <trkpt lat="49.62878" lon="-1.5672">
        <ele>38.387</ele>
        <time>2021-09-05T08:18:35.000Z</time>
      </trkpt>
      <trkpt lat="49.62869" lon="-1.5672">
        <ele>38.518447</ele>
        <time>2021-09-05T08:18:37.000Z</time>
      </trkpt>
      <trkpt lat="49.62857" lon="-1.56709">
        <ele>38.703907</ele>
        <time>2021-09-05T08:18:39.000Z</time>
      </trkpt>
      <trkpt lat="49.62857" lon="-1.5669">
        <ele>38.880451</ele>
        <time>2021-09-05T08:18:42.000Z</time>
      </trkpt>
      <trkpt lat="49.62854" lon="-1.56649">
        <ele>39.24799</ele>
        <time>2021-09-05T08:18:48.000Z</time>
      </trkpt>
      <trkpt lat="49.62844" lon="-1.56632">
        <ele>39.455379</ele>
        <time>2021-09-05T08:18:53.000Z</time>
      </trkpt>
      <trkpt lat="49.62827" lon="-1.56631">
        <ele>39.689256</ele>
        <time>2021-09-05T08:18:58.000Z</time>
      </trkpt>
      <trkpt lat="49.62809" lon="-1.56635">
        <ele>39.941744</ele>
        <time>2021-09-05T08:19:03.000Z</time>
      </trkpt>
      <trkpt lat="49.62787" lon="-1.5664">
        <ele>40.129307</ele>
        <time>2021-09-05T08:19:10.000Z</time>
      </trkpt>
      <trkpt lat="49.62769" lon="-1.56648">
        <ele>40.252295</ele>
        <time>2021-09-05T08:19:16.000Z</time>
      </trkpt>
      <trkpt lat="49.62754" lon="-1.56655">
        <ele>40.354694</ele>
        <time>2021-09-05T08:19:22.000Z</time>
      </trkpt>
      <trkpt lat="49.62725" lon="-1.56669">
        <ele>40.55659</ele>
        <time>2021-09-05T08:19:28.000Z</time>
      </trkpt>
      <trkpt lat="49.62705" lon="-1.56678">
        <ele>40.695154</ele>
        <time>2021-09-05T08:19:34.000Z</time>
      </trkpt>
      <trkpt lat="49.62692" lon="-1.56683">
        <ele>40.781003</ele>
        <time>2021-09-05T08:19:37.000Z</time>
      </trkpt>
      <trkpt lat="49.62679" lon="-1.56688">
        <ele>40.869738</ele>
        <time>2021-09-05T08:19:40.000Z</time>
      </trkpt>
      <trkpt lat="49.62648" lon="-1.56695">
        <ele>41.077882</ele>
        <time>2021-09-05T08:19:47.000Z</time>
      </trkpt>
      <trkpt lat="49.62618" lon="-1.56692">
        <ele>41.148528</ele>
        <time>2021-09-05T08:19:53.000Z</time>
      </trkpt>
      <trkpt lat="49.62583" lon="-1.56683">
        <ele>40.990792</ele>
        <time>2021-09-05T08:20:01.000Z</time>
      </trkpt>
      <trkpt lat="49.62555" lon="-1.56677">
        <ele>40.864566</ele>
        <time>2021-09-05T08:20:05.000Z</time>
      </trkpt>
      <trkpt lat="49.62538" lon="-1.56674">
        <ele>40.786765</ele>
        <time>2021-09-05T08:20:08.000Z</time>
      </trkpt>
      <trkpt lat="49.62502" lon="-1.56667">
        <ele>40.624885</ele>
        <time>2021-09-05T08:20:13.000Z</time>
      </trkpt>
      <trkpt lat="49.62474" lon="-1.56662">
        <ele>40.495113</ele>
        <time>2021-09-05T08:20:18.000Z</time>
      </trkpt>
      <trkpt lat="49.62444" lon="-1.56656">
        <ele>40.601854</ele>
        <time>2021-09-05T08:20:24.000Z</time>
      </trkpt>
      <trkpt lat="49.62418" lon="-1.56652">
        <ele>41.474361</ele>
        <time>2021-09-05T08:20:32.000Z</time>
      </trkpt>
      <trkpt lat="49.62405" lon="-1.56649">
        <ele>41.891755</ele>
        <time>2021-09-05T08:20:36.000Z</time>
      </trkpt>
      <trkpt lat="49.62389" lon="-1.56645">
        <ele>42.411306</ele>
        <time>2021-09-05T08:20:41.000Z</time>
      </trkpt>
      <trkpt lat="49.62374" lon="-1.56642">
        <ele>42.881963</ele>
        <time>2021-09-05T08:20:46.000Z</time>
      </trkpt>
      <trkpt lat="49.62356" lon="-1.56638">
        <ele>43.483005</ele>
        <time>2021-09-05T08:20:52.000Z</time>
      </trkpt>
      <trkpt lat="49.62345" lon="-1.56635">
        <ele>43.835371</ele>
        <time>2021-09-05T08:20:57.000Z</time>
      </trkpt>
      <trkpt lat="49.62331" lon="-1.56629">
        <ele>44.318609</ele>
        <time>2021-09-05T08:21:01.000Z</time>
      </trkpt>
      <trkpt lat="49.62309" lon="-1.56621">
        <ele>45.031473</ele>
        <time>2021-09-05T08:21:07.000Z</time>
      </trkpt>
      <trkpt lat="49.62292" lon="-1.56614">
        <ele>45.608189</ele>
        <time>2021-09-05T08:21:13.000Z</time>
      </trkpt>
      <trkpt lat="49.62268" lon="-1.56598">
        <ele>46.553909</ele>
        <time>2021-09-05T08:21:20.000Z</time>
      </trkpt>
      <trkpt lat="49.62246" lon="-1.56581">
        <ele>47.579915</ele>
        <time>2021-09-05T08:21:27.000Z</time>
      </trkpt>
      <trkpt lat="49.62223" lon="-1.56562">
        <ele>48.719842</ele>
        <time>2021-09-05T08:21:35.000Z</time>
      </trkpt>
      <trkpt lat="49.62206" lon="-1.56549">
        <ele>49.504704</ele>
        <time>2021-09-05T08:21:41.000Z</time>
      </trkpt>
      <trkpt lat="49.62183" lon="-1.56529">
        <ele>50.649712</ele>
        <time>2021-09-05T08:21:50.000Z</time>
      </trkpt>
      <trkpt lat="49.62169" lon="-1.56518">
        <ele>51.32185</ele>
        <time>2021-09-05T08:21:55.000Z</time>
      </trkpt>
      <trkpt lat="49.62152" lon="-1.56503">
        <ele>52.172744</ele>
        <time>2021-09-05T08:22:01.000Z</time>
      </trkpt>
      <trkpt lat="49.62136" lon="-1.5649">
        <ele>52.937463</ele>
        <time>2021-09-05T08:22:07.000Z</time>
      </trkpt>
      <trkpt lat="49.62133" lon="-1.56488">
        <ele>53.055469</ele>
        <time>2021-09-05T08:22:09.000Z</time>
      </trkpt>
      <trkpt lat="49.62127" lon="-1.56482">
        <ele>53.381376</ele>
        <time>2021-09-05T08:22:10.000Z</time>
      </trkpt>
      <trkpt lat="49.6211" lon="-1.56468">
        <ele>54.121231</ele>
        <time>2021-09-05T08:22:18.000Z</time>
      </trkpt>
      <trkpt lat="49.62089" lon="-1.56451">
        <ele>54.931719</ele>
        <time>2021-09-05T08:22:24.000Z</time>
      </trkpt>
      <trkpt lat="49.62072" lon="-1.56443">
        <ele>55.519835</ele>
        <time>2021-09-05T08:22:30.000Z</time>
      </trkpt>
      <trkpt lat="49.62047" lon="-1.56442">
        <ele>56.329519</ele>
        <time>2021-09-05T08:22:36.000Z</time>
      </trkpt>
      <trkpt lat="49.62022" lon="-1.56442">
        <ele>57.178891</ele>
        <time>2021-09-05T08:22:42.000Z</time>
      </trkpt>
      <trkpt lat="49.62003" lon="-1.56435">
        <ele>57.828009</ele>
        <time>2021-09-05T08:22:48.000Z</time>
      </trkpt>
      <trkpt lat="49.61981" lon="-1.56426">
        <ele>58.593031</ele>
        <time>2021-09-05T08:22:54.000Z</time>
      </trkpt>
      <trkpt lat="49.6196" lon="-1.56417">
        <ele>59.302672</ele>
        <time>2021-09-05T08:22:59.000Z</time>
      </trkpt>
      <trkpt lat="49.61956" lon="-1.56416">
        <ele>59.447287</ele>
        <time>2021-09-05T08:23:01.000Z</time>
      </trkpt>
      <trkpt lat="49.61932" lon="-1.56406">
        <ele>60.319819</ele>
        <time>2021-09-05T08:23:07.000Z</time>
      </trkpt>
      <trkpt lat="49.61911" lon="-1.56387">
        <ele>61.175473</ele>
        <time>2021-09-05T08:23:12.000Z</time>
      </trkpt>
      <trkpt lat="49.61905" lon="-1.56379">
        <ele>61.471644</ele>
        <time>2021-09-05T08:23:14.000Z</time>
      </trkpt>
      <trkpt lat="49.61893" lon="-1.56355">
        <ele>62.168062</ele>
        <time>2021-09-05T08:23:19.000Z</time>
      </trkpt>
      <trkpt lat="49.61884" lon="-1.56334">
        <ele>62.754712</ele>
        <time>2021-09-05T08:23:24.000Z</time>
      </trkpt>
      <trkpt lat="49.61869" lon="-1.56319">
        <ele>63.394459</ele>
        <time>2021-09-05T08:23:30.000Z</time>
      </trkpt>
      <trkpt lat="49.61853" lon="-1.56309">
        <ele>64.001938</ele>
        <time>2021-09-05T08:23:35.000Z</time>
      </trkpt>
      <trkpt lat="49.61837" lon="-1.56299">
        <ele>64.64783</ele>
        <time>2021-09-05T08:23:40.000Z</time>
      </trkpt>
      <trkpt lat="49.61817" lon="-1.56287">
        <ele>65.398586</ele>
        <time>2021-09-05T08:23:46.000Z</time>
      </trkpt>
      <trkpt lat="49.61803" lon="-1.56279">
        <ele>65.938037</ele>
        <time>2021-09-05T08:23:52.000Z</time>
      </trkpt>
      <trkpt lat="49.61782" lon="-1.56267">
        <ele>67.039834</ele>
        <time>2021-09-05T08:23:58.000Z</time>
      </trkpt>
      <trkpt lat="49.61763" lon="-1.56258">
        <ele>68.241451</ele>
        <time>2021-09-05T08:24:04.000Z</time>
      </trkpt>
      <trkpt lat="49.61747" lon="-1.56253">
        <ele>69.212303</ele>
        <time>2021-09-05T08:24:10.000Z</time>
      </trkpt>
      <trkpt lat="49.61723" lon="-1.56244">
        <ele>70.752354</ele>
        <time>2021-09-05T08:24:17.000Z</time>
      </trkpt>
      <trkpt lat="49.61711" lon="-1.5624">
        <ele>71.515551</ele>
        <time>2021-09-05T08:24:22.000Z</time>
      </trkpt>
      <trkpt lat="49.61695" lon="-1.56229">
        <ele>72.539142</ele>
        <time>2021-09-05T08:24:26.000Z</time>
      </trkpt>
      <trkpt lat="49.61677" lon="-1.56216">
        <ele>73.738426</ele>
        <time>2021-09-05T08:24:32.000Z</time>
      </trkpt>
      <trkpt lat="49.6166" lon="-1.56204">
        <ele>74.927179</ele>
        <time>2021-09-05T08:24:39.000Z</time>
      </trkpt>
      <trkpt lat="49.61649" lon="-1.56199">
        <ele>75.579868</ele>
        <time>2021-09-05T08:24:43.000Z</time>
      </trkpt>
      <trkpt lat="49.61642" lon="-1.56195">
        <ele>76.078703</ele>
        <time>2021-09-05T08:24:47.000Z</time>
      </trkpt>
      <trkpt lat="49.6163" lon="-1.5619">
        <ele>76.801313</ele>
        <time>2021-09-05T08:24:52.000Z</time>
      </trkpt>
      <trkpt lat="49.61622" lon="-1.56185">
        <ele>77.356969</ele>
        <time>2021-09-05T08:24:57.000Z</time>
      </trkpt>
      <trkpt lat="49.61606" lon="-1.56177">
        <ele>78.643365</ele>
        <time>2021-09-05T08:25:03.000Z</time>
      </trkpt>
      <trkpt lat="49.61592" lon="-1.56171">
        <ele>79.69969</ele>
        <time>2021-09-05T08:25:08.000Z</time>
      </trkpt>
      <trkpt lat="49.61575" lon="-1.56162">
        <ele>81.081594</ele>
        <time>2021-09-05T08:25:13.000Z</time>
      </trkpt>
      <trkpt lat="49.61556" lon="-1.56153">
        <ele>82.57345</ele>
        <time>2021-09-05T08:25:20.000Z</time>
      </trkpt>
      <trkpt lat="49.61539" lon="-1.56145">
        <ele>83.916302</ele>
        <time>2021-09-05T08:25:26.000Z</time>
      </trkpt>
      <trkpt lat="49.61525" lon="-1.5614">
        <ele>85.01749</ele>
        <time>2021-09-05T08:25:31.000Z</time>
      </trkpt>
      <trkpt lat="49.61508" lon="-1.56135">
        <ele>86.352545</ele>
        <time>2021-09-05T08:25:37.000Z</time>
      </trkpt>
      <trkpt lat="49.61491" lon="-1.56131">
        <ele>87.649446</ele>
        <time>2021-09-05T08:25:43.000Z</time>
      </trkpt>
      <trkpt lat="49.61481" lon="-1.56128">
        <ele>88.378337</ele>
        <time>2021-09-05T08:25:49.000Z</time>
      </trkpt>
      <trkpt lat="49.61467" lon="-1.56123">
        <ele>89.483224</ele>
        <time>2021-09-05T08:25:54.000Z</time>
      </trkpt>
      <trkpt lat="49.61457" lon="-1.56115">
        <ele>90.36412</ele>
        <time>2021-09-05T08:25:58.000Z</time>
      </trkpt>
      <trkpt lat="49.61452" lon="-1.56112">
        <ele>90.723737</ele>
        <time>2021-09-05T08:25:59.000Z</time>
      </trkpt>
      <trkpt lat="49.61443" lon="-1.561">
        <ele>91.659421</ele>
        <time>2021-09-05T08:26:04.000Z</time>
      </trkpt>
      <trkpt lat="49.61432" lon="-1.56085">
        <ele>92.877651</ele>
        <time>2021-09-05T08:26:10.000Z</time>
      </trkpt>
      <trkpt lat="49.61421" lon="-1.56057">
        <ele>94.633299</ele>
        <time>2021-09-05T08:26:16.000Z</time>
      </trkpt>
      <trkpt lat="49.61414" lon="-1.56028">
        <ele>96.258484</ele>
        <time>2021-09-05T08:26:23.000Z</time>
      </trkpt>
      <trkpt lat="49.61405" lon="-1.56004">
        <ele>97.772211</ele>
        <time>2021-09-05T08:26:30.000Z</time>
      </trkpt>
      <trkpt lat="49.61392" lon="-1.55988">
        <ele>99.167401</ele>
        <time>2021-09-05T08:26:36.000Z</time>
      </trkpt>
      <trkpt lat="49.61385" lon="-1.55986">
        <ele>99.713099</ele>
        <time>2021-09-05T08:26:39.000Z</time>
      </trkpt>
      <trkpt lat="49.61383" lon="-1.55985">
        <ele>99.914196</ele>
        <time>2021-09-05T08:26:40.000Z</time>
      </trkpt>
      <trkpt lat="49.61366" lon="-1.55982">
        <ele>101.338185</ele>
        <time>2021-09-05T08:26:47.000Z</time>
      </trkpt>
      <trkpt lat="49.61352" lon="-1.55982">
        <ele>102.48263</ele>
        <time>2021-09-05T08:26:54.000Z</time>
      </trkpt>
      <trkpt lat="49.61341" lon="-1.5598">
        <ele>103.353051</ele>
        <time>2021-09-05T08:26:59.000Z</time>
      </trkpt>
      <trkpt lat="49.61327" lon="-1.55978">
        <ele>104.531024</ele>
        <time>2021-09-05T08:27:05.000Z</time>
      </trkpt>
      <trkpt lat="49.61314" lon="-1.55974">
        <ele>105.632855</ele>
        <time>2021-09-05T08:27:11.000Z</time>
      </trkpt>
      <trkpt lat="49.61311" lon="-1.55973">
        <ele>105.84781</ele>
        <time>2021-09-05T08:27:12.000Z</time>
      </trkpt>
      <trkpt lat="49.613" lon="-1.55968">
        <ele>106.639452</ele>
        <time>2021-09-05T08:27:15.000Z</time>
      </trkpt>
      <trkpt lat="49.61288" lon="-1.55963">
        <ele>107.496505</ele>
        <time>2021-09-05T08:27:19.000Z</time>
      </trkpt>
      <trkpt lat="49.61268" lon="-1.55954">
        <ele>108.978316</ele>
        <time>2021-09-05T08:27:26.000Z</time>
      </trkpt>
      <trkpt lat="49.61252" lon="-1.55946">
        <ele>110.154166</ele>
        <time>2021-09-05T08:27:32.000Z</time>
      </trkpt>
      <trkpt lat="49.61234" lon="-1.55935">
        <ele>111.527669</ele>
        <time>2021-09-05T08:27:40.000Z</time>
      </trkpt>
      <trkpt lat="49.61218" lon="-1.55925">
        <ele>112.692787</ele>
        <time>2021-09-05T08:27:46.000Z</time>
      </trkpt>
      <trkpt lat="49.61192" lon="-1.55908">
        <ele>114.664343</ele>
        <time>2021-09-05T08:27:55.000Z</time>
      </trkpt>
      <trkpt lat="49.61175" lon="-1.55898">
        <ele>115.975667</ele>
        <time>2021-09-05T08:28:02.000Z</time>
      </trkpt>
      <trkpt lat="49.6116" lon="-1.5589">
        <ele>117.089205</ele>
        <time>2021-09-05T08:28:08.000Z</time>
      </trkpt>
      <trkpt lat="49.61138" lon="-1.55879">
        <ele>118.721453</ele>
        <time>2021-09-05T08:28:17.000Z</time>
      </trkpt>
      <trkpt lat="49.61124" lon="-1.55872">
        <ele>119.996267</ele>
        <time>2021-09-05T08:28:24.000Z</time>
      </trkpt>
      <trkpt lat="49.61109" lon="-1.55866">
        <ele>121.226217</ele>
        <time>2021-09-05T08:28:31.000Z</time>
      </trkpt>
      <trkpt lat="49.61096" lon="-1.5586">
        <ele>122.372275</ele>
        <time>2021-09-05T08:28:38.000Z</time>
      </trkpt>
      <trkpt lat="49.61083" lon="-1.55855">
        <ele>123.479602</ele>
        <time>2021-09-05T08:28:44.000Z</time>
      </trkpt>
      <trkpt lat="49.61074" lon="-1.55852">
        <ele>124.185853</ele>
        <time>2021-09-05T08:28:49.000Z</time>
      </trkpt>
      <trkpt lat="49.61062" lon="-1.55849">
        <ele>125.204882</ele>
        <time>2021-09-05T08:28:55.000Z</time>
      </trkpt>
      <trkpt lat="49.61045" lon="-1.55846">
        <ele>126.665521</ele>
        <time>2021-09-05T08:29:03.000Z</time>
      </trkpt>
      <trkpt lat="49.61029" lon="-1.55844">
        <ele>127.993678</ele>
        <time>2021-09-05T08:29:10.000Z</time>
      </trkpt>
      <trkpt lat="49.61012" lon="-1.55841">
        <ele>129.338256</ele>
        <time>2021-09-05T08:29:16.000Z</time>
      </trkpt>
      <trkpt lat="49.60989" lon="-1.55837">
        <ele>131.255483</ele>
        <time>2021-09-05T08:29:25.000Z</time>
      </trkpt>
      <trkpt lat="49.6097" lon="-1.55827">
        <ele>132.950149</ele>
        <time>2021-09-05T08:29:33.000Z</time>
      </trkpt>
      <trkpt lat="49.60951" lon="-1.55815">
        <ele>134.12404</ele>
        <time>2021-09-05T08:29:40.000Z</time>
      </trkpt>
      <trkpt lat="49.60933" lon="-1.55797">
        <ele>135.267991</ele>
        <time>2021-09-05T08:29:47.000Z</time>
      </trkpt>
      <trkpt lat="49.60918" lon="-1.55782">
        <ele>136.219766</ele>
        <time>2021-09-05T08:29:53.000Z</time>
      </trkpt>
      <trkpt lat="49.60902" lon="-1.55754">
        <ele>137.522479</ele>
        <time>2021-09-05T08:30:00.000Z</time>
      </trkpt>
      <trkpt lat="49.6089" lon="-1.55718">
        <ele>138.930974</ele>
        <time>2021-09-05T08:30:08.000Z</time>
      </trkpt>
      <trkpt lat="49.60877" lon="-1.55678">
        <ele>140.494265</ele>
        <time>2021-09-05T08:30:16.000Z</time>
      </trkpt>
      <trkpt lat="49.60862" lon="-1.55649">
        <ele>141.779054</ele>
        <time>2021-09-05T08:30:22.000Z</time>
      </trkpt>
      <trkpt lat="49.60846" lon="-1.55626">
        <ele>142.888786</ele>
        <time>2021-09-05T08:30:28.000Z</time>
      </trkpt>
      <trkpt lat="49.60821" lon="-1.55593">
        <ele>143.880137</ele>
        <time>2021-09-05T08:30:36.000Z</time>
      </trkpt>
      <trkpt lat="49.60801" lon="-1.55565">
        <ele>144.711865</ele>
        <time>2021-09-05T08:30:43.000Z</time>
      </trkpt>
      <trkpt lat="49.60783" lon="-1.5554">
        <ele>145.456787</ele>
        <time>2021-09-05T08:30:50.000Z</time>
      </trkpt>
      <trkpt lat="49.60766" lon="-1.55517">
        <ele>146.13446</ele>
        <time>2021-09-05T08:30:56.000Z</time>
      </trkpt>
      <trkpt lat="49.60743" lon="-1.55488">
        <ele>147.023762</ele>
        <time>2021-09-05T08:31:03.000Z</time>
      </trkpt>
      <trkpt lat="49.60716" lon="-1.55454">
        <ele>148.088076</ele>
        <time>2021-09-05T08:31:12.000Z</time>
      </trkpt>
      <trkpt lat="49.60695" lon="-1.55427">
        <ele>148.751263</ele>
        <time>2021-09-05T08:31:19.000Z</time>
      </trkpt>
      <trkpt lat="49.60683" lon="-1.55411">
        <ele>149.107287</ele>
        <time>2021-09-05T08:31:23.000Z</time>
      </trkpt>
      <trkpt lat="49.60676" lon="-1.55403">
        <ele>149.292687</ele>
        <time>2021-09-05T08:31:25.000Z</time>
      </trkpt>
      <trkpt lat="49.60661" lon="-1.55383">
        <ele>149.739646</ele>
        <time>2021-09-05T08:31:30.000Z</time>
      </trkpt>
      <trkpt lat="49.60657" lon="-1.55378">
        <ele>149.842861</ele>
        <time>2021-09-05T08:31:31.000Z</time>
      </trkpt>
      <trkpt lat="49.60636" lon="-1.55352">
        <ele>150.433276</ele>
        <time>2021-09-05T08:31:37.000Z</time>
      </trkpt>
      <trkpt lat="49.60619" lon="-1.5533">
        <ele>150.928319</ele>
        <time>2021-09-05T08:31:42.000Z</time>
      </trkpt>
      <trkpt lat="49.60614" lon="-1.55323">
        <ele>151.085755</ele>
        <time>2021-09-05T08:31:44.000Z</time>
      </trkpt>
      <trkpt lat="49.60606" lon="-1.55317">
        <ele>151.27571</ele>
        <time>2021-09-05T08:31:46.000Z</time>
      </trkpt>
      <trkpt lat="49.60591" lon="-1.55308">
        <ele>151.624945</ele>
        <time>2021-09-05T08:31:50.000Z</time>
      </trkpt>
      <trkpt lat="49.60587" lon="-1.55306">
        <ele>151.730931</ele>
        <time>2021-09-05T08:31:51.000Z</time>
      </trkpt>
      <trkpt lat="49.60558" lon="-1.55297">
        <ele>152.421071</ele>
        <time>2021-09-05T08:31:57.000Z</time>
      </trkpt>
      <trkpt lat="49.60534" lon="-1.55289">
        <ele>153.129947</ele>
        <time>2021-09-05T08:32:02.000Z</time>
      </trkpt>
      <trkpt lat="49.60516" lon="-1.55283">
        <ele>153.69675</ele>
        <time>2021-09-05T08:32:07.000Z</time>
      </trkpt>
      <trkpt lat="49.60495" lon="-1.55274">
        <ele>154.318406</ele>
        <time>2021-09-05T08:32:12.000Z</time>
      </trkpt>
      <trkpt lat="49.60476" lon="-1.55267">
        <ele>154.887805</ele>
        <time>2021-09-05T08:32:16.000Z</time>
      </trkpt>
      <trkpt lat="49.60449" lon="-1.55253">
        <ele>155.732577</ele>
        <time>2021-09-05T08:32:22.000Z</time>
      </trkpt>
      <trkpt lat="49.60418" lon="-1.55236">
        <ele>156.710625</ele>
        <time>2021-09-05T08:32:29.000Z</time>
      </trkpt>
      <trkpt lat="49.60398" lon="-1.55226">
        <ele>157.338327</ele>
        <time>2021-09-05T08:32:34.000Z</time>
      </trkpt>
      <trkpt lat="49.60382" lon="-1.55218">
        <ele>157.700266</ele>
        <time>2021-09-05T08:32:38.000Z</time>
      </trkpt>
      <trkpt lat="49.60359" lon="-1.55205">
        <ele>158.10302</ele>
        <time>2021-09-05T08:32:43.000Z</time>
      </trkpt>
      <trkpt lat="49.60335" lon="-1.55193">
        <ele>158.519946</ele>
        <time>2021-09-05T08:32:48.000Z</time>
      </trkpt>
      <trkpt lat="49.6031" lon="-1.5518">
        <ele>158.943444</ele>
        <time>2021-09-05T08:32:52.000Z</time>
      </trkpt>
      <trkpt lat="49.60273" lon="-1.55161">
        <ele>159.588556</ele>
        <time>2021-09-05T08:32:58.000Z</time>
      </trkpt>
      <trkpt lat="49.60234" lon="-1.55152">
        <ele>160.233832</ele>
        <time>2021-09-05T08:33:05.000Z</time>
      </trkpt>
      <trkpt lat="49.60224" lon="-1.55152">
        <ele>160.401586</ele>
        <time>2021-09-05T08:33:07.000Z</time>
      </trkpt>
      <trkpt lat="49.60209" lon="-1.55152">
        <ele>160.518777</ele>
        <time>2021-09-05T08:33:10.000Z</time>
      </trkpt>
      <trkpt lat="49.60204" lon="-1.55152">
        <ele>160.525181</ele>
        <time>2021-09-05T08:33:11.000Z</time>
      </trkpt>
      <trkpt lat="49.60167" lon="-1.55152">
        <ele>160.573789</ele>
        <time>2021-09-05T08:33:19.000Z</time>
      </trkpt>
      <trkpt lat="49.60147" lon="-1.55152">
        <ele>160.600706</ele>
        <time>2021-09-05T08:33:24.000Z</time>
      </trkpt>
      <trkpt lat="49.60142" lon="-1.55152">
        <ele>160.606325</ele>
        <time>2021-09-05T08:33:25.000Z</time>
      </trkpt>
      <trkpt lat="49.60138" lon="-1.55152">
        <ele>160.611813</ele>
        <time>2021-09-05T08:33:26.000Z</time>
      </trkpt>
      <trkpt lat="49.60123" lon="-1.55152">
        <ele>160.630891</ele>
        <time>2021-09-05T08:33:29.000Z</time>
      </trkpt>
      <trkpt lat="49.60088" lon="-1.55153">
        <ele>160.677539</ele>
        <time>2021-09-05T08:33:36.000Z</time>
      </trkpt>
      <trkpt lat="49.60053" lon="-1.55153">
        <ele>160.723011</ele>
        <time>2021-09-05T08:33:43.000Z</time>
      </trkpt>
      <trkpt lat="49.60031" lon="-1.55153">
        <ele>160.89627</ele>
        <time>2021-09-05T08:33:48.000Z</time>
      </trkpt>
      <trkpt lat="49.60027" lon="-1.55153">
        <ele>160.984513</ele>
        <time>2021-09-05T08:33:49.000Z</time>
      </trkpt>
      <trkpt lat="49.60023" lon="-1.55153">
        <ele>161.075018</ele>
        <time>2021-09-05T08:33:50.000Z</time>
      </trkpt>
      <trkpt lat="49.60006" lon="-1.55153">
        <ele>161.455211</ele>
        <time>2021-09-05T08:33:54.000Z</time>
      </trkpt>
      <trkpt lat="49.59975" lon="-1.55167">
        <ele>162.201271</ele>
        <time>2021-09-05T08:34:02.000Z</time>
      </trkpt>
      <trkpt lat="49.59953" lon="-1.55183">
        <ele>162.736798</ele>
        <time>2021-09-05T08:34:08.000Z</time>
      </trkpt>
      <trkpt lat="49.59937" lon="-1.55196">
        <ele>163.149283</ele>
        <time>2021-09-05T08:34:13.000Z</time>
      </trkpt>
      <trkpt lat="49.59921" lon="-1.55209">
        <ele>163.561199</ele>
        <time>2021-09-05T08:34:18.000Z</time>
      </trkpt>
      <trkpt lat="49.59908" lon="-1.55221">
        <ele>163.909412</ele>
        <time>2021-09-05T08:34:22.000Z</time>
      </trkpt>
      <trkpt lat="49.59901" lon="-1.55226">
        <ele>164.0872</ele>
        <time>2021-09-05T08:34:24.000Z</time>
      </trkpt>
      <trkpt lat="49.5988" lon="-1.55243">
        <ele>164.609811</ele>
        <time>2021-09-05T08:34:30.000Z</time>
      </trkpt>
      <trkpt lat="49.59877" lon="-1.55247">
        <ele>164.705075</ele>
        <time>2021-09-05T08:34:31.000Z</time>
      </trkpt>
      <trkpt lat="49.59857" lon="-1.55264">
        <ele>165.286442</ele>
        <time>2021-09-05T08:34:36.000Z</time>
      </trkpt>
      <trkpt lat="49.59832" lon="-1.55284">
        <ele>165.998187</ele>
        <time>2021-09-05T08:34:42.000Z</time>
      </trkpt>
      <trkpt lat="49.59829" lon="-1.55287">
        <ele>166.110533</ele>
        <time>2021-09-05T08:34:43.000Z</time>
      </trkpt>
      <trkpt lat="49.59818" lon="-1.55296">
        <ele>166.422477</ele>
        <time>2021-09-05T08:34:46.000Z</time>
      </trkpt>
      <trkpt lat="49.59801" lon="-1.55312">
        <ele>166.95399</ele>
        <time>2021-09-05T08:34:51.000Z</time>
      </trkpt>
      <trkpt lat="49.59793" lon="-1.55319">
        <ele>167.169628</ele>
        <time>2021-09-05T08:34:53.000Z</time>
      </trkpt>
      <trkpt lat="49.59785" lon="-1.55326">
        <ele>167.415308</ele>
        <time>2021-09-05T08:34:55.000Z</time>
      </trkpt>
      <trkpt lat="49.5976" lon="-1.55348">
        <ele>168.163305</ele>
        <time>2021-09-05T08:35:01.000Z</time>
      </trkpt>
      <trkpt lat="49.59756" lon="-1.55352">
        <ele>168.283479</ele>
        <time>2021-09-05T08:35:02.000Z</time>
      </trkpt>
      <trkpt lat="49.59736" lon="-1.5537">
        <ele>168.895858</ele>
        <time>2021-09-05T08:35:07.000Z</time>
      </trkpt>
      <trkpt lat="49.59702" lon="-1.55401">
        <ele>169.691033</ele>
        <time>2021-09-05T08:35:15.000Z</time>
      </trkpt>
      <trkpt lat="49.59673" lon="-1.55426">
        <ele>170.113012</ele>
        <time>2021-09-05T08:35:22.000Z</time>
      </trkpt>
      <trkpt lat="49.59635" lon="-1.5546">
        <ele>170.674133</ele>
        <time>2021-09-05T08:35:31.000Z</time>
      </trkpt>
      <trkpt lat="49.59597" lon="-1.55482">
        <ele>171.186185</ele>
        <time>2021-09-05T08:35:39.000Z</time>
      </trkpt>
      <trkpt lat="49.5957" lon="-1.55498">
        <ele>171.554224</ele>
        <time>2021-09-05T08:35:45.000Z</time>
      </trkpt>
      <trkpt lat="49.59535" lon="-1.55518">
        <ele>171.791781</ele>
        <time>2021-09-05T08:35:53.000Z</time>
      </trkpt>
      <trkpt lat="49.59515" lon="-1.5553">
        <ele>171.818801</ele>
        <time>2021-09-05T08:35:58.000Z</time>
      </trkpt>
      <trkpt lat="49.59497" lon="-1.55542">
        <ele>171.843094</ele>
        <time>2021-09-05T08:36:02.000Z</time>
      </trkpt>
      <trkpt lat="49.59475" lon="-1.55562">
        <ele>171.875214</ele>
        <time>2021-09-05T08:36:06.000Z</time>
      </trkpt>
      <trkpt lat="49.59454" lon="-1.5558">
        <ele>171.905531</ele>
        <time>2021-09-05T08:36:10.000Z</time>
      </trkpt>
      <trkpt lat="49.59438" lon="-1.55594">
        <ele>171.928767</ele>
        <time>2021-09-05T08:36:13.000Z</time>
      </trkpt>
      <trkpt lat="49.59432" lon="-1.55598">
        <ele>171.937342</ele>
        <time>2021-09-05T08:36:14.000Z</time>
      </trkpt>
      <trkpt lat="49.594" lon="-1.55612">
        <ele>171.979071</ele>
        <time>2021-09-05T08:36:19.000Z</time>
      </trkpt>
      <trkpt lat="49.59381" lon="-1.5562">
        <ele>172.149842</ele>
        <time>2021-09-05T08:36:22.000Z</time>
      </trkpt>
      <trkpt lat="49.59367" lon="-1.55624">
        <ele>172.379638</ele>
        <time>2021-09-05T08:36:24.000Z</time>
      </trkpt>
      <trkpt lat="49.59326" lon="-1.55633">
        <ele>173.05943</ele>
        <time>2021-09-05T08:36:30.000Z</time>
      </trkpt>
      <trkpt lat="49.5932" lon="-1.55634">
        <ele>173.160293</ele>
        <time>2021-09-05T08:36:31.000Z</time>
      </trkpt>
      <trkpt lat="49.59303" lon="-1.55638">
        <ele>173.446366</ele>
        <time>2021-09-05T08:36:34.000Z</time>
      </trkpt>
      <trkpt lat="49.59276" lon="-1.55643">
        <ele>173.87813</ele>
        <time>2021-09-05T08:36:39.000Z</time>
      </trkpt>
      <trkpt lat="49.59267" lon="-1.55645">
        <ele>174.031931</ele>
        <time>2021-09-05T08:36:41.000Z</time>
      </trkpt>
      <trkpt lat="49.59255" lon="-1.55651">
        <ele>174.241033</ele>
        <time>2021-09-05T08:36:44.000Z</time>
      </trkpt>
      <trkpt lat="49.59241" lon="-1.5566">
        <ele>174.483297</ele>
        <time>2021-09-05T08:36:48.000Z</time>
      </trkpt>
      <trkpt lat="49.59231" lon="-1.55671">
        <ele>174.688486</ele>
        <time>2021-09-05T08:36:53.000Z</time>
      </trkpt>
      <trkpt lat="49.59227" lon="-1.55675">
        <ele>174.765788</ele>
        <time>2021-09-05T08:36:55.000Z</time>
      </trkpt>
      <trkpt lat="49.59225" lon="-1.55678">
        <ele>174.81639</ele>
        <time>2021-09-05T08:36:57.000Z</time>
      </trkpt>
      <trkpt lat="49.59207" lon="-1.55696">
        <ele>175.223117</ele>
        <time>2021-09-05T08:37:02.000Z</time>
      </trkpt>
      <trkpt lat="49.59185" lon="-1.5572">
        <ele>175.801462</ele>
        <time>2021-09-05T08:37:09.000Z</time>
      </trkpt>
      <trkpt lat="49.59161" lon="-1.55746">
        <ele>176.415796</ele>
        <time>2021-09-05T08:37:16.000Z</time>
      </trkpt>
      <trkpt lat="49.59133" lon="-1.55776">
        <ele>177.140615</ele>
        <time>2021-09-05T08:37:24.000Z</time>
      </trkpt>
      <trkpt lat="49.59116" lon="-1.55794">
        <ele>177.561649</ele>
        <time>2021-09-05T08:37:30.000Z</time>
      </trkpt>
      <trkpt lat="49.59102" lon="-1.55809">
        <ele>177.921544</ele>
        <time>2021-09-05T08:37:34.000Z</time>
      </trkpt>
      <trkpt lat="49.59089" lon="-1.55829">
        <ele>178.321508</ele>
        <time>2021-09-05T08:37:37.000Z</time>
      </trkpt>
      <trkpt lat="49.59085" lon="-1.55839">
        <ele>178.480465</ele>
        <time>2021-09-05T08:37:38.000Z</time>
      </trkpt>
      <trkpt lat="49.59068" lon="-1.559">
        <ele>178.796604</ele>
        <time>2021-09-05T08:37:45.000Z</time>
      </trkpt>
      <trkpt lat="49.59063" lon="-1.55917">
        <ele>178.819909</ele>
        <time>2021-09-05T08:37:47.000Z</time>
      </trkpt>
      <trkpt lat="49.59053" lon="-1.55951">
        <ele>178.866325</ele>
        <time>2021-09-05T08:37:51.000Z</time>
      </trkpt>
      <trkpt lat="49.59036" lon="-1.56011">
        <ele>178.949411</ele>
        <time>2021-09-05T08:37:58.000Z</time>
      </trkpt>
      <trkpt lat="49.59012" lon="-1.56092">
        <ele>179.060502</ele>
        <time>2021-09-05T08:38:07.000Z</time>
      </trkpt>
      <trkpt lat="49.58995" lon="-1.56152">
        <ele>179.065769</ele>
        <time>2021-09-05T08:38:14.000Z</time>
      </trkpt>
      <trkpt lat="49.58973" lon="-1.5623">
        <ele>179.029715</ele>
        <time>2021-09-05T08:38:23.000Z</time>
      </trkpt>
      <trkpt lat="49.58949" lon="-1.56311">
        <ele>178.991916</ele>
        <time>2021-09-05T08:38:32.000Z</time>
      </trkpt>
      <trkpt lat="49.58928" lon="-1.56384">
        <ele>178.887424</ele>
        <time>2021-09-05T08:38:41.000Z</time>
      </trkpt>
      <trkpt lat="49.58906" lon="-1.56459">
        <ele>178.595277</ele>
        <time>2021-09-05T08:38:49.000Z</time>
      </trkpt>
      <trkpt lat="49.58884" lon="-1.56535">
        <ele>178.296156</ele>
        <time>2021-09-05T08:38:57.000Z</time>
      </trkpt>
      <trkpt lat="49.58881" lon="-1.56545">
        <ele>178.260742</ele>
        <time>2021-09-05T08:38:58.000Z</time>
      </trkpt>
      <trkpt lat="49.58871" lon="-1.56581">
        <ele>178.117341</ele>
        <time>2021-09-05T08:39:01.000Z</time>
      </trkpt>
      <trkpt lat="49.58867" lon="-1.56595">
        <ele>178.063184</ele>
        <time>2021-09-05T08:39:03.000Z</time>
      </trkpt>
      <trkpt lat="49.58865" lon="-1.566">
        <ele>178.045088</ele>
        <time>2021-09-05T08:39:04.000Z</time>
      </trkpt>
      <trkpt lat="49.58857" lon="-1.566">
        <ele>177.996151</ele>
        <time>2021-09-05T08:39:06.000Z</time>
      </trkpt>
      <trkpt lat="49.58836" lon="-1.56586">
        <ele>177.55986</ele>
        <time>2021-09-05T08:39:10.000Z</time>
      </trkpt>
      <trkpt lat="49.58803" lon="-1.56562">
        <ele>176.776849</ele>
        <time>2021-09-05T08:39:15.000Z</time>
      </trkpt>
      <trkpt lat="49.58756" lon="-1.56528">
        <ele>175.658516</ele>
        <time>2021-09-05T08:39:21.000Z</time>
      </trkpt>
      <trkpt lat="49.58708" lon="-1.56493">
        <ele>174.511453</ele>
        <time>2021-09-05T08:39:27.000Z</time>
      </trkpt>
      <trkpt lat="49.58658" lon="-1.56455">
        <ele>173.146175</ele>
        <time>2021-09-05T08:39:33.000Z</time>
      </trkpt>
      <trkpt lat="49.58649" lon="-1.56449">
        <ele>172.903247</ele>
        <time>2021-09-05T08:39:34.000Z</time>
      </trkpt>
      <trkpt lat="49.58597" lon="-1.5641">
        <ele>171.412178</ele>
        <time>2021-09-05T08:39:40.000Z</time>
      </trkpt>
      <trkpt lat="49.58589" lon="-1.56404">
        <ele>171.177662</ele>
        <time>2021-09-05T08:39:41.000Z</time>
      </trkpt>
      <trkpt lat="49.58547" lon="-1.56373">
        <ele>169.987531</ele>
        <time>2021-09-05T08:39:46.000Z</time>
      </trkpt>
      <trkpt lat="49.58503" lon="-1.56341">
        <ele>168.524462</ele>
        <time>2021-09-05T08:39:52.000Z</time>
      </trkpt>
      <trkpt lat="49.58495" lon="-1.56336">
        <ele>168.260241</ele>
        <time>2021-09-05T08:39:53.000Z</time>
      </trkpt>
      <trkpt lat="49.58486" lon="-1.56336">
        <ele>167.956629</ele>
        <time>2021-09-05T08:39:54.000Z</time>
      </trkpt>
      <trkpt lat="49.5847" lon="-1.56343">
        <ele>167.418646</ele>
        <time>2021-09-05T08:39:56.000Z</time>
      </trkpt>
      <trkpt lat="49.58432" lon="-1.5636">
        <ele>166.123513</ele>
        <time>2021-09-05T08:40:00.000Z</time>
      </trkpt>
      <trkpt lat="49.58379" lon="-1.56384">
        <ele>164.318673</ele>
        <time>2021-09-05T08:40:05.000Z</time>
      </trkpt>
      <trkpt lat="49.58368" lon="-1.56388">
        <ele>163.961821</ele>
        <time>2021-09-05T08:40:06.000Z</time>
      </trkpt>
      <trkpt lat="49.58339" lon="-1.564">
        <ele>162.876201</ele>
        <time>2021-09-05T08:40:09.000Z</time>
      </trkpt>
      <trkpt lat="49.58279" lon="-1.56421">
        <ele>160.597913</ele>
        <time>2021-09-05T08:40:15.000Z</time>
      </trkpt>
      <trkpt lat="49.58226" lon="-1.5644">
        <ele>158.542045</ele>
        <time>2021-09-05T08:40:20.000Z</time>
      </trkpt>
      <trkpt lat="49.58214" lon="-1.56444">
        <ele>158.089918</ele>
        <time>2021-09-05T08:40:21.000Z</time>
      </trkpt>
      <trkpt lat="49.58169" lon="-1.5646">
        <ele>156.300785</ele>
        <time>2021-09-05T08:40:25.000Z</time>
      </trkpt>
      <trkpt lat="49.58112" lon="-1.56475">
        <ele>153.848476</ele>
        <time>2021-09-05T08:40:30.000Z</time>
      </trkpt>
      <trkpt lat="49.5806" lon="-1.5648">
        <ele>151.600879</ele>
        <time>2021-09-05T08:40:35.000Z</time>
      </trkpt>
      <trkpt lat="49.5803" lon="-1.56484">
        <ele>150.309825</ele>
        <time>2021-09-05T08:40:39.000Z</time>
      </trkpt>
      <trkpt lat="49.58004" lon="-1.56488">
        <ele>149.213194</ele>
        <time>2021-09-05T08:40:44.000Z</time>
      </trkpt>
      <trkpt lat="49.57979" lon="-1.56492">
        <ele>149.682293</ele>
        <time>2021-09-05T08:40:51.000Z</time>
      </trkpt>
      <trkpt lat="49.57971" lon="-1.56493">
        <ele>149.830015</ele>
        <time>2021-09-05T08:40:54.000Z</time>
      </trkpt>
      <trkpt lat="49.57947" lon="-1.56496">
        <ele>150.274803</ele>
        <time>2021-09-05T08:41:01.000Z</time>
      </trkpt>
      <trkpt lat="49.57932" lon="-1.56499">
        <ele>150.553231</ele>
        <time>2021-09-05T08:41:06.000Z</time>
      </trkpt>
      <trkpt lat="49.57929" lon="-1.56499">
        <ele>150.605559</ele>
        <time>2021-09-05T08:41:07.000Z</time>
      </trkpt>
      <trkpt lat="49.57923" lon="-1.565">
        <ele>150.719592</ele>
        <time>2021-09-05T08:41:09.000Z</time>
      </trkpt>
      <trkpt lat="49.57901" lon="-1.56506">
        <ele>151.13656</ele>
        <time>2021-09-05T08:41:16.000Z</time>
      </trkpt>
      <trkpt lat="49.57887" lon="-1.5651">
        <ele>151.410886</ele>
        <time>2021-09-05T08:41:21.000Z</time>
      </trkpt>
      <trkpt lat="49.57872" lon="-1.56514">
        <ele>151.677674</ele>
        <time>2021-09-05T08:41:26.000Z</time>
      </trkpt>
      <trkpt lat="49.5786" lon="-1.56517">
        <ele>151.919796</ele>
        <time>2021-09-05T08:41:31.000Z</time>
      </trkpt>
      <trkpt lat="49.5785" lon="-1.5652">
        <ele>152.110976</ele>
        <time>2021-09-05T08:41:35.000Z</time>
      </trkpt>
      <trkpt lat="49.57841" lon="-1.56523">
        <ele>152.277489</ele>
        <time>2021-09-05T08:41:38.000Z</time>
      </trkpt>
      <trkpt lat="49.57838" lon="-1.56523">
        <ele>152.330481</ele>
        <time>2021-09-05T08:41:39.000Z</time>
      </trkpt>
      <trkpt lat="49.57821" lon="-1.56528">
        <ele>153.117408</ele>
        <time>2021-09-05T08:41:44.000Z</time>
      </trkpt>
      <trkpt lat="49.57804" lon="-1.56533">
        <ele>154.779972</ele>
        <time>2021-09-05T08:41:49.000Z</time>
      </trkpt>
      <trkpt lat="49.57789" lon="-1.56538">
        <ele>156.322812</ele>
        <time>2021-09-05T08:41:54.000Z</time>
      </trkpt>
      <trkpt lat="49.57778" lon="-1.5654">
        <ele>157.344527</ele>
        <time>2021-09-05T08:41:58.000Z</time>
      </trkpt>
      <trkpt lat="49.57762" lon="-1.56545">
        <ele>159.027625</ele>
        <time>2021-09-05T08:42:04.000Z</time>
      </trkpt>
      <trkpt lat="49.5774" lon="-1.5655">
        <ele>161.12958</ele>
        <time>2021-09-05T08:42:11.000Z</time>
      </trkpt>
      <trkpt lat="49.57724" lon="-1.56554">
        <ele>162.789788</ele>
        <time>2021-09-05T08:42:17.000Z</time>
      </trkpt>
      <trkpt lat="49.57706" lon="-1.56561">
        <ele>164.605826</ele>
        <time>2021-09-05T08:42:24.000Z</time>
      </trkpt>
      <trkpt lat="49.57704" lon="-1.56563">
        <ele>164.807371</ele>
        <time>2021-09-05T08:42:25.000Z</time>
      </trkpt>
      <trkpt lat="49.57694" lon="-1.56571">
        <ele>165.952513</ele>
        <time>2021-09-05T08:42:30.000Z</time>
      </trkpt>
      <trkpt lat="49.57684" lon="-1.56589">
        <ele>167.456069</ele>
        <time>2021-09-05T08:42:35.000Z</time>
      </trkpt>
      <trkpt lat="49.57678" lon="-1.56604">
        <ele>168.603015</ele>
        <time>2021-09-05T08:42:40.000Z</time>
      </trkpt>
      <trkpt lat="49.57672" lon="-1.56618">
        <ele>169.62135</ele>
        <time>2021-09-05T08:42:44.000Z</time>
      </trkpt>
      <trkpt lat="49.57671" lon="-1.56621">
        <ele>169.884549</ele>
        <time>2021-09-05T08:42:45.000Z</time>
      </trkpt>
      <trkpt lat="49.57666" lon="-1.56631">
        <ele>170.476284</ele>
        <time>2021-09-05T08:42:48.000Z</time>
      </trkpt>
      <trkpt lat="49.57654" lon="-1.56656">
        <ele>171.473611</ele>
        <time>2021-09-05T08:42:55.000Z</time>
      </trkpt>
      <trkpt lat="49.57652" lon="-1.56659">
        <ele>171.599303</ele>
        <time>2021-09-05T08:42:56.000Z</time>
      </trkpt>
      <trkpt lat="49.57646" lon="-1.56671">
        <ele>172.115882</ele>
        <time>2021-09-05T08:43:00.000Z</time>
      </trkpt>
      <trkpt lat="49.57639" lon="-1.56685">
        <ele>172.686901</ele>
        <time>2021-09-05T08:43:04.000Z</time>
      </trkpt>
      <trkpt lat="49.57633" lon="-1.56699">
        <ele>173.244513</ele>
        <time>2021-09-05T08:43:08.000Z</time>
      </trkpt>
      <trkpt lat="49.5763" lon="-1.56706">
        <ele>173.504103</ele>
        <time>2021-09-05T08:43:10.000Z</time>
      </trkpt>
      <trkpt lat="49.57624" lon="-1.56718">
        <ele>173.987482</ele>
        <time>2021-09-05T08:43:14.000Z</time>
      </trkpt>
      <trkpt lat="49.57621" lon="-1.56723">
        <ele>174.217275</ele>
        <time>2021-09-05T08:43:16.000Z</time>
      </trkpt>
      <trkpt lat="49.57618" lon="-1.56729">
        <ele>174.454862</ele>
        <time>2021-09-05T08:43:18.000Z</time>
      </trkpt>
      <trkpt lat="49.5761" lon="-1.56745">
        <ele>175.116148</ele>
        <time>2021-09-05T08:43:22.000Z</time>
      </trkpt>
      <trkpt lat="49.57608" lon="-1.5675">
        <ele>175.293684</ele>
        <time>2021-09-05T08:43:23.000Z</time>
      </trkpt>
      <trkpt lat="49.57605" lon="-1.56757">
        <ele>175.577893</ele>
        <time>2021-09-05T08:43:25.000Z</time>
      </trkpt>
      <trkpt lat="49.57603" lon="-1.56761">
        <ele>175.744616</ele>
        <time>2021-09-05T08:43:26.000Z</time>
      </trkpt>
      <trkpt lat="49.57599" lon="-1.56768">
        <ele>176.034438</ele>
        <time>2021-09-05T08:43:28.000Z</time>
      </trkpt>
      <trkpt lat="49.57596" lon="-1.56776">
        <ele>176.340283</ele>
        <time>2021-09-05T08:43:30.000Z</time>
      </trkpt>
      <trkpt lat="49.57589" lon="-1.5679">
        <ele>176.925114</ele>
        <time>2021-09-05T08:43:34.000Z</time>
      </trkpt>
      <trkpt lat="49.57574" lon="-1.56821">
        <ele>178.18245</ele>
        <time>2021-09-05T08:43:41.000Z</time>
      </trkpt>
      <trkpt lat="49.57557" lon="-1.56848">
        <ele>179.268534</ele>
        <time>2021-09-05T08:43:47.000Z</time>
      </trkpt>
      <trkpt lat="49.57539" lon="-1.56878">
        <ele>179.055483</ele>
        <time>2021-09-05T08:43:53.000Z</time>
      </trkpt>
      <trkpt lat="49.57524" lon="-1.56902">
        <ele>178.889509</ele>
        <time>2021-09-05T08:43:57.000Z</time>
      </trkpt>
      <trkpt lat="49.57516" lon="-1.56914">
        <ele>178.799714</ele>
        <time>2021-09-05T08:43:59.000Z</time>
      </trkpt>
      <trkpt lat="49.57511" lon="-1.56917">
        <ele>178.758707</ele>
        <time>2021-09-05T08:44:00.000Z</time>
      </trkpt>
      <trkpt lat="49.57506" lon="-1.5692">
        <ele>178.7177</ele>
        <time>2021-09-05T08:44:01.000Z</time>
      </trkpt>
      <trkpt lat="49.57485" lon="-1.56927">
        <ele>178.546286</ele>
        <time>2021-09-05T08:44:05.000Z</time>
      </trkpt>
      <trkpt lat="49.57447" lon="-1.56936">
        <ele>178.241193</ele>
        <time>2021-09-05T08:44:12.000Z</time>
      </trkpt>
      <trkpt lat="49.57412" lon="-1.56944">
        <ele>177.966472</ele>
        <time>2021-09-05T08:44:18.000Z</time>
      </trkpt>
      <trkpt lat="49.57367" lon="-1.56954">
        <ele>177.034543</ele>
        <time>2021-09-05T08:44:25.000Z</time>
      </trkpt>
      <trkpt lat="49.5732" lon="-1.56964">
        <ele>175.856743</ele>
        <time>2021-09-05T08:44:32.000Z</time>
      </trkpt>
      <trkpt lat="49.57268" lon="-1.56976">
        <ele>174.550438</ele>
        <time>2021-09-05T08:44:41.000Z</time>
      </trkpt>
      <trkpt lat="49.57226" lon="-1.56985">
        <ele>173.493284</ele>
        <time>2021-09-05T08:44:49.000Z</time>
      </trkpt>
      <trkpt lat="49.57179" lon="-1.56996">
        <ele>173.028338</ele>
        <time>2021-09-05T08:44:58.000Z</time>
      </trkpt>
      <trkpt lat="49.57139" lon="-1.57005">
        <ele>172.698221</ele>
        <time>2021-09-05T08:45:06.000Z</time>
      </trkpt>
      <trkpt lat="49.57108" lon="-1.57012">
        <ele>172.444256</ele>
        <time>2021-09-05T08:45:13.000Z</time>
      </trkpt>
      <trkpt lat="49.57073" lon="-1.57019">
        <ele>172.156305</ele>
        <time>2021-09-05T08:45:21.000Z</time>
      </trkpt>
      <trkpt lat="49.57049" lon="-1.57025">
        <ele>171.955271</ele>
        <time>2021-09-05T08:45:26.000Z</time>
      </trkpt>
      <trkpt lat="49.57039" lon="-1.57027">
        <ele>171.903607</ele>
        <time>2021-09-05T08:45:28.000Z</time>
      </trkpt>
      <trkpt lat="49.57007" lon="-1.57034">
        <ele>171.836626</ele>
        <time>2021-09-05T08:45:34.000Z</time>
      </trkpt>
      <trkpt lat="49.56986" lon="-1.57039">
        <ele>171.792184</ele>
        <time>2021-09-05T08:45:38.000Z</time>
      </trkpt>
      <trkpt lat="49.56954" lon="-1.57046">
        <ele>171.726067</ele>
        <time>2021-09-05T08:45:43.000Z</time>
      </trkpt>
      <trkpt lat="49.56917" lon="-1.57054">
        <ele>171.647526</ele>
        <time>2021-09-05T08:45:49.000Z</time>
      </trkpt>
      <trkpt lat="49.56886" lon="-1.57061">
        <ele>171.582253</ele>
        <time>2021-09-05T08:45:54.000Z</time>
      </trkpt>
      <trkpt lat="49.56857" lon="-1.57067">
        <ele>171.560894</ele>
        <time>2021-09-05T08:45:59.000Z</time>
      </trkpt>
      <trkpt lat="49.56823" lon="-1.57076">
        <ele>171.641394</ele>
        <time>2021-09-05T08:46:05.000Z</time>
      </trkpt>
      <trkpt lat="49.56803" lon="-1.57084">
        <ele>171.689108</ele>
        <time>2021-09-05T08:46:09.000Z</time>
      </trkpt>
      <trkpt lat="49.56782" lon="-1.57093">
        <ele>171.741199</ele>
        <time>2021-09-05T08:46:13.000Z</time>
      </trkpt>
      <trkpt lat="49.56777" lon="-1.57095">
        <ele>171.75157</ele>
        <time>2021-09-05T08:46:14.000Z</time>
      </trkpt>
      <trkpt lat="49.56764" lon="-1.57101">
        <ele>171.785029</ele>
        <time>2021-09-05T08:46:17.000Z</time>
      </trkpt>
      <trkpt lat="49.5674" lon="-1.57111">
        <ele>171.841947</ele>
        <time>2021-09-05T08:46:22.000Z</time>
      </trkpt>
      <trkpt lat="49.56732" lon="-1.57115">
        <ele>171.861962</ele>
        <time>2021-09-05T08:46:23.000Z</time>
      </trkpt>
      <trkpt lat="49.56719" lon="-1.57122">
        <ele>171.893473</ele>
        <time>2021-09-05T08:46:25.000Z</time>
      </trkpt>
      <trkpt lat="49.56704" lon="-1.57117">
        <ele>171.929269</ele>
        <time>2021-09-05T08:46:27.000Z</time>
      </trkpt>
      <trkpt lat="49.56698" lon="-1.57111">
        <ele>171.945782</ele>
        <time>2021-09-05T08:46:28.000Z</time>
      </trkpt>
      <trkpt lat="49.5666" lon="-1.57071">
        <ele>171.516869</ele>
        <time>2021-09-05T08:46:35.000Z</time>
      </trkpt>
      <trkpt lat="49.56611" lon="-1.57021">
        <ele>170.864451</ele>
        <time>2021-09-05T08:46:44.000Z</time>
      </trkpt>
      <trkpt lat="49.56577" lon="-1.56986">
        <ele>170.402899</ele>
        <time>2021-09-05T08:46:50.000Z</time>
      </trkpt>
      <trkpt lat="49.56539" lon="-1.56946">
        <ele>169.811577</ele>
        <time>2021-09-05T08:46:56.000Z</time>
      </trkpt>
      <trkpt lat="49.5653" lon="-1.5693">
        <ele>169.449086</ele>
        <time>2021-09-05T08:46:58.000Z</time>
      </trkpt>
      <trkpt lat="49.56527" lon="-1.56919">
        <ele>169.247864</ele>
        <time>2021-09-05T08:47:00.000Z</time>
      </trkpt>
      <trkpt lat="49.56529" lon="-1.56863">
        <ele>168.288113</ele>
        <time>2021-09-05T08:47:04.000Z</time>
      </trkpt>
      <trkpt lat="49.56526" lon="-1.5684">
        <ele>167.889461</ele>
        <time>2021-09-05T08:47:06.000Z</time>
      </trkpt>
      <trkpt lat="49.56521" lon="-1.56832">
        <ele>167.696393</ele>
        <time>2021-09-05T08:47:07.000Z</time>
      </trkpt>
      <trkpt lat="49.56515" lon="-1.56828">
        <ele>167.528497</ele>
        <time>2021-09-05T08:47:08.000Z</time>
      </trkpt>
      <trkpt lat="49.56507" lon="-1.56824">
        <ele>167.321645</ele>
        <time>2021-09-05T08:47:09.000Z</time>
      </trkpt>
      <trkpt lat="49.565" lon="-1.56823">
        <ele>167.132924</ele>
        <time>2021-09-05T08:47:10.000Z</time>
      </trkpt>
      <trkpt lat="49.56484" lon="-1.56816">
        <ele>166.695726</ele>
        <time>2021-09-05T08:47:12.000Z</time>
      </trkpt>
      <trkpt lat="49.56478" lon="-1.56811">
        <ele>166.506861</ele>
        <time>2021-09-05T08:47:13.000Z</time>
      </trkpt>
      <trkpt lat="49.56453" lon="-1.5679">
        <ele>165.773212</ele>
        <time>2021-09-05T08:47:17.000Z</time>
      </trkpt>
      <trkpt lat="49.56448" lon="-1.56785">
        <ele>165.5991</ele>
        <time>2021-09-05T08:47:18.000Z</time>
      </trkpt>
      <trkpt lat="49.56431" lon="-1.5677">
        <ele>165.064742</ele>
        <time>2021-09-05T08:47:22.000Z</time>
      </trkpt>
      <trkpt lat="49.56428" lon="-1.56773">
        <ele>164.953794</ele>
        <time>2021-09-05T08:47:23.000Z</time>
      </trkpt>
      <trkpt lat="49.56424" lon="-1.56775">
        <ele>164.828868</ele>
        <time>2021-09-05T08:47:25.000Z</time>
      </trkpt>
      <trkpt lat="49.56417" lon="-1.56808">
        <ele>164.127019</ele>
        <time>2021-09-05T08:47:30.000Z</time>
      </trkpt>
      <trkpt lat="49.56412" lon="-1.56845">
        <ele>163.353736</ele>
        <time>2021-09-05T08:47:37.000Z</time>
      </trkpt>
      <trkpt lat="49.56408" lon="-1.56878">
        <ele>162.677048</ele>
        <time>2021-09-05T08:47:45.000Z</time>
      </trkpt>
      <trkpt lat="49.56406" lon="-1.5689">
        <ele>162.421321</ele>
        <time>2021-09-05T08:47:48.000Z</time>
      </trkpt>
      <trkpt lat="49.56406" lon="-1.56891">
        <ele>162.396661</ele>
        <time>2021-09-05T08:47:50.000Z</time>
      </trkpt>
      <trkpt lat="49.56407" lon="-1.56884">
        <ele>162.247774</ele>
        <time>2021-09-05T08:47:52.000Z</time>
      </trkpt>
      <trkpt lat="49.56408" lon="-1.56879">
        <ele>162.134877</ele>
        <time>2021-09-05T08:47:53.000Z</time>
      </trkpt>
      <trkpt lat="49.56414" lon="-1.56831">
        <ele>161.145329</ele>
        <time>2021-09-05T08:48:00.000Z</time>
      </trkpt>
      <trkpt lat="49.56417" lon="-1.56808">
        <ele>160.659165</ele>
        <time>2021-09-05T08:48:04.000Z</time>
      </trkpt>
      <trkpt lat="49.56418" lon="-1.56801">
        <ele>160.519038</ele>
        <time>2021-09-05T08:48:05.000Z</time>
      </trkpt>
      <trkpt lat="49.56411" lon="-1.56794">
        <ele>160.245612</ele>
        <time>2021-09-05T08:48:07.000Z</time>
      </trkpt>
      <trkpt lat="49.56406" lon="-1.56792">
        <ele>160.077196</ele>
        <time>2021-09-05T08:48:08.000Z</time>
      </trkpt>
      <trkpt lat="49.56399" lon="-1.56789">
        <ele>159.876803</ele>
        <time>2021-09-05T08:48:09.000Z</time>
      </trkpt>
      <trkpt lat="49.56379" lon="-1.56782">
        <ele>159.242329</ele>
        <time>2021-09-05T08:48:12.000Z</time>
      </trkpt>
      <trkpt lat="49.56349" lon="-1.5677">
        <ele>158.37211</ele>
        <time>2021-09-05T08:48:16.000Z</time>
      </trkpt>
      <trkpt lat="49.56325" lon="-1.56761">
        <ele>157.682371</ele>
        <time>2021-09-05T08:48:19.000Z</time>
      </trkpt>
      <trkpt lat="49.5631" lon="-1.56755">
        <ele>157.248203</ele>
        <time>2021-09-05T08:48:22.000Z</time>
      </trkpt>
      <trkpt lat="49.56272" lon="-1.5674">
        <ele>156.113329</ele>
        <time>2021-09-05T08:48:26.000Z</time>
      </trkpt>
      <trkpt lat="49.56231" lon="-1.56723">
        <ele>154.913879</ele>
        <time>2021-09-05T08:48:31.000Z</time>
      </trkpt>
      <trkpt lat="49.5618" lon="-1.56695">
        <ele>152.932625</ele>
        <time>2021-09-05T08:48:37.000Z</time>
      </trkpt>
      <trkpt lat="49.56164" lon="-1.56685">
        <ele>152.247185</ele>
        <time>2021-09-05T08:48:39.000Z</time>
      </trkpt>
      <trkpt lat="49.56155" lon="-1.5668">
        <ele>151.859925</ele>
        <time>2021-09-05T08:48:40.000Z</time>
      </trkpt>
      <trkpt lat="49.56146" lon="-1.56675">
        <ele>151.467033</ele>
        <time>2021-09-05T08:48:41.000Z</time>
      </trkpt>
      <trkpt lat="49.56126" lon="-1.56663">
        <ele>150.60906</ele>
        <time>2021-09-05T08:48:43.000Z</time>
      </trkpt>
      <trkpt lat="49.56108" lon="-1.56648">
        <ele>149.755755</ele>
        <time>2021-09-05T08:48:45.000Z</time>
      </trkpt>
      <trkpt lat="49.56091" lon="-1.56629">
        <ele>148.919777</ele>
        <time>2021-09-05T08:48:47.000Z</time>
      </trkpt>
      <trkpt lat="49.56053" lon="-1.56584">
        <ele>146.989498</ele>
        <time>2021-09-05T08:48:52.000Z</time>
      </trkpt>
      <trkpt lat="49.56033" lon="-1.56558">
        <ele>145.883666</ele>
        <time>2021-09-05T08:48:55.000Z</time>
      </trkpt>
      <trkpt lat="49.56029" lon="-1.56548">
        <ele>145.544555</ele>
        <time>2021-09-05T08:48:56.000Z</time>
      </trkpt>
      <trkpt lat="49.56024" lon="-1.56537">
        <ele>145.185297</ele>
        <time>2021-09-05T08:48:57.000Z</time>
      </trkpt>
      <trkpt lat="49.56011" lon="-1.56504">
        <ele>144.119248</ele>
        <time>2021-09-05T08:49:00.000Z</time>
      </trkpt>
      <trkpt lat="49.56004" lon="-1.56482">
        <ele>143.438783</ele>
        <time>2021-09-05T08:49:02.000Z</time>
      </trkpt>
      <trkpt lat="49.56001" lon="-1.56469">
        <ele>143.074921</ele>
        <time>2021-09-05T08:49:03.000Z</time>
      </trkpt>
      <trkpt lat="49.55994" lon="-1.56396">
        <ele>141.03712</ele>
        <time>2021-09-05T08:49:08.000Z</time>
      </trkpt>
      <trkpt lat="49.55994" lon="-1.56382">
        <ele>140.635257</ele>
        <time>2021-09-05T08:49:09.000Z</time>
      </trkpt>
      <trkpt lat="49.55996" lon="-1.56357">
        <ele>139.947642</ele>
        <time>2021-09-05T08:49:11.000Z</time>
      </trkpt>
      <trkpt lat="49.56003" lon="-1.5634">
        <ele>139.483202</ele>
        <time>2021-09-05T08:49:13.000Z</time>
      </trkpt>
      <trkpt lat="49.56006" lon="-1.56332">
        <ele>139.342345</ele>
        <time>2021-09-05T08:49:14.000Z</time>
      </trkpt>
      <trkpt lat="49.56014" lon="-1.56309">
        <ele>138.943247</ele>
        <time>2021-09-05T08:49:17.000Z</time>
      </trkpt>
      <trkpt lat="49.56016" lon="-1.56296">
        <ele>138.729185</ele>
        <time>2021-09-05T08:49:19.000Z</time>
      </trkpt>
      <trkpt lat="49.56021" lon="-1.56262">
        <ele>138.199791</ele>
        <time>2021-09-05T08:49:25.000Z</time>
      </trkpt>
      <trkpt lat="49.56025" lon="-1.56228">
        <ele>137.673874</ele>
        <time>2021-09-05T08:49:31.000Z</time>
      </trkpt>
      <trkpt lat="49.56028" lon="-1.56187">
        <ele>137.025053</ele>
        <time>2021-09-05T08:49:38.000Z</time>
      </trkpt>
      <trkpt lat="49.56033" lon="-1.56138">
        <ele>136.265747</ele>
        <time>2021-09-05T08:49:46.000Z</time>
      </trkpt>
      <trkpt lat="49.56034" lon="-1.56105">
        <ele>135.75435</ele>
        <time>2021-09-05T08:49:52.000Z</time>
      </trkpt>
      <trkpt lat="49.56027" lon="-1.56092">
        <ele>135.508009</ele>
        <time>2021-09-05T08:49:53.000Z</time>
      </trkpt>
      <trkpt lat="49.56021" lon="-1.56095">
        <ele>135.377398</ele>
        <time>2021-09-05T08:49:55.000Z</time>
      </trkpt>
      <trkpt lat="49.56004" lon="-1.56104">
        <ele>135.117626</ele>
        <time>2021-09-05T08:50:00.000Z</time>
      </trkpt>
      <trkpt lat="49.55995" lon="-1.5611">
        <ele>134.981656</ele>
        <time>2021-09-05T08:50:02.000Z</time>
      </trkpt>
      <trkpt lat="49.55985" lon="-1.56122">
        <ele>134.808204</ele>
        <time>2021-09-05T08:50:04.000Z</time>
      </trkpt>
      <trkpt lat="49.55957" lon="-1.56158">
        <ele>134.315424</ele>
        <time>2021-09-05T08:50:10.000Z</time>
      </trkpt>
      <trkpt lat="49.55934" lon="-1.56188">
        <ele>133.905937</ele>
        <time>2021-09-05T08:50:15.000Z</time>
      </trkpt>
      <trkpt lat="49.55913" lon="-1.56215">
        <ele>133.536256</ele>
        <time>2021-09-05T08:50:20.000Z</time>
      </trkpt>
      <trkpt lat="49.55878" lon="-1.56261">
        <ele>132.913176</ele>
        <time>2021-09-05T08:50:26.000Z</time>
      </trkpt>
      <trkpt lat="49.55841" lon="-1.56313">
        <ele>131.459226</ele>
        <time>2021-09-05T08:50:32.000Z</time>
      </trkpt>
      <trkpt lat="49.55822" lon="-1.5634">
        <ele>130.698435</ele>
        <time>2021-09-05T08:50:35.000Z</time>
      </trkpt>
      <trkpt lat="49.55805" lon="-1.56367">
        <ele>129.983281</ele>
        <time>2021-09-05T08:50:38.000Z</time>
      </trkpt>
      <trkpt lat="49.55776" lon="-1.56411">
        <ele>128.790389</ele>
        <time>2021-09-05T08:50:43.000Z</time>
      </trkpt>
      <trkpt lat="49.55763" lon="-1.56433">
        <ele>128.228704</ele>
        <time>2021-09-05T08:50:46.000Z</time>
      </trkpt>
      <trkpt lat="49.55757" lon="-1.56443">
        <ele>127.951241</ele>
        <time>2021-09-05T08:50:50.000Z</time>
      </trkpt>
      <trkpt lat="49.55756" lon="-1.56447">
        <ele>127.871471</ele>
        <time>2021-09-05T08:50:52.000Z</time>
      </trkpt>
      <trkpt lat="49.55755" lon="-1.5645">
        <ele>127.806237</ele>
        <time>2021-09-05T08:50:55.000Z</time>
      </trkpt>
      <trkpt lat="49.55752" lon="-1.56462">
        <ele>127.56084</ele>
        <time>2021-09-05T08:50:59.000Z</time>
      </trkpt>
      <trkpt lat="49.55745" lon="-1.56483">
        <ele>127.134493</ele>
        <time>2021-09-05T08:51:04.000Z</time>
      </trkpt>
      <trkpt lat="49.5574" lon="-1.56496">
        <ele>126.85111</ele>
        <time>2021-09-05T08:51:06.000Z</time>
      </trkpt>
      <trkpt lat="49.55734" lon="-1.56506">
        <ele>126.582594</ele>
        <time>2021-09-05T08:51:08.000Z</time>
      </trkpt>
      <trkpt lat="49.55723" lon="-1.56496">
        <ele>126.219</ele>
        <time>2021-09-05T08:51:13.000Z</time>
      </trkpt>
      <trkpt lat="49.55718" lon="-1.56491">
        <ele>126.055178</ele>
        <time>2021-09-05T08:51:16.000Z</time>
      </trkpt>
      <trkpt lat="49.55713" lon="-1.56496">
        <ele>125.906078</ele>
        <time>2021-09-05T08:51:18.000Z</time>
      </trkpt>
      <trkpt lat="49.55704" lon="-1.56507">
        <ele>125.556966</ele>
        <time>2021-09-05T08:51:21.000Z</time>
      </trkpt>
      <trkpt lat="49.55699" lon="-1.56511">
        <ele>125.41034</ele>
        <time>2021-09-05T08:51:22.000Z</time>
      </trkpt>
      <trkpt lat="49.55694" lon="-1.56515">
        <ele>125.250891</ele>
        <time>2021-09-05T08:51:23.000Z</time>
      </trkpt>
      <trkpt lat="49.5568" lon="-1.56527">
        <ele>124.781929</ele>
        <time>2021-09-05T08:51:26.000Z</time>
      </trkpt>
      <trkpt lat="49.55672" lon="-1.56535">
        <ele>124.494616</ele>
        <time>2021-09-05T08:51:28.000Z</time>
      </trkpt>
      <trkpt lat="49.55662" lon="-1.56544">
        <ele>124.176904</ele>
        <time>2021-09-05T08:51:30.000Z</time>
      </trkpt>
      <trkpt lat="49.55644" lon="-1.56561">
        <ele>123.54492</ele>
        <time>2021-09-05T08:51:34.000Z</time>
      </trkpt>
      <trkpt lat="49.5563" lon="-1.56574">
        <ele>123.079646</ele>
        <time>2021-09-05T08:51:37.000Z</time>
      </trkpt>
      <trkpt lat="49.55625" lon="-1.56578">
        <ele>122.926694</ele>
        <time>2021-09-05T08:51:38.000Z</time>
      </trkpt>
      <trkpt lat="49.55606" lon="-1.56596">
        <ele>122.336175</ele>
        <time>2021-09-05T08:51:42.000Z</time>
      </trkpt>
      <trkpt lat="49.55602" lon="-1.566">
        <ele>122.229095</ele>
        <time>2021-09-05T08:51:43.000Z</time>
      </trkpt>
      <trkpt lat="49.55576" lon="-1.56625">
        <ele>121.643806</ele>
        <time>2021-09-05T08:51:48.000Z</time>
      </trkpt>
      <trkpt lat="49.55548" lon="-1.5665">
        <ele>121.031746</ele>
        <time>2021-09-05T08:51:53.000Z</time>
      </trkpt>
      <trkpt lat="49.55542" lon="-1.56656">
        <ele>120.894972</ele>
        <time>2021-09-05T08:51:54.000Z</time>
      </trkpt>
      <trkpt lat="49.55514" lon="-1.56686">
        <ele>120.249414</ele>
        <time>2021-09-05T08:51:59.000Z</time>
      </trkpt>
      <trkpt lat="49.55504" lon="-1.56699">
        <ele>119.983632</ele>
        <time>2021-09-05T08:52:01.000Z</time>
      </trkpt>
      <trkpt lat="49.55493" lon="-1.56713">
        <ele>119.718064</ele>
        <time>2021-09-05T08:52:03.000Z</time>
      </trkpt>
      <trkpt lat="49.55468" lon="-1.56746">
        <ele>119.086415</ele>
        <time>2021-09-05T08:52:08.000Z</time>
      </trkpt>
      <trkpt lat="49.55449" lon="-1.56775">
        <ele>118.328918</ele>
        <time>2021-09-05T08:52:12.000Z</time>
      </trkpt>
      <trkpt lat="49.55445" lon="-1.56783">
        <ele>118.122798</ele>
        <time>2021-09-05T08:52:13.000Z</time>
      </trkpt>
      <trkpt lat="49.55429" lon="-1.56816">
        <ele>117.298321</ele>
        <time>2021-09-05T08:52:17.000Z</time>
      </trkpt>
      <trkpt lat="49.5542" lon="-1.56832">
        <ele>116.879174</ele>
        <time>2021-09-05T08:52:19.000Z</time>
      </trkpt>
      <trkpt lat="49.55413" lon="-1.56853">
        <ele>116.408038</ele>
        <time>2021-09-05T08:52:21.000Z</time>
      </trkpt>
      <trkpt lat="49.55405" lon="-1.56876">
        <ele>115.894511</ele>
        <time>2021-09-05T08:52:23.000Z</time>
      </trkpt>
      <trkpt lat="49.55395" lon="-1.56899">
        <ele>115.348126</ele>
        <time>2021-09-05T08:52:25.000Z</time>
      </trkpt>
      <trkpt lat="49.5538" lon="-1.56914">
        <ele>114.791648</ele>
        <time>2021-09-05T08:52:27.000Z</time>
      </trkpt>
      <trkpt lat="49.55373" lon="-1.56919">
        <ele>114.558689</ele>
        <time>2021-09-05T08:52:28.000Z</time>
      </trkpt>
      <trkpt lat="49.55367" lon="-1.56922">
        <ele>114.350455</ele>
        <time>2021-09-05T08:52:29.000Z</time>
      </trkpt>
      <trkpt lat="49.55352" lon="-1.56936">
        <ele>113.82642</ele>
        <time>2021-09-05T08:52:31.000Z</time>
      </trkpt>
      <trkpt lat="49.55351" lon="-1.56963">
        <ele>113.30741</ele>
        <time>2021-09-05T08:52:34.000Z</time>
      </trkpt>
      <trkpt lat="49.55351" lon="-1.56969">
        <ele>113.196189</ele>
        <time>2021-09-05T08:52:35.000Z</time>
      </trkpt>
      <trkpt lat="49.55351" lon="-1.56974">
        <ele>113.123236</ele>
        <time>2021-09-05T08:52:36.000Z</time>
      </trkpt>
      <trkpt lat="49.55341" lon="-1.56984">
        <ele>112.792075</ele>
        <time>2021-09-05T08:52:38.000Z</time>
      </trkpt>
      <trkpt lat="49.5533" lon="-1.56994">
        <ele>112.459992</ele>
        <time>2021-09-05T08:52:40.000Z</time>
      </trkpt>
      <trkpt lat="49.55314" lon="-1.57009">
        <ele>111.952089</ele>
        <time>2021-09-05T08:52:43.000Z</time>
      </trkpt>
      <trkpt lat="49.55289" lon="-1.57033">
        <ele>111.163598</ele>
        <time>2021-09-05T08:52:48.000Z</time>
      </trkpt>
      <trkpt lat="49.5526" lon="-1.57058">
        <ele>110.263505</ele>
        <time>2021-09-05T08:52:53.000Z</time>
      </trkpt>
      <trkpt lat="49.55228" lon="-1.57084">
        <ele>109.314607</ele>
        <time>2021-09-05T08:52:58.000Z</time>
      </trkpt>
      <trkpt lat="49.55217" lon="-1.5709">
        <ele>109.001222</ele>
        <time>2021-09-05T08:53:00.000Z</time>
      </trkpt>
      <trkpt lat="49.55207" lon="-1.57096">
        <ele>108.69597</ele>
        <time>2021-09-05T08:53:02.000Z</time>
      </trkpt>
      <trkpt lat="49.55173" lon="-1.57115">
        <ele>108.403367</ele>
        <time>2021-09-05T08:53:08.000Z</time>
      </trkpt>
      <trkpt lat="49.55142" lon="-1.57129">
        <ele>108.164699</ele>
        <time>2021-09-05T08:53:15.000Z</time>
      </trkpt>
      <trkpt lat="49.55115" lon="-1.57145">
        <ele>107.954226</ele>
        <time>2021-09-05T08:53:20.000Z</time>
      </trkpt>
      <trkpt lat="49.55084" lon="-1.57163">
        <ele>107.713864</ele>
        <time>2021-09-05T08:53:25.000Z</time>
      </trkpt>
      <trkpt lat="49.55079" lon="-1.57165">
        <ele>107.670007</ele>
        <time>2021-09-05T08:53:26.000Z</time>
      </trkpt>
      <trkpt lat="49.55048" lon="-1.57178">
        <ele>107.435471</ele>
        <time>2021-09-05T08:53:31.000Z</time>
      </trkpt>
      <trkpt lat="49.55034" lon="-1.57183">
        <ele>107.33558</ele>
        <time>2021-09-05T08:53:33.000Z</time>
      </trkpt>
      <trkpt lat="49.55023" lon="-1.57193">
        <ele>107.189285</ele>
        <time>2021-09-05T08:53:35.000Z</time>
      </trkpt>
      <trkpt lat="49.55019" lon="-1.57198">
        <ele>107.121356</ele>
        <time>2021-09-05T08:53:36.000Z</time>
      </trkpt>
      <trkpt lat="49.55004" lon="-1.57219">
        <ele>106.892144</ele>
        <time>2021-09-05T08:53:39.000Z</time>
      </trkpt>
      <trkpt lat="49.55" lon="-1.57228">
        <ele>106.808077</ele>
        <time>2021-09-05T08:53:40.000Z</time>
      </trkpt>
      <trkpt lat="49.54975" lon="-1.57278">
        <ele>106.336625</ele>
        <time>2021-09-05T08:53:45.000Z</time>
      </trkpt>
      <trkpt lat="49.54964" lon="-1.57291">
        <ele>106.170583</ele>
        <time>2021-09-05T08:53:47.000Z</time>
      </trkpt>
      <trkpt lat="49.54957" lon="-1.57297">
        <ele>106.084715</ele>
        <time>2021-09-05T08:53:48.000Z</time>
      </trkpt>
      <trkpt lat="49.54929" lon="-1.57321">
        <ele>105.711963</ele>
        <time>2021-09-05T08:53:52.000Z</time>
      </trkpt>
      <trkpt lat="49.54909" lon="-1.57347">
        <ele>105.413088</ele>
        <time>2021-09-05T08:53:56.000Z</time>
      </trkpt>
      <trkpt lat="49.54907" lon="-1.57351">
        <ele>105.369708</ele>
        <time>2021-09-05T08:53:57.000Z</time>
      </trkpt>
      <trkpt lat="49.54905" lon="-1.57353">
        <ele>105.344124</ele>
        <time>2021-09-05T08:53:58.000Z</time>
      </trkpt>
      <trkpt lat="49.54898" lon="-1.57352">
        <ele>105.259774</ele>
        <time>2021-09-05T08:54:00.000Z</time>
      </trkpt>
      <trkpt lat="49.54894" lon="-1.57341">
        <ele>105.234322</ele>
        <time>2021-09-05T08:54:03.000Z</time>
      </trkpt>
      <trkpt lat="49.54891" lon="-1.57336">
        <ele>105.224421</ele>
        <time>2021-09-05T08:54:04.000Z</time>
      </trkpt>
      <trkpt lat="49.54888" lon="-1.57329">
        <ele>105.213584</ele>
        <time>2021-09-05T08:54:05.000Z</time>
      </trkpt>
      <trkpt lat="49.54874" lon="-1.57301">
        <ele>105.16408</ele>
        <time>2021-09-05T08:54:09.000Z</time>
      </trkpt>
      <trkpt lat="49.54856" lon="-1.57263">
        <ele>105.097606</ele>
        <time>2021-09-05T08:54:15.000Z</time>
      </trkpt>
      <trkpt lat="49.54845" lon="-1.57252">
        <ele>105.068214</ele>
        <time>2021-09-05T08:54:17.000Z</time>
      </trkpt>
      <trkpt lat="49.54841" lon="-1.57256">
        <ele>105.058699</ele>
        <time>2021-09-05T08:54:18.000Z</time>
      </trkpt>
      <trkpt lat="49.54828" lon="-1.5727">
        <ele>105.02468</ele>
        <time>2021-09-05T08:54:21.000Z</time>
      </trkpt>
      <trkpt lat="49.54823" lon="-1.57275">
        <ele>105.011994</ele>
        <time>2021-09-05T08:54:22.000Z</time>
      </trkpt>
      <trkpt lat="49.54814" lon="-1.57286">
        <ele>104.987313</ele>
        <time>2021-09-05T08:54:24.000Z</time>
      </trkpt>
      <trkpt lat="49.54798" lon="-1.57306">
        <ele>104.942565</ele>
        <time>2021-09-05T08:54:28.000Z</time>
      </trkpt>
      <trkpt lat="49.5478" lon="-1.57337">
        <ele>104.884284</ele>
        <time>2021-09-05T08:54:33.000Z</time>
      </trkpt>
      <trkpt lat="49.54757" lon="-1.57368">
        <ele>105.025215</ele>
        <time>2021-09-05T08:54:39.000Z</time>
      </trkpt>
      <trkpt lat="49.54731" lon="-1.57402">
        <ele>105.301246</ele>
        <time>2021-09-05T08:54:44.000Z</time>
      </trkpt>
      <trkpt lat="49.54714" lon="-1.57423">
        <ele>105.475012</ele>
        <time>2021-09-05T08:54:46.000Z</time>
      </trkpt>
      <trkpt lat="49.54703" lon="-1.57433">
        <ele>105.579508</ele>
        <time>2021-09-05T08:54:48.000Z</time>
      </trkpt>
      <trkpt lat="49.54697" lon="-1.57437">
        <ele>105.627183</ele>
        <time>2021-09-05T08:54:49.000Z</time>
      </trkpt>
      <trkpt lat="49.54689" lon="-1.57439">
        <ele>105.698587</ele>
        <time>2021-09-05T08:54:51.000Z</time>
      </trkpt>
      <trkpt lat="49.5467" lon="-1.57435">
        <ele>105.853011</ele>
        <time>2021-09-05T08:54:53.000Z</time>
      </trkpt>
      <trkpt lat="49.54659" lon="-1.57422">
        <ele>105.964048</ele>
        <time>2021-09-05T08:54:55.000Z</time>
      </trkpt>
      <trkpt lat="49.54647" lon="-1.57408">
        <ele>106.0802</ele>
        <time>2021-09-05T08:54:58.000Z</time>
      </trkpt>
      <trkpt lat="49.54642" lon="-1.57406">
        <ele>106.122986</ele>
        <time>2021-09-05T08:54:59.000Z</time>
      </trkpt>
      <trkpt lat="49.54637" lon="-1.57404">
        <ele>106.168538</ele>
        <time>2021-09-05T08:55:00.000Z</time>
      </trkpt>
      <trkpt lat="49.54619" lon="-1.57398">
        <ele>106.313736</ele>
        <time>2021-09-05T08:55:03.000Z</time>
      </trkpt>
      <trkpt lat="49.54605" lon="-1.57394">
        <ele>106.141287</ele>
        <time>2021-09-05T08:55:05.000Z</time>
      </trkpt>
      <trkpt lat="49.54584" lon="-1.57387">
        <ele>105.886295</ele>
        <time>2021-09-05T08:55:08.000Z</time>
      </trkpt>
      <trkpt lat="49.54555" lon="-1.57383">
        <ele>105.543619</ele>
        <time>2021-09-05T08:55:12.000Z</time>
      </trkpt>
      <trkpt lat="49.54521" lon="-1.57378">
        <ele>105.150404</ele>
        <time>2021-09-05T08:55:16.000Z</time>
      </trkpt>
      <trkpt lat="49.54513" lon="-1.57377">
        <ele>105.058444</ele>
        <time>2021-09-05T08:55:17.000Z</time>
      </trkpt>
      <trkpt lat="49.54498" lon="-1.57377">
        <ele>104.87386</ele>
        <time>2021-09-05T08:55:19.000Z</time>
      </trkpt>
      <trkpt lat="49.54467" lon="-1.57377">
        <ele>104.51057</ele>
        <time>2021-09-05T08:55:23.000Z</time>
      </trkpt>
      <trkpt lat="49.54439" lon="-1.57383">
        <ele>104.192998</ele>
        <time>2021-09-05T08:55:28.000Z</time>
      </trkpt>
      <trkpt lat="49.54435" lon="-1.57386">
        <ele>104.173768</ele>
        <time>2021-09-05T08:55:30.000Z</time>
      </trkpt>
      <trkpt lat="49.54435" lon="-1.57386">
        <ele>104.173768</ele>
        <time>2021-09-05T08:55:31.000Z</time>
      </trkpt>
      <trkpt lat="49.54442" lon="-1.57395">
        <ele>104.135749</ele>
        <time>2021-09-05T08:55:35.000Z</time>
      </trkpt>
      <trkpt lat="49.54448" lon="-1.57414">
        <ele>104.073981</ele>
        <time>2021-09-05T08:55:39.000Z</time>
      </trkpt>
      <trkpt lat="49.54448" lon="-1.57431">
        <ele>104.02751</ele>
        <time>2021-09-05T08:55:43.000Z</time>
      </trkpt>
      <trkpt lat="49.54446" lon="-1.57437">
        <ele>104.00707</ele>
        <time>2021-09-05T08:55:45.000Z</time>
      </trkpt>
      <trkpt lat="49.54439" lon="-1.57447">
        <ele>103.965762</ele>
        <time>2021-09-05T08:55:46.000Z</time>
      </trkpt>
      <trkpt lat="49.54434" lon="-1.5745">
        <ele>103.94363</ele>
        <time>2021-09-05T08:55:47.000Z</time>
      </trkpt>
      <trkpt lat="49.54425" lon="-1.57457">
        <ele>103.902567</ele>
        <time>2021-09-05T08:55:49.000Z</time>
      </trkpt>
      <trkpt lat="49.54422" lon="-1.5746">
        <ele>103.884659</ele>
        <time>2021-09-05T08:55:50.000Z</time>
      </trkpt>
      <trkpt lat="49.54414" lon="-1.57466">
        <ele>103.847946</ele>
        <time>2021-09-05T08:55:52.000Z</time>
      </trkpt>
      <trkpt lat="49.54406" lon="-1.57473">
        <ele>103.808429</ele>
        <time>2021-09-05T08:55:55.000Z</time>
      </trkpt>
      <trkpt lat="49.54391" lon="-1.57488">
        <ele>103.731011</ele>
        <time>2021-09-05T08:55:59.000Z</time>
      </trkpt>
      <trkpt lat="49.54374" lon="-1.57506">
        <ele>103.642541</ele>
        <time>2021-09-05T08:56:04.000Z</time>
      </trkpt>
      <trkpt lat="49.54361" lon="-1.57521">
        <ele>103.572137</ele>
        <time>2021-09-05T08:56:09.000Z</time>
      </trkpt>
      <trkpt lat="49.54348" lon="-1.57538">
        <ele>103.495581</ele>
        <time>2021-09-05T08:56:14.000Z</time>
      </trkpt>
      <trkpt lat="49.5433" lon="-1.5756">
        <ele>103.431909</ele>
        <time>2021-09-05T08:56:20.000Z</time>
      </trkpt>
      <trkpt lat="49.54321" lon="-1.57579">
        <ele>103.452113</ele>
        <time>2021-09-05T08:56:25.000Z</time>
      </trkpt>
      <trkpt lat="49.54315" lon="-1.57604">
        <ele>103.476057</ele>
        <time>2021-09-05T08:56:30.000Z</time>
      </trkpt>
      <trkpt lat="49.54312" lon="-1.57625">
        <ele>103.494161</ele>
        <time>2021-09-05T08:56:34.000Z</time>
      </trkpt>
      <trkpt lat="49.54309" lon="-1.57654">
        <ele>103.520648</ele>
        <time>2021-09-05T08:56:41.000Z</time>
      </trkpt>
      <trkpt lat="49.54308" lon="-1.57659">
        <ele>103.52447</ele>
        <time>2021-09-05T08:56:42.000Z</time>
      </trkpt>
      <trkpt lat="49.54307" lon="-1.57672">
        <ele>103.536412</ele>
        <time>2021-09-05T08:56:45.000Z</time>
      </trkpt>
      <trkpt lat="49.54305" lon="-1.57695">
        <ele>103.556927</ele>
        <time>2021-09-05T08:56:50.000Z</time>
      </trkpt>
      <trkpt lat="49.54303" lon="-1.57728">
        <ele>103.585807</ele>
        <time>2021-09-05T08:56:57.000Z</time>
      </trkpt>
      <trkpt lat="49.543" lon="-1.57762">
        <ele>103.615819</ele>
        <time>2021-09-05T08:57:04.000Z</time>
      </trkpt>
      <trkpt lat="49.54299" lon="-1.57785">
        <ele>103.635449</ele>
        <time>2021-09-05T08:57:10.000Z</time>
      </trkpt>
      <trkpt lat="49.54295" lon="-1.57784">
        <ele>103.640189</ele>
        <time>2021-09-05T08:57:11.000Z</time>
      </trkpt>
      <trkpt lat="49.54289" lon="-1.57783">
        <ele>103.648738</ele>
        <time>2021-09-05T08:57:13.000Z</time>
      </trkpt>
      <trkpt lat="49.54278" lon="-1.57781">
        <ele>103.663128</ele>
        <time>2021-09-05T08:57:15.000Z</time>
      </trkpt>
      <trkpt lat="49.54272" lon="-1.5778">
        <ele>103.568753</ele>
        <time>2021-09-05T08:57:16.000Z</time>
      </trkpt>
      <trkpt lat="49.54233" lon="-1.57773">
        <ele>102.657839</ele>
        <time>2021-09-05T08:57:21.000Z</time>
      </trkpt>
      <trkpt lat="49.54179" lon="-1.57764">
        <ele>101.405652</ele>
        <time>2021-09-05T08:57:27.000Z</time>
      </trkpt>
      <trkpt lat="49.54122" lon="-1.57753">
        <ele>100.073517</ele>
        <time>2021-09-05T08:57:33.000Z</time>
      </trkpt>
      <trkpt lat="49.54113" lon="-1.57751">
        <ele>99.848883</ele>
        <time>2021-09-05T08:57:34.000Z</time>
      </trkpt>
      <trkpt lat="49.54056" lon="-1.5774">
        <ele>98.213435</ele>
        <time>2021-09-05T08:57:40.000Z</time>
      </trkpt>
      <trkpt lat="49.54046" lon="-1.57738">
        <ele>97.93098</ele>
        <time>2021-09-05T08:57:41.000Z</time>
      </trkpt>
      <trkpt lat="49.54006" lon="-1.5773">
        <ele>96.68196</ele>
        <time>2021-09-05T08:57:46.000Z</time>
      </trkpt>
      <trkpt lat="49.53981" lon="-1.57725">
        <ele>95.920618</ele>
        <time>2021-09-05T08:57:49.000Z</time>
      </trkpt>
      <trkpt lat="49.53963" lon="-1.57721">
        <ele>95.371311</ele>
        <time>2021-09-05T08:57:51.000Z</time>
      </trkpt>
      <trkpt lat="49.53916" lon="-1.57711">
        <ele>93.934287</ele>
        <time>2021-09-05T08:57:56.000Z</time>
      </trkpt>
      <trkpt lat="49.53888" lon="-1.57706">
        <ele>92.987925</ele>
        <time>2021-09-05T08:57:59.000Z</time>
      </trkpt>
      <trkpt lat="49.53878" lon="-1.57704">
        <ele>92.661368</ele>
        <time>2021-09-05T08:58:00.000Z</time>
      </trkpt>
      <trkpt lat="49.53869" lon="-1.57706">
        <ele>92.347905</ele>
        <time>2021-09-05T08:58:01.000Z</time>
      </trkpt>
      <trkpt lat="49.53861" lon="-1.57709">
        <ele>92.066829</ele>
        <time>2021-09-05T08:58:02.000Z</time>
      </trkpt>
      <trkpt lat="49.53852" lon="-1.57719">
        <ele>91.721219</ele>
        <time>2021-09-05T08:58:03.000Z</time>
      </trkpt>
      <trkpt lat="49.53839" lon="-1.57732">
        <ele>91.210337</ele>
        <time>2021-09-05T08:58:05.000Z</time>
      </trkpt>
      <trkpt lat="49.53825" lon="-1.57721">
        <ele>90.670304</ele>
        <time>2021-09-05T08:58:07.000Z</time>
      </trkpt>
      <trkpt lat="49.53817" lon="-1.57716">
        <ele>90.389038</ele>
        <time>2021-09-05T08:58:08.000Z</time>
      </trkpt>
      <trkpt lat="49.53777" lon="-1.57685">
        <ele>88.904937</ele>
        <time>2021-09-05T08:58:13.000Z</time>
      </trkpt>
      <trkpt lat="49.53729" lon="-1.57645">
        <ele>86.791234</ele>
        <time>2021-09-05T08:58:19.000Z</time>
      </trkpt>
      <trkpt lat="49.53724" lon="-1.57639">
        <ele>86.483153</ele>
        <time>2021-09-05T08:58:20.000Z</time>
      </trkpt>
      <trkpt lat="49.5372" lon="-1.5762">
        <ele>85.910269</ele>
        <time>2021-09-05T08:58:22.000Z</time>
      </trkpt>
      <trkpt lat="49.53718" lon="-1.5761">
        <ele>85.626554</ele>
        <time>2021-09-05T08:58:23.000Z</time>
      </trkpt>
      <trkpt lat="49.53711" lon="-1.5759">
        <ele>84.976926</ele>
        <time>2021-09-05T08:58:26.000Z</time>
      </trkpt>
      <trkpt lat="49.53694" lon="-1.57574">
        <ele>84.10546</ele>
        <time>2021-09-05T08:58:28.000Z</time>
      </trkpt>
      <trkpt lat="49.53681" lon="-1.57562">
        <ele>83.44473</ele>
        <time>2021-09-05T08:58:30.000Z</time>
      </trkpt>
      <trkpt lat="49.53646" lon="-1.57527">
        <ele>81.603239</ele>
        <time>2021-09-05T08:58:35.000Z</time>
      </trkpt>
      <trkpt lat="49.53606" lon="-1.57487">
        <ele>79.438378</ele>
        <time>2021-09-05T08:58:41.000Z</time>
      </trkpt>
      <trkpt lat="49.53583" lon="-1.57464">
        <ele>78.057977</ele>
        <time>2021-09-05T08:58:45.000Z</time>
      </trkpt>
      <trkpt lat="49.53576" lon="-1.57457">
        <ele>77.676348</ele>
        <time>2021-09-05T08:58:46.000Z</time>
      </trkpt>
      <trkpt lat="49.53567" lon="-1.57432">
        <ele>76.761108</ele>
        <time>2021-09-05T08:58:49.000Z</time>
      </trkpt>
      <trkpt lat="49.5356" lon="-1.57415">
        <ele>76.135707</ele>
        <time>2021-09-05T08:58:51.000Z</time>
      </trkpt>
      <trkpt lat="49.5355" lon="-1.5739">
        <ele>75.215054</ele>
        <time>2021-09-05T08:58:54.000Z</time>
      </trkpt>
      <trkpt lat="49.53547" lon="-1.57383">
        <ele>74.933</ele>
        <time>2021-09-05T08:58:55.000Z</time>
      </trkpt>
      <trkpt lat="49.53537" lon="-1.57371">
        <ele>74.313739</ele>
        <time>2021-09-05T08:58:57.000Z</time>
      </trkpt>
      <trkpt lat="49.53532" lon="-1.57367">
        <ele>74.049864</ele>
        <time>2021-09-05T08:58:58.000Z</time>
      </trkpt>
      <trkpt lat="49.53498" lon="-1.57343">
        <ele>72.211157</ele>
        <time>2021-09-05T08:59:06.000Z</time>
      </trkpt>
      <trkpt lat="49.53479" lon="-1.5733">
        <ele>71.277415</ele>
        <time>2021-09-05T08:59:11.000Z</time>
      </trkpt>
      <trkpt lat="49.53448" lon="-1.57314">
        <ele>70.615579</ele>
        <time>2021-09-05T08:59:18.000Z</time>
      </trkpt>
      <trkpt lat="49.534" lon="-1.57293">
        <ele>69.596223</ele>
        <time>2021-09-05T08:59:27.000Z</time>
      </trkpt>
      <trkpt lat="49.53377" lon="-1.57284">
        <ele>69.119438</ele>
        <time>2021-09-05T08:59:32.000Z</time>
      </trkpt>
      <trkpt lat="49.53354" lon="-1.57276">
        <ele>68.651618</ele>
        <time>2021-09-05T08:59:38.000Z</time>
      </trkpt>
      <trkpt lat="49.53338" lon="-1.5727">
        <ele>68.318497</ele>
        <time>2021-09-05T08:59:43.000Z</time>
      </trkpt>
      <trkpt lat="49.53326" lon="-1.57266">
        <ele>68.059525</ele>
        <time>2021-09-05T08:59:48.000Z</time>
      </trkpt>
      <trkpt lat="49.5331" lon="-1.57264">
        <ele>67.729265</ele>
        <time>2021-09-05T08:59:54.000Z</time>
      </trkpt>
      <trkpt lat="49.53295" lon="-1.57261">
        <ele>67.941269</ele>
        <time>2021-09-05T08:59:59.000Z</time>
      </trkpt>
      <trkpt lat="49.53279" lon="-1.57259">
        <ele>68.255489</ele>
        <time>2021-09-05T09:00:05.000Z</time>
      </trkpt>
      <trkpt lat="49.53255" lon="-1.57257">
        <ele>68.717135</ele>
        <time>2021-09-05T09:00:13.000Z</time>
      </trkpt>
      <trkpt lat="49.53244" lon="-1.57258">
        <ele>68.931454</ele>
        <time>2021-09-05T09:00:16.000Z</time>
      </trkpt>
      <trkpt lat="49.53239" lon="-1.57257">
        <ele>69.027414</ele>
        <time>2021-09-05T09:00:17.000Z</time>
      </trkpt>
      <trkpt lat="49.53218" lon="-1.57243">
        <ele>69.475628</ele>
        <time>2021-09-05T09:00:21.000Z</time>
      </trkpt>
      <trkpt lat="49.53204" lon="-1.57237">
        <ele>69.742629</ele>
        <time>2021-09-05T09:00:24.000Z</time>
      </trkpt>
      <trkpt lat="49.53194" lon="-1.57225">
        <ele>69.991252</ele>
        <time>2021-09-05T09:00:28.000Z</time>
      </trkpt>
      <trkpt lat="49.5318" lon="-1.57204">
        <ele>70.368861</ele>
        <time>2021-09-05T09:00:35.000Z</time>
      </trkpt>
      <trkpt lat="49.5317" lon="-1.57189">
        <ele>70.637341</ele>
        <time>2021-09-05T09:00:41.000Z</time>
      </trkpt>
      <trkpt lat="49.53158" lon="-1.57172">
        <ele>70.950308</ele>
        <time>2021-09-05T09:00:48.000Z</time>
      </trkpt>
      <trkpt lat="49.53146" lon="-1.57152">
        <ele>71.377621</ele>
        <time>2021-09-05T09:00:55.000Z</time>
      </trkpt>
      <trkpt lat="49.53136" lon="-1.57138">
        <ele>71.787049</ele>
        <time>2021-09-05T09:01:00.000Z</time>
      </trkpt>
      <trkpt lat="49.53124" lon="-1.57121">
        <ele>72.288147</ele>
        <time>2021-09-05T09:01:06.000Z</time>
      </trkpt>
      <trkpt lat="49.53108" lon="-1.57094">
        <ele>73.038747</ele>
        <time>2021-09-05T09:01:14.000Z</time>
      </trkpt>
      <trkpt lat="49.53091" lon="-1.57068">
        <ele>73.774187</ele>
        <time>2021-09-05T09:01:22.000Z</time>
      </trkpt>
      <trkpt lat="49.53077" lon="-1.57046">
        <ele>74.396366</ele>
        <time>2021-09-05T09:01:30.000Z</time>
      </trkpt>
      <trkpt lat="49.53066" lon="-1.57026">
        <ele>74.930518</ele>
        <time>2021-09-05T09:01:37.000Z</time>
      </trkpt>
      <trkpt lat="49.53055" lon="-1.5701">
        <ele>75.392491</ele>
        <time>2021-09-05T09:01:43.000Z</time>
      </trkpt>
      <trkpt lat="49.53044" lon="-1.5699">
        <ele>75.919458</ele>
        <time>2021-09-05T09:01:50.000Z</time>
      </trkpt>
      <trkpt lat="49.53032" lon="-1.56971">
        <ele>76.450017</ele>
        <time>2021-09-05T09:01:57.000Z</time>
      </trkpt>
      <trkpt lat="49.53019" lon="-1.5695">
        <ele>76.770435</ele>
        <time>2021-09-05T09:02:03.000Z</time>
      </trkpt>
      <trkpt lat="49.53" lon="-1.56917">
        <ele>76.846917</ele>
        <time>2021-09-05T09:02:10.000Z</time>
      </trkpt>
      <trkpt lat="49.52974" lon="-1.56876">
        <ele>76.944787</ele>
        <time>2021-09-05T09:02:18.000Z</time>
      </trkpt>
      <trkpt lat="49.52971" lon="-1.56871">
        <ele>76.957054</ele>
        <time>2021-09-05T09:02:19.000Z</time>
      </trkpt>
      <trkpt lat="49.52952" lon="-1.56846">
        <ele>77.022384</ele>
        <time>2021-09-05T09:02:24.000Z</time>
      </trkpt>
      <trkpt lat="49.52936" lon="-1.56825">
        <ele>77.078967</ele>
        <time>2021-09-05T09:02:28.000Z</time>
      </trkpt>
      <trkpt lat="49.52922" lon="-1.56808">
        <ele>77.12483</ele>
        <time>2021-09-05T09:02:31.000Z</time>
      </trkpt>
      <trkpt lat="49.52892" lon="-1.56769">
        <ele>77.179501</ele>
        <time>2021-09-05T09:02:37.000Z</time>
      </trkpt>
      <trkpt lat="49.52843" lon="-1.56723">
        <ele>76.319866</ele>
        <time>2021-09-05T09:02:45.000Z</time>
      </trkpt>
      <trkpt lat="49.528" lon="-1.56692">
        <ele>75.604955</ele>
        <time>2021-09-05T09:02:51.000Z</time>
      </trkpt>
      <trkpt lat="49.5276" lon="-1.56675">
        <ele>74.982681</ele>
        <time>2021-09-05T09:02:56.000Z</time>
      </trkpt>
      <trkpt lat="49.52727" lon="-1.5667">
        <ele>74.511274</ele>
        <time>2021-09-05T09:03:00.000Z</time>
      </trkpt>
      <trkpt lat="49.52707" lon="-1.56665">
        <ele>74.437461</ele>
        <time>2021-09-05T09:03:03.000Z</time>
      </trkpt>
      <trkpt lat="49.52702" lon="-1.56664">
        <ele>74.416654</ele>
        <time>2021-09-05T09:03:04.000Z</time>
      </trkpt>
      <trkpt lat="49.52685" lon="-1.56648">
        <ele>74.342978</ele>
        <time>2021-09-05T09:03:08.000Z</time>
      </trkpt>
      <trkpt lat="49.52681" lon="-1.56644">
        <ele>74.326448</ele>
        <time>2021-09-05T09:03:09.000Z</time>
      </trkpt>
      <trkpt lat="49.52678" lon="-1.5664">
        <ele>74.31018</ele>
        <time>2021-09-05T09:03:10.000Z</time>
      </trkpt>
      <trkpt lat="49.52665" lon="-1.56627">
        <ele>74.253321</ele>
        <time>2021-09-05T09:03:14.000Z</time>
      </trkpt>
      <trkpt lat="49.5265" lon="-1.56614">
        <ele>74.190908</ele>
        <time>2021-09-05T09:03:19.000Z</time>
      </trkpt>
      <trkpt lat="49.52629" lon="-1.56594">
        <ele>74.098803</ele>
        <time>2021-09-05T09:03:26.000Z</time>
      </trkpt>
      <trkpt lat="49.52611" lon="-1.56579">
        <ele>74.023474</ele>
        <time>2021-09-05T09:03:32.000Z</time>
      </trkpt>
      <trkpt lat="49.52587" lon="-1.56564">
        <ele>73.926685</ele>
        <time>2021-09-05T09:03:39.000Z</time>
      </trkpt>
      <trkpt lat="49.52566" lon="-1.56551">
        <ele>73.85628</ele>
        <time>2021-09-05T09:03:45.000Z</time>
      </trkpt>
      <trkpt lat="49.52554" lon="-1.56543">
        <ele>73.873996</ele>
        <time>2021-09-05T09:03:48.000Z</time>
      </trkpt>
      <trkpt lat="49.52542" lon="-1.56535">
        <ele>73.892303</ele>
        <time>2021-09-05T09:03:51.000Z</time>
      </trkpt>
      <trkpt lat="49.5251" lon="-1.56512">
        <ele>73.940154</ele>
        <time>2021-09-05T09:03:59.000Z</time>
      </trkpt>
      <trkpt lat="49.52483" lon="-1.56493">
        <ele>73.980044</ele>
        <time>2021-09-05T09:04:05.000Z</time>
      </trkpt>
      <trkpt lat="49.52451" lon="-1.56467">
        <ele>74.029509</ele>
        <time>2021-09-05T09:04:11.000Z</time>
      </trkpt>
      <trkpt lat="49.52425" lon="-1.56448">
        <ele>74.069455</ele>
        <time>2021-09-05T09:04:17.000Z</time>
      </trkpt>
      <trkpt lat="49.52419" lon="-1.56461">
        <ele>74.083765</ele>
        <time>2021-09-05T09:04:20.000Z</time>
      </trkpt>
      <trkpt lat="49.52409" lon="-1.56507">
        <ele>73.889719</ele>
        <time>2021-09-05T09:04:27.000Z</time>
      </trkpt>
      <trkpt lat="49.52397" lon="-1.56559">
        <ele>73.534393</ele>
        <time>2021-09-05T09:04:34.000Z</time>
      </trkpt>
      <trkpt lat="49.52391" lon="-1.5657">
        <ele>73.440631</ele>
        <time>2021-09-05T09:04:36.000Z</time>
      </trkpt>
      <trkpt lat="49.52381" lon="-1.5659">
        <ele>73.284995</ele>
        <time>2021-09-05T09:04:39.000Z</time>
      </trkpt>
      <trkpt lat="49.5236" lon="-1.56652">
        <ele>72.837277</ele>
        <time>2021-09-05T09:04:47.000Z</time>
      </trkpt>
      <trkpt lat="49.52347" lon="-1.56692">
        <ele>72.549375</ele>
        <time>2021-09-05T09:04:52.000Z</time>
      </trkpt>
      <trkpt lat="49.52343" lon="-1.567">
        <ele>72.484347</ele>
        <time>2021-09-05T09:04:53.000Z</time>
      </trkpt>
      <trkpt lat="49.52317" lon="-1.56743">
        <ele>72.059631</ele>
        <time>2021-09-05T09:04:59.000Z</time>
      </trkpt>
      <trkpt lat="49.52312" lon="-1.5676">
        <ele>71.90918</ele>
        <time>2021-09-05T09:05:01.000Z</time>
      </trkpt>
      <trkpt lat="49.52304" lon="-1.56783">
        <ele>71.696505</ele>
        <time>2021-09-05T09:05:04.000Z</time>
      </trkpt>
      <trkpt lat="49.523" lon="-1.5679">
        <ele>71.628087</ele>
        <time>2021-09-05T09:05:05.000Z</time>
      </trkpt>
      <trkpt lat="49.52284" lon="-1.56818">
        <ele>71.330069</ele>
        <time>2021-09-05T09:05:09.000Z</time>
      </trkpt>
      <trkpt lat="49.52261" lon="-1.56866">
        <ele>70.848628</ele>
        <time>2021-09-05T09:05:15.000Z</time>
      </trkpt>
      <trkpt lat="49.52239" lon="-1.56921">
        <ele>70.33634</ele>
        <time>2021-09-05T09:05:21.000Z</time>
      </trkpt>
      <trkpt lat="49.52209" lon="-1.56984">
        <ele>69.380906</ele>
        <time>2021-09-05T09:05:28.000Z</time>
      </trkpt>
      <trkpt lat="49.52183" lon="-1.57038">
        <ele>68.413793</ele>
        <time>2021-09-05T09:05:34.000Z</time>
      </trkpt>
      <trkpt lat="49.52175" lon="-1.57054">
        <ele>68.131849</ele>
        <time>2021-09-05T09:05:36.000Z</time>
      </trkpt>
      <trkpt lat="49.52165" lon="-1.57064">
        <ele>67.855632</ele>
        <time>2021-09-05T09:05:38.000Z</time>
      </trkpt>
      <trkpt lat="49.52141" lon="-1.57069">
        <ele>67.320244</ele>
        <time>2021-09-05T09:05:42.000Z</time>
      </trkpt>
      <trkpt lat="49.52135" lon="-1.57072">
        <ele>67.181544</ele>
        <time>2021-09-05T09:05:43.000Z</time>
      </trkpt>
      <trkpt lat="49.52111" lon="-1.57084">
        <ele>66.625687</ele>
        <time>2021-09-05T09:05:47.000Z</time>
      </trkpt>
      <trkpt lat="49.52101" lon="-1.57095">
        <ele>66.356116</ele>
        <time>2021-09-05T09:05:49.000Z</time>
      </trkpt>
      <trkpt lat="49.52086" lon="-1.57128">
        <ele>65.754894</ele>
        <time>2021-09-05T09:05:53.000Z</time>
      </trkpt>
      <trkpt lat="49.52064" lon="-1.57184">
        <ele>64.759865</ele>
        <time>2021-09-05T09:06:00.000Z</time>
      </trkpt>
      <trkpt lat="49.52046" lon="-1.57226">
        <ele>64.005652</ele>
        <time>2021-09-05T09:06:06.000Z</time>
      </trkpt>
      <trkpt lat="49.52028" lon="-1.57271">
        <ele>63.204543</ele>
        <time>2021-09-05T09:06:13.000Z</time>
      </trkpt>
      <trkpt lat="49.52023" lon="-1.57283">
        <ele>62.987793</ele>
        <time>2021-09-05T09:06:15.000Z</time>
      </trkpt>
      <trkpt lat="49.52013" lon="-1.57306">
        <ele>62.566967</ele>
        <time>2021-09-05T09:06:19.000Z</time>
      </trkpt>
      <trkpt lat="49.52005" lon="-1.57325">
        <ele>62.233604</ele>
        <time>2021-09-05T09:06:22.000Z</time>
      </trkpt>
      <trkpt lat="49.51998" lon="-1.57344">
        <ele>61.890819</ele>
        <time>2021-09-05T09:06:25.000Z</time>
      </trkpt>
      <trkpt lat="49.51993" lon="-1.57354">
        <ele>61.64015</ele>
        <time>2021-09-05T09:06:27.000Z</time>
      </trkpt>
      <trkpt lat="49.51986" lon="-1.57371">
        <ele>61.263304</ele>
        <time>2021-09-05T09:06:30.000Z</time>
      </trkpt>
      <trkpt lat="49.5198" lon="-1.57416">
        <ele>60.3927</ele>
        <time>2021-09-05T09:06:34.000Z</time>
      </trkpt>
      <trkpt lat="49.51978" lon="-1.57418">
        <ele>60.307956</ele>
        <time>2021-09-05T09:06:40.000Z</time>
      </trkpt>
      <trkpt lat="49.51967" lon="-1.5743">
        <ele>59.931673</ele>
        <time>2021-09-05T09:06:45.000Z</time>
      </trkpt>
      <trkpt lat="49.51959" lon="-1.57438">
        <ele>59.643255</ele>
        <time>2021-09-05T09:06:49.000Z</time>
      </trkpt>
      <trkpt lat="49.51946" lon="-1.57446">
        <ele>59.228941</ele>
        <time>2021-09-05T09:06:55.000Z</time>
      </trkpt>
      <trkpt lat="49.51928" lon="-1.57454">
        <ele>58.693425</ele>
        <time>2021-09-05T09:07:02.000Z</time>
      </trkpt>
      <trkpt lat="49.51914" lon="-1.57442">
        <ele>58.218563</ele>
        <time>2021-09-05T09:07:08.000Z</time>
      </trkpt>
      <trkpt lat="49.51902" lon="-1.57432">
        <ele>57.815061</ele>
        <time>2021-09-05T09:07:12.000Z</time>
      </trkpt>
      <trkpt lat="49.51898" lon="-1.57428">
        <ele>57.680248</ele>
        <time>2021-09-05T09:07:13.000Z</time>
      </trkpt>
      <trkpt lat="49.5188" lon="-1.57412">
        <ele>57.067084</ele>
        <time>2021-09-05T09:07:17.000Z</time>
      </trkpt>
      <trkpt lat="49.51875" lon="-1.57408">
        <ele>56.909725</ele>
        <time>2021-09-05T09:07:18.000Z</time>
      </trkpt>
      <trkpt lat="49.51863" lon="-1.57394">
        <ele>56.358848</ele>
        <time>2021-09-05T09:07:21.000Z</time>
      </trkpt>
      <trkpt lat="49.51856" lon="-1.57384">
        <ele>55.964833</ele>
        <time>2021-09-05T09:07:23.000Z</time>
      </trkpt>
      <trkpt lat="49.51842" lon="-1.57366">
        <ele>55.176801</ele>
        <time>2021-09-05T09:07:28.000Z</time>
      </trkpt>
      <trkpt lat="49.5183" lon="-1.57362">
        <ele>54.650061</ele>
        <time>2021-09-05T09:07:31.000Z</time>
      </trkpt>
      <trkpt lat="49.51824" lon="-1.57361">
        <ele>54.385841</ele>
        <time>2021-09-05T09:07:32.000Z</time>
      </trkpt>
      <trkpt lat="49.51811" lon="-1.57359">
        <ele>53.853169</ele>
        <time>2021-09-05T09:07:34.000Z</time>
      </trkpt>
      <trkpt lat="49.51798" lon="-1.57358">
        <ele>53.286411</ele>
        <time>2021-09-05T09:07:36.000Z</time>
      </trkpt>
      <trkpt lat="49.5177" lon="-1.57372">
        <ele>52.043101</ele>
        <time>2021-09-05T09:07:40.000Z</time>
      </trkpt>
      <trkpt lat="49.51765" lon="-1.57375">
        <ele>51.814082</ele>
        <time>2021-09-05T09:07:41.000Z</time>
      </trkpt>
      <trkpt lat="49.51752" lon="-1.57379">
        <ele>51.245268</ele>
        <time>2021-09-05T09:07:44.000Z</time>
      </trkpt>
      <trkpt lat="49.51737" lon="-1.57379">
        <ele>50.616364</ele>
        <time>2021-09-05T09:07:48.000Z</time>
      </trkpt>
      <trkpt lat="49.51722" lon="-1.5738">
        <ele>49.970483</ele>
        <time>2021-09-05T09:07:53.000Z</time>
      </trkpt>
      <trkpt lat="49.51708" lon="-1.57387">
        <ele>49.364675</ele>
        <time>2021-09-05T09:07:58.000Z</time>
      </trkpt>
      <trkpt lat="49.51703" lon="-1.57393">
        <ele>49.098693</ele>
        <time>2021-09-05T09:08:02.000Z</time>
      </trkpt>
      <trkpt lat="49.517" lon="-1.57396">
        <ele>49.097845</ele>
        <time>2021-09-05T09:08:04.000Z</time>
      </trkpt>
      <trkpt lat="49.51695" lon="-1.57401">
        <ele>49.284315</ele>
        <time>2021-09-05T09:08:06.000Z</time>
      </trkpt>
      <trkpt lat="49.51685" lon="-1.57411">
        <ele>49.671719</ele>
        <time>2021-09-05T09:08:12.000Z</time>
      </trkpt>
      <trkpt lat="49.51674" lon="-1.57415">
        <ele>50.039243</ele>
        <time>2021-09-05T09:08:18.000Z</time>
      </trkpt>
      <trkpt lat="49.51663" lon="-1.57418">
        <ele>50.37624</ele>
        <time>2021-09-05T09:08:23.000Z</time>
      </trkpt>
      <trkpt lat="49.51649" lon="-1.5742">
        <ele>50.829338</ele>
        <time>2021-09-05T09:08:29.000Z</time>
      </trkpt>
      <trkpt lat="49.51637" lon="-1.5742">
        <ele>51.207476</ele>
        <time>2021-09-05T09:08:35.000Z</time>
      </trkpt>
      <trkpt lat="49.51624" lon="-1.57418">
        <ele>51.630074</ele>
        <time>2021-09-05T09:08:40.000Z</time>
      </trkpt>
      <trkpt lat="49.5161" lon="-1.57415">
        <ele>52.065541</ele>
        <time>2021-09-05T09:08:45.000Z</time>
      </trkpt>
      <trkpt lat="49.51592" lon="-1.57412">
        <ele>52.667273</ele>
        <time>2021-09-05T09:08:53.000Z</time>
      </trkpt>
      <trkpt lat="49.51577" lon="-1.57409">
        <ele>53.137686</ele>
        <time>2021-09-05T09:08:59.000Z</time>
      </trkpt>
      <trkpt lat="49.51563" lon="-1.57402">
        <ele>53.615741</ele>
        <time>2021-09-05T09:09:04.000Z</time>
      </trkpt>
      <trkpt lat="49.51552" lon="-1.57395">
        <ele>53.967137</ele>
        <time>2021-09-05T09:09:08.000Z</time>
      </trkpt>
      <trkpt lat="49.51532" lon="-1.57381">
        <ele>54.685513</ele>
        <time>2021-09-05T09:09:15.000Z</time>
      </trkpt>
      <trkpt lat="49.51517" lon="-1.5737">
        <ele>55.213396</ele>
        <time>2021-09-05T09:09:20.000Z</time>
      </trkpt>
      <trkpt lat="49.51496" lon="-1.57356">
        <ele>55.971655</ele>
        <time>2021-09-05T09:09:26.000Z</time>
      </trkpt>
      <trkpt lat="49.51478" lon="-1.57345">
        <ele>56.600267</ele>
        <time>2021-09-05T09:09:32.000Z</time>
      </trkpt>
      <trkpt lat="49.51456" lon="-1.57331">
        <ele>57.371099</ele>
        <time>2021-09-05T09:09:39.000Z</time>
      </trkpt>
      <trkpt lat="49.51433" lon="-1.57316">
        <ele>58.186737</ele>
        <time>2021-09-05T09:09:45.000Z</time>
      </trkpt>
      <trkpt lat="49.51404" lon="-1.57296">
        <ele>59.22185</ele>
        <time>2021-09-05T09:09:51.000Z</time>
      </trkpt>
      <trkpt lat="49.51381" lon="-1.57279">
        <ele>60.047862</ele>
        <time>2021-09-05T09:09:56.000Z</time>
      </trkpt>
      <trkpt lat="49.51357" lon="-1.57264">
        <ele>60.653503</ele>
        <time>2021-09-05T09:10:01.000Z</time>
      </trkpt>
      <trkpt lat="49.51336" lon="-1.57253">
        <ele>60.761641</ele>
        <time>2021-09-05T09:10:06.000Z</time>
      </trkpt>
      <trkpt lat="49.5132" lon="-1.57241">
        <ele>60.851446</ele>
        <time>2021-09-05T09:10:10.000Z</time>
      </trkpt>
      <trkpt lat="49.51312" lon="-1.57234">
        <ele>60.897298</ele>
        <time>2021-09-05T09:10:12.000Z</time>
      </trkpt>
      <trkpt lat="49.51302" lon="-1.57224">
        <ele>60.955956</ele>
        <time>2021-09-05T09:10:15.000Z</time>
      </trkpt>
      <trkpt lat="49.51285" lon="-1.57209">
        <ele>61.054825</ele>
        <time>2021-09-05T09:10:20.000Z</time>
      </trkpt>
      <trkpt lat="49.51281" lon="-1.57205">
        <ele>61.079841</ele>
        <time>2021-09-05T09:10:21.000Z</time>
      </trkpt>
      <trkpt lat="49.51276" lon="-1.57201">
        <ele>61.106919</ele>
        <time>2021-09-05T09:10:22.000Z</time>
      </trkpt>
      <trkpt lat="49.51262" lon="-1.57188">
        <ele>61.191355</ele>
        <time>2021-09-05T09:10:25.000Z</time>
      </trkpt>
      <trkpt lat="49.51227" lon="-1.57157">
        <ele>61.392511</ele>
        <time>2021-09-05T09:10:31.000Z</time>
      </trkpt>
      <trkpt lat="49.51193" lon="-1.57121">
        <ele>61.198372</ele>
        <time>2021-09-05T09:10:37.000Z</time>
      </trkpt>
      <trkpt lat="49.51168" lon="-1.5709">
        <ele>60.626809</ele>
        <time>2021-09-05T09:10:42.000Z</time>
      </trkpt>
      <trkpt lat="49.51131" lon="-1.57044">
        <ele>59.800949</ele>
        <time>2021-09-05T09:10:50.000Z</time>
      </trkpt>
      <trkpt lat="49.51106" lon="-1.57012">
        <ele>59.22911</ele>
        <time>2021-09-05T09:10:56.000Z</time>
      </trkpt>
      <trkpt lat="49.51095" lon="-1.56998">
        <ele>58.966497</ele>
        <time>2021-09-05T09:10:59.000Z</time>
      </trkpt>
      <trkpt lat="49.5108" lon="-1.56977">
        <ele>58.623206</ele>
        <time>2021-09-05T09:11:03.000Z</time>
      </trkpt>
      <trkpt lat="49.51066" lon="-1.56954">
        <ele>58.161745</ele>
        <time>2021-09-05T09:11:07.000Z</time>
      </trkpt>
      <trkpt lat="49.51062" lon="-1.56947">
        <ele>57.91037</ele>
        <time>2021-09-05T09:11:08.000Z</time>
      </trkpt>
      <trkpt lat="49.51057" lon="-1.56941">
        <ele>57.675949</ele>
        <time>2021-09-05T09:11:09.000Z</time>
      </trkpt>
      <trkpt lat="49.51054" lon="-1.56921">
        <ele>57.161951</ele>
        <time>2021-09-05T09:11:11.000Z</time>
      </trkpt>
      <trkpt lat="49.51053" lon="-1.56867">
        <ele>55.788196</ele>
        <time>2021-09-05T09:11:16.000Z</time>
      </trkpt>
      <trkpt lat="49.51054" lon="-1.56827">
        <ele>54.773855</ele>
        <time>2021-09-05T09:11:20.000Z</time>
      </trkpt>
      <trkpt lat="49.51052" lon="-1.5681">
        <ele>54.333083</ele>
        <time>2021-09-05T09:11:22.000Z</time>
      </trkpt>
      <trkpt lat="49.51043" lon="-1.5681">
        <ele>53.977922</ele>
        <time>2021-09-05T09:11:24.000Z</time>
      </trkpt>
      <trkpt lat="49.51029" lon="-1.56842">
        <ele>52.996199</ele>
        <time>2021-09-05T09:11:29.000Z</time>
      </trkpt>
      <trkpt lat="49.51008" lon="-1.5688">
        <ele>51.746646</ele>
        <time>2021-09-05T09:11:34.000Z</time>
      </trkpt>
      <trkpt lat="49.50978" lon="-1.56932">
        <ele>50.286474</ele>
        <time>2021-09-05T09:11:40.000Z</time>
      </trkpt>
      <trkpt lat="49.50943" lon="-1.56983">
        <ele>48.804073</ele>
        <time>2021-09-05T09:11:46.000Z</time>
      </trkpt>
      <trkpt lat="49.50899" lon="-1.57047">
        <ele>46.953978</ele>
        <time>2021-09-05T09:11:54.000Z</time>
      </trkpt>
      <trkpt lat="49.50869" lon="-1.57099">
        <ele>45.753278</ele>
        <time>2021-09-05T09:12:00.000Z</time>
      </trkpt>
      <trkpt lat="49.50853" lon="-1.57142">
        <ele>45.437656</ele>
        <time>2021-09-05T09:12:05.000Z</time>
      </trkpt>
      <trkpt lat="49.50844" lon="-1.57175">
        <ele>45.215018</ele>
        <time>2021-09-05T09:12:10.000Z</time>
      </trkpt>
      <trkpt lat="49.50836" lon="-1.57226">
        <ele>44.888348</ele>
        <time>2021-09-05T09:12:19.000Z</time>
      </trkpt>
      <trkpt lat="49.50833" lon="-1.57257">
        <ele>44.69138</ele>
        <time>2021-09-05T09:12:26.000Z</time>
      </trkpt>
      <trkpt lat="49.5083" lon="-1.57289">
        <ele>44.488529</ele>
        <time>2021-09-05T09:12:33.000Z</time>
      </trkpt>
      <trkpt lat="49.50827" lon="-1.57325">
        <ele>44.255749</ele>
        <time>2021-09-05T09:12:41.000Z</time>
      </trkpt>
      <trkpt lat="49.50823" lon="-1.57367">
        <ele>44.261821</ele>
        <time>2021-09-05T09:12:50.000Z</time>
      </trkpt>
      <trkpt lat="49.50821" lon="-1.57398">
        <ele>44.573805</ele>
        <time>2021-09-05T09:12:56.000Z</time>
      </trkpt>
      <trkpt lat="49.50819" lon="-1.57428">
        <ele>44.888986</ele>
        <time>2021-09-05T09:13:02.000Z</time>
      </trkpt>
      <trkpt lat="49.50817" lon="-1.57464">
        <ele>45.249033</ele>
        <time>2021-09-05T09:13:09.000Z</time>
      </trkpt>
      <trkpt lat="49.50813" lon="-1.57517">
        <ele>45.800479</ele>
        <time>2021-09-05T09:13:19.000Z</time>
      </trkpt>
      <trkpt lat="49.5081" lon="-1.57561">
        <ele>46.250578</ele>
        <time>2021-09-05T09:13:27.000Z</time>
      </trkpt>
      <trkpt lat="49.50807" lon="-1.57616">
        <ele>46.806075</ele>
        <time>2021-09-05T09:13:36.000Z</time>
      </trkpt>
      <trkpt lat="49.50803" lon="-1.57673">
        <ele>47.452006</ele>
        <time>2021-09-05T09:13:44.000Z</time>
      </trkpt>
      <trkpt lat="49.50802" lon="-1.5768">
        <ele>47.533411</ele>
        <time>2021-09-05T09:13:45.000Z</time>
      </trkpt>
      <trkpt lat="49.508" lon="-1.57718">
        <ele>47.968777</ele>
        <time>2021-09-05T09:13:50.000Z</time>
      </trkpt>
      <trkpt lat="49.50796" lon="-1.57779">
        <ele>48.66423</ele>
        <time>2021-09-05T09:13:58.000Z</time>
      </trkpt>
      <trkpt lat="49.50793" lon="-1.57829">
        <ele>49.233351</ele>
        <time>2021-09-05T09:14:05.000Z</time>
      </trkpt>
      <trkpt lat="49.5079" lon="-1.57882">
        <ele>49.846739</ele>
        <time>2021-09-05T09:14:13.000Z</time>
      </trkpt>
      <trkpt lat="49.50787" lon="-1.57929">
        <ele>50.555435</ele>
        <time>2021-09-05T09:14:21.000Z</time>
      </trkpt>
      <trkpt lat="49.50785" lon="-1.57968">
        <ele>51.237242</ele>
        <time>2021-09-05T09:14:28.000Z</time>
      </trkpt>
      <trkpt lat="49.50782" lon="-1.58015">
        <ele>52.062214</ele>
        <time>2021-09-05T09:14:37.000Z</time>
      </trkpt>
      <trkpt lat="49.5078" lon="-1.58051">
        <ele>52.705468</ele>
        <time>2021-09-05T09:14:44.000Z</time>
      </trkpt>
      <trkpt lat="49.50777" lon="-1.58101">
        <ele>53.585253</ele>
        <time>2021-09-05T09:14:53.000Z</time>
      </trkpt>
      <trkpt lat="49.50774" lon="-1.58152">
        <ele>54.495075</ele>
        <time>2021-09-05T09:15:02.000Z</time>
      </trkpt>
      <trkpt lat="49.50772" lon="-1.5819">
        <ele>55.134624</ele>
        <time>2021-09-05T09:15:08.000Z</time>
      </trkpt>
      <trkpt lat="49.50771" lon="-1.58205">
        <ele>55.361104</ele>
        <time>2021-09-05T09:15:10.000Z</time>
      </trkpt>
      <trkpt lat="49.50769" lon="-1.58228">
        <ele>55.730372</ele>
        <time>2021-09-05T09:15:13.000Z</time>
      </trkpt>
      <trkpt lat="49.50767" lon="-1.58259">
        <ele>56.208385</ele>
        <time>2021-09-05T09:15:17.000Z</time>
      </trkpt>
      <trkpt lat="49.50766" lon="-1.58275">
        <ele>56.447167</ele>
        <time>2021-09-05T09:15:19.000Z</time>
      </trkpt>
      <trkpt lat="49.50762" lon="-1.58344">
        <ele>57.516316</ele>
        <time>2021-09-05T09:15:28.000Z</time>
      </trkpt>
      <trkpt lat="49.50759" lon="-1.58391">
        <ele>58.253316</ele>
        <time>2021-09-05T09:15:35.000Z</time>
      </trkpt>
      <trkpt lat="49.50755" lon="-1.58453">
        <ele>59.220101</ele>
        <time>2021-09-05T09:15:45.000Z</time>
      </trkpt>
      <trkpt lat="49.50752" lon="-1.58492">
        <ele>60.046529</ele>
        <time>2021-09-05T09:15:52.000Z</time>
      </trkpt>
      <trkpt lat="49.5075" lon="-1.58535">
        <ele>60.963303</ele>
        <time>2021-09-05T09:16:00.000Z</time>
      </trkpt>
      <trkpt lat="49.50747" lon="-1.58573">
        <ele>61.781743</ele>
        <time>2021-09-05T09:16:07.000Z</time>
      </trkpt>
      <trkpt lat="49.50746" lon="-1.586">
        <ele>62.360853</ele>
        <time>2021-09-05T09:16:12.000Z</time>
      </trkpt>
      <trkpt lat="49.50743" lon="-1.58636">
        <ele>63.121818</ele>
        <time>2021-09-05T09:16:18.000Z</time>
      </trkpt>
      <trkpt lat="49.50742" lon="-1.58648">
        <ele>63.388986</ele>
        <time>2021-09-05T09:16:20.000Z</time>
      </trkpt>
      <trkpt lat="49.5074" lon="-1.58669">
        <ele>63.830409</ele>
        <time>2021-09-05T09:16:23.000Z</time>
      </trkpt>
      <trkpt lat="49.50738" lon="-1.58676">
        <ele>63.980293</ele>
        <time>2021-09-05T09:16:24.000Z</time>
      </trkpt>
      <trkpt lat="49.50736" lon="-1.58683">
        <ele>64.148667</ele>
        <time>2021-09-05T09:16:25.000Z</time>
      </trkpt>
      <trkpt lat="49.5073" lon="-1.58694">
        <ele>64.469766</ele>
        <time>2021-09-05T09:16:27.000Z</time>
      </trkpt>
      <trkpt lat="49.50729" lon="-1.58703">
        <ele>64.668014</ele>
        <time>2021-09-05T09:16:28.000Z</time>
      </trkpt>
      <trkpt lat="49.50731" lon="-1.58711">
        <ele>64.834938</ele>
        <time>2021-09-05T09:16:29.000Z</time>
      </trkpt>
      <trkpt lat="49.50734" lon="-1.58718">
        <ele>65.013408</ele>
        <time>2021-09-05T09:16:30.000Z</time>
      </trkpt>
      <trkpt lat="49.50748" lon="-1.58749">
        <ele>65.607817</ele>
        <time>2021-09-05T09:16:35.000Z</time>
      </trkpt>
      <trkpt lat="49.5075" lon="-1.58756">
        <ele>65.710254</ele>
        <time>2021-09-05T09:16:36.000Z</time>
      </trkpt>
      <trkpt lat="49.50749" lon="-1.58764">
        <ele>65.829005</ele>
        <time>2021-09-05T09:16:37.000Z</time>
      </trkpt>
      <trkpt lat="49.50745" lon="-1.58775">
        <ele>66.022996</ele>
        <time>2021-09-05T09:16:39.000Z</time>
      </trkpt>
      <trkpt lat="49.50741" lon="-1.58788">
        <ele>66.227002</ele>
        <time>2021-09-05T09:16:41.000Z</time>
      </trkpt>
      <trkpt lat="49.50738" lon="-1.588">
        <ele>66.427309</ele>
        <time>2021-09-05T09:16:43.000Z</time>
      </trkpt>
      <trkpt lat="49.50736" lon="-1.58814">
        <ele>66.628303</ele>
        <time>2021-09-05T09:16:45.000Z</time>
      </trkpt>
      <trkpt lat="49.50734" lon="-1.58848">
        <ele>67.132993</ele>
        <time>2021-09-05T09:16:51.000Z</time>
      </trkpt>
      <trkpt lat="49.50732" lon="-1.58869">
        <ele>67.441167</ele>
        <time>2021-09-05T09:16:55.000Z</time>
      </trkpt>
      <trkpt lat="49.5073" lon="-1.5892">
        <ele>68.179367</ele>
        <time>2021-09-05T09:17:03.000Z</time>
      </trkpt>
      <trkpt lat="49.50726" lon="-1.58951">
        <ele>68.649443</ele>
        <time>2021-09-05T09:17:08.000Z</time>
      </trkpt>
      <trkpt lat="49.50723" lon="-1.58963">
        <ele>68.841294</ele>
        <time>2021-09-05T09:17:10.000Z</time>
      </trkpt>
      <trkpt lat="49.50718" lon="-1.58975">
        <ele>69.038715</ele>
        <time>2021-09-05T09:17:12.000Z</time>
      </trkpt>
      <trkpt lat="49.5071" lon="-1.58982">
        <ele>69.211761</ele>
        <time>2021-09-05T09:17:14.000Z</time>
      </trkpt>
      <trkpt lat="49.50683" lon="-1.59009">
        <ele>69.625395</ele>
        <time>2021-09-05T09:17:20.000Z</time>
      </trkpt>
      <trkpt lat="49.50668" lon="-1.59023">
        <ele>69.847699</ele>
        <time>2021-09-05T09:17:23.000Z</time>
      </trkpt>
      <trkpt lat="49.50634" lon="-1.59063">
        <ele>70.388059</ele>
        <time>2021-09-05T09:17:30.000Z</time>
      </trkpt>
      <trkpt lat="49.50604" lon="-1.59107">
        <ele>70.917746</ele>
        <time>2021-09-05T09:17:37.000Z</time>
      </trkpt>
      <trkpt lat="49.50573" lon="-1.59151">
        <ele>71.45323</ele>
        <time>2021-09-05T09:17:44.000Z</time>
      </trkpt>
      <trkpt lat="49.50537" lon="-1.59202">
        <ele>71.63221</ele>
        <time>2021-09-05T09:17:52.000Z</time>
      </trkpt>
      <trkpt lat="49.50507" lon="-1.59247">
        <ele>71.786453</ele>
        <time>2021-09-05T09:17:59.000Z</time>
      </trkpt>
      <trkpt lat="49.5048" lon="-1.59291">
        <ele>71.932542</ele>
        <time>2021-09-05T09:18:06.000Z</time>
      </trkpt>
      <trkpt lat="49.50477" lon="-1.59304">
        <ele>71.965126</ele>
        <time>2021-09-05T09:18:08.000Z</time>
      </trkpt>
      <trkpt lat="49.5047" lon="-1.59309">
        <ele>71.994599</ele>
        <time>2021-09-05T09:18:09.000Z</time>
      </trkpt>
      <trkpt lat="49.50465" lon="-1.593">
        <ele>72.021077</ele>
        <time>2021-09-05T09:18:11.000Z</time>
      </trkpt>
      <trkpt lat="49.50462" lon="-1.59295">
        <ele>72.038363</ele>
        <time>2021-09-05T09:18:12.000Z</time>
      </trkpt>
      <trkpt lat="49.50441" lon="-1.59252">
        <ele>72.029762</ele>
        <time>2021-09-05T09:18:19.000Z</time>
      </trkpt>
      <trkpt lat="49.50422" lon="-1.59209">
        <ele>71.826156</ele>
        <time>2021-09-05T09:18:25.000Z</time>
      </trkpt>
      <trkpt lat="49.50418" lon="-1.59202">
        <ele>71.792322</ele>
        <time>2021-09-05T09:18:26.000Z</time>
      </trkpt>
      <trkpt lat="49.50413" lon="-1.59191">
        <ele>71.736937</ele>
        <time>2021-09-05T09:18:28.000Z</time>
      </trkpt>
      <trkpt lat="49.5041" lon="-1.59189">
        <ele>71.718152</ele>
        <time>2021-09-05T09:18:29.000Z</time>
      </trkpt>
      <trkpt lat="49.50408" lon="-1.59192">
        <ele>71.699286</ele>
        <time>2021-09-05T09:18:30.000Z</time>
      </trkpt>
      <trkpt lat="49.50402" lon="-1.592">
        <ele>71.649216</ele>
        <time>2021-09-05T09:18:32.000Z</time>
      </trkpt>
      <trkpt lat="49.50398" lon="-1.59206">
        <ele>71.619444</ele>
        <time>2021-09-05T09:18:33.000Z</time>
      </trkpt>
      <trkpt lat="49.50382" lon="-1.59229">
        <ele>71.480508</ele>
        <time>2021-09-05T09:18:37.000Z</time>
      </trkpt>
      <trkpt lat="49.50351" lon="-1.59272">
        <ele>71.229277</ele>
        <time>2021-09-05T09:18:44.000Z</time>
      </trkpt>
      <trkpt lat="49.50313" lon="-1.59326">
        <ele>70.873237</ele>
        <time>2021-09-05T09:18:52.000Z</time>
      </trkpt>
      <trkpt lat="49.50277" lon="-1.59378">
        <ele>70.461282</ele>
        <time>2021-09-05T09:18:59.000Z</time>
      </trkpt>
      <trkpt lat="49.50272" lon="-1.59385">
        <ele>70.4025</ele>
        <time>2021-09-05T09:19:00.000Z</time>
      </trkpt>
      <trkpt lat="49.50246" lon="-1.59422">
        <ele>70.109822</ele>
        <time>2021-09-05T09:19:05.000Z</time>
      </trkpt>
      <trkpt lat="49.50213" lon="-1.59467">
        <ele>69.743391</ele>
        <time>2021-09-05T09:19:11.000Z</time>
      </trkpt>
      <trkpt lat="49.50169" lon="-1.59529">
        <ele>68.993799</ele>
        <time>2021-09-05T09:19:19.000Z</time>
      </trkpt>
      <trkpt lat="49.50169" lon="-1.59529">
        <ele>68.993799</ele>
        <time>2021-09-05T09:19:20.000Z</time>
      </trkpt>
      <trkpt lat="49.50136" lon="-1.59575">
        <ele>68.278016</ele>
        <time>2021-09-05T09:19:25.000Z</time>
      </trkpt>
      <trkpt lat="49.50115" lon="-1.59605">
        <ele>67.801926</ele>
        <time>2021-09-05T09:19:29.000Z</time>
      </trkpt>
      <trkpt lat="49.50109" lon="-1.59613">
        <ele>67.686577</ele>
        <time>2021-09-05T09:19:31.000Z</time>
      </trkpt>
      <trkpt lat="49.50077" lon="-1.59659">
        <ele>66.981222</ele>
        <time>2021-09-05T09:19:36.000Z</time>
      </trkpt>
      <trkpt lat="49.50039" lon="-1.59716">
        <ele>66.22455</ele>
        <time>2021-09-05T09:19:43.000Z</time>
      </trkpt>
      <trkpt lat="49.50012" lon="-1.59755">
        <ele>65.753777</ele>
        <time>2021-09-05T09:19:48.000Z</time>
      </trkpt>
      <trkpt lat="49.50001" lon="-1.59771">
        <ele>65.55741</ele>
        <time>2021-09-05T09:19:50.000Z</time>
      </trkpt>
      <trkpt lat="49.4999" lon="-1.59787">
        <ele>65.366079</ele>
        <time>2021-09-05T09:19:53.000Z</time>
      </trkpt>
      <trkpt lat="49.49946" lon="-1.5985">
        <ele>64.606816</ele>
        <time>2021-09-05T09:20:00.000Z</time>
      </trkpt>
      <trkpt lat="49.49902" lon="-1.5991">
        <ele>63.648826</ele>
        <time>2021-09-05T09:20:08.000Z</time>
      </trkpt>
      <trkpt lat="49.49892" lon="-1.59924">
        <ele>63.386953</ele>
        <time>2021-09-05T09:20:10.000Z</time>
      </trkpt>
      <trkpt lat="49.49852" lon="-1.59979">
        <ele>62.408274</ele>
        <time>2021-09-05T09:20:17.000Z</time>
      </trkpt>
      <trkpt lat="49.49825" lon="-1.60019">
        <ele>61.714102</ele>
        <time>2021-09-05T09:20:23.000Z</time>
      </trkpt>
      <trkpt lat="49.49817" lon="-1.60034">
        <ele>61.479942</ele>
        <time>2021-09-05T09:20:25.000Z</time>
      </trkpt>
      <trkpt lat="49.49815" lon="-1.60036">
        <ele>61.441247</ele>
        <time>2021-09-05T09:20:26.000Z</time>
      </trkpt>
      <trkpt lat="49.49813" lon="-1.60039">
        <ele>61.39313</ele>
        <time>2021-09-05T09:20:27.000Z</time>
      </trkpt>
      <trkpt lat="49.49807" lon="-1.6005">
        <ele>61.210558</ele>
        <time>2021-09-05T09:20:30.000Z</time>
      </trkpt>
      <trkpt lat="49.49803" lon="-1.60061">
        <ele>61.068136</ele>
        <time>2021-09-05T09:20:32.000Z</time>
      </trkpt>
      <trkpt lat="49.49799" lon="-1.60074">
        <ele>60.990883</ele>
        <time>2021-09-05T09:20:34.000Z</time>
      </trkpt>
      <trkpt lat="49.49792" lon="-1.60102">
        <ele>60.927262</ele>
        <time>2021-09-05T09:20:38.000Z</time>
      </trkpt>
      <trkpt lat="49.49791" lon="-1.60109">
        <ele>60.912391</ele>
        <time>2021-09-05T09:20:39.000Z</time>
      </trkpt>
      <trkpt lat="49.49788" lon="-1.60124">
        <ele>60.88042</ele>
        <time>2021-09-05T09:20:41.000Z</time>
      </trkpt>
      <trkpt lat="49.49784" lon="-1.60136">
        <ele>60.849609</ele>
        <time>2021-09-05T09:20:43.000Z</time>
      </trkpt>
      <trkpt lat="49.49779" lon="-1.6015">
        <ele>60.816328</ele>
        <time>2021-09-05T09:20:45.000Z</time>
      </trkpt>
      <trkpt lat="49.49766" lon="-1.60186">
        <ele>60.730653</ele>
        <time>2021-09-05T09:20:51.000Z</time>
      </trkpt>
      <trkpt lat="49.49742" lon="-1.6025">
        <ele>60.575075</ele>
        <time>2021-09-05T09:20:58.000Z</time>
      </trkpt>
      <trkpt lat="49.49721" lon="-1.60309">
        <ele>60.431695</ele>
        <time>2021-09-05T09:21:05.000Z</time>
      </trkpt>
      <trkpt lat="49.49718" lon="-1.60318">
        <ele>60.444157</ele>
        <time>2021-09-05T09:21:06.000Z</time>
      </trkpt>
      <trkpt lat="49.49712" lon="-1.60334">
        <ele>60.481945</ele>
        <time>2021-09-05T09:21:08.000Z</time>
      </trkpt>
      <trkpt lat="49.49709" lon="-1.60343">
        <ele>60.501833</ele>
        <time>2021-09-05T09:21:09.000Z</time>
      </trkpt>
      <trkpt lat="49.49688" lon="-1.60404">
        <ele>60.638985</ele>
        <time>2021-09-05T09:21:16.000Z</time>
      </trkpt>
      <trkpt lat="49.49679" lon="-1.60431">
        <ele>60.698938</ele>
        <time>2021-09-05T09:21:19.000Z</time>
      </trkpt>
      <trkpt lat="49.49673" lon="-1.60449">
        <ele>60.739577</ele>
        <time>2021-09-05T09:21:21.000Z</time>
      </trkpt>
      <trkpt lat="49.49662" lon="-1.60485">
        <ele>60.818487</ele>
        <time>2021-09-05T09:21:25.000Z</time>
      </trkpt>
      <trkpt lat="49.49641" lon="-1.60545">
        <ele>60.954939</ele>
        <time>2021-09-05T09:21:32.000Z</time>
      </trkpt>
      <trkpt lat="49.49632" lon="-1.60561">
        <ele>60.987526</ele>
        <time>2021-09-05T09:21:34.000Z</time>
      </trkpt>
      <trkpt lat="49.49624" lon="-1.60576">
        <ele>61.008435</ele>
        <time>2021-09-05T09:21:36.000Z</time>
      </trkpt>
      <trkpt lat="49.4962" lon="-1.60584">
        <ele>61.019208</ele>
        <time>2021-09-05T09:21:37.000Z</time>
      </trkpt>
      <trkpt lat="49.49596" lon="-1.6063">
        <ele>61.081405</ele>
        <time>2021-09-05T09:21:43.000Z</time>
      </trkpt>
      <trkpt lat="49.49575" lon="-1.60667">
        <ele>61.133652</ele>
        <time>2021-09-05T09:21:48.000Z</time>
      </trkpt>
      <trkpt lat="49.49565" lon="-1.60681">
        <ele>61.154989</ele>
        <time>2021-09-05T09:21:50.000Z</time>
      </trkpt>
      <trkpt lat="49.49536" lon="-1.60721">
        <ele>61.218053</ele>
        <time>2021-09-05T09:21:56.000Z</time>
      </trkpt>
      <trkpt lat="49.49521" lon="-1.60738">
        <ele>61.249055</ele>
        <time>2021-09-05T09:21:59.000Z</time>
      </trkpt>
      <trkpt lat="49.49505" lon="-1.60754">
        <ele>61.279104</ele>
        <time>2021-09-05T09:22:02.000Z</time>
      </trkpt>
      <trkpt lat="49.49473" lon="-1.60783">
        <ele>61.33502</ele>
        <time>2021-09-05T09:22:08.000Z</time>
      </trkpt>
      <trkpt lat="49.49444" lon="-1.60803">
        <ele>61.383244</ele>
        <time>2021-09-05T09:22:13.000Z</time>
      </trkpt>
      <trkpt lat="49.49408" lon="-1.60823">
        <ele>61.441717</ele>
        <time>2021-09-05T09:22:19.000Z</time>
      </trkpt>
      <trkpt lat="49.49391" lon="-1.60831">
        <ele>61.467629</ele>
        <time>2021-09-05T09:22:22.000Z</time>
      </trkpt>
      <trkpt lat="49.49382" lon="-1.60832">
        <ele>61.482193</ele>
        <time>2021-09-05T09:22:24.000Z</time>
      </trkpt>
      <trkpt lat="49.49374" lon="-1.60833">
        <ele>61.494782</ele>
        <time>2021-09-05T09:22:26.000Z</time>
      </trkpt>
      <trkpt lat="49.49365" lon="-1.60834">
        <ele>61.507425</ele>
        <time>2021-09-05T09:22:28.000Z</time>
      </trkpt>
      <trkpt lat="49.49361" lon="-1.60837">
        <ele>61.514769</ele>
        <time>2021-09-05T09:22:29.000Z</time>
      </trkpt>
      <trkpt lat="49.49331" lon="-1.60856">
        <ele>61.63483</ele>
        <time>2021-09-05T09:22:35.000Z</time>
      </trkpt>
      <trkpt lat="49.49326" lon="-1.60859">
        <ele>61.673347</ele>
        <time>2021-09-05T09:22:36.000Z</time>
      </trkpt>
      <trkpt lat="49.49304" lon="-1.60872">
        <ele>61.830117</ele>
        <time>2021-09-05T09:22:40.000Z</time>
      </trkpt>
      <trkpt lat="49.49294" lon="-1.60879">
        <ele>61.906982</ele>
        <time>2021-09-05T09:22:42.000Z</time>
      </trkpt>
      <trkpt lat="49.49284" lon="-1.60884">
        <ele>61.981213</ele>
        <time>2021-09-05T09:22:44.000Z</time>
      </trkpt>
      <trkpt lat="49.49278" lon="-1.60887">
        <ele>62.019045</ele>
        <time>2021-09-05T09:22:45.000Z</time>
      </trkpt>
      <trkpt lat="49.49273" lon="-1.60889">
        <ele>62.058317</ele>
        <time>2021-09-05T09:22:46.000Z</time>
      </trkpt>
      <trkpt lat="49.49246" lon="-1.60901">
        <ele>62.253236</ele>
        <time>2021-09-05T09:22:51.000Z</time>
      </trkpt>
      <trkpt lat="49.49203" lon="-1.60923">
        <ele>62.557873</ele>
        <time>2021-09-05T09:22:59.000Z</time>
      </trkpt>
      <trkpt lat="49.49161" lon="-1.60945">
        <ele>62.889385</ele>
        <time>2021-09-05T09:23:07.000Z</time>
      </trkpt>
      <trkpt lat="49.49119" lon="-1.60968">
        <ele>63.289474</ele>
        <time>2021-09-05T09:23:15.000Z</time>
      </trkpt>
      <trkpt lat="49.49089" lon="-1.60986">
        <ele>63.57698</ele>
        <time>2021-09-05T09:23:21.000Z</time>
      </trkpt>
      <trkpt lat="49.49059" lon="-1.61006">
        <ele>63.868551</ele>
        <time>2021-09-05T09:23:27.000Z</time>
      </trkpt>
      <trkpt lat="49.49054" lon="-1.61009">
        <ele>63.918358</ele>
        <time>2021-09-05T09:23:28.000Z</time>
      </trkpt>
      <trkpt lat="49.49025" lon="-1.61034">
        <ele>64.220029</ele>
        <time>2021-09-05T09:23:35.000Z</time>
      </trkpt>
      <trkpt lat="49.49001" lon="-1.61054">
        <ele>64.472365</ele>
        <time>2021-09-05T09:23:39.000Z</time>
      </trkpt>
      <trkpt lat="49.48991" lon="-1.61062">
        <ele>64.581963</ele>
        <time>2021-09-05T09:23:41.000Z</time>
      </trkpt>
      <trkpt lat="49.48969" lon="-1.61085">
        <ele>64.852686</ele>
        <time>2021-09-05T09:23:46.000Z</time>
      </trkpt>
      <trkpt lat="49.48964" lon="-1.6109">
        <ele>64.908874</ele>
        <time>2021-09-05T09:23:47.000Z</time>
      </trkpt>
      <trkpt lat="49.4895" lon="-1.61104">
        <ele>65.077913</ele>
        <time>2021-09-05T09:23:50.000Z</time>
      </trkpt>
      <trkpt lat="49.4894" lon="-1.61114">
        <ele>65.189933</ele>
        <time>2021-09-05T09:23:52.000Z</time>
      </trkpt>
      <trkpt lat="49.48908" lon="-1.61148">
        <ele>65.581846</ele>
        <time>2021-09-05T09:23:59.000Z</time>
      </trkpt>
      <trkpt lat="49.48882" lon="-1.6118">
        <ele>65.912685</ele>
        <time>2021-09-05T09:24:05.000Z</time>
      </trkpt>
      <trkpt lat="49.48873" lon="-1.61191">
        <ele>66.023619</ele>
        <time>2021-09-05T09:24:07.000Z</time>
      </trkpt>
      <trkpt lat="49.48835" lon="-1.61241">
        <ele>66.499564</ele>
        <time>2021-09-05T09:24:16.000Z</time>
      </trkpt>
      <trkpt lat="49.48827" lon="-1.61253">
        <ele>66.604735</ele>
        <time>2021-09-05T09:24:18.000Z</time>
      </trkpt>
      <trkpt lat="49.48819" lon="-1.61264">
        <ele>66.70336</ele>
        <time>2021-09-05T09:24:20.000Z</time>
      </trkpt>
      <trkpt lat="49.48811" lon="-1.61276">
        <ele>66.80786</ele>
        <time>2021-09-05T09:24:22.000Z</time>
      </trkpt>
      <trkpt lat="49.48782" lon="-1.61324">
        <ele>67.199688</ele>
        <time>2021-09-05T09:24:30.000Z</time>
      </trkpt>
      <trkpt lat="49.48771" lon="-1.61342">
        <ele>67.346376</ele>
        <time>2021-09-05T09:24:33.000Z</time>
      </trkpt>
      <trkpt lat="49.48764" lon="-1.61354">
        <ele>67.444381</ele>
        <time>2021-09-05T09:24:35.000Z</time>
      </trkpt>
      <trkpt lat="49.48746" lon="-1.61387">
        <ele>67.700976</ele>
        <time>2021-09-05T09:24:40.000Z</time>
      </trkpt>
      <trkpt lat="49.48734" lon="-1.61414">
        <ele>67.873642</ele>
        <time>2021-09-05T09:24:44.000Z</time>
      </trkpt>
      <trkpt lat="49.48728" lon="-1.61425">
        <ele>67.917178</ele>
        <time>2021-09-05T09:24:46.000Z</time>
      </trkpt>
      <trkpt lat="49.48716" lon="-1.6145">
        <ele>68.010339</ele>
        <time>2021-09-05T09:24:50.000Z</time>
      </trkpt>
      <trkpt lat="49.48707" lon="-1.61471">
        <ele>68.087468</ele>
        <time>2021-09-05T09:24:53.000Z</time>
      </trkpt>
      <trkpt lat="49.48703" lon="-1.61478">
        <ele>68.113687</ele>
        <time>2021-09-05T09:24:55.000Z</time>
      </trkpt>
      <trkpt lat="49.48682" lon="-1.61524">
        <ele>68.285508</ele>
        <time>2021-09-05T09:25:01.000Z</time>
      </trkpt>
      <trkpt lat="49.48673" lon="-1.61546">
        <ele>68.363812</ele>
        <time>2021-09-05T09:25:05.000Z</time>
      </trkpt>
      <trkpt lat="49.48665" lon="-1.61573">
        <ele>68.454507</ele>
        <time>2021-09-05T09:25:10.000Z</time>
      </trkpt>
      <trkpt lat="49.48662" lon="-1.61585">
        <ele>68.492992</ele>
        <time>2021-09-05T09:25:12.000Z</time>
      </trkpt>
      <trkpt lat="49.48659" lon="-1.61596">
        <ele>68.5286</ele>
        <time>2021-09-05T09:25:14.000Z</time>
      </trkpt>
      <trkpt lat="49.48649" lon="-1.61631">
        <ele>68.643774</ele>
        <time>2021-09-05T09:25:19.000Z</time>
      </trkpt>
      <trkpt lat="49.48647" lon="-1.61639">
        <ele>68.67095</ele>
        <time>2021-09-05T09:25:20.000Z</time>
      </trkpt>
      <trkpt lat="49.48638" lon="-1.61672">
        <ele>68.612032</ele>
        <time>2021-09-05T09:25:24.000Z</time>
      </trkpt>
      <trkpt lat="49.48626" lon="-1.61717">
        <ele>68.498605</ele>
        <time>2021-09-05T09:25:29.000Z</time>
      </trkpt>
      <trkpt lat="49.4861" lon="-1.61775">
        <ele>68.356275</ele>
        <time>2021-09-05T09:25:35.000Z</time>
      </trkpt>
      <trkpt lat="49.48589" lon="-1.61853">
        <ele>68.163133</ele>
        <time>2021-09-05T09:25:43.000Z</time>
      </trkpt>
      <trkpt lat="49.48581" lon="-1.61895">
        <ele>68.062891</ele>
        <time>2021-09-05T09:25:48.000Z</time>
      </trkpt>
      <trkpt lat="49.48569" lon="-1.61959">
        <ele>67.746097</ele>
        <time>2021-09-05T09:25:53.000Z</time>
      </trkpt>
      <trkpt lat="49.48554" lon="-1.62039">
        <ele>67.327895</ele>
        <time>2021-09-05T09:26:00.000Z</time>
      </trkpt>
      <trkpt lat="49.4855" lon="-1.62062">
        <ele>67.210225</ele>
        <time>2021-09-05T09:26:02.000Z</time>
      </trkpt>
      <trkpt lat="49.48537" lon="-1.62129">
        <ele>66.864399</ele>
        <time>2021-09-05T09:26:08.000Z</time>
      </trkpt>
      <trkpt lat="49.48522" lon="-1.62207">
        <ele>66.4649</ele>
        <time>2021-09-05T09:26:15.000Z</time>
      </trkpt>
      <trkpt lat="49.4852" lon="-1.62218">
        <ele>66.409194</ele>
        <time>2021-09-05T09:26:16.000Z</time>
      </trkpt>
      <trkpt lat="49.48513" lon="-1.62253">
        <ele>66.236134</ele>
        <time>2021-09-05T09:26:19.000Z</time>
      </trkpt>
      <trkpt lat="49.48511" lon="-1.62264">
        <ele>66.179509</ele>
        <time>2021-09-05T09:26:20.000Z</time>
      </trkpt>
      <trkpt lat="49.48504" lon="-1.62297">
        <ele>66.011224</ele>
        <time>2021-09-05T09:26:23.000Z</time>
      </trkpt>
      <trkpt lat="49.48492" lon="-1.62362">
        <ele>65.689509</ele>
        <time>2021-09-05T09:26:29.000Z</time>
      </trkpt>
      <trkpt lat="49.4848" lon="-1.62425">
        <ele>65.374195</ele>
        <time>2021-09-05T09:26:35.000Z</time>
      </trkpt>
      <trkpt lat="49.48466" lon="-1.62488">
        <ele>64.852222</ele>
        <time>2021-09-05T09:26:41.000Z</time>
      </trkpt>
      <trkpt lat="49.48452" lon="-1.62538">
        <ele>64.406773</ele>
        <time>2021-09-05T09:26:46.000Z</time>
      </trkpt>
      <trkpt lat="49.48443" lon="-1.62569">
        <ele>64.126804</ele>
        <time>2021-09-05T09:26:49.000Z</time>
      </trkpt>
      <trkpt lat="49.4844" lon="-1.62581">
        <ele>64.025315</ele>
        <time>2021-09-05T09:26:50.000Z</time>
      </trkpt>
      <trkpt lat="49.48414" lon="-1.62657">
        <ele>63.324245</ele>
        <time>2021-09-05T09:26:57.000Z</time>
      </trkpt>
      <trkpt lat="49.48392" lon="-1.62713">
        <ele>62.725226</ele>
        <time>2021-09-05T09:27:03.000Z</time>
      </trkpt>
      <trkpt lat="49.48373" lon="-1.62758">
        <ele>62.179638</ele>
        <time>2021-09-05T09:27:08.000Z</time>
      </trkpt>
      <trkpt lat="49.48358" lon="-1.62793">
        <ele>61.753796</ele>
        <time>2021-09-05T09:27:12.000Z</time>
      </trkpt>
      <trkpt lat="49.48334" lon="-1.6284">
        <ele>61.164244</ele>
        <time>2021-09-05T09:27:18.000Z</time>
      </trkpt>
      <trkpt lat="49.48303" lon="-1.62902">
        <ele>60.372636</ele>
        <time>2021-09-05T09:27:25.000Z</time>
      </trkpt>
      <trkpt lat="49.48274" lon="-1.62948">
        <ele>59.518341</ele>
        <time>2021-09-05T09:27:31.000Z</time>
      </trkpt>
      <trkpt lat="49.48255" lon="-1.62978">
        <ele>58.953194</ele>
        <time>2021-09-05T09:27:36.000Z</time>
      </trkpt>
      <trkpt lat="49.48243" lon="-1.62996">
        <ele>58.605346</ele>
        <time>2021-09-05T09:27:41.000Z</time>
      </trkpt>
      <trkpt lat="49.48234" lon="-1.63007">
        <ele>58.362972</ele>
        <time>2021-09-05T09:27:46.000Z</time>
      </trkpt>
      <trkpt lat="49.48227" lon="-1.63017">
        <ele>58.158169</ele>
        <time>2021-09-05T09:27:51.000Z</time>
      </trkpt>
      <trkpt lat="49.48218" lon="-1.63027">
        <ele>57.929977</ele>
        <time>2021-09-05T09:27:56.000Z</time>
      </trkpt>
      <trkpt lat="49.48207" lon="-1.63042">
        <ele>57.629423</ele>
        <time>2021-09-05T09:28:00.000Z</time>
      </trkpt>
      <trkpt lat="49.48176" lon="-1.63082">
        <ele>56.781709</ele>
        <time>2021-09-05T09:28:05.000Z</time>
      </trkpt>
      <trkpt lat="49.48135" lon="-1.63135">
        <ele>55.792493</ele>
        <time>2021-09-05T09:28:12.000Z</time>
      </trkpt>
      <trkpt lat="49.48094" lon="-1.63187">
        <ele>54.883809</ele>
        <time>2021-09-05T09:28:19.000Z</time>
      </trkpt>
      <trkpt lat="49.48058" lon="-1.63234">
        <ele>54.063025</ele>
        <time>2021-09-05T09:28:25.000Z</time>
      </trkpt>
      <trkpt lat="49.48025" lon="-1.63278">
        <ele>53.292552</ele>
        <time>2021-09-05T09:28:31.000Z</time>
      </trkpt>
      <trkpt lat="49.48009" lon="-1.63298">
        <ele>52.893587</ele>
        <time>2021-09-05T09:28:34.000Z</time>
      </trkpt>
      <trkpt lat="49.48003" lon="-1.63305">
        <ele>52.757253</ele>
        <time>2021-09-05T09:28:35.000Z</time>
      </trkpt>
      <trkpt lat="49.47998" lon="-1.63312">
        <ele>52.624798</ele>
        <time>2021-09-05T09:28:36.000Z</time>
      </trkpt>
      <trkpt lat="49.47988" lon="-1.63325">
        <ele>52.366707</ele>
        <time>2021-09-05T09:28:38.000Z</time>
      </trkpt>
      <trkpt lat="49.47982" lon="-1.63333">
        <ele>52.223561</ele>
        <time>2021-09-05T09:28:39.000Z</time>
      </trkpt>
      <trkpt lat="49.47958" lon="-1.63364">
        <ele>51.627451</ele>
        <time>2021-09-05T09:28:44.000Z</time>
      </trkpt>
      <trkpt lat="49.47926" lon="-1.63405">
        <ele>50.830319</ele>
        <time>2021-09-05T09:28:48.000Z</time>
      </trkpt>
      <trkpt lat="49.47914" lon="-1.6342">
        <ele>50.526515</ele>
        <time>2021-09-05T09:28:50.000Z</time>
      </trkpt>
      <trkpt lat="49.47901" lon="-1.63437">
        <ele>50.199186</ele>
        <time>2021-09-05T09:28:52.000Z</time>
      </trkpt>
      <trkpt lat="49.47857" lon="-1.63495">
        <ele>49.316142</ele>
        <time>2021-09-05T09:28:59.000Z</time>
      </trkpt>
      <trkpt lat="49.47831" lon="-1.63528">
        <ele>48.849707</ele>
        <time>2021-09-05T09:29:03.000Z</time>
      </trkpt>
      <trkpt lat="49.47801" lon="-1.63566">
        <ele>48.307238</ele>
        <time>2021-09-05T09:29:08.000Z</time>
      </trkpt>
      <trkpt lat="49.47791" lon="-1.63579">
        <ele>48.125633</ele>
        <time>2021-09-05T09:29:10.000Z</time>
      </trkpt>
      <trkpt lat="49.47782" lon="-1.63591">
        <ele>47.961284</ele>
        <time>2021-09-05T09:29:12.000Z</time>
      </trkpt>
      <trkpt lat="49.47778" lon="-1.63596">
        <ele>47.883007</ele>
        <time>2021-09-05T09:29:13.000Z</time>
      </trkpt>
      <trkpt lat="49.47764" lon="-1.63614">
        <ele>47.624784</ele>
        <time>2021-09-05T09:29:16.000Z</time>
      </trkpt>
      <trkpt lat="49.47739" lon="-1.63647">
        <ele>47.144354</ele>
        <time>2021-09-05T09:29:20.000Z</time>
      </trkpt>
      <trkpt lat="49.47732" lon="-1.63656">
        <ele>47.017652</ele>
        <time>2021-09-05T09:29:21.000Z</time>
      </trkpt>
      <trkpt lat="49.47706" lon="-1.6369">
        <ele>46.497231</ele>
        <time>2021-09-05T09:29:25.000Z</time>
      </trkpt>
      <trkpt lat="49.47699" lon="-1.63699">
        <ele>46.364605</ele>
        <time>2021-09-05T09:29:26.000Z</time>
      </trkpt>
      <trkpt lat="49.47679" lon="-1.63724">
        <ele>45.977431</ele>
        <time>2021-09-05T09:29:29.000Z</time>
      </trkpt>
      <trkpt lat="49.47665" lon="-1.63742">
        <ele>45.711553</ele>
        <time>2021-09-05T09:29:31.000Z</time>
      </trkpt>
      <trkpt lat="49.47644" lon="-1.63768">
        <ele>45.311541</ele>
        <time>2021-09-05T09:29:34.000Z</time>
      </trkpt>
      <trkpt lat="49.476" lon="-1.63807">
        <ele>44.537365</ele>
        <time>2021-09-05T09:29:40.000Z</time>
      </trkpt>
      <trkpt lat="49.47562" lon="-1.63831">
        <ele>43.885482</ele>
        <time>2021-09-05T09:29:45.000Z</time>
      </trkpt>
      <trkpt lat="49.4752" lon="-1.63853">
        <ele>43.17268</ele>
        <time>2021-09-05T09:29:51.000Z</time>
      </trkpt>
      <trkpt lat="49.4748" lon="-1.6387">
        <ele>42.503358</ele>
        <time>2021-09-05T09:29:57.000Z</time>
      </trkpt>
      <trkpt lat="49.47421" lon="-1.63888">
        <ele>41.638197</ele>
        <time>2021-09-05T09:30:05.000Z</time>
      </trkpt>
      <trkpt lat="49.47414" lon="-1.63891">
        <ele>41.549414</ele>
        <time>2021-09-05T09:30:06.000Z</time>
      </trkpt>
      <trkpt lat="49.47356" lon="-1.63904">
        <ele>40.862724</ele>
        <time>2021-09-05T09:30:14.000Z</time>
      </trkpt>
      <trkpt lat="49.47313" lon="-1.63911">
        <ele>40.351022</ele>
        <time>2021-09-05T09:30:20.000Z</time>
      </trkpt>
      <trkpt lat="49.47273" lon="-1.63914">
        <ele>39.873615</ele>
        <time>2021-09-05T09:30:26.000Z</time>
      </trkpt>
      <trkpt lat="49.47227" lon="-1.63909">
        <ele>39.481112</ele>
        <time>2021-09-05T09:30:33.000Z</time>
      </trkpt>
      <trkpt lat="49.47177" lon="-1.63895">
        <ele>39.08251</ele>
        <time>2021-09-05T09:30:41.000Z</time>
      </trkpt>
      <trkpt lat="49.47131" lon="-1.63873">
        <ele>38.705197</ele>
        <time>2021-09-05T09:30:49.000Z</time>
      </trkpt>
      <trkpt lat="49.47096" lon="-1.63857">
        <ele>38.422698</ele>
        <time>2021-09-05T09:30:56.000Z</time>
      </trkpt>
      <trkpt lat="49.47086" lon="-1.63852">
        <ele>38.353273</ele>
        <time>2021-09-05T09:30:57.000Z</time>
      </trkpt>
      <trkpt lat="49.47077" lon="-1.63848">
        <ele>38.330854</ele>
        <time>2021-09-05T09:30:59.000Z</time>
      </trkpt>
      <trkpt lat="49.47073" lon="-1.63847">
        <ele>38.321717</ele>
        <time>2021-09-05T09:31:00.000Z</time>
      </trkpt>
      <trkpt lat="49.47057" lon="-1.63839">
        <ele>38.281446</ele>
        <time>2021-09-05T09:31:05.000Z</time>
      </trkpt>
      <trkpt lat="49.47041" lon="-1.63831">
        <ele>38.238225</ele>
        <time>2021-09-05T09:31:10.000Z</time>
      </trkpt>
      <trkpt lat="49.47037" lon="-1.63829">
        <ele>38.229688</ele>
        <time>2021-09-05T09:31:11.000Z</time>
      </trkpt>
      <trkpt lat="49.4703" lon="-1.63825">
        <ele>38.20959</ele>
        <time>2021-09-05T09:31:13.000Z</time>
      </trkpt>
      <trkpt lat="49.46998" lon="-1.6381">
        <ele>38.129978</ele>
        <time>2021-09-05T09:31:19.000Z</time>
      </trkpt>
      <trkpt lat="49.46952" lon="-1.63795">
        <ele>38.013588</ele>
        <time>2021-09-05T09:31:27.000Z</time>
      </trkpt>
      <trkpt lat="49.46908" lon="-1.63789">
        <ele>37.919096</ele>
        <time>2021-09-05T09:31:34.000Z</time>
      </trkpt>
      <trkpt lat="49.46864" lon="-1.63795">
        <ele>37.908052</ele>
        <time>2021-09-05T09:31:41.000Z</time>
      </trkpt>
      <trkpt lat="49.46819" lon="-1.638">
        <ele>37.896958</ele>
        <time>2021-09-05T09:31:48.000Z</time>
      </trkpt>
      <trkpt lat="49.46769" lon="-1.6381">
        <ele>37.884351</ele>
        <time>2021-09-05T09:31:56.000Z</time>
      </trkpt>
      <trkpt lat="49.46736" lon="-1.63818">
        <ele>37.876076</ele>
        <time>2021-09-05T09:32:02.000Z</time>
      </trkpt>
      <trkpt lat="49.46712" lon="-1.6382">
        <ele>37.565816</ele>
        <time>2021-09-05T09:32:05.000Z</time>
      </trkpt>
      <trkpt lat="49.46706" lon="-1.63821">
        <ele>37.48961</ele>
        <time>2021-09-05T09:32:06.000Z</time>
      </trkpt>
      <trkpt lat="49.4669" lon="-1.63822">
        <ele>37.274372</ele>
        <time>2021-09-05T09:32:09.000Z</time>
      </trkpt>
      <trkpt lat="49.46685" lon="-1.63822">
        <ele>37.210171</ele>
        <time>2021-09-05T09:32:10.000Z</time>
      </trkpt>
      <trkpt lat="49.4668" lon="-1.63822">
        <ele>37.14868</ele>
        <time>2021-09-05T09:32:11.000Z</time>
      </trkpt>
      <trkpt lat="49.46676" lon="-1.63823">
        <ele>37.091192</ele>
        <time>2021-09-05T09:32:13.000Z</time>
      </trkpt>
      <trkpt lat="49.46649" lon="-1.63818">
        <ele>36.726864</ele>
        <time>2021-09-05T09:32:17.000Z</time>
      </trkpt>
      <trkpt lat="49.46622" lon="-1.63809">
        <ele>36.365153</ele>
        <time>2021-09-05T09:32:21.000Z</time>
      </trkpt>
      <trkpt lat="49.46592" lon="-1.63793">
        <ele>35.930149</ele>
        <time>2021-09-05T09:32:26.000Z</time>
      </trkpt>
      <trkpt lat="49.46583" lon="-1.63798">
        <ele>35.802222</ele>
        <time>2021-09-05T09:32:29.000Z</time>
      </trkpt>
      <trkpt lat="49.46574" lon="-1.63798">
        <ele>35.68735</ele>
        <time>2021-09-05T09:32:30.000Z</time>
      </trkpt>
      <trkpt lat="49.46572" lon="-1.63794">
        <ele>35.649495</ele>
        <time>2021-09-05T09:32:32.000Z</time>
      </trkpt>
      <trkpt lat="49.46572" lon="-1.63793">
        <ele>35.635655</ele>
        <time>2021-09-05T09:32:35.000Z</time>
      </trkpt>
      <trkpt lat="49.46577" lon="-1.63802">
        <ele>35.53241</ele>
        <time>2021-09-05T09:32:36.000Z</time>
      </trkpt>
      <trkpt lat="49.46576" lon="-1.63803">
        <ele>35.523297</ele>
        <time>2021-09-05T09:32:40.000Z</time>
      </trkpt>
      <trkpt lat="49.46572" lon="-1.63793">
        <ele>35.476643</ele>
        <time>2021-09-05T09:32:41.000Z</time>
      </trkpt>
      <trkpt lat="49.46539" lon="-1.6378">
        <ele>35.503118</ele>
        <time>2021-09-05T09:32:48.000Z</time>
      </trkpt>
      <trkpt lat="49.46535" lon="-1.63779">
        <ele>35.506398</ele>
        <time>2021-09-05T09:32:49.000Z</time>
      </trkpt>
      <trkpt lat="49.46527" lon="-1.63776">
        <ele>35.51268</ele>
        <time>2021-09-05T09:32:51.000Z</time>
      </trkpt>
      <trkpt lat="49.46519" lon="-1.63769">
        <ele>35.519648</ele>
        <time>2021-09-05T09:32:53.000Z</time>
      </trkpt>
      <trkpt lat="49.4649" lon="-1.63744">
        <ele>35.545892</ele>
        <time>2021-09-05T09:33:01.000Z</time>
      </trkpt>
      <trkpt lat="49.46487" lon="-1.6374">
        <ele>35.548957</ele>
        <time>2021-09-05T09:33:02.000Z</time>
      </trkpt>
      <trkpt lat="49.46481" lon="-1.63735">
        <ele>35.554356</ele>
        <time>2021-09-05T09:33:04.000Z</time>
      </trkpt>
      <trkpt lat="49.46475" lon="-1.63734">
        <ele>35.559222</ele>
        <time>2021-09-05T09:33:06.000Z</time>
      </trkpt>
      <trkpt lat="49.46467" lon="-1.63727">
        <ele>35.565966</ele>
        <time>2021-09-05T09:33:08.000Z</time>
      </trkpt>
      <trkpt lat="49.46459" lon="-1.63718">
        <ele>35.573956</ele>
        <time>2021-09-05T09:33:10.000Z</time>
      </trkpt>
      <trkpt lat="49.46428" lon="-1.63691">
        <ele>35.601803</ele>
        <time>2021-09-05T09:33:16.000Z</time>
      </trkpt>
      <trkpt lat="49.46411" lon="-1.63676">
        <ele>35.619432</ele>
        <time>2021-09-05T09:33:19.000Z</time>
      </trkpt>
      <trkpt lat="49.46404" lon="-1.63661">
        <ele>35.639064</ele>
        <time>2021-09-05T09:33:21.000Z</time>
      </trkpt>
      <trkpt lat="49.46369" lon="-1.63629">
        <ele>35.702999</ele>
        <time>2021-09-05T09:33:27.000Z</time>
      </trkpt>
      <trkpt lat="49.46333" lon="-1.63584">
        <ele>35.775065</ele>
        <time>2021-09-05T09:33:34.000Z</time>
      </trkpt>
      <trkpt lat="49.46305" lon="-1.63542">
        <ele>35.836967</ele>
        <time>2021-09-05T09:33:40.000Z</time>
      </trkpt>
      <trkpt lat="49.46283" lon="-1.63506">
        <ele>35.888274</ele>
        <time>2021-09-05T09:33:45.000Z</time>
      </trkpt>
      <trkpt lat="49.46275" lon="-1.63491">
        <ele>35.913466</ele>
        <time>2021-09-05T09:33:47.000Z</time>
      </trkpt>
      <trkpt lat="49.46257" lon="-1.63444">
        <ele>35.998634</ele>
        <time>2021-09-05T09:33:53.000Z</time>
      </trkpt>
      <trkpt lat="49.4623" lon="-1.63382">
        <ele>36.114239</ele>
        <time>2021-09-05T09:34:01.000Z</time>
      </trkpt>
      <trkpt lat="49.46208" lon="-1.63312">
        <ele>36.236351</ele>
        <time>2021-09-05T09:34:09.000Z</time>
      </trkpt>
      <trkpt lat="49.46186" lon="-1.63244">
        <ele>36.335448</ele>
        <time>2021-09-05T09:34:17.000Z</time>
      </trkpt>
      <trkpt lat="49.46176" lon="-1.6322">
        <ele>36.346009</ele>
        <time>2021-09-05T09:34:20.000Z</time>
      </trkpt>
      <trkpt lat="49.4617" lon="-1.63204">
        <ele>36.352896</ele>
        <time>2021-09-05T09:34:22.000Z</time>
      </trkpt>
      <trkpt lat="49.46165" lon="-1.63188">
        <ele>36.359537</ele>
        <time>2021-09-05T09:34:24.000Z</time>
      </trkpt>
      <trkpt lat="49.46159" lon="-1.63166">
        <ele>36.368445</ele>
        <time>2021-09-05T09:34:27.000Z</time>
      </trkpt>
      <trkpt lat="49.46154" lon="-1.63146">
        <ele>36.376206</ele>
        <time>2021-09-05T09:34:31.000Z</time>
      </trkpt>
      <trkpt lat="49.46146" lon="-1.63119">
        <ele>36.387457</ele>
        <time>2021-09-05T09:34:35.000Z</time>
      </trkpt>
      <trkpt lat="49.46133" lon="-1.6307">
        <ele>36.407334</ele>
        <time>2021-09-05T09:34:41.000Z</time>
      </trkpt>
      <trkpt lat="49.4613" lon="-1.63061">
        <ele>36.410944</ele>
        <time>2021-09-05T09:34:42.000Z</time>
      </trkpt>
      <trkpt lat="49.46102" lon="-1.63037">
        <ele>36.429343</ele>
        <time>2021-09-05T09:34:47.000Z</time>
      </trkpt>
      <trkpt lat="49.46099" lon="-1.62967">
        <ele>36.143484</ele>
        <time>2021-09-05T09:34:53.000Z</time>
      </trkpt>
      <trkpt lat="49.46089" lon="-1.62933">
        <ele>35.965839</ele>
        <time>2021-09-05T09:34:57.000Z</time>
      </trkpt>
      <trkpt lat="49.46086" lon="-1.62924">
        <ele>35.921382</ele>
        <time>2021-09-05T09:34:58.000Z</time>
      </trkpt>
      <trkpt lat="49.46066" lon="-1.62862">
        <ele>35.593995</ele>
        <time>2021-09-05T09:35:05.000Z</time>
      </trkpt>
      <trkpt lat="49.46045" lon="-1.62812">
        <ele>35.312285</ele>
        <time>2021-09-05T09:35:11.000Z</time>
      </trkpt>
      <trkpt lat="49.46016" lon="-1.62759">
        <ele>34.914148</ele>
        <time>2021-09-05T09:35:18.000Z</time>
      </trkpt>
      <trkpt lat="49.45984" lon="-1.62712">
        <ele>34.425598</ele>
        <time>2021-09-05T09:35:25.000Z</time>
      </trkpt>
      <trkpt lat="49.45979" lon="-1.62706">
        <ele>34.353867</ele>
        <time>2021-09-05T09:35:26.000Z</time>
      </trkpt>
      <trkpt lat="49.45964" lon="-1.6269">
        <ele>34.149041</ele>
        <time>2021-09-05T09:35:29.000Z</time>
      </trkpt>
      <trkpt lat="49.45943" lon="-1.6269">
        <ele>33.909141</ele>
        <time>2021-09-05T09:35:32.000Z</time>
      </trkpt>
      <trkpt lat="49.45911" lon="-1.62666">
        <ele>33.516862</ele>
        <time>2021-09-05T09:35:38.000Z</time>
      </trkpt>
      <trkpt lat="49.45883" lon="-1.62649">
        <ele>33.179775</ele>
        <time>2021-09-05T09:35:43.000Z</time>
      </trkpt>
      <trkpt lat="49.45871" lon="-1.62643">
        <ele>33.014596</ele>
        <time>2021-09-05T09:35:45.000Z</time>
      </trkpt>
      <trkpt lat="49.45859" lon="-1.62636">
        <ele>32.832322</ele>
        <time>2021-09-05T09:35:47.000Z</time>
      </trkpt>
      <trkpt lat="49.45847" lon="-1.62628">
        <ele>32.642444</ele>
        <time>2021-09-05T09:35:49.000Z</time>
      </trkpt>
      <trkpt lat="49.45835" lon="-1.62619">
        <ele>32.45819</ele>
        <time>2021-09-05T09:35:51.000Z</time>
      </trkpt>
      <trkpt lat="49.45829" lon="-1.62614">
        <ele>32.36437</ele>
        <time>2021-09-05T09:35:52.000Z</time>
      </trkpt>
      <trkpt lat="49.45791" lon="-1.62594">
        <ele>31.780254</ele>
        <time>2021-09-05T09:35:59.000Z</time>
      </trkpt>
      <trkpt lat="49.45778" lon="-1.62589">
        <ele>31.590632</ele>
        <time>2021-09-05T09:36:00.000Z</time>
      </trkpt>
      <trkpt lat="49.45752" lon="-1.62582">
        <ele>31.220791</ele>
        <time>2021-09-05T09:36:04.000Z</time>
      </trkpt>
      <trkpt lat="49.45733" lon="-1.62573">
        <ele>30.934861</ele>
        <time>2021-09-05T09:36:07.000Z</time>
      </trkpt>
      <trkpt lat="49.45728" lon="-1.62571">
        <ele>30.869233</ele>
        <time>2021-09-05T09:36:09.000Z</time>
      </trkpt>
      <trkpt lat="49.45683" lon="-1.6252">
        <ele>30.071615</ele>
        <time>2021-09-05T09:36:16.000Z</time>
      </trkpt>
      <trkpt lat="49.4566" lon="-1.62504">
        <ele>29.711535</ele>
        <time>2021-09-05T09:36:20.000Z</time>
      </trkpt>
      <trkpt lat="49.45648" lon="-1.62494">
        <ele>29.528034</ele>
        <time>2021-09-05T09:36:22.000Z</time>
      </trkpt>
      <trkpt lat="49.45643" lon="-1.62489">
        <ele>29.436393</ele>
        <time>2021-09-05T09:36:23.000Z</time>
      </trkpt>
      <trkpt lat="49.45621" lon="-1.62469">
        <ele>29.079101</ele>
        <time>2021-09-05T09:36:27.000Z</time>
      </trkpt>
      <trkpt lat="49.45606" lon="-1.62452">
        <ele>28.808948</ele>
        <time>2021-09-05T09:36:30.000Z</time>
      </trkpt>
      <trkpt lat="49.45586" lon="-1.62429">
        <ele>28.460049</ele>
        <time>2021-09-05T09:36:34.000Z</time>
      </trkpt>
      <trkpt lat="49.45554" lon="-1.62383">
        <ele>28.01991</ele>
        <time>2021-09-05T09:36:41.000Z</time>
      </trkpt>
      <trkpt lat="49.4552" lon="-1.62323">
        <ele>27.993018</ele>
        <time>2021-09-05T09:36:49.000Z</time>
      </trkpt>
      <trkpt lat="49.45485" lon="-1.62261">
        <ele>27.965364</ele>
        <time>2021-09-05T09:36:57.000Z</time>
      </trkpt>
      <trkpt lat="49.45446" lon="-1.62194">
        <ele>27.934922</ele>
        <time>2021-09-05T09:37:06.000Z</time>
      </trkpt>
      <trkpt lat="49.45424" lon="-1.6216">
        <ele>28.111657</ele>
        <time>2021-09-05T09:37:11.000Z</time>
      </trkpt>
      <trkpt lat="49.45399" lon="-1.62116">
        <ele>28.352335</ele>
        <time>2021-09-05T09:37:17.000Z</time>
      </trkpt>
      <trkpt lat="49.45369" lon="-1.62054">
        <ele>28.674214</ele>
        <time>2021-09-05T09:37:25.000Z</time>
      </trkpt>
      <trkpt lat="49.45341" lon="-1.61988">
        <ele>28.997613</ele>
        <time>2021-09-05T09:37:33.000Z</time>
      </trkpt>
      <trkpt lat="49.45316" lon="-1.61921">
        <ele>29.948252</ele>
        <time>2021-09-05T09:37:41.000Z</time>
      </trkpt>
      <trkpt lat="49.45296" lon="-1.61859">
        <ele>30.995625</ele>
        <time>2021-09-05T09:37:48.000Z</time>
      </trkpt>
      <trkpt lat="49.45286" lon="-1.61832">
        <ele>31.44898</ele>
        <time>2021-09-05T09:37:51.000Z</time>
      </trkpt>
      <trkpt lat="49.45276" lon="-1.61806">
        <ele>31.915513</ele>
        <time>2021-09-05T09:37:54.000Z</time>
      </trkpt>
      <trkpt lat="49.4525" lon="-1.61737">
        <ele>33.117133</ele>
        <time>2021-09-05T09:38:02.000Z</time>
      </trkpt>
      <trkpt lat="49.45236" lon="-1.61698">
        <ele>33.605013</ele>
        <time>2021-09-05T09:38:08.000Z</time>
      </trkpt>
      <trkpt lat="49.45228" lon="-1.61671">
        <ele>33.912463</ele>
        <time>2021-09-05T09:38:13.000Z</time>
      </trkpt>
      <trkpt lat="49.45216" lon="-1.61641">
        <ele>34.256595</ele>
        <time>2021-09-05T09:38:17.000Z</time>
      </trkpt>
      <trkpt lat="49.45212" lon="-1.61634">
        <ele>34.35456</ele>
        <time>2021-09-05T09:38:18.000Z</time>
      </trkpt>
      <trkpt lat="49.45193" lon="-1.61596">
        <ele>34.844348</ele>
        <time>2021-09-05T09:38:23.000Z</time>
      </trkpt>
      <trkpt lat="49.45172" lon="-1.61559">
        <ele>35.336654</ele>
        <time>2021-09-05T09:38:28.000Z</time>
      </trkpt>
      <trkpt lat="49.45141" lon="-1.61512">
        <ele>36.013915</ele>
        <time>2021-09-05T09:38:35.000Z</time>
      </trkpt>
      <trkpt lat="49.45107" lon="-1.61469">
        <ele>35.663339</ele>
        <time>2021-09-05T09:38:42.000Z</time>
      </trkpt>
      <trkpt lat="49.45096" lon="-1.61459">
        <ele>35.550045</ele>
        <time>2021-09-05T09:38:44.000Z</time>
      </trkpt>
      <trkpt lat="49.4509" lon="-1.6145">
        <ele>35.475586</ele>
        <time>2021-09-05T09:38:47.000Z</time>
      </trkpt>
      <trkpt lat="49.45074" lon="-1.61439">
        <ele>35.318786</ele>
        <time>2021-09-05T09:38:48.000Z</time>
      </trkpt>
      <trkpt lat="49.45063" lon="-1.6143">
        <ele>35.208475</ele>
        <time>2021-09-05T09:38:50.000Z</time>
      </trkpt>
      <trkpt lat="49.45036" lon="-1.61383">
        <ele>34.848843</ele>
        <time>2021-09-05T09:38:55.000Z</time>
      </trkpt>
      <trkpt lat="49.45024" lon="-1.61381">
        <ele>34.742685</ele>
        <time>2021-09-05T09:38:57.000Z</time>
      </trkpt>
      <trkpt lat="49.45012" lon="-1.61379">
        <ele>34.638282</ele>
        <time>2021-09-05T09:38:59.000Z</time>
      </trkpt>
      <trkpt lat="49.44984" lon="-1.61409">
        <ele>34.181976</ele>
        <time>2021-09-05T09:39:03.000Z</time>
      </trkpt>
      <trkpt lat="49.44979" lon="-1.61408">
        <ele>34.078335</ele>
        <time>2021-09-05T09:39:05.000Z</time>
      </trkpt>
      <trkpt lat="49.44953" lon="-1.61412">
        <ele>33.556738</ele>
        <time>2021-09-05T09:39:10.000Z</time>
      </trkpt>
      <trkpt lat="49.44938" lon="-1.61418">
        <ele>33.236375</ele>
        <time>2021-09-05T09:39:14.000Z</time>
      </trkpt>
      <trkpt lat="49.44927" lon="-1.61423">
        <ele>33.006619</ele>
        <time>2021-09-05T09:39:16.000Z</time>
      </trkpt>
      <trkpt lat="49.44901" lon="-1.61434">
        <ele>32.46324</ele>
        <time>2021-09-05T09:39:21.000Z</time>
      </trkpt>
      <trkpt lat="49.4488" lon="-1.61443">
        <ele>32.039144</ele>
        <time>2021-09-05T09:39:25.000Z</time>
      </trkpt>
      <trkpt lat="49.44843" lon="-1.61453">
        <ele>31.285548</ele>
        <time>2021-09-05T09:39:31.000Z</time>
      </trkpt>
      <trkpt lat="49.44807" lon="-1.61456">
        <ele>30.604911</ele>
        <time>2021-09-05T09:39:37.000Z</time>
      </trkpt>
      <trkpt lat="49.44807" lon="-1.61456">
        <ele>30.604911</ele>
        <time>2021-09-05T09:39:41.000Z</time>
      </trkpt>
      <trkpt lat="49.44788" lon="-1.61489">
        <ele>30.152733</ele>
        <time>2021-09-05T09:39:46.000Z</time>
      </trkpt>
      <trkpt lat="49.44781" lon="-1.61502">
        <ele>29.97207</ele>
        <time>2021-09-05T09:39:49.000Z</time>
      </trkpt>
      <trkpt lat="49.44774" lon="-1.61514">
        <ele>29.810107</ele>
        <time>2021-09-05T09:39:52.000Z</time>
      </trkpt>
      <trkpt lat="49.44767" lon="-1.61529">
        <ele>29.609038</ele>
        <time>2021-09-05T09:39:58.000Z</time>
      </trkpt>
      <trkpt lat="49.44763" lon="-1.61537">
        <ele>29.508925</ele>
        <time>2021-09-05T09:40:03.000Z</time>
      </trkpt>
      <trkpt lat="49.44758" lon="-1.61548">
        <ele>29.365873</ele>
        <time>2021-09-05T09:40:10.000Z</time>
      </trkpt>
      <trkpt lat="49.44758" lon="-1.61549">
        <ele>29.357107</ele>
        <time>2021-09-05T09:40:11.000Z</time>
      </trkpt>
      <trkpt lat="49.44731" lon="-1.61597">
        <ele>28.689764</ele>
        <time>2021-09-05T09:40:13.000Z</time>
      </trkpt>
      <trkpt lat="49.44689" lon="-1.61407">
        <ele>26.923375</ele>
        <time>2021-09-05T09:40:15.000Z</time>
      </trkpt>
      <trkpt lat="49.44694" lon="-1.61405">
        <ele>26.865968</ele>
        <time>2021-09-05T09:40:17.000Z</time>
      </trkpt>
      <trkpt lat="49.44703" lon="-1.61404">
        <ele>26.752944</ele>
        <time>2021-09-05T09:40:22.000Z</time>
      </trkpt>
      <trkpt lat="49.44711" lon="-1.61402">
        <ele>26.65474</ele>
        <time>2021-09-05T09:40:25.000Z</time>
      </trkpt>
      <trkpt lat="49.44714" lon="-1.61401">
        <ele>26.615711</ele>
        <time>2021-09-05T09:40:26.000Z</time>
      </trkpt>
      <trkpt lat="49.44734" lon="-1.61394">
        <ele>26.35796</ele>
        <time>2021-09-05T09:40:32.000Z</time>
      </trkpt>
      <trkpt lat="49.44751" lon="-1.61391">
        <ele>26.156937</ele>
        <time>2021-09-05T09:40:38.000Z</time>
      </trkpt>
      <trkpt lat="49.44767" lon="-1.61385">
        <ele>25.950837</ele>
        <time>2021-09-05T09:40:45.000Z</time>
      </trkpt>
      <trkpt lat="49.44772" lon="-1.61383">
        <ele>25.892694</ele>
        <time>2021-09-05T09:40:49.000Z</time>
      </trkpt>
      <trkpt lat="49.4476" lon="-1.61386">
        <ele>25.750783</ele>
        <time>2021-09-05T09:41:11.000Z</time>
      </trkpt>
      <trkpt lat="49.44754" lon="-1.61388">
        <ele>25.690814</ele>
        <time>2021-09-05T09:41:13.000Z</time>
      </trkpt>
      <trkpt lat="49.44733" lon="-1.61394">
        <ele>25.491001</ele>
        <time>2021-09-05T09:41:18.000Z</time>
      </trkpt>
      <trkpt lat="49.44694" lon="-1.61406">
        <ele>25.123022</ele>
        <time>2021-09-05T09:41:26.000Z</time>
      </trkpt>
      <trkpt lat="49.44655" lon="-1.61416">
        <ele>24.749137</ele>
        <time>2021-09-05T09:41:33.000Z</time>
      </trkpt>
      <trkpt lat="49.44649" lon="-1.61419">
        <ele>24.697176</ele>
        <time>2021-09-05T09:41:34.000Z</time>
      </trkpt>
      <trkpt lat="49.44639" lon="-1.61423">
        <ele>24.594693</ele>
        <time>2021-09-05T09:41:36.000Z</time>
      </trkpt>
      <trkpt lat="49.44608" lon="-1.61431">
        <ele>24.306215</ele>
        <time>2021-09-05T09:41:42.000Z</time>
      </trkpt>
      <trkpt lat="49.44571" lon="-1.61435">
        <ele>23.949846</ele>
        <time>2021-09-05T09:41:48.000Z</time>
      </trkpt>
      <trkpt lat="49.44544" lon="-1.61436">
        <ele>23.680458</ele>
        <time>2021-09-05T09:41:52.000Z</time>
      </trkpt>
      <trkpt lat="49.44531" lon="-1.61436">
        <ele>23.548746</ele>
        <time>2021-09-05T09:41:54.000Z</time>
      </trkpt>
      <trkpt lat="49.44493" lon="-1.61428">
        <ele>23.166714</ele>
        <time>2021-09-05T09:42:00.000Z</time>
      </trkpt>
      <trkpt lat="49.44446" lon="-1.61415">
        <ele>22.690192</ele>
        <time>2021-09-05T09:42:07.000Z</time>
      </trkpt>
      <trkpt lat="49.44412" lon="-1.61402">
        <ele>22.341411</ele>
        <time>2021-09-05T09:42:12.000Z</time>
      </trkpt>
      <trkpt lat="49.44405" lon="-1.61399">
        <ele>22.272619</ele>
        <time>2021-09-05T09:42:13.000Z</time>
      </trkpt>
      <trkpt lat="49.44393" lon="-1.61392">
        <ele>22.075748</ele>
        <time>2021-09-05T09:42:15.000Z</time>
      </trkpt>
      <trkpt lat="49.44386" lon="-1.61388">
        <ele>21.976791</ele>
        <time>2021-09-05T09:42:16.000Z</time>
      </trkpt>
      <trkpt lat="49.44362" lon="-1.61374">
        <ele>21.594732</ele>
        <time>2021-09-05T09:42:20.000Z</time>
      </trkpt>
      <trkpt lat="49.44357" lon="-1.6137">
        <ele>21.502996</ele>
        <time>2021-09-05T09:42:21.000Z</time>
      </trkpt>
      <trkpt lat="49.44333" lon="-1.61352">
        <ele>21.123783</ele>
        <time>2021-09-05T09:42:25.000Z</time>
      </trkpt>
      <trkpt lat="49.44317" lon="-1.61337">
        <ele>20.836306</ele>
        <time>2021-09-05T09:42:28.000Z</time>
      </trkpt>
      <trkpt lat="49.44301" lon="-1.61322">
        <ele>20.567596</ele>
        <time>2021-09-05T09:42:31.000Z</time>
      </trkpt>
      <trkpt lat="49.44292" lon="-1.6131">
        <ele>20.388994</ele>
        <time>2021-09-05T09:42:33.000Z</time>
      </trkpt>
      <trkpt lat="49.44263" lon="-1.61275">
        <ele>19.851883</ele>
        <time>2021-09-05T09:42:39.000Z</time>
      </trkpt>
      <trkpt lat="49.44254" lon="-1.61262">
        <ele>19.668288</ele>
        <time>2021-09-05T09:42:41.000Z</time>
      </trkpt>
      <trkpt lat="49.44241" lon="-1.61243">
        <ele>19.478548</ele>
        <time>2021-09-05T09:42:44.000Z</time>
      </trkpt>
      <trkpt lat="49.44226" lon="-1.6122">
        <ele>19.282337</ele>
        <time>2021-09-05T09:42:48.000Z</time>
      </trkpt>
      <trkpt lat="49.44202" lon="-1.61177">
        <ele>18.932497</ele>
        <time>2021-09-05T09:42:54.000Z</time>
      </trkpt>
      <trkpt lat="49.44193" lon="-1.61161">
        <ele>18.804744</ele>
        <time>2021-09-05T09:42:56.000Z</time>
      </trkpt>
      <trkpt lat="49.44185" lon="-1.61144">
        <ele>18.674375</ele>
        <time>2021-09-05T09:42:58.000Z</time>
      </trkpt>
      <trkpt lat="49.44161" lon="-1.61086">
        <ele>18.248899</ele>
        <time>2021-09-05T09:43:05.000Z</time>
      </trkpt>
      <trkpt lat="49.44151" lon="-1.61054">
        <ele>18.031187</ele>
        <time>2021-09-05T09:43:09.000Z</time>
      </trkpt>
      <trkpt lat="49.44141" lon="-1.61023">
        <ele>18.05731</ele>
        <time>2021-09-05T09:43:13.000Z</time>
      </trkpt>
      <trkpt lat="49.44131" lon="-1.60986">
        <ele>18.350081</ele>
        <time>2021-09-05T09:43:17.000Z</time>
      </trkpt>
      <trkpt lat="49.4412" lon="-1.60936">
        <ele>18.742565</ele>
        <time>2021-09-05T09:43:23.000Z</time>
      </trkpt>
      <trkpt lat="49.44116" lon="-1.6091">
        <ele>18.940518</ele>
        <time>2021-09-05T09:43:26.000Z</time>
      </trkpt>
      <trkpt lat="49.44113" lon="-1.60893">
        <ele>19.073055</ele>
        <time>2021-09-05T09:43:28.000Z</time>
      </trkpt>
      <trkpt lat="49.44109" lon="-1.60866">
        <ele>19.278948</ele>
        <time>2021-09-05T09:43:31.000Z</time>
      </trkpt>
      <trkpt lat="49.44107" lon="-1.60847">
        <ele>19.418944</ele>
        <time>2021-09-05T09:43:33.000Z</time>
      </trkpt>
      <trkpt lat="49.44099" lon="-1.60789">
        <ele>19.858034</ele>
        <time>2021-09-05T09:43:39.000Z</time>
      </trkpt>
      <trkpt lat="49.44092" lon="-1.6074">
        <ele>20.234368</ele>
        <time>2021-09-05T09:43:44.000Z</time>
      </trkpt>
      <trkpt lat="49.4409" lon="-1.6072">
        <ele>20.386163</ele>
        <time>2021-09-05T09:43:46.000Z</time>
      </trkpt>
      <trkpt lat="49.44088" lon="-1.607">
        <ele>20.542203</ele>
        <time>2021-09-05T09:43:48.000Z</time>
      </trkpt>
      <trkpt lat="49.44079" lon="-1.60625">
        <ele>21.114484</ele>
        <time>2021-09-05T09:43:56.000Z</time>
      </trkpt>
      <trkpt lat="49.44073" lon="-1.60573">
        <ele>21.511369</ele>
        <time>2021-09-05T09:44:02.000Z</time>
      </trkpt>
      <trkpt lat="49.44072" lon="-1.60565">
        <ele>21.57647</ele>
        <time>2021-09-05T09:44:03.000Z</time>
      </trkpt>
      <trkpt lat="49.44071" lon="-1.60548">
        <ele>21.702017</ele>
        <time>2021-09-05T09:44:05.000Z</time>
      </trkpt>
      <trkpt lat="49.4407" lon="-1.60539">
        <ele>21.769155</ele>
        <time>2021-09-05T09:44:06.000Z</time>
      </trkpt>
      <trkpt lat="49.44063" lon="-1.60479">
        <ele>22.358052</ele>
        <time>2021-09-05T09:44:13.000Z</time>
      </trkpt>
      <trkpt lat="49.44061" lon="-1.60463">
        <ele>22.570374</ele>
        <time>2021-09-05T09:44:15.000Z</time>
      </trkpt>
      <trkpt lat="49.44059" lon="-1.60446">
        <ele>22.793412</ele>
        <time>2021-09-05T09:44:17.000Z</time>
      </trkpt>
      <trkpt lat="49.44056" lon="-1.60419">
        <ele>23.152468</ele>
        <time>2021-09-05T09:44:20.000Z</time>
      </trkpt>
      <trkpt lat="49.44052" lon="-1.60387">
        <ele>23.590421</ele>
        <time>2021-09-05T09:44:24.000Z</time>
      </trkpt>
      <trkpt lat="49.44045" lon="-1.60324">
        <ele>24.433232</ele>
        <time>2021-09-05T09:44:32.000Z</time>
      </trkpt>
      <trkpt lat="49.44037" lon="-1.60252">
        <ele>25.389334</ele>
        <time>2021-09-05T09:44:41.000Z</time>
      </trkpt>
      <trkpt lat="49.44035" lon="-1.6023">
        <ele>25.68574</ele>
        <time>2021-09-05T09:44:44.000Z</time>
      </trkpt>
      <trkpt lat="49.44031" lon="-1.602">
        <ele>26.485158</ele>
        <time>2021-09-05T09:44:48.000Z</time>
      </trkpt>
      <trkpt lat="49.44025" lon="-1.60145">
        <ele>28.018543</ele>
        <time>2021-09-05T09:44:56.000Z</time>
      </trkpt>
      <trkpt lat="49.4402" lon="-1.60101">
        <ele>29.250571</ele>
        <time>2021-09-05T09:45:02.000Z</time>
      </trkpt>
      <trkpt lat="49.44014" lon="-1.60045">
        <ele>30.798138</ele>
        <time>2021-09-05T09:45:09.000Z</time>
      </trkpt>
      <trkpt lat="49.44012" lon="-1.60029">
        <ele>31.230359</ele>
        <time>2021-09-05T09:45:11.000Z</time>
      </trkpt>
      <trkpt lat="49.44009" lon="-1.6">
        <ele>32.042914</ele>
        <time>2021-09-05T09:45:15.000Z</time>
      </trkpt>
      <trkpt lat="49.44006" lon="-1.59977">
        <ele>32.693064</ele>
        <time>2021-09-05T09:45:18.000Z</time>
      </trkpt>
      <trkpt lat="49.44003" lon="-1.59952">
        <ele>33.360793</ele>
        <time>2021-09-05T09:45:21.000Z</time>
      </trkpt>
      <trkpt lat="49.43998" lon="-1.59907">
        <ele>34.54424</ele>
        <time>2021-09-05T09:45:27.000Z</time>
      </trkpt>
      <trkpt lat="49.43996" lon="-1.59892">
        <ele>34.924789</ele>
        <time>2021-09-05T09:45:29.000Z</time>
      </trkpt>
      <trkpt lat="49.43993" lon="-1.59862">
        <ele>35.711839</ele>
        <time>2021-09-05T09:45:33.000Z</time>
      </trkpt>
      <trkpt lat="49.43989" lon="-1.59833">
        <ele>36.467889</ele>
        <time>2021-09-05T09:45:38.000Z</time>
      </trkpt>
      <trkpt lat="49.43987" lon="-1.59818">
        <ele>36.853491</ele>
        <time>2021-09-05T09:45:39.000Z</time>
      </trkpt>
      <trkpt lat="49.4398" lon="-1.59755">
        <ele>38.500397</ele>
        <time>2021-09-05T09:45:47.000Z</time>
      </trkpt>
      <trkpt lat="49.43972" lon="-1.59683">
        <ele>40.364185</ele>
        <time>2021-09-05T09:45:56.000Z</time>
      </trkpt>
      <trkpt lat="49.43965" lon="-1.59625">
        <ele>41.030812</ele>
        <time>2021-09-05T09:46:04.000Z</time>
      </trkpt>
      <trkpt lat="49.43956" lon="-1.59549">
        <ele>41.902466</ele>
        <time>2021-09-05T09:46:14.000Z</time>
      </trkpt>
      <trkpt lat="49.43952" lon="-1.59511">
        <ele>42.341483</ele>
        <time>2021-09-05T09:46:19.000Z</time>
      </trkpt>
      <trkpt lat="49.4395" lon="-1.59496">
        <ele>42.516322</ele>
        <time>2021-09-05T09:46:21.000Z</time>
      </trkpt>
      <trkpt lat="49.43944" lon="-1.59446">
        <ele>43.095533</ele>
        <time>2021-09-05T09:46:28.000Z</time>
      </trkpt>
      <trkpt lat="49.43936" lon="-1.59378">
        <ele>43.408335</ele>
        <time>2021-09-05T09:46:37.000Z</time>
      </trkpt>
      <trkpt lat="49.43935" lon="-1.59371">
        <ele>43.392194</ele>
        <time>2021-09-05T09:46:38.000Z</time>
      </trkpt>
      <trkpt lat="49.43934" lon="-1.59356">
        <ele>43.356675</ele>
        <time>2021-09-05T09:46:41.000Z</time>
      </trkpt>
      <trkpt lat="49.43933" lon="-1.59353">
        <ele>43.349623</ele>
        <time>2021-09-05T09:46:42.000Z</time>
      </trkpt>
      <trkpt lat="49.43933" lon="-1.59347">
        <ele>43.33445</ele>
        <time>2021-09-05T09:46:44.000Z</time>
      </trkpt>
      <trkpt lat="49.4393" lon="-1.5932">
        <ele>43.271536</ele>
        <time>2021-09-05T09:46:50.000Z</time>
      </trkpt>
      <trkpt lat="49.43926" lon="-1.5929">
        <ele>43.200665</ele>
        <time>2021-09-05T09:46:55.000Z</time>
      </trkpt>
      <trkpt lat="49.43925" lon="-1.59283">
        <ele>43.185882</ele>
        <time>2021-09-05T09:46:56.000Z</time>
      </trkpt>
      <trkpt lat="49.43924" lon="-1.59271">
        <ele>43.156218</ele>
        <time>2021-09-05T09:46:58.000Z</time>
      </trkpt>
      <trkpt lat="49.43921" lon="-1.59249">
        <ele>43.106826</ele>
        <time>2021-09-05T09:47:01.000Z</time>
      </trkpt>
      <trkpt lat="49.43916" lon="-1.59207">
        <ele>43.007878</ele>
        <time>2021-09-05T09:47:07.000Z</time>
      </trkpt>
      <trkpt lat="49.43913" lon="-1.59177">
        <ele>42.937007</ele>
        <time>2021-09-05T09:47:12.000Z</time>
      </trkpt>
      <trkpt lat="49.43912" lon="-1.59171">
        <ele>42.923196</ele>
        <time>2021-09-05T09:47:13.000Z</time>
      </trkpt>
      <trkpt lat="49.43908" lon="-1.59137">
        <ele>42.878247</ele>
        <time>2021-09-05T09:47:18.000Z</time>
      </trkpt>
      <trkpt lat="49.43903" lon="-1.59091">
        <ele>43.538991</ele>
        <time>2021-09-05T09:47:24.000Z</time>
      </trkpt>
      <trkpt lat="49.43901" lon="-1.59075">
        <ele>43.770046</ele>
        <time>2021-09-05T09:47:26.000Z</time>
      </trkpt>
      <trkpt lat="49.43899" lon="-1.59052">
        <ele>44.099219</ele>
        <time>2021-09-05T09:47:29.000Z</time>
      </trkpt>
      <trkpt lat="49.43898" lon="-1.59044">
        <ele>44.216838</ele>
        <time>2021-09-05T09:47:30.000Z</time>
      </trkpt>
      <trkpt lat="49.43896" lon="-1.59028">
        <ele>44.440927</ele>
        <time>2021-09-05T09:47:32.000Z</time>
      </trkpt>
      <trkpt lat="49.43895" lon="-1.59021">
        <ele>44.544626</ele>
        <time>2021-09-05T09:47:33.000Z</time>
      </trkpt>
      <trkpt lat="49.43891" lon="-1.58988">
        <ele>45.024203</ele>
        <time>2021-09-05T09:47:38.000Z</time>
      </trkpt>
      <trkpt lat="49.43889" lon="-1.58973">
        <ele>45.232594</ele>
        <time>2021-09-05T09:47:40.000Z</time>
      </trkpt>
      <trkpt lat="49.43888" lon="-1.58958">
        <ele>45.449724</ele>
        <time>2021-09-05T09:47:42.000Z</time>
      </trkpt>
      <trkpt lat="49.43886" lon="-1.58943">
        <ele>45.675206</ele>
        <time>2021-09-05T09:47:44.000Z</time>
      </trkpt>
      <trkpt lat="49.43884" lon="-1.58928">
        <ele>45.889168</ele>
        <time>2021-09-05T09:47:46.000Z</time>
      </trkpt>
      <trkpt lat="49.43882" lon="-1.58913">
        <ele>46.096167</ele>
        <time>2021-09-05T09:47:48.000Z</time>
      </trkpt>
      <trkpt lat="49.43881" lon="-1.58899">
        <ele>46.307343</ele>
        <time>2021-09-05T09:47:50.000Z</time>
      </trkpt>
      <trkpt lat="49.43877" lon="-1.58865">
        <ele>46.790639</ele>
        <time>2021-09-05T09:47:55.000Z</time>
      </trkpt>
      <trkpt lat="49.43874" lon="-1.58842">
        <ele>47.24261</ele>
        <time>2021-09-05T09:47:59.000Z</time>
      </trkpt>
      <trkpt lat="49.4387" lon="-1.58809">
        <ele>47.891974</ele>
        <time>2021-09-05T09:48:04.000Z</time>
      </trkpt>
      <trkpt lat="49.43867" lon="-1.5878">
        <ele>48.470106</ele>
        <time>2021-09-05T09:48:09.000Z</time>
      </trkpt>
      <trkpt lat="49.43863" lon="-1.58746">
        <ele>49.142342</ele>
        <time>2021-09-05T09:48:15.000Z</time>
      </trkpt>
      <trkpt lat="49.43859" lon="-1.58711">
        <ele>49.818911</ele>
        <time>2021-09-05T09:48:21.000Z</time>
      </trkpt>
      <trkpt lat="49.43856" lon="-1.58684">
        <ele>50.355454</ele>
        <time>2021-09-05T09:48:26.000Z</time>
      </trkpt>
      <trkpt lat="49.43853" lon="-1.58658">
        <ele>50.869126</ele>
        <time>2021-09-05T09:48:31.000Z</time>
      </trkpt>
      <trkpt lat="49.4385" lon="-1.58635">
        <ele>51.329241</ele>
        <time>2021-09-05T09:48:35.000Z</time>
      </trkpt>
      <trkpt lat="49.43847" lon="-1.58603">
        <ele>51.944636</ele>
        <time>2021-09-05T09:48:40.000Z</time>
      </trkpt>
      <trkpt lat="49.43843" lon="-1.58574">
        <ele>52.495623</ele>
        <time>2021-09-05T09:48:45.000Z</time>
      </trkpt>
      <trkpt lat="49.43839" lon="-1.58538">
        <ele>53.14675</ele>
        <time>2021-09-05T09:48:51.000Z</time>
      </trkpt>
      <trkpt lat="49.43835" lon="-1.58504">
        <ele>53.766472</ele>
        <time>2021-09-05T09:48:56.000Z</time>
      </trkpt>
      <trkpt lat="49.43831" lon="-1.58474">
        <ele>54.304224</ele>
        <time>2021-09-05T09:49:01.000Z</time>
      </trkpt>
      <trkpt lat="49.43828" lon="-1.58446">
        <ele>54.817946</ele>
        <time>2021-09-05T09:49:07.000Z</time>
      </trkpt>
      <trkpt lat="49.43825" lon="-1.58423">
        <ele>55.238372</ele>
        <time>2021-09-05T09:49:11.000Z</time>
      </trkpt>
      <trkpt lat="49.43817" lon="-1.5839">
        <ele>55.870736</ele>
        <time>2021-09-05T09:49:17.000Z</time>
      </trkpt>
      <trkpt lat="49.43812" lon="-1.58364">
        <ele>56.348216</ele>
        <time>2021-09-05T09:49:22.000Z</time>
      </trkpt>
      <trkpt lat="49.43808" lon="-1.58349">
        <ele>56.64619</ele>
        <time>2021-09-05T09:49:26.000Z</time>
      </trkpt>
      <trkpt lat="49.43807" lon="-1.58345">
        <ele>56.717909</ele>
        <time>2021-09-05T09:49:27.000Z</time>
      </trkpt>
      <trkpt lat="49.43804" lon="-1.58332">
        <ele>56.97355</ele>
        <time>2021-09-05T09:49:30.000Z</time>
      </trkpt>
      <trkpt lat="49.43795" lon="-1.58303">
        <ele>56.996547</ele>
        <time>2021-09-05T09:49:35.000Z</time>
      </trkpt>
      <trkpt lat="49.43788" lon="-1.58278">
        <ele>56.923544</ele>
        <time>2021-09-05T09:49:40.000Z</time>
      </trkpt>
      <trkpt lat="49.4378" lon="-1.58249">
        <ele>56.840344</ele>
        <time>2021-09-05T09:49:45.000Z</time>
      </trkpt>
      <trkpt lat="49.43779" lon="-1.58244">
        <ele>56.824683</ele>
        <time>2021-09-05T09:49:46.000Z</time>
      </trkpt>
      <trkpt lat="49.43769" lon="-1.58216">
        <ele>56.739549</ele>
        <time>2021-09-05T09:49:51.000Z</time>
      </trkpt>
      <trkpt lat="49.43759" lon="-1.5819">
        <ele>56.661216</ele>
        <time>2021-09-05T09:49:55.000Z</time>
      </trkpt>
      <trkpt lat="49.43753" lon="-1.58177">
        <ele>56.618283</ele>
        <time>2021-09-05T09:49:57.000Z</time>
      </trkpt>
      <trkpt lat="49.43743" lon="-1.58151">
        <ele>56.537788</ele>
        <time>2021-09-05T09:50:01.000Z</time>
      </trkpt>
      <trkpt lat="49.43728" lon="-1.58116">
        <ele>56.426879</ele>
        <time>2021-09-05T09:50:06.000Z</time>
      </trkpt>
      <trkpt lat="49.43725" lon="-1.58109">
        <ele>56.404519</ele>
        <time>2021-09-05T09:50:07.000Z</time>
      </trkpt>
      <trkpt lat="49.43722" lon="-1.58103">
        <ele>56.383496</ele>
        <time>2021-09-05T09:50:08.000Z</time>
      </trkpt>
      <trkpt lat="49.43716" lon="-1.5809">
        <ele>56.341628</ele>
        <time>2021-09-05T09:50:10.000Z</time>
      </trkpt>
      <trkpt lat="49.4371" lon="-1.58078">
        <ele>56.152566</ele>
        <time>2021-09-05T09:50:12.000Z</time>
      </trkpt>
      <trkpt lat="49.43704" lon="-1.58065">
        <ele>55.902358</ele>
        <time>2021-09-05T09:50:14.000Z</time>
      </trkpt>
      <trkpt lat="49.43701" lon="-1.5806">
        <ele>55.787958</ele>
        <time>2021-09-05T09:50:15.000Z</time>
      </trkpt>
      <trkpt lat="49.43691" lon="-1.5804">
        <ele>55.382761</ele>
        <time>2021-09-05T09:50:20.000Z</time>
      </trkpt>
      <trkpt lat="49.43678" lon="-1.5802">
        <ele>54.936612</ele>
        <time>2021-09-05T09:50:25.000Z</time>
      </trkpt>
      <trkpt lat="49.43664" lon="-1.57997">
        <ele>54.425258</ele>
        <time>2021-09-05T09:50:30.000Z</time>
      </trkpt>
      <trkpt lat="49.43657" lon="-1.57989">
        <ele>54.228242</ele>
        <time>2021-09-05T09:50:32.000Z</time>
      </trkpt>
      <trkpt lat="49.43654" lon="-1.57984">
        <ele>54.102434</ele>
        <time>2021-09-05T09:50:33.000Z</time>
      </trkpt>
      <trkpt lat="49.43649" lon="-1.57978">
        <ele>53.961052</ele>
        <time>2021-09-05T09:50:34.000Z</time>
      </trkpt>
      <trkpt lat="49.43636" lon="-1.57961">
        <ele>53.532967</ele>
        <time>2021-09-05T09:50:37.000Z</time>
      </trkpt>
      <trkpt lat="49.43631" lon="-1.57955">
        <ele>53.39055</ele>
        <time>2021-09-05T09:50:38.000Z</time>
      </trkpt>
      <trkpt lat="49.43598" lon="-1.57912">
        <ele>52.320756</ele>
        <time>2021-09-05T09:50:45.000Z</time>
      </trkpt>
      <trkpt lat="49.4358" lon="-1.57888">
        <ele>51.6531</ele>
        <time>2021-09-05T09:50:49.000Z</time>
      </trkpt>
      <trkpt lat="49.43561" lon="-1.57863">
        <ele>50.797765</ele>
        <time>2021-09-05T09:50:53.000Z</time>
      </trkpt>
      <trkpt lat="49.43552" lon="-1.57851">
        <ele>50.400348</ele>
        <time>2021-09-05T09:50:55.000Z</time>
      </trkpt>
      <trkpt lat="49.43542" lon="-1.57839">
        <ele>49.971156</ele>
        <time>2021-09-05T09:50:57.000Z</time>
      </trkpt>
      <trkpt lat="49.43526" lon="-1.57822">
        <ele>49.31301</ele>
        <time>2021-09-05T09:51:00.000Z</time>
      </trkpt>
      <trkpt lat="49.43499" lon="-1.57792">
        <ele>48.186595</ele>
        <time>2021-09-05T09:51:05.000Z</time>
      </trkpt>
      <trkpt lat="49.43494" lon="-1.57786">
        <ele>47.972603</ele>
        <time>2021-09-05T09:51:06.000Z</time>
      </trkpt>
      <trkpt lat="49.43463" lon="-1.57751">
        <ele>46.659052</ele>
        <time>2021-09-05T09:51:12.000Z</time>
      </trkpt>
      <trkpt lat="49.4343" lon="-1.57714">
        <ele>45.245129</ele>
        <time>2021-09-05T09:51:19.000Z</time>
      </trkpt>
      <trkpt lat="49.43398" lon="-1.57679">
        <ele>43.848204</ele>
        <time>2021-09-05T09:51:25.000Z</time>
      </trkpt>
      <trkpt lat="49.43371" lon="-1.57648">
        <ele>42.614009</ele>
        <time>2021-09-05T09:51:30.000Z</time>
      </trkpt>
      <trkpt lat="49.43365" lon="-1.57641">
        <ele>42.364321</ele>
        <time>2021-09-05T09:51:31.000Z</time>
      </trkpt>
      <trkpt lat="49.43338" lon="-1.57611">
        <ele>41.141451</ele>
        <time>2021-09-05T09:51:36.000Z</time>
      </trkpt>
      <trkpt lat="49.43332" lon="-1.57605">
        <ele>40.905999</ele>
        <time>2021-09-05T09:51:37.000Z</time>
      </trkpt>
      <trkpt lat="49.4329" lon="-1.57558">
        <ele>39.156304</ele>
        <time>2021-09-05T09:51:45.000Z</time>
      </trkpt>
      <trkpt lat="49.43247" lon="-1.57509">
        <ele>38.030247</ele>
        <time>2021-09-05T09:51:53.000Z</time>
      </trkpt>
      <trkpt lat="49.43242" lon="-1.57503">
        <ele>37.88783</ele>
        <time>2021-09-05T09:51:54.000Z</time>
      </trkpt>
      <trkpt lat="49.43226" lon="-1.57485">
        <ele>37.47064</ele>
        <time>2021-09-05T09:51:57.000Z</time>
      </trkpt>
      <trkpt lat="49.43204" lon="-1.5746">
        <ele>36.90097</ele>
        <time>2021-09-05T09:52:01.000Z</time>
      </trkpt>
      <trkpt lat="49.43199" lon="-1.57454">
        <ele>36.753521</ele>
        <time>2021-09-05T09:52:02.000Z</time>
      </trkpt>
      <trkpt lat="49.43188" lon="-1.57441">
        <ele>36.460316</ele>
        <time>2021-09-05T09:52:04.000Z</time>
      </trkpt>
      <trkpt lat="49.4316" lon="-1.57409">
        <ele>35.724764</ele>
        <time>2021-09-05T09:52:09.000Z</time>
      </trkpt>
      <trkpt lat="49.43128" lon="-1.57371">
        <ele>34.642185</ele>
        <time>2021-09-05T09:52:15.000Z</time>
      </trkpt>
      <trkpt lat="49.431" lon="-1.5734">
        <ele>33.659512</ele>
        <time>2021-09-05T09:52:20.000Z</time>
      </trkpt>
      <trkpt lat="49.43077" lon="-1.57314">
        <ele>32.85964</ele>
        <time>2021-09-05T09:52:24.000Z</time>
      </trkpt>
      <trkpt lat="49.43072" lon="-1.57308">
        <ele>32.671235</ele>
        <time>2021-09-05T09:52:25.000Z</time>
      </trkpt>
      <trkpt lat="49.43039" lon="-1.57269">
        <ele>31.484388</ele>
        <time>2021-09-05T09:52:31.000Z</time>
      </trkpt>
      <trkpt lat="49.43033" lon="-1.57263">
        <ele>31.299371</ele>
        <time>2021-09-05T09:52:32.000Z</time>
      </trkpt>
      <trkpt lat="49.43022" lon="-1.57251">
        <ele>30.909009</ele>
        <time>2021-09-05T09:52:34.000Z</time>
      </trkpt>
      <trkpt lat="49.43001" lon="-1.57226">
        <ele>30.234656</ele>
        <time>2021-09-05T09:52:38.000Z</time>
      </trkpt>
      <trkpt lat="49.42995" lon="-1.57219">
        <ele>30.112885</ele>
        <time>2021-09-05T09:52:39.000Z</time>
      </trkpt>
      <trkpt lat="49.42984" lon="-1.57207">
        <ele>29.86647</ele>
        <time>2021-09-05T09:52:41.000Z</time>
      </trkpt>
      <trkpt lat="49.42962" lon="-1.57181">
        <ele>29.372941</ele>
        <time>2021-09-05T09:52:45.000Z</time>
      </trkpt>
      <trkpt lat="49.42928" lon="-1.57142">
        <ele>28.598821</ele>
        <time>2021-09-05T09:52:51.000Z</time>
      </trkpt>
      <trkpt lat="49.42884" lon="-1.57091">
        <ele>27.613196</ele>
        <time>2021-09-05T09:52:59.000Z</time>
      </trkpt>
      <trkpt lat="49.42873" lon="-1.57079">
        <ele>27.372493</ele>
        <time>2021-09-05T09:53:01.000Z</time>
      </trkpt>
      <trkpt lat="49.42826" lon="-1.57024">
        <ele>27.000148</ele>
        <time>2021-09-05T09:53:10.000Z</time>
      </trkpt>
      <trkpt lat="49.4281" lon="-1.57006">
        <ele>26.92622</ele>
        <time>2021-09-05T09:53:14.000Z</time>
      </trkpt>
      <trkpt lat="49.42802" lon="-1.56994">
        <ele>26.883317</ele>
        <time>2021-09-05T09:53:19.000Z</time>
      </trkpt>
      <trkpt lat="49.42805" lon="-1.56981">
        <ele>26.850869</ele>
        <time>2021-09-05T09:53:23.000Z</time>
      </trkpt>
      <trkpt lat="49.4281" lon="-1.56952">
        <ele>26.777233</ele>
        <time>2021-09-05T09:53:28.000Z</time>
      </trkpt>
      <trkpt lat="49.42818" lon="-1.56908">
        <ele>26.664155</ele>
        <time>2021-09-05T09:53:34.000Z</time>
      </trkpt>
      <trkpt lat="49.42828" lon="-1.56854">
        <ele>26.527258</ele>
        <time>2021-09-05T09:53:41.000Z</time>
      </trkpt>
      <trkpt lat="49.4283" lon="-1.56829">
        <ele>26.564094</ele>
        <time>2021-09-05T09:53:45.000Z</time>
      </trkpt>
      <trkpt lat="49.4283" lon="-1.56804">
        <ele>26.657928</ele>
        <time>2021-09-05T09:53:47.000Z</time>
      </trkpt>
      <trkpt lat="49.42825" lon="-1.56744">
        <ele>26.886573</ele>
        <time>2021-09-05T09:53:54.000Z</time>
      </trkpt>
      <trkpt lat="49.42824" lon="-1.56685">
        <ele>27.10426</ele>
        <time>2021-09-05T09:54:01.000Z</time>
      </trkpt>
      <trkpt lat="49.42825" lon="-1.56629">
        <ele>27.316063</ele>
        <time>2021-09-05T09:54:08.000Z</time>
      </trkpt>
      <trkpt lat="49.42827" lon="-1.56568">
        <ele>27.54866</ele>
        <time>2021-09-05T09:54:16.000Z</time>
      </trkpt>
      <trkpt lat="49.42828" lon="-1.56541">
        <ele>27.752048</ele>
        <time>2021-09-05T09:54:20.000Z</time>
      </trkpt>
      <trkpt lat="49.42829" lon="-1.56521">
        <ele>27.900279</ele>
        <time>2021-09-05T09:54:23.000Z</time>
      </trkpt>
      <trkpt lat="49.42829" lon="-1.56521">
        <ele>27.900279</ele>
        <time>2021-09-05T09:54:24.000Z</time>
      </trkpt>
      <trkpt lat="49.42832" lon="-1.56503">
        <ele>28.034685</ele>
        <time>2021-09-05T09:54:27.000Z</time>
      </trkpt>
      <trkpt lat="49.42835" lon="-1.56486">
        <ele>28.16782</ele>
        <time>2021-09-05T09:54:31.000Z</time>
      </trkpt>
      <trkpt lat="49.42844" lon="-1.56444">
        <ele>28.496612</ele>
        <time>2021-09-05T09:54:38.000Z</time>
      </trkpt>
      <trkpt lat="49.42852" lon="-1.56406">
        <ele>28.790696</ele>
        <time>2021-09-05T09:54:44.000Z</time>
      </trkpt>
      <trkpt lat="49.42863" lon="-1.56355">
        <ele>29.192004</ele>
        <time>2021-09-05T09:54:51.000Z</time>
      </trkpt>
      <trkpt lat="49.42877" lon="-1.56288">
        <ele>29.561986</ele>
        <time>2021-09-05T09:55:00.000Z</time>
      </trkpt>
      <trkpt lat="49.42891" lon="-1.56235">
        <ele>29.432948</ele>
        <time>2021-09-05T09:55:07.000Z</time>
      </trkpt>
      <trkpt lat="49.42908" lon="-1.56174">
        <ele>29.282558</ele>
        <time>2021-09-05T09:55:14.000Z</time>
      </trkpt>
      <trkpt lat="49.42925" lon="-1.56118">
        <ele>29.143092</ele>
        <time>2021-09-05T09:55:20.000Z</time>
      </trkpt>
      <trkpt lat="49.42937" lon="-1.56088">
        <ele>29.063361</ele>
        <time>2021-09-05T09:55:23.000Z</time>
      </trkpt>
      <trkpt lat="49.42947" lon="-1.56067">
        <ele>29.005097</ele>
        <time>2021-09-05T09:55:25.000Z</time>
      </trkpt>
      <trkpt lat="49.42979" lon="-1.56008">
        <ele>28.343013</ele>
        <time>2021-09-05T09:55:31.000Z</time>
      </trkpt>
      <trkpt lat="49.43009" lon="-1.55934">
        <ele>27.467822</ele>
        <time>2021-09-05T09:55:38.000Z</time>
      </trkpt>
      <trkpt lat="49.43035" lon="-1.55857">
        <ele>26.596296</ele>
        <time>2021-09-05T09:55:45.000Z</time>
      </trkpt>
      <trkpt lat="49.43038" lon="-1.55846">
        <ele>26.469696</ele>
        <time>2021-09-05T09:55:46.000Z</time>
      </trkpt>
      <trkpt lat="49.43059" lon="-1.55758">
        <ele>25.780068</ele>
        <time>2021-09-05T09:55:54.000Z</time>
      </trkpt>
      <trkpt lat="49.43071" lon="-1.55703">
        <ele>25.415598</ele>
        <time>2021-09-05T09:56:00.000Z</time>
      </trkpt>
      <trkpt lat="49.43075" lon="-1.55688">
        <ele>25.313419</ele>
        <time>2021-09-05T09:56:02.000Z</time>
      </trkpt>
      <trkpt lat="49.4307" lon="-1.55674">
        <ele>25.218319</ele>
        <time>2021-09-05T09:56:04.000Z</time>
      </trkpt>
      <trkpt lat="49.43056" lon="-1.55681">
        <ele>25.076823</ele>
        <time>2021-09-05T09:56:07.000Z</time>
      </trkpt>
      <trkpt lat="49.43026" lon="-1.55697">
        <ele>24.769452</ele>
        <time>2021-09-05T09:56:13.000Z</time>
      </trkpt>
      <trkpt lat="49.42981" lon="-1.55715">
        <ele>24.307413</ele>
        <time>2021-09-05T09:56:21.000Z</time>
      </trkpt>
      <trkpt lat="49.42948" lon="-1.55712">
        <ele>23.943141</ele>
        <time>2021-09-05T09:56:26.000Z</time>
      </trkpt>
      <trkpt lat="49.42912" lon="-1.55705">
        <ele>23.544567</ele>
        <time>2021-09-05T09:56:31.000Z</time>
      </trkpt>
      <trkpt lat="49.42863" lon="-1.55689">
        <ele>22.996993</ele>
        <time>2021-09-05T09:56:38.000Z</time>
      </trkpt>
      <trkpt lat="49.42843" lon="-1.5568">
        <ele>22.771898</ele>
        <time>2021-09-05T09:56:41.000Z</time>
      </trkpt>
      <trkpt lat="49.4283" lon="-1.55675">
        <ele>22.623946</ele>
        <time>2021-09-05T09:56:43.000Z</time>
      </trkpt>
      <trkpt lat="49.42811" lon="-1.55664">
        <ele>22.402676</ele>
        <time>2021-09-05T09:56:46.000Z</time>
      </trkpt>
      <trkpt lat="49.42806" lon="-1.55659">
        <ele>22.340994</ele>
        <time>2021-09-05T09:56:47.000Z</time>
      </trkpt>
      <trkpt lat="49.42804" lon="-1.5565">
        <ele>22.277862</ele>
        <time>2021-09-05T09:56:48.000Z</time>
      </trkpt>
      <trkpt lat="49.42804" lon="-1.5564">
        <ele>22.211011</ele>
        <time>2021-09-05T09:56:49.000Z</time>
      </trkpt>
      <trkpt lat="49.4281" lon="-1.55583">
        <ele>21.826399</ele>
        <time>2021-09-05T09:56:55.000Z</time>
      </trkpt>
      <trkpt lat="49.42806" lon="-1.55556">
        <ele>21.643328</ele>
        <time>2021-09-05T09:56:58.000Z</time>
      </trkpt>
      <trkpt lat="49.42803" lon="-1.55539">
        <ele>21.527779</ele>
        <time>2021-09-05T09:57:00.000Z</time>
      </trkpt>
      <trkpt lat="49.42796" lon="-1.55515">
        <ele>21.35184</ele>
        <time>2021-09-05T09:57:03.000Z</time>
      </trkpt>
      <trkpt lat="49.4279" lon="-1.55499">
        <ele>21.231371</ele>
        <time>2021-09-05T09:57:05.000Z</time>
      </trkpt>
      <trkpt lat="49.42774" lon="-1.55469">
        <ele>20.970528</ele>
        <time>2021-09-05T09:57:09.000Z</time>
      </trkpt>
      <trkpt lat="49.42772" lon="-1.55464">
        <ele>20.930955</ele>
        <time>2021-09-05T09:57:10.000Z</time>
      </trkpt>
      <trkpt lat="49.42764" lon="-1.55455">
        <ele>20.832759</ele>
        <time>2021-09-05T09:57:11.000Z</time>
      </trkpt>
      <trkpt lat="49.42753" lon="-1.55443">
        <ele>20.696419</ele>
        <time>2021-09-05T09:57:13.000Z</time>
      </trkpt>
      <trkpt lat="49.42722" lon="-1.55402">
        <ele>20.170902</ele>
        <time>2021-09-05T09:57:19.000Z</time>
      </trkpt>
      <trkpt lat="49.42715" lon="-1.55397">
        <ele>20.077962</ele>
        <time>2021-09-05T09:57:20.000Z</time>
      </trkpt>
      <trkpt lat="49.42702" lon="-1.55393">
        <ele>19.897298</ele>
        <time>2021-09-05T09:57:22.000Z</time>
      </trkpt>
      <trkpt lat="49.4265" lon="-1.55378">
        <ele>19.220379</ele>
        <time>2021-09-05T09:57:29.000Z</time>
      </trkpt>
      <trkpt lat="49.42599" lon="-1.55364">
        <ele>18.54495</ele>
        <time>2021-09-05T09:57:36.000Z</time>
      </trkpt>
      <trkpt lat="49.4256" lon="-1.55343">
        <ele>17.996088</ele>
        <time>2021-09-05T09:57:42.000Z</time>
      </trkpt>
      <trkpt lat="49.42554" lon="-1.55336">
        <ele>17.905799</ele>
        <time>2021-09-05T09:57:43.000Z</time>
      </trkpt>
      <trkpt lat="49.42544" lon="-1.55322">
        <ele>17.720871</ele>
        <time>2021-09-05T09:57:45.000Z</time>
      </trkpt>
      <trkpt lat="49.4253" lon="-1.55286">
        <ele>17.359738</ele>
        <time>2021-09-05T09:57:49.000Z</time>
      </trkpt>
      <trkpt lat="49.42521" lon="-1.55272">
        <ele>17.198008</ele>
        <time>2021-09-05T09:57:51.000Z</time>
      </trkpt>
      <trkpt lat="49.42516" lon="-1.55267">
        <ele>17.114789</ele>
        <time>2021-09-05T09:57:52.000Z</time>
      </trkpt>
      <trkpt lat="49.42504" lon="-1.55261">
        <ele>16.954146</ele>
        <time>2021-09-05T09:57:54.000Z</time>
      </trkpt>
      <trkpt lat="49.42492" lon="-1.55259">
        <ele>16.789797</ele>
        <time>2021-09-05T09:57:56.000Z</time>
      </trkpt>
      <trkpt lat="49.42437" lon="-1.55252">
        <ele>16.068987</ele>
        <time>2021-09-05T09:58:05.000Z</time>
      </trkpt>
      <trkpt lat="49.4239" lon="-1.55256">
        <ele>15.943553</ele>
        <time>2021-09-05T09:58:13.000Z</time>
      </trkpt>
      <trkpt lat="49.42354" lon="-1.5526">
        <ele>15.945976</ele>
        <time>2021-09-05T09:58:20.000Z</time>
      </trkpt>
      <trkpt lat="49.42326" lon="-1.55265">
        <ele>15.947815</ele>
        <time>2021-09-05T09:58:26.000Z</time>
      </trkpt>
      <trkpt lat="49.42322" lon="-1.55266">
        <ele>15.948095</ele>
        <time>2021-09-05T09:58:27.000Z</time>
      </trkpt>
      <trkpt lat="49.42315" lon="-1.55262">
        <ele>15.948573</ele>
        <time>2021-09-05T09:58:28.000Z</time>
      </trkpt>
      <trkpt lat="49.42312" lon="-1.5525">
        <ele>15.949139</ele>
        <time>2021-09-05T09:58:30.000Z</time>
      </trkpt>
      <trkpt lat="49.42299" lon="-1.55202">
        <ele>15.951369</ele>
        <time>2021-09-05T09:58:38.000Z</time>
      </trkpt>
      <trkpt lat="49.42282" lon="-1.55133">
        <ele>16.156554</ele>
        <time>2021-09-05T09:58:47.000Z</time>
      </trkpt>
      <trkpt lat="49.42266" lon="-1.55076">
        <ele>16.4964</ele>
        <time>2021-09-05T09:58:55.000Z</time>
      </trkpt>
      <trkpt lat="49.42252" lon="-1.55029">
        <ele>16.780983</ele>
        <time>2021-09-05T09:59:02.000Z</time>
      </trkpt>
      <trkpt lat="49.42238" lon="-1.54981">
        <ele>17.073294</ele>
        <time>2021-09-05T09:59:10.000Z</time>
      </trkpt>
      <trkpt lat="49.42233" lon="-1.5496">
        <ele>17.200378</ele>
        <time>2021-09-05T09:59:12.000Z</time>
      </trkpt>
      <trkpt lat="49.42227" lon="-1.54929">
        <ele>17.37775</ele>
        <time>2021-09-05T09:59:16.000Z</time>
      </trkpt>
      <trkpt lat="49.42219" lon="-1.54865">
        <ele>17.682998</ele>
        <time>2021-09-05T09:59:24.000Z</time>
      </trkpt>
      <trkpt lat="49.42218" lon="-1.54857">
        <ele>17.719149</ele>
        <time>2021-09-05T09:59:25.000Z</time>
      </trkpt>
      <trkpt lat="49.42211" lon="-1.54801">
        <ele>17.972007</ele>
        <time>2021-09-05T09:59:32.000Z</time>
      </trkpt>
      <trkpt lat="49.42201" lon="-1.54725">
        <ele>18.311112</ele>
        <time>2021-09-05T09:59:41.000Z</time>
      </trkpt>
      <trkpt lat="49.42192" lon="-1.54657">
        <ele>18.615969</ele>
        <time>2021-09-05T09:59:49.000Z</time>
      </trkpt>
      <trkpt lat="49.42184" lon="-1.54585">
        <ele>18.830083</ele>
        <time>2021-09-05T09:59:57.000Z</time>
      </trkpt>
      <trkpt lat="49.4218" lon="-1.5451">
        <ele>19.015394</ele>
        <time>2021-09-05T10:00:05.000Z</time>
      </trkpt>
      <trkpt lat="49.42172" lon="-1.54426">
        <ele>19.222657</ele>
        <time>2021-09-05T10:00:14.000Z</time>
      </trkpt>
      <trkpt lat="49.42168" lon="-1.54399">
        <ele>19.289668</ele>
        <time>2021-09-05T10:00:17.000Z</time>
      </trkpt>
      <trkpt lat="49.42162" lon="-1.54374">
        <ele>19.354004</ele>
        <time>2021-09-05T10:00:20.000Z</time>
      </trkpt>
      <trkpt lat="49.42147" lon="-1.54305">
        <ele>19.47893</ele>
        <time>2021-09-05T10:00:28.000Z</time>
      </trkpt>
      <trkpt lat="49.42142" lon="-1.54269">
        <ele>19.538889</ele>
        <time>2021-09-05T10:00:32.000Z</time>
      </trkpt>
      <trkpt lat="49.42142" lon="-1.54259">
        <ele>19.554498</ele>
        <time>2021-09-05T10:00:33.000Z</time>
      </trkpt>
      <trkpt lat="49.42142" lon="-1.54195">
        <ele>19.659536</ele>
        <time>2021-09-05T10:00:40.000Z</time>
      </trkpt>
      <trkpt lat="49.42151" lon="-1.54142">
        <ele>19.747527</ele>
        <time>2021-09-05T10:00:46.000Z</time>
      </trkpt>
      <trkpt lat="49.42162" lon="-1.5411">
        <ele>19.806374</ele>
        <time>2021-09-05T10:00:50.000Z</time>
      </trkpt>
      <trkpt lat="49.42163" lon="-1.54098">
        <ele>19.816785</ele>
        <time>2021-09-05T10:00:51.000Z</time>
      </trkpt>
      <trkpt lat="49.42158" lon="-1.54093">
        <ele>19.807234</ele>
        <time>2021-09-05T10:00:52.000Z</time>
      </trkpt>
      <trkpt lat="49.42149" lon="-1.54082">
        <ele>19.785561</ele>
        <time>2021-09-05T10:00:54.000Z</time>
      </trkpt>
      <trkpt lat="49.42129" lon="-1.54061">
        <ele>19.742477</ele>
        <time>2021-09-05T10:00:58.000Z</time>
      </trkpt>
      <trkpt lat="49.42123" lon="-1.54059">
        <ele>19.730478</ele>
        <time>2021-09-05T10:00:59.000Z</time>
      </trkpt>
      <trkpt lat="49.42117" lon="-1.54061">
        <ele>19.718876</ele>
        <time>2021-09-05T10:01:00.000Z</time>
      </trkpt>
      <trkpt lat="49.42106" lon="-1.54071">
        <ele>19.696054</ele>
        <time>2021-09-05T10:01:02.000Z</time>
      </trkpt>
      <trkpt lat="49.42086" lon="-1.54091">
        <ele>19.65349</ele>
        <time>2021-09-05T10:01:06.000Z</time>
      </trkpt>
      <trkpt lat="49.42081" lon="-1.54091">
        <ele>19.643712</ele>
        <time>2021-09-05T10:01:07.000Z</time>
      </trkpt>
      <trkpt lat="49.42075" lon="-1.54091">
        <ele>19.632852</ele>
        <time>2021-09-05T10:01:08.000Z</time>
      </trkpt>
      <trkpt lat="49.42057" lon="-1.54085">
        <ele>19.600371</ele>
        <time>2021-09-05T10:01:11.000Z</time>
      </trkpt>
      <trkpt lat="49.42046" lon="-1.54081">
        <ele>19.579205</ele>
        <time>2021-09-05T10:01:13.000Z</time>
      </trkpt>
      <trkpt lat="49.42041" lon="-1.54074">
        <ele>19.568108</ele>
        <time>2021-09-05T10:01:14.000Z</time>
      </trkpt>
      <trkpt lat="49.42042" lon="-1.54066">
        <ele>19.558391</ele>
        <time>2021-09-05T10:01:15.000Z</time>
      </trkpt>
      <trkpt lat="49.42043" lon="-1.54046">
        <ele>19.534624</ele>
        <time>2021-09-05T10:01:17.000Z</time>
      </trkpt>
      <trkpt lat="49.42041" lon="-1.54005">
        <ele>19.445481</ele>
        <time>2021-09-05T10:01:22.000Z</time>
      </trkpt>
      <trkpt lat="49.42033" lon="-1.53923">
        <ele>18.916254</ele>
        <time>2021-09-05T10:01:29.000Z</time>
      </trkpt>
      <trkpt lat="49.42027" lon="-1.53869">
        <ele>18.567123</ele>
        <time>2021-09-05T10:01:35.000Z</time>
      </trkpt>
      <trkpt lat="49.42025" lon="-1.53847">
        <ele>18.421966</ele>
        <time>2021-09-05T10:01:36.000Z</time>
      </trkpt>
      <trkpt lat="49.42021" lon="-1.53782">
        <ele>18.008298</ele>
        <time>2021-09-05T10:01:42.000Z</time>
      </trkpt>
      <trkpt lat="49.42021" lon="-1.5376">
        <ele>17.866009</ele>
        <time>2021-09-05T10:01:44.000Z</time>
      </trkpt>
      <trkpt lat="49.4203" lon="-1.53702">
        <ele>17.422483</ele>
        <time>2021-09-05T10:01:49.000Z</time>
      </trkpt>
      <trkpt lat="49.42041" lon="-1.53647">
        <ele>16.951342</ele>
        <time>2021-09-05T10:01:55.000Z</time>
      </trkpt>
      <trkpt lat="49.42047" lon="-1.53614">
        <ele>16.668192</ele>
        <time>2021-09-05T10:01:57.000Z</time>
      </trkpt>
      <trkpt lat="49.42044" lon="-1.53588">
        <ele>16.45408</ele>
        <time>2021-09-05T10:01:59.000Z</time>
      </trkpt>
      <trkpt lat="49.42023" lon="-1.53577">
        <ele>16.16924</ele>
        <time>2021-09-05T10:02:02.000Z</time>
      </trkpt>
      <trkpt lat="49.41972" lon="-1.53539">
        <ele>15.456617</ele>
        <time>2021-09-05T10:02:09.000Z</time>
      </trkpt>
      <trkpt lat="49.41922" lon="-1.53505">
        <ele>14.624657</ele>
        <time>2021-09-05T10:02:16.000Z</time>
      </trkpt>
      <trkpt lat="49.41915" lon="-1.535">
        <ele>14.509119</ele>
        <time>2021-09-05T10:02:17.000Z</time>
      </trkpt>
      <trkpt lat="49.41863" lon="-1.53458">
        <ele>13.616695</ele>
        <time>2021-09-05T10:02:25.000Z</time>
      </trkpt>
      <trkpt lat="49.41843" lon="-1.53429">
        <ele>13.199427</ele>
        <time>2021-09-05T10:02:30.000Z</time>
      </trkpt>
      <trkpt lat="49.41823" lon="-1.53378">
        <ele>12.63759</ele>
        <time>2021-09-05T10:02:35.000Z</time>
      </trkpt>
      <trkpt lat="49.41804" lon="-1.53313">
        <ele>12.100395</ele>
        <time>2021-09-05T10:02:42.000Z</time>
      </trkpt>
      <trkpt lat="49.41789" lon="-1.53269">
        <ele>11.719854</ele>
        <time>2021-09-05T10:02:47.000Z</time>
      </trkpt>
      <trkpt lat="49.41785" lon="-1.53261">
        <ele>11.640769</ele>
        <time>2021-09-05T10:02:48.000Z</time>
      </trkpt>
      <trkpt lat="49.4178" lon="-1.53255">
        <ele>11.563333</ele>
        <time>2021-09-05T10:02:49.000Z</time>
      </trkpt>
      <trkpt lat="49.41768" lon="-1.53246">
        <ele>11.405678</ele>
        <time>2021-09-05T10:02:51.000Z</time>
      </trkpt>
      <trkpt lat="49.41761" lon="-1.53244">
        <ele>11.32609</ele>
        <time>2021-09-05T10:02:53.000Z</time>
      </trkpt>
      <trkpt lat="49.41741" lon="-1.53247">
        <ele>11.093734</ele>
        <time>2021-09-05T10:02:55.000Z</time>
      </trkpt>
      <trkpt lat="49.41698" lon="-1.53264">
        <ele>10.618363</ele>
        <time>2021-09-05T10:03:02.000Z</time>
      </trkpt>
      <trkpt lat="49.41649" lon="-1.53285">
        <ele>10.505229</ele>
        <time>2021-09-05T10:03:10.000Z</time>
      </trkpt>
      <trkpt lat="49.41602" lon="-1.53305">
        <ele>10.396673</ele>
        <time>2021-09-05T10:03:18.000Z</time>
      </trkpt>
      <trkpt lat="49.41563" lon="-1.53321">
        <ele>10.307648</ele>
        <time>2021-09-05T10:03:25.000Z</time>
      </trkpt>
      <trkpt lat="49.41532" lon="-1.53333">
        <ele>10.237185</ele>
        <time>2021-09-05T10:03:31.000Z</time>
      </trkpt>
      <trkpt lat="49.41528" lon="-1.53335">
        <ele>10.246278</ele>
        <time>2021-09-05T10:03:32.000Z</time>
      </trkpt>
      <trkpt lat="49.41515" lon="-1.53341">
        <ele>10.357081</ele>
        <time>2021-09-05T10:03:36.000Z</time>
      </trkpt>
      <trkpt lat="49.41512" lon="-1.53342">
        <ele>10.378158</ele>
        <time>2021-09-05T10:03:37.000Z</time>
      </trkpt>
      <trkpt lat="49.41503" lon="-1.53346">
        <ele>10.457741</ele>
        <time>2021-09-05T10:03:40.000Z</time>
      </trkpt>
      <trkpt lat="49.41491" lon="-1.53351">
        <ele>10.555255</ele>
        <time>2021-09-05T10:03:45.000Z</time>
      </trkpt>
      <trkpt lat="49.4149" lon="-1.53352">
        <ele>10.567442</ele>
        <time>2021-09-05T10:03:46.000Z</time>
      </trkpt>
      <trkpt lat="49.41488" lon="-1.53352">
        <ele>10.580232</ele>
        <time>2021-09-05T10:03:47.000Z</time>
      </trkpt>
      <trkpt lat="49.41482" lon="-1.53356">
        <ele>10.632997</ele>
        <time>2021-09-05T10:03:50.000Z</time>
      </trkpt>
      <trkpt lat="49.41476" lon="-1.53359">
        <ele>10.686532</ele>
        <time>2021-09-05T10:03:55.000Z</time>
      </trkpt>
      <trkpt lat="49.41472" lon="-1.53361">
        <ele>10.720249</ele>
        <time>2021-09-05T10:04:09.000Z</time>
      </trkpt>
      <trkpt lat="49.41457" lon="-1.53369">
        <ele>10.848853</ele>
        <time>2021-09-05T10:04:14.000Z</time>
      </trkpt>
      <trkpt lat="49.41432" lon="-1.53382">
        <ele>11.063938</ele>
        <time>2021-09-05T10:04:20.000Z</time>
      </trkpt>
      <trkpt lat="49.4142" lon="-1.53389">
        <ele>11.175384</ele>
        <time>2021-09-05T10:04:23.000Z</time>
      </trkpt>
      <trkpt lat="49.41406" lon="-1.53397">
        <ele>11.296354</ele>
        <time>2021-09-05T10:04:26.000Z</time>
      </trkpt>
      <trkpt lat="49.41376" lon="-1.5341">
        <ele>11.544548</ele>
        <time>2021-09-05T10:04:32.000Z</time>
      </trkpt>
      <trkpt lat="49.41342" lon="-1.53429">
        <ele>11.810579</ele>
        <time>2021-09-05T10:04:39.000Z</time>
      </trkpt>
      <trkpt lat="49.41309" lon="-1.53458">
        <ele>12.054793</ele>
        <time>2021-09-05T10:04:46.000Z</time>
      </trkpt>
      <trkpt lat="49.41263" lon="-1.53495">
        <ele>12.389189</ele>
        <time>2021-09-05T10:04:55.000Z</time>
      </trkpt>
      <trkpt lat="49.41228" lon="-1.53511">
        <ele>12.62301</ele>
        <time>2021-09-05T10:05:02.000Z</time>
      </trkpt>
      <trkpt lat="49.41203" lon="-1.53515">
        <ele>12.782952</ele>
        <time>2021-09-05T10:05:05.000Z</time>
      </trkpt>
      <trkpt lat="49.41184" lon="-1.53515">
        <ele>12.876676</ele>
        <time>2021-09-05T10:05:08.000Z</time>
      </trkpt>
      <trkpt lat="49.41146" lon="-1.53512">
        <ele>13.000909</ele>
        <time>2021-09-05T10:05:14.000Z</time>
      </trkpt>
      <trkpt lat="49.41114" lon="-1.53505">
        <ele>13.105848</ele>
        <time>2021-09-05T10:05:19.000Z</time>
      </trkpt>
      <trkpt lat="49.41063" lon="-1.53493">
        <ele>13.275476</ele>
        <time>2021-09-05T10:05:27.000Z</time>
      </trkpt>
      <trkpt lat="49.41025" lon="-1.53475">
        <ele>13.406399</ele>
        <time>2021-09-05T10:05:33.000Z</time>
      </trkpt>
      <trkpt lat="49.40988" lon="-1.53453">
        <ele>13.564092</ele>
        <time>2021-09-05T10:05:40.000Z</time>
      </trkpt>
      <trkpt lat="49.40968" lon="-1.53434">
        <ele>13.665514</ele>
        <time>2021-09-05T10:05:45.000Z</time>
      </trkpt>
      <trkpt lat="49.40964" lon="-1.5343">
        <ele>13.685237</ele>
        <time>2021-09-05T10:05:46.000Z</time>
      </trkpt>
      <trkpt lat="49.40952" lon="-1.53409">
        <ele>13.763986</ele>
        <time>2021-09-05T10:05:51.000Z</time>
      </trkpt>
      <trkpt lat="49.40943" lon="-1.5339">
        <ele>13.829553</ele>
        <time>2021-09-05T10:05:55.000Z</time>
      </trkpt>
      <trkpt lat="49.40939" lon="-1.53379">
        <ele>13.866267</ele>
        <time>2021-09-05T10:05:57.000Z</time>
      </trkpt>
      <trkpt lat="49.40936" lon="-1.53373">
        <ele>13.884975</ele>
        <time>2021-09-05T10:05:58.000Z</time>
      </trkpt>
      <trkpt lat="49.40927" lon="-1.53351">
        <ele>13.960276</ele>
        <time>2021-09-05T10:06:02.000Z</time>
      </trkpt>
      <trkpt lat="49.40915" lon="-1.53323">
        <ele>14.051711</ele>
        <time>2021-09-05T10:06:07.000Z</time>
      </trkpt>
      <trkpt lat="49.40912" lon="-1.53317">
        <ele>14.071121</ele>
        <time>2021-09-05T10:06:08.000Z</time>
      </trkpt>
      <trkpt lat="49.409" lon="-1.53288">
        <ele>14.17051</ele>
        <time>2021-09-05T10:06:13.000Z</time>
      </trkpt>
      <trkpt lat="49.40888" lon="-1.5326">
        <ele>14.4784</ele>
        <time>2021-09-05T10:06:18.000Z</time>
      </trkpt>
      <trkpt lat="49.40877" lon="-1.53235">
        <ele>14.911205</ele>
        <time>2021-09-05T10:06:23.000Z</time>
      </trkpt>
      <trkpt lat="49.40869" lon="-1.53216">
        <ele>15.227492</ele>
        <time>2021-09-05T10:06:27.000Z</time>
      </trkpt>
      <trkpt lat="49.40858" lon="-1.53191">
        <ele>15.661499</ele>
        <time>2021-09-05T10:06:32.000Z</time>
      </trkpt>
      <trkpt lat="49.40856" lon="-1.53186">
        <ele>15.738791</ele>
        <time>2021-09-05T10:06:33.000Z</time>
      </trkpt>
      <trkpt lat="49.40852" lon="-1.53177">
        <ele>15.896934</ele>
        <time>2021-09-05T10:06:35.000Z</time>
      </trkpt>
      <trkpt lat="49.40842" lon="-1.53153">
        <ele>16.303593</ele>
        <time>2021-09-05T10:06:40.000Z</time>
      </trkpt>
      <trkpt lat="49.40833" lon="-1.53133">
        <ele>16.641278</ele>
        <time>2021-09-05T10:06:44.000Z</time>
      </trkpt>
      <trkpt lat="49.40827" lon="-1.53118">
        <ele>16.904118</ele>
        <time>2021-09-05T10:06:47.000Z</time>
      </trkpt>
      <trkpt lat="49.40822" lon="-1.53108">
        <ele>17.068526</ele>
        <time>2021-09-05T10:06:49.000Z</time>
      </trkpt>
      <trkpt lat="49.40814" lon="-1.53092">
        <ele>17.357987</ele>
        <time>2021-09-05T10:06:53.000Z</time>
      </trkpt>
      <trkpt lat="49.40804" lon="-1.53081">
        <ele>17.624211</ele>
        <time>2021-09-05T10:06:57.000Z</time>
      </trkpt>
      <trkpt lat="49.4079" lon="-1.53065">
        <ele>18.009011</ele>
        <time>2021-09-05T10:07:03.000Z</time>
      </trkpt>
      <trkpt lat="49.40775" lon="-1.53048">
        <ele>18.797239</ele>
        <time>2021-09-05T10:07:09.000Z</time>
      </trkpt>
      <trkpt lat="49.40764" lon="-1.53035">
        <ele>19.547245</ele>
        <time>2021-09-05T10:07:14.000Z</time>
      </trkpt>
      <trkpt lat="49.40754" lon="-1.53024">
        <ele>20.174993</ele>
        <time>2021-09-05T10:07:18.000Z</time>
      </trkpt>
      <trkpt lat="49.40739" lon="-1.53008">
        <ele>21.149132</ele>
        <time>2021-09-05T10:07:24.000Z</time>
      </trkpt>
      <trkpt lat="49.40718" lon="-1.52995">
        <ele>22.315875</ele>
        <time>2021-09-05T10:07:31.000Z</time>
      </trkpt>
      <trkpt lat="49.40704" lon="-1.53006">
        <ele>23.125006</ele>
        <time>2021-09-05T10:07:37.000Z</time>
      </trkpt>
      <trkpt lat="49.40695" lon="-1.53012">
        <ele>23.62889</ele>
        <time>2021-09-05T10:07:41.000Z</time>
      </trkpt>
      <trkpt lat="49.40694" lon="-1.53014">
        <ele>23.74048</ele>
        <time>2021-09-05T10:07:42.000Z</time>
      </trkpt>
      <trkpt lat="49.40683" lon="-1.53027">
        <ele>24.443709</ele>
        <time>2021-09-05T10:07:47.000Z</time>
      </trkpt>
      <trkpt lat="49.40675" lon="-1.53038">
        <ele>25.018497</ele>
        <time>2021-09-05T10:07:51.000Z</time>
      </trkpt>
      <trkpt lat="49.40663" lon="-1.53054">
        <ele>25.860791</ele>
        <time>2021-09-05T10:07:57.000Z</time>
      </trkpt>
      <trkpt lat="49.40651" lon="-1.53069">
        <ele>26.631692</ele>
        <time>2021-09-05T10:08:03.000Z</time>
      </trkpt>
      <trkpt lat="49.4064" lon="-1.53083">
        <ele>27.373504</ele>
        <time>2021-09-05T10:08:08.000Z</time>
      </trkpt>
      <trkpt lat="49.4063" lon="-1.53095">
        <ele>27.89206</ele>
        <time>2021-09-05T10:08:13.000Z</time>
      </trkpt>
      <trkpt lat="49.40628" lon="-1.53098">
        <ele>27.975302</ele>
        <time>2021-09-05T10:08:14.000Z</time>
      </trkpt>
      <trkpt lat="49.40615" lon="-1.53115">
        <ele>28.601622</ele>
        <time>2021-09-05T10:08:21.000Z</time>
      </trkpt>
      <trkpt lat="49.40604" lon="-1.53129">
        <ele>29.103815</ele>
        <time>2021-09-05T10:08:26.000Z</time>
      </trkpt>
      <trkpt lat="49.40584" lon="-1.53147">
        <ele>29.947301</ele>
        <time>2021-09-05T10:08:33.000Z</time>
      </trkpt>
      <trkpt lat="49.40562" lon="-1.53167">
        <ele>30.839296</ele>
        <time>2021-09-05T10:08:40.000Z</time>
      </trkpt>
      <trkpt lat="49.40534" lon="-1.53192">
        <ele>31.998907</ele>
        <time>2021-09-05T10:08:48.000Z</time>
      </trkpt>
      <trkpt lat="49.405" lon="-1.53211">
        <ele>33.261963</ele>
        <time>2021-09-05T10:08:56.000Z</time>
      </trkpt>
      <trkpt lat="49.40492" lon="-1.53216">
        <ele>33.584789</ele>
        <time>2021-09-05T10:08:58.000Z</time>
      </trkpt>
      <trkpt lat="49.4048" lon="-1.53223">
        <ele>33.977791</ele>
        <time>2021-09-05T10:09:01.000Z</time>
      </trkpt>
      <trkpt lat="49.40449" lon="-1.53241">
        <ele>34.459785</ele>
        <time>2021-09-05T10:09:08.000Z</time>
      </trkpt>
      <trkpt lat="49.40441" lon="-1.53246">
        <ele>34.589393</ele>
        <time>2021-09-05T10:09:10.000Z</time>
      </trkpt>
      <trkpt lat="49.40432" lon="-1.53251">
        <ele>34.724847</ele>
        <time>2021-09-05T10:09:12.000Z</time>
      </trkpt>
      <trkpt lat="49.40424" lon="-1.53256">
        <ele>34.855154</ele>
        <time>2021-09-05T10:09:14.000Z</time>
      </trkpt>
      <trkpt lat="49.40389" lon="-1.53274">
        <ele>35.399008</ele>
        <time>2021-09-05T10:09:22.000Z</time>
      </trkpt>
      <trkpt lat="49.40369" lon="-1.53284">
        <ele>35.70908</ele>
        <time>2021-09-05T10:09:26.000Z</time>
      </trkpt>
      <trkpt lat="49.40358" lon="-1.53287">
        <ele>35.871881</ele>
        <time>2021-09-05T10:09:28.000Z</time>
      </trkpt>
      <trkpt lat="49.40352" lon="-1.53288">
        <ele>35.95837</ele>
        <time>2021-09-05T10:09:29.000Z</time>
      </trkpt>
      <trkpt lat="49.40327" lon="-1.53295">
        <ele>36.330351</ele>
        <time>2021-09-05T10:09:33.000Z</time>
      </trkpt>
      <trkpt lat="49.40314" lon="-1.53302">
        <ele>36.537644</ele>
        <time>2021-09-05T10:09:35.000Z</time>
      </trkpt>
      <trkpt lat="49.40296" lon="-1.5332">
        <ele>36.67734</ele>
        <time>2021-09-05T10:09:38.000Z</time>
      </trkpt>
      <trkpt lat="49.40261" lon="-1.53354">
        <ele>36.907113</ele>
        <time>2021-09-05T10:09:44.000Z</time>
      </trkpt>
      <trkpt lat="49.40217" lon="-1.53397">
        <ele>37.194523</ele>
        <time>2021-09-05T10:09:52.000Z</time>
      </trkpt>
      <trkpt lat="49.40172" lon="-1.53441">
        <ele>37.487039</ele>
        <time>2021-09-05T10:10:01.000Z</time>
      </trkpt>
      <trkpt lat="49.40125" lon="-1.53487">
        <ele>37.609315</ele>
        <time>2021-09-05T10:10:10.000Z</time>
      </trkpt>
      <trkpt lat="49.40091" lon="-1.53521">
        <ele>37.654962</ele>
        <time>2021-09-05T10:10:16.000Z</time>
      </trkpt>
      <trkpt lat="49.40055" lon="-1.53555">
        <ele>37.701938</ele>
        <time>2021-09-05T10:10:22.000Z</time>
      </trkpt>
      <trkpt lat="49.4005" lon="-1.5356">
        <ele>37.708912</ele>
        <time>2021-09-05T10:10:23.000Z</time>
      </trkpt>
      <trkpt lat="49.40046" lon="-1.53574">
        <ele>37.72015</ele>
        <time>2021-09-05T10:10:25.000Z</time>
      </trkpt>
      <trkpt lat="49.40049" lon="-1.53582">
        <ele>37.726036</ele>
        <time>2021-09-05T10:10:26.000Z</time>
      </trkpt>
      <trkpt lat="49.40054" lon="-1.53596">
        <ele>37.738155</ele>
        <time>2021-09-05T10:10:28.000Z</time>
      </trkpt>
      <trkpt lat="49.40056" lon="-1.53604">
        <ele>37.744338</ele>
        <time>2021-09-05T10:10:29.000Z</time>
      </trkpt>
      <trkpt lat="49.40067" lon="-1.53635">
        <ele>37.666754</ele>
        <time>2021-09-05T10:10:33.000Z</time>
      </trkpt>
      <trkpt lat="49.40086" lon="-1.5369">
        <ele>36.978767</ele>
        <time>2021-09-05T10:10:39.000Z</time>
      </trkpt>
      <trkpt lat="49.40101" lon="-1.53733">
        <ele>36.440534</ele>
        <time>2021-09-05T10:10:43.000Z</time>
      </trkpt>
      <trkpt lat="49.40104" lon="-1.53743">
        <ele>36.306757</ele>
        <time>2021-09-05T10:10:44.000Z</time>
      </trkpt>
      <trkpt lat="49.40111" lon="-1.53764">
        <ele>36.047503</ele>
        <time>2021-09-05T10:10:46.000Z</time>
      </trkpt>
      <trkpt lat="49.40112" lon="-1.53789">
        <ele>35.767192</ele>
        <time>2021-09-05T10:10:48.000Z</time>
      </trkpt>
      <trkpt lat="49.40108" lon="-1.53801">
        <ele>35.626045</ele>
        <time>2021-09-05T10:10:49.000Z</time>
      </trkpt>
      <trkpt lat="49.40101" lon="-1.53826">
        <ele>35.317219</ele>
        <time>2021-09-05T10:10:51.000Z</time>
      </trkpt>
      <trkpt lat="49.40088" lon="-1.53845">
        <ele>35.005527</ele>
        <time>2021-09-05T10:10:53.000Z</time>
      </trkpt>
      <trkpt lat="49.40073" lon="-1.53864">
        <ele>34.676012</ele>
        <time>2021-09-05T10:10:55.000Z</time>
      </trkpt>
      <trkpt lat="49.40067" lon="-1.53873">
        <ele>34.539013</ele>
        <time>2021-09-05T10:10:56.000Z</time>
      </trkpt>
      <trkpt lat="49.4005" lon="-1.53899">
        <ele>34.153749</ele>
        <time>2021-09-05T10:10:59.000Z</time>
      </trkpt>
      <trkpt lat="49.40046" lon="-1.53906">
        <ele>34.056035</ele>
        <time>2021-09-05T10:11:00.000Z</time>
      </trkpt>
      <trkpt lat="49.40038" lon="-1.53918">
        <ele>33.878091</ele>
        <time>2021-09-05T10:11:02.000Z</time>
      </trkpt>
      <trkpt lat="49.40034" lon="-1.53917">
        <ele>33.821211</ele>
        <time>2021-09-05T10:11:03.000Z</time>
      </trkpt>
      <trkpt lat="49.4003" lon="-1.53916">
        <ele>33.748005</ele>
        <time>2021-09-05T10:11:04.000Z</time>
      </trkpt>
      <trkpt lat="49.40014" lon="-1.53912">
        <ele>33.492922</ele>
        <time>2021-09-05T10:11:07.000Z</time>
      </trkpt>
      <trkpt lat="49.39981" lon="-1.53903">
        <ele>32.959762</ele>
        <time>2021-09-05T10:11:13.000Z</time>
      </trkpt>
      <trkpt lat="49.39945" lon="-1.53894">
        <ele>32.377799</ele>
        <time>2021-09-05T10:11:20.000Z</time>
      </trkpt>
      <trkpt lat="49.39917" lon="-1.53887">
        <ele>31.922586</ele>
        <time>2021-09-05T10:11:25.000Z</time>
      </trkpt>
      <trkpt lat="49.39912" lon="-1.53885">
        <ele>31.839546</ele>
        <time>2021-09-05T10:11:26.000Z</time>
      </trkpt>
      <trkpt lat="49.39885" lon="-1.53878">
        <ele>31.822546</ele>
        <time>2021-09-05T10:11:31.000Z</time>
      </trkpt>
      <trkpt lat="49.39879" lon="-1.53877">
        <ele>31.825907</ele>
        <time>2021-09-05T10:11:32.000Z</time>
      </trkpt>
      <trkpt lat="49.39849" lon="-1.53869">
        <ele>31.844253</ele>
        <time>2021-09-05T10:11:38.000Z</time>
      </trkpt>
      <trkpt lat="49.3984" lon="-1.53867">
        <ele>31.850183</ele>
        <time>2021-09-05T10:11:40.000Z</time>
      </trkpt>
      <trkpt lat="49.3983" lon="-1.53864">
        <ele>31.85618</ele>
        <time>2021-09-05T10:11:42.000Z</time>
      </trkpt>
      <trkpt lat="49.39805" lon="-1.53858">
        <ele>31.871039</ele>
        <time>2021-09-05T10:11:47.000Z</time>
      </trkpt>
      <trkpt lat="49.39785" lon="-1.53852">
        <ele>31.883514</ele>
        <time>2021-09-05T10:11:51.000Z</time>
      </trkpt>
      <trkpt lat="49.39749" lon="-1.53843">
        <ele>31.905591</ele>
        <time>2021-09-05T10:11:58.000Z</time>
      </trkpt>
      <trkpt lat="49.39735" lon="-1.53839">
        <ele>31.914394</ele>
        <time>2021-09-05T10:12:01.000Z</time>
      </trkpt>
      <trkpt lat="49.39724" lon="-1.53837">
        <ele>32.044521</ele>
        <time>2021-09-05T10:12:03.000Z</time>
      </trkpt>
      <trkpt lat="49.39704" lon="-1.53831">
        <ele>32.34504</ele>
        <time>2021-09-05T10:12:07.000Z</time>
      </trkpt>
      <trkpt lat="49.3969" lon="-1.53828">
        <ele>32.562679</ele>
        <time>2021-09-05T10:12:10.000Z</time>
      </trkpt>
      <trkpt lat="49.39685" lon="-1.53826">
        <ele>32.639685</ele>
        <time>2021-09-05T10:12:11.000Z</time>
      </trkpt>
      <trkpt lat="49.39675" lon="-1.53824">
        <ele>32.783255</ele>
        <time>2021-09-05T10:12:13.000Z</time>
      </trkpt>
      <trkpt lat="49.39666" lon="-1.53821">
        <ele>32.926664</ele>
        <time>2021-09-05T10:12:15.000Z</time>
      </trkpt>
      <trkpt lat="49.39661" lon="-1.5382">
        <ele>33.002201</ele>
        <time>2021-09-05T10:12:16.000Z</time>
      </trkpt>
      <trkpt lat="49.39645" lon="-1.53816">
        <ele>33.245454</ele>
        <time>2021-09-05T10:12:19.000Z</time>
      </trkpt>
      <trkpt lat="49.39639" lon="-1.53815">
        <ele>33.327027</ele>
        <time>2021-09-05T10:12:20.000Z</time>
      </trkpt>
      <trkpt lat="49.39623" lon="-1.5381">
        <ele>33.57338</ele>
        <time>2021-09-05T10:12:23.000Z</time>
      </trkpt>
      <trkpt lat="49.39618" lon="-1.53809">
        <ele>33.654954</ele>
        <time>2021-09-05T10:12:24.000Z</time>
      </trkpt>
      <trkpt lat="49.39612" lon="-1.53807">
        <ele>33.741095</ele>
        <time>2021-09-05T10:12:25.000Z</time>
      </trkpt>
      <trkpt lat="49.39599" lon="-1.53804">
        <ele>33.931328</ele>
        <time>2021-09-05T10:12:27.000Z</time>
      </trkpt>
      <trkpt lat="49.39588" lon="-1.53801">
        <ele>34.100512</ele>
        <time>2021-09-05T10:12:29.000Z</time>
      </trkpt>
      <trkpt lat="49.39582" lon="-1.538">
        <ele>34.192532</ele>
        <time>2021-09-05T10:12:31.000Z</time>
      </trkpt>
      <trkpt lat="49.3958" lon="-1.53799">
        <ele>34.218314</ele>
        <time>2021-09-05T10:12:32.000Z</time>
      </trkpt>
      <trkpt lat="49.39579" lon="-1.53799">
        <ele>34.242461</ele>
        <time>2021-09-05T10:12:33.000Z</time>
      </trkpt>
      <trkpt lat="49.39574" lon="-1.53798">
        <ele>34.316371</ele>
        <time>2021-09-05T10:12:35.000Z</time>
      </trkpt>
      <trkpt lat="49.39561" lon="-1.53794">
        <ele>34.506764</ele>
        <time>2021-09-05T10:12:39.000Z</time>
      </trkpt>
      <trkpt lat="49.39543" lon="-1.5379">
        <ele>34.643838</ele>
        <time>2021-09-05T10:12:44.000Z</time>
      </trkpt>
      <trkpt lat="49.39537" lon="-1.53789">
        <ele>34.666949</ele>
        <time>2021-09-05T10:12:46.000Z</time>
      </trkpt>
      <trkpt lat="49.39535" lon="-1.53789">
        <ele>34.676354</ele>
        <time>2021-09-05T10:12:47.000Z</time>
      </trkpt>
      <trkpt lat="49.39531" lon="-1.53788">
        <ele>34.690478</ele>
        <time>2021-09-05T10:12:48.000Z</time>
      </trkpt>
      <trkpt lat="49.39517" lon="-1.53785">
        <ele>34.744146</ele>
        <time>2021-09-05T10:12:51.000Z</time>
      </trkpt>
      <trkpt lat="49.39483" lon="-1.53778">
        <ele>34.878959</ele>
        <time>2021-09-05T10:12:58.000Z</time>
      </trkpt>
      <trkpt lat="49.39444" lon="-1.5377">
        <ele>35.029787</ele>
        <time>2021-09-05T10:13:05.000Z</time>
      </trkpt>
      <trkpt lat="49.3941" lon="-1.53763">
        <ele>35.165824</ele>
        <time>2021-09-05T10:13:11.000Z</time>
      </trkpt>
      <trkpt lat="49.39393" lon="-1.53758">
        <ele>35.230386</ele>
        <time>2021-09-05T10:13:14.000Z</time>
      </trkpt>
      <trkpt lat="49.39382" lon="-1.53756">
        <ele>35.273683</ele>
        <time>2021-09-05T10:13:16.000Z</time>
      </trkpt>
      <trkpt lat="49.39377" lon="-1.53754">
        <ele>35.297287</ele>
        <time>2021-09-05T10:13:17.000Z</time>
      </trkpt>
      <trkpt lat="49.39366" lon="-1.53752">
        <ele>35.391292</ele>
        <time>2021-09-05T10:13:19.000Z</time>
      </trkpt>
      <trkpt lat="49.39361" lon="-1.5375">
        <ele>35.433547</ele>
        <time>2021-09-05T10:13:20.000Z</time>
      </trkpt>
      <trkpt lat="49.3935" lon="-1.53747">
        <ele>35.530211</ele>
        <time>2021-09-05T10:13:22.000Z</time>
      </trkpt>
      <trkpt lat="49.39345" lon="-1.53746">
        <ele>35.576834</ele>
        <time>2021-09-05T10:13:23.000Z</time>
      </trkpt>
      <trkpt lat="49.39339" lon="-1.53745">
        <ele>35.628679</ele>
        <time>2021-09-05T10:13:24.000Z</time>
      </trkpt>
      <trkpt lat="49.39321" lon="-1.5374">
        <ele>35.78507</ele>
        <time>2021-09-05T10:13:27.000Z</time>
      </trkpt>
      <trkpt lat="49.39289" lon="-1.53732">
        <ele>36.068983</ele>
        <time>2021-09-05T10:13:32.000Z</time>
      </trkpt>
      <trkpt lat="49.39246" lon="-1.53721">
        <ele>36.446902</ele>
        <time>2021-09-05T10:13:38.000Z</time>
      </trkpt>
      <trkpt lat="49.39203" lon="-1.5371">
        <ele>36.825676</ele>
        <time>2021-09-05T10:13:44.000Z</time>
      </trkpt>
      <trkpt lat="49.39161" lon="-1.53699">
        <ele>37.10464</ele>
        <time>2021-09-05T10:13:50.000Z</time>
      </trkpt>
      <trkpt lat="49.39123" lon="-1.53689">
        <ele>37.351913</ele>
        <time>2021-09-05T10:13:56.000Z</time>
      </trkpt>
      <trkpt lat="49.39117" lon="-1.53688">
        <ele>37.391739</ele>
        <time>2021-09-05T10:13:57.000Z</time>
      </trkpt>
      <trkpt lat="49.39098" lon="-1.53683">
        <ele>37.519605</ele>
        <time>2021-09-05T10:14:00.000Z</time>
      </trkpt>
      <trkpt lat="49.39076" lon="-1.53677">
        <ele>37.661216</ele>
        <time>2021-09-05T10:14:03.000Z</time>
      </trkpt>
      <trkpt lat="49.39061" lon="-1.53673">
        <ele>37.761028</ele>
        <time>2021-09-05T10:14:05.000Z</time>
      </trkpt>
      <trkpt lat="49.39017" lon="-1.53662">
        <ele>37.967862</ele>
        <time>2021-09-05T10:14:11.000Z</time>
      </trkpt>
      <trkpt lat="49.38966" lon="-1.53645">
        <ele>37.596103</ele>
        <time>2021-09-05T10:14:18.000Z</time>
      </trkpt>
      <trkpt lat="49.38932" lon="-1.53634">
        <ele>37.349752</ele>
        <time>2021-09-05T10:14:23.000Z</time>
      </trkpt>
      <trkpt lat="49.38906" lon="-1.53625">
        <ele>37.166499</ele>
        <time>2021-09-05T10:14:27.000Z</time>
      </trkpt>
      <trkpt lat="49.38901" lon="-1.53623">
        <ele>37.124301</ele>
        <time>2021-09-05T10:14:28.000Z</time>
      </trkpt>
      <trkpt lat="49.38867" lon="-1.53612">
        <ele>36.880822</ele>
        <time>2021-09-05T10:14:33.000Z</time>
      </trkpt>
      <trkpt lat="49.3886" lon="-1.53609">
        <ele>36.829656</ele>
        <time>2021-09-05T10:14:34.000Z</time>
      </trkpt>
      <trkpt lat="49.38816" lon="-1.53587">
        <ele>36.409742</ele>
        <time>2021-09-05T10:14:41.000Z</time>
      </trkpt>
      <trkpt lat="49.38786" lon="-1.53578">
        <ele>36.107792</ele>
        <time>2021-09-05T10:14:46.000Z</time>
      </trkpt>
      <trkpt lat="49.38775" lon="-1.53583">
        <ele>36.001473</ele>
        <time>2021-09-05T10:14:48.000Z</time>
      </trkpt>
      <trkpt lat="49.38766" lon="-1.5359">
        <ele>35.895257</ele>
        <time>2021-09-05T10:14:50.000Z</time>
      </trkpt>
      <trkpt lat="49.3876" lon="-1.53591">
        <ele>35.840202</ele>
        <time>2021-09-05T10:14:51.000Z</time>
      </trkpt>
      <trkpt lat="49.38753" lon="-1.5359">
        <ele>35.767526</ele>
        <time>2021-09-05T10:14:53.000Z</time>
      </trkpt>
      <trkpt lat="49.38739" lon="-1.53589">
        <ele>35.629972</ele>
        <time>2021-09-05T10:14:58.000Z</time>
      </trkpt>
      <trkpt lat="49.38726" lon="-1.53588">
        <ele>35.502316</ele>
        <time>2021-09-05T10:15:04.000Z</time>
      </trkpt>
      <trkpt lat="49.38712" lon="-1.53588">
        <ele>35.366961</ele>
        <time>2021-09-05T10:15:11.000Z</time>
      </trkpt>
      <trkpt lat="49.38693" lon="-1.53588">
        <ele>35.181583</ele>
        <time>2021-09-05T10:15:18.000Z</time>
      </trkpt>
      <trkpt lat="49.38677" lon="-1.53589">
        <ele>35.022683</ele>
        <time>2021-09-05T10:15:25.000Z</time>
      </trkpt>
      <trkpt lat="49.38663" lon="-1.5359">
        <ele>35.330589</ele>
        <time>2021-09-05T10:15:31.000Z</time>
      </trkpt>
      <trkpt lat="49.38647" lon="-1.53592">
        <ele>36.058401</ele>
        <time>2021-09-05T10:15:36.000Z</time>
      </trkpt>
      <trkpt lat="49.38627" lon="-1.53594">
        <ele>36.956742</ele>
        <time>2021-09-05T10:15:41.000Z</time>
      </trkpt>
      <trkpt lat="49.38623" lon="-1.53595">
        <ele>37.125661</ele>
        <time>2021-09-05T10:15:42.000Z</time>
      </trkpt>
      <trkpt lat="49.38609" lon="-1.5361">
        <ele>37.900615</ele>
        <time>2021-09-05T10:15:47.000Z</time>
      </trkpt>
      <trkpt lat="49.38593" lon="-1.53615">
        <ele>38.641829</ele>
        <time>2021-09-05T10:15:52.000Z</time>
      </trkpt>
      <trkpt lat="49.38563" lon="-1.53624">
        <ele>39.981116</ele>
        <time>2021-09-05T10:16:00.000Z</time>
      </trkpt>
      <trkpt lat="49.38546" lon="-1.5363">
        <ele>40.785567</ele>
        <time>2021-09-05T10:16:07.000Z</time>
      </trkpt>
      <trkpt lat="49.38546" lon="-1.5363">
        <ele>40.794532</ele>
        <time>2021-09-05T10:16:10.000Z</time>
      </trkpt>
      <trkpt lat="49.38546" lon="-1.5363">
        <ele>40.794532</ele>
        <time>2021-09-05T10:16:15.000Z</time>
      </trkpt>
      <trkpt lat="49.38546" lon="-1.5363">
        <ele>40.794532</ele>
        <time>2021-09-05T10:16:43.000Z</time>
      </trkpt>
      <trkpt lat="49.38589" lon="-1.53616">
        <ele>42.778717</ele>
        <time>2021-09-05T10:33:42.000Z</time>
      </trkpt>
      <trkpt lat="49.38605" lon="-1.53617">
        <ele>42.894408</ele>
        <time>2021-09-05T10:33:47.000Z</time>
      </trkpt>
      <trkpt lat="49.38603" lon="-1.53626">
        <ele>42.80633</ele>
        <time>2021-09-05T10:33:51.000Z</time>
      </trkpt>
      <trkpt lat="49.386" lon="-1.53649">
        <ele>42.582168</ele>
        <time>2021-09-05T10:33:56.000Z</time>
      </trkpt>
      <trkpt lat="49.38594" lon="-1.53671">
        <ele>42.358268</ele>
        <time>2021-09-05T10:34:02.000Z</time>
      </trkpt>
      <trkpt lat="49.3859" lon="-1.53676">
        <ele>42.277056</ele>
        <time>2021-09-05T10:34:03.000Z</time>
      </trkpt>
      <trkpt lat="49.38567" lon="-1.53684">
        <ele>41.948259</ele>
        <time>2021-09-05T10:34:09.000Z</time>
      </trkpt>
      <trkpt lat="49.38549" lon="-1.53689">
        <ele>41.681475</ele>
        <time>2021-09-05T10:34:13.000Z</time>
      </trkpt>
      <trkpt lat="49.38544" lon="-1.5369">
        <ele>41.608185</ele>
        <time>2021-09-05T10:34:15.000Z</time>
      </trkpt>
      <trkpt lat="49.3853" lon="-1.53692">
        <ele>41.409734</ele>
        <time>2021-09-05T10:34:17.000Z</time>
      </trkpt>
      <trkpt lat="49.38526" lon="-1.53691">
        <ele>41.34987</ele>
        <time>2021-09-05T10:34:18.000Z</time>
      </trkpt>
      <trkpt lat="49.38526" lon="-1.53691">
        <ele>41.34987</ele>
        <time>2021-09-05T10:34:19.000Z</time>
      </trkpt>
      <trkpt lat="49.38519" lon="-1.53678">
        <ele>41.189643</ele>
        <time>2021-09-05T10:34:21.000Z</time>
      </trkpt>
      <trkpt lat="49.38519" lon="-1.53662">
        <ele>41.034645</ele>
        <time>2021-09-05T10:34:25.000Z</time>
      </trkpt>
      <trkpt lat="49.38516" lon="-1.53659">
        <ele>40.98181</ele>
        <time>2021-09-05T10:34:26.000Z</time>
      </trkpt>
      <trkpt lat="49.38512" lon="-1.53654">
        <ele>40.917668</ele>
        <time>2021-09-05T10:34:29.000Z</time>
      </trkpt>
      <trkpt lat="49.3851" lon="-1.53643">
        <ele>40.810817</ele>
        <time>2021-09-05T10:34:31.000Z</time>
      </trkpt>
      <trkpt lat="49.38508" lon="-1.53635">
        <ele>40.732637</ele>
        <time>2021-09-05T10:34:33.000Z</time>
      </trkpt>
      <trkpt lat="49.38507" lon="-1.53632">
        <ele>40.694809</ele>
        <time>2021-09-05T10:34:34.000Z</time>
      </trkpt>
      <trkpt lat="49.38496" lon="-1.53637">
        <ele>40.532397</ele>
        <time>2021-09-05T10:34:37.000Z</time>
      </trkpt>
      <trkpt lat="49.38463" lon="-1.53654">
        <ele>39.271683</ele>
        <time>2021-09-05T10:34:44.000Z</time>
      </trkpt>
      <trkpt lat="49.38431" lon="-1.53671">
        <ele>37.885775</ele>
        <time>2021-09-05T10:34:51.000Z</time>
      </trkpt>
      <trkpt lat="49.38401" lon="-1.53686">
        <ele>36.578342</ele>
        <time>2021-09-05T10:34:57.000Z</time>
      </trkpt>
      <trkpt lat="49.38383" lon="-1.53686">
        <ele>35.832069</ele>
        <time>2021-09-05T10:35:02.000Z</time>
      </trkpt>
      <trkpt lat="49.38376" lon="-1.53682">
        <ele>35.515553</ele>
        <time>2021-09-05T10:35:04.000Z</time>
      </trkpt>
      <trkpt lat="49.38369" lon="-1.53682">
        <ele>35.208179</ele>
        <time>2021-09-05T10:35:06.000Z</time>
      </trkpt>
      <trkpt lat="49.38365" lon="-1.53684">
        <ele>35.040887</ele>
        <time>2021-09-05T10:35:07.000Z</time>
      </trkpt>
      <trkpt lat="49.38357" lon="-1.53691">
        <ele>34.657065</ele>
        <time>2021-09-05T10:35:09.000Z</time>
      </trkpt>
      <trkpt lat="49.38353" lon="-1.53694">
        <ele>34.462697</ele>
        <time>2021-09-05T10:35:10.000Z</time>
      </trkpt>
      <trkpt lat="49.38347" lon="-1.53699">
        <ele>34.175165</ele>
        <time>2021-09-05T10:35:12.000Z</time>
      </trkpt>
      <trkpt lat="49.38346" lon="-1.53704">
        <ele>34.04666</ele>
        <time>2021-09-05T10:35:13.000Z</time>
      </trkpt>
      <trkpt lat="49.38341" lon="-1.53731">
        <ele>33.294448</ele>
        <time>2021-09-05T10:35:19.000Z</time>
      </trkpt>
      <trkpt lat="49.38332" lon="-1.53737">
        <ele>32.932113</ele>
        <time>2021-09-05T10:35:22.000Z</time>
      </trkpt>
      <trkpt lat="49.38314" lon="-1.53748">
        <ele>32.61823</ele>
        <time>2021-09-05T10:35:27.000Z</time>
      </trkpt>
      <trkpt lat="49.38306" lon="-1.53753">
        <ele>32.480911</ele>
        <time>2021-09-05T10:35:30.000Z</time>
      </trkpt>
      <trkpt lat="49.3829" lon="-1.5377">
        <ele>32.172734</ele>
        <time>2021-09-05T10:35:33.000Z</time>
      </trkpt>
      <trkpt lat="49.38277" lon="-1.53782">
        <ele>31.929462</ele>
        <time>2021-09-05T10:35:36.000Z</time>
      </trkpt>
      <trkpt lat="49.3826" lon="-1.53798">
        <ele>31.602702</ele>
        <time>2021-09-05T10:35:40.000Z</time>
      </trkpt>
      <trkpt lat="49.38235" lon="-1.53821">
        <ele>31.123897</ele>
        <time>2021-09-05T10:35:46.000Z</time>
      </trkpt>
      <trkpt lat="49.38201" lon="-1.53859">
        <ele>30.438519</ele>
        <time>2021-09-05T10:35:55.000Z</time>
      </trkpt>
      <trkpt lat="49.38172" lon="-1.53895">
        <ele>30.172362</ele>
        <time>2021-09-05T10:36:03.000Z</time>
      </trkpt>
      <trkpt lat="49.38151" lon="-1.53928">
        <ele>30.416145</ele>
        <time>2021-09-05T10:36:10.000Z</time>
      </trkpt>
      <trkpt lat="49.38148" lon="-1.53933">
        <ele>30.454786</ele>
        <time>2021-09-05T10:36:11.000Z</time>
      </trkpt>
      <trkpt lat="49.38135" lon="-1.53957">
        <ele>30.617249</ele>
        <time>2021-09-05T10:36:15.000Z</time>
      </trkpt>
      <trkpt lat="49.38107" lon="-1.54015">
        <ele>31.006567</ele>
        <time>2021-09-05T10:36:24.000Z</time>
      </trkpt>
      <trkpt lat="49.38082" lon="-1.54071">
        <ele>31.365181</ele>
        <time>2021-09-05T10:36:32.000Z</time>
      </trkpt>
      <trkpt lat="49.38054" lon="-1.54131">
        <ele>32.257464</ele>
        <time>2021-09-05T10:36:41.000Z</time>
      </trkpt>
      <trkpt lat="49.38042" lon="-1.54157">
        <ele>32.785799</ele>
        <time>2021-09-05T10:36:45.000Z</time>
      </trkpt>
      <trkpt lat="49.38036" lon="-1.5417">
        <ele>33.045017</ele>
        <time>2021-09-05T10:36:47.000Z</time>
      </trkpt>
      <trkpt lat="49.3803" lon="-1.54182">
        <ele>33.298659</ele>
        <time>2021-09-05T10:36:49.000Z</time>
      </trkpt>
      <trkpt lat="49.38022" lon="-1.54201">
        <ele>33.685438</ele>
        <time>2021-09-05T10:36:53.000Z</time>
      </trkpt>
      <trkpt lat="49.37999" lon="-1.54252">
        <ele>34.719377</ele>
        <time>2021-09-05T10:37:00.000Z</time>
      </trkpt>
      <trkpt lat="49.37984" lon="-1.54283">
        <ele>35.351272</ele>
        <time>2021-09-05T10:37:06.000Z</time>
      </trkpt>
      <trkpt lat="49.37976" lon="-1.54302">
        <ele>35.726696</ele>
        <time>2021-09-05T10:37:08.000Z</time>
      </trkpt>
      <trkpt lat="49.37974" lon="-1.54307">
        <ele>35.840158</ele>
        <time>2021-09-05T10:37:10.000Z</time>
      </trkpt>
      <trkpt lat="49.37952" lon="-1.54355">
        <ele>37.392158</ele>
        <time>2021-09-05T10:37:18.000Z</time>
      </trkpt>
      <trkpt lat="49.37931" lon="-1.54401">
        <ele>39.155562</ele>
        <time>2021-09-05T10:37:25.000Z</time>
      </trkpt>
      <trkpt lat="49.37918" lon="-1.5443">
        <ele>40.264024</ele>
        <time>2021-09-05T10:37:30.000Z</time>
      </trkpt>
      <trkpt lat="49.37918" lon="-1.5443">
        <ele>40.264024</ele>
        <time>2021-09-05T10:37:31.000Z</time>
      </trkpt>
      <trkpt lat="49.37907" lon="-1.54455">
        <ele>41.189027</ele>
        <time>2021-09-05T10:37:34.000Z</time>
      </trkpt>
      <trkpt lat="49.37904" lon="-1.54461">
        <ele>41.409112</ele>
        <time>2021-09-05T10:37:36.000Z</time>
      </trkpt>
      <trkpt lat="49.37899" lon="-1.54473">
        <ele>41.865026</ele>
        <time>2021-09-05T10:37:37.000Z</time>
      </trkpt>
      <trkpt lat="49.37882" lon="-1.54509">
        <ele>43.256386</ele>
        <time>2021-09-05T10:37:44.000Z</time>
      </trkpt>
      <trkpt lat="49.37874" lon="-1.54528">
        <ele>43.969182</ele>
        <time>2021-09-05T10:37:46.000Z</time>
      </trkpt>
      <trkpt lat="49.37869" lon="-1.54539">
        <ele>44.391041</ele>
        <time>2021-09-05T10:37:49.000Z</time>
      </trkpt>
      <trkpt lat="49.3786" lon="-1.54558">
        <ele>45.120346</ele>
        <time>2021-09-05T10:37:51.000Z</time>
      </trkpt>
      <trkpt lat="49.37852" lon="-1.54576">
        <ele>45.805885</ele>
        <time>2021-09-05T10:37:54.000Z</time>
      </trkpt>
      <trkpt lat="49.37834" lon="-1.54617">
        <ele>47.35163</ele>
        <time>2021-09-05T10:38:00.000Z</time>
      </trkpt>
      <trkpt lat="49.3782" lon="-1.54646">
        <ele>48.462505</ele>
        <time>2021-09-05T10:38:04.000Z</time>
      </trkpt>
      <trkpt lat="49.37817" lon="-1.54653">
        <ele>48.733714</ele>
        <time>2021-09-05T10:38:06.000Z</time>
      </trkpt>
      <trkpt lat="49.37795" lon="-1.547">
        <ele>50.533359</ele>
        <time>2021-09-05T10:38:12.000Z</time>
      </trkpt>
      <trkpt lat="49.37792" lon="-1.54707">
        <ele>50.7889</ele>
        <time>2021-09-05T10:38:13.000Z</time>
      </trkpt>
      <trkpt lat="49.37778" lon="-1.54735">
        <ele>51.871215</ele>
        <time>2021-09-05T10:38:17.000Z</time>
      </trkpt>
      <trkpt lat="49.37763" lon="-1.54769">
        <ele>53.154227</ele>
        <time>2021-09-05T10:38:23.000Z</time>
      </trkpt>
      <trkpt lat="49.37737" lon="-1.54824">
        <ele>54.926754</ele>
        <time>2021-09-05T10:38:30.000Z</time>
      </trkpt>
      <trkpt lat="49.37716" lon="-1.5487">
        <ele>56.381866</ele>
        <time>2021-09-05T10:38:37.000Z</time>
      </trkpt>
      <trkpt lat="49.37698" lon="-1.54909">
        <ele>57.606996</ele>
        <time>2021-09-05T10:38:43.000Z</time>
      </trkpt>
      <trkpt lat="49.37685" lon="-1.54936">
        <ele>58.462571</ele>
        <time>2021-09-05T10:38:48.000Z</time>
      </trkpt>
      <trkpt lat="49.37669" lon="-1.54969">
        <ele>59.507094</ele>
        <time>2021-09-05T10:38:53.000Z</time>
      </trkpt>
      <trkpt lat="49.3766" lon="-1.5499">
        <ele>60.167058</ele>
        <time>2021-09-05T10:38:55.000Z</time>
      </trkpt>
      <trkpt lat="49.37656" lon="-1.54997">
        <ele>60.397045</ele>
        <time>2021-09-05T10:38:57.000Z</time>
      </trkpt>
      <trkpt lat="49.3765" lon="-1.55012">
        <ele>60.616508</ele>
        <time>2021-09-05T10:38:58.000Z</time>
      </trkpt>
      <trkpt lat="49.37631" lon="-1.55053">
        <ele>61.154178</ele>
        <time>2021-09-05T10:39:04.000Z</time>
      </trkpt>
      <trkpt lat="49.37628" lon="-1.55059">
        <ele>61.236005</ele>
        <time>2021-09-05T10:39:05.000Z</time>
      </trkpt>
      <trkpt lat="49.37608" lon="-1.55101">
        <ele>61.795287</ele>
        <time>2021-09-05T10:39:11.000Z</time>
      </trkpt>
      <trkpt lat="49.37586" lon="-1.55148">
        <ele>62.410257</ele>
        <time>2021-09-05T10:39:18.000Z</time>
      </trkpt>
      <trkpt lat="49.37569" lon="-1.55186">
        <ele>62.906539</ele>
        <time>2021-09-05T10:39:24.000Z</time>
      </trkpt>
      <trkpt lat="49.37563" lon="-1.55199">
        <ele>63.083557</ele>
        <time>2021-09-05T10:39:26.000Z</time>
      </trkpt>
      <trkpt lat="49.37559" lon="-1.55207">
        <ele>63.181515</ele>
        <time>2021-09-05T10:39:28.000Z</time>
      </trkpt>
      <trkpt lat="49.37537" lon="-1.55257">
        <ele>62.861117</ele>
        <time>2021-09-05T10:39:35.000Z</time>
      </trkpt>
      <trkpt lat="49.37526" lon="-1.55282">
        <ele>62.442884</ele>
        <time>2021-09-05T10:39:40.000Z</time>
      </trkpt>
      <trkpt lat="49.37523" lon="-1.55288">
        <ele>62.343875</ele>
        <time>2021-09-05T10:39:41.000Z</time>
      </trkpt>
      <trkpt lat="49.37508" lon="-1.55321">
        <ele>61.785847</ele>
        <time>2021-09-05T10:39:47.000Z</time>
      </trkpt>
      <trkpt lat="49.37506" lon="-1.55326">
        <ele>61.694985</ele>
        <time>2021-09-05T10:39:49.000Z</time>
      </trkpt>
      <trkpt lat="49.37498" lon="-1.55344">
        <ele>61.400254</ele>
        <time>2021-09-05T10:39:51.000Z</time>
      </trkpt>
      <trkpt lat="49.37484" lon="-1.55376">
        <ele>60.850369</ele>
        <time>2021-09-05T10:39:56.000Z</time>
      </trkpt>
      <trkpt lat="49.3748" lon="-1.55383">
        <ele>60.732717</ele>
        <time>2021-09-05T10:39:57.000Z</time>
      </trkpt>
      <trkpt lat="49.37477" lon="-1.5539">
        <ele>60.612711</ele>
        <time>2021-09-05T10:39:59.000Z</time>
      </trkpt>
      <trkpt lat="49.37464" lon="-1.55419">
        <ele>60.122255</ele>
        <time>2021-09-05T10:40:03.000Z</time>
      </trkpt>
      <trkpt lat="49.37438" lon="-1.55479">
        <ele>59.349796</ele>
        <time>2021-09-05T10:40:10.000Z</time>
      </trkpt>
      <trkpt lat="49.37414" lon="-1.55532">
        <ele>58.908647</ele>
        <time>2021-09-05T10:40:17.000Z</time>
      </trkpt>
      <trkpt lat="49.37394" lon="-1.55577">
        <ele>58.536513</ele>
        <time>2021-09-05T10:40:23.000Z</time>
      </trkpt>
      <trkpt lat="49.37377" lon="-1.55615">
        <ele>58.223761</ele>
        <time>2021-09-05T10:40:29.000Z</time>
      </trkpt>
      <trkpt lat="49.37366" lon="-1.55638">
        <ele>58.031908</ele>
        <time>2021-09-05T10:40:31.000Z</time>
      </trkpt>
      <trkpt lat="49.37355" lon="-1.55663">
        <ele>57.82749</ele>
        <time>2021-09-05T10:40:34.000Z</time>
      </trkpt>
      <trkpt lat="49.37344" lon="-1.55687">
        <ele>57.643327</ele>
        <time>2021-09-05T10:40:38.000Z</time>
      </trkpt>
      <trkpt lat="49.37332" lon="-1.55711">
        <ele>57.504103</ele>
        <time>2021-09-05T10:40:40.000Z</time>
      </trkpt>
      <trkpt lat="49.37303" lon="-1.55776">
        <ele>57.129681</ele>
        <time>2021-09-05T10:40:48.000Z</time>
      </trkpt>
      <trkpt lat="49.37285" lon="-1.55813">
        <ele>56.912711</ele>
        <time>2021-09-05T10:40:53.000Z</time>
      </trkpt>
      <trkpt lat="49.37267" lon="-1.55853">
        <ele>56.683823</ele>
        <time>2021-09-05T10:40:59.000Z</time>
      </trkpt>
      <trkpt lat="49.3725" lon="-1.5589">
        <ele>56.464083</ele>
        <time>2021-09-05T10:41:04.000Z</time>
      </trkpt>
      <trkpt lat="49.37223" lon="-1.55948">
        <ele>56.314078</ele>
        <time>2021-09-05T10:41:10.000Z</time>
      </trkpt>
      <trkpt lat="49.37204" lon="-1.5599">
        <ele>56.247617</ele>
        <time>2021-09-05T10:41:16.000Z</time>
      </trkpt>
      <trkpt lat="49.3717" lon="-1.56053">
        <ele>56.141886</ele>
        <time>2021-09-05T10:41:23.000Z</time>
      </trkpt>
      <trkpt lat="49.37147" lon="-1.5609">
        <ele>56.076597</ele>
        <time>2021-09-05T10:41:29.000Z</time>
      </trkpt>
      <trkpt lat="49.37124" lon="-1.56128">
        <ele>55.879363</ele>
        <time>2021-09-05T10:41:33.000Z</time>
      </trkpt>
      <trkpt lat="49.37088" lon="-1.56186">
        <ele>55.010613</ele>
        <time>2021-09-05T10:41:40.000Z</time>
      </trkpt>
      <trkpt lat="49.37078" lon="-1.56202">
        <ele>54.756249</ele>
        <time>2021-09-05T10:41:43.000Z</time>
      </trkpt>
      <trkpt lat="49.37063" lon="-1.56228">
        <ele>54.373369</ele>
        <time>2021-09-05T10:41:45.000Z</time>
      </trkpt>
      <trkpt lat="49.37035" lon="-1.56264">
        <ele>53.766126</ele>
        <time>2021-09-05T10:41:51.000Z</time>
      </trkpt>
      <trkpt lat="49.37019" lon="-1.56285">
        <ele>53.408942</ele>
        <time>2021-09-05T10:41:56.000Z</time>
      </trkpt>
      <trkpt lat="49.37007" lon="-1.56301">
        <ele>53.138201</ele>
        <time>2021-09-05T10:42:00.000Z</time>
      </trkpt>
      <trkpt lat="49.36982" lon="-1.56334">
        <ele>52.385404</ele>
        <time>2021-09-05T10:42:05.000Z</time>
      </trkpt>
      <trkpt lat="49.36951" lon="-1.56372">
        <ele>51.408607</ele>
        <time>2021-09-05T10:42:11.000Z</time>
      </trkpt>
      <trkpt lat="49.36924" lon="-1.56403">
        <ele>50.550392</ele>
        <time>2021-09-05T10:42:17.000Z</time>
      </trkpt>
      <trkpt lat="49.36896" lon="-1.56434">
        <ele>49.695141</ele>
        <time>2021-09-05T10:42:22.000Z</time>
      </trkpt>
      <trkpt lat="49.36857" lon="-1.56477">
        <ele>48.488181</ele>
        <time>2021-09-05T10:42:28.000Z</time>
      </trkpt>
      <trkpt lat="49.36808" lon="-1.56524">
        <ele>46.162593</ele>
        <time>2021-09-05T10:42:36.000Z</time>
      </trkpt>
      <trkpt lat="49.3678" lon="-1.56554">
        <ele>44.751241</ele>
        <time>2021-09-05T10:42:41.000Z</time>
      </trkpt>
      <trkpt lat="49.36751" lon="-1.56584">
        <ele>43.335035</ele>
        <time>2021-09-05T10:42:46.000Z</time>
      </trkpt>
      <trkpt lat="49.3674" lon="-1.56595">
        <ele>42.816691</ele>
        <time>2021-09-05T10:42:48.000Z</time>
      </trkpt>
      <trkpt lat="49.3673" lon="-1.56607">
        <ele>42.293495</ele>
        <time>2021-09-05T10:42:50.000Z</time>
      </trkpt>
      <trkpt lat="49.36708" lon="-1.56632">
        <ele>41.173308</ele>
        <time>2021-09-05T10:42:55.000Z</time>
      </trkpt>
      <trkpt lat="49.36697" lon="-1.56644">
        <ele>40.691544</ele>
        <time>2021-09-05T10:42:56.000Z</time>
      </trkpt>
      <trkpt lat="49.36681" lon="-1.56663">
        <ele>39.927764</ele>
        <time>2021-09-05T10:43:00.000Z</time>
      </trkpt>
      <trkpt lat="49.36637" lon="-1.56715">
        <ele>37.861167</ele>
        <time>2021-09-05T10:43:07.000Z</time>
      </trkpt>
      <trkpt lat="49.36625" lon="-1.5673">
        <ele>37.318859</ele>
        <time>2021-09-05T10:43:10.000Z</time>
      </trkpt>
      <trkpt lat="49.36604" lon="-1.56757">
        <ele>36.284292</ele>
        <time>2021-09-05T10:43:13.000Z</time>
      </trkpt>
      <trkpt lat="49.36573" lon="-1.56799">
        <ele>34.744833</ele>
        <time>2021-09-05T10:43:19.000Z</time>
      </trkpt>
      <trkpt lat="49.36548" lon="-1.56849">
        <ele>33.761819</ele>
        <time>2021-09-05T10:43:25.000Z</time>
      </trkpt>
      <trkpt lat="49.36544" lon="-1.56857">
        <ele>33.617232</ele>
        <time>2021-09-05T10:43:26.000Z</time>
      </trkpt>
      <trkpt lat="49.36538" lon="-1.56875">
        <ele>33.324618</ele>
        <time>2021-09-05T10:43:28.000Z</time>
      </trkpt>
      <trkpt lat="49.36534" lon="-1.56884">
        <ele>33.172602</ele>
        <time>2021-09-05T10:43:29.000Z</time>
      </trkpt>
      <trkpt lat="49.36516" lon="-1.56935">
        <ele>32.336616</ele>
        <time>2021-09-05T10:43:34.000Z</time>
      </trkpt>
      <trkpt lat="49.36506" lon="-1.56963">
        <ele>31.884344</ele>
        <time>2021-09-05T10:43:37.000Z</time>
      </trkpt>
      <trkpt lat="49.36504" lon="-1.5697">
        <ele>31.765959</ele>
        <time>2021-09-05T10:43:38.000Z</time>
      </trkpt>
      <trkpt lat="49.365" lon="-1.56976">
        <ele>31.645656</ele>
        <time>2021-09-05T10:43:40.000Z</time>
      </trkpt>
      <trkpt lat="49.36492" lon="-1.57001">
        <ele>31.244422</ele>
        <time>2021-09-05T10:43:43.000Z</time>
      </trkpt>
      <trkpt lat="49.3648" lon="-1.57052">
        <ele>30.565061</ele>
        <time>2021-09-05T10:43:51.000Z</time>
      </trkpt>
      <trkpt lat="49.36476" lon="-1.57082">
        <ele>30.527273</ele>
        <time>2021-09-05T10:43:57.000Z</time>
      </trkpt>
      <trkpt lat="49.36472" lon="-1.5711">
        <ele>30.491639</ele>
        <time>2021-09-05T10:44:01.000Z</time>
      </trkpt>
      <trkpt lat="49.36469" lon="-1.5713">
        <ele>30.4665</ele>
        <time>2021-09-05T10:44:04.000Z</time>
      </trkpt>
      <trkpt lat="49.36467" lon="-1.57145">
        <ele>30.447745</ele>
        <time>2021-09-05T10:44:06.000Z</time>
      </trkpt>
      <trkpt lat="49.36463" lon="-1.57179">
        <ele>30.405644</ele>
        <time>2021-09-05T10:44:10.000Z</time>
      </trkpt>
      <trkpt lat="49.36462" lon="-1.57187">
        <ele>30.39523</ele>
        <time>2021-09-05T10:44:12.000Z</time>
      </trkpt>
      <trkpt lat="49.36458" lon="-1.57213">
        <ele>30.363504</ele>
        <time>2021-09-05T10:44:14.000Z</time>
      </trkpt>
      <trkpt lat="49.36457" lon="-1.57222">
        <ele>30.352371</ele>
        <time>2021-09-05T10:44:16.000Z</time>
      </trkpt>
      <trkpt lat="49.36454" lon="-1.57258">
        <ele>30.307039</ele>
        <time>2021-09-05T10:44:20.000Z</time>
      </trkpt>
      <trkpt lat="49.36453" lon="-1.57277">
        <ele>30.284082</ele>
        <time>2021-09-05T10:44:21.000Z</time>
      </trkpt>
      <trkpt lat="49.36452" lon="-1.57287">
        <ele>30.272348</ele>
        <time>2021-09-05T10:44:22.000Z</time>
      </trkpt>
      <trkpt lat="49.36449" lon="-1.57327">
        <ele>30.216857</ele>
        <time>2021-09-05T10:44:26.000Z</time>
      </trkpt>
      <trkpt lat="49.36448" lon="-1.57337">
        <ele>30.199652</ele>
        <time>2021-09-05T10:44:28.000Z</time>
      </trkpt>
      <trkpt lat="49.36445" lon="-1.57377">
        <ele>30.12856</ele>
        <time>2021-09-05T10:44:31.000Z</time>
      </trkpt>
      <trkpt lat="49.3644" lon="-1.57429">
        <ele>30.036039</ele>
        <time>2021-09-05T10:44:36.000Z</time>
      </trkpt>
      <trkpt lat="49.36433" lon="-1.57481">
        <ele>29.942079</ele>
        <time>2021-09-05T10:44:42.000Z</time>
      </trkpt>
      <trkpt lat="49.36421" lon="-1.57548">
        <ele>29.820594</ele>
        <time>2021-09-05T10:44:48.000Z</time>
      </trkpt>
      <trkpt lat="49.36419" lon="-1.57557">
        <ele>29.802918</ele>
        <time>2021-09-05T10:44:49.000Z</time>
      </trkpt>
      <trkpt lat="49.36413" lon="-1.57596">
        <ele>29.705321</ele>
        <time>2021-09-05T10:44:53.000Z</time>
      </trkpt>
      <trkpt lat="49.36411" lon="-1.57605">
        <ele>29.65925</ele>
        <time>2021-09-05T10:44:54.000Z</time>
      </trkpt>
      <trkpt lat="49.36406" lon="-1.57634">
        <ele>29.515568</ele>
        <time>2021-09-05T10:44:57.000Z</time>
      </trkpt>
      <trkpt lat="49.36388" lon="-1.57692">
        <ele>29.206859</ele>
        <time>2021-09-05T10:45:03.000Z</time>
      </trkpt>
      <trkpt lat="49.36376" lon="-1.57731">
        <ele>28.999423</ele>
        <time>2021-09-05T10:45:07.000Z</time>
      </trkpt>
      <trkpt lat="49.36372" lon="-1.57741">
        <ele>28.946025</ele>
        <time>2021-09-05T10:45:08.000Z</time>
      </trkpt>
      <trkpt lat="49.36364" lon="-1.57759">
        <ele>28.84127</ele>
        <time>2021-09-05T10:45:10.000Z</time>
      </trkpt>
      <trkpt lat="49.36357" lon="-1.57776">
        <ele>28.746148</ele>
        <time>2021-09-05T10:45:12.000Z</time>
      </trkpt>
      <trkpt lat="49.36339" lon="-1.57818">
        <ele>28.503731</ele>
        <time>2021-09-05T10:45:17.000Z</time>
      </trkpt>
      <trkpt lat="49.36315" lon="-1.57877">
        <ele>28.127484</ele>
        <time>2021-09-05T10:45:24.000Z</time>
      </trkpt>
      <trkpt lat="49.36312" lon="-1.57884">
        <ele>28.075637</ele>
        <time>2021-09-05T10:45:26.000Z</time>
      </trkpt>
      <trkpt lat="49.36293" lon="-1.57921">
        <ele>27.813121</ele>
        <time>2021-09-05T10:45:30.000Z</time>
      </trkpt>
      <trkpt lat="49.36258" lon="-1.57981">
        <ele>27.360935</ele>
        <time>2021-09-05T10:45:38.000Z</time>
      </trkpt>
      <trkpt lat="49.36242" lon="-1.58002">
        <ele>27.178265</ele>
        <time>2021-09-05T10:45:41.000Z</time>
      </trkpt>
      <trkpt lat="49.3623" lon="-1.58011">
        <ele>27.064232</ele>
        <time>2021-09-05T10:45:43.000Z</time>
      </trkpt>
      <trkpt lat="49.36208" lon="-1.58035">
        <ele>26.792138</ele>
        <time>2021-09-05T10:45:48.000Z</time>
      </trkpt>
      <trkpt lat="49.36194" lon="-1.58051">
        <ele>26.497626</ele>
        <time>2021-09-05T10:45:50.000Z</time>
      </trkpt>
      <trkpt lat="49.36194" lon="-1.58051">
        <ele>26.497626</ele>
        <time>2021-09-05T10:45:51.000Z</time>
      </trkpt>
      <trkpt lat="49.3619" lon="-1.58056">
        <ele>26.413288</ele>
        <time>2021-09-05T10:45:52.000Z</time>
      </trkpt>
      <trkpt lat="49.36178" lon="-1.58081">
        <ele>26.08678</ele>
        <time>2021-09-05T10:45:55.000Z</time>
      </trkpt>
      <trkpt lat="49.36178" lon="-1.58081">
        <ele>26.08678</ele>
        <time>2021-09-05T10:45:56.000Z</time>
      </trkpt>
      <trkpt lat="49.36162" lon="-1.58104">
        <ele>25.71837</ele>
        <time>2021-09-05T10:46:00.000Z</time>
      </trkpt>
      <trkpt lat="49.36143" lon="-1.58125">
        <ele>25.334967</ele>
        <time>2021-09-05T10:46:03.000Z</time>
      </trkpt>
      <trkpt lat="49.36139" lon="-1.5813">
        <ele>25.237251</ele>
        <time>2021-09-05T10:46:05.000Z</time>
      </trkpt>
      <trkpt lat="49.36096" lon="-1.58169">
        <ele>24.419498</ele>
        <time>2021-09-05T10:46:12.000Z</time>
      </trkpt>
      <trkpt lat="49.36047" lon="-1.58206">
        <ele>23.370764</ele>
        <time>2021-09-05T10:46:21.000Z</time>
      </trkpt>
      <trkpt lat="49.3601" lon="-1.58231">
        <ele>22.482</ele>
        <time>2021-09-05T10:46:28.000Z</time>
      </trkpt>
      <trkpt lat="49.36" lon="-1.58238">
        <ele>22.221183</ele>
        <time>2021-09-05T10:46:30.000Z</time>
      </trkpt>
      <trkpt lat="49.35989" lon="-1.58245">
        <ele>21.953065</ele>
        <time>2021-09-05T10:46:32.000Z</time>
      </trkpt>
      <trkpt lat="49.3596" lon="-1.58262">
        <ele>21.278242</ele>
        <time>2021-09-05T10:46:38.000Z</time>
      </trkpt>
      <trkpt lat="49.35916" lon="-1.58288">
        <ele>20.221492</ele>
        <time>2021-09-05T10:46:45.000Z</time>
      </trkpt>
      <trkpt lat="49.35894" lon="-1.58301">
        <ele>19.67714</ele>
        <time>2021-09-05T10:46:49.000Z</time>
      </trkpt>
      <trkpt lat="49.35866" lon="-1.58317">
        <ele>18.968112</ele>
        <time>2021-09-05T10:46:55.000Z</time>
      </trkpt>
      <trkpt lat="49.3584" lon="-1.58332">
        <ele>18.280468</ele>
        <time>2021-09-05T10:47:00.000Z</time>
      </trkpt>
      <trkpt lat="49.35823" lon="-1.58342">
        <ele>17.851904</ele>
        <time>2021-09-05T10:47:02.000Z</time>
      </trkpt>
      <trkpt lat="49.35806" lon="-1.58352">
        <ele>17.400805</ele>
        <time>2021-09-05T10:47:05.000Z</time>
      </trkpt>
      <trkpt lat="49.35772" lon="-1.58371">
        <ele>16.523346</ele>
        <time>2021-09-05T10:47:12.000Z</time>
      </trkpt>
      <trkpt lat="49.35766" lon="-1.58374">
        <ele>16.376907</ele>
        <time>2021-09-05T10:47:13.000Z</time>
      </trkpt>
      <trkpt lat="49.35743" lon="-1.58387">
        <ele>15.798486</ele>
        <time>2021-09-05T10:47:17.000Z</time>
      </trkpt>
      <trkpt lat="49.35699" lon="-1.58412">
        <ele>14.73066</ele>
        <time>2021-09-05T10:47:24.000Z</time>
      </trkpt>
      <trkpt lat="49.3565" lon="-1.5844">
        <ele>13.586061</ele>
        <time>2021-09-05T10:47:33.000Z</time>
      </trkpt>
      <trkpt lat="49.35625" lon="-1.58458">
        <ele>12.969871</ele>
        <time>2021-09-05T10:47:39.000Z</time>
      </trkpt>
      <trkpt lat="49.35596" lon="-1.58481">
        <ele>12.240652</ele>
        <time>2021-09-05T10:47:44.000Z</time>
      </trkpt>
      <trkpt lat="49.35567" lon="-1.58506">
        <ele>11.551473</ele>
        <time>2021-09-05T10:47:50.000Z</time>
      </trkpt>
      <trkpt lat="49.35546" lon="-1.58524">
        <ele>11.442233</ele>
        <time>2021-09-05T10:47:54.000Z</time>
      </trkpt>
      <trkpt lat="49.35541" lon="-1.58529">
        <ele>11.414341</ele>
        <time>2021-09-05T10:47:56.000Z</time>
      </trkpt>
      <trkpt lat="49.35519" lon="-1.58547">
        <ele>11.303611</ele>
        <time>2021-09-05T10:47:59.000Z</time>
      </trkpt>
      <trkpt lat="49.35505" lon="-1.5856">
        <ele>11.227325</ele>
        <time>2021-09-05T10:48:02.000Z</time>
      </trkpt>
      <trkpt lat="49.35497" lon="-1.58569">
        <ele>11.180021</ele>
        <time>2021-09-05T10:48:05.000Z</time>
      </trkpt>
      <trkpt lat="49.35483" lon="-1.58584">
        <ele>11.104672</ele>
        <time>2021-09-05T10:48:07.000Z</time>
      </trkpt>
      <trkpt lat="49.35469" lon="-1.58598">
        <ele>11.028397</ele>
        <time>2021-09-05T10:48:10.000Z</time>
      </trkpt>
      <trkpt lat="49.3546" lon="-1.58607">
        <ele>10.97591</ele>
        <time>2021-09-05T10:48:12.000Z</time>
      </trkpt>
      <trkpt lat="49.35437" lon="-1.5863">
        <ele>10.850827</ele>
        <time>2021-09-05T10:48:18.000Z</time>
      </trkpt>
      <trkpt lat="49.35418" lon="-1.58647">
        <ele>10.750963</ele>
        <time>2021-09-05T10:48:22.000Z</time>
      </trkpt>
      <trkpt lat="49.35404" lon="-1.58661">
        <ele>10.932015</ele>
        <time>2021-09-05T10:48:24.000Z</time>
      </trkpt>
      <trkpt lat="49.35376" lon="-1.58688">
        <ele>11.398153</ele>
        <time>2021-09-05T10:48:30.000Z</time>
      </trkpt>
      <trkpt lat="49.35348" lon="-1.58711">
        <ele>11.83324</ele>
        <time>2021-09-05T10:48:35.000Z</time>
      </trkpt>
      <trkpt lat="49.35334" lon="-1.58724">
        <ele>12.062515</ele>
        <time>2021-09-05T10:48:37.000Z</time>
      </trkpt>
      <trkpt lat="49.35329" lon="-1.58728">
        <ele>12.146943</ele>
        <time>2021-09-05T10:48:39.000Z</time>
      </trkpt>
      <trkpt lat="49.35313" lon="-1.58742">
        <ele>12.403108</ele>
        <time>2021-09-05T10:48:41.000Z</time>
      </trkpt>
      <trkpt lat="49.35303" lon="-1.5875">
        <ele>12.552494</ele>
        <time>2021-09-05T10:48:44.000Z</time>
      </trkpt>
      <trkpt lat="49.3526" lon="-1.58785">
        <ele>13.232296</ele>
        <time>2021-09-05T10:48:51.000Z</time>
      </trkpt>
      <trkpt lat="49.35235" lon="-1.58805">
        <ele>13.487132</ele>
        <time>2021-09-05T10:48:57.000Z</time>
      </trkpt>
      <trkpt lat="49.35199" lon="-1.58833">
        <ele>13.843677</ele>
        <time>2021-09-05T10:49:03.000Z</time>
      </trkpt>
      <trkpt lat="49.35167" lon="-1.58854">
        <ele>14.151109</ele>
        <time>2021-09-05T10:49:10.000Z</time>
      </trkpt>
      <trkpt lat="49.35124" lon="-1.5888">
        <ele>14.552188</ele>
        <time>2021-09-05T10:49:18.000Z</time>
      </trkpt>
      <trkpt lat="49.35091" lon="-1.589">
        <ele>14.81123</ele>
        <time>2021-09-05T10:49:24.000Z</time>
      </trkpt>
      <trkpt lat="49.35082" lon="-1.58905">
        <ele>14.77985</ele>
        <time>2021-09-05T10:49:27.000Z</time>
      </trkpt>
      <trkpt lat="49.3507" lon="-1.58912">
        <ele>14.735072</ele>
        <time>2021-09-05T10:49:29.000Z</time>
      </trkpt>
      <trkpt lat="49.35057" lon="-1.58919">
        <ele>14.689016</ele>
        <time>2021-09-05T10:49:32.000Z</time>
      </trkpt>
      <trkpt lat="49.35049" lon="-1.58923">
        <ele>14.660311</ele>
        <time>2021-09-05T10:49:34.000Z</time>
      </trkpt>
      <trkpt lat="49.35038" lon="-1.58929">
        <ele>14.619004</ele>
        <time>2021-09-05T10:49:37.000Z</time>
      </trkpt>
      <trkpt lat="49.35033" lon="-1.58932">
        <ele>14.601724</ele>
        <time>2021-09-05T10:49:38.000Z</time>
      </trkpt>
      <trkpt lat="49.35005" lon="-1.58946">
        <ele>14.501829</ele>
        <time>2021-09-05T10:49:43.000Z</time>
      </trkpt>
      <trkpt lat="49.34994" lon="-1.58952">
        <ele>14.460915</ele>
        <time>2021-09-05T10:49:45.000Z</time>
      </trkpt>
      <trkpt lat="49.34952" lon="-1.58972">
        <ele>14.313961</ele>
        <time>2021-09-05T10:49:53.000Z</time>
      </trkpt>
      <trkpt lat="49.34904" lon="-1.58994">
        <ele>14.03668</ele>
        <time>2021-09-05T10:50:01.000Z</time>
      </trkpt>
      <trkpt lat="49.34852" lon="-1.59016">
        <ele>13.572296</ele>
        <time>2021-09-05T10:50:09.000Z</time>
      </trkpt>
      <trkpt lat="49.34845" lon="-1.59017">
        <ele>13.519737</ele>
        <time>2021-09-05T10:50:10.000Z</time>
      </trkpt>
      <trkpt lat="49.34815" lon="-1.59025">
        <ele>13.259448</ele>
        <time>2021-09-05T10:50:15.000Z</time>
      </trkpt>
      <trkpt lat="49.34787" lon="-1.59032">
        <ele>13.017665</ele>
        <time>2021-09-05T10:50:20.000Z</time>
      </trkpt>
      <trkpt lat="49.3476" lon="-1.59039">
        <ele>12.782854</ele>
        <time>2021-09-05T10:50:25.000Z</time>
      </trkpt>
      <trkpt lat="49.3473" lon="-1.59047">
        <ele>12.395307</ele>
        <time>2021-09-05T10:50:31.000Z</time>
      </trkpt>
      <trkpt lat="49.34708" lon="-1.59051">
        <ele>12.044444</ele>
        <time>2021-09-05T10:50:36.000Z</time>
      </trkpt>
      <trkpt lat="49.34661" lon="-1.59059">
        <ele>11.326709</ele>
        <time>2021-09-05T10:50:43.000Z</time>
      </trkpt>
      <trkpt lat="49.34616" lon="-1.59066">
        <ele>10.616657</ele>
        <time>2021-09-05T10:50:51.000Z</time>
      </trkpt>
      <trkpt lat="49.34582" lon="-1.59072">
        <ele>10.08686</ele>
        <time>2021-09-05T10:50:57.000Z</time>
      </trkpt>
      <trkpt lat="49.34576" lon="-1.59072">
        <ele>10.004572</ele>
        <time>2021-09-05T10:50:58.000Z</time>
      </trkpt>
      <trkpt lat="49.34543" lon="-1.59078">
        <ele>9.563896</ele>
        <time>2021-09-05T10:51:04.000Z</time>
      </trkpt>
      <trkpt lat="49.34518" lon="-1.59082">
        <ele>9.259435</ele>
        <time>2021-09-05T10:51:10.000Z</time>
      </trkpt>
      <trkpt lat="49.34477" lon="-1.59088">
        <ele>8.736959</ele>
        <time>2021-09-05T10:51:17.000Z</time>
      </trkpt>
      <trkpt lat="49.34454" lon="-1.59092">
        <ele>8.459101</ele>
        <time>2021-09-05T10:51:21.000Z</time>
      </trkpt>
      <trkpt lat="49.34449" lon="-1.59092">
        <ele>8.392738</ele>
        <time>2021-09-05T10:51:22.000Z</time>
      </trkpt>
      <trkpt lat="49.34412" lon="-1.59098">
        <ele>7.928349</ele>
        <time>2021-09-05T10:51:29.000Z</time>
      </trkpt>
      <trkpt lat="49.3438" lon="-1.59102">
        <ele>7.675417</ele>
        <time>2021-09-05T10:51:35.000Z</time>
      </trkpt>
      <trkpt lat="49.34365" lon="-1.59105">
        <ele>7.685297</ele>
        <time>2021-09-05T10:51:38.000Z</time>
      </trkpt>
      <trkpt lat="49.34354" lon="-1.59106">
        <ele>7.6921</ele>
        <time>2021-09-05T10:51:41.000Z</time>
      </trkpt>
      <trkpt lat="49.34344" lon="-1.59108">
        <ele>7.698709</ele>
        <time>2021-09-05T10:51:42.000Z</time>
      </trkpt>
      <trkpt lat="49.34334" lon="-1.59109">
        <ele>7.705055</ele>
        <time>2021-09-05T10:51:44.000Z</time>
      </trkpt>
      <trkpt lat="49.34329" lon="-1.5911">
        <ele>7.708524</ele>
        <time>2021-09-05T10:51:46.000Z</time>
      </trkpt>
      <trkpt lat="49.34319" lon="-1.59111">
        <ele>7.715392</ele>
        <time>2021-09-05T10:51:47.000Z</time>
      </trkpt>
      <trkpt lat="49.34294" lon="-1.59115">
        <ele>7.731423</ele>
        <time>2021-09-05T10:51:52.000Z</time>
      </trkpt>
      <trkpt lat="49.34289" lon="-1.59116">
        <ele>7.735021</ele>
        <time>2021-09-05T10:51:53.000Z</time>
      </trkpt>
      <trkpt lat="49.3426" lon="-1.5912">
        <ele>7.753536</ele>
        <time>2021-09-05T10:51:58.000Z</time>
      </trkpt>
      <trkpt lat="49.34239" lon="-1.59123">
        <ele>7.767731</ele>
        <time>2021-09-05T10:52:02.000Z</time>
      </trkpt>
      <trkpt lat="49.34234" lon="-1.59124">
        <ele>7.771005</ele>
        <time>2021-09-05T10:52:04.000Z</time>
      </trkpt>
      <trkpt lat="49.34199" lon="-1.59129">
        <ele>7.832904</ele>
        <time>2021-09-05T10:52:10.000Z</time>
      </trkpt>
      <trkpt lat="49.34167" lon="-1.59133">
        <ele>7.946238</ele>
        <time>2021-09-05T10:52:17.000Z</time>
      </trkpt>
      <trkpt lat="49.34152" lon="-1.59136">
        <ele>7.997906</ele>
        <time>2021-09-05T10:52:19.000Z</time>
      </trkpt>
      <trkpt lat="49.34148" lon="-1.59136">
        <ele>8.014658</ele>
        <time>2021-09-05T10:52:21.000Z</time>
      </trkpt>
      <trkpt lat="49.34143" lon="-1.59137">
        <ele>8.030682</ele>
        <time>2021-09-05T10:52:22.000Z</time>
      </trkpt>
      <trkpt lat="49.34134" lon="-1.59138">
        <ele>8.062752</ele>
        <time>2021-09-05T10:52:23.000Z</time>
      </trkpt>
      <trkpt lat="49.34112" lon="-1.59143">
        <ele>8.144011</ele>
        <time>2021-09-05T10:52:28.000Z</time>
      </trkpt>
      <trkpt lat="49.34107" lon="-1.59144">
        <ele>8.160604</ele>
        <time>2021-09-05T10:52:29.000Z</time>
      </trkpt>
      <trkpt lat="49.34093" lon="-1.59148">
        <ele>8.21135</ele>
        <time>2021-09-05T10:52:32.000Z</time>
      </trkpt>
      <trkpt lat="49.34058" lon="-1.59153">
        <ele>8.335765</ele>
        <time>2021-09-05T10:52:39.000Z</time>
      </trkpt>
      <trkpt lat="49.34027" lon="-1.59158">
        <ele>8.392783</ele>
        <time>2021-09-05T10:52:45.000Z</time>
      </trkpt>
      <trkpt lat="49.34007" lon="-1.59161">
        <ele>8.289967</ele>
        <time>2021-09-05T10:52:49.000Z</time>
      </trkpt>
      <trkpt lat="49.34002" lon="-1.59161">
        <ele>8.264</ele>
        <time>2021-09-05T10:52:51.000Z</time>
      </trkpt>
      <trkpt lat="49.33974" lon="-1.59165">
        <ele>8.128756</ele>
        <time>2021-09-05T10:52:56.000Z</time>
      </trkpt>
      <trkpt lat="49.33954" lon="-1.59168">
        <ele>8.024951</ele>
        <time>2021-09-05T10:52:59.000Z</time>
      </trkpt>
      <trkpt lat="49.33944" lon="-1.5917">
        <ele>7.975552</ele>
        <time>2021-09-05T10:53:01.000Z</time>
      </trkpt>
      <trkpt lat="49.33916" lon="-1.59174">
        <ele>7.837804</ele>
        <time>2021-09-05T10:53:06.000Z</time>
      </trkpt>
      <trkpt lat="49.33886" lon="-1.59178">
        <ele>7.686579</ele>
        <time>2021-09-05T10:53:11.000Z</time>
      </trkpt>
      <trkpt lat="49.33879" lon="-1.59179">
        <ele>7.654151</ele>
        <time>2021-09-05T10:53:13.000Z</time>
      </trkpt>
      <trkpt lat="49.3386" lon="-1.59182">
        <ele>7.559805</ele>
        <time>2021-09-05T10:53:15.000Z</time>
      </trkpt>
      <trkpt lat="49.33828" lon="-1.59186">
        <ele>7.256757</ele>
        <time>2021-09-05T10:53:20.000Z</time>
      </trkpt>
      <trkpt lat="49.33796" lon="-1.59191">
        <ele>6.925628</ele>
        <time>2021-09-05T10:53:26.000Z</time>
      </trkpt>
      <trkpt lat="49.33757" lon="-1.59197">
        <ele>6.524491</ele>
        <time>2021-09-05T10:53:31.000Z</time>
      </trkpt>
      <trkpt lat="49.33724" lon="-1.59201">
        <ele>6.192342</ele>
        <time>2021-09-05T10:53:36.000Z</time>
      </trkpt>
      <trkpt lat="49.33718" lon="-1.59202">
        <ele>6.126537</ele>
        <time>2021-09-05T10:53:37.000Z</time>
      </trkpt>
      <trkpt lat="49.33687" lon="-1.59207">
        <ele>5.81178</ele>
        <time>2021-09-05T10:53:42.000Z</time>
      </trkpt>
      <trkpt lat="49.33664" lon="-1.5921">
        <ele>5.605697</ele>
        <time>2021-09-05T10:53:47.000Z</time>
      </trkpt>
      <trkpt lat="49.33645" lon="-1.59213">
        <ele>5.462405</ele>
        <time>2021-09-05T10:53:49.000Z</time>
      </trkpt>
      <trkpt lat="49.33633" lon="-1.59215">
        <ele>5.368642</ele>
        <time>2021-09-05T10:53:51.000Z</time>
      </trkpt>
      <trkpt lat="49.33587" lon="-1.59221">
        <ele>5.025837</ele>
        <time>2021-09-05T10:53:58.000Z</time>
      </trkpt>
      <trkpt lat="49.33548" lon="-1.59227">
        <ele>4.733437</ele>
        <time>2021-09-05T10:54:05.000Z</time>
      </trkpt>
      <trkpt lat="49.33523" lon="-1.59229">
        <ele>4.549316</ele>
        <time>2021-09-05T10:54:08.000Z</time>
      </trkpt>
      <trkpt lat="49.33507" lon="-1.59231">
        <ele>4.429539</ele>
        <time>2021-09-05T10:54:11.000Z</time>
      </trkpt>
      <trkpt lat="49.33503" lon="-1.59231">
        <ele>4.395099</ele>
        <time>2021-09-05T10:54:12.000Z</time>
      </trkpt>
      <trkpt lat="49.33493" lon="-1.59232">
        <ele>4.350859</ele>
        <time>2021-09-05T10:54:15.000Z</time>
      </trkpt>
      <trkpt lat="49.3348" lon="-1.59234">
        <ele>4.377908</ele>
        <time>2021-09-05T10:54:20.000Z</time>
      </trkpt>
      <trkpt lat="49.33467" lon="-1.59234">
        <ele>4.405962</ele>
        <time>2021-09-05T10:54:24.000Z</time>
      </trkpt>
      <trkpt lat="49.33463" lon="-1.59234">
        <ele>4.414749</ele>
        <time>2021-09-05T10:54:25.000Z</time>
      </trkpt>
      <trkpt lat="49.33458" lon="-1.59234">
        <ele>4.423746</ele>
        <time>2021-09-05T10:54:27.000Z</time>
      </trkpt>
      <trkpt lat="49.33444" lon="-1.59232">
        <ele>4.454011</ele>
        <time>2021-09-05T10:54:29.000Z</time>
      </trkpt>
      <trkpt lat="49.33419" lon="-1.59227">
        <ele>4.507367</ele>
        <time>2021-09-05T10:54:35.000Z</time>
      </trkpt>
      <trkpt lat="49.33371" lon="-1.59214">
        <ele>4.607449</ele>
        <time>2021-09-05T10:54:43.000Z</time>
      </trkpt>
      <trkpt lat="49.33327" lon="-1.59195">
        <ele>4.703827</ele>
        <time>2021-09-05T10:54:52.000Z</time>
      </trkpt>
      <trkpt lat="49.33317" lon="-1.59189">
        <ele>4.721936</ele>
        <time>2021-09-05T10:54:54.000Z</time>
      </trkpt>
      <trkpt lat="49.33309" lon="-1.59185">
        <ele>4.726593</ele>
        <time>2021-09-05T10:54:56.000Z</time>
      </trkpt>
      <trkpt lat="49.33278" lon="-1.59166">
        <ele>4.7428</ele>
        <time>2021-09-05T10:55:03.000Z</time>
      </trkpt>
      <trkpt lat="49.33274" lon="-1.59163">
        <ele>4.745052</ele>
        <time>2021-09-05T10:55:04.000Z</time>
      </trkpt>
      <trkpt lat="49.33256" lon="-1.59148">
        <ele>4.755444</ele>
        <time>2021-09-05T10:55:08.000Z</time>
      </trkpt>
      <trkpt lat="49.33251" lon="-1.59144">
        <ele>4.75805</ele>
        <time>2021-09-05T10:55:10.000Z</time>
      </trkpt>
      <trkpt lat="49.33235" lon="-1.59131">
        <ele>4.767162</ele>
        <time>2021-09-05T10:55:13.000Z</time>
      </trkpt>
      <trkpt lat="49.33217" lon="-1.59116">
        <ele>4.777289</ele>
        <time>2021-09-05T10:55:18.000Z</time>
      </trkpt>
      <trkpt lat="49.33201" lon="-1.59103">
        <ele>4.785944</ele>
        <time>2021-09-05T10:55:23.000Z</time>
      </trkpt>
      <trkpt lat="49.33182" lon="-1.59088">
        <ele>4.796821</ele>
        <time>2021-09-05T10:55:27.000Z</time>
      </trkpt>
      <trkpt lat="49.33164" lon="-1.59075">
        <ele>4.80652</ele>
        <time>2021-09-05T10:55:32.000Z</time>
      </trkpt>
      <trkpt lat="49.33147" lon="-1.59062">
        <ele>4.766326</ele>
        <time>2021-09-05T10:55:36.000Z</time>
      </trkpt>
      <trkpt lat="49.33135" lon="-1.59052">
        <ele>4.715448</ele>
        <time>2021-09-05T10:55:38.000Z</time>
      </trkpt>
      <trkpt lat="49.3312" lon="-1.59041">
        <ele>4.655126</ele>
        <time>2021-09-05T10:55:42.000Z</time>
      </trkpt>
      <trkpt lat="49.3312" lon="-1.59041">
        <ele>4.655126</ele>
        <time>2021-09-05T10:55:43.000Z</time>
      </trkpt>
      <trkpt lat="49.33109" lon="-1.59033">
        <ele>4.612727</ele>
        <time>2021-09-05T10:55:46.000Z</time>
      </trkpt>
      <trkpt lat="49.33094" lon="-1.59021">
        <ele>4.552405</ele>
        <time>2021-09-05T10:55:50.000Z</time>
      </trkpt>
      <trkpt lat="49.33054" lon="-1.5899">
        <ele>4.39022</ele>
        <time>2021-09-05T10:55:57.000Z</time>
      </trkpt>
      <trkpt lat="49.33028" lon="-1.5897">
        <ele>4.285889</ele>
        <time>2021-09-05T10:56:02.000Z</time>
      </trkpt>
      <trkpt lat="49.33003" lon="-1.58951">
        <ele>4.183494</ele>
        <time>2021-09-05T10:56:09.000Z</time>
      </trkpt>
      <trkpt lat="49.32989" lon="-1.58939">
        <ele>4.187701</ele>
        <time>2021-09-05T10:56:14.000Z</time>
      </trkpt>
      <trkpt lat="49.3298" lon="-1.58932">
        <ele>4.219931</ele>
        <time>2021-09-05T10:56:18.000Z</time>
      </trkpt>
      <trkpt lat="49.32969" lon="-1.58924">
        <ele>4.256416</ele>
        <time>2021-09-05T10:56:22.000Z</time>
      </trkpt>
      <trkpt lat="49.32957" lon="-1.58914">
        <ele>4.299156</ele>
        <time>2021-09-05T10:56:28.000Z</time>
      </trkpt>
      <trkpt lat="49.32947" lon="-1.58908">
        <ele>4.330842</ele>
        <time>2021-09-05T10:56:33.000Z</time>
      </trkpt>
      <trkpt lat="49.32939" lon="-1.58904">
        <ele>4.356904</ele>
        <time>2021-09-05T10:56:37.000Z</time>
      </trkpt>
      <trkpt lat="49.32924" lon="-1.58895">
        <ele>4.405182</ele>
        <time>2021-09-05T10:56:43.000Z</time>
      </trkpt>
      <trkpt lat="49.32905" lon="-1.58884">
        <ele>4.466205</ele>
        <time>2021-09-05T10:56:49.000Z</time>
      </trkpt>
      <trkpt lat="49.32888" lon="-1.58874">
        <ele>4.52196</ele>
        <time>2021-09-05T10:56:54.000Z</time>
      </trkpt>
      <trkpt lat="49.32875" lon="-1.58869">
        <ele>4.564195</ele>
        <time>2021-09-05T10:56:59.000Z</time>
      </trkpt>
      <trkpt lat="49.3286" lon="-1.58866">
        <ele>4.609335</ele>
        <time>2021-09-05T10:57:03.000Z</time>
      </trkpt>
      <trkpt lat="49.32844" lon="-1.58863">
        <ele>4.658508</ele>
        <time>2021-09-05T10:57:06.000Z</time>
      </trkpt>
      <trkpt lat="49.32827" lon="-1.5886">
        <ele>4.714317</ele>
        <time>2021-09-05T10:57:11.000Z</time>
      </trkpt>
      <trkpt lat="49.32808" lon="-1.58857">
        <ele>4.809546</ele>
        <time>2021-09-05T10:57:17.000Z</time>
      </trkpt>
      <trkpt lat="49.32785" lon="-1.58856">
        <ele>4.925092</ele>
        <time>2021-09-05T10:57:22.000Z</time>
      </trkpt>
      <trkpt lat="49.32763" lon="-1.58856">
        <ele>5.030678</ele>
        <time>2021-09-05T10:57:27.000Z</time>
      </trkpt>
      <trkpt lat="49.32737" lon="-1.58856">
        <ele>5.163156</ele>
        <time>2021-09-05T10:57:33.000Z</time>
      </trkpt>
      <trkpt lat="49.32714" lon="-1.58858">
        <ele>5.276523</ele>
        <time>2021-09-05T10:57:39.000Z</time>
      </trkpt>
      <trkpt lat="49.327" lon="-1.58862">
        <ele>5.348857</ele>
        <time>2021-09-05T10:57:43.000Z</time>
      </trkpt>
      <trkpt lat="49.32677" lon="-1.58868">
        <ele>5.464176</ele>
        <time>2021-09-05T10:57:48.000Z</time>
      </trkpt>
      <trkpt lat="49.32657" lon="-1.58874">
        <ele>5.564821</ele>
        <time>2021-09-05T10:57:53.000Z</time>
      </trkpt>
      <trkpt lat="49.32635" lon="-1.58884">
        <ele>6.040926</ele>
        <time>2021-09-05T10:57:58.000Z</time>
      </trkpt>
      <trkpt lat="49.32614" lon="-1.58895">
        <ele>6.666061</ele>
        <time>2021-09-05T10:58:03.000Z</time>
      </trkpt>
      <trkpt lat="49.32579" lon="-1.58913">
        <ele>7.705208</ele>
        <time>2021-09-05T10:58:10.000Z</time>
      </trkpt>
      <trkpt lat="49.32558" lon="-1.58924">
        <ele>8.312626</ele>
        <time>2021-09-05T10:58:14.000Z</time>
      </trkpt>
      <trkpt lat="49.32534" lon="-1.58936">
        <ele>9.032843</ele>
        <time>2021-09-05T10:58:19.000Z</time>
      </trkpt>
      <trkpt lat="49.32526" lon="-1.58941">
        <ele>9.265564</ele>
        <time>2021-09-05T10:58:22.000Z</time>
      </trkpt>
      <trkpt lat="49.32517" lon="-1.58945">
        <ele>9.524547</ele>
        <time>2021-09-05T10:58:23.000Z</time>
      </trkpt>
      <trkpt lat="49.32496" lon="-1.58957">
        <ele>10.156533</ele>
        <time>2021-09-05T10:58:28.000Z</time>
      </trkpt>
      <trkpt lat="49.32474" lon="-1.58969">
        <ele>10.862599</ele>
        <time>2021-09-05T10:58:33.000Z</time>
      </trkpt>
      <trkpt lat="49.32448" lon="-1.58979">
        <ele>11.770108</ele>
        <time>2021-09-05T10:58:39.000Z</time>
      </trkpt>
      <trkpt lat="49.32427" lon="-1.58985">
        <ele>12.518831</ele>
        <time>2021-09-05T10:58:44.000Z</time>
      </trkpt>
      <trkpt lat="49.32406" lon="-1.58987">
        <ele>13.244513</ele>
        <time>2021-09-05T10:58:50.000Z</time>
      </trkpt>
      <trkpt lat="49.32386" lon="-1.58988">
        <ele>13.91717</ele>
        <time>2021-09-05T10:58:53.000Z</time>
      </trkpt>
      <trkpt lat="49.32382" lon="-1.58988">
        <ele>14.051702</ele>
        <time>2021-09-05T10:58:54.000Z</time>
      </trkpt>
      <trkpt lat="49.3237" lon="-1.58989">
        <ele>14.469079</ele>
        <time>2021-09-05T10:58:57.000Z</time>
      </trkpt>
      <trkpt lat="49.32365" lon="-1.58989">
        <ele>14.641518</ele>
        <time>2021-09-05T10:58:58.000Z</time>
      </trkpt>
      <trkpt lat="49.32365" lon="-1.58989">
        <ele>14.641518</ele>
        <time>2021-09-05T10:58:59.000Z</time>
      </trkpt>
      <trkpt lat="49.32348" lon="-1.5899">
        <ele>15.252078</ele>
        <time>2021-09-05T10:59:02.000Z</time>
      </trkpt>
      <trkpt lat="49.32326" lon="-1.58988">
        <ele>16.0013</ele>
        <time>2021-09-05T10:59:07.000Z</time>
      </trkpt>
      <trkpt lat="49.32307" lon="-1.58985">
        <ele>16.651056</ele>
        <time>2021-09-05T10:59:12.000Z</time>
      </trkpt>
      <trkpt lat="49.32274" lon="-1.58978">
        <ele>17.255933</ele>
        <time>2021-09-05T10:59:18.000Z</time>
      </trkpt>
      <trkpt lat="49.32251" lon="-1.58968">
        <ele>17.593955</ele>
        <time>2021-09-05T10:59:23.000Z</time>
      </trkpt>
      <trkpt lat="49.32246" lon="-1.58966">
        <ele>17.664224</ele>
        <time>2021-09-05T10:59:24.000Z</time>
      </trkpt>
      <trkpt lat="49.32214" lon="-1.58948">
        <ele>18.154121</ele>
        <time>2021-09-05T10:59:31.000Z</time>
      </trkpt>
      <trkpt lat="49.32178" lon="-1.58926">
        <ele>18.715566</ele>
        <time>2021-09-05T10:59:39.000Z</time>
      </trkpt>
      <trkpt lat="49.32147" lon="-1.58901">
        <ele>19.210803</ele>
        <time>2021-09-05T10:59:47.000Z</time>
      </trkpt>
      <trkpt lat="49.3211" lon="-1.58871">
        <ele>19.737228</ele>
        <time>2021-09-05T10:59:56.000Z</time>
      </trkpt>
      <trkpt lat="49.32095" lon="-1.58859">
        <ele>19.933323</ele>
        <time>2021-09-05T10:59:59.000Z</time>
      </trkpt>
      <trkpt lat="49.32091" lon="-1.58856">
        <ele>19.981573</ele>
        <time>2021-09-05T11:00:01.000Z</time>
      </trkpt>
      <trkpt lat="49.32074" lon="-1.58842">
        <ele>20.206062</ele>
        <time>2021-09-05T11:00:06.000Z</time>
      </trkpt>
      <trkpt lat="49.32059" lon="-1.58828">
        <ele>20.413305</ele>
        <time>2021-09-05T11:00:10.000Z</time>
      </trkpt>
      <trkpt lat="49.32055" lon="-1.58825">
        <ele>20.4599</ele>
        <time>2021-09-05T11:00:12.000Z</time>
      </trkpt>
      <trkpt lat="49.32039" lon="-1.58811">
        <ele>20.673268</ele>
        <time>2021-09-05T11:00:17.000Z</time>
      </trkpt>
      <trkpt lat="49.32031" lon="-1.58805">
        <ele>20.773881</ele>
        <time>2021-09-05T11:00:18.000Z</time>
      </trkpt>
      <trkpt lat="49.32019" lon="-1.58795">
        <ele>20.931987</ele>
        <time>2021-09-05T11:00:22.000Z</time>
      </trkpt>
      <trkpt lat="49.32005" lon="-1.58783">
        <ele>21.114376</ele>
        <time>2021-09-05T11:00:25.000Z</time>
      </trkpt>
      <trkpt lat="49.31997" lon="-1.58777">
        <ele>21.221846</ele>
        <time>2021-09-05T11:00:27.000Z</time>
      </trkpt>
      <trkpt lat="49.31989" lon="-1.5877">
        <ele>21.325869</ele>
        <time>2021-09-05T11:00:29.000Z</time>
      </trkpt>
      <trkpt lat="49.31982" lon="-1.58765">
        <ele>21.413479</ele>
        <time>2021-09-05T11:00:31.000Z</time>
      </trkpt>
      <trkpt lat="49.31966" lon="-1.58751">
        <ele>21.507567</ele>
        <time>2021-09-05T11:00:36.000Z</time>
      </trkpt>
      <trkpt lat="49.31948" lon="-1.58737">
        <ele>21.508264</ele>
        <time>2021-09-05T11:00:41.000Z</time>
      </trkpt>
      <trkpt lat="49.31931" lon="-1.58723">
        <ele>21.508922</ele>
        <time>2021-09-05T11:00:46.000Z</time>
      </trkpt>
      <trkpt lat="49.31912" lon="-1.58707">
        <ele>21.509656</ele>
        <time>2021-09-05T11:00:51.000Z</time>
      </trkpt>
      <trkpt lat="49.31903" lon="-1.587">
        <ele>21.509978</ele>
        <time>2021-09-05T11:00:53.000Z</time>
      </trkpt>
      <trkpt lat="49.31895" lon="-1.58693">
        <ele>21.5103</ele>
        <time>2021-09-05T11:00:56.000Z</time>
      </trkpt>
      <trkpt lat="49.31873" lon="-1.58676">
        <ele>21.511118</ele>
        <time>2021-09-05T11:01:00.000Z</time>
      </trkpt>
      <trkpt lat="49.3184" lon="-1.58646">
        <ele>21.512434</ele>
        <time>2021-09-05T11:01:08.000Z</time>
      </trkpt>
      <trkpt lat="49.31824" lon="-1.58632">
        <ele>21.513056</ele>
        <time>2021-09-05T11:01:12.000Z</time>
      </trkpt>
      <trkpt lat="49.31801" lon="-1.58611">
        <ele>21.778491</ele>
        <time>2021-09-05T11:01:17.000Z</time>
      </trkpt>
      <trkpt lat="49.31795" lon="-1.58606">
        <ele>21.858451</ele>
        <time>2021-09-05T11:01:18.000Z</time>
      </trkpt>
      <trkpt lat="49.31757" lon="-1.58572">
        <ele>22.467063</ele>
        <time>2021-09-05T11:01:26.000Z</time>
      </trkpt>
      <trkpt lat="49.31728" lon="-1.58546">
        <ele>22.913424</ele>
        <time>2021-09-05T11:01:33.000Z</time>
      </trkpt>
      <trkpt lat="49.31692" lon="-1.58516">
        <ele>23.471955</ele>
        <time>2021-09-05T11:01:40.000Z</time>
      </trkpt>
      <trkpt lat="49.31684" lon="-1.58509">
        <ele>23.5899</ele>
        <time>2021-09-05T11:01:42.000Z</time>
      </trkpt>
      <trkpt lat="49.31673" lon="-1.585">
        <ele>23.762389</ele>
        <time>2021-09-05T11:01:45.000Z</time>
      </trkpt>
      <trkpt lat="49.31658" lon="-1.58488">
        <ele>23.979196</ele>
        <time>2021-09-05T11:01:50.000Z</time>
      </trkpt>
      <trkpt lat="49.31637" lon="-1.58471">
        <ele>24.268846</ele>
        <time>2021-09-05T11:01:55.000Z</time>
      </trkpt>
      <trkpt lat="49.31628" lon="-1.58464">
        <ele>24.380017</ele>
        <time>2021-09-05T11:01:56.000Z</time>
      </trkpt>
      <trkpt lat="49.316" lon="-1.58441">
        <ele>24.75533</ele>
        <time>2021-09-05T11:02:02.000Z</time>
      </trkpt>
      <trkpt lat="49.31579" lon="-1.58423">
        <ele>25.04339</ele>
        <time>2021-09-05T11:02:07.000Z</time>
      </trkpt>
      <trkpt lat="49.31575" lon="-1.58419">
        <ele>25.097419</ele>
        <time>2021-09-05T11:02:08.000Z</time>
      </trkpt>
      <trkpt lat="49.31555" lon="-1.58403">
        <ele>25.362312</ele>
        <time>2021-09-05T11:02:13.000Z</time>
      </trkpt>
      <trkpt lat="49.31539" lon="-1.58389">
        <ele>25.579179</ele>
        <time>2021-09-05T11:02:17.000Z</time>
      </trkpt>
      <trkpt lat="49.31518" lon="-1.58371">
        <ele>25.865833</ele>
        <time>2021-09-05T11:02:23.000Z</time>
      </trkpt>
      <trkpt lat="49.3151" lon="-1.58364">
        <ele>25.977739</ele>
        <time>2021-09-05T11:02:24.000Z</time>
      </trkpt>
      <trkpt lat="49.31501" lon="-1.58356">
        <ele>26.057741</ele>
        <time>2021-09-05T11:02:27.000Z</time>
      </trkpt>
      <trkpt lat="49.3148" lon="-1.58338">
        <ele>25.92414</ele>
        <time>2021-09-05T11:02:32.000Z</time>
      </trkpt>
      <trkpt lat="49.31472" lon="-1.58332">
        <ele>25.879876</ele>
        <time>2021-09-05T11:02:35.000Z</time>
      </trkpt>
      <trkpt lat="49.31469" lon="-1.58328">
        <ele>25.856377</ele>
        <time>2021-09-05T11:02:36.000Z</time>
      </trkpt>
      <trkpt lat="49.31443" lon="-1.58306">
        <ele>25.696072</ele>
        <time>2021-09-05T11:02:41.000Z</time>
      </trkpt>
      <trkpt lat="49.31421" lon="-1.58287">
        <ele>25.560077</ele>
        <time>2021-09-05T11:02:46.000Z</time>
      </trkpt>
      <trkpt lat="49.31417" lon="-1.58284">
        <ele>25.535295</ele>
        <time>2021-09-05T11:02:47.000Z</time>
      </trkpt>
      <trkpt lat="49.31395" lon="-1.58265">
        <ele>25.404086</ele>
        <time>2021-09-05T11:02:53.000Z</time>
      </trkpt>
      <trkpt lat="49.31387" lon="-1.58258">
        <ele>25.353585</ele>
        <time>2021-09-05T11:02:54.000Z</time>
      </trkpt>
      <trkpt lat="49.31376" lon="-1.58249">
        <ele>25.2839</ele>
        <time>2021-09-05T11:02:58.000Z</time>
      </trkpt>
      <trkpt lat="49.31351" lon="-1.58228">
        <ele>25.131114</ele>
        <time>2021-09-05T11:03:03.000Z</time>
      </trkpt>
      <trkpt lat="49.31333" lon="-1.58212">
        <ele>24.647112</ele>
        <time>2021-09-05T11:03:07.000Z</time>
      </trkpt>
      <trkpt lat="49.31303" lon="-1.58186">
        <ele>23.598615</ele>
        <time>2021-09-05T11:03:13.000Z</time>
      </trkpt>
      <trkpt lat="49.31283" lon="-1.5817">
        <ele>22.929432</ele>
        <time>2021-09-05T11:03:17.000Z</time>
      </trkpt>
      <trkpt lat="49.31269" lon="-1.58158">
        <ele>22.457081</ele>
        <time>2021-09-05T11:03:20.000Z</time>
      </trkpt>
      <trkpt lat="49.3126" lon="-1.5815">
        <ele>22.143057</ele>
        <time>2021-09-05T11:03:22.000Z</time>
      </trkpt>
      <trkpt lat="49.31251" lon="-1.58142">
        <ele>21.808465</ele>
        <time>2021-09-05T11:03:24.000Z</time>
      </trkpt>
      <trkpt lat="49.3124" lon="-1.58132">
        <ele>21.429149</ele>
        <time>2021-09-05T11:03:26.000Z</time>
      </trkpt>
      <trkpt lat="49.31208" lon="-1.58105">
        <ele>20.33951</ele>
        <time>2021-09-05T11:03:32.000Z</time>
      </trkpt>
      <trkpt lat="49.31184" lon="-1.58084">
        <ele>19.456921</ele>
        <time>2021-09-05T11:03:37.000Z</time>
      </trkpt>
      <trkpt lat="49.31168" lon="-1.58071">
        <ele>18.832835</ele>
        <time>2021-09-05T11:03:40.000Z</time>
      </trkpt>
      <trkpt lat="49.31164" lon="-1.58067">
        <ele>18.639114</ele>
        <time>2021-09-05T11:03:41.000Z</time>
      </trkpt>
      <trkpt lat="49.31135" lon="-1.58042">
        <ele>17.44214</ele>
        <time>2021-09-05T11:03:46.000Z</time>
      </trkpt>
      <trkpt lat="49.31106" lon="-1.58016">
        <ele>16.220968</ele>
        <time>2021-09-05T11:03:51.000Z</time>
      </trkpt>
      <trkpt lat="49.31093" lon="-1.58005">
        <ele>15.700401</ele>
        <time>2021-09-05T11:03:54.000Z</time>
      </trkpt>
      <trkpt lat="49.31076" lon="-1.5799">
        <ele>14.975195</ele>
        <time>2021-09-05T11:03:56.000Z</time>
      </trkpt>
      <trkpt lat="49.31059" lon="-1.57975">
        <ele>14.280063</ele>
        <time>2021-09-05T11:03:59.000Z</time>
      </trkpt>
      <trkpt lat="49.31048" lon="-1.57965">
        <ele>13.843068</ele>
        <time>2021-09-05T11:04:01.000Z</time>
      </trkpt>
      <trkpt lat="49.31027" lon="-1.57946">
        <ele>12.909858</ele>
        <time>2021-09-05T11:04:05.000Z</time>
      </trkpt>
      <trkpt lat="49.31021" lon="-1.57941">
        <ele>12.614434</ele>
        <time>2021-09-05T11:04:07.000Z</time>
      </trkpt>
      <trkpt lat="49.31005" lon="-1.57927">
        <ele>11.8294</ele>
        <time>2021-09-05T11:04:09.000Z</time>
      </trkpt>
      <trkpt lat="49.30983" lon="-1.57907">
        <ele>10.729993</ele>
        <time>2021-09-05T11:04:13.000Z</time>
      </trkpt>
      <trkpt lat="49.30955" lon="-1.57881">
        <ele>9.329774</ele>
        <time>2021-09-05T11:04:19.000Z</time>
      </trkpt>
      <trkpt lat="49.3093" lon="-1.57855">
        <ele>8.035011</ele>
        <time>2021-09-05T11:04:24.000Z</time>
      </trkpt>
      <trkpt lat="49.30896" lon="-1.57822">
        <ele>6.33835</ele>
        <time>2021-09-05T11:04:30.000Z</time>
      </trkpt>
      <trkpt lat="49.30874" lon="-1.57799">
        <ele>5.410046</ele>
        <time>2021-09-05T11:04:35.000Z</time>
      </trkpt>
      <trkpt lat="49.30857" lon="-1.57781">
        <ele>5.099277</ele>
        <time>2021-09-05T11:04:39.000Z</time>
      </trkpt>
      <trkpt lat="49.30843" lon="-1.57765">
        <ele>4.841498</ele>
        <time>2021-09-05T11:04:43.000Z</time>
      </trkpt>
      <trkpt lat="49.30829" lon="-1.57746">
        <ele>4.574674</ele>
        <time>2021-09-05T11:04:47.000Z</time>
      </trkpt>
      <trkpt lat="49.30825" lon="-1.57741">
        <ele>4.496915</ele>
        <time>2021-09-05T11:04:48.000Z</time>
      </trkpt>
      <trkpt lat="49.30822" lon="-1.57736">
        <ele>4.425038</ele>
        <time>2021-09-05T11:04:49.000Z</time>
      </trkpt>
      <trkpt lat="49.30807" lon="-1.57715">
        <ele>4.12292</ele>
        <time>2021-09-05T11:04:53.000Z</time>
      </trkpt>
      <trkpt lat="49.30795" lon="-1.57699">
        <ele>3.891387</ele>
        <time>2021-09-05T11:04:56.000Z</time>
      </trkpt>
      <trkpt lat="49.30791" lon="-1.57693">
        <ele>3.813628</ele>
        <time>2021-09-05T11:04:57.000Z</time>
      </trkpt>
      <trkpt lat="49.30769" lon="-1.57663">
        <ele>3.371891</ele>
        <time>2021-09-05T11:05:02.000Z</time>
      </trkpt>
      <trkpt lat="49.30738" lon="-1.57619">
        <ele>2.989084</ele>
        <time>2021-09-05T11:05:08.000Z</time>
      </trkpt>
      <trkpt lat="49.30702" lon="-1.57564">
        <ele>3.778037</ele>
        <time>2021-09-05T11:05:14.000Z</time>
      </trkpt>
      <trkpt lat="49.30671" lon="-1.57513">
        <ele>4.500648</ele>
        <time>2021-09-05T11:05:20.000Z</time>
      </trkpt>
      <trkpt lat="49.30652" lon="-1.57482">
        <ele>4.932762</ele>
        <time>2021-09-05T11:05:24.000Z</time>
      </trkpt>
      <trkpt lat="49.30648" lon="-1.57476">
        <ele>5.02219</ele>
        <time>2021-09-05T11:05:25.000Z</time>
      </trkpt>
      <trkpt lat="49.30644" lon="-1.5747">
        <ele>5.108317</ele>
        <time>2021-09-05T11:05:26.000Z</time>
      </trkpt>
      <trkpt lat="49.30634" lon="-1.57454">
        <ele>5.33094</ele>
        <time>2021-09-05T11:05:29.000Z</time>
      </trkpt>
      <trkpt lat="49.30631" lon="-1.57449">
        <ele>5.403936</ele>
        <time>2021-09-05T11:05:30.000Z</time>
      </trkpt>
      <trkpt lat="49.30621" lon="-1.57433">
        <ele>5.621795</ele>
        <time>2021-09-05T11:05:33.000Z</time>
      </trkpt>
      <trkpt lat="49.30615" lon="-1.57423">
        <ele>5.894414</ele>
        <time>2021-09-05T11:05:36.000Z</time>
      </trkpt>
      <trkpt lat="49.30609" lon="-1.57414">
        <ele>6.202394</ele>
        <time>2021-09-05T11:05:40.000Z</time>
      </trkpt>
      <trkpt lat="49.306" lon="-1.574">
        <ele>6.685722</ele>
        <time>2021-09-05T11:05:46.000Z</time>
      </trkpt>
      <trkpt lat="49.30597" lon="-1.57396">
        <ele>6.825312</ele>
        <time>2021-09-05T11:05:48.000Z</time>
      </trkpt>
      <trkpt lat="49.30592" lon="-1.57387">
        <ele>7.100133</ele>
        <time>2021-09-05T11:05:51.000Z</time>
      </trkpt>
      <trkpt lat="49.3058" lon="-1.57368">
        <ele>7.750097</ele>
        <time>2021-09-05T11:05:55.000Z</time>
      </trkpt>
      <trkpt lat="49.30565" lon="-1.57344">
        <ele>8.58503</ele>
        <time>2021-09-05T11:06:00.000Z</time>
      </trkpt>
      <trkpt lat="49.30547" lon="-1.57316">
        <ele>9.532507</ele>
        <time>2021-09-05T11:06:06.000Z</time>
      </trkpt>
      <trkpt lat="49.30528" lon="-1.57286">
        <ele>10.542795</ele>
        <time>2021-09-05T11:06:11.000Z</time>
      </trkpt>
      <trkpt lat="49.30501" lon="-1.57243">
        <ele>12.023344</ele>
        <time>2021-09-05T11:06:18.000Z</time>
      </trkpt>
      <trkpt lat="49.30477" lon="-1.57206">
        <ele>13.104246</ele>
        <time>2021-09-05T11:06:24.000Z</time>
      </trkpt>
      <trkpt lat="49.30458" lon="-1.57174">
        <ele>13.946581</ele>
        <time>2021-09-05T11:06:29.000Z</time>
      </trkpt>
      <trkpt lat="49.30429" lon="-1.5713">
        <ele>15.156288</ele>
        <time>2021-09-05T11:06:36.000Z</time>
      </trkpt>
      <trkpt lat="49.30397" lon="-1.57079">
        <ele>16.525702</ele>
        <time>2021-09-05T11:06:44.000Z</time>
      </trkpt>
      <trkpt lat="49.30374" lon="-1.57042">
        <ele>17.525678</ele>
        <time>2021-09-05T11:06:50.000Z</time>
      </trkpt>
      <trkpt lat="49.30343" lon="-1.56995">
        <ele>18.377027</ele>
        <time>2021-09-05T11:06:58.000Z</time>
      </trkpt>
      <trkpt lat="49.30326" lon="-1.56969">
        <ele>18.784578</ele>
        <time>2021-09-05T11:07:03.000Z</time>
      </trkpt>
      <trkpt lat="49.30314" lon="-1.56951">
        <ele>19.081405</ele>
        <time>2021-09-05T11:07:07.000Z</time>
      </trkpt>
      <trkpt lat="49.3031" lon="-1.56945">
        <ele>19.177691</ele>
        <time>2021-09-05T11:07:08.000Z</time>
      </trkpt>
      <trkpt lat="49.30277" lon="-1.56889">
        <ele>20.028956</ele>
        <time>2021-09-05T11:07:16.000Z</time>
      </trkpt>
      <trkpt lat="49.30247" lon="-1.56836">
        <ele>20.812015</ele>
        <time>2021-09-05T11:07:24.000Z</time>
      </trkpt>
      <trkpt lat="49.30243" lon="-1.5683">
        <ele>20.901026</ele>
        <time>2021-09-05T11:07:25.000Z</time>
      </trkpt>
      <trkpt lat="49.30236" lon="-1.56819">
        <ele>21.056645</ele>
        <time>2021-09-05T11:07:27.000Z</time>
      </trkpt>
      <trkpt lat="49.3023" lon="-1.56808">
        <ele>21.194677</ele>
        <time>2021-09-05T11:07:29.000Z</time>
      </trkpt>
      <trkpt lat="49.30228" lon="-1.56803">
        <ele>21.259042</ele>
        <time>2021-09-05T11:07:30.000Z</time>
      </trkpt>
      <trkpt lat="49.3022" lon="-1.56789">
        <ele>21.44401</ele>
        <time>2021-09-05T11:07:33.000Z</time>
      </trkpt>
      <trkpt lat="49.30211" lon="-1.56772">
        <ele>21.663453</ele>
        <time>2021-09-05T11:07:36.000Z</time>
      </trkpt>
      <trkpt lat="49.30205" lon="-1.5676">
        <ele>21.816464</ele>
        <time>2021-09-05T11:07:38.000Z</time>
      </trkpt>
      <trkpt lat="49.3018" lon="-1.56711">
        <ele>22.44032</ele>
        <time>2021-09-05T11:07:46.000Z</time>
      </trkpt>
      <trkpt lat="49.30161" lon="-1.56674">
        <ele>22.908648</ele>
        <time>2021-09-05T11:07:52.000Z</time>
      </trkpt>
      <trkpt lat="49.30158" lon="-1.56668">
        <ele>22.98594</ele>
        <time>2021-09-05T11:07:53.000Z</time>
      </trkpt>
      <trkpt lat="49.30138" lon="-1.56631">
        <ele>23.458523</ele>
        <time>2021-09-05T11:07:59.000Z</time>
      </trkpt>
      <trkpt lat="49.30113" lon="-1.56582">
        <ele>24.083642</ele>
        <time>2021-09-05T11:08:07.000Z</time>
      </trkpt>
      <trkpt lat="49.3011" lon="-1.56576">
        <ele>24.162318</ele>
        <time>2021-09-05T11:08:08.000Z</time>
      </trkpt>
      <trkpt lat="49.30087" lon="-1.56523">
        <ele>24.785766</ele>
        <time>2021-09-05T11:08:16.000Z</time>
      </trkpt>
      <trkpt lat="49.30069" lon="-1.56475">
        <ele>25.345135</ele>
        <time>2021-09-05T11:08:23.000Z</time>
      </trkpt>
      <trkpt lat="49.30054" lon="-1.56435">
        <ele>25.80512</ele>
        <time>2021-09-05T11:08:29.000Z</time>
      </trkpt>
      <trkpt lat="49.30036" lon="-1.56387">
        <ele>26.349476</ele>
        <time>2021-09-05T11:08:36.000Z</time>
      </trkpt>
      <trkpt lat="49.30021" lon="-1.56346">
        <ele>26.673758</ele>
        <time>2021-09-05T11:08:42.000Z</time>
      </trkpt>
      <trkpt lat="49.30019" lon="-1.5634">
        <ele>26.725447</ele>
        <time>2021-09-05T11:08:43.000Z</time>
      </trkpt>
      <trkpt lat="49.30007" lon="-1.56306">
        <ele>26.982672</ele>
        <time>2021-09-05T11:08:48.000Z</time>
      </trkpt>
      <trkpt lat="49.30005" lon="-1.56299">
        <ele>27.031797</ele>
        <time>2021-09-05T11:08:49.000Z</time>
      </trkpt>
      <trkpt lat="49.29996" lon="-1.5627">
        <ele>27.254757</ele>
        <time>2021-09-05T11:08:54.000Z</time>
      </trkpt>
      <trkpt lat="49.29988" lon="-1.56246">
        <ele>27.431331</ele>
        <time>2021-09-05T11:08:59.000Z</time>
      </trkpt>
      <trkpt lat="49.29985" lon="-1.56234">
        <ele>27.521063</ele>
        <time>2021-09-05T11:09:03.000Z</time>
      </trkpt>
      <trkpt lat="49.29984" lon="-1.56231">
        <ele>27.545093</ele>
        <time>2021-09-05T11:09:04.000Z</time>
      </trkpt>
      <trkpt lat="49.29978" lon="-1.56215">
        <ele>27.666308</ele>
        <time>2021-09-05T11:09:09.000Z</time>
      </trkpt>
      <trkpt lat="49.29978" lon="-1.56212">
        <ele>27.686843</ele>
        <time>2021-09-05T11:09:10.000Z</time>
      </trkpt>
      <trkpt lat="49.29985" lon="-1.56206">
        <ele>27.779315</ele>
        <time>2021-09-05T11:09:12.000Z</time>
      </trkpt>
      <trkpt lat="49.3" lon="-1.5621">
        <ele>27.93065</ele>
        <time>2021-09-05T11:09:16.000Z</time>
      </trkpt>
      <trkpt lat="49.30017" lon="-1.56217">
        <ele>28.113449</ele>
        <time>2021-09-05T11:09:20.000Z</time>
      </trkpt>
      <trkpt lat="49.30021" lon="-1.56219">
        <ele>28.159984</ele>
        <time>2021-09-05T11:09:21.000Z</time>
      </trkpt>
      <trkpt lat="49.3003" lon="-1.56221">
        <ele>28.256901</ele>
        <time>2021-09-05T11:09:23.000Z</time>
      </trkpt>
      <trkpt lat="49.30044" lon="-1.56225">
        <ele>28.414382</ele>
        <time>2021-09-05T11:09:26.000Z</time>
      </trkpt>
      <trkpt lat="49.30074" lon="-1.56208">
        <ele>28.780729</ele>
        <time>2021-09-05T11:09:33.000Z</time>
      </trkpt>
      <trkpt lat="49.30096" lon="-1.56193">
        <ele>29.06619</ele>
        <time>2021-09-05T11:09:40.000Z</time>
      </trkpt>
      <trkpt lat="49.30113" lon="-1.56182">
        <ele>29.269741</ele>
        <time>2021-09-05T11:09:46.000Z</time>
      </trkpt>
      <trkpt lat="49.30128" lon="-1.56172">
        <ele>29.46415</ele>
        <time>2021-09-05T11:09:53.000Z</time>
      </trkpt>
      <trkpt lat="49.30135" lon="-1.56167">
        <ele>29.548757</ele>
        <time>2021-09-05T11:09:56.000Z</time>
      </trkpt>
      <trkpt lat="49.30137" lon="-1.56166">
        <ele>29.571566</ele>
        <time>2021-09-05T11:09:57.000Z</time>
      </trkpt>
      <trkpt lat="49.30149" lon="-1.56137">
        <ele>29.830795</ele>
        <time>2021-09-05T11:10:02.000Z</time>
      </trkpt>
      <trkpt lat="49.30146" lon="-1.56115">
        <ele>30.002979</ele>
        <time>2021-09-05T11:10:07.000Z</time>
      </trkpt>
      <trkpt lat="49.30142" lon="-1.56089">
        <ele>30.203209</ele>
        <time>2021-09-05T11:10:13.000Z</time>
      </trkpt>
      <trkpt lat="49.30141" lon="-1.56065">
        <ele>30.312983</ele>
        <time>2021-09-05T11:10:18.000Z</time>
      </trkpt>
      <trkpt lat="49.30147" lon="-1.56036">
        <ele>30.351766</ele>
        <time>2021-09-05T11:10:24.000Z</time>
      </trkpt>
      <trkpt lat="49.30154" lon="-1.55995">
        <ele>30.406724</ele>
        <time>2021-09-05T11:10:32.000Z</time>
      </trkpt>
      <trkpt lat="49.3016" lon="-1.55961">
        <ele>30.452332</ele>
        <time>2021-09-05T11:10:39.000Z</time>
      </trkpt>
      <trkpt lat="49.3016" lon="-1.55921">
        <ele>30.503105</ele>
        <time>2021-09-05T11:10:46.000Z</time>
      </trkpt>
      <trkpt lat="49.30159" lon="-1.55879">
        <ele>30.557916</ele>
        <time>2021-09-05T11:10:53.000Z</time>
      </trkpt>
      <trkpt lat="49.30159" lon="-1.55872">
        <ele>30.566315</ele>
        <time>2021-09-05T11:10:54.000Z</time>
      </trkpt>
      <trkpt lat="49.30158" lon="-1.55848">
        <ele>30.597988</ele>
        <time>2021-09-05T11:10:58.000Z</time>
      </trkpt>
      <trkpt lat="49.30158" lon="-1.5582">
        <ele>30.633663</ele>
        <time>2021-09-05T11:11:04.000Z</time>
      </trkpt>
      <trkpt lat="49.30156" lon="-1.55798">
        <ele>30.609357</ele>
        <time>2021-09-05T11:11:09.000Z</time>
      </trkpt>
      <trkpt lat="49.30155" lon="-1.55784">
        <ele>30.511705</ele>
        <time>2021-09-05T11:11:12.000Z</time>
      </trkpt>
      <trkpt lat="49.30154" lon="-1.55777">
        <ele>30.457013</ele>
        <time>2021-09-05T11:11:14.000Z</time>
      </trkpt>
      <trkpt lat="49.30154" lon="-1.55773">
        <ele>30.426907</ele>
        <time>2021-09-05T11:11:15.000Z</time>
      </trkpt>
      <trkpt lat="49.30153" lon="-1.5576">
        <ele>30.335754</ele>
        <time>2021-09-05T11:11:18.000Z</time>
      </trkpt>
      <trkpt lat="49.30151" lon="-1.55735">
        <ele>30.157667</ele>
        <time>2021-09-05T11:11:23.000Z</time>
      </trkpt>
      <trkpt lat="49.30142" lon="-1.55699">
        <ele>29.879885</ele>
        <time>2021-09-05T11:11:29.000Z</time>
      </trkpt>
      <trkpt lat="49.30139" lon="-1.55685">
        <ele>29.77488</ele>
        <time>2021-09-05T11:11:32.000Z</time>
      </trkpt>
      <trkpt lat="49.30133" lon="-1.55664">
        <ele>29.615847</ele>
        <time>2021-09-05T11:11:34.000Z</time>
      </trkpt>
      <trkpt lat="49.30131" lon="-1.55657">
        <ele>29.562476</ele>
        <time>2021-09-05T11:11:35.000Z</time>
      </trkpt>
      <trkpt lat="49.30127" lon="-1.55644">
        <ele>29.458785</ele>
        <time>2021-09-05T11:11:37.000Z</time>
      </trkpt>
      <trkpt lat="49.30126" lon="-1.55637">
        <ele>29.405167</ele>
        <time>2021-09-05T11:11:38.000Z</time>
      </trkpt>
      <trkpt lat="49.30111" lon="-1.5558">
        <ele>28.967319</ele>
        <time>2021-09-05T11:11:46.000Z</time>
      </trkpt>
      <trkpt lat="49.30101" lon="-1.55498">
        <ele>28.696255</ele>
        <time>2021-09-05T11:11:56.000Z</time>
      </trkpt>
      <trkpt lat="49.30094" lon="-1.5544">
        <ele>28.705802</ele>
        <time>2021-09-05T11:12:03.000Z</time>
      </trkpt>
      <trkpt lat="49.30089" lon="-1.55406">
        <ele>28.711473</ele>
        <time>2021-09-05T11:12:07.000Z</time>
      </trkpt>
      <trkpt lat="49.30089" lon="-1.55389">
        <ele>28.714232</ele>
        <time>2021-09-05T11:12:09.000Z</time>
      </trkpt>
      <trkpt lat="49.30088" lon="-1.55365">
        <ele>28.718107</ele>
        <time>2021-09-05T11:12:12.000Z</time>
      </trkpt>
      <trkpt lat="49.30087" lon="-1.5534">
        <ele>28.722192</ele>
        <time>2021-09-05T11:12:15.000Z</time>
      </trkpt>
      <trkpt lat="49.30086" lon="-1.55291">
        <ele>28.730047</ele>
        <time>2021-09-05T11:12:21.000Z</time>
      </trkpt>
      <trkpt lat="49.30087" lon="-1.55246">
        <ele>28.834033</ele>
        <time>2021-09-05T11:12:27.000Z</time>
      </trkpt>
      <trkpt lat="49.30087" lon="-1.55192">
        <ele>29.073187</ele>
        <time>2021-09-05T11:12:34.000Z</time>
      </trkpt>
      <trkpt lat="49.30087" lon="-1.5517">
        <ele>29.172606</ele>
        <time>2021-09-05T11:12:37.000Z</time>
      </trkpt>
      <trkpt lat="49.30088" lon="-1.55141">
        <ele>29.301585</ele>
        <time>2021-09-05T11:12:41.000Z</time>
      </trkpt>
      <trkpt lat="49.30088" lon="-1.55121">
        <ele>29.394287</ele>
        <time>2021-09-05T11:12:44.000Z</time>
      </trkpt>
      <trkpt lat="49.30088" lon="-1.55107">
        <ele>29.454307</ele>
        <time>2021-09-05T11:12:46.000Z</time>
      </trkpt>
      <trkpt lat="49.30088" lon="-1.55101">
        <ele>29.483869</ele>
        <time>2021-09-05T11:12:47.000Z</time>
      </trkpt>
      <trkpt lat="49.30088" lon="-1.55094">
        <ele>29.512527</ele>
        <time>2021-09-05T11:12:48.000Z</time>
      </trkpt>
      <trkpt lat="49.30089" lon="-1.55056">
        <ele>29.685407</ele>
        <time>2021-09-05T11:12:54.000Z</time>
      </trkpt>
      <trkpt lat="49.30089" lon="-1.55026">
        <ele>29.818864</ele>
        <time>2021-09-05T11:12:59.000Z</time>
      </trkpt>
      <trkpt lat="49.30088" lon="-1.54962">
        <ele>29.911878</ele>
        <time>2021-09-05T11:13:09.000Z</time>
      </trkpt>
      <trkpt lat="49.30087" lon="-1.54925">
        <ele>29.842108</ele>
        <time>2021-09-05T11:13:15.000Z</time>
      </trkpt>
      <trkpt lat="49.30086" lon="-1.54918">
        <ele>29.829387</ele>
        <time>2021-09-05T11:13:16.000Z</time>
      </trkpt>
      <trkpt lat="49.30086" lon="-1.54911">
        <ele>29.816478</ele>
        <time>2021-09-05T11:13:17.000Z</time>
      </trkpt>
      <trkpt lat="49.30086" lon="-1.54899">
        <ele>29.794408</ele>
        <time>2021-09-05T11:13:19.000Z</time>
      </trkpt>
      <trkpt lat="49.30078" lon="-1.54898">
        <ele>29.772276</ele>
        <time>2021-09-05T11:13:21.000Z</time>
      </trkpt>
      <trkpt lat="49.30056" lon="-1.54906">
        <ele>29.707001</ele>
        <time>2021-09-05T11:13:26.000Z</time>
      </trkpt>
      <trkpt lat="49.3005" lon="-1.54908">
        <ele>29.689641</ele>
        <time>2021-09-05T11:13:27.000Z</time>
      </trkpt>
      <trkpt lat="49.30033" lon="-1.54909">
        <ele>29.639164</ele>
        <time>2021-09-05T11:13:29.000Z</time>
      </trkpt>
      <trkpt lat="49.30021" lon="-1.54908">
        <ele>29.605556</ele>
        <time>2021-09-05T11:13:31.000Z</time>
      </trkpt>
      <trkpt lat="49.29996" lon="-1.5489">
        <ele>29.528095</ele>
        <time>2021-09-05T11:13:36.000Z</time>
      </trkpt>
      <trkpt lat="49.29992" lon="-1.54887">
        <ele>29.514057</ele>
        <time>2021-09-05T11:13:38.000Z</time>
      </trkpt>
      <trkpt lat="49.29975" lon="-1.54874">
        <ele>29.459778</ele>
        <time>2021-09-05T11:13:41.000Z</time>
      </trkpt>
      <trkpt lat="49.2995" lon="-1.54858">
        <ele>29.148178</ele>
        <time>2021-09-05T11:13:47.000Z</time>
      </trkpt>
      <trkpt lat="49.29926" lon="-1.54845">
        <ele>28.829823</ele>
        <time>2021-09-05T11:13:53.000Z</time>
      </trkpt>
      <trkpt lat="49.29918" lon="-1.5484">
        <ele>28.722713</ele>
        <time>2021-09-05T11:13:55.000Z</time>
      </trkpt>
      <trkpt lat="49.29902" lon="-1.54831">
        <ele>28.515258</ele>
        <time>2021-09-05T11:14:00.000Z</time>
      </trkpt>
      <trkpt lat="49.29894" lon="-1.54825">
        <ele>28.407004</ele>
        <time>2021-09-05T11:14:01.000Z</time>
      </trkpt>
      <trkpt lat="49.29874" lon="-1.54804">
        <ele>28.098569</ele>
        <time>2021-09-05T11:14:07.000Z</time>
      </trkpt>
      <trkpt lat="49.29865" lon="-1.548">
        <ele>27.984561</ele>
        <time>2021-09-05T11:14:08.000Z</time>
      </trkpt>
      <trkpt lat="49.29859" lon="-1.54813">
        <ele>27.860014</ele>
        <time>2021-09-05T11:14:10.000Z</time>
      </trkpt>
      <trkpt lat="49.29855" lon="-1.5482">
        <ele>27.786888</ele>
        <time>2021-09-05T11:14:11.000Z</time>
      </trkpt>
      <trkpt lat="49.29827" lon="-1.54876">
        <ele>27.236222</ele>
        <time>2021-09-05T11:14:18.000Z</time>
      </trkpt>
      <trkpt lat="49.29805" lon="-1.5492">
        <ele>27.537922</ele>
        <time>2021-09-05T11:14:24.000Z</time>
      </trkpt>
      <trkpt lat="49.298" lon="-1.54933">
        <ele>27.621191</ele>
        <time>2021-09-05T11:14:26.000Z</time>
      </trkpt>
      <trkpt lat="49.29796" lon="-1.54944">
        <ele>27.690525</ele>
        <time>2021-09-05T11:14:28.000Z</time>
      </trkpt>
      <trkpt lat="49.29791" lon="-1.54951">
        <ele>27.744807</ele>
        <time>2021-09-05T11:14:29.000Z</time>
      </trkpt>
      <trkpt lat="49.29784" lon="-1.54951">
        <ele>27.801154</ele>
        <time>2021-09-05T11:14:32.000Z</time>
      </trkpt>
      <trkpt lat="49.29767" lon="-1.54952">
        <ele>27.93952</ele>
        <time>2021-09-05T11:14:37.000Z</time>
      </trkpt>
      <trkpt lat="49.29752" lon="-1.54952">
        <ele>28.064625</ele>
        <time>2021-09-05T11:14:43.000Z</time>
      </trkpt>
      <trkpt lat="49.29719" lon="-1.54953">
        <ele>28.343013</ele>
        <time>2021-09-05T11:14:52.000Z</time>
      </trkpt>
      <trkpt lat="49.29692" lon="-1.54953">
        <ele>28.565063</ele>
        <time>2021-09-05T11:15:00.000Z</time>
      </trkpt>
      <trkpt lat="49.29668" lon="-1.54953">
        <ele>28.811973</ele>
        <time>2021-09-05T11:15:07.000Z</time>
      </trkpt>
      <trkpt lat="49.29642" lon="-1.54955">
        <ele>29.246096</ele>
        <time>2021-09-05T11:15:15.000Z</time>
      </trkpt>
      <trkpt lat="49.29627" lon="-1.54955">
        <ele>29.4968</ele>
        <time>2021-09-05T11:15:19.000Z</time>
      </trkpt>
      <trkpt lat="49.29615" lon="-1.54956">
        <ele>29.703828</ele>
        <time>2021-09-05T11:15:23.000Z</time>
      </trkpt>
      <trkpt lat="49.29593" lon="-1.54961">
        <ele>30.068979</ele>
        <time>2021-09-05T11:15:30.000Z</time>
      </trkpt>
      <trkpt lat="49.2959" lon="-1.54968">
        <ele>30.159034</ele>
        <time>2021-09-05T11:15:32.000Z</time>
      </trkpt>
      <trkpt lat="49.29589" lon="-1.54978">
        <ele>30.274111</ele>
        <time>2021-09-05T11:15:34.000Z</time>
      </trkpt>
      <trkpt lat="49.29579" lon="-1.55012">
        <ele>30.678845</ele>
        <time>2021-09-05T11:15:40.000Z</time>
      </trkpt>
      <trkpt lat="49.29558" lon="-1.55027">
        <ele>31.062256</ele>
        <time>2021-09-05T11:15:46.000Z</time>
      </trkpt>
      <trkpt lat="49.29552" lon="-1.55031">
        <ele>31.174727</ele>
        <time>2021-09-05T11:15:48.000Z</time>
      </trkpt>
      <trkpt lat="49.29551" lon="-1.55025">
        <ele>31.237358</ele>
        <time>2021-09-05T11:15:49.000Z</time>
      </trkpt>
      <trkpt lat="49.29548" lon="-1.55007">
        <ele>31.448802</ele>
        <time>2021-09-05T11:15:53.000Z</time>
      </trkpt>
      <trkpt lat="49.29552" lon="-1.54979">
        <ele>31.756702</ele>
        <time>2021-09-05T11:15:58.000Z</time>
      </trkpt>
      <trkpt lat="49.29557" lon="-1.54946">
        <ele>32.035357</ele>
        <time>2021-09-05T11:16:04.000Z</time>
      </trkpt>
      <trkpt lat="49.29554" lon="-1.54928">
        <ele>32.186096</ele>
        <time>2021-09-05T11:16:07.000Z</time>
      </trkpt>
      <trkpt lat="49.2955" lon="-1.54904">
        <ele>32.388404</ele>
        <time>2021-09-05T11:16:11.000Z</time>
      </trkpt>
      <trkpt lat="49.29544" lon="-1.54868">
        <ele>32.69496</ele>
        <time>2021-09-05T11:16:17.000Z</time>
      </trkpt>
      <trkpt lat="49.29544" lon="-1.54861">
        <ele>32.750123</ele>
        <time>2021-09-05T11:16:18.000Z</time>
      </trkpt>
      <trkpt lat="49.29541" lon="-1.54827">
        <ele>33.037044</ele>
        <time>2021-09-05T11:16:23.000Z</time>
      </trkpt>
      <trkpt lat="49.29537" lon="-1.54761">
        <ele>33.575297</ele>
        <time>2021-09-05T11:16:33.000Z</time>
      </trkpt>
      <trkpt lat="49.29533" lon="-1.54704">
        <ele>34.032173</ele>
        <time>2021-09-05T11:16:40.000Z</time>
      </trkpt>
      <trkpt lat="49.29532" lon="-1.54685">
        <ele>34.117938</ele>
        <time>2021-09-05T11:16:44.000Z</time>
      </trkpt>
      <trkpt lat="49.29521" lon="-1.5468">
        <ele>34.201411</ele>
        <time>2021-09-05T11:16:48.000Z</time>
      </trkpt>
      <trkpt lat="49.29519" lon="-1.5468">
        <ele>34.215079</ele>
        <time>2021-09-05T11:16:49.000Z</time>
      </trkpt>
      <trkpt lat="49.29518" lon="-1.5468">
        <ele>34.218704</ele>
        <time>2021-09-05T11:16:50.000Z</time>
      </trkpt>
      <trkpt lat="49.29515" lon="-1.54676">
        <ele>34.249292</ele>
        <time>2021-09-05T11:16:52.000Z</time>
      </trkpt>
      <trkpt lat="49.29513" lon="-1.54657">
        <ele>34.336409</ele>
        <time>2021-09-05T11:16:57.000Z</time>
      </trkpt>
      <trkpt lat="49.29511" lon="-1.54632">
        <ele>34.454589</ele>
        <time>2021-09-05T11:17:03.000Z</time>
      </trkpt>
      <trkpt lat="49.29505" lon="-1.54608">
        <ele>34.574919</ele>
        <time>2021-09-05T11:17:08.000Z</time>
      </trkpt>
      <trkpt lat="49.29501" lon="-1.54597">
        <ele>34.635997</ele>
        <time>2021-09-05T11:17:12.000Z</time>
      </trkpt>
      <trkpt lat="49.29496" lon="-1.54565">
        <ele>34.790615</ele>
        <time>2021-09-05T11:17:19.000Z</time>
      </trkpt>
      <trkpt lat="49.29494" lon="-1.54527">
        <ele>34.967487</ele>
        <time>2021-09-05T11:17:27.000Z</time>
      </trkpt>
      <trkpt lat="49.29493" lon="-1.54498">
        <ele>35.10548</ele>
        <time>2021-09-05T11:17:34.000Z</time>
      </trkpt>
      <trkpt lat="49.29493" lon="-1.54479">
        <ele>35.192265</ele>
        <time>2021-09-05T11:17:39.000Z</time>
      </trkpt>
      <trkpt lat="49.29493" lon="-1.54475">
        <ele>35.211501</ele>
        <time>2021-09-05T11:17:40.000Z</time>
      </trkpt>
      <trkpt lat="49.29489" lon="-1.54475">
        <ele>35.240257</ele>
        <time>2021-09-05T11:17:42.000Z</time>
      </trkpt>
      <trkpt lat="49.29483" lon="-1.54481">
        <ele>35.291904</ele>
        <time>2021-09-05T11:17:48.000Z</time>
      </trkpt>
      <trkpt lat="49.29483" lon="-1.54481">
        <ele>35.291904</ele>
        <time>2021-09-05T11:18:24.000Z</time>
      </trkpt>
      <trkpt lat="49.29493" lon="-1.54475">
        <ele>35.405535</ele>
        <time>2021-09-05T12:01:12.000Z</time>
      </trkpt>
      <trkpt lat="49.29493" lon="-1.54504">
        <ele>35.617744</ele>
        <time>2021-09-05T12:01:19.000Z</time>
      </trkpt>
      <trkpt lat="49.29495" lon="-1.54538">
        <ele>35.861974</ele>
        <time>2021-09-05T12:01:25.000Z</time>
      </trkpt>
      <trkpt lat="49.29496" lon="-1.54574">
        <ele>36.123216</ele>
        <time>2021-09-05T12:01:31.000Z</time>
      </trkpt>
      <trkpt lat="49.29501" lon="-1.546">
        <ele>36.315051</ele>
        <time>2021-09-05T12:01:36.000Z</time>
      </trkpt>
      <trkpt lat="49.29509" lon="-1.54616">
        <ele>36.456086</ele>
        <time>2021-09-05T12:01:39.000Z</time>
      </trkpt>
      <trkpt lat="49.2951" lon="-1.54622">
        <ele>36.502044</ele>
        <time>2021-09-05T12:01:40.000Z</time>
      </trkpt>
      <trkpt lat="49.2951" lon="-1.54628">
        <ele>36.545675</ele>
        <time>2021-09-05T12:01:41.000Z</time>
      </trkpt>
      <trkpt lat="49.29513" lon="-1.54658">
        <ele>36.763257</ele>
        <time>2021-09-05T12:01:46.000Z</time>
      </trkpt>
      <trkpt lat="49.29519" lon="-1.5468">
        <ele>36.937022</ele>
        <time>2021-09-05T12:01:52.000Z</time>
      </trkpt>
      <trkpt lat="49.29526" lon="-1.54679">
        <ele>37.012357</ele>
        <time>2021-09-05T12:01:55.000Z</time>
      </trkpt>
      <trkpt lat="49.29531" lon="-1.54671">
        <ele>37.08843</ele>
        <time>2021-09-05T12:01:57.000Z</time>
      </trkpt>
      <trkpt lat="49.2953" lon="-1.54666">
        <ele>37.127522</ele>
        <time>2021-09-05T12:01:58.000Z</time>
      </trkpt>
      <trkpt lat="49.29528" lon="-1.54628">
        <ele>37.365857</ele>
        <time>2021-09-05T12:02:04.000Z</time>
      </trkpt>
      <trkpt lat="49.29525" lon="-1.54587">
        <ele>37.564087</ele>
        <time>2021-09-05T12:02:10.000Z</time>
      </trkpt>
      <trkpt lat="49.29521" lon="-1.54531">
        <ele>37.833123</ele>
        <time>2021-09-05T12:02:18.000Z</time>
      </trkpt>
      <trkpt lat="49.29519" lon="-1.54503">
        <ele>37.966889</ele>
        <time>2021-09-05T12:02:22.000Z</time>
      </trkpt>
      <trkpt lat="49.29519" lon="-1.54496">
        <ele>38.001064</ele>
        <time>2021-09-05T12:02:24.000Z</time>
      </trkpt>
      <trkpt lat="49.29516" lon="-1.54455">
        <ele>38.20001</ele>
        <time>2021-09-05T12:02:29.000Z</time>
      </trkpt>
      <trkpt lat="49.29515" lon="-1.54448">
        <ele>38.22965</ele>
        <time>2021-09-05T12:02:30.000Z</time>
      </trkpt>
      <trkpt lat="49.29513" lon="-1.54435">
        <ele>38.294508</ele>
        <time>2021-09-05T12:02:32.000Z</time>
      </trkpt>
      <trkpt lat="49.29511" lon="-1.54421">
        <ele>38.362795</ele>
        <time>2021-09-05T12:02:34.000Z</time>
      </trkpt>
      <trkpt lat="49.2951" lon="-1.54407">
        <ele>38.432491</ele>
        <time>2021-09-05T12:02:36.000Z</time>
      </trkpt>
      <trkpt lat="49.29503" lon="-1.54363">
        <ele>38.64962</ele>
        <time>2021-09-05T12:02:42.000Z</time>
      </trkpt>
      <trkpt lat="49.29488" lon="-1.54304">
        <ele>38.963317</ele>
        <time>2021-09-05T12:02:50.000Z</time>
      </trkpt>
      <trkpt lat="49.29476" lon="-1.54261">
        <ele>39.197694</ele>
        <time>2021-09-05T12:02:56.000Z</time>
      </trkpt>
      <trkpt lat="49.29451" lon="-1.54196">
        <ele>39.57396</ele>
        <time>2021-09-05T12:03:06.000Z</time>
      </trkpt>
      <trkpt lat="49.2943" lon="-1.54147">
        <ele>39.865366</ele>
        <time>2021-09-05T12:03:14.000Z</time>
      </trkpt>
      <trkpt lat="49.29417" lon="-1.54119">
        <ele>40.017432</ele>
        <time>2021-09-05T12:03:20.000Z</time>
      </trkpt>
      <trkpt lat="49.29414" lon="-1.54114">
        <ele>40.03532</ele>
        <time>2021-09-05T12:03:21.000Z</time>
      </trkpt>
      <trkpt lat="49.2941" lon="-1.54103">
        <ele>40.075784</ele>
        <time>2021-09-05T12:03:23.000Z</time>
      </trkpt>
      <trkpt lat="49.29404" lon="-1.54092">
        <ele>40.117862</ele>
        <time>2021-09-05T12:03:25.000Z</time>
      </trkpt>
      <trkpt lat="49.29401" lon="-1.54085">
        <ele>40.146186</ele>
        <time>2021-09-05T12:03:27.000Z</time>
      </trkpt>
      <trkpt lat="49.29391" lon="-1.54064">
        <ele>40.22694</ele>
        <time>2021-09-05T12:03:32.000Z</time>
      </trkpt>
      <trkpt lat="49.29389" lon="-1.5406">
        <ele>40.243035</ele>
        <time>2021-09-05T12:03:33.000Z</time>
      </trkpt>
      <trkpt lat="49.29383" lon="-1.54054">
        <ele>40.275278</ele>
        <time>2021-09-05T12:03:35.000Z</time>
      </trkpt>
      <trkpt lat="49.29374" lon="-1.54044">
        <ele>40.328262</ele>
        <time>2021-09-05T12:03:39.000Z</time>
      </trkpt>
      <trkpt lat="49.29364" lon="-1.54034">
        <ele>40.382554</ele>
        <time>2021-09-05T12:03:43.000Z</time>
      </trkpt>
      <trkpt lat="49.29347" lon="-1.54016">
        <ele>40.481335</ele>
        <time>2021-09-05T12:03:49.000Z</time>
      </trkpt>
      <trkpt lat="49.29338" lon="-1.54006">
        <ele>40.53715</ele>
        <time>2021-09-05T12:03:52.000Z</time>
      </trkpt>
      <trkpt lat="49.29334" lon="-1.54002">
        <ele>40.558068</ele>
        <time>2021-09-05T12:03:53.000Z</time>
      </trkpt>
      <trkpt lat="49.2933" lon="-1.53998">
        <ele>40.578242</ele>
        <time>2021-09-05T12:03:54.000Z</time>
      </trkpt>
      <trkpt lat="49.29317" lon="-1.53984">
        <ele>40.655756</ele>
        <time>2021-09-05T12:03:58.000Z</time>
      </trkpt>
      <trkpt lat="49.2931" lon="-1.53977">
        <ele>40.696289</ele>
        <time>2021-09-05T12:04:00.000Z</time>
      </trkpt>
      <trkpt lat="49.29299" lon="-1.53968">
        <ele>40.754056</ele>
        <time>2021-09-05T12:04:03.000Z</time>
      </trkpt>
      <trkpt lat="49.29292" lon="-1.53961">
        <ele>40.793457</ele>
        <time>2021-09-05T12:04:05.000Z</time>
      </trkpt>
      <trkpt lat="49.29283" lon="-1.53953">
        <ele>40.837978</ele>
        <time>2021-09-05T12:04:07.000Z</time>
      </trkpt>
      <trkpt lat="49.29275" lon="-1.53945">
        <ele>40.855742</ele>
        <time>2021-09-05T12:04:09.000Z</time>
      </trkpt>
      <trkpt lat="49.2926" lon="-1.53935">
        <ele>40.884952</ele>
        <time>2021-09-05T12:04:12.000Z</time>
      </trkpt>
      <trkpt lat="49.29235" lon="-1.53918">
        <ele>40.933782</ele>
        <time>2021-09-05T12:04:18.000Z</time>
      </trkpt>
      <trkpt lat="49.2923" lon="-1.53915">
        <ele>40.942129</ele>
        <time>2021-09-05T12:04:19.000Z</time>
      </trkpt>
      <trkpt lat="49.29218" lon="-1.53909">
        <ele>40.964687</ele>
        <time>2021-09-05T12:04:22.000Z</time>
      </trkpt>
      <trkpt lat="49.29214" lon="-1.53907">
        <ele>40.973334</ele>
        <time>2021-09-05T12:04:23.000Z</time>
      </trkpt>
      <trkpt lat="49.29183" lon="-1.53891">
        <ele>41.031779</ele>
        <time>2021-09-05T12:04:30.000Z</time>
      </trkpt>
      <trkpt lat="49.2917" lon="-1.53885">
        <ele>41.055671</ele>
        <time>2021-09-05T12:04:33.000Z</time>
      </trkpt>
      <trkpt lat="49.29162" lon="-1.53883">
        <ele>41.070705</ele>
        <time>2021-09-05T12:04:35.000Z</time>
      </trkpt>
      <trkpt lat="49.29158" lon="-1.53882">
        <ele>41.078107</ele>
        <time>2021-09-05T12:04:36.000Z</time>
      </trkpt>
      <trkpt lat="49.29145" lon="-1.53879">
        <ele>41.101603</ele>
        <time>2021-09-05T12:04:39.000Z</time>
      </trkpt>
      <trkpt lat="49.29136" lon="-1.53877">
        <ele>41.117519</ele>
        <time>2021-09-05T12:04:41.000Z</time>
      </trkpt>
      <trkpt lat="49.29113" lon="-1.53872">
        <ele>41.152707</ele>
        <time>2021-09-05T12:04:46.000Z</time>
      </trkpt>
      <trkpt lat="49.29093" lon="-1.53869">
        <ele>41.092738</ele>
        <time>2021-09-05T12:04:50.000Z</time>
      </trkpt>
      <trkpt lat="49.29083" lon="-1.53869">
        <ele>41.064587</ele>
        <time>2021-09-05T12:04:52.000Z</time>
      </trkpt>
      <trkpt lat="49.29056" lon="-1.53868">
        <ele>40.986579</ele>
        <time>2021-09-05T12:04:57.000Z</time>
      </trkpt>
      <trkpt lat="49.29047" lon="-1.53868">
        <ele>40.958722</ele>
        <time>2021-09-05T12:04:59.000Z</time>
      </trkpt>
      <trkpt lat="49.29032" lon="-1.53867">
        <ele>40.915028</ele>
        <time>2021-09-05T12:05:02.000Z</time>
      </trkpt>
      <trkpt lat="49.29017" lon="-1.53867">
        <ele>40.871623</ele>
        <time>2021-09-05T12:05:05.000Z</time>
      </trkpt>
      <trkpt lat="49.29012" lon="-1.53866">
        <ele>40.856666</ele>
        <time>2021-09-05T12:05:06.000Z</time>
      </trkpt>
      <trkpt lat="49.29003" lon="-1.53866">
        <ele>40.829395</ele>
        <time>2021-09-05T12:05:08.000Z</time>
      </trkpt>
      <trkpt lat="49.28998" lon="-1.53866">
        <ele>40.815907</ele>
        <time>2021-09-05T12:05:09.000Z</time>
      </trkpt>
      <trkpt lat="49.28969" lon="-1.53866">
        <ele>40.730002</ele>
        <time>2021-09-05T12:05:15.000Z</time>
      </trkpt>
      <trkpt lat="49.2895" lon="-1.53866">
        <ele>40.675178</ele>
        <time>2021-09-05T12:05:19.000Z</time>
      </trkpt>
      <trkpt lat="49.28928" lon="-1.53866">
        <ele>40.623775</ele>
        <time>2021-09-05T12:05:24.000Z</time>
      </trkpt>
      <trkpt lat="49.28903" lon="-1.53866">
        <ele>40.601754</ele>
        <time>2021-09-05T12:05:29.000Z</time>
      </trkpt>
      <trkpt lat="49.28883" lon="-1.53865">
        <ele>40.58438</ele>
        <time>2021-09-05T12:05:33.000Z</time>
      </trkpt>
      <trkpt lat="49.28875" lon="-1.53865">
        <ele>40.576829</ele>
        <time>2021-09-05T12:05:35.000Z</time>
      </trkpt>
      <trkpt lat="49.28871" lon="-1.53864">
        <ele>40.573406</ele>
        <time>2021-09-05T12:05:36.000Z</time>
      </trkpt>
      <trkpt lat="49.28853" lon="-1.53863">
        <ele>40.557517</ele>
        <time>2021-09-05T12:05:40.000Z</time>
      </trkpt>
      <trkpt lat="49.28837" lon="-1.53863">
        <ele>40.543909</ele>
        <time>2021-09-05T12:05:44.000Z</time>
      </trkpt>
      <trkpt lat="49.28818" lon="-1.53862">
        <ele>40.527229</ele>
        <time>2021-09-05T12:05:49.000Z</time>
      </trkpt>
      <trkpt lat="49.2881" lon="-1.53861">
        <ele>40.519766</ele>
        <time>2021-09-05T12:05:51.000Z</time>
      </trkpt>
      <trkpt lat="49.288" lon="-1.53861">
        <ele>40.511339</ele>
        <time>2021-09-05T12:05:53.000Z</time>
      </trkpt>
      <trkpt lat="49.28762" lon="-1.53856">
        <ele>40.477375</ele>
        <time>2021-09-05T12:06:00.000Z</time>
      </trkpt>
      <trkpt lat="49.28715" lon="-1.5385">
        <ele>40.40737</ele>
        <time>2021-09-05T12:06:08.000Z</time>
      </trkpt>
      <trkpt lat="49.28686" lon="-1.53846">
        <ele>40.359193</ele>
        <time>2021-09-05T12:06:13.000Z</time>
      </trkpt>
      <trkpt lat="49.28675" lon="-1.53844">
        <ele>40.341127</ele>
        <time>2021-09-05T12:06:15.000Z</time>
      </trkpt>
      <trkpt lat="49.2864" lon="-1.5384">
        <ele>40.284002</ele>
        <time>2021-09-05T12:06:22.000Z</time>
      </trkpt>
      <trkpt lat="49.28619" lon="-1.53837">
        <ele>40.249978</ele>
        <time>2021-09-05T12:06:26.000Z</time>
      </trkpt>
      <trkpt lat="49.28608" lon="-1.53835">
        <ele>40.23175</ele>
        <time>2021-09-05T12:06:28.000Z</time>
      </trkpt>
      <trkpt lat="49.28564" lon="-1.53829">
        <ele>40.232697</ele>
        <time>2021-09-05T12:06:36.000Z</time>
      </trkpt>
      <trkpt lat="49.28553" lon="-1.53828">
        <ele>40.279062</ele>
        <time>2021-09-05T12:06:38.000Z</time>
      </trkpt>
      <trkpt lat="49.28543" lon="-1.53826">
        <ele>40.322774</ele>
        <time>2021-09-05T12:06:40.000Z</time>
      </trkpt>
      <trkpt lat="49.28534" lon="-1.53825">
        <ele>40.363449</ele>
        <time>2021-09-05T12:06:42.000Z</time>
      </trkpt>
      <trkpt lat="49.28525" lon="-1.53824">
        <ele>40.401929</ele>
        <time>2021-09-05T12:06:44.000Z</time>
      </trkpt>
      <trkpt lat="49.28511" lon="-1.53822">
        <ele>40.463145</ele>
        <time>2021-09-05T12:06:47.000Z</time>
      </trkpt>
      <trkpt lat="49.285" lon="-1.53821">
        <ele>40.509485</ele>
        <time>2021-09-05T12:06:49.000Z</time>
      </trkpt>
      <trkpt lat="49.28466" lon="-1.53816">
        <ele>40.659042</ele>
        <time>2021-09-05T12:06:55.000Z</time>
      </trkpt>
      <trkpt lat="49.28449" lon="-1.53814">
        <ele>40.735135</ele>
        <time>2021-09-05T12:06:58.000Z</time>
      </trkpt>
      <trkpt lat="49.28437" lon="-1.53812">
        <ele>40.785863</ele>
        <time>2021-09-05T12:07:00.000Z</time>
      </trkpt>
      <trkpt lat="49.28431" lon="-1.53811">
        <ele>40.811661</ele>
        <time>2021-09-05T12:07:01.000Z</time>
      </trkpt>
      <trkpt lat="49.28408" lon="-1.53808">
        <ele>40.912685</ele>
        <time>2021-09-05T12:07:05.000Z</time>
      </trkpt>
      <trkpt lat="49.28386" lon="-1.53805">
        <ele>40.958016</ele>
        <time>2021-09-05T12:07:09.000Z</time>
      </trkpt>
      <trkpt lat="49.28375" lon="-1.53803">
        <ele>40.952472</ele>
        <time>2021-09-05T12:07:11.000Z</time>
      </trkpt>
      <trkpt lat="49.2834" lon="-1.53799">
        <ele>40.935155</ele>
        <time>2021-09-05T12:07:17.000Z</time>
      </trkpt>
      <trkpt lat="49.2831" lon="-1.53795">
        <ele>40.92056</ele>
        <time>2021-09-05T12:07:22.000Z</time>
      </trkpt>
      <trkpt lat="49.28305" lon="-1.53794">
        <ele>40.917837</ele>
        <time>2021-09-05T12:07:23.000Z</time>
      </trkpt>
      <trkpt lat="49.28293" lon="-1.53792">
        <ele>40.9121</ele>
        <time>2021-09-05T12:07:25.000Z</time>
      </trkpt>
      <trkpt lat="49.28269" lon="-1.53789">
        <ele>40.900026</ele>
        <time>2021-09-05T12:07:29.000Z</time>
      </trkpt>
      <trkpt lat="49.2823" lon="-1.53783">
        <ele>40.880679</ele>
        <time>2021-09-05T12:07:35.000Z</time>
      </trkpt>
      <trkpt lat="49.28191" lon="-1.53778">
        <ele>40.462264</ele>
        <time>2021-09-05T12:07:41.000Z</time>
      </trkpt>
      <trkpt lat="49.28138" lon="-1.53771">
        <ele>39.63875</ele>
        <time>2021-09-05T12:07:49.000Z</time>
      </trkpt>
      <trkpt lat="49.28107" lon="-1.53766">
        <ele>39.14329</ele>
        <time>2021-09-05T12:07:54.000Z</time>
      </trkpt>
      <trkpt lat="49.28095" lon="-1.53765">
        <ele>38.966583</ele>
        <time>2021-09-05T12:07:56.000Z</time>
      </trkpt>
      <trkpt lat="49.28084" lon="-1.53763">
        <ele>38.794522</ele>
        <time>2021-09-05T12:07:58.000Z</time>
      </trkpt>
      <trkpt lat="49.28078" lon="-1.53762">
        <ele>38.700697</ele>
        <time>2021-09-05T12:07:59.000Z</time>
      </trkpt>
      <trkpt lat="49.28054" lon="-1.53759">
        <ele>38.317655</ele>
        <time>2021-09-05T12:08:03.000Z</time>
      </trkpt>
      <trkpt lat="49.28009" lon="-1.53752">
        <ele>37.530479</ele>
        <time>2021-09-05T12:08:10.000Z</time>
      </trkpt>
      <trkpt lat="49.27963" lon="-1.53745">
        <ele>36.682638</ele>
        <time>2021-09-05T12:08:17.000Z</time>
      </trkpt>
      <trkpt lat="49.27909" lon="-1.53737">
        <ele>35.67856</ele>
        <time>2021-09-05T12:08:25.000Z</time>
      </trkpt>
      <trkpt lat="49.27902" lon="-1.53736">
        <ele>35.546617</ele>
        <time>2021-09-05T12:08:26.000Z</time>
      </trkpt>
      <trkpt lat="49.27855" lon="-1.53728">
        <ele>34.723895</ele>
        <time>2021-09-05T12:08:33.000Z</time>
      </trkpt>
      <trkpt lat="49.27816" lon="-1.53722">
        <ele>34.503198</ele>
        <time>2021-09-05T12:08:39.000Z</time>
      </trkpt>
      <trkpt lat="49.27768" lon="-1.53714">
        <ele>34.238518</ele>
        <time>2021-09-05T12:08:46.000Z</time>
      </trkpt>
      <trkpt lat="49.27714" lon="-1.53705">
        <ele>33.937016</ele>
        <time>2021-09-05T12:08:54.000Z</time>
      </trkpt>
      <trkpt lat="49.27701" lon="-1.53703">
        <ele>33.866244</ele>
        <time>2021-09-05T12:08:56.000Z</time>
      </trkpt>
      <trkpt lat="49.27682" lon="-1.537">
        <ele>33.75979</ele>
        <time>2021-09-05T12:08:59.000Z</time>
      </trkpt>
      <trkpt lat="49.27638" lon="-1.53693">
        <ele>33.469615</ele>
        <time>2021-09-05T12:09:06.000Z</time>
      </trkpt>
      <trkpt lat="49.27597" lon="-1.53687">
        <ele>33.195916</ele>
        <time>2021-09-05T12:09:13.000Z</time>
      </trkpt>
      <trkpt lat="49.27555" lon="-1.53682">
        <ele>32.920867</ele>
        <time>2021-09-05T12:09:20.000Z</time>
      </trkpt>
      <trkpt lat="49.27543" lon="-1.5368">
        <ele>32.84287</ele>
        <time>2021-09-05T12:09:22.000Z</time>
      </trkpt>
      <trkpt lat="49.27526" lon="-1.53678">
        <ele>32.727825</ele>
        <time>2021-09-05T12:09:25.000Z</time>
      </trkpt>
      <trkpt lat="49.27486" lon="-1.53673">
        <ele>32.588371</ele>
        <time>2021-09-05T12:09:32.000Z</time>
      </trkpt>
      <trkpt lat="49.27469" lon="-1.53671">
        <ele>32.612968</ele>
        <time>2021-09-05T12:09:35.000Z</time>
      </trkpt>
      <trkpt lat="49.27453" lon="-1.53669">
        <ele>32.636822</ele>
        <time>2021-09-05T12:09:38.000Z</time>
      </trkpt>
      <trkpt lat="49.27418" lon="-1.53664">
        <ele>32.688534</ele>
        <time>2021-09-05T12:09:45.000Z</time>
      </trkpt>
      <trkpt lat="49.2741" lon="-1.53663">
        <ele>32.700833</ele>
        <time>2021-09-05T12:09:47.000Z</time>
      </trkpt>
      <trkpt lat="49.27401" lon="-1.53662">
        <ele>32.713867</ele>
        <time>2021-09-05T12:09:49.000Z</time>
      </trkpt>
      <trkpt lat="49.27382" lon="-1.5366">
        <ele>32.742401</ele>
        <time>2021-09-05T12:09:54.000Z</time>
      </trkpt>
      <trkpt lat="49.27379" lon="-1.5366">
        <ele>32.747126</ele>
        <time>2021-09-05T12:09:55.000Z</time>
      </trkpt>
      <trkpt lat="49.27354" lon="-1.53658">
        <ele>32.783798</ele>
        <time>2021-09-05T12:09:59.000Z</time>
      </trkpt>
      <trkpt lat="49.27311" lon="-1.5365">
        <ele>32.970227</ele>
        <time>2021-09-05T12:10:07.000Z</time>
      </trkpt>
      <trkpt lat="49.27278" lon="-1.53643">
        <ele>33.372414</ele>
        <time>2021-09-05T12:10:13.000Z</time>
      </trkpt>
      <trkpt lat="49.27238" lon="-1.53638">
        <ele>33.850814</ele>
        <time>2021-09-05T12:10:20.000Z</time>
      </trkpt>
      <trkpt lat="49.27189" lon="-1.53636">
        <ele>34.441762</ele>
        <time>2021-09-05T12:10:29.000Z</time>
      </trkpt>
      <trkpt lat="49.27163" lon="-1.53636">
        <ele>34.757684</ele>
        <time>2021-09-05T12:10:34.000Z</time>
      </trkpt>
      <trkpt lat="49.27158" lon="-1.53636">
        <ele>34.820406</ele>
        <time>2021-09-05T12:10:35.000Z</time>
      </trkpt>
      <trkpt lat="49.27127" lon="-1.53638">
        <ele>35.338246</ele>
        <time>2021-09-05T12:10:41.000Z</time>
      </trkpt>
      <trkpt lat="49.27122" lon="-1.53638">
        <ele>35.445173</ele>
        <time>2021-09-05T12:10:42.000Z</time>
      </trkpt>
      <trkpt lat="49.27082" lon="-1.53641">
        <ele>36.301396</ele>
        <time>2021-09-05T12:10:50.000Z</time>
      </trkpt>
      <trkpt lat="49.27068" lon="-1.53645">
        <ele>36.606371</ele>
        <time>2021-09-05T12:10:53.000Z</time>
      </trkpt>
      <trkpt lat="49.27055" lon="-1.53649">
        <ele>36.898493</ele>
        <time>2021-09-05T12:10:56.000Z</time>
      </trkpt>
      <trkpt lat="49.27033" lon="-1.53656">
        <ele>37.364352</ele>
        <time>2021-09-05T12:11:01.000Z</time>
      </trkpt>
      <trkpt lat="49.26997" lon="-1.53666">
        <ele>38.155137</ele>
        <time>2021-09-05T12:11:08.000Z</time>
      </trkpt>
      <trkpt lat="49.26962" lon="-1.53677">
        <ele>38.915229</ele>
        <time>2021-09-05T12:11:15.000Z</time>
      </trkpt>
      <trkpt lat="49.26927" lon="-1.5369">
        <ele>39.841919</ele>
        <time>2021-09-05T12:11:22.000Z</time>
      </trkpt>
      <trkpt lat="49.26883" lon="-1.53707">
        <ele>40.986661</ele>
        <time>2021-09-05T12:11:31.000Z</time>
      </trkpt>
      <trkpt lat="49.26864" lon="-1.53714">
        <ele>41.469109</ele>
        <time>2021-09-05T12:11:35.000Z</time>
      </trkpt>
      <trkpt lat="49.2685" lon="-1.5372">
        <ele>41.831659</ele>
        <time>2021-09-05T12:11:38.000Z</time>
      </trkpt>
      <trkpt lat="49.26828" lon="-1.53729">
        <ele>42.425848</ele>
        <time>2021-09-05T12:11:43.000Z</time>
      </trkpt>
      <trkpt lat="49.26819" lon="-1.53732">
        <ele>42.652594</ele>
        <time>2021-09-05T12:11:45.000Z</time>
      </trkpt>
      <trkpt lat="49.26782" lon="-1.53747">
        <ele>43.571546</ele>
        <time>2021-09-05T12:11:53.000Z</time>
      </trkpt>
      <trkpt lat="49.26769" lon="-1.53752">
        <ele>43.848967</ele>
        <time>2021-09-05T12:11:56.000Z</time>
      </trkpt>
      <trkpt lat="49.2676" lon="-1.53755">
        <ele>44.034676</ele>
        <time>2021-09-05T12:11:58.000Z</time>
      </trkpt>
      <trkpt lat="49.26755" lon="-1.53757">
        <ele>44.12835</ele>
        <time>2021-09-05T12:11:59.000Z</time>
      </trkpt>
      <trkpt lat="49.26725" lon="-1.53769">
        <ele>44.754344</ele>
        <time>2021-09-05T12:12:06.000Z</time>
      </trkpt>
      <trkpt lat="49.26703" lon="-1.53778">
        <ele>45.21356</ele>
        <time>2021-09-05T12:12:11.000Z</time>
      </trkpt>
      <trkpt lat="49.26691" lon="-1.53783">
        <ele>45.468467</ele>
        <time>2021-09-05T12:12:14.000Z</time>
      </trkpt>
      <trkpt lat="49.26682" lon="-1.53786">
        <ele>45.65842</ele>
        <time>2021-09-05T12:12:16.000Z</time>
      </trkpt>
      <trkpt lat="49.26651" lon="-1.53798">
        <ele>46.296168</ele>
        <time>2021-09-05T12:12:23.000Z</time>
      </trkpt>
      <trkpt lat="49.26598" lon="-1.53816">
        <ele>47.275734</ele>
        <time>2021-09-05T12:12:32.000Z</time>
      </trkpt>
      <trkpt lat="49.26544" lon="-1.53829">
        <ele>48.019754</ele>
        <time>2021-09-05T12:12:42.000Z</time>
      </trkpt>
      <trkpt lat="49.26487" lon="-1.53839">
        <ele>48.789458</ele>
        <time>2021-09-05T12:12:52.000Z</time>
      </trkpt>
      <trkpt lat="49.26454" lon="-1.53842">
        <ele>49.238581</ele>
        <time>2021-09-05T12:12:58.000Z</time>
      </trkpt>
      <trkpt lat="49.26412" lon="-1.53844">
        <ele>49.659172</ele>
        <time>2021-09-05T12:13:05.000Z</time>
      </trkpt>
      <trkpt lat="49.26368" lon="-1.53845">
        <ele>50.001114</ele>
        <time>2021-09-05T12:13:12.000Z</time>
      </trkpt>
      <trkpt lat="49.26319" lon="-1.53838">
        <ele>50.391494</ele>
        <time>2021-09-05T12:13:20.000Z</time>
      </trkpt>
      <trkpt lat="49.26303" lon="-1.53835">
        <ele>50.514083</ele>
        <time>2021-09-05T12:13:23.000Z</time>
      </trkpt>
      <trkpt lat="49.26292" lon="-1.53832">
        <ele>50.601874</ele>
        <time>2021-09-05T12:13:25.000Z</time>
      </trkpt>
      <trkpt lat="49.26286" lon="-1.5383">
        <ele>50.645385</ele>
        <time>2021-09-05T12:13:26.000Z</time>
      </trkpt>
      <trkpt lat="49.26268" lon="-1.53825">
        <ele>50.790935</ele>
        <time>2021-09-05T12:13:29.000Z</time>
      </trkpt>
      <trkpt lat="49.26218" lon="-1.53812">
        <ele>51.044117</ele>
        <time>2021-09-05T12:13:37.000Z</time>
      </trkpt>
      <trkpt lat="49.26184" lon="-1.53802">
        <ele>51.197968</ele>
        <time>2021-09-05T12:13:43.000Z</time>
      </trkpt>
      <trkpt lat="49.26174" lon="-1.538">
        <ele>51.244303</ele>
        <time>2021-09-05T12:13:45.000Z</time>
      </trkpt>
      <trkpt lat="49.26169" lon="-1.53798">
        <ele>51.265893</ele>
        <time>2021-09-05T12:13:46.000Z</time>
      </trkpt>
      <trkpt lat="49.26145" lon="-1.53792">
        <ele>51.373074</ele>
        <time>2021-09-05T12:13:51.000Z</time>
      </trkpt>
      <trkpt lat="49.26123" lon="-1.53788">
        <ele>51.470545</ele>
        <time>2021-09-05T12:13:55.000Z</time>
      </trkpt>
      <trkpt lat="49.26115" lon="-1.53786">
        <ele>51.50588</ele>
        <time>2021-09-05T12:13:57.000Z</time>
      </trkpt>
      <trkpt lat="49.26113" lon="-1.53786">
        <ele>51.517964</ele>
        <time>2021-09-05T12:13:58.000Z</time>
      </trkpt>
      <trkpt lat="49.26109" lon="-1.53785">
        <ele>51.536711</ele>
        <time>2021-09-05T12:14:00.000Z</time>
      </trkpt>
      <trkpt lat="49.26094" lon="-1.53782">
        <ele>51.599764</ele>
        <time>2021-09-05T12:14:04.000Z</time>
      </trkpt>
      <trkpt lat="49.26086" lon="-1.5378">
        <ele>51.639566</ele>
        <time>2021-09-05T12:14:06.000Z</time>
      </trkpt>
      <trkpt lat="49.26076" lon="-1.53777">
        <ele>51.601613</ele>
        <time>2021-09-05T12:14:08.000Z</time>
      </trkpt>
      <trkpt lat="49.26045" lon="-1.53767">
        <ele>51.296609</ele>
        <time>2021-09-05T12:14:14.000Z</time>
      </trkpt>
      <trkpt lat="49.26004" lon="-1.53752">
        <ele>50.884538</ele>
        <time>2021-09-05T12:14:21.000Z</time>
      </trkpt>
      <trkpt lat="49.25981" lon="-1.53744">
        <ele>50.650547</ele>
        <time>2021-09-05T12:14:25.000Z</time>
      </trkpt>
      <trkpt lat="49.25946" lon="-1.53732">
        <ele>50.29984</ele>
        <time>2021-09-05T12:14:31.000Z</time>
      </trkpt>
      <trkpt lat="49.25903" lon="-1.5372">
        <ele>49.893602</ele>
        <time>2021-09-05T12:14:38.000Z</time>
      </trkpt>
      <trkpt lat="49.25849" lon="-1.53704">
        <ele>49.70781</ele>
        <time>2021-09-05T12:14:47.000Z</time>
      </trkpt>
      <trkpt lat="49.25843" lon="-1.53702">
        <ele>49.686418</ele>
        <time>2021-09-05T12:14:48.000Z</time>
      </trkpt>
      <trkpt lat="49.25804" lon="-1.5369">
        <ele>49.552068</ele>
        <time>2021-09-05T12:14:55.000Z</time>
      </trkpt>
      <trkpt lat="49.25797" lon="-1.53687">
        <ele>49.526965</ele>
        <time>2021-09-05T12:14:57.000Z</time>
      </trkpt>
      <trkpt lat="49.25795" lon="-1.53682">
        <ele>49.514842</ele>
        <time>2021-09-05T12:14:58.000Z</time>
      </trkpt>
      <trkpt lat="49.25792" lon="-1.53669">
        <ele>49.485048</ele>
        <time>2021-09-05T12:15:01.000Z</time>
      </trkpt>
      <trkpt lat="49.2579" lon="-1.53669">
        <ele>49.476234</ele>
        <time>2021-09-05T12:15:02.000Z</time>
      </trkpt>
      <trkpt lat="49.25783" lon="-1.5367">
        <ele>49.453771</ele>
        <time>2021-09-05T12:15:04.000Z</time>
      </trkpt>
      <trkpt lat="49.25779" lon="-1.53672">
        <ele>49.439115</ele>
        <time>2021-09-05T12:15:05.000Z</time>
      </trkpt>
      <trkpt lat="49.2577" lon="-1.53677">
        <ele>49.407201</ele>
        <time>2021-09-05T12:15:07.000Z</time>
      </trkpt>
      <trkpt lat="49.25758" lon="-1.5368">
        <ele>49.366986</ele>
        <time>2021-09-05T12:15:09.000Z</time>
      </trkpt>
      <trkpt lat="49.25722" lon="-1.53669">
        <ele>49.256909</ele>
        <time>2021-09-05T12:15:16.000Z</time>
      </trkpt>
      <trkpt lat="49.25684" lon="-1.53658">
        <ele>49.165836</ele>
        <time>2021-09-05T12:15:23.000Z</time>
      </trkpt>
      <trkpt lat="49.25663" lon="-1.53651">
        <ele>49.115131</ele>
        <time>2021-09-05T12:15:27.000Z</time>
      </trkpt>
      <trkpt lat="49.25618" lon="-1.53638">
        <ele>49.008884</ele>
        <time>2021-09-05T12:15:35.000Z</time>
      </trkpt>
      <trkpt lat="49.25574" lon="-1.53625">
        <ele>48.901219</ele>
        <time>2021-09-05T12:15:43.000Z</time>
      </trkpt>
      <trkpt lat="49.25533" lon="-1.53612">
        <ele>48.470151</ele>
        <time>2021-09-05T12:15:50.000Z</time>
      </trkpt>
      <trkpt lat="49.25492" lon="-1.536">
        <ele>47.872933</ele>
        <time>2021-09-05T12:15:57.000Z</time>
      </trkpt>
      <trkpt lat="49.2546" lon="-1.53591">
        <ele>47.42018</ele>
        <time>2021-09-05T12:16:03.000Z</time>
      </trkpt>
      <trkpt lat="49.25402" lon="-1.53573">
        <ele>46.575849</ele>
        <time>2021-09-05T12:16:11.000Z</time>
      </trkpt>
      <trkpt lat="49.25395" lon="-1.53572">
        <ele>46.480691</ele>
        <time>2021-09-05T12:16:12.000Z</time>
      </trkpt>
      <trkpt lat="49.25355" lon="-1.5356">
        <ele>45.848038</ele>
        <time>2021-09-05T12:16:18.000Z</time>
      </trkpt>
      <trkpt lat="49.25307" lon="-1.53546">
        <ele>45.075618</ele>
        <time>2021-09-05T12:16:25.000Z</time>
      </trkpt>
      <trkpt lat="49.25253" lon="-1.53531">
        <ele>44.219805</ele>
        <time>2021-09-05T12:16:33.000Z</time>
      </trkpt>
      <trkpt lat="49.25206" lon="-1.53518">
        <ele>43.455167</ele>
        <time>2021-09-05T12:16:40.000Z</time>
      </trkpt>
      <trkpt lat="49.2515" lon="-1.53501">
        <ele>42.517421</ele>
        <time>2021-09-05T12:16:48.000Z</time>
      </trkpt>
      <trkpt lat="49.25103" lon="-1.53486">
        <ele>41.718231</ele>
        <time>2021-09-05T12:16:55.000Z</time>
      </trkpt>
      <trkpt lat="49.25057" lon="-1.53473">
        <ele>40.94306</ele>
        <time>2021-09-05T12:17:02.000Z</time>
      </trkpt>
      <trkpt lat="49.25051" lon="-1.53471">
        <ele>40.835923</ele>
        <time>2021-09-05T12:17:03.000Z</time>
      </trkpt>
      <trkpt lat="49.25044" lon="-1.5347">
        <ele>40.732217</ele>
        <time>2021-09-05T12:17:04.000Z</time>
      </trkpt>
      <trkpt lat="49.25034" lon="-1.53468">
        <ele>40.559873</ele>
        <time>2021-09-05T12:17:06.000Z</time>
      </trkpt>
      <trkpt lat="49.25014" lon="-1.53462">
        <ele>40.091138</ele>
        <time>2021-09-05T12:17:11.000Z</time>
      </trkpt>
      <trkpt lat="49.25005" lon="-1.5346">
        <ele>39.894339</ele>
        <time>2021-09-05T12:17:13.000Z</time>
      </trkpt>
      <trkpt lat="49.25001" lon="-1.53458">
        <ele>39.782814</ele>
        <time>2021-09-05T12:17:14.000Z</time>
      </trkpt>
      <trkpt lat="49.24996" lon="-1.53457">
        <ele>39.666621</ele>
        <time>2021-09-05T12:17:15.000Z</time>
      </trkpt>
      <trkpt lat="49.24978" lon="-1.53451">
        <ele>39.234507</ele>
        <time>2021-09-05T12:17:18.000Z</time>
      </trkpt>
      <trkpt lat="49.24972" lon="-1.53449">
        <ele>39.074519</ele>
        <time>2021-09-05T12:17:19.000Z</time>
      </trkpt>
      <trkpt lat="49.24945" lon="-1.53441">
        <ele>38.426658</ele>
        <time>2021-09-05T12:17:23.000Z</time>
      </trkpt>
      <trkpt lat="49.24918" lon="-1.53433">
        <ele>37.781127</ele>
        <time>2021-09-05T12:17:27.000Z</time>
      </trkpt>
      <trkpt lat="49.24877" lon="-1.53421">
        <ele>36.78293</ele>
        <time>2021-09-05T12:17:33.000Z</time>
      </trkpt>
      <trkpt lat="49.24836" lon="-1.53411">
        <ele>35.787182</ele>
        <time>2021-09-05T12:17:39.000Z</time>
      </trkpt>
      <trkpt lat="49.24795" lon="-1.53405">
        <ele>34.832958</ele>
        <time>2021-09-05T12:17:45.000Z</time>
      </trkpt>
      <trkpt lat="49.2474" lon="-1.53398">
        <ele>33.535867</ele>
        <time>2021-09-05T12:17:53.000Z</time>
      </trkpt>
      <trkpt lat="49.24734" lon="-1.53397">
        <ele>33.389644</ele>
        <time>2021-09-05T12:17:54.000Z</time>
      </trkpt>
      <trkpt lat="49.24721" lon="-1.53396">
        <ele>33.087789</ele>
        <time>2021-09-05T12:17:56.000Z</time>
      </trkpt>
      <trkpt lat="49.24715" lon="-1.53396">
        <ele>32.941566</ele>
        <time>2021-09-05T12:17:57.000Z</time>
      </trkpt>
      <trkpt lat="49.24677" lon="-1.53393">
        <ele>32.035922</ele>
        <time>2021-09-05T12:18:03.000Z</time>
      </trkpt>
      <trkpt lat="49.24638" lon="-1.5339">
        <ele>31.63975</ele>
        <time>2021-09-05T12:18:09.000Z</time>
      </trkpt>
      <trkpt lat="49.246" lon="-1.53387">
        <ele>31.278721</ele>
        <time>2021-09-05T12:18:15.000Z</time>
      </trkpt>
      <trkpt lat="49.24567" lon="-1.53384">
        <ele>30.961489</ele>
        <time>2021-09-05T12:18:20.000Z</time>
      </trkpt>
      <trkpt lat="49.24556" lon="-1.53383">
        <ele>30.859545</ele>
        <time>2021-09-05T12:18:22.000Z</time>
      </trkpt>
      <trkpt lat="49.24535" lon="-1.53382">
        <ele>30.652997</ele>
        <time>2021-09-05T12:18:26.000Z</time>
      </trkpt>
      <trkpt lat="49.24512" lon="-1.53383">
        <ele>30.434123</ele>
        <time>2021-09-05T12:18:30.000Z</time>
      </trkpt>
      <trkpt lat="49.24476" lon="-1.53383">
        <ele>30.211012</ele>
        <time>2021-09-05T12:18:36.000Z</time>
      </trkpt>
      <trkpt lat="49.24447" lon="-1.53382">
        <ele>30.109526</ele>
        <time>2021-09-05T12:18:41.000Z</time>
      </trkpt>
      <trkpt lat="49.24403" lon="-1.53381">
        <ele>29.959205</ele>
        <time>2021-09-05T12:18:48.000Z</time>
      </trkpt>
      <trkpt lat="49.24386" lon="-1.5338">
        <ele>29.899976</ele>
        <time>2021-09-05T12:18:51.000Z</time>
      </trkpt>
      <trkpt lat="49.2438" lon="-1.5338">
        <ele>29.879542</ele>
        <time>2021-09-05T12:18:52.000Z</time>
      </trkpt>
      <trkpt lat="49.24368" lon="-1.53379">
        <ele>29.838669</ele>
        <time>2021-09-05T12:18:54.000Z</time>
      </trkpt>
      <trkpt lat="49.24349" lon="-1.53378">
        <ele>29.771825</ele>
        <time>2021-09-05T12:18:57.000Z</time>
      </trkpt>
      <trkpt lat="49.24304" lon="-1.53377">
        <ele>29.638518</ele>
        <time>2021-09-05T12:19:04.000Z</time>
      </trkpt>
      <trkpt lat="49.24258" lon="-1.53375">
        <ele>29.570467</ele>
        <time>2021-09-05T12:19:11.000Z</time>
      </trkpt>
      <trkpt lat="49.24217" lon="-1.53373">
        <ele>29.509472</ele>
        <time>2021-09-05T12:19:17.000Z</time>
      </trkpt>
      <trkpt lat="49.24169" lon="-1.53371">
        <ele>29.438922</ele>
        <time>2021-09-05T12:19:24.000Z</time>
      </trkpt>
      <trkpt lat="49.24119" lon="-1.53369">
        <ele>29.398731</ele>
        <time>2021-09-05T12:19:31.000Z</time>
      </trkpt>
      <trkpt lat="49.24069" lon="-1.53367">
        <ele>29.425366</ele>
        <time>2021-09-05T12:19:38.000Z</time>
      </trkpt>
      <trkpt lat="49.24034" lon="-1.53366">
        <ele>29.444059</ele>
        <time>2021-09-05T12:19:43.000Z</time>
      </trkpt>
      <trkpt lat="49.24" lon="-1.53365">
        <ele>29.461905</ele>
        <time>2021-09-05T12:19:48.000Z</time>
      </trkpt>
      <trkpt lat="49.23945" lon="-1.53363">
        <ele>29.461396</ele>
        <time>2021-09-05T12:19:56.000Z</time>
      </trkpt>
      <trkpt lat="49.23933" lon="-1.53362">
        <ele>29.431615</ele>
        <time>2021-09-05T12:19:58.000Z</time>
      </trkpt>
      <trkpt lat="49.23881" lon="-1.5336">
        <ele>29.311559</ele>
        <time>2021-09-05T12:20:06.000Z</time>
      </trkpt>
      <trkpt lat="49.23836" lon="-1.53358">
        <ele>29.208019</ele>
        <time>2021-09-05T12:20:13.000Z</time>
      </trkpt>
      <trkpt lat="49.23823" lon="-1.53358">
        <ele>29.176843</ele>
        <time>2021-09-05T12:20:15.000Z</time>
      </trkpt>
      <trkpt lat="49.23804" lon="-1.53357">
        <ele>29.131704</ele>
        <time>2021-09-05T12:20:18.000Z</time>
      </trkpt>
      <trkpt lat="49.2379" lon="-1.53356">
        <ele>29.100295</ele>
        <time>2021-09-05T12:20:20.000Z</time>
      </trkpt>
      <trkpt lat="49.23771" lon="-1.53356">
        <ele>29.025215</ele>
        <time>2021-09-05T12:20:23.000Z</time>
      </trkpt>
      <trkpt lat="49.23738" lon="-1.53354">
        <ele>28.729672</ele>
        <time>2021-09-05T12:20:29.000Z</time>
      </trkpt>
      <trkpt lat="49.23678" lon="-1.53352">
        <ele>28.190368</ele>
        <time>2021-09-05T12:20:37.000Z</time>
      </trkpt>
      <trkpt lat="49.23624" lon="-1.5335">
        <ele>27.713569</ele>
        <time>2021-09-05T12:20:45.000Z</time>
      </trkpt>
      <trkpt lat="49.23584" lon="-1.53349">
        <ele>27.445059</ele>
        <time>2021-09-05T12:20:51.000Z</time>
      </trkpt>
      <trkpt lat="49.23543" lon="-1.53347">
        <ele>27.39171</ele>
        <time>2021-09-05T12:20:57.000Z</time>
      </trkpt>
      <trkpt lat="49.23512" lon="-1.53347">
        <ele>27.350642</ele>
        <time>2021-09-05T12:21:02.000Z</time>
      </trkpt>
      <trkpt lat="49.23481" lon="-1.53346">
        <ele>27.310103</ele>
        <time>2021-09-05T12:21:07.000Z</time>
      </trkpt>
      <trkpt lat="49.23443" lon="-1.53345">
        <ele>27.259528</ele>
        <time>2021-09-05T12:21:13.000Z</time>
      </trkpt>
      <trkpt lat="49.23431" lon="-1.53344">
        <ele>27.243155</ele>
        <time>2021-09-05T12:21:15.000Z</time>
      </trkpt>
      <trkpt lat="49.23413" lon="-1.53344">
        <ele>27.199014</ele>
        <time>2021-09-05T12:21:18.000Z</time>
      </trkpt>
      <trkpt lat="49.23387" lon="-1.53343">
        <ele>27.011808</ele>
        <time>2021-09-05T12:21:22.000Z</time>
      </trkpt>
      <trkpt lat="49.23374" lon="-1.53343">
        <ele>26.92002</ele>
        <time>2021-09-05T12:21:24.000Z</time>
      </trkpt>
      <trkpt lat="49.23331" lon="-1.53341">
        <ele>26.604608</ele>
        <time>2021-09-05T12:21:31.000Z</time>
      </trkpt>
      <trkpt lat="49.23301" lon="-1.5334">
        <ele>26.384615</ele>
        <time>2021-09-05T12:21:36.000Z</time>
      </trkpt>
      <trkpt lat="49.23294" lon="-1.5334">
        <ele>26.336537</ele>
        <time>2021-09-05T12:21:37.000Z</time>
      </trkpt>
      <trkpt lat="49.23262" lon="-1.53339">
        <ele>26.097611</ele>
        <time>2021-09-05T12:21:42.000Z</time>
      </trkpt>
      <trkpt lat="49.23229" lon="-1.53338">
        <ele>25.848084</ele>
        <time>2021-09-05T12:21:47.000Z</time>
      </trkpt>
      <trkpt lat="49.23204" lon="-1.53338">
        <ele>25.612127</ele>
        <time>2021-09-05T12:21:51.000Z</time>
      </trkpt>
      <trkpt lat="49.23192" lon="-1.53337">
        <ele>25.501589</ele>
        <time>2021-09-05T12:21:53.000Z</time>
      </trkpt>
      <trkpt lat="49.23167" lon="-1.53337">
        <ele>25.272145</ele>
        <time>2021-09-05T12:21:57.000Z</time>
      </trkpt>
      <trkpt lat="49.2313" lon="-1.53335">
        <ele>24.923687</ele>
        <time>2021-09-05T12:22:03.000Z</time>
      </trkpt>
      <trkpt lat="49.23091" lon="-1.53333">
        <ele>24.565927</ele>
        <time>2021-09-05T12:22:10.000Z</time>
      </trkpt>
      <trkpt lat="49.23058" lon="-1.53331">
        <ele>24.260209</ele>
        <time>2021-09-05T12:22:14.000Z</time>
      </trkpt>
      <trkpt lat="49.23045" lon="-1.5333">
        <ele>24.101698</ele>
        <time>2021-09-05T12:22:16.000Z</time>
      </trkpt>
      <trkpt lat="49.23004" lon="-1.53326">
        <ele>23.602858</ele>
        <time>2021-09-05T12:22:22.000Z</time>
      </trkpt>
      <trkpt lat="49.22985" lon="-1.53324">
        <ele>23.37299</ele>
        <time>2021-09-05T12:22:25.000Z</time>
      </trkpt>
      <trkpt lat="49.22942" lon="-1.53319">
        <ele>22.842347</ele>
        <time>2021-09-05T12:22:31.000Z</time>
      </trkpt>
      <trkpt lat="49.22885" lon="-1.53303">
        <ele>22.135063</ele>
        <time>2021-09-05T12:22:39.000Z</time>
      </trkpt>
      <trkpt lat="49.22829" lon="-1.53282">
        <ele>21.644086</ele>
        <time>2021-09-05T12:22:47.000Z</time>
      </trkpt>
      <trkpt lat="49.22808" lon="-1.53274">
        <ele>21.47719</ele>
        <time>2021-09-05T12:22:50.000Z</time>
      </trkpt>
      <trkpt lat="49.22788" lon="-1.53267">
        <ele>21.316065</ele>
        <time>2021-09-05T12:22:53.000Z</time>
      </trkpt>
      <trkpt lat="49.22776" lon="-1.53262">
        <ele>21.214594</ele>
        <time>2021-09-05T12:22:55.000Z</time>
      </trkpt>
      <trkpt lat="49.22764" lon="-1.53258">
        <ele>21.119666</ele>
        <time>2021-09-05T12:22:57.000Z</time>
      </trkpt>
      <trkpt lat="49.22759" lon="-1.53256">
        <ele>21.073096</ele>
        <time>2021-09-05T12:22:58.000Z</time>
      </trkpt>
      <trkpt lat="49.22759" lon="-1.53256">
        <ele>21.073096</ele>
        <time>2021-09-05T12:22:59.000Z</time>
      </trkpt>
      <trkpt lat="49.22743" lon="-1.53249">
        <ele>20.941351</ele>
        <time>2021-09-05T12:23:01.000Z</time>
      </trkpt>
      <trkpt lat="49.22718" lon="-1.53241">
        <ele>20.742807</ele>
        <time>2021-09-05T12:23:06.000Z</time>
      </trkpt>
      <trkpt lat="49.22713" lon="-1.5324">
        <ele>20.701555</ele>
        <time>2021-09-05T12:23:07.000Z</time>
      </trkpt>
      <trkpt lat="49.22708" lon="-1.53238">
        <ele>20.658644</ele>
        <time>2021-09-05T12:23:08.000Z</time>
      </trkpt>
      <trkpt lat="49.22697" lon="-1.53235">
        <ele>20.558318</ele>
        <time>2021-09-05T12:23:10.000Z</time>
      </trkpt>
      <trkpt lat="49.22661" lon="-1.53224">
        <ele>20.20129</ele>
        <time>2021-09-05T12:23:16.000Z</time>
      </trkpt>
      <trkpt lat="49.22642" lon="-1.53218">
        <ele>20.011971</ele>
        <time>2021-09-05T12:23:19.000Z</time>
      </trkpt>
      <trkpt lat="49.22628" lon="-1.53213">
        <ele>19.879785</ele>
        <time>2021-09-05T12:23:21.000Z</time>
      </trkpt>
      <trkpt lat="49.22581" lon="-1.53195">
        <ele>19.406865</ele>
        <time>2021-09-05T12:23:28.000Z</time>
      </trkpt>
      <trkpt lat="49.22529" lon="-1.53174">
        <ele>18.882983</ele>
        <time>2021-09-05T12:23:36.000Z</time>
      </trkpt>
      <trkpt lat="49.22476" lon="-1.53154">
        <ele>17.65323</ele>
        <time>2021-09-05T12:23:44.000Z</time>
      </trkpt>
      <trkpt lat="49.22431" lon="-1.53139">
        <ele>16.601926</ele>
        <time>2021-09-05T12:23:51.000Z</time>
      </trkpt>
      <trkpt lat="49.22399" lon="-1.53128">
        <ele>15.860186</ele>
        <time>2021-09-05T12:23:56.000Z</time>
      </trkpt>
      <trkpt lat="49.22393" lon="-1.53126">
        <ele>15.720773</ele>
        <time>2021-09-05T12:23:58.000Z</time>
      </trkpt>
      <trkpt lat="49.22352" lon="-1.53112">
        <ele>14.775408</ele>
        <time>2021-09-05T12:24:04.000Z</time>
      </trkpt>
      <trkpt lat="49.22336" lon="-1.53107">
        <ele>14.468131</ele>
        <time>2021-09-05T12:24:07.000Z</time>
      </trkpt>
      <trkpt lat="49.22328" lon="-1.53104">
        <ele>14.312796</ele>
        <time>2021-09-05T12:24:09.000Z</time>
      </trkpt>
      <trkpt lat="49.22309" lon="-1.53098">
        <ele>13.957666</ele>
        <time>2021-09-05T12:24:14.000Z</time>
      </trkpt>
      <trkpt lat="49.22305" lon="-1.53096">
        <ele>13.880498</ele>
        <time>2021-09-05T12:24:15.000Z</time>
      </trkpt>
      <trkpt lat="49.22296" lon="-1.53093">
        <ele>13.701332</ele>
        <time>2021-09-05T12:24:17.000Z</time>
      </trkpt>
      <trkpt lat="49.22286" lon="-1.53089">
        <ele>13.512486</ele>
        <time>2021-09-05T12:24:19.000Z</time>
      </trkpt>
      <trkpt lat="49.22264" lon="-1.53081">
        <ele>13.074879</ele>
        <time>2021-09-05T12:24:23.000Z</time>
      </trkpt>
      <trkpt lat="49.22216" lon="-1.53064">
        <ele>12.164184</ele>
        <time>2021-09-05T12:24:31.000Z</time>
      </trkpt>
      <trkpt lat="49.22176" lon="-1.5305">
        <ele>11.387759</ele>
        <time>2021-09-05T12:24:38.000Z</time>
      </trkpt>
      <trkpt lat="49.22147" lon="-1.53039">
        <ele>10.880651</ele>
        <time>2021-09-05T12:24:43.000Z</time>
      </trkpt>
      <trkpt lat="49.22114" lon="-1.53027">
        <ele>10.281175</ele>
        <time>2021-09-05T12:24:49.000Z</time>
      </trkpt>
      <trkpt lat="49.22091" lon="-1.53019">
        <ele>9.874208</ele>
        <time>2021-09-05T12:24:53.000Z</time>
      </trkpt>
      <trkpt lat="49.22079" lon="-1.53015">
        <ele>9.674945</ele>
        <time>2021-09-05T12:24:55.000Z</time>
      </trkpt>
      <trkpt lat="49.22046" lon="-1.53003">
        <ele>9.081695</ele>
        <time>2021-09-05T12:25:01.000Z</time>
      </trkpt>
      <trkpt lat="49.2204" lon="-1.53001">
        <ele>8.978165</ele>
        <time>2021-09-05T12:25:02.000Z</time>
      </trkpt>
      <trkpt lat="49.21999" lon="-1.52988">
        <ele>8.310112</ele>
        <time>2021-09-05T12:25:09.000Z</time>
      </trkpt>
      <trkpt lat="49.21963" lon="-1.52979">
        <ele>8.375952</ele>
        <time>2021-09-05T12:25:16.000Z</time>
      </trkpt>
      <trkpt lat="49.21926" lon="-1.52975">
        <ele>8.441638</ele>
        <time>2021-09-05T12:25:21.000Z</time>
      </trkpt>
      <trkpt lat="49.2192" lon="-1.52975">
        <ele>8.452431</ele>
        <time>2021-09-05T12:25:22.000Z</time>
      </trkpt>
      <trkpt lat="49.21883" lon="-1.52974">
        <ele>8.519529</ele>
        <time>2021-09-05T12:25:28.000Z</time>
      </trkpt>
      <trkpt lat="49.21865" lon="-1.52974">
        <ele>8.551908</ele>
        <time>2021-09-05T12:25:31.000Z</time>
      </trkpt>
      <trkpt lat="49.21853" lon="-1.52973">
        <ele>8.573315</ele>
        <time>2021-09-05T12:25:33.000Z</time>
      </trkpt>
      <trkpt lat="49.21842" lon="-1.52973">
        <ele>8.593822</ele>
        <time>2021-09-05T12:25:35.000Z</time>
      </trkpt>
      <trkpt lat="49.21824" lon="-1.52973">
        <ele>8.626741</ele>
        <time>2021-09-05T12:25:39.000Z</time>
      </trkpt>
      <trkpt lat="49.21817" lon="-1.52974">
        <ele>8.672819</ele>
        <time>2021-09-05T12:25:43.000Z</time>
      </trkpt>
      <trkpt lat="49.2181" lon="-1.52973">
        <ele>8.72036</ele>
        <time>2021-09-05T12:25:48.000Z</time>
      </trkpt>
      <trkpt lat="49.21795" lon="-1.52971">
        <ele>8.831667</ele>
        <time>2021-09-05T12:25:53.000Z</time>
      </trkpt>
      <trkpt lat="49.21784" lon="-1.52969">
        <ele>8.915101</ele>
        <time>2021-09-05T12:25:56.000Z</time>
      </trkpt>
      <trkpt lat="49.2178" lon="-1.52968">
        <ele>8.945151</ele>
        <time>2021-09-05T12:25:57.000Z</time>
      </trkpt>
      <trkpt lat="49.21775" lon="-1.52968">
        <ele>8.975878</ele>
        <time>2021-09-05T12:25:58.000Z</time>
      </trkpt>
      <trkpt lat="49.21752" lon="-1.52961">
        <ele>9.148123</ele>
        <time>2021-09-05T12:26:03.000Z</time>
      </trkpt>
      <trkpt lat="49.21713" lon="-1.52946">
        <ele>9.444494</ele>
        <time>2021-09-05T12:26:11.000Z</time>
      </trkpt>
      <trkpt lat="49.21687" lon="-1.52933">
        <ele>9.641416</ele>
        <time>2021-09-05T12:26:16.000Z</time>
      </trkpt>
      <trkpt lat="49.21682" lon="-1.5293">
        <ele>9.680363</ele>
        <time>2021-09-05T12:26:17.000Z</time>
      </trkpt>
      <trkpt lat="49.2165" lon="-1.52909">
        <ele>9.935982</ele>
        <time>2021-09-05T12:26:24.000Z</time>
      </trkpt>
      <trkpt lat="49.2162" lon="-1.52887">
        <ele>10.078943</ele>
        <time>2021-09-05T12:26:31.000Z</time>
      </trkpt>
      <trkpt lat="49.21616" lon="-1.52884">
        <ele>10.097698</ele>
        <time>2021-09-05T12:26:32.000Z</time>
      </trkpt>
      <trkpt lat="49.21603" lon="-1.52872">
        <ele>10.164467</ele>
        <time>2021-09-05T12:26:36.000Z</time>
      </trkpt>
      <trkpt lat="49.21589" lon="-1.52859">
        <ele>10.232407</ele>
        <time>2021-09-05T12:26:40.000Z</time>
      </trkpt>
      <trkpt lat="49.21585" lon="-1.52856">
        <ele>10.251246</ele>
        <time>2021-09-05T12:26:41.000Z</time>
      </trkpt>
      <trkpt lat="49.21561" lon="-1.52827">
        <ele>10.385515</ele>
        <time>2021-09-05T12:26:48.000Z</time>
      </trkpt>
      <trkpt lat="49.21549" lon="-1.52813">
        <ele>10.448513</ele>
        <time>2021-09-05T12:26:51.000Z</time>
      </trkpt>
      <trkpt lat="49.21533" lon="-1.52792">
        <ele>10.537148</ele>
        <time>2021-09-05T12:26:55.000Z</time>
      </trkpt>
      <trkpt lat="49.21526" lon="-1.52781">
        <ele>10.582366</ele>
        <time>2021-09-05T12:26:57.000Z</time>
      </trkpt>
      <trkpt lat="49.21508" lon="-1.52754">
        <ele>10.688731</ele>
        <time>2021-09-05T12:27:02.000Z</time>
      </trkpt>
      <trkpt lat="49.21499" lon="-1.5274">
        <ele>10.778684</ele>
        <time>2021-09-05T12:27:05.000Z</time>
      </trkpt>
      <trkpt lat="49.21493" lon="-1.5273">
        <ele>10.856448</ele>
        <time>2021-09-05T12:27:08.000Z</time>
      </trkpt>
      <trkpt lat="49.21477" lon="-1.52703">
        <ele>11.058855</ele>
        <time>2021-09-05T12:27:12.000Z</time>
      </trkpt>
      <trkpt lat="49.21466" lon="-1.52686">
        <ele>11.186674</ele>
        <time>2021-09-05T12:27:15.000Z</time>
      </trkpt>
      <trkpt lat="49.2146" lon="-1.52675">
        <ele>11.270501</ele>
        <time>2021-09-05T12:27:17.000Z</time>
      </trkpt>
      <trkpt lat="49.2145" lon="-1.52658">
        <ele>11.392797</ele>
        <time>2021-09-05T12:27:20.000Z</time>
      </trkpt>
      <trkpt lat="49.21447" lon="-1.52652">
        <ele>11.434854</ele>
        <time>2021-09-05T12:27:21.000Z</time>
      </trkpt>
      <trkpt lat="49.21427" lon="-1.52612">
        <ele>11.713321</ele>
        <time>2021-09-05T12:27:27.000Z</time>
      </trkpt>
      <trkpt lat="49.21408" lon="-1.52569">
        <ele>12.004277</ele>
        <time>2021-09-05T12:27:33.000Z</time>
      </trkpt>
      <trkpt lat="49.21401" lon="-1.52555">
        <ele>12.100333</ele>
        <time>2021-09-05T12:27:35.000Z</time>
      </trkpt>
      <trkpt lat="49.21395" lon="-1.52542">
        <ele>12.187572</ele>
        <time>2021-09-05T12:27:37.000Z</time>
      </trkpt>
      <trkpt lat="49.21392" lon="-1.52535">
        <ele>12.232115</ele>
        <time>2021-09-05T12:27:38.000Z</time>
      </trkpt>
      <trkpt lat="49.21389" lon="-1.52529">
        <ele>12.260689</ele>
        <time>2021-09-05T12:27:39.000Z</time>
      </trkpt>
      <trkpt lat="49.21383" lon="-1.52515">
        <ele>12.313961</ele>
        <time>2021-09-05T12:27:41.000Z</time>
      </trkpt>
      <trkpt lat="49.2138" lon="-1.52509">
        <ele>12.338437</ele>
        <time>2021-09-05T12:27:42.000Z</time>
      </trkpt>
      <trkpt lat="49.21377" lon="-1.52502">
        <ele>12.363447</ele>
        <time>2021-09-05T12:27:43.000Z</time>
      </trkpt>
      <trkpt lat="49.2137" lon="-1.52482">
        <ele>12.437466</ele>
        <time>2021-09-05T12:27:46.000Z</time>
      </trkpt>
      <trkpt lat="49.21351" lon="-1.5243">
        <ele>12.629127</ele>
        <time>2021-09-05T12:27:53.000Z</time>
      </trkpt>
      <trkpt lat="49.2133" lon="-1.52366">
        <ele>12.860013</ele>
        <time>2021-09-05T12:28:01.000Z</time>
      </trkpt>
      <trkpt lat="49.21313" lon="-1.52311">
        <ele>13.056388</ele>
        <time>2021-09-05T12:28:08.000Z</time>
      </trkpt>
      <trkpt lat="49.21297" lon="-1.52262">
        <ele>13.105381</ele>
        <time>2021-09-05T12:28:14.000Z</time>
      </trkpt>
      <trkpt lat="49.21285" lon="-1.52223">
        <ele>13.086499</ele>
        <time>2021-09-05T12:28:19.000Z</time>
      </trkpt>
      <trkpt lat="49.21283" lon="-1.52216">
        <ele>13.083093</ele>
        <time>2021-09-05T12:28:20.000Z</time>
      </trkpt>
      <trkpt lat="49.2128" lon="-1.52208">
        <ele>13.079539</ele>
        <time>2021-09-05T12:28:21.000Z</time>
      </trkpt>
      <trkpt lat="49.21274" lon="-1.52187">
        <ele>13.069281</ele>
        <time>2021-09-05T12:28:24.000Z</time>
      </trkpt>
      <trkpt lat="49.21267" lon="-1.52165">
        <ele>13.058433</ele>
        <time>2021-09-05T12:28:27.000Z</time>
      </trkpt>
      <trkpt lat="49.21262" lon="-1.52151">
        <ele>13.051394</ele>
        <time>2021-09-05T12:28:29.000Z</time>
      </trkpt>
      <trkpt lat="49.21245" lon="-1.52096">
        <ele>13.024813</ele>
        <time>2021-09-05T12:28:36.000Z</time>
      </trkpt>
      <trkpt lat="49.2123" lon="-1.52048">
        <ele>13.001629</ele>
        <time>2021-09-05T12:28:42.000Z</time>
      </trkpt>
      <trkpt lat="49.21213" lon="-1.51993">
        <ele>13.163217</ele>
        <time>2021-09-05T12:28:49.000Z</time>
      </trkpt>
      <trkpt lat="49.21206" lon="-1.5197">
        <ele>13.237488</ele>
        <time>2021-09-05T12:28:52.000Z</time>
      </trkpt>
      <trkpt lat="49.21201" lon="-1.51955">
        <ele>13.286701</ele>
        <time>2021-09-05T12:28:54.000Z</time>
      </trkpt>
      <trkpt lat="49.2119" lon="-1.51921">
        <ele>13.39555</ele>
        <time>2021-09-05T12:28:59.000Z</time>
      </trkpt>
      <trkpt lat="49.21187" lon="-1.5191">
        <ele>13.431358</ele>
        <time>2021-09-05T12:29:01.000Z</time>
      </trkpt>
      <trkpt lat="49.2118" lon="-1.519">
        <ele>13.47225</ele>
        <time>2021-09-05T12:29:02.000Z</time>
      </trkpt>
      <trkpt lat="49.21179" lon="-1.51886">
        <ele>13.512347</ele>
        <time>2021-09-05T12:29:05.000Z</time>
      </trkpt>
      <trkpt lat="49.21169" lon="-1.51854">
        <ele>13.61459</ele>
        <time>2021-09-05T12:29:10.000Z</time>
      </trkpt>
      <trkpt lat="49.21166" lon="-1.51841">
        <ele>13.653111</ele>
        <time>2021-09-05T12:29:12.000Z</time>
      </trkpt>
      <trkpt lat="49.21157" lon="-1.51831">
        <ele>13.702907</ele>
        <time>2021-09-05T12:29:14.000Z</time>
      </trkpt>
      <trkpt lat="49.21157" lon="-1.51802">
        <ele>13.786838</ele>
        <time>2021-09-05T12:29:18.000Z</time>
      </trkpt>
      <trkpt lat="49.21153" lon="-1.5179">
        <ele>13.815663</ele>
        <time>2021-09-05T12:29:20.000Z</time>
      </trkpt>
      <trkpt lat="49.21143" lon="-1.51773">
        <ele>13.858575</ele>
        <time>2021-09-05T12:29:23.000Z</time>
      </trkpt>
      <trkpt lat="49.21138" lon="-1.51759">
        <ele>13.887142</ele>
        <time>2021-09-05T12:29:25.000Z</time>
      </trkpt>
      <trkpt lat="49.21125" lon="-1.51717">
        <ele>13.974065</ele>
        <time>2021-09-05T12:29:31.000Z</time>
      </trkpt>
      <trkpt lat="49.21114" lon="-1.51682">
        <ele>14.04867</ele>
        <time>2021-09-05T12:29:36.000Z</time>
      </trkpt>
      <trkpt lat="49.21107" lon="-1.51661">
        <ele>14.092764</ele>
        <time>2021-09-05T12:29:39.000Z</time>
      </trkpt>
      <trkpt lat="49.21103" lon="-1.51648">
        <ele>14.118631</ele>
        <time>2021-09-05T12:29:41.000Z</time>
      </trkpt>
      <trkpt lat="49.21097" lon="-1.51628">
        <ele>14.159899</ele>
        <time>2021-09-05T12:29:44.000Z</time>
      </trkpt>
      <trkpt lat="49.21095" lon="-1.51621">
        <ele>14.174963</ele>
        <time>2021-09-05T12:29:45.000Z</time>
      </trkpt>
      <trkpt lat="49.2109" lon="-1.51607">
        <ele>14.205135</ele>
        <time>2021-09-05T12:29:47.000Z</time>
      </trkpt>
      <trkpt lat="49.21083" lon="-1.51585">
        <ele>14.251129</ele>
        <time>2021-09-05T12:29:50.000Z</time>
      </trkpt>
      <trkpt lat="49.21072" lon="-1.51549">
        <ele>14.318401</ele>
        <time>2021-09-05T12:29:55.000Z</time>
      </trkpt>
      <trkpt lat="49.21058" lon="-1.51505">
        <ele>14.366317</ele>
        <time>2021-09-05T12:30:01.000Z</time>
      </trkpt>
      <trkpt lat="49.21039" lon="-1.51444">
        <ele>14.431711</ele>
        <time>2021-09-05T12:30:09.000Z</time>
      </trkpt>
      <trkpt lat="49.21023" lon="-1.51394">
        <ele>14.486195</ele>
        <time>2021-09-05T12:30:16.000Z</time>
      </trkpt>
      <trkpt lat="49.21017" lon="-1.51373">
        <ele>14.508517</ele>
        <time>2021-09-05T12:30:19.000Z</time>
      </trkpt>
      <trkpt lat="49.2101" lon="-1.51352">
        <ele>14.530839</ele>
        <time>2021-09-05T12:30:22.000Z</time>
      </trkpt>
      <trkpt lat="49.20997" lon="-1.51311">
        <ele>14.575962</ele>
        <time>2021-09-05T12:30:28.000Z</time>
      </trkpt>
      <trkpt lat="49.20977" lon="-1.51248">
        <ele>14.852513</ele>
        <time>2021-09-05T12:30:37.000Z</time>
      </trkpt>
      <trkpt lat="49.20962" lon="-1.512">
        <ele>15.072091</ele>
        <time>2021-09-05T12:30:44.000Z</time>
      </trkpt>
      <trkpt lat="49.20947" lon="-1.51146">
        <ele>15.314059</ele>
        <time>2021-09-05T12:30:52.000Z</time>
      </trkpt>
      <trkpt lat="49.20942" lon="-1.51126">
        <ele>15.404881</ele>
        <time>2021-09-05T12:30:55.000Z</time>
      </trkpt>
      <trkpt lat="49.20938" lon="-1.51112">
        <ele>15.464598</ele>
        <time>2021-09-05T12:30:57.000Z</time>
      </trkpt>
      <trkpt lat="49.20932" lon="-1.51091">
        <ele>15.559468</ele>
        <time>2021-09-05T12:31:00.000Z</time>
      </trkpt>
      <trkpt lat="49.20927" lon="-1.51069">
        <ele>15.657327</ele>
        <time>2021-09-05T12:31:03.000Z</time>
      </trkpt>
      <trkpt lat="49.2091" lon="-1.51003">
        <ele>15.937319</ele>
        <time>2021-09-05T12:31:12.000Z</time>
      </trkpt>
      <trkpt lat="49.20897" lon="-1.50935">
        <ele>16.215391</ele>
        <time>2021-09-05T12:31:21.000Z</time>
      </trkpt>
      <trkpt lat="49.20888" lon="-1.50889">
        <ele>16.403618</ele>
        <time>2021-09-05T12:31:27.000Z</time>
      </trkpt>
      <trkpt lat="49.20887" lon="-1.50882">
        <ele>16.435265</ele>
        <time>2021-09-05T12:31:28.000Z</time>
      </trkpt>
      <trkpt lat="49.2088" lon="-1.50843">
        <ele>16.590604</ele>
        <time>2021-09-05T12:31:33.000Z</time>
      </trkpt>
      <trkpt lat="49.2087" lon="-1.50782">
        <ele>16.865351</ele>
        <time>2021-09-05T12:31:41.000Z</time>
      </trkpt>
      <trkpt lat="49.20862" lon="-1.50719">
        <ele>17.283932</ele>
        <time>2021-09-05T12:31:49.000Z</time>
      </trkpt>
      <trkpt lat="49.20853" lon="-1.50647">
        <ele>17.757996</ele>
        <time>2021-09-05T12:31:58.000Z</time>
      </trkpt>
      <trkpt lat="49.20849" lon="-1.50591">
        <ele>18.12669</ele>
        <time>2021-09-05T12:32:05.000Z</time>
      </trkpt>
      <trkpt lat="49.20844" lon="-1.50528">
        <ele>18.538945</ele>
        <time>2021-09-05T12:32:13.000Z</time>
      </trkpt>
      <trkpt lat="49.20843" lon="-1.50505">
        <ele>18.738702</ele>
        <time>2021-09-05T12:32:16.000Z</time>
      </trkpt>
      <trkpt lat="49.20842" lon="-1.5049">
        <ele>18.8833</ele>
        <time>2021-09-05T12:32:18.000Z</time>
      </trkpt>
      <trkpt lat="49.2084" lon="-1.50452">
        <ele>19.253376</ele>
        <time>2021-09-05T12:32:23.000Z</time>
      </trkpt>
      <trkpt lat="49.20839" lon="-1.50445">
        <ele>19.325058</ele>
        <time>2021-09-05T12:32:24.000Z</time>
      </trkpt>
      <trkpt lat="49.20838" lon="-1.50422">
        <ele>19.540843</ele>
        <time>2021-09-05T12:32:27.000Z</time>
      </trkpt>
      <trkpt lat="49.20837" lon="-1.50399">
        <ele>19.766362</ele>
        <time>2021-09-05T12:32:30.000Z</time>
      </trkpt>
      <trkpt lat="49.20836" lon="-1.50375">
        <ele>19.993807</ele>
        <time>2021-09-05T12:32:33.000Z</time>
      </trkpt>
      <trkpt lat="49.20836" lon="-1.50361">
        <ele>20.134168</ele>
        <time>2021-09-05T12:32:35.000Z</time>
      </trkpt>
      <trkpt lat="49.20833" lon="-1.50306">
        <ele>20.664587</ele>
        <time>2021-09-05T12:32:42.000Z</time>
      </trkpt>
      <trkpt lat="49.2083" lon="-1.50252">
        <ele>21.192012</ele>
        <time>2021-09-05T12:32:49.000Z</time>
      </trkpt>
      <trkpt lat="49.2083" lon="-1.50244">
        <ele>21.271356</ele>
        <time>2021-09-05T12:32:50.000Z</time>
      </trkpt>
      <trkpt lat="49.20829" lon="-1.50222">
        <ele>21.524895</ele>
        <time>2021-09-05T12:32:53.000Z</time>
      </trkpt>
      <trkpt lat="49.20828" lon="-1.50208">
        <ele>21.687793</ele>
        <time>2021-09-05T12:32:55.000Z</time>
      </trkpt>
      <trkpt lat="49.20828" lon="-1.50194">
        <ele>21.857633</ele>
        <time>2021-09-05T12:32:57.000Z</time>
      </trkpt>
      <trkpt lat="49.20827" lon="-1.50178">
        <ele>22.03673</ele>
        <time>2021-09-05T12:32:59.000Z</time>
      </trkpt>
      <trkpt lat="49.20826" lon="-1.50147">
        <ele>22.393768</ele>
        <time>2021-09-05T12:33:03.000Z</time>
      </trkpt>
      <trkpt lat="49.20823" lon="-1.50102">
        <ele>22.924244</ele>
        <time>2021-09-05T12:33:09.000Z</time>
      </trkpt>
      <trkpt lat="49.20823" lon="-1.50087">
        <ele>23.09987</ele>
        <time>2021-09-05T12:33:11.000Z</time>
      </trkpt>
      <trkpt lat="49.20821" lon="-1.50042">
        <ele>23.625589</ele>
        <time>2021-09-05T12:33:17.000Z</time>
      </trkpt>
      <trkpt lat="49.2082" lon="-1.50034">
        <ele>23.710449</ele>
        <time>2021-09-05T12:33:18.000Z</time>
      </trkpt>
      <trkpt lat="49.2082" lon="-1.5002">
        <ele>23.873347</ele>
        <time>2021-09-05T12:33:20.000Z</time>
      </trkpt>
      <trkpt lat="49.20819" lon="-1.5">
        <ele>24.113001</ele>
        <time>2021-09-05T12:33:23.000Z</time>
      </trkpt>
      <trkpt lat="49.20818" lon="-1.49979">
        <ele>24.352529</ele>
        <time>2021-09-05T12:33:26.000Z</time>
      </trkpt>
      <trkpt lat="49.20817" lon="-1.49965">
        <ele>24.538211</ele>
        <time>2021-09-05T12:33:28.000Z</time>
      </trkpt>
      <trkpt lat="49.20816" lon="-1.49936">
        <ele>24.989174</ele>
        <time>2021-09-05T12:33:32.000Z</time>
      </trkpt>
      <trkpt lat="49.20815" lon="-1.49921">
        <ele>25.210109</ele>
        <time>2021-09-05T12:33:34.000Z</time>
      </trkpt>
      <trkpt lat="49.20814" lon="-1.49907">
        <ele>25.427851</ele>
        <time>2021-09-05T12:33:36.000Z</time>
      </trkpt>
      <trkpt lat="49.20813" lon="-1.49878">
        <ele>25.868206</ele>
        <time>2021-09-05T12:33:40.000Z</time>
      </trkpt>
      <trkpt lat="49.20813" lon="-1.49871">
        <ele>25.974803</ele>
        <time>2021-09-05T12:33:41.000Z</time>
      </trkpt>
      <trkpt lat="49.20812" lon="-1.4985">
        <ele>26.291724</ele>
        <time>2021-09-05T12:33:44.000Z</time>
      </trkpt>
      <trkpt lat="49.20811" lon="-1.49843">
        <ele>26.401353</ele>
        <time>2021-09-05T12:33:45.000Z</time>
      </trkpt>
      <trkpt lat="49.20809" lon="-1.49794">
        <ele>27.143304</ele>
        <time>2021-09-05T12:33:52.000Z</time>
      </trkpt>
      <trkpt lat="49.20808" lon="-1.49773">
        <ele>27.467803</ele>
        <time>2021-09-05T12:33:55.000Z</time>
      </trkpt>
      <trkpt lat="49.20807" lon="-1.49744">
        <ele>27.908158</ele>
        <time>2021-09-05T12:33:59.000Z</time>
      </trkpt>
      <trkpt lat="49.20805" lon="-1.49707">
        <ele>28.47178</ele>
        <time>2021-09-05T12:34:04.000Z</time>
      </trkpt>
      <trkpt lat="49.20805" lon="-1.497">
        <ele>28.58141</ele>
        <time>2021-09-05T12:34:05.000Z</time>
      </trkpt>
      <trkpt lat="49.20803" lon="-1.4967">
        <ele>29.017827</ele>
        <time>2021-09-05T12:34:09.000Z</time>
      </trkpt>
      <trkpt lat="49.20802" lon="-1.49656">
        <ele>29.228813</ele>
        <time>2021-09-05T12:34:11.000Z</time>
      </trkpt>
      <trkpt lat="49.20802" lon="-1.49649">
        <ele>29.334962</ele>
        <time>2021-09-05T12:34:12.000Z</time>
      </trkpt>
      <trkpt lat="49.20801" lon="-1.49633">
        <ele>29.560622</ele>
        <time>2021-09-05T12:34:14.000Z</time>
      </trkpt>
      <trkpt lat="49.20801" lon="-1.49626">
        <ele>29.666938</ele>
        <time>2021-09-05T12:34:15.000Z</time>
      </trkpt>
      <trkpt lat="49.20801" lon="-1.49619">
        <ele>29.774555</ele>
        <time>2021-09-05T12:34:16.000Z</time>
      </trkpt>
      <trkpt lat="49.208" lon="-1.49595">
        <ele>30.1256</ele>
        <time>2021-09-05T12:34:19.000Z</time>
      </trkpt>
      <trkpt lat="49.20799" lon="-1.49588">
        <ele>30.237781</ele>
        <time>2021-09-05T12:34:20.000Z</time>
      </trkpt>
      <trkpt lat="49.20797" lon="-1.49549">
        <ele>30.813019</ele>
        <time>2021-09-05T12:34:25.000Z</time>
      </trkpt>
      <trkpt lat="49.20796" lon="-1.49526">
        <ele>31.140587</ele>
        <time>2021-09-05T12:34:28.000Z</time>
      </trkpt>
      <trkpt lat="49.20796" lon="-1.49511">
        <ele>31.366247</ele>
        <time>2021-09-05T12:34:30.000Z</time>
      </trkpt>
      <trkpt lat="49.20794" lon="-1.49467">
        <ele>32.022683</ele>
        <time>2021-09-05T12:34:35.000Z</time>
      </trkpt>
      <trkpt lat="49.20792" lon="-1.4944">
        <ele>32.418437</ele>
        <time>2021-09-05T12:34:38.000Z</time>
      </trkpt>
      <trkpt lat="49.20792" lon="-1.49431">
        <ele>32.5484</ele>
        <time>2021-09-05T12:34:39.000Z</time>
      </trkpt>
      <trkpt lat="49.20791" lon="-1.49414">
        <ele>32.688804</ele>
        <time>2021-09-05T12:34:41.000Z</time>
      </trkpt>
      <trkpt lat="49.20789" lon="-1.49385">
        <ele>32.744478</ele>
        <time>2021-09-05T12:34:44.000Z</time>
      </trkpt>
      <trkpt lat="49.20786" lon="-1.49327">
        <ele>32.859756</ele>
        <time>2021-09-05T12:34:50.000Z</time>
      </trkpt>
      <trkpt lat="49.20782" lon="-1.4927">
        <ele>32.970909</ele>
        <time>2021-09-05T12:34:56.000Z</time>
      </trkpt>
      <trkpt lat="49.20782" lon="-1.49261">
        <ele>32.988221</ele>
        <time>2021-09-05T12:34:57.000Z</time>
      </trkpt>
      <trkpt lat="49.20781" lon="-1.49253">
        <ele>33.004558</ele>
        <time>2021-09-05T12:34:58.000Z</time>
      </trkpt>
      <trkpt lat="49.20781" lon="-1.49237">
        <ele>33.035838</ele>
        <time>2021-09-05T12:35:00.000Z</time>
      </trkpt>
      <trkpt lat="49.2078" lon="-1.49228">
        <ele>33.054909</ele>
        <time>2021-09-05T12:35:01.000Z</time>
      </trkpt>
      <trkpt lat="49.20778" lon="-1.49198">
        <ele>33.112171</ele>
        <time>2021-09-05T12:35:04.000Z</time>
      </trkpt>
      <trkpt lat="49.20777" lon="-1.49179">
        <ele>33.150532</ele>
        <time>2021-09-05T12:35:06.000Z</time>
      </trkpt>
      <trkpt lat="49.20774" lon="-1.49122">
        <ele>33.093358</ele>
        <time>2021-09-05T12:35:12.000Z</time>
      </trkpt>
      <trkpt lat="49.20773" lon="-1.49113">
        <ele>33.05434</ele>
        <time>2021-09-05T12:35:13.000Z</time>
      </trkpt>
      <trkpt lat="49.20772" lon="-1.49085">
        <ele>32.932694</ele>
        <time>2021-09-05T12:35:16.000Z</time>
      </trkpt>
      <trkpt lat="49.2077" lon="-1.49049">
        <ele>32.774208</ele>
        <time>2021-09-05T12:35:20.000Z</time>
      </trkpt>
      <trkpt lat="49.20767" lon="-1.48993">
        <ele>32.531728</ele>
        <time>2021-09-05T12:35:26.000Z</time>
      </trkpt>
      <trkpt lat="49.20766" lon="-1.48984">
        <ele>32.493207</ele>
        <time>2021-09-05T12:35:27.000Z</time>
      </trkpt>
      <trkpt lat="49.20766" lon="-1.48975">
        <ele>32.452888</ele>
        <time>2021-09-05T12:35:28.000Z</time>
      </trkpt>
      <trkpt lat="49.20764" lon="-1.48947">
        <ele>32.329937</ele>
        <time>2021-09-05T12:35:31.000Z</time>
      </trkpt>
      <trkpt lat="49.20764" lon="-1.48938">
        <ele>32.291416</ele>
        <time>2021-09-05T12:35:32.000Z</time>
      </trkpt>
      <trkpt lat="49.20762" lon="-1.48906">
        <ele>32.151292</ele>
        <time>2021-09-05T12:35:36.000Z</time>
      </trkpt>
      <trkpt lat="49.20761" lon="-1.48893">
        <ele>32.093973</ele>
        <time>2021-09-05T12:35:38.000Z</time>
      </trkpt>
      <trkpt lat="49.2076" lon="-1.48869">
        <ele>31.990068</ele>
        <time>2021-09-05T12:35:42.000Z</time>
      </trkpt>
      <trkpt lat="49.20755" lon="-1.48831">
        <ele>31.843217</ele>
        <time>2021-09-05T12:35:48.000Z</time>
      </trkpt>
      <trkpt lat="49.20754" lon="-1.48817">
        <ele>31.789633</ele>
        <time>2021-09-05T12:35:50.000Z</time>
      </trkpt>
      <trkpt lat="49.20752" lon="-1.48805">
        <ele>31.741877</ele>
        <time>2021-09-05T12:35:52.000Z</time>
      </trkpt>
      <trkpt lat="49.20748" lon="-1.48774">
        <ele>31.62402</ele>
        <time>2021-09-05T12:35:56.000Z</time>
      </trkpt>
      <trkpt lat="49.20747" lon="-1.48766">
        <ele>31.591025</ele>
        <time>2021-09-05T12:35:57.000Z</time>
      </trkpt>
      <trkpt lat="49.20739" lon="-1.48714">
        <ele>31.386223</ele>
        <time>2021-09-05T12:36:03.000Z</time>
      </trkpt>
      <trkpt lat="49.20733" lon="-1.48678">
        <ele>31.247023</ele>
        <time>2021-09-05T12:36:08.000Z</time>
      </trkpt>
      <trkpt lat="49.20722" lon="-1.48626">
        <ele>31.039791</ele>
        <time>2021-09-05T12:36:13.000Z</time>
      </trkpt>
      <trkpt lat="49.2072" lon="-1.48617">
        <ele>31.003759</ele>
        <time>2021-09-05T12:36:14.000Z</time>
      </trkpt>
      <trkpt lat="49.20716" lon="-1.486">
        <ele>30.922104</ele>
        <time>2021-09-05T12:36:16.000Z</time>
      </trkpt>
      <trkpt lat="49.20714" lon="-1.48591">
        <ele>30.872036</ele>
        <time>2021-09-05T12:36:17.000Z</time>
      </trkpt>
      <trkpt lat="49.20702" lon="-1.48539">
        <ele>30.567326</ele>
        <time>2021-09-05T12:36:23.000Z</time>
      </trkpt>
      <trkpt lat="49.20697" lon="-1.48522">
        <ele>30.465573</ele>
        <time>2021-09-05T12:36:25.000Z</time>
      </trkpt>
      <trkpt lat="49.20692" lon="-1.48503">
        <ele>30.353597</ele>
        <time>2021-09-05T12:36:27.000Z</time>
      </trkpt>
      <trkpt lat="49.20687" lon="-1.48485">
        <ele>30.246136</ele>
        <time>2021-09-05T12:36:29.000Z</time>
      </trkpt>
      <trkpt lat="49.20682" lon="-1.48466">
        <ele>30.130979</ele>
        <time>2021-09-05T12:36:31.000Z</time>
      </trkpt>
      <trkpt lat="49.20667" lon="-1.4842">
        <ele>29.851464</ele>
        <time>2021-09-05T12:36:36.000Z</time>
      </trkpt>
      <trkpt lat="49.20664" lon="-1.48412">
        <ele>29.796703</ele>
        <time>2021-09-05T12:36:37.000Z</time>
      </trkpt>
      <trkpt lat="49.20654" lon="-1.48384">
        <ele>29.622639</ele>
        <time>2021-09-05T12:36:40.000Z</time>
      </trkpt>
      <trkpt lat="49.2065" lon="-1.48374">
        <ele>29.564187</ele>
        <time>2021-09-05T12:36:41.000Z</time>
      </trkpt>
      <trkpt lat="49.20627" lon="-1.48312">
        <ele>28.860856</ele>
        <time>2021-09-05T12:36:48.000Z</time>
      </trkpt>
      <trkpt lat="49.20608" lon="-1.48259">
        <ele>28.164864</ele>
        <time>2021-09-05T12:36:54.000Z</time>
      </trkpt>
      <trkpt lat="49.20589" lon="-1.48209">
        <ele>27.499846</ele>
        <time>2021-09-05T12:37:00.000Z</time>
      </trkpt>
      <trkpt lat="49.20583" lon="-1.48193">
        <ele>27.284626</ele>
        <time>2021-09-05T12:37:02.000Z</time>
      </trkpt>
      <trkpt lat="49.20567" lon="-1.4815">
        <ele>26.718035</ele>
        <time>2021-09-05T12:37:07.000Z</time>
      </trkpt>
      <trkpt lat="49.20539" lon="-1.48076">
        <ele>25.789151</ele>
        <time>2021-09-05T12:37:15.000Z</time>
      </trkpt>
      <trkpt lat="49.20532" lon="-1.48057">
        <ele>25.566206</ele>
        <time>2021-09-05T12:37:17.000Z</time>
      </trkpt>
      <trkpt lat="49.20522" lon="-1.4803">
        <ele>25.241778</ele>
        <time>2021-09-05T12:37:20.000Z</time>
      </trkpt>
      <trkpt lat="49.20501" lon="-1.47974">
        <ele>24.571255</ele>
        <time>2021-09-05T12:37:26.000Z</time>
      </trkpt>
      <trkpt lat="49.20477" lon="-1.47909">
        <ele>23.797451</ele>
        <time>2021-09-05T12:37:33.000Z</time>
      </trkpt>
      <trkpt lat="49.20453" lon="-1.47846">
        <ele>23.099343</ele>
        <time>2021-09-05T12:37:40.000Z</time>
      </trkpt>
      <trkpt lat="49.20434" lon="-1.47795">
        <ele>22.577306</ele>
        <time>2021-09-05T12:37:46.000Z</time>
      </trkpt>
      <trkpt lat="49.20418" lon="-1.47752">
        <ele>22.135424</ele>
        <time>2021-09-05T12:37:51.000Z</time>
      </trkpt>
      <trkpt lat="49.20408" lon="-1.47727">
        <ele>21.871012</ele>
        <time>2021-09-05T12:37:54.000Z</time>
      </trkpt>
      <trkpt lat="49.20402" lon="-1.4771">
        <ele>21.696543</ele>
        <time>2021-09-05T12:37:56.000Z</time>
      </trkpt>
      <trkpt lat="49.20383" lon="-1.47659">
        <ele>21.172952</ele>
        <time>2021-09-05T12:38:02.000Z</time>
      </trkpt>
      <trkpt lat="49.2038" lon="-1.4765">
        <ele>21.084556</ele>
        <time>2021-09-05T12:38:03.000Z</time>
      </trkpt>
      <trkpt lat="49.20376" lon="-1.47641">
        <ele>20.991008</ele>
        <time>2021-09-05T12:38:04.000Z</time>
      </trkpt>
      <trkpt lat="49.2037" lon="-1.47624">
        <ele>20.707129</ele>
        <time>2021-09-05T12:38:06.000Z</time>
      </trkpt>
      <trkpt lat="49.20355" lon="-1.47585">
        <ele>20.051388</ele>
        <time>2021-09-05T12:38:11.000Z</time>
      </trkpt>
      <trkpt lat="49.20336" lon="-1.47535">
        <ele>19.211402</ele>
        <time>2021-09-05T12:38:17.000Z</time>
      </trkpt>
      <trkpt lat="49.20315" lon="-1.47477">
        <ele>18.244375</ele>
        <time>2021-09-05T12:38:24.000Z</time>
      </trkpt>
      <trkpt lat="49.20306" lon="-1.47453">
        <ele>17.837651</ele>
        <time>2021-09-05T12:38:27.000Z</time>
      </trkpt>
      <trkpt lat="49.20301" lon="-1.47441">
        <ele>17.631288</ele>
        <time>2021-09-05T12:38:29.000Z</time>
      </trkpt>
      <trkpt lat="49.20299" lon="-1.47435">
        <ele>17.540905</ele>
        <time>2021-09-05T12:38:30.000Z</time>
      </trkpt>
      <trkpt lat="49.20294" lon="-1.47421">
        <ele>17.296617</ele>
        <time>2021-09-05T12:38:32.000Z</time>
      </trkpt>
      <trkpt lat="49.20279" lon="-1.47381">
        <ele>16.392305</ele>
        <time>2021-09-05T12:38:37.000Z</time>
      </trkpt>
      <trkpt lat="49.20273" lon="-1.47365">
        <ele>15.924357</ele>
        <time>2021-09-05T12:38:39.000Z</time>
      </trkpt>
      <trkpt lat="49.20267" lon="-1.47349">
        <ele>15.458311</ele>
        <time>2021-09-05T12:38:41.000Z</time>
      </trkpt>
      <trkpt lat="49.20264" lon="-1.47341">
        <ele>15.231733</ele>
        <time>2021-09-05T12:38:42.000Z</time>
      </trkpt>
      <trkpt lat="49.20252" lon="-1.4731">
        <ele>14.316928</ele>
        <time>2021-09-05T12:38:46.000Z</time>
      </trkpt>
      <trkpt lat="49.20249" lon="-1.47302">
        <ele>14.086235</ele>
        <time>2021-09-05T12:38:47.000Z</time>
      </trkpt>
      <trkpt lat="49.20244" lon="-1.47287">
        <ele>13.65197</ele>
        <time>2021-09-05T12:38:49.000Z</time>
      </trkpt>
      <trkpt lat="49.20239" lon="-1.47273">
        <ele>13.249771</ele>
        <time>2021-09-05T12:38:51.000Z</time>
      </trkpt>
      <trkpt lat="49.20225" lon="-1.47236">
        <ele>12.186741</ele>
        <time>2021-09-05T12:38:56.000Z</time>
      </trkpt>
      <trkpt lat="49.20215" lon="-1.47208">
        <ele>11.362885</ele>
        <time>2021-09-05T12:39:00.000Z</time>
      </trkpt>
      <trkpt lat="49.20212" lon="-1.47201">
        <ele>11.151099</ele>
        <time>2021-09-05T12:39:01.000Z</time>
      </trkpt>
      <trkpt lat="49.202" lon="-1.4717">
        <ele>10.253274</ele>
        <time>2021-09-05T12:39:06.000Z</time>
      </trkpt>
      <trkpt lat="49.20196" lon="-1.47157">
        <ele>9.948763</ele>
        <time>2021-09-05T12:39:08.000Z</time>
      </trkpt>
      <trkpt lat="49.2019" lon="-1.47142">
        <ele>9.691568</ele>
        <time>2021-09-05T12:39:10.000Z</time>
      </trkpt>
      <trkpt lat="49.20187" lon="-1.47134">
        <ele>9.567148</ele>
        <time>2021-09-05T12:39:11.000Z</time>
      </trkpt>
      <trkpt lat="49.20181" lon="-1.47118">
        <ele>9.308871</ele>
        <time>2021-09-05T12:39:13.000Z</time>
      </trkpt>
      <trkpt lat="49.20178" lon="-1.47109">
        <ele>9.160455</ele>
        <time>2021-09-05T12:39:14.000Z</time>
      </trkpt>
      <trkpt lat="49.20168" lon="-1.47081">
        <ele>8.69636</ele>
        <time>2021-09-05T12:39:17.000Z</time>
      </trkpt>
      <trkpt lat="49.20157" lon="-1.47052">
        <ele>8.221589</ele>
        <time>2021-09-05T12:39:20.000Z</time>
      </trkpt>
      <trkpt lat="49.20133" lon="-1.46989">
        <ele>7.18337</ele>
        <time>2021-09-05T12:39:27.000Z</time>
      </trkpt>
      <trkpt lat="49.20114" lon="-1.46936">
        <ele>6.322182</ele>
        <time>2021-09-05T12:39:34.000Z</time>
      </trkpt>
      <trkpt lat="49.20108" lon="-1.46922">
        <ele>6.09317</ele>
        <time>2021-09-05T12:39:36.000Z</time>
      </trkpt>
      <trkpt lat="49.20102" lon="-1.46905">
        <ele>6.115585</ele>
        <time>2021-09-05T12:39:38.000Z</time>
      </trkpt>
      <trkpt lat="49.201" lon="-1.46898">
        <ele>6.124534</ele>
        <time>2021-09-05T12:39:39.000Z</time>
      </trkpt>
      <trkpt lat="49.2009" lon="-1.46872">
        <ele>6.158873</ele>
        <time>2021-09-05T12:39:44.000Z</time>
      </trkpt>
      <trkpt lat="49.20088" lon="-1.46866">
        <ele>6.166557</ele>
        <time>2021-09-05T12:39:45.000Z</time>
      </trkpt>
      <trkpt lat="49.20083" lon="-1.46854">
        <ele>6.18289</ele>
        <time>2021-09-05T12:39:47.000Z</time>
      </trkpt>
      <trkpt lat="49.2008" lon="-1.46848">
        <ele>6.19077</ele>
        <time>2021-09-05T12:39:48.000Z</time>
      </trkpt>
      <trkpt lat="49.20078" lon="-1.46842">
        <ele>6.198937</ele>
        <time>2021-09-05T12:39:49.000Z</time>
      </trkpt>
      <trkpt lat="49.20071" lon="-1.46824">
        <ele>6.223347</ele>
        <time>2021-09-05T12:39:52.000Z</time>
      </trkpt>
      <trkpt lat="49.20066" lon="-1.46811">
        <ele>6.240164</ele>
        <time>2021-09-05T12:39:54.000Z</time>
      </trkpt>
      <trkpt lat="49.20059" lon="-1.46793">
        <ele>6.264468</ele>
        <time>2021-09-05T12:39:57.000Z</time>
      </trkpt>
      <trkpt lat="49.20054" lon="-1.46781">
        <ele>6.2809</ele>
        <time>2021-09-05T12:39:59.000Z</time>
      </trkpt>
      <trkpt lat="49.20047" lon="-1.46762">
        <ele>6.30627</ele>
        <time>2021-09-05T12:40:02.000Z</time>
      </trkpt>
      <trkpt lat="49.20034" lon="-1.46731">
        <ele>6.347948</ele>
        <time>2021-09-05T12:40:07.000Z</time>
      </trkpt>
      <trkpt lat="49.20029" lon="-1.4672">
        <ele>6.36283</ele>
        <time>2021-09-05T12:40:09.000Z</time>
      </trkpt>
      <trkpt lat="49.2002" lon="-1.46698">
        <ele>6.392979</ele>
        <time>2021-09-05T12:40:13.000Z</time>
      </trkpt>
      <trkpt lat="49.20005" lon="-1.46668">
        <ele>6.330679</ele>
        <time>2021-09-05T12:40:19.000Z</time>
      </trkpt>
      <trkpt lat="49.19989" lon="-1.46639">
        <ele>6.216826</ele>
        <time>2021-09-05T12:40:24.000Z</time>
      </trkpt>
      <trkpt lat="49.19973" lon="-1.46609">
        <ele>6.09617</ele>
        <time>2021-09-05T12:40:29.000Z</time>
      </trkpt>
      <trkpt lat="49.19954" lon="-1.46572">
        <ele>5.950434</ele>
        <time>2021-09-05T12:40:35.000Z</time>
      </trkpt>
      <trkpt lat="49.19942" lon="-1.46549">
        <ele>5.858851</ele>
        <time>2021-09-05T12:40:39.000Z</time>
      </trkpt>
      <trkpt lat="49.19921" lon="-1.46514">
        <ele>5.714468</ele>
        <time>2021-09-05T12:40:44.000Z</time>
      </trkpt>
      <trkpt lat="49.199" lon="-1.46477">
        <ele>5.563262</ele>
        <time>2021-09-05T12:40:49.000Z</time>
      </trkpt>
      <trkpt lat="49.19889" lon="-1.46459">
        <ele>5.865885</ele>
        <time>2021-09-05T12:40:52.000Z</time>
      </trkpt>
      <trkpt lat="49.19883" lon="-1.46448">
        <ele>6.067576</ele>
        <time>2021-09-05T12:40:54.000Z</time>
      </trkpt>
      <trkpt lat="49.1987" lon="-1.46425">
        <ele>6.461051</ele>
        <time>2021-09-05T12:40:58.000Z</time>
      </trkpt>
      <trkpt lat="49.19848" lon="-1.46389">
        <ele>7.110403</ele>
        <time>2021-09-05T12:41:04.000Z</time>
      </trkpt>
      <trkpt lat="49.19837" lon="-1.46369">
        <ele>7.450307</ele>
        <time>2021-09-05T12:41:08.000Z</time>
      </trkpt>
      <trkpt lat="49.19827" lon="-1.46352">
        <ele>7.752172</ele>
        <time>2021-09-05T12:41:12.000Z</time>
      </trkpt>
      <trkpt lat="49.19821" lon="-1.46343">
        <ele>7.923776</ele>
        <time>2021-09-05T12:41:14.000Z</time>
      </trkpt>
      <trkpt lat="49.1981" lon="-1.46324">
        <ele>8.254751</ele>
        <time>2021-09-05T12:41:17.000Z</time>
      </trkpt>
      <trkpt lat="49.19803" lon="-1.46311">
        <ele>8.476263</ele>
        <time>2021-09-05T12:41:19.000Z</time>
      </trkpt>
      <trkpt lat="49.19792" lon="-1.46293">
        <ele>8.797334</ele>
        <time>2021-09-05T12:41:22.000Z</time>
      </trkpt>
      <trkpt lat="49.19773" lon="-1.4626">
        <ele>9.464043</ele>
        <time>2021-09-05T12:41:27.000Z</time>
      </trkpt>
      <trkpt lat="49.19758" lon="-1.46235">
        <ele>10.104981</ele>
        <time>2021-09-05T12:41:31.000Z</time>
      </trkpt>
      <trkpt lat="49.19751" lon="-1.46223">
        <ele>10.419299</ele>
        <time>2021-09-05T12:41:33.000Z</time>
      </trkpt>
      <trkpt lat="49.19744" lon="-1.4621">
        <ele>10.73309</ele>
        <time>2021-09-05T12:41:35.000Z</time>
      </trkpt>
      <trkpt lat="49.19736" lon="-1.46197">
        <ele>11.067809</ele>
        <time>2021-09-05T12:41:37.000Z</time>
      </trkpt>
      <trkpt lat="49.19728" lon="-1.46185">
        <ele>11.388279</ele>
        <time>2021-09-05T12:41:39.000Z</time>
      </trkpt>
      <trkpt lat="49.19716" lon="-1.46164">
        <ele>11.920345</ele>
        <time>2021-09-05T12:41:42.000Z</time>
      </trkpt>
      <trkpt lat="49.19712" lon="-1.46157">
        <ele>12.094831</ele>
        <time>2021-09-05T12:41:43.000Z</time>
      </trkpt>
      <trkpt lat="49.19704" lon="-1.46143">
        <ele>12.437641</ele>
        <time>2021-09-05T12:41:45.000Z</time>
      </trkpt>
      <trkpt lat="49.19701" lon="-1.46138">
        <ele>12.586985</ele>
        <time>2021-09-05T12:41:46.000Z</time>
      </trkpt>
      <trkpt lat="49.19698" lon="-1.46132">
        <ele>12.718204</ele>
        <time>2021-09-05T12:41:47.000Z</time>
      </trkpt>
      <trkpt lat="49.19691" lon="-1.46121">
        <ele>13.004905</ele>
        <time>2021-09-05T12:41:49.000Z</time>
      </trkpt>
      <trkpt lat="49.19677" lon="-1.46096">
        <ele>13.637759</ele>
        <time>2021-09-05T12:41:54.000Z</time>
      </trkpt>
      <trkpt lat="49.19665" lon="-1.46077">
        <ele>14.123216</ele>
        <time>2021-09-05T12:41:58.000Z</time>
      </trkpt>
      <trkpt lat="49.19658" lon="-1.46064">
        <ele>14.455347</ele>
        <time>2021-09-05T12:42:01.000Z</time>
      </trkpt>
      <trkpt lat="49.19652" lon="-1.46054">
        <ele>14.77701</ele>
        <time>2021-09-05T12:42:03.000Z</time>
      </trkpt>
      <trkpt lat="49.19631" lon="-1.46018">
        <ele>15.91653</ele>
        <time>2021-09-05T12:42:09.000Z</time>
      </trkpt>
      <trkpt lat="49.19612" lon="-1.45986">
        <ele>16.948031</ele>
        <time>2021-09-05T12:42:14.000Z</time>
      </trkpt>
      <trkpt lat="49.19605" lon="-1.45974">
        <ele>17.316014</ele>
        <time>2021-09-05T12:42:16.000Z</time>
      </trkpt>
      <trkpt lat="49.19592" lon="-1.45952">
        <ele>18.01752</ele>
        <time>2021-09-05T12:42:20.000Z</time>
      </trkpt>
      <trkpt lat="49.19576" lon="-1.45923">
        <ele>18.919045</ele>
        <time>2021-09-05T12:42:25.000Z</time>
      </trkpt>
      <trkpt lat="49.19573" lon="-1.45918">
        <ele>19.081081</ele>
        <time>2021-09-05T12:42:26.000Z</time>
      </trkpt>
      <trkpt lat="49.19559" lon="-1.45894">
        <ele>19.856796</ele>
        <time>2021-09-05T12:42:31.000Z</time>
      </trkpt>
      <trkpt lat="49.19545" lon="-1.4587">
        <ele>20.598056</ele>
        <time>2021-09-05T12:42:35.000Z</time>
      </trkpt>
      <trkpt lat="49.19538" lon="-1.45859">
        <ele>20.954527</ele>
        <time>2021-09-05T12:42:37.000Z</time>
      </trkpt>
      <trkpt lat="49.19535" lon="-1.45853">
        <ele>21.135501</ele>
        <time>2021-09-05T12:42:38.000Z</time>
      </trkpt>
      <trkpt lat="49.19531" lon="-1.45847">
        <ele>21.309374</ele>
        <time>2021-09-05T12:42:39.000Z</time>
      </trkpt>
      <trkpt lat="49.19521" lon="-1.45829">
        <ele>21.813349</ele>
        <time>2021-09-05T12:42:42.000Z</time>
      </trkpt>
      <trkpt lat="49.19518" lon="-1.45824">
        <ele>21.987222</ele>
        <time>2021-09-05T12:42:43.000Z</time>
      </trkpt>
      <trkpt lat="49.19509" lon="-1.45808">
        <ele>22.433779</ele>
        <time>2021-09-05T12:42:46.000Z</time>
      </trkpt>
      <trkpt lat="49.19506" lon="-1.45802">
        <ele>22.582491</ele>
        <time>2021-09-05T12:42:47.000Z</time>
      </trkpt>
      <trkpt lat="49.19503" lon="-1.45797">
        <ele>22.733325</ele>
        <time>2021-09-05T12:42:48.000Z</time>
      </trkpt>
      <trkpt lat="49.19494" lon="-1.45779">
        <ele>23.245786</ele>
        <time>2021-09-05T12:42:51.000Z</time>
      </trkpt>
      <trkpt lat="49.1949" lon="-1.45773">
        <ele>23.418582</ele>
        <time>2021-09-05T12:42:52.000Z</time>
      </trkpt>
      <trkpt lat="49.19484" lon="-1.45761">
        <ele>23.758254</ele>
        <time>2021-09-05T12:42:54.000Z</time>
      </trkpt>
      <trkpt lat="49.19481" lon="-1.45755">
        <ele>23.910768</ele>
        <time>2021-09-05T12:42:55.000Z</time>
      </trkpt>
      <trkpt lat="49.19461" lon="-1.45711">
        <ele>25.086031</ele>
        <time>2021-09-05T12:43:02.000Z</time>
      </trkpt>
      <trkpt lat="49.19456" lon="-1.45699">
        <ele>25.398398</ele>
        <time>2021-09-05T12:43:04.000Z</time>
      </trkpt>
      <trkpt lat="49.1945" lon="-1.45687">
        <ele>25.738188</ele>
        <time>2021-09-05T12:43:06.000Z</time>
      </trkpt>
      <trkpt lat="49.1943" lon="-1.45639">
        <ele>26.914884</ele>
        <time>2021-09-05T12:43:13.000Z</time>
      </trkpt>
      <trkpt lat="49.19422" lon="-1.45618">
        <ele>27.058583</ele>
        <time>2021-09-05T12:43:16.000Z</time>
      </trkpt>
      <trkpt lat="49.19416" lon="-1.45605">
        <ele>27.150898</ele>
        <time>2021-09-05T12:43:18.000Z</time>
      </trkpt>
      <trkpt lat="49.19414" lon="-1.45599">
        <ele>27.192863</ele>
        <time>2021-09-05T12:43:19.000Z</time>
      </trkpt>
      <trkpt lat="49.19412" lon="-1.45593">
        <ele>27.233859</ele>
        <time>2021-09-05T12:43:20.000Z</time>
      </trkpt>
      <trkpt lat="49.19402" lon="-1.45566">
        <ele>27.416335</ele>
        <time>2021-09-05T12:43:24.000Z</time>
      </trkpt>
      <trkpt lat="49.19389" lon="-1.4553">
        <ele>27.663365</ele>
        <time>2021-09-05T12:43:30.000Z</time>
      </trkpt>
      <trkpt lat="49.19387" lon="-1.45523">
        <ele>27.709804</ele>
        <time>2021-09-05T12:43:31.000Z</time>
      </trkpt>
      <trkpt lat="49.19377" lon="-1.45486">
        <ele>27.94744</ele>
        <time>2021-09-05T12:43:36.000Z</time>
      </trkpt>
      <trkpt lat="49.19364" lon="-1.45441">
        <ele>28.2428</ele>
        <time>2021-09-05T12:43:42.000Z</time>
      </trkpt>
      <trkpt lat="49.19348" lon="-1.45382">
        <ele>28.490994</ele>
        <time>2021-09-05T12:43:50.000Z</time>
      </trkpt>
      <trkpt lat="49.19343" lon="-1.45352">
        <ele>28.402951</ele>
        <time>2021-09-05T12:43:54.000Z</time>
      </trkpt>
      <trkpt lat="49.19338" lon="-1.45329">
        <ele>28.333166</ele>
        <time>2021-09-05T12:43:57.000Z</time>
      </trkpt>
      <trkpt lat="49.1933" lon="-1.45282">
        <ele>28.195628</ele>
        <time>2021-09-05T12:44:03.000Z</time>
      </trkpt>
      <trkpt lat="49.19323" lon="-1.45243">
        <ele>28.081901</ele>
        <time>2021-09-05T12:44:08.000Z</time>
      </trkpt>
      <trkpt lat="49.19322" lon="-1.45236">
        <ele>28.059575</ele>
        <time>2021-09-05T12:44:09.000Z</time>
      </trkpt>
      <trkpt lat="49.19315" lon="-1.45199">
        <ele>27.950577</ele>
        <time>2021-09-05T12:44:14.000Z</time>
      </trkpt>
      <trkpt lat="49.19314" lon="-1.45192">
        <ele>27.930286</ele>
        <time>2021-09-05T12:44:15.000Z</time>
      </trkpt>
      <trkpt lat="49.19312" lon="-1.45178">
        <ele>27.88904</ele>
        <time>2021-09-05T12:44:17.000Z</time>
      </trkpt>
      <trkpt lat="49.19308" lon="-1.45157">
        <ele>27.828052</ele>
        <time>2021-09-05T12:44:20.000Z</time>
      </trkpt>
      <trkpt lat="49.19305" lon="-1.45142">
        <ele>27.783562</ele>
        <time>2021-09-05T12:44:22.000Z</time>
      </trkpt>
      <trkpt lat="49.19301" lon="-1.45119">
        <ele>27.725576</ele>
        <time>2021-09-05T12:44:25.000Z</time>
      </trkpt>
      <trkpt lat="49.193" lon="-1.45111">
        <ele>27.708243</ele>
        <time>2021-09-05T12:44:26.000Z</time>
      </trkpt>
      <trkpt lat="49.19298" lon="-1.45103">
        <ele>27.689918</ele>
        <time>2021-09-05T12:44:27.000Z</time>
      </trkpt>
      <trkpt lat="49.19292" lon="-1.4507">
        <ele>27.62016</ele>
        <time>2021-09-05T12:44:31.000Z</time>
      </trkpt>
      <trkpt lat="49.19291" lon="-1.45062">
        <ele>27.603308</ele>
        <time>2021-09-05T12:44:32.000Z</time>
      </trkpt>
      <trkpt lat="49.19287" lon="-1.45038">
        <ele>27.551874</ele>
        <time>2021-09-05T12:44:35.000Z</time>
      </trkpt>
      <trkpt lat="49.19285" lon="-1.4503">
        <ele>27.535023</ele>
        <time>2021-09-05T12:44:36.000Z</time>
      </trkpt>
      <trkpt lat="49.19279" lon="-1.44995">
        <ele>27.459884</ele>
        <time>2021-09-05T12:44:41.000Z</time>
      </trkpt>
      <trkpt lat="49.19273" lon="-1.44958">
        <ele>27.381203</ele>
        <time>2021-09-05T12:44:46.000Z</time>
      </trkpt>
      <trkpt lat="49.19267" lon="-1.44924">
        <ele>27.309888</ele>
        <time>2021-09-05T12:44:50.000Z</time>
      </trkpt>
      <trkpt lat="49.19264" lon="-1.44909">
        <ele>27.276184</ele>
        <time>2021-09-05T12:44:52.000Z</time>
      </trkpt>
      <trkpt lat="49.1926" lon="-1.44886">
        <ele>27.228855</ele>
        <time>2021-09-05T12:44:56.000Z</time>
      </trkpt>
      <trkpt lat="49.19256" lon="-1.44863">
        <ele>27.193527</ele>
        <time>2021-09-05T12:45:00.000Z</time>
      </trkpt>
      <trkpt lat="49.19255" lon="-1.44856">
        <ele>27.219528</ele>
        <time>2021-09-05T12:45:01.000Z</time>
      </trkpt>
      <trkpt lat="49.19253" lon="-1.44849">
        <ele>27.246378</ele>
        <time>2021-09-05T12:45:02.000Z</time>
      </trkpt>
      <trkpt lat="49.1925" lon="-1.44827">
        <ele>27.326495</ele>
        <time>2021-09-05T12:45:05.000Z</time>
      </trkpt>
      <trkpt lat="49.19248" lon="-1.4482">
        <ele>27.352994</ele>
        <time>2021-09-05T12:45:06.000Z</time>
      </trkpt>
      <trkpt lat="49.19241" lon="-1.44776">
        <ele>27.519075</ele>
        <time>2021-09-05T12:45:12.000Z</time>
      </trkpt>
      <trkpt lat="49.19234" lon="-1.44735">
        <ele>27.675433</ele>
        <time>2021-09-05T12:45:17.000Z</time>
      </trkpt>
      <trkpt lat="49.19231" lon="-1.4472">
        <ele>27.730746</ele>
        <time>2021-09-05T12:45:19.000Z</time>
      </trkpt>
      <trkpt lat="49.1923" lon="-1.44712">
        <ele>27.759354</ele>
        <time>2021-09-05T12:45:20.000Z</time>
      </trkpt>
      <trkpt lat="49.19225" lon="-1.44688">
        <ele>27.851733</ele>
        <time>2021-09-05T12:45:23.000Z</time>
      </trkpt>
      <trkpt lat="49.19224" lon="-1.4468">
        <ele>27.882595</ele>
        <time>2021-09-05T12:45:24.000Z</time>
      </trkpt>
      <trkpt lat="49.19223" lon="-1.44671">
        <ele>27.915009</ele>
        <time>2021-09-05T12:45:25.000Z</time>
      </trkpt>
      <trkpt lat="49.19218" lon="-1.44642">
        <ele>28.022676</ele>
        <time>2021-09-05T12:45:28.000Z</time>
      </trkpt>
      <trkpt lat="49.1921" lon="-1.44596">
        <ele>28.19062</ele>
        <time>2021-09-05T12:45:33.000Z</time>
      </trkpt>
      <trkpt lat="49.19207" lon="-1.44579">
        <ele>28.220255</ele>
        <time>2021-09-05T12:45:35.000Z</time>
      </trkpt>
      <trkpt lat="49.19202" lon="-1.44552">
        <ele>28.265973</ele>
        <time>2021-09-05T12:45:38.000Z</time>
      </trkpt>
      <trkpt lat="49.19199" lon="-1.44535">
        <ele>28.296314</ele>
        <time>2021-09-05T12:45:40.000Z</time>
      </trkpt>
      <trkpt lat="49.19196" lon="-1.44517">
        <ele>28.326269</ele>
        <time>2021-09-05T12:45:42.000Z</time>
      </trkpt>
      <trkpt lat="49.19193" lon="-1.44501">
        <ele>28.353694</ele>
        <time>2021-09-05T12:45:44.000Z</time>
      </trkpt>
      <trkpt lat="49.1919" lon="-1.44484">
        <ele>28.383169</ele>
        <time>2021-09-05T12:45:46.000Z</time>
      </trkpt>
      <trkpt lat="49.19185" lon="-1.44456">
        <ele>28.431258</ele>
        <time>2021-09-05T12:45:49.000Z</time>
      </trkpt>
      <trkpt lat="49.19182" lon="-1.44438">
        <ele>28.461119</ele>
        <time>2021-09-05T12:45:51.000Z</time>
      </trkpt>
      <trkpt lat="49.19176" lon="-1.44402">
        <ele>28.523465</ele>
        <time>2021-09-05T12:45:55.000Z</time>
      </trkpt>
      <trkpt lat="49.19165" lon="-1.44337">
        <ele>28.63406</ele>
        <time>2021-09-05T12:46:02.000Z</time>
      </trkpt>
      <trkpt lat="49.19153" lon="-1.44267">
        <ele>28.750696</ele>
        <time>2021-09-05T12:46:10.000Z</time>
      </trkpt>
      <trkpt lat="49.19148" lon="-1.44241">
        <ele>28.794694</ele>
        <time>2021-09-05T12:46:13.000Z</time>
      </trkpt>
      <trkpt lat="49.19143" lon="-1.44214">
        <ele>28.839749</ele>
        <time>2021-09-05T12:46:16.000Z</time>
      </trkpt>
      <trkpt lat="49.19133" lon="-1.44152">
        <ele>28.943168</ele>
        <time>2021-09-05T12:46:23.000Z</time>
      </trkpt>
      <trkpt lat="49.19125" lon="-1.44106">
        <ele>29.018819</ele>
        <time>2021-09-05T12:46:28.000Z</time>
      </trkpt>
      <trkpt lat="49.19123" lon="-1.44097">
        <ele>29.034273</ele>
        <time>2021-09-05T12:46:29.000Z</time>
      </trkpt>
      <trkpt lat="49.19115" lon="-1.44051">
        <ele>29.062318</ele>
        <time>2021-09-05T12:46:34.000Z</time>
      </trkpt>
      <trkpt lat="49.19105" lon="-1.4399">
        <ele>28.977406</ele>
        <time>2021-09-05T12:46:41.000Z</time>
      </trkpt>
      <trkpt lat="49.19094" lon="-1.43928">
        <ele>28.893058</ele>
        <time>2021-09-05T12:46:48.000Z</time>
      </trkpt>
      <trkpt lat="49.19092" lon="-1.43919">
        <ele>28.880433</ele>
        <time>2021-09-05T12:46:49.000Z</time>
      </trkpt>
      <trkpt lat="49.19088" lon="-1.43891">
        <ele>28.842685</ele>
        <time>2021-09-05T12:46:52.000Z</time>
      </trkpt>
      <trkpt lat="49.19077" lon="-1.43828">
        <ele>28.755436</ele>
        <time>2021-09-05T12:46:59.000Z</time>
      </trkpt>
      <trkpt lat="49.19074" lon="-1.4381">
        <ele>28.731443</ele>
        <time>2021-09-05T12:47:01.000Z</time>
      </trkpt>
      <trkpt lat="49.1907" lon="-1.43792">
        <ele>28.616756</ele>
        <time>2021-09-05T12:47:03.000Z</time>
      </trkpt>
      <trkpt lat="49.19069" lon="-1.43783">
        <ele>28.509593</ele>
        <time>2021-09-05T12:47:04.000Z</time>
      </trkpt>
      <trkpt lat="49.1906" lon="-1.43731">
        <ele>27.891539</ele>
        <time>2021-09-05T12:47:10.000Z</time>
      </trkpt>
      <trkpt lat="49.19056" lon="-1.43706">
        <ele>27.590072</ele>
        <time>2021-09-05T12:47:13.000Z</time>
      </trkpt>
      <trkpt lat="49.19053" lon="-1.4369">
        <ele>27.400872</ele>
        <time>2021-09-05T12:47:15.000Z</time>
      </trkpt>
      <trkpt lat="49.19046" lon="-1.43649">
        <ele>26.91021</ele>
        <time>2021-09-05T12:47:20.000Z</time>
      </trkpt>
      <trkpt lat="49.19043" lon="-1.43631">
        <ele>26.700777</ele>
        <time>2021-09-05T12:47:22.000Z</time>
      </trkpt>
      <trkpt lat="49.1904" lon="-1.43615">
        <ele>26.512027</ele>
        <time>2021-09-05T12:47:24.000Z</time>
      </trkpt>
      <trkpt lat="49.19039" lon="-1.43608">
        <ele>26.428878</ele>
        <time>2021-09-05T12:47:25.000Z</time>
      </trkpt>
      <trkpt lat="49.19035" lon="-1.43587">
        <ele>26.171868</ele>
        <time>2021-09-05T12:47:28.000Z</time>
      </trkpt>
      <trkpt lat="49.19026" lon="-1.43533">
        <ele>25.546598</ele>
        <time>2021-09-05T12:47:34.000Z</time>
      </trkpt>
      <trkpt lat="49.19024" lon="-1.43524">
        <ele>25.493095</ele>
        <time>2021-09-05T12:47:35.000Z</time>
      </trkpt>
      <trkpt lat="49.19018" lon="-1.43491">
        <ele>25.296883</ele>
        <time>2021-09-05T12:47:39.000Z</time>
      </trkpt>
      <trkpt lat="49.19017" lon="-1.43482">
        <ele>25.248214</ele>
        <time>2021-09-05T12:47:40.000Z</time>
      </trkpt>
      <trkpt lat="49.19013" lon="-1.43458">
        <ele>25.104407</ele>
        <time>2021-09-05T12:47:43.000Z</time>
      </trkpt>
      <trkpt lat="49.19005" lon="-1.43412">
        <ele>24.832501</ele>
        <time>2021-09-05T12:47:49.000Z</time>
      </trkpt>
      <trkpt lat="49.19001" lon="-1.43388">
        <ele>24.6955</ele>
        <time>2021-09-05T12:47:52.000Z</time>
      </trkpt>
      <trkpt lat="49.18998" lon="-1.43373">
        <ele>24.603327</ele>
        <time>2021-09-05T12:47:54.000Z</time>
      </trkpt>
      <trkpt lat="49.18997" lon="-1.43365">
        <ele>24.560038</ele>
        <time>2021-09-05T12:47:55.000Z</time>
      </trkpt>
      <trkpt lat="49.18995" lon="-1.43358">
        <ele>24.518175</ele>
        <time>2021-09-05T12:47:56.000Z</time>
      </trkpt>
      <trkpt lat="49.18991" lon="-1.43331">
        <ele>24.357888</ele>
        <time>2021-09-05T12:48:00.000Z</time>
      </trkpt>
      <trkpt lat="49.18985" lon="-1.433">
        <ele>24.175736</ele>
        <time>2021-09-05T12:48:05.000Z</time>
      </trkpt>
      <trkpt lat="49.18983" lon="-1.43285">
        <ele>24.087078</ele>
        <time>2021-09-05T12:48:07.000Z</time>
      </trkpt>
      <trkpt lat="49.1898" lon="-1.4327">
        <ele>24.001386</ele>
        <time>2021-09-05T12:48:09.000Z</time>
      </trkpt>
      <trkpt lat="49.18975" lon="-1.43242">
        <ele>24.209678</ele>
        <time>2021-09-05T12:48:13.000Z</time>
      </trkpt>
      <trkpt lat="49.18973" lon="-1.43227">
        <ele>24.326232</ele>
        <time>2021-09-05T12:48:15.000Z</time>
      </trkpt>
      <trkpt lat="49.18965" lon="-1.43185">
        <ele>24.666633</ele>
        <time>2021-09-05T12:48:21.000Z</time>
      </trkpt>
      <trkpt lat="49.18963" lon="-1.43171">
        <ele>24.775866</ele>
        <time>2021-09-05T12:48:23.000Z</time>
      </trkpt>
      <trkpt lat="49.18958" lon="-1.43141">
        <ele>25.019586</ele>
        <time>2021-09-05T12:48:28.000Z</time>
      </trkpt>
      <trkpt lat="49.18957" lon="-1.43134">
        <ele>25.073235</ele>
        <time>2021-09-05T12:48:29.000Z</time>
      </trkpt>
      <trkpt lat="49.18954" lon="-1.4312">
        <ele>25.186502</ele>
        <time>2021-09-05T12:48:31.000Z</time>
      </trkpt>
      <trkpt lat="49.18952" lon="-1.43106">
        <ele>25.296782</ele>
        <time>2021-09-05T12:48:33.000Z</time>
      </trkpt>
      <trkpt lat="49.18948" lon="-1.43085">
        <ele>25.462947</ele>
        <time>2021-09-05T12:48:36.000Z</time>
      </trkpt>
      <trkpt lat="49.18946" lon="-1.4307">
        <ele>25.580249</ele>
        <time>2021-09-05T12:48:38.000Z</time>
      </trkpt>
      <trkpt lat="49.18944" lon="-1.43063">
        <ele>25.638679</ele>
        <time>2021-09-05T12:48:39.000Z</time>
      </trkpt>
      <trkpt lat="49.18939" lon="-1.43033">
        <ele>25.877619</ele>
        <time>2021-09-05T12:48:43.000Z</time>
      </trkpt>
      <trkpt lat="49.1893" lon="-1.4298">
        <ele>26.367031</ele>
        <time>2021-09-05T12:48:50.000Z</time>
      </trkpt>
      <trkpt lat="49.18929" lon="-1.42973">
        <ele>26.447818</ele>
        <time>2021-09-05T12:48:51.000Z</time>
      </trkpt>
      <trkpt lat="49.18926" lon="-1.42959">
        <ele>26.601433</ele>
        <time>2021-09-05T12:48:53.000Z</time>
      </trkpt>
      <trkpt lat="49.18924" lon="-1.42945">
        <ele>26.751988</ele>
        <time>2021-09-05T12:48:55.000Z</time>
      </trkpt>
      <trkpt lat="49.1892" lon="-1.42923">
        <ele>26.99435</ele>
        <time>2021-09-05T12:48:58.000Z</time>
      </trkpt>
      <trkpt lat="49.18918" lon="-1.42909">
        <ele>27.147965</ele>
        <time>2021-09-05T12:49:00.000Z</time>
      </trkpt>
      <trkpt lat="49.18916" lon="-1.42902">
        <ele>27.224262</ele>
        <time>2021-09-05T12:49:01.000Z</time>
      </trkpt>
      <trkpt lat="49.1891" lon="-1.42865">
        <ele>27.619217</ele>
        <time>2021-09-05T12:49:06.000Z</time>
      </trkpt>
      <trkpt lat="49.18909" lon="-1.42858">
        <ele>27.697556</ele>
        <time>2021-09-05T12:49:07.000Z</time>
      </trkpt>
      <trkpt lat="49.18898" lon="-1.42796">
        <ele>28.379136</ele>
        <time>2021-09-05T12:49:15.000Z</time>
      </trkpt>
      <trkpt lat="49.18891" lon="-1.42752">
        <ele>28.859975</ele>
        <time>2021-09-05T12:49:21.000Z</time>
      </trkpt>
      <trkpt lat="49.18887" lon="-1.42732">
        <ele>29.073645</ele>
        <time>2021-09-05T12:49:24.000Z</time>
      </trkpt>
      <trkpt lat="49.18886" lon="-1.42725">
        <ele>29.156412</ele>
        <time>2021-09-05T12:49:25.000Z</time>
      </trkpt>
      <trkpt lat="49.18885" lon="-1.42717">
        <ele>29.24235</ele>
        <time>2021-09-05T12:49:26.000Z</time>
      </trkpt>
      <trkpt lat="49.18879" lon="-1.42687">
        <ele>29.589701</ele>
        <time>2021-09-05T12:49:30.000Z</time>
      </trkpt>
      <trkpt lat="49.18877" lon="-1.42674">
        <ele>29.731946</ele>
        <time>2021-09-05T12:49:32.000Z</time>
      </trkpt>
      <trkpt lat="49.18875" lon="-1.4266">
        <ele>29.88456</ele>
        <time>2021-09-05T12:49:34.000Z</time>
      </trkpt>
      <trkpt lat="49.18874" lon="-1.42654">
        <ele>29.961611</ele>
        <time>2021-09-05T12:49:35.000Z</time>
      </trkpt>
      <trkpt lat="49.18866" lon="-1.42609">
        <ele>30.471524</ele>
        <time>2021-09-05T12:49:41.000Z</time>
      </trkpt>
      <trkpt lat="49.18865" lon="-1.42601">
        <ele>30.559581</ele>
        <time>2021-09-05T12:49:42.000Z</time>
      </trkpt>
      <trkpt lat="49.18861" lon="-1.42578">
        <ele>30.814222</ele>
        <time>2021-09-05T12:49:45.000Z</time>
      </trkpt>
      <trkpt lat="49.18859" lon="-1.4257">
        <ele>30.905876</ele>
        <time>2021-09-05T12:49:46.000Z</time>
      </trkpt>
      <trkpt lat="49.18854" lon="-1.42538">
        <ele>31.273126</ele>
        <time>2021-09-05T12:49:50.000Z</time>
      </trkpt>
      <trkpt lat="49.18845" lon="-1.42487">
        <ele>31.846543</ele>
        <time>2021-09-05T12:49:56.000Z</time>
      </trkpt>
      <trkpt lat="49.18835" lon="-1.42425">
        <ele>32.400183</ele>
        <time>2021-09-05T12:50:03.000Z</time>
      </trkpt>
      <trkpt lat="49.18832" lon="-1.42409">
        <ele>32.534897</ele>
        <time>2021-09-05T12:50:05.000Z</time>
      </trkpt>
      <trkpt lat="49.18828" lon="-1.42384">
        <ele>32.737658</ele>
        <time>2021-09-05T12:50:08.000Z</time>
      </trkpt>
      <trkpt lat="49.18825" lon="-1.42367">
        <ele>32.878796</ele>
        <time>2021-09-05T12:50:10.000Z</time>
      </trkpt>
      <trkpt lat="49.1882" lon="-1.42342">
        <ele>33.083085</ele>
        <time>2021-09-05T12:50:13.000Z</time>
      </trkpt>
      <trkpt lat="49.18812" lon="-1.42291">
        <ele>33.501144</ele>
        <time>2021-09-05T12:50:19.000Z</time>
      </trkpt>
      <trkpt lat="49.18801" lon="-1.42229">
        <ele>34.006821</ele>
        <time>2021-09-05T12:50:26.000Z</time>
      </trkpt>
      <trkpt lat="49.18792" lon="-1.42176">
        <ele>34.326417</ele>
        <time>2021-09-05T12:50:32.000Z</time>
      </trkpt>
      <trkpt lat="49.18783" lon="-1.42125">
        <ele>34.546817</ele>
        <time>2021-09-05T12:50:38.000Z</time>
      </trkpt>
      <trkpt lat="49.18782" lon="-1.42117">
        <ele>34.58201</ele>
        <time>2021-09-05T12:50:39.000Z</time>
      </trkpt>
      <trkpt lat="49.18776" lon="-1.42083">
        <ele>34.726318</ele>
        <time>2021-09-05T12:50:43.000Z</time>
      </trkpt>
      <trkpt lat="49.18765" lon="-1.42021">
        <ele>34.993965</ele>
        <time>2021-09-05T12:50:50.000Z</time>
      </trkpt>
      <trkpt lat="49.18756" lon="-1.41966">
        <ele>35.230595</ele>
        <time>2021-09-05T12:50:56.000Z</time>
      </trkpt>
      <trkpt lat="49.18748" lon="-1.41923">
        <ele>35.359978</ele>
        <time>2021-09-05T12:51:01.000Z</time>
      </trkpt>
      <trkpt lat="49.18745" lon="-1.41905">
        <ele>35.373274</ele>
        <time>2021-09-05T12:51:03.000Z</time>
      </trkpt>
      <trkpt lat="49.18739" lon="-1.41869">
        <ele>35.399961</ele>
        <time>2021-09-05T12:51:07.000Z</time>
      </trkpt>
      <trkpt lat="49.18728" lon="-1.41806">
        <ele>35.446032</ele>
        <time>2021-09-05T12:51:14.000Z</time>
      </trkpt>
      <trkpt lat="49.1872" lon="-1.4176">
        <ele>35.479518</ele>
        <time>2021-09-05T12:51:20.000Z</time>
      </trkpt>
      <trkpt lat="49.18719" lon="-1.41753">
        <ele>35.484197</ele>
        <time>2021-09-05T12:51:21.000Z</time>
      </trkpt>
      <trkpt lat="49.18714" lon="-1.41725">
        <ele>35.504688</ele>
        <time>2021-09-05T12:51:25.000Z</time>
      </trkpt>
      <trkpt lat="49.18712" lon="-1.41716">
        <ele>35.51176</ele>
        <time>2021-09-05T12:51:26.000Z</time>
      </trkpt>
      <trkpt lat="49.18706" lon="-1.41677">
        <ele>35.540131</ele>
        <time>2021-09-05T12:51:30.000Z</time>
      </trkpt>
      <trkpt lat="49.18692" lon="-1.41599">
        <ele>35.359428</ele>
        <time>2021-09-05T12:51:38.000Z</time>
      </trkpt>
      <trkpt lat="49.18686" lon="-1.41565">
        <ele>35.273423</ele>
        <time>2021-09-05T12:51:43.000Z</time>
      </trkpt>
      <trkpt lat="49.18685" lon="-1.4156">
        <ele>35.259254</ele>
        <time>2021-09-05T12:51:44.000Z</time>
      </trkpt>
      <trkpt lat="49.18682" lon="-1.41538">
        <ele>35.203476</ele>
        <time>2021-09-05T12:51:48.000Z</time>
      </trkpt>
      <trkpt lat="49.18681" lon="-1.41533">
        <ele>35.191052</ele>
        <time>2021-09-05T12:51:49.000Z</time>
      </trkpt>
      <trkpt lat="49.18679" lon="-1.41523">
        <ele>35.167815</ele>
        <time>2021-09-05T12:51:51.000Z</time>
      </trkpt>
      <trkpt lat="49.18674" lon="-1.415">
        <ele>35.10795</ele>
        <time>2021-09-05T12:51:55.000Z</time>
      </trkpt>
      <trkpt lat="49.18671" lon="-1.41486">
        <ele>35.071164</ele>
        <time>2021-09-05T12:51:57.000Z</time>
      </trkpt>
      <trkpt lat="49.18667" lon="-1.41471">
        <ele>35.033104</ele>
        <time>2021-09-05T12:51:59.000Z</time>
      </trkpt>
      <trkpt lat="49.18653" lon="-1.41417">
        <ele>34.890535</ele>
        <time>2021-09-05T12:52:06.000Z</time>
      </trkpt>
      <trkpt lat="49.1863" lon="-1.41339">
        <ele>34.813009</ele>
        <time>2021-09-05T12:52:16.000Z</time>
      </trkpt>
      <trkpt lat="49.18627" lon="-1.41332">
        <ele>34.806614</ele>
        <time>2021-09-05T12:52:17.000Z</time>
      </trkpt>
      <trkpt lat="49.18607" lon="-1.41282">
        <ele>34.762061</ele>
        <time>2021-09-05T12:52:24.000Z</time>
      </trkpt>
      <trkpt lat="49.18583" lon="-1.41235">
        <ele>34.717056</ele>
        <time>2021-09-05T12:52:31.000Z</time>
      </trkpt>
      <trkpt lat="49.18554" lon="-1.41186">
        <ele>34.66661</ele>
        <time>2021-09-05T12:52:39.000Z</time>
      </trkpt>
      <trkpt lat="49.18532" lon="-1.41153">
        <ele>34.846002</ele>
        <time>2021-09-05T12:52:45.000Z</time>
      </trkpt>
      <trkpt lat="49.18526" lon="-1.41144">
        <ele>34.90253</ele>
        <time>2021-09-05T12:52:47.000Z</time>
      </trkpt>
      <trkpt lat="49.18517" lon="-1.41132">
        <ele>34.981727</ele>
        <time>2021-09-05T12:52:50.000Z</time>
      </trkpt>
      <trkpt lat="49.18503" lon="-1.41112">
        <ele>35.10459</ele>
        <time>2021-09-05T12:52:55.000Z</time>
      </trkpt>
      <trkpt lat="49.18497" lon="-1.41104">
        <ele>35.157535</ele>
        <time>2021-09-05T12:52:57.000Z</time>
      </trkpt>
      <trkpt lat="49.18484" lon="-1.41087">
        <ele>35.270311</ele>
        <time>2021-09-05T12:53:01.000Z</time>
      </trkpt>
      <trkpt lat="49.1848" lon="-1.41083">
        <ele>35.299566</ele>
        <time>2021-09-05T12:53:02.000Z</time>
      </trkpt>
      <trkpt lat="49.18473" lon="-1.41076">
        <ele>35.356289</ele>
        <time>2021-09-05T12:53:04.000Z</time>
      </trkpt>
      <trkpt lat="49.18469" lon="-1.41073">
        <ele>35.383981</ele>
        <time>2021-09-05T12:53:05.000Z</time>
      </trkpt>
      <trkpt lat="49.18465" lon="-1.41069">
        <ele>35.413236</ele>
        <time>2021-09-05T12:53:06.000Z</time>
      </trkpt>
      <trkpt lat="49.18453" lon="-1.41058">
        <ele>35.508147</ele>
        <time>2021-09-05T12:53:09.000Z</time>
      </trkpt>
      <trkpt lat="49.18445" lon="-1.4105">
        <ele>35.569003</ele>
        <time>2021-09-05T12:53:11.000Z</time>
      </trkpt>
      <trkpt lat="49.18437" lon="-1.41043">
        <ele>35.629634</ele>
        <time>2021-09-05T12:53:13.000Z</time>
      </trkpt>
      <trkpt lat="49.18411" lon="-1.41023">
        <ele>35.819565</ele>
        <time>2021-09-05T12:53:19.000Z</time>
      </trkpt>
      <trkpt lat="49.18387" lon="-1.41007">
        <ele>35.850439</ele>
        <time>2021-09-05T12:53:25.000Z</time>
      </trkpt>
      <trkpt lat="49.18382" lon="-1.41003">
        <ele>35.852462</ele>
        <time>2021-09-05T12:53:26.000Z</time>
      </trkpt>
      <trkpt lat="49.18371" lon="-1.40995">
        <ele>35.85759</ele>
        <time>2021-09-05T12:53:29.000Z</time>
      </trkpt>
      <trkpt lat="49.18351" lon="-1.40981">
        <ele>35.866254</ele>
        <time>2021-09-05T12:53:34.000Z</time>
      </trkpt>
      <trkpt lat="49.18322" lon="-1.40965">
        <ele>35.878755</ele>
        <time>2021-09-05T12:53:40.000Z</time>
      </trkpt>
      <trkpt lat="49.18288" lon="-1.40946">
        <ele>35.893351</ele>
        <time>2021-09-05T12:53:47.000Z</time>
      </trkpt>
      <trkpt lat="49.18283" lon="-1.40945">
        <ele>35.895363</ele>
        <time>2021-09-05T12:53:48.000Z</time>
      </trkpt>
      <trkpt lat="49.18262" lon="-1.40942">
        <ele>35.903753</ele>
        <time>2021-09-05T12:53:52.000Z</time>
      </trkpt>
      <trkpt lat="49.18254" lon="-1.40937">
        <ele>35.907273</ele>
        <time>2021-09-05T12:53:54.000Z</time>
      </trkpt>
      <trkpt lat="49.18251" lon="-1.40931">
        <ele>35.909148</ele>
        <time>2021-09-05T12:53:55.000Z</time>
      </trkpt>
      <trkpt lat="49.18248" lon="-1.4092">
        <ele>35.91234</ele>
        <time>2021-09-05T12:53:57.000Z</time>
      </trkpt>
      <trkpt lat="49.18245" lon="-1.40898">
        <ele>35.790714</ele>
        <time>2021-09-05T12:53:59.000Z</time>
      </trkpt>
      <trkpt lat="49.18247" lon="-1.40895">
        <ele>35.763402</ele>
        <time>2021-09-05T12:54:00.000Z</time>
      </trkpt>
      <trkpt lat="49.18267" lon="-1.40888">
        <ele>35.571794</ele>
        <time>2021-09-05T12:54:04.000Z</time>
      </trkpt>
      <trkpt lat="49.18281" lon="-1.40877">
        <ele>35.41599</ele>
        <time>2021-09-05T12:54:07.000Z</time>
      </trkpt>
      <trkpt lat="49.18284" lon="-1.40864">
        <ele>35.33102</ele>
        <time>2021-09-05T12:54:09.000Z</time>
      </trkpt>
      <trkpt lat="49.1829" lon="-1.40851">
        <ele>35.228034</ele>
        <time>2021-09-05T12:54:11.000Z</time>
      </trkpt>
      <trkpt lat="49.18292" lon="-1.40844">
        <ele>35.176271</ele>
        <time>2021-09-05T12:54:12.000Z</time>
      </trkpt>
      <trkpt lat="49.18323" lon="-1.40805">
        <ele>34.790007</ele>
        <time>2021-09-05T12:54:19.000Z</time>
      </trkpt>
      <trkpt lat="49.18368" lon="-1.40749">
        <ele>34.221562</ele>
        <time>2021-09-05T12:54:29.000Z</time>
      </trkpt>
      <trkpt lat="49.18372" lon="-1.40743">
        <ele>34.16409</ele>
        <time>2021-09-05T12:54:30.000Z</time>
      </trkpt>
      <trkpt lat="49.18401" lon="-1.40704">
        <ele>33.978031</ele>
        <time>2021-09-05T12:54:37.000Z</time>
      </trkpt>
      <trkpt lat="49.18417" lon="-1.40682">
        <ele>33.876498</ele>
        <time>2021-09-05T12:54:41.000Z</time>
      </trkpt>
      <trkpt lat="49.18429" lon="-1.40666">
        <ele>33.800645</ele>
        <time>2021-09-05T12:54:44.000Z</time>
      </trkpt>
      <trkpt lat="49.18436" lon="-1.40656">
        <ele>33.754628</ele>
        <time>2021-09-05T12:54:46.000Z</time>
      </trkpt>
      <trkpt lat="49.18438" lon="-1.40641">
        <ele>33.70641</ele>
        <time>2021-09-05T12:54:48.000Z</time>
      </trkpt>
      <trkpt lat="49.18429" lon="-1.40625">
        <ele>33.641453</ele>
        <time>2021-09-05T12:54:51.000Z</time>
      </trkpt>
      <trkpt lat="49.18406" lon="-1.40582">
        <ele>33.469243</ele>
        <time>2021-09-05T12:54:58.000Z</time>
      </trkpt>
      <trkpt lat="49.18376" lon="-1.40526">
        <ele>33.330918</ele>
        <time>2021-09-05T12:55:07.000Z</time>
      </trkpt>
      <trkpt lat="49.18368" lon="-1.40506">
        <ele>33.367572</ele>
        <time>2021-09-05T12:55:10.000Z</time>
      </trkpt>
      <trkpt lat="49.18363" lon="-1.40491">
        <ele>33.394239</ele>
        <time>2021-09-05T12:55:12.000Z</time>
      </trkpt>
      <trkpt lat="49.1836" lon="-1.40485">
        <ele>33.407132</ele>
        <time>2021-09-05T12:55:13.000Z</time>
      </trkpt>
      <trkpt lat="49.18344" lon="-1.40452">
        <ele>33.472533</ele>
        <time>2021-09-05T12:55:18.000Z</time>
      </trkpt>
      <trkpt lat="49.18319" lon="-1.40399">
        <ele>33.577486</ele>
        <time>2021-09-05T12:55:26.000Z</time>
      </trkpt>
      <trkpt lat="49.18315" lon="-1.40392">
        <ele>33.59219</ele>
        <time>2021-09-05T12:55:27.000Z</time>
      </trkpt>
      <trkpt lat="49.18304" lon="-1.40372">
        <ele>33.633355</ele>
        <time>2021-09-05T12:55:30.000Z</time>
      </trkpt>
      <trkpt lat="49.18282" lon="-1.40335">
        <ele>33.714827</ele>
        <time>2021-09-05T12:55:36.000Z</time>
      </trkpt>
      <trkpt lat="49.18274" lon="-1.40324">
        <ele>33.740938</ele>
        <time>2021-09-05T12:55:38.000Z</time>
      </trkpt>
      <trkpt lat="49.18257" lon="-1.40303">
        <ele>33.762758</ele>
        <time>2021-09-05T12:55:42.000Z</time>
      </trkpt>
      <trkpt lat="49.18223" lon="-1.40261">
        <ele>33.803903</ele>
        <time>2021-09-05T12:55:50.000Z</time>
      </trkpt>
      <trkpt lat="49.18197" lon="-1.40233">
        <ele>33.834949</ele>
        <time>2021-09-05T12:55:56.000Z</time>
      </trkpt>
      <trkpt lat="49.18168" lon="-1.40205">
        <ele>33.867935</ele>
        <time>2021-09-05T12:56:02.000Z</time>
      </trkpt>
      <trkpt lat="49.18148" lon="-1.40191">
        <ele>33.889271</ele>
        <time>2021-09-05T12:56:06.000Z</time>
      </trkpt>
      <trkpt lat="49.18144" lon="-1.40188">
        <ele>33.893483</ele>
        <time>2021-09-05T12:56:07.000Z</time>
      </trkpt>
      <trkpt lat="49.18121" lon="-1.40172">
        <ele>33.909171</ele>
        <time>2021-09-05T12:56:12.000Z</time>
      </trkpt>
      <trkpt lat="49.18093" lon="-1.40161">
        <ele>33.864598</ele>
        <time>2021-09-05T12:56:17.000Z</time>
      </trkpt>
      <trkpt lat="49.1806" lon="-1.40142">
        <ele>33.809858</ele>
        <time>2021-09-05T12:56:23.000Z</time>
      </trkpt>
      <trkpt lat="49.18027" lon="-1.40122">
        <ele>33.754606</ele>
        <time>2021-09-05T12:56:29.000Z</time>
      </trkpt>
      <trkpt lat="49.17988" lon="-1.40094">
        <ele>33.6876</ele>
        <time>2021-09-05T12:56:36.000Z</time>
      </trkpt>
      <trkpt lat="49.17968" lon="-1.4008">
        <ele>33.653614</ele>
        <time>2021-09-05T12:56:40.000Z</time>
      </trkpt>
      <trkpt lat="49.17931" lon="-1.40054">
        <ele>33.510878</ele>
        <time>2021-09-05T12:56:47.000Z</time>
      </trkpt>
      <trkpt lat="49.17895" lon="-1.40034">
        <ele>33.345952</ele>
        <time>2021-09-05T12:56:54.000Z</time>
      </trkpt>
      <trkpt lat="49.1787" lon="-1.4002">
        <ele>33.231162</ele>
        <time>2021-09-05T12:56:59.000Z</time>
      </trkpt>
      <trkpt lat="49.17838" lon="-1.4">
        <ele>33.078827</ele>
        <time>2021-09-05T12:57:05.000Z</time>
      </trkpt>
      <trkpt lat="49.17824" lon="-1.39987">
        <ele>33.010649</ele>
        <time>2021-09-05T12:57:08.000Z</time>
      </trkpt>
      <trkpt lat="49.17816" lon="-1.39978">
        <ele>32.966208</ele>
        <time>2021-09-05T12:57:10.000Z</time>
      </trkpt>
      <trkpt lat="49.17811" lon="-1.39974">
        <ele>32.943289</ele>
        <time>2021-09-05T12:57:11.000Z</time>
      </trkpt>
      <trkpt lat="49.17802" lon="-1.39965">
        <ele>32.895386</ele>
        <time>2021-09-05T12:57:13.000Z</time>
      </trkpt>
      <trkpt lat="49.17797" lon="-1.3996">
        <ele>32.871284</ele>
        <time>2021-09-05T12:57:14.000Z</time>
      </trkpt>
      <trkpt lat="49.17793" lon="-1.39956">
        <ele>32.867736</ele>
        <time>2021-09-05T12:57:15.000Z</time>
      </trkpt>
      <trkpt lat="49.17775" lon="-1.39937">
        <ele>32.966943</ele>
        <time>2021-09-05T12:57:19.000Z</time>
      </trkpt>
      <trkpt lat="49.17767" lon="-1.39924">
        <ele>33.018153</ele>
        <time>2021-09-05T12:57:21.000Z</time>
      </trkpt>
      <trkpt lat="49.17755" lon="-1.39906">
        <ele>33.0935</ele>
        <time>2021-09-05T12:57:24.000Z</time>
      </trkpt>
      <trkpt lat="49.17743" lon="-1.39888">
        <ele>33.168531</ele>
        <time>2021-09-05T12:57:27.000Z</time>
      </trkpt>
      <trkpt lat="49.17736" lon="-1.39876">
        <ele>33.215963</ele>
        <time>2021-09-05T12:57:29.000Z</time>
      </trkpt>
      <trkpt lat="49.1771" lon="-1.39837">
        <ele>33.380719</ele>
        <time>2021-09-05T12:57:36.000Z</time>
      </trkpt>
      <trkpt lat="49.1768" lon="-1.3979">
        <ele>33.574018</ele>
        <time>2021-09-05T12:57:44.000Z</time>
      </trkpt>
      <trkpt lat="49.17659" lon="-1.39752">
        <ele>33.714979</ele>
        <time>2021-09-05T12:57:50.000Z</time>
      </trkpt>
      <trkpt lat="49.17656" lon="-1.39746">
        <ele>33.735927</ele>
        <time>2021-09-05T12:57:51.000Z</time>
      </trkpt>
      <trkpt lat="49.17648" lon="-1.39739">
        <ele>33.771959</ele>
        <time>2021-09-05T12:57:53.000Z</time>
      </trkpt>
      <trkpt lat="49.1764" lon="-1.39726">
        <ele>33.819143</ele>
        <time>2021-09-05T12:57:55.000Z</time>
      </trkpt>
      <trkpt lat="49.17638" lon="-1.3972">
        <ele>33.838904</ele>
        <time>2021-09-05T12:57:56.000Z</time>
      </trkpt>
      <trkpt lat="49.17635" lon="-1.39713">
        <ele>33.859838</ele>
        <time>2021-09-05T12:57:57.000Z</time>
      </trkpt>
      <trkpt lat="49.17627" lon="-1.39688">
        <ele>33.935377</ele>
        <time>2021-09-05T12:58:00.000Z</time>
      </trkpt>
      <trkpt lat="49.17604" lon="-1.39625">
        <ele>34.127419</ele>
        <time>2021-09-05T12:58:07.000Z</time>
      </trkpt>
      <trkpt lat="49.17586" lon="-1.39574">
        <ele>34.283438</ele>
        <time>2021-09-05T12:58:13.000Z</time>
      </trkpt>
      <trkpt lat="49.17577" lon="-1.39549">
        <ele>34.358724</ele>
        <time>2021-09-05T12:58:16.000Z</time>
      </trkpt>
      <trkpt lat="49.17575" lon="-1.3954">
        <ele>34.383931</ele>
        <time>2021-09-05T12:58:17.000Z</time>
      </trkpt>
      <trkpt lat="49.17561" lon="-1.39475">
        <ele>34.013661</ele>
        <time>2021-09-05T12:58:24.000Z</time>
      </trkpt>
      <trkpt lat="49.17553" lon="-1.3944">
        <ele>33.777208</ele>
        <time>2021-09-05T12:58:28.000Z</time>
      </trkpt>
      <trkpt lat="49.17542" lon="-1.39392">
        <ele>33.451965</ele>
        <time>2021-09-05T12:58:34.000Z</time>
      </trkpt>
      <trkpt lat="49.1754" lon="-1.39384">
        <ele>33.402131</ele>
        <time>2021-09-05T12:58:35.000Z</time>
      </trkpt>
      <trkpt lat="49.17538" lon="-1.39377">
        <ele>33.351697</ele>
        <time>2021-09-05T12:58:36.000Z</time>
      </trkpt>
      <trkpt lat="49.17532" lon="-1.39347">
        <ele>33.150278</ele>
        <time>2021-09-05T12:58:40.000Z</time>
      </trkpt>
      <trkpt lat="49.17519" lon="-1.39303">
        <ele>32.84507</ele>
        <time>2021-09-05T12:58:46.000Z</time>
      </trkpt>
      <trkpt lat="49.17515" lon="-1.39288">
        <ele>32.740034</ele>
        <time>2021-09-05T12:58:48.000Z</time>
      </trkpt>
      <trkpt lat="49.17504" lon="-1.39249">
        <ele>32.281981</ele>
        <time>2021-09-05T12:58:53.000Z</time>
      </trkpt>
      <trkpt lat="49.17494" lon="-1.39217">
        <ele>31.828368</ele>
        <time>2021-09-05T12:58:58.000Z</time>
      </trkpt>
      <trkpt lat="49.17491" lon="-1.39206">
        <ele>31.67613</ele>
        <time>2021-09-05T12:59:02.000Z</time>
      </trkpt>
      <trkpt lat="49.17498" lon="-1.39199">
        <ele>31.512345</ele>
        <time>2021-09-05T12:59:05.000Z</time>
      </trkpt>
      <trkpt lat="49.175" lon="-1.39199">
        <ele>31.478166</ele>
        <time>2021-09-05T12:59:06.000Z</time>
      </trkpt>
      <trkpt lat="49.17514" lon="-1.39193">
        <ele>31.205122</ele>
        <time>2021-09-05T12:59:11.000Z</time>
      </trkpt>
      <trkpt lat="49.17534" lon="-1.3919">
        <ele>30.796839</ele>
        <time>2021-09-05T12:59:17.000Z</time>
      </trkpt>
      <trkpt lat="49.1755" lon="-1.39187">
        <ele>30.493584</ele>
        <time>2021-09-05T12:59:22.000Z</time>
      </trkpt>
      <trkpt lat="49.17577" lon="-1.39183">
        <ele>29.949823</ele>
        <time>2021-09-05T12:59:29.000Z</time>
      </trkpt>
      <trkpt lat="49.17604" lon="-1.39178">
        <ele>29.413854</ele>
        <time>2021-09-05T12:59:35.000Z</time>
      </trkpt>
      <trkpt lat="49.17609" lon="-1.39177">
        <ele>29.319263</ele>
        <time>2021-09-05T12:59:36.000Z</time>
      </trkpt>
      <trkpt lat="49.17619" lon="-1.39176">
        <ele>29.135281</ele>
        <time>2021-09-05T12:59:38.000Z</time>
      </trkpt>
      <trkpt lat="49.17639" lon="-1.39173">
        <ele>29.380632</ele>
        <time>2021-09-05T12:59:42.000Z</time>
      </trkpt>
      <trkpt lat="49.17677" lon="-1.39158">
        <ele>29.875253</ele>
        <time>2021-09-05T12:59:50.000Z</time>
      </trkpt>
      <trkpt lat="49.17699" lon="-1.39146">
        <ele>30.168008</ele>
        <time>2021-09-05T12:59:55.000Z</time>
      </trkpt>
      <trkpt lat="49.17734" lon="-1.39123">
        <ele>30.641116</ele>
        <time>2021-09-05T13:00:02.000Z</time>
      </trkpt>
      <trkpt lat="49.17758" lon="-1.39097">
        <ele>31.011473</ele>
        <time>2021-09-05T13:00:08.000Z</time>
      </trkpt>
      <trkpt lat="49.17777" lon="-1.39076">
        <ele>31.302818</ele>
        <time>2021-09-05T13:00:13.000Z</time>
      </trkpt>
      <trkpt lat="49.17802" lon="-1.39049">
        <ele>31.672884</ele>
        <time>2021-09-05T13:00:19.000Z</time>
      </trkpt>
      <trkpt lat="49.17837" lon="-1.39017">
        <ele>32.157773</ele>
        <time>2021-09-05T13:00:27.000Z</time>
      </trkpt>
      <trkpt lat="49.17866" lon="-1.38992">
        <ele>32.547734</ele>
        <time>2021-09-05T13:00:33.000Z</time>
      </trkpt>
      <trkpt lat="49.17901" lon="-1.38968">
        <ele>32.999022</ele>
        <time>2021-09-05T13:00:39.000Z</time>
      </trkpt>
      <trkpt lat="49.17947" lon="-1.38946">
        <ele>33.472052</ele>
        <time>2021-09-05T13:00:46.000Z</time>
      </trkpt>
      <trkpt lat="49.1796" lon="-1.3894">
        <ele>33.384051</ele>
        <time>2021-09-05T13:00:48.000Z</time>
      </trkpt>
      <trkpt lat="49.17972" lon="-1.38935">
        <ele>33.297486</ele>
        <time>2021-09-05T13:00:50.000Z</time>
      </trkpt>
      <trkpt lat="49.17984" lon="-1.38929">
        <ele>33.208833</ele>
        <time>2021-09-05T13:00:52.000Z</time>
      </trkpt>
      <trkpt lat="49.18002" lon="-1.3892">
        <ele>33.07866</ele>
        <time>2021-09-05T13:00:55.000Z</time>
      </trkpt>
      <trkpt lat="49.1802" lon="-1.38912">
        <ele>32.952795</ele>
        <time>2021-09-05T13:00:58.000Z</time>
      </trkpt>
      <trkpt lat="49.18026" lon="-1.38909">
        <ele>32.909838</ele>
        <time>2021-09-05T13:00:59.000Z</time>
      </trkpt>
      <trkpt lat="49.18031" lon="-1.38906">
        <ele>32.870405</ele>
        <time>2021-09-05T13:01:00.000Z</time>
      </trkpt>
      <trkpt lat="49.18035" lon="-1.38882">
        <ele>32.759772</ele>
        <time>2021-09-05T13:01:02.000Z</time>
      </trkpt>
      <trkpt lat="49.18029" lon="-1.38869">
        <ele>32.687997</ele>
        <time>2021-09-05T13:01:04.000Z</time>
      </trkpt>
      <trkpt lat="49.18023" lon="-1.38855">
        <ele>32.612852</ele>
        <time>2021-09-05T13:01:06.000Z</time>
      </trkpt>
      <trkpt lat="49.18016" lon="-1.3884">
        <ele>32.529118</ele>
        <time>2021-09-05T13:01:08.000Z</time>
      </trkpt>
      <trkpt lat="49.18004" lon="-1.38815">
        <ele>32.395673</ele>
        <time>2021-09-05T13:01:11.000Z</time>
      </trkpt>
      <trkpt lat="49.17996" lon="-1.388">
        <ele>32.306408</ele>
        <time>2021-09-05T13:01:13.000Z</time>
      </trkpt>
      <trkpt lat="49.1798" lon="-1.38783">
        <ele>31.931675</ele>
        <time>2021-09-05T13:01:16.000Z</time>
      </trkpt>
      <trkpt lat="49.17955" lon="-1.38756">
        <ele>31.249414</ele>
        <time>2021-09-05T13:01:21.000Z</time>
      </trkpt>
      <trkpt lat="49.17919" lon="-1.38723">
        <ele>30.301219</ele>
        <time>2021-09-05T13:01:28.000Z</time>
      </trkpt>
      <trkpt lat="49.17881" lon="-1.38713">
        <ele>29.435009</ele>
        <time>2021-09-05T13:01:34.000Z</time>
      </trkpt>
      <trkpt lat="49.17845" lon="-1.38698">
        <ele>28.597371</ele>
        <time>2021-09-05T13:01:40.000Z</time>
      </trkpt>
      <trkpt lat="49.17823" lon="-1.3868">
        <ele>28.11533</ele>
        <time>2021-09-05T13:01:44.000Z</time>
      </trkpt>
      <trkpt lat="49.1782" lon="-1.38673">
        <ele>28.0247</ele>
        <time>2021-09-05T13:01:45.000Z</time>
      </trkpt>
      <trkpt lat="49.17816" lon="-1.38666">
        <ele>27.928901</ele>
        <time>2021-09-05T13:01:46.000Z</time>
      </trkpt>
      <trkpt lat="49.178" lon="-1.38639">
        <ele>27.55493</ele>
        <time>2021-09-05T13:01:50.000Z</time>
      </trkpt>
      <trkpt lat="49.17783" lon="-1.38628">
        <ele>27.265285</ele>
        <time>2021-09-05T13:01:53.000Z</time>
      </trkpt>
      <trkpt lat="49.17776" lon="-1.38626">
        <ele>27.162272</ele>
        <time>2021-09-05T13:01:54.000Z</time>
      </trkpt>
      <trkpt lat="49.1777" lon="-1.38623">
        <ele>27.060791</ele>
        <time>2021-09-05T13:01:55.000Z</time>
      </trkpt>
      <trkpt lat="49.17758" lon="-1.38619">
        <ele>26.863948</ele>
        <time>2021-09-05T13:01:57.000Z</time>
      </trkpt>
      <trkpt lat="49.17746" lon="-1.38618">
        <ele>26.681595</ele>
        <time>2021-09-05T13:01:59.000Z</time>
      </trkpt>
      <trkpt lat="49.17729" lon="-1.38617">
        <ele>26.412895</ele>
        <time>2021-09-05T13:02:02.000Z</time>
      </trkpt>
      <trkpt lat="49.17718" lon="-1.38617">
        <ele>26.236901</ele>
        <time>2021-09-05T13:02:04.000Z</time>
      </trkpt>
      <trkpt lat="49.17712" lon="-1.38612">
        <ele>26.13472</ele>
        <time>2021-09-05T13:02:05.000Z</time>
      </trkpt>
      <trkpt lat="49.17708" lon="-1.38607">
        <ele>26.044897</ele>
        <time>2021-09-05T13:02:06.000Z</time>
      </trkpt>
      <trkpt lat="49.17695" lon="-1.38592">
        <ele>25.787274</ele>
        <time>2021-09-05T13:02:09.000Z</time>
      </trkpt>
      <trkpt lat="49.17676" lon="-1.38565">
        <ele>25.44578</ele>
        <time>2021-09-05T13:02:14.000Z</time>
      </trkpt>
      <trkpt lat="49.17673" lon="-1.38561">
        <ele>25.471557</ele>
        <time>2021-09-05T13:02:15.000Z</time>
      </trkpt>
      <trkpt lat="49.17656" lon="-1.38535">
        <ele>25.613529</ele>
        <time>2021-09-05T13:02:21.000Z</time>
      </trkpt>
      <trkpt lat="49.17643" lon="-1.38509">
        <ele>25.741787</ele>
        <time>2021-09-05T13:02:27.000Z</time>
      </trkpt>
      <trkpt lat="49.17631" lon="-1.38488">
        <ele>25.847322</ele>
        <time>2021-09-05T13:02:32.000Z</time>
      </trkpt>
      <trkpt lat="49.17615" lon="-1.38457">
        <ele>26.000917</ele>
        <time>2021-09-05T13:02:39.000Z</time>
      </trkpt>
      <trkpt lat="49.176" lon="-1.38421">
        <ele>26.165403</ele>
        <time>2021-09-05T13:02:47.000Z</time>
      </trkpt>
      <trkpt lat="49.17591" lon="-1.38401">
        <ele>26.258802</ele>
        <time>2021-09-05T13:02:52.000Z</time>
      </trkpt>
      <trkpt lat="49.17581" lon="-1.38375">
        <ele>26.375789</ele>
        <time>2021-09-05T13:02:59.000Z</time>
      </trkpt>
      <trkpt lat="49.17571" lon="-1.38351">
        <ele>26.484058</ele>
        <time>2021-09-05T13:03:05.000Z</time>
      </trkpt>
      <trkpt lat="49.17561" lon="-1.38327">
        <ele>26.684594</ele>
        <time>2021-09-05T13:03:11.000Z</time>
      </trkpt>
      <trkpt lat="49.17547" lon="-1.38305">
        <ele>26.910503</ele>
        <time>2021-09-05T13:03:17.000Z</time>
      </trkpt>
      <trkpt lat="49.17534" lon="-1.38284">
        <ele>27.119351</ele>
        <time>2021-09-05T13:03:23.000Z</time>
      </trkpt>
      <trkpt lat="49.17525" lon="-1.38271">
        <ele>27.261888</ele>
        <time>2021-09-05T13:03:27.000Z</time>
      </trkpt>
      <trkpt lat="49.17513" lon="-1.38253">
        <ele>27.443058</ele>
        <time>2021-09-05T13:03:32.000Z</time>
      </trkpt>
      <trkpt lat="49.17502" lon="-1.38216">
        <ele>27.740176</ele>
        <time>2021-09-05T13:03:39.000Z</time>
      </trkpt>
      <trkpt lat="49.1749" lon="-1.38172">
        <ele>28.085743</ele>
        <time>2021-09-05T13:03:47.000Z</time>
      </trkpt>
      <trkpt lat="49.1748" lon="-1.38134">
        <ele>28.39171</ele>
        <time>2021-09-05T13:03:54.000Z</time>
      </trkpt>
      <trkpt lat="49.17469" lon="-1.38107">
        <ele>28.554393</ele>
        <time>2021-09-05T13:03:59.000Z</time>
      </trkpt>
      <trkpt lat="49.17466" lon="-1.38101">
        <ele>28.576198</ele>
        <time>2021-09-05T13:04:00.000Z</time>
      </trkpt>
      <trkpt lat="49.17455" lon="-1.38075">
        <ele>28.671619</ele>
        <time>2021-09-05T13:04:04.000Z</time>
      </trkpt>
      <trkpt lat="49.17443" lon="-1.38047">
        <ele>28.77525</ele>
        <time>2021-09-05T13:04:09.000Z</time>
      </trkpt>
      <trkpt lat="49.17436" lon="-1.38031">
        <ele>28.833734</ele>
        <time>2021-09-05T13:04:12.000Z</time>
      </trkpt>
      <trkpt lat="49.17432" lon="-1.3802">
        <ele>28.874264</ele>
        <time>2021-09-05T13:04:14.000Z</time>
      </trkpt>
      <trkpt lat="49.17411" lon="-1.37976">
        <ele>29.039983</ele>
        <time>2021-09-05T13:04:21.000Z</time>
      </trkpt>
      <trkpt lat="49.17392" lon="-1.37938">
        <ele>29.184377</ele>
        <time>2021-09-05T13:04:27.000Z</time>
      </trkpt>
      <trkpt lat="49.17389" lon="-1.37932">
        <ele>29.207492</ele>
        <time>2021-09-05T13:04:28.000Z</time>
      </trkpt>
      <trkpt lat="49.17386" lon="-1.37926">
        <ele>29.232225</ele>
        <time>2021-09-05T13:04:29.000Z</time>
      </trkpt>
      <trkpt lat="49.17368" lon="-1.37897">
        <ele>29.353284</ele>
        <time>2021-09-05T13:04:34.000Z</time>
      </trkpt>
      <trkpt lat="49.17329" lon="-1.37834">
        <ele>29.560023</ele>
        <time>2021-09-05T13:04:45.000Z</time>
      </trkpt>
      <trkpt lat="49.17325" lon="-1.37828">
        <ele>29.579142</ele>
        <time>2021-09-05T13:04:46.000Z</time>
      </trkpt>
      <trkpt lat="49.17305" lon="-1.37793">
        <ele>29.690043</ele>
        <time>2021-09-05T13:04:52.000Z</time>
      </trkpt>
      <trkpt lat="49.17298" lon="-1.37783">
        <ele>29.725312</ele>
        <time>2021-09-05T13:04:54.000Z</time>
      </trkpt>
      <trkpt lat="49.17291" lon="-1.37771">
        <ele>29.762535</ele>
        <time>2021-09-05T13:04:56.000Z</time>
      </trkpt>
      <trkpt lat="49.1726" lon="-1.3772">
        <ele>29.926449</ele>
        <time>2021-09-05T13:05:04.000Z</time>
      </trkpt>
      <trkpt lat="49.17235" lon="-1.37673">
        <ele>30.245259</ele>
        <time>2021-09-05T13:05:11.000Z</time>
      </trkpt>
      <trkpt lat="49.17229" lon="-1.3766">
        <ele>30.387512</ele>
        <time>2021-09-05T13:05:13.000Z</time>
      </trkpt>
      <trkpt lat="49.17215" lon="-1.37634">
        <ele>30.664863</ele>
        <time>2021-09-05T13:05:17.000Z</time>
      </trkpt>
      <trkpt lat="49.17193" lon="-1.37592">
        <ele>31.121581</ele>
        <time>2021-09-05T13:05:24.000Z</time>
      </trkpt>
      <trkpt lat="49.17177" lon="-1.37562">
        <ele>31.437915</ele>
        <time>2021-09-05T13:05:29.000Z</time>
      </trkpt>
      <trkpt lat="49.17167" lon="-1.37543">
        <ele>31.650431</ele>
        <time>2021-09-05T13:05:33.000Z</time>
      </trkpt>
      <trkpt lat="49.17163" lon="-1.37536">
        <ele>31.719644</ele>
        <time>2021-09-05T13:05:34.000Z</time>
      </trkpt>
      <trkpt lat="49.17151" lon="-1.37513">
        <ele>31.9723</ele>
        <time>2021-09-05T13:05:37.000Z</time>
      </trkpt>
      <trkpt lat="49.17144" lon="-1.37499">
        <ele>32.1234</ele>
        <time>2021-09-05T13:05:39.000Z</time>
      </trkpt>
      <trkpt lat="49.17141" lon="-1.37492">
        <ele>32.190849</ele>
        <time>2021-09-05T13:05:40.000Z</time>
      </trkpt>
      <trkpt lat="49.17135" lon="-1.37477">
        <ele>32.331277</ele>
        <time>2021-09-05T13:05:42.000Z</time>
      </trkpt>
      <trkpt lat="49.1713" lon="-1.37461">
        <ele>32.458409</ele>
        <time>2021-09-05T13:05:44.000Z</time>
      </trkpt>
      <trkpt lat="49.17124" lon="-1.37445">
        <ele>32.594393</ele>
        <time>2021-09-05T13:05:46.000Z</time>
      </trkpt>
      <trkpt lat="49.17116" lon="-1.37417">
        <ele>32.809247</ele>
        <time>2021-09-05T13:05:49.000Z</time>
      </trkpt>
      <trkpt lat="49.17111" lon="-1.3739">
        <ele>33.005191</ele>
        <time>2021-09-05T13:05:52.000Z</time>
      </trkpt>
      <trkpt lat="49.17104" lon="-1.37366">
        <ele>33.193317</ele>
        <time>2021-09-05T13:05:55.000Z</time>
      </trkpt>
      <trkpt lat="49.17101" lon="-1.37357">
        <ele>33.259787</ele>
        <time>2021-09-05T13:05:56.000Z</time>
      </trkpt>
      <trkpt lat="49.17096" lon="-1.37339">
        <ele>33.406917</ele>
        <time>2021-09-05T13:05:58.000Z</time>
      </trkpt>
      <trkpt lat="49.17071" lon="-1.37306">
        <ele>33.762566</ele>
        <time>2021-09-05T13:06:03.000Z</time>
      </trkpt>
      <trkpt lat="49.17046" lon="-1.37273">
        <ele>34.122077</ele>
        <time>2021-09-05T13:06:08.000Z</time>
      </trkpt>
      <trkpt lat="49.17028" lon="-1.37249">
        <ele>34.249509</ele>
        <time>2021-09-05T13:06:12.000Z</time>
      </trkpt>
      <trkpt lat="49.17014" lon="-1.37231">
        <ele>34.223661</ele>
        <time>2021-09-05T13:06:15.000Z</time>
      </trkpt>
      <trkpt lat="49.17009" lon="-1.37224">
        <ele>34.213791</ele>
        <time>2021-09-05T13:06:16.000Z</time>
      </trkpt>
      <trkpt lat="49.16989" lon="-1.37165">
        <ele>34.15164</ele>
        <time>2021-09-05T13:06:22.000Z</time>
      </trkpt>
      <trkpt lat="49.16985" lon="-1.37125">
        <ele>34.113173</ele>
        <time>2021-09-05T13:06:26.000Z</time>
      </trkpt>
      <trkpt lat="49.16985" lon="-1.37114">
        <ele>34.103414</ele>
        <time>2021-09-05T13:06:27.000Z</time>
      </trkpt>
      <trkpt lat="49.16986" lon="-1.37043">
        <ele>34.036367</ele>
        <time>2021-09-05T13:06:34.000Z</time>
      </trkpt>
      <trkpt lat="49.16984" lon="-1.37014">
        <ele>34.009448</ele>
        <time>2021-09-05T13:06:37.000Z</time>
      </trkpt>
      <trkpt lat="49.16978" lon="-1.36998">
        <ele>34.008989</ele>
        <time>2021-09-05T13:06:39.000Z</time>
      </trkpt>
      <trkpt lat="49.1696" lon="-1.36956">
        <ele>34.014236</ele>
        <time>2021-09-05T13:06:45.000Z</time>
      </trkpt>
      <trkpt lat="49.16943" lon="-1.3692">
        <ele>34.018874</ele>
        <time>2021-09-05T13:06:51.000Z</time>
      </trkpt>
      <trkpt lat="49.16928" lon="-1.3689">
        <ele>34.022746</ele>
        <time>2021-09-05T13:06:57.000Z</time>
      </trkpt>
      <trkpt lat="49.16912" lon="-1.3686">
        <ele>34.026715</ele>
        <time>2021-09-05T13:07:03.000Z</time>
      </trkpt>
      <trkpt lat="49.16896" lon="-1.36827">
        <ele>34.031022</ele>
        <time>2021-09-05T13:07:09.000Z</time>
      </trkpt>
      <trkpt lat="49.16881" lon="-1.36797">
        <ele>34.034916</ele>
        <time>2021-09-05T13:07:15.000Z</time>
      </trkpt>
      <trkpt lat="49.16866" lon="-1.36766">
        <ele>33.917421</ele>
        <time>2021-09-05T13:07:22.000Z</time>
      </trkpt>
      <trkpt lat="49.16853" lon="-1.36738">
        <ele>33.778684</ele>
        <time>2021-09-05T13:07:27.000Z</time>
      </trkpt>
      <trkpt lat="49.1683" lon="-1.36691">
        <ele>33.54614</ele>
        <time>2021-09-05T13:07:34.000Z</time>
      </trkpt>
      <trkpt lat="49.16807" lon="-1.36643">
        <ele>33.30824</ele>
        <time>2021-09-05T13:07:41.000Z</time>
      </trkpt>
      <trkpt lat="49.16781" lon="-1.36593">
        <ele>33.048882</ele>
        <time>2021-09-05T13:07:49.000Z</time>
      </trkpt>
      <trkpt lat="49.16777" lon="-1.36587">
        <ele>33.016767</ele>
        <time>2021-09-05T13:07:50.000Z</time>
      </trkpt>
      <trkpt lat="49.16762" lon="-1.36565">
        <ele>32.98337</ele>
        <time>2021-09-05T13:07:54.000Z</time>
      </trkpt>
      <trkpt lat="49.16742" lon="-1.36533">
        <ele>33.1668</ele>
        <time>2021-09-05T13:08:00.000Z</time>
      </trkpt>
      <trkpt lat="49.16719" lon="-1.36497">
        <ele>33.380779</ele>
        <time>2021-09-05T13:08:07.000Z</time>
      </trkpt>
      <trkpt lat="49.16705" lon="-1.36475">
        <ele>33.510155</ele>
        <time>2021-09-05T13:08:11.000Z</time>
      </trkpt>
      <trkpt lat="49.16698" lon="-1.36465">
        <ele>33.568553</ele>
        <time>2021-09-05T13:08:13.000Z</time>
      </trkpt>
      <trkpt lat="49.1668" lon="-1.36438">
        <ele>33.729824</ele>
        <time>2021-09-05T13:08:18.000Z</time>
      </trkpt>
      <trkpt lat="49.16663" lon="-1.36402">
        <ele>33.920492</ele>
        <time>2021-09-05T13:08:24.000Z</time>
      </trkpt>
      <trkpt lat="49.1665" lon="-1.36376">
        <ele>34.056165</ele>
        <time>2021-09-05T13:08:28.000Z</time>
      </trkpt>
      <trkpt lat="49.16644" lon="-1.36362">
        <ele>34.140922</ele>
        <time>2021-09-05T13:08:30.000Z</time>
      </trkpt>
      <trkpt lat="49.16627" lon="-1.36326">
        <ele>34.41829</ele>
        <time>2021-09-05T13:08:36.000Z</time>
      </trkpt>
      <trkpt lat="49.16608" lon="-1.36275">
        <ele>34.779361</ele>
        <time>2021-09-05T13:08:43.000Z</time>
      </trkpt>
      <trkpt lat="49.16593" lon="-1.36232">
        <ele>35.087594</ele>
        <time>2021-09-05T13:08:49.000Z</time>
      </trkpt>
      <trkpt lat="49.1658" lon="-1.36197">
        <ele>35.336926</ele>
        <time>2021-09-05T13:08:54.000Z</time>
      </trkpt>
      <trkpt lat="49.16578" lon="-1.3619">
        <ele>35.384921</ele>
        <time>2021-09-05T13:08:55.000Z</time>
      </trkpt>
      <trkpt lat="49.16568" lon="-1.36144">
        <ele>35.684254</ele>
        <time>2021-09-05T13:09:01.000Z</time>
      </trkpt>
      <trkpt lat="49.16557" lon="-1.36093">
        <ele>35.988864</ele>
        <time>2021-09-05T13:09:08.000Z</time>
      </trkpt>
      <trkpt lat="49.16555" lon="-1.36087">
        <ele>36.027769</ele>
        <time>2021-09-05T13:09:09.000Z</time>
      </trkpt>
      <trkpt lat="49.16552" lon="-1.36074">
        <ele>36.10094</ele>
        <time>2021-09-05T13:09:11.000Z</time>
      </trkpt>
      <trkpt lat="49.16551" lon="-1.36068">
        <ele>36.135722</ele>
        <time>2021-09-05T13:09:12.000Z</time>
      </trkpt>
      <trkpt lat="49.16542" lon="-1.36024">
        <ele>36.386922</ele>
        <time>2021-09-05T13:09:18.000Z</time>
      </trkpt>
      <trkpt lat="49.16537" lon="-1.36001">
        <ele>36.517806</ele>
        <time>2021-09-05T13:09:21.000Z</time>
      </trkpt>
      <trkpt lat="49.1653" lon="-1.35972">
        <ele>36.682443</ele>
        <time>2021-09-05T13:09:25.000Z</time>
      </trkpt>
      <trkpt lat="49.16519" lon="-1.35921">
        <ele>36.970745</ele>
        <time>2021-09-05T13:09:32.000Z</time>
      </trkpt>
      <trkpt lat="49.16506" lon="-1.35857">
        <ele>37.309604</ele>
        <time>2021-09-05T13:09:41.000Z</time>
      </trkpt>
      <trkpt lat="49.16505" lon="-1.35827">
        <ele>37.379535</ele>
        <time>2021-09-05T13:09:45.000Z</time>
      </trkpt>
      <trkpt lat="49.16505" lon="-1.35805">
        <ele>37.431338</ele>
        <time>2021-09-05T13:09:48.000Z</time>
      </trkpt>
      <trkpt lat="49.16503" lon="-1.35724">
        <ele>37.619636</ele>
        <time>2021-09-05T13:09:59.000Z</time>
      </trkpt>
      <trkpt lat="49.16498" lon="-1.35669">
        <ele>37.749293</ele>
        <time>2021-09-05T13:10:07.000Z</time>
      </trkpt>
      <trkpt lat="49.16495" lon="-1.35636">
        <ele>37.826331</ele>
        <time>2021-09-05T13:10:12.000Z</time>
      </trkpt>
      <trkpt lat="49.16493" lon="-1.35616">
        <ele>37.873969</ele>
        <time>2021-09-05T13:10:15.000Z</time>
      </trkpt>
      <trkpt lat="49.16487" lon="-1.35559">
        <ele>37.870415</ele>
        <time>2021-09-05T13:10:23.000Z</time>
      </trkpt>
      <trkpt lat="49.16482" lon="-1.35505">
        <ele>37.77387</ele>
        <time>2021-09-05T13:10:31.000Z</time>
      </trkpt>
      <trkpt lat="49.16481" lon="-1.35462">
        <ele>37.700128</ele>
        <time>2021-09-05T13:10:37.000Z</time>
      </trkpt>
      <trkpt lat="49.16483" lon="-1.35448">
        <ele>37.675629</ele>
        <time>2021-09-05T13:10:39.000Z</time>
      </trkpt>
      <trkpt lat="49.16484" lon="-1.35434">
        <ele>37.651343</ele>
        <time>2021-09-05T13:10:41.000Z</time>
      </trkpt>
      <trkpt lat="49.16487" lon="-1.35406">
        <ele>37.601658</ele>
        <time>2021-09-05T13:10:45.000Z</time>
      </trkpt>
      <trkpt lat="49.16492" lon="-1.35339">
        <ele>37.484704</ele>
        <time>2021-09-05T13:10:54.000Z</time>
      </trkpt>
      <trkpt lat="49.16496" lon="-1.35271">
        <ele>37.349157</ele>
        <time>2021-09-05T13:11:03.000Z</time>
      </trkpt>
      <trkpt lat="49.16498" lon="-1.35225">
        <ele>37.25319</ele>
        <time>2021-09-05T13:11:09.000Z</time>
      </trkpt>
      <trkpt lat="49.165" lon="-1.35182">
        <ele>37.162005</ele>
        <time>2021-09-05T13:11:14.000Z</time>
      </trkpt>
      <trkpt lat="49.16501" lon="-1.35165">
        <ele>37.126465</ele>
        <time>2021-09-05T13:11:16.000Z</time>
      </trkpt>
      <trkpt lat="49.16501" lon="-1.35157">
        <ele>37.10911</ele>
        <time>2021-09-05T13:11:17.000Z</time>
      </trkpt>
      <trkpt lat="49.16501" lon="-1.35132">
        <ele>37.057597</ele>
        <time>2021-09-05T13:11:20.000Z</time>
      </trkpt>
      <trkpt lat="49.16497" lon="-1.35069">
        <ele>36.92486</ele>
        <time>2021-09-05T13:11:27.000Z</time>
      </trkpt>
      <trkpt lat="49.16493" lon="-1.3503">
        <ele>36.864243</ele>
        <time>2021-09-05T13:11:31.000Z</time>
      </trkpt>
      <trkpt lat="49.16486" lon="-1.35004">
        <ele>36.841717</ele>
        <time>2021-09-05T13:11:34.000Z</time>
      </trkpt>
      <trkpt lat="49.16473" lon="-1.34952">
        <ele>36.79838</ele>
        <time>2021-09-05T13:11:40.000Z</time>
      </trkpt>
      <trkpt lat="49.16462" lon="-1.34901">
        <ele>36.755772</ele>
        <time>2021-09-05T13:11:46.000Z</time>
      </trkpt>
      <trkpt lat="49.16448" lon="-1.34851">
        <ele>36.713328</ele>
        <time>2021-09-05T13:11:53.000Z</time>
      </trkpt>
      <trkpt lat="49.16436" lon="-1.34812">
        <ele>36.679422</ele>
        <time>2021-09-05T13:12:00.000Z</time>
      </trkpt>
      <trkpt lat="49.16424" lon="-1.34776">
        <ele>36.717154</ele>
        <time>2021-09-05T13:12:07.000Z</time>
      </trkpt>
      <trkpt lat="49.16416" lon="-1.34736">
        <ele>36.864292</ele>
        <time>2021-09-05T13:12:14.000Z</time>
      </trkpt>
      <trkpt lat="49.16407" lon="-1.3469">
        <ele>37.032023</ele>
        <time>2021-09-05T13:12:22.000Z</time>
      </trkpt>
      <trkpt lat="49.16398" lon="-1.34639">
        <ele>37.217319</ele>
        <time>2021-09-05T13:12:30.000Z</time>
      </trkpt>
      <trkpt lat="49.16395" lon="-1.34626">
        <ele>37.267314</ele>
        <time>2021-09-05T13:12:32.000Z</time>
      </trkpt>
      <trkpt lat="49.16391" lon="-1.34608">
        <ele>37.33524</ele>
        <time>2021-09-05T13:12:35.000Z</time>
      </trkpt>
      <trkpt lat="49.16377" lon="-1.34569">
        <ele>37.490405</ele>
        <time>2021-09-05T13:12:41.000Z</time>
      </trkpt>
      <trkpt lat="49.16356" lon="-1.3451">
        <ele>37.644101</ele>
        <time>2021-09-05T13:12:49.000Z</time>
      </trkpt>
      <trkpt lat="49.16341" lon="-1.34446">
        <ele>37.683338</ele>
        <time>2021-09-05T13:12:57.000Z</time>
      </trkpt>
      <trkpt lat="49.16333" lon="-1.34387">
        <ele>37.718751</ele>
        <time>2021-09-05T13:13:04.000Z</time>
      </trkpt>
      <trkpt lat="49.16329" lon="-1.34315">
        <ele>37.760937</ele>
        <time>2021-09-05T13:13:12.000Z</time>
      </trkpt>
      <trkpt lat="49.16327" lon="-1.34241">
        <ele>37.707768</ele>
        <time>2021-09-05T13:13:21.000Z</time>
      </trkpt>
      <trkpt lat="49.16322" lon="-1.34164">
        <ele>37.481169</ele>
        <time>2021-09-05T13:13:30.000Z</time>
      </trkpt>
      <trkpt lat="49.16319" lon="-1.34125">
        <ele>37.367238</ele>
        <time>2021-09-05T13:13:34.000Z</time>
      </trkpt>
      <trkpt lat="49.16318" lon="-1.34116">
        <ele>37.338695</ele>
        <time>2021-09-05T13:13:35.000Z</time>
      </trkpt>
      <trkpt lat="49.16313" lon="-1.34049">
        <ele>37.142091</ele>
        <time>2021-09-05T13:13:42.000Z</time>
      </trkpt>
      <trkpt lat="49.16304" lon="-1.33981">
        <ele>36.953741</ele>
        <time>2021-09-05T13:13:50.000Z</time>
      </trkpt>
      <trkpt lat="49.16293" lon="-1.33905">
        <ele>36.799374</ele>
        <time>2021-09-05T13:13:59.000Z</time>
      </trkpt>
      <trkpt lat="49.16284" lon="-1.33837">
        <ele>36.663403</ele>
        <time>2021-09-05T13:14:07.000Z</time>
      </trkpt>
      <trkpt lat="49.16278" lon="-1.3378">
        <ele>36.548789</ele>
        <time>2021-09-05T13:14:14.000Z</time>
      </trkpt>
      <trkpt lat="49.16272" lon="-1.33729">
        <ele>36.446215</ele>
        <time>2021-09-05T13:14:21.000Z</time>
      </trkpt>
      <trkpt lat="49.16265" lon="-1.33673">
        <ele>36.564143</ele>
        <time>2021-09-05T13:14:29.000Z</time>
      </trkpt>
      <trkpt lat="49.16258" lon="-1.33614">
        <ele>36.701536</ele>
        <time>2021-09-05T13:14:37.000Z</time>
      </trkpt>
      <trkpt lat="49.16255" lon="-1.33585">
        <ele>36.768847</ele>
        <time>2021-09-05T13:14:41.000Z</time>
      </trkpt>
      <trkpt lat="49.16252" lon="-1.33563">
        <ele>36.819193</ele>
        <time>2021-09-05T13:14:44.000Z</time>
      </trkpt>
      <trkpt lat="49.16249" lon="-1.33533">
        <ele>36.888311</ele>
        <time>2021-09-05T13:14:48.000Z</time>
      </trkpt>
      <trkpt lat="49.16247" lon="-1.3352">
        <ele>36.919536</ele>
        <time>2021-09-05T13:14:50.000Z</time>
      </trkpt>
      <trkpt lat="49.16235" lon="-1.33516">
        <ele>36.963781</ele>
        <time>2021-09-05T13:14:52.000Z</time>
      </trkpt>
      <trkpt lat="49.1623" lon="-1.33516">
        <ele>36.981322</ele>
        <time>2021-09-05T13:14:53.000Z</time>
      </trkpt>
      <trkpt lat="49.1622" lon="-1.33515">
        <ele>37.014303</ele>
        <time>2021-09-05T13:14:55.000Z</time>
      </trkpt>
      <trkpt lat="49.16211" lon="-1.33515">
        <ele>37.046233</ele>
        <time>2021-09-05T13:14:57.000Z</time>
      </trkpt>
      <trkpt lat="49.16206" lon="-1.33515">
        <ele>37.062723</ele>
        <time>2021-09-05T13:14:58.000Z</time>
      </trkpt>
      <trkpt lat="49.16172" lon="-1.33512">
        <ele>37.667657</ele>
        <time>2021-09-05T13:15:05.000Z</time>
      </trkpt>
      <trkpt lat="49.16168" lon="-1.33512">
        <ele>37.757562</ele>
        <time>2021-09-05T13:15:06.000Z</time>
      </trkpt>
      <trkpt lat="49.1614" lon="-1.3351">
        <ele>38.280166</ele>
        <time>2021-09-05T13:15:12.000Z</time>
      </trkpt>
      <trkpt lat="49.16121" lon="-1.33509">
        <ele>38.624883</ele>
        <time>2021-09-05T13:15:16.000Z</time>
      </trkpt>
      <trkpt lat="49.16112" lon="-1.33508">
        <ele>38.802825</ele>
        <time>2021-09-05T13:15:18.000Z</time>
      </trkpt>
      <trkpt lat="49.16089" lon="-1.33507">
        <ele>39.237393</ele>
        <time>2021-09-05T13:15:23.000Z</time>
      </trkpt>
      <trkpt lat="49.16079" lon="-1.33507">
        <ele>39.411508</ele>
        <time>2021-09-05T13:15:25.000Z</time>
      </trkpt>
      <trkpt lat="49.16047" lon="-1.33511">
        <ele>40.017971</ele>
        <time>2021-09-05T13:15:32.000Z</time>
      </trkpt>
      <trkpt lat="49.16015" lon="-1.33515">
        <ele>40.985609</ele>
        <time>2021-09-05T13:15:39.000Z</time>
      </trkpt>
      <trkpt lat="49.15978" lon="-1.3352">
        <ele>43.100119</ele>
        <time>2021-09-05T13:15:47.000Z</time>
      </trkpt>
      <trkpt lat="49.15949" lon="-1.33523">
        <ele>44.735252</ele>
        <time>2021-09-05T13:15:54.000Z</time>
      </trkpt>
      <trkpt lat="49.15935" lon="-1.33518">
        <ele>45.607605</ele>
        <time>2021-09-05T13:15:59.000Z</time>
      </trkpt>
      <trkpt lat="49.15928" lon="-1.33509">
        <ele>46.123852</ele>
        <time>2021-09-05T13:16:03.000Z</time>
      </trkpt>
      <trkpt lat="49.15912" lon="-1.3349">
        <ele>47.242628</ele>
        <time>2021-09-05T13:16:10.000Z</time>
      </trkpt>
      <trkpt lat="49.15901" lon="-1.33472">
        <ele>48.190972</ele>
        <time>2021-09-05T13:16:16.000Z</time>
      </trkpt>
      <trkpt lat="49.15892" lon="-1.33459">
        <ele>48.89847</ele>
        <time>2021-09-05T13:16:21.000Z</time>
      </trkpt>
      <trkpt lat="49.15884" lon="-1.33446">
        <ele>49.555465</ele>
        <time>2021-09-05T13:16:26.000Z</time>
      </trkpt>
      <trkpt lat="49.15881" lon="-1.33443">
        <ele>49.728442</ele>
        <time>2021-09-05T13:16:27.000Z</time>
      </trkpt>
      <trkpt lat="49.15873" lon="-1.3343">
        <ele>50.408069</ele>
        <time>2021-09-05T13:16:33.000Z</time>
      </trkpt>
      <trkpt lat="49.15865" lon="-1.33419">
        <ele>51.303528</ele>
        <time>2021-09-05T13:16:38.000Z</time>
      </trkpt>
      <trkpt lat="49.15857" lon="-1.33406">
        <ele>52.543929</ele>
        <time>2021-09-05T13:16:43.000Z</time>
      </trkpt>
      <trkpt lat="49.15848" lon="-1.33396">
        <ele>53.607421</ele>
        <time>2021-09-05T13:16:48.000Z</time>
      </trkpt>
      <trkpt lat="49.15836" lon="-1.33383">
        <ele>55.179887</ele>
        <time>2021-09-05T13:16:55.000Z</time>
      </trkpt>
      <trkpt lat="49.15825" lon="-1.33373">
        <ele>56.502753</ele>
        <time>2021-09-05T13:17:01.000Z</time>
      </trkpt>
      <trkpt lat="49.15817" lon="-1.33366">
        <ele>57.389955</ele>
        <time>2021-09-05T13:17:06.000Z</time>
      </trkpt>
      <trkpt lat="49.15807" lon="-1.33356">
        <ele>58.621588</ele>
        <time>2021-09-05T13:17:13.000Z</time>
      </trkpt>
      <trkpt lat="49.15794" lon="-1.33338">
        <ele>60.475957</ele>
        <time>2021-09-05T13:17:18.000Z</time>
      </trkpt>
      <trkpt lat="49.15787" lon="-1.33314">
        <ele>62.2766</ele>
        <time>2021-09-05T13:17:24.000Z</time>
      </trkpt>
      <trkpt lat="49.15777" lon="-1.33283">
        <ele>64.540118</ele>
        <time>2021-09-05T13:17:30.000Z</time>
      </trkpt>
      <trkpt lat="49.15766" lon="-1.33246">
        <ele>67.295318</ele>
        <time>2021-09-05T13:17:35.000Z</time>
      </trkpt>
      <trkpt lat="49.15748" lon="-1.33185">
        <ele>68.881586</ele>
        <time>2021-09-05T13:17:41.000Z</time>
      </trkpt>
      <trkpt lat="49.1572" lon="-1.33108">
        <ele>68.138489</ele>
        <time>2021-09-05T13:17:48.000Z</time>
      </trkpt>
      <trkpt lat="49.1569" lon="-1.33035">
        <ele>67.405917</ele>
        <time>2021-09-05T13:17:55.000Z</time>
      </trkpt>
      <trkpt lat="49.15671" lon="-1.32977">
        <ele>66.82576</ele>
        <time>2021-09-05T13:18:01.000Z</time>
      </trkpt>
      <trkpt lat="49.15644" lon="-1.32909">
        <ele>65.325952</ele>
        <time>2021-09-05T13:18:09.000Z</time>
      </trkpt>
      <trkpt lat="49.15615" lon="-1.32846">
        <ele>63.889556</ele>
        <time>2021-09-05T13:18:15.000Z</time>
      </trkpt>
      <trkpt lat="49.15598" lon="-1.3279">
        <ele>62.715108</ele>
        <time>2021-09-05T13:18:20.000Z</time>
      </trkpt>
      <trkpt lat="49.15598" lon="-1.32777">
        <ele>62.470207</ele>
        <time>2021-09-05T13:18:21.000Z</time>
      </trkpt>
      <trkpt lat="49.15598" lon="-1.32763">
        <ele>62.219659</ele>
        <time>2021-09-05T13:18:22.000Z</time>
      </trkpt>
      <trkpt lat="49.15599" lon="-1.32736">
        <ele>61.693917</ele>
        <time>2021-09-05T13:18:24.000Z</time>
      </trkpt>
      <trkpt lat="49.15607" lon="-1.32659">
        <ele>59.274551</ele>
        <time>2021-09-05T13:18:29.000Z</time>
      </trkpt>
      <trkpt lat="49.15613" lon="-1.32587">
        <ele>57.020913</ele>
        <time>2021-09-05T13:18:34.000Z</time>
      </trkpt>
      <trkpt lat="49.15608" lon="-1.32559">
        <ele>56.119459</ele>
        <time>2021-09-05T13:18:36.000Z</time>
      </trkpt>
      <trkpt lat="49.15604" lon="-1.32544">
        <ele>55.630025</ele>
        <time>2021-09-05T13:18:37.000Z</time>
      </trkpt>
      <trkpt lat="49.15583" lon="-1.32458">
        <ele>52.701063</ele>
        <time>2021-09-05T13:18:43.000Z</time>
      </trkpt>
      <trkpt lat="49.15572" lon="-1.32416">
        <ele>51.170168</ele>
        <time>2021-09-05T13:18:46.000Z</time>
      </trkpt>
      <trkpt lat="49.15553" lon="-1.3234">
        <ele>48.325148</ele>
        <time>2021-09-05T13:18:52.000Z</time>
      </trkpt>
      <trkpt lat="49.15531" lon="-1.32254">
        <ele>45.131865</ele>
        <time>2021-09-05T13:18:59.000Z</time>
      </trkpt>
      <trkpt lat="49.15527" lon="-1.32243">
        <ele>44.700994</ele>
        <time>2021-09-05T13:19:00.000Z</time>
      </trkpt>
      <trkpt lat="49.15519" lon="-1.32222">
        <ele>43.859511</ele>
        <time>2021-09-05T13:19:02.000Z</time>
      </trkpt>
      <trkpt lat="49.15505" lon="-1.32179">
        <ele>42.078548</ele>
        <time>2021-09-05T13:19:06.000Z</time>
      </trkpt>
      <trkpt lat="49.15485" lon="-1.32122">
        <ele>39.694037</ele>
        <time>2021-09-05T13:19:12.000Z</time>
      </trkpt>
      <trkpt lat="49.15467" lon="-1.32064">
        <ele>37.316221</ele>
        <time>2021-09-05T13:19:19.000Z</time>
      </trkpt>
      <trkpt lat="49.15463" lon="-1.32051">
        <ele>36.758386</ele>
        <time>2021-09-05T13:19:21.000Z</time>
      </trkpt>
      <trkpt lat="49.1546" lon="-1.32039">
        <ele>36.282358</ele>
        <time>2021-09-05T13:19:23.000Z</time>
      </trkpt>
      <trkpt lat="49.15448" lon="-1.32032">
        <ele>35.557364</ele>
        <time>2021-09-05T13:19:26.000Z</time>
      </trkpt>
      <trkpt lat="49.15421" lon="-1.32029">
        <ele>34.012693</ele>
        <time>2021-09-05T13:19:33.000Z</time>
      </trkpt>
      <trkpt lat="49.15384" lon="-1.32017">
        <ele>32.539792</ele>
        <time>2021-09-05T13:19:42.000Z</time>
      </trkpt>
      <trkpt lat="49.15339" lon="-1.32">
        <ele>31.030456</ele>
        <time>2021-09-05T13:19:53.000Z</time>
      </trkpt>
      <trkpt lat="49.15308" lon="-1.31986">
        <ele>29.964766</ele>
        <time>2021-09-05T13:20:01.000Z</time>
      </trkpt>
      <trkpt lat="49.15268" lon="-1.31971">
        <ele>28.619918</ele>
        <time>2021-09-05T13:20:11.000Z</time>
      </trkpt>
      <trkpt lat="49.1524" lon="-1.31964">
        <ele>27.695496</ele>
        <time>2021-09-05T13:20:18.000Z</time>
      </trkpt>
      <trkpt lat="49.1521" lon="-1.31968">
        <ele>27.573134</ele>
        <time>2021-09-05T13:20:25.000Z</time>
      </trkpt>
      <trkpt lat="49.15185" lon="-1.31981">
        <ele>27.608881</ele>
        <time>2021-09-05T13:20:32.000Z</time>
      </trkpt>
      <trkpt lat="49.15153" lon="-1.32001">
        <ele>27.655836</ele>
        <time>2021-09-05T13:20:42.000Z</time>
      </trkpt>
      <trkpt lat="49.15125" lon="-1.32019">
        <ele>27.698106</ele>
        <time>2021-09-05T13:20:51.000Z</time>
      </trkpt>
      <trkpt lat="49.15097" lon="-1.32034">
        <ele>27.737177</ele>
        <time>2021-09-05T13:20:59.000Z</time>
      </trkpt>
      <trkpt lat="49.15078" lon="-1.32044">
        <ele>27.764668</ele>
        <time>2021-09-05T13:21:05.000Z</time>
      </trkpt>
      <trkpt lat="49.15052" lon="-1.32059">
        <ele>27.54514</ele>
        <time>2021-09-05T13:21:14.000Z</time>
      </trkpt>
      <trkpt lat="49.15044" lon="-1.32063">
        <ele>27.414451</ele>
        <time>2021-09-05T13:21:17.000Z</time>
      </trkpt>
      <trkpt lat="49.15039" lon="-1.32063">
        <ele>27.324434</ele>
        <time>2021-09-05T13:21:18.000Z</time>
      </trkpt>
      <trkpt lat="49.15035" lon="-1.32052">
        <ele>27.182669</ele>
        <time>2021-09-05T13:21:20.000Z</time>
      </trkpt>
      <trkpt lat="49.15031" lon="-1.32043">
        <ele>27.079449</ele>
        <time>2021-09-05T13:21:21.000Z</time>
      </trkpt>
      <trkpt lat="49.1502" lon="-1.32013">
        <ele>26.708712</ele>
        <time>2021-09-05T13:21:24.000Z</time>
      </trkpt>
      <trkpt lat="49.15014" lon="-1.32006">
        <ele>26.577718</ele>
        <time>2021-09-05T13:21:25.000Z</time>
      </trkpt>
      <trkpt lat="49.15007" lon="-1.31999">
        <ele>26.440269</ele>
        <time>2021-09-05T13:21:26.000Z</time>
      </trkpt>
      <trkpt lat="49.14994" lon="-1.31986">
        <ele>26.180576</ele>
        <time>2021-09-05T13:21:28.000Z</time>
      </trkpt>
      <trkpt lat="49.14987" lon="-1.31979">
        <ele>26.053661</ele>
        <time>2021-09-05T13:21:29.000Z</time>
      </trkpt>
      <trkpt lat="49.14974" lon="-1.31962">
        <ele>25.773893</ele>
        <time>2021-09-05T13:21:31.000Z</time>
      </trkpt>
      <trkpt lat="49.14949" lon="-1.31926">
        <ele>25.208634</ele>
        <time>2021-09-05T13:21:35.000Z</time>
      </trkpt>
      <trkpt lat="49.14943" lon="-1.31919">
        <ele>25.086611</ele>
        <time>2021-09-05T13:21:36.000Z</time>
      </trkpt>
      <trkpt lat="49.14927" lon="-1.31902">
        <ele>24.796416</ele>
        <time>2021-09-05T13:21:39.000Z</time>
      </trkpt>
      <trkpt lat="49.14893" lon="-1.31871">
        <ele>24.409208</ele>
        <time>2021-09-05T13:21:45.000Z</time>
      </trkpt>
      <trkpt lat="49.1488" lon="-1.31867">
        <ele>24.278526</ele>
        <time>2021-09-05T13:21:47.000Z</time>
      </trkpt>
      <trkpt lat="49.14868" lon="-1.31863">
        <ele>24.15389</ele>
        <time>2021-09-05T13:21:49.000Z</time>
      </trkpt>
      <trkpt lat="49.14835" lon="-1.31847">
        <ele>23.813796</ele>
        <time>2021-09-05T13:21:55.000Z</time>
      </trkpt>
      <trkpt lat="49.14831" lon="-1.31843">
        <ele>23.764846</ele>
        <time>2021-09-05T13:21:56.000Z</time>
      </trkpt>
      <trkpt lat="49.14823" lon="-1.31834">
        <ele>23.670914</ele>
        <time>2021-09-05T13:21:58.000Z</time>
      </trkpt>
      <trkpt lat="49.14816" lon="-1.31826">
        <ele>23.586429</ele>
        <time>2021-09-05T13:22:00.000Z</time>
      </trkpt>
      <trkpt lat="49.14801" lon="-1.31809">
        <ele>23.402982</ele>
        <time>2021-09-05T13:22:06.000Z</time>
      </trkpt>
      <trkpt lat="49.1479" lon="-1.31797">
        <ele>23.271159</ele>
        <time>2021-09-05T13:22:12.000Z</time>
      </trkpt>
      <trkpt lat="49.14784" lon="-1.31791">
        <ele>23.197627</ele>
        <time>2021-09-05T13:22:16.000Z</time>
      </trkpt>
      <trkpt lat="49.14776" lon="-1.31781">
        <ele>23.09241</ele>
        <time>2021-09-05T13:22:21.000Z</time>
      </trkpt>
      <trkpt lat="49.14763" lon="-1.31767">
        <ele>24.023268</ele>
        <time>2021-09-05T13:22:27.000Z</time>
      </trkpt>
      <trkpt lat="49.1475" lon="-1.3175">
        <ele>25.260346</ele>
        <time>2021-09-05T13:22:34.000Z</time>
      </trkpt>
      <trkpt lat="49.14743" lon="-1.31737">
        <ele>26.039074</ele>
        <time>2021-09-05T13:22:39.000Z</time>
      </trkpt>
      <trkpt lat="49.14731" lon="-1.31716">
        <ele>27.344521</ele>
        <time>2021-09-05T13:22:46.000Z</time>
      </trkpt>
      <trkpt lat="49.14721" lon="-1.31699">
        <ele>28.458534</ele>
        <time>2021-09-05T13:22:52.000Z</time>
      </trkpt>
      <trkpt lat="49.14713" lon="-1.31684">
        <ele>29.364526</ele>
        <time>2021-09-05T13:22:58.000Z</time>
      </trkpt>
      <trkpt lat="49.14702" lon="-1.31672">
        <ele>30.348619</ele>
        <time>2021-09-05T13:23:04.000Z</time>
      </trkpt>
      <trkpt lat="49.14686" lon="-1.3167">
        <ele>31.540561</ele>
        <time>2021-09-05T13:23:11.000Z</time>
      </trkpt>
      <trkpt lat="49.14668" lon="-1.31665">
        <ele>32.861696</ele>
        <time>2021-09-05T13:23:17.000Z</time>
      </trkpt>
      <trkpt lat="49.14646" lon="-1.31646">
        <ele>34.667017</ele>
        <time>2021-09-05T13:23:24.000Z</time>
      </trkpt>
      <trkpt lat="49.14624" lon="-1.31626">
        <ele>36.270559</ele>
        <time>2021-09-05T13:23:31.000Z</time>
      </trkpt>
      <trkpt lat="49.14599" lon="-1.31605">
        <ele>37.095012</ele>
        <time>2021-09-05T13:23:38.000Z</time>
      </trkpt>
      <trkpt lat="49.14574" lon="-1.31582">
        <ele>37.955972</ele>
        <time>2021-09-05T13:23:45.000Z</time>
      </trkpt>
      <trkpt lat="49.14546" lon="-1.31558">
        <ele>38.884872</ele>
        <time>2021-09-05T13:23:52.000Z</time>
      </trkpt>
      <trkpt lat="49.14517" lon="-1.31535">
        <ele>39.841255</ele>
        <time>2021-09-05T13:23:59.000Z</time>
      </trkpt>
      <trkpt lat="49.1449" lon="-1.31517">
        <ele>40.718933</ele>
        <time>2021-09-05T13:24:06.000Z</time>
      </trkpt>
      <trkpt lat="49.14482" lon="-1.31508">
        <ele>40.996114</ele>
        <time>2021-09-05T13:24:08.000Z</time>
      </trkpt>
      <trkpt lat="49.14474" lon="-1.31497">
        <ele>41.31297</ele>
        <time>2021-09-05T13:24:10.000Z</time>
      </trkpt>
      <trkpt lat="49.14458" lon="-1.31466">
        <ele>41.370893</ele>
        <time>2021-09-05T13:24:14.000Z</time>
      </trkpt>
      <trkpt lat="49.14454" lon="-1.31456">
        <ele>41.377535</ele>
        <time>2021-09-05T13:24:15.000Z</time>
      </trkpt>
      <trkpt lat="49.14451" lon="-1.31446">
        <ele>41.384138</ele>
        <time>2021-09-05T13:24:16.000Z</time>
      </trkpt>
      <trkpt lat="49.14447" lon="-1.31424">
        <ele>41.398092</ele>
        <time>2021-09-05T13:24:18.000Z</time>
      </trkpt>
      <trkpt lat="49.14442" lon="-1.31399">
        <ele>41.413801</ele>
        <time>2021-09-05T13:24:20.000Z</time>
      </trkpt>
      <trkpt lat="49.14438" lon="-1.31376">
        <ele>41.428704</ele>
        <time>2021-09-05T13:24:22.000Z</time>
      </trkpt>
      <trkpt lat="49.14427" lon="-1.31318">
        <ele>41.464753</ele>
        <time>2021-09-05T13:24:27.000Z</time>
      </trkpt>
      <trkpt lat="49.14424" lon="-1.31306">
        <ele>41.472436</ele>
        <time>2021-09-05T13:24:28.000Z</time>
      </trkpt>
      <trkpt lat="49.14412" lon="-1.31275">
        <ele>41.494642</ele>
        <time>2021-09-05T13:24:31.000Z</time>
      </trkpt>
      <trkpt lat="49.14388" lon="-1.31239">
        <ele>41.32986</ele>
        <time>2021-09-05T13:24:36.000Z</time>
      </trkpt>
      <trkpt lat="49.14372" lon="-1.31221">
        <ele>41.0589</ele>
        <time>2021-09-05T13:24:40.000Z</time>
      </trkpt>
      <trkpt lat="49.14364" lon="-1.31208">
        <ele>40.889361</ele>
        <time>2021-09-05T13:24:44.000Z</time>
      </trkpt>
      <trkpt lat="49.14356" lon="-1.31188">
        <ele>40.669646</ele>
        <time>2021-09-05T13:24:49.000Z</time>
      </trkpt>
      <trkpt lat="49.14347" lon="-1.31166">
        <ele>40.434406</ele>
        <time>2021-09-05T13:24:55.000Z</time>
      </trkpt>
      <trkpt lat="49.14339" lon="-1.31148">
        <ele>40.23254</ele>
        <time>2021-09-05T13:25:00.000Z</time>
      </trkpt>
      <trkpt lat="49.14333" lon="-1.31133">
        <ele>40.062507</ele>
        <time>2021-09-05T13:25:05.000Z</time>
      </trkpt>
      <trkpt lat="49.14322" lon="-1.31107">
        <ele>39.784562</ele>
        <time>2021-09-05T13:25:09.000Z</time>
      </trkpt>
      <trkpt lat="49.14308" lon="-1.31072">
        <ele>39.393269</ele>
        <time>2021-09-05T13:25:13.000Z</time>
      </trkpt>
      <trkpt lat="49.14283" lon="-1.31013">
        <ele>38.507867</ele>
        <time>2021-09-05T13:25:18.000Z</time>
      </trkpt>
      <trkpt lat="49.14254" lon="-1.30943">
        <ele>36.844183</ele>
        <time>2021-09-05T13:25:23.000Z</time>
      </trkpt>
      <trkpt lat="49.14227" lon="-1.30887">
        <ele>35.432479</ele>
        <time>2021-09-05T13:25:27.000Z</time>
      </trkpt>
      <trkpt lat="49.14208" lon="-1.3087">
        <ele>34.769583</ele>
        <time>2021-09-05T13:25:29.000Z</time>
      </trkpt>
      <trkpt lat="49.14198" lon="-1.30863">
        <ele>34.438066</ele>
        <time>2021-09-05T13:25:30.000Z</time>
      </trkpt>
      <trkpt lat="49.14163" lon="-1.30838">
        <ele>33.24599</ele>
        <time>2021-09-05T13:25:34.000Z</time>
      </trkpt>
      <trkpt lat="49.14124" lon="-1.30807">
        <ele>32.018558</ele>
        <time>2021-09-05T13:25:39.000Z</time>
      </trkpt>
      <trkpt lat="49.14104" lon="-1.30794">
        <ele>31.411829</ele>
        <time>2021-09-05T13:25:42.000Z</time>
      </trkpt>
      <trkpt lat="49.14094" lon="-1.30781">
        <ele>31.021063</ele>
        <time>2021-09-05T13:25:44.000Z</time>
      </trkpt>
      <trkpt lat="49.14086" lon="-1.30768">
        <ele>30.692427</ele>
        <time>2021-09-05T13:25:46.000Z</time>
      </trkpt>
      <trkpt lat="49.14079" lon="-1.30755">
        <ele>30.379666</ele>
        <time>2021-09-05T13:25:48.000Z</time>
      </trkpt>
      <trkpt lat="49.14065" lon="-1.30727">
        <ele>29.730823</ele>
        <time>2021-09-05T13:25:53.000Z</time>
      </trkpt>
      <trkpt lat="49.14055" lon="-1.30707">
        <ele>29.262109</ele>
        <time>2021-09-05T13:25:58.000Z</time>
      </trkpt>
      <trkpt lat="49.14042" lon="-1.30683">
        <ele>28.686935</ele>
        <time>2021-09-05T13:26:05.000Z</time>
      </trkpt>
      <trkpt lat="49.14027" lon="-1.30656">
        <ele>28.547875</ele>
        <time>2021-09-05T13:26:13.000Z</time>
      </trkpt>
      <trkpt lat="49.14015" lon="-1.30633">
        <ele>28.870116</ele>
        <time>2021-09-05T13:26:20.000Z</time>
      </trkpt>
      <trkpt lat="49.14006" lon="-1.30617">
        <ele>29.106731</ele>
        <time>2021-09-05T13:26:26.000Z</time>
      </trkpt>
      <trkpt lat="49.13993" lon="-1.30592">
        <ele>29.458656</ele>
        <time>2021-09-05T13:26:35.000Z</time>
      </trkpt>
      <trkpt lat="49.13984" lon="-1.30575">
        <ele>29.695948</ele>
        <time>2021-09-05T13:26:41.000Z</time>
      </trkpt>
      <trkpt lat="49.13974" lon="-1.30554">
        <ele>29.985142</ele>
        <time>2021-09-05T13:26:48.000Z</time>
      </trkpt>
      <trkpt lat="49.13963" lon="-1.30533">
        <ele>30.28163</ele>
        <time>2021-09-05T13:26:55.000Z</time>
      </trkpt>
      <trkpt lat="49.13952" lon="-1.30513">
        <ele>30.568917</ele>
        <time>2021-09-05T13:27:02.000Z</time>
      </trkpt>
      <trkpt lat="49.13939" lon="-1.30486">
        <ele>30.945954</ele>
        <time>2021-09-05T13:27:11.000Z</time>
      </trkpt>
      <trkpt lat="49.13924" lon="-1.30481">
        <ele>31.201137</ele>
        <time>2021-09-05T13:27:17.000Z</time>
      </trkpt>
      <trkpt lat="49.13907" lon="-1.30473">
        <ele>31.612582</ele>
        <time>2021-09-05T13:27:24.000Z</time>
      </trkpt>
      <trkpt lat="49.13893" lon="-1.30445">
        <ele>32.426712</ele>
        <time>2021-09-05T13:27:33.000Z</time>
      </trkpt>
      <trkpt lat="49.13878" lon="-1.30413">
        <ele>33.328203</ele>
        <time>2021-09-05T13:27:43.000Z</time>
      </trkpt>
      <trkpt lat="49.13862" lon="-1.3039">
        <ele>34.107567</ele>
        <time>2021-09-05T13:27:52.000Z</time>
      </trkpt>
      <trkpt lat="49.13845" lon="-1.30375">
        <ele>34.811795</ele>
        <time>2021-09-05T13:28:00.000Z</time>
      </trkpt>
      <trkpt lat="49.13828" lon="-1.30366">
        <ele>35.435256</ele>
        <time>2021-09-05T13:28:07.000Z</time>
      </trkpt>
      <trkpt lat="49.13811" lon="-1.3034">
        <ele>36.289532</ele>
        <time>2021-09-05T13:28:15.000Z</time>
      </trkpt>
      <trkpt lat="49.13788" lon="-1.30306">
        <ele>37.420503</ele>
        <time>2021-09-05T13:28:24.000Z</time>
      </trkpt>
      <trkpt lat="49.13763" lon="-1.30271">
        <ele>37.982284</ele>
        <time>2021-09-05T13:28:33.000Z</time>
      </trkpt>
      <trkpt lat="49.13736" lon="-1.30235">
        <ele>38.343664</ele>
        <time>2021-09-05T13:28:42.000Z</time>
      </trkpt>
      <trkpt lat="49.1372" lon="-1.30215">
        <ele>38.55862</ele>
        <time>2021-09-05T13:28:48.000Z</time>
      </trkpt>
      <trkpt lat="49.137" lon="-1.3019">
        <ele>38.820935</ele>
        <time>2021-09-05T13:28:54.000Z</time>
      </trkpt>
      <trkpt lat="49.13676" lon="-1.30155">
        <ele>39.160169</ele>
        <time>2021-09-05T13:28:59.000Z</time>
      </trkpt>
      <trkpt lat="49.13642" lon="-1.30105">
        <ele>39.491459</ele>
        <time>2021-09-05T13:29:04.000Z</time>
      </trkpt>
      <trkpt lat="49.13603" lon="-1.3005">
        <ele>38.971104</ele>
        <time>2021-09-05T13:29:09.000Z</time>
      </trkpt>
      <trkpt lat="49.13587" lon="-1.30029">
        <ele>38.762773</ele>
        <time>2021-09-05T13:29:11.000Z</time>
      </trkpt>
      <trkpt lat="49.13577" lon="-1.30007">
        <ele>38.591889</ele>
        <time>2021-09-05T13:29:13.000Z</time>
      </trkpt>
      <trkpt lat="49.13574" lon="-1.2998">
        <ele>38.415694</ele>
        <time>2021-09-05T13:29:15.000Z</time>
      </trkpt>
      <trkpt lat="49.13573" lon="-1.29968">
        <ele>38.335593</ele>
        <time>2021-09-05T13:29:16.000Z</time>
      </trkpt>
      <trkpt lat="49.13569" lon="-1.29945">
        <ele>38.187216</ele>
        <time>2021-09-05T13:29:18.000Z</time>
      </trkpt>
      <trkpt lat="49.13563" lon="-1.29927">
        <ele>38.055517</ele>
        <time>2021-09-05T13:29:20.000Z</time>
      </trkpt>
      <trkpt lat="49.13558" lon="-1.29912">
        <ele>37.943673</ele>
        <time>2021-09-05T13:29:22.000Z</time>
      </trkpt>
      <trkpt lat="49.13552" lon="-1.29901">
        <ele>37.853118</ele>
        <time>2021-09-05T13:29:24.000Z</time>
      </trkpt>
      <trkpt lat="49.13538" lon="-1.29877">
        <ele>37.834843</ele>
        <time>2021-09-05T13:29:30.000Z</time>
      </trkpt>
      <trkpt lat="49.13522" lon="-1.2985">
        <ele>37.881002</ele>
        <time>2021-09-05T13:29:37.000Z</time>
      </trkpt>
      <trkpt lat="49.13502" lon="-1.29816">
        <ele>37.941546</ele>
        <time>2021-09-05T13:29:45.000Z</time>
      </trkpt>
      <trkpt lat="49.13476" lon="-1.29771">
        <ele>38.018888</ele>
        <time>2021-09-05T13:29:54.000Z</time>
      </trkpt>
      <trkpt lat="49.13453" lon="-1.29732">
        <ele>38.086902</ele>
        <time>2021-09-05T13:30:01.000Z</time>
      </trkpt>
      <trkpt lat="49.13433" lon="-1.29689">
        <ele>38.154752</ele>
        <time>2021-09-05T13:30:07.000Z</time>
      </trkpt>
      <trkpt lat="49.13402" lon="-1.29643">
        <ele>38.317591</ele>
        <time>2021-09-05T13:30:14.000Z</time>
      </trkpt>
      <trkpt lat="49.1338" lon="-1.29614">
        <ele>38.429765</ele>
        <time>2021-09-05T13:30:20.000Z</time>
      </trkpt>
      <trkpt lat="49.13369" lon="-1.29601">
        <ele>38.481775</ele>
        <time>2021-09-05T13:30:23.000Z</time>
      </trkpt>
      <trkpt lat="49.13361" lon="-1.29597">
        <ele>38.516355</ele>
        <time>2021-09-05T13:30:25.000Z</time>
      </trkpt>
      <trkpt lat="49.13341" lon="-1.29587">
        <ele>38.595722</ele>
        <time>2021-09-05T13:30:30.000Z</time>
      </trkpt>
      <trkpt lat="49.13335" lon="-1.29579">
        <ele>38.625942</ele>
        <time>2021-09-05T13:30:32.000Z</time>
      </trkpt>
      <trkpt lat="49.13328" lon="-1.29564">
        <ele>38.673234</ele>
        <time>2021-09-05T13:30:35.000Z</time>
      </trkpt>
      <trkpt lat="49.13319" lon="-1.29547">
        <ele>38.728351</ele>
        <time>2021-09-05T13:30:38.000Z</time>
      </trkpt>
      <trkpt lat="49.1331" lon="-1.2953">
        <ele>38.783467</ele>
        <time>2021-09-05T13:30:41.000Z</time>
      </trkpt>
      <trkpt lat="49.13296" lon="-1.29505">
        <ele>38.858045</ele>
        <time>2021-09-05T13:30:45.000Z</time>
      </trkpt>
      <trkpt lat="49.13289" lon="-1.29491">
        <ele>38.883839</ele>
        <time>2021-09-05T13:30:47.000Z</time>
      </trkpt>
      <trkpt lat="49.13268" lon="-1.2945">
        <ele>38.958386</ele>
        <time>2021-09-05T13:30:52.000Z</time>
      </trkpt>
      <trkpt lat="49.1324" lon="-1.2938">
        <ele>39.074009</ele>
        <time>2021-09-05T13:30:59.000Z</time>
      </trkpt>
      <trkpt lat="49.13218" lon="-1.29324">
        <ele>39.166745</ele>
        <time>2021-09-05T13:31:05.000Z</time>
      </trkpt>
      <trkpt lat="49.13209" lon="-1.29309">
        <ele>39.195768</ele>
        <time>2021-09-05T13:31:07.000Z</time>
      </trkpt>
      <trkpt lat="49.13195" lon="-1.29291">
        <ele>39.236424</ele>
        <time>2021-09-05T13:31:10.000Z</time>
      </trkpt>
      <trkpt lat="49.13183" lon="-1.29277">
        <ele>39.810952</ele>
        <time>2021-09-05T13:31:13.000Z</time>
      </trkpt>
      <trkpt lat="49.13177" lon="-1.29269">
        <ele>40.182453</ele>
        <time>2021-09-05T13:31:15.000Z</time>
      </trkpt>
      <trkpt lat="49.13167" lon="-1.29256">
        <ele>40.790728</ele>
        <time>2021-09-05T13:31:20.000Z</time>
      </trkpt>
      <trkpt lat="49.13156" lon="-1.29242">
        <ele>41.451805</ele>
        <time>2021-09-05T13:31:26.000Z</time>
      </trkpt>
      <trkpt lat="49.13145" lon="-1.29229">
        <ele>42.061976</ele>
        <time>2021-09-05T13:31:32.000Z</time>
      </trkpt>
      <trkpt lat="49.13132" lon="-1.29213">
        <ele>42.859673</ele>
        <time>2021-09-05T13:31:39.000Z</time>
      </trkpt>
      <trkpt lat="49.13118" lon="-1.29197">
        <ele>43.640848</ele>
        <time>2021-09-05T13:31:47.000Z</time>
      </trkpt>
      <trkpt lat="49.13106" lon="-1.29185">
        <ele>44.320998</ele>
        <time>2021-09-05T13:31:55.000Z</time>
      </trkpt>
      <trkpt lat="49.13092" lon="-1.29175">
        <ele>45.014088</ele>
        <time>2021-09-05T13:32:03.000Z</time>
      </trkpt>
      <trkpt lat="49.13075" lon="-1.29173">
        <ele>45.803646</ele>
        <time>2021-09-05T13:32:12.000Z</time>
      </trkpt>
      <trkpt lat="49.13058" lon="-1.29171">
        <ele>46.561387</ele>
        <time>2021-09-05T13:32:20.000Z</time>
      </trkpt>
      <trkpt lat="49.13043" lon="-1.29169">
        <ele>47.260963</ele>
        <time>2021-09-05T13:32:27.000Z</time>
      </trkpt>
      <trkpt lat="49.13029" lon="-1.29165">
        <ele>47.964762</ele>
        <time>2021-09-05T13:32:33.000Z</time>
      </trkpt>
      <trkpt lat="49.1301" lon="-1.29159">
        <ele>48.923163</ele>
        <time>2021-09-05T13:32:42.000Z</time>
      </trkpt>
      <trkpt lat="49.12992" lon="-1.29153">
        <ele>49.811671</ele>
        <time>2021-09-05T13:32:50.000Z</time>
      </trkpt>
      <trkpt lat="49.12973" lon="-1.29146">
        <ele>50.806051</ele>
        <time>2021-09-05T13:32:59.000Z</time>
      </trkpt>
      <trkpt lat="49.12957" lon="-1.29141">
        <ele>51.5873</ele>
        <time>2021-09-05T13:33:06.000Z</time>
      </trkpt>
      <trkpt lat="49.12936" lon="-1.29134">
        <ele>52.668423</ele>
        <time>2021-09-05T13:33:15.000Z</time>
      </trkpt>
      <trkpt lat="49.12923" lon="-1.29116">
        <ele>53.536459</ele>
        <time>2021-09-05T13:33:22.000Z</time>
      </trkpt>
      <trkpt lat="49.12904" lon="-1.29092">
        <ele>54.771102</ele>
        <time>2021-09-05T13:33:31.000Z</time>
      </trkpt>
      <trkpt lat="49.12895" lon="-1.2908">
        <ele>55.359036</ele>
        <time>2021-09-05T13:33:36.000Z</time>
      </trkpt>
      <trkpt lat="49.12881" lon="-1.29062">
        <ele>56.230847</ele>
        <time>2021-09-05T13:33:44.000Z</time>
      </trkpt>
      <trkpt lat="49.12869" lon="-1.29046">
        <ele>56.743039</ele>
        <time>2021-09-05T13:33:50.000Z</time>
      </trkpt>
      <trkpt lat="49.12852" lon="-1.29024">
        <ele>57.319487</ele>
        <time>2021-09-05T13:33:58.000Z</time>
      </trkpt>
      <trkpt lat="49.12838" lon="-1.29006">
        <ele>57.818497</ele>
        <time>2021-09-05T13:34:05.000Z</time>
      </trkpt>
      <trkpt lat="49.12822" lon="-1.29008">
        <ele>58.240004</ele>
        <time>2021-09-05T13:34:09.000Z</time>
      </trkpt>
      <trkpt lat="49.128" lon="-1.29014">
        <ele>58.818737</ele>
        <time>2021-09-05T13:34:16.000Z</time>
      </trkpt>
      <trkpt lat="49.12773" lon="-1.2902">
        <ele>59.534807</ele>
        <time>2021-09-05T13:34:24.000Z</time>
      </trkpt>
      <trkpt lat="49.12745" lon="-1.29035">
        <ele>60.322345</ele>
        <time>2021-09-05T13:34:33.000Z</time>
      </trkpt>
      <trkpt lat="49.12723" lon="-1.29047">
        <ele>60.947997</ele>
        <time>2021-09-05T13:34:40.000Z</time>
      </trkpt>
      <trkpt lat="49.12694" lon="-1.29061">
        <ele>61.581503</ele>
        <time>2021-09-05T13:34:49.000Z</time>
      </trkpt>
      <trkpt lat="49.12675" lon="-1.29063">
        <ele>61.958897</ele>
        <time>2021-09-05T13:34:54.000Z</time>
      </trkpt>
      <trkpt lat="49.12675" lon="-1.2906">
        <ele>61.99363</ele>
        <time>2021-09-05T13:34:55.000Z</time>
      </trkpt>
      <trkpt lat="49.12675" lon="-1.29047">
        <ele>62.167417</ele>
        <time>2021-09-05T13:34:58.000Z</time>
      </trkpt>
      <trkpt lat="49.12672" lon="-1.29001">
        <ele>62.763498</ele>
        <time>2021-09-05T13:35:06.000Z</time>
      </trkpt>
      <trkpt lat="49.1267" lon="-1.28946">
        <ele>63.466335</ele>
        <time>2021-09-05T13:35:15.000Z</time>
      </trkpt>
      <trkpt lat="49.12669" lon="-1.28911">
        <ele>63.910414</ele>
        <time>2021-09-05T13:35:21.000Z</time>
      </trkpt>
      <trkpt lat="49.12667" lon="-1.28873">
        <ele>64.409859</ele>
        <time>2021-09-05T13:35:28.000Z</time>
      </trkpt>
      <trkpt lat="49.12666" lon="-1.28828">
        <ele>64.722234</ele>
        <time>2021-09-05T13:35:35.000Z</time>
      </trkpt>
      <trkpt lat="49.12666" lon="-1.28789">
        <ele>64.808714</ele>
        <time>2021-09-05T13:35:41.000Z</time>
      </trkpt>
      <trkpt lat="49.12666" lon="-1.28775">
        <ele>64.838195</ele>
        <time>2021-09-05T13:35:43.000Z</time>
      </trkpt>
      <trkpt lat="49.12666" lon="-1.28768">
        <ele>64.852609</ele>
        <time>2021-09-05T13:35:44.000Z</time>
      </trkpt>
      <trkpt lat="49.12666" lon="-1.28748">
        <ele>64.898294</ele>
        <time>2021-09-05T13:35:47.000Z</time>
      </trkpt>
      <trkpt lat="49.12665" lon="-1.2874">
        <ele>64.915012</ele>
        <time>2021-09-05T13:35:48.000Z</time>
      </trkpt>
      <trkpt lat="49.12661" lon="-1.28687">
        <ele>65.03099</ele>
        <time>2021-09-05T13:35:54.000Z</time>
      </trkpt>
      <trkpt lat="49.12657" lon="-1.28624">
        <ele>65.169902</ele>
        <time>2021-09-05T13:36:00.000Z</time>
      </trkpt>
      <trkpt lat="49.12657" lon="-1.28546">
        <ele>65.042386</ele>
        <time>2021-09-05T13:36:07.000Z</time>
      </trkpt>
      <trkpt lat="49.1266" lon="-1.28465">
        <ele>64.482731</ele>
        <time>2021-09-05T13:36:14.000Z</time>
      </trkpt>
      <trkpt lat="49.12663" lon="-1.28411">
        <ele>64.102628</ele>
        <time>2021-09-05T13:36:19.000Z</time>
      </trkpt>
      <trkpt lat="49.12666" lon="-1.28347">
        <ele>63.658733</ele>
        <time>2021-09-05T13:36:25.000Z</time>
      </trkpt>
      <trkpt lat="49.12668" lon="-1.28263">
        <ele>62.902471</ele>
        <time>2021-09-05T13:36:33.000Z</time>
      </trkpt>
      <trkpt lat="49.12668" lon="-1.28252">
        <ele>62.783595</ele>
        <time>2021-09-05T13:36:34.000Z</time>
      </trkpt>
      <trkpt lat="49.12666" lon="-1.28186">
        <ele>62.041746</ele>
        <time>2021-09-05T13:36:40.000Z</time>
      </trkpt>
      <trkpt lat="49.1266" lon="-1.28106">
        <ele>61.147498</ele>
        <time>2021-09-05T13:36:47.000Z</time>
      </trkpt>
      <trkpt lat="49.12654" lon="-1.28082">
        <ele>60.867086</ele>
        <time>2021-09-05T13:36:49.000Z</time>
      </trkpt>
      <trkpt lat="49.12648" lon="-1.28075">
        <ele>60.743025</ele>
        <time>2021-09-05T13:36:50.000Z</time>
      </trkpt>
      <trkpt lat="49.12642" lon="-1.28068">
        <ele>60.619636</ele>
        <time>2021-09-05T13:36:51.000Z</time>
      </trkpt>
      <trkpt lat="49.12631" lon="-1.28055">
        <ele>60.368812</ele>
        <time>2021-09-05T13:36:53.000Z</time>
      </trkpt>
      <trkpt lat="49.12592" lon="-1.2801">
        <ele>59.120873</ele>
        <time>2021-09-05T13:37:00.000Z</time>
      </trkpt>
      <trkpt lat="49.12581" lon="-1.27997">
        <ele>58.759566</ele>
        <time>2021-09-05T13:37:02.000Z</time>
      </trkpt>
      <trkpt lat="49.12572" lon="-1.27982">
        <ele>58.413086</ele>
        <time>2021-09-05T13:37:04.000Z</time>
      </trkpt>
      <trkpt lat="49.12567" lon="-1.27962">
        <ele>58.039338</ele>
        <time>2021-09-05T13:37:06.000Z</time>
      </trkpt>
      <trkpt lat="49.12563" lon="-1.27938">
        <ele>57.607733</ele>
        <time>2021-09-05T13:37:08.000Z</time>
      </trkpt>
      <trkpt lat="49.12552" lon="-1.27873">
        <ele>56.461339</ele>
        <time>2021-09-05T13:37:13.000Z</time>
      </trkpt>
      <trkpt lat="49.12558" lon="-1.27821">
        <ele>55.544188</ele>
        <time>2021-09-05T13:37:17.000Z</time>
      </trkpt>
      <trkpt lat="49.12574" lon="-1.27766">
        <ele>54.389154</ele>
        <time>2021-09-05T13:37:21.000Z</time>
      </trkpt>
      <trkpt lat="49.12576" lon="-1.27705">
        <ele>53.203541</ele>
        <time>2021-09-05T13:37:25.000Z</time>
      </trkpt>
      <trkpt lat="49.12574" lon="-1.27689">
        <ele>52.905894</ele>
        <time>2021-09-05T13:37:26.000Z</time>
      </trkpt>
      <trkpt lat="49.12571" lon="-1.27646">
        <ele>52.058452</ele>
        <time>2021-09-05T13:37:29.000Z</time>
      </trkpt>
      <trkpt lat="49.12561" lon="-1.27624">
        <ele>51.555458</ele>
        <time>2021-09-05T13:37:31.000Z</time>
      </trkpt>
      <trkpt lat="49.12555" lon="-1.27614">
        <ele>51.285229</ele>
        <time>2021-09-05T13:37:32.000Z</time>
      </trkpt>
      <trkpt lat="49.12547" lon="-1.27606">
        <ele>51.01676</ele>
        <time>2021-09-05T13:37:33.000Z</time>
      </trkpt>
      <trkpt lat="49.12531" lon="-1.27603">
        <ele>50.541677</ele>
        <time>2021-09-05T13:37:35.000Z</time>
      </trkpt>
      <trkpt lat="49.12524" lon="-1.276">
        <ele>50.31105</ele>
        <time>2021-09-05T13:37:36.000Z</time>
      </trkpt>
      <trkpt lat="49.12503" lon="-1.27591">
        <ele>50.01631</ele>
        <time>2021-09-05T13:37:40.000Z</time>
      </trkpt>
      <trkpt lat="49.12489" lon="-1.27584">
        <ele>49.824612</ele>
        <time>2021-09-05T13:37:44.000Z</time>
      </trkpt>
      <trkpt lat="49.12474" lon="-1.27572">
        <ele>49.59407</ele>
        <time>2021-09-05T13:37:50.000Z</time>
      </trkpt>
      <trkpt lat="49.12469" lon="-1.27566">
        <ele>49.514116</ele>
        <time>2021-09-05T13:37:52.000Z</time>
      </trkpt>
      <trkpt lat="49.12464" lon="-1.27561">
        <ele>49.444025</ele>
        <time>2021-09-05T13:37:54.000Z</time>
      </trkpt>
      <trkpt lat="49.12448" lon="-1.27542">
        <ele>49.170407</ele>
        <time>2021-09-05T13:38:00.000Z</time>
      </trkpt>
      <trkpt lat="49.12431" lon="-1.27526">
        <ele>48.906599</ele>
        <time>2021-09-05T13:38:06.000Z</time>
      </trkpt>
      <trkpt lat="49.12416" lon="-1.27523">
        <ele>48.709032</ele>
        <time>2021-09-05T13:38:11.000Z</time>
      </trkpt>
      <trkpt lat="49.12397" lon="-1.27519">
        <ele>48.461558</ele>
        <time>2021-09-05T13:38:16.000Z</time>
      </trkpt>
      <trkpt lat="49.12383" lon="-1.27517">
        <ele>48.279869</ele>
        <time>2021-09-05T13:38:20.000Z</time>
      </trkpt>
      <trkpt lat="49.12357" lon="-1.27512">
        <ele>47.937555</ele>
        <time>2021-09-05T13:38:27.000Z</time>
      </trkpt>
      <trkpt lat="49.12338" lon="-1.27508">
        <ele>47.918989</ele>
        <time>2021-09-05T13:38:31.000Z</time>
      </trkpt>
      <trkpt lat="49.12315" lon="-1.27499">
        <ele>47.900693</ele>
        <time>2021-09-05T13:38:36.000Z</time>
      </trkpt>
      <trkpt lat="49.12311" lon="-1.27495">
        <ele>47.896933</ele>
        <time>2021-09-05T13:38:37.000Z</time>
      </trkpt>
      <trkpt lat="49.12289" lon="-1.27472">
        <ele>47.87699</ele>
        <time>2021-09-05T13:38:42.000Z</time>
      </trkpt>
      <trkpt lat="49.12261" lon="-1.27443">
        <ele>47.850746</ele>
        <time>2021-09-05T13:38:50.000Z</time>
      </trkpt>
      <trkpt lat="49.12239" lon="-1.27423">
        <ele>47.831725</ele>
        <time>2021-09-05T13:38:58.000Z</time>
      </trkpt>
      <trkpt lat="49.12218" lon="-1.27406">
        <ele>47.813168</ele>
        <time>2021-09-05T13:39:06.000Z</time>
      </trkpt>
      <trkpt lat="49.12195" lon="-1.27387">
        <ele>47.877762</ele>
        <time>2021-09-05T13:39:13.000Z</time>
      </trkpt>
      <trkpt lat="49.12191" lon="-1.27384">
        <ele>47.97471</ele>
        <time>2021-09-05T13:39:14.000Z</time>
      </trkpt>
      <trkpt lat="49.12183" lon="-1.27378">
        <ele>48.174675</ele>
        <time>2021-09-05T13:39:16.000Z</time>
      </trkpt>
      <trkpt lat="49.12173" lon="-1.27365">
        <ele>48.478077</ele>
        <time>2021-09-05T13:39:19.000Z</time>
      </trkpt>
      <trkpt lat="49.12171" lon="-1.2736">
        <ele>48.573244</ele>
        <time>2021-09-05T13:39:20.000Z</time>
      </trkpt>
      <trkpt lat="49.12168" lon="-1.27355">
        <ele>48.671053</ele>
        <time>2021-09-05T13:39:21.000Z</time>
      </trkpt>
      <trkpt lat="49.12163" lon="-1.27343">
        <ele>48.888768</ele>
        <time>2021-09-05T13:39:23.000Z</time>
      </trkpt>
      <trkpt lat="49.1216" lon="-1.2733">
        <ele>49.104043</ele>
        <time>2021-09-05T13:39:25.000Z</time>
      </trkpt>
      <trkpt lat="49.12149" lon="-1.27287">
        <ele>49.794936</ele>
        <time>2021-09-05T13:39:32.000Z</time>
      </trkpt>
      <trkpt lat="49.12141" lon="-1.27256">
        <ele>50.291276</ele>
        <time>2021-09-05T13:39:39.000Z</time>
      </trkpt>
      <trkpt lat="49.12136" lon="-1.27236">
        <ele>50.616002</ele>
        <time>2021-09-05T13:39:45.000Z</time>
      </trkpt>
      <trkpt lat="49.12135" lon="-1.27229">
        <ele>50.728268</ele>
        <time>2021-09-05T13:39:47.000Z</time>
      </trkpt>
      <trkpt lat="49.12133" lon="-1.27222">
        <ele>50.841353</ele>
        <time>2021-09-05T13:39:49.000Z</time>
      </trkpt>
      <trkpt lat="49.12128" lon="-1.272">
        <ele>51.186801</ele>
        <time>2021-09-05T13:39:55.000Z</time>
      </trkpt>
      <trkpt lat="49.12123" lon="-1.2718">
        <ele>51.501466</ele>
        <time>2021-09-05T13:40:01.000Z</time>
      </trkpt>
      <trkpt lat="49.12117" lon="-1.27156">
        <ele>51.890576</ele>
        <time>2021-09-05T13:40:08.000Z</time>
      </trkpt>
      <trkpt lat="49.1211" lon="-1.2713">
        <ele>52.727107</ele>
        <time>2021-09-05T13:40:15.000Z</time>
      </trkpt>
      <trkpt lat="49.12103" lon="-1.27101">
        <ele>53.693805</ele>
        <time>2021-09-05T13:40:23.000Z</time>
      </trkpt>
      <trkpt lat="49.12097" lon="-1.2708">
        <ele>54.442853</ele>
        <time>2021-09-05T13:40:29.000Z</time>
      </trkpt>
      <trkpt lat="49.12083" lon="-1.27075">
        <ele>55.110131</ele>
        <time>2021-09-05T13:40:34.000Z</time>
      </trkpt>
      <trkpt lat="49.12066" lon="-1.27086">
        <ele>55.992879</ele>
        <time>2021-09-05T13:40:41.000Z</time>
      </trkpt>
      <trkpt lat="49.12044" lon="-1.27102">
        <ele>57.161291</ele>
        <time>2021-09-05T13:40:50.000Z</time>
      </trkpt>
      <trkpt lat="49.1202" lon="-1.2712">
        <ele>58.465695</ele>
        <time>2021-09-05T13:41:00.000Z</time>
      </trkpt>
      <trkpt lat="49.12005" lon="-1.27119">
        <ele>59.187933</ele>
        <time>2021-09-05T13:41:06.000Z</time>
      </trkpt>
      <trkpt lat="49.11994" lon="-1.27109">
        <ele>59.8076</ele>
        <time>2021-09-05T13:41:12.000Z</time>
      </trkpt>
      <trkpt lat="49.11986" lon="-1.27091">
        <ele>60.501586</ele>
        <time>2021-09-05T13:41:19.000Z</time>
      </trkpt>
      <trkpt lat="49.11976" lon="-1.27066">
        <ele>61.926685</ele>
        <time>2021-09-05T13:41:29.000Z</time>
      </trkpt>
      <trkpt lat="49.11968" lon="-1.27046">
        <ele>63.108985</ele>
        <time>2021-09-05T13:41:38.000Z</time>
      </trkpt>
      <trkpt lat="49.1196" lon="-1.27026">
        <ele>64.287026</ele>
        <time>2021-09-05T13:41:46.000Z</time>
      </trkpt>
      <trkpt lat="49.11953" lon="-1.27009">
        <ele>65.272163</ele>
        <time>2021-09-05T13:41:53.000Z</time>
      </trkpt>
      <trkpt lat="49.11943" lon="-1.26995">
        <ele>66.295499</ele>
        <time>2021-09-05T13:42:00.000Z</time>
      </trkpt>
      <trkpt lat="49.11933" lon="-1.26985">
        <ele>67.217613</ele>
        <time>2021-09-05T13:42:08.000Z</time>
      </trkpt>
      <trkpt lat="49.11921" lon="-1.2697">
        <ele>68.407329</ele>
        <time>2021-09-05T13:42:16.000Z</time>
      </trkpt>
      <trkpt lat="49.11911" lon="-1.26946">
        <ele>69.817292</ele>
        <time>2021-09-05T13:42:26.000Z</time>
      </trkpt>
      <trkpt lat="49.11904" lon="-1.26926">
        <ele>70.954499</ele>
        <time>2021-09-05T13:42:34.000Z</time>
      </trkpt>
      <trkpt lat="49.11897" lon="-1.26909">
        <ele>71.944539</ele>
        <time>2021-09-05T13:42:41.000Z</time>
      </trkpt>
      <trkpt lat="49.11889" lon="-1.26887">
        <ele>73.245313</ele>
        <time>2021-09-05T13:42:50.000Z</time>
      </trkpt>
      <trkpt lat="49.1188" lon="-1.26865">
        <ele>74.43125</ele>
        <time>2021-09-05T13:42:58.000Z</time>
      </trkpt>
      <trkpt lat="49.11872" lon="-1.26847">
        <ele>74.938614</ele>
        <time>2021-09-05T13:43:04.000Z</time>
      </trkpt>
      <trkpt lat="49.11862" lon="-1.26837">
        <ele>75.354716</ele>
        <time>2021-09-05T13:43:10.000Z</time>
      </trkpt>
      <trkpt lat="49.11848" lon="-1.26821">
        <ele>75.986624</ele>
        <time>2021-09-05T13:43:18.000Z</time>
      </trkpt>
      <trkpt lat="49.11836" lon="-1.26808">
        <ele>76.526237</ele>
        <time>2021-09-05T13:43:25.000Z</time>
      </trkpt>
      <trkpt lat="49.1182" lon="-1.26791">
        <ele>77.233588</ele>
        <time>2021-09-05T13:43:33.000Z</time>
      </trkpt>
      <trkpt lat="49.11804" lon="-1.26773">
        <ele>77.922309</ele>
        <time>2021-09-05T13:43:41.000Z</time>
      </trkpt>
      <trkpt lat="49.11784" lon="-1.26752">
        <ele>78.789999</ele>
        <time>2021-09-05T13:43:51.000Z</time>
      </trkpt>
      <trkpt lat="49.1177" lon="-1.26737">
        <ele>79.402139</ele>
        <time>2021-09-05T13:43:58.000Z</time>
      </trkpt>
      <trkpt lat="49.11753" lon="-1.26718">
        <ele>80.151941</ele>
        <time>2021-09-05T13:44:07.000Z</time>
      </trkpt>
      <trkpt lat="49.11738" lon="-1.26702">
        <ele>80.813203</ele>
        <time>2021-09-05T13:44:15.000Z</time>
      </trkpt>
      <trkpt lat="49.11722" lon="-1.26681">
        <ele>81.470023</ele>
        <time>2021-09-05T13:44:24.000Z</time>
      </trkpt>
      <trkpt lat="49.11708" lon="-1.26662">
        <ele>82.063372</ele>
        <time>2021-09-05T13:44:31.000Z</time>
      </trkpt>
      <trkpt lat="49.11693" lon="-1.26643">
        <ele>82.681812</ele>
        <time>2021-09-05T13:44:38.000Z</time>
      </trkpt>
      <trkpt lat="49.11675" lon="-1.26618">
        <ele>83.437556</ele>
        <time>2021-09-05T13:44:46.000Z</time>
      </trkpt>
      <trkpt lat="49.11662" lon="-1.2659">
        <ele>84.141017</ele>
        <time>2021-09-05T13:44:53.000Z</time>
      </trkpt>
      <trkpt lat="49.11647" lon="-1.26559">
        <ele>84.955116</ele>
        <time>2021-09-05T13:45:01.000Z</time>
      </trkpt>
      <trkpt lat="49.11634" lon="-1.2653">
        <ele>85.662642</ele>
        <time>2021-09-05T13:45:08.000Z</time>
      </trkpt>
      <trkpt lat="49.11621" lon="-1.26498">
        <ele>86.44828</ele>
        <time>2021-09-05T13:45:15.000Z</time>
      </trkpt>
      <trkpt lat="49.116" lon="-1.26468">
        <ele>86.940987</ele>
        <time>2021-09-05T13:45:23.000Z</time>
      </trkpt>
      <trkpt lat="49.1158" lon="-1.2644">
        <ele>87.423082</ele>
        <time>2021-09-05T13:45:30.000Z</time>
      </trkpt>
      <trkpt lat="49.1156" lon="-1.26399">
        <ele>87.997121</ele>
        <time>2021-09-05T13:45:38.000Z</time>
      </trkpt>
      <trkpt lat="49.11553" lon="-1.26376">
        <ele>88.291434</ele>
        <time>2021-09-05T13:45:42.000Z</time>
      </trkpt>
      <trkpt lat="49.11546" lon="-1.26353">
        <ele>88.584994</ele>
        <time>2021-09-05T13:45:46.000Z</time>
      </trkpt>
      <trkpt lat="49.11533" lon="-1.26312">
        <ele>89.104357</ele>
        <time>2021-09-05T13:45:53.000Z</time>
      </trkpt>
      <trkpt lat="49.11527" lon="-1.26294">
        <ele>89.332223</ele>
        <time>2021-09-05T13:45:56.000Z</time>
      </trkpt>
      <trkpt lat="49.11522" lon="-1.26276">
        <ele>89.562906</ele>
        <time>2021-09-05T13:45:59.000Z</time>
      </trkpt>
      <trkpt lat="49.11516" lon="-1.26258">
        <ele>89.670045</ele>
        <time>2021-09-05T13:46:02.000Z</time>
      </trkpt>
      <trkpt lat="49.1151" lon="-1.26242">
        <ele>89.759824</ele>
        <time>2021-09-05T13:46:05.000Z</time>
      </trkpt>
      <trkpt lat="49.11507" lon="-1.26236">
        <ele>89.791958</ele>
        <time>2021-09-05T13:46:06.000Z</time>
      </trkpt>
      <trkpt lat="49.11492" lon="-1.2621">
        <ele>89.958485</ele>
        <time>2021-09-05T13:46:11.000Z</time>
      </trkpt>
      <trkpt lat="49.11472" lon="-1.26173">
        <ele>90.189168</ele>
        <time>2021-09-05T13:46:17.000Z</time>
      </trkpt>
      <trkpt lat="49.11444" lon="-1.26126">
        <ele>90.488313</ele>
        <time>2021-09-05T13:46:25.000Z</time>
      </trkpt>
      <trkpt lat="49.11414" lon="-1.261">
        <ele>90.742818</ele>
        <time>2021-09-05T13:46:32.000Z</time>
      </trkpt>
      <trkpt lat="49.11378" lon="-1.26069">
        <ele>90.877854</ele>
        <time>2021-09-05T13:46:41.000Z</time>
      </trkpt>
      <trkpt lat="49.1136" lon="-1.26053">
        <ele>90.861224</ele>
        <time>2021-09-05T13:46:46.000Z</time>
      </trkpt>
      <trkpt lat="49.11356" lon="-1.2605">
        <ele>90.858004</ele>
        <time>2021-09-05T13:46:47.000Z</time>
      </trkpt>
      <trkpt lat="49.11338" lon="-1.26035">
        <ele>90.841653</ele>
        <time>2021-09-05T13:46:52.000Z</time>
      </trkpt>
      <trkpt lat="49.11317" lon="-1.26017">
        <ele>90.823003</ele>
        <time>2021-09-05T13:46:57.000Z</time>
      </trkpt>
      <trkpt lat="49.11308" lon="-1.26007">
        <ele>90.814544</ele>
        <time>2021-09-05T13:46:59.000Z</time>
      </trkpt>
      <trkpt lat="49.113" lon="-1.25997">
        <ele>90.806216</ele>
        <time>2021-09-05T13:47:01.000Z</time>
      </trkpt>
      <trkpt lat="49.11278" lon="-1.25973">
        <ele>90.785288</ele>
        <time>2021-09-05T13:47:06.000Z</time>
      </trkpt>
      <trkpt lat="49.1126" lon="-1.25953">
        <ele>90.768044</ele>
        <time>2021-09-05T13:47:10.000Z</time>
      </trkpt>
      <trkpt lat="49.1125" lon="-1.25943">
        <ele>90.758457</ele>
        <time>2021-09-05T13:47:12.000Z</time>
      </trkpt>
      <trkpt lat="49.11202" lon="-1.25898">
        <ele>91.261661</ele>
        <time>2021-09-05T13:47:21.000Z</time>
      </trkpt>
      <trkpt lat="49.11178" lon="-1.25875">
        <ele>91.553802</ele>
        <time>2021-09-05T13:47:26.000Z</time>
      </trkpt>
      <trkpt lat="49.11174" lon="-1.2587">
        <ele>91.607541</ele>
        <time>2021-09-05T13:47:27.000Z</time>
      </trkpt>
      <trkpt lat="49.11157" lon="-1.25852">
        <ele>91.817212</ele>
        <time>2021-09-05T13:47:31.000Z</time>
      </trkpt>
      <trkpt lat="49.11151" lon="-1.25845">
        <ele>91.897621</ele>
        <time>2021-09-05T13:47:33.000Z</time>
      </trkpt>
      <trkpt lat="49.11148" lon="-1.25841">
        <ele>91.941942</ele>
        <time>2021-09-05T13:47:34.000Z</time>
      </trkpt>
      <trkpt lat="49.11137" lon="-1.25812">
        <ele>92.166653</ele>
        <time>2021-09-05T13:47:39.000Z</time>
      </trkpt>
      <trkpt lat="49.1113" lon="-1.25759">
        <ele>92.533958</ele>
        <time>2021-09-05T13:47:48.000Z</time>
      </trkpt>
      <trkpt lat="49.1112" lon="-1.25706">
        <ele>93.053598</ele>
        <time>2021-09-05T13:47:58.000Z</time>
      </trkpt>
      <trkpt lat="49.11114" lon="-1.25682">
        <ele>93.312761</ele>
        <time>2021-09-05T13:48:04.000Z</time>
      </trkpt>
      <trkpt lat="49.11107" lon="-1.25649">
        <ele>93.663763</ele>
        <time>2021-09-05T13:48:12.000Z</time>
      </trkpt>
      <trkpt lat="49.11099" lon="-1.25624">
        <ele>93.948298</ele>
        <time>2021-09-05T13:48:18.000Z</time>
      </trkpt>
      <trkpt lat="49.11087" lon="-1.2559">
        <ele>94.337682</ele>
        <time>2021-09-05T13:48:25.000Z</time>
      </trkpt>
      <trkpt lat="49.11079" lon="-1.25575">
        <ele>94.536</ele>
        <time>2021-09-05T13:48:28.000Z</time>
      </trkpt>
      <trkpt lat="49.11071" lon="-1.25565">
        <ele>94.695141</ele>
        <time>2021-09-05T13:48:30.000Z</time>
      </trkpt>
      <trkpt lat="49.11054" lon="-1.25544">
        <ele>95.029484</ele>
        <time>2021-09-05T13:48:34.000Z</time>
      </trkpt>
      <trkpt lat="49.11039" lon="-1.25531">
        <ele>95.293054</ele>
        <time>2021-09-05T13:48:37.000Z</time>
      </trkpt>
      <trkpt lat="49.10998" lon="-1.25499">
        <ele>95.129273</ele>
        <time>2021-09-05T13:48:45.000Z</time>
      </trkpt>
      <trkpt lat="49.1096" lon="-1.25471">
        <ele>94.855499</ele>
        <time>2021-09-05T13:48:52.000Z</time>
      </trkpt>
      <trkpt lat="49.10927" lon="-1.25448">
        <ele>94.619274</ele>
        <time>2021-09-05T13:48:58.000Z</time>
      </trkpt>
      <trkpt lat="49.10904" lon="-1.25433">
        <ele>94.459807</ele>
        <time>2021-09-05T13:49:02.000Z</time>
      </trkpt>
      <trkpt lat="49.10893" lon="-1.25425">
        <ele>94.379219</ele>
        <time>2021-09-05T13:49:04.000Z</time>
      </trkpt>
      <trkpt lat="49.10881" lon="-1.25417">
        <ele>94.29634</ele>
        <time>2021-09-05T13:49:06.000Z</time>
      </trkpt>
      <trkpt lat="49.10875" lon="-1.25414">
        <ele>94.253418</ele>
        <time>2021-09-05T13:49:07.000Z</time>
      </trkpt>
      <trkpt lat="49.10832" lon="-1.25393">
        <ele>93.389246</ele>
        <time>2021-09-05T13:49:13.000Z</time>
      </trkpt>
      <trkpt lat="49.10825" lon="-1.25388">
        <ele>93.223024</ele>
        <time>2021-09-05T13:49:14.000Z</time>
      </trkpt>
      <trkpt lat="49.10812" lon="-1.25371">
        <ele>92.887869</ele>
        <time>2021-09-05T13:49:16.000Z</time>
      </trkpt>
      <trkpt lat="49.10806" lon="-1.25363">
        <ele>92.716183</ele>
        <time>2021-09-05T13:49:17.000Z</time>
      </trkpt>
      <trkpt lat="49.10772" lon="-1.25319">
        <ele>91.796411</ele>
        <time>2021-09-05T13:49:22.000Z</time>
      </trkpt>
      <trkpt lat="49.10735" lon="-1.25245">
        <ele>90.53643</ele>
        <time>2021-09-05T13:49:28.000Z</time>
      </trkpt>
      <trkpt lat="49.10695" lon="-1.25167">
        <ele>88.501257</ele>
        <time>2021-09-05T13:49:34.000Z</time>
      </trkpt>
      <trkpt lat="49.10681" lon="-1.25139">
        <ele>87.778467</ele>
        <time>2021-09-05T13:49:36.000Z</time>
      </trkpt>
      <trkpt lat="49.10646" lon="-1.25073">
        <ele>86.030082</ele>
        <time>2021-09-05T13:49:41.000Z</time>
      </trkpt>
      <trkpt lat="49.10639" lon="-1.25061">
        <ele>85.688875</ele>
        <time>2021-09-05T13:49:42.000Z</time>
      </trkpt>
      <trkpt lat="49.10609" lon="-1.25017">
        <ele>84.341887</ele>
        <time>2021-09-05T13:49:46.000Z</time>
      </trkpt>
      <trkpt lat="49.1058" lon="-1.24985">
        <ele>83.129674</ele>
        <time>2021-09-05T13:49:50.000Z</time>
      </trkpt>
      <trkpt lat="49.10573" lon="-1.24979">
        <ele>82.860482</ele>
        <time>2021-09-05T13:49:51.000Z</time>
      </trkpt>
      <trkpt lat="49.10544" lon="-1.24952">
        <ele>81.705145</ele>
        <time>2021-09-05T13:49:56.000Z</time>
      </trkpt>
      <trkpt lat="49.10525" lon="-1.24941">
        <ele>81.010938</ele>
        <time>2021-09-05T13:50:00.000Z</time>
      </trkpt>
      <trkpt lat="49.1049" lon="-1.24922">
        <ele>79.769608</ele>
        <time>2021-09-05T13:50:07.000Z</time>
      </trkpt>
      <trkpt lat="49.10477" lon="-1.24914">
        <ele>79.280196</ele>
        <time>2021-09-05T13:50:10.000Z</time>
      </trkpt>
      <trkpt lat="49.10464" lon="-1.24906">
        <ele>78.797998</ele>
        <time>2021-09-05T13:50:13.000Z</time>
      </trkpt>
      <trkpt lat="49.10438" lon="-1.24886">
        <ele>78.160436</ele>
        <time>2021-09-05T13:50:19.000Z</time>
      </trkpt>
      <trkpt lat="49.10415" lon="-1.24868">
        <ele>77.579903</ele>
        <time>2021-09-05T13:50:25.000Z</time>
      </trkpt>
      <trkpt lat="49.1039" lon="-1.24848">
        <ele>76.969296</ele>
        <time>2021-09-05T13:50:32.000Z</time>
      </trkpt>
      <trkpt lat="49.10377" lon="-1.24837">
        <ele>76.635171</ele>
        <time>2021-09-05T13:50:36.000Z</time>
      </trkpt>
      <trkpt lat="49.10373" lon="-1.24834">
        <ele>76.53784</ele>
        <time>2021-09-05T13:50:37.000Z</time>
      </trkpt>
      <trkpt lat="49.10365" lon="-1.24826">
        <ele>76.332657</ele>
        <time>2021-09-05T13:50:39.000Z</time>
      </trkpt>
      <trkpt lat="49.10359" lon="-1.24808">
        <ele>76.032671</ele>
        <time>2021-09-05T13:50:41.000Z</time>
      </trkpt>
      <trkpt lat="49.10365" lon="-1.24792">
        <ele>75.772178</ele>
        <time>2021-09-05T13:50:44.000Z</time>
      </trkpt>
      <trkpt lat="49.10375" lon="-1.24766">
        <ele>75.334392</ele>
        <time>2021-09-05T13:50:50.000Z</time>
      </trkpt>
      <trkpt lat="49.10387" lon="-1.24737">
        <ele>74.836279</ele>
        <time>2021-09-05T13:50:57.000Z</time>
      </trkpt>
      <trkpt lat="49.10402" lon="-1.24699">
        <ele>75.217279</ele>
        <time>2021-09-05T13:51:06.000Z</time>
      </trkpt>
      <trkpt lat="49.10418" lon="-1.24661">
        <ele>75.673326</ele>
        <time>2021-09-05T13:51:15.000Z</time>
      </trkpt>
      <trkpt lat="49.1043" lon="-1.24632">
        <ele>76.028565</ele>
        <time>2021-09-05T13:51:22.000Z</time>
      </trkpt>
      <trkpt lat="49.10443" lon="-1.24597">
        <ele>76.43842</ele>
        <time>2021-09-05T13:51:30.000Z</time>
      </trkpt>
      <trkpt lat="49.10447" lon="-1.2457">
        <ele>76.734045</ele>
        <time>2021-09-05T13:51:36.000Z</time>
      </trkpt>
      <trkpt lat="49.10447" lon="-1.24534">
        <ele>77.1018</ele>
        <time>2021-09-05T13:51:43.000Z</time>
      </trkpt>
      <trkpt lat="49.10456" lon="-1.24513">
        <ele>77.359567</ele>
        <time>2021-09-05T13:51:48.000Z</time>
      </trkpt>
      <trkpt lat="49.10465" lon="-1.24483">
        <ele>77.757187</ele>
        <time>2021-09-05T13:51:55.000Z</time>
      </trkpt>
      <trkpt lat="49.10464" lon="-1.24462">
        <ele>78.148781</ele>
        <time>2021-09-05T13:52:00.000Z</time>
      </trkpt>
      <trkpt lat="49.10462" lon="-1.24438">
        <ele>78.592926</ele>
        <time>2021-09-05T13:52:06.000Z</time>
      </trkpt>
      <trkpt lat="49.10459" lon="-1.24409">
        <ele>79.123744</ele>
        <time>2021-09-05T13:52:13.000Z</time>
      </trkpt>
      <trkpt lat="49.10457" lon="-1.24376">
        <ele>79.716112</ele>
        <time>2021-09-05T13:52:20.000Z</time>
      </trkpt>
      <trkpt lat="49.10455" lon="-1.24335">
        <ele>80.463091</ele>
        <time>2021-09-05T13:52:28.000Z</time>
      </trkpt>
      <trkpt lat="49.10452" lon="-1.24293">
        <ele>81.242953</ele>
        <time>2021-09-05T13:52:36.000Z</time>
      </trkpt>
      <trkpt lat="49.1045" lon="-1.24247">
        <ele>82.081096</ele>
        <time>2021-09-05T13:52:45.000Z</time>
      </trkpt>
      <trkpt lat="49.10444" lon="-1.24207">
        <ele>82.696631</ele>
        <time>2021-09-05T13:52:53.000Z</time>
      </trkpt>
      <trkpt lat="49.10433" lon="-1.24175">
        <ele>82.944062</ele>
        <time>2021-09-05T13:52:59.000Z</time>
      </trkpt>
      <trkpt lat="49.10431" lon="-1.24169">
        <ele>82.988865</ele>
        <time>2021-09-05T13:53:00.000Z</time>
      </trkpt>
      <trkpt lat="49.10424" lon="-1.24151">
        <ele>83.130251</ele>
        <time>2021-09-05T13:53:03.000Z</time>
      </trkpt>
      <trkpt lat="49.10421" lon="-1.24146">
        <ele>83.174211</ele>
        <time>2021-09-05T13:53:04.000Z</time>
      </trkpt>
      <trkpt lat="49.10413" lon="-1.24129">
        <ele>83.320976</ele>
        <time>2021-09-05T13:53:07.000Z</time>
      </trkpt>
      <trkpt lat="49.10406" lon="-1.24108">
        <ele>83.480617</ele>
        <time>2021-09-05T13:53:10.000Z</time>
      </trkpt>
      <trkpt lat="49.10403" lon="-1.24092">
        <ele>83.59753</ele>
        <time>2021-09-05T13:53:12.000Z</time>
      </trkpt>
      <trkpt lat="49.10393" lon="-1.24049">
        <ele>83.906457</ele>
        <time>2021-09-05T13:53:17.000Z</time>
      </trkpt>
      <trkpt lat="49.10391" lon="-1.2404">
        <ele>83.966372</ele>
        <time>2021-09-05T13:53:18.000Z</time>
      </trkpt>
      <trkpt lat="49.10379" lon="-1.23985">
        <ele>84.36339</ele>
        <time>2021-09-05T13:53:25.000Z</time>
      </trkpt>
      <trkpt lat="49.10378" lon="-1.23982">
        <ele>84.384114</ele>
        <time>2021-09-05T13:53:26.000Z</time>
      </trkpt>
      <trkpt lat="49.10372" lon="-1.23967">
        <ele>84.486939</ele>
        <time>2021-09-05T13:53:28.000Z</time>
      </trkpt>
      <trkpt lat="49.10366" lon="-1.23964">
        <ele>84.455291</ele>
        <time>2021-09-05T13:53:29.000Z</time>
      </trkpt>
      <trkpt lat="49.1036" lon="-1.2396">
        <ele>84.421031</ele>
        <time>2021-09-05T13:53:30.000Z</time>
      </trkpt>
      <trkpt lat="49.10338" lon="-1.23948">
        <ele>84.308364</ele>
        <time>2021-09-05T13:53:33.000Z</time>
      </trkpt>
      <trkpt lat="49.10299" lon="-1.23942">
        <ele>84.115873</ele>
        <time>2021-09-05T13:53:37.000Z</time>
      </trkpt>
      <trkpt lat="49.10265" lon="-1.23942">
        <ele>83.948508</ele>
        <time>2021-09-05T13:53:40.000Z</time>
      </trkpt>
      <trkpt lat="49.10254" lon="-1.23942">
        <ele>83.894853</ele>
        <time>2021-09-05T13:53:41.000Z</time>
      </trkpt>
      <trkpt lat="49.10218" lon="-1.23938">
        <ele>83.715678</ele>
        <time>2021-09-05T13:53:45.000Z</time>
      </trkpt>
      <trkpt lat="49.10198" lon="-1.23929">
        <ele>83.614523</ele>
        <time>2021-09-05T13:53:48.000Z</time>
      </trkpt>
      <trkpt lat="49.10179" lon="-1.23921">
        <ele>83.7864</ele>
        <time>2021-09-05T13:53:52.000Z</time>
      </trkpt>
      <trkpt lat="49.10166" lon="-1.23911">
        <ele>83.919053</ele>
        <time>2021-09-05T13:53:56.000Z</time>
      </trkpt>
      <trkpt lat="49.10155" lon="-1.23897">
        <ele>84.055204</ele>
        <time>2021-09-05T13:54:01.000Z</time>
      </trkpt>
      <trkpt lat="49.10143" lon="-1.23882">
        <ele>84.202167</ele>
        <time>2021-09-05T13:54:06.000Z</time>
      </trkpt>
      <trkpt lat="49.10129" lon="-1.23864">
        <ele>84.376717</ele>
        <time>2021-09-05T13:54:12.000Z</time>
      </trkpt>
      <trkpt lat="49.10115" lon="-1.23848">
        <ele>84.537489</ele>
        <time>2021-09-05T13:54:17.000Z</time>
      </trkpt>
      <trkpt lat="49.10092" lon="-1.23825">
        <ele>84.789126</ele>
        <time>2021-09-05T13:54:24.000Z</time>
      </trkpt>
      <trkpt lat="49.10067" lon="-1.23798">
        <ele>85.081131</ele>
        <time>2021-09-05T13:54:32.000Z</time>
      </trkpt>
      <trkpt lat="49.10055" lon="-1.23786">
        <ele>85.217387</ele>
        <time>2021-09-05T13:54:36.000Z</time>
      </trkpt>
      <trkpt lat="49.10038" lon="-1.23771">
        <ele>85.366891</ele>
        <time>2021-09-05T13:54:42.000Z</time>
      </trkpt>
      <trkpt lat="49.10018" lon="-1.23754">
        <ele>85.508213</ele>
        <time>2021-09-05T13:54:49.000Z</time>
      </trkpt>
      <trkpt lat="49.09999" lon="-1.23736">
        <ele>85.652543</ele>
        <time>2021-09-05T13:54:56.000Z</time>
      </trkpt>
      <trkpt lat="49.09984" lon="-1.23723">
        <ele>85.758745</ele>
        <time>2021-09-05T13:55:01.000Z</time>
      </trkpt>
      <trkpt lat="49.0997" lon="-1.23708">
        <ele>85.868261</ele>
        <time>2021-09-05T13:55:06.000Z</time>
      </trkpt>
      <trkpt lat="49.09951" lon="-1.23685">
        <ele>86.019651</ele>
        <time>2021-09-05T13:55:13.000Z</time>
      </trkpt>
      <trkpt lat="49.09938" lon="-1.23673">
        <ele>86.112176</ele>
        <time>2021-09-05T13:55:17.000Z</time>
      </trkpt>
      <trkpt lat="49.09918" lon="-1.23661">
        <ele>86.251292</ele>
        <time>2021-09-05T13:55:23.000Z</time>
      </trkpt>
      <trkpt lat="49.09904" lon="-1.23653">
        <ele>86.344527</ele>
        <time>2021-09-05T13:55:27.000Z</time>
      </trkpt>
      <trkpt lat="49.09897" lon="-1.23649">
        <ele>86.393791</ele>
        <time>2021-09-05T13:55:29.000Z</time>
      </trkpt>
      <trkpt lat="49.0988" lon="-1.23639">
        <ele>86.339515</ele>
        <time>2021-09-05T13:55:34.000Z</time>
      </trkpt>
      <trkpt lat="49.09862" lon="-1.23628">
        <ele>86.199746</ele>
        <time>2021-09-05T13:55:39.000Z</time>
      </trkpt>
      <trkpt lat="49.09829" lon="-1.23609">
        <ele>85.941655</ele>
        <time>2021-09-05T13:55:47.000Z</time>
      </trkpt>
      <trkpt lat="49.09815" lon="-1.23604">
        <ele>85.836854</ele>
        <time>2021-09-05T13:55:50.000Z</time>
      </trkpt>
      <trkpt lat="49.09811" lon="-1.23604">
        <ele>85.804021</ele>
        <time>2021-09-05T13:55:51.000Z</time>
      </trkpt>
      <trkpt lat="49.09804" lon="-1.23605">
        <ele>85.752962</ele>
        <time>2021-09-05T13:55:53.000Z</time>
      </trkpt>
      <trkpt lat="49.09801" lon="-1.23605">
        <ele>85.730345</ele>
        <time>2021-09-05T13:55:54.000Z</time>
      </trkpt>
      <trkpt lat="49.09799" lon="-1.236">
        <ele>85.700797</ele>
        <time>2021-09-05T13:55:55.000Z</time>
      </trkpt>
      <trkpt lat="49.09796" lon="-1.23589">
        <ele>85.647473</ele>
        <time>2021-09-05T13:55:57.000Z</time>
      </trkpt>
      <trkpt lat="49.09793" lon="-1.23577">
        <ele>85.584871</ele>
        <time>2021-09-05T13:55:59.000Z</time>
      </trkpt>
      <trkpt lat="49.0979" lon="-1.23564">
        <ele>85.518635</ele>
        <time>2021-09-05T13:56:01.000Z</time>
      </trkpt>
      <trkpt lat="49.09789" lon="-1.23556">
        <ele>85.483973</ele>
        <time>2021-09-05T13:56:02.000Z</time>
      </trkpt>
      <trkpt lat="49.09783" lon="-1.23502">
        <ele>85.218205</ele>
        <time>2021-09-05T13:56:09.000Z</time>
      </trkpt>
      <trkpt lat="49.09777" lon="-1.23425">
        <ele>84.640491</ele>
        <time>2021-09-05T13:56:18.000Z</time>
      </trkpt>
      <trkpt lat="49.09772" lon="-1.23365">
        <ele>84.129016</ele>
        <time>2021-09-05T13:56:25.000Z</time>
      </trkpt>
      <trkpt lat="49.09768" lon="-1.23314">
        <ele>83.690452</ele>
        <time>2021-09-05T13:56:31.000Z</time>
      </trkpt>
      <trkpt lat="49.09768" lon="-1.23306">
        <ele>83.61938</ele>
        <time>2021-09-05T13:56:32.000Z</time>
      </trkpt>
      <trkpt lat="49.09764" lon="-1.23248">
        <ele>83.128641</ele>
        <time>2021-09-05T13:56:39.000Z</time>
      </trkpt>
      <trkpt lat="49.09762" lon="-1.23225">
        <ele>82.928108</ele>
        <time>2021-09-05T13:56:42.000Z</time>
      </trkpt>
      <trkpt lat="49.0976" lon="-1.23195">
        <ele>82.741964</ele>
        <time>2021-09-05T13:56:46.000Z</time>
      </trkpt>
      <trkpt lat="49.09759" lon="-1.23181">
        <ele>82.70068</ele>
        <time>2021-09-05T13:56:48.000Z</time>
      </trkpt>
      <trkpt lat="49.09757" lon="-1.23156">
        <ele>82.62667</ele>
        <time>2021-09-05T13:56:52.000Z</time>
      </trkpt>
      <trkpt lat="49.09754" lon="-1.2312">
        <ele>82.517294</ele>
        <time>2021-09-05T13:56:59.000Z</time>
      </trkpt>
      <trkpt lat="49.09753" lon="-1.23111">
        <ele>82.490186</ele>
        <time>2021-09-05T13:57:01.000Z</time>
      </trkpt>
      <trkpt lat="49.09751" lon="-1.23101">
        <ele>82.460255</ele>
        <time>2021-09-05T13:57:03.000Z</time>
      </trkpt>
      <trkpt lat="49.09736" lon="-1.23068">
        <ele>82.340912</ele>
        <time>2021-09-05T13:57:10.000Z</time>
      </trkpt>
      <trkpt lat="49.09729" lon="-1.23061">
        <ele>82.30325</ele>
        <time>2021-09-05T13:57:12.000Z</time>
      </trkpt>
      <trkpt lat="49.09712" lon="-1.23053">
        <ele>82.223472</ele>
        <time>2021-09-05T13:57:16.000Z</time>
      </trkpt>
      <trkpt lat="49.09704" lon="-1.2305">
        <ele>82.183418</ele>
        <time>2021-09-05T13:57:18.000Z</time>
      </trkpt>
      <trkpt lat="49.0968" lon="-1.23041">
        <ele>82.073085</ele>
        <time>2021-09-05T13:57:24.000Z</time>
      </trkpt>
      <trkpt lat="49.09644" lon="-1.23026">
        <ele>82.097264</ele>
        <time>2021-09-05T13:57:33.000Z</time>
      </trkpt>
      <trkpt lat="49.09602" lon="-1.2301">
        <ele>82.512268</ele>
        <time>2021-09-05T13:57:44.000Z</time>
      </trkpt>
      <trkpt lat="49.09572" lon="-1.22998">
        <ele>82.804528</ele>
        <time>2021-09-05T13:57:52.000Z</time>
      </trkpt>
      <trkpt lat="49.09561" lon="-1.22994">
        <ele>82.910663</ele>
        <time>2021-09-05T13:57:55.000Z</time>
      </trkpt>
      <trkpt lat="49.09553" lon="-1.23002">
        <ele>83.003802</ele>
        <time>2021-09-05T13:57:57.000Z</time>
      </trkpt>
      <trkpt lat="49.0954" lon="-1.23006">
        <ele>83.128228</ele>
        <time>2021-09-05T13:58:00.000Z</time>
      </trkpt>
      <trkpt lat="49.09536" lon="-1.23001">
        <ele>83.178195</ele>
        <time>2021-09-05T13:58:01.000Z</time>
      </trkpt>
      <trkpt lat="49.09534" lon="-1.22996">
        <ele>83.216089</ele>
        <time>2021-09-05T13:58:02.000Z</time>
      </trkpt>
      <trkpt lat="49.09522" lon="-1.22978">
        <ele>83.375817</ele>
        <time>2021-09-05T13:58:06.000Z</time>
      </trkpt>
      <trkpt lat="49.09499" lon="-1.22968">
        <ele>83.600562</ele>
        <time>2021-09-05T13:58:12.000Z</time>
      </trkpt>
      <trkpt lat="49.09475" lon="-1.22959">
        <ele>84.126578</ele>
        <time>2021-09-05T13:58:19.000Z</time>
      </trkpt>
      <trkpt lat="49.09453" lon="-1.2295">
        <ele>84.748279</ele>
        <time>2021-09-05T13:58:27.000Z</time>
      </trkpt>
      <trkpt lat="49.09429" lon="-1.2294">
        <ele>85.435295</ele>
        <time>2021-09-05T13:58:36.000Z</time>
      </trkpt>
      <trkpt lat="49.09411" lon="-1.22932">
        <ele>85.949782</ele>
        <time>2021-09-05T13:58:43.000Z</time>
      </trkpt>
      <trkpt lat="49.09388" lon="-1.22923">
        <ele>86.605461</ele>
        <time>2021-09-05T13:58:52.000Z</time>
      </trkpt>
      <trkpt lat="49.09363" lon="-1.22914">
        <ele>87.289358</ele>
        <time>2021-09-05T13:59:01.000Z</time>
      </trkpt>
      <trkpt lat="49.09347" lon="-1.22908">
        <ele>87.745146</ele>
        <time>2021-09-05T13:59:07.000Z</time>
      </trkpt>
      <trkpt lat="49.0933" lon="-1.22924">
        <ele>88.296237</ele>
        <time>2021-09-05T13:59:14.000Z</time>
      </trkpt>
      <trkpt lat="49.09308" lon="-1.22921">
        <ele>88.697886</ele>
        <time>2021-09-05T13:59:19.000Z</time>
      </trkpt>
      <trkpt lat="49.09297" lon="-1.22906">
        <ele>88.837001</ele>
        <time>2021-09-05T13:59:23.000Z</time>
      </trkpt>
      <trkpt lat="49.09279" lon="-1.22899">
        <ele>89.001155</ele>
        <time>2021-09-05T13:59:27.000Z</time>
      </trkpt>
      <trkpt lat="49.09272" lon="-1.22904">
        <ele>89.080639</ele>
        <time>2021-09-05T13:59:29.000Z</time>
      </trkpt>
      <trkpt lat="49.09267" lon="-1.2291">
        <ele>89.134146</ele>
        <time>2021-09-05T13:59:30.000Z</time>
      </trkpt>
      <trkpt lat="49.09264" lon="-1.22917">
        <ele>89.187735</ele>
        <time>2021-09-05T13:59:31.000Z</time>
      </trkpt>
      <trkpt lat="49.09262" lon="-1.22932">
        <ele>89.28059</ele>
        <time>2021-09-05T13:59:33.000Z</time>
      </trkpt>
      <trkpt lat="49.09261" lon="-1.22987">
        <ele>89.611772</ele>
        <time>2021-09-05T13:59:40.000Z</time>
      </trkpt>
      <trkpt lat="49.0926" lon="-1.23064">
        <ele>90.07378</ele>
        <time>2021-09-05T13:59:49.000Z</time>
      </trkpt>
      <trkpt lat="49.0926" lon="-1.23073">
        <ele>90.129346</ele>
        <time>2021-09-05T13:59:50.000Z</time>
      </trkpt>
      <trkpt lat="49.09257" lon="-1.23092">
        <ele>90.249117</ele>
        <time>2021-09-05T13:59:52.000Z</time>
      </trkpt>
      <trkpt lat="49.09254" lon="-1.231">
        <ele>90.313988</ele>
        <time>2021-09-05T13:59:53.000Z</time>
      </trkpt>
      <trkpt lat="49.0925" lon="-1.23108">
        <ele>90.380543</ele>
        <time>2021-09-05T13:59:54.000Z</time>
      </trkpt>
      <trkpt lat="49.0924" lon="-1.2312">
        <ele>90.51604</ele>
        <time>2021-09-05T13:59:56.000Z</time>
      </trkpt>
      <trkpt lat="49.09228" lon="-1.23126">
        <ele>90.647063</ele>
        <time>2021-09-05T13:59:58.000Z</time>
      </trkpt>
      <trkpt lat="49.09222" lon="-1.23128">
        <ele>90.710838</ele>
        <time>2021-09-05T13:59:59.000Z</time>
      </trkpt>
      <trkpt lat="49.09216" lon="-1.23127">
        <ele>90.776354</ele>
        <time>2021-09-05T14:00:00.000Z</time>
      </trkpt>
      <trkpt lat="49.09205" lon="-1.23123">
        <ele>90.898564</ele>
        <time>2021-09-05T14:00:02.000Z</time>
      </trkpt>
      <trkpt lat="49.092" lon="-1.23119">
        <ele>90.959775</ele>
        <time>2021-09-05T14:00:03.000Z</time>
      </trkpt>
      <trkpt lat="49.09195" lon="-1.23115">
        <ele>91.016918</ele>
        <time>2021-09-05T14:00:04.000Z</time>
      </trkpt>
      <trkpt lat="49.09187" lon="-1.23106">
        <ele>91.124337</ele>
        <time>2021-09-05T14:00:06.000Z</time>
      </trkpt>
      <trkpt lat="49.09183" lon="-1.23101">
        <ele>91.173979</ele>
        <time>2021-09-05T14:00:07.000Z</time>
      </trkpt>
      <trkpt lat="49.09167" lon="-1.23076">
        <ele>91.418508</ele>
        <time>2021-09-05T14:00:13.000Z</time>
      </trkpt>
      <trkpt lat="49.09154" lon="-1.23054">
        <ele>91.621234</ele>
        <time>2021-09-05T14:00:19.000Z</time>
      </trkpt>
      <trkpt lat="49.09137" lon="-1.23026">
        <ele>91.887834</ele>
        <time>2021-09-05T14:00:27.000Z</time>
      </trkpt>
      <trkpt lat="49.09123" lon="-1.23002">
        <ele>92.110021</ele>
        <time>2021-09-05T14:00:34.000Z</time>
      </trkpt>
      <trkpt lat="49.09112" lon="-1.22982">
        <ele>92.670425</ele>
        <time>2021-09-05T14:00:40.000Z</time>
      </trkpt>
      <trkpt lat="49.09093" lon="-1.22948">
        <ele>93.843381</ele>
        <time>2021-09-05T14:00:50.000Z</time>
      </trkpt>
      <trkpt lat="49.09071" lon="-1.22907">
        <ele>95.231905</ele>
        <time>2021-09-05T14:01:02.000Z</time>
      </trkpt>
      <trkpt lat="49.09057" lon="-1.2288">
        <ele>96.140723</ele>
        <time>2021-09-05T14:01:10.000Z</time>
      </trkpt>
      <trkpt lat="49.09043" lon="-1.22854">
        <ele>97.007141</ele>
        <time>2021-09-05T14:01:18.000Z</time>
      </trkpt>
      <trkpt lat="49.09028" lon="-1.2283">
        <ele>97.884811</ele>
        <time>2021-09-05T14:01:26.000Z</time>
      </trkpt>
      <trkpt lat="49.09014" lon="-1.22805">
        <ele>98.735499</ele>
        <time>2021-09-05T14:01:34.000Z</time>
      </trkpt>
      <trkpt lat="49.09005" lon="-1.2279">
        <ele>99.282701</ele>
        <time>2021-09-05T14:01:39.000Z</time>
      </trkpt>
      <trkpt lat="49.08987" lon="-1.22763">
        <ele>99.888943</ele>
        <time>2021-09-05T14:01:48.000Z</time>
      </trkpt>
      <trkpt lat="49.08971" lon="-1.22738">
        <ele>100.431401</ele>
        <time>2021-09-05T14:01:56.000Z</time>
      </trkpt>
      <trkpt lat="49.08951" lon="-1.22708">
        <ele>101.083935</ele>
        <time>2021-09-05T14:02:04.000Z</time>
      </trkpt>
      <trkpt lat="49.08924" lon="-1.2267">
        <ele>101.95022</ele>
        <time>2021-09-05T14:02:12.000Z</time>
      </trkpt>
      <trkpt lat="49.08899" lon="-1.22628">
        <ele>102.816438</ele>
        <time>2021-09-05T14:02:19.000Z</time>
      </trkpt>
      <trkpt lat="49.0887" lon="-1.22577">
        <ele>103.605687</ele>
        <time>2021-09-05T14:02:27.000Z</time>
      </trkpt>
      <trkpt lat="49.08863" lon="-1.22564">
        <ele>103.638252</ele>
        <time>2021-09-05T14:02:29.000Z</time>
      </trkpt>
      <trkpt lat="49.08844" lon="-1.2253">
        <ele>103.721079</ele>
        <time>2021-09-05T14:02:34.000Z</time>
      </trkpt>
      <trkpt lat="49.08817" lon="-1.22483">
        <ele>103.836148</ele>
        <time>2021-09-05T14:02:41.000Z</time>
      </trkpt>
      <trkpt lat="49.08791" lon="-1.22436">
        <ele>103.94879</ele>
        <time>2021-09-05T14:02:48.000Z</time>
      </trkpt>
      <trkpt lat="49.08787" lon="-1.22429">
        <ele>103.967157</ele>
        <time>2021-09-05T14:02:49.000Z</time>
      </trkpt>
      <trkpt lat="49.08781" lon="-1.22426">
        <ele>103.98349</ele>
        <time>2021-09-05T14:02:50.000Z</time>
      </trkpt>
      <trkpt lat="49.08764" lon="-1.22417">
        <ele>104.033407</ele>
        <time>2021-09-05T14:02:53.000Z</time>
      </trkpt>
      <trkpt lat="49.08724" lon="-1.22397">
        <ele>103.857265</ele>
        <time>2021-09-05T14:03:00.000Z</time>
      </trkpt>
      <trkpt lat="49.0868" lon="-1.22374">
        <ele>103.468192</ele>
        <time>2021-09-05T14:03:07.000Z</time>
      </trkpt>
      <trkpt lat="49.08637" lon="-1.22359">
        <ele>103.108073</ele>
        <time>2021-09-05T14:03:13.000Z</time>
      </trkpt>
      <trkpt lat="49.08589" lon="-1.22346">
        <ele>102.703542</ele>
        <time>2021-09-05T14:03:20.000Z</time>
      </trkpt>
      <trkpt lat="49.08543" lon="-1.22339">
        <ele>102.030494</ele>
        <time>2021-09-05T14:03:27.000Z</time>
      </trkpt>
      <trkpt lat="49.0853" lon="-1.22337">
        <ele>101.807658</ele>
        <time>2021-09-05T14:03:29.000Z</time>
      </trkpt>
      <trkpt lat="49.08475" lon="-1.22329">
        <ele>100.885667</ele>
        <time>2021-09-05T14:03:37.000Z</time>
      </trkpt>
      <trkpt lat="49.08468" lon="-1.22328">
        <ele>100.766668</ele>
        <time>2021-09-05T14:03:38.000Z</time>
      </trkpt>
      <trkpt lat="49.08409" lon="-1.22319">
        <ele>99.75936</ele>
        <time>2021-09-05T14:03:46.000Z</time>
      </trkpt>
      <trkpt lat="49.0837" lon="-1.2231">
        <ele>98.952445</ele>
        <time>2021-09-05T14:03:51.000Z</time>
      </trkpt>
      <trkpt lat="49.08322" lon="-1.22299">
        <ele>97.901716</ele>
        <time>2021-09-05T14:03:57.000Z</time>
      </trkpt>
      <trkpt lat="49.08297" lon="-1.22293">
        <ele>97.352085</ele>
        <time>2021-09-05T14:04:00.000Z</time>
      </trkpt>
      <trkpt lat="49.08263" lon="-1.22285">
        <ele>96.593207</ele>
        <time>2021-09-05T14:04:04.000Z</time>
      </trkpt>
      <trkpt lat="49.08211" lon="-1.22277">
        <ele>95.40744</ele>
        <time>2021-09-05T14:04:10.000Z</time>
      </trkpt>
      <trkpt lat="49.08161" lon="-1.22268">
        <ele>94.031099</ele>
        <time>2021-09-05T14:04:16.000Z</time>
      </trkpt>
      <trkpt lat="49.08122" lon="-1.22256">
        <ele>92.950696</ele>
        <time>2021-09-05T14:04:21.000Z</time>
      </trkpt>
      <trkpt lat="49.08081" lon="-1.22233">
        <ele>91.765473</ele>
        <time>2021-09-05T14:04:27.000Z</time>
      </trkpt>
      <trkpt lat="49.08036" lon="-1.22204">
        <ele>90.369386</ele>
        <time>2021-09-05T14:04:34.000Z</time>
      </trkpt>
      <trkpt lat="49.08001" lon="-1.22182">
        <ele>89.19091</ele>
        <time>2021-09-05T14:04:39.000Z</time>
      </trkpt>
      <trkpt lat="49.07955" lon="-1.22149">
        <ele>87.592736</ele>
        <time>2021-09-05T14:04:45.000Z</time>
      </trkpt>
      <trkpt lat="49.07902" lon="-1.22102">
        <ele>85.661582</ele>
        <time>2021-09-05T14:04:52.000Z</time>
      </trkpt>
      <trkpt lat="49.07854" lon="-1.22061">
        <ele>83.834403</ele>
        <time>2021-09-05T14:04:58.000Z</time>
      </trkpt>
      <trkpt lat="49.07846" lon="-1.22055">
        <ele>83.513067</ele>
        <time>2021-09-05T14:04:59.000Z</time>
      </trkpt>
      <trkpt lat="49.07798" lon="-1.22008">
        <ele>81.492345</ele>
        <time>2021-09-05T14:05:05.000Z</time>
      </trkpt>
      <trkpt lat="49.07782" lon="-1.21992">
        <ele>80.839546</ele>
        <time>2021-09-05T14:05:07.000Z</time>
      </trkpt>
      <trkpt lat="49.0774" lon="-1.21953">
        <ele>79.106531</ele>
        <time>2021-09-05T14:05:13.000Z</time>
      </trkpt>
      <trkpt lat="49.07713" lon="-1.21927">
        <ele>78.286773</ele>
        <time>2021-09-05T14:05:18.000Z</time>
      </trkpt>
      <trkpt lat="49.07694" lon="-1.21907">
        <ele>77.794542</ele>
        <time>2021-09-05T14:05:23.000Z</time>
      </trkpt>
      <trkpt lat="49.07674" lon="-1.21887">
        <ele>77.273467</ele>
        <time>2021-09-05T14:05:30.000Z</time>
      </trkpt>
      <trkpt lat="49.07652" lon="-1.21865">
        <ele>76.719221</ele>
        <time>2021-09-05T14:05:39.000Z</time>
      </trkpt>
      <trkpt lat="49.07631" lon="-1.21843">
        <ele>76.178508</ele>
        <time>2021-09-05T14:05:48.000Z</time>
      </trkpt>
      <trkpt lat="49.07612" lon="-1.21824">
        <ele>75.689041</ele>
        <time>2021-09-05T14:05:56.000Z</time>
      </trkpt>
      <trkpt lat="49.07593" lon="-1.21804">
        <ele>75.19879</ele>
        <time>2021-09-05T14:06:04.000Z</time>
      </trkpt>
      <trkpt lat="49.07571" lon="-1.21781">
        <ele>74.941454</ele>
        <time>2021-09-05T14:06:12.000Z</time>
      </trkpt>
      <trkpt lat="49.07546" lon="-1.21764">
        <ele>75.025733</ele>
        <time>2021-09-05T14:06:19.000Z</time>
      </trkpt>
      <trkpt lat="49.0751" lon="-1.21738">
        <ele>75.14459</ele>
        <time>2021-09-05T14:06:28.000Z</time>
      </trkpt>
      <trkpt lat="49.07494" lon="-1.21716">
        <ele>75.207003</ele>
        <time>2021-09-05T14:06:33.000Z</time>
      </trkpt>
      <trkpt lat="49.07469" lon="-1.21681">
        <ele>75.310186</ele>
        <time>2021-09-05T14:06:42.000Z</time>
      </trkpt>
      <trkpt lat="49.07445" lon="-1.21646">
        <ele>75.409659</ele>
        <time>2021-09-05T14:06:52.000Z</time>
      </trkpt>
      <trkpt lat="49.07429" lon="-1.2162">
        <ele>75.659753</ele>
        <time>2021-09-05T14:06:59.000Z</time>
      </trkpt>
      <trkpt lat="49.07412" lon="-1.21589">
        <ele>76.107295</ele>
        <time>2021-09-05T14:07:06.000Z</time>
      </trkpt>
      <trkpt lat="49.07409" lon="-1.21585">
        <ele>76.178451</ele>
        <time>2021-09-05T14:07:07.000Z</time>
      </trkpt>
      <trkpt lat="49.07402" lon="-1.21576">
        <ele>76.329052</ele>
        <time>2021-09-05T14:07:09.000Z</time>
      </trkpt>
      <trkpt lat="49.07395" lon="-1.21569">
        <ele>76.482937</ele>
        <time>2021-09-05T14:07:11.000Z</time>
      </trkpt>
      <trkpt lat="49.07368" lon="-1.21542">
        <ele>77.037015</ele>
        <time>2021-09-05T14:07:19.000Z</time>
      </trkpt>
      <trkpt lat="49.07352" lon="-1.21522">
        <ele>77.391885</ele>
        <time>2021-09-05T14:07:26.000Z</time>
      </trkpt>
      <trkpt lat="49.07333" lon="-1.21498">
        <ele>77.819314</ele>
        <time>2021-09-05T14:07:35.000Z</time>
      </trkpt>
      <trkpt lat="49.07316" lon="-1.21478">
        <ele>78.189287</ele>
        <time>2021-09-05T14:07:43.000Z</time>
      </trkpt>
      <trkpt lat="49.073" lon="-1.21459">
        <ele>78.536026</ele>
        <time>2021-09-05T14:07:51.000Z</time>
      </trkpt>
      <trkpt lat="49.07282" lon="-1.21448">
        <ele>79.178803</ele>
        <time>2021-09-05T14:07:59.000Z</time>
      </trkpt>
      <trkpt lat="49.07265" lon="-1.21448">
        <ele>79.731569</ele>
        <time>2021-09-05T14:08:04.000Z</time>
      </trkpt>
      <trkpt lat="49.07248" lon="-1.21452">
        <ele>80.280591</ele>
        <time>2021-09-05T14:08:08.000Z</time>
      </trkpt>
      <trkpt lat="49.0724" lon="-1.21449">
        <ele>80.562756</ele>
        <time>2021-09-05T14:08:10.000Z</time>
      </trkpt>
      <trkpt lat="49.07226" lon="-1.21434">
        <ele>81.113417</ele>
        <time>2021-09-05T14:08:14.000Z</time>
      </trkpt>
      <trkpt lat="49.07211" lon="-1.2141">
        <ele>81.831953</ele>
        <time>2021-09-05T14:08:20.000Z</time>
      </trkpt>
      <trkpt lat="49.072" lon="-1.21392">
        <ele>82.358752</ele>
        <time>2021-09-05T14:08:26.000Z</time>
      </trkpt>
      <trkpt lat="49.07186" lon="-1.21371">
        <ele>82.998021</ele>
        <time>2021-09-05T14:08:34.000Z</time>
      </trkpt>
      <trkpt lat="49.07175" lon="-1.21355">
        <ele>83.506538</ele>
        <time>2021-09-05T14:08:41.000Z</time>
      </trkpt>
      <trkpt lat="49.07162" lon="-1.21341">
        <ele>84.011111</ele>
        <time>2021-09-05T14:08:48.000Z</time>
      </trkpt>
      <trkpt lat="49.07145" lon="-1.21329">
        <ele>84.630177</ele>
        <time>2021-09-05T14:08:56.000Z</time>
      </trkpt>
      <trkpt lat="49.07129" lon="-1.21317">
        <ele>85.247331</ele>
        <time>2021-09-05T14:09:03.000Z</time>
      </trkpt>
      <trkpt lat="49.0711" lon="-1.21295">
        <ele>86.076918</ele>
        <time>2021-09-05T14:09:12.000Z</time>
      </trkpt>
      <trkpt lat="49.07091" lon="-1.21264">
        <ele>87.066078</ele>
        <time>2021-09-05T14:09:22.000Z</time>
      </trkpt>
      <trkpt lat="49.07072" lon="-1.21233">
        <ele>88.023585</ele>
        <time>2021-09-05T14:09:32.000Z</time>
      </trkpt>
      <trkpt lat="49.07051" lon="-1.21199">
        <ele>89.087807</ele>
        <time>2021-09-05T14:09:41.000Z</time>
      </trkpt>
      <trkpt lat="49.07032" lon="-1.21163">
        <ele>90.141844</ele>
        <time>2021-09-05T14:09:49.000Z</time>
      </trkpt>
      <trkpt lat="49.07014" lon="-1.2113">
        <ele>90.756695</ele>
        <time>2021-09-05T14:09:56.000Z</time>
      </trkpt>
      <trkpt lat="49.06991" lon="-1.21089">
        <ele>90.981054</ele>
        <time>2021-09-05T14:10:04.000Z</time>
      </trkpt>
      <trkpt lat="49.06978" lon="-1.21067">
        <ele>91.103462</ele>
        <time>2021-09-05T14:10:08.000Z</time>
      </trkpt>
      <trkpt lat="49.06971" lon="-1.21057">
        <ele>91.164284</ele>
        <time>2021-09-05T14:10:10.000Z</time>
      </trkpt>
      <trkpt lat="49.0695" lon="-1.21029">
        <ele>91.340298</ele>
        <time>2021-09-05T14:10:16.000Z</time>
      </trkpt>
      <trkpt lat="49.06939" lon="-1.21015">
        <ele>91.432057</ele>
        <time>2021-09-05T14:10:19.000Z</time>
      </trkpt>
      <trkpt lat="49.06927" lon="-1.21">
        <ele>91.528653</ele>
        <time>2021-09-05T14:10:22.000Z</time>
      </trkpt>
      <trkpt lat="49.06903" lon="-1.20966">
        <ele>91.737104</ele>
        <time>2021-09-05T14:10:28.000Z</time>
      </trkpt>
      <trkpt lat="49.06899" lon="-1.2096">
        <ele>91.769233</ele>
        <time>2021-09-05T14:10:29.000Z</time>
      </trkpt>
      <trkpt lat="49.0689" lon="-1.20946">
        <ele>91.768615</ele>
        <time>2021-09-05T14:10:32.000Z</time>
      </trkpt>
      <trkpt lat="49.06886" lon="-1.20925">
        <ele>91.6576</ele>
        <time>2021-09-05T14:10:36.000Z</time>
      </trkpt>
      <trkpt lat="49.06886" lon="-1.20879">
        <ele>91.42633</ele>
        <time>2021-09-05T14:10:42.000Z</time>
      </trkpt>
      <trkpt lat="49.06887" lon="-1.20811">
        <ele>91.081685</ele>
        <time>2021-09-05T14:10:50.000Z</time>
      </trkpt>
      <trkpt lat="49.06888" lon="-1.20739">
        <ele>90.719411</ele>
        <time>2021-09-05T14:10:58.000Z</time>
      </trkpt>
      <trkpt lat="49.06889" lon="-1.20681">
        <ele>90.423775</ele>
        <time>2021-09-05T14:11:04.000Z</time>
      </trkpt>
      <trkpt lat="49.06889" lon="-1.20651">
        <ele>90.053985</ele>
        <time>2021-09-05T14:11:07.000Z</time>
      </trkpt>
      <trkpt lat="49.0689" lon="-1.20629">
        <ele>89.795924</ele>
        <time>2021-09-05T14:11:09.000Z</time>
      </trkpt>
      <trkpt lat="49.06892" lon="-1.20557">
        <ele>88.930137</ele>
        <time>2021-09-05T14:11:15.000Z</time>
      </trkpt>
      <trkpt lat="49.06891" lon="-1.20519">
        <ele>88.463805</ele>
        <time>2021-09-05T14:11:18.000Z</time>
      </trkpt>
      <trkpt lat="49.06887" lon="-1.20493">
        <ele>88.143734</ele>
        <time>2021-09-05T14:11:20.000Z</time>
      </trkpt>
      <trkpt lat="49.06867" lon="-1.20415">
        <ele>87.140075</ele>
        <time>2021-09-05T14:11:26.000Z</time>
      </trkpt>
      <trkpt lat="49.06847" lon="-1.20335">
        <ele>85.214948</ele>
        <time>2021-09-05T14:11:32.000Z</time>
      </trkpt>
      <trkpt lat="49.06831" lon="-1.20267">
        <ele>83.594082</ele>
        <time>2021-09-05T14:11:37.000Z</time>
      </trkpt>
      <trkpt lat="49.06818" lon="-1.20213">
        <ele>82.307519</ele>
        <time>2021-09-05T14:11:41.000Z</time>
      </trkpt>
      <trkpt lat="49.06809" lon="-1.2017">
        <ele>81.286298</ele>
        <time>2021-09-05T14:11:45.000Z</time>
      </trkpt>
      <trkpt lat="49.06802" lon="-1.20141">
        <ele>80.501943</ele>
        <time>2021-09-05T14:11:49.000Z</time>
      </trkpt>
      <trkpt lat="49.06798" lon="-1.20129">
        <ele>80.124238</ele>
        <time>2021-09-05T14:11:51.000Z</time>
      </trkpt>
      <trkpt lat="49.06794" lon="-1.20119">
        <ele>79.784784</ele>
        <time>2021-09-05T14:11:53.000Z</time>
      </trkpt>
      <trkpt lat="49.0679" lon="-1.20109">
        <ele>79.421328</ele>
        <time>2021-09-05T14:11:55.000Z</time>
      </trkpt>
      <trkpt lat="49.06788" lon="-1.20093">
        <ele>78.964426</ele>
        <time>2021-09-05T14:11:57.000Z</time>
      </trkpt>
      <trkpt lat="49.06791" lon="-1.20061">
        <ele>78.049087</ele>
        <time>2021-09-05T14:12:01.000Z</time>
      </trkpt>
      <trkpt lat="49.0679" lon="-1.20043">
        <ele>77.534399</ele>
        <time>2021-09-05T14:12:03.000Z</time>
      </trkpt>
      <trkpt lat="49.06785" lon="-1.20027">
        <ele>77.017592</ele>
        <time>2021-09-05T14:12:05.000Z</time>
      </trkpt>
      <trkpt lat="49.06776" lon="-1.20012">
        <ele>76.444294</ele>
        <time>2021-09-05T14:12:07.000Z</time>
      </trkpt>
      <trkpt lat="49.06772" lon="-1.20006">
        <ele>76.187379</ele>
        <time>2021-09-05T14:12:08.000Z</time>
      </trkpt>
      <trkpt lat="49.06771" lon="-1.19996">
        <ele>75.908935</ele>
        <time>2021-09-05T14:12:09.000Z</time>
      </trkpt>
      <trkpt lat="49.06778" lon="-1.19984">
        <ele>75.433275</ele>
        <time>2021-09-05T14:12:11.000Z</time>
      </trkpt>
      <trkpt lat="49.068" lon="-1.19955">
        <ele>74.194734</ele>
        <time>2021-09-05T14:12:17.000Z</time>
      </trkpt>
      <trkpt lat="49.06814" lon="-1.19924">
        <ele>73.108518</ele>
        <time>2021-09-05T14:12:24.000Z</time>
      </trkpt>
      <trkpt lat="49.06825" lon="-1.19885">
        <ele>72.468221</ele>
        <time>2021-09-05T14:12:32.000Z</time>
      </trkpt>
      <trkpt lat="49.06833" lon="-1.19859">
        <ele>72.035347</ele>
        <time>2021-09-05T14:12:37.000Z</time>
      </trkpt>
      <trkpt lat="49.06835" lon="-1.19853">
        <ele>71.946929</ele>
        <time>2021-09-05T14:12:38.000Z</time>
      </trkpt>
      <trkpt lat="49.06849" lon="-1.19822">
        <ele>71.379275</ele>
        <time>2021-09-05T14:12:44.000Z</time>
      </trkpt>
      <trkpt lat="49.06852" lon="-1.19817">
        <ele>71.272849</ele>
        <time>2021-09-05T14:12:45.000Z</time>
      </trkpt>
      <trkpt lat="49.06854" lon="-1.19811">
        <ele>71.165244</ele>
        <time>2021-09-05T14:12:46.000Z</time>
      </trkpt>
      <trkpt lat="49.06869" lon="-1.1978">
        <ele>70.585799</ele>
        <time>2021-09-05T14:12:51.000Z</time>
      </trkpt>
      <trkpt lat="49.06877" lon="-1.19757">
        <ele>70.190313</ele>
        <time>2021-09-05T14:12:54.000Z</time>
      </trkpt>
      <trkpt lat="49.06883" lon="-1.19739">
        <ele>69.889894</ele>
        <time>2021-09-05T14:12:56.000Z</time>
      </trkpt>
      <trkpt lat="49.06905" lon="-1.19671">
        <ele>68.771003</ele>
        <time>2021-09-05T14:13:03.000Z</time>
      </trkpt>
      <trkpt lat="49.06915" lon="-1.19639">
        <ele>68.324064</ele>
        <time>2021-09-05T14:13:06.000Z</time>
      </trkpt>
      <trkpt lat="49.06918" lon="-1.19629">
        <ele>68.172414</ele>
        <time>2021-09-05T14:13:07.000Z</time>
      </trkpt>
      <trkpt lat="49.06921" lon="-1.19618">
        <ele>68.024763</ele>
        <time>2021-09-05T14:13:08.000Z</time>
      </trkpt>
      <trkpt lat="49.06936" lon="-1.19581">
        <ele>67.456085</ele>
        <time>2021-09-05T14:13:12.000Z</time>
      </trkpt>
      <trkpt lat="49.06957" lon="-1.19529">
        <ele>66.664583</ele>
        <time>2021-09-05T14:13:17.000Z</time>
      </trkpt>
      <trkpt lat="49.06956" lon="-1.19506">
        <ele>66.361311</ele>
        <time>2021-09-05T14:13:19.000Z</time>
      </trkpt>
      <trkpt lat="49.06944" lon="-1.19477">
        <ele>65.914486</ele>
        <time>2021-09-05T14:13:22.000Z</time>
      </trkpt>
      <trkpt lat="49.06921" lon="-1.19427">
        <ele>65.582007</ele>
        <time>2021-09-05T14:13:28.000Z</time>
      </trkpt>
      <trkpt lat="49.06908" lon="-1.19405">
        <ele>65.825441</ele>
        <time>2021-09-05T14:13:31.000Z</time>
      </trkpt>
      <trkpt lat="49.069" lon="-1.19395">
        <ele>65.965465</ele>
        <time>2021-09-05T14:13:33.000Z</time>
      </trkpt>
      <trkpt lat="49.0689" lon="-1.19385">
        <ele>66.112092</ele>
        <time>2021-09-05T14:13:36.000Z</time>
      </trkpt>
      <trkpt lat="49.06876" lon="-1.19376">
        <ele>66.306317</ele>
        <time>2021-09-05T14:13:42.000Z</time>
      </trkpt>
      <trkpt lat="49.06865" lon="-1.19368">
        <ele>66.465941</ele>
        <time>2021-09-05T14:13:48.000Z</time>
      </trkpt>
      <trkpt lat="49.06854" lon="-1.1936">
        <ele>66.62104</ele>
        <time>2021-09-05T14:13:55.000Z</time>
      </trkpt>
      <trkpt lat="49.06843" lon="-1.1935">
        <ele>66.785822</ele>
        <time>2021-09-05T14:14:03.000Z</time>
      </trkpt>
      <trkpt lat="49.06835" lon="-1.19343">
        <ele>66.903523</ele>
        <time>2021-09-05T14:14:08.000Z</time>
      </trkpt>
      <trkpt lat="49.06824" lon="-1.19333">
        <ele>67.058476</ele>
        <time>2021-09-05T14:14:15.000Z</time>
      </trkpt>
      <trkpt lat="49.06815" lon="-1.19325">
        <ele>67.192517</ele>
        <time>2021-09-05T14:14:21.000Z</time>
      </trkpt>
      <trkpt lat="49.06805" lon="-1.19316">
        <ele>67.342899</ele>
        <time>2021-09-05T14:14:28.000Z</time>
      </trkpt>
      <trkpt lat="49.06795" lon="-1.19308">
        <ele>67.487188</ele>
        <time>2021-09-05T14:14:35.000Z</time>
      </trkpt>
      <trkpt lat="49.06788" lon="-1.19301">
        <ele>67.594642</ele>
        <time>2021-09-05T14:14:40.000Z</time>
      </trkpt>
      <trkpt lat="49.06777" lon="-1.19292">
        <ele>67.935022</ele>
        <time>2021-09-05T14:14:47.000Z</time>
      </trkpt>
      <trkpt lat="49.06766" lon="-1.19279">
        <ele>68.728329</ele>
        <time>2021-09-05T14:14:55.000Z</time>
      </trkpt>
      <trkpt lat="49.06756" lon="-1.19265">
        <ele>69.451984</ele>
        <time>2021-09-05T14:15:03.000Z</time>
      </trkpt>
      <trkpt lat="49.06747" lon="-1.19251">
        <ele>70.130823</ele>
        <time>2021-09-05T14:15:11.000Z</time>
      </trkpt>
      <trkpt lat="49.0674" lon="-1.19239">
        <ele>70.748199</ele>
        <time>2021-09-05T14:15:18.000Z</time>
      </trkpt>
      <trkpt lat="49.0673" lon="-1.19223">
        <ele>71.539775</ele>
        <time>2021-09-05T14:15:27.000Z</time>
      </trkpt>
      <trkpt lat="49.06722" lon="-1.19211">
        <ele>72.163541</ele>
        <time>2021-09-05T14:15:34.000Z</time>
      </trkpt>
      <trkpt lat="49.06713" lon="-1.19195">
        <ele>72.892048</ele>
        <time>2021-09-05T14:15:42.000Z</time>
      </trkpt>
      <trkpt lat="49.06704" lon="-1.19178">
        <ele>73.706916</ele>
        <time>2021-09-05T14:15:51.000Z</time>
      </trkpt>
      <trkpt lat="49.06697" lon="-1.19164">
        <ele>74.32995</ele>
        <time>2021-09-05T14:15:58.000Z</time>
      </trkpt>
      <trkpt lat="49.06689" lon="-1.19145">
        <ele>75.13219</ele>
        <time>2021-09-05T14:16:06.000Z</time>
      </trkpt>
      <trkpt lat="49.0668" lon="-1.19122">
        <ele>76.087656</ele>
        <time>2021-09-05T14:16:14.000Z</time>
      </trkpt>
      <trkpt lat="49.06669" lon="-1.19096">
        <ele>77.217387</ele>
        <time>2021-09-05T14:16:23.000Z</time>
      </trkpt>
      <trkpt lat="49.06659" lon="-1.19072">
        <ele>78.136212</ele>
        <time>2021-09-05T14:16:31.000Z</time>
      </trkpt>
      <trkpt lat="49.06648" lon="-1.1904">
        <ele>79.24571</ele>
        <time>2021-09-05T14:16:41.000Z</time>
      </trkpt>
      <trkpt lat="49.06637" lon="-1.19019">
        <ele>80.08077</ele>
        <time>2021-09-05T14:16:48.000Z</time>
      </trkpt>
      <trkpt lat="49.0662" lon="-1.18987">
        <ele>81.343952</ele>
        <time>2021-09-05T14:16:58.000Z</time>
      </trkpt>
      <trkpt lat="49.06607" lon="-1.18966">
        <ele>82.214166</ele>
        <time>2021-09-05T14:17:05.000Z</time>
      </trkpt>
      <trkpt lat="49.0659" lon="-1.18939">
        <ele>83.402848</ele>
        <time>2021-09-05T14:17:14.000Z</time>
      </trkpt>
      <trkpt lat="49.06576" lon="-1.1892">
        <ele>84.280307</ele>
        <time>2021-09-05T14:17:21.000Z</time>
      </trkpt>
      <trkpt lat="49.06563" lon="-1.18904">
        <ele>85.048793</ele>
        <time>2021-09-05T14:17:27.000Z</time>
      </trkpt>
      <trkpt lat="49.06547" lon="-1.18883">
        <ele>86.065307</ele>
        <time>2021-09-05T14:17:35.000Z</time>
      </trkpt>
      <trkpt lat="49.06533" lon="-1.18865">
        <ele>86.855498</ele>
        <time>2021-09-05T14:17:42.000Z</time>
      </trkpt>
      <trkpt lat="49.06516" lon="-1.18844">
        <ele>87.778089</ele>
        <time>2021-09-05T14:17:50.000Z</time>
      </trkpt>
      <trkpt lat="49.06498" lon="-1.18821">
        <ele>88.791974</ele>
        <time>2021-09-05T14:17:58.000Z</time>
      </trkpt>
      <trkpt lat="49.0648" lon="-1.18798">
        <ele>89.817953</ele>
        <time>2021-09-05T14:18:07.000Z</time>
      </trkpt>
      <trkpt lat="49.06463" lon="-1.18776">
        <ele>90.801015</ele>
        <time>2021-09-05T14:18:16.000Z</time>
      </trkpt>
      <trkpt lat="49.06459" lon="-1.18771">
        <ele>91.009294</ele>
        <time>2021-09-05T14:18:18.000Z</time>
      </trkpt>
      <trkpt lat="49.06456" lon="-1.18767">
        <ele>91.177974</ele>
        <time>2021-09-05T14:18:20.000Z</time>
      </trkpt>
      <trkpt lat="49.06445" lon="-1.18752">
        <ele>91.835937</ele>
        <time>2021-09-05T14:18:26.000Z</time>
      </trkpt>
      <trkpt lat="49.06428" lon="-1.18723">
        <ele>92.919084</ele>
        <time>2021-09-05T14:18:35.000Z</time>
      </trkpt>
      <trkpt lat="49.06416" lon="-1.18702">
        <ele>93.712624</ele>
        <time>2021-09-05T14:18:41.000Z</time>
      </trkpt>
      <trkpt lat="49.06404" lon="-1.18674">
        <ele>94.381911</ele>
        <time>2021-09-05T14:18:48.000Z</time>
      </trkpt>
      <trkpt lat="49.06387" lon="-1.18634">
        <ele>95.318768</ele>
        <time>2021-09-05T14:18:58.000Z</time>
      </trkpt>
      <trkpt lat="49.06369" lon="-1.18594">
        <ele>96.250771</ele>
        <time>2021-09-05T14:19:07.000Z</time>
      </trkpt>
      <trkpt lat="49.06354" lon="-1.18558">
        <ele>97.082453</ele>
        <time>2021-09-05T14:19:15.000Z</time>
      </trkpt>
      <trkpt lat="49.06337" lon="-1.18518">
        <ele>98.001523</ele>
        <time>2021-09-05T14:19:24.000Z</time>
      </trkpt>
      <trkpt lat="49.06326" lon="-1.18502">
        <ele>98.461696</ele>
        <time>2021-09-05T14:19:30.000Z</time>
      </trkpt>
      <trkpt lat="49.06322" lon="-1.18499">
        <ele>98.590825</ele>
        <time>2021-09-05T14:19:32.000Z</time>
      </trkpt>
      <trkpt lat="49.06318" lon="-1.18497">
        <ele>98.694444</ele>
        <time>2021-09-05T14:19:34.000Z</time>
      </trkpt>
      <trkpt lat="49.06298" lon="-1.18482">
        <ele>99.213816</ele>
        <time>2021-09-05T14:19:41.000Z</time>
      </trkpt>
      <trkpt lat="49.06274" lon="-1.18466">
        <ele>99.493052</ele>
        <time>2021-09-05T14:19:48.000Z</time>
      </trkpt>
      <trkpt lat="49.06251" lon="-1.1845">
        <ele>99.773284</ele>
        <time>2021-09-05T14:19:54.000Z</time>
      </trkpt>
      <trkpt lat="49.06221" lon="-1.1843">
        <ele>100.127866</ele>
        <time>2021-09-05T14:20:01.000Z</time>
      </trkpt>
      <trkpt lat="49.06196" lon="-1.18412">
        <ele>100.428546</ele>
        <time>2021-09-05T14:20:06.000Z</time>
      </trkpt>
      <trkpt lat="49.06191" lon="-1.18408">
        <ele>100.489312</ele>
        <time>2021-09-05T14:20:07.000Z</time>
      </trkpt>
      <trkpt lat="49.06187" lon="-1.18403">
        <ele>100.548438</ele>
        <time>2021-09-05T14:20:08.000Z</time>
      </trkpt>
      <trkpt lat="49.06179" lon="-1.18391">
        <ele>100.672801</ele>
        <time>2021-09-05T14:20:10.000Z</time>
      </trkpt>
      <trkpt lat="49.06174" lon="-1.18385">
        <ele>100.738038</ele>
        <time>2021-09-05T14:20:11.000Z</time>
      </trkpt>
      <trkpt lat="49.06144" lon="-1.18362">
        <ele>101.105696</ele>
        <time>2021-09-05T14:20:16.000Z</time>
      </trkpt>
      <trkpt lat="49.06104" lon="-1.18327">
        <ele>101.582022</ele>
        <time>2021-09-05T14:20:23.000Z</time>
      </trkpt>
      <trkpt lat="49.06073" lon="-1.18293">
        <ele>101.978095</ele>
        <time>2021-09-05T14:20:30.000Z</time>
      </trkpt>
      <trkpt lat="49.06046" lon="-1.18258">
        <ele>102.336262</ele>
        <time>2021-09-05T14:20:37.000Z</time>
      </trkpt>
      <trkpt lat="49.0602" lon="-1.18223">
        <ele>102.692323</ele>
        <time>2021-09-05T14:20:45.000Z</time>
      </trkpt>
      <trkpt lat="49.05995" lon="-1.1819">
        <ele>103.091776</ele>
        <time>2021-09-05T14:20:54.000Z</time>
      </trkpt>
      <trkpt lat="49.05976" lon="-1.18165">
        <ele>103.501097</ele>
        <time>2021-09-05T14:21:01.000Z</time>
      </trkpt>
      <trkpt lat="49.05954" lon="-1.18139">
        <ele>103.956711</ele>
        <time>2021-09-05T14:21:08.000Z</time>
      </trkpt>
      <trkpt lat="49.05927" lon="-1.18107">
        <ele>104.501865</ele>
        <time>2021-09-05T14:21:16.000Z</time>
      </trkpt>
      <trkpt lat="49.05895" lon="-1.18068">
        <ele>105.170127</ele>
        <time>2021-09-05T14:21:25.000Z</time>
      </trkpt>
      <trkpt lat="49.05864" lon="-1.18031">
        <ele>105.802283</ele>
        <time>2021-09-05T14:21:33.000Z</time>
      </trkpt>
      <trkpt lat="49.05839" lon="-1.18001">
        <ele>106.317472</ele>
        <time>2021-09-05T14:21:40.000Z</time>
      </trkpt>
      <trkpt lat="49.05802" lon="-1.17974">
        <ele>106.980496</ele>
        <time>2021-09-05T14:21:49.000Z</time>
      </trkpt>
      <trkpt lat="49.05775" lon="-1.17956">
        <ele>107.450299</ele>
        <time>2021-09-05T14:21:56.000Z</time>
      </trkpt>
      <trkpt lat="49.05764" lon="-1.1795">
        <ele>107.652462</ele>
        <time>2021-09-05T14:21:59.000Z</time>
      </trkpt>
      <trkpt lat="49.05752" lon="-1.17944">
        <ele>107.856157</ele>
        <time>2021-09-05T14:22:02.000Z</time>
      </trkpt>
      <trkpt lat="49.05728" lon="-1.17932">
        <ele>108.262016</ele>
        <time>2021-09-05T14:22:08.000Z</time>
      </trkpt>
      <trkpt lat="49.05724" lon="-1.1793">
        <ele>108.328054</ele>
        <time>2021-09-05T14:22:09.000Z</time>
      </trkpt>
      <trkpt lat="49.05703" lon="-1.17921">
        <ele>108.679063</ele>
        <time>2021-09-05T14:22:14.000Z</time>
      </trkpt>
      <trkpt lat="49.05667" lon="-1.17906">
        <ele>109.220935</ele>
        <time>2021-09-05T14:22:22.000Z</time>
      </trkpt>
      <trkpt lat="49.05632" lon="-1.17884">
        <ele>109.772235</ele>
        <time>2021-09-05T14:22:30.000Z</time>
      </trkpt>
      <trkpt lat="49.05623" lon="-1.17878">
        <ele>109.905175</ele>
        <time>2021-09-05T14:22:32.000Z</time>
      </trkpt>
      <trkpt lat="49.05618" lon="-1.17867">
        <ele>110.030868</ele>
        <time>2021-09-05T14:22:34.000Z</time>
      </trkpt>
      <trkpt lat="49.05616" lon="-1.17861">
        <ele>110.095534</ele>
        <time>2021-09-05T14:22:35.000Z</time>
      </trkpt>
      <trkpt lat="49.05614" lon="-1.17855">
        <ele>110.158352</ele>
        <time>2021-09-05T14:22:36.000Z</time>
      </trkpt>
      <trkpt lat="49.05609" lon="-1.17821">
        <ele>110.487458</ele>
        <time>2021-09-05T14:22:41.000Z</time>
      </trkpt>
      <trkpt lat="49.05601" lon="-1.17766">
        <ele>111.019187</ele>
        <time>2021-09-05T14:22:49.000Z</time>
      </trkpt>
      <trkpt lat="49.05591" lon="-1.17716">
        <ele>111.506212</ele>
        <time>2021-09-05T14:22:57.000Z</time>
      </trkpt>
      <trkpt lat="49.05586" lon="-1.17693">
        <ele>111.738525</ele>
        <time>2021-09-05T14:23:01.000Z</time>
      </trkpt>
      <trkpt lat="49.0558" lon="-1.17682">
        <ele>111.863774</ele>
        <time>2021-09-05T14:23:03.000Z</time>
      </trkpt>
      <trkpt lat="49.05567" lon="-1.17681">
        <ele>112.049069</ele>
        <time>2021-09-05T14:23:07.000Z</time>
      </trkpt>
      <trkpt lat="49.05528" lon="-1.17678">
        <ele>112.602111</ele>
        <time>2021-09-05T14:23:15.000Z</time>
      </trkpt>
      <trkpt lat="49.05485" lon="-1.17675">
        <ele>113.222162</ele>
        <time>2021-09-05T14:23:25.000Z</time>
      </trkpt>
      <trkpt lat="49.05452" lon="-1.17672">
        <ele>113.696774</ele>
        <time>2021-09-05T14:23:32.000Z</time>
      </trkpt>
      <trkpt lat="49.05411" lon="-1.17669">
        <ele>114.144498</ele>
        <time>2021-09-05T14:23:40.000Z</time>
      </trkpt>
      <trkpt lat="49.05376" lon="-1.17665">
        <ele>114.464961</ele>
        <time>2021-09-05T14:23:47.000Z</time>
      </trkpt>
      <trkpt lat="49.05366" lon="-1.17662">
        <ele>114.556679</ele>
        <time>2021-09-05T14:23:49.000Z</time>
      </trkpt>
      <trkpt lat="49.05324" lon="-1.1765">
        <ele>114.947979</ele>
        <time>2021-09-05T14:23:57.000Z</time>
      </trkpt>
      <trkpt lat="49.05274" lon="-1.17635">
        <ele>115.412754</ele>
        <time>2021-09-05T14:24:06.000Z</time>
      </trkpt>
      <trkpt lat="49.05225" lon="-1.17621">
        <ele>115.744967</ele>
        <time>2021-09-05T14:24:15.000Z</time>
      </trkpt>
      <trkpt lat="49.05185" lon="-1.17611">
        <ele>115.964486</ele>
        <time>2021-09-05T14:24:22.000Z</time>
      </trkpt>
      <trkpt lat="49.05129" lon="-1.17595">
        <ele>116.282525</ele>
        <time>2021-09-05T14:24:32.000Z</time>
      </trkpt>
      <trkpt lat="49.0509" lon="-1.17584">
        <ele>116.497959</ele>
        <time>2021-09-05T14:24:39.000Z</time>
      </trkpt>
      <trkpt lat="49.05051" lon="-1.17573">
        <ele>116.490991</ele>
        <time>2021-09-05T14:24:46.000Z</time>
      </trkpt>
      <trkpt lat="49.05022" lon="-1.17564">
        <ele>116.443918</ele>
        <time>2021-09-05T14:24:51.000Z</time>
      </trkpt>
      <trkpt lat="49.05011" lon="-1.1756">
        <ele>116.425541</ele>
        <time>2021-09-05T14:24:53.000Z</time>
      </trkpt>
      <trkpt lat="49.05001" lon="-1.17554">
        <ele>116.407598</ele>
        <time>2021-09-05T14:24:55.000Z</time>
      </trkpt>
      <trkpt lat="49.04991" lon="-1.17545">
        <ele>116.389804</ele>
        <time>2021-09-05T14:24:57.000Z</time>
      </trkpt>
      <trkpt lat="49.0497" lon="-1.17509">
        <ele>116.339417</ele>
        <time>2021-09-05T14:25:02.000Z</time>
      </trkpt>
      <trkpt lat="49.04934" lon="-1.17443">
        <ele>116.205517</ele>
        <time>2021-09-05T14:25:10.000Z</time>
      </trkpt>
      <trkpt lat="49.04906" lon="-1.1739">
        <ele>115.603828</ele>
        <time>2021-09-05T14:25:16.000Z</time>
      </trkpt>
      <trkpt lat="49.04879" lon="-1.17339">
        <ele>115.012224</ele>
        <time>2021-09-05T14:25:22.000Z</time>
      </trkpt>
      <trkpt lat="49.04848" lon="-1.17282">
        <ele>114.34903</ele>
        <time>2021-09-05T14:25:29.000Z</time>
      </trkpt>
      <trkpt lat="49.04833" lon="-1.17246">
        <ele>113.961429</ele>
        <time>2021-09-05T14:25:33.000Z</time>
      </trkpt>
      <trkpt lat="49.0483" lon="-1.17235">
        <ele>113.858735</ele>
        <time>2021-09-05T14:25:34.000Z</time>
      </trkpt>
      <trkpt lat="49.04817" lon="-1.1715">
        <ele>112.617604</ele>
        <time>2021-09-05T14:25:41.000Z</time>
      </trkpt>
      <trkpt lat="49.04804" lon="-1.1707">
        <ele>111.399227</ele>
        <time>2021-09-05T14:25:47.000Z</time>
      </trkpt>
      <trkpt lat="49.04802" lon="-1.17057">
        <ele>111.192218</ele>
        <time>2021-09-05T14:25:48.000Z</time>
      </trkpt>
      <trkpt lat="49.04791" lon="-1.16988">
        <ele>110.153402</ele>
        <time>2021-09-05T14:25:53.000Z</time>
      </trkpt>
      <trkpt lat="49.04778" lon="-1.16907">
        <ele>108.722996</ele>
        <time>2021-09-05T14:25:59.000Z</time>
      </trkpt>
      <trkpt lat="49.04776" lon="-1.16893">
        <ele>108.473142</ele>
        <time>2021-09-05T14:26:00.000Z</time>
      </trkpt>
      <trkpt lat="49.04761" lon="-1.16803">
        <ele>106.795751</ele>
        <time>2021-09-05T14:26:07.000Z</time>
      </trkpt>
      <trkpt lat="49.04757" lon="-1.16778">
        <ele>106.332702</ele>
        <time>2021-09-05T14:26:09.000Z</time>
      </trkpt>
      <trkpt lat="49.04744" lon="-1.16691">
        <ele>104.698538</ele>
        <time>2021-09-05T14:26:16.000Z</time>
      </trkpt>
      <trkpt lat="49.04742" lon="-1.16678">
        <ele>104.453019</ele>
        <time>2021-09-05T14:26:17.000Z</time>
      </trkpt>
      <trkpt lat="49.04736" lon="-1.1661">
        <ele>103.122017</ele>
        <time>2021-09-05T14:26:22.000Z</time>
      </trkpt>
      <trkpt lat="49.04724" lon="-1.16538">
        <ele>101.685604</ele>
        <time>2021-09-05T14:26:27.000Z</time>
      </trkpt>
      <trkpt lat="49.04712" lon="-1.16514">
        <ele>101.096283</ele>
        <time>2021-09-05T14:26:29.000Z</time>
      </trkpt>
      <trkpt lat="49.04704" lon="-1.16506">
        <ele>100.808212</ele>
        <time>2021-09-05T14:26:30.000Z</time>
      </trkpt>
      <trkpt lat="49.04674" lon="-1.16479">
        <ele>99.774182</ele>
        <time>2021-09-05T14:26:34.000Z</time>
      </trkpt>
      <trkpt lat="49.04652" lon="-1.1646">
        <ele>99.576796</ele>
        <time>2021-09-05T14:26:38.000Z</time>
      </trkpt>
      <trkpt lat="49.04636" lon="-1.16446">
        <ele>99.725018</ele>
        <time>2021-09-05T14:26:42.000Z</time>
      </trkpt>
      <trkpt lat="49.04621" lon="-1.16433">
        <ele>99.871522</ele>
        <time>2021-09-05T14:26:48.000Z</time>
      </trkpt>
      <trkpt lat="49.046" lon="-1.16416">
        <ele>100.062216</ele>
        <time>2021-09-05T14:26:57.000Z</time>
      </trkpt>
      <trkpt lat="49.04585" lon="-1.16403">
        <ele>100.209184</ele>
        <time>2021-09-05T14:27:05.000Z</time>
      </trkpt>
      <trkpt lat="49.04573" lon="-1.16393">
        <ele>100.324581</ele>
        <time>2021-09-05T14:27:12.000Z</time>
      </trkpt>
      <trkpt lat="49.0456" lon="-1.16381">
        <ele>100.446301</ele>
        <time>2021-09-05T14:27:19.000Z</time>
      </trkpt>
      <trkpt lat="49.04545" lon="-1.16366">
        <ele>100.599108</ele>
        <time>2021-09-05T14:27:27.000Z</time>
      </trkpt>
      <trkpt lat="49.04531" lon="-1.16353">
        <ele>100.731466</ele>
        <time>2021-09-05T14:27:34.000Z</time>
      </trkpt>
      <trkpt lat="49.04519" lon="-1.16341">
        <ele>100.855757</ele>
        <time>2021-09-05T14:27:41.000Z</time>
      </trkpt>
      <trkpt lat="49.04506" lon="-1.16328">
        <ele>101.041547</ele>
        <time>2021-09-05T14:27:48.000Z</time>
      </trkpt>
      <trkpt lat="49.04493" lon="-1.16316">
        <ele>101.356371</ele>
        <time>2021-09-05T14:27:55.000Z</time>
      </trkpt>
      <trkpt lat="49.04484" lon="-1.16307">
        <ele>101.581125</ele>
        <time>2021-09-05T14:28:00.000Z</time>
      </trkpt>
      <trkpt lat="49.0447" lon="-1.16294">
        <ele>101.918469</ele>
        <time>2021-09-05T14:28:07.000Z</time>
      </trkpt>
      <trkpt lat="49.04464" lon="-1.16288">
        <ele>102.067124</ele>
        <time>2021-09-05T14:28:10.000Z</time>
      </trkpt>
      <trkpt lat="49.04462" lon="-1.16286">
        <ele>102.118935</ele>
        <time>2021-09-05T14:28:11.000Z</time>
      </trkpt>
      <trkpt lat="49.04449" lon="-1.16273">
        <ele>102.443769</ele>
        <time>2021-09-05T14:28:17.000Z</time>
      </trkpt>
      <trkpt lat="49.0443" lon="-1.16255">
        <ele>102.927267</ele>
        <time>2021-09-05T14:28:25.000Z</time>
      </trkpt>
      <trkpt lat="49.04411" lon="-1.16237">
        <ele>103.385745</ele>
        <time>2021-09-05T14:28:32.000Z</time>
      </trkpt>
      <trkpt lat="49.04389" lon="-1.16215">
        <ele>103.937834</ele>
        <time>2021-09-05T14:28:40.000Z</time>
      </trkpt>
      <trkpt lat="49.04367" lon="-1.16188">
        <ele>104.531338</ele>
        <time>2021-09-05T14:28:48.000Z</time>
      </trkpt>
      <trkpt lat="49.04346" lon="-1.16154">
        <ele>104.6387</ele>
        <time>2021-09-05T14:28:55.000Z</time>
      </trkpt>
      <trkpt lat="49.0432" lon="-1.16113">
        <ele>104.517806</ele>
        <time>2021-09-05T14:29:02.000Z</time>
      </trkpt>
      <trkpt lat="49.04288" lon="-1.16064">
        <ele>104.369759</ele>
        <time>2021-09-05T14:29:09.000Z</time>
      </trkpt>
      <trkpt lat="49.04258" lon="-1.16017">
        <ele>104.227373</ele>
        <time>2021-09-05T14:29:15.000Z</time>
      </trkpt>
      <trkpt lat="49.04238" lon="-1.15985">
        <ele>104.132805</ele>
        <time>2021-09-05T14:29:19.000Z</time>
      </trkpt>
      <trkpt lat="49.04211" lon="-1.15945">
        <ele>103.425494</ele>
        <time>2021-09-05T14:29:24.000Z</time>
      </trkpt>
      <trkpt lat="49.04193" lon="-1.15918">
        <ele>102.9252</ele>
        <time>2021-09-05T14:29:27.000Z</time>
      </trkpt>
      <trkpt lat="49.04164" lon="-1.1588">
        <ele>102.157394</ele>
        <time>2021-09-05T14:29:31.000Z</time>
      </trkpt>
      <trkpt lat="49.04155" lon="-1.15872">
        <ele>101.948716</ele>
        <time>2021-09-05T14:29:32.000Z</time>
      </trkpt>
      <trkpt lat="49.04111" lon="-1.15831">
        <ele>100.894711</ele>
        <time>2021-09-05T14:29:37.000Z</time>
      </trkpt>
      <trkpt lat="49.04078" lon="-1.15811">
        <ele>100.597817</ele>
        <time>2021-09-05T14:29:41.000Z</time>
      </trkpt>
      <trkpt lat="49.04065" lon="-1.15814">
        <ele>100.676789</ele>
        <time>2021-09-05T14:29:43.000Z</time>
      </trkpt>
      <trkpt lat="49.04055" lon="-1.15816">
        <ele>100.743135</ele>
        <time>2021-09-05T14:29:45.000Z</time>
      </trkpt>
      <trkpt lat="49.04046" lon="-1.15818">
        <ele>100.80063</ele>
        <time>2021-09-05T14:29:47.000Z</time>
      </trkpt>
      <trkpt lat="49.04039" lon="-1.1582">
        <ele>100.844879</ele>
        <time>2021-09-05T14:29:49.000Z</time>
      </trkpt>
      <trkpt lat="49.04023" lon="-1.15823">
        <ele>100.942792</ele>
        <time>2021-09-05T14:29:55.000Z</time>
      </trkpt>
      <trkpt lat="49.04013" lon="-1.15825">
        <ele>101.005981</ele>
        <time>2021-09-05T14:30:00.000Z</time>
      </trkpt>
      <trkpt lat="49.04002" lon="-1.15824">
        <ele>101.073648</ele>
        <time>2021-09-05T14:30:06.000Z</time>
      </trkpt>
      <trkpt lat="49.03993" lon="-1.15818">
        <ele>101.140542</ele>
        <time>2021-09-05T14:30:11.000Z</time>
      </trkpt>
      <trkpt lat="49.03984" lon="-1.158">
        <ele>101.22848</ele>
        <time>2021-09-05T14:30:17.000Z</time>
      </trkpt>
      <trkpt lat="49.03976" lon="-1.15769">
        <ele>101.369991</ele>
        <time>2021-09-05T14:30:25.000Z</time>
      </trkpt>
      <trkpt lat="49.03967" lon="-1.15739">
        <ele>101.501348</ele>
        <time>2021-09-05T14:30:33.000Z</time>
      </trkpt>
      <trkpt lat="49.03958" lon="-1.15705">
        <ele>101.701117</ele>
        <time>2021-09-05T14:30:42.000Z</time>
      </trkpt>
      <trkpt lat="49.03951" lon="-1.15677">
        <ele>102.024519</ele>
        <time>2021-09-05T14:30:49.000Z</time>
      </trkpt>
      <trkpt lat="49.03946" lon="-1.1566">
        <ele>102.2149</ele>
        <time>2021-09-05T14:30:53.000Z</time>
      </trkpt>
      <trkpt lat="49.03936" lon="-1.15622">
        <ele>102.66548</ele>
        <time>2021-09-05T14:31:02.000Z</time>
      </trkpt>
      <trkpt lat="49.03927" lon="-1.15587">
        <ele>103.063313</ele>
        <time>2021-09-05T14:31:10.000Z</time>
      </trkpt>
      <trkpt lat="49.03918" lon="-1.15558">
        <ele>103.406696</ele>
        <time>2021-09-05T14:31:17.000Z</time>
      </trkpt>
      <trkpt lat="49.03904" lon="-1.15514">
        <ele>103.931926</ele>
        <time>2021-09-05T14:31:27.000Z</time>
      </trkpt>
      <trkpt lat="49.03891" lon="-1.15484">
        <ele>104.326808</ele>
        <time>2021-09-05T14:31:34.000Z</time>
      </trkpt>
      <trkpt lat="49.03872" lon="-1.15457">
        <ele>104.566369</ele>
        <time>2021-09-05T14:31:40.000Z</time>
      </trkpt>
      <trkpt lat="49.03851" lon="-1.15428">
        <ele>104.51796</ele>
        <time>2021-09-05T14:31:46.000Z</time>
      </trkpt>
      <trkpt lat="49.03836" lon="-1.15407">
        <ele>104.483165</ele>
        <time>2021-09-05T14:31:50.000Z</time>
      </trkpt>
      <trkpt lat="49.0381" lon="-1.15366">
        <ele>104.418985</ele>
        <time>2021-09-05T14:31:57.000Z</time>
      </trkpt>
      <trkpt lat="49.03789" lon="-1.15315">
        <ele>104.351537</ele>
        <time>2021-09-05T14:32:04.000Z</time>
      </trkpt>
      <trkpt lat="49.03786" lon="-1.15308">
        <ele>104.342226</ele>
        <time>2021-09-05T14:32:05.000Z</time>
      </trkpt>
      <trkpt lat="49.03771" lon="-1.15271">
        <ele>104.292273</ele>
        <time>2021-09-05T14:32:10.000Z</time>
      </trkpt>
      <trkpt lat="49.03761" lon="-1.15247">
        <ele>104.190584</ele>
        <time>2021-09-05T14:32:13.000Z</time>
      </trkpt>
      <trkpt lat="49.03756" lon="-1.15233">
        <ele>104.076083</ele>
        <time>2021-09-05T14:32:15.000Z</time>
      </trkpt>
      <trkpt lat="49.03741" lon="-1.15197">
        <ele>103.792065</ele>
        <time>2021-09-05T14:32:20.000Z</time>
      </trkpt>
      <trkpt lat="49.03738" lon="-1.15191">
        <ele>103.742118</ele>
        <time>2021-09-05T14:32:21.000Z</time>
      </trkpt>
      <trkpt lat="49.03736" lon="-1.15184">
        <ele>103.688779</ele>
        <time>2021-09-05T14:32:22.000Z</time>
      </trkpt>
      <trkpt lat="49.03727" lon="-1.15162">
        <ele>103.518691</ele>
        <time>2021-09-05T14:32:25.000Z</time>
      </trkpt>
      <trkpt lat="49.03711" lon="-1.15119">
        <ele>103.186655</ele>
        <time>2021-09-05T14:32:30.000Z</time>
      </trkpt>
      <trkpt lat="49.03691" lon="-1.15059">
        <ele>102.73734</ele>
        <time>2021-09-05T14:32:36.000Z</time>
      </trkpt>
      <trkpt lat="49.03671" lon="-1.15004">
        <ele>102.28507</ele>
        <time>2021-09-05T14:32:41.000Z</time>
      </trkpt>
      <trkpt lat="49.03641" lon="-1.14958">
        <ele>101.734086</ele>
        <time>2021-09-05T14:32:46.000Z</time>
      </trkpt>
      <trkpt lat="49.03613" lon="-1.14916">
        <ele>101.240154</ele>
        <time>2021-09-05T14:32:51.000Z</time>
      </trkpt>
      <trkpt lat="49.036" lon="-1.14897">
        <ele>101.006487</ele>
        <time>2021-09-05T14:32:54.000Z</time>
      </trkpt>
      <trkpt lat="49.03593" lon="-1.14886">
        <ele>100.879802</ele>
        <time>2021-09-05T14:32:56.000Z</time>
      </trkpt>
      <trkpt lat="49.03579" lon="-1.14865">
        <ele>100.624619</ele>
        <time>2021-09-05T14:33:01.000Z</time>
      </trkpt>
      <trkpt lat="49.03566" lon="-1.14845">
        <ele>100.389453</ele>
        <time>2021-09-05T14:33:07.000Z</time>
      </trkpt>
      <trkpt lat="49.03545" lon="-1.14813">
        <ele>100.353767</ele>
        <time>2021-09-05T14:33:17.000Z</time>
      </trkpt>
      <trkpt lat="49.03531" lon="-1.14791">
        <ele>100.771472</ele>
        <time>2021-09-05T14:33:24.000Z</time>
      </trkpt>
      <trkpt lat="49.03515" lon="-1.14768">
        <ele>101.238198</ele>
        <time>2021-09-05T14:33:32.000Z</time>
      </trkpt>
      <trkpt lat="49.03498" lon="-1.14735">
        <ele>101.825592</ele>
        <time>2021-09-05T14:33:42.000Z</time>
      </trkpt>
      <trkpt lat="49.03482" lon="-1.14705">
        <ele>102.355818</ele>
        <time>2021-09-05T14:33:51.000Z</time>
      </trkpt>
      <trkpt lat="49.0347" lon="-1.14682">
        <ele>102.760143</ele>
        <time>2021-09-05T14:33:58.000Z</time>
      </trkpt>
      <trkpt lat="49.03457" lon="-1.14655">
        <ele>103.235603</ele>
        <time>2021-09-05T14:34:06.000Z</time>
      </trkpt>
      <trkpt lat="49.03446" lon="-1.1463">
        <ele>103.652381</ele>
        <time>2021-09-05T14:34:13.000Z</time>
      </trkpt>
      <trkpt lat="49.03442" lon="-1.14593">
        <ele>104.330768</ele>
        <time>2021-09-05T14:34:21.000Z</time>
      </trkpt>
      <trkpt lat="49.03438" lon="-1.14551">
        <ele>105.305939</ele>
        <time>2021-09-05T14:34:29.000Z</time>
      </trkpt>
      <trkpt lat="49.03434" lon="-1.14511">
        <ele>106.259465</ele>
        <time>2021-09-05T14:34:37.000Z</time>
      </trkpt>
      <trkpt lat="49.03431" lon="-1.14479">
        <ele>107.018732</ele>
        <time>2021-09-05T14:34:44.000Z</time>
      </trkpt>
      <trkpt lat="49.03428" lon="-1.14452">
        <ele>107.645502</ele>
        <time>2021-09-05T14:34:50.000Z</time>
      </trkpt>
      <trkpt lat="49.03425" lon="-1.14427">
        <ele>108.237719</ele>
        <time>2021-09-05T14:34:56.000Z</time>
      </trkpt>
      <trkpt lat="49.03422" lon="-1.14399">
        <ele>108.912486</ele>
        <time>2021-09-05T14:35:03.000Z</time>
      </trkpt>
      <trkpt lat="49.03416" lon="-1.14369">
        <ele>109.628378</ele>
        <time>2021-09-05T14:35:10.000Z</time>
      </trkpt>
      <trkpt lat="49.03407" lon="-1.14338">
        <ele>110.454891</ele>
        <time>2021-09-05T14:35:17.000Z</time>
      </trkpt>
      <trkpt lat="49.03398" lon="-1.14306">
        <ele>111.59852</ele>
        <time>2021-09-05T14:35:24.000Z</time>
      </trkpt>
      <trkpt lat="49.03387" lon="-1.14272">
        <ele>112.836561</ele>
        <time>2021-09-05T14:35:32.000Z</time>
      </trkpt>
      <trkpt lat="49.03374" lon="-1.14235">
        <ele>114.20071</ele>
        <time>2021-09-05T14:35:41.000Z</time>
      </trkpt>
      <trkpt lat="49.03362" lon="-1.14196">
        <ele>115.633755</ele>
        <time>2021-09-05T14:35:51.000Z</time>
      </trkpt>
      <trkpt lat="49.03352" lon="-1.14166">
        <ele>116.71202</ele>
        <time>2021-09-05T14:35:59.000Z</time>
      </trkpt>
      <trkpt lat="49.03345" lon="-1.14144">
        <ele>117.512473</ele>
        <time>2021-09-05T14:36:05.000Z</time>
      </trkpt>
      <trkpt lat="49.03335" lon="-1.14115">
        <ele>118.585591</ele>
        <time>2021-09-05T14:36:13.000Z</time>
      </trkpt>
      <trkpt lat="49.03326" lon="-1.14087">
        <ele>119.59894</ele>
        <time>2021-09-05T14:36:21.000Z</time>
      </trkpt>
      <trkpt lat="49.03315" lon="-1.14055">
        <ele>120.682797</ele>
        <time>2021-09-05T14:36:30.000Z</time>
      </trkpt>
      <trkpt lat="49.03309" lon="-1.14034">
        <ele>121.397074</ele>
        <time>2021-09-05T14:36:36.000Z</time>
      </trkpt>
      <trkpt lat="49.03301" lon="-1.14011">
        <ele>122.207184</ele>
        <time>2021-09-05T14:36:43.000Z</time>
      </trkpt>
      <trkpt lat="49.03294" lon="-1.13984">
        <ele>123.097256</ele>
        <time>2021-09-05T14:36:51.000Z</time>
      </trkpt>
      <trkpt lat="49.0329" lon="-1.13956">
        <ele>123.966949</ele>
        <time>2021-09-05T14:36:59.000Z</time>
      </trkpt>
      <trkpt lat="49.03289" lon="-1.13936">
        <ele>124.580678</ele>
        <time>2021-09-05T14:37:05.000Z</time>
      </trkpt>
      <trkpt lat="49.03288" lon="-1.13912">
        <ele>125.313307</ele>
        <time>2021-09-05T14:37:12.000Z</time>
      </trkpt>
      <trkpt lat="49.03287" lon="-1.13887">
        <ele>126.098364</ele>
        <time>2021-09-05T14:37:20.000Z</time>
      </trkpt>
      <trkpt lat="49.03286" lon="-1.1386">
        <ele>126.942614</ele>
        <time>2021-09-05T14:37:28.000Z</time>
      </trkpt>
      <trkpt lat="49.03283" lon="-1.13835">
        <ele>127.698531</ele>
        <time>2021-09-05T14:37:35.000Z</time>
      </trkpt>
      <trkpt lat="49.03278" lon="-1.13812">
        <ele>128.325415</ele>
        <time>2021-09-05T14:37:42.000Z</time>
      </trkpt>
      <trkpt lat="49.03268" lon="-1.13783">
        <ele>129.144762</ele>
        <time>2021-09-05T14:37:50.000Z</time>
      </trkpt>
      <trkpt lat="49.03254" lon="-1.13753">
        <ele>130.061332</ele>
        <time>2021-09-05T14:37:57.000Z</time>
      </trkpt>
      <trkpt lat="49.03243" lon="-1.13729">
        <ele>130.809846</ele>
        <time>2021-09-05T14:38:03.000Z</time>
      </trkpt>
      <trkpt lat="49.03229" lon="-1.13699">
        <ele>131.724354</ele>
        <time>2021-09-05T14:38:11.000Z</time>
      </trkpt>
      <trkpt lat="49.03218" lon="-1.13675">
        <ele>132.460239</ele>
        <time>2021-09-05T14:38:18.000Z</time>
      </trkpt>
      <trkpt lat="49.03209" lon="-1.13654">
        <ele>133.111969</ele>
        <time>2021-09-05T14:38:24.000Z</time>
      </trkpt>
      <trkpt lat="49.03195" lon="-1.13625">
        <ele>134.007665</ele>
        <time>2021-09-05T14:38:32.000Z</time>
      </trkpt>
      <trkpt lat="49.03181" lon="-1.13607">
        <ele>134.713816</ele>
        <time>2021-09-05T14:38:39.000Z</time>
      </trkpt>
      <trkpt lat="49.03175" lon="-1.13602">
        <ele>134.933741</ele>
        <time>2021-09-05T14:38:40.000Z</time>
      </trkpt>
      <trkpt lat="49.03169" lon="-1.13607">
        <ele>135.154899</ele>
        <time>2021-09-05T14:38:43.000Z</time>
      </trkpt>
      <trkpt lat="49.03152" lon="-1.13622">
        <ele>135.800454</ele>
        <time>2021-09-05T14:38:50.000Z</time>
      </trkpt>
      <trkpt lat="49.03138" lon="-1.13648">
        <ele>136.527918</ele>
        <time>2021-09-05T14:38:57.000Z</time>
      </trkpt>
      <trkpt lat="49.03125" lon="-1.13673">
        <ele>137.225214</ele>
        <time>2021-09-05T14:39:04.000Z</time>
      </trkpt>
      <trkpt lat="49.03119" lon="-1.13683">
        <ele>137.509981</ele>
        <time>2021-09-05T14:39:07.000Z</time>
      </trkpt>
      <trkpt lat="49.03113" lon="-1.13683">
        <ele>137.731575</ele>
        <time>2021-09-05T14:39:08.000Z</time>
      </trkpt>
      <trkpt lat="49.03111" lon="-1.1368">
        <ele>137.814228</ele>
        <time>2021-09-05T14:39:09.000Z</time>
      </trkpt>
      <trkpt lat="49.03105" lon="-1.1367">
        <ele>138.117737</ele>
        <time>2021-09-05T14:39:12.000Z</time>
      </trkpt>
      <trkpt lat="49.03085" lon="-1.1365">
        <ele>138.886107</ele>
        <time>2021-09-05T14:39:19.000Z</time>
      </trkpt>
      <trkpt lat="49.03062" lon="-1.13635">
        <ele>139.738466</ele>
        <time>2021-09-05T14:39:27.000Z</time>
      </trkpt>
      <trkpt lat="49.03035" lon="-1.13624">
        <ele>140.608596</ele>
        <time>2021-09-05T14:39:35.000Z</time>
      </trkpt>
      <trkpt lat="49.03004" lon="-1.13605">
        <ele>141.173084</ele>
        <time>2021-09-05T14:39:44.000Z</time>
      </trkpt>
      <trkpt lat="49.02979" lon="-1.13588">
        <ele>141.631235</ele>
        <time>2021-09-05T14:39:50.000Z</time>
      </trkpt>
      <trkpt lat="49.02946" lon="-1.13565">
        <ele>142.231022</ele>
        <time>2021-09-05T14:39:57.000Z</time>
      </trkpt>
      <trkpt lat="49.02937" lon="-1.13557">
        <ele>142.409314</ele>
        <time>2021-09-05T14:39:59.000Z</time>
      </trkpt>
      <trkpt lat="49.02932" lon="-1.13552">
        <ele>142.505393</ele>
        <time>2021-09-05T14:40:00.000Z</time>
      </trkpt>
      <trkpt lat="49.02908" lon="-1.13529">
        <ele>142.975646</ele>
        <time>2021-09-05T14:40:06.000Z</time>
      </trkpt>
      <trkpt lat="49.02871" lon="-1.13491">
        <ele>143.771844</ele>
        <time>2021-09-05T14:40:15.000Z</time>
      </trkpt>
      <trkpt lat="49.02841" lon="-1.13461">
        <ele>144.529887</ele>
        <time>2021-09-05T14:40:22.000Z</time>
      </trkpt>
      <trkpt lat="49.02821" lon="-1.13441">
        <ele>145.039186</ele>
        <time>2021-09-05T14:40:27.000Z</time>
      </trkpt>
      <trkpt lat="49.0281" lon="-1.1343">
        <ele>145.339994</ele>
        <time>2021-09-05T14:40:30.000Z</time>
      </trkpt>
      <trkpt lat="49.02802" lon="-1.13422">
        <ele>145.530535</ele>
        <time>2021-09-05T14:40:32.000Z</time>
      </trkpt>
      <trkpt lat="49.02772" lon="-1.13399">
        <ele>146.251238</ele>
        <time>2021-09-05T14:40:40.000Z</time>
      </trkpt>
      <trkpt lat="49.02744" lon="-1.13383">
        <ele>146.888988</ele>
        <time>2021-09-05T14:40:48.000Z</time>
      </trkpt>
      <trkpt lat="49.02721" lon="-1.13375">
        <ele>147.397171</ele>
        <time>2021-09-05T14:40:55.000Z</time>
      </trkpt>
      <trkpt lat="49.02709" lon="-1.13373">
        <ele>147.725382</ele>
        <time>2021-09-05T14:40:59.000Z</time>
      </trkpt>
      <trkpt lat="49.02684" lon="-1.13372">
        <ele>148.37385</ele>
        <time>2021-09-05T14:41:06.000Z</time>
      </trkpt>
      <trkpt lat="49.02651" lon="-1.13371">
        <ele>149.212387</ele>
        <time>2021-09-05T14:41:14.000Z</time>
      </trkpt>
      <trkpt lat="49.02628" lon="-1.13362">
        <ele>149.839056</ele>
        <time>2021-09-05T14:41:20.000Z</time>
      </trkpt>
      <trkpt lat="49.02623" lon="-1.13351">
        <ele>150.072521</ele>
        <time>2021-09-05T14:41:22.000Z</time>
      </trkpt>
      <trkpt lat="49.02619" lon="-1.13338">
        <ele>150.307319</ele>
        <time>2021-09-05T14:41:24.000Z</time>
      </trkpt>
      <trkpt lat="49.0262" lon="-1.13312">
        <ele>150.761936</ele>
        <time>2021-09-05T14:41:28.000Z</time>
      </trkpt>
      <trkpt lat="49.0262" lon="-1.13306">
        <ele>150.867019</ele>
        <time>2021-09-05T14:41:29.000Z</time>
      </trkpt>
      <trkpt lat="49.02625" lon="-1.1327">
        <ele>151.494746</ele>
        <time>2021-09-05T14:41:36.000Z</time>
      </trkpt>
      <trkpt lat="49.02631" lon="-1.13231">
        <ele>152.152608</ele>
        <time>2021-09-05T14:41:45.000Z</time>
      </trkpt>
      <trkpt lat="49.02635" lon="-1.13198">
        <ele>152.473234</ele>
        <time>2021-09-05T14:41:53.000Z</time>
      </trkpt>
      <trkpt lat="49.02636" lon="-1.13176">
        <ele>152.680919</ele>
        <time>2021-09-05T14:41:58.000Z</time>
      </trkpt>
      <trkpt lat="49.02638" lon="-1.13143">
        <ele>152.999069</ele>
        <time>2021-09-05T14:42:05.000Z</time>
      </trkpt>
      <trkpt lat="49.0264" lon="-1.13105">
        <ele>153.359207</ele>
        <time>2021-09-05T14:42:12.000Z</time>
      </trkpt>
      <trkpt lat="49.02642" lon="-1.13076">
        <ele>153.628868</ele>
        <time>2021-09-05T14:42:17.000Z</time>
      </trkpt>
      <trkpt lat="49.02644" lon="-1.13033">
        <ele>154.0414</ele>
        <time>2021-09-05T14:42:24.000Z</time>
      </trkpt>
      <trkpt lat="49.02647" lon="-1.12978">
        <ele>154.563218</ele>
        <time>2021-09-05T14:42:32.000Z</time>
      </trkpt>
      <trkpt lat="49.02649" lon="-1.12929">
        <ele>154.707445</ele>
        <time>2021-09-05T14:42:38.000Z</time>
      </trkpt>
      <trkpt lat="49.02651" lon="-1.12862">
        <ele>154.664094</ele>
        <time>2021-09-05T14:42:46.000Z</time>
      </trkpt>
      <trkpt lat="49.0265" lon="-1.12813">
        <ele>154.632326</ele>
        <time>2021-09-05T14:42:53.000Z</time>
      </trkpt>
      <trkpt lat="49.02649" lon="-1.12772">
        <ele>154.605601</ele>
        <time>2021-09-05T14:42:59.000Z</time>
      </trkpt>
      <trkpt lat="49.02649" lon="-1.12765">
        <ele>154.601049</ele>
        <time>2021-09-05T14:43:00.000Z</time>
      </trkpt>
      <trkpt lat="49.02648" lon="-1.12744">
        <ele>154.587195</ele>
        <time>2021-09-05T14:43:03.000Z</time>
      </trkpt>
      <trkpt lat="49.02647" lon="-1.12715">
        <ele>154.568145</ele>
        <time>2021-09-05T14:43:07.000Z</time>
      </trkpt>
      <trkpt lat="49.02646" lon="-1.12691">
        <ele>154.553027</ele>
        <time>2021-09-05T14:43:10.000Z</time>
      </trkpt>
      <trkpt lat="49.02641" lon="-1.12672">
        <ele>154.38169</ele>
        <time>2021-09-05T14:43:13.000Z</time>
      </trkpt>
      <trkpt lat="49.02631" lon="-1.12636">
        <ele>154.003366</ele>
        <time>2021-09-05T14:43:18.000Z</time>
      </trkpt>
      <trkpt lat="49.02619" lon="-1.12594">
        <ele>153.553144</ele>
        <time>2021-09-05T14:43:23.000Z</time>
      </trkpt>
      <trkpt lat="49.026" lon="-1.1253">
        <ele>152.87139</ele>
        <time>2021-09-05T14:43:29.000Z</time>
      </trkpt>
      <trkpt lat="49.02579" lon="-1.12458">
        <ele>152.101288</ele>
        <time>2021-09-05T14:43:35.000Z</time>
      </trkpt>
      <trkpt lat="49.02551" lon="-1.12386">
        <ele>151.100332</ele>
        <time>2021-09-05T14:43:41.000Z</time>
      </trkpt>
      <trkpt lat="49.02546" lon="-1.12374">
        <ele>150.909771</ele>
        <time>2021-09-05T14:43:42.000Z</time>
      </trkpt>
      <trkpt lat="49.02512" lon="-1.12307">
        <ele>149.809726</ele>
        <time>2021-09-05T14:43:48.000Z</time>
      </trkpt>
      <trkpt lat="49.02506" lon="-1.12296">
        <ele>149.629266</ele>
        <time>2021-09-05T14:43:49.000Z</time>
      </trkpt>
      <trkpt lat="49.02467" lon="-1.12222">
        <ele>148.398139</ele>
        <time>2021-09-05T14:43:56.000Z</time>
      </trkpt>
      <trkpt lat="49.02433" lon="-1.12169">
        <ele>147.210522</ele>
        <time>2021-09-05T14:44:02.000Z</time>
      </trkpt>
      <trkpt lat="49.02401" lon="-1.12119">
        <ele>146.060559</ele>
        <time>2021-09-05T14:44:08.000Z</time>
      </trkpt>
      <trkpt lat="49.02364" lon="-1.12057">
        <ele>144.685913</ele>
        <time>2021-09-05T14:44:15.000Z</time>
      </trkpt>
      <trkpt lat="49.02359" lon="-1.12048">
        <ele>144.490513</ele>
        <time>2021-09-05T14:44:16.000Z</time>
      </trkpt>
      <trkpt lat="49.02319" lon="-1.11978">
        <ele>142.923313</ele>
        <time>2021-09-05T14:44:24.000Z</time>
      </trkpt>
      <trkpt lat="49.02279" lon="-1.11909">
        <ele>141.337196</ele>
        <time>2021-09-05T14:44:32.000Z</time>
      </trkpt>
      <trkpt lat="49.02274" lon="-1.11899">
        <ele>141.137431</ele>
        <time>2021-09-05T14:44:33.000Z</time>
      </trkpt>
      <trkpt lat="49.02255" lon="-1.11848">
        <ele>140.125223</ele>
        <time>2021-09-05T14:44:38.000Z</time>
      </trkpt>
      <trkpt lat="49.02227" lon="-1.11793">
        <ele>138.954733</ele>
        <time>2021-09-05T14:44:44.000Z</time>
      </trkpt>
      <trkpt lat="49.02197" lon="-1.11744">
        <ele>137.952647</ele>
        <time>2021-09-05T14:44:50.000Z</time>
      </trkpt>
      <trkpt lat="49.02165" lon="-1.1169">
        <ele>136.848956</ele>
        <time>2021-09-05T14:44:57.000Z</time>
      </trkpt>
      <trkpt lat="49.02151" lon="-1.11667">
        <ele>136.376412</ele>
        <time>2021-09-05T14:45:00.000Z</time>
      </trkpt>
      <trkpt lat="49.02145" lon="-1.11662">
        <ele>136.212476</ele>
        <time>2021-09-05T14:45:01.000Z</time>
      </trkpt>
      <trkpt lat="49.02119" lon="-1.11636">
        <ele>135.516921</ele>
        <time>2021-09-05T14:45:05.000Z</time>
      </trkpt>
      <trkpt lat="49.02113" lon="-1.1163">
        <ele>135.338433</ele>
        <time>2021-09-05T14:45:06.000Z</time>
      </trkpt>
      <trkpt lat="49.02077" lon="-1.11592">
        <ele>134.482574</ele>
        <time>2021-09-05T14:45:12.000Z</time>
      </trkpt>
      <trkpt lat="49.02042" lon="-1.11551">
        <ele>133.688392</ele>
        <time>2021-09-05T14:45:19.000Z</time>
      </trkpt>
      <trkpt lat="49.02014" lon="-1.11518">
        <ele>133.058742</ele>
        <time>2021-09-05T14:45:25.000Z</time>
      </trkpt>
      <trkpt lat="49.01986" lon="-1.11485">
        <ele>132.42197</ele>
        <time>2021-09-05T14:45:32.000Z</time>
      </trkpt>
      <trkpt lat="49.01982" lon="-1.11481">
        <ele>132.335781</ele>
        <time>2021-09-05T14:45:33.000Z</time>
      </trkpt>
      <trkpt lat="49.01969" lon="-1.11458">
        <ele>131.984612</ele>
        <time>2021-09-05T14:45:37.000Z</time>
      </trkpt>
      <trkpt lat="49.0196" lon="-1.1144">
        <ele>131.735441</ele>
        <time>2021-09-05T14:45:40.000Z</time>
      </trkpt>
      <trkpt lat="49.01954" lon="-1.11419">
        <ele>131.577698</ele>
        <time>2021-09-05T14:45:43.000Z</time>
      </trkpt>
      <trkpt lat="49.01943" lon="-1.11377">
        <ele>131.261409</ele>
        <time>2021-09-05T14:45:49.000Z</time>
      </trkpt>
      <trkpt lat="49.01935" lon="-1.11349">
        <ele>131.051125</ele>
        <time>2021-09-05T14:45:53.000Z</time>
      </trkpt>
      <trkpt lat="49.01929" lon="-1.11328">
        <ele>130.8953</ele>
        <time>2021-09-05T14:45:56.000Z</time>
      </trkpt>
      <trkpt lat="49.01913" lon="-1.1127">
        <ele>130.456761</ele>
        <time>2021-09-05T14:46:04.000Z</time>
      </trkpt>
      <trkpt lat="49.01899" lon="-1.11219">
        <ele>130.073771</ele>
        <time>2021-09-05T14:46:11.000Z</time>
      </trkpt>
      <trkpt lat="49.01896" lon="-1.11213">
        <ele>130.025133</ele>
        <time>2021-09-05T14:46:12.000Z</time>
      </trkpt>
      <trkpt lat="49.01888" lon="-1.11191">
        <ele>129.862574</ele>
        <time>2021-09-05T14:46:16.000Z</time>
      </trkpt>
      <trkpt lat="49.01878" lon="-1.11164">
        <ele>129.833997</ele>
        <time>2021-09-05T14:46:22.000Z</time>
      </trkpt>
      <trkpt lat="49.01867" lon="-1.11133">
        <ele>129.800382</ele>
        <time>2021-09-05T14:46:29.000Z</time>
      </trkpt>
      <trkpt lat="49.01865" lon="-1.11126">
        <ele>129.792971</ele>
        <time>2021-09-05T14:46:34.000Z</time>
      </trkpt>
      <trkpt lat="49.01864" lon="-1.11123">
        <ele>129.789758</ele>
        <time>2021-09-05T14:47:43.000Z</time>
      </trkpt>
      <trkpt lat="49.01864" lon="-1.11122">
        <ele>129.788629</ele>
        <time>2021-09-05T14:47:44.000Z</time>
      </trkpt>
      <trkpt lat="49.01862" lon="-1.11117">
        <ele>129.783302</ele>
        <time>2021-09-05T14:47:47.000Z</time>
      </trkpt>
      <trkpt lat="49.01857" lon="-1.11099">
        <ele>129.764774</ele>
        <time>2021-09-05T14:47:52.000Z</time>
      </trkpt>
      <trkpt lat="49.01846" lon="-1.11058">
        <ele>129.722679</ele>
        <time>2021-09-05T14:48:00.000Z</time>
      </trkpt>
      <trkpt lat="49.0184" lon="-1.11035">
        <ele>129.698911</ele>
        <time>2021-09-05T14:48:04.000Z</time>
      </trkpt>
      <trkpt lat="49.01835" lon="-1.11017">
        <ele>129.680614</ele>
        <time>2021-09-05T14:48:07.000Z</time>
      </trkpt>
      <trkpt lat="49.01822" lon="-1.1097">
        <ele>129.632006</ele>
        <time>2021-09-05T14:48:15.000Z</time>
      </trkpt>
      <trkpt lat="49.01807" lon="-1.10932">
        <ele>129.547348</ele>
        <time>2021-09-05T14:48:21.000Z</time>
      </trkpt>
      <trkpt lat="49.01791" lon="-1.10898">
        <ele>129.38066</ele>
        <time>2021-09-05T14:48:27.000Z</time>
      </trkpt>
      <trkpt lat="49.0177" lon="-1.10862">
        <ele>129.197442</ele>
        <time>2021-09-05T14:48:33.000Z</time>
      </trkpt>
      <trkpt lat="49.01766" lon="-1.10857">
        <ele>129.164858</ele>
        <time>2021-09-05T14:48:34.000Z</time>
      </trkpt>
      <trkpt lat="49.01744" lon="-1.10831">
        <ele>129.000669</ele>
        <time>2021-09-05T14:48:39.000Z</time>
      </trkpt>
      <trkpt lat="49.01715" lon="-1.10799">
        <ele>128.787617</ele>
        <time>2021-09-05T14:48:45.000Z</time>
      </trkpt>
      <trkpt lat="49.0171" lon="-1.10793">
        <ele>128.751758</ele>
        <time>2021-09-05T14:48:46.000Z</time>
      </trkpt>
      <trkpt lat="49.0169" lon="-1.10771">
        <ele>128.601464</ele>
        <time>2021-09-05T14:48:50.000Z</time>
      </trkpt>
      <trkpt lat="49.01654" lon="-1.10725">
        <ele>128.1438</ele>
        <time>2021-09-05T14:48:57.000Z</time>
      </trkpt>
      <trkpt lat="49.01625" lon="-1.10679">
        <ele>127.690676</ele>
        <time>2021-09-05T14:49:03.000Z</time>
      </trkpt>
      <trkpt lat="49.01609" lon="-1.10645">
        <ele>127.392338</ele>
        <time>2021-09-05T14:49:07.000Z</time>
      </trkpt>
      <trkpt lat="49.01605" lon="-1.10636">
        <ele>127.314964</ele>
        <time>2021-09-05T14:49:08.000Z</time>
      </trkpt>
      <trkpt lat="49.01592" lon="-1.10599">
        <ele>127.020156</ele>
        <time>2021-09-05T14:49:12.000Z</time>
      </trkpt>
      <trkpt lat="49.01576" lon="-1.10551">
        <ele>126.635335</ele>
        <time>2021-09-05T14:49:18.000Z</time>
      </trkpt>
      <trkpt lat="49.01556" lon="-1.10508">
        <ele>126.516067</ele>
        <time>2021-09-05T14:49:24.000Z</time>
      </trkpt>
      <trkpt lat="49.01536" lon="-1.10463">
        <ele>126.430669</ele>
        <time>2021-09-05T14:49:31.000Z</time>
      </trkpt>
      <trkpt lat="49.01515" lon="-1.10409">
        <ele>126.33252</ele>
        <time>2021-09-05T14:49:40.000Z</time>
      </trkpt>
      <trkpt lat="49.01508" lon="-1.10391">
        <ele>126.302225</ele>
        <time>2021-09-05T14:49:43.000Z</time>
      </trkpt>
      <trkpt lat="49.015" lon="-1.10368">
        <ele>126.260709</ele>
        <time>2021-09-05T14:49:47.000Z</time>
      </trkpt>
      <trkpt lat="49.01486" lon="-1.10326">
        <ele>126.187967</ele>
        <time>2021-09-05T14:49:54.000Z</time>
      </trkpt>
      <trkpt lat="49.01471" lon="-1.10274">
        <ele>126.072942</ele>
        <time>2021-09-05T14:50:02.000Z</time>
      </trkpt>
      <trkpt lat="49.01458" lon="-1.10222">
        <ele>125.950542</ele>
        <time>2021-09-05T14:50:09.000Z</time>
      </trkpt>
      <trkpt lat="49.0144" lon="-1.10154">
        <ele>125.786477</ele>
        <time>2021-09-05T14:50:17.000Z</time>
      </trkpt>
      <trkpt lat="49.01424" lon="-1.10091">
        <ele>125.638329</ele>
        <time>2021-09-05T14:50:24.000Z</time>
      </trkpt>
      <trkpt lat="49.01415" lon="-1.10021">
        <ele>125.807584</ele>
        <time>2021-09-05T14:50:32.000Z</time>
      </trkpt>
      <trkpt lat="49.01415" lon="-1.10012">
        <ele>125.874413</ele>
        <time>2021-09-05T14:50:33.000Z</time>
      </trkpt>
      <trkpt lat="49.01408" lon="-1.09984">
        <ele>126.10615</ele>
        <time>2021-09-05T14:50:36.000Z</time>
      </trkpt>
      <trkpt lat="49.01404" lon="-1.09979">
        <ele>126.166245</ele>
        <time>2021-09-05T14:50:37.000Z</time>
      </trkpt>
      <trkpt lat="49.01391" lon="-1.09955">
        <ele>126.402864</ele>
        <time>2021-09-05T14:50:42.000Z</time>
      </trkpt>
      <trkpt lat="49.01383" lon="-1.09928">
        <ele>126.634985</ele>
        <time>2021-09-05T14:50:48.000Z</time>
      </trkpt>
      <trkpt lat="49.0137" lon="-1.09891">
        <ele>126.956896</ele>
        <time>2021-09-05T14:50:57.000Z</time>
      </trkpt>
      <trkpt lat="49.01368" lon="-1.09883">
        <ele>127.025479</ele>
        <time>2021-09-05T14:50:59.000Z</time>
      </trkpt>
      <trkpt lat="49.01366" lon="-1.09879">
        <ele>127.057876</ele>
        <time>2021-09-05T14:51:00.000Z</time>
      </trkpt>
      <trkpt lat="49.01361" lon="-1.09862">
        <ele>127.200051</ele>
        <time>2021-09-05T14:51:04.000Z</time>
      </trkpt>
      <trkpt lat="49.0135" lon="-1.09829">
        <ele>127.486837</ele>
        <time>2021-09-05T14:51:12.000Z</time>
      </trkpt>
      <trkpt lat="49.01337" lon="-1.09792">
        <ele>127.807193</ele>
        <time>2021-09-05T14:51:21.000Z</time>
      </trkpt>
      <trkpt lat="49.0132" lon="-1.09763">
        <ele>128.10253</ele>
        <time>2021-09-05T14:51:29.000Z</time>
      </trkpt>
      <trkpt lat="49.01302" lon="-1.09747">
        <ele>128.353505</ele>
        <time>2021-09-05T14:51:36.000Z</time>
      </trkpt>
      <trkpt lat="49.0128" lon="-1.09738">
        <ele>128.619583</ele>
        <time>2021-09-05T14:51:43.000Z</time>
      </trkpt>
      <trkpt lat="49.01264" lon="-1.09735">
        <ele>128.80636</ele>
        <time>2021-09-05T14:51:48.000Z</time>
      </trkpt>
      <trkpt lat="49.01253" lon="-1.09732">
        <ele>128.938672</ele>
        <time>2021-09-05T14:51:51.000Z</time>
      </trkpt>
      <trkpt lat="49.01244" lon="-1.09729">
        <ele>129.039961</ele>
        <time>2021-09-05T14:51:53.000Z</time>
      </trkpt>
      <trkpt lat="49.01225" lon="-1.09722">
        <ele>129.272403</ele>
        <time>2021-09-05T14:51:57.000Z</time>
      </trkpt>
      <trkpt lat="49.01214" lon="-1.09717">
        <ele>129.403585</ele>
        <time>2021-09-05T14:51:59.000Z</time>
      </trkpt>
      <trkpt lat="49.01188" lon="-1.09701">
        <ele>129.731482</ele>
        <time>2021-09-05T14:52:03.000Z</time>
      </trkpt>
      <trkpt lat="49.01156" lon="-1.09682">
        <ele>129.20434</ele>
        <time>2021-09-05T14:52:07.000Z</time>
      </trkpt>
      <trkpt lat="49.01147" lon="-1.09679">
        <ele>129.031474</ele>
        <time>2021-09-05T14:52:08.000Z</time>
      </trkpt>
      <trkpt lat="49.01126" lon="-1.09676">
        <ele>128.66845</ele>
        <time>2021-09-05T14:52:10.000Z</time>
      </trkpt>
      <trkpt lat="49.01105" lon="-1.09676">
        <ele>128.28859</ele>
        <time>2021-09-05T14:52:12.000Z</time>
      </trkpt>
      <trkpt lat="49.01049" lon="-1.09681">
        <ele>127.287519</ele>
        <time>2021-09-05T14:52:17.000Z</time>
      </trkpt>
      <trkpt lat="49.01037" lon="-1.09682">
        <ele>127.077749</ele>
        <time>2021-09-05T14:52:18.000Z</time>
      </trkpt>
      <trkpt lat="49.00978" lon="-1.09686">
        <ele>125.710787</ele>
        <time>2021-09-05T14:52:23.000Z</time>
      </trkpt>
      <trkpt lat="49.00953" lon="-1.09686">
        <ele>125.032616</ele>
        <time>2021-09-05T14:52:25.000Z</time>
      </trkpt>
      <trkpt lat="49.00893" lon="-1.09681">
        <ele>123.352832</ele>
        <time>2021-09-05T14:52:30.000Z</time>
      </trkpt>
      <trkpt lat="49.00882" lon="-1.09678">
        <ele>123.025636</ele>
        <time>2021-09-05T14:52:31.000Z</time>
      </trkpt>
      <trkpt lat="49.00825" lon="-1.09657">
        <ele>121.368343</ele>
        <time>2021-09-05T14:52:36.000Z</time>
      </trkpt>
      <trkpt lat="49.00804" lon="-1.09645">
        <ele>120.5742</ele>
        <time>2021-09-05T14:52:38.000Z</time>
      </trkpt>
      <trkpt lat="49.00784" lon="-1.09629">
        <ele>119.788277</ele>
        <time>2021-09-05T14:52:40.000Z</time>
      </trkpt>
      <trkpt lat="49.00736" lon="-1.09588">
        <ele>117.857798</ele>
        <time>2021-09-05T14:52:45.000Z</time>
      </trkpt>
      <trkpt lat="49.00697" lon="-1.09555">
        <ele>116.306233</ele>
        <time>2021-09-05T14:52:49.000Z</time>
      </trkpt>
      <trkpt lat="49.0065" lon="-1.09513">
        <ele>114.236876</ele>
        <time>2021-09-05T14:52:54.000Z</time>
      </trkpt>
      <trkpt lat="49.0064" lon="-1.09505">
        <ele>113.766954</ele>
        <time>2021-09-05T14:52:55.000Z</time>
      </trkpt>
      <trkpt lat="49.00591" lon="-1.09461">
        <ele>111.40112</ele>
        <time>2021-09-05T14:53:00.000Z</time>
      </trkpt>
      <trkpt lat="49.00561" lon="-1.09434">
        <ele>109.970179</ele>
        <time>2021-09-05T14:53:03.000Z</time>
      </trkpt>
      <trkpt lat="49.0051" lon="-1.09389">
        <ele>107.49856</ele>
        <time>2021-09-05T14:53:08.000Z</time>
      </trkpt>
      <trkpt lat="49.00469" lon="-1.09352">
        <ele>105.359663</ele>
        <time>2021-09-05T14:53:12.000Z</time>
      </trkpt>
      <trkpt lat="49.00417" lon="-1.09306">
        <ele>102.694356</ele>
        <time>2021-09-05T14:53:17.000Z</time>
      </trkpt>
      <trkpt lat="49.00387" lon="-1.09279">
        <ele>101.104132</ele>
        <time>2021-09-05T14:53:20.000Z</time>
      </trkpt>
      <trkpt lat="49.00335" lon="-1.09237">
        <ele>98.486553</ele>
        <time>2021-09-05T14:53:25.000Z</time>
      </trkpt>
      <trkpt lat="49.00325" lon="-1.09229">
        <ele>97.975577</ele>
        <time>2021-09-05T14:53:26.000Z</time>
      </trkpt>
      <trkpt lat="49.00269" lon="-1.09187">
        <ele>95.121408</ele>
        <time>2021-09-05T14:53:32.000Z</time>
      </trkpt>
      <trkpt lat="49.0026" lon="-1.0918">
        <ele>94.691326</ele>
        <time>2021-09-05T14:53:33.000Z</time>
      </trkpt>
      <trkpt lat="49.00223" lon="-1.09152">
        <ele>92.798435</ele>
        <time>2021-09-05T14:53:38.000Z</time>
      </trkpt>
      <trkpt lat="49.00194" lon="-1.0913">
        <ele>91.338888</ele>
        <time>2021-09-05T14:53:43.000Z</time>
      </trkpt>
      <trkpt lat="49.00165" lon="-1.09108">
        <ele>90.039703</ele>
        <time>2021-09-05T14:53:49.000Z</time>
      </trkpt>
      <trkpt lat="49.0014" lon="-1.09091">
        <ele>88.897623</ele>
        <time>2021-09-05T14:53:56.000Z</time>
      </trkpt>
      <trkpt lat="49.00117" lon="-1.09076">
        <ele>87.891758</ele>
        <time>2021-09-05T14:54:04.000Z</time>
      </trkpt>
      <trkpt lat="49.00094" lon="-1.09061">
        <ele>86.877318</ele>
        <time>2021-09-05T14:54:13.000Z</time>
      </trkpt>
      <trkpt lat="49.00072" lon="-1.09047">
        <ele>85.90467</ele>
        <time>2021-09-05T14:54:22.000Z</time>
      </trkpt>
      <trkpt lat="49.00054" lon="-1.09034">
        <ele>85.072868</ele>
        <time>2021-09-05T14:54:30.000Z</time>
      </trkpt>
      <trkpt lat="49.0003" lon="-1.09019">
        <ele>84.308688</ele>
        <time>2021-09-05T14:54:40.000Z</time>
      </trkpt>
      <trkpt lat="49.00012" lon="-1.09007">
        <ele>84.545803</ele>
        <time>2021-09-05T14:54:48.000Z</time>
      </trkpt>
      <trkpt lat="48.99996" lon="-1.08997">
        <ele>84.73762</ele>
        <time>2021-09-05T14:54:55.000Z</time>
      </trkpt>
      <trkpt lat="48.99984" lon="-1.08986">
        <ele>84.906014</ele>
        <time>2021-09-05T14:55:02.000Z</time>
      </trkpt>
      <trkpt lat="48.99974" lon="-1.08976">
        <ele>85.04287</ele>
        <time>2021-09-05T14:55:08.000Z</time>
      </trkpt>
      <trkpt lat="48.99959" lon="-1.08961">
        <ele>85.256905</ele>
        <time>2021-09-05T14:55:17.000Z</time>
      </trkpt>
      <trkpt lat="48.99945" lon="-1.08946">
        <ele>85.451086</ele>
        <time>2021-09-05T14:55:25.000Z</time>
      </trkpt>
      <trkpt lat="48.9993" lon="-1.08932">
        <ele>85.654983</ele>
        <time>2021-09-05T14:55:33.000Z</time>
      </trkpt>
      <trkpt lat="48.99912" lon="-1.08913">
        <ele>85.911079</ele>
        <time>2021-09-05T14:55:42.000Z</time>
      </trkpt>
      <trkpt lat="48.99892" lon="-1.08892">
        <ele>86.194297</ele>
        <time>2021-09-05T14:55:52.000Z</time>
      </trkpt>
      <trkpt lat="48.99877" lon="-1.08875">
        <ele>86.517971</ele>
        <time>2021-09-05T14:55:59.000Z</time>
      </trkpt>
      <trkpt lat="48.99857" lon="-1.08852">
        <ele>87.32581</ele>
        <time>2021-09-05T14:56:09.000Z</time>
      </trkpt>
      <trkpt lat="48.99842" lon="-1.08836">
        <ele>87.877663</ele>
        <time>2021-09-05T14:56:16.000Z</time>
      </trkpt>
      <trkpt lat="48.99829" lon="-1.08823">
        <ele>88.360947</ele>
        <time>2021-09-05T14:56:22.000Z</time>
      </trkpt>
      <trkpt lat="48.99806" lon="-1.08799">
        <ele>89.231818</ele>
        <time>2021-09-05T14:56:32.000Z</time>
      </trkpt>
      <trkpt lat="48.99785" lon="-1.08781">
        <ele>90.000668</ele>
        <time>2021-09-05T14:56:41.000Z</time>
      </trkpt>
      <trkpt lat="48.99759" lon="-1.08768">
        <ele>90.832453</ele>
        <time>2021-09-05T14:56:51.000Z</time>
      </trkpt>
      <trkpt lat="48.99737" lon="-1.08759">
        <ele>91.551951</ele>
        <time>2021-09-05T14:56:59.000Z</time>
      </trkpt>
      <trkpt lat="48.99718" lon="-1.08751">
        <ele>92.115482</ele>
        <time>2021-09-05T14:57:06.000Z</time>
      </trkpt>
      <trkpt lat="48.99697" lon="-1.08742">
        <ele>92.579875</ele>
        <time>2021-09-05T14:57:13.000Z</time>
      </trkpt>
      <trkpt lat="48.99677" lon="-1.08728">
        <ele>93.076334</ele>
        <time>2021-09-05T14:57:21.000Z</time>
      </trkpt>
      <trkpt lat="48.99654" lon="-1.08705">
        <ele>93.670841</ele>
        <time>2021-09-05T14:57:29.000Z</time>
      </trkpt>
      <trkpt lat="48.99633" lon="-1.08674">
        <ele>94.310998</ele>
        <time>2021-09-05T14:57:37.000Z</time>
      </trkpt>
      <trkpt lat="48.99621" lon="-1.08657">
        <ele>94.673706</ele>
        <time>2021-09-05T14:57:41.000Z</time>
      </trkpt>
      <trkpt lat="48.99611" lon="-1.08643">
        <ele>94.972224</ele>
        <time>2021-09-05T14:57:44.000Z</time>
      </trkpt>
      <trkpt lat="48.99588" lon="-1.08609">
        <ele>95.681746</ele>
        <time>2021-09-05T14:57:51.000Z</time>
      </trkpt>
      <trkpt lat="48.99584" lon="-1.08604">
        <ele>95.788074</ele>
        <time>2021-09-05T14:57:52.000Z</time>
      </trkpt>
      <trkpt lat="48.99561" lon="-1.08571">
        <ele>95.946171</ele>
        <time>2021-09-05T14:57:58.000Z</time>
      </trkpt>
      <trkpt lat="48.99538" lon="-1.08547">
        <ele>95.989653</ele>
        <time>2021-09-05T14:58:03.000Z</time>
      </trkpt>
      <trkpt lat="48.99527" lon="-1.08538">
        <ele>96.008088</ele>
        <time>2021-09-05T14:58:05.000Z</time>
      </trkpt>
      <trkpt lat="48.99506" lon="-1.08519">
        <ele>96.046082</ele>
        <time>2021-09-05T14:58:09.000Z</time>
      </trkpt>
      <trkpt lat="48.99498" lon="-1.08504">
        <ele>96.065492</ele>
        <time>2021-09-05T14:58:11.000Z</time>
      </trkpt>
      <trkpt lat="48.9947" lon="-1.08448">
        <ele>96.136881</ele>
        <time>2021-09-05T14:58:18.000Z</time>
      </trkpt>
      <trkpt lat="48.99442" lon="-1.084">
        <ele>96.157301</ele>
        <time>2021-09-05T14:58:24.000Z</time>
      </trkpt>
      <trkpt lat="48.99399" lon="-1.0834">
        <ele>96.031447</ele>
        <time>2021-09-05T14:58:32.000Z</time>
      </trkpt>
      <trkpt lat="48.99359" lon="-1.08286">
        <ele>95.917805</ele>
        <time>2021-09-05T14:58:39.000Z</time>
      </trkpt>
      <trkpt lat="48.99338" lon="-1.08256">
        <ele>95.85655</ele>
        <time>2021-09-05T14:58:43.000Z</time>
      </trkpt>
      <trkpt lat="48.99296" lon="-1.08199">
        <ele>95.742386</ele>
        <time>2021-09-05T14:58:51.000Z</time>
      </trkpt>
      <trkpt lat="48.9926" lon="-1.08149">
        <ele>95.648801</ele>
        <time>2021-09-05T14:58:59.000Z</time>
      </trkpt>
      <trkpt lat="48.99236" lon="-1.08113">
        <ele>95.583723</ele>
        <time>2021-09-05T14:59:05.000Z</time>
      </trkpt>
      <trkpt lat="48.99214" lon="-1.08072">
        <ele>95.516993</ele>
        <time>2021-09-05T14:59:11.000Z</time>
      </trkpt>
      <trkpt lat="48.99188" lon="-1.08026">
        <ele>95.398061</ele>
        <time>2021-09-05T14:59:17.000Z</time>
      </trkpt>
      <trkpt lat="48.99151" lon="-1.07958">
        <ele>94.887349</ele>
        <time>2021-09-05T14:59:26.000Z</time>
      </trkpt>
      <trkpt lat="48.99147" lon="-1.07951">
        <ele>94.838142</ele>
        <time>2021-09-05T14:59:27.000Z</time>
      </trkpt>
      <trkpt lat="48.99128" lon="-1.07917">
        <ele>94.582346</ele>
        <time>2021-09-05T14:59:32.000Z</time>
      </trkpt>
      <trkpt lat="48.99126" lon="-1.07906">
        <ele>94.515851</ele>
        <time>2021-09-05T14:59:33.000Z</time>
      </trkpt>
      <trkpt lat="48.99128" lon="-1.07899">
        <ele>94.466711</ele>
        <time>2021-09-05T14:59:34.000Z</time>
      </trkpt>
      <trkpt lat="48.99133" lon="-1.07884">
        <ele>94.373031</ele>
        <time>2021-09-05T14:59:36.000Z</time>
      </trkpt>
      <trkpt lat="48.99143" lon="-1.07847">
        <ele>94.143463</ele>
        <time>2021-09-05T14:59:42.000Z</time>
      </trkpt>
      <trkpt lat="48.99153" lon="-1.0781">
        <ele>93.9125</ele>
        <time>2021-09-05T14:59:48.000Z</time>
      </trkpt>
      <trkpt lat="48.99167" lon="-1.07759">
        <ele>93.482759</ele>
        <time>2021-09-05T14:59:56.000Z</time>
      </trkpt>
      <trkpt lat="48.99171" lon="-1.07747">
        <ele>93.376973</ele>
        <time>2021-09-05T14:59:58.000Z</time>
      </trkpt>
      <trkpt lat="48.99176" lon="-1.07728">
        <ele>93.210309</ele>
        <time>2021-09-05T15:00:01.000Z</time>
      </trkpt>
      <trkpt lat="48.99193" lon="-1.07666">
        <ele>92.670543</ele>
        <time>2021-09-05T15:00:10.000Z</time>
      </trkpt>
      <trkpt lat="48.99206" lon="-1.07617">
        <ele>92.24863</ele>
        <time>2021-09-05T15:00:16.000Z</time>
      </trkpt>
      <trkpt lat="48.99219" lon="-1.07561">
        <ele>91.766143</ele>
        <time>2021-09-05T15:00:22.000Z</time>
      </trkpt>
      <trkpt lat="48.99236" lon="-1.07497">
        <ele>90.770184</ele>
        <time>2021-09-05T15:00:28.000Z</time>
      </trkpt>
      <trkpt lat="48.99264" lon="-1.07433">
        <ele>89.572638</ele>
        <time>2021-09-05T15:00:34.000Z</time>
      </trkpt>
      <trkpt lat="48.99292" lon="-1.07378">
        <ele>88.482192</ele>
        <time>2021-09-05T15:00:39.000Z</time>
      </trkpt>
      <trkpt lat="48.99326" lon="-1.07313">
        <ele>87.102399</ele>
        <time>2021-09-05T15:00:45.000Z</time>
      </trkpt>
      <trkpt lat="48.99361" lon="-1.07241">
        <ele>85.096835</ele>
        <time>2021-09-05T15:00:51.000Z</time>
      </trkpt>
      <trkpt lat="48.99394" lon="-1.0716">
        <ele>82.966005</ele>
        <time>2021-09-05T15:00:57.000Z</time>
      </trkpt>
      <trkpt lat="48.99413" lon="-1.07094">
        <ele>81.357998</ele>
        <time>2021-09-05T15:01:02.000Z</time>
      </trkpt>
      <trkpt lat="48.99414" lon="-1.07084">
        <ele>81.050736</ele>
        <time>2021-09-05T15:01:03.000Z</time>
      </trkpt>
      <trkpt lat="48.99412" lon="-1.07066">
        <ele>80.462816</ele>
        <time>2021-09-05T15:01:05.000Z</time>
      </trkpt>
      <trkpt lat="48.99398" lon="-1.07059">
        <ele>79.729452</ele>
        <time>2021-09-05T15:01:08.000Z</time>
      </trkpt>
      <trkpt lat="48.99347" lon="-1.0704">
        <ele>77.077306</ele>
        <time>2021-09-05T15:01:13.000Z</time>
      </trkpt>
      <trkpt lat="48.99339" lon="-1.07038">
        <ele>76.666466</ele>
        <time>2021-09-05T15:01:14.000Z</time>
      </trkpt>
      <trkpt lat="48.99326" lon="-1.07034">
        <ele>76.034088</ele>
        <time>2021-09-05T15:01:16.000Z</time>
      </trkpt>
      <trkpt lat="48.99301" lon="-1.07026">
        <ele>74.724216</ele>
        <time>2021-09-05T15:01:21.000Z</time>
      </trkpt>
      <trkpt lat="48.99266" lon="-1.07011">
        <ele>72.904605</ele>
        <time>2021-09-05T15:01:27.000Z</time>
      </trkpt>
      <trkpt lat="48.99225" lon="-1.06996">
        <ele>70.723608</ele>
        <time>2021-09-05T15:01:32.000Z</time>
      </trkpt>
      <trkpt lat="48.99189" lon="-1.06984">
        <ele>68.791083</ele>
        <time>2021-09-05T15:01:36.000Z</time>
      </trkpt>
      <trkpt lat="48.99171" lon="-1.06977">
        <ele>67.804988</ele>
        <time>2021-09-05T15:01:39.000Z</time>
      </trkpt>
      <trkpt lat="48.99153" lon="-1.06971">
        <ele>66.850331</ele>
        <time>2021-09-05T15:01:43.000Z</time>
      </trkpt>
      <trkpt lat="48.99127" lon="-1.06961">
        <ele>65.4268</ele>
        <time>2021-09-05T15:01:47.000Z</time>
      </trkpt>
      <trkpt lat="48.99105" lon="-1.06955">
        <ele>64.244965</ele>
        <time>2021-09-05T15:01:50.000Z</time>
      </trkpt>
      <trkpt lat="48.99087" lon="-1.0695">
        <ele>63.302685</ele>
        <time>2021-09-05T15:01:54.000Z</time>
      </trkpt>
      <trkpt lat="48.99072" lon="-1.06946">
        <ele>62.68936</ele>
        <time>2021-09-05T15:01:59.000Z</time>
      </trkpt>
      <trkpt lat="48.99062" lon="-1.06944">
        <ele>62.5359</ele>
        <time>2021-09-05T15:02:04.000Z</time>
      </trkpt>
      <trkpt lat="48.99043" lon="-1.06939">
        <ele>62.235073</ele>
        <time>2021-09-05T15:02:09.000Z</time>
      </trkpt>
      <trkpt lat="48.99033" lon="-1.06936">
        <ele>62.081613</ele>
        <time>2021-09-05T15:02:14.000Z</time>
      </trkpt>
      <trkpt lat="48.99017" lon="-1.06925">
        <ele>61.802051</ele>
        <time>2021-09-05T15:02:20.000Z</time>
      </trkpt>
      <trkpt lat="48.99007" lon="-1.06918">
        <ele>61.635858</ele>
        <time>2021-09-05T15:02:24.000Z</time>
      </trkpt>
      <trkpt lat="48.99007" lon="-1.06918">
        <ele>61.635858</ele>
        <time>2021-09-05T15:02:25.000Z</time>
      </trkpt>
      <trkpt lat="48.98988" lon="-1.06905">
        <ele>61.31842</ele>
        <time>2021-09-05T15:02:29.000Z</time>
      </trkpt>
      <trkpt lat="48.98978" lon="-1.06898">
        <ele>61.139755</ele>
        <time>2021-09-05T15:02:31.000Z</time>
      </trkpt>
      <trkpt lat="48.98968" lon="-1.06891">
        <ele>60.966987</ele>
        <time>2021-09-05T15:02:33.000Z</time>
      </trkpt>
      <trkpt lat="48.98963" lon="-1.06887">
        <ele>60.885238</ele>
        <time>2021-09-05T15:02:34.000Z</time>
      </trkpt>
      <trkpt lat="48.98953" lon="-1.0688">
        <ele>60.717108</ele>
        <time>2021-09-05T15:02:37.000Z</time>
      </trkpt>
      <trkpt lat="48.98932" lon="-1.06866">
        <ele>60.358796</ele>
        <time>2021-09-05T15:02:40.000Z</time>
      </trkpt>
      <trkpt lat="48.98926" lon="-1.06862">
        <ele>60.260474</ele>
        <time>2021-09-05T15:02:41.000Z</time>
      </trkpt>
      <trkpt lat="48.98907" lon="-1.0685">
        <ele>59.858107</ele>
        <time>2021-09-05T15:02:45.000Z</time>
      </trkpt>
      <trkpt lat="48.98901" lon="-1.06848">
        <ele>59.509773</ele>
        <time>2021-09-05T15:02:47.000Z</time>
      </trkpt>
      <trkpt lat="48.98883" lon="-1.06841">
        <ele>58.509136</ele>
        <time>2021-09-05T15:02:49.000Z</time>
      </trkpt>
      <trkpt lat="48.98865" lon="-1.06839">
        <ele>57.555781</ele>
        <time>2021-09-05T15:02:52.000Z</time>
      </trkpt>
      <trkpt lat="48.98851" lon="-1.06846">
        <ele>56.777065</ele>
        <time>2021-09-05T15:02:54.000Z</time>
      </trkpt>
      <trkpt lat="48.9884" lon="-1.06859">
        <ele>56.053836</ele>
        <time>2021-09-05T15:02:57.000Z</time>
      </trkpt>
      <trkpt lat="48.9884" lon="-1.06859">
        <ele>56.053836</ele>
        <time>2021-09-05T15:02:58.000Z</time>
      </trkpt>
      <trkpt lat="48.98839" lon="-1.0686">
        <ele>55.988655</ele>
        <time>2021-09-05T15:02:59.000Z</time>
      </trkpt>
      <trkpt lat="48.98838" lon="-1.06851">
        <ele>55.653136</ele>
        <time>2021-09-05T15:03:01.000Z</time>
      </trkpt>
      <trkpt lat="48.9884" lon="-1.06848">
        <ele>55.531187</ele>
        <time>2021-09-05T15:03:02.000Z</time>
      </trkpt>
      <trkpt lat="48.98845" lon="-1.0684">
        <ele>55.124541</ele>
        <time>2021-09-05T15:03:05.000Z</time>
      </trkpt>
      <trkpt lat="48.98846" lon="-1.06836">
        <ele>54.984316</ele>
        <time>2021-09-05T15:03:06.000Z</time>
      </trkpt>
      <trkpt lat="48.98845" lon="-1.06836">
        <ele>54.969471</ele>
        <time>2021-09-05T15:03:08.000Z</time>
      </trkpt>
      <trkpt lat="48.98843" lon="-1.06836">
        <ele>54.84263</ele>
        <time>2021-09-05T15:03:09.000Z</time>
      </trkpt>
      <trkpt lat="48.98831" lon="-1.06846">
        <ele>54.084909</ele>
        <time>2021-09-05T15:03:13.000Z</time>
      </trkpt>
      <trkpt lat="48.98824" lon="-1.06843">
        <ele>53.736074</ele>
        <time>2021-09-05T15:03:15.000Z</time>
      </trkpt>
      <trkpt lat="48.98825" lon="-1.06839">
        <ele>53.571302</ele>
        <time>2021-09-05T15:03:16.000Z</time>
      </trkpt>
      <trkpt lat="48.98836" lon="-1.06829">
        <ele>52.891573</ele>
        <time>2021-09-05T15:03:20.000Z</time>
      </trkpt>
      <trkpt lat="48.98849" lon="-1.06814">
        <ele>52.054322</ele>
        <time>2021-09-05T15:03:24.000Z</time>
      </trkpt>
      <trkpt lat="48.98849" lon="-1.06805">
        <ele>51.741076</ele>
        <time>2021-09-05T15:03:26.000Z</time>
      </trkpt>
      <trkpt lat="48.98848" lon="-1.06801">
        <ele>51.5843</ele>
        <time>2021-09-05T15:03:27.000Z</time>
      </trkpt>
      <trkpt lat="48.98843" lon="-1.0679">
        <ele>51.157828</ele>
        <time>2021-09-05T15:03:30.000Z</time>
      </trkpt>
      <trkpt lat="48.98842" lon="-1.06786">
        <ele>50.977749</ele>
        <time>2021-09-05T15:03:31.000Z</time>
      </trkpt>
      <trkpt lat="48.9884" lon="-1.06781">
        <ele>50.806607</ele>
        <time>2021-09-05T15:03:32.000Z</time>
      </trkpt>
      <trkpt lat="48.98837" lon="-1.06775">
        <ele>50.530965</ele>
        <time>2021-09-05T15:03:34.000Z</time>
      </trkpt>
      <trkpt lat="48.98826" lon="-1.06757">
        <ele>49.954005</ele>
        <time>2021-09-05T15:03:39.000Z</time>
      </trkpt>
      <trkpt lat="48.9881" lon="-1.0674">
        <ele>49.252609</ele>
        <time>2021-09-05T15:03:44.000Z</time>
      </trkpt>
      <trkpt lat="48.98795" lon="-1.06729">
        <ele>48.67179</ele>
        <time>2021-09-05T15:03:48.000Z</time>
      </trkpt>
      <trkpt lat="48.98781" lon="-1.0672">
        <ele>48.152693</ele>
        <time>2021-09-05T15:03:51.000Z</time>
      </trkpt>
      <trkpt lat="48.98773" lon="-1.06715">
        <ele>47.841793</ele>
        <time>2021-09-05T15:03:53.000Z</time>
      </trkpt>
      <trkpt lat="48.9875" lon="-1.06701">
        <ele>46.97065</ele>
        <time>2021-09-05T15:03:58.000Z</time>
      </trkpt>
      <trkpt lat="48.98741" lon="-1.06697">
        <ele>46.620643</ele>
        <time>2021-09-05T15:04:00.000Z</time>
      </trkpt>
      <trkpt lat="48.98731" lon="-1.06694">
        <ele>46.271147</ele>
        <time>2021-09-05T15:04:02.000Z</time>
      </trkpt>
      <trkpt lat="48.98721" lon="-1.06691">
        <ele>45.928511</ele>
        <time>2021-09-05T15:04:04.000Z</time>
      </trkpt>
      <trkpt lat="48.98707" lon="-1.06685">
        <ele>45.391499</ele>
        <time>2021-09-05T15:04:07.000Z</time>
      </trkpt>
      <trkpt lat="48.98702" lon="-1.06684">
        <ele>45.22215</ele>
        <time>2021-09-05T15:04:08.000Z</time>
      </trkpt>
      <trkpt lat="48.9869" lon="-1.0668">
        <ele>44.799982</ele>
        <time>2021-09-05T15:04:10.000Z</time>
      </trkpt>
      <trkpt lat="48.98676" lon="-1.06683">
        <ele>44.286013</ele>
        <time>2021-09-05T15:04:12.000Z</time>
      </trkpt>
      <trkpt lat="48.98663" lon="-1.06688">
        <ele>44.033405</ele>
        <time>2021-09-05T15:04:14.000Z</time>
      </trkpt>
      <trkpt lat="48.98657" lon="-1.06691">
        <ele>43.939474</ele>
        <time>2021-09-05T15:04:15.000Z</time>
      </trkpt>
      <trkpt lat="48.98639" lon="-1.06698">
        <ele>43.692438</ele>
        <time>2021-09-05T15:04:18.000Z</time>
      </trkpt>
      <trkpt lat="48.986" lon="-1.06714">
        <ele>43.137625</ele>
        <time>2021-09-05T15:04:25.000Z</time>
      </trkpt>
      <trkpt lat="48.98569" lon="-1.06727">
        <ele>42.690518</ele>
        <time>2021-09-05T15:04:31.000Z</time>
      </trkpt>
      <trkpt lat="48.98558" lon="-1.0673">
        <ele>42.543537</ele>
        <time>2021-09-05T15:04:33.000Z</time>
      </trkpt>
      <trkpt lat="48.98542" lon="-1.06735">
        <ele>42.319628</ele>
        <time>2021-09-05T15:04:36.000Z</time>
      </trkpt>
      <trkpt lat="48.98509" lon="-1.06743">
        <ele>41.867815</ele>
        <time>2021-09-05T15:04:42.000Z</time>
      </trkpt>
      <trkpt lat="48.98505" lon="-1.06743">
        <ele>41.800712</ele>
        <time>2021-09-05T15:04:43.000Z</time>
      </trkpt>
      <trkpt lat="48.9849" lon="-1.06743">
        <ele>41.613138</ele>
        <time>2021-09-05T15:04:46.000Z</time>
      </trkpt>
      <trkpt lat="48.98454" lon="-1.06738">
        <ele>41.201857</ele>
        <time>2021-09-05T15:04:53.000Z</time>
      </trkpt>
      <trkpt lat="48.98446" lon="-1.06736">
        <ele>41.107102</ele>
        <time>2021-09-05T15:04:55.000Z</time>
      </trkpt>
      <trkpt lat="48.98436" lon="-1.06731">
        <ele>40.978508</ele>
        <time>2021-09-05T15:04:57.000Z</time>
      </trkpt>
      <trkpt lat="48.98397" lon="-1.06711">
        <ele>40.50728</ele>
        <time>2021-09-05T15:05:04.000Z</time>
      </trkpt>
      <trkpt lat="48.98361" lon="-1.06695">
        <ele>40.073066</ele>
        <time>2021-09-05T15:05:11.000Z</time>
      </trkpt>
      <trkpt lat="48.98351" lon="-1.0669">
        <ele>39.942982</ele>
        <time>2021-09-05T15:05:13.000Z</time>
      </trkpt>
      <trkpt lat="48.98345" lon="-1.06679">
        <ele>39.830977</ele>
        <time>2021-09-05T15:05:15.000Z</time>
      </trkpt>
      <trkpt lat="48.98325" lon="-1.06655">
        <ele>39.579218</ele>
        <time>2021-09-05T15:05:20.000Z</time>
      </trkpt>
      <trkpt lat="48.9831" lon="-1.06634">
        <ele>39.473706</ele>
        <time>2021-09-05T15:05:24.000Z</time>
      </trkpt>
      <trkpt lat="48.983" lon="-1.06615">
        <ele>39.393294</ele>
        <time>2021-09-05T15:05:27.000Z</time>
      </trkpt>
      <trkpt lat="48.9828" lon="-1.06573">
        <ele>39.219582</ele>
        <time>2021-09-05T15:05:34.000Z</time>
      </trkpt>
      <trkpt lat="48.98257" lon="-1.06523">
        <ele>39.013848</ele>
        <time>2021-09-05T15:05:40.000Z</time>
      </trkpt>
      <trkpt lat="48.98254" lon="-1.06516">
        <ele>38.983771</ele>
        <time>2021-09-05T15:05:41.000Z</time>
      </trkpt>
      <trkpt lat="48.98236" lon="-1.06482">
        <ele>38.83829</ele>
        <time>2021-09-05T15:05:46.000Z</time>
      </trkpt>
      <trkpt lat="48.98211" lon="-1.06426">
        <ele>38.650214</ele>
        <time>2021-09-05T15:05:54.000Z</time>
      </trkpt>
      <trkpt lat="48.98194" lon="-1.06373">
        <ele>38.545383</ele>
        <time>2021-09-05T15:06:01.000Z</time>
      </trkpt>
      <trkpt lat="48.9818" lon="-1.06327">
        <ele>38.455044</ele>
        <time>2021-09-05T15:06:07.000Z</time>
      </trkpt>
      <trkpt lat="48.98167" lon="-1.06288">
        <ele>38.378522</ele>
        <time>2021-09-05T15:06:13.000Z</time>
      </trkpt>
      <trkpt lat="48.98136" lon="-1.06209">
        <ele>38.21552</ele>
        <time>2021-09-05T15:06:23.000Z</time>
      </trkpt>
      <trkpt lat="48.98117" lon="-1.0617">
        <ele>38.21095</ele>
        <time>2021-09-05T15:06:30.000Z</time>
      </trkpt>
      <trkpt lat="48.98103" lon="-1.06144">
        <ele>38.214151</ele>
        <time>2021-09-05T15:06:34.000Z</time>
      </trkpt>
      <trkpt lat="48.98094" lon="-1.06127">
        <ele>38.216252</ele>
        <time>2021-09-05T15:06:36.000Z</time>
      </trkpt>
      <trkpt lat="48.98081" lon="-1.06092">
        <ele>38.220113</ele>
        <time>2021-09-05T15:06:42.000Z</time>
      </trkpt>
      <trkpt lat="48.98073" lon="-1.0606">
        <ele>38.223415</ele>
        <time>2021-09-05T15:06:48.000Z</time>
      </trkpt>
      <trkpt lat="48.98056" lon="-1.05991">
        <ele>38.230466</ele>
        <time>2021-09-05T15:06:57.000Z</time>
      </trkpt>
      <trkpt lat="48.98054" lon="-1.05977">
        <ele>38.23187</ele>
        <time>2021-09-05T15:06:59.000Z</time>
      </trkpt>
      <trkpt lat="48.98052" lon="-1.0597">
        <ele>38.23257</ele>
        <time>2021-09-05T15:07:01.000Z</time>
      </trkpt>
      <trkpt lat="48.98041" lon="-1.0591">
        <ele>38.298569</ele>
        <time>2021-09-05T15:07:08.000Z</time>
      </trkpt>
      <trkpt lat="48.98028" lon="-1.0586">
        <ele>38.35975</ele>
        <time>2021-09-05T15:07:15.000Z</time>
      </trkpt>
      <trkpt lat="48.98011" lon="-1.05817">
        <ele>38.41649</ele>
        <time>2021-09-05T15:07:22.000Z</time>
      </trkpt>
      <trkpt lat="48.97992" lon="-1.05767">
        <ele>38.48308</ele>
        <time>2021-09-05T15:07:28.000Z</time>
      </trkpt>
      <trkpt lat="48.97985" lon="-1.05754">
        <ele>38.50215</ele>
        <time>2021-09-05T15:07:31.000Z</time>
      </trkpt>
      <trkpt lat="48.97971" lon="-1.0573">
        <ele>38.540146</ele>
        <time>2021-09-05T15:07:34.000Z</time>
      </trkpt>
      <trkpt lat="48.97947" lon="-1.05708">
        <ele>38.634191</ele>
        <time>2021-09-05T15:07:40.000Z</time>
      </trkpt>
      <trkpt lat="48.97905" lon="-1.0569">
        <ele>38.795262</ele>
        <time>2021-09-05T15:07:47.000Z</time>
      </trkpt>
      <trkpt lat="48.97885" lon="-1.05682">
        <ele>38.870752</ele>
        <time>2021-09-05T15:07:51.000Z</time>
      </trkpt>
      <trkpt lat="48.9787" lon="-1.05676">
        <ele>38.926032</ele>
        <time>2021-09-05T15:07:54.000Z</time>
      </trkpt>
      <trkpt lat="48.97855" lon="-1.0567">
        <ele>38.983868</ele>
        <time>2021-09-05T15:07:58.000Z</time>
      </trkpt>
      <trkpt lat="48.97833" lon="-1.05663">
        <ele>39.065217</ele>
        <time>2021-09-05T15:08:03.000Z</time>
      </trkpt>
      <trkpt lat="48.97805" lon="-1.05653">
        <ele>39.173094</ele>
        <time>2021-09-05T15:08:09.000Z</time>
      </trkpt>
      <trkpt lat="48.97765" lon="-1.05637">
        <ele>39.27004</ele>
        <time>2021-09-05T15:08:17.000Z</time>
      </trkpt>
      <trkpt lat="48.97724" lon="-1.05617">
        <ele>39.355033</ele>
        <time>2021-09-05T15:08:25.000Z</time>
      </trkpt>
      <trkpt lat="48.97699" lon="-1.05603">
        <ele>39.408432</ele>
        <time>2021-09-05T15:08:31.000Z</time>
      </trkpt>
      <trkpt lat="48.97656" lon="-1.05583">
        <ele>39.496357</ele>
        <time>2021-09-05T15:08:38.000Z</time>
      </trkpt>
      <trkpt lat="48.97639" lon="-1.05579">
        <ele>39.528928</ele>
        <time>2021-09-05T15:08:41.000Z</time>
      </trkpt>
      <trkpt lat="48.97629" lon="-1.05576">
        <ele>39.549919</ele>
        <time>2021-09-05T15:08:43.000Z</time>
      </trkpt>
      <trkpt lat="48.97624" lon="-1.05574">
        <ele>39.559908</ele>
        <time>2021-09-05T15:08:45.000Z</time>
      </trkpt>
      <trkpt lat="48.97607" lon="-1.05568">
        <ele>39.58991</ele>
        <time>2021-09-05T15:08:48.000Z</time>
      </trkpt>
      <trkpt lat="48.97584" lon="-1.05563">
        <ele>39.628973</ele>
        <time>2021-09-05T15:08:54.000Z</time>
      </trkpt>
      <trkpt lat="48.97567" lon="-1.0556">
        <ele>39.657927</ele>
        <time>2021-09-05T15:08:59.000Z</time>
      </trkpt>
      <trkpt lat="48.97543" lon="-1.05558">
        <ele>39.697232</ele>
        <time>2021-09-05T15:09:06.000Z</time>
      </trkpt>
      <trkpt lat="48.9752" lon="-1.05558">
        <ele>39.736479</ele>
        <time>2021-09-05T15:09:12.000Z</time>
      </trkpt>
      <trkpt lat="48.97519" lon="-1.05557">
        <ele>39.739436</ele>
        <time>2021-09-05T15:09:13.000Z</time>
      </trkpt>
      <trkpt lat="48.97519" lon="-1.05557">
        <ele>39.739436</ele>
        <time>2021-09-05T15:09:15.000Z</time>
      </trkpt>
      <trkpt lat="48.97517" lon="-1.05557">
        <ele>39.7416</ele>
        <time>2021-09-05T15:09:48.000Z</time>
      </trkpt>
      <trkpt lat="48.97514" lon="-1.05554">
        <ele>39.748528</ele>
        <time>2021-09-05T15:10:01.000Z</time>
      </trkpt>
      <trkpt lat="48.97503" lon="-1.05548">
        <ele>39.768324</ele>
        <time>2021-09-05T15:10:08.000Z</time>
      </trkpt>
      <trkpt lat="48.97498" lon="-1.05546">
        <ele>39.775672</ele>
        <time>2021-09-05T15:10:12.000Z</time>
      </trkpt>
      <trkpt lat="48.97497" lon="-1.05546">
        <ele>39.778544</ele>
        <time>2021-09-05T15:10:13.000Z</time>
      </trkpt>
      <trkpt lat="48.97489" lon="-1.05544">
        <ele>39.791916</ele>
        <time>2021-09-05T15:10:18.000Z</time>
      </trkpt>
      <trkpt lat="48.97479" lon="-1.05543">
        <ele>39.808002</ele>
        <time>2021-09-05T15:10:24.000Z</time>
      </trkpt>
      <trkpt lat="48.97462" lon="-1.05545">
        <ele>39.837082</ele>
        <time>2021-09-05T15:10:31.000Z</time>
      </trkpt>
      <trkpt lat="48.97433" lon="-1.05552">
        <ele>39.948621</ele>
        <time>2021-09-05T15:10:39.000Z</time>
      </trkpt>
      <trkpt lat="48.974" lon="-1.05566">
        <ele>40.166821</ele>
        <time>2021-09-05T15:10:48.000Z</time>
      </trkpt>
      <trkpt lat="48.97374" lon="-1.05577">
        <ele>40.332525</ele>
        <time>2021-09-05T15:10:55.000Z</time>
      </trkpt>
      <trkpt lat="48.97359" lon="-1.05583">
        <ele>40.430361</ele>
        <time>2021-09-05T15:11:01.000Z</time>
      </trkpt>
      <trkpt lat="48.97347" lon="-1.05588">
        <ele>40.50874</ele>
        <time>2021-09-05T15:11:07.000Z</time>
      </trkpt>
      <trkpt lat="48.97334" lon="-1.0559">
        <ele>40.593946</ele>
        <time>2021-09-05T15:11:12.000Z</time>
      </trkpt>
      <trkpt lat="48.97311" lon="-1.05596">
        <ele>40.741027</ele>
        <time>2021-09-05T15:11:19.000Z</time>
      </trkpt>
      <trkpt lat="48.97287" lon="-1.05609">
        <ele>40.900487</ele>
        <time>2021-09-05T15:11:25.000Z</time>
      </trkpt>
      <trkpt lat="48.97257" lon="-1.05625">
        <ele>41.055908</ele>
        <time>2021-09-05T15:11:32.000Z</time>
      </trkpt>
      <trkpt lat="48.97229" lon="-1.05637">
        <ele>41.148835</ele>
        <time>2021-09-05T15:11:38.000Z</time>
      </trkpt>
      <trkpt lat="48.9721" lon="-1.05646">
        <ele>41.212205</ele>
        <time>2021-09-05T15:11:42.000Z</time>
      </trkpt>
      <trkpt lat="48.97201" lon="-1.0565">
        <ele>41.244412</ele>
        <time>2021-09-05T15:11:44.000Z</time>
      </trkpt>
      <trkpt lat="48.97168" lon="-1.05665">
        <ele>41.354151</ele>
        <time>2021-09-05T15:11:51.000Z</time>
      </trkpt>
      <trkpt lat="48.9716" lon="-1.05673">
        <ele>41.386173</ele>
        <time>2021-09-05T15:11:53.000Z</time>
      </trkpt>
      <trkpt lat="48.97149" lon="-1.05689">
        <ele>41.434137</ele>
        <time>2021-09-05T15:11:56.000Z</time>
      </trkpt>
      <trkpt lat="48.97145" lon="-1.05695">
        <ele>41.451378</ele>
        <time>2021-09-05T15:11:57.000Z</time>
      </trkpt>
      <trkpt lat="48.9713" lon="-1.05719">
        <ele>41.52244</ele>
        <time>2021-09-05T15:12:01.000Z</time>
      </trkpt>
      <trkpt lat="48.97123" lon="-1.05729">
        <ele>41.552862</ele>
        <time>2021-09-05T15:12:03.000Z</time>
      </trkpt>
      <trkpt lat="48.97116" lon="-1.05737">
        <ele>41.582699</ele>
        <time>2021-09-05T15:12:05.000Z</time>
      </trkpt>
      <trkpt lat="48.971" lon="-1.0575">
        <ele>41.557034</ele>
        <time>2021-09-05T15:12:09.000Z</time>
      </trkpt>
      <trkpt lat="48.97093" lon="-1.05756">
        <ele>41.544163</ele>
        <time>2021-09-05T15:12:11.000Z</time>
      </trkpt>
      <trkpt lat="48.97071" lon="-1.05773">
        <ele>41.505692</ele>
        <time>2021-09-05T15:12:17.000Z</time>
      </trkpt>
      <trkpt lat="48.97051" lon="-1.05786">
        <ele>41.473153</ele>
        <time>2021-09-05T15:12:23.000Z</time>
      </trkpt>
      <trkpt lat="48.97029" lon="-1.05801">
        <ele>41.435504</ele>
        <time>2021-09-05T15:12:29.000Z</time>
      </trkpt>
      <trkpt lat="48.97012" lon="-1.05812">
        <ele>41.407308</ele>
        <time>2021-09-05T15:12:33.000Z</time>
      </trkpt>
      <trkpt lat="48.96999" lon="-1.05821">
        <ele>41.385104</ele>
        <time>2021-09-05T15:12:36.000Z</time>
      </trkpt>
      <trkpt lat="48.96973" lon="-1.05842">
        <ele>41.340062</ele>
        <time>2021-09-05T15:12:42.000Z</time>
      </trkpt>
      <trkpt lat="48.96956" lon="-1.05854">
        <ele>41.311953</ele>
        <time>2021-09-05T15:12:46.000Z</time>
      </trkpt>
      <trkpt lat="48.96948" lon="-1.05861">
        <ele>41.256315</ele>
        <time>2021-09-05T15:12:48.000Z</time>
      </trkpt>
      <trkpt lat="48.96944" lon="-1.05864">
        <ele>41.21534</ele>
        <time>2021-09-05T15:12:49.000Z</time>
      </trkpt>
      <trkpt lat="48.9692" lon="-1.05887">
        <ele>40.980171</ele>
        <time>2021-09-05T15:12:55.000Z</time>
      </trkpt>
      <trkpt lat="48.96916" lon="-1.05891">
        <ele>40.94393</ele>
        <time>2021-09-05T15:12:56.000Z</time>
      </trkpt>
      <trkpt lat="48.96905" lon="-1.05901">
        <ele>40.839034</ele>
        <time>2021-09-05T15:12:59.000Z</time>
      </trkpt>
      <trkpt lat="48.96882" lon="-1.05923">
        <ele>40.612176</ele>
        <time>2021-09-05T15:13:05.000Z</time>
      </trkpt>
      <trkpt lat="48.96855" lon="-1.05952">
        <ele>40.341486</ele>
        <time>2021-09-05T15:13:11.000Z</time>
      </trkpt>
      <trkpt lat="48.96836" lon="-1.05973">
        <ele>40.149045</ele>
        <time>2021-09-05T15:13:16.000Z</time>
      </trkpt>
      <trkpt lat="48.96808" lon="-1.06004">
        <ele>39.862152</ele>
        <time>2021-09-05T15:13:23.000Z</time>
      </trkpt>
      <trkpt lat="48.96795" lon="-1.06014">
        <ele>39.939285</ele>
        <time>2021-09-05T15:13:26.000Z</time>
      </trkpt>
      <trkpt lat="48.96785" lon="-1.06022">
        <ele>40.058385</ele>
        <time>2021-09-05T15:13:28.000Z</time>
      </trkpt>
      <trkpt lat="48.9678" lon="-1.06024">
        <ele>40.12108</ele>
        <time>2021-09-05T15:13:29.000Z</time>
      </trkpt>
      <trkpt lat="48.9677" lon="-1.06026">
        <ele>40.241501</ele>
        <time>2021-09-05T15:13:31.000Z</time>
      </trkpt>
      <trkpt lat="48.96765" lon="-1.06027">
        <ele>40.301203</ele>
        <time>2021-09-05T15:13:32.000Z</time>
      </trkpt>
      <trkpt lat="48.9675" lon="-1.06031">
        <ele>40.475505</ele>
        <time>2021-09-05T15:13:35.000Z</time>
      </trkpt>
      <trkpt lat="48.96735" lon="-1.06035">
        <ele>40.65107</ele>
        <time>2021-09-05T15:13:38.000Z</time>
      </trkpt>
      <trkpt lat="48.96699" lon="-1.06045">
        <ele>41.070895</ele>
        <time>2021-09-05T15:13:45.000Z</time>
      </trkpt>
      <trkpt lat="48.96697" lon="-1.06045">
        <ele>41.094296</ele>
        <time>2021-09-05T15:13:46.000Z</time>
      </trkpt>
      <trkpt lat="48.96697" lon="-1.06045">
        <ele>41.09545</ele>
        <time>2021-09-05T15:13:54.000Z</time>
      </trkpt>
      <trkpt lat="48.96697" lon="-1.06045">
        <ele>41.09545</ele>
        <time>2021-09-05T15:14:29.000Z</time>
      </trkpt>
      <trkpt lat="48.96693" lon="-1.06046">
        <ele>41.139974</ele>
        <time>2021-09-05T15:24:36.000Z</time>
      </trkpt>
      <trkpt lat="48.9669" lon="-1.06046">
        <ele>41.177044</ele>
        <time>2021-09-05T15:24:44.000Z</time>
      </trkpt>
      <trkpt lat="48.96677" lon="-1.06048">
        <ele>41.334796</ele>
        <time>2021-09-05T15:24:50.000Z</time>
      </trkpt>
      <trkpt lat="48.96654" lon="-1.06052">
        <ele>41.599298</ele>
        <time>2021-09-05T15:24:57.000Z</time>
      </trkpt>
      <trkpt lat="48.96643" lon="-1.06052">
        <ele>41.725228</ele>
        <time>2021-09-05T15:25:01.000Z</time>
      </trkpt>
      <trkpt lat="48.96625" lon="-1.06051">
        <ele>41.8983</ele>
        <time>2021-09-05T15:25:06.000Z</time>
      </trkpt>
      <trkpt lat="48.96603" lon="-1.06047">
        <ele>41.892354</ele>
        <time>2021-09-05T15:25:12.000Z</time>
      </trkpt>
      <trkpt lat="48.96583" lon="-1.06044">
        <ele>41.887253</ele>
        <time>2021-09-05T15:25:17.000Z</time>
      </trkpt>
      <trkpt lat="48.96562" lon="-1.06041">
        <ele>41.881519</ele>
        <time>2021-09-05T15:25:22.000Z</time>
      </trkpt>
      <trkpt lat="48.96558" lon="-1.0604">
        <ele>41.880487</ele>
        <time>2021-09-05T15:25:23.000Z</time>
      </trkpt>
      <trkpt lat="48.9655" lon="-1.06039">
        <ele>41.878374</ele>
        <time>2021-09-05T15:25:25.000Z</time>
      </trkpt>
      <trkpt lat="48.96532" lon="-1.06037">
        <ele>41.873615</ele>
        <time>2021-09-05T15:25:29.000Z</time>
      </trkpt>
      <trkpt lat="48.96508" lon="-1.06035">
        <ele>41.867277</ele>
        <time>2021-09-05T15:25:35.000Z</time>
      </trkpt>
      <trkpt lat="48.96481" lon="-1.06034">
        <ele>41.860282</ele>
        <time>2021-09-05T15:25:42.000Z</time>
      </trkpt>
      <trkpt lat="48.96477" lon="-1.06033">
        <ele>41.859151</ele>
        <time>2021-09-05T15:25:43.000Z</time>
      </trkpt>
      <trkpt lat="48.96459" lon="-1.06029">
        <ele>41.854521</ele>
        <time>2021-09-05T15:25:47.000Z</time>
      </trkpt>
      <trkpt lat="48.96426" lon="-1.06018">
        <ele>41.743496</ele>
        <time>2021-09-05T15:25:55.000Z</time>
      </trkpt>
      <trkpt lat="48.96393" lon="-1.06006">
        <ele>41.582672</ele>
        <time>2021-09-05T15:26:02.000Z</time>
      </trkpt>
      <trkpt lat="48.9636" lon="-1.05993">
        <ele>41.421553</ele>
        <time>2021-09-05T15:26:09.000Z</time>
      </trkpt>
      <trkpt lat="48.9635" lon="-1.05989">
        <ele>41.375194</ele>
        <time>2021-09-05T15:26:11.000Z</time>
      </trkpt>
      <trkpt lat="48.96331" lon="-1.0598">
        <ele>41.283375</ele>
        <time>2021-09-05T15:26:15.000Z</time>
      </trkpt>
      <trkpt lat="48.96318" lon="-1.05974">
        <ele>41.21541</ele>
        <time>2021-09-05T15:26:18.000Z</time>
      </trkpt>
      <trkpt lat="48.96308" lon="-1.05969">
        <ele>41.166543</ele>
        <time>2021-09-05T15:26:20.000Z</time>
      </trkpt>
      <trkpt lat="48.96272" lon="-1.05954">
        <ele>41.004188</ele>
        <time>2021-09-05T15:26:27.000Z</time>
      </trkpt>
      <trkpt lat="48.96242" lon="-1.05943">
        <ele>40.965466</ele>
        <time>2021-09-05T15:26:33.000Z</time>
      </trkpt>
      <trkpt lat="48.9621" lon="-1.05931">
        <ele>40.924671</ele>
        <time>2021-09-05T15:26:40.000Z</time>
      </trkpt>
      <trkpt lat="48.96186" lon="-1.0592">
        <ele>40.892559</ele>
        <time>2021-09-05T15:26:46.000Z</time>
      </trkpt>
      <trkpt lat="48.96157" lon="-1.05902">
        <ele>40.852831</ele>
        <time>2021-09-05T15:26:53.000Z</time>
      </trkpt>
      <trkpt lat="48.96131" lon="-1.05884">
        <ele>40.817592</ele>
        <time>2021-09-05T15:26:59.000Z</time>
      </trkpt>
      <trkpt lat="48.96104" lon="-1.05866">
        <ele>40.784762</ele>
        <time>2021-09-05T15:27:06.000Z</time>
      </trkpt>
      <trkpt lat="48.9609" lon="-1.05857">
        <ele>40.803938</ele>
        <time>2021-09-05T15:27:11.000Z</time>
      </trkpt>
      <trkpt lat="48.96083" lon="-1.05852">
        <ele>40.81395</ele>
        <time>2021-09-05T15:27:13.000Z</time>
      </trkpt>
      <trkpt lat="48.96075" lon="-1.05847">
        <ele>40.824709</ele>
        <time>2021-09-05T15:27:15.000Z</time>
      </trkpt>
      <trkpt lat="48.96056" lon="-1.05835">
        <ele>40.850278</ele>
        <time>2021-09-05T15:27:19.000Z</time>
      </trkpt>
      <trkpt lat="48.96051" lon="-1.05832">
        <ele>40.857035</ele>
        <time>2021-09-05T15:27:20.000Z</time>
      </trkpt>
      <trkpt lat="48.96028" lon="-1.05818">
        <ele>40.888532</ele>
        <time>2021-09-05T15:27:25.000Z</time>
      </trkpt>
      <trkpt lat="48.96003" lon="-1.05801">
        <ele>40.92305</ele>
        <time>2021-09-05T15:27:31.000Z</time>
      </trkpt>
      <trkpt lat="48.95982" lon="-1.05788">
        <ele>40.951791</ele>
        <time>2021-09-05T15:27:36.000Z</time>
      </trkpt>
      <trkpt lat="48.95977" lon="-1.05785">
        <ele>40.95875</ele>
        <time>2021-09-05T15:27:37.000Z</time>
      </trkpt>
      <trkpt lat="48.95957" lon="-1.05774">
        <ele>40.986445</ele>
        <time>2021-09-05T15:27:41.000Z</time>
      </trkpt>
      <trkpt lat="48.95933" lon="-1.05761">
        <ele>41.043044</ele>
        <time>2021-09-05T15:27:47.000Z</time>
      </trkpt>
      <trkpt lat="48.95925" lon="-1.05757">
        <ele>41.090183</ele>
        <time>2021-09-05T15:27:49.000Z</time>
      </trkpt>
      <trkpt lat="48.95908" lon="-1.05743">
        <ele>41.193076</ele>
        <time>2021-09-05T15:27:53.000Z</time>
      </trkpt>
      <trkpt lat="48.9589" lon="-1.05726">
        <ele>41.304002</ele>
        <time>2021-09-05T15:27:57.000Z</time>
      </trkpt>
      <trkpt lat="48.95883" lon="-1.05714">
        <ele>41.361215</ele>
        <time>2021-09-05T15:27:59.000Z</time>
      </trkpt>
      <trkpt lat="48.95868" lon="-1.05691">
        <ele>41.477366</ele>
        <time>2021-09-05T15:28:03.000Z</time>
      </trkpt>
      <trkpt lat="48.95863" lon="-1.05678">
        <ele>41.528014</ele>
        <time>2021-09-05T15:28:05.000Z</time>
      </trkpt>
      <trkpt lat="48.95861" lon="-1.05671">
        <ele>41.556068</ele>
        <time>2021-09-05T15:28:06.000Z</time>
      </trkpt>
      <trkpt lat="48.95858" lon="-1.05657">
        <ele>41.606022</ele>
        <time>2021-09-05T15:28:08.000Z</time>
      </trkpt>
      <trkpt lat="48.95856" lon="-1.05643">
        <ele>41.656993</ele>
        <time>2021-09-05T15:28:10.000Z</time>
      </trkpt>
      <trkpt lat="48.95852" lon="-1.05622">
        <ele>41.732902</ele>
        <time>2021-09-05T15:28:13.000Z</time>
      </trkpt>
      <trkpt lat="48.9585" lon="-1.05599">
        <ele>41.813927</ele>
        <time>2021-09-05T15:28:16.000Z</time>
      </trkpt>
      <trkpt lat="48.95844" lon="-1.05521">
        <ele>42.188697</ele>
        <time>2021-09-05T15:28:26.000Z</time>
      </trkpt>
      <trkpt lat="48.95837" lon="-1.05463">
        <ele>42.578969</ele>
        <time>2021-09-05T15:28:34.000Z</time>
      </trkpt>
      <trkpt lat="48.95832" lon="-1.05433">
        <ele>42.773534</ele>
        <time>2021-09-05T15:28:38.000Z</time>
      </trkpt>
      <trkpt lat="48.95827" lon="-1.05422">
        <ele>42.86593</ele>
        <time>2021-09-05T15:28:40.000Z</time>
      </trkpt>
      <trkpt lat="48.9582" lon="-1.05404">
        <ele>43.002892</ele>
        <time>2021-09-05T15:28:44.000Z</time>
      </trkpt>
      <trkpt lat="48.95818" lon="-1.05398">
        <ele>43.045828</ele>
        <time>2021-09-05T15:28:46.000Z</time>
      </trkpt>
      <trkpt lat="48.95823" lon="-1.05393">
        <ele>43.09558</ele>
        <time>2021-09-05T15:28:48.000Z</time>
      </trkpt>
      <trkpt lat="48.95836" lon="-1.05383">
        <ele>43.246576</ele>
        <time>2021-09-05T15:28:53.000Z</time>
      </trkpt>
      <trkpt lat="48.95846" lon="-1.05373">
        <ele>43.363781</ele>
        <time>2021-09-05T15:28:56.000Z</time>
      </trkpt>
      <trkpt lat="48.95848" lon="-1.05366">
        <ele>43.410847</ele>
        <time>2021-09-05T15:28:57.000Z</time>
      </trkpt>
      <trkpt lat="48.95858" lon="-1.05333">
        <ele>43.651288</ele>
        <time>2021-09-05T15:29:03.000Z</time>
      </trkpt>
      <trkpt lat="48.95864" lon="-1.05332">
        <ele>43.713836</ele>
        <time>2021-09-05T15:29:06.000Z</time>
      </trkpt>
      <trkpt lat="48.95876" lon="-1.05335">
        <ele>43.765676</ele>
        <time>2021-09-05T15:29:08.000Z</time>
      </trkpt>
      <trkpt lat="48.9588" lon="-1.05332">
        <ele>43.772966</ele>
        <time>2021-09-05T15:29:09.000Z</time>
      </trkpt>
      <trkpt lat="48.95882" lon="-1.05326">
        <ele>43.779523</ele>
        <time>2021-09-05T15:29:10.000Z</time>
      </trkpt>
      <trkpt lat="48.95885" lon="-1.05313">
        <ele>43.793644</ele>
        <time>2021-09-05T15:29:12.000Z</time>
      </trkpt>
      <trkpt lat="48.95892" lon="-1.05277">
        <ele>43.832487</ele>
        <time>2021-09-05T15:29:17.000Z</time>
      </trkpt>
      <trkpt lat="48.95893" lon="-1.05269">
        <ele>43.840839</ele>
        <time>2021-09-05T15:29:18.000Z</time>
      </trkpt>
      <trkpt lat="48.95894" lon="-1.05261">
        <ele>43.849294</ele>
        <time>2021-09-05T15:29:20.000Z</time>
      </trkpt>
      <trkpt lat="48.959" lon="-1.05233">
        <ele>43.880429</ele>
        <time>2021-09-05T15:29:23.000Z</time>
      </trkpt>
      <trkpt lat="48.95903" lon="-1.05219">
        <ele>43.895341</ele>
        <time>2021-09-05T15:29:25.000Z</time>
      </trkpt>
      <trkpt lat="48.95912" lon="-1.05181">
        <ele>43.936638</ele>
        <time>2021-09-05T15:29:30.000Z</time>
      </trkpt>
      <trkpt lat="48.95926" lon="-1.0512">
        <ele>44.003341</ele>
        <time>2021-09-05T15:29:38.000Z</time>
      </trkpt>
      <trkpt lat="48.95945" lon="-1.05053">
        <ele>44.164647</ele>
        <time>2021-09-05T15:29:47.000Z</time>
      </trkpt>
      <trkpt lat="48.95966" lon="-1.05016">
        <ele>44.31494</ele>
        <time>2021-09-05T15:29:53.000Z</time>
      </trkpt>
      <trkpt lat="48.95966" lon="-1.05016">
        <ele>44.31494</ele>
        <time>2021-09-05T15:29:54.000Z</time>
      </trkpt>
      <trkpt lat="48.9598" lon="-1.04997">
        <ele>44.400606</ele>
        <time>2021-09-05T15:29:58.000Z</time>
      </trkpt>
      <trkpt lat="48.96005" lon="-1.04974">
        <ele>44.540455</ele>
        <time>2021-09-05T15:30:04.000Z</time>
      </trkpt>
      <trkpt lat="48.96026" lon="-1.04964">
        <ele>44.641317</ele>
        <time>2021-09-05T15:30:10.000Z</time>
      </trkpt>
      <trkpt lat="48.96036" lon="-1.04961">
        <ele>44.690872</ele>
        <time>2021-09-05T15:30:14.000Z</time>
      </trkpt>
      <trkpt lat="48.96039" lon="-1.04961">
        <ele>44.70454</ele>
        <time>2021-09-05T15:30:15.000Z</time>
      </trkpt>
      <trkpt lat="48.96049" lon="-1.0496">
        <ele>44.751192</ele>
        <time>2021-09-05T15:30:18.000Z</time>
      </trkpt>
      <trkpt lat="48.9607" lon="-1.04965">
        <ele>44.853702</ele>
        <time>2021-09-05T15:30:23.000Z</time>
      </trkpt>
      <trkpt lat="48.96075" lon="-1.04967">
        <ele>44.87786</ele>
        <time>2021-09-05T15:30:25.000Z</time>
      </trkpt>
      <trkpt lat="48.9609" lon="-1.04974">
        <ele>44.918473</ele>
        <time>2021-09-05T15:30:27.000Z</time>
      </trkpt>
      <trkpt lat="48.96094" lon="-1.04979">
        <ele>44.932048</ele>
        <time>2021-09-05T15:30:28.000Z</time>
      </trkpt>
      <trkpt lat="48.96101" lon="-1.04991">
        <ele>44.957579</ele>
        <time>2021-09-05T15:30:30.000Z</time>
      </trkpt>
      <trkpt lat="48.9611" lon="-1.05002">
        <ele>44.98701</ele>
        <time>2021-09-05T15:30:33.000Z</time>
      </trkpt>
      <trkpt lat="48.96132" lon="-1.05011">
        <ele>45.042974</ele>
        <time>2021-09-05T15:30:38.000Z</time>
      </trkpt>
      <trkpt lat="48.96149" lon="-1.05016">
        <ele>45.087845</ele>
        <time>2021-09-05T15:30:42.000Z</time>
      </trkpt>
      <trkpt lat="48.96157" lon="-1.05018">
        <ele>45.107682</ele>
        <time>2021-09-05T15:30:43.000Z</time>
      </trkpt>
      <trkpt lat="48.96165" lon="-1.05019">
        <ele>45.126502</ele>
        <time>2021-09-05T15:30:45.000Z</time>
      </trkpt>
      <trkpt lat="48.9618" lon="-1.05023">
        <ele>45.16516</ele>
        <time>2021-09-05T15:30:48.000Z</time>
      </trkpt>
      <trkpt lat="48.96185" lon="-1.05025">
        <ele>45.178128</ele>
        <time>2021-09-05T15:30:49.000Z</time>
      </trkpt>
      <trkpt lat="48.96185" lon="-1.05025">
        <ele>45.178128</ele>
        <time>2021-09-05T15:30:50.000Z</time>
      </trkpt>
      <trkpt lat="48.96207" lon="-1.05022">
        <ele>45.232774</ele>
        <time>2021-09-05T15:30:53.000Z</time>
      </trkpt>
      <trkpt lat="48.96212" lon="-1.05021">
        <ele>45.245941</ele>
        <time>2021-09-05T15:30:55.000Z</time>
      </trkpt>
      <trkpt lat="48.96223" lon="-1.05018">
        <ele>45.273585</ele>
        <time>2021-09-05T15:30:56.000Z</time>
      </trkpt>
      <trkpt lat="48.96248" lon="-1.05003">
        <ele>45.286885</ele>
        <time>2021-09-05T15:31:01.000Z</time>
      </trkpt>
      <trkpt lat="48.96267" lon="-1.04967">
        <ele>44.817712</ele>
        <time>2021-09-05T15:31:07.000Z</time>
      </trkpt>
      <trkpt lat="48.96276" lon="-1.04944">
        <ele>44.552095</ele>
        <time>2021-09-05T15:31:12.000Z</time>
      </trkpt>
      <trkpt lat="48.96282" lon="-1.04926">
        <ele>44.352381</ele>
        <time>2021-09-05T15:31:14.000Z</time>
      </trkpt>
      <trkpt lat="48.96287" lon="-1.04914">
        <ele>44.215581</ele>
        <time>2021-09-05T15:31:17.000Z</time>
      </trkpt>
      <trkpt lat="48.9629" lon="-1.04901">
        <ele>44.075804</ele>
        <time>2021-09-05T15:31:18.000Z</time>
      </trkpt>
      <trkpt lat="48.96293" lon="-1.04887">
        <ele>43.929853</ele>
        <time>2021-09-05T15:31:20.000Z</time>
      </trkpt>
      <trkpt lat="48.96293" lon="-1.04887">
        <ele>43.929853</ele>
        <time>2021-09-05T15:31:21.000Z</time>
      </trkpt>
      <trkpt lat="48.96297" lon="-1.04858">
        <ele>43.628745</ele>
        <time>2021-09-05T15:31:25.000Z</time>
      </trkpt>
      <trkpt lat="48.963" lon="-1.0483">
        <ele>43.351339</ele>
        <time>2021-09-05T15:31:28.000Z</time>
      </trkpt>
      <trkpt lat="48.96299" lon="-1.04797">
        <ele>43.020033</ele>
        <time>2021-09-05T15:31:33.000Z</time>
      </trkpt>
      <trkpt lat="48.96299" lon="-1.04797">
        <ele>43.020033</ele>
        <time>2021-09-05T15:31:34.000Z</time>
      </trkpt>
      <trkpt lat="48.96297" lon="-1.04774">
        <ele>42.785684</ele>
        <time>2021-09-05T15:31:36.000Z</time>
      </trkpt>
      <trkpt lat="48.96296" lon="-1.04764">
        <ele>42.688191</ele>
        <time>2021-09-05T15:31:37.000Z</time>
      </trkpt>
      <trkpt lat="48.96297" lon="-1.04718">
        <ele>41.708315</ele>
        <time>2021-09-05T15:31:43.000Z</time>
      </trkpt>
      <trkpt lat="48.96294" lon="-1.04688">
        <ele>40.990176</ele>
        <time>2021-09-05T15:31:46.000Z</time>
      </trkpt>
      <trkpt lat="48.96294" lon="-1.04688">
        <ele>40.990176</ele>
        <time>2021-09-05T15:31:47.000Z</time>
      </trkpt>
      <trkpt lat="48.96285" lon="-1.04639">
        <ele>39.775582</ele>
        <time>2021-09-05T15:31:52.000Z</time>
      </trkpt>
      <trkpt lat="48.96273" lon="-1.04585">
        <ele>38.422341</ele>
        <time>2021-09-05T15:31:59.000Z</time>
      </trkpt>
      <trkpt lat="48.96262" lon="-1.04535">
        <ele>37.153042</ele>
        <time>2021-09-05T15:32:05.000Z</time>
      </trkpt>
      <trkpt lat="48.96259" lon="-1.0452">
        <ele>36.776447</ele>
        <time>2021-09-05T15:32:07.000Z</time>
      </trkpt>
      <trkpt lat="48.96253" lon="-1.04499">
        <ele>36.228595</ele>
        <time>2021-09-05T15:32:10.000Z</time>
      </trkpt>
      <trkpt lat="48.9625" lon="-1.04486">
        <ele>36.009764</ele>
        <time>2021-09-05T15:32:12.000Z</time>
      </trkpt>
      <trkpt lat="48.96242" lon="-1.04458">
        <ele>35.823288</ele>
        <time>2021-09-05T15:32:16.000Z</time>
      </trkpt>
      <trkpt lat="48.96238" lon="-1.04445">
        <ele>35.734338</ele>
        <time>2021-09-05T15:32:18.000Z</time>
      </trkpt>
      <trkpt lat="48.96234" lon="-1.04431">
        <ele>35.636811</ele>
        <time>2021-09-05T15:32:20.000Z</time>
      </trkpt>
      <trkpt lat="48.96214" lon="-1.04381">
        <ele>35.273807</ele>
        <time>2021-09-05T15:32:27.000Z</time>
      </trkpt>
      <trkpt lat="48.96196" lon="-1.04344">
        <ele>34.986691</ele>
        <time>2021-09-05T15:32:33.000Z</time>
      </trkpt>
      <trkpt lat="48.96185" lon="-1.04324">
        <ele>34.821332</ele>
        <time>2021-09-05T15:32:38.000Z</time>
      </trkpt>
      <trkpt lat="48.96179" lon="-1.04313">
        <ele>34.729656</ele>
        <time>2021-09-05T15:32:44.000Z</time>
      </trkpt>
      <trkpt lat="48.96176" lon="-1.0431">
        <ele>34.696971</ele>
        <time>2021-09-05T15:32:50.000Z</time>
      </trkpt>
      <trkpt lat="48.96168" lon="-1.04299">
        <ele>34.597854</ele>
        <time>2021-09-05T15:33:10.000Z</time>
      </trkpt>
      <trkpt lat="48.96161" lon="-1.0429">
        <ele>34.508167</ele>
        <time>2021-09-05T15:33:14.000Z</time>
      </trkpt>
      <trkpt lat="48.96144" lon="-1.04269">
        <ele>34.349922</ele>
        <time>2021-09-05T15:33:19.000Z</time>
      </trkpt>
      <trkpt lat="48.96121" lon="-1.04245">
        <ele>34.403576</ele>
        <time>2021-09-05T15:33:25.000Z</time>
      </trkpt>
      <trkpt lat="48.96116" lon="-1.04242">
        <ele>34.41311</ele>
        <time>2021-09-05T15:33:27.000Z</time>
      </trkpt>
      <trkpt lat="48.96088" lon="-1.04225">
        <ele>34.471448</ele>
        <time>2021-09-05T15:33:32.000Z</time>
      </trkpt>
      <trkpt lat="48.96057" lon="-1.04211">
        <ele>34.532984</ele>
        <time>2021-09-05T15:33:38.000Z</time>
      </trkpt>
      <trkpt lat="48.9603" lon="-1.04204">
        <ele>34.584294</ele>
        <time>2021-09-05T15:33:43.000Z</time>
      </trkpt>
      <trkpt lat="48.96011" lon="-1.04194">
        <ele>34.623518</ele>
        <time>2021-09-05T15:33:47.000Z</time>
      </trkpt>
      <trkpt lat="48.96002" lon="-1.04188">
        <ele>34.641195</ele>
        <time>2021-09-05T15:33:49.000Z</time>
      </trkpt>
      <trkpt lat="48.95994" lon="-1.04178">
        <ele>34.660767</ele>
        <time>2021-09-05T15:33:51.000Z</time>
      </trkpt>
      <trkpt lat="48.95983" lon="-1.04161">
        <ele>34.69996</ele>
        <time>2021-09-05T15:33:54.000Z</time>
      </trkpt>
      <trkpt lat="48.95952" lon="-1.04111">
        <ele>34.884769</ele>
        <time>2021-09-05T15:34:02.000Z</time>
      </trkpt>
      <trkpt lat="48.95948" lon="-1.04106">
        <ele>34.90686</ele>
        <time>2021-09-05T15:34:03.000Z</time>
      </trkpt>
      <trkpt lat="48.95938" lon="-1.04098">
        <ele>34.953409</ele>
        <time>2021-09-05T15:34:06.000Z</time>
      </trkpt>
      <trkpt lat="48.95906" lon="-1.04085">
        <ele>35.089698</ele>
        <time>2021-09-05T15:34:11.000Z</time>
      </trkpt>
      <trkpt lat="48.95901" lon="-1.04085">
        <ele>35.111156</ele>
        <time>2021-09-05T15:34:12.000Z</time>
      </trkpt>
      <trkpt lat="48.95872" lon="-1.04086">
        <ele>35.22739</ele>
        <time>2021-09-05T15:34:18.000Z</time>
      </trkpt>
      <trkpt lat="48.95822" lon="-1.04093">
        <ele>35.448021</ele>
        <time>2021-09-05T15:34:27.000Z</time>
      </trkpt>
      <trkpt lat="48.95812" lon="-1.04094">
        <ele>35.536407</ele>
        <time>2021-09-05T15:34:28.000Z</time>
      </trkpt>
      <trkpt lat="48.95802" lon="-1.04091">
        <ele>35.623161</ele>
        <time>2021-09-05T15:34:30.000Z</time>
      </trkpt>
      <trkpt lat="48.95797" lon="-1.04089">
        <ele>35.668287</ele>
        <time>2021-09-05T15:34:32.000Z</time>
      </trkpt>
      <trkpt lat="48.95776" lon="-1.04082">
        <ele>35.850725</ele>
        <time>2021-09-05T15:34:36.000Z</time>
      </trkpt>
      <trkpt lat="48.95766" lon="-1.04078">
        <ele>35.945567</ele>
        <time>2021-09-05T15:34:37.000Z</time>
      </trkpt>
      <trkpt lat="48.95746" lon="-1.04066">
        <ele>36.125973</ele>
        <time>2021-09-05T15:34:41.000Z</time>
      </trkpt>
      <trkpt lat="48.95737" lon="-1.04058">
        <ele>36.220757</ele>
        <time>2021-09-05T15:34:43.000Z</time>
      </trkpt>
      <trkpt lat="48.95732" lon="-1.04054">
        <ele>36.26505</ele>
        <time>2021-09-05T15:34:45.000Z</time>
      </trkpt>
      <trkpt lat="48.95718" lon="-1.04041">
        <ele>36.40752</ele>
        <time>2021-09-05T15:34:47.000Z</time>
      </trkpt>
      <trkpt lat="48.95676" lon="-1.04002">
        <ele>36.837737</ele>
        <time>2021-09-05T15:34:57.000Z</time>
      </trkpt>
      <trkpt lat="48.95662" lon="-1.03982">
        <ele>37.057431</ele>
        <time>2021-09-05T15:34:59.000Z</time>
      </trkpt>
      <trkpt lat="48.95664" lon="-1.03975">
        <ele>37.205302</ele>
        <time>2021-09-05T15:35:00.000Z</time>
      </trkpt>
      <trkpt lat="48.95667" lon="-1.03956">
        <ele>37.677847</ele>
        <time>2021-09-05T15:35:04.000Z</time>
      </trkpt>
      <trkpt lat="48.95673" lon="-1.0392">
        <ele>38.556434</ele>
        <time>2021-09-05T15:35:12.000Z</time>
      </trkpt>
      <trkpt lat="48.95681" lon="-1.03875">
        <ele>39.627223</ele>
        <time>2021-09-05T15:35:21.000Z</time>
      </trkpt>
      <trkpt lat="48.95686" lon="-1.03847">
        <ele>40.314535</ele>
        <time>2021-09-05T15:35:28.000Z</time>
      </trkpt>
      <trkpt lat="48.95692" lon="-1.03814">
        <ele>41.106308</ele>
        <time>2021-09-05T15:35:35.000Z</time>
      </trkpt>
      <trkpt lat="48.95698" lon="-1.03784">
        <ele>41.840207</ele>
        <time>2021-09-05T15:35:43.000Z</time>
      </trkpt>
      <trkpt lat="48.95701" lon="-1.03763">
        <ele>42.353898</ele>
        <time>2021-09-05T15:35:50.000Z</time>
      </trkpt>
      <trkpt lat="48.95703" lon="-1.03753">
        <ele>42.594022</ele>
        <time>2021-09-05T15:35:52.000Z</time>
      </trkpt>
      <trkpt lat="48.95703" lon="-1.03747">
        <ele>42.743624</ele>
        <time>2021-09-05T15:35:54.000Z</time>
      </trkpt>
      <trkpt lat="48.95693" lon="-1.03743">
        <ele>43.113897</ele>
        <time>2021-09-05T15:35:58.000Z</time>
      </trkpt>
      <trkpt lat="48.95675" lon="-1.03738">
        <ele>43.591446</ele>
        <time>2021-09-05T15:36:03.000Z</time>
      </trkpt>
      <trkpt lat="48.95667" lon="-1.03735">
        <ele>43.73743</ele>
        <time>2021-09-05T15:36:04.000Z</time>
      </trkpt>
      <trkpt lat="48.95647" lon="-1.03729">
        <ele>44.116046</ele>
        <time>2021-09-05T15:36:11.000Z</time>
      </trkpt>
      <trkpt lat="48.95603" lon="-1.0371">
        <ele>44.955137</ele>
        <time>2021-09-05T15:36:20.000Z</time>
      </trkpt>
      <trkpt lat="48.95571" lon="-1.0369">
        <ele>45.598538</ele>
        <time>2021-09-05T15:36:27.000Z</time>
      </trkpt>
      <trkpt lat="48.95559" lon="-1.03681">
        <ele>45.864686</ele>
        <time>2021-09-05T15:36:30.000Z</time>
      </trkpt>
      <trkpt lat="48.95546" lon="-1.0367">
        <ele>46.12779</ele>
        <time>2021-09-05T15:36:33.000Z</time>
      </trkpt>
      <trkpt lat="48.95525" lon="-1.03646">
        <ele>46.619263</ele>
        <time>2021-09-05T15:36:39.000Z</time>
      </trkpt>
      <trkpt lat="48.95512" lon="-1.03632">
        <ele>47.02787</ele>
        <time>2021-09-05T15:36:45.000Z</time>
      </trkpt>
      <trkpt lat="48.95494" lon="-1.03612">
        <ele>47.701008</ele>
        <time>2021-09-05T15:36:54.000Z</time>
      </trkpt>
      <trkpt lat="48.95478" lon="-1.03595">
        <ele>48.278809</ele>
        <time>2021-09-05T15:37:01.000Z</time>
      </trkpt>
      <trkpt lat="48.95465" lon="-1.03581">
        <ele>48.767386</ele>
        <time>2021-09-05T15:37:08.000Z</time>
      </trkpt>
      <trkpt lat="48.9546" lon="-1.03578">
        <ele>48.904442</ele>
        <time>2021-09-05T15:37:10.000Z</time>
      </trkpt>
      <trkpt lat="48.95449" lon="-1.0357">
        <ele>49.272882</ele>
        <time>2021-09-05T15:37:16.000Z</time>
      </trkpt>
      <trkpt lat="48.95433" lon="-1.03557">
        <ele>49.825542</ele>
        <time>2021-09-05T15:37:23.000Z</time>
      </trkpt>
      <trkpt lat="48.95413" lon="-1.03544">
        <ele>50.466082</ele>
        <time>2021-09-05T15:37:30.000Z</time>
      </trkpt>
      <trkpt lat="48.95397" lon="-1.03535">
        <ele>50.976097</ele>
        <time>2021-09-05T15:37:35.000Z</time>
      </trkpt>
      <trkpt lat="48.95374" lon="-1.03522">
        <ele>51.735158</ele>
        <time>2021-09-05T15:37:42.000Z</time>
      </trkpt>
      <trkpt lat="48.95367" lon="-1.03512">
        <ele>52.007503</ele>
        <time>2021-09-05T15:37:44.000Z</time>
      </trkpt>
      <trkpt lat="48.95359" lon="-1.035">
        <ele>52.121456</ele>
        <time>2021-09-05T15:37:46.000Z</time>
      </trkpt>
      <trkpt lat="48.95349" lon="-1.0349">
        <ele>52.140749</ele>
        <time>2021-09-05T15:37:48.000Z</time>
      </trkpt>
      <trkpt lat="48.95336" lon="-1.0348">
        <ele>52.161846</ele>
        <time>2021-09-05T15:37:50.000Z</time>
      </trkpt>
      <trkpt lat="48.95323" lon="-1.03468">
        <ele>52.18578</ele>
        <time>2021-09-05T15:37:53.000Z</time>
      </trkpt>
      <trkpt lat="48.95316" lon="-1.03461">
        <ele>52.198108</ele>
        <time>2021-09-05T15:37:54.000Z</time>
      </trkpt>
      <trkpt lat="48.95272" lon="-1.03411">
        <ele>52.282094</ele>
        <time>2021-09-05T15:37:59.000Z</time>
      </trkpt>
      <trkpt lat="48.95265" lon="-1.03403">
        <ele>52.295393</ele>
        <time>2021-09-05T15:38:00.000Z</time>
      </trkpt>
      <trkpt lat="48.95237" lon="-1.03362">
        <ele>52.354409</ele>
        <time>2021-09-05T15:38:05.000Z</time>
      </trkpt>
      <trkpt lat="48.95214" lon="-1.03327">
        <ele>52.240919</ele>
        <time>2021-09-05T15:38:10.000Z</time>
      </trkpt>
      <trkpt lat="48.95199" lon="-1.03315">
        <ele>52.052336</ele>
        <time>2021-09-05T15:38:13.000Z</time>
      </trkpt>
      <trkpt lat="48.95194" lon="-1.03311">
        <ele>51.989912</ele>
        <time>2021-09-05T15:38:15.000Z</time>
      </trkpt>
      <trkpt lat="48.95175" lon="-1.0329">
        <ele>51.740182</ele>
        <time>2021-09-05T15:38:19.000Z</time>
      </trkpt>
      <trkpt lat="48.95171" lon="-1.03285">
        <ele>51.677647</ele>
        <time>2021-09-05T15:38:20.000Z</time>
      </trkpt>
      <trkpt lat="48.95162" lon="-1.03275">
        <ele>51.553455</ele>
        <time>2021-09-05T15:38:21.000Z</time>
      </trkpt>
      <trkpt lat="48.95153" lon="-1.03264">
        <ele>51.429696</ele>
        <time>2021-09-05T15:38:24.000Z</time>
      </trkpt>
      <trkpt lat="48.95143" lon="-1.03253">
        <ele>51.292822</ele>
        <time>2021-09-05T15:38:25.000Z</time>
      </trkpt>
      <trkpt lat="48.95133" lon="-1.03241">
        <ele>51.149823</ele>
        <time>2021-09-05T15:38:27.000Z</time>
      </trkpt>
      <trkpt lat="48.9512" lon="-1.0323">
        <ele>50.983452</ele>
        <time>2021-09-05T15:38:29.000Z</time>
      </trkpt>
      <trkpt lat="48.95107" lon="-1.03222">
        <ele>50.83671</ele>
        <time>2021-09-05T15:38:32.000Z</time>
      </trkpt>
      <trkpt lat="48.95083" lon="-1.03206">
        <ele>50.544799</ele>
        <time>2021-09-05T15:38:35.000Z</time>
      </trkpt>
      <trkpt lat="48.95065" lon="-1.03187">
        <ele>50.286972</ele>
        <time>2021-09-05T15:38:38.000Z</time>
      </trkpt>
      <trkpt lat="48.95034" lon="-1.03142">
        <ele>49.731802</ele>
        <time>2021-09-05T15:38:44.000Z</time>
      </trkpt>
      <trkpt lat="48.95018" lon="-1.03124">
        <ele>49.46533</ele>
        <time>2021-09-05T15:38:47.000Z</time>
      </trkpt>
      <trkpt lat="48.95012" lon="-1.03118">
        <ele>49.374426</ele>
        <time>2021-09-05T15:38:48.000Z</time>
      </trkpt>
      <trkpt lat="48.95006" lon="-1.03112">
        <ele>49.288202</ele>
        <time>2021-09-05T15:38:49.000Z</time>
      </trkpt>
      <trkpt lat="48.9499" lon="-1.03095">
        <ele>49.026904</ele>
        <time>2021-09-05T15:38:52.000Z</time>
      </trkpt>
      <trkpt lat="48.94956" lon="-1.03087">
        <ele>48.582895</ele>
        <time>2021-09-05T15:38:57.000Z</time>
      </trkpt>
      <trkpt lat="48.94907" lon="-1.03081">
        <ele>48.001708</ele>
        <time>2021-09-05T15:39:05.000Z</time>
      </trkpt>
      <trkpt lat="48.94878" lon="-1.03076">
        <ele>47.819672</ele>
        <time>2021-09-05T15:39:11.000Z</time>
      </trkpt>
      <trkpt lat="48.94863" lon="-1.03067">
        <ele>47.720062</ele>
        <time>2021-09-05T15:39:13.000Z</time>
      </trkpt>
      <trkpt lat="48.94855" lon="-1.03056">
        <ele>47.654019</ele>
        <time>2021-09-05T15:39:16.000Z</time>
      </trkpt>
      <trkpt lat="48.94847" lon="-1.03047">
        <ele>47.590829</ele>
        <time>2021-09-05T15:39:17.000Z</time>
      </trkpt>
      <trkpt lat="48.94839" lon="-1.03038">
        <ele>47.528589</ele>
        <time>2021-09-05T15:39:19.000Z</time>
      </trkpt>
      <trkpt lat="48.94823" lon="-1.03021">
        <ele>47.404618</ele>
        <time>2021-09-05T15:39:23.000Z</time>
      </trkpt>
      <trkpt lat="48.94801" lon="-1.03006">
        <ele>47.254265</ele>
        <time>2021-09-05T15:39:29.000Z</time>
      </trkpt>
      <trkpt lat="48.94786" lon="-1.02998">
        <ele>47.158521</ele>
        <time>2021-09-05T15:39:31.000Z</time>
      </trkpt>
      <trkpt lat="48.94765" lon="-1.02991">
        <ele>47.020642</ele>
        <time>2021-09-05T15:39:35.000Z</time>
      </trkpt>
      <trkpt lat="48.94736" lon="-1.02973">
        <ele>46.636309</ele>
        <time>2021-09-05T15:39:40.000Z</time>
      </trkpt>
      <trkpt lat="48.94731" lon="-1.02969">
        <ele>46.533382</ele>
        <time>2021-09-05T15:39:41.000Z</time>
      </trkpt>
      <trkpt lat="48.94721" lon="-1.02962">
        <ele>46.343228</ele>
        <time>2021-09-05T15:39:43.000Z</time>
      </trkpt>
      <trkpt lat="48.94715" lon="-1.02958">
        <ele>46.233127</ele>
        <time>2021-09-05T15:39:44.000Z</time>
      </trkpt>
      <trkpt lat="48.94689" lon="-1.02941">
        <ele>45.748324</ele>
        <time>2021-09-05T15:39:48.000Z</time>
      </trkpt>
      <trkpt lat="48.94683" lon="-1.02937">
        <ele>45.634186</ele>
        <time>2021-09-05T15:39:49.000Z</time>
      </trkpt>
      <trkpt lat="48.94666" lon="-1.02926">
        <ele>45.31913</ele>
        <time>2021-09-05T15:39:52.000Z</time>
      </trkpt>
      <trkpt lat="48.94661" lon="-1.02923">
        <ele>45.233532</ele>
        <time>2021-09-05T15:39:53.000Z</time>
      </trkpt>
      <trkpt lat="48.94656" lon="-1.02922">
        <ele>45.144398</ele>
        <time>2021-09-05T15:39:54.000Z</time>
      </trkpt>
      <trkpt lat="48.94641" lon="-1.02917">
        <ele>44.891575</ele>
        <time>2021-09-05T15:39:57.000Z</time>
      </trkpt>
      <trkpt lat="48.94621" lon="-1.02908">
        <ele>44.533569</ele>
        <time>2021-09-05T15:40:01.000Z</time>
      </trkpt>
      <trkpt lat="48.94616" lon="-1.02906">
        <ele>44.438919</ele>
        <time>2021-09-05T15:40:03.000Z</time>
      </trkpt>
      <trkpt lat="48.94611" lon="-1.02903">
        <ele>44.348183</ele>
        <time>2021-09-05T15:40:04.000Z</time>
      </trkpt>
      <trkpt lat="48.94587" lon="-1.02909">
        <ele>43.931858</ele>
        <time>2021-09-05T15:40:08.000Z</time>
      </trkpt>
      <trkpt lat="48.94537" lon="-1.02932">
        <ele>43.487541</ele>
        <time>2021-09-05T15:40:17.000Z</time>
      </trkpt>
      <trkpt lat="48.94507" lon="-1.02955">
        <ele>43.227638</ele>
        <time>2021-09-05T15:40:22.000Z</time>
      </trkpt>
      <trkpt lat="48.94502" lon="-1.0296">
        <ele>43.183558</ele>
        <time>2021-09-05T15:40:23.000Z</time>
      </trkpt>
      <trkpt lat="48.94497" lon="-1.02964">
        <ele>43.138818</ele>
        <time>2021-09-05T15:40:25.000Z</time>
      </trkpt>
      <trkpt lat="48.94485" lon="-1.0298">
        <ele>43.011099</ele>
        <time>2021-09-05T15:40:27.000Z</time>
      </trkpt>
      <trkpt lat="48.94452" lon="-1.03028">
        <ele>42.660108</ele>
        <time>2021-09-05T15:40:35.000Z</time>
      </trkpt>
      <trkpt lat="48.94417" lon="-1.03082">
        <ele>42.64465</ele>
        <time>2021-09-05T15:40:44.000Z</time>
      </trkpt>
      <trkpt lat="48.94379" lon="-1.03133">
        <ele>43.011893</ele>
        <time>2021-09-05T15:40:53.000Z</time>
      </trkpt>
      <trkpt lat="48.94374" lon="-1.03138">
        <ele>43.052103</ele>
        <time>2021-09-05T15:40:54.000Z</time>
      </trkpt>
      <trkpt lat="48.94356" lon="-1.03159">
        <ele>43.218729</ele>
        <time>2021-09-05T15:40:58.000Z</time>
      </trkpt>
      <trkpt lat="48.94323" lon="-1.0319">
        <ele>43.502669</ele>
        <time>2021-09-05T15:41:05.000Z</time>
      </trkpt>
      <trkpt lat="48.94318" lon="-1.03192">
        <ele>43.540141</ele>
        <time>2021-09-05T15:41:06.000Z</time>
      </trkpt>
      <trkpt lat="48.94313" lon="-1.03194">
        <ele>43.576203</ele>
        <time>2021-09-05T15:41:07.000Z</time>
      </trkpt>
      <trkpt lat="48.94287" lon="-1.03204">
        <ele>43.772645</ele>
        <time>2021-09-05T15:41:12.000Z</time>
      </trkpt>
      <trkpt lat="48.94248" lon="-1.03211">
        <ele>44.044993</ele>
        <time>2021-09-05T15:41:19.000Z</time>
      </trkpt>
      <trkpt lat="48.94222" lon="-1.03215">
        <ele>44.222554</ele>
        <time>2021-09-05T15:41:25.000Z</time>
      </trkpt>
      <trkpt lat="48.94211" lon="-1.03229">
        <ele>44.322546</ele>
        <time>2021-09-05T15:41:29.000Z</time>
      </trkpt>
      <trkpt lat="48.942" lon="-1.03238">
        <ele>44.408932</ele>
        <time>2021-09-05T15:41:32.000Z</time>
      </trkpt>
      <trkpt lat="48.9419" lon="-1.0324">
        <ele>44.476724</ele>
        <time>2021-09-05T15:41:35.000Z</time>
      </trkpt>
      <trkpt lat="48.94176" lon="-1.03246">
        <ele>44.577251</ele>
        <time>2021-09-05T15:41:37.000Z</time>
      </trkpt>
      <trkpt lat="48.94158" lon="-1.03257">
        <ele>44.7122</ele>
        <time>2021-09-05T15:41:41.000Z</time>
      </trkpt>
      <trkpt lat="48.94148" lon="-1.03263">
        <ele>44.786182</ele>
        <time>2021-09-05T15:41:44.000Z</time>
      </trkpt>
      <trkpt lat="48.94133" lon="-1.03275">
        <ele>44.898261</ele>
        <time>2021-09-05T15:41:46.000Z</time>
      </trkpt>
      <trkpt lat="48.94107" lon="-1.03299">
        <ele>45.138268</ele>
        <time>2021-09-05T15:41:52.000Z</time>
      </trkpt>
      <trkpt lat="48.94103" lon="-1.03303">
        <ele>45.182682</ele>
        <time>2021-09-05T15:41:53.000Z</time>
      </trkpt>
      <trkpt lat="48.94071" lon="-1.0333">
        <ele>45.501578</ele>
        <time>2021-09-05T15:42:00.000Z</time>
      </trkpt>
      <trkpt lat="48.94067" lon="-1.03332">
        <ele>45.540593</ele>
        <time>2021-09-05T15:42:01.000Z</time>
      </trkpt>
      <trkpt lat="48.94058" lon="-1.03335">
        <ele>45.624629</ele>
        <time>2021-09-05T15:42:03.000Z</time>
      </trkpt>
      <trkpt lat="48.94053" lon="-1.03337">
        <ele>45.667937</ele>
        <time>2021-09-05T15:42:04.000Z</time>
      </trkpt>
      <trkpt lat="48.94001" lon="-1.03354">
        <ele>46.134737</ele>
        <time>2021-09-05T15:42:14.000Z</time>
      </trkpt>
      <trkpt lat="48.93953" lon="-1.03367">
        <ele>46.562359</ele>
        <time>2021-09-05T15:42:23.000Z</time>
      </trkpt>
      <trkpt lat="48.93918" lon="-1.03387">
        <ele>47.115887</ele>
        <time>2021-09-05T15:42:30.000Z</time>
      </trkpt>
      <trkpt lat="48.93913" lon="-1.03391">
        <ele>47.193366</ele>
        <time>2021-09-05T15:42:31.000Z</time>
      </trkpt>
      <trkpt lat="48.93898" lon="-1.03397">
        <ele>47.433221</ele>
        <time>2021-09-05T15:42:34.000Z</time>
      </trkpt>
      <trkpt lat="48.93888" lon="-1.03396">
        <ele>47.583319</ele>
        <time>2021-09-05T15:42:36.000Z</time>
      </trkpt>
      <trkpt lat="48.9388" lon="-1.03386">
        <ele>47.740244</ele>
        <time>2021-09-05T15:42:38.000Z</time>
      </trkpt>
      <trkpt lat="48.93876" lon="-1.03381">
        <ele>47.816807</ele>
        <time>2021-09-05T15:42:39.000Z</time>
      </trkpt>
      <trkpt lat="48.93869" lon="-1.03359">
        <ele>48.057379</ele>
        <time>2021-09-05T15:42:42.000Z</time>
      </trkpt>
      <trkpt lat="48.93868" lon="-1.03346">
        <ele>48.190202</ele>
        <time>2021-09-05T15:42:44.000Z</time>
      </trkpt>
      <trkpt lat="48.93866" lon="-1.03307">
        <ele>48.579251</ele>
        <time>2021-09-05T15:42:51.000Z</time>
      </trkpt>
      <trkpt lat="48.93867" lon="-1.03267">
        <ele>48.971429</ele>
        <time>2021-09-05T15:43:00.000Z</time>
      </trkpt>
      <trkpt lat="48.93867" lon="-1.03247">
        <ele>49.170503</ele>
        <time>2021-09-05T15:43:05.000Z</time>
      </trkpt>
      <trkpt lat="48.93867" lon="-1.03241">
        <ele>49.231224</ele>
        <time>2021-09-05T15:43:07.000Z</time>
      </trkpt>
      <trkpt lat="48.93867" lon="-1.03234">
        <ele>49.301941</ele>
        <time>2021-09-05T15:43:10.000Z</time>
      </trkpt>
      <trkpt lat="48.93867" lon="-1.03233">
        <ele>49.308907</ele>
        <time>2021-09-05T15:43:15.000Z</time>
      </trkpt>
      <trkpt lat="48.93863" lon="-1.03228">
        <ele>49.377992</ele>
        <time>2021-09-05T15:43:19.000Z</time>
      </trkpt>
      <trkpt lat="48.93861" lon="-1.03229">
        <ele>49.408166</ele>
        <time>2021-09-05T15:43:21.000Z</time>
      </trkpt>
      <trkpt lat="48.9385" lon="-1.03234">
        <ele>49.54259</ele>
        <time>2021-09-05T15:43:25.000Z</time>
      </trkpt>
      <trkpt lat="48.93828" lon="-1.03246">
        <ele>49.829314</ele>
        <time>2021-09-05T15:43:31.000Z</time>
      </trkpt>
      <trkpt lat="48.93798" lon="-1.03261">
        <ele>50.233864</ele>
        <time>2021-09-05T15:43:39.000Z</time>
      </trkpt>
      <trkpt lat="48.93769" lon="-1.03277">
        <ele>50.60604</ele>
        <time>2021-09-05T15:43:46.000Z</time>
      </trkpt>
      <trkpt lat="48.93766" lon="-1.03279">
        <ele>50.654769</ele>
        <time>2021-09-05T15:43:47.000Z</time>
      </trkpt>
      <trkpt lat="48.93739" lon="-1.03293">
        <ele>51.00481</ele>
        <time>2021-09-05T15:43:54.000Z</time>
      </trkpt>
      <trkpt lat="48.93727" lon="-1.033">
        <ele>51.162561</ele>
        <time>2021-09-05T15:43:57.000Z</time>
      </trkpt>
      <trkpt lat="48.9372" lon="-1.03304">
        <ele>51.260865</ele>
        <time>2021-09-05T15:44:00.000Z</time>
      </trkpt>
      <trkpt lat="48.93716" lon="-1.03306">
        <ele>51.309873</ele>
        <time>2021-09-05T15:44:01.000Z</time>
      </trkpt>
      <trkpt lat="48.93696" lon="-1.03318">
        <ele>51.556793</ele>
        <time>2021-09-05T15:44:06.000Z</time>
      </trkpt>
      <trkpt lat="48.93669" lon="-1.03334">
        <ele>51.640415</ele>
        <time>2021-09-05T15:44:13.000Z</time>
      </trkpt>
      <trkpt lat="48.93666" lon="-1.03336">
        <ele>51.65102</ele>
        <time>2021-09-05T15:44:14.000Z</time>
      </trkpt>
      <trkpt lat="48.93657" lon="-1.03331">
        <ele>51.677855</ele>
        <time>2021-09-05T15:44:16.000Z</time>
      </trkpt>
      <trkpt lat="48.93652" lon="-1.03303">
        <ele>51.733131</ele>
        <time>2021-09-05T15:44:20.000Z</time>
      </trkpt>
      <trkpt lat="48.93642" lon="-1.03246">
        <ele>51.844883</ele>
        <time>2021-09-05T15:44:27.000Z</time>
      </trkpt>
      <trkpt lat="48.93636" lon="-1.03212">
        <ele>51.91105</ele>
        <time>2021-09-05T15:44:31.000Z</time>
      </trkpt>
      <trkpt lat="48.93633" lon="-1.03195">
        <ele>51.94421</ele>
        <time>2021-09-05T15:44:33.000Z</time>
      </trkpt>
      <trkpt lat="48.93623" lon="-1.03137">
        <ele>52.057315</ele>
        <time>2021-09-05T15:44:40.000Z</time>
      </trkpt>
      <trkpt lat="48.93617" lon="-1.03119">
        <ele>52.162581</ele>
        <time>2021-09-05T15:44:43.000Z</time>
      </trkpt>
      <trkpt lat="48.9361" lon="-1.03102">
        <ele>52.292182</ele>
        <time>2021-09-05T15:44:46.000Z</time>
      </trkpt>
      <trkpt lat="48.93587" lon="-1.03061">
        <ele>52.657632</ele>
        <time>2021-09-05T15:44:55.000Z</time>
      </trkpt>
      <trkpt lat="48.9357" lon="-1.03037">
        <ele>52.898695</ele>
        <time>2021-09-05T15:45:01.000Z</time>
      </trkpt>
      <trkpt lat="48.93563" lon="-1.03029">
        <ele>52.983597</ele>
        <time>2021-09-05T15:45:03.000Z</time>
      </trkpt>
      <trkpt lat="48.93536" lon="-1.02999">
        <ele>53.32159</ele>
        <time>2021-09-05T15:45:11.000Z</time>
      </trkpt>
      <trkpt lat="48.93505" lon="-1.02972">
        <ele>53.690198</ele>
        <time>2021-09-05T15:45:20.000Z</time>
      </trkpt>
      <trkpt lat="48.93477" lon="-1.02957">
        <ele>54.022575</ele>
        <time>2021-09-05T15:45:28.000Z</time>
      </trkpt>
      <trkpt lat="48.93452" lon="-1.02943">
        <ele>54.393455</ele>
        <time>2021-09-05T15:45:35.000Z</time>
      </trkpt>
      <trkpt lat="48.93426" lon="-1.02925">
        <ele>54.780329</ele>
        <time>2021-09-05T15:45:43.000Z</time>
      </trkpt>
      <trkpt lat="48.93404" lon="-1.029">
        <ele>55.159222</ele>
        <time>2021-09-05T15:45:50.000Z</time>
      </trkpt>
      <trkpt lat="48.93387" lon="-1.02876">
        <ele>55.473641</ele>
        <time>2021-09-05T15:45:55.000Z</time>
      </trkpt>
      <trkpt lat="48.93378" lon="-1.02862">
        <ele>55.662919</ele>
        <time>2021-09-05T15:45:58.000Z</time>
      </trkpt>
      <trkpt lat="48.93368" lon="-1.02854">
        <ele>55.806359</ele>
        <time>2021-09-05T15:46:00.000Z</time>
      </trkpt>
      <trkpt lat="48.93355" lon="-1.02844">
        <ele>56.016157</ele>
        <time>2021-09-05T15:46:03.000Z</time>
      </trkpt>
      <trkpt lat="48.93349" lon="-1.02842">
        <ele>56.089432</ele>
        <time>2021-09-05T15:46:04.000Z</time>
      </trkpt>
      <trkpt lat="48.93316" lon="-1.02834">
        <ele>56.479355</ele>
        <time>2021-09-05T15:46:10.000Z</time>
      </trkpt>
      <trkpt lat="48.93282" lon="-1.02828">
        <ele>56.749151</ele>
        <time>2021-09-05T15:46:17.000Z</time>
      </trkpt>
      <trkpt lat="48.9326" lon="-1.02823">
        <ele>56.923725</ele>
        <time>2021-09-05T15:46:21.000Z</time>
      </trkpt>
      <trkpt lat="48.93244" lon="-1.02818">
        <ele>57.04857</ele>
        <time>2021-09-05T15:46:24.000Z</time>
      </trkpt>
      <trkpt lat="48.93215" lon="-1.02803">
        <ele>57.28899</ele>
        <time>2021-09-05T15:46:30.000Z</time>
      </trkpt>
      <trkpt lat="48.93206" lon="-1.02796">
        <ele>57.366023</ele>
        <time>2021-09-05T15:46:32.000Z</time>
      </trkpt>
      <trkpt lat="48.93191" lon="-1.02777">
        <ele>57.518169</ele>
        <time>2021-09-05T15:46:36.000Z</time>
      </trkpt>
      <trkpt lat="48.93162" lon="-1.02743">
        <ele>57.814345</ele>
        <time>2021-09-05T15:46:44.000Z</time>
      </trkpt>
      <trkpt lat="48.93137" lon="-1.02704">
        <ele>58.243353</ele>
        <time>2021-09-05T15:46:52.000Z</time>
      </trkpt>
      <trkpt lat="48.93118" lon="-1.02672">
        <ele>58.581851</ele>
        <time>2021-09-05T15:46:58.000Z</time>
      </trkpt>
      <trkpt lat="48.93096" lon="-1.02628">
        <ele>59.017644</ele>
        <time>2021-09-05T15:47:05.000Z</time>
      </trkpt>
      <trkpt lat="48.93076" lon="-1.02582">
        <ele>59.45382</ele>
        <time>2021-09-05T15:47:12.000Z</time>
      </trkpt>
      <trkpt lat="48.93073" lon="-1.02576">
        <ele>59.515507</ele>
        <time>2021-09-05T15:47:13.000Z</time>
      </trkpt>
      <trkpt lat="48.93069" lon="-1.02571">
        <ele>59.57169</ele>
        <time>2021-09-05T15:47:14.000Z</time>
      </trkpt>
      <trkpt lat="48.93055" lon="-1.02551">
        <ele>59.807202</ele>
        <time>2021-09-05T15:47:18.000Z</time>
      </trkpt>
      <trkpt lat="48.93032" lon="-1.0252">
        <ele>60.209944</ele>
        <time>2021-09-05T15:47:24.000Z</time>
      </trkpt>
      <trkpt lat="48.93028" lon="-1.02515">
        <ele>60.280939</ele>
        <time>2021-09-05T15:47:25.000Z</time>
      </trkpt>
      <trkpt lat="48.93003" lon="-1.02477">
        <ele>60.771868</ele>
        <time>2021-09-05T15:47:32.000Z</time>
      </trkpt>
      <trkpt lat="48.92979" lon="-1.02418">
        <ele>61.411901</ele>
        <time>2021-09-05T15:47:41.000Z</time>
      </trkpt>
      <trkpt lat="48.92953" lon="-1.02369">
        <ele>61.986861</ele>
        <time>2021-09-05T15:47:49.000Z</time>
      </trkpt>
      <trkpt lat="48.92923" lon="-1.0233">
        <ele>62.470788</ele>
        <time>2021-09-05T15:47:57.000Z</time>
      </trkpt>
      <trkpt lat="48.92916" lon="-1.02321">
        <ele>62.504748</ele>
        <time>2021-09-05T15:47:59.000Z</time>
      </trkpt>
      <trkpt lat="48.92899" lon="-1.02303">
        <ele>62.573789</ele>
        <time>2021-09-05T15:48:03.000Z</time>
      </trkpt>
      <trkpt lat="48.92895" lon="-1.02299">
        <ele>62.590936</ele>
        <time>2021-09-05T15:48:04.000Z</time>
      </trkpt>
      <trkpt lat="48.92878" lon="-1.02282">
        <ele>62.661617</ele>
        <time>2021-09-05T15:48:08.000Z</time>
      </trkpt>
      <trkpt lat="48.92874" lon="-1.02278">
        <ele>62.680438</ele>
        <time>2021-09-05T15:48:09.000Z</time>
      </trkpt>
      <trkpt lat="48.92864" lon="-1.02268">
        <ele>62.720588</ele>
        <time>2021-09-05T15:48:11.000Z</time>
      </trkpt>
      <trkpt lat="48.92859" lon="-1.02263">
        <ele>62.741793</ele>
        <time>2021-09-05T15:48:12.000Z</time>
      </trkpt>
      <trkpt lat="48.92824" lon="-1.02234">
        <ele>62.881058</ele>
        <time>2021-09-05T15:48:18.000Z</time>
      </trkpt>
      <trkpt lat="48.92789" lon="-1.02212">
        <ele>63.015189</ele>
        <time>2021-09-05T15:48:23.000Z</time>
      </trkpt>
      <trkpt lat="48.92773" lon="-1.02209">
        <ele>63.072408</ele>
        <time>2021-09-05T15:48:25.000Z</time>
      </trkpt>
      <trkpt lat="48.92756" lon="-1.02212">
        <ele>62.971265</ele>
        <time>2021-09-05T15:48:27.000Z</time>
      </trkpt>
      <trkpt lat="48.92716" lon="-1.02228">
        <ele>62.677682</ele>
        <time>2021-09-05T15:48:32.000Z</time>
      </trkpt>
      <trkpt lat="48.92678" lon="-1.0225">
        <ele>62.387093</ele>
        <time>2021-09-05T15:48:38.000Z</time>
      </trkpt>
      <trkpt lat="48.92653" lon="-1.02264">
        <ele>62.197974</ele>
        <time>2021-09-05T15:48:43.000Z</time>
      </trkpt>
      <trkpt lat="48.92634" lon="-1.02276">
        <ele>62.047845</ele>
        <time>2021-09-05T15:48:49.000Z</time>
      </trkpt>
      <trkpt lat="48.926" lon="-1.02287">
        <ele>61.80544</ele>
        <time>2021-09-05T15:49:00.000Z</time>
      </trkpt>
      <trkpt lat="48.92579" lon="-1.0229">
        <ele>61.830691</ele>
        <time>2021-09-05T15:49:06.000Z</time>
      </trkpt>
      <trkpt lat="48.92575" lon="-1.02291">
        <ele>61.83729</ele>
        <time>2021-09-05T15:49:07.000Z</time>
      </trkpt>
      <trkpt lat="48.92543" lon="-1.02296">
        <ele>61.892248</ele>
        <time>2021-09-05T15:49:15.000Z</time>
      </trkpt>
      <trkpt lat="48.92515" lon="-1.02297">
        <ele>61.94122</ele>
        <time>2021-09-05T15:49:22.000Z</time>
      </trkpt>
      <trkpt lat="48.92507" lon="-1.02295">
        <ele>61.955801</ele>
        <time>2021-09-05T15:49:24.000Z</time>
      </trkpt>
      <trkpt lat="48.92476" lon="-1.02279">
        <ele>62.011275</ele>
        <time>2021-09-05T15:49:31.000Z</time>
      </trkpt>
      <trkpt lat="48.92444" lon="-1.02256">
        <ele>62.072853</ele>
        <time>2021-09-05T15:49:38.000Z</time>
      </trkpt>
      <trkpt lat="48.92402" lon="-1.02227">
        <ele>62.445025</ele>
        <time>2021-09-05T15:49:47.000Z</time>
      </trkpt>
      <trkpt lat="48.92366" lon="-1.02201">
        <ele>62.951018</ele>
        <time>2021-09-05T15:49:55.000Z</time>
      </trkpt>
      <trkpt lat="48.92343" lon="-1.0218">
        <ele>63.287175</ele>
        <time>2021-09-05T15:50:01.000Z</time>
      </trkpt>
      <trkpt lat="48.92321" lon="-1.02155">
        <ele>63.632217</ele>
        <time>2021-09-05T15:50:08.000Z</time>
      </trkpt>
      <trkpt lat="48.92305" lon="-1.02125">
        <ele>63.953289</ele>
        <time>2021-09-05T15:50:15.000Z</time>
      </trkpt>
      <trkpt lat="48.92286" lon="-1.02089">
        <ele>64.341326</ele>
        <time>2021-09-05T15:50:25.000Z</time>
      </trkpt>
      <trkpt lat="48.92271" lon="-1.02062">
        <ele>65.50124</ele>
        <time>2021-09-05T15:50:33.000Z</time>
      </trkpt>
      <trkpt lat="48.92259" lon="-1.02039">
        <ele>66.554544</ele>
        <time>2021-09-05T15:50:40.000Z</time>
      </trkpt>
      <trkpt lat="48.92245" lon="-1.0201">
        <ele>67.876921</ele>
        <time>2021-09-05T15:50:49.000Z</time>
      </trkpt>
      <trkpt lat="48.92232" lon="-1.0198">
        <ele>69.20708</ele>
        <time>2021-09-05T15:50:58.000Z</time>
      </trkpt>
      <trkpt lat="48.9222" lon="-1.01955">
        <ele>70.353449</ele>
        <time>2021-09-05T15:51:06.000Z</time>
      </trkpt>
      <trkpt lat="48.92205" lon="-1.01922">
        <ele>71.818514</ele>
        <time>2021-09-05T15:51:16.000Z</time>
      </trkpt>
      <trkpt lat="48.92193" lon="-1.01894">
        <ele>73.044419</ele>
        <time>2021-09-05T15:51:24.000Z</time>
      </trkpt>
      <trkpt lat="48.92179" lon="-1.01863">
        <ele>74.448573</ele>
        <time>2021-09-05T15:51:33.000Z</time>
      </trkpt>
      <trkpt lat="48.9217" lon="-1.01843">
        <ele>75.64866</ele>
        <time>2021-09-05T15:51:39.000Z</time>
      </trkpt>
      <trkpt lat="48.92161" lon="-1.01824">
        <ele>76.815385</ele>
        <time>2021-09-05T15:51:45.000Z</time>
      </trkpt>
      <trkpt lat="48.92151" lon="-1.01801">
        <ele>78.182671</ele>
        <time>2021-09-05T15:51:52.000Z</time>
      </trkpt>
      <trkpt lat="48.92145" lon="-1.01788">
        <ele>78.97717</ele>
        <time>2021-09-05T15:51:57.000Z</time>
      </trkpt>
      <trkpt lat="48.92138" lon="-1.01774">
        <ele>79.858681</ele>
        <time>2021-09-05T15:52:02.000Z</time>
      </trkpt>
      <trkpt lat="48.92126" lon="-1.01751">
        <ele>81.34995</ele>
        <time>2021-09-05T15:52:09.000Z</time>
      </trkpt>
      <trkpt lat="48.92112" lon="-1.01726">
        <ele>82.946544</ele>
        <time>2021-09-05T15:52:16.000Z</time>
      </trkpt>
      <trkpt lat="48.92099" lon="-1.01702">
        <ele>84.53836</ele>
        <time>2021-09-05T15:52:24.000Z</time>
      </trkpt>
      <trkpt lat="48.92089" lon="-1.01682">
        <ele>85.823778</ele>
        <time>2021-09-05T15:52:31.000Z</time>
      </trkpt>
      <trkpt lat="48.92077" lon="-1.01662">
        <ele>87.116956</ele>
        <time>2021-09-05T15:52:38.000Z</time>
      </trkpt>
      <trkpt lat="48.92062" lon="-1.01638">
        <ele>88.329165</ele>
        <time>2021-09-05T15:52:46.000Z</time>
      </trkpt>
      <trkpt lat="48.92044" lon="-1.01628">
        <ele>88.806711</ele>
        <time>2021-09-05T15:52:53.000Z</time>
      </trkpt>
      <trkpt lat="48.92022" lon="-1.01624">
        <ele>89.38601</ele>
        <time>2021-09-05T15:53:02.000Z</time>
      </trkpt>
      <trkpt lat="48.92002" lon="-1.01632">
        <ele>89.887632</ele>
        <time>2021-09-05T15:53:10.000Z</time>
      </trkpt>
      <trkpt lat="48.91981" lon="-1.01647">
        <ele>90.474327</ele>
        <time>2021-09-05T15:53:18.000Z</time>
      </trkpt>
      <trkpt lat="48.91962" lon="-1.01661">
        <ele>91.01095</ele>
        <time>2021-09-05T15:53:25.000Z</time>
      </trkpt>
      <trkpt lat="48.91947" lon="-1.01668">
        <ele>91.400077</ele>
        <time>2021-09-05T15:53:29.000Z</time>
      </trkpt>
      <trkpt lat="48.91938" lon="-1.01668">
        <ele>91.631667</ele>
        <time>2021-09-05T15:53:31.000Z</time>
      </trkpt>
      <trkpt lat="48.91908" lon="-1.01665">
        <ele>92.38909</ele>
        <time>2021-09-05T15:53:36.000Z</time>
      </trkpt>
      <trkpt lat="48.91869" lon="-1.01662">
        <ele>92.200226</ele>
        <time>2021-09-05T15:53:41.000Z</time>
      </trkpt>
      <trkpt lat="48.91825" lon="-1.01659">
        <ele>91.548075</ele>
        <time>2021-09-05T15:53:46.000Z</time>
      </trkpt>
      <trkpt lat="48.91766" lon="-1.01654">
        <ele>90.693125</ele>
        <time>2021-09-05T15:53:52.000Z</time>
      </trkpt>
      <trkpt lat="48.91756" lon="-1.01653">
        <ele>90.550131</ele>
        <time>2021-09-05T15:53:53.000Z</time>
      </trkpt>
      <trkpt lat="48.91718" lon="-1.0165">
        <ele>89.977334</ele>
        <time>2021-09-05T15:53:57.000Z</time>
      </trkpt>
      <trkpt lat="48.91699" lon="-1.01644">
        <ele>89.433391</ele>
        <time>2021-09-05T15:53:59.000Z</time>
      </trkpt>
      <trkpt lat="48.91683" lon="-1.01632">
        <ele>88.909608</ele>
        <time>2021-09-05T15:54:01.000Z</time>
      </trkpt>
      <trkpt lat="48.91654" lon="-1.01603">
        <ele>87.912079</ele>
        <time>2021-09-05T15:54:05.000Z</time>
      </trkpt>
      <trkpt lat="48.9162" lon="-1.01569">
        <ele>86.774295</ele>
        <time>2021-09-05T15:54:10.000Z</time>
      </trkpt>
      <trkpt lat="48.91574" lon="-1.01522">
        <ele>85.176044</ele>
        <time>2021-09-05T15:54:17.000Z</time>
      </trkpt>
      <trkpt lat="48.91567" lon="-1.01516">
        <ele>84.953689</ele>
        <time>2021-09-05T15:54:18.000Z</time>
      </trkpt>
      <trkpt lat="48.91526" lon="-1.01475">
        <ele>83.321673</ele>
        <time>2021-09-05T15:54:24.000Z</time>
      </trkpt>
      <trkpt lat="48.91485" lon="-1.01447">
        <ele>81.837512</ele>
        <time>2021-09-05T15:54:29.000Z</time>
      </trkpt>
      <trkpt lat="48.91468" lon="-1.01434">
        <ele>81.226192</ele>
        <time>2021-09-05T15:54:31.000Z</time>
      </trkpt>
      <trkpt lat="48.91455" lon="-1.01413">
        <ele>80.585181</ele>
        <time>2021-09-05T15:54:33.000Z</time>
      </trkpt>
      <trkpt lat="48.91438" lon="-1.01362">
        <ele>79.330621</ele>
        <time>2021-09-05T15:54:37.000Z</time>
      </trkpt>
      <trkpt lat="48.91421" lon="-1.01289">
        <ele>77.845613</ele>
        <time>2021-09-05T15:54:43.000Z</time>
      </trkpt>
      <trkpt lat="48.91404" lon="-1.01237">
        <ele>76.756414</ele>
        <time>2021-09-05T15:54:48.000Z</time>
      </trkpt>
      <trkpt lat="48.91379" lon="-1.01188">
        <ele>75.609593</ele>
        <time>2021-09-05T15:54:54.000Z</time>
      </trkpt>
      <trkpt lat="48.91346" lon="-1.01138">
        <ele>74.314653</ele>
        <time>2021-09-05T15:55:02.000Z</time>
      </trkpt>
      <trkpt lat="48.9132" lon="-1.011">
        <ele>73.989887</ele>
        <time>2021-09-05T15:55:10.000Z</time>
      </trkpt>
      <trkpt lat="48.91302" lon="-1.01074">
        <ele>74.193111</ele>
        <time>2021-09-05T15:55:17.000Z</time>
      </trkpt>
      <trkpt lat="48.91289" lon="-1.0105">
        <ele>74.356418</ele>
        <time>2021-09-05T15:55:24.000Z</time>
      </trkpt>
      <trkpt lat="48.91278" lon="-1.01024">
        <ele>74.516101</ele>
        <time>2021-09-05T15:55:32.000Z</time>
      </trkpt>
      <trkpt lat="48.91268" lon="-1.01">
        <ele>74.669187</ele>
        <time>2021-09-05T15:55:40.000Z</time>
      </trkpt>
      <trkpt lat="48.91259" lon="-1.0098">
        <ele>74.794119</ele>
        <time>2021-09-05T15:55:47.000Z</time>
      </trkpt>
      <trkpt lat="48.9125" lon="-1.00957">
        <ele>74.937531</ele>
        <time>2021-09-05T15:55:55.000Z</time>
      </trkpt>
      <trkpt lat="48.9124" lon="-1.00934">
        <ele>75.082698</ele>
        <time>2021-09-05T15:56:03.000Z</time>
      </trkpt>
      <trkpt lat="48.91228" lon="-1.00906">
        <ele>75.259541</ele>
        <time>2021-09-05T15:56:12.000Z</time>
      </trkpt>
      <trkpt lat="48.91217" lon="-1.0088">
        <ele>75.965556</ele>
        <time>2021-09-05T15:56:20.000Z</time>
      </trkpt>
      <trkpt lat="48.91206" lon="-1.00855">
        <ele>76.756858</ele>
        <time>2021-09-05T15:56:28.000Z</time>
      </trkpt>
      <trkpt lat="48.91198" lon="-1.0084">
        <ele>77.274049</ele>
        <time>2021-09-05T15:56:33.000Z</time>
      </trkpt>
      <trkpt lat="48.91181" lon="-1.00812">
        <ele>78.272174</ele>
        <time>2021-09-05T15:56:43.000Z</time>
      </trkpt>
      <trkpt lat="48.91163" lon="-1.00785">
        <ele>79.261519</ele>
        <time>2021-09-05T15:56:53.000Z</time>
      </trkpt>
      <trkpt lat="48.91147" lon="-1.00767">
        <ele>80.028592</ele>
        <time>2021-09-05T15:57:01.000Z</time>
      </trkpt>
      <trkpt lat="48.91129" lon="-1.00746">
        <ele>80.93589</ele>
        <time>2021-09-05T15:57:11.000Z</time>
      </trkpt>
      <trkpt lat="48.9111" lon="-1.00726">
        <ele>81.85611</ele>
        <time>2021-09-05T15:57:21.000Z</time>
      </trkpt>
      <trkpt lat="48.91092" lon="-1.00707">
        <ele>82.764562</ele>
        <time>2021-09-05T15:57:30.000Z</time>
      </trkpt>
      <trkpt lat="48.91075" lon="-1.00689">
        <ele>83.719599</ele>
        <time>2021-09-05T15:57:38.000Z</time>
      </trkpt>
      <trkpt lat="48.91054" lon="-1.00667">
        <ele>84.891169</ele>
        <time>2021-09-05T15:57:48.000Z</time>
      </trkpt>
      <trkpt lat="48.91035" lon="-1.00648">
        <ele>85.906724</ele>
        <time>2021-09-05T15:57:57.000Z</time>
      </trkpt>
      <trkpt lat="48.9102" lon="-1.00635">
        <ele>86.73773</ele>
        <time>2021-09-05T15:58:04.000Z</time>
      </trkpt>
      <trkpt lat="48.91007" lon="-1.00623">
        <ele>87.421728</ele>
        <time>2021-09-05T15:58:10.000Z</time>
      </trkpt>
      <trkpt lat="48.90988" lon="-1.00607">
        <ele>88.401258</ele>
        <time>2021-09-05T15:58:19.000Z</time>
      </trkpt>
      <trkpt lat="48.9097" lon="-1.00589">
        <ele>89.38012</ele>
        <time>2021-09-05T15:58:28.000Z</time>
      </trkpt>
      <trkpt lat="48.90952" lon="-1.00571">
        <ele>90.38251</ele>
        <time>2021-09-05T15:58:37.000Z</time>
      </trkpt>
      <trkpt lat="48.90931" lon="-1.00551">
        <ele>91.196313</ele>
        <time>2021-09-05T15:58:47.000Z</time>
      </trkpt>
      <trkpt lat="48.90915" lon="-1.00535">
        <ele>91.768926</ele>
        <time>2021-09-05T15:58:55.000Z</time>
      </trkpt>
      <trkpt lat="48.90898" lon="-1.00519">
        <ele>92.37956</ele>
        <time>2021-09-05T15:59:03.000Z</time>
      </trkpt>
      <trkpt lat="48.90881" lon="-1.00505">
        <ele>92.937962</ele>
        <time>2021-09-05T15:59:10.000Z</time>
      </trkpt>
      <trkpt lat="48.90864" lon="-1.0049">
        <ele>93.530056</ele>
        <time>2021-09-05T15:59:16.000Z</time>
      </trkpt>
      <trkpt lat="48.90846" lon="-1.00475">
        <ele>94.136396</ele>
        <time>2021-09-05T15:59:21.000Z</time>
      </trkpt>
      <trkpt lat="48.90843" lon="-1.00472">
        <ele>94.263363</ele>
        <time>2021-09-05T15:59:22.000Z</time>
      </trkpt>
      <trkpt lat="48.90816" lon="-1.00444">
        <ele>95.225243</ele>
        <time>2021-09-05T15:59:29.000Z</time>
      </trkpt>
      <trkpt lat="48.908" lon="-1.00428">
        <ele>95.787151</ele>
        <time>2021-09-05T15:59:33.000Z</time>
      </trkpt>
      <trkpt lat="48.90793" lon="-1.0042">
        <ele>96.008973</ele>
        <time>2021-09-05T15:59:35.000Z</time>
      </trkpt>
      <trkpt lat="48.90757" lon="-1.00376">
        <ele>96.313207</ele>
        <time>2021-09-05T15:59:44.000Z</time>
      </trkpt>
      <trkpt lat="48.90723" lon="-1.00331">
        <ele>96.61536</ele>
        <time>2021-09-05T15:59:53.000Z</time>
      </trkpt>
      <trkpt lat="48.90692" lon="-1.00291">
        <ele>96.886262</ele>
        <time>2021-09-05T16:00:02.000Z</time>
      </trkpt>
      <trkpt lat="48.90677" lon="-1.00274">
        <ele>97.012211</ele>
        <time>2021-09-05T16:00:06.000Z</time>
      </trkpt>
      <trkpt lat="48.90663" lon="-1.00259">
        <ele>97.125193</ele>
        <time>2021-09-05T16:00:09.000Z</time>
      </trkpt>
      <trkpt lat="48.90627" lon="-1.00226">
        <ele>96.747448</ele>
        <time>2021-09-05T16:00:15.000Z</time>
      </trkpt>
      <trkpt lat="48.9058" lon="-1.00195">
        <ele>96.039467</ele>
        <time>2021-09-05T16:00:21.000Z</time>
      </trkpt>
      <trkpt lat="48.90527" lon="-1.00168">
        <ele>95.26349</ele>
        <time>2021-09-05T16:00:27.000Z</time>
      </trkpt>
      <trkpt lat="48.90518" lon="-1.00162">
        <ele>95.127956</ele>
        <time>2021-09-05T16:00:28.000Z</time>
      </trkpt>
      <trkpt lat="48.90465" lon="-1.00125">
        <ele>94.241467</ele>
        <time>2021-09-05T16:00:34.000Z</time>
      </trkpt>
      <trkpt lat="48.90423" lon="-1.00078">
        <ele>93.357606</ele>
        <time>2021-09-05T16:00:40.000Z</time>
      </trkpt>
      <trkpt lat="48.90383" lon="-1.00031">
        <ele>92.500796</ele>
        <time>2021-09-05T16:00:47.000Z</time>
      </trkpt>
      <trkpt lat="48.90349" lon="-0.99998">
        <ele>91.814519</ele>
        <time>2021-09-05T16:00:54.000Z</time>
      </trkpt>
      <trkpt lat="48.90323" lon="-0.99974">
        <ele>91.473702</ele>
        <time>2021-09-05T16:01:00.000Z</time>
      </trkpt>
      <trkpt lat="48.90319" lon="-0.99971">
        <ele>91.432878</ele>
        <time>2021-09-05T16:01:01.000Z</time>
      </trkpt>
      <trkpt lat="48.90287" lon="-0.99943">
        <ele>91.105087</ele>
        <time>2021-09-05T16:01:09.000Z</time>
      </trkpt>
      <trkpt lat="48.90254" lon="-0.99915">
        <ele>90.778493</ele>
        <time>2021-09-05T16:01:17.000Z</time>
      </trkpt>
      <trkpt lat="48.90217" lon="-0.99884">
        <ele>90.406541</ele>
        <time>2021-09-05T16:01:26.000Z</time>
      </trkpt>
      <trkpt lat="48.90183" lon="-0.99844">
        <ele>89.999124</ele>
        <time>2021-09-05T16:01:35.000Z</time>
      </trkpt>
      <trkpt lat="48.90179" lon="-0.9984">
        <ele>89.92481</ele>
        <time>2021-09-05T16:01:36.000Z</time>
      </trkpt>
      <trkpt lat="48.90157" lon="-0.99804">
        <ele>89.435097</ele>
        <time>2021-09-05T16:01:42.000Z</time>
      </trkpt>
      <trkpt lat="48.90137" lon="-0.99767">
        <ele>88.953944</ele>
        <time>2021-09-05T16:01:47.000Z</time>
      </trkpt>
      <trkpt lat="48.90133" lon="-0.99758">
        <ele>88.847194</ele>
        <time>2021-09-05T16:01:48.000Z</time>
      </trkpt>
      <trkpt lat="48.90107" lon="-0.99696">
        <ele>88.115753</ele>
        <time>2021-09-05T16:01:54.000Z</time>
      </trkpt>
      <trkpt lat="48.90078" lon="-0.99642">
        <ele>87.416354</ele>
        <time>2021-09-05T16:01:59.000Z</time>
      </trkpt>
      <trkpt lat="48.90043" lon="-0.99595">
        <ele>86.772601</ele>
        <time>2021-09-05T16:02:05.000Z</time>
      </trkpt>
      <trkpt lat="48.89998" lon="-0.99543">
        <ele>86.012165</ele>
        <time>2021-09-05T16:02:11.000Z</time>
      </trkpt>
      <trkpt lat="48.89969" lon="-0.9951">
        <ele>85.524691</ele>
        <time>2021-09-05T16:02:17.000Z</time>
      </trkpt>
      <trkpt lat="48.89948" lon="-0.99484">
        <ele>85.162606</ele>
        <time>2021-09-05T16:02:23.000Z</time>
      </trkpt>
      <trkpt lat="48.89931" lon="-0.99463">
        <ele>84.945838</ele>
        <time>2021-09-05T16:02:29.000Z</time>
      </trkpt>
      <trkpt lat="48.89901" lon="-0.99425">
        <ele>85.237859</ele>
        <time>2021-09-05T16:02:40.000Z</time>
      </trkpt>
      <trkpt lat="48.89874" lon="-0.99391">
        <ele>85.492683</ele>
        <time>2021-09-05T16:02:50.000Z</time>
      </trkpt>
      <trkpt lat="48.8985" lon="-0.99362">
        <ele>85.717617</ele>
        <time>2021-09-05T16:02:59.000Z</time>
      </trkpt>
      <trkpt lat="48.89822" lon="-0.99326">
        <ele>85.985613</ele>
        <time>2021-09-05T16:03:10.000Z</time>
      </trkpt>
      <trkpt lat="48.89799" lon="-0.99297">
        <ele>86.207923</ele>
        <time>2021-09-05T16:03:19.000Z</time>
      </trkpt>
      <trkpt lat="48.89775" lon="-0.99265">
        <ele>87.014067</ele>
        <time>2021-09-05T16:03:28.000Z</time>
      </trkpt>
      <trkpt lat="48.89754" lon="-0.99236">
        <ele>87.819405</ele>
        <time>2021-09-05T16:03:36.000Z</time>
      </trkpt>
      <trkpt lat="48.89737" lon="-0.9921">
        <ele>88.501423</ele>
        <time>2021-09-05T16:03:43.000Z</time>
      </trkpt>
      <trkpt lat="48.89722" lon="-0.99182">
        <ele>89.182615</ele>
        <time>2021-09-05T16:03:50.000Z</time>
      </trkpt>
      <trkpt lat="48.8971" lon="-0.99156">
        <ele>89.761943</ele>
        <time>2021-09-05T16:03:56.000Z</time>
      </trkpt>
      <trkpt lat="48.89706" lon="-0.99147">
        <ele>89.959781</ele>
        <time>2021-09-05T16:03:58.000Z</time>
      </trkpt>
      <trkpt lat="48.89696" lon="-0.99123">
        <ele>90.501706</ele>
        <time>2021-09-05T16:04:04.000Z</time>
      </trkpt>
      <trkpt lat="48.89684" lon="-0.99097">
        <ele>91.096667</ele>
        <time>2021-09-05T16:04:11.000Z</time>
      </trkpt>
      <trkpt lat="48.8967" lon="-0.99067">
        <ele>92.045944</ele>
        <time>2021-09-05T16:04:20.000Z</time>
      </trkpt>
      <trkpt lat="48.89656" lon="-0.9904">
        <ele>93.077769</ele>
        <time>2021-09-05T16:04:28.000Z</time>
      </trkpt>
      <trkpt lat="48.89639" lon="-0.99015">
        <ele>94.151851</ele>
        <time>2021-09-05T16:04:37.000Z</time>
      </trkpt>
      <trkpt lat="48.89623" lon="-0.98991">
        <ele>95.203503</ele>
        <time>2021-09-05T16:04:46.000Z</time>
      </trkpt>
      <trkpt lat="48.89611" lon="-0.98974">
        <ele>95.928837</ele>
        <time>2021-09-05T16:04:52.000Z</time>
      </trkpt>
      <trkpt lat="48.89598" lon="-0.98958">
        <ele>96.715673</ele>
        <time>2021-09-05T16:04:59.000Z</time>
      </trkpt>
      <trkpt lat="48.89582" lon="-0.98938">
        <ele>97.65549</ele>
        <time>2021-09-05T16:05:07.000Z</time>
      </trkpt>
      <trkpt lat="48.89569" lon="-0.98921">
        <ele>98.458403</ele>
        <time>2021-09-05T16:05:14.000Z</time>
      </trkpt>
      <trkpt lat="48.89553" lon="-0.98902">
        <ele>99.374495</ele>
        <time>2021-09-05T16:05:22.000Z</time>
      </trkpt>
      <trkpt lat="48.89538" lon="-0.98884">
        <ele>100.048058</ele>
        <time>2021-09-05T16:05:30.000Z</time>
      </trkpt>
      <trkpt lat="48.89524" lon="-0.98866">
        <ele>100.658988</ele>
        <time>2021-09-05T16:05:37.000Z</time>
      </trkpt>
      <trkpt lat="48.89508" lon="-0.98843">
        <ele>101.366416</ele>
        <time>2021-09-05T16:05:45.000Z</time>
      </trkpt>
      <trkpt lat="48.89494" lon="-0.98811">
        <ele>102.206967</ele>
        <time>2021-09-05T16:05:54.000Z</time>
      </trkpt>
      <trkpt lat="48.89478" lon="-0.9877">
        <ele>103.229391</ele>
        <time>2021-09-05T16:06:04.000Z</time>
      </trkpt>
      <trkpt lat="48.89459" lon="-0.98725">
        <ele>104.363872</ele>
        <time>2021-09-05T16:06:14.000Z</time>
      </trkpt>
      <trkpt lat="48.89441" lon="-0.9869">
        <ele>105.323848</ele>
        <time>2021-09-05T16:06:22.000Z</time>
      </trkpt>
      <trkpt lat="48.89419" lon="-0.98655">
        <ele>106.041932</ele>
        <time>2021-09-05T16:06:31.000Z</time>
      </trkpt>
      <trkpt lat="48.89403" lon="-0.98632">
        <ele>106.502014</ele>
        <time>2021-09-05T16:06:38.000Z</time>
      </trkpt>
      <trkpt lat="48.8938" lon="-0.98593">
        <ele>107.211068</ele>
        <time>2021-09-05T16:06:48.000Z</time>
      </trkpt>
      <trkpt lat="48.89363" lon="-0.98561">
        <ele>107.776087</ele>
        <time>2021-09-05T16:06:56.000Z</time>
      </trkpt>
      <trkpt lat="48.89347" lon="-0.98533">
        <ele>108.291488</ele>
        <time>2021-09-05T16:07:03.000Z</time>
      </trkpt>
      <trkpt lat="48.8932" lon="-0.98517">
        <ele>108.885386</ele>
        <time>2021-09-05T16:07:11.000Z</time>
      </trkpt>
      <trkpt lat="48.89293" lon="-0.98507">
        <ele>109.208732</ele>
        <time>2021-09-05T16:07:18.000Z</time>
      </trkpt>
      <trkpt lat="48.89275" lon="-0.98501">
        <ele>109.204306</ele>
        <time>2021-09-05T16:07:22.000Z</time>
      </trkpt>
      <trkpt lat="48.89265" lon="-0.98499">
        <ele>109.201996</ele>
        <time>2021-09-05T16:07:24.000Z</time>
      </trkpt>
      <trkpt lat="48.89249" lon="-0.98497">
        <ele>109.198178</ele>
        <time>2021-09-05T16:07:27.000Z</time>
      </trkpt>
      <trkpt lat="48.89238" lon="-0.98495">
        <ele>109.195499</ele>
        <time>2021-09-05T16:07:29.000Z</time>
      </trkpt>
      <trkpt lat="48.89214" lon="-0.98489">
        <ele>109.189737</ele>
        <time>2021-09-05T16:07:33.000Z</time>
      </trkpt>
      <trkpt lat="48.89208" lon="-0.98486">
        <ele>109.188282</ele>
        <time>2021-09-05T16:07:34.000Z</time>
      </trkpt>
      <trkpt lat="48.89196" lon="-0.98478">
        <ele>109.185149</ele>
        <time>2021-09-05T16:07:36.000Z</time>
      </trkpt>
      <trkpt lat="48.89177" lon="-0.98462">
        <ele>109.180108</ele>
        <time>2021-09-05T16:07:39.000Z</time>
      </trkpt>
      <trkpt lat="48.89143" lon="-0.9843">
        <ele>109.170674</ele>
        <time>2021-09-05T16:07:44.000Z</time>
      </trkpt>
      <trkpt lat="48.89091" lon="-0.98383">
        <ele>108.058318</ele>
        <time>2021-09-05T16:07:51.000Z</time>
      </trkpt>
      <trkpt lat="48.89083" lon="-0.98376">
        <ele>107.87143</ele>
        <time>2021-09-05T16:07:52.000Z</time>
      </trkpt>
      <trkpt lat="48.89032" lon="-0.98332">
        <ele>106.683868</ele>
        <time>2021-09-05T16:07:58.000Z</time>
      </trkpt>
      <trkpt lat="48.89023" lon="-0.98325">
        <ele>106.478881</ele>
        <time>2021-09-05T16:07:59.000Z</time>
      </trkpt>
      <trkpt lat="48.88967" lon="-0.98281">
        <ele>105.139366</ele>
        <time>2021-09-05T16:08:05.000Z</time>
      </trkpt>
      <trkpt lat="48.88957" lon="-0.98274">
        <ele>104.873578</ele>
        <time>2021-09-05T16:08:06.000Z</time>
      </trkpt>
      <trkpt lat="48.88909" lon="-0.98239">
        <ele>103.554978</ele>
        <time>2021-09-05T16:08:11.000Z</time>
      </trkpt>
      <trkpt lat="48.88856" lon="-0.98202">
        <ele>102.102905</ele>
        <time>2021-09-05T16:08:17.000Z</time>
      </trkpt>
      <trkpt lat="48.8882" lon="-0.98172">
        <ele>101.090701</ele>
        <time>2021-09-05T16:08:22.000Z</time>
      </trkpt>
      <trkpt lat="48.88792" lon="-0.98149">
        <ele>100.500942</ele>
        <time>2021-09-05T16:08:27.000Z</time>
      </trkpt>
      <trkpt lat="48.88769" lon="-0.9813">
        <ele>100.043117</ele>
        <time>2021-09-05T16:08:32.000Z</time>
      </trkpt>
      <trkpt lat="48.88754" lon="-0.98105">
        <ele>99.628099</ele>
        <time>2021-09-05T16:08:38.000Z</time>
      </trkpt>
      <trkpt lat="48.88736" lon="-0.98073">
        <ele>99.130233</ele>
        <time>2021-09-05T16:08:46.000Z</time>
      </trkpt>
      <trkpt lat="48.8872" lon="-0.98046">
        <ele>98.698694</ele>
        <time>2021-09-05T16:08:54.000Z</time>
      </trkpt>
      <trkpt lat="48.88705" lon="-0.98021">
        <ele>98.295999</ele>
        <time>2021-09-05T16:09:01.000Z</time>
      </trkpt>
      <trkpt lat="48.88683" lon="-0.97982">
        <ele>97.854868</ele>
        <time>2021-09-05T16:09:11.000Z</time>
      </trkpt>
      <trkpt lat="48.88673" lon="-0.9795">
        <ele>97.979212</ele>
        <time>2021-09-05T16:09:18.000Z</time>
      </trkpt>
      <trkpt lat="48.88661" lon="-0.97913">
        <ele>98.123652</ele>
        <time>2021-09-05T16:09:26.000Z</time>
      </trkpt>
      <trkpt lat="48.88647" lon="-0.9787">
        <ele>98.290625</ele>
        <time>2021-09-05T16:09:35.000Z</time>
      </trkpt>
      <trkpt lat="48.88632" lon="-0.97829">
        <ele>98.458931</ele>
        <time>2021-09-05T16:09:44.000Z</time>
      </trkpt>
      <trkpt lat="48.8861" lon="-0.97774">
        <ele>98.682885</ele>
        <time>2021-09-05T16:09:55.000Z</time>
      </trkpt>
      <trkpt lat="48.88592" lon="-0.9773">
        <ele>98.980124</ele>
        <time>2021-09-05T16:10:04.000Z</time>
      </trkpt>
      <trkpt lat="48.88576" lon="-0.97675">
        <ele>99.460934</ele>
        <time>2021-09-05T16:10:14.000Z</time>
      </trkpt>
      <trkpt lat="48.88563" lon="-0.97616">
        <ele>99.960442</ele>
        <time>2021-09-05T16:10:24.000Z</time>
      </trkpt>
      <trkpt lat="48.88549" lon="-0.97555">
        <ele>100.477483</ele>
        <time>2021-09-05T16:10:34.000Z</time>
      </trkpt>
      <trkpt lat="48.88538" lon="-0.97509">
        <ele>100.874514</ele>
        <time>2021-09-05T16:10:42.000Z</time>
      </trkpt>
      <trkpt lat="48.8852" lon="-0.97448">
        <ele>101.660517</ele>
        <time>2021-09-05T16:10:53.000Z</time>
      </trkpt>
      <trkpt lat="48.88501" lon="-0.97412">
        <ele>102.2384</ele>
        <time>2021-09-05T16:11:01.000Z</time>
      </trkpt>
      <trkpt lat="48.88479" lon="-0.9738">
        <ele>102.814527</ele>
        <time>2021-09-05T16:11:09.000Z</time>
      </trkpt>
      <trkpt lat="48.88454" lon="-0.97357">
        <ele>103.385317</ele>
        <time>2021-09-05T16:11:17.000Z</time>
      </trkpt>
      <trkpt lat="48.88422" lon="-0.97339">
        <ele>104.026312</ele>
        <time>2021-09-05T16:11:26.000Z</time>
      </trkpt>
      <trkpt lat="48.88393" lon="-0.97321">
        <ele>104.678253</ele>
        <time>2021-09-05T16:11:34.000Z</time>
      </trkpt>
      <trkpt lat="48.88367" lon="-0.97297">
        <ele>105.361621</ele>
        <time>2021-09-05T16:11:42.000Z</time>
      </trkpt>
      <trkpt lat="48.88344" lon="-0.97267">
        <ele>106.050302</ele>
        <time>2021-09-05T16:11:50.000Z</time>
      </trkpt>
      <trkpt lat="48.88337" lon="-0.97252">
        <ele>106.32566</ele>
        <time>2021-09-05T16:11:53.000Z</time>
      </trkpt>
      <trkpt lat="48.88328" lon="-0.97231">
        <ele>106.702374</ele>
        <time>2021-09-05T16:11:57.000Z</time>
      </trkpt>
      <trkpt lat="48.8831" lon="-0.97192">
        <ele>107.411995</ele>
        <time>2021-09-05T16:12:05.000Z</time>
      </trkpt>
      <trkpt lat="48.88291" lon="-0.97157">
        <ele>108.085884</ele>
        <time>2021-09-05T16:12:13.000Z</time>
      </trkpt>
      <trkpt lat="48.88272" lon="-0.97124">
        <ele>108.795924</ele>
        <time>2021-09-05T16:12:21.000Z</time>
      </trkpt>
      <trkpt lat="48.8825" lon="-0.97088">
        <ele>109.681664</ele>
        <time>2021-09-05T16:12:30.000Z</time>
      </trkpt>
      <trkpt lat="48.88231" lon="-0.97063">
        <ele>110.362474</ele>
        <time>2021-09-05T16:12:37.000Z</time>
      </trkpt>
      <trkpt lat="48.88216" lon="-0.97044">
        <ele>110.915733</ele>
        <time>2021-09-05T16:12:43.000Z</time>
      </trkpt>
      <trkpt lat="48.88187" lon="-0.97014">
        <ele>111.875981</ele>
        <time>2021-09-05T16:12:53.000Z</time>
      </trkpt>
      <trkpt lat="48.88163" lon="-0.96989">
        <ele>112.674826</ele>
        <time>2021-09-05T16:13:01.000Z</time>
      </trkpt>
      <trkpt lat="48.88129" lon="-0.96954">
        <ele>113.746063</ele>
        <time>2021-09-05T16:13:12.000Z</time>
      </trkpt>
      <trkpt lat="48.88106" lon="-0.96929">
        <ele>114.432599</ele>
        <time>2021-09-05T16:13:20.000Z</time>
      </trkpt>
      <trkpt lat="48.88079" lon="-0.96901">
        <ele>115.220924</ele>
        <time>2021-09-05T16:13:29.000Z</time>
      </trkpt>
      <trkpt lat="48.88062" lon="-0.96883">
        <ele>115.735144</ele>
        <time>2021-09-05T16:13:35.000Z</time>
      </trkpt>
      <trkpt lat="48.88026" lon="-0.96845">
        <ele>116.786853</ele>
        <time>2021-09-05T16:13:46.000Z</time>
      </trkpt>
      <trkpt lat="48.87996" lon="-0.96814">
        <ele>117.679699</ele>
        <time>2021-09-05T16:13:55.000Z</time>
      </trkpt>
      <trkpt lat="48.87962" lon="-0.96779">
        <ele>118.380513</ele>
        <time>2021-09-05T16:14:05.000Z</time>
      </trkpt>
      <trkpt lat="48.87928" lon="-0.96746">
        <ele>119.028384</ele>
        <time>2021-09-05T16:14:15.000Z</time>
      </trkpt>
      <trkpt lat="48.87896" lon="-0.96714">
        <ele>119.647123</ele>
        <time>2021-09-05T16:14:24.000Z</time>
      </trkpt>
      <trkpt lat="48.87864" lon="-0.96676">
        <ele>120.298022</ele>
        <time>2021-09-05T16:14:33.000Z</time>
      </trkpt>
      <trkpt lat="48.87838" lon="-0.9664">
        <ele>120.700056</ele>
        <time>2021-09-05T16:14:40.000Z</time>
      </trkpt>
      <trkpt lat="48.87809" lon="-0.96594">
        <ele>120.693968</ele>
        <time>2021-09-05T16:14:47.000Z</time>
      </trkpt>
      <trkpt lat="48.8779" lon="-0.96568">
        <ele>120.690216</ele>
        <time>2021-09-05T16:14:51.000Z</time>
      </trkpt>
      <trkpt lat="48.8778" lon="-0.96553">
        <ele>120.688238</ele>
        <time>2021-09-05T16:14:53.000Z</time>
      </trkpt>
      <trkpt lat="48.87743" lon="-0.96506">
        <ele>120.681295</ele>
        <time>2021-09-05T16:15:00.000Z</time>
      </trkpt>
      <trkpt lat="48.87707" lon="-0.96466">
        <ele>120.765967</ele>
        <time>2021-09-05T16:15:07.000Z</time>
      </trkpt>
      <trkpt lat="48.87678" lon="-0.96435">
        <ele>121.418562</ele>
        <time>2021-09-05T16:15:14.000Z</time>
      </trkpt>
      <trkpt lat="48.87652" lon="-0.96406">
        <ele>121.998175</ele>
        <time>2021-09-05T16:15:22.000Z</time>
      </trkpt>
      <trkpt lat="48.87636" lon="-0.96389">
        <ele>122.36733</ele>
        <time>2021-09-05T16:15:29.000Z</time>
      </trkpt>
      <trkpt lat="48.87622" lon="-0.96378">
        <ele>122.655431</ele>
        <time>2021-09-05T16:15:36.000Z</time>
      </trkpt>
      <trkpt lat="48.87604" lon="-0.96362">
        <ele>123.03791</ele>
        <time>2021-09-05T16:15:46.000Z</time>
      </trkpt>
      <trkpt lat="48.87589" lon="-0.9635">
        <ele>123.340156</ele>
        <time>2021-09-05T16:15:54.000Z</time>
      </trkpt>
      <trkpt lat="48.87573" lon="-0.9633">
        <ele>123.717746</ele>
        <time>2021-09-05T16:16:04.000Z</time>
      </trkpt>
      <trkpt lat="48.87559" lon="-0.96308">
        <ele>124.361724</ele>
        <time>2021-09-05T16:16:14.000Z</time>
      </trkpt>
      <trkpt lat="48.8755" lon="-0.96293">
        <ele>125.20627</ele>
        <time>2021-09-05T16:16:21.000Z</time>
      </trkpt>
      <trkpt lat="48.87537" lon="-0.96273">
        <ele>126.35059</ele>
        <time>2021-09-05T16:16:30.000Z</time>
      </trkpt>
      <trkpt lat="48.87525" lon="-0.96255">
        <ele>127.356568</ele>
        <time>2021-09-05T16:16:38.000Z</time>
      </trkpt>
      <trkpt lat="48.87513" lon="-0.96236">
        <ele>128.438918</ele>
        <time>2021-09-05T16:16:47.000Z</time>
      </trkpt>
      <trkpt lat="48.87503" lon="-0.96221">
        <ele>129.286365</ele>
        <time>2021-09-05T16:16:54.000Z</time>
      </trkpt>
      <trkpt lat="48.87492" lon="-0.96203">
        <ele>130.280807</ele>
        <time>2021-09-05T16:17:02.000Z</time>
      </trkpt>
      <trkpt lat="48.8748" lon="-0.96186">
        <ele>131.289682</ele>
        <time>2021-09-05T16:17:10.000Z</time>
      </trkpt>
      <trkpt lat="48.87465" lon="-0.96162">
        <ele>132.630038</ele>
        <time>2021-09-05T16:17:21.000Z</time>
      </trkpt>
      <trkpt lat="48.87452" lon="-0.96146">
        <ele>133.687209</ele>
        <time>2021-09-05T16:17:29.000Z</time>
      </trkpt>
      <trkpt lat="48.87443" lon="-0.96135">
        <ele>134.397932</ele>
        <time>2021-09-05T16:17:35.000Z</time>
      </trkpt>
      <trkpt lat="48.87432" lon="-0.96124">
        <ele>135.184175</ele>
        <time>2021-09-05T16:17:42.000Z</time>
      </trkpt>
      <trkpt lat="48.87422" lon="-0.96116">
        <ele>136.025758</ele>
        <time>2021-09-05T16:17:48.000Z</time>
      </trkpt>
      <trkpt lat="48.8741" lon="-0.96104">
        <ele>137.043672</ele>
        <time>2021-09-05T16:17:55.000Z</time>
      </trkpt>
      <trkpt lat="48.87396" lon="-0.96091">
        <ele>138.231321</ele>
        <time>2021-09-05T16:18:03.000Z</time>
      </trkpt>
      <trkpt lat="48.87382" lon="-0.96078">
        <ele>139.376238</ele>
        <time>2021-09-05T16:18:11.000Z</time>
      </trkpt>
      <trkpt lat="48.87372" lon="-0.96068">
        <ele>140.258704</ele>
        <time>2021-09-05T16:18:17.000Z</time>
      </trkpt>
      <trkpt lat="48.87357" lon="-0.96052">
        <ele>141.547669</ele>
        <time>2021-09-05T16:18:25.000Z</time>
      </trkpt>
      <trkpt lat="48.87347" lon="-0.96029">
        <ele>142.874297</ele>
        <time>2021-09-05T16:18:34.000Z</time>
      </trkpt>
      <trkpt lat="48.87336" lon="-0.96005">
        <ele>144.232334</ele>
        <time>2021-09-05T16:18:43.000Z</time>
      </trkpt>
      <trkpt lat="48.87331" lon="-0.95982">
        <ele>145.369423</ele>
        <time>2021-09-05T16:18:51.000Z</time>
      </trkpt>
      <trkpt lat="48.87325" lon="-0.95955">
        <ele>146.680078</ele>
        <time>2021-09-05T16:19:00.000Z</time>
      </trkpt>
      <trkpt lat="48.87324" lon="-0.95931">
        <ele>147.85145</ele>
        <time>2021-09-05T16:19:08.000Z</time>
      </trkpt>
      <trkpt lat="48.87324" lon="-0.95899">
        <ele>148.371721</ele>
        <time>2021-09-05T16:19:17.000Z</time>
      </trkpt>
      <trkpt lat="48.87323" lon="-0.95873">
        <ele>148.789896</ele>
        <time>2021-09-05T16:19:24.000Z</time>
      </trkpt>
      <trkpt lat="48.87323" lon="-0.95831">
        <ele>149.451947</ele>
        <time>2021-09-05T16:19:33.000Z</time>
      </trkpt>
      <trkpt lat="48.87319" lon="-0.95797">
        <ele>150.00011</ele>
        <time>2021-09-05T16:19:39.000Z</time>
      </trkpt>
      <trkpt lat="48.87309" lon="-0.95758">
        <ele>150.675604</ele>
        <time>2021-09-05T16:19:45.000Z</time>
      </trkpt>
      <trkpt lat="48.87291" lon="-0.95702">
        <ele>151.655647</ele>
        <time>2021-09-05T16:19:52.000Z</time>
      </trkpt>
      <trkpt lat="48.87278" lon="-0.95659">
        <ele>152.267095</ele>
        <time>2021-09-05T16:19:57.000Z</time>
      </trkpt>
      <trkpt lat="48.87272" lon="-0.95634">
        <ele>152.368055</ele>
        <time>2021-09-05T16:20:00.000Z</time>
      </trkpt>
      <trkpt lat="48.87256" lon="-0.95573">
        <ele>152.616101</ele>
        <time>2021-09-05T16:20:08.000Z</time>
      </trkpt>
      <trkpt lat="48.87239" lon="-0.95493">
        <ele>152.931397</ele>
        <time>2021-09-05T16:20:18.000Z</time>
      </trkpt>
      <trkpt lat="48.87217" lon="-0.95412">
        <ele>153.261284</ele>
        <time>2021-09-05T16:20:28.000Z</time>
      </trkpt>
      <trkpt lat="48.87193" lon="-0.95332">
        <ele>153.570481</ele>
        <time>2021-09-05T16:20:38.000Z</time>
      </trkpt>
      <trkpt lat="48.8719" lon="-0.95324">
        <ele>153.602129</ele>
        <time>2021-09-05T16:20:39.000Z</time>
      </trkpt>
      <trkpt lat="48.87171" lon="-0.95257">
        <ele>153.857613</ele>
        <time>2021-09-05T16:20:47.000Z</time>
      </trkpt>
      <trkpt lat="48.8715" lon="-0.9518">
        <ele>154.148944</ele>
        <time>2021-09-05T16:20:56.000Z</time>
      </trkpt>
      <trkpt lat="48.87137" lon="-0.95096">
        <ele>154.314747</ele>
        <time>2021-09-05T16:21:05.000Z</time>
      </trkpt>
      <trkpt lat="48.8713" lon="-0.95019">
        <ele>154.431765</ele>
        <time>2021-09-05T16:21:13.000Z</time>
      </trkpt>
      <trkpt lat="48.87122" lon="-0.94942">
        <ele>154.548226</ele>
        <time>2021-09-05T16:21:21.000Z</time>
      </trkpt>
      <trkpt lat="48.87119" lon="-0.94867">
        <ele>154.65764</ele>
        <time>2021-09-05T16:21:29.000Z</time>
      </trkpt>
      <trkpt lat="48.87119" lon="-0.94803">
        <ele>154.743338</ele>
        <time>2021-09-05T16:21:36.000Z</time>
      </trkpt>
      <trkpt lat="48.87117" lon="-0.94751">
        <ele>154.813944</ele>
        <time>2021-09-05T16:21:42.000Z</time>
      </trkpt>
      <trkpt lat="48.87116" lon="-0.94743">
        <ele>154.825635</ele>
        <time>2021-09-05T16:21:43.000Z</time>
      </trkpt>
      <trkpt lat="48.87114" lon="-0.94734">
        <ele>154.837904</ele>
        <time>2021-09-05T16:21:44.000Z</time>
      </trkpt>
      <trkpt lat="48.87104" lon="-0.94704">
        <ele>154.883766</ele>
        <time>2021-09-05T16:21:48.000Z</time>
      </trkpt>
      <trkpt lat="48.8708" lon="-0.94657">
        <ele>154.963691</ele>
        <time>2021-09-05T16:21:55.000Z</time>
      </trkpt>
      <trkpt lat="48.87045" lon="-0.94587">
        <ele>155.002943</ele>
        <time>2021-09-05T16:22:05.000Z</time>
      </trkpt>
      <trkpt lat="48.8701" lon="-0.94519">
        <ele>155.016914</ele>
        <time>2021-09-05T16:22:15.000Z</time>
      </trkpt>
      <trkpt lat="48.86981" lon="-0.94461">
        <ele>155.028884</ele>
        <time>2021-09-05T16:22:23.000Z</time>
      </trkpt>
      <trkpt lat="48.86947" lon="-0.94393">
        <ele>154.796595</ele>
        <time>2021-09-05T16:22:32.000Z</time>
      </trkpt>
      <trkpt lat="48.8694" lon="-0.94379">
        <ele>154.677456</ele>
        <time>2021-09-05T16:22:34.000Z</time>
      </trkpt>
      <trkpt lat="48.86924" lon="-0.94348">
        <ele>154.431603</ele>
        <time>2021-09-05T16:22:38.000Z</time>
      </trkpt>
      <trkpt lat="48.86904" lon="-0.9431">
        <ele>154.111063</ele>
        <time>2021-09-05T16:22:43.000Z</time>
      </trkpt>
      <trkpt lat="48.86873" lon="-0.9425">
        <ele>153.622427</ele>
        <time>2021-09-05T16:22:50.000Z</time>
      </trkpt>
      <trkpt lat="48.86847" lon="-0.94178">
        <ele>152.966096</ele>
        <time>2021-09-05T16:22:57.000Z</time>
      </trkpt>
      <trkpt lat="48.86822" lon="-0.94106">
        <ele>152.048492</ele>
        <time>2021-09-05T16:23:04.000Z</time>
      </trkpt>
      <trkpt lat="48.86818" lon="-0.94096">
        <ele>151.92146</ele>
        <time>2021-09-05T16:23:05.000Z</time>
      </trkpt>
      <trkpt lat="48.868" lon="-0.94017">
        <ele>150.997433</ele>
        <time>2021-09-05T16:23:12.000Z</time>
      </trkpt>
      <trkpt lat="48.86785" lon="-0.93948">
        <ele>150.168272</ele>
        <time>2021-09-05T16:23:18.000Z</time>
      </trkpt>
      <trkpt lat="48.86762" lon="-0.93897">
        <ele>149.311944</ele>
        <time>2021-09-05T16:23:23.000Z</time>
      </trkpt>
      <trkpt lat="48.86727" lon="-0.93831">
        <ele>148.117686</ele>
        <time>2021-09-05T16:23:30.000Z</time>
      </trkpt>
      <trkpt lat="48.86701" lon="-0.93771">
        <ele>147.103074</ele>
        <time>2021-09-05T16:23:36.000Z</time>
      </trkpt>
      <trkpt lat="48.86683" lon="-0.93703">
        <ele>146.005871</ele>
        <time>2021-09-05T16:23:42.000Z</time>
      </trkpt>
      <trkpt lat="48.86671" lon="-0.93631">
        <ele>144.739503</ele>
        <time>2021-09-05T16:23:48.000Z</time>
      </trkpt>
      <trkpt lat="48.86669" lon="-0.9362">
        <ele>144.533951</ele>
        <time>2021-09-05T16:23:49.000Z</time>
      </trkpt>
      <trkpt lat="48.86655" lon="-0.93574">
        <ele>143.666437</ele>
        <time>2021-09-05T16:23:53.000Z</time>
      </trkpt>
      <trkpt lat="48.8665" lon="-0.93563">
        <ele>143.446944</ele>
        <time>2021-09-05T16:23:54.000Z</time>
      </trkpt>
      <trkpt lat="48.86635" lon="-0.93531">
        <ele>142.76476</ele>
        <time>2021-09-05T16:23:57.000Z</time>
      </trkpt>
      <trkpt lat="48.86628" lon="-0.93523">
        <ele>142.54024</ele>
        <time>2021-09-05T16:23:58.000Z</time>
      </trkpt>
      <trkpt lat="48.86602" lon="-0.93489">
        <ele>141.62107</ele>
        <time>2021-09-05T16:24:02.000Z</time>
      </trkpt>
      <trkpt lat="48.86597" lon="-0.93477">
        <ele>141.391162</ele>
        <time>2021-09-05T16:24:03.000Z</time>
      </trkpt>
      <trkpt lat="48.86593" lon="-0.93466">
        <ele>141.159721</ele>
        <time>2021-09-05T16:24:04.000Z</time>
      </trkpt>
      <trkpt lat="48.8659" lon="-0.93426">
        <ele>140.448033</ele>
        <time>2021-09-05T16:24:07.000Z</time>
      </trkpt>
      <trkpt lat="48.86589" lon="-0.93414">
        <ele>140.223854</ele>
        <time>2021-09-05T16:24:08.000Z</time>
      </trkpt>
      <trkpt lat="48.86592" lon="-0.93377">
        <ele>139.563245</ele>
        <time>2021-09-05T16:24:11.000Z</time>
      </trkpt>
      <trkpt lat="48.86594" lon="-0.93364">
        <ele>139.344133</ele>
        <time>2021-09-05T16:24:12.000Z</time>
      </trkpt>
      <trkpt lat="48.86603" lon="-0.93331">
        <ele>138.699931</ele>
        <time>2021-09-05T16:24:15.000Z</time>
      </trkpt>
      <trkpt lat="48.86633" lon="-0.93254">
        <ele>137.11122</ele>
        <time>2021-09-05T16:24:22.000Z</time>
      </trkpt>
      <trkpt lat="48.86657" lon="-0.93199">
        <ele>135.853797</ele>
        <time>2021-09-05T16:24:27.000Z</time>
      </trkpt>
      <trkpt lat="48.86659" lon="-0.93186">
        <ele>135.592532</ele>
        <time>2021-09-05T16:24:28.000Z</time>
      </trkpt>
      <trkpt lat="48.86661" lon="-0.93172">
        <ele>135.336144</ele>
        <time>2021-09-05T16:24:29.000Z</time>
      </trkpt>
      <trkpt lat="48.86664" lon="-0.93133">
        <ele>134.572716</ele>
        <time>2021-09-05T16:24:32.000Z</time>
      </trkpt>
      <trkpt lat="48.86672" lon="-0.93043">
        <ele>132.823833</ele>
        <time>2021-09-05T16:24:39.000Z</time>
      </trkpt>
      <trkpt lat="48.86679" lon="-0.93007">
        <ele>132.093327</ele>
        <time>2021-09-05T16:24:42.000Z</time>
      </trkpt>
      <trkpt lat="48.86682" lon="-0.92995">
        <ele>131.84596</ele>
        <time>2021-09-05T16:24:43.000Z</time>
      </trkpt>
      <trkpt lat="48.86688" lon="-0.9297">
        <ele>131.27622</ele>
        <time>2021-09-05T16:24:45.000Z</time>
      </trkpt>
      <trkpt lat="48.8669" lon="-0.92942">
        <ele>130.611377</ele>
        <time>2021-09-05T16:24:47.000Z</time>
      </trkpt>
      <trkpt lat="48.86682" lon="-0.92915">
        <ele>129.905546</ele>
        <time>2021-09-05T16:24:49.000Z</time>
      </trkpt>
      <trkpt lat="48.86676" lon="-0.92904">
        <ele>129.560931</ele>
        <time>2021-09-05T16:24:50.000Z</time>
      </trkpt>
      <trkpt lat="48.86665" lon="-0.92878">
        <ele>128.841039</ele>
        <time>2021-09-05T16:24:52.000Z</time>
      </trkpt>
      <trkpt lat="48.86664" lon="-0.92849">
        <ele>128.128498</ele>
        <time>2021-09-05T16:24:54.000Z</time>
      </trkpt>
      <trkpt lat="48.86667" lon="-0.92819">
        <ele>127.412663</ele>
        <time>2021-09-05T16:24:56.000Z</time>
      </trkpt>
      <trkpt lat="48.8667" lon="-0.92789">
        <ele>126.696385</ele>
        <time>2021-09-05T16:24:58.000Z</time>
      </trkpt>
      <trkpt lat="48.86674" lon="-0.92759">
        <ele>125.963473</ele>
        <time>2021-09-05T16:25:00.000Z</time>
      </trkpt>
      <trkpt lat="48.86681" lon="-0.9273">
        <ele>125.218732</ele>
        <time>2021-09-05T16:25:02.000Z</time>
      </trkpt>
      <trkpt lat="48.86688" lon="-0.92702">
        <ele>124.590795</ele>
        <time>2021-09-05T16:25:04.000Z</time>
      </trkpt>
      <trkpt lat="48.86692" lon="-0.92673">
        <ele>123.994069</ele>
        <time>2021-09-05T16:25:06.000Z</time>
      </trkpt>
      <trkpt lat="48.86684" lon="-0.92626">
        <ele>123.028891</ele>
        <time>2021-09-05T16:25:10.000Z</time>
      </trkpt>
      <trkpt lat="48.86674" lon="-0.92584">
        <ele>122.123276</ele>
        <time>2021-09-05T16:25:15.000Z</time>
      </trkpt>
      <trkpt lat="48.86663" lon="-0.92545">
        <ele>121.287503</ele>
        <time>2021-09-05T16:25:21.000Z</time>
      </trkpt>
      <trkpt lat="48.86659" lon="-0.92532">
        <ele>121.011547</ele>
        <time>2021-09-05T16:25:23.000Z</time>
      </trkpt>
      <trkpt lat="48.86652" lon="-0.92504">
        <ele>120.390368</ele>
        <time>2021-09-05T16:25:27.000Z</time>
      </trkpt>
      <trkpt lat="48.86642" lon="-0.92444">
        <ele>119.272635</ele>
        <time>2021-09-05T16:25:34.000Z</time>
      </trkpt>
      <trkpt lat="48.86628" lon="-0.92374">
        <ele>118.211176</ele>
        <time>2021-09-05T16:25:42.000Z</time>
      </trkpt>
      <trkpt lat="48.86616" lon="-0.92344">
        <ele>117.70148</ele>
        <time>2021-09-05T16:25:46.000Z</time>
      </trkpt>
      <trkpt lat="48.86609" lon="-0.92331">
        <ele>117.458423</ele>
        <time>2021-09-05T16:25:48.000Z</time>
      </trkpt>
      <trkpt lat="48.8658" lon="-0.92293">
        <ele>116.613514</ele>
        <time>2021-09-05T16:25:55.000Z</time>
      </trkpt>
      <trkpt lat="48.8655" lon="-0.92255">
        <ele>115.750837</ele>
        <time>2021-09-05T16:26:03.000Z</time>
      </trkpt>
      <trkpt lat="48.86532" lon="-0.92224">
        <ele>115.68855</ele>
        <time>2021-09-05T16:26:10.000Z</time>
      </trkpt>
      <trkpt lat="48.86517" lon="-0.92193">
        <ele>115.781907</ele>
        <time>2021-09-05T16:26:18.000Z</time>
      </trkpt>
      <trkpt lat="48.86503" lon="-0.92158">
        <ele>115.881713</ele>
        <time>2021-09-05T16:26:27.000Z</time>
      </trkpt>
      <trkpt lat="48.86492" lon="-0.9213">
        <ele>115.959662</ele>
        <time>2021-09-05T16:26:34.000Z</time>
      </trkpt>
      <trkpt lat="48.86482" lon="-0.92097">
        <ele>116.048777</ele>
        <time>2021-09-05T16:26:42.000Z</time>
      </trkpt>
      <trkpt lat="48.86476" lon="-0.92066">
        <ele>116.127033</ele>
        <time>2021-09-05T16:26:49.000Z</time>
      </trkpt>
      <trkpt lat="48.86467" lon="-0.92017">
        <ele>116.249804</ele>
        <time>2021-09-05T16:27:00.000Z</time>
      </trkpt>
      <trkpt lat="48.8646" lon="-0.91982">
        <ele>116.677936</ele>
        <time>2021-09-05T16:27:08.000Z</time>
      </trkpt>
      <trkpt lat="48.86451" lon="-0.91944">
        <ele>117.291465</ele>
        <time>2021-09-05T16:27:17.000Z</time>
      </trkpt>
      <trkpt lat="48.86441" lon="-0.91917">
        <ele>117.777422</ele>
        <time>2021-09-05T16:27:24.000Z</time>
      </trkpt>
      <trkpt lat="48.86426" lon="-0.91884">
        <ele>118.397146</ele>
        <time>2021-09-05T16:27:33.000Z</time>
      </trkpt>
      <trkpt lat="48.86409" lon="-0.91852">
        <ele>119.019882</ele>
        <time>2021-09-05T16:27:42.000Z</time>
      </trkpt>
      <trkpt lat="48.86396" lon="-0.91821">
        <ele>119.594737</ele>
        <time>2021-09-05T16:27:50.000Z</time>
      </trkpt>
      <trkpt lat="48.86373" lon="-0.91787">
        <ele>120.326565</ele>
        <time>2021-09-05T16:28:00.000Z</time>
      </trkpt>
      <trkpt lat="48.86352" lon="-0.91758">
        <ele>121.023864</ele>
        <time>2021-09-05T16:28:09.000Z</time>
      </trkpt>
      <trkpt lat="48.86328" lon="-0.91731">
        <ele>121.728884</ele>
        <time>2021-09-05T16:28:18.000Z</time>
      </trkpt>
      <trkpt lat="48.86299" lon="-0.91699">
        <ele>122.61014</ele>
        <time>2021-09-05T16:28:29.000Z</time>
      </trkpt>
      <trkpt lat="48.86266" lon="-0.91662">
        <ele>123.591995</ele>
        <time>2021-09-05T16:28:40.000Z</time>
      </trkpt>
      <trkpt lat="48.86239" lon="-0.91633">
        <ele>124.371727</ele>
        <time>2021-09-05T16:28:48.000Z</time>
      </trkpt>
      <trkpt lat="48.86212" lon="-0.91606">
        <ele>124.810156</ele>
        <time>2021-09-05T16:28:56.000Z</time>
      </trkpt>
      <trkpt lat="48.86184" lon="-0.91585">
        <ele>124.831855</ele>
        <time>2021-09-05T16:29:03.000Z</time>
      </trkpt>
      <trkpt lat="48.86155" lon="-0.91563">
        <ele>124.854646</ele>
        <time>2021-09-05T16:29:09.000Z</time>
      </trkpt>
      <trkpt lat="48.86116" lon="-0.91535">
        <ele>124.884349</ele>
        <time>2021-09-05T16:29:15.000Z</time>
      </trkpt>
      <trkpt lat="48.86081" lon="-0.91501">
        <ele>124.913464</ele>
        <time>2021-09-05T16:29:20.000Z</time>
      </trkpt>
      <trkpt lat="48.86056" lon="-0.91482">
        <ele>124.965218</ele>
        <time>2021-09-05T16:29:23.000Z</time>
      </trkpt>
      <trkpt lat="48.86046" lon="-0.91479">
        <ele>124.997476</ele>
        <time>2021-09-05T16:29:24.000Z</time>
      </trkpt>
      <trkpt lat="48.86003" lon="-0.91477">
        <ele>125.147128</ele>
        <time>2021-09-05T16:29:29.000Z</time>
      </trkpt>
      <trkpt lat="48.85968" lon="-0.91475">
        <ele>125.270725</ele>
        <time>2021-09-05T16:29:34.000Z</time>
      </trkpt>
      <trkpt lat="48.85942" lon="-0.91469">
        <ele>125.360835</ele>
        <time>2021-09-05T16:29:39.000Z</time>
      </trkpt>
      <trkpt lat="48.85917" lon="-0.91457">
        <ele>125.451202</ele>
        <time>2021-09-05T16:29:46.000Z</time>
      </trkpt>
      <trkpt lat="48.85891" lon="-0.91454">
        <ele>125.542267</ele>
        <time>2021-09-05T16:29:54.000Z</time>
      </trkpt>
      <trkpt lat="48.85866" lon="-0.9146">
        <ele>125.790107</ele>
        <time>2021-09-05T16:30:02.000Z</time>
      </trkpt>
      <trkpt lat="48.85837" lon="-0.91472">
        <ele>126.109982</ele>
        <time>2021-09-05T16:30:11.000Z</time>
      </trkpt>
      <trkpt lat="48.85806" lon="-0.91485">
        <ele>126.449547</ele>
        <time>2021-09-05T16:30:20.000Z</time>
      </trkpt>
      <trkpt lat="48.85769" lon="-0.915">
        <ele>126.852241</ele>
        <time>2021-09-05T16:30:29.000Z</time>
      </trkpt>
      <trkpt lat="48.85727" lon="-0.91515">
        <ele>127.300064</ele>
        <time>2021-09-05T16:30:38.000Z</time>
      </trkpt>
      <trkpt lat="48.85685" lon="-0.91524">
        <ele>127.38282</ele>
        <time>2021-09-05T16:30:46.000Z</time>
      </trkpt>
      <trkpt lat="48.85644" lon="-0.91528">
        <ele>127.306912</ele>
        <time>2021-09-05T16:30:53.000Z</time>
      </trkpt>
      <trkpt lat="48.85603" lon="-0.91524">
        <ele>127.230819</ele>
        <time>2021-09-05T16:31:00.000Z</time>
      </trkpt>
      <trkpt lat="48.85565" lon="-0.91505">
        <ele>127.156428</ele>
        <time>2021-09-05T16:31:07.000Z</time>
      </trkpt>
      <trkpt lat="48.85559" lon="-0.91502">
        <ele>127.145698</ele>
        <time>2021-09-05T16:31:08.000Z</time>
      </trkpt>
      <trkpt lat="48.85535" lon="-0.91474">
        <ele>127.022363</ele>
        <time>2021-09-05T16:31:13.000Z</time>
      </trkpt>
      <trkpt lat="48.85501" lon="-0.91428">
        <ele>126.557035</ele>
        <time>2021-09-05T16:31:20.000Z</time>
      </trkpt>
      <trkpt lat="48.85459" lon="-0.91367">
        <ele>125.962691</ele>
        <time>2021-09-05T16:31:28.000Z</time>
      </trkpt>
      <trkpt lat="48.85412" lon="-0.91309">
        <ele>125.346478</ele>
        <time>2021-09-05T16:31:36.000Z</time>
      </trkpt>
      <trkpt lat="48.85399" lon="-0.91296">
        <ele>125.215217</ele>
        <time>2021-09-05T16:31:38.000Z</time>
      </trkpt>
      <trkpt lat="48.85385" lon="-0.91289">
        <ele>125.109301</ele>
        <time>2021-09-05T16:31:40.000Z</time>
      </trkpt>
      <trkpt lat="48.85372" lon="-0.91284">
        <ele>125.008277</ele>
        <time>2021-09-05T16:31:42.000Z</time>
      </trkpt>
      <trkpt lat="48.85353" lon="-0.91278">
        <ele>124.868624</ele>
        <time>2021-09-05T16:31:45.000Z</time>
      </trkpt>
      <trkpt lat="48.85317" lon="-0.91268">
        <ele>124.605308</ele>
        <time>2021-09-05T16:31:51.000Z</time>
      </trkpt>
      <trkpt lat="48.85292" lon="-0.91254">
        <ele>124.408945</ele>
        <time>2021-09-05T16:31:56.000Z</time>
      </trkpt>
      <trkpt lat="48.85287" lon="-0.9125">
        <ele>124.373613</ele>
        <time>2021-09-05T16:31:57.000Z</time>
      </trkpt>
      <trkpt lat="48.85265" lon="-0.91229">
        <ele>124.183291</ele>
        <time>2021-09-05T16:32:03.000Z</time>
      </trkpt>
      <trkpt lat="48.85247" lon="-0.91198">
        <ele>123.983827</ele>
        <time>2021-09-05T16:32:11.000Z</time>
      </trkpt>
      <trkpt lat="48.85234" lon="-0.91162">
        <ele>123.874927</ele>
        <time>2021-09-05T16:32:19.000Z</time>
      </trkpt>
      <trkpt lat="48.85217" lon="-0.91121">
        <ele>123.754508</ele>
        <time>2021-09-05T16:32:27.000Z</time>
      </trkpt>
      <trkpt lat="48.85193" lon="-0.91074">
        <ele>123.605998</ele>
        <time>2021-09-05T16:32:35.000Z</time>
      </trkpt>
      <trkpt lat="48.85191" lon="-0.91068">
        <ele>123.587893</ele>
        <time>2021-09-05T16:32:36.000Z</time>
      </trkpt>
      <trkpt lat="48.85186" lon="-0.91055">
        <ele>123.549588</ele>
        <time>2021-09-05T16:32:38.000Z</time>
      </trkpt>
      <trkpt lat="48.8518" lon="-0.91042">
        <ele>123.51044</ele>
        <time>2021-09-05T16:32:40.000Z</time>
      </trkpt>
      <trkpt lat="48.85177" lon="-0.91036">
        <ele>123.490657</ele>
        <time>2021-09-05T16:32:41.000Z</time>
      </trkpt>
      <trkpt lat="48.85169" lon="-0.91015">
        <ele>123.430251</ele>
        <time>2021-09-05T16:32:44.000Z</time>
      </trkpt>
      <trkpt lat="48.85166" lon="-0.91009">
        <ele>123.410673</ele>
        <time>2021-09-05T16:32:45.000Z</time>
      </trkpt>
      <trkpt lat="48.85159" lon="-0.90986">
        <ele>123.346174</ele>
        <time>2021-09-05T16:32:48.000Z</time>
      </trkpt>
      <trkpt lat="48.85156" lon="-0.90978">
        <ele>123.323862</ele>
        <time>2021-09-05T16:32:49.000Z</time>
      </trkpt>
      <trkpt lat="48.85142" lon="-0.90933">
        <ele>122.87362</ele>
        <time>2021-09-05T16:32:54.000Z</time>
      </trkpt>
      <trkpt lat="48.85124" lon="-0.90866">
        <ele>122.021247</ele>
        <time>2021-09-05T16:33:00.000Z</time>
      </trkpt>
      <trkpt lat="48.85103" lon="-0.90782">
        <ele>120.950528</ele>
        <time>2021-09-05T16:33:07.000Z</time>
      </trkpt>
      <trkpt lat="48.85077" lon="-0.90696">
        <ele>119.819123</ele>
        <time>2021-09-05T16:33:14.000Z</time>
      </trkpt>
      <trkpt lat="48.85054" lon="-0.90639">
        <ele>118.970443</ele>
        <time>2021-09-05T16:33:19.000Z</time>
      </trkpt>
      <trkpt lat="48.85022" lon="-0.90579">
        <ele>117.980867</ele>
        <time>2021-09-05T16:33:25.000Z</time>
      </trkpt>
      <trkpt lat="48.84982" lon="-0.90514">
        <ele>116.853905</ele>
        <time>2021-09-05T16:33:32.000Z</time>
      </trkpt>
      <trkpt lat="48.84976" lon="-0.90505">
        <ele>116.698136</ele>
        <time>2021-09-05T16:33:33.000Z</time>
      </trkpt>
      <trkpt lat="48.8494" lon="-0.90452">
        <ele>115.752552</ele>
        <time>2021-09-05T16:33:40.000Z</time>
      </trkpt>
      <trkpt lat="48.84899" lon="-0.90391">
        <ele>114.691609</ele>
        <time>2021-09-05T16:33:49.000Z</time>
      </trkpt>
      <trkpt lat="48.84874" lon="-0.90333">
        <ele>113.829413</ele>
        <time>2021-09-05T16:33:56.000Z</time>
      </trkpt>
      <trkpt lat="48.84864" lon="-0.90307">
        <ele>113.468079</ele>
        <time>2021-09-05T16:33:59.000Z</time>
      </trkpt>
      <trkpt lat="48.84855" lon="-0.90281">
        <ele>113.141211</ele>
        <time>2021-09-05T16:34:02.000Z</time>
      </trkpt>
      <trkpt lat="48.84838" lon="-0.90229">
        <ele>112.640594</ele>
        <time>2021-09-05T16:34:08.000Z</time>
      </trkpt>
      <trkpt lat="48.84835" lon="-0.9022">
        <ele>112.554901</ele>
        <time>2021-09-05T16:34:09.000Z</time>
      </trkpt>
      <trkpt lat="48.84811" lon="-0.90154">
        <ele>111.898328</ele>
        <time>2021-09-05T16:34:17.000Z</time>
      </trkpt>
      <trkpt lat="48.84786" lon="-0.90097">
        <ele>111.305821</ele>
        <time>2021-09-05T16:34:24.000Z</time>
      </trkpt>
      <trkpt lat="48.84768" lon="-0.90058">
        <ele>110.894553</ele>
        <time>2021-09-05T16:34:29.000Z</time>
      </trkpt>
      <trkpt lat="48.84735" lon="-0.89991">
        <ele>110.276442</ele>
        <time>2021-09-05T16:34:38.000Z</time>
      </trkpt>
      <trkpt lat="48.84704" lon="-0.8993">
        <ele>109.719919</ele>
        <time>2021-09-05T16:34:46.000Z</time>
      </trkpt>
      <trkpt lat="48.84685" lon="-0.89892">
        <ele>109.375661</ele>
        <time>2021-09-05T16:34:51.000Z</time>
      </trkpt>
      <trkpt lat="48.84678" lon="-0.89877">
        <ele>109.237009</ele>
        <time>2021-09-05T16:34:53.000Z</time>
      </trkpt>
      <trkpt lat="48.84672" lon="-0.89868">
        <ele>109.143136</ele>
        <time>2021-09-05T16:34:54.000Z</time>
      </trkpt>
      <trkpt lat="48.84649" lon="-0.8985">
        <ele>108.859804</ele>
        <time>2021-09-05T16:34:58.000Z</time>
      </trkpt>
      <trkpt lat="48.84614" lon="-0.89825">
        <ele>108.485127</ele>
        <time>2021-09-05T16:35:04.000Z</time>
      </trkpt>
      <trkpt lat="48.84582" lon="-0.89805">
        <ele>108.154034</ele>
        <time>2021-09-05T16:35:10.000Z</time>
      </trkpt>
      <trkpt lat="48.84577" lon="-0.89803">
        <ele>108.10879</ele>
        <time>2021-09-05T16:35:11.000Z</time>
      </trkpt>
      <trkpt lat="48.84569" lon="-0.898">
        <ele>108.032046</ele>
        <time>2021-09-05T16:35:13.000Z</time>
      </trkpt>
      <trkpt lat="48.84565" lon="-0.89799">
        <ele>107.987878</ele>
        <time>2021-09-05T16:35:17.000Z</time>
      </trkpt>
      <trkpt lat="48.84563" lon="-0.89798">
        <ele>107.969035</ele>
        <time>2021-09-05T16:35:29.000Z</time>
      </trkpt>
      <trkpt lat="48.84555" lon="-0.89786">
        <ele>107.862955</ele>
        <time>2021-09-05T16:35:34.000Z</time>
      </trkpt>
      <trkpt lat="48.84545" lon="-0.89751">
        <ele>107.623168</ele>
        <time>2021-09-05T16:35:41.000Z</time>
      </trkpt>
      <trkpt lat="48.84537" lon="-0.89728">
        <ele>107.457728</ele>
        <time>2021-09-05T16:35:46.000Z</time>
      </trkpt>
      <trkpt lat="48.84527" lon="-0.89697">
        <ele>107.242307</ele>
        <time>2021-09-05T16:35:53.000Z</time>
      </trkpt>
      <trkpt lat="48.84535" lon="-0.89679">
        <ele>107.247816</ele>
        <time>2021-09-05T16:35:58.000Z</time>
      </trkpt>
      <trkpt lat="48.84551" lon="-0.89651">
        <ele>107.855411</ele>
        <time>2021-09-05T16:36:05.000Z</time>
      </trkpt>
      <trkpt lat="48.84556" lon="-0.8963">
        <ele>108.223049</ele>
        <time>2021-09-05T16:36:10.000Z</time>
      </trkpt>
      <trkpt lat="48.84555" lon="-0.89602">
        <ele>108.689896</ele>
        <time>2021-09-05T16:36:17.000Z</time>
      </trkpt>
      <trkpt lat="48.84549" lon="-0.89572">
        <ele>109.203935</ele>
        <time>2021-09-05T16:36:25.000Z</time>
      </trkpt>
      <trkpt lat="48.8454" lon="-0.8954">
        <ele>109.777296</ele>
        <time>2021-09-05T16:36:34.000Z</time>
      </trkpt>
      <trkpt lat="48.84534" lon="-0.89522">
        <ele>110.098389</ele>
        <time>2021-09-05T16:36:39.000Z</time>
      </trkpt>
      <trkpt lat="48.8452" lon="-0.89507">
        <ele>110.52669</ele>
        <time>2021-09-05T16:36:46.000Z</time>
      </trkpt>
      <trkpt lat="48.84514" lon="-0.89489">
        <ele>110.85707</ele>
        <time>2021-09-05T16:36:51.000Z</time>
      </trkpt>
      <trkpt lat="48.84518" lon="-0.89476">
        <ele>111.096958</ele>
        <time>2021-09-05T16:36:54.000Z</time>
      </trkpt>
      <trkpt lat="48.84524" lon="-0.89467">
        <ele>111.305559</ele>
        <time>2021-09-05T16:36:56.000Z</time>
      </trkpt>
      <trkpt lat="48.84528" lon="-0.89455">
        <ele>111.534008</ele>
        <time>2021-09-05T16:36:58.000Z</time>
      </trkpt>
      <trkpt lat="48.84529" lon="-0.89447">
        <ele>111.655073</ele>
        <time>2021-09-05T16:36:59.000Z</time>
      </trkpt>
      <trkpt lat="48.84527" lon="-0.89399">
        <ele>112.090823</ele>
        <time>2021-09-05T16:37:05.000Z</time>
      </trkpt>
      <trkpt lat="48.84518" lon="-0.89349">
        <ele>112.559293</ele>
        <time>2021-09-05T16:37:13.000Z</time>
      </trkpt>
      <trkpt lat="48.84513" lon="-0.89309">
        <ele>112.925796</ele>
        <time>2021-09-05T16:37:19.000Z</time>
      </trkpt>
      <trkpt lat="48.84513" lon="-0.89295">
        <ele>113.046449</ele>
        <time>2021-09-05T16:37:20.000Z</time>
      </trkpt>
      <trkpt lat="48.84513" lon="-0.89263">
        <ele>113.34268</ele>
        <time>2021-09-05T16:37:25.000Z</time>
      </trkpt>
      <trkpt lat="48.84516" lon="-0.89202">
        <ele>113.88627</ele>
        <time>2021-09-05T16:37:34.000Z</time>
      </trkpt>
      <trkpt lat="48.8452" lon="-0.89164">
        <ele>114.307639</ele>
        <time>2021-09-05T16:37:41.000Z</time>
      </trkpt>
      <trkpt lat="48.84527" lon="-0.89111">
        <ele>115.029763</ele>
        <time>2021-09-05T16:37:48.000Z</time>
      </trkpt>
      <trkpt lat="48.84529" lon="-0.89097">
        <ele>115.223306</ele>
        <time>2021-09-05T16:37:50.000Z</time>
      </trkpt>
      <trkpt lat="48.84533" lon="-0.8907">
        <ele>115.594975</ele>
        <time>2021-09-05T16:37:54.000Z</time>
      </trkpt>
      <trkpt lat="48.84535" lon="-0.89058">
        <ele>115.770449</ele>
        <time>2021-09-05T16:37:57.000Z</time>
      </trkpt>
      <trkpt lat="48.84541" lon="-0.89008">
        <ele>116.463057</ele>
        <time>2021-09-05T16:38:04.000Z</time>
      </trkpt>
      <trkpt lat="48.84548" lon="-0.88959">
        <ele>117.140248</ele>
        <time>2021-09-05T16:38:12.000Z</time>
      </trkpt>
      <trkpt lat="48.84555" lon="-0.88916">
        <ele>117.731817</ele>
        <time>2021-09-05T16:38:20.000Z</time>
      </trkpt>
      <trkpt lat="48.84567" lon="-0.88856">
        <ele>118.507593</ele>
        <time>2021-09-05T16:38:29.000Z</time>
      </trkpt>
      <trkpt lat="48.8458" lon="-0.8879">
        <ele>119.357265</ele>
        <time>2021-09-05T16:38:39.000Z</time>
      </trkpt>
      <trkpt lat="48.8459" lon="-0.88742">
        <ele>119.969126</ele>
        <time>2021-09-05T16:38:46.000Z</time>
      </trkpt>
      <trkpt lat="48.84599" lon="-0.88711">
        <ele>120.392271</ele>
        <time>2021-09-05T16:38:51.000Z</time>
      </trkpt>
      <trkpt lat="48.84602" lon="-0.88706">
        <ele>120.471265</ele>
        <time>2021-09-05T16:38:52.000Z</time>
      </trkpt>
      <trkpt lat="48.84614" lon="-0.88685">
        <ele>120.808485</ele>
        <time>2021-09-05T16:38:56.000Z</time>
      </trkpt>
      <trkpt lat="48.84622" lon="-0.88677">
        <ele>120.983746</ele>
        <time>2021-09-05T16:38:58.000Z</time>
      </trkpt>
      <trkpt lat="48.84647" lon="-0.8865">
        <ele>121.738352</ele>
        <time>2021-09-05T16:39:05.000Z</time>
      </trkpt>
      <trkpt lat="48.84658" lon="-0.88634">
        <ele>122.170309</ele>
        <time>2021-09-05T16:39:07.000Z</time>
      </trkpt>
      <trkpt lat="48.84664" lon="-0.88602">
        <ele>122.749804</ele>
        <time>2021-09-05T16:39:12.000Z</time>
      </trkpt>
      <trkpt lat="48.84662" lon="-0.88582">
        <ele>123.121355</ele>
        <time>2021-09-05T16:39:17.000Z</time>
      </trkpt>
      <trkpt lat="48.84662" lon="-0.88573">
        <ele>123.287221</ele>
        <time>2021-09-05T16:39:23.000Z</time>
      </trkpt>
      <trkpt lat="48.84661" lon="-0.8857">
        <ele>123.327066</ele>
        <time>2021-09-05T16:39:30.000Z</time>
      </trkpt>
      <trkpt lat="48.8466" lon="-0.88558">
        <ele>123.558324</ele>
        <time>2021-09-05T16:39:35.000Z</time>
      </trkpt>
      <trkpt lat="48.8466" lon="-0.88553">
        <ele>123.649059</ele>
        <time>2021-09-05T16:39:40.000Z</time>
      </trkpt>
      <trkpt lat="48.84672" lon="-0.88511">
        <ele>124.458492</ele>
        <time>2021-09-05T16:39:48.000Z</time>
      </trkpt>
      <trkpt lat="48.84689" lon="-0.88478">
        <ele>125.232061</ele>
        <time>2021-09-05T16:39:58.000Z</time>
      </trkpt>
      <trkpt lat="48.84705" lon="-0.88447">
        <ele>125.926519</ele>
        <time>2021-09-05T16:40:07.000Z</time>
      </trkpt>
      <trkpt lat="48.84716" lon="-0.88426">
        <ele>126.369947</ele>
        <time>2021-09-05T16:40:13.000Z</time>
      </trkpt>
      <trkpt lat="48.84712" lon="-0.88399">
        <ele>126.816533</ele>
        <time>2021-09-05T16:40:18.000Z</time>
      </trkpt>
      <trkpt lat="48.847" lon="-0.88362">
        <ele>127.49487</ele>
        <time>2021-09-05T16:40:27.000Z</time>
      </trkpt>
      <trkpt lat="48.84691" lon="-0.88328">
        <ele>128.09376</ele>
        <time>2021-09-05T16:40:35.000Z</time>
      </trkpt>
      <trkpt lat="48.84685" lon="-0.88292">
        <ele>128.694564</ele>
        <time>2021-09-05T16:40:42.000Z</time>
      </trkpt>
      <trkpt lat="48.84683" lon="-0.88263">
        <ele>129.172302</ele>
        <time>2021-09-05T16:40:47.000Z</time>
      </trkpt>
      <trkpt lat="48.84686" lon="-0.88251">
        <ele>129.364654</ele>
        <time>2021-09-05T16:40:49.000Z</time>
      </trkpt>
      <trkpt lat="48.84687" lon="-0.88233">
        <ele>129.659132</ele>
        <time>2021-09-05T16:40:52.000Z</time>
      </trkpt>
      <trkpt lat="48.84692" lon="-0.88188">
        <ele>130.409718</ele>
        <time>2021-09-05T16:40:59.000Z</time>
      </trkpt>
      <trkpt lat="48.84703" lon="-0.88133">
        <ele>130.943578</ele>
        <time>2021-09-05T16:41:07.000Z</time>
      </trkpt>
      <trkpt lat="48.84713" lon="-0.88085">
        <ele>131.370727</ele>
        <time>2021-09-05T16:41:15.000Z</time>
      </trkpt>
      <trkpt lat="48.84728" lon="-0.8801">
        <ele>132.028018</ele>
        <time>2021-09-05T16:41:24.000Z</time>
      </trkpt>
      <trkpt lat="48.84742" lon="-0.87942">
        <ele>132.632211</ele>
        <time>2021-09-05T16:41:33.000Z</time>
      </trkpt>
      <trkpt lat="48.84749" lon="-0.87911">
        <ele>132.773477</ele>
        <time>2021-09-05T16:41:37.000Z</time>
      </trkpt>
      <trkpt lat="48.84752" lon="-0.87905">
        <ele>132.735104</ele>
        <time>2021-09-05T16:41:38.000Z</time>
      </trkpt>
      <trkpt lat="48.84771" lon="-0.87894">
        <ele>132.577975</ele>
        <time>2021-09-05T16:41:42.000Z</time>
      </trkpt>
      <trkpt lat="48.84785" lon="-0.87891">
        <ele>132.476974</ele>
        <time>2021-09-05T16:41:44.000Z</time>
      </trkpt>
      <trkpt lat="48.84799" lon="-0.87888">
        <ele>132.374151</ele>
        <time>2021-09-05T16:41:46.000Z</time>
      </trkpt>
      <trkpt lat="48.84805" lon="-0.87885">
        <ele>132.328876</ele>
        <time>2021-09-05T16:41:47.000Z</time>
      </trkpt>
      <trkpt lat="48.84815" lon="-0.87881">
        <ele>132.249231</ele>
        <time>2021-09-05T16:41:49.000Z</time>
      </trkpt>
      <trkpt lat="48.84825" lon="-0.87833">
        <ele>132.00177</ele>
        <time>2021-09-05T16:41:54.000Z</time>
      </trkpt>
      <trkpt lat="48.84833" lon="-0.87811">
        <ele>131.880255</ele>
        <time>2021-09-05T16:41:58.000Z</time>
      </trkpt>
      <trkpt lat="48.84839" lon="-0.87798">
        <ele>131.802399</ele>
        <time>2021-09-05T16:42:00.000Z</time>
      </trkpt>
      <trkpt lat="48.84858" lon="-0.87758">
        <ele>131.564355</ele>
        <time>2021-09-05T16:42:05.000Z</time>
      </trkpt>
      <trkpt lat="48.84864" lon="-0.87744">
        <ele>131.464143</ele>
        <time>2021-09-05T16:42:07.000Z</time>
      </trkpt>
      <trkpt lat="48.84883" lon="-0.87702">
        <ele>130.529683</ele>
        <time>2021-09-05T16:42:13.000Z</time>
      </trkpt>
      <trkpt lat="48.84886" lon="-0.87696">
        <ele>130.381855</ele>
        <time>2021-09-05T16:42:15.000Z</time>
      </trkpt>
      <trkpt lat="48.84901" lon="-0.87703">
        <ele>129.954823</ele>
        <time>2021-09-05T16:42:17.000Z</time>
      </trkpt>
      <trkpt lat="48.84906" lon="-0.87706">
        <ele>129.7997</ele>
        <time>2021-09-05T16:42:18.000Z</time>
      </trkpt>
      <trkpt lat="48.84906" lon="-0.87706">
        <ele>129.7997</ele>
        <time>2021-09-05T16:42:19.000Z</time>
      </trkpt>
      <trkpt lat="48.84921" lon="-0.87716">
        <ele>129.345637</ele>
        <time>2021-09-05T16:42:21.000Z</time>
      </trkpt>
      <trkpt lat="48.84924" lon="-0.8772">
        <ele>129.24045</ele>
        <time>2021-09-05T16:42:22.000Z</time>
      </trkpt>
      <trkpt lat="48.84923" lon="-0.87732">
        <ele>129.026145</ele>
        <time>2021-09-05T16:42:24.000Z</time>
      </trkpt>
      <trkpt lat="48.84923" lon="-0.87735">
        <ele>128.969326</ele>
        <time>2021-09-05T16:42:25.000Z</time>
      </trkpt>
      <trkpt lat="48.84924" lon="-0.87718">
        <ele>128.654352</ele>
        <time>2021-09-05T16:42:30.000Z</time>
      </trkpt>
      <trkpt lat="48.84923" lon="-0.87733">
        <ele>128.38347</ele>
        <time>2021-09-05T16:42:35.000Z</time>
      </trkpt>
      <trkpt lat="48.84923" lon="-0.87732">
        <ele>128.376173</ele>
        <time>2021-09-05T16:42:45.000Z</time>
      </trkpt>
      <trkpt lat="48.84923" lon="-0.87718">
        <ele>128.107796</ele>
        <time>2021-09-05T16:42:51.000Z</time>
      </trkpt>
      <trkpt lat="48.84923" lon="-0.87736">
        <ele>127.764454</ele>
        <time>2021-09-05T16:42:55.000Z</time>
      </trkpt>
      <trkpt lat="48.84936" lon="-0.87719">
        <ele>127.288384</ele>
        <time>2021-09-05T16:59:40.000Z</time>
      </trkpt>
      <trkpt lat="48.84919" lon="-0.87715">
        <ele>126.830389</ele>
        <time>2021-09-05T16:59:41.000Z</time>
      </trkpt>
      <trkpt lat="48.84911" lon="-0.87709">
        <ele>126.576114</ele>
        <time>2021-09-05T16:59:46.000Z</time>
      </trkpt>
      <trkpt lat="48.84893" lon="-0.87695">
        <ele>126.638913</ele>
        <time>2021-09-05T16:59:53.000Z</time>
      </trkpt>
      <trkpt lat="48.84888" lon="-0.87691">
        <ele>126.679941</ele>
        <time>2021-09-05T16:59:55.000Z</time>
      </trkpt>
      <trkpt lat="48.84885" lon="-0.87699">
        <ele>126.725274</ele>
        <time>2021-09-05T16:59:58.000Z</time>
      </trkpt>
      <trkpt lat="48.84878" lon="-0.87714">
        <ele>126.818086</ele>
        <time>2021-09-05T17:00:03.000Z</time>
      </trkpt>
      <trkpt lat="48.84862" lon="-0.87748">
        <ele>127.029973</ele>
        <time>2021-09-05T17:00:13.000Z</time>
      </trkpt>
      <trkpt lat="48.84851" lon="-0.87772">
        <ele>127.179569</ele>
        <time>2021-09-05T17:00:20.000Z</time>
      </trkpt>
      <trkpt lat="48.8484" lon="-0.87798">
        <ele>127.338051</ele>
        <time>2021-09-05T17:00:27.000Z</time>
      </trkpt>
      <trkpt lat="48.84826" lon="-0.8783">
        <ele>127.528696</ele>
        <time>2021-09-05T17:00:35.000Z</time>
      </trkpt>
      <trkpt lat="48.84819" lon="-0.87865">
        <ele>127.714885</ele>
        <time>2021-09-05T17:00:42.000Z</time>
      </trkpt>
      <trkpt lat="48.84814" lon="-0.87907">
        <ele>127.982411</ele>
        <time>2021-09-05T17:00:50.000Z</time>
      </trkpt>
      <trkpt lat="48.84811" lon="-0.87945">
        <ele>128.389701</ele>
        <time>2021-09-05T17:00:57.000Z</time>
      </trkpt>
      <trkpt lat="48.84807" lon="-0.8799">
        <ele>128.861226</ele>
        <time>2021-09-05T17:01:05.000Z</time>
      </trkpt>
      <trkpt lat="48.84801" lon="-0.88047">
        <ele>129.479315</ele>
        <time>2021-09-05T17:01:15.000Z</time>
      </trkpt>
      <trkpt lat="48.84796" lon="-0.88094">
        <ele>129.98341</ele>
        <time>2021-09-05T17:01:23.000Z</time>
      </trkpt>
      <trkpt lat="48.84789" lon="-0.88127">
        <ele>130.34351</ele>
        <time>2021-09-05T17:01:29.000Z</time>
      </trkpt>
      <trkpt lat="48.84783" lon="-0.88161">
        <ele>130.720182</ele>
        <time>2021-09-05T17:01:35.000Z</time>
      </trkpt>
      <trkpt lat="48.84773" lon="-0.8821">
        <ele>131.068849</ele>
        <time>2021-09-05T17:01:43.000Z</time>
      </trkpt>
      <trkpt lat="48.84764" lon="-0.88253">
        <ele>131.358207</ele>
        <time>2021-09-05T17:01:50.000Z</time>
      </trkpt>
      <trkpt lat="48.84763" lon="-0.88259">
        <ele>131.396807</ele>
        <time>2021-09-05T17:01:51.000Z</time>
      </trkpt>
      <trkpt lat="48.84755" lon="-0.88296">
        <ele>131.647525</ele>
        <time>2021-09-05T17:01:57.000Z</time>
      </trkpt>
      <trkpt lat="48.84753" lon="-0.88303">
        <ele>131.692203</ele>
        <time>2021-09-05T17:01:58.000Z</time>
      </trkpt>
      <trkpt lat="48.84746" lon="-0.88336">
        <ele>131.915573</ele>
        <time>2021-09-05T17:02:03.000Z</time>
      </trkpt>
      <trkpt lat="48.84737" lon="-0.88372">
        <ele>132.165321</ele>
        <time>2021-09-05T17:02:09.000Z</time>
      </trkpt>
      <trkpt lat="48.84723" lon="-0.88384">
        <ele>132.320984</ele>
        <time>2021-09-05T17:02:14.000Z</time>
      </trkpt>
      <trkpt lat="48.8472" lon="-0.88386">
        <ele>132.3531</ele>
        <time>2021-09-05T17:02:16.000Z</time>
      </trkpt>
      <trkpt lat="48.84719" lon="-0.88387">
        <ele>132.364958</ele>
        <time>2021-09-05T17:02:18.000Z</time>
      </trkpt>
      <trkpt lat="48.84717" lon="-0.88388">
        <ele>132.385218</ele>
        <time>2021-09-05T17:02:21.000Z</time>
      </trkpt>
      <trkpt lat="48.84715" lon="-0.88389">
        <ele>132.402567</ele>
        <time>2021-09-05T17:02:23.000Z</time>
      </trkpt>
      <trkpt lat="48.84714" lon="-0.8839">
        <ele>132.414424</ele>
        <time>2021-09-05T17:02:24.000Z</time>
      </trkpt>
      <trkpt lat="48.84713" lon="-0.88391">
        <ele>132.423981</ele>
        <time>2021-09-05T17:02:29.000Z</time>
      </trkpt>
      <trkpt lat="48.84714" lon="-0.88395">
        <ele>132.455587</ele>
        <time>2021-09-05T17:02:48.000Z</time>
      </trkpt>
      <trkpt lat="48.84723" lon="-0.88401">
        <ele>132.511448</ele>
        <time>2021-09-05T17:02:52.000Z</time>
      </trkpt>
      <trkpt lat="48.84728" lon="-0.88422">
        <ele>132.398615</ele>
        <time>2021-09-05T17:02:54.000Z</time>
      </trkpt>
      <trkpt lat="48.84725" lon="-0.88426">
        <ele>132.371638</ele>
        <time>2021-09-05T17:02:55.000Z</time>
      </trkpt>
      <trkpt lat="48.84723" lon="-0.88431">
        <ele>132.33936</ele>
        <time>2021-09-05T17:02:56.000Z</time>
      </trkpt>
      <trkpt lat="48.84714" lon="-0.88447">
        <ele>132.233035</ele>
        <time>2021-09-05T17:02:59.000Z</time>
      </trkpt>
      <trkpt lat="48.84695" lon="-0.88486">
        <ele>131.979553</ele>
        <time>2021-09-05T17:03:05.000Z</time>
      </trkpt>
      <trkpt lat="48.84666" lon="-0.8854">
        <ele>131.622259</ele>
        <time>2021-09-05T17:03:12.000Z</time>
      </trkpt>
      <trkpt lat="48.84635" lon="-0.8858">
        <ele>131.304048</ele>
        <time>2021-09-05T17:03:18.000Z</time>
      </trkpt>
      <trkpt lat="48.84609" lon="-0.88604">
        <ele>131.121773</ele>
        <time>2021-09-05T17:03:24.000Z</time>
      </trkpt>
      <trkpt lat="48.8458" lon="-0.88626">
        <ele>131.13193</ele>
        <time>2021-09-05T17:03:29.000Z</time>
      </trkpt>
      <trkpt lat="48.84576" lon="-0.8863">
        <ele>131.133536</ele>
        <time>2021-09-05T17:03:30.000Z</time>
      </trkpt>
      <trkpt lat="48.84571" lon="-0.88633">
        <ele>131.135078</ele>
        <time>2021-09-05T17:03:31.000Z</time>
      </trkpt>
      <trkpt lat="48.84551" lon="-0.88648">
        <ele>131.141976</ele>
        <time>2021-09-05T17:03:36.000Z</time>
      </trkpt>
      <trkpt lat="48.84528" lon="-0.88666">
        <ele>131.150026</ele>
        <time>2021-09-05T17:03:43.000Z</time>
      </trkpt>
      <trkpt lat="48.8451" lon="-0.88679">
        <ele>131.156248</ele>
        <time>2021-09-05T17:03:49.000Z</time>
      </trkpt>
      <trkpt lat="48.84485" lon="-0.88696">
        <ele>131.164837</ele>
        <time>2021-09-05T17:03:58.000Z</time>
      </trkpt>
      <trkpt lat="48.8447" lon="-0.88707">
        <ele>131.169963</ele>
        <time>2021-09-05T17:04:04.000Z</time>
      </trkpt>
      <trkpt lat="48.8445" lon="-0.88723">
        <ele>131.314374</ele>
        <time>2021-09-05T17:04:12.000Z</time>
      </trkpt>
      <trkpt lat="48.84432" lon="-0.88737">
        <ele>131.961488</ele>
        <time>2021-09-05T17:04:20.000Z</time>
      </trkpt>
      <trkpt lat="48.84411" lon="-0.88753">
        <ele>132.687508</ele>
        <time>2021-09-05T17:04:27.000Z</time>
      </trkpt>
      <trkpt lat="48.84402" lon="-0.88761">
        <ele>133.033152</ele>
        <time>2021-09-05T17:04:32.000Z</time>
      </trkpt>
      <trkpt lat="48.84379" lon="-0.88778">
        <ele>133.822082</ele>
        <time>2021-09-05T17:04:41.000Z</time>
      </trkpt>
      <trkpt lat="48.84357" lon="-0.88798">
        <ele>134.650195</ele>
        <time>2021-09-05T17:04:49.000Z</time>
      </trkpt>
      <trkpt lat="48.84338" lon="-0.88817">
        <ele>135.361791</ele>
        <time>2021-09-05T17:04:57.000Z</time>
      </trkpt>
      <trkpt lat="48.84317" lon="-0.88837">
        <ele>136.135427</ele>
        <time>2021-09-05T17:05:06.000Z</time>
      </trkpt>
      <trkpt lat="48.84304" lon="-0.88849">
        <ele>136.625092</ele>
        <time>2021-09-05T17:05:13.000Z</time>
      </trkpt>
      <trkpt lat="48.84294" lon="-0.88859">
        <ele>137.228018</ele>
        <time>2021-09-05T17:05:19.000Z</time>
      </trkpt>
      <trkpt lat="48.84286" lon="-0.88867">
        <ele>137.902845</ele>
        <time>2021-09-05T17:05:25.000Z</time>
      </trkpt>
      <trkpt lat="48.84274" lon="-0.88878">
        <ele>138.920825</ele>
        <time>2021-09-05T17:05:32.000Z</time>
      </trkpt>
      <trkpt lat="48.8426" lon="-0.88892">
        <ele>140.157837</ele>
        <time>2021-09-05T17:05:40.000Z</time>
      </trkpt>
      <trkpt lat="48.84247" lon="-0.88904">
        <ele>141.308808</ele>
        <time>2021-09-05T17:05:48.000Z</time>
      </trkpt>
      <trkpt lat="48.84234" lon="-0.8892">
        <ele>142.550311</ele>
        <time>2021-09-05T17:05:57.000Z</time>
      </trkpt>
      <trkpt lat="48.84222" lon="-0.88935">
        <ele>143.713734</ele>
        <time>2021-09-05T17:06:07.000Z</time>
      </trkpt>
      <trkpt lat="48.8421" lon="-0.8895">
        <ele>144.868355</ele>
        <time>2021-09-05T17:06:16.000Z</time>
      </trkpt>
      <trkpt lat="48.84198" lon="-0.88965">
        <ele>146.033495</ele>
        <time>2021-09-05T17:06:24.000Z</time>
      </trkpt>
      <trkpt lat="48.84186" lon="-0.88978">
        <ele>147.080376</ele>
        <time>2021-09-05T17:06:33.000Z</time>
      </trkpt>
      <trkpt lat="48.84173" lon="-0.88994">
        <ele>148.348439</ele>
        <time>2021-09-05T17:06:43.000Z</time>
      </trkpt>
      <trkpt lat="48.84165" lon="-0.89003">
        <ele>149.070937</ele>
        <time>2021-09-05T17:06:49.000Z</time>
      </trkpt>
      <trkpt lat="48.84154" lon="-0.89014">
        <ele>150.071556</ele>
        <time>2021-09-05T17:06:58.000Z</time>
      </trkpt>
      <trkpt lat="48.84137" lon="-0.89029">
        <ele>151.673601</ele>
        <time>2021-09-05T17:07:09.000Z</time>
      </trkpt>
      <trkpt lat="48.84125" lon="-0.89039">
        <ele>152.844656</ele>
        <time>2021-09-05T17:07:17.000Z</time>
      </trkpt>
      <trkpt lat="48.8411" lon="-0.89049">
        <ele>154.213001</ele>
        <time>2021-09-05T17:07:27.000Z</time>
      </trkpt>
      <trkpt lat="48.84098" lon="-0.89056">
        <ele>155.338432</ele>
        <time>2021-09-05T17:07:35.000Z</time>
      </trkpt>
      <trkpt lat="48.84078" lon="-0.89066">
        <ele>157.077078</ele>
        <time>2021-09-05T17:07:46.000Z</time>
      </trkpt>
      <trkpt lat="48.84064" lon="-0.89072">
        <ele>158.302823</ele>
        <time>2021-09-05T17:07:55.000Z</time>
      </trkpt>
      <trkpt lat="48.8405" lon="-0.89074">
        <ele>159.485951</ele>
        <time>2021-09-05T17:08:02.000Z</time>
      </trkpt>
      <trkpt lat="48.84035" lon="-0.89077">
        <ele>160.769753</ele>
        <time>2021-09-05T17:08:11.000Z</time>
      </trkpt>
      <trkpt lat="48.84016" lon="-0.89079">
        <ele>162.360775</ele>
        <time>2021-09-05T17:08:21.000Z</time>
      </trkpt>
      <trkpt lat="48.84" lon="-0.89071">
        <ele>163.822254</ele>
        <time>2021-09-05T17:08:31.000Z</time>
      </trkpt>
      <trkpt lat="48.83994" lon="-0.89065">
        <ele>164.388609</ele>
        <time>2021-09-05T17:08:36.000Z</time>
      </trkpt>
      <trkpt lat="48.83994" lon="-0.89064">
        <ele>164.459403</ele>
        <time>2021-09-05T17:08:37.000Z</time>
      </trkpt>
      <trkpt lat="48.83994" lon="-0.89064">
        <ele>164.459403</ele>
        <time>2021-09-05T17:08:44.000Z</time>
      </trkpt>
      <trkpt lat="48.83994" lon="-0.89064">
        <ele>164.459403</ele>
        <time>2021-09-05T17:09:03.000Z</time>
      </trkpt>
      <trkpt lat="48.83994" lon="-0.89064">
        <ele>164.459403</ele>
        <time>2021-09-05T17:09:23.000Z</time>
      </trkpt>
      <trkpt lat="48.83991" lon="-0.89062">
        <ele>164.75854</ele>
        <time>2021-09-05T17:09:29.000Z</time>
      </trkpt>
      <trkpt lat="48.83983" lon="-0.89057">
        <ele>165.413595</ele>
        <time>2021-09-05T17:09:34.000Z</time>
      </trkpt>
      <trkpt lat="48.83963" lon="-0.89041">
        <ele>166.232498</ele>
        <time>2021-09-05T17:09:41.000Z</time>
      </trkpt>
      <trkpt lat="48.83946" lon="-0.89025">
        <ele>166.961457</ele>
        <time>2021-09-05T17:09:48.000Z</time>
      </trkpt>
      <trkpt lat="48.83924" lon="-0.89005">
        <ele>167.860349</ele>
        <time>2021-09-05T17:09:57.000Z</time>
      </trkpt>
      <trkpt lat="48.83905" lon="-0.88986">
        <ele>168.700142</ele>
        <time>2021-09-05T17:10:05.000Z</time>
      </trkpt>
      <trkpt lat="48.83892" lon="-0.88974">
        <ele>169.251799</ele>
        <time>2021-09-05T17:10:11.000Z</time>
      </trkpt>
      <trkpt lat="48.83874" lon="-0.88957">
        <ele>170.006626</ele>
        <time>2021-09-05T17:10:17.000Z</time>
      </trkpt>
      <trkpt lat="48.83863" lon="-0.88947">
        <ele>170.443141</ele>
        <time>2021-09-05T17:10:22.000Z</time>
      </trkpt>
      <trkpt lat="48.83847" lon="-0.88954">
        <ele>171.047306</ele>
        <time>2021-09-05T17:10:26.000Z</time>
      </trkpt>
      <trkpt lat="48.83841" lon="-0.88949">
        <ele>171.288698</ele>
        <time>2021-09-05T17:10:27.000Z</time>
      </trkpt>
      <trkpt lat="48.83836" lon="-0.88932">
        <ele>171.733558</ele>
        <time>2021-09-05T17:10:28.000Z</time>
      </trkpt>
      <trkpt lat="48.83838" lon="-0.88921">
        <ele>172.06231</ele>
        <time>2021-09-05T17:10:31.000Z</time>
      </trkpt>
      <trkpt lat="48.8384" lon="-0.88891">
        <ele>173.018828</ele>
        <time>2021-09-05T17:10:36.000Z</time>
      </trkpt>
      <trkpt lat="48.83831" lon="-0.88866">
        <ele>173.912767</ele>
        <time>2021-09-05T17:10:44.000Z</time>
      </trkpt>
      <trkpt lat="48.83825" lon="-0.88849">
        <ele>174.51758</ele>
        <time>2021-09-05T17:10:50.000Z</time>
      </trkpt>
      <trkpt lat="48.83819" lon="-0.88831">
        <ele>175.181669</ele>
        <time>2021-09-05T17:10:57.000Z</time>
      </trkpt>
      <trkpt lat="48.83813" lon="-0.88814">
        <ele>175.774704</ele>
        <time>2021-09-05T17:11:04.000Z</time>
      </trkpt>
      <trkpt lat="48.83806" lon="-0.88794">
        <ele>176.518463</ele>
        <time>2021-09-05T17:11:11.000Z</time>
      </trkpt>
      <trkpt lat="48.83798" lon="-0.88774">
        <ele>177.263036</ele>
        <time>2021-09-05T17:11:19.000Z</time>
      </trkpt>
      <trkpt lat="48.83792" lon="-0.88759">
        <ele>177.810217</ele>
        <time>2021-09-05T17:11:26.000Z</time>
      </trkpt>
      <trkpt lat="48.83783" lon="-0.88731">
        <ele>178.815427</ele>
        <time>2021-09-05T17:11:36.000Z</time>
      </trkpt>
      <trkpt lat="48.83775" lon="-0.88708">
        <ele>179.649579</ele>
        <time>2021-09-05T17:11:43.000Z</time>
      </trkpt>
      <trkpt lat="48.83767" lon="-0.88672">
        <ele>180.83428</ele>
        <time>2021-09-05T17:11:53.000Z</time>
      </trkpt>
      <trkpt lat="48.83761" lon="-0.88642">
        <ele>181.852784</ele>
        <time>2021-09-05T17:12:01.000Z</time>
      </trkpt>
      <trkpt lat="48.83753" lon="-0.88608">
        <ele>183.006907</ele>
        <time>2021-09-05T17:12:10.000Z</time>
      </trkpt>
      <trkpt lat="48.83747" lon="-0.88581">
        <ele>183.926678</ele>
        <time>2021-09-05T17:12:17.000Z</time>
      </trkpt>
      <trkpt lat="48.83738" lon="-0.88551">
        <ele>184.974066</ele>
        <time>2021-09-05T17:12:25.000Z</time>
      </trkpt>
      <trkpt lat="48.83729" lon="-0.8852">
        <ele>186.072327</ele>
        <time>2021-09-05T17:12:34.000Z</time>
      </trkpt>
      <trkpt lat="48.83721" lon="-0.88493">
        <ele>187.037592</ele>
        <time>2021-09-05T17:12:42.000Z</time>
      </trkpt>
      <trkpt lat="48.83711" lon="-0.88462">
        <ele>188.128216</ele>
        <time>2021-09-05T17:12:51.000Z</time>
      </trkpt>
      <trkpt lat="48.83701" lon="-0.88418">
        <ele>189.567019</ele>
        <time>2021-09-05T17:13:03.000Z</time>
      </trkpt>
      <trkpt lat="48.83694" lon="-0.88386">
        <ele>190.46245</ele>
        <time>2021-09-05T17:13:12.000Z</time>
      </trkpt>
      <trkpt lat="48.83688" lon="-0.88363">
        <ele>191.160631</ele>
        <time>2021-09-05T17:13:19.000Z</time>
      </trkpt>
      <trkpt lat="48.83684" lon="-0.88326">
        <ele>192.1481</ele>
        <time>2021-09-05T17:13:29.000Z</time>
      </trkpt>
      <trkpt lat="48.83682" lon="-0.88295">
        <ele>193.00057</ele>
        <time>2021-09-05T17:13:37.000Z</time>
      </trkpt>
      <trkpt lat="48.83681" lon="-0.88253">
        <ele>194.1313</ele>
        <time>2021-09-05T17:13:47.000Z</time>
      </trkpt>
      <trkpt lat="48.83683" lon="-0.8821">
        <ele>195.29521</ele>
        <time>2021-09-05T17:13:56.000Z</time>
      </trkpt>
      <trkpt lat="48.83684" lon="-0.8818">
        <ele>196.11477</ele>
        <time>2021-09-05T17:14:03.000Z</time>
      </trkpt>
      <trkpt lat="48.83681" lon="-0.88165">
        <ele>196.515786</ele>
        <time>2021-09-05T17:14:05.000Z</time>
      </trkpt>
      <trkpt lat="48.83675" lon="-0.88143">
        <ele>196.680457</ele>
        <time>2021-09-05T17:14:08.000Z</time>
      </trkpt>
      <trkpt lat="48.83673" lon="-0.88124">
        <ele>196.660851</ele>
        <time>2021-09-05T17:14:10.000Z</time>
      </trkpt>
      <trkpt lat="48.8367" lon="-0.88104">
        <ele>196.639475</ele>
        <time>2021-09-05T17:14:12.000Z</time>
      </trkpt>
      <trkpt lat="48.83662" lon="-0.88045">
        <ele>196.577613</ele>
        <time>2021-09-05T17:14:17.000Z</time>
      </trkpt>
      <trkpt lat="48.83656" lon="-0.88005">
        <ele>196.535494</ele>
        <time>2021-09-05T17:14:20.000Z</time>
      </trkpt>
      <trkpt lat="48.83655" lon="-0.87991">
        <ele>196.520962</ele>
        <time>2021-09-05T17:14:22.000Z</time>
      </trkpt>
      <trkpt lat="48.83642" lon="-0.87909">
        <ele>196.43529</ele>
        <time>2021-09-05T17:14:27.000Z</time>
      </trkpt>
      <trkpt lat="48.83638" lon="-0.87884">
        <ele>196.339108</ele>
        <time>2021-09-05T17:14:29.000Z</time>
      </trkpt>
      <trkpt lat="48.83634" lon="-0.8786">
        <ele>196.120478</ele>
        <time>2021-09-05T17:14:32.000Z</time>
      </trkpt>
      <trkpt lat="48.83626" lon="-0.87828">
        <ele>195.812404</ele>
        <time>2021-09-05T17:14:34.000Z</time>
      </trkpt>
      <trkpt lat="48.83616" lon="-0.8781">
        <ele>195.60625</ele>
        <time>2021-09-05T17:14:36.000Z</time>
      </trkpt>
      <trkpt lat="48.83609" lon="-0.87804">
        <ele>195.502965</ele>
        <time>2021-09-05T17:14:38.000Z</time>
      </trkpt>
      <trkpt lat="48.83582" lon="-0.8779">
        <ele>195.116356</ele>
        <time>2021-09-05T17:14:42.000Z</time>
      </trkpt>
      <trkpt lat="48.83578" lon="-0.87789">
        <ele>195.055948</ele>
        <time>2021-09-05T17:14:43.000Z</time>
      </trkpt>
      <trkpt lat="48.83572" lon="-0.87774">
        <ele>194.905636</ele>
        <time>2021-09-05T17:14:46.000Z</time>
      </trkpt>
      <trkpt lat="48.83565" lon="-0.87757">
        <ele>194.728778</ele>
        <time>2021-09-05T17:14:52.000Z</time>
      </trkpt>
      <trkpt lat="48.83558" lon="-0.87739">
        <ele>194.546009</ele>
        <time>2021-09-05T17:14:58.000Z</time>
      </trkpt>
      <trkpt lat="48.83552" lon="-0.87725">
        <ele>194.400046</ele>
        <time>2021-09-05T17:15:04.000Z</time>
      </trkpt>
      <trkpt lat="48.83551" lon="-0.87724">
        <ele>194.386045</ele>
        <time>2021-09-05T17:15:05.000Z</time>
      </trkpt>
      <trkpt lat="48.83551" lon="-0.87722">
        <ele>194.369037</ele>
        <time>2021-09-05T17:15:06.000Z</time>
      </trkpt>
      <trkpt lat="48.83547" lon="-0.87714">
        <ele>194.27913</ele>
        <time>2021-09-05T17:15:10.000Z</time>
      </trkpt>
      <trkpt lat="48.8354" lon="-0.87695">
        <ele>194.083839</ele>
        <time>2021-09-05T17:15:18.000Z</time>
      </trkpt>
      <trkpt lat="48.83537" lon="-0.87687">
        <ele>194.008655</ele>
        <time>2021-09-05T17:15:21.000Z</time>
      </trkpt>
      <trkpt lat="48.83536" lon="-0.87685">
        <ele>194.008523</ele>
        <time>2021-09-05T17:15:23.000Z</time>
      </trkpt>
      <trkpt lat="48.8353" lon="-0.8767">
        <ele>194.008523</ele>
        <time>2021-09-05T17:15:28.000Z</time>
      </trkpt>
      <trkpt lat="48.8352" lon="-0.87645">
        <ele>194.008523</ele>
        <time>2021-09-05T17:15:37.000Z</time>
      </trkpt>
      <trkpt lat="48.83512" lon="-0.87625">
        <ele>194.008523</ele>
        <time>2021-09-05T17:15:45.000Z</time>
      </trkpt>
      <trkpt lat="48.83512" lon="-0.87625">
        <ele>194.008523</ele>
        <time>2021-09-05T17:15:46.000Z</time>
      </trkpt>
      <trkpt lat="48.83511" lon="-0.87622">
        <ele>194.008523</ele>
        <time>2021-09-05T17:15:49.000Z</time>
      </trkpt>
      <trkpt lat="48.83508" lon="-0.8761">
        <ele>194.008523</ele>
        <time>2021-09-05T17:15:53.000Z</time>
      </trkpt>
      <trkpt lat="48.83501" lon="-0.87581">
        <ele>194.008523</ele>
        <time>2021-09-05T17:15:59.000Z</time>
      </trkpt>
      <trkpt lat="48.83492" lon="-0.87564">
        <ele>194.008523</ele>
        <time>2021-09-05T17:16:05.000Z</time>
      </trkpt>
      <trkpt lat="48.83481" lon="-0.87545">
        <ele>194.008523</ele>
        <time>2021-09-05T17:16:09.000Z</time>
      </trkpt>
      <trkpt lat="48.83473" lon="-0.8753">
        <ele>194.008523</ele>
        <time>2021-09-05T17:16:11.000Z</time>
      </trkpt>
      <trkpt lat="48.83455" lon="-0.87496">
        <ele>194.008523</ele>
        <time>2021-09-05T17:16:18.000Z</time>
      </trkpt>
      <trkpt lat="48.83428" lon="-0.87447">
        <ele>194.008523</ele>
        <time>2021-09-05T17:16:26.000Z</time>
      </trkpt>
      <trkpt lat="48.83411" lon="-0.87424">
        <ele>194.008523</ele>
        <time>2021-09-05T17:16:32.000Z</time>
      </trkpt>
      <trkpt lat="48.83394" lon="-0.87408">
        <ele>194.008523</ele>
        <time>2021-09-05T17:16:38.000Z</time>
      </trkpt>
      <trkpt lat="48.8338" lon="-0.87394">
        <ele>194.008523</ele>
        <time>2021-09-05T17:16:44.000Z</time>
      </trkpt>
      <trkpt lat="48.83371" lon="-0.87386">
        <ele>194.008523</ele>
        <time>2021-09-05T17:16:50.000Z</time>
      </trkpt>
      <trkpt lat="48.83369" lon="-0.87383">
        <ele>194.008523</ele>
        <time>2021-09-05T17:16:53.000Z</time>
      </trkpt>
    </trkseg>
  </trk>
  <trk>
    <name><![CDATA[Étape 2 : Vire - Mortagne-au-Perche]]></name>
    <extensions>
      <line xmlns="http://www.topografix.com/GPX/gpx_style/0/2">
        <color>00FF00</color>
        <width>4</width>
      </line>
    </extensions>
    <trkseg>
      <trkpt lat="48.83329" lon="-0.87343">
        <ele>220.294332</ele>
        <time>2021-09-06T06:40:53.000Z</time>
      </trkpt>
      <trkpt lat="48.83329" lon="-0.87343">
        <ele>220.294332</ele>
        <time>2021-09-06T06:40:54.000Z</time>
      </trkpt>
      <trkpt lat="48.83328" lon="-0.87343">
        <ele>220.294332</ele>
        <time>2021-09-06T06:45:05.000Z</time>
      </trkpt>
      <trkpt lat="48.83334" lon="-0.87341">
        <ele>220.294332</ele>
        <time>2021-09-06T06:49:28.000Z</time>
      </trkpt>
      <trkpt lat="48.83334" lon="-0.87338">
        <ele>220.294332</ele>
        <time>2021-09-06T06:49:30.000Z</time>
      </trkpt>
      <trkpt lat="48.83334" lon="-0.87337">
        <ele>220.294332</ele>
        <time>2021-09-06T06:49:33.000Z</time>
      </trkpt>
      <trkpt lat="48.83328" lon="-0.87324">
        <ele>220.294332</ele>
        <time>2021-09-06T06:50:18.000Z</time>
      </trkpt>
      <trkpt lat="48.83326" lon="-0.8732">
        <ele>220.294332</ele>
        <time>2021-09-06T06:50:20.000Z</time>
      </trkpt>
      <trkpt lat="48.83321" lon="-0.87308">
        <ele>220.294332</ele>
        <time>2021-09-06T06:50:27.000Z</time>
      </trkpt>
      <trkpt lat="48.83316" lon="-0.87302">
        <ele>220.294332</ele>
        <time>2021-09-06T06:50:32.000Z</time>
      </trkpt>
      <trkpt lat="48.83313" lon="-0.873">
        <ele>220.294332</ele>
        <time>2021-09-06T06:50:35.000Z</time>
      </trkpt>
      <trkpt lat="48.83311" lon="-0.87298">
        <ele>220.294332</ele>
        <time>2021-09-06T06:50:37.000Z</time>
      </trkpt>
      <trkpt lat="48.83309" lon="-0.87295">
        <ele>220.294332</ele>
        <time>2021-09-06T06:50:39.000Z</time>
      </trkpt>
      <trkpt lat="48.83306" lon="-0.87293">
        <ele>220.294332</ele>
        <time>2021-09-06T06:50:41.000Z</time>
      </trkpt>
      <trkpt lat="48.83306" lon="-0.87292">
        <ele>220.294332</ele>
        <time>2021-09-06T06:50:42.000Z</time>
      </trkpt>
      <trkpt lat="48.83305" lon="-0.87287">
        <ele>220.294332</ele>
        <time>2021-09-06T06:50:45.000Z</time>
      </trkpt>
      <trkpt lat="48.83299" lon="-0.87277">
        <ele>220.294332</ele>
        <time>2021-09-06T06:50:51.000Z</time>
      </trkpt>
      <trkpt lat="48.83299" lon="-0.87274">
        <ele>220.294332</ele>
        <time>2021-09-06T06:50:52.000Z</time>
      </trkpt>
      <trkpt lat="48.83295" lon="-0.87263">
        <ele>220.294332</ele>
        <time>2021-09-06T06:50:57.000Z</time>
      </trkpt>
      <trkpt lat="48.83294" lon="-0.87257">
        <ele>220.294332</ele>
        <time>2021-09-06T06:51:00.000Z</time>
      </trkpt>
      <trkpt lat="48.83293" lon="-0.87254">
        <ele>220.294332</ele>
        <time>2021-09-06T06:51:02.000Z</time>
      </trkpt>
      <trkpt lat="48.83291" lon="-0.87252">
        <ele>220.294332</ele>
        <time>2021-09-06T06:51:03.000Z</time>
      </trkpt>
      <trkpt lat="48.83286" lon="-0.87244">
        <ele>220.294332</ele>
        <time>2021-09-06T06:51:07.000Z</time>
      </trkpt>
      <trkpt lat="48.83283" lon="-0.8724">
        <ele>220.413082</ele>
        <time>2021-09-06T06:51:09.000Z</time>
      </trkpt>
      <trkpt lat="48.83274" lon="-0.87219">
        <ele>221.032665</ele>
        <time>2021-09-06T06:51:19.000Z</time>
      </trkpt>
      <trkpt lat="48.83271" lon="-0.87213">
        <ele>221.24752</ele>
        <time>2021-09-06T06:51:23.000Z</time>
      </trkpt>
      <trkpt lat="48.8327" lon="-0.87212">
        <ele>221.277459</ele>
        <time>2021-09-06T06:51:25.000Z</time>
      </trkpt>
      <trkpt lat="48.8327" lon="-0.87209">
        <ele>221.339709</ele>
        <time>2021-09-06T06:52:02.000Z</time>
      </trkpt>
      <trkpt lat="48.83269" lon="-0.87205">
        <ele>221.459342</ele>
        <time>2021-09-06T06:52:04.000Z</time>
      </trkpt>
      <trkpt lat="48.83265" lon="-0.87184">
        <ele>222.018428</ele>
        <time>2021-09-06T06:52:10.000Z</time>
      </trkpt>
      <trkpt lat="48.83256" lon="-0.87156">
        <ele>222.779938</ele>
        <time>2021-09-06T06:52:16.000Z</time>
      </trkpt>
      <trkpt lat="48.83242" lon="-0.87118">
        <ele>223.867913</ele>
        <time>2021-09-06T06:52:25.000Z</time>
      </trkpt>
      <trkpt lat="48.8324" lon="-0.87103">
        <ele>224.260949</ele>
        <time>2021-09-06T06:52:30.000Z</time>
      </trkpt>
      <trkpt lat="48.83241" lon="-0.87091">
        <ele>224.560102</ele>
        <time>2021-09-06T06:52:34.000Z</time>
      </trkpt>
      <trkpt lat="48.83239" lon="-0.87086">
        <ele>224.71979</ele>
        <time>2021-09-06T06:52:36.000Z</time>
      </trkpt>
      <trkpt lat="48.8323" lon="-0.87073">
        <ele>225.195906</ele>
        <time>2021-09-06T06:52:41.000Z</time>
      </trkpt>
      <trkpt lat="48.83214" lon="-0.87049">
        <ele>226.050319</ele>
        <time>2021-09-06T06:52:48.000Z</time>
      </trkpt>
      <trkpt lat="48.83193" lon="-0.87023">
        <ele>227.072347</ele>
        <time>2021-09-06T06:52:55.000Z</time>
      </trkpt>
      <trkpt lat="48.83178" lon="-0.87002">
        <ele>227.282007</ele>
        <time>2021-09-06T06:53:00.000Z</time>
      </trkpt>
      <trkpt lat="48.8316" lon="-0.86974">
        <ele>227.452937</ele>
        <time>2021-09-06T06:53:06.000Z</time>
      </trkpt>
      <trkpt lat="48.83155" lon="-0.86964">
        <ele>227.508327</ele>
        <time>2021-09-06T06:53:08.000Z</time>
      </trkpt>
      <trkpt lat="48.83138" lon="-0.86933">
        <ele>227.681131</ele>
        <time>2021-09-06T06:53:14.000Z</time>
      </trkpt>
      <trkpt lat="48.83136" lon="-0.86927">
        <ele>227.709512</ele>
        <time>2021-09-06T06:53:15.000Z</time>
      </trkpt>
      <trkpt lat="48.83121" lon="-0.86893">
        <ele>227.88196</ele>
        <time>2021-09-06T06:53:21.000Z</time>
      </trkpt>
      <trkpt lat="48.83112" lon="-0.86874">
        <ele>227.98566</ele>
        <time>2021-09-06T06:53:24.000Z</time>
      </trkpt>
      <trkpt lat="48.83104" lon="-0.86862">
        <ele>228.058959</ele>
        <time>2021-09-06T06:53:26.000Z</time>
      </trkpt>
      <trkpt lat="48.83092" lon="-0.86845">
        <ele>228.166646</ele>
        <time>2021-09-06T06:53:29.000Z</time>
      </trkpt>
      <trkpt lat="48.83083" lon="-0.86834">
        <ele>228.240241</ele>
        <time>2021-09-06T06:53:31.000Z</time>
      </trkpt>
      <trkpt lat="48.83066" lon="-0.86809">
        <ele>228.217049</ele>
        <time>2021-09-06T06:53:35.000Z</time>
      </trkpt>
      <trkpt lat="48.83058" lon="-0.86796">
        <ele>228.059069</ele>
        <time>2021-09-06T06:53:37.000Z</time>
      </trkpt>
      <trkpt lat="48.83041" lon="-0.86768">
        <ele>227.72665</ele>
        <time>2021-09-06T06:53:42.000Z</time>
      </trkpt>
      <trkpt lat="48.83018" lon="-0.86736">
        <ele>227.294038</ele>
        <time>2021-09-06T06:53:49.000Z</time>
      </trkpt>
      <trkpt lat="48.83009" lon="-0.86729">
        <ele>227.155505</ele>
        <time>2021-09-06T06:53:51.000Z</time>
      </trkpt>
      <trkpt lat="48.82996" lon="-0.86717">
        <ele>226.947019</ele>
        <time>2021-09-06T06:53:54.000Z</time>
      </trkpt>
      <trkpt lat="48.82988" lon="-0.8671">
        <ele>226.81889</ele>
        <time>2021-09-06T06:53:56.000Z</time>
      </trkpt>
      <trkpt lat="48.82979" lon="-0.86704">
        <ele>226.687817</ele>
        <time>2021-09-06T06:53:58.000Z</time>
      </trkpt>
      <trkpt lat="48.82962" lon="-0.86691">
        <ele>226.427051</ele>
        <time>2021-09-06T06:54:02.000Z</time>
      </trkpt>
      <trkpt lat="48.82946" lon="-0.86681">
        <ele>226.188784</ele>
        <time>2021-09-06T06:54:06.000Z</time>
      </trkpt>
      <trkpt lat="48.82922" lon="-0.86661">
        <ele>225.765414</ele>
        <time>2021-09-06T06:54:13.000Z</time>
      </trkpt>
      <trkpt lat="48.82908" lon="-0.86642">
        <ele>225.324047</ele>
        <time>2021-09-06T06:54:19.000Z</time>
      </trkpt>
      <trkpt lat="48.829" lon="-0.8662">
        <ele>224.929303</ele>
        <time>2021-09-06T06:54:24.000Z</time>
      </trkpt>
      <trkpt lat="48.8289" lon="-0.86585">
        <ele>224.332147</ele>
        <time>2021-09-06T06:54:29.000Z</time>
      </trkpt>
      <trkpt lat="48.82886" lon="-0.86578">
        <ele>224.193882</ele>
        <time>2021-09-06T06:54:30.000Z</time>
      </trkpt>
      <trkpt lat="48.8287" lon="-0.86554">
        <ele>223.651409</ele>
        <time>2021-09-06T06:54:34.000Z</time>
      </trkpt>
      <trkpt lat="48.82843" lon="-0.86525">
        <ele>222.868269</ele>
        <time>2021-09-06T06:54:40.000Z</time>
      </trkpt>
      <trkpt lat="48.82822" lon="-0.86506">
        <ele>222.295589</ele>
        <time>2021-09-06T06:54:44.000Z</time>
      </trkpt>
      <trkpt lat="48.82813" lon="-0.86494">
        <ele>222.004024</ele>
        <time>2021-09-06T06:54:46.000Z</time>
      </trkpt>
      <trkpt lat="48.82778" lon="-0.86451">
        <ele>221.463065</ele>
        <time>2021-09-06T06:54:53.000Z</time>
      </trkpt>
      <trkpt lat="48.82754" lon="-0.8642">
        <ele>221.292143</ele>
        <time>2021-09-06T06:54:58.000Z</time>
      </trkpt>
      <trkpt lat="48.82749" lon="-0.86413">
        <ele>221.256867</ele>
        <time>2021-09-06T06:54:59.000Z</time>
      </trkpt>
      <trkpt lat="48.8272" lon="-0.86363">
        <ele>221.019733</ele>
        <time>2021-09-06T06:55:06.000Z</time>
      </trkpt>
      <trkpt lat="48.82717" lon="-0.86355">
        <ele>220.987042</ele>
        <time>2021-09-06T06:55:07.000Z</time>
      </trkpt>
      <trkpt lat="48.8271" lon="-0.86341">
        <ele>220.925191</ele>
        <time>2021-09-06T06:55:09.000Z</time>
      </trkpt>
      <trkpt lat="48.82704" lon="-0.86327">
        <ele>220.866349</ele>
        <time>2021-09-06T06:55:11.000Z</time>
      </trkpt>
      <trkpt lat="48.82695" lon="-0.86311">
        <ele>220.789627</ele>
        <time>2021-09-06T06:55:15.000Z</time>
      </trkpt>
      <trkpt lat="48.82693" lon="-0.86308">
        <ele>220.776524</ele>
        <time>2021-09-06T06:55:16.000Z</time>
      </trkpt>
      <trkpt lat="48.82692" lon="-0.86298">
        <ele>220.73996</ele>
        <time>2021-09-06T06:55:19.000Z</time>
      </trkpt>
      <trkpt lat="48.82687" lon="-0.86275">
        <ele>220.652886</ele>
        <time>2021-09-06T06:55:24.000Z</time>
      </trkpt>
      <trkpt lat="48.82679" lon="-0.8625">
        <ele>221.029964</ele>
        <time>2021-09-06T06:55:29.000Z</time>
      </trkpt>
      <trkpt lat="48.82671" lon="-0.86228">
        <ele>221.415943</ele>
        <time>2021-09-06T06:55:34.000Z</time>
      </trkpt>
      <trkpt lat="48.82667" lon="-0.8621">
        <ele>221.697868</ele>
        <time>2021-09-06T06:55:38.000Z</time>
      </trkpt>
      <trkpt lat="48.8266" lon="-0.86185">
        <ele>222.117494</ele>
        <time>2021-09-06T06:55:43.000Z</time>
      </trkpt>
      <trkpt lat="48.82652" lon="-0.86164">
        <ele>222.473733</ele>
        <time>2021-09-06T06:55:48.000Z</time>
      </trkpt>
      <trkpt lat="48.82646" lon="-0.86139">
        <ele>222.879017</ele>
        <time>2021-09-06T06:55:54.000Z</time>
      </trkpt>
      <trkpt lat="48.82639" lon="-0.86119">
        <ele>223.225276</ele>
        <time>2021-09-06T06:55:59.000Z</time>
      </trkpt>
      <trkpt lat="48.82631" lon="-0.86081">
        <ele>223.829944</ele>
        <time>2021-09-06T06:56:07.000Z</time>
      </trkpt>
      <trkpt lat="48.82623" lon="-0.86042">
        <ele>224.455486</ele>
        <time>2021-09-06T06:56:15.000Z</time>
      </trkpt>
      <trkpt lat="48.82612" lon="-0.86008">
        <ele>225.102594</ele>
        <time>2021-09-06T06:56:22.000Z</time>
      </trkpt>
      <trkpt lat="48.82605" lon="-0.85986">
        <ele>225.601043</ele>
        <time>2021-09-06T06:56:27.000Z</time>
      </trkpt>
      <trkpt lat="48.82595" lon="-0.85945">
        <ele>226.50801</ele>
        <time>2021-09-06T06:56:35.000Z</time>
      </trkpt>
      <trkpt lat="48.82587" lon="-0.85912">
        <ele>227.25111</ele>
        <time>2021-09-06T06:56:42.000Z</time>
      </trkpt>
      <trkpt lat="48.8258" lon="-0.85882">
        <ele>227.904358</ele>
        <time>2021-09-06T06:56:48.000Z</time>
      </trkpt>
      <trkpt lat="48.82568" lon="-0.85845">
        <ele>228.771942</ele>
        <time>2021-09-06T06:56:55.000Z</time>
      </trkpt>
      <trkpt lat="48.82556" lon="-0.85805">
        <ele>229.686082</ele>
        <time>2021-09-06T06:57:02.000Z</time>
      </trkpt>
      <trkpt lat="48.82544" lon="-0.85745">
        <ele>230.829264</ele>
        <time>2021-09-06T06:57:12.000Z</time>
      </trkpt>
      <trkpt lat="48.82542" lon="-0.85733">
        <ele>231.02146</ele>
        <time>2021-09-06T06:57:14.000Z</time>
      </trkpt>
      <trkpt lat="48.82538" lon="-0.85707">
        <ele>231.423028</ele>
        <time>2021-09-06T06:57:18.000Z</time>
      </trkpt>
      <trkpt lat="48.82535" lon="-0.85665">
        <ele>232.058572</ele>
        <time>2021-09-06T06:57:24.000Z</time>
      </trkpt>
      <trkpt lat="48.82534" lon="-0.85651">
        <ele>232.277693</ele>
        <time>2021-09-06T06:57:26.000Z</time>
      </trkpt>
      <trkpt lat="48.82529" lon="-0.85586">
        <ele>233.260604</ele>
        <time>2021-09-06T06:57:35.000Z</time>
      </trkpt>
      <trkpt lat="48.82524" lon="-0.85521">
        <ele>234.253036</ele>
        <time>2021-09-06T06:57:44.000Z</time>
      </trkpt>
      <trkpt lat="48.82521" lon="-0.85471">
        <ele>234.925303</ele>
        <time>2021-09-06T06:57:52.000Z</time>
      </trkpt>
      <trkpt lat="48.82517" lon="-0.85429">
        <ele>235.438059</ele>
        <time>2021-09-06T06:57:59.000Z</time>
      </trkpt>
      <trkpt lat="48.82513" lon="-0.85384">
        <ele>235.98005</ele>
        <time>2021-09-06T06:58:06.000Z</time>
      </trkpt>
      <trkpt lat="48.82509" lon="-0.85339">
        <ele>236.537232</ele>
        <time>2021-09-06T06:58:12.000Z</time>
      </trkpt>
      <trkpt lat="48.82499" lon="-0.85261">
        <ele>237.496975</ele>
        <time>2021-09-06T06:58:21.000Z</time>
      </trkpt>
      <trkpt lat="48.82487" lon="-0.85223">
        <ele>237.946941</ele>
        <time>2021-09-06T06:58:26.000Z</time>
      </trkpt>
      <trkpt lat="48.82484" lon="-0.85216">
        <ele>238.001239</ele>
        <time>2021-09-06T06:58:27.000Z</time>
      </trkpt>
      <trkpt lat="48.82456" lon="-0.85171">
        <ele>238.411371</ele>
        <time>2021-09-06T06:58:35.000Z</time>
      </trkpt>
      <trkpt lat="48.82445" lon="-0.85171">
        <ele>238.517993</ele>
        <time>2021-09-06T06:58:37.000Z</time>
      </trkpt>
      <trkpt lat="48.8244" lon="-0.85173">
        <ele>238.5737</ele>
        <time>2021-09-06T06:58:38.000Z</time>
      </trkpt>
      <trkpt lat="48.824" lon="-0.85187">
        <ele>238.980908</ele>
        <time>2021-09-06T06:58:45.000Z</time>
      </trkpt>
      <trkpt lat="48.82342" lon="-0.85207">
        <ele>239.572841</ele>
        <time>2021-09-06T06:58:55.000Z</time>
      </trkpt>
      <trkpt lat="48.82307" lon="-0.85219">
        <ele>239.7605</ele>
        <time>2021-09-06T06:59:01.000Z</time>
      </trkpt>
      <trkpt lat="48.82267" lon="-0.85233">
        <ele>239.902562</ele>
        <time>2021-09-06T06:59:08.000Z</time>
      </trkpt>
      <trkpt lat="48.82226" lon="-0.85248">
        <ele>240.048109</ele>
        <time>2021-09-06T06:59:15.000Z</time>
      </trkpt>
      <trkpt lat="48.82178" lon="-0.85276">
        <ele>240.224529</ele>
        <time>2021-09-06T06:59:23.000Z</time>
      </trkpt>
      <trkpt lat="48.82138" lon="-0.85287">
        <ele>240.243425</ele>
        <time>2021-09-06T06:59:29.000Z</time>
      </trkpt>
      <trkpt lat="48.8209" lon="-0.85294">
        <ele>240.130655</ele>
        <time>2021-09-06T06:59:36.000Z</time>
      </trkpt>
      <trkpt lat="48.82036" lon="-0.85301">
        <ele>240.005818</ele>
        <time>2021-09-06T06:59:44.000Z</time>
      </trkpt>
      <trkpt lat="48.82029" lon="-0.85302">
        <ele>239.990224</ele>
        <time>2021-09-06T06:59:45.000Z</time>
      </trkpt>
      <trkpt lat="48.81996" lon="-0.85301">
        <ele>239.912773</ele>
        <time>2021-09-06T06:59:50.000Z</time>
      </trkpt>
      <trkpt lat="48.81989" lon="-0.85298">
        <ele>239.897536</ele>
        <time>2021-09-06T06:59:51.000Z</time>
      </trkpt>
      <trkpt lat="48.81978" lon="-0.8529">
        <ele>239.860849</ele>
        <time>2021-09-06T06:59:53.000Z</time>
      </trkpt>
      <trkpt lat="48.81973" lon="-0.85283">
        <ele>239.833639</ele>
        <time>2021-09-06T06:59:54.000Z</time>
      </trkpt>
      <trkpt lat="48.81965" lon="-0.85269">
        <ele>239.780357</ele>
        <time>2021-09-06T06:59:56.000Z</time>
      </trkpt>
      <trkpt lat="48.81959" lon="-0.85253">
        <ele>239.725514</ele>
        <time>2021-09-06T06:59:58.000Z</time>
      </trkpt>
      <trkpt lat="48.81933" lon="-0.85183">
        <ele>239.495069</ele>
        <time>2021-09-06T07:00:06.000Z</time>
      </trkpt>
      <trkpt lat="48.81907" lon="-0.85118">
        <ele>239.276944</ele>
        <time>2021-09-06T07:00:13.000Z</time>
      </trkpt>
      <trkpt lat="48.81884" lon="-0.85063">
        <ele>239.084097</ele>
        <time>2021-09-06T07:00:19.000Z</time>
      </trkpt>
      <trkpt lat="48.8186" lon="-0.85006">
        <ele>238.610264</ele>
        <time>2021-09-06T07:00:25.000Z</time>
      </trkpt>
      <trkpt lat="48.81836" lon="-0.84932">
        <ele>238.030782</ele>
        <time>2021-09-06T07:00:32.000Z</time>
      </trkpt>
      <trkpt lat="48.81817" lon="-0.84879">
        <ele>237.607647</ele>
        <time>2021-09-06T07:00:37.000Z</time>
      </trkpt>
      <trkpt lat="48.81797" lon="-0.84828">
        <ele>237.191607</ele>
        <time>2021-09-06T07:00:42.000Z</time>
      </trkpt>
      <trkpt lat="48.81784" lon="-0.84815">
        <ele>236.980933</ele>
        <time>2021-09-06T07:00:44.000Z</time>
      </trkpt>
      <trkpt lat="48.81777" lon="-0.84812">
        <ele>236.872122</ele>
        <time>2021-09-06T07:00:45.000Z</time>
      </trkpt>
      <trkpt lat="48.81768" lon="-0.84813">
        <ele>236.755585</ele>
        <time>2021-09-06T07:00:46.000Z</time>
      </trkpt>
      <trkpt lat="48.8176" lon="-0.84817">
        <ele>236.638754</ele>
        <time>2021-09-06T07:00:47.000Z</time>
      </trkpt>
      <trkpt lat="48.81753" lon="-0.84823">
        <ele>236.520033</ele>
        <time>2021-09-06T07:00:48.000Z</time>
      </trkpt>
      <trkpt lat="48.81731" lon="-0.84843">
        <ele>236.16266</ele>
        <time>2021-09-06T07:00:51.000Z</time>
      </trkpt>
      <trkpt lat="48.81715" lon="-0.84848">
        <ele>235.928199</ele>
        <time>2021-09-06T07:00:53.000Z</time>
      </trkpt>
      <trkpt lat="48.81706" lon="-0.84848">
        <ele>235.811739</ele>
        <time>2021-09-06T07:00:54.000Z</time>
      </trkpt>
      <trkpt lat="48.81691" lon="-0.84846">
        <ele>235.588966</ele>
        <time>2021-09-06T07:00:56.000Z</time>
      </trkpt>
      <trkpt lat="48.81677" lon="-0.84843">
        <ele>235.390339</ele>
        <time>2021-09-06T07:00:58.000Z</time>
      </trkpt>
      <trkpt lat="48.81645" lon="-0.84832">
        <ele>234.940022</ele>
        <time>2021-09-06T07:01:03.000Z</time>
      </trkpt>
      <trkpt lat="48.81612" lon="-0.84815">
        <ele>234.633607</ele>
        <time>2021-09-06T07:01:10.000Z</time>
      </trkpt>
      <trkpt lat="48.81562" lon="-0.8479">
        <ele>234.581084</ele>
        <time>2021-09-06T07:01:21.000Z</time>
      </trkpt>
      <trkpt lat="48.81512" lon="-0.84764">
        <ele>234.527015</ele>
        <time>2021-09-06T07:01:32.000Z</time>
      </trkpt>
      <trkpt lat="48.81478" lon="-0.84747">
        <ele>234.490951</ele>
        <time>2021-09-06T07:01:39.000Z</time>
      </trkpt>
      <trkpt lat="48.81435" lon="-0.84724">
        <ele>234.51848</ele>
        <time>2021-09-06T07:01:48.000Z</time>
      </trkpt>
      <trkpt lat="48.8143" lon="-0.8472">
        <ele>234.530818</ele>
        <time>2021-09-06T07:01:49.000Z</time>
      </trkpt>
      <trkpt lat="48.81426" lon="-0.84716">
        <ele>234.542843</ele>
        <time>2021-09-06T07:01:50.000Z</time>
      </trkpt>
      <trkpt lat="48.81419" lon="-0.84706">
        <ele>234.566424</ele>
        <time>2021-09-06T07:01:52.000Z</time>
      </trkpt>
      <trkpt lat="48.81416" lon="-0.847">
        <ele>234.578571</ele>
        <time>2021-09-06T07:01:53.000Z</time>
      </trkpt>
      <trkpt lat="48.81414" lon="-0.84693">
        <ele>234.590782</ele>
        <time>2021-09-06T07:01:54.000Z</time>
      </trkpt>
      <trkpt lat="48.81409" lon="-0.84663">
        <ele>234.639592</ele>
        <time>2021-09-06T07:01:58.000Z</time>
      </trkpt>
      <trkpt lat="48.81407" lon="-0.84649">
        <ele>234.663833</ele>
        <time>2021-09-06T07:02:00.000Z</time>
      </trkpt>
      <trkpt lat="48.81403" lon="-0.84635">
        <ele>234.688287</ele>
        <time>2021-09-06T07:02:02.000Z</time>
      </trkpt>
      <trkpt lat="48.81399" lon="-0.8463">
        <ele>234.700802</ele>
        <time>2021-09-06T07:02:03.000Z</time>
      </trkpt>
      <trkpt lat="48.81394" lon="-0.84626">
        <ele>234.713581</ele>
        <time>2021-09-06T07:02:04.000Z</time>
      </trkpt>
      <trkpt lat="48.81384" lon="-0.84623">
        <ele>234.738276</ele>
        <time>2021-09-06T07:02:06.000Z</time>
      </trkpt>
      <trkpt lat="48.81357" lon="-0.84628">
        <ele>234.804835</ele>
        <time>2021-09-06T07:02:11.000Z</time>
      </trkpt>
      <trkpt lat="48.81306" lon="-0.84641">
        <ele>234.862699</ele>
        <time>2021-09-06T07:02:20.000Z</time>
      </trkpt>
      <trkpt lat="48.81258" lon="-0.84651">
        <ele>234.692716</ele>
        <time>2021-09-06T07:02:28.000Z</time>
      </trkpt>
      <trkpt lat="48.81221" lon="-0.84657">
        <ele>234.561436</ele>
        <time>2021-09-06T07:02:34.000Z</time>
      </trkpt>
      <trkpt lat="48.81208" lon="-0.84653">
        <ele>234.517842</ele>
        <time>2021-09-06T07:02:36.000Z</time>
      </trkpt>
      <trkpt lat="48.81198" lon="-0.8464">
        <ele>234.470796</ele>
        <time>2021-09-06T07:02:38.000Z</time>
      </trkpt>
      <trkpt lat="48.81194" lon="-0.84631">
        <ele>234.446533</ele>
        <time>2021-09-06T07:02:39.000Z</time>
      </trkpt>
      <trkpt lat="48.81173" lon="-0.84578">
        <ele>234.3036</ele>
        <time>2021-09-06T07:02:45.000Z</time>
      </trkpt>
      <trkpt lat="48.81169" lon="-0.8457">
        <ele>234.280781</ele>
        <time>2021-09-06T07:02:46.000Z</time>
      </trkpt>
      <trkpt lat="48.81148" lon="-0.84536">
        <ele>234.342703</ele>
        <time>2021-09-06T07:02:51.000Z</time>
      </trkpt>
      <trkpt lat="48.81115" lon="-0.84479">
        <ele>234.463394</ele>
        <time>2021-09-06T07:03:00.000Z</time>
      </trkpt>
      <trkpt lat="48.81094" lon="-0.84456">
        <ele>234.526041</ele>
        <time>2021-09-06T07:03:05.000Z</time>
      </trkpt>
      <trkpt lat="48.8107" lon="-0.84445">
        <ele>234.587677</ele>
        <time>2021-09-06T07:03:10.000Z</time>
      </trkpt>
      <trkpt lat="48.81041" lon="-0.8444">
        <ele>234.658368</ele>
        <time>2021-09-06T07:03:16.000Z</time>
      </trkpt>
      <trkpt lat="48.81013" lon="-0.84427">
        <ele>234.821104</ele>
        <time>2021-09-06T07:03:22.000Z</time>
      </trkpt>
      <trkpt lat="48.80984" lon="-0.84402">
        <ele>235.247532</ele>
        <time>2021-09-06T07:03:29.000Z</time>
      </trkpt>
      <trkpt lat="48.80955" lon="-0.84386">
        <ele>235.650206</ele>
        <time>2021-09-06T07:03:36.000Z</time>
      </trkpt>
      <trkpt lat="48.80923" lon="-0.84378">
        <ele>236.068244</ele>
        <time>2021-09-06T07:03:44.000Z</time>
      </trkpt>
      <trkpt lat="48.80919" lon="-0.84378">
        <ele>236.120772</ele>
        <time>2021-09-06T07:03:45.000Z</time>
      </trkpt>
      <trkpt lat="48.80889" lon="-0.84369">
        <ele>236.524412</ele>
        <time>2021-09-06T07:03:53.000Z</time>
      </trkpt>
      <trkpt lat="48.8085" lon="-0.84355">
        <ele>237.036112</ele>
        <time>2021-09-06T07:04:03.000Z</time>
      </trkpt>
      <trkpt lat="48.80816" lon="-0.84341">
        <ele>237.662743</ele>
        <time>2021-09-06T07:04:12.000Z</time>
      </trkpt>
      <trkpt lat="48.80785" lon="-0.84329">
        <ele>238.218394</ele>
        <time>2021-09-06T07:04:20.000Z</time>
      </trkpt>
      <trkpt lat="48.80757" lon="-0.84317">
        <ele>238.723397</ele>
        <time>2021-09-06T07:04:27.000Z</time>
      </trkpt>
      <trkpt lat="48.80717" lon="-0.84299">
        <ele>239.452719</ele>
        <time>2021-09-06T07:04:37.000Z</time>
      </trkpt>
      <trkpt lat="48.80685" lon="-0.84287">
        <ele>240.01908</ele>
        <time>2021-09-06T07:04:45.000Z</time>
      </trkpt>
      <trkpt lat="48.80651" lon="-0.84275">
        <ele>240.541975</ele>
        <time>2021-09-06T07:04:53.000Z</time>
      </trkpt>
      <trkpt lat="48.80612" lon="-0.84274">
        <ele>241.089564</ele>
        <time>2021-09-06T07:05:01.000Z</time>
      </trkpt>
      <trkpt lat="48.80571" lon="-0.84277">
        <ele>241.677343</ele>
        <time>2021-09-06T07:05:10.000Z</time>
      </trkpt>
      <trkpt lat="48.80537" lon="-0.84281">
        <ele>242.154633</ele>
        <time>2021-09-06T07:05:17.000Z</time>
      </trkpt>
      <trkpt lat="48.80512" lon="-0.84284">
        <ele>242.499161</ele>
        <time>2021-09-06T07:05:22.000Z</time>
      </trkpt>
      <trkpt lat="48.80503" lon="-0.84287">
        <ele>242.636919</ele>
        <time>2021-09-06T07:05:24.000Z</time>
      </trkpt>
      <trkpt lat="48.8047" lon="-0.84305">
        <ele>243.018329</ele>
        <time>2021-09-06T07:05:31.000Z</time>
      </trkpt>
      <trkpt lat="48.80422" lon="-0.84336">
        <ele>243.546092</ele>
        <time>2021-09-06T07:05:41.000Z</time>
      </trkpt>
      <trkpt lat="48.80372" lon="-0.84368">
        <ele>244.101063</ele>
        <time>2021-09-06T07:05:51.000Z</time>
      </trkpt>
      <trkpt lat="48.80332" lon="-0.84392">
        <ele>244.541629</ele>
        <time>2021-09-06T07:05:59.000Z</time>
      </trkpt>
      <trkpt lat="48.80305" lon="-0.84401">
        <ele>245.461294</ele>
        <time>2021-09-06T07:06:05.000Z</time>
      </trkpt>
      <trkpt lat="48.80279" lon="-0.84405">
        <ele>246.340395</ele>
        <time>2021-09-06T07:06:12.000Z</time>
      </trkpt>
      <trkpt lat="48.80249" lon="-0.84407">
        <ele>247.346319</ele>
        <time>2021-09-06T07:06:22.000Z</time>
      </trkpt>
      <trkpt lat="48.80226" lon="-0.8441">
        <ele>248.138535</ele>
        <time>2021-09-06T07:06:31.000Z</time>
      </trkpt>
      <trkpt lat="48.802" lon="-0.84415">
        <ele>249.044402</ele>
        <time>2021-09-06T07:06:41.000Z</time>
      </trkpt>
      <trkpt lat="48.80168" lon="-0.84424">
        <ele>250.127571</ele>
        <time>2021-09-06T07:06:53.000Z</time>
      </trkpt>
      <trkpt lat="48.80145" lon="-0.84431">
        <ele>250.898937</ele>
        <time>2021-09-06T07:07:02.000Z</time>
      </trkpt>
      <trkpt lat="48.80123" lon="-0.84438">
        <ele>251.598386</ele>
        <time>2021-09-06T07:07:10.000Z</time>
      </trkpt>
      <trkpt lat="48.801" lon="-0.84442">
        <ele>252.299311</ele>
        <time>2021-09-06T07:07:17.000Z</time>
      </trkpt>
      <trkpt lat="48.8007" lon="-0.84441">
        <ele>253.218702</ele>
        <time>2021-09-06T07:07:26.000Z</time>
      </trkpt>
      <trkpt lat="48.80044" lon="-0.84438">
        <ele>254.005959</ele>
        <time>2021-09-06T07:07:33.000Z</time>
      </trkpt>
      <trkpt lat="48.80011" lon="-0.84432">
        <ele>255.002914</ele>
        <time>2021-09-06T07:07:41.000Z</time>
      </trkpt>
      <trkpt lat="48.79985" lon="-0.84431">
        <ele>255.797867</ele>
        <time>2021-09-06T07:07:46.000Z</time>
      </trkpt>
      <trkpt lat="48.79976" lon="-0.84432">
        <ele>256.074159</ele>
        <time>2021-09-06T07:07:48.000Z</time>
      </trkpt>
      <trkpt lat="48.79968" lon="-0.84431">
        <ele>256.172851</ele>
        <time>2021-09-06T07:07:50.000Z</time>
      </trkpt>
      <trkpt lat="48.79959" lon="-0.84426">
        <ele>256.23799</ele>
        <time>2021-09-06T07:07:52.000Z</time>
      </trkpt>
      <trkpt lat="48.79944" lon="-0.84416">
        <ele>256.345911</ele>
        <time>2021-09-06T07:07:55.000Z</time>
      </trkpt>
      <trkpt lat="48.79912" lon="-0.8438">
        <ele>256.614914</ele>
        <time>2021-09-06T07:08:02.000Z</time>
      </trkpt>
      <trkpt lat="48.79878" lon="-0.84331">
        <ele>256.932684</ele>
        <time>2021-09-06T07:08:10.000Z</time>
      </trkpt>
      <trkpt lat="48.79835" lon="-0.84268">
        <ele>257.337886</ele>
        <time>2021-09-06T07:08:20.000Z</time>
      </trkpt>
      <trkpt lat="48.79829" lon="-0.84252">
        <ele>257.410856</ele>
        <time>2021-09-06T07:08:22.000Z</time>
      </trkpt>
      <trkpt lat="48.79827" lon="-0.84235">
        <ele>257.482511</ele>
        <time>2021-09-06T07:08:24.000Z</time>
      </trkpt>
      <trkpt lat="48.79824" lon="-0.84219">
        <ele>257.547721</ele>
        <time>2021-09-06T07:08:26.000Z</time>
      </trkpt>
      <trkpt lat="48.79819" lon="-0.84206">
        <ele>257.608879</ele>
        <time>2021-09-06T07:08:28.000Z</time>
      </trkpt>
      <trkpt lat="48.79806" lon="-0.84195">
        <ele>257.697914</ele>
        <time>2021-09-06T07:08:31.000Z</time>
      </trkpt>
      <trkpt lat="48.79797" lon="-0.84189">
        <ele>257.758449</ele>
        <time>2021-09-06T07:08:33.000Z</time>
      </trkpt>
      <trkpt lat="48.79749" lon="-0.84159">
        <ele>258.079428</ele>
        <time>2021-09-06T07:08:43.000Z</time>
      </trkpt>
      <trkpt lat="48.79707" lon="-0.84139">
        <ele>258.349647</ele>
        <time>2021-09-06T07:08:51.000Z</time>
      </trkpt>
      <trkpt lat="48.79656" lon="-0.84122">
        <ele>258.712633</ele>
        <time>2021-09-06T07:09:00.000Z</time>
      </trkpt>
      <trkpt lat="48.79614" lon="-0.84101">
        <ele>259.030683</ele>
        <time>2021-09-06T07:09:08.000Z</time>
      </trkpt>
      <trkpt lat="48.79569" lon="-0.84076">
        <ele>259.375182</ele>
        <time>2021-09-06T07:09:17.000Z</time>
      </trkpt>
      <trkpt lat="48.79535" lon="-0.8405">
        <ele>259.654919</ele>
        <time>2021-09-06T07:09:25.000Z</time>
      </trkpt>
      <trkpt lat="48.79514" lon="-0.84024">
        <ele>259.833898</ele>
        <time>2021-09-06T07:09:32.000Z</time>
      </trkpt>
      <trkpt lat="48.79491" lon="-0.83993">
        <ele>260.012115</ele>
        <time>2021-09-06T07:09:40.000Z</time>
      </trkpt>
      <trkpt lat="48.79463" lon="-0.83966">
        <ele>260.204789</ele>
        <time>2021-09-06T07:09:47.000Z</time>
      </trkpt>
      <trkpt lat="48.79424" lon="-0.83931">
        <ele>260.465575</ele>
        <time>2021-09-06T07:09:55.000Z</time>
      </trkpt>
      <trkpt lat="48.79394" lon="-0.83898">
        <ele>260.681288</ele>
        <time>2021-09-06T07:10:01.000Z</time>
      </trkpt>
      <trkpt lat="48.7936" lon="-0.83851">
        <ele>260.705589</ele>
        <time>2021-09-06T07:10:07.000Z</time>
      </trkpt>
      <trkpt lat="48.79341" lon="-0.83827">
        <ele>260.621387</ele>
        <time>2021-09-06T07:10:10.000Z</time>
      </trkpt>
      <trkpt lat="48.79326" lon="-0.83815">
        <ele>260.566832</ele>
        <time>2021-09-06T07:10:12.000Z</time>
      </trkpt>
      <trkpt lat="48.79277" lon="-0.83783">
        <ele>260.384086</ele>
        <time>2021-09-06T07:10:19.000Z</time>
      </trkpt>
      <trkpt lat="48.79239" lon="-0.83765">
        <ele>260.248149</ele>
        <time>2021-09-06T07:10:25.000Z</time>
      </trkpt>
      <trkpt lat="48.79191" lon="-0.83749">
        <ele>260.219753</ele>
        <time>2021-09-06T07:10:33.000Z</time>
      </trkpt>
      <trkpt lat="48.79147" lon="-0.83734">
        <ele>260.273087</ele>
        <time>2021-09-06T07:10:41.000Z</time>
      </trkpt>
      <trkpt lat="48.79105" lon="-0.83713">
        <ele>260.325586</ele>
        <time>2021-09-06T07:10:50.000Z</time>
      </trkpt>
      <trkpt lat="48.79071" lon="-0.83695">
        <ele>260.368117</ele>
        <time>2021-09-06T07:10:58.000Z</time>
      </trkpt>
      <trkpt lat="48.79067" lon="-0.83693">
        <ele>260.373726</ele>
        <time>2021-09-06T07:10:59.000Z</time>
      </trkpt>
      <trkpt lat="48.79034" lon="-0.83678">
        <ele>260.400291</ele>
        <time>2021-09-06T07:11:06.000Z</time>
      </trkpt>
      <trkpt lat="48.79001" lon="-0.83666">
        <ele>260.407776</ele>
        <time>2021-09-06T07:11:14.000Z</time>
      </trkpt>
      <trkpt lat="48.78976" lon="-0.83659">
        <ele>260.413288</ele>
        <time>2021-09-06T07:11:21.000Z</time>
      </trkpt>
      <trkpt lat="48.78943" lon="-0.83642">
        <ele>260.420802</ele>
        <time>2021-09-06T07:11:28.000Z</time>
      </trkpt>
      <trkpt lat="48.78907" lon="-0.83624">
        <ele>260.428998</ele>
        <time>2021-09-06T07:11:34.000Z</time>
      </trkpt>
      <trkpt lat="48.7887" lon="-0.83609">
        <ele>260.407812</ele>
        <time>2021-09-06T07:11:40.000Z</time>
      </trkpt>
      <trkpt lat="48.78836" lon="-0.83595">
        <ele>260.217706</ele>
        <time>2021-09-06T07:11:46.000Z</time>
      </trkpt>
      <trkpt lat="48.78825" lon="-0.8359">
        <ele>260.157292</ele>
        <time>2021-09-06T07:11:48.000Z</time>
      </trkpt>
      <trkpt lat="48.78808" lon="-0.83584">
        <ele>260.06481</ele>
        <time>2021-09-06T07:11:51.000Z</time>
      </trkpt>
      <trkpt lat="48.7876" lon="-0.83565">
        <ele>259.798712</ele>
        <time>2021-09-06T07:12:00.000Z</time>
      </trkpt>
      <trkpt lat="48.78707" lon="-0.83548">
        <ele>259.508053</ele>
        <time>2021-09-06T07:12:09.000Z</time>
      </trkpt>
      <trkpt lat="48.78659" lon="-0.83537">
        <ele>259.579859</ele>
        <time>2021-09-06T07:12:17.000Z</time>
      </trkpt>
      <trkpt lat="48.78605" lon="-0.83524">
        <ele>259.720657</ele>
        <time>2021-09-06T07:12:26.000Z</time>
      </trkpt>
      <trkpt lat="48.78586" lon="-0.83516">
        <ele>259.770673</ele>
        <time>2021-09-06T07:12:29.000Z</time>
      </trkpt>
      <trkpt lat="48.78569" lon="-0.83505">
        <ele>259.820547</ele>
        <time>2021-09-06T07:12:32.000Z</time>
      </trkpt>
      <trkpt lat="48.78534" lon="-0.83486">
        <ele>259.916607</ele>
        <time>2021-09-06T07:12:38.000Z</time>
      </trkpt>
      <trkpt lat="48.7849" lon="-0.83473">
        <ele>259.963575</ele>
        <time>2021-09-06T07:12:46.000Z</time>
      </trkpt>
      <trkpt lat="48.78454" lon="-0.83455">
        <ele>259.990356</ele>
        <time>2021-09-06T07:12:53.000Z</time>
      </trkpt>
      <trkpt lat="48.78448" lon="-0.83443">
        <ele>259.997624</ele>
        <time>2021-09-06T07:12:55.000Z</time>
      </trkpt>
      <trkpt lat="48.78446" lon="-0.83435">
        <ele>260.001385</ele>
        <time>2021-09-06T07:12:56.000Z</time>
      </trkpt>
      <trkpt lat="48.78445" lon="-0.83427">
        <ele>260.005186</ele>
        <time>2021-09-06T07:12:57.000Z</time>
      </trkpt>
      <trkpt lat="48.78442" lon="-0.83393">
        <ele>260.021487</ele>
        <time>2021-09-06T07:13:01.000Z</time>
      </trkpt>
      <trkpt lat="48.78437" lon="-0.83324">
        <ele>260.053785</ele>
        <time>2021-09-06T07:13:08.000Z</time>
      </trkpt>
      <trkpt lat="48.78428" lon="-0.83233">
        <ele>259.493014</ele>
        <time>2021-09-06T07:13:16.000Z</time>
      </trkpt>
      <trkpt lat="48.78422" lon="-0.83149">
        <ele>258.779204</ele>
        <time>2021-09-06T07:13:23.000Z</time>
      </trkpt>
      <trkpt lat="48.7842" lon="-0.83124">
        <ele>258.568638</ele>
        <time>2021-09-06T07:13:25.000Z</time>
      </trkpt>
      <trkpt lat="48.78418" lon="-0.83032">
        <ele>257.785298</ele>
        <time>2021-09-06T07:13:32.000Z</time>
      </trkpt>
      <trkpt lat="48.78418" lon="-0.83018">
        <ele>257.665137</ele>
        <time>2021-09-06T07:13:33.000Z</time>
      </trkpt>
      <trkpt lat="48.7842" lon="-0.82923">
        <ele>256.812876</ele>
        <time>2021-09-06T07:13:40.000Z</time>
      </trkpt>
      <trkpt lat="48.7842" lon="-0.8291">
        <ele>256.689956</ele>
        <time>2021-09-06T07:13:41.000Z</time>
      </trkpt>
      <trkpt lat="48.78416" lon="-0.82883">
        <ele>256.44655</ele>
        <time>2021-09-06T07:13:43.000Z</time>
      </trkpt>
      <trkpt lat="48.78413" lon="-0.82871">
        <ele>256.326731</ele>
        <time>2021-09-06T07:13:44.000Z</time>
      </trkpt>
      <trkpt lat="48.78408" lon="-0.8286">
        <ele>256.209961</ele>
        <time>2021-09-06T07:13:45.000Z</time>
      </trkpt>
      <trkpt lat="48.78396" lon="-0.82843">
        <ele>255.988631</ele>
        <time>2021-09-06T07:13:47.000Z</time>
      </trkpt>
      <trkpt lat="48.78372" lon="-0.82821">
        <ele>255.6086</ele>
        <time>2021-09-06T07:13:51.000Z</time>
      </trkpt>
      <trkpt lat="48.78349" lon="-0.82805">
        <ele>255.353985</ele>
        <time>2021-09-06T07:13:56.000Z</time>
      </trkpt>
      <trkpt lat="48.78334" lon="-0.82791">
        <ele>255.581517</ele>
        <time>2021-09-06T07:14:01.000Z</time>
      </trkpt>
      <trkpt lat="48.78314" lon="-0.82775">
        <ele>255.882892</ele>
        <time>2021-09-06T07:14:09.000Z</time>
      </trkpt>
      <trkpt lat="48.78292" lon="-0.82755">
        <ele>256.217501</ele>
        <time>2021-09-06T07:14:18.000Z</time>
      </trkpt>
      <trkpt lat="48.78277" lon="-0.82737">
        <ele>256.472839</ele>
        <time>2021-09-06T07:14:25.000Z</time>
      </trkpt>
      <trkpt lat="48.78265" lon="-0.82713">
        <ele>256.73432</ele>
        <time>2021-09-06T07:14:33.000Z</time>
      </trkpt>
      <trkpt lat="48.78256" lon="-0.82691">
        <ele>256.960199</ele>
        <time>2021-09-06T07:14:40.000Z</time>
      </trkpt>
      <trkpt lat="48.78251" lon="-0.82671">
        <ele>257.149341</ele>
        <time>2021-09-06T07:14:46.000Z</time>
      </trkpt>
      <trkpt lat="48.78248" lon="-0.82644">
        <ele>257.384078</ele>
        <time>2021-09-06T07:14:53.000Z</time>
      </trkpt>
      <trkpt lat="48.78246" lon="-0.82612">
        <ele>257.665289</ele>
        <time>2021-09-06T07:15:01.000Z</time>
      </trkpt>
      <trkpt lat="48.78244" lon="-0.82584">
        <ele>258.199717</ele>
        <time>2021-09-06T07:15:08.000Z</time>
      </trkpt>
      <trkpt lat="48.78241" lon="-0.82552">
        <ele>258.836059</ele>
        <time>2021-09-06T07:15:16.000Z</time>
      </trkpt>
      <trkpt lat="48.78235" lon="-0.8252">
        <ele>259.494896</ele>
        <time>2021-09-06T07:15:24.000Z</time>
      </trkpt>
      <trkpt lat="48.78228" lon="-0.82485">
        <ele>260.212729</ele>
        <time>2021-09-06T07:15:32.000Z</time>
      </trkpt>
      <trkpt lat="48.78221" lon="-0.82453">
        <ele>260.890946</ele>
        <time>2021-09-06T07:15:39.000Z</time>
      </trkpt>
      <trkpt lat="48.78214" lon="-0.82416">
        <ele>261.640779</ele>
        <time>2021-09-06T07:15:46.000Z</time>
      </trkpt>
      <trkpt lat="48.7821" lon="-0.82399">
        <ele>261.991607</ele>
        <time>2021-09-06T07:15:49.000Z</time>
      </trkpt>
      <trkpt lat="48.78208" lon="-0.82387">
        <ele>262.246924</ele>
        <time>2021-09-06T07:15:51.000Z</time>
      </trkpt>
      <trkpt lat="48.78199" lon="-0.82345">
        <ele>263.086097</ele>
        <time>2021-09-06T07:15:57.000Z</time>
      </trkpt>
      <trkpt lat="48.78197" lon="-0.82338">
        <ele>263.141317</ele>
        <time>2021-09-06T07:15:58.000Z</time>
      </trkpt>
      <trkpt lat="48.78191" lon="-0.82305">
        <ele>263.371938</ele>
        <time>2021-09-06T07:16:02.000Z</time>
      </trkpt>
      <trkpt lat="48.78188" lon="-0.82281">
        <ele>263.543807</ele>
        <time>2021-09-06T07:16:05.000Z</time>
      </trkpt>
      <trkpt lat="48.78188" lon="-0.82257">
        <ele>263.707989</ele>
        <time>2021-09-06T07:16:08.000Z</time>
      </trkpt>
      <trkpt lat="48.78192" lon="-0.82241">
        <ele>263.820338</ele>
        <time>2021-09-06T07:16:10.000Z</time>
      </trkpt>
      <trkpt lat="48.78197" lon="-0.82226">
        <ele>263.933815</ele>
        <time>2021-09-06T07:16:12.000Z</time>
      </trkpt>
      <trkpt lat="48.78217" lon="-0.82178">
        <ele>264.327282</ele>
        <time>2021-09-06T07:16:19.000Z</time>
      </trkpt>
      <trkpt lat="48.78236" lon="-0.82124">
        <ele>264.74318</ele>
        <time>2021-09-06T07:16:27.000Z</time>
      </trkpt>
      <trkpt lat="48.78237" lon="-0.82117">
        <ele>264.793288</ele>
        <time>2021-09-06T07:16:28.000Z</time>
      </trkpt>
      <trkpt lat="48.78236" lon="-0.82102">
        <ele>264.892626</ele>
        <time>2021-09-06T07:16:30.000Z</time>
      </trkpt>
      <trkpt lat="48.78235" lon="-0.82095">
        <ele>264.945882</ele>
        <time>2021-09-06T07:16:31.000Z</time>
      </trkpt>
      <trkpt lat="48.78234" lon="-0.82089">
        <ele>265.037438</ele>
        <time>2021-09-06T07:16:32.000Z</time>
      </trkpt>
      <trkpt lat="48.78227" lon="-0.82072">
        <ele>265.299964</ele>
        <time>2021-09-06T07:16:35.000Z</time>
      </trkpt>
      <trkpt lat="48.78208" lon="-0.82047">
        <ele>265.798504</ele>
        <time>2021-09-06T07:16:41.000Z</time>
      </trkpt>
      <trkpt lat="48.78184" lon="-0.82015">
        <ele>266.434836</ele>
        <time>2021-09-06T07:16:49.000Z</time>
      </trkpt>
      <trkpt lat="48.7816" lon="-0.81982">
        <ele>267.07644</ele>
        <time>2021-09-06T07:16:57.000Z</time>
      </trkpt>
      <trkpt lat="48.78132" lon="-0.81944">
        <ele>267.829196</ele>
        <time>2021-09-06T07:17:06.000Z</time>
      </trkpt>
      <trkpt lat="48.78119" lon="-0.81929">
        <ele>268.170037</ele>
        <time>2021-09-06T07:17:10.000Z</time>
      </trkpt>
      <trkpt lat="48.78112" lon="-0.81922">
        <ele>268.341899</ele>
        <time>2021-09-06T07:17:12.000Z</time>
      </trkpt>
      <trkpt lat="48.78099" lon="-0.81904">
        <ele>268.622434</ele>
        <time>2021-09-06T07:17:16.000Z</time>
      </trkpt>
      <trkpt lat="48.78091" lon="-0.81888">
        <ele>268.76432</ele>
        <time>2021-09-06T07:17:19.000Z</time>
      </trkpt>
      <trkpt lat="48.7808" lon="-0.81862">
        <ele>268.979472</ele>
        <time>2021-09-06T07:17:23.000Z</time>
      </trkpt>
      <trkpt lat="48.78078" lon="-0.81853">
        <ele>269.039483</ele>
        <time>2021-09-06T07:17:24.000Z</time>
      </trkpt>
      <trkpt lat="48.78078" lon="-0.81845">
        <ele>269.098134</ele>
        <time>2021-09-06T07:17:25.000Z</time>
      </trkpt>
      <trkpt lat="48.78081" lon="-0.81821">
        <ele>269.270347</ele>
        <time>2021-09-06T07:17:28.000Z</time>
      </trkpt>
      <trkpt lat="48.78083" lon="-0.81786">
        <ele>269.513339</ele>
        <time>2021-09-06T07:17:32.000Z</time>
      </trkpt>
      <trkpt lat="48.78082" lon="-0.81769">
        <ele>269.634918</ele>
        <time>2021-09-06T07:17:34.000Z</time>
      </trkpt>
      <trkpt lat="48.78075" lon="-0.81744">
        <ele>269.818409</ele>
        <time>2021-09-06T07:17:37.000Z</time>
      </trkpt>
      <trkpt lat="48.78074" lon="-0.81726">
        <ele>269.948117</ele>
        <time>2021-09-06T07:17:39.000Z</time>
      </trkpt>
      <trkpt lat="48.78075" lon="-0.81707">
        <ele>270.080483</ele>
        <time>2021-09-06T07:17:41.000Z</time>
      </trkpt>
      <trkpt lat="48.78078" lon="-0.81679">
        <ele>270.28238</ele>
        <time>2021-09-06T07:17:44.000Z</time>
      </trkpt>
      <trkpt lat="48.78092" lon="-0.81593">
        <ele>270.595767</ele>
        <time>2021-09-06T07:17:53.000Z</time>
      </trkpt>
      <trkpt lat="48.78102" lon="-0.81551">
        <ele>270.699277</ele>
        <time>2021-09-06T07:17:58.000Z</time>
      </trkpt>
      <trkpt lat="48.78104" lon="-0.81543">
        <ele>270.718061</ele>
        <time>2021-09-06T07:17:59.000Z</time>
      </trkpt>
      <trkpt lat="48.78111" lon="-0.81507">
        <ele>270.803594</ele>
        <time>2021-09-06T07:18:04.000Z</time>
      </trkpt>
      <trkpt lat="48.78111" lon="-0.815">
        <ele>270.81872</ele>
        <time>2021-09-06T07:18:05.000Z</time>
      </trkpt>
      <trkpt lat="48.78111" lon="-0.81494">
        <ele>270.833358</ele>
        <time>2021-09-06T07:18:06.000Z</time>
      </trkpt>
      <trkpt lat="48.78108" lon="-0.81482">
        <ele>270.862533</ele>
        <time>2021-09-06T07:18:08.000Z</time>
      </trkpt>
      <trkpt lat="48.78104" lon="-0.81478">
        <ele>270.878038</ele>
        <time>2021-09-06T07:18:09.000Z</time>
      </trkpt>
      <trkpt lat="48.781" lon="-0.81474">
        <ele>270.894361</ele>
        <time>2021-09-06T07:18:10.000Z</time>
      </trkpt>
      <trkpt lat="48.78081" lon="-0.81464">
        <ele>270.965754</ele>
        <time>2021-09-06T07:18:14.000Z</time>
      </trkpt>
      <trkpt lat="48.78033" lon="-0.81436">
        <ele>270.939632</ele>
        <time>2021-09-06T07:18:23.000Z</time>
      </trkpt>
      <trkpt lat="48.78021" lon="-0.8143">
        <ele>270.860715</ele>
        <time>2021-09-06T07:18:25.000Z</time>
      </trkpt>
      <trkpt lat="48.78009" lon="-0.81423">
        <ele>270.780075</ele>
        <time>2021-09-06T07:18:27.000Z</time>
      </trkpt>
      <trkpt lat="48.77978" lon="-0.81403">
        <ele>270.562385</ele>
        <time>2021-09-06T07:18:32.000Z</time>
      </trkpt>
      <trkpt lat="48.77967" lon="-0.81395">
        <ele>270.480327</ele>
        <time>2021-09-06T07:18:34.000Z</time>
      </trkpt>
      <trkpt lat="48.77962" lon="-0.81391">
        <ele>270.441801</ele>
        <time>2021-09-06T07:18:35.000Z</time>
      </trkpt>
      <trkpt lat="48.77948" lon="-0.81379">
        <ele>270.33942</ele>
        <time>2021-09-06T07:18:38.000Z</time>
      </trkpt>
      <trkpt lat="48.77934" lon="-0.81367">
        <ele>270.232303</ele>
        <time>2021-09-06T07:18:41.000Z</time>
      </trkpt>
      <trkpt lat="48.77922" lon="-0.81359">
        <ele>270.151189</ele>
        <time>2021-09-06T07:18:43.000Z</time>
      </trkpt>
      <trkpt lat="48.77883" lon="-0.8134">
        <ele>269.880928</ele>
        <time>2021-09-06T07:18:50.000Z</time>
      </trkpt>
      <trkpt lat="48.77861" lon="-0.81328">
        <ele>269.685126</ele>
        <time>2021-09-06T07:18:54.000Z</time>
      </trkpt>
      <trkpt lat="48.7785" lon="-0.81322">
        <ele>269.589804</ele>
        <time>2021-09-06T07:18:56.000Z</time>
      </trkpt>
      <trkpt lat="48.7784" lon="-0.81316">
        <ele>269.495905</ele>
        <time>2021-09-06T07:18:58.000Z</time>
      </trkpt>
      <trkpt lat="48.77826" lon="-0.81304">
        <ele>269.365451</ele>
        <time>2021-09-06T07:19:01.000Z</time>
      </trkpt>
      <trkpt lat="48.77814" lon="-0.81291">
        <ele>269.244803</ele>
        <time>2021-09-06T07:19:04.000Z</time>
      </trkpt>
      <trkpt lat="48.77807" lon="-0.81281">
        <ele>269.162745</ele>
        <time>2021-09-06T07:19:06.000Z</time>
      </trkpt>
      <trkpt lat="48.77804" lon="-0.81277">
        <ele>269.125561</ele>
        <time>2021-09-06T07:19:07.000Z</time>
      </trkpt>
      <trkpt lat="48.77789" lon="-0.81257">
        <ele>268.961298</ele>
        <time>2021-09-06T07:19:11.000Z</time>
      </trkpt>
      <trkpt lat="48.77767" lon="-0.81224">
        <ele>268.708108</ele>
        <time>2021-09-06T07:19:18.000Z</time>
      </trkpt>
      <trkpt lat="48.77761" lon="-0.81213">
        <ele>268.627168</ele>
        <time>2021-09-06T07:19:20.000Z</time>
      </trkpt>
      <trkpt lat="48.77754" lon="-0.81193">
        <ele>268.50133</ele>
        <time>2021-09-06T07:19:23.000Z</time>
      </trkpt>
      <trkpt lat="48.77742" lon="-0.81159">
        <ele>268.533806</ele>
        <time>2021-09-06T07:19:28.000Z</time>
      </trkpt>
      <trkpt lat="48.77728" lon="-0.81119">
        <ele>268.771636</ele>
        <time>2021-09-06T07:19:34.000Z</time>
      </trkpt>
      <trkpt lat="48.77724" lon="-0.81106">
        <ele>268.847065</ele>
        <time>2021-09-06T07:19:36.000Z</time>
      </trkpt>
      <trkpt lat="48.77714" lon="-0.81088">
        <ele>268.963592</ele>
        <time>2021-09-06T07:19:39.000Z</time>
      </trkpt>
      <trkpt lat="48.77698" lon="-0.8106">
        <ele>269.160517</ele>
        <time>2021-09-06T07:19:44.000Z</time>
      </trkpt>
      <trkpt lat="48.77695" lon="-0.81054">
        <ele>269.196564</ele>
        <time>2021-09-06T07:19:45.000Z</time>
      </trkpt>
      <trkpt lat="48.77693" lon="-0.81049">
        <ele>269.23093</ele>
        <time>2021-09-06T07:19:46.000Z</time>
      </trkpt>
      <trkpt lat="48.77684" lon="-0.81034">
        <ele>269.336688</ele>
        <time>2021-09-06T07:19:49.000Z</time>
      </trkpt>
      <trkpt lat="48.77669" lon="-0.80999">
        <ele>269.549071</ele>
        <time>2021-09-06T07:19:55.000Z</time>
      </trkpt>
      <trkpt lat="48.77666" lon="-0.80988">
        <ele>269.613834</ele>
        <time>2021-09-06T07:19:57.000Z</time>
      </trkpt>
      <trkpt lat="48.77664" lon="-0.80973">
        <ele>269.693085</ele>
        <time>2021-09-06T07:19:59.000Z</time>
      </trkpt>
      <trkpt lat="48.77662" lon="-0.80957">
        <ele>269.778301</ele>
        <time>2021-09-06T07:20:01.000Z</time>
      </trkpt>
      <trkpt lat="48.77658" lon="-0.80934">
        <ele>270.00331</ele>
        <time>2021-09-06T07:20:04.000Z</time>
      </trkpt>
      <trkpt lat="48.77655" lon="-0.80919">
        <ele>270.213498</ele>
        <time>2021-09-06T07:20:06.000Z</time>
      </trkpt>
      <trkpt lat="48.77652" lon="-0.80896">
        <ele>270.545929</ele>
        <time>2021-09-06T07:20:09.000Z</time>
      </trkpt>
      <trkpt lat="48.77651" lon="-0.80888">
        <ele>270.651094</ele>
        <time>2021-09-06T07:20:10.000Z</time>
      </trkpt>
      <trkpt lat="48.7764" lon="-0.80839">
        <ele>271.362207</ele>
        <time>2021-09-06T07:20:17.000Z</time>
      </trkpt>
      <trkpt lat="48.77632" lon="-0.80808">
        <ele>271.816608</ele>
        <time>2021-09-06T07:20:22.000Z</time>
      </trkpt>
      <trkpt lat="48.7762" lon="-0.80799">
        <ele>272.090933</ele>
        <time>2021-09-06T07:20:26.000Z</time>
      </trkpt>
      <trkpt lat="48.77603" lon="-0.80789">
        <ele>272.482733</ele>
        <time>2021-09-06T07:20:32.000Z</time>
      </trkpt>
      <trkpt lat="48.7759" lon="-0.80781">
        <ele>272.768211</ele>
        <time>2021-09-06T07:20:36.000Z</time>
      </trkpt>
      <trkpt lat="48.77572" lon="-0.80771">
        <ele>273.168247</ele>
        <time>2021-09-06T07:20:42.000Z</time>
      </trkpt>
      <trkpt lat="48.77545" lon="-0.80754">
        <ele>273.796113</ele>
        <time>2021-09-06T07:20:51.000Z</time>
      </trkpt>
      <trkpt lat="48.77521" lon="-0.80739">
        <ele>274.42581</ele>
        <time>2021-09-06T07:21:00.000Z</time>
      </trkpt>
      <trkpt lat="48.77497" lon="-0.80723">
        <ele>275.077982</ele>
        <time>2021-09-06T07:21:09.000Z</time>
      </trkpt>
      <trkpt lat="48.77476" lon="-0.80708">
        <ele>275.628201</ele>
        <time>2021-09-06T07:21:16.000Z</time>
      </trkpt>
      <trkpt lat="48.77472" lon="-0.80701">
        <ele>275.778229</ele>
        <time>2021-09-06T07:21:18.000Z</time>
      </trkpt>
      <trkpt lat="48.77471" lon="-0.80692">
        <ele>275.938394</ele>
        <time>2021-09-06T07:21:20.000Z</time>
      </trkpt>
      <trkpt lat="48.77476" lon="-0.8066">
        <ele>276.465407</ele>
        <time>2021-09-06T07:21:26.000Z</time>
      </trkpt>
      <trkpt lat="48.77476" lon="-0.80649">
        <ele>276.640113</ele>
        <time>2021-09-06T07:21:28.000Z</time>
      </trkpt>
      <trkpt lat="48.77473" lon="-0.80632">
        <ele>276.913504</ele>
        <time>2021-09-06T07:21:31.000Z</time>
      </trkpt>
      <trkpt lat="48.7746" lon="-0.80604">
        <ele>277.470364</ele>
        <time>2021-09-06T07:21:37.000Z</time>
      </trkpt>
      <trkpt lat="48.77442" lon="-0.80573">
        <ele>278.075406</ele>
        <time>2021-09-06T07:21:44.000Z</time>
      </trkpt>
      <trkpt lat="48.77423" lon="-0.8054">
        <ele>278.600329</ele>
        <time>2021-09-06T07:21:51.000Z</time>
      </trkpt>
      <trkpt lat="48.77399" lon="-0.80497">
        <ele>279.272192</ele>
        <time>2021-09-06T07:21:59.000Z</time>
      </trkpt>
      <trkpt lat="48.77378" lon="-0.80459">
        <ele>279.875302</ele>
        <time>2021-09-06T07:22:06.000Z</time>
      </trkpt>
      <trkpt lat="48.77355" lon="-0.80417">
        <ele>280.527443</ele>
        <time>2021-09-06T07:22:14.000Z</time>
      </trkpt>
      <trkpt lat="48.77332" lon="-0.80374">
        <ele>281.195891</ele>
        <time>2021-09-06T07:22:23.000Z</time>
      </trkpt>
      <trkpt lat="48.77316" lon="-0.80334">
        <ele>282.132271</ele>
        <time>2021-09-06T07:22:31.000Z</time>
      </trkpt>
      <trkpt lat="48.77301" lon="-0.80292">
        <ele>283.122405</ele>
        <time>2021-09-06T07:22:40.000Z</time>
      </trkpt>
      <trkpt lat="48.77284" lon="-0.80249">
        <ele>284.137756</ele>
        <time>2021-09-06T07:22:49.000Z</time>
      </trkpt>
      <trkpt lat="48.77272" lon="-0.80218">
        <ele>284.877432</ele>
        <time>2021-09-06T07:22:56.000Z</time>
      </trkpt>
      <trkpt lat="48.77254" lon="-0.80181">
        <ele>285.829639</ele>
        <time>2021-09-06T07:23:05.000Z</time>
      </trkpt>
      <trkpt lat="48.77237" lon="-0.8016">
        <ele>286.484043</ele>
        <time>2021-09-06T07:23:11.000Z</time>
      </trkpt>
      <trkpt lat="48.77218" lon="-0.8014">
        <ele>287.106841</ele>
        <time>2021-09-06T07:23:17.000Z</time>
      </trkpt>
      <trkpt lat="48.77199" lon="-0.80119">
        <ele>287.681102</ele>
        <time>2021-09-06T07:23:23.000Z</time>
      </trkpt>
      <trkpt lat="48.77178" lon="-0.8009">
        <ele>288.37391</ele>
        <time>2021-09-06T07:23:30.000Z</time>
      </trkpt>
      <trkpt lat="48.77154" lon="-0.80052">
        <ele>289.20761</ele>
        <time>2021-09-06T07:23:38.000Z</time>
      </trkpt>
      <trkpt lat="48.77136" lon="-0.80014">
        <ele>289.947389</ele>
        <time>2021-09-06T07:23:45.000Z</time>
      </trkpt>
      <trkpt lat="48.77124" lon="-0.79986">
        <ele>290.472637</ele>
        <time>2021-09-06T07:23:50.000Z</time>
      </trkpt>
      <trkpt lat="48.77117" lon="-0.79969">
        <ele>290.792428</ele>
        <time>2021-09-06T07:23:53.000Z</time>
      </trkpt>
      <trkpt lat="48.77095" lon="-0.79915">
        <ele>291.183336</ele>
        <time>2021-09-06T07:24:02.000Z</time>
      </trkpt>
      <trkpt lat="48.7709" lon="-0.79902">
        <ele>291.207364</ele>
        <time>2021-09-06T07:24:04.000Z</time>
      </trkpt>
      <trkpt lat="48.77081" lon="-0.7988">
        <ele>291.246508</ele>
        <time>2021-09-06T07:24:07.000Z</time>
      </trkpt>
      <trkpt lat="48.7706" lon="-0.79829">
        <ele>291.340698</ele>
        <time>2021-09-06T07:24:13.000Z</time>
      </trkpt>
      <trkpt lat="48.77036" lon="-0.79768">
        <ele>291.450655</ele>
        <time>2021-09-06T07:24:19.000Z</time>
      </trkpt>
      <trkpt lat="48.77023" lon="-0.79724">
        <ele>291.526658</ele>
        <time>2021-09-06T07:24:23.000Z</time>
      </trkpt>
      <trkpt lat="48.77008" lon="-0.79649">
        <ele>290.770192</ele>
        <time>2021-09-06T07:24:29.000Z</time>
      </trkpt>
      <trkpt lat="48.76996" lon="-0.79562">
        <ele>289.770746</ele>
        <time>2021-09-06T07:24:36.000Z</time>
      </trkpt>
      <trkpt lat="48.76994" lon="-0.79538">
        <ele>289.500045</ele>
        <time>2021-09-06T07:24:38.000Z</time>
      </trkpt>
      <trkpt lat="48.76984" lon="-0.79461">
        <ele>288.62215</ele>
        <time>2021-09-06T07:24:45.000Z</time>
      </trkpt>
      <trkpt lat="48.76972" lon="-0.7939">
        <ele>288.000521</ele>
        <time>2021-09-06T07:24:52.000Z</time>
      </trkpt>
      <trkpt lat="48.76956" lon="-0.79337">
        <ele>287.531611</ele>
        <time>2021-09-06T07:24:58.000Z</time>
      </trkpt>
      <trkpt lat="48.76934" lon="-0.79286">
        <ele>287.039193</ele>
        <time>2021-09-06T07:25:05.000Z</time>
      </trkpt>
      <trkpt lat="48.76902" lon="-0.79232">
        <ele>286.464224</ele>
        <time>2021-09-06T07:25:13.000Z</time>
      </trkpt>
      <trkpt lat="48.76875" lon="-0.79203">
        <ele>286.075082</ele>
        <time>2021-09-06T07:25:18.000Z</time>
      </trkpt>
      <trkpt lat="48.76838" lon="-0.79173">
        <ele>285.605977</ele>
        <time>2021-09-06T07:25:23.000Z</time>
      </trkpt>
      <trkpt lat="48.76786" lon="-0.79132">
        <ele>284.949183</ele>
        <time>2021-09-06T07:25:30.000Z</time>
      </trkpt>
      <trkpt lat="48.76754" lon="-0.79115">
        <ele>284.56711</ele>
        <time>2021-09-06T07:25:35.000Z</time>
      </trkpt>
      <trkpt lat="48.76729" lon="-0.79106">
        <ele>284.280481</ele>
        <time>2021-09-06T07:25:40.000Z</time>
      </trkpt>
      <trkpt lat="48.76709" lon="-0.79101">
        <ele>284.572903</ele>
        <time>2021-09-06T07:25:46.000Z</time>
      </trkpt>
      <trkpt lat="48.76684" lon="-0.79093">
        <ele>284.935625</ele>
        <time>2021-09-06T07:25:54.000Z</time>
      </trkpt>
      <trkpt lat="48.76662" lon="-0.79087">
        <ele>285.241493</ele>
        <time>2021-09-06T07:26:01.000Z</time>
      </trkpt>
      <trkpt lat="48.76645" lon="-0.79082">
        <ele>285.48868</ele>
        <time>2021-09-06T07:26:07.000Z</time>
      </trkpt>
      <trkpt lat="48.76622" lon="-0.79074">
        <ele>285.825499</ele>
        <time>2021-09-06T07:26:15.000Z</time>
      </trkpt>
      <trkpt lat="48.76596" lon="-0.79066">
        <ele>286.198829</ele>
        <time>2021-09-06T07:26:24.000Z</time>
      </trkpt>
      <trkpt lat="48.76575" lon="-0.79061">
        <ele>286.503405</ele>
        <time>2021-09-06T07:26:31.000Z</time>
      </trkpt>
      <trkpt lat="48.76549" lon="-0.79052">
        <ele>286.878643</ele>
        <time>2021-09-06T07:26:39.000Z</time>
      </trkpt>
      <trkpt lat="48.76524" lon="-0.79045">
        <ele>287.276568</ele>
        <time>2021-09-06T07:26:46.000Z</time>
      </trkpt>
      <trkpt lat="48.76494" lon="-0.79031">
        <ele>287.761176</ele>
        <time>2021-09-06T07:26:54.000Z</time>
      </trkpt>
      <trkpt lat="48.7649" lon="-0.79029">
        <ele>287.826236</ele>
        <time>2021-09-06T07:26:55.000Z</time>
      </trkpt>
      <trkpt lat="48.76466" lon="-0.79014">
        <ele>288.221956</ele>
        <time>2021-09-06T07:27:01.000Z</time>
      </trkpt>
      <trkpt lat="48.76436" lon="-0.78995">
        <ele>288.730605</ele>
        <time>2021-09-06T07:27:08.000Z</time>
      </trkpt>
      <trkpt lat="48.76396" lon="-0.7897">
        <ele>289.403659</ele>
        <time>2021-09-06T07:27:16.000Z</time>
      </trkpt>
      <trkpt lat="48.76356" lon="-0.78945">
        <ele>289.653567</ele>
        <time>2021-09-06T07:27:23.000Z</time>
      </trkpt>
      <trkpt lat="48.76314" lon="-0.7892">
        <ele>289.735134</ele>
        <time>2021-09-06T07:27:30.000Z</time>
      </trkpt>
      <trkpt lat="48.7627" lon="-0.78885">
        <ele>289.82376</ele>
        <time>2021-09-06T07:27:37.000Z</time>
      </trkpt>
      <trkpt lat="48.7622" lon="-0.7884">
        <ele>289.900942</ele>
        <time>2021-09-06T07:27:45.000Z</time>
      </trkpt>
      <trkpt lat="48.76214" lon="-0.78835">
        <ele>289.848833</ele>
        <time>2021-09-06T07:27:46.000Z</time>
      </trkpt>
      <trkpt lat="48.76163" lon="-0.78794">
        <ele>289.436101</ele>
        <time>2021-09-06T07:27:54.000Z</time>
      </trkpt>
      <trkpt lat="48.7615" lon="-0.78784">
        <ele>289.332067</ele>
        <time>2021-09-06T07:27:56.000Z</time>
      </trkpt>
      <trkpt lat="48.76107" lon="-0.78751">
        <ele>288.992817</ele>
        <time>2021-09-06T07:28:03.000Z</time>
      </trkpt>
      <trkpt lat="48.76096" lon="-0.78742">
        <ele>288.904293</ele>
        <time>2021-09-06T07:28:06.000Z</time>
      </trkpt>
      <trkpt lat="48.76078" lon="-0.78726">
        <ele>288.751994</ele>
        <time>2021-09-06T07:28:11.000Z</time>
      </trkpt>
      <trkpt lat="48.76047" lon="-0.78703">
        <ele>288.35601</ele>
        <time>2021-09-06T07:28:17.000Z</time>
      </trkpt>
      <trkpt lat="48.76013" lon="-0.7868">
        <ele>287.774344</ele>
        <time>2021-09-06T07:28:23.000Z</time>
      </trkpt>
      <trkpt lat="48.75959" lon="-0.78655">
        <ele>286.895917</ele>
        <time>2021-09-06T07:28:32.000Z</time>
      </trkpt>
      <trkpt lat="48.75953" lon="-0.78652">
        <ele>286.799607</ele>
        <time>2021-09-06T07:28:33.000Z</time>
      </trkpt>
      <trkpt lat="48.75928" lon="-0.7864">
        <ele>286.384183</ele>
        <time>2021-09-06T07:28:37.000Z</time>
      </trkpt>
      <trkpt lat="48.7588" lon="-0.78618">
        <ele>285.515906</ele>
        <time>2021-09-06T07:28:44.000Z</time>
      </trkpt>
      <trkpt lat="48.75829" lon="-0.78595">
        <ele>284.378023</ele>
        <time>2021-09-06T07:28:51.000Z</time>
      </trkpt>
      <trkpt lat="48.75791" lon="-0.78578">
        <ele>283.542336</ele>
        <time>2021-09-06T07:28:56.000Z</time>
      </trkpt>
      <trkpt lat="48.75776" lon="-0.78571">
        <ele>283.206916</ele>
        <time>2021-09-06T07:28:58.000Z</time>
      </trkpt>
      <trkpt lat="48.75722" lon="-0.78546">
        <ele>281.997944</ele>
        <time>2021-09-06T07:29:05.000Z</time>
      </trkpt>
      <trkpt lat="48.75663" lon="-0.78518">
        <ele>280.325013</ele>
        <time>2021-09-06T07:29:12.000Z</time>
      </trkpt>
      <trkpt lat="48.75618" lon="-0.78493">
        <ele>279.027326</ele>
        <time>2021-09-06T07:29:17.000Z</time>
      </trkpt>
      <trkpt lat="48.75564" lon="-0.78447">
        <ele>277.346664</ele>
        <time>2021-09-06T07:29:23.000Z</time>
      </trkpt>
      <trkpt lat="48.75516" lon="-0.78406">
        <ele>276.717345</ele>
        <time>2021-09-06T07:29:29.000Z</time>
      </trkpt>
      <trkpt lat="48.75496" lon="-0.78389">
        <ele>276.509079</ele>
        <time>2021-09-06T07:29:33.000Z</time>
      </trkpt>
      <trkpt lat="48.75485" lon="-0.7838">
        <ele>276.399718</ele>
        <time>2021-09-06T07:29:37.000Z</time>
      </trkpt>
      <trkpt lat="48.75479" lon="-0.78375">
        <ele>276.337004</ele>
        <time>2021-09-06T07:29:41.000Z</time>
      </trkpt>
      <trkpt lat="48.75469" lon="-0.78364">
        <ele>276.230486</ele>
        <time>2021-09-06T07:29:47.000Z</time>
      </trkpt>
      <trkpt lat="48.75456" lon="-0.78353">
        <ele>276.104483</ele>
        <time>2021-09-06T07:29:54.000Z</time>
      </trkpt>
      <trkpt lat="48.75443" lon="-0.78343">
        <ele>275.977339</ele>
        <time>2021-09-06T07:30:00.000Z</time>
      </trkpt>
      <trkpt lat="48.75428" lon="-0.78332">
        <ele>275.827655</ele>
        <time>2021-09-06T07:30:08.000Z</time>
      </trkpt>
      <trkpt lat="48.7541" lon="-0.78317">
        <ele>275.646226</ele>
        <time>2021-09-06T07:30:18.000Z</time>
      </trkpt>
      <trkpt lat="48.75394" lon="-0.78304">
        <ele>275.830541</ele>
        <time>2021-09-06T07:30:27.000Z</time>
      </trkpt>
      <trkpt lat="48.75381" lon="-0.78293">
        <ele>276.558399</ele>
        <time>2021-09-06T07:30:35.000Z</time>
      </trkpt>
      <trkpt lat="48.75365" lon="-0.78279">
        <ele>277.404397</ele>
        <time>2021-09-06T07:30:44.000Z</time>
      </trkpt>
      <trkpt lat="48.7535" lon="-0.78266">
        <ele>278.207464</ele>
        <time>2021-09-06T07:30:53.000Z</time>
      </trkpt>
      <trkpt lat="48.75344" lon="-0.7826">
        <ele>278.520448</ele>
        <time>2021-09-06T07:30:57.000Z</time>
      </trkpt>
      <trkpt lat="48.75337" lon="-0.78251">
        <ele>278.944735</ele>
        <time>2021-09-06T07:31:02.000Z</time>
      </trkpt>
      <trkpt lat="48.75327" lon="-0.78236">
        <ele>279.607284</ele>
        <time>2021-09-06T07:31:09.000Z</time>
      </trkpt>
      <trkpt lat="48.75316" lon="-0.78218">
        <ele>280.36805</ele>
        <time>2021-09-06T07:31:16.000Z</time>
      </trkpt>
      <trkpt lat="48.75309" lon="-0.78198">
        <ele>281.059684</ele>
        <time>2021-09-06T07:31:23.000Z</time>
      </trkpt>
      <trkpt lat="48.75299" lon="-0.78173">
        <ele>281.95811</ele>
        <time>2021-09-06T07:31:31.000Z</time>
      </trkpt>
      <trkpt lat="48.75285" lon="-0.78142">
        <ele>283.099399</ele>
        <time>2021-09-06T07:31:41.000Z</time>
      </trkpt>
      <trkpt lat="48.75276" lon="-0.78121">
        <ele>283.87741</ele>
        <time>2021-09-06T07:31:48.000Z</time>
      </trkpt>
      <trkpt lat="48.75264" lon="-0.78101">
        <ele>284.501291</ele>
        <time>2021-09-06T07:31:56.000Z</time>
      </trkpt>
      <trkpt lat="48.75249" lon="-0.7808">
        <ele>285.180429</ele>
        <time>2021-09-06T07:32:04.000Z</time>
      </trkpt>
      <trkpt lat="48.75229" lon="-0.78057">
        <ele>286.027873</ele>
        <time>2021-09-06T07:32:13.000Z</time>
      </trkpt>
      <trkpt lat="48.75209" lon="-0.78038">
        <ele>286.828245</ele>
        <time>2021-09-06T07:32:20.000Z</time>
      </trkpt>
      <trkpt lat="48.75179" lon="-0.7801">
        <ele>288.038127</ele>
        <time>2021-09-06T07:32:29.000Z</time>
      </trkpt>
      <trkpt lat="48.75154" lon="-0.77987">
        <ele>289.027016</ele>
        <time>2021-09-06T07:32:36.000Z</time>
      </trkpt>
      <trkpt lat="48.75124" lon="-0.77959">
        <ele>290.034839</ele>
        <time>2021-09-06T07:32:44.000Z</time>
      </trkpt>
      <trkpt lat="48.75113" lon="-0.7795">
        <ele>290.095555</ele>
        <time>2021-09-06T07:32:47.000Z</time>
      </trkpt>
      <trkpt lat="48.75101" lon="-0.7794">
        <ele>290.158197</ele>
        <time>2021-09-06T07:32:50.000Z</time>
      </trkpt>
      <trkpt lat="48.75079" lon="-0.77922">
        <ele>290.280525</ele>
        <time>2021-09-06T07:32:56.000Z</time>
      </trkpt>
      <trkpt lat="48.75071" lon="-0.77915">
        <ele>290.32018</ele>
        <time>2021-09-06T07:32:58.000Z</time>
      </trkpt>
      <trkpt lat="48.75052" lon="-0.77904">
        <ele>290.41893</ele>
        <time>2021-09-06T07:33:03.000Z</time>
      </trkpt>
      <trkpt lat="48.75043" lon="-0.77902">
        <ele>290.460132</ele>
        <time>2021-09-06T07:33:05.000Z</time>
      </trkpt>
      <trkpt lat="48.75039" lon="-0.779">
        <ele>290.479871</ele>
        <time>2021-09-06T07:33:06.000Z</time>
      </trkpt>
      <trkpt lat="48.75027" lon="-0.77896">
        <ele>290.54064</ele>
        <time>2021-09-06T07:33:09.000Z</time>
      </trkpt>
      <trkpt lat="48.75022" lon="-0.77895">
        <ele>290.56194</ele>
        <time>2021-09-06T07:33:10.000Z</time>
      </trkpt>
      <trkpt lat="48.74997" lon="-0.77889">
        <ele>290.686297</ele>
        <time>2021-09-06T07:33:16.000Z</time>
      </trkpt>
      <trkpt lat="48.74987" lon="-0.77886">
        <ele>290.730357</ele>
        <time>2021-09-06T07:33:18.000Z</time>
      </trkpt>
      <trkpt lat="48.74978" lon="-0.77883">
        <ele>290.774883</ele>
        <time>2021-09-06T07:33:20.000Z</time>
      </trkpt>
      <trkpt lat="48.7496" lon="-0.77879">
        <ele>290.855721</ele>
        <time>2021-09-06T07:33:24.000Z</time>
      </trkpt>
      <trkpt lat="48.74934" lon="-0.77872">
        <ele>290.596387</ele>
        <time>2021-09-06T07:33:30.000Z</time>
      </trkpt>
      <trkpt lat="48.74925" lon="-0.77869">
        <ele>290.514158</ele>
        <time>2021-09-06T07:33:32.000Z</time>
      </trkpt>
      <trkpt lat="48.74909" lon="-0.77865">
        <ele>290.355905</ele>
        <time>2021-09-06T07:33:36.000Z</time>
      </trkpt>
      <trkpt lat="48.749" lon="-0.77863">
        <ele>290.267125</ele>
        <time>2021-09-06T07:33:38.000Z</time>
      </trkpt>
      <trkpt lat="48.74868" lon="-0.77856">
        <ele>289.960765</ele>
        <time>2021-09-06T07:33:44.000Z</time>
      </trkpt>
      <trkpt lat="48.74858" lon="-0.77852">
        <ele>289.855663</ele>
        <time>2021-09-06T07:33:46.000Z</time>
      </trkpt>
      <trkpt lat="48.7484" lon="-0.77848">
        <ele>289.686907</ele>
        <time>2021-09-06T07:33:49.000Z</time>
      </trkpt>
      <trkpt lat="48.74828" lon="-0.77843">
        <ele>289.56411</ele>
        <time>2021-09-06T07:33:51.000Z</time>
      </trkpt>
      <trkpt lat="48.74808" lon="-0.77832">
        <ele>289.362999</ele>
        <time>2021-09-06T07:33:54.000Z</time>
      </trkpt>
      <trkpt lat="48.74773" lon="-0.77805">
        <ele>288.717976</ele>
        <time>2021-09-06T07:33:59.000Z</time>
      </trkpt>
      <trkpt lat="48.74739" lon="-0.77787">
        <ele>287.782419</ele>
        <time>2021-09-06T07:34:03.000Z</time>
      </trkpt>
      <trkpt lat="48.74681" lon="-0.77773">
        <ele>286.245214</ele>
        <time>2021-09-06T07:34:09.000Z</time>
      </trkpt>
      <trkpt lat="48.74671" lon="-0.7777">
        <ele>285.980276</ele>
        <time>2021-09-06T07:34:10.000Z</time>
      </trkpt>
      <trkpt lat="48.7461" lon="-0.77754">
        <ele>284.341474</ele>
        <time>2021-09-06T07:34:16.000Z</time>
      </trkpt>
      <trkpt lat="48.74589" lon="-0.77749">
        <ele>283.64284</ele>
        <time>2021-09-06T07:34:18.000Z</time>
      </trkpt>
      <trkpt lat="48.74527" lon="-0.77732">
        <ele>281.554632</ele>
        <time>2021-09-06T07:34:24.000Z</time>
      </trkpt>
      <trkpt lat="48.74507" lon="-0.77727">
        <ele>280.867314</ele>
        <time>2021-09-06T07:34:26.000Z</time>
      </trkpt>
      <trkpt lat="48.74497" lon="-0.77725">
        <ele>280.515116</ele>
        <time>2021-09-06T07:34:27.000Z</time>
      </trkpt>
      <trkpt lat="48.74444" lon="-0.77723">
        <ele>278.767813</ele>
        <time>2021-09-06T07:34:32.000Z</time>
      </trkpt>
      <trkpt lat="48.7438" lon="-0.77729">
        <ele>276.953182</ele>
        <time>2021-09-06T07:34:38.000Z</time>
      </trkpt>
      <trkpt lat="48.74352" lon="-0.77733">
        <ele>276.18185</ele>
        <time>2021-09-06T07:34:41.000Z</time>
      </trkpt>
      <trkpt lat="48.74344" lon="-0.77732">
        <ele>275.967857</ele>
        <time>2021-09-06T07:34:42.000Z</time>
      </trkpt>
      <trkpt lat="48.74337" lon="-0.77732">
        <ele>275.772595</ele>
        <time>2021-09-06T07:34:43.000Z</time>
      </trkpt>
      <trkpt lat="48.74326" lon="-0.77727">
        <ele>275.441549</ele>
        <time>2021-09-06T07:34:45.000Z</time>
      </trkpt>
      <trkpt lat="48.74321" lon="-0.77724">
        <ele>275.294074</ele>
        <time>2021-09-06T07:34:46.000Z</time>
      </trkpt>
      <trkpt lat="48.74312" lon="-0.77717">
        <ele>275.028794</ele>
        <time>2021-09-06T07:34:48.000Z</time>
      </trkpt>
      <trkpt lat="48.74306" lon="-0.77709">
        <ele>274.793394</ele>
        <time>2021-09-06T07:34:50.000Z</time>
      </trkpt>
      <trkpt lat="48.74281" lon="-0.77671">
        <ele>273.835461</ele>
        <time>2021-09-06T07:34:59.000Z</time>
      </trkpt>
      <trkpt lat="48.74263" lon="-0.77646">
        <ele>273.378514</ele>
        <time>2021-09-06T07:35:06.000Z</time>
      </trkpt>
      <trkpt lat="48.74248" lon="-0.77627">
        <ele>273.194607</ele>
        <time>2021-09-06T07:35:12.000Z</time>
      </trkpt>
      <trkpt lat="48.74225" lon="-0.77612">
        <ele>272.949688</ele>
        <time>2021-09-06T07:35:19.000Z</time>
      </trkpt>
      <trkpt lat="48.74194" lon="-0.77592">
        <ele>272.615831</ele>
        <time>2021-09-06T07:35:28.000Z</time>
      </trkpt>
      <trkpt lat="48.74166" lon="-0.77574">
        <ele>272.325606</ele>
        <time>2021-09-06T07:35:34.000Z</time>
      </trkpt>
      <trkpt lat="48.74136" lon="-0.77554">
        <ele>271.999405</ele>
        <time>2021-09-06T07:35:40.000Z</time>
      </trkpt>
      <trkpt lat="48.74114" lon="-0.77542">
        <ele>271.771499</ele>
        <time>2021-09-06T07:35:45.000Z</time>
      </trkpt>
      <trkpt lat="48.74107" lon="-0.77534">
        <ele>271.643199</ele>
        <time>2021-09-06T07:35:47.000Z</time>
      </trkpt>
      <trkpt lat="48.74097" lon="-0.77527">
        <ele>271.47049</ele>
        <time>2021-09-06T07:35:49.000Z</time>
      </trkpt>
      <trkpt lat="48.74067" lon="-0.77513">
        <ele>270.969613</ele>
        <time>2021-09-06T07:35:54.000Z</time>
      </trkpt>
      <trkpt lat="48.74061" lon="-0.77512">
        <ele>270.862694</ele>
        <time>2021-09-06T07:35:55.000Z</time>
      </trkpt>
      <trkpt lat="48.74018" lon="-0.77505">
        <ele>270.172846</ele>
        <time>2021-09-06T07:36:01.000Z</time>
      </trkpt>
      <trkpt lat="48.73961" lon="-0.77495">
        <ele>269.247781</ele>
        <time>2021-09-06T07:36:08.000Z</time>
      </trkpt>
      <trkpt lat="48.73907" lon="-0.77486">
        <ele>268.101685</ele>
        <time>2021-09-06T07:36:14.000Z</time>
      </trkpt>
      <trkpt lat="48.73897" lon="-0.77485">
        <ele>267.867475</ele>
        <time>2021-09-06T07:36:15.000Z</time>
      </trkpt>
      <trkpt lat="48.73839" lon="-0.77474">
        <ele>266.407968</ele>
        <time>2021-09-06T07:36:21.000Z</time>
      </trkpt>
      <trkpt lat="48.73829" lon="-0.77473">
        <ele>266.159402</ele>
        <time>2021-09-06T07:36:22.000Z</time>
      </trkpt>
      <trkpt lat="48.73809" lon="-0.77468">
        <ele>265.672845</ele>
        <time>2021-09-06T07:36:24.000Z</time>
      </trkpt>
      <trkpt lat="48.73791" lon="-0.77463">
        <ele>265.209354</ele>
        <time>2021-09-06T07:36:26.000Z</time>
      </trkpt>
      <trkpt lat="48.73759" lon="-0.77444">
        <ele>264.367103</ele>
        <time>2021-09-06T07:36:30.000Z</time>
      </trkpt>
      <trkpt lat="48.73726" lon="-0.77415">
        <ele>263.56578</ele>
        <time>2021-09-06T07:36:35.000Z</time>
      </trkpt>
      <trkpt lat="48.73702" lon="-0.77381">
        <ele>262.874102</ele>
        <time>2021-09-06T07:36:40.000Z</time>
      </trkpt>
      <trkpt lat="48.73693" lon="-0.77367">
        <ele>262.603336</ele>
        <time>2021-09-06T07:36:42.000Z</time>
      </trkpt>
      <trkpt lat="48.73681" lon="-0.77345">
        <ele>262.211444</ele>
        <time>2021-09-06T07:36:45.000Z</time>
      </trkpt>
      <trkpt lat="48.73656" lon="-0.77301">
        <ele>261.390543</ele>
        <time>2021-09-06T07:36:51.000Z</time>
      </trkpt>
      <trkpt lat="48.73624" lon="-0.77252">
        <ele>260.765807</ele>
        <time>2021-09-06T07:36:58.000Z</time>
      </trkpt>
      <trkpt lat="48.73614" lon="-0.77232">
        <ele>261.119444</ele>
        <time>2021-09-06T07:37:02.000Z</time>
      </trkpt>
      <trkpt lat="48.73605" lon="-0.77217">
        <ele>261.408807</ele>
        <time>2021-09-06T07:37:07.000Z</time>
      </trkpt>
      <trkpt lat="48.73592" lon="-0.772">
        <ele>261.760079</ele>
        <time>2021-09-06T07:37:14.000Z</time>
      </trkpt>
      <trkpt lat="48.73578" lon="-0.77177">
        <ele>262.212329</ele>
        <time>2021-09-06T07:37:24.000Z</time>
      </trkpt>
      <trkpt lat="48.73568" lon="-0.77162">
        <ele>262.502833</ele>
        <time>2021-09-06T07:37:31.000Z</time>
      </trkpt>
      <trkpt lat="48.73557" lon="-0.77145">
        <ele>262.832154</ele>
        <time>2021-09-06T07:37:39.000Z</time>
      </trkpt>
      <trkpt lat="48.73551" lon="-0.77134">
        <ele>263.0406</ele>
        <time>2021-09-06T07:37:44.000Z</time>
      </trkpt>
      <trkpt lat="48.73548" lon="-0.77129">
        <ele>263.122239</ele>
        <time>2021-09-06T07:37:46.000Z</time>
      </trkpt>
      <trkpt lat="48.73541" lon="-0.77118">
        <ele>263.332814</ele>
        <time>2021-09-06T07:37:51.000Z</time>
      </trkpt>
      <trkpt lat="48.73532" lon="-0.77103">
        <ele>263.620502</ele>
        <time>2021-09-06T07:37:58.000Z</time>
      </trkpt>
      <trkpt lat="48.73523" lon="-0.77087">
        <ele>263.91342</ele>
        <time>2021-09-06T07:38:05.000Z</time>
      </trkpt>
      <trkpt lat="48.73514" lon="-0.77073">
        <ele>264.195663</ele>
        <time>2021-09-06T07:38:12.000Z</time>
      </trkpt>
      <trkpt lat="48.73501" lon="-0.7705">
        <ele>264.960937</ele>
        <time>2021-09-06T07:38:22.000Z</time>
      </trkpt>
      <trkpt lat="48.73493" lon="-0.77038">
        <ele>265.619796</ele>
        <time>2021-09-06T07:38:28.000Z</time>
      </trkpt>
      <trkpt lat="48.7348" lon="-0.77016">
        <ele>266.75161</ele>
        <time>2021-09-06T07:38:38.000Z</time>
      </trkpt>
      <trkpt lat="48.73467" lon="-0.76996">
        <ele>267.812289</ele>
        <time>2021-09-06T07:38:47.000Z</time>
      </trkpt>
      <trkpt lat="48.73453" lon="-0.76974">
        <ele>268.967638</ele>
        <time>2021-09-06T07:38:56.000Z</time>
      </trkpt>
      <trkpt lat="48.7344" lon="-0.76953">
        <ele>270.038644</ele>
        <time>2021-09-06T07:39:04.000Z</time>
      </trkpt>
      <trkpt lat="48.7343" lon="-0.76935">
        <ele>270.940225</ele>
        <time>2021-09-06T07:39:11.000Z</time>
      </trkpt>
      <trkpt lat="48.73418" lon="-0.76915">
        <ele>272.002218</ele>
        <time>2021-09-06T07:39:19.000Z</time>
      </trkpt>
      <trkpt lat="48.73405" lon="-0.76897">
        <ele>273.010246</ele>
        <time>2021-09-06T07:39:26.000Z</time>
      </trkpt>
      <trkpt lat="48.73403" lon="-0.76894">
        <ele>273.152836</ele>
        <time>2021-09-06T07:39:27.000Z</time>
      </trkpt>
      <trkpt lat="48.73393" lon="-0.76875">
        <ele>274.113244</ele>
        <time>2021-09-06T07:39:33.000Z</time>
      </trkpt>
      <trkpt lat="48.73374" lon="-0.76843">
        <ele>275.073509</ele>
        <time>2021-09-06T07:39:41.000Z</time>
      </trkpt>
      <trkpt lat="48.73355" lon="-0.76811">
        <ele>275.575271</ele>
        <time>2021-09-06T07:39:48.000Z</time>
      </trkpt>
      <trkpt lat="48.73336" lon="-0.7678">
        <ele>276.079251</ele>
        <time>2021-09-06T07:39:54.000Z</time>
      </trkpt>
      <trkpt lat="48.73316" lon="-0.76748">
        <ele>276.588175</ele>
        <time>2021-09-06T07:39:59.000Z</time>
      </trkpt>
      <trkpt lat="48.73284" lon="-0.76696">
        <ele>277.407442</ele>
        <time>2021-09-06T07:40:06.000Z</time>
      </trkpt>
      <trkpt lat="48.73246" lon="-0.76629">
        <ele>277.981032</ele>
        <time>2021-09-06T07:40:15.000Z</time>
      </trkpt>
      <trkpt lat="48.7324" lon="-0.76613">
        <ele>277.990582</ele>
        <time>2021-09-06T07:40:17.000Z</time>
      </trkpt>
      <trkpt lat="48.73234" lon="-0.76587">
        <ele>278.00444</ele>
        <time>2021-09-06T07:40:20.000Z</time>
      </trkpt>
      <trkpt lat="48.73224" lon="-0.76527">
        <ele>278.036306</ele>
        <time>2021-09-06T07:40:27.000Z</time>
      </trkpt>
      <trkpt lat="48.73211" lon="-0.7645">
        <ele>278.077742</ele>
        <time>2021-09-06T07:40:36.000Z</time>
      </trkpt>
      <trkpt lat="48.73196" lon="-0.76363">
        <ele>277.970983</ele>
        <time>2021-09-06T07:40:46.000Z</time>
      </trkpt>
      <trkpt lat="48.73194" lon="-0.76354">
        <ele>277.944937</ele>
        <time>2021-09-06T07:40:47.000Z</time>
      </trkpt>
      <trkpt lat="48.73183" lon="-0.76293">
        <ele>277.761924</ele>
        <time>2021-09-06T07:40:54.000Z</time>
      </trkpt>
      <trkpt lat="48.73172" lon="-0.76228">
        <ele>277.571563</ele>
        <time>2021-09-06T07:41:01.000Z</time>
      </trkpt>
      <trkpt lat="48.73161" lon="-0.76169">
        <ele>277.394566</ele>
        <time>2021-09-06T07:41:07.000Z</time>
      </trkpt>
      <trkpt lat="48.73145" lon="-0.76097">
        <ele>276.761247</ele>
        <time>2021-09-06T07:41:14.000Z</time>
      </trkpt>
      <trkpt lat="48.73135" lon="-0.7608">
        <ele>276.515034</ele>
        <time>2021-09-06T07:41:16.000Z</time>
      </trkpt>
      <trkpt lat="48.7313" lon="-0.76073">
        <ele>276.387612</ele>
        <time>2021-09-06T07:41:17.000Z</time>
      </trkpt>
      <trkpt lat="48.73123" lon="-0.76067">
        <ele>276.258883</ele>
        <time>2021-09-06T07:41:18.000Z</time>
      </trkpt>
      <trkpt lat="48.73101" lon="-0.7605">
        <ele>275.840678</ele>
        <time>2021-09-06T07:41:21.000Z</time>
      </trkpt>
      <trkpt lat="48.73053" lon="-0.76011">
        <ele>274.915122</ele>
        <time>2021-09-06T07:41:27.000Z</time>
      </trkpt>
      <trkpt lat="48.73003" lon="-0.75969">
        <ele>274.453486</ele>
        <time>2021-09-06T07:41:33.000Z</time>
      </trkpt>
      <trkpt lat="48.72967" lon="-0.75941">
        <ele>274.841549</ele>
        <time>2021-09-06T07:41:38.000Z</time>
      </trkpt>
      <trkpt lat="48.72939" lon="-0.75925">
        <ele>275.115842</ele>
        <time>2021-09-06T07:41:43.000Z</time>
      </trkpt>
      <trkpt lat="48.72923" lon="-0.75914">
        <ele>275.281203</ele>
        <time>2021-09-06T07:41:48.000Z</time>
      </trkpt>
      <trkpt lat="48.7291" lon="-0.75904">
        <ele>275.413812</ele>
        <time>2021-09-06T07:41:54.000Z</time>
      </trkpt>
      <trkpt lat="48.72904" lon="-0.75897">
        <ele>275.492248</ele>
        <time>2021-09-06T07:41:59.000Z</time>
      </trkpt>
      <trkpt lat="48.729" lon="-0.75893">
        <ele>275.53777</ele>
        <time>2021-09-06T07:42:03.000Z</time>
      </trkpt>
      <trkpt lat="48.72899" lon="-0.75891">
        <ele>275.551721</ele>
        <time>2021-09-06T07:42:04.000Z</time>
      </trkpt>
      <trkpt lat="48.72898" lon="-0.75889">
        <ele>275.564122</ele>
        <time>2021-09-06T07:42:05.000Z</time>
      </trkpt>
      <trkpt lat="48.72893" lon="-0.7588">
        <ele>275.639567</ele>
        <time>2021-09-06T07:42:10.000Z</time>
      </trkpt>
      <trkpt lat="48.72892" lon="-0.75878">
        <ele>275.655068</ele>
        <time>2021-09-06T07:42:11.000Z</time>
      </trkpt>
      <trkpt lat="48.72886" lon="-0.75868">
        <ele>275.734785</ele>
        <time>2021-09-06T07:42:16.000Z</time>
      </trkpt>
      <trkpt lat="48.72881" lon="-0.75862">
        <ele>275.801203</ele>
        <time>2021-09-06T07:42:20.000Z</time>
      </trkpt>
      <trkpt lat="48.72879" lon="-0.7586">
        <ele>275.819616</ele>
        <time>2021-09-06T07:42:21.000Z</time>
      </trkpt>
      <trkpt lat="48.72867" lon="-0.7585">
        <ele>275.945809</ele>
        <time>2021-09-06T07:42:27.000Z</time>
      </trkpt>
      <trkpt lat="48.72858" lon="-0.75844">
        <ele>276.248855</ele>
        <time>2021-09-06T07:42:32.000Z</time>
      </trkpt>
      <trkpt lat="48.72846" lon="-0.75835">
        <ele>276.727584</ele>
        <time>2021-09-06T07:42:39.000Z</time>
      </trkpt>
      <trkpt lat="48.72838" lon="-0.7583">
        <ele>277.039624</ele>
        <time>2021-09-06T07:42:43.000Z</time>
      </trkpt>
      <trkpt lat="48.72834" lon="-0.75827">
        <ele>277.212658</ele>
        <time>2021-09-06T07:42:45.000Z</time>
      </trkpt>
      <trkpt lat="48.72826" lon="-0.7582">
        <ele>277.542809</ele>
        <time>2021-09-06T07:42:49.000Z</time>
      </trkpt>
      <trkpt lat="48.72812" lon="-0.75809">
        <ele>278.099094</ele>
        <time>2021-09-06T07:42:55.000Z</time>
      </trkpt>
      <trkpt lat="48.72792" lon="-0.75793">
        <ele>278.91376</ele>
        <time>2021-09-06T07:43:02.000Z</time>
      </trkpt>
      <trkpt lat="48.72776" lon="-0.75778">
        <ele>279.582607</ele>
        <time>2021-09-06T07:43:08.000Z</time>
      </trkpt>
      <trkpt lat="48.72763" lon="-0.75767">
        <ele>280.09698</ele>
        <time>2021-09-06T07:43:13.000Z</time>
      </trkpt>
      <trkpt lat="48.72744" lon="-0.75748">
        <ele>280.918493</ele>
        <time>2021-09-06T07:43:21.000Z</time>
      </trkpt>
      <trkpt lat="48.72725" lon="-0.75736">
        <ele>281.634603</ele>
        <time>2021-09-06T07:43:28.000Z</time>
      </trkpt>
      <trkpt lat="48.72707" lon="-0.75726">
        <ele>282.337176</ele>
        <time>2021-09-06T07:43:35.000Z</time>
      </trkpt>
      <trkpt lat="48.72694" lon="-0.75721">
        <ele>282.711598</ele>
        <time>2021-09-06T07:43:40.000Z</time>
      </trkpt>
      <trkpt lat="48.72682" lon="-0.75716">
        <ele>283.036893</ele>
        <time>2021-09-06T07:43:45.000Z</time>
      </trkpt>
      <trkpt lat="48.7268" lon="-0.75714">
        <ele>283.107156</ele>
        <time>2021-09-06T07:43:47.000Z</time>
      </trkpt>
      <trkpt lat="48.72678" lon="-0.75713">
        <ele>283.164425</ele>
        <time>2021-09-06T07:43:48.000Z</time>
      </trkpt>
      <trkpt lat="48.72666" lon="-0.75706">
        <ele>283.492235</ele>
        <time>2021-09-06T07:43:53.000Z</time>
      </trkpt>
      <trkpt lat="48.72649" lon="-0.75697">
        <ele>283.991732</ele>
        <time>2021-09-06T07:43:59.000Z</time>
      </trkpt>
      <trkpt lat="48.72632" lon="-0.75688">
        <ele>284.464791</ele>
        <time>2021-09-06T07:44:05.000Z</time>
      </trkpt>
      <trkpt lat="48.72613" lon="-0.75677">
        <ele>285.019872</ele>
        <time>2021-09-06T07:44:11.000Z</time>
      </trkpt>
      <trkpt lat="48.72587" lon="-0.75654">
        <ele>285.824684</ele>
        <time>2021-09-06T07:44:18.000Z</time>
      </trkpt>
      <trkpt lat="48.72574" lon="-0.7564">
        <ele>286.240137</ele>
        <time>2021-09-06T07:44:21.000Z</time>
      </trkpt>
      <trkpt lat="48.72566" lon="-0.75629">
        <ele>286.529585</ele>
        <time>2021-09-06T07:44:23.000Z</time>
      </trkpt>
      <trkpt lat="48.72561" lon="-0.75623">
        <ele>286.694037</ele>
        <time>2021-09-06T07:44:24.000Z</time>
      </trkpt>
      <trkpt lat="48.72543" lon="-0.75604">
        <ele>287.360558</ele>
        <time>2021-09-06T07:44:27.000Z</time>
      </trkpt>
      <trkpt lat="48.72504" lon="-0.75562">
        <ele>289.456938</ele>
        <time>2021-09-06T07:44:33.000Z</time>
      </trkpt>
      <trkpt lat="48.72499" lon="-0.75554">
        <ele>289.780835</ele>
        <time>2021-09-06T07:44:34.000Z</time>
      </trkpt>
      <trkpt lat="48.72487" lon="-0.75531">
        <ele>290.636425</ele>
        <time>2021-09-06T07:44:37.000Z</time>
      </trkpt>
      <trkpt lat="48.7248" lon="-0.75519">
        <ele>291.087338</ele>
        <time>2021-09-06T07:44:39.000Z</time>
      </trkpt>
      <trkpt lat="48.72473" lon="-0.75511">
        <ele>291.465974</ele>
        <time>2021-09-06T07:44:41.000Z</time>
      </trkpt>
      <trkpt lat="48.72463" lon="-0.75503">
        <ele>291.955275</ele>
        <time>2021-09-06T07:44:45.000Z</time>
      </trkpt>
      <trkpt lat="48.72452" lon="-0.755">
        <ele>292.455889</ele>
        <time>2021-09-06T07:44:51.000Z</time>
      </trkpt>
      <trkpt lat="48.72442" lon="-0.75499">
        <ele>292.914297</ele>
        <time>2021-09-06T07:44:57.000Z</time>
      </trkpt>
      <trkpt lat="48.7243" lon="-0.75496">
        <ele>293.458223</ele>
        <time>2021-09-06T07:45:05.000Z</time>
      </trkpt>
      <trkpt lat="48.72422" lon="-0.75495">
        <ele>293.782547</ele>
        <time>2021-09-06T07:45:10.000Z</time>
      </trkpt>
      <trkpt lat="48.72415" lon="-0.75491">
        <ele>294.113291</ele>
        <time>2021-09-06T07:45:15.000Z</time>
      </trkpt>
      <trkpt lat="48.72408" lon="-0.75489">
        <ele>294.438079</ele>
        <time>2021-09-06T07:45:20.000Z</time>
      </trkpt>
      <trkpt lat="48.72403" lon="-0.75486">
        <ele>294.6813</ele>
        <time>2021-09-06T07:45:24.000Z</time>
      </trkpt>
      <trkpt lat="48.72401" lon="-0.75486">
        <ele>294.748269</ele>
        <time>2021-09-06T07:45:25.000Z</time>
      </trkpt>
      <trkpt lat="48.72395" lon="-0.75483">
        <ele>295.037204</ele>
        <time>2021-09-06T07:45:29.000Z</time>
      </trkpt>
      <trkpt lat="48.72394" lon="-0.75482">
        <ele>295.101305</ele>
        <time>2021-09-06T07:45:30.000Z</time>
      </trkpt>
      <trkpt lat="48.72386" lon="-0.75478">
        <ele>295.80498</ele>
        <time>2021-09-06T07:45:35.000Z</time>
      </trkpt>
      <trkpt lat="48.72379" lon="-0.75476">
        <ele>296.539015</ele>
        <time>2021-09-06T07:45:40.000Z</time>
      </trkpt>
      <trkpt lat="48.72367" lon="-0.7547">
        <ele>297.69769</ele>
        <time>2021-09-06T07:45:47.000Z</time>
      </trkpt>
      <trkpt lat="48.72359" lon="-0.75469">
        <ele>298.519016</ele>
        <time>2021-09-06T07:45:51.000Z</time>
      </trkpt>
      <trkpt lat="48.72353" lon="-0.75469">
        <ele>299.090066</ele>
        <time>2021-09-06T07:45:54.000Z</time>
      </trkpt>
      <trkpt lat="48.72349" lon="-0.75467">
        <ele>299.458939</ele>
        <time>2021-09-06T07:45:56.000Z</time>
      </trkpt>
      <trkpt lat="48.72347" lon="-0.75467">
        <ele>299.658899</ele>
        <time>2021-09-06T07:45:57.000Z</time>
      </trkpt>
      <trkpt lat="48.72339" lon="-0.75466">
        <ele>300.357401</ele>
        <time>2021-09-06T07:46:00.000Z</time>
      </trkpt>
      <trkpt lat="48.72327" lon="-0.75464">
        <ele>301.513437</ele>
        <time>2021-09-06T07:46:04.000Z</time>
      </trkpt>
      <trkpt lat="48.7231" lon="-0.75461">
        <ele>303.120286</ele>
        <time>2021-09-06T07:46:10.000Z</time>
      </trkpt>
      <trkpt lat="48.72295" lon="-0.75456">
        <ele>304.670132</ele>
        <time>2021-09-06T07:46:17.000Z</time>
      </trkpt>
      <trkpt lat="48.72276" lon="-0.75451">
        <ele>306.486348</ele>
        <time>2021-09-06T07:46:24.000Z</time>
      </trkpt>
      <trkpt lat="48.72263" lon="-0.75448">
        <ele>307.662963</ele>
        <time>2021-09-06T07:46:29.000Z</time>
      </trkpt>
      <trkpt lat="48.72253" lon="-0.75446">
        <ele>308.69549</ele>
        <time>2021-09-06T07:46:33.000Z</time>
      </trkpt>
      <trkpt lat="48.72244" lon="-0.75445">
        <ele>309.528327</ele>
        <time>2021-09-06T07:46:36.000Z</time>
      </trkpt>
      <trkpt lat="48.72241" lon="-0.75444">
        <ele>309.848137</ele>
        <time>2021-09-06T07:46:37.000Z</time>
      </trkpt>
      <trkpt lat="48.7222" lon="-0.7544">
        <ele>311.802934</ele>
        <time>2021-09-06T07:46:43.000Z</time>
      </trkpt>
      <trkpt lat="48.72199" lon="-0.75432">
        <ele>312.716607</ele>
        <time>2021-09-06T07:46:48.000Z</time>
      </trkpt>
      <trkpt lat="48.72179" lon="-0.75417">
        <ele>313.379314</ele>
        <time>2021-09-06T07:46:54.000Z</time>
      </trkpt>
      <trkpt lat="48.72157" lon="-0.75393">
        <ele>314.182649</ele>
        <time>2021-09-06T07:47:00.000Z</time>
      </trkpt>
      <trkpt lat="48.72143" lon="-0.75378">
        <ele>314.68213</ele>
        <time>2021-09-06T07:47:04.000Z</time>
      </trkpt>
      <trkpt lat="48.72122" lon="-0.75355">
        <ele>315.451512</ele>
        <time>2021-09-06T07:47:10.000Z</time>
      </trkpt>
      <trkpt lat="48.72108" lon="-0.7534">
        <ele>315.938147</ele>
        <time>2021-09-06T07:47:14.000Z</time>
      </trkpt>
      <trkpt lat="48.72092" lon="-0.75324">
        <ele>316.511265</ele>
        <time>2021-09-06T07:47:18.000Z</time>
      </trkpt>
      <trkpt lat="48.72087" lon="-0.7532">
        <ele>316.671777</ele>
        <time>2021-09-06T07:47:19.000Z</time>
      </trkpt>
      <trkpt lat="48.72066" lon="-0.75296">
        <ele>317.446943</ele>
        <time>2021-09-06T07:47:24.000Z</time>
      </trkpt>
      <trkpt lat="48.72063" lon="-0.75291">
        <ele>317.442595</ele>
        <time>2021-09-06T07:47:25.000Z</time>
      </trkpt>
      <trkpt lat="48.72058" lon="-0.75279">
        <ele>317.303056</ele>
        <time>2021-09-06T07:47:27.000Z</time>
      </trkpt>
      <trkpt lat="48.72053" lon="-0.75267">
        <ele>317.16254</ele>
        <time>2021-09-06T07:47:29.000Z</time>
      </trkpt>
      <trkpt lat="48.72051" lon="-0.75261">
        <ele>317.091889</ele>
        <time>2021-09-06T07:47:30.000Z</time>
      </trkpt>
      <trkpt lat="48.72042" lon="-0.75229">
        <ele>316.743613</ele>
        <time>2021-09-06T07:47:35.000Z</time>
      </trkpt>
      <trkpt lat="48.7204" lon="-0.75222">
        <ele>316.663426</ele>
        <time>2021-09-06T07:47:36.000Z</time>
      </trkpt>
      <trkpt lat="48.7203" lon="-0.7517">
        <ele>316.121184</ele>
        <time>2021-09-06T07:47:42.000Z</time>
      </trkpt>
      <trkpt lat="48.72014" lon="-0.75108">
        <ele>315.454662</ele>
        <time>2021-09-06T07:47:48.000Z</time>
      </trkpt>
      <trkpt lat="48.72004" lon="-0.75063">
        <ele>314.97595</ele>
        <time>2021-09-06T07:47:52.000Z</time>
      </trkpt>
      <trkpt lat="48.71997" lon="-0.7499">
        <ele>313.987033</ele>
        <time>2021-09-06T07:47:58.000Z</time>
      </trkpt>
      <trkpt lat="48.71995" lon="-0.74912">
        <ele>312.841722</ele>
        <time>2021-09-06T07:48:05.000Z</time>
      </trkpt>
      <trkpt lat="48.71992" lon="-0.74893">
        <ele>312.556139</ele>
        <time>2021-09-06T07:48:07.000Z</time>
      </trkpt>
      <trkpt lat="48.71987" lon="-0.74877">
        <ele>312.291735</ele>
        <time>2021-09-06T07:48:09.000Z</time>
      </trkpt>
      <trkpt lat="48.7198" lon="-0.74855">
        <ele>311.941601</ele>
        <time>2021-09-06T07:48:12.000Z</time>
      </trkpt>
      <trkpt lat="48.71977" lon="-0.74843">
        <ele>311.749474</ele>
        <time>2021-09-06T07:48:14.000Z</time>
      </trkpt>
      <trkpt lat="48.71968" lon="-0.74826">
        <ele>311.430585</ele>
        <time>2021-09-06T07:48:18.000Z</time>
      </trkpt>
      <trkpt lat="48.71956" lon="-0.74794">
        <ele>310.887895</ele>
        <time>2021-09-06T07:48:25.000Z</time>
      </trkpt>
      <trkpt lat="48.71942" lon="-0.74755">
        <ele>310.320729</ele>
        <time>2021-09-06T07:48:33.000Z</time>
      </trkpt>
      <trkpt lat="48.7193" lon="-0.7472">
        <ele>309.829459</ele>
        <time>2021-09-06T07:48:39.000Z</time>
      </trkpt>
      <trkpt lat="48.71928" lon="-0.74714">
        <ele>309.74433</ele>
        <time>2021-09-06T07:48:40.000Z</time>
      </trkpt>
      <trkpt lat="48.71917" lon="-0.74684">
        <ele>309.331317</ele>
        <time>2021-09-06T07:48:45.000Z</time>
      </trkpt>
      <trkpt lat="48.71916" lon="-0.74678">
        <ele>309.249526</ele>
        <time>2021-09-06T07:48:46.000Z</time>
      </trkpt>
      <trkpt lat="48.71909" lon="-0.74658">
        <ele>308.970147</ele>
        <time>2021-09-06T07:48:49.000Z</time>
      </trkpt>
      <trkpt lat="48.71906" lon="-0.74641">
        <ele>308.751887</ele>
        <time>2021-09-06T07:48:51.000Z</time>
      </trkpt>
      <trkpt lat="48.71903" lon="-0.74632">
        <ele>308.633274</ele>
        <time>2021-09-06T07:48:52.000Z</time>
      </trkpt>
      <trkpt lat="48.71896" lon="-0.74604">
        <ele>308.263728</ele>
        <time>2021-09-06T07:48:55.000Z</time>
      </trkpt>
      <trkpt lat="48.71883" lon="-0.7457">
        <ele>307.781424</ele>
        <time>2021-09-06T07:48:59.000Z</time>
      </trkpt>
      <trkpt lat="48.71878" lon="-0.74563">
        <ele>307.661239</ele>
        <time>2021-09-06T07:49:00.000Z</time>
      </trkpt>
      <trkpt lat="48.71864" lon="-0.74544">
        <ele>307.326066</ele>
        <time>2021-09-06T07:49:03.000Z</time>
      </trkpt>
      <trkpt lat="48.71852" lon="-0.74525">
        <ele>307.071849</ele>
        <time>2021-09-06T07:49:06.000Z</time>
      </trkpt>
      <trkpt lat="48.7183" lon="-0.74476">
        <ele>306.511421</ele>
        <time>2021-09-06T07:49:13.000Z</time>
      </trkpt>
      <trkpt lat="48.71814" lon="-0.74427">
        <ele>305.993064</ele>
        <time>2021-09-06T07:49:20.000Z</time>
      </trkpt>
      <trkpt lat="48.71795" lon="-0.74371">
        <ele>305.399595</ele>
        <time>2021-09-06T07:49:27.000Z</time>
      </trkpt>
      <trkpt lat="48.71783" lon="-0.74322">
        <ele>304.904128</ele>
        <time>2021-09-06T07:49:32.000Z</time>
      </trkpt>
      <trkpt lat="48.7177" lon="-0.74243">
        <ele>303.832876</ele>
        <time>2021-09-06T07:49:39.000Z</time>
      </trkpt>
      <trkpt lat="48.71758" lon="-0.74177">
        <ele>302.891237</ele>
        <time>2021-09-06T07:49:44.000Z</time>
      </trkpt>
      <trkpt lat="48.71748" lon="-0.741">
        <ele>301.826297</ele>
        <time>2021-09-06T07:49:49.000Z</time>
      </trkpt>
      <trkpt lat="48.71734" lon="-0.74049">
        <ele>301.071688</ele>
        <time>2021-09-06T07:49:53.000Z</time>
      </trkpt>
      <trkpt lat="48.71718" lon="-0.73999">
        <ele>300.261809</ele>
        <time>2021-09-06T07:49:58.000Z</time>
      </trkpt>
      <trkpt lat="48.71701" lon="-0.73956">
        <ele>299.527708</ele>
        <time>2021-09-06T07:50:03.000Z</time>
      </trkpt>
      <trkpt lat="48.71696" lon="-0.73949">
        <ele>299.381577</ele>
        <time>2021-09-06T07:50:04.000Z</time>
      </trkpt>
      <trkpt lat="48.7169" lon="-0.73943">
        <ele>299.231034</ele>
        <time>2021-09-06T07:50:05.000Z</time>
      </trkpt>
      <trkpt lat="48.71678" lon="-0.73933">
        <ele>298.924662</ele>
        <time>2021-09-06T07:50:07.000Z</time>
      </trkpt>
      <trkpt lat="48.71671" lon="-0.73929">
        <ele>298.761479</ele>
        <time>2021-09-06T07:50:08.000Z</time>
      </trkpt>
      <trkpt lat="48.71619" lon="-0.73897">
        <ele>297.524765</ele>
        <time>2021-09-06T07:50:15.000Z</time>
      </trkpt>
      <trkpt lat="48.71596" lon="-0.73882">
        <ele>296.883249</ele>
        <time>2021-09-06T07:50:18.000Z</time>
      </trkpt>
      <trkpt lat="48.7158" lon="-0.73873">
        <ele>296.284543</ele>
        <time>2021-09-06T07:50:20.000Z</time>
      </trkpt>
      <trkpt lat="48.71541" lon="-0.73849">
        <ele>294.787185</ele>
        <time>2021-09-06T07:50:25.000Z</time>
      </trkpt>
      <trkpt lat="48.71499" lon="-0.73814">
        <ele>293.126372</ele>
        <time>2021-09-06T07:50:30.000Z</time>
      </trkpt>
      <trkpt lat="48.71474" lon="-0.73784">
        <ele>291.979592</ele>
        <time>2021-09-06T07:50:33.000Z</time>
      </trkpt>
      <trkpt lat="48.71465" lon="-0.73771">
        <ele>291.557845</ele>
        <time>2021-09-06T07:50:34.000Z</time>
      </trkpt>
      <trkpt lat="48.71427" lon="-0.73703">
        <ele>288.504661</ele>
        <time>2021-09-06T07:50:39.000Z</time>
      </trkpt>
      <trkpt lat="48.71419" lon="-0.73689">
        <ele>287.770786</ele>
        <time>2021-09-06T07:50:40.000Z</time>
      </trkpt>
      <trkpt lat="48.71378" lon="-0.73616">
        <ele>283.882454</ele>
        <time>2021-09-06T07:50:45.000Z</time>
      </trkpt>
      <trkpt lat="48.71369" lon="-0.73604">
        <ele>283.132733</ele>
        <time>2021-09-06T07:50:46.000Z</time>
      </trkpt>
      <trkpt lat="48.71348" lon="-0.73589">
        <ele>281.660346</ele>
        <time>2021-09-06T07:50:48.000Z</time>
      </trkpt>
      <trkpt lat="48.71311" lon="-0.73582">
        <ele>279.327113</ele>
        <time>2021-09-06T07:50:51.000Z</time>
      </trkpt>
      <trkpt lat="48.713" lon="-0.73579">
        <ele>278.57568</ele>
        <time>2021-09-06T07:50:52.000Z</time>
      </trkpt>
      <trkpt lat="48.71291" lon="-0.73573">
        <ele>277.862946</ele>
        <time>2021-09-06T07:50:53.000Z</time>
      </trkpt>
      <trkpt lat="48.71283" lon="-0.73562">
        <ele>277.158175</ele>
        <time>2021-09-06T07:50:54.000Z</time>
      </trkpt>
      <trkpt lat="48.71278" lon="-0.73549">
        <ele>276.441072</ele>
        <time>2021-09-06T07:50:55.000Z</time>
      </trkpt>
      <trkpt lat="48.71275" lon="-0.73534">
        <ele>275.721537</ele>
        <time>2021-09-06T07:50:56.000Z</time>
      </trkpt>
      <trkpt lat="48.71272" lon="-0.73503">
        <ele>274.28617</ele>
        <time>2021-09-06T07:50:58.000Z</time>
      </trkpt>
      <trkpt lat="48.71262" lon="-0.73419">
        <ele>270.381415</ele>
        <time>2021-09-06T07:51:04.000Z</time>
      </trkpt>
      <trkpt lat="48.71254" lon="-0.73361">
        <ele>267.652508</ele>
        <time>2021-09-06T07:51:09.000Z</time>
      </trkpt>
      <trkpt lat="48.71253" lon="-0.73351">
        <ele>267.219275</ele>
        <time>2021-09-06T07:51:10.000Z</time>
      </trkpt>
      <trkpt lat="48.71251" lon="-0.73334">
        <ele>266.476134</ele>
        <time>2021-09-06T07:51:12.000Z</time>
      </trkpt>
      <trkpt lat="48.71249" lon="-0.73312">
        <ele>265.550313</ele>
        <time>2021-09-06T07:51:15.000Z</time>
      </trkpt>
      <trkpt lat="48.71248" lon="-0.73299">
        <ele>264.972319</ele>
        <time>2021-09-06T07:51:17.000Z</time>
      </trkpt>
      <trkpt lat="48.71243" lon="-0.73236">
        <ele>262.296985</ele>
        <time>2021-09-06T07:51:26.000Z</time>
      </trkpt>
      <trkpt lat="48.71237" lon="-0.73174">
        <ele>259.67513</ele>
        <time>2021-09-06T07:51:34.000Z</time>
      </trkpt>
      <trkpt lat="48.71238" lon="-0.73111">
        <ele>257.037932</ele>
        <time>2021-09-06T07:51:42.000Z</time>
      </trkpt>
      <trkpt lat="48.71241" lon="-0.73067">
        <ele>255.451544</ele>
        <time>2021-09-06T07:51:48.000Z</time>
      </trkpt>
      <trkpt lat="48.71242" lon="-0.73061">
        <ele>255.317296</ele>
        <time>2021-09-06T07:51:49.000Z</time>
      </trkpt>
      <trkpt lat="48.71242" lon="-0.73055">
        <ele>255.190769</ele>
        <time>2021-09-06T07:51:50.000Z</time>
      </trkpt>
      <trkpt lat="48.71248" lon="-0.73019">
        <ele>254.433241</ele>
        <time>2021-09-06T07:51:56.000Z</time>
      </trkpt>
      <trkpt lat="48.71254" lon="-0.7298">
        <ele>253.621756</ele>
        <time>2021-09-06T07:52:03.000Z</time>
      </trkpt>
      <trkpt lat="48.71258" lon="-0.7295">
        <ele>252.980479</ele>
        <time>2021-09-06T07:52:09.000Z</time>
      </trkpt>
      <trkpt lat="48.71265" lon="-0.72909">
        <ele>252.122648</ele>
        <time>2021-09-06T07:52:17.000Z</time>
      </trkpt>
      <trkpt lat="48.71272" lon="-0.72868">
        <ele>251.248625</ele>
        <time>2021-09-06T07:52:24.000Z</time>
      </trkpt>
      <trkpt lat="48.71281" lon="-0.72814">
        <ele>250.112768</ele>
        <time>2021-09-06T07:52:31.000Z</time>
      </trkpt>
      <trkpt lat="48.7129" lon="-0.72754">
        <ele>249.807369</ele>
        <time>2021-09-06T07:52:39.000Z</time>
      </trkpt>
      <trkpt lat="48.71291" lon="-0.72747">
        <ele>249.775411</ele>
        <time>2021-09-06T07:52:40.000Z</time>
      </trkpt>
      <trkpt lat="48.71295" lon="-0.72718">
        <ele>249.626914</ele>
        <time>2021-09-06T07:52:45.000Z</time>
      </trkpt>
      <trkpt lat="48.713" lon="-0.72679">
        <ele>249.427218</ele>
        <time>2021-09-06T07:52:52.000Z</time>
      </trkpt>
      <trkpt lat="48.71307" lon="-0.7263">
        <ele>249.182486</ele>
        <time>2021-09-06T07:53:00.000Z</time>
      </trkpt>
      <trkpt lat="48.71313" lon="-0.72577">
        <ele>248.916466</ele>
        <time>2021-09-06T07:53:07.000Z</time>
      </trkpt>
      <trkpt lat="48.71313" lon="-0.72562">
        <ele>248.838074</ele>
        <time>2021-09-06T07:53:09.000Z</time>
      </trkpt>
      <trkpt lat="48.71311" lon="-0.72532">
        <ele>248.761603</ele>
        <time>2021-09-06T07:53:13.000Z</time>
      </trkpt>
      <trkpt lat="48.713" lon="-0.72493">
        <ele>248.748664</ele>
        <time>2021-09-06T07:53:19.000Z</time>
      </trkpt>
      <trkpt lat="48.71297" lon="-0.72487">
        <ele>248.746423</ele>
        <time>2021-09-06T07:53:20.000Z</time>
      </trkpt>
      <trkpt lat="48.7129" lon="-0.72475">
        <ele>248.741692</ele>
        <time>2021-09-06T07:53:22.000Z</time>
      </trkpt>
      <trkpt lat="48.71277" lon="-0.72458">
        <ele>248.733895</ele>
        <time>2021-09-06T07:53:25.000Z</time>
      </trkpt>
      <trkpt lat="48.71253" lon="-0.72432">
        <ele>248.720568</ele>
        <time>2021-09-06T07:53:30.000Z</time>
      </trkpt>
      <trkpt lat="48.71246" lon="-0.7242">
        <ele>248.715755</ele>
        <time>2021-09-06T07:53:32.000Z</time>
      </trkpt>
      <trkpt lat="48.71243" lon="-0.72406">
        <ele>248.711334</ele>
        <time>2021-09-06T07:53:34.000Z</time>
      </trkpt>
      <trkpt lat="48.71241" lon="-0.72392">
        <ele>248.707071</ele>
        <time>2021-09-06T07:53:36.000Z</time>
      </trkpt>
      <trkpt lat="48.71241" lon="-0.72374">
        <ele>248.701622</ele>
        <time>2021-09-06T07:53:39.000Z</time>
      </trkpt>
      <trkpt lat="48.71244" lon="-0.72342">
        <ele>248.691944</ele>
        <time>2021-09-06T07:53:45.000Z</time>
      </trkpt>
      <trkpt lat="48.71244" lon="-0.72309">
        <ele>248.676844</ele>
        <time>2021-09-06T07:53:52.000Z</time>
      </trkpt>
      <trkpt lat="48.71246" lon="-0.72276">
        <ele>248.64544</ele>
        <time>2021-09-06T07:53:59.000Z</time>
      </trkpt>
      <trkpt lat="48.71246" lon="-0.72248">
        <ele>248.618472</ele>
        <time>2021-09-06T07:54:05.000Z</time>
      </trkpt>
      <trkpt lat="48.71239" lon="-0.72231">
        <ele>248.599633</ele>
        <time>2021-09-06T07:54:09.000Z</time>
      </trkpt>
      <trkpt lat="48.71235" lon="-0.72227">
        <ele>248.592928</ele>
        <time>2021-09-06T07:54:10.000Z</time>
      </trkpt>
      <trkpt lat="48.71231" lon="-0.72224">
        <ele>248.585598</ele>
        <time>2021-09-06T07:54:11.000Z</time>
      </trkpt>
      <trkpt lat="48.71213" lon="-0.72216">
        <ele>248.559108</ele>
        <time>2021-09-06T07:54:14.000Z</time>
      </trkpt>
      <trkpt lat="48.71178" lon="-0.72209">
        <ele>248.507357</ele>
        <time>2021-09-06T07:54:19.000Z</time>
      </trkpt>
      <trkpt lat="48.71123" lon="-0.72197">
        <ele>248.427428</ele>
        <time>2021-09-06T07:54:26.000Z</time>
      </trkpt>
      <trkpt lat="48.7107" lon="-0.72185">
        <ele>248.338692</ele>
        <time>2021-09-06T07:54:32.000Z</time>
      </trkpt>
      <trkpt lat="48.71039" lon="-0.72177">
        <ele>248.287108</ele>
        <time>2021-09-06T07:54:36.000Z</time>
      </trkpt>
      <trkpt lat="48.71007" lon="-0.7217">
        <ele>248.233447</ele>
        <time>2021-09-06T07:54:42.000Z</time>
      </trkpt>
      <trkpt lat="48.70983" lon="-0.72164">
        <ele>248.19316</ele>
        <time>2021-09-06T07:54:48.000Z</time>
      </trkpt>
      <trkpt lat="48.7095" lon="-0.72156">
        <ele>248.136319</ele>
        <time>2021-09-06T07:54:57.000Z</time>
      </trkpt>
      <trkpt lat="48.70918" lon="-0.7215">
        <ele>248.397631</ele>
        <time>2021-09-06T07:55:05.000Z</time>
      </trkpt>
      <trkpt lat="48.70884" lon="-0.72141">
        <ele>248.760395</ele>
        <time>2021-09-06T07:55:14.000Z</time>
      </trkpt>
      <trkpt lat="48.70865" lon="-0.72124">
        <ele>249.000682</ele>
        <time>2021-09-06T07:55:21.000Z</time>
      </trkpt>
      <trkpt lat="48.70857" lon="-0.72104">
        <ele>249.16668</ele>
        <time>2021-09-06T07:55:27.000Z</time>
      </trkpt>
      <trkpt lat="48.70855" lon="-0.72081">
        <ele>249.331459</ele>
        <time>2021-09-06T07:55:33.000Z</time>
      </trkpt>
      <trkpt lat="48.70852" lon="-0.72059">
        <ele>249.490718</ele>
        <time>2021-09-06T07:55:39.000Z</time>
      </trkpt>
      <trkpt lat="48.70851" lon="-0.72051">
        <ele>249.548896</ele>
        <time>2021-09-06T07:55:41.000Z</time>
      </trkpt>
      <trkpt lat="48.70851" lon="-0.72041">
        <ele>249.622778</ele>
        <time>2021-09-06T07:55:43.000Z</time>
      </trkpt>
      <trkpt lat="48.70851" lon="-0.72027">
        <ele>249.723278</ele>
        <time>2021-09-06T07:55:46.000Z</time>
      </trkpt>
      <trkpt lat="48.70852" lon="-0.72022">
        <ele>249.75994</ele>
        <time>2021-09-06T07:55:47.000Z</time>
      </trkpt>
      <trkpt lat="48.70851" lon="-0.71979">
        <ele>250.091217</ele>
        <time>2021-09-06T07:55:55.000Z</time>
      </trkpt>
      <trkpt lat="48.70851" lon="-0.71952">
        <ele>250.783836</ele>
        <time>2021-09-06T07:56:00.000Z</time>
      </trkpt>
      <trkpt lat="48.70851" lon="-0.71928">
        <ele>251.409557</ele>
        <time>2021-09-06T07:56:04.000Z</time>
      </trkpt>
      <trkpt lat="48.70847" lon="-0.71893">
        <ele>252.325025</ele>
        <time>2021-09-06T07:56:10.000Z</time>
      </trkpt>
      <trkpt lat="48.70835" lon="-0.71866">
        <ele>253.166277</ele>
        <time>2021-09-06T07:56:16.000Z</time>
      </trkpt>
      <trkpt lat="48.70823" lon="-0.71853">
        <ele>253.7521</ele>
        <time>2021-09-06T07:56:21.000Z</time>
      </trkpt>
      <trkpt lat="48.70816" lon="-0.71865">
        <ele>254.15654</ele>
        <time>2021-09-06T07:56:26.000Z</time>
      </trkpt>
      <trkpt lat="48.70809" lon="-0.71885">
        <ele>254.743828</ele>
        <time>2021-09-06T07:56:33.000Z</time>
      </trkpt>
      <trkpt lat="48.70796" lon="-0.71903">
        <ele>255.428837</ele>
        <time>2021-09-06T07:56:41.000Z</time>
      </trkpt>
      <trkpt lat="48.70779" lon="-0.71914">
        <ele>256.151758</ele>
        <time>2021-09-06T07:56:49.000Z</time>
      </trkpt>
      <trkpt lat="48.70761" lon="-0.71917">
        <ele>256.848365</ele>
        <time>2021-09-06T07:56:57.000Z</time>
      </trkpt>
      <trkpt lat="48.70745" lon="-0.71918">
        <ele>257.781176</ele>
        <time>2021-09-06T07:57:04.000Z</time>
      </trkpt>
      <trkpt lat="48.70726" lon="-0.71921">
        <ele>259.101627</ele>
        <time>2021-09-06T07:57:13.000Z</time>
      </trkpt>
      <trkpt lat="48.70706" lon="-0.71925">
        <ele>260.544927</ele>
        <time>2021-09-06T07:57:22.000Z</time>
      </trkpt>
      <trkpt lat="48.70688" lon="-0.71927">
        <ele>261.81116</ele>
        <time>2021-09-06T07:57:30.000Z</time>
      </trkpt>
      <trkpt lat="48.70676" lon="-0.71929">
        <ele>262.643179</ele>
        <time>2021-09-06T07:57:36.000Z</time>
      </trkpt>
      <trkpt lat="48.70663" lon="-0.71932">
        <ele>263.578138</ele>
        <time>2021-09-06T07:57:42.000Z</time>
      </trkpt>
      <trkpt lat="48.70645" lon="-0.71934">
        <ele>264.846107</ele>
        <time>2021-09-06T07:57:50.000Z</time>
      </trkpt>
      <trkpt lat="48.70629" lon="-0.71937">
        <ele>265.997078</ele>
        <time>2021-09-06T07:57:57.000Z</time>
      </trkpt>
      <trkpt lat="48.70617" lon="-0.71938">
        <ele>266.840941</ele>
        <time>2021-09-06T07:58:02.000Z</time>
      </trkpt>
      <trkpt lat="48.70607" lon="-0.71939">
        <ele>267.516087</ele>
        <time>2021-09-06T07:58:06.000Z</time>
      </trkpt>
      <trkpt lat="48.7059" lon="-0.71941">
        <ele>268.692742</ele>
        <time>2021-09-06T07:58:12.000Z</time>
      </trkpt>
      <trkpt lat="48.70571" lon="-0.71944">
        <ele>269.84826</ele>
        <time>2021-09-06T07:58:19.000Z</time>
      </trkpt>
      <trkpt lat="48.70542" lon="-0.71949">
        <ele>270.561128</ele>
        <time>2021-09-06T07:58:28.000Z</time>
      </trkpt>
      <trkpt lat="48.70515" lon="-0.71953">
        <ele>271.236613</ele>
        <time>2021-09-06T07:58:35.000Z</time>
      </trkpt>
      <trkpt lat="48.70485" lon="-0.71957">
        <ele>271.994113</ele>
        <time>2021-09-06T07:58:42.000Z</time>
      </trkpt>
      <trkpt lat="48.70471" lon="-0.71959">
        <ele>272.330201</ele>
        <time>2021-09-06T07:58:45.000Z</time>
      </trkpt>
      <trkpt lat="48.70457" lon="-0.71962">
        <ele>272.688735</ele>
        <time>2021-09-06T07:58:48.000Z</time>
      </trkpt>
      <trkpt lat="48.70419" lon="-0.71968">
        <ele>273.637158</ele>
        <time>2021-09-06T07:58:55.000Z</time>
      </trkpt>
      <trkpt lat="48.70379" lon="-0.71974">
        <ele>273.984785</ele>
        <time>2021-09-06T07:59:01.000Z</time>
      </trkpt>
      <trkpt lat="48.7033" lon="-0.71984">
        <ele>273.441368</ele>
        <time>2021-09-06T07:59:07.000Z</time>
      </trkpt>
      <trkpt lat="48.70272" lon="-0.71993">
        <ele>272.793741</ele>
        <time>2021-09-06T07:59:13.000Z</time>
      </trkpt>
      <trkpt lat="48.70243" lon="-0.71995">
        <ele>272.464917</ele>
        <time>2021-09-06T07:59:16.000Z</time>
      </trkpt>
      <trkpt lat="48.70234" lon="-0.71992">
        <ele>272.364625</ele>
        <time>2021-09-06T07:59:17.000Z</time>
      </trkpt>
      <trkpt lat="48.70226" lon="-0.71988">
        <ele>272.262303</ele>
        <time>2021-09-06T07:59:18.000Z</time>
      </trkpt>
      <trkpt lat="48.70209" lon="-0.71972">
        <ele>272.063934</ele>
        <time>2021-09-06T07:59:20.000Z</time>
      </trkpt>
      <trkpt lat="48.70179" lon="-0.7193">
        <ele>271.653287</ele>
        <time>2021-09-06T07:59:25.000Z</time>
      </trkpt>
      <trkpt lat="48.70171" lon="-0.71917">
        <ele>271.539899</ele>
        <time>2021-09-06T07:59:27.000Z</time>
      </trkpt>
      <trkpt lat="48.70167" lon="-0.71911">
        <ele>271.48437</ele>
        <time>2021-09-06T07:59:28.000Z</time>
      </trkpt>
      <trkpt lat="48.70163" lon="-0.71905">
        <ele>271.42763</ele>
        <time>2021-09-06T07:59:29.000Z</time>
      </trkpt>
      <trkpt lat="48.7015" lon="-0.71888">
        <ele>271.258879</ele>
        <time>2021-09-06T07:59:32.000Z</time>
      </trkpt>
      <trkpt lat="48.70125" lon="-0.71858">
        <ele>270.939844</ele>
        <time>2021-09-06T07:59:39.000Z</time>
      </trkpt>
      <trkpt lat="48.70104" lon="-0.71839">
        <ele>270.699904</ele>
        <time>2021-09-06T07:59:45.000Z</time>
      </trkpt>
      <trkpt lat="48.70085" lon="-0.71825">
        <ele>270.48641</ele>
        <time>2021-09-06T07:59:51.000Z</time>
      </trkpt>
      <trkpt lat="48.70083" lon="-0.71821">
        <ele>270.450938</ele>
        <time>2021-09-06T07:59:52.000Z</time>
      </trkpt>
      <trkpt lat="48.70082" lon="-0.71815">
        <ele>270.412808</ele>
        <time>2021-09-06T07:59:53.000Z</time>
      </trkpt>
      <trkpt lat="48.70086" lon="-0.71805">
        <ele>270.515373</ele>
        <time>2021-09-06T07:59:55.000Z</time>
      </trkpt>
      <trkpt lat="48.70089" lon="-0.718">
        <ele>270.583604</ele>
        <time>2021-09-06T07:59:56.000Z</time>
      </trkpt>
      <trkpt lat="48.70118" lon="-0.71757">
        <ele>271.270582</ele>
        <time>2021-09-06T08:00:06.000Z</time>
      </trkpt>
      <trkpt lat="48.70139" lon="-0.71726">
        <ele>271.760433</ele>
        <time>2021-09-06T08:00:14.000Z</time>
      </trkpt>
      <trkpt lat="48.70157" lon="-0.717">
        <ele>272.189912</ele>
        <time>2021-09-06T08:00:21.000Z</time>
      </trkpt>
      <trkpt lat="48.70177" lon="-0.71671">
        <ele>272.654731</ele>
        <time>2021-09-06T08:00:29.000Z</time>
      </trkpt>
      <trkpt lat="48.70195" lon="-0.71645">
        <ele>273.073066</ele>
        <time>2021-09-06T08:00:36.000Z</time>
      </trkpt>
      <trkpt lat="48.702" lon="-0.71639">
        <ele>273.185263</ele>
        <time>2021-09-06T08:00:38.000Z</time>
      </trkpt>
      <trkpt lat="48.70205" lon="-0.71632">
        <ele>273.30078</ele>
        <time>2021-09-06T08:00:40.000Z</time>
      </trkpt>
      <trkpt lat="48.70218" lon="-0.71612">
        <ele>273.633681</ele>
        <time>2021-09-06T08:00:45.000Z</time>
      </trkpt>
      <trkpt lat="48.70237" lon="-0.71582">
        <ele>274.162527</ele>
        <time>2021-09-06T08:00:53.000Z</time>
      </trkpt>
      <trkpt lat="48.7025" lon="-0.71545">
        <ele>274.70343</ele>
        <time>2021-09-06T08:01:01.000Z</time>
      </trkpt>
      <trkpt lat="48.70257" lon="-0.71509">
        <ele>275.189523</ele>
        <time>2021-09-06T08:01:08.000Z</time>
      </trkpt>
      <trkpt lat="48.70266" lon="-0.7145">
        <ele>275.972479</ele>
        <time>2021-09-06T08:01:18.000Z</time>
      </trkpt>
      <trkpt lat="48.70271" lon="-0.71408">
        <ele>276.518742</ele>
        <time>2021-09-06T08:01:24.000Z</time>
      </trkpt>
      <trkpt lat="48.70271" lon="-0.71401">
        <ele>276.608799</ele>
        <time>2021-09-06T08:01:25.000Z</time>
      </trkpt>
      <trkpt lat="48.70272" lon="-0.71386">
        <ele>276.792136</ele>
        <time>2021-09-06T08:01:27.000Z</time>
      </trkpt>
      <trkpt lat="48.70274" lon="-0.71365">
        <ele>276.906924</ele>
        <time>2021-09-06T08:01:30.000Z</time>
      </trkpt>
      <trkpt lat="48.70279" lon="-0.71302">
        <ele>276.745664</ele>
        <time>2021-09-06T08:01:38.000Z</time>
      </trkpt>
      <trkpt lat="48.7028" lon="-0.71294">
        <ele>276.725973</ele>
        <time>2021-09-06T08:01:39.000Z</time>
      </trkpt>
      <trkpt lat="48.70281" lon="-0.71271">
        <ele>276.666793</ele>
        <time>2021-09-06T08:01:42.000Z</time>
      </trkpt>
      <trkpt lat="48.7028" lon="-0.71255">
        <ele>276.627321</ele>
        <time>2021-09-06T08:01:44.000Z</time>
      </trkpt>
      <trkpt lat="48.70279" lon="-0.71238">
        <ele>276.585048</ele>
        <time>2021-09-06T08:01:46.000Z</time>
      </trkpt>
      <trkpt lat="48.70279" lon="-0.7122">
        <ele>276.539724</ele>
        <time>2021-09-06T08:01:48.000Z</time>
      </trkpt>
      <trkpt lat="48.7028" lon="-0.71201">
        <ele>276.491069</ele>
        <time>2021-09-06T08:01:50.000Z</time>
      </trkpt>
      <trkpt lat="48.7028" lon="-0.71173">
        <ele>276.419287</ele>
        <time>2021-09-06T08:01:53.000Z</time>
      </trkpt>
      <trkpt lat="48.7028" lon="-0.71164">
        <ele>276.396045</ele>
        <time>2021-09-06T08:01:54.000Z</time>
      </trkpt>
      <trkpt lat="48.70278" lon="-0.71125">
        <ele>276.297917</ele>
        <time>2021-09-06T08:01:58.000Z</time>
      </trkpt>
      <trkpt lat="48.70276" lon="-0.71057">
        <ele>275.919103</ele>
        <time>2021-09-06T08:02:05.000Z</time>
      </trkpt>
      <trkpt lat="48.70276" lon="-0.71038">
        <ele>275.78842</ele>
        <time>2021-09-06T08:02:07.000Z</time>
      </trkpt>
      <trkpt lat="48.70278" lon="-0.71003">
        <ele>275.550417</ele>
        <time>2021-09-06T08:02:11.000Z</time>
      </trkpt>
      <trkpt lat="48.70281" lon="-0.7095">
        <ele>275.184843</ele>
        <time>2021-09-06T08:02:17.000Z</time>
      </trkpt>
      <trkpt lat="48.70281" lon="-0.70913">
        <ele>274.925574</ele>
        <time>2021-09-06T08:02:21.000Z</time>
      </trkpt>
      <trkpt lat="48.70278" lon="-0.70906">
        <ele>274.873835</ele>
        <time>2021-09-06T08:02:22.000Z</time>
      </trkpt>
      <trkpt lat="48.70275" lon="-0.70901">
        <ele>274.822334</ele>
        <time>2021-09-06T08:02:23.000Z</time>
      </trkpt>
      <trkpt lat="48.70266" lon="-0.70899">
        <ele>274.726729</ele>
        <time>2021-09-06T08:02:25.000Z</time>
      </trkpt>
      <trkpt lat="48.70229" lon="-0.7089">
        <ele>274.36336</ele>
        <time>2021-09-06T08:02:33.000Z</time>
      </trkpt>
      <trkpt lat="48.70203" lon="-0.70879">
        <ele>274.278399</ele>
        <time>2021-09-06T08:02:40.000Z</time>
      </trkpt>
      <trkpt lat="48.70175" lon="-0.70865">
        <ele>274.184515</ele>
        <time>2021-09-06T08:02:47.000Z</time>
      </trkpt>
      <trkpt lat="48.70153" lon="-0.70852">
        <ele>274.112192</ele>
        <time>2021-09-06T08:02:52.000Z</time>
      </trkpt>
      <trkpt lat="48.70149" lon="-0.7085">
        <ele>274.096775</ele>
        <time>2021-09-06T08:02:53.000Z</time>
      </trkpt>
      <trkpt lat="48.70118" lon="-0.70833">
        <ele>273.993315</ele>
        <time>2021-09-06T08:02:59.000Z</time>
      </trkpt>
      <trkpt lat="48.70067" lon="-0.70807">
        <ele>273.825295</ele>
        <time>2021-09-06T08:03:08.000Z</time>
      </trkpt>
      <trkpt lat="48.70026" lon="-0.70802">
        <ele>273.898128</ele>
        <time>2021-09-06T08:03:15.000Z</time>
      </trkpt>
      <trkpt lat="48.69989" lon="-0.70812">
        <ele>273.996684</ele>
        <time>2021-09-06T08:03:22.000Z</time>
      </trkpt>
      <trkpt lat="48.6995" lon="-0.70825">
        <ele>274.099703</ele>
        <time>2021-09-06T08:03:29.000Z</time>
      </trkpt>
      <trkpt lat="48.69905" lon="-0.70843">
        <ele>274.219895</ele>
        <time>2021-09-06T08:03:37.000Z</time>
      </trkpt>
      <trkpt lat="48.69866" lon="-0.70859">
        <ele>274.039625</ele>
        <time>2021-09-06T08:03:43.000Z</time>
      </trkpt>
      <trkpt lat="48.69817" lon="-0.70877">
        <ele>273.46265</ele>
        <time>2021-09-06T08:03:49.000Z</time>
      </trkpt>
      <trkpt lat="48.69763" lon="-0.70898">
        <ele>272.808419</ele>
        <time>2021-09-06T08:03:55.000Z</time>
      </trkpt>
      <trkpt lat="48.69754" lon="-0.70901">
        <ele>272.697767</ele>
        <time>2021-09-06T08:03:56.000Z</time>
      </trkpt>
      <trkpt lat="48.69697" lon="-0.70921">
        <ele>271.97266</ele>
        <time>2021-09-06T08:04:02.000Z</time>
      </trkpt>
      <trkpt lat="48.69687" lon="-0.70924">
        <ele>271.827841</ele>
        <time>2021-09-06T08:04:03.000Z</time>
      </trkpt>
      <trkpt lat="48.69631" lon="-0.70946">
        <ele>270.951856</ele>
        <time>2021-09-06T08:04:09.000Z</time>
      </trkpt>
      <trkpt lat="48.69613" lon="-0.70952">
        <ele>270.671036</ele>
        <time>2021-09-06T08:04:11.000Z</time>
      </trkpt>
      <trkpt lat="48.69565" lon="-0.70969">
        <ele>269.934669</ele>
        <time>2021-09-06T08:04:17.000Z</time>
      </trkpt>
      <trkpt lat="48.69526" lon="-0.70983">
        <ele>269.377001</ele>
        <time>2021-09-06T08:04:23.000Z</time>
      </trkpt>
      <trkpt lat="48.69501" lon="-0.7099">
        <ele>269.122591</ele>
        <time>2021-09-06T08:04:27.000Z</time>
      </trkpt>
      <trkpt lat="48.69469" lon="-0.71001">
        <ele>268.796344</ele>
        <time>2021-09-06T08:04:32.000Z</time>
      </trkpt>
      <trkpt lat="48.69425" lon="-0.71016">
        <ele>268.337875</ele>
        <time>2021-09-06T08:04:39.000Z</time>
      </trkpt>
      <trkpt lat="48.69378" lon="-0.71033">
        <ele>267.856241</ele>
        <time>2021-09-06T08:04:46.000Z</time>
      </trkpt>
      <trkpt lat="48.69364" lon="-0.71037">
        <ele>267.717718</ele>
        <time>2021-09-06T08:04:48.000Z</time>
      </trkpt>
      <trkpt lat="48.69344" lon="-0.71046">
        <ele>267.435467</ele>
        <time>2021-09-06T08:04:51.000Z</time>
      </trkpt>
      <trkpt lat="48.69288" lon="-0.71066">
        <ele>266.625955</ele>
        <time>2021-09-06T08:04:59.000Z</time>
      </trkpt>
      <trkpt lat="48.69274" lon="-0.71071">
        <ele>266.430525</ele>
        <time>2021-09-06T08:05:01.000Z</time>
      </trkpt>
      <trkpt lat="48.69239" lon="-0.71083">
        <ele>265.921751</ele>
        <time>2021-09-06T08:05:06.000Z</time>
      </trkpt>
      <trkpt lat="48.69201" lon="-0.71096">
        <ele>265.38339</ele>
        <time>2021-09-06T08:05:11.000Z</time>
      </trkpt>
      <trkpt lat="48.69155" lon="-0.71113">
        <ele>264.698351</ele>
        <time>2021-09-06T08:05:17.000Z</time>
      </trkpt>
      <trkpt lat="48.69096" lon="-0.71131">
        <ele>263.809408</ele>
        <time>2021-09-06T08:05:24.000Z</time>
      </trkpt>
      <trkpt lat="48.69047" lon="-0.71145">
        <ele>263.082712</ele>
        <time>2021-09-06T08:05:30.000Z</time>
      </trkpt>
      <trkpt lat="48.69004" lon="-0.7116">
        <ele>262.460786</ele>
        <time>2021-09-06T08:05:36.000Z</time>
      </trkpt>
      <trkpt lat="48.68974" lon="-0.71171">
        <ele>262.123672</ele>
        <time>2021-09-06T08:05:41.000Z</time>
      </trkpt>
      <trkpt lat="48.68945" lon="-0.71181">
        <ele>261.805924</ele>
        <time>2021-09-06T08:05:46.000Z</time>
      </trkpt>
      <trkpt lat="48.68913" lon="-0.71192">
        <ele>261.457866</ele>
        <time>2021-09-06T08:05:52.000Z</time>
      </trkpt>
      <trkpt lat="48.68889" lon="-0.71199">
        <ele>261.192084</ele>
        <time>2021-09-06T08:05:57.000Z</time>
      </trkpt>
      <trkpt lat="48.68879" lon="-0.71203">
        <ele>261.088258</ele>
        <time>2021-09-06T08:05:59.000Z</time>
      </trkpt>
      <trkpt lat="48.68856" lon="-0.71211">
        <ele>260.831362</ele>
        <time>2021-09-06T08:06:04.000Z</time>
      </trkpt>
      <trkpt lat="48.68821" lon="-0.71223">
        <ele>260.364125</ele>
        <time>2021-09-06T08:06:11.000Z</time>
      </trkpt>
      <trkpt lat="48.68777" lon="-0.71238">
        <ele>259.614739</ele>
        <time>2021-09-06T08:06:18.000Z</time>
      </trkpt>
      <trkpt lat="48.6872" lon="-0.71257">
        <ele>258.628585</ele>
        <time>2021-09-06T08:06:26.000Z</time>
      </trkpt>
      <trkpt lat="48.68705" lon="-0.7126">
        <ele>258.380228</ele>
        <time>2021-09-06T08:06:28.000Z</time>
      </trkpt>
      <trkpt lat="48.68693" lon="-0.71255">
        <ele>258.167736</ele>
        <time>2021-09-06T08:06:30.000Z</time>
      </trkpt>
      <trkpt lat="48.68689" lon="-0.71252">
        <ele>258.086381</ele>
        <time>2021-09-06T08:06:31.000Z</time>
      </trkpt>
      <trkpt lat="48.68684" lon="-0.71239">
        <ele>257.933813</ele>
        <time>2021-09-06T08:06:33.000Z</time>
      </trkpt>
      <trkpt lat="48.68689" lon="-0.71224">
        <ele>257.748671</ele>
        <time>2021-09-06T08:06:35.000Z</time>
      </trkpt>
      <trkpt lat="48.68692" lon="-0.71216">
        <ele>257.646099</ele>
        <time>2021-09-06T08:06:36.000Z</time>
      </trkpt>
      <trkpt lat="48.6871" lon="-0.71171">
        <ele>257.009176</ele>
        <time>2021-09-06T08:06:41.000Z</time>
      </trkpt>
      <trkpt lat="48.68737" lon="-0.71096">
        <ele>255.964951</ele>
        <time>2021-09-06T08:06:48.000Z</time>
      </trkpt>
      <trkpt lat="48.68763" lon="-0.71023">
        <ele>254.946699</ele>
        <time>2021-09-06T08:06:55.000Z</time>
      </trkpt>
      <trkpt lat="48.68787" lon="-0.70958">
        <ele>254.13438</ele>
        <time>2021-09-06T08:07:02.000Z</time>
      </trkpt>
      <trkpt lat="48.68807" lon="-0.7089">
        <ele>253.676717</ele>
        <time>2021-09-06T08:07:10.000Z</time>
      </trkpt>
      <trkpt lat="48.68816" lon="-0.70849">
        <ele>253.415324</ele>
        <time>2021-09-06T08:07:15.000Z</time>
      </trkpt>
      <trkpt lat="48.68825" lon="-0.70791">
        <ele>253.053177</ele>
        <time>2021-09-06T08:07:22.000Z</time>
      </trkpt>
      <trkpt lat="48.68827" lon="-0.70766">
        <ele>252.900917</ele>
        <time>2021-09-06T08:07:25.000Z</time>
      </trkpt>
      <trkpt lat="48.6883" lon="-0.70742">
        <ele>252.75225</ele>
        <time>2021-09-06T08:07:28.000Z</time>
      </trkpt>
      <trkpt lat="48.68839" lon="-0.70658">
        <ele>252.556569</ele>
        <time>2021-09-06T08:07:38.000Z</time>
      </trkpt>
      <trkpt lat="48.68848" lon="-0.70576">
        <ele>252.533877</ele>
        <time>2021-09-06T08:07:48.000Z</time>
      </trkpt>
      <trkpt lat="48.68859" lon="-0.70514">
        <ele>252.516487</ele>
        <time>2021-09-06T08:07:56.000Z</time>
      </trkpt>
      <trkpt lat="48.68871" lon="-0.7046">
        <ele>252.500839</ele>
        <time>2021-09-06T08:08:03.000Z</time>
      </trkpt>
      <trkpt lat="48.68886" lon="-0.70408">
        <ele>252.104355</ele>
        <time>2021-09-06T08:08:09.000Z</time>
      </trkpt>
      <trkpt lat="48.68902" lon="-0.70346">
        <ele>251.508019</ele>
        <time>2021-09-06T08:08:15.000Z</time>
      </trkpt>
      <trkpt lat="48.68908" lon="-0.70324">
        <ele>251.302478</ele>
        <time>2021-09-06T08:08:17.000Z</time>
      </trkpt>
      <trkpt lat="48.68913" lon="-0.70302">
        <ele>251.087727</ele>
        <time>2021-09-06T08:08:19.000Z</time>
      </trkpt>
      <trkpt lat="48.68931" lon="-0.70236">
        <ele>250.456002</ele>
        <time>2021-09-06T08:08:24.000Z</time>
      </trkpt>
      <trkpt lat="48.68946" lon="-0.70155">
        <ele>249.901192</ele>
        <time>2021-09-06T08:08:30.000Z</time>
      </trkpt>
      <trkpt lat="48.68946" lon="-0.70107">
        <ele>249.707363</ele>
        <time>2021-09-06T08:08:34.000Z</time>
      </trkpt>
      <trkpt lat="48.68944" lon="-0.70071">
        <ele>249.56082</ele>
        <time>2021-09-06T08:08:38.000Z</time>
      </trkpt>
      <trkpt lat="48.68941" lon="-0.70032">
        <ele>249.398793</ele>
        <time>2021-09-06T08:08:44.000Z</time>
      </trkpt>
      <trkpt lat="48.6894" lon="-0.70002">
        <ele>249.280484</ele>
        <time>2021-09-06T08:08:50.000Z</time>
      </trkpt>
      <trkpt lat="48.68937" lon="-0.69976">
        <ele>249.171782</ele>
        <time>2021-09-06T08:08:56.000Z</time>
      </trkpt>
      <trkpt lat="48.68936" lon="-0.69943">
        <ele>249.038911</ele>
        <time>2021-09-06T08:09:03.000Z</time>
      </trkpt>
      <trkpt lat="48.68933" lon="-0.69916">
        <ele>249.006014</ele>
        <time>2021-09-06T08:09:09.000Z</time>
      </trkpt>
      <trkpt lat="48.68932" lon="-0.69876">
        <ele>249.209104</ele>
        <time>2021-09-06T08:09:17.000Z</time>
      </trkpt>
      <trkpt lat="48.6893" lon="-0.69847">
        <ele>249.36007</ele>
        <time>2021-09-06T08:09:23.000Z</time>
      </trkpt>
      <trkpt lat="48.68928" lon="-0.698">
        <ele>249.601906</ele>
        <time>2021-09-06T08:09:31.000Z</time>
      </trkpt>
      <trkpt lat="48.68925" lon="-0.69755">
        <ele>249.834217</ele>
        <time>2021-09-06T08:09:38.000Z</time>
      </trkpt>
      <trkpt lat="48.68924" lon="-0.69749">
        <ele>249.866673</ele>
        <time>2021-09-06T08:09:39.000Z</time>
      </trkpt>
      <trkpt lat="48.68917" lon="-0.69744">
        <ele>249.929924</ele>
        <time>2021-09-06T08:09:41.000Z</time>
      </trkpt>
      <trkpt lat="48.68912" lon="-0.69743">
        <ele>249.963545</ele>
        <time>2021-09-06T08:09:42.000Z</time>
      </trkpt>
      <trkpt lat="48.68904" lon="-0.69743">
        <ele>250.028945</ele>
        <time>2021-09-06T08:09:44.000Z</time>
      </trkpt>
      <trkpt lat="48.689" lon="-0.69742">
        <ele>250.059741</ele>
        <time>2021-09-06T08:09:45.000Z</time>
      </trkpt>
      <trkpt lat="48.68868" lon="-0.69731">
        <ele>250.312182</ele>
        <time>2021-09-06T08:09:52.000Z</time>
      </trkpt>
      <trkpt lat="48.68828" lon="-0.69718">
        <ele>250.591157</ele>
        <time>2021-09-06T08:10:00.000Z</time>
      </trkpt>
      <trkpt lat="48.68808" lon="-0.69712">
        <ele>250.724153</ele>
        <time>2021-09-06T08:10:04.000Z</time>
      </trkpt>
      <trkpt lat="48.6878" lon="-0.69701">
        <ele>250.918945</ele>
        <time>2021-09-06T08:10:10.000Z</time>
      </trkpt>
      <trkpt lat="48.68756" lon="-0.69691">
        <ele>251.084357</ele>
        <time>2021-09-06T08:10:15.000Z</time>
      </trkpt>
      <trkpt lat="48.68726" lon="-0.69674">
        <ele>251.292706</ele>
        <time>2021-09-06T08:10:22.000Z</time>
      </trkpt>
      <trkpt lat="48.68722" lon="-0.69672">
        <ele>251.321106</ele>
        <time>2021-09-06T08:10:23.000Z</time>
      </trkpt>
      <trkpt lat="48.68702" lon="-0.69661">
        <ele>251.461409</ele>
        <time>2021-09-06T08:10:28.000Z</time>
      </trkpt>
      <trkpt lat="48.6869" lon="-0.69654">
        <ele>251.544441</ele>
        <time>2021-09-06T08:10:31.000Z</time>
      </trkpt>
      <trkpt lat="48.68674" lon="-0.69646">
        <ele>251.668622</ele>
        <time>2021-09-06T08:10:35.000Z</time>
      </trkpt>
      <trkpt lat="48.68638" lon="-0.69626">
        <ele>251.950098</ele>
        <time>2021-09-06T08:10:43.000Z</time>
      </trkpt>
      <trkpt lat="48.68599" lon="-0.69607">
        <ele>252.252877</ele>
        <time>2021-09-06T08:10:50.000Z</time>
      </trkpt>
      <trkpt lat="48.68555" lon="-0.69586">
        <ele>252.589091</ele>
        <time>2021-09-06T08:10:57.000Z</time>
      </trkpt>
      <trkpt lat="48.68511" lon="-0.69565">
        <ele>252.947727</ele>
        <time>2021-09-06T08:11:04.000Z</time>
      </trkpt>
      <trkpt lat="48.68471" lon="-0.69547">
        <ele>253.325536</ele>
        <time>2021-09-06T08:11:11.000Z</time>
      </trkpt>
      <trkpt lat="48.68438" lon="-0.69531">
        <ele>253.645516</ele>
        <time>2021-09-06T08:11:18.000Z</time>
      </trkpt>
      <trkpt lat="48.68406" lon="-0.69518">
        <ele>253.943748</ele>
        <time>2021-09-06T08:11:25.000Z</time>
      </trkpt>
      <trkpt lat="48.68369" lon="-0.69504">
        <ele>254.294257</ele>
        <time>2021-09-06T08:11:32.000Z</time>
      </trkpt>
      <trkpt lat="48.68326" lon="-0.69483">
        <ele>254.566927</ele>
        <time>2021-09-06T08:11:39.000Z</time>
      </trkpt>
      <trkpt lat="48.68286" lon="-0.69458">
        <ele>254.681953</ele>
        <time>2021-09-06T08:11:46.000Z</time>
      </trkpt>
      <trkpt lat="48.6828" lon="-0.69454">
        <ele>254.698332</ele>
        <time>2021-09-06T08:11:47.000Z</time>
      </trkpt>
      <trkpt lat="48.68266" lon="-0.69446">
        <ele>254.735782</ele>
        <time>2021-09-06T08:11:50.000Z</time>
      </trkpt>
      <trkpt lat="48.68245" lon="-0.69433">
        <ele>254.796424</ele>
        <time>2021-09-06T08:11:54.000Z</time>
      </trkpt>
      <trkpt lat="48.68233" lon="-0.69427">
        <ele>254.829252</ele>
        <time>2021-09-06T08:11:56.000Z</time>
      </trkpt>
      <trkpt lat="48.68211" lon="-0.69415">
        <ele>254.890542</ele>
        <time>2021-09-06T08:12:00.000Z</time>
      </trkpt>
      <trkpt lat="48.6818" lon="-0.69399">
        <ele>254.97494</ele>
        <time>2021-09-06T08:12:06.000Z</time>
      </trkpt>
      <trkpt lat="48.68176" lon="-0.69397">
        <ele>255.012723</ele>
        <time>2021-09-06T08:12:07.000Z</time>
      </trkpt>
      <trkpt lat="48.68157" lon="-0.69388">
        <ele>255.28537</ele>
        <time>2021-09-06T08:12:11.000Z</time>
      </trkpt>
      <trkpt lat="48.68154" lon="-0.69386">
        <ele>255.338374</ele>
        <time>2021-09-06T08:12:12.000Z</time>
      </trkpt>
      <trkpt lat="48.68143" lon="-0.69378">
        <ele>255.510734</ele>
        <time>2021-09-06T08:12:15.000Z</time>
      </trkpt>
      <trkpt lat="48.68126" lon="-0.69367">
        <ele>255.779918</ele>
        <time>2021-09-06T08:12:19.000Z</time>
      </trkpt>
      <trkpt lat="48.681" lon="-0.69348">
        <ele>256.181306</ele>
        <time>2021-09-06T08:12:25.000Z</time>
      </trkpt>
      <trkpt lat="48.68079" lon="-0.69332">
        <ele>256.521942</ele>
        <time>2021-09-06T08:12:30.000Z</time>
      </trkpt>
      <trkpt lat="48.68065" lon="-0.6932">
        <ele>256.750244</ele>
        <time>2021-09-06T08:12:33.000Z</time>
      </trkpt>
      <trkpt lat="48.68061" lon="-0.69317">
        <ele>256.818965</ele>
        <time>2021-09-06T08:12:34.000Z</time>
      </trkpt>
      <trkpt lat="48.68052" lon="-0.6931">
        <ele>256.952382</ele>
        <time>2021-09-06T08:12:36.000Z</time>
      </trkpt>
      <trkpt lat="48.68044" lon="-0.69303">
        <ele>257.085046</ele>
        <time>2021-09-06T08:12:38.000Z</time>
      </trkpt>
      <trkpt lat="48.68037" lon="-0.69296">
        <ele>257.212344</ele>
        <time>2021-09-06T08:12:40.000Z</time>
      </trkpt>
      <trkpt lat="48.68027" lon="-0.69289">
        <ele>257.365522</ele>
        <time>2021-09-06T08:12:42.000Z</time>
      </trkpt>
      <trkpt lat="48.68003" lon="-0.69269">
        <ele>257.961869</ele>
        <time>2021-09-06T08:12:47.000Z</time>
      </trkpt>
      <trkpt lat="48.67976" lon="-0.69245">
        <ele>258.830127</ele>
        <time>2021-09-06T08:12:53.000Z</time>
      </trkpt>
      <trkpt lat="48.67948" lon="-0.69221">
        <ele>259.715492</ele>
        <time>2021-09-06T08:13:00.000Z</time>
      </trkpt>
      <trkpt lat="48.67932" lon="-0.69208">
        <ele>260.228821</ele>
        <time>2021-09-06T08:13:06.000Z</time>
      </trkpt>
      <trkpt lat="48.6792" lon="-0.69199">
        <ele>260.599383</ele>
        <time>2021-09-06T08:13:10.000Z</time>
      </trkpt>
      <trkpt lat="48.67909" lon="-0.69189">
        <ele>260.949168</ele>
        <time>2021-09-06T08:13:14.000Z</time>
      </trkpt>
      <trkpt lat="48.67898" lon="-0.69179">
        <ele>261.313429</ele>
        <time>2021-09-06T08:13:18.000Z</time>
      </trkpt>
      <trkpt lat="48.67875" lon="-0.69161">
        <ele>262.047869</ele>
        <time>2021-09-06T08:13:26.000Z</time>
      </trkpt>
      <trkpt lat="48.67858" lon="-0.69148">
        <ele>262.566409</ele>
        <time>2021-09-06T08:13:32.000Z</time>
      </trkpt>
      <trkpt lat="48.67844" lon="-0.69138">
        <ele>262.756889</ele>
        <time>2021-09-06T08:13:37.000Z</time>
      </trkpt>
      <trkpt lat="48.67826" lon="-0.69128">
        <ele>262.987985</ele>
        <time>2021-09-06T08:13:43.000Z</time>
      </trkpt>
      <trkpt lat="48.67804" lon="-0.69108">
        <ele>263.309846</ele>
        <time>2021-09-06T08:13:50.000Z</time>
      </trkpt>
      <trkpt lat="48.67789" lon="-0.69098">
        <ele>263.506111</ele>
        <time>2021-09-06T08:13:54.000Z</time>
      </trkpt>
      <trkpt lat="48.67786" lon="-0.69094">
        <ele>263.563151</ele>
        <time>2021-09-06T08:13:55.000Z</time>
      </trkpt>
      <trkpt lat="48.67766" lon="-0.69073">
        <ele>263.866196</ele>
        <time>2021-09-06T08:14:00.000Z</time>
      </trkpt>
      <trkpt lat="48.67743" lon="-0.69043">
        <ele>264.238004</ele>
        <time>2021-09-06T08:14:05.000Z</time>
      </trkpt>
      <trkpt lat="48.67733" lon="-0.69027">
        <ele>264.413278</ele>
        <time>2021-09-06T08:14:07.000Z</time>
      </trkpt>
      <trkpt lat="48.67721" lon="-0.69">
        <ele>264.687925</ele>
        <time>2021-09-06T08:14:10.000Z</time>
      </trkpt>
      <trkpt lat="48.67701" lon="-0.68948">
        <ele>264.309093</ele>
        <time>2021-09-06T08:14:15.000Z</time>
      </trkpt>
      <trkpt lat="48.67678" lon="-0.68878">
        <ele>263.531476</ele>
        <time>2021-09-06T08:14:21.000Z</time>
      </trkpt>
      <trkpt lat="48.67655" lon="-0.68817">
        <ele>262.835552</ele>
        <time>2021-09-06T08:14:26.000Z</time>
      </trkpt>
      <trkpt lat="48.67621" lon="-0.68754">
        <ele>262.009561</ele>
        <time>2021-09-06T08:14:32.000Z</time>
      </trkpt>
      <trkpt lat="48.67603" lon="-0.68731">
        <ele>261.609218</ele>
        <time>2021-09-06T08:14:35.000Z</time>
      </trkpt>
      <trkpt lat="48.67597" lon="-0.68725">
        <ele>261.473436</ele>
        <time>2021-09-06T08:14:36.000Z</time>
      </trkpt>
      <trkpt lat="48.67566" lon="-0.68696">
        <ele>260.84946</ele>
        <time>2021-09-06T08:14:41.000Z</time>
      </trkpt>
      <trkpt lat="48.67539" lon="-0.68667">
        <ele>260.273765</ele>
        <time>2021-09-06T08:14:46.000Z</time>
      </trkpt>
      <trkpt lat="48.67535" lon="-0.68661">
        <ele>260.168077</ele>
        <time>2021-09-06T08:14:47.000Z</time>
      </trkpt>
      <trkpt lat="48.67524" lon="-0.68645">
        <ele>259.911689</ele>
        <time>2021-09-06T08:14:50.000Z</time>
      </trkpt>
      <trkpt lat="48.67511" lon="-0.68623">
        <ele>259.564938</ele>
        <time>2021-09-06T08:14:55.000Z</time>
      </trkpt>
      <trkpt lat="48.67504" lon="-0.68602">
        <ele>259.293796</ele>
        <time>2021-09-06T08:15:00.000Z</time>
      </trkpt>
      <trkpt lat="48.67482" lon="-0.68576">
        <ele>258.86137</ele>
        <time>2021-09-06T08:15:06.000Z</time>
      </trkpt>
      <trkpt lat="48.67466" lon="-0.6856">
        <ele>258.663796</ele>
        <time>2021-09-06T08:15:10.000Z</time>
      </trkpt>
      <trkpt lat="48.67452" lon="-0.68547">
        <ele>258.492763</ele>
        <time>2021-09-06T08:15:14.000Z</time>
      </trkpt>
      <trkpt lat="48.67428" lon="-0.68531">
        <ele>258.216056</ele>
        <time>2021-09-06T08:15:20.000Z</time>
      </trkpt>
      <trkpt lat="48.67419" lon="-0.68529">
        <ele>258.119116</ele>
        <time>2021-09-06T08:15:22.000Z</time>
      </trkpt>
      <trkpt lat="48.67403" lon="-0.68525">
        <ele>257.950784</ele>
        <time>2021-09-06T08:15:25.000Z</time>
      </trkpt>
      <trkpt lat="48.67385" lon="-0.68525">
        <ele>257.77042</ele>
        <time>2021-09-06T08:15:28.000Z</time>
      </trkpt>
      <trkpt lat="48.67366" lon="-0.68527">
        <ele>257.57201</ele>
        <time>2021-09-06T08:15:31.000Z</time>
      </trkpt>
      <trkpt lat="48.67348" lon="-0.68529">
        <ele>257.380404</ele>
        <time>2021-09-06T08:15:34.000Z</time>
      </trkpt>
      <trkpt lat="48.67335" lon="-0.68529">
        <ele>257.247949</ele>
        <time>2021-09-06T08:15:36.000Z</time>
      </trkpt>
      <trkpt lat="48.67322" lon="-0.68527">
        <ele>257.105635</ele>
        <time>2021-09-06T08:15:38.000Z</time>
      </trkpt>
      <trkpt lat="48.67307" lon="-0.68524">
        <ele>256.874018</ele>
        <time>2021-09-06T08:15:40.000Z</time>
      </trkpt>
      <trkpt lat="48.67253" lon="-0.68515">
        <ele>255.897893</ele>
        <time>2021-09-06T08:15:47.000Z</time>
      </trkpt>
      <trkpt lat="48.67222" lon="-0.68507">
        <ele>255.332373</ele>
        <time>2021-09-06T08:15:51.000Z</time>
      </trkpt>
      <trkpt lat="48.67192" lon="-0.68495">
        <ele>254.787965</ele>
        <time>2021-09-06T08:15:55.000Z</time>
      </trkpt>
      <trkpt lat="48.67161" lon="-0.68483">
        <ele>254.216512</ele>
        <time>2021-09-06T08:15:59.000Z</time>
      </trkpt>
      <trkpt lat="48.67123" lon="-0.68471">
        <ele>253.442508</ele>
        <time>2021-09-06T08:16:04.000Z</time>
      </trkpt>
      <trkpt lat="48.67095" lon="-0.68462">
        <ele>252.817704</ele>
        <time>2021-09-06T08:16:08.000Z</time>
      </trkpt>
      <trkpt lat="48.67075" lon="-0.68455">
        <ele>252.345196</ele>
        <time>2021-09-06T08:16:11.000Z</time>
      </trkpt>
      <trkpt lat="48.6706" lon="-0.6845">
        <ele>252.019623</ele>
        <time>2021-09-06T08:16:13.000Z</time>
      </trkpt>
      <trkpt lat="48.67023" lon="-0.68439">
        <ele>251.163831</ele>
        <time>2021-09-06T08:16:18.000Z</time>
      </trkpt>
      <trkpt lat="48.66991" lon="-0.68426">
        <ele>250.43893</ele>
        <time>2021-09-06T08:16:22.000Z</time>
      </trkpt>
      <trkpt lat="48.66978" lon="-0.68414">
        <ele>250.093559</ele>
        <time>2021-09-06T08:16:24.000Z</time>
      </trkpt>
      <trkpt lat="48.66971" lon="-0.68404">
        <ele>249.878795</ele>
        <time>2021-09-06T08:16:25.000Z</time>
      </trkpt>
      <trkpt lat="48.66964" lon="-0.68393">
        <ele>249.63497</ele>
        <time>2021-09-06T08:16:26.000Z</time>
      </trkpt>
      <trkpt lat="48.66952" lon="-0.68369">
        <ele>249.133274</ele>
        <time>2021-09-06T08:16:28.000Z</time>
      </trkpt>
      <trkpt lat="48.66929" lon="-0.68319">
        <ele>248.119885</ele>
        <time>2021-09-06T08:16:33.000Z</time>
      </trkpt>
      <trkpt lat="48.66922" lon="-0.68304">
        <ele>247.809994</ele>
        <time>2021-09-06T08:16:35.000Z</time>
      </trkpt>
      <trkpt lat="48.66915" lon="-0.68292">
        <ele>247.531681</ele>
        <time>2021-09-06T08:16:37.000Z</time>
      </trkpt>
      <trkpt lat="48.66912" lon="-0.68286">
        <ele>247.411236</ele>
        <time>2021-09-06T08:16:38.000Z</time>
      </trkpt>
      <trkpt lat="48.66903" lon="-0.68275">
        <ele>247.126248</ele>
        <time>2021-09-06T08:16:41.000Z</time>
      </trkpt>
      <trkpt lat="48.66893" lon="-0.68259">
        <ele>246.745907</ele>
        <time>2021-09-06T08:16:46.000Z</time>
      </trkpt>
      <trkpt lat="48.66881" lon="-0.68237">
        <ele>246.27077</ele>
        <time>2021-09-06T08:16:53.000Z</time>
      </trkpt>
      <trkpt lat="48.66871" lon="-0.68214">
        <ele>245.813591</ele>
        <time>2021-09-06T08:17:00.000Z</time>
      </trkpt>
      <trkpt lat="48.66866" lon="-0.68203">
        <ele>245.591154</ele>
        <time>2021-09-06T08:17:04.000Z</time>
      </trkpt>
      <trkpt lat="48.66858" lon="-0.68186">
        <ele>245.346345</ele>
        <time>2021-09-06T08:17:09.000Z</time>
      </trkpt>
      <trkpt lat="48.66855" lon="-0.68171">
        <ele>245.451882</ele>
        <time>2021-09-06T08:17:13.000Z</time>
      </trkpt>
      <trkpt lat="48.66854" lon="-0.68167">
        <ele>245.478182</ele>
        <time>2021-09-06T08:17:14.000Z</time>
      </trkpt>
      <trkpt lat="48.66848" lon="-0.6815">
        <ele>245.600925</ele>
        <time>2021-09-06T08:17:18.000Z</time>
      </trkpt>
      <trkpt lat="48.66836" lon="-0.68127">
        <ele>245.789091</ele>
        <time>2021-09-06T08:17:25.000Z</time>
      </trkpt>
      <trkpt lat="48.6683" lon="-0.68107">
        <ele>245.933895</ele>
        <time>2021-09-06T08:17:31.000Z</time>
      </trkpt>
      <trkpt lat="48.66822" lon="-0.68089">
        <ele>246.06772</ele>
        <time>2021-09-06T08:17:36.000Z</time>
      </trkpt>
      <trkpt lat="48.66814" lon="-0.68068">
        <ele>246.225737</ele>
        <time>2021-09-06T08:17:42.000Z</time>
      </trkpt>
      <trkpt lat="48.66804" lon="-0.6805">
        <ele>246.372321</ele>
        <time>2021-09-06T08:17:48.000Z</time>
      </trkpt>
      <trkpt lat="48.66796" lon="-0.68034">
        <ele>246.508106</ele>
        <time>2021-09-06T08:17:54.000Z</time>
      </trkpt>
      <trkpt lat="48.66784" lon="-0.68011">
        <ele>246.691253</ele>
        <time>2021-09-06T08:18:01.000Z</time>
      </trkpt>
      <trkpt lat="48.66776" lon="-0.67984">
        <ele>246.885738</ele>
        <time>2021-09-06T08:18:08.000Z</time>
      </trkpt>
      <trkpt lat="48.66771" lon="-0.67963">
        <ele>247.029462</ele>
        <time>2021-09-06T08:18:13.000Z</time>
      </trkpt>
      <trkpt lat="48.66767" lon="-0.67938">
        <ele>247.464329</ele>
        <time>2021-09-06T08:18:19.000Z</time>
      </trkpt>
      <trkpt lat="48.66762" lon="-0.67904">
        <ele>248.170031</ele>
        <time>2021-09-06T08:18:27.000Z</time>
      </trkpt>
      <trkpt lat="48.66761" lon="-0.67881">
        <ele>248.632943</ele>
        <time>2021-09-06T08:18:33.000Z</time>
      </trkpt>
      <trkpt lat="48.6676" lon="-0.67878">
        <ele>248.687274</ele>
        <time>2021-09-06T08:18:34.000Z</time>
      </trkpt>
      <trkpt lat="48.6676" lon="-0.67869">
        <ele>248.870539</ele>
        <time>2021-09-06T08:18:37.000Z</time>
      </trkpt>
      <trkpt lat="48.6676" lon="-0.67846">
        <ele>249.352904</ele>
        <time>2021-09-06T08:18:45.000Z</time>
      </trkpt>
      <trkpt lat="48.6676" lon="-0.67843">
        <ele>249.403782</ele>
        <time>2021-09-06T08:18:46.000Z</time>
      </trkpt>
      <trkpt lat="48.66759" lon="-0.67839">
        <ele>249.502288</ele>
        <time>2021-09-06T08:18:48.000Z</time>
      </trkpt>
      <trkpt lat="48.66758" lon="-0.67838">
        <ele>249.541516</ele>
        <time>2021-09-06T08:18:49.000Z</time>
      </trkpt>
      <trkpt lat="48.66756" lon="-0.67831">
        <ele>249.688352</ele>
        <time>2021-09-06T08:18:51.000Z</time>
      </trkpt>
      <trkpt lat="48.66755" lon="-0.67828">
        <ele>249.755026</ele>
        <time>2021-09-06T08:18:52.000Z</time>
      </trkpt>
      <trkpt lat="48.66754" lon="-0.67824">
        <ele>249.84121</ele>
        <time>2021-09-06T08:18:54.000Z</time>
      </trkpt>
      <trkpt lat="48.66753" lon="-0.67818">
        <ele>249.961026</ele>
        <time>2021-09-06T08:18:56.000Z</time>
      </trkpt>
      <trkpt lat="48.66752" lon="-0.67786">
        <ele>250.610592</ele>
        <time>2021-09-06T08:19:03.000Z</time>
      </trkpt>
      <trkpt lat="48.6675" lon="-0.67756">
        <ele>251.233679</ele>
        <time>2021-09-06T08:19:10.000Z</time>
      </trkpt>
      <trkpt lat="48.66743" lon="-0.67722">
        <ele>251.959367</ele>
        <time>2021-09-06T08:19:18.000Z</time>
      </trkpt>
      <trkpt lat="48.66738" lon="-0.67698">
        <ele>252.468588</ele>
        <time>2021-09-06T08:19:24.000Z</time>
      </trkpt>
      <trkpt lat="48.66734" lon="-0.67675">
        <ele>252.903492</ele>
        <time>2021-09-06T08:19:30.000Z</time>
      </trkpt>
      <trkpt lat="48.66731" lon="-0.67655">
        <ele>253.237408</ele>
        <time>2021-09-06T08:19:35.000Z</time>
      </trkpt>
      <trkpt lat="48.66729" lon="-0.67648">
        <ele>253.374306</ele>
        <time>2021-09-06T08:19:37.000Z</time>
      </trkpt>
      <trkpt lat="48.66728" lon="-0.6764">
        <ele>253.51293</ele>
        <time>2021-09-06T08:19:39.000Z</time>
      </trkpt>
      <trkpt lat="48.66723" lon="-0.67618">
        <ele>253.904295</ele>
        <time>2021-09-06T08:19:44.000Z</time>
      </trkpt>
      <trkpt lat="48.66718" lon="-0.67595">
        <ele>254.306106</ele>
        <time>2021-09-06T08:19:49.000Z</time>
      </trkpt>
      <trkpt lat="48.66713" lon="-0.67575">
        <ele>254.679667</ele>
        <time>2021-09-06T08:19:53.000Z</time>
      </trkpt>
      <trkpt lat="48.66701" lon="-0.67529">
        <ele>255.514595</ele>
        <time>2021-09-06T08:20:00.000Z</time>
      </trkpt>
      <trkpt lat="48.66684" lon="-0.67486">
        <ele>256.374061</ele>
        <time>2021-09-06T08:20:06.000Z</time>
      </trkpt>
      <trkpt lat="48.6667" lon="-0.67456">
        <ele>256.985943</ele>
        <time>2021-09-06T08:20:10.000Z</time>
      </trkpt>
      <trkpt lat="48.66666" lon="-0.67449">
        <ele>257.145194</ele>
        <time>2021-09-06T08:20:11.000Z</time>
      </trkpt>
      <trkpt lat="48.66636" lon="-0.67413">
        <ele>257.758093</ele>
        <time>2021-09-06T08:20:17.000Z</time>
      </trkpt>
      <trkpt lat="48.6661" lon="-0.67387">
        <ele>258.234802</ele>
        <time>2021-09-06T08:20:23.000Z</time>
      </trkpt>
      <trkpt lat="48.66606" lon="-0.67385">
        <ele>258.29942</ele>
        <time>2021-09-06T08:20:24.000Z</time>
      </trkpt>
      <trkpt lat="48.66595" lon="-0.67377">
        <ele>258.478803</ele>
        <time>2021-09-06T08:20:27.000Z</time>
      </trkpt>
      <trkpt lat="48.66586" lon="-0.67371">
        <ele>258.626896</ele>
        <time>2021-09-06T08:20:29.000Z</time>
      </trkpt>
      <trkpt lat="48.66576" lon="-0.67363">
        <ele>258.803577</ele>
        <time>2021-09-06T08:20:32.000Z</time>
      </trkpt>
      <trkpt lat="48.66562" lon="-0.67353">
        <ele>259.048241</ele>
        <time>2021-09-06T08:20:36.000Z</time>
      </trkpt>
      <trkpt lat="48.66542" lon="-0.6734">
        <ele>259.37876</ele>
        <time>2021-09-06T08:20:41.000Z</time>
      </trkpt>
      <trkpt lat="48.66521" lon="-0.67329">
        <ele>259.716596</ele>
        <time>2021-09-06T08:20:46.000Z</time>
      </trkpt>
      <trkpt lat="48.66488" lon="-0.6731">
        <ele>260.010027</ele>
        <time>2021-09-06T08:20:52.000Z</time>
      </trkpt>
      <trkpt lat="48.66442" lon="-0.67286">
        <ele>260.120829</ele>
        <time>2021-09-06T08:21:00.000Z</time>
      </trkpt>
      <trkpt lat="48.66436" lon="-0.67284">
        <ele>260.134495</ele>
        <time>2021-09-06T08:21:01.000Z</time>
      </trkpt>
      <trkpt lat="48.66419" lon="-0.67278">
        <ele>260.17426</ele>
        <time>2021-09-06T08:21:04.000Z</time>
      </trkpt>
      <trkpt lat="48.66394" lon="-0.67271">
        <ele>260.230478</ele>
        <time>2021-09-06T08:21:08.000Z</time>
      </trkpt>
      <trkpt lat="48.66376" lon="-0.67269">
        <ele>260.272251</ele>
        <time>2021-09-06T08:21:11.000Z</time>
      </trkpt>
      <trkpt lat="48.66365" lon="-0.6727">
        <ele>260.297738</ele>
        <time>2021-09-06T08:21:13.000Z</time>
      </trkpt>
      <trkpt lat="48.66359" lon="-0.67269">
        <ele>260.310153</ele>
        <time>2021-09-06T08:21:14.000Z</time>
      </trkpt>
      <trkpt lat="48.66336" lon="-0.67269">
        <ele>260.362926</ele>
        <time>2021-09-06T08:21:18.000Z</time>
      </trkpt>
      <trkpt lat="48.66318" lon="-0.67266">
        <ele>260.364587</ele>
        <time>2021-09-06T08:21:21.000Z</time>
      </trkpt>
      <trkpt lat="48.66283" lon="-0.67265">
        <ele>260.337</ele>
        <time>2021-09-06T08:21:27.000Z</time>
      </trkpt>
      <trkpt lat="48.66278" lon="-0.67264">
        <ele>260.332939</ele>
        <time>2021-09-06T08:21:28.000Z</time>
      </trkpt>
      <trkpt lat="48.66258" lon="-0.67263">
        <ele>260.316506</ele>
        <time>2021-09-06T08:21:32.000Z</time>
      </trkpt>
      <trkpt lat="48.66224" lon="-0.67256">
        <ele>260.28844</ele>
        <time>2021-09-06T08:21:39.000Z</time>
      </trkpt>
      <trkpt lat="48.66191" lon="-0.67246">
        <ele>260.261607</ele>
        <time>2021-09-06T08:21:46.000Z</time>
      </trkpt>
      <trkpt lat="48.6616" lon="-0.67234">
        <ele>260.235349</ele>
        <time>2021-09-06T08:21:52.000Z</time>
      </trkpt>
      <trkpt lat="48.66154" lon="-0.67231">
        <ele>260.230714</ele>
        <time>2021-09-06T08:21:53.000Z</time>
      </trkpt>
      <trkpt lat="48.66133" lon="-0.67211">
        <ele>260.014792</ele>
        <time>2021-09-06T08:21:57.000Z</time>
      </trkpt>
      <trkpt lat="48.66097" lon="-0.67176">
        <ele>259.631469</ele>
        <time>2021-09-06T08:22:03.000Z</time>
      </trkpt>
      <trkpt lat="48.66058" lon="-0.67154">
        <ele>259.25974</ele>
        <time>2021-09-06T08:22:09.000Z</time>
      </trkpt>
      <trkpt lat="48.66039" lon="-0.67141">
        <ele>259.071139</ele>
        <time>2021-09-06T08:22:12.000Z</time>
      </trkpt>
      <trkpt lat="48.66022" lon="-0.67124">
        <ele>258.881788</ele>
        <time>2021-09-06T08:22:15.000Z</time>
      </trkpt>
      <trkpt lat="48.66013" lon="-0.67111">
        <ele>258.771046</ele>
        <time>2021-09-06T08:22:17.000Z</time>
      </trkpt>
      <trkpt lat="48.66009" lon="-0.67106">
        <ele>258.723664</ele>
        <time>2021-09-06T08:22:18.000Z</time>
      </trkpt>
      <trkpt lat="48.65993" lon="-0.67087">
        <ele>258.539208</ele>
        <time>2021-09-06T08:22:21.000Z</time>
      </trkpt>
      <trkpt lat="48.65982" lon="-0.67076">
        <ele>258.402957</ele>
        <time>2021-09-06T08:22:23.000Z</time>
      </trkpt>
      <trkpt lat="48.6597" lon="-0.67066">
        <ele>258.273001</ele>
        <time>2021-09-06T08:22:25.000Z</time>
      </trkpt>
      <trkpt lat="48.65952" lon="-0.67053">
        <ele>258.079333</ele>
        <time>2021-09-06T08:22:28.000Z</time>
      </trkpt>
      <trkpt lat="48.65921" lon="-0.67029">
        <ele>257.735797</ele>
        <time>2021-09-06T08:22:34.000Z</time>
      </trkpt>
      <trkpt lat="48.65903" lon="-0.67015">
        <ele>257.542761</ele>
        <time>2021-09-06T08:22:38.000Z</time>
      </trkpt>
      <trkpt lat="48.65894" lon="-0.67007">
        <ele>257.44167</ele>
        <time>2021-09-06T08:22:40.000Z</time>
      </trkpt>
      <trkpt lat="48.65885" lon="-0.66999">
        <ele>257.333296</ele>
        <time>2021-09-06T08:22:42.000Z</time>
      </trkpt>
      <trkpt lat="48.65856" lon="-0.66973">
        <ele>257.010445</ele>
        <time>2021-09-06T08:22:48.000Z</time>
      </trkpt>
      <trkpt lat="48.65826" lon="-0.66949">
        <ele>257.112157</ele>
        <time>2021-09-06T08:22:54.000Z</time>
      </trkpt>
      <trkpt lat="48.6582" lon="-0.66946">
        <ele>257.193417</ele>
        <time>2021-09-06T08:22:55.000Z</time>
      </trkpt>
      <trkpt lat="48.65809" lon="-0.66943">
        <ele>257.356745</ele>
        <time>2021-09-06T08:22:57.000Z</time>
      </trkpt>
      <trkpt lat="48.65794" lon="-0.66942">
        <ele>257.575585</ele>
        <time>2021-09-06T08:23:00.000Z</time>
      </trkpt>
      <trkpt lat="48.65781" lon="-0.66943">
        <ele>257.760325</ele>
        <time>2021-09-06T08:23:03.000Z</time>
      </trkpt>
      <trkpt lat="48.65777" lon="-0.66944">
        <ele>257.821394</ele>
        <time>2021-09-06T08:23:04.000Z</time>
      </trkpt>
      <trkpt lat="48.65763" lon="-0.66946">
        <ele>258.027452</ele>
        <time>2021-09-06T08:23:08.000Z</time>
      </trkpt>
      <trkpt lat="48.65754" lon="-0.66947">
        <ele>258.162945</ele>
        <time>2021-09-06T08:23:11.000Z</time>
      </trkpt>
      <trkpt lat="48.65744" lon="-0.66947">
        <ele>258.301943</ele>
        <time>2021-09-06T08:23:15.000Z</time>
      </trkpt>
      <trkpt lat="48.65723" lon="-0.66944">
        <ele>258.606552</ele>
        <time>2021-09-06T08:23:20.000Z</time>
      </trkpt>
      <trkpt lat="48.65703" lon="-0.66939">
        <ele>258.905119</ele>
        <time>2021-09-06T08:23:26.000Z</time>
      </trkpt>
      <trkpt lat="48.65697" lon="-0.66937">
        <ele>258.98723</ele>
        <time>2021-09-06T08:23:28.000Z</time>
      </trkpt>
      <trkpt lat="48.65692" lon="-0.66933">
        <ele>259.071322</ele>
        <time>2021-09-06T08:23:30.000Z</time>
      </trkpt>
      <trkpt lat="48.65664" lon="-0.66917">
        <ele>259.466993</ele>
        <time>2021-09-06T08:23:37.000Z</time>
      </trkpt>
      <trkpt lat="48.65648" lon="-0.66899">
        <ele>259.556018</ele>
        <time>2021-09-06T08:23:41.000Z</time>
      </trkpt>
      <trkpt lat="48.65639" lon="-0.66885">
        <ele>259.613481</ele>
        <time>2021-09-06T08:23:44.000Z</time>
      </trkpt>
      <trkpt lat="48.65624" lon="-0.66868">
        <ele>259.695818</ele>
        <time>2021-09-06T08:23:48.000Z</time>
      </trkpt>
      <trkpt lat="48.65598" lon="-0.66841">
        <ele>259.835847</ele>
        <time>2021-09-06T08:23:54.000Z</time>
      </trkpt>
      <trkpt lat="48.65594" lon="-0.66836">
        <ele>259.8584</ele>
        <time>2021-09-06T08:23:55.000Z</time>
      </trkpt>
      <trkpt lat="48.65584" lon="-0.66826">
        <ele>259.909912</ele>
        <time>2021-09-06T08:23:57.000Z</time>
      </trkpt>
      <trkpt lat="48.6558" lon="-0.6682">
        <ele>259.93736</ele>
        <time>2021-09-06T08:23:58.000Z</time>
      </trkpt>
      <trkpt lat="48.65575" lon="-0.66815">
        <ele>259.963578</ele>
        <time>2021-09-06T08:23:59.000Z</time>
      </trkpt>
      <trkpt lat="48.65558" lon="-0.66799">
        <ele>260.049735</ele>
        <time>2021-09-06T08:24:03.000Z</time>
      </trkpt>
      <trkpt lat="48.65553" lon="-0.66794">
        <ele>260.079722</ele>
        <time>2021-09-06T08:24:04.000Z</time>
      </trkpt>
      <trkpt lat="48.6553" lon="-0.66775">
        <ele>260.194656</ele>
        <time>2021-09-06T08:24:08.000Z</time>
      </trkpt>
      <trkpt lat="48.655" lon="-0.66761">
        <ele>260.326044</ele>
        <time>2021-09-06T08:24:13.000Z</time>
      </trkpt>
      <trkpt lat="48.65467" lon="-0.66756">
        <ele>260.463327</ele>
        <time>2021-09-06T08:24:19.000Z</time>
      </trkpt>
      <trkpt lat="48.65441" lon="-0.66752">
        <ele>260.570584</ele>
        <time>2021-09-06T08:24:24.000Z</time>
      </trkpt>
      <trkpt lat="48.65411" lon="-0.66747">
        <ele>260.69287</ele>
        <time>2021-09-06T08:24:30.000Z</time>
      </trkpt>
      <trkpt lat="48.65393" lon="-0.66742">
        <ele>260.770104</ele>
        <time>2021-09-06T08:24:34.000Z</time>
      </trkpt>
      <trkpt lat="48.65369" lon="-0.66735">
        <ele>260.872881</ele>
        <time>2021-09-06T08:24:40.000Z</time>
      </trkpt>
      <trkpt lat="48.65351" lon="-0.66728">
        <ele>260.945903</ele>
        <time>2021-09-06T08:24:45.000Z</time>
      </trkpt>
      <trkpt lat="48.65327" lon="-0.66725">
        <ele>260.937826</ele>
        <time>2021-09-06T08:24:51.000Z</time>
      </trkpt>
      <trkpt lat="48.65305" lon="-0.66722">
        <ele>260.856345</ele>
        <time>2021-09-06T08:24:56.000Z</time>
      </trkpt>
      <trkpt lat="48.653" lon="-0.66722">
        <ele>260.839765</ele>
        <time>2021-09-06T08:24:57.000Z</time>
      </trkpt>
      <trkpt lat="48.65282" lon="-0.66717">
        <ele>260.773975</ele>
        <time>2021-09-06T08:25:00.000Z</time>
      </trkpt>
      <trkpt lat="48.65254" lon="-0.6671">
        <ele>260.67325</ele>
        <time>2021-09-06T08:25:04.000Z</time>
      </trkpt>
      <trkpt lat="48.65248" lon="-0.66709">
        <ele>260.649465</ele>
        <time>2021-09-06T08:25:05.000Z</time>
      </trkpt>
      <trkpt lat="48.65206" lon="-0.66711">
        <ele>260.499454</ele>
        <time>2021-09-06T08:25:11.000Z</time>
      </trkpt>
      <trkpt lat="48.65178" lon="-0.66717">
        <ele>260.396334</ele>
        <time>2021-09-06T08:25:15.000Z</time>
      </trkpt>
      <trkpt lat="48.65127" lon="-0.66727">
        <ele>260.168386</ele>
        <time>2021-09-06T08:25:22.000Z</time>
      </trkpt>
      <trkpt lat="48.65069" lon="-0.66739">
        <ele>259.893595</ele>
        <time>2021-09-06T08:25:30.000Z</time>
      </trkpt>
      <trkpt lat="48.65055" lon="-0.66742">
        <ele>259.826377</ele>
        <time>2021-09-06T08:25:32.000Z</time>
      </trkpt>
      <trkpt lat="48.65001" lon="-0.66753">
        <ele>259.562748</ele>
        <time>2021-09-06T08:25:40.000Z</time>
      </trkpt>
      <trkpt lat="48.64987" lon="-0.66756">
        <ele>259.498433</ele>
        <time>2021-09-06T08:25:42.000Z</time>
      </trkpt>
      <trkpt lat="48.64949" lon="-0.66763">
        <ele>258.982895</ele>
        <time>2021-09-06T08:25:48.000Z</time>
      </trkpt>
      <trkpt lat="48.6491" lon="-0.66762">
        <ele>258.443767</ele>
        <time>2021-09-06T08:25:54.000Z</time>
      </trkpt>
      <trkpt lat="48.64864" lon="-0.6675">
        <ele>257.797773</ele>
        <time>2021-09-06T08:26:01.000Z</time>
      </trkpt>
      <trkpt lat="48.64827" lon="-0.66734">
        <ele>257.262088</ele>
        <time>2021-09-06T08:26:06.000Z</time>
      </trkpt>
      <trkpt lat="48.64779" lon="-0.66701">
        <ele>256.30605</ele>
        <time>2021-09-06T08:26:12.000Z</time>
      </trkpt>
      <trkpt lat="48.64725" lon="-0.66676">
        <ele>255.133368</ele>
        <time>2021-09-06T08:26:18.000Z</time>
      </trkpt>
      <trkpt lat="48.6467" lon="-0.66658">
        <ele>253.961243</ele>
        <time>2021-09-06T08:26:24.000Z</time>
      </trkpt>
      <trkpt lat="48.64653" lon="-0.66652">
        <ele>253.596716</ele>
        <time>2021-09-06T08:26:26.000Z</time>
      </trkpt>
      <trkpt lat="48.64598" lon="-0.66628">
        <ele>252.714801</ele>
        <time>2021-09-06T08:26:33.000Z</time>
      </trkpt>
      <trkpt lat="48.64544" lon="-0.66598">
        <ele>251.945824</ele>
        <time>2021-09-06T08:26:41.000Z</time>
      </trkpt>
      <trkpt lat="48.64501" lon="-0.66581">
        <ele>251.341165</ele>
        <time>2021-09-06T08:26:48.000Z</time>
      </trkpt>
      <trkpt lat="48.64465" lon="-0.66566">
        <ele>250.839362</ele>
        <time>2021-09-06T08:26:55.000Z</time>
      </trkpt>
      <trkpt lat="48.6446" lon="-0.66556">
        <ele>250.844147</ele>
        <time>2021-09-06T08:26:57.000Z</time>
      </trkpt>
      <trkpt lat="48.6446" lon="-0.66549">
        <ele>250.846642</ele>
        <time>2021-09-06T08:26:58.000Z</time>
      </trkpt>
      <trkpt lat="48.64466" lon="-0.66511">
        <ele>250.861571</ele>
        <time>2021-09-06T08:27:05.000Z</time>
      </trkpt>
      <trkpt lat="48.64464" lon="-0.66472">
        <ele>250.876379</ele>
        <time>2021-09-06T08:27:13.000Z</time>
      </trkpt>
      <trkpt lat="48.64462" lon="-0.66425">
        <ele>250.894087</ele>
        <time>2021-09-06T08:27:23.000Z</time>
      </trkpt>
      <trkpt lat="48.64458" lon="-0.66387">
        <ele>250.908594</ele>
        <time>2021-09-06T08:27:31.000Z</time>
      </trkpt>
      <trkpt lat="48.64452" lon="-0.6633">
        <ele>250.930353</ele>
        <time>2021-09-06T08:27:41.000Z</time>
      </trkpt>
      <trkpt lat="48.64451" lon="-0.66304">
        <ele>250.939998</ele>
        <time>2021-09-06T08:27:45.000Z</time>
      </trkpt>
      <trkpt lat="48.64452" lon="-0.66284">
        <ele>250.931145</ele>
        <time>2021-09-06T08:27:48.000Z</time>
      </trkpt>
      <trkpt lat="48.64459" lon="-0.66234">
        <ele>250.894368</ele>
        <time>2021-09-06T08:27:55.000Z</time>
      </trkpt>
      <trkpt lat="48.6446" lon="-0.66212">
        <ele>250.878155</ele>
        <time>2021-09-06T08:27:58.000Z</time>
      </trkpt>
      <trkpt lat="48.64458" lon="-0.6619">
        <ele>250.862174</ele>
        <time>2021-09-06T08:28:01.000Z</time>
      </trkpt>
      <trkpt lat="48.64454" lon="-0.66176">
        <ele>250.850882</ele>
        <time>2021-09-06T08:28:03.000Z</time>
      </trkpt>
      <trkpt lat="48.64448" lon="-0.66153">
        <ele>250.832777</ele>
        <time>2021-09-06T08:28:06.000Z</time>
      </trkpt>
      <trkpt lat="48.64439" lon="-0.66117">
        <ele>250.805142</ele>
        <time>2021-09-06T08:28:11.000Z</time>
      </trkpt>
      <trkpt lat="48.64439" lon="-0.66109">
        <ele>250.799636</ele>
        <time>2021-09-06T08:28:12.000Z</time>
      </trkpt>
      <trkpt lat="48.64438" lon="-0.66101">
        <ele>250.79386</ele>
        <time>2021-09-06T08:28:13.000Z</time>
      </trkpt>
      <trkpt lat="48.64438" lon="-0.66085">
        <ele>250.781826</ele>
        <time>2021-09-06T08:28:15.000Z</time>
      </trkpt>
      <trkpt lat="48.64439" lon="-0.66067">
        <ele>250.76865</ele>
        <time>2021-09-06T08:28:17.000Z</time>
      </trkpt>
      <trkpt lat="48.6444" lon="-0.66058">
        <ele>250.762095</ele>
        <time>2021-09-06T08:28:18.000Z</time>
      </trkpt>
      <trkpt lat="48.64439" lon="-0.66039">
        <ele>250.748716</ele>
        <time>2021-09-06T08:28:20.000Z</time>
      </trkpt>
      <trkpt lat="48.64437" lon="-0.6603">
        <ele>250.717471</ele>
        <time>2021-09-06T08:28:21.000Z</time>
      </trkpt>
      <trkpt lat="48.64428" lon="-0.65978">
        <ele>250.387214</ele>
        <time>2021-09-06T08:28:26.000Z</time>
      </trkpt>
      <trkpt lat="48.64427" lon="-0.65953">
        <ele>250.237495</ele>
        <time>2021-09-06T08:28:28.000Z</time>
      </trkpt>
      <trkpt lat="48.64428" lon="-0.65928">
        <ele>250.080384</ele>
        <time>2021-09-06T08:28:30.000Z</time>
      </trkpt>
      <trkpt lat="48.64435" lon="-0.65863">
        <ele>249.677068</ele>
        <time>2021-09-06T08:28:35.000Z</time>
      </trkpt>
      <trkpt lat="48.64439" lon="-0.65823">
        <ele>249.434659</ele>
        <time>2021-09-06T08:28:39.000Z</time>
      </trkpt>
      <trkpt lat="48.6444" lon="-0.658">
        <ele>249.289428</ele>
        <time>2021-09-06T08:28:43.000Z</time>
      </trkpt>
      <trkpt lat="48.64442" lon="-0.65774">
        <ele>249.131476</ele>
        <time>2021-09-06T08:28:49.000Z</time>
      </trkpt>
      <trkpt lat="48.64446" lon="-0.65737">
        <ele>248.876929</ele>
        <time>2021-09-06T08:28:56.000Z</time>
      </trkpt>
      <trkpt lat="48.64449" lon="-0.65699">
        <ele>248.60547</ele>
        <time>2021-09-06T08:29:01.000Z</time>
      </trkpt>
      <trkpt lat="48.64449" lon="-0.6569">
        <ele>248.542414</ele>
        <time>2021-09-06T08:29:02.000Z</time>
      </trkpt>
      <trkpt lat="48.64447" lon="-0.65671">
        <ele>248.408849</ele>
        <time>2021-09-06T08:29:04.000Z</time>
      </trkpt>
      <trkpt lat="48.64444" lon="-0.65653">
        <ele>248.275445</ele>
        <time>2021-09-06T08:29:06.000Z</time>
      </trkpt>
      <trkpt lat="48.64437" lon="-0.65618">
        <ele>248.025719</ele>
        <time>2021-09-06T08:29:10.000Z</time>
      </trkpt>
      <trkpt lat="48.64436" lon="-0.65603">
        <ele>247.919723</ele>
        <time>2021-09-06T08:29:12.000Z</time>
      </trkpt>
      <trkpt lat="48.64435" lon="-0.65547">
        <ele>247.523999</ele>
        <time>2021-09-06T08:29:19.000Z</time>
      </trkpt>
      <trkpt lat="48.6444" lon="-0.65503">
        <ele>247.212753</ele>
        <time>2021-09-06T08:29:25.000Z</time>
      </trkpt>
      <trkpt lat="48.64446" lon="-0.65442">
        <ele>246.168101</ele>
        <time>2021-09-06T08:29:32.000Z</time>
      </trkpt>
      <trkpt lat="48.64445" lon="-0.65408">
        <ele>245.562814</ele>
        <time>2021-09-06T08:29:35.000Z</time>
      </trkpt>
      <trkpt lat="48.64443" lon="-0.65396">
        <ele>245.337957</ele>
        <time>2021-09-06T08:29:36.000Z</time>
      </trkpt>
      <trkpt lat="48.64436" lon="-0.65371">
        <ele>244.846011</ele>
        <time>2021-09-06T08:29:38.000Z</time>
      </trkpt>
      <trkpt lat="48.64427" lon="-0.65346">
        <ele>244.325108</ele>
        <time>2021-09-06T08:29:40.000Z</time>
      </trkpt>
      <trkpt lat="48.64404" lon="-0.65279">
        <ele>242.988304</ele>
        <time>2021-09-06T08:29:45.000Z</time>
      </trkpt>
      <trkpt lat="48.64381" lon="-0.65208">
        <ele>241.37303</ele>
        <time>2021-09-06T08:29:50.000Z</time>
      </trkpt>
      <trkpt lat="48.64364" lon="-0.65163">
        <ele>240.210339</ele>
        <time>2021-09-06T08:29:53.000Z</time>
      </trkpt>
      <trkpt lat="48.64356" lon="-0.6515">
        <ele>239.817796</ele>
        <time>2021-09-06T08:29:54.000Z</time>
      </trkpt>
      <trkpt lat="48.6433" lon="-0.65112">
        <ele>238.575636</ele>
        <time>2021-09-06T08:29:57.000Z</time>
      </trkpt>
      <trkpt lat="48.64323" lon="-0.65097">
        <ele>238.159343</ele>
        <time>2021-09-06T08:29:58.000Z</time>
      </trkpt>
      <trkpt lat="48.64319" lon="-0.6508">
        <ele>237.756802</ele>
        <time>2021-09-06T08:29:59.000Z</time>
      </trkpt>
      <trkpt lat="48.64318" lon="-0.65063">
        <ele>237.370031</ele>
        <time>2021-09-06T08:30:00.000Z</time>
      </trkpt>
      <trkpt lat="48.64319" lon="-0.65046">
        <ele>236.991293</ele>
        <time>2021-09-06T08:30:01.000Z</time>
      </trkpt>
      <trkpt lat="48.64328" lon="-0.65017">
        <ele>236.266074</ele>
        <time>2021-09-06T08:30:03.000Z</time>
      </trkpt>
      <trkpt lat="48.64346" lon="-0.64988">
        <ele>235.549474</ele>
        <time>2021-09-06T08:30:06.000Z</time>
      </trkpt>
      <trkpt lat="48.64374" lon="-0.64959">
        <ele>234.672034</ele>
        <time>2021-09-06T08:30:11.000Z</time>
      </trkpt>
      <trkpt lat="48.64396" lon="-0.64933">
        <ele>233.948032</ele>
        <time>2021-09-06T08:30:17.000Z</time>
      </trkpt>
      <trkpt lat="48.64413" lon="-0.64908">
        <ele>233.330277</ele>
        <time>2021-09-06T08:30:24.000Z</time>
      </trkpt>
      <trkpt lat="48.64423" lon="-0.64886">
        <ele>232.881307</ele>
        <time>2021-09-06T08:30:31.000Z</time>
      </trkpt>
      <trkpt lat="48.64433" lon="-0.64858">
        <ele>232.339804</ele>
        <time>2021-09-06T08:30:40.000Z</time>
      </trkpt>
      <trkpt lat="48.64439" lon="-0.64837">
        <ele>231.946357</ele>
        <time>2021-09-06T08:30:47.000Z</time>
      </trkpt>
      <trkpt lat="48.64444" lon="-0.64809">
        <ele>231.513759</ele>
        <time>2021-09-06T08:30:56.000Z</time>
      </trkpt>
      <trkpt lat="48.64447" lon="-0.64782">
        <ele>232.155581</ele>
        <time>2021-09-06T08:31:05.000Z</time>
      </trkpt>
      <trkpt lat="48.64448" lon="-0.64767">
        <ele>232.499818</ele>
        <time>2021-09-06T08:31:11.000Z</time>
      </trkpt>
      <trkpt lat="48.64449" lon="-0.64762">
        <ele>232.617996</ele>
        <time>2021-09-06T08:31:13.000Z</time>
      </trkpt>
      <trkpt lat="48.64451" lon="-0.64757">
        <ele>232.746844</ele>
        <time>2021-09-06T08:31:15.000Z</time>
      </trkpt>
      <trkpt lat="48.64452" lon="-0.6475">
        <ele>232.932966</ele>
        <time>2021-09-06T08:31:18.000Z</time>
      </trkpt>
      <trkpt lat="48.64453" lon="-0.64745">
        <ele>233.055462</ele>
        <time>2021-09-06T08:31:20.000Z</time>
      </trkpt>
      <trkpt lat="48.64458" lon="-0.64727">
        <ele>233.501144</ele>
        <time>2021-09-06T08:31:27.000Z</time>
      </trkpt>
      <trkpt lat="48.6446" lon="-0.64719">
        <ele>233.69573</ele>
        <time>2021-09-06T08:31:30.000Z</time>
      </trkpt>
      <trkpt lat="48.64461" lon="-0.64716">
        <ele>233.756978</ele>
        <time>2021-09-06T08:31:31.000Z</time>
      </trkpt>
      <trkpt lat="48.64467" lon="-0.647">
        <ele>234.197194</ele>
        <time>2021-09-06T08:31:37.000Z</time>
      </trkpt>
      <trkpt lat="48.64474" lon="-0.64685">
        <ele>234.612631</ele>
        <time>2021-09-06T08:31:43.000Z</time>
      </trkpt>
      <trkpt lat="48.64479" lon="-0.64667">
        <ele>235.059473</ele>
        <time>2021-09-06T08:31:50.000Z</time>
      </trkpt>
      <trkpt lat="48.64486" lon="-0.64645">
        <ele>235.614515</ele>
        <time>2021-09-06T08:31:58.000Z</time>
      </trkpt>
      <trkpt lat="48.64493" lon="-0.64627">
        <ele>236.110067</ele>
        <time>2021-09-06T08:32:06.000Z</time>
      </trkpt>
      <trkpt lat="48.64498" lon="-0.64609">
        <ele>236.539266</ele>
        <time>2021-09-06T08:32:12.000Z</time>
      </trkpt>
      <trkpt lat="48.64503" lon="-0.64586">
        <ele>237.103394</ele>
        <time>2021-09-06T08:32:20.000Z</time>
      </trkpt>
      <trkpt lat="48.64504" lon="-0.64567">
        <ele>237.556991</ele>
        <time>2021-09-06T08:32:27.000Z</time>
      </trkpt>
      <trkpt lat="48.64505" lon="-0.64544">
        <ele>237.83608</ele>
        <time>2021-09-06T08:32:34.000Z</time>
      </trkpt>
      <trkpt lat="48.64502" lon="-0.64524">
        <ele>237.95284</ele>
        <time>2021-09-06T08:32:40.000Z</time>
      </trkpt>
      <trkpt lat="48.64496" lon="-0.64488">
        <ele>238.161445</ele>
        <time>2021-09-06T08:32:48.000Z</time>
      </trkpt>
      <trkpt lat="48.6449" lon="-0.64444">
        <ele>238.424149</ele>
        <time>2021-09-06T08:32:56.000Z</time>
      </trkpt>
      <trkpt lat="48.64487" lon="-0.64431">
        <ele>238.501212</ele>
        <time>2021-09-06T08:32:58.000Z</time>
      </trkpt>
      <trkpt lat="48.64479" lon="-0.6441">
        <ele>238.639536</ele>
        <time>2021-09-06T08:33:01.000Z</time>
      </trkpt>
      <trkpt lat="48.64462" lon="-0.64374">
        <ele>238.893193</ele>
        <time>2021-09-06T08:33:05.000Z</time>
      </trkpt>
      <trkpt lat="48.64442" lon="-0.64327">
        <ele>239.217361</ele>
        <time>2021-09-06T08:33:09.000Z</time>
      </trkpt>
      <trkpt lat="48.64423" lon="-0.64265">
        <ele>239.149562</ele>
        <time>2021-09-06T08:33:14.000Z</time>
      </trkpt>
      <trkpt lat="48.64415" lon="-0.64237">
        <ele>239.047799</ele>
        <time>2021-09-06T08:33:17.000Z</time>
      </trkpt>
      <trkpt lat="48.64413" lon="-0.64229">
        <ele>239.01864</ele>
        <time>2021-09-06T08:33:18.000Z</time>
      </trkpt>
      <trkpt lat="48.64411" lon="-0.64213">
        <ele>238.966457</ele>
        <time>2021-09-06T08:33:20.000Z</time>
      </trkpt>
      <trkpt lat="48.64409" lon="-0.64193">
        <ele>238.897535</ele>
        <time>2021-09-06T08:33:23.000Z</time>
      </trkpt>
      <trkpt lat="48.64407" lon="-0.64136">
        <ele>238.706702</ele>
        <time>2021-09-06T08:33:31.000Z</time>
      </trkpt>
      <trkpt lat="48.64402" lon="-0.64074">
        <ele>238.498461</ele>
        <time>2021-09-06T08:33:38.000Z</time>
      </trkpt>
      <trkpt lat="48.64397" lon="-0.63996">
        <ele>238.399312</ele>
        <time>2021-09-06T08:33:46.000Z</time>
      </trkpt>
      <trkpt lat="48.64395" lon="-0.63986">
        <ele>238.397095</ele>
        <time>2021-09-06T08:33:47.000Z</time>
      </trkpt>
      <trkpt lat="48.64388" lon="-0.63947">
        <ele>238.388308</ele>
        <time>2021-09-06T08:33:51.000Z</time>
      </trkpt>
      <trkpt lat="48.64382" lon="-0.63929">
        <ele>238.384058</ele>
        <time>2021-09-06T08:33:53.000Z</time>
      </trkpt>
      <trkpt lat="48.64372" lon="-0.63897">
        <ele>238.376245</ele>
        <time>2021-09-06T08:33:58.000Z</time>
      </trkpt>
      <trkpt lat="48.64365" lon="-0.63878">
        <ele>238.371533</ele>
        <time>2021-09-06T08:34:03.000Z</time>
      </trkpt>
      <trkpt lat="48.64356" lon="-0.63849">
        <ele>238.364608</ele>
        <time>2021-09-06T08:34:12.000Z</time>
      </trkpt>
      <trkpt lat="48.64351" lon="-0.63826">
        <ele>238.359329</ele>
        <time>2021-09-06T08:34:19.000Z</time>
      </trkpt>
      <trkpt lat="48.64348" lon="-0.63792">
        <ele>238.351946</ele>
        <time>2021-09-06T08:34:28.000Z</time>
      </trkpt>
      <trkpt lat="48.64346" lon="-0.63753">
        <ele>238.477652</ele>
        <time>2021-09-06T08:34:38.000Z</time>
      </trkpt>
      <trkpt lat="48.64346" lon="-0.63712">
        <ele>238.614918</ele>
        <time>2021-09-06T08:34:46.000Z</time>
      </trkpt>
      <trkpt lat="48.64349" lon="-0.63666">
        <ele>238.769289</ele>
        <time>2021-09-06T08:34:54.000Z</time>
      </trkpt>
      <trkpt lat="48.64355" lon="-0.6363">
        <ele>238.892694</ele>
        <time>2021-09-06T08:34:59.000Z</time>
      </trkpt>
      <trkpt lat="48.64362" lon="-0.63588">
        <ele>239.037263</ele>
        <time>2021-09-06T08:35:04.000Z</time>
      </trkpt>
      <trkpt lat="48.64363" lon="-0.63579">
        <ele>239.06782</ele>
        <time>2021-09-06T08:35:05.000Z</time>
      </trkpt>
      <trkpt lat="48.64365" lon="-0.6357">
        <ele>239.098571</ele>
        <time>2021-09-06T08:35:06.000Z</time>
      </trkpt>
      <trkpt lat="48.64372" lon="-0.63527">
        <ele>239.248055</ele>
        <time>2021-09-06T08:35:11.000Z</time>
      </trkpt>
      <trkpt lat="48.64377" lon="-0.63502">
        <ele>239.37502</ele>
        <time>2021-09-06T08:35:14.000Z</time>
      </trkpt>
      <trkpt lat="48.64381" lon="-0.63474">
        <ele>239.51727</ele>
        <time>2021-09-06T08:35:17.000Z</time>
      </trkpt>
      <trkpt lat="48.64391" lon="-0.63406">
        <ele>239.873994</ele>
        <time>2021-09-06T08:35:25.000Z</time>
      </trkpt>
      <trkpt lat="48.64399" lon="-0.63358">
        <ele>240.123545</ele>
        <time>2021-09-06T08:35:32.000Z</time>
      </trkpt>
      <trkpt lat="48.64404" lon="-0.63326">
        <ele>240.293157</ele>
        <time>2021-09-06T08:35:38.000Z</time>
      </trkpt>
      <trkpt lat="48.6441" lon="-0.63295">
        <ele>240.458807</ele>
        <time>2021-09-06T08:35:45.000Z</time>
      </trkpt>
      <trkpt lat="48.64412" lon="-0.63275">
        <ele>240.558967</ele>
        <time>2021-09-06T08:35:50.000Z</time>
      </trkpt>
      <trkpt lat="48.64409" lon="-0.63269">
        <ele>240.60016</ele>
        <time>2021-09-06T08:35:52.000Z</time>
      </trkpt>
      <trkpt lat="48.64405" lon="-0.63262">
        <ele>240.644241</ele>
        <time>2021-09-06T08:35:54.000Z</time>
      </trkpt>
      <trkpt lat="48.644" lon="-0.63241">
        <ele>240.775057</ele>
        <time>2021-09-06T08:35:59.000Z</time>
      </trkpt>
      <trkpt lat="48.64397" lon="-0.63208">
        <ele>240.972703</ele>
        <time>2021-09-06T08:36:05.000Z</time>
      </trkpt>
      <trkpt lat="48.64396" lon="-0.63201">
        <ele>241.012032</ele>
        <time>2021-09-06T08:36:06.000Z</time>
      </trkpt>
      <trkpt lat="48.64389" lon="-0.63164">
        <ele>241.239661</ele>
        <time>2021-09-06T08:36:11.000Z</time>
      </trkpt>
      <trkpt lat="48.64381" lon="-0.6315">
        <ele>241.347561</ele>
        <time>2021-09-06T08:36:13.000Z</time>
      </trkpt>
      <trkpt lat="48.64376" lon="-0.63145">
        <ele>241.402645</ele>
        <time>2021-09-06T08:36:14.000Z</time>
      </trkpt>
      <trkpt lat="48.64342" lon="-0.63118">
        <ele>241.743738</ele>
        <time>2021-09-06T08:36:21.000Z</time>
      </trkpt>
      <trkpt lat="48.64321" lon="-0.63102">
        <ele>241.954596</ele>
        <time>2021-09-06T08:36:26.000Z</time>
      </trkpt>
      <trkpt lat="48.64317" lon="-0.63098">
        <ele>241.997798</ele>
        <time>2021-09-06T08:36:27.000Z</time>
      </trkpt>
      <trkpt lat="48.64287" lon="-0.63078">
        <ele>242.232385</ele>
        <time>2021-09-06T08:36:33.000Z</time>
      </trkpt>
      <trkpt lat="48.64254" lon="-0.63058">
        <ele>242.119873</ele>
        <time>2021-09-06T08:36:39.000Z</time>
      </trkpt>
      <trkpt lat="48.64209" lon="-0.63028">
        <ele>241.968133</ele>
        <time>2021-09-06T08:36:47.000Z</time>
      </trkpt>
      <trkpt lat="48.64165" lon="-0.62991">
        <ele>241.808625</ele>
        <time>2021-09-06T08:36:55.000Z</time>
      </trkpt>
      <trkpt lat="48.6412" lon="-0.62959">
        <ele>241.556349</ele>
        <time>2021-09-06T08:37:02.000Z</time>
      </trkpt>
      <trkpt lat="48.6408" lon="-0.62931">
        <ele>240.964421</ele>
        <time>2021-09-06T08:37:08.000Z</time>
      </trkpt>
      <trkpt lat="48.64045" lon="-0.62892">
        <ele>240.39011</ele>
        <time>2021-09-06T08:37:13.000Z</time>
      </trkpt>
      <trkpt lat="48.64008" lon="-0.62832">
        <ele>239.670201</ele>
        <time>2021-09-06T08:37:19.000Z</time>
      </trkpt>
      <trkpt lat="48.63978" lon="-0.62774">
        <ele>239.030074</ele>
        <time>2021-09-06T08:37:25.000Z</time>
      </trkpt>
      <trkpt lat="48.63965" lon="-0.62746">
        <ele>238.743504</ele>
        <time>2021-09-06T08:37:29.000Z</time>
      </trkpt>
      <trkpt lat="48.63967" lon="-0.62729">
        <ele>238.599576</ele>
        <time>2021-09-06T08:37:32.000Z</time>
      </trkpt>
      <trkpt lat="48.63972" lon="-0.6271">
        <ele>238.424641</ele>
        <time>2021-09-06T08:37:35.000Z</time>
      </trkpt>
      <trkpt lat="48.63973" lon="-0.62702">
        <ele>238.356375</ele>
        <time>2021-09-06T08:37:36.000Z</time>
      </trkpt>
      <trkpt lat="48.63972" lon="-0.62664">
        <ele>238.041048</ele>
        <time>2021-09-06T08:37:40.000Z</time>
      </trkpt>
      <trkpt lat="48.63971" lon="-0.62654">
        <ele>237.955512</ele>
        <time>2021-09-06T08:37:41.000Z</time>
      </trkpt>
      <trkpt lat="48.63967" lon="-0.62634">
        <ele>237.781927</ele>
        <time>2021-09-06T08:37:43.000Z</time>
      </trkpt>
      <trkpt lat="48.63961" lon="-0.62615">
        <ele>237.606684</ele>
        <time>2021-09-06T08:37:45.000Z</time>
      </trkpt>
      <trkpt lat="48.63936" lon="-0.62577">
        <ele>237.162033</ele>
        <time>2021-09-06T08:37:50.000Z</time>
      </trkpt>
      <trkpt lat="48.63894" lon="-0.62516">
        <ele>236.508085</ele>
        <time>2021-09-06T08:37:58.000Z</time>
      </trkpt>
      <trkpt lat="48.63884" lon="-0.62499">
        <ele>236.344741</ele>
        <time>2021-09-06T08:38:00.000Z</time>
      </trkpt>
      <trkpt lat="48.63853" lon="-0.62436">
        <ele>235.78177</ele>
        <time>2021-09-06T08:38:07.000Z</time>
      </trkpt>
      <trkpt lat="48.63826" lon="-0.6237">
        <ele>235.221378</ele>
        <time>2021-09-06T08:38:14.000Z</time>
      </trkpt>
      <trkpt lat="48.63801" lon="-0.62315">
        <ele>234.779098</ele>
        <time>2021-09-06T08:38:20.000Z</time>
      </trkpt>
      <trkpt lat="48.63765" lon="-0.62263">
        <ele>234.30082</ele>
        <time>2021-09-06T08:38:27.000Z</time>
      </trkpt>
      <trkpt lat="48.63728" lon="-0.62219">
        <ele>233.854011</ele>
        <time>2021-09-06T08:38:34.000Z</time>
      </trkpt>
      <trkpt lat="48.63694" lon="-0.62161">
        <ele>233.353567</ele>
        <time>2021-09-06T08:38:42.000Z</time>
      </trkpt>
      <trkpt lat="48.63666" lon="-0.62112">
        <ele>232.994409</ele>
        <time>2021-09-06T08:38:49.000Z</time>
      </trkpt>
      <trkpt lat="48.63643" lon="-0.62069">
        <ele>232.690114</ele>
        <time>2021-09-06T08:38:56.000Z</time>
      </trkpt>
      <trkpt lat="48.63623" lon="-0.62028">
        <ele>232.409428</ele>
        <time>2021-09-06T08:39:03.000Z</time>
      </trkpt>
      <trkpt lat="48.63602" lon="-0.61974">
        <ele>232.060535</ele>
        <time>2021-09-06T08:39:11.000Z</time>
      </trkpt>
      <trkpt lat="48.63581" lon="-0.61916">
        <ele>231.710357</ele>
        <time>2021-09-06T08:39:19.000Z</time>
      </trkpt>
      <trkpt lat="48.63563" lon="-0.61877">
        <ele>231.483795</ele>
        <time>2021-09-06T08:39:25.000Z</time>
      </trkpt>
      <trkpt lat="48.63561" lon="-0.61869">
        <ele>231.444583</ele>
        <time>2021-09-06T08:39:26.000Z</time>
      </trkpt>
      <trkpt lat="48.63559" lon="-0.61862">
        <ele>231.405555</ele>
        <time>2021-09-06T08:39:27.000Z</time>
      </trkpt>
      <trkpt lat="48.63556" lon="-0.61828">
        <ele>231.244955</ele>
        <time>2021-09-06T08:39:31.000Z</time>
      </trkpt>
      <trkpt lat="48.63555" lon="-0.61768">
        <ele>230.957207</ele>
        <time>2021-09-06T08:39:38.000Z</time>
      </trkpt>
      <trkpt lat="48.63555" lon="-0.61724">
        <ele>230.747902</ele>
        <time>2021-09-06T08:39:43.000Z</time>
      </trkpt>
      <trkpt lat="48.63555" lon="-0.61716">
        <ele>230.707755</ele>
        <time>2021-09-06T08:39:44.000Z</time>
      </trkpt>
      <trkpt lat="48.63556" lon="-0.61682">
        <ele>230.545049</ele>
        <time>2021-09-06T08:39:48.000Z</time>
      </trkpt>
      <trkpt lat="48.63557" lon="-0.61674">
        <ele>230.494674</ele>
        <time>2021-09-06T08:39:49.000Z</time>
      </trkpt>
      <trkpt lat="48.6356" lon="-0.61602">
        <ele>229.93532</ele>
        <time>2021-09-06T08:39:57.000Z</time>
      </trkpt>
      <trkpt lat="48.63561" lon="-0.61593">
        <ele>229.859921</ele>
        <time>2021-09-06T08:39:58.000Z</time>
      </trkpt>
      <trkpt lat="48.63566" lon="-0.61555">
        <ele>229.55518</ele>
        <time>2021-09-06T08:40:02.000Z</time>
      </trkpt>
      <trkpt lat="48.63576" lon="-0.61484">
        <ele>228.985477</ele>
        <time>2021-09-06T08:40:09.000Z</time>
      </trkpt>
      <trkpt lat="48.63589" lon="-0.61397">
        <ele>228.228175</ele>
        <time>2021-09-06T08:40:17.000Z</time>
      </trkpt>
      <trkpt lat="48.63591" lon="-0.61386">
        <ele>228.093201</ele>
        <time>2021-09-06T08:40:18.000Z</time>
      </trkpt>
      <trkpt lat="48.63598" lon="-0.61302">
        <ele>227.086925</ele>
        <time>2021-09-06T08:40:25.000Z</time>
      </trkpt>
      <trkpt lat="48.63596" lon="-0.61216">
        <ele>226.060495</ele>
        <time>2021-09-06T08:40:32.000Z</time>
      </trkpt>
      <trkpt lat="48.63588" lon="-0.61127">
        <ele>224.960513</ele>
        <time>2021-09-06T08:40:39.000Z</time>
      </trkpt>
      <trkpt lat="48.63589" lon="-0.61056">
        <ele>223.941614</ele>
        <time>2021-09-06T08:40:45.000Z</time>
      </trkpt>
      <trkpt lat="48.63599" lon="-0.60981">
        <ele>222.851806</ele>
        <time>2021-09-06T08:40:52.000Z</time>
      </trkpt>
      <trkpt lat="48.63603" lon="-0.60952">
        <ele>222.415035</ele>
        <time>2021-09-06T08:40:55.000Z</time>
      </trkpt>
      <trkpt lat="48.63604" lon="-0.60932">
        <ele>222.139084</ele>
        <time>2021-09-06T08:40:57.000Z</time>
      </trkpt>
      <trkpt lat="48.63604" lon="-0.60913">
        <ele>221.856011</ele>
        <time>2021-09-06T08:40:59.000Z</time>
      </trkpt>
      <trkpt lat="48.636" lon="-0.60871">
        <ele>221.256159</ele>
        <time>2021-09-06T08:41:03.000Z</time>
      </trkpt>
      <trkpt lat="48.63597" lon="-0.6085">
        <ele>220.854662</ele>
        <time>2021-09-06T08:41:05.000Z</time>
      </trkpt>
      <trkpt lat="48.63596" lon="-0.60816">
        <ele>220.200721</ele>
        <time>2021-09-06T08:41:08.000Z</time>
      </trkpt>
      <trkpt lat="48.63601" lon="-0.60745">
        <ele>218.836227</ele>
        <time>2021-09-06T08:41:14.000Z</time>
      </trkpt>
      <trkpt lat="48.6361" lon="-0.6067">
        <ele>217.379977</ele>
        <time>2021-09-06T08:41:20.000Z</time>
      </trkpt>
      <trkpt lat="48.6361" lon="-0.60657">
        <ele>217.127131</ele>
        <time>2021-09-06T08:41:21.000Z</time>
      </trkpt>
      <trkpt lat="48.63606" lon="-0.60619">
        <ele>216.381678</ele>
        <time>2021-09-06T08:41:24.000Z</time>
      </trkpt>
      <trkpt lat="48.63597" lon="-0.60582">
        <ele>215.562778</ele>
        <time>2021-09-06T08:41:27.000Z</time>
      </trkpt>
      <trkpt lat="48.63589" lon="-0.60559">
        <ele>214.978888</ele>
        <time>2021-09-06T08:41:29.000Z</time>
      </trkpt>
      <trkpt lat="48.63568" lon="-0.60479">
        <ele>213.011076</ele>
        <time>2021-09-06T08:41:36.000Z</time>
      </trkpt>
      <trkpt lat="48.63567" lon="-0.60468">
        <ele>212.737907</ele>
        <time>2021-09-06T08:41:37.000Z</time>
      </trkpt>
      <trkpt lat="48.63567" lon="-0.60445">
        <ele>212.229789</ele>
        <time>2021-09-06T08:41:39.000Z</time>
      </trkpt>
      <trkpt lat="48.63575" lon="-0.60384">
        <ele>210.793698</ele>
        <time>2021-09-06T08:41:44.000Z</time>
      </trkpt>
      <trkpt lat="48.63581" lon="-0.60345">
        <ele>209.889507</ele>
        <time>2021-09-06T08:41:47.000Z</time>
      </trkpt>
      <trkpt lat="48.63583" lon="-0.60319">
        <ele>209.283557</ele>
        <time>2021-09-06T08:41:49.000Z</time>
      </trkpt>
      <trkpt lat="48.63579" lon="-0.60251">
        <ele>207.715262</ele>
        <time>2021-09-06T08:41:54.000Z</time>
      </trkpt>
      <trkpt lat="48.63577" lon="-0.60238">
        <ele>207.402591</ele>
        <time>2021-09-06T08:41:55.000Z</time>
      </trkpt>
      <trkpt lat="48.63569" lon="-0.60199">
        <ele>206.452492</ele>
        <time>2021-09-06T08:41:58.000Z</time>
      </trkpt>
      <trkpt lat="48.63565" lon="-0.60186">
        <ele>206.134183</ele>
        <time>2021-09-06T08:41:59.000Z</time>
      </trkpt>
      <trkpt lat="48.63542" lon="-0.60111">
        <ele>204.216755</ele>
        <time>2021-09-06T08:42:05.000Z</time>
      </trkpt>
      <trkpt lat="48.63513" lon="-0.60032">
        <ele>202.121424</ele>
        <time>2021-09-06T08:42:12.000Z</time>
      </trkpt>
      <trkpt lat="48.63485" lon="-0.59986">
        <ele>200.708894</ele>
        <time>2021-09-06T08:42:17.000Z</time>
      </trkpt>
      <trkpt lat="48.63451" lon="-0.59949">
        <ele>199.257655</ele>
        <time>2021-09-06T08:42:22.000Z</time>
      </trkpt>
      <trkpt lat="48.63444" lon="-0.59944">
        <ele>198.967605</ele>
        <time>2021-09-06T08:42:23.000Z</time>
      </trkpt>
      <trkpt lat="48.6339" lon="-0.59914">
        <ele>196.940747</ele>
        <time>2021-09-06T08:42:30.000Z</time>
      </trkpt>
      <trkpt lat="48.63342" lon="-0.59888">
        <ele>195.048357</ele>
        <time>2021-09-06T08:42:36.000Z</time>
      </trkpt>
      <trkpt lat="48.63294" lon="-0.59861">
        <ele>193.125398</ele>
        <time>2021-09-06T08:42:42.000Z</time>
      </trkpt>
      <trkpt lat="48.63253" lon="-0.59832">
        <ele>191.441563</ele>
        <time>2021-09-06T08:42:47.000Z</time>
      </trkpt>
      <trkpt lat="48.63237" lon="-0.59816">
        <ele>190.729232</ele>
        <time>2021-09-06T08:42:49.000Z</time>
      </trkpt>
      <trkpt lat="48.63223" lon="-0.59797">
        <ele>190.015741</ele>
        <time>2021-09-06T08:42:51.000Z</time>
      </trkpt>
      <trkpt lat="48.63198" lon="-0.59754">
        <ele>188.595451</ele>
        <time>2021-09-06T08:42:55.000Z</time>
      </trkpt>
      <trkpt lat="48.63172" lon="-0.59682">
        <ele>186.547196</ele>
        <time>2021-09-06T08:43:01.000Z</time>
      </trkpt>
      <trkpt lat="48.63152" lon="-0.596">
        <ele>184.389566</ele>
        <time>2021-09-06T08:43:08.000Z</time>
      </trkpt>
      <trkpt lat="48.6314" lon="-0.59561">
        <ele>183.57431</ele>
        <time>2021-09-06T08:43:12.000Z</time>
      </trkpt>
      <trkpt lat="48.63125" lon="-0.59535">
        <ele>183.139905</ele>
        <time>2021-09-06T08:43:16.000Z</time>
      </trkpt>
      <trkpt lat="48.63121" lon="-0.5953">
        <ele>183.039602</ele>
        <time>2021-09-06T08:43:17.000Z</time>
      </trkpt>
      <trkpt lat="48.63112" lon="-0.59521">
        <ele>182.84894</ele>
        <time>2021-09-06T08:43:19.000Z</time>
      </trkpt>
      <trkpt lat="48.63103" lon="-0.59517">
        <ele>182.682887</ele>
        <time>2021-09-06T08:43:21.000Z</time>
      </trkpt>
      <trkpt lat="48.6309" lon="-0.59514">
        <ele>182.438357</ele>
        <time>2021-09-06T08:43:24.000Z</time>
      </trkpt>
      <trkpt lat="48.6308" lon="-0.59515">
        <ele>182.254842</ele>
        <time>2021-09-06T08:43:28.000Z</time>
      </trkpt>
      <trkpt lat="48.63079" lon="-0.59517">
        <ele>182.222245</ele>
        <time>2021-09-06T08:43:29.000Z</time>
      </trkpt>
      <trkpt lat="48.63072" lon="-0.59522">
        <ele>182.08294</ele>
        <time>2021-09-06T08:43:32.000Z</time>
      </trkpt>
      <trkpt lat="48.63059" lon="-0.59526">
        <ele>181.828527</ele>
        <time>2021-09-06T08:43:37.000Z</time>
      </trkpt>
      <trkpt lat="48.63041" lon="-0.59531">
        <ele>181.502036</ele>
        <time>2021-09-06T08:43:42.000Z</time>
      </trkpt>
      <trkpt lat="48.63026" lon="-0.59533">
        <ele>181.21766</ele>
        <time>2021-09-06T08:43:47.000Z</time>
      </trkpt>
      <trkpt lat="48.63006" lon="-0.59541">
        <ele>180.840401</ele>
        <time>2021-09-06T08:43:51.000Z</time>
      </trkpt>
      <trkpt lat="48.62986" lon="-0.59541">
        <ele>180.48255</ele>
        <time>2021-09-06T08:43:56.000Z</time>
      </trkpt>
      <trkpt lat="48.62972" lon="-0.59542">
        <ele>180.59626</ele>
        <time>2021-09-06T08:44:00.000Z</time>
      </trkpt>
      <trkpt lat="48.62956" lon="-0.59539">
        <ele>180.72427</ele>
        <time>2021-09-06T08:44:05.000Z</time>
      </trkpt>
      <trkpt lat="48.6294" lon="-0.59534">
        <ele>180.852709</ele>
        <time>2021-09-06T08:44:10.000Z</time>
      </trkpt>
      <trkpt lat="48.62927" lon="-0.59526">
        <ele>180.97109</ele>
        <time>2021-09-06T08:44:14.000Z</time>
      </trkpt>
      <trkpt lat="48.62907" lon="-0.59509">
        <ele>181.153049</ele>
        <time>2021-09-06T08:44:20.000Z</time>
      </trkpt>
      <trkpt lat="48.62898" lon="-0.59494">
        <ele>181.261301</ele>
        <time>2021-09-06T08:44:24.000Z</time>
      </trkpt>
      <trkpt lat="48.62888" lon="-0.59475">
        <ele>181.3933</ele>
        <time>2021-09-06T08:44:29.000Z</time>
      </trkpt>
      <trkpt lat="48.62877" lon="-0.59442">
        <ele>181.585803</ele>
        <time>2021-09-06T08:44:36.000Z</time>
      </trkpt>
      <trkpt lat="48.62877" lon="-0.5941">
        <ele>181.757397</ele>
        <time>2021-09-06T08:44:44.000Z</time>
      </trkpt>
      <trkpt lat="48.62882" lon="-0.59384">
        <ele>181.900203</ele>
        <time>2021-09-06T08:44:51.000Z</time>
      </trkpt>
      <trkpt lat="48.62889" lon="-0.5936">
        <ele>181.902009</ele>
        <time>2021-09-06T08:44:58.000Z</time>
      </trkpt>
      <trkpt lat="48.62898" lon="-0.59332">
        <ele>181.867945</ele>
        <time>2021-09-06T08:45:06.000Z</time>
      </trkpt>
      <trkpt lat="48.62904" lon="-0.59304">
        <ele>181.836183</ele>
        <time>2021-09-06T08:45:13.000Z</time>
      </trkpt>
      <trkpt lat="48.62905" lon="-0.59279">
        <ele>181.808907</ele>
        <time>2021-09-06T08:45:18.000Z</time>
      </trkpt>
      <trkpt lat="48.62901" lon="-0.59262">
        <ele>181.789635</ele>
        <time>2021-09-06T08:45:21.000Z</time>
      </trkpt>
      <trkpt lat="48.62896" lon="-0.59252">
        <ele>181.775506</ele>
        <time>2021-09-06T08:45:23.000Z</time>
      </trkpt>
      <trkpt lat="48.62889" lon="-0.59242">
        <ele>181.760106</ele>
        <time>2021-09-06T08:45:25.000Z</time>
      </trkpt>
      <trkpt lat="48.62876" lon="-0.59228">
        <ele>181.734312</ele>
        <time>2021-09-06T08:45:28.000Z</time>
      </trkpt>
      <trkpt lat="48.62844" lon="-0.59189">
        <ele>181.666447</ele>
        <time>2021-09-06T08:45:35.000Z</time>
      </trkpt>
      <trkpt lat="48.62839" lon="-0.59183">
        <ele>181.656846</ele>
        <time>2021-09-06T08:45:36.000Z</time>
      </trkpt>
      <trkpt lat="48.62821" lon="-0.5916">
        <ele>181.585287</ele>
        <time>2021-09-06T08:45:40.000Z</time>
      </trkpt>
      <trkpt lat="48.62805" lon="-0.59128">
        <ele>181.429212</ele>
        <time>2021-09-06T08:45:45.000Z</time>
      </trkpt>
      <trkpt lat="48.62803" lon="-0.59121">
        <ele>181.400819</ele>
        <time>2021-09-06T08:45:46.000Z</time>
      </trkpt>
      <trkpt lat="48.62789" lon="-0.59069">
        <ele>181.18075</ele>
        <time>2021-09-06T08:45:54.000Z</time>
      </trkpt>
      <trkpt lat="48.62777" lon="-0.59025">
        <ele>180.999144</ele>
        <time>2021-09-06T08:46:00.000Z</time>
      </trkpt>
      <trkpt lat="48.62762" lon="-0.5896">
        <ele>180.73101</ele>
        <time>2021-09-06T08:46:07.000Z</time>
      </trkpt>
      <trkpt lat="48.6275" lon="-0.58881">
        <ele>180.986964</ele>
        <time>2021-09-06T08:46:15.000Z</time>
      </trkpt>
      <trkpt lat="48.62739" lon="-0.58837">
        <ele>181.462529</ele>
        <time>2021-09-06T08:46:21.000Z</time>
      </trkpt>
      <trkpt lat="48.6273" lon="-0.58806">
        <ele>181.800592</ele>
        <time>2021-09-06T08:46:27.000Z</time>
      </trkpt>
      <trkpt lat="48.62725" lon="-0.58788">
        <ele>181.997134</ele>
        <time>2021-09-06T08:46:32.000Z</time>
      </trkpt>
      <trkpt lat="48.62725" lon="-0.58785">
        <ele>182.033531</ele>
        <time>2021-09-06T08:46:33.000Z</time>
      </trkpt>
      <trkpt lat="48.62716" lon="-0.58758">
        <ele>182.328898</ele>
        <time>2021-09-06T08:46:40.000Z</time>
      </trkpt>
      <trkpt lat="48.62706" lon="-0.58721">
        <ele>182.734257</ele>
        <time>2021-09-06T08:46:50.000Z</time>
      </trkpt>
      <trkpt lat="48.62704" lon="-0.58702">
        <ele>182.930156</ele>
        <time>2021-09-06T08:46:55.000Z</time>
      </trkpt>
      <trkpt lat="48.62702" lon="-0.58674">
        <ele>183.209378</ele>
        <time>2021-09-06T08:47:02.000Z</time>
      </trkpt>
      <trkpt lat="48.62703" lon="-0.5864">
        <ele>183.809143</ele>
        <time>2021-09-06T08:47:10.000Z</time>
      </trkpt>
      <trkpt lat="48.62704" lon="-0.58603">
        <ele>184.569597</ele>
        <time>2021-09-06T08:47:19.000Z</time>
      </trkpt>
      <trkpt lat="48.62707" lon="-0.58568">
        <ele>185.294878</ele>
        <time>2021-09-06T08:47:28.000Z</time>
      </trkpt>
      <trkpt lat="48.62707" lon="-0.58549">
        <ele>185.693921</ele>
        <time>2021-09-06T08:47:33.000Z</time>
      </trkpt>
      <trkpt lat="48.62709" lon="-0.58524">
        <ele>186.206629</ele>
        <time>2021-09-06T08:47:39.000Z</time>
      </trkpt>
      <trkpt lat="48.6271" lon="-0.58497">
        <ele>186.765982</ele>
        <time>2021-09-06T08:47:45.000Z</time>
      </trkpt>
      <trkpt lat="48.62712" lon="-0.58445">
        <ele>187.842645</ele>
        <time>2021-09-06T08:47:56.000Z</time>
      </trkpt>
      <trkpt lat="48.62713" lon="-0.58409">
        <ele>188.59514</ele>
        <time>2021-09-06T08:48:03.000Z</time>
      </trkpt>
      <trkpt lat="48.62712" lon="-0.58365">
        <ele>188.988784</ele>
        <time>2021-09-06T08:48:11.000Z</time>
      </trkpt>
      <trkpt lat="48.6271" lon="-0.58325">
        <ele>189.059577</ele>
        <time>2021-09-06T08:48:17.000Z</time>
      </trkpt>
      <trkpt lat="48.62705" lon="-0.58302">
        <ele>189.102724</ele>
        <time>2021-09-06T08:48:20.000Z</time>
      </trkpt>
      <trkpt lat="48.62698" lon="-0.58286">
        <ele>189.135389</ele>
        <time>2021-09-06T08:48:22.000Z</time>
      </trkpt>
      <trkpt lat="48.6267" lon="-0.58239">
        <ele>189.247029</ele>
        <time>2021-09-06T08:48:28.000Z</time>
      </trkpt>
      <trkpt lat="48.62633" lon="-0.58178">
        <ele>189.395038</ele>
        <time>2021-09-06T08:48:36.000Z</time>
      </trkpt>
      <trkpt lat="48.62606" lon="-0.58134">
        <ele>189.717932</ele>
        <time>2021-09-06T08:48:42.000Z</time>
      </trkpt>
      <trkpt lat="48.62581" lon="-0.58092">
        <ele>190.098194</ele>
        <time>2021-09-06T08:48:49.000Z</time>
      </trkpt>
      <trkpt lat="48.62578" lon="-0.58087">
        <ele>190.144803</ele>
        <time>2021-09-06T08:48:50.000Z</time>
      </trkpt>
      <trkpt lat="48.62565" lon="-0.58062">
        <ele>190.352363</ele>
        <time>2021-09-06T08:48:55.000Z</time>
      </trkpt>
      <trkpt lat="48.62551" lon="-0.58037">
        <ele>190.570567</ele>
        <time>2021-09-06T08:49:01.000Z</time>
      </trkpt>
      <trkpt lat="48.62539" lon="-0.58006">
        <ele>190.806301</ele>
        <time>2021-09-06T08:49:08.000Z</time>
      </trkpt>
      <trkpt lat="48.62526" lon="-0.57971">
        <ele>191.076147</ele>
        <time>2021-09-06T08:49:16.000Z</time>
      </trkpt>
      <trkpt lat="48.62519" lon="-0.57946">
        <ele>191.303911</ele>
        <time>2021-09-06T08:49:22.000Z</time>
      </trkpt>
      <trkpt lat="48.62507" lon="-0.57902">
        <ele>192.184141</ele>
        <time>2021-09-06T08:49:32.000Z</time>
      </trkpt>
      <trkpt lat="48.62498" lon="-0.57868">
        <ele>192.886123</ele>
        <time>2021-09-06T08:49:40.000Z</time>
      </trkpt>
      <trkpt lat="48.6249" lon="-0.57838">
        <ele>193.490858</ele>
        <time>2021-09-06T08:49:47.000Z</time>
      </trkpt>
      <trkpt lat="48.6248" lon="-0.5781">
        <ele>194.07888</ele>
        <time>2021-09-06T08:49:54.000Z</time>
      </trkpt>
      <trkpt lat="48.62474" lon="-0.57796">
        <ele>194.396378</ele>
        <time>2021-09-06T08:49:58.000Z</time>
      </trkpt>
      <trkpt lat="48.62451" lon="-0.57756">
        <ele>195.397382</ele>
        <time>2021-09-06T08:50:09.000Z</time>
      </trkpt>
      <trkpt lat="48.62433" lon="-0.57733">
        <ele>196.054574</ele>
        <time>2021-09-06T08:50:17.000Z</time>
      </trkpt>
      <trkpt lat="48.62417" lon="-0.57717">
        <ele>196.619569</ele>
        <time>2021-09-06T08:50:24.000Z</time>
      </trkpt>
      <trkpt lat="48.62398" lon="-0.57706">
        <ele>197.252834</ele>
        <time>2021-09-06T08:50:32.000Z</time>
      </trkpt>
      <trkpt lat="48.62376" lon="-0.57703">
        <ele>197.92053</ele>
        <time>2021-09-06T08:50:40.000Z</time>
      </trkpt>
      <trkpt lat="48.62356" lon="-0.57703">
        <ele>198.519401</ele>
        <time>2021-09-06T08:50:47.000Z</time>
      </trkpt>
      <trkpt lat="48.62333" lon="-0.57706">
        <ele>199.246943</ele>
        <time>2021-09-06T08:50:55.000Z</time>
      </trkpt>
      <trkpt lat="48.623" lon="-0.57711">
        <ele>200.248663</ele>
        <time>2021-09-06T08:51:04.000Z</time>
      </trkpt>
      <trkpt lat="48.62268" lon="-0.5771">
        <ele>201.234326</ele>
        <time>2021-09-06T08:51:12.000Z</time>
      </trkpt>
      <trkpt lat="48.62247" lon="-0.57703">
        <ele>201.86241</ele>
        <time>2021-09-06T08:51:17.000Z</time>
      </trkpt>
      <trkpt lat="48.62243" lon="-0.577">
        <ele>201.883736</ele>
        <time>2021-09-06T08:51:18.000Z</time>
      </trkpt>
      <trkpt lat="48.62212" lon="-0.57678">
        <ele>202.045193</ele>
        <time>2021-09-06T08:51:25.000Z</time>
      </trkpt>
      <trkpt lat="48.62175" lon="-0.57653">
        <ele>202.232375</ele>
        <time>2021-09-06T08:51:33.000Z</time>
      </trkpt>
      <trkpt lat="48.62162" lon="-0.5764">
        <ele>202.30347</ele>
        <time>2021-09-06T08:51:36.000Z</time>
      </trkpt>
      <trkpt lat="48.62151" lon="-0.57632">
        <ele>202.359566</ele>
        <time>2021-09-06T08:51:38.000Z</time>
      </trkpt>
      <trkpt lat="48.62125" lon="-0.57614">
        <ele>202.492064</ele>
        <time>2021-09-06T08:51:42.000Z</time>
      </trkpt>
      <trkpt lat="48.62075" lon="-0.57578">
        <ele>202.782529</ele>
        <time>2021-09-06T08:51:49.000Z</time>
      </trkpt>
      <trkpt lat="48.62045" lon="-0.57554">
        <ele>203.036637</ele>
        <time>2021-09-06T08:51:54.000Z</time>
      </trkpt>
      <trkpt lat="48.62007" lon="-0.57514">
        <ele>203.381135</ele>
        <time>2021-09-06T08:52:01.000Z</time>
      </trkpt>
      <trkpt lat="48.61978" lon="-0.57468">
        <ele>203.697245</ele>
        <time>2021-09-06T08:52:08.000Z</time>
      </trkpt>
      <trkpt lat="48.61959" lon="-0.57429">
        <ele>203.934707</ele>
        <time>2021-09-06T08:52:14.000Z</time>
      </trkpt>
      <trkpt lat="48.61947" lon="-0.57394">
        <ele>204.140668</ele>
        <time>2021-09-06T08:52:19.000Z</time>
      </trkpt>
      <trkpt lat="48.61935" lon="-0.57354">
        <ele>204.385358</ele>
        <time>2021-09-06T08:52:25.000Z</time>
      </trkpt>
      <trkpt lat="48.61933" lon="-0.57348">
        <ele>204.424349</ele>
        <time>2021-09-06T08:52:26.000Z</time>
      </trkpt>
      <trkpt lat="48.61922" lon="-0.57302">
        <ele>204.695273</ele>
        <time>2021-09-06T08:52:33.000Z</time>
      </trkpt>
      <trkpt lat="48.61914" lon="-0.5726">
        <ele>204.936798</ele>
        <time>2021-09-06T08:52:40.000Z</time>
      </trkpt>
      <trkpt lat="48.61909" lon="-0.5722">
        <ele>205.164161</ele>
        <time>2021-09-06T08:52:48.000Z</time>
      </trkpt>
      <trkpt lat="48.61907" lon="-0.5717">
        <ele>205.44241</ele>
        <time>2021-09-06T08:52:59.000Z</time>
      </trkpt>
      <trkpt lat="48.61907" lon="-0.5713">
        <ele>206.054941</ele>
        <time>2021-09-06T08:53:09.000Z</time>
      </trkpt>
      <trkpt lat="48.61908" lon="-0.57092">
        <ele>206.94568</ele>
        <time>2021-09-06T08:53:19.000Z</time>
      </trkpt>
      <trkpt lat="48.61909" lon="-0.57057">
        <ele>207.748048</ele>
        <time>2021-09-06T08:53:28.000Z</time>
      </trkpt>
      <trkpt lat="48.6191" lon="-0.57022">
        <ele>208.566485</ele>
        <time>2021-09-06T08:53:37.000Z</time>
      </trkpt>
      <trkpt lat="48.61911" lon="-0.56993">
        <ele>209.256994</ele>
        <time>2021-09-06T08:53:45.000Z</time>
      </trkpt>
      <trkpt lat="48.61912" lon="-0.56963">
        <ele>209.951522</ele>
        <time>2021-09-06T08:53:53.000Z</time>
      </trkpt>
      <trkpt lat="48.61914" lon="-0.56925">
        <ele>210.835401</ele>
        <time>2021-09-06T08:54:03.000Z</time>
      </trkpt>
      <trkpt lat="48.61914" lon="-0.56891">
        <ele>211.646368</ele>
        <time>2021-09-06T08:54:12.000Z</time>
      </trkpt>
      <trkpt lat="48.61914" lon="-0.56861">
        <ele>212.531972</ele>
        <time>2021-09-06T08:54:20.000Z</time>
      </trkpt>
      <trkpt lat="48.61915" lon="-0.56835">
        <ele>213.425877</ele>
        <time>2021-09-06T08:54:27.000Z</time>
      </trkpt>
      <trkpt lat="48.61916" lon="-0.56797">
        <ele>214.700708</ele>
        <time>2021-09-06T08:54:37.000Z</time>
      </trkpt>
      <trkpt lat="48.61917" lon="-0.56766">
        <ele>215.727102</ele>
        <time>2021-09-06T08:54:45.000Z</time>
      </trkpt>
      <trkpt lat="48.61917" lon="-0.56733">
        <ele>216.860403</ele>
        <time>2021-09-06T08:54:54.000Z</time>
      </trkpt>
      <trkpt lat="48.61919" lon="-0.56703">
        <ele>217.878423</ele>
        <time>2021-09-06T08:55:02.000Z</time>
      </trkpt>
      <trkpt lat="48.61919" lon="-0.5667">
        <ele>218.984485</ele>
        <time>2021-09-06T08:55:11.000Z</time>
      </trkpt>
      <trkpt lat="48.61919" lon="-0.56633">
        <ele>220.239096</ele>
        <time>2021-09-06T08:55:21.000Z</time>
      </trkpt>
      <trkpt lat="48.61915" lon="-0.56604">
        <ele>221.141091</ele>
        <time>2021-09-06T08:55:29.000Z</time>
      </trkpt>
      <trkpt lat="48.61913" lon="-0.56581">
        <ele>221.529793</ele>
        <time>2021-09-06T08:55:35.000Z</time>
      </trkpt>
      <trkpt lat="48.61904" lon="-0.56547">
        <ele>222.129359</ele>
        <time>2021-09-06T08:55:44.000Z</time>
      </trkpt>
      <trkpt lat="48.61893" lon="-0.56515">
        <ele>222.724113</ele>
        <time>2021-09-06T08:55:52.000Z</time>
      </trkpt>
      <trkpt lat="48.61877" lon="-0.56484">
        <ele>223.363003</ele>
        <time>2021-09-06T08:55:59.000Z</time>
      </trkpt>
      <trkpt lat="48.61857" lon="-0.56451">
        <ele>224.102679</ele>
        <time>2021-09-06T08:56:06.000Z</time>
      </trkpt>
      <trkpt lat="48.61831" lon="-0.564">
        <ele>225.149044</ele>
        <time>2021-09-06T08:56:14.000Z</time>
      </trkpt>
      <trkpt lat="48.61814" lon="-0.56349">
        <ele>225.294986</ele>
        <time>2021-09-06T08:56:20.000Z</time>
      </trkpt>
      <trkpt lat="48.61805" lon="-0.56299">
        <ele>224.918765</ele>
        <time>2021-09-06T08:56:25.000Z</time>
      </trkpt>
      <trkpt lat="48.61804" lon="-0.56288">
        <ele>224.839971</ele>
        <time>2021-09-06T08:56:26.000Z</time>
      </trkpt>
      <trkpt lat="48.61803" lon="-0.56218">
        <ele>224.335347</ele>
        <time>2021-09-06T08:56:32.000Z</time>
      </trkpt>
      <trkpt lat="48.61801" lon="-0.56131">
        <ele>223.703649</ele>
        <time>2021-09-06T08:56:39.000Z</time>
      </trkpt>
      <trkpt lat="48.61793" lon="-0.56067">
        <ele>222.936961</ele>
        <time>2021-09-06T08:56:44.000Z</time>
      </trkpt>
      <trkpt lat="48.61773" lon="-0.56008">
        <ele>222.038571</ele>
        <time>2021-09-06T08:56:49.000Z</time>
      </trkpt>
      <trkpt lat="48.61744" lon="-0.55958">
        <ele>221.141996</ele>
        <time>2021-09-06T08:56:54.000Z</time>
      </trkpt>
      <trkpt lat="48.61706" lon="-0.55912">
        <ele>220.132725</ele>
        <time>2021-09-06T08:57:00.000Z</time>
      </trkpt>
      <trkpt lat="48.6167" lon="-0.55873">
        <ele>219.119214</ele>
        <time>2021-09-06T08:57:06.000Z</time>
      </trkpt>
      <trkpt lat="48.61641" lon="-0.55839">
        <ele>218.249415</ele>
        <time>2021-09-06T08:57:11.000Z</time>
      </trkpt>
      <trkpt lat="48.61597" lon="-0.55788">
        <ele>216.933598</ele>
        <time>2021-09-06T08:57:18.000Z</time>
      </trkpt>
      <trkpt lat="48.61591" lon="-0.55781">
        <ele>216.744928</ele>
        <time>2021-09-06T08:57:19.000Z</time>
      </trkpt>
      <trkpt lat="48.61545" lon="-0.55728">
        <ele>215.285286</ele>
        <time>2021-09-06T08:57:26.000Z</time>
      </trkpt>
      <trkpt lat="48.61508" lon="-0.55688">
        <ele>213.804082</ele>
        <time>2021-09-06T08:57:31.000Z</time>
      </trkpt>
      <trkpt lat="48.61463" lon="-0.55638">
        <ele>211.964441</ele>
        <time>2021-09-06T08:57:37.000Z</time>
      </trkpt>
      <trkpt lat="48.61455" lon="-0.55631">
        <ele>211.658419</ele>
        <time>2021-09-06T08:57:38.000Z</time>
      </trkpt>
      <trkpt lat="48.61406" lon="-0.55594">
        <ele>209.876051</ele>
        <time>2021-09-06T08:57:44.000Z</time>
      </trkpt>
      <trkpt lat="48.61363" lon="-0.55578">
        <ele>208.402101</ele>
        <time>2021-09-06T08:57:49.000Z</time>
      </trkpt>
      <trkpt lat="48.61324" lon="-0.5557">
        <ele>207.054964</ele>
        <time>2021-09-06T08:57:54.000Z</time>
      </trkpt>
      <trkpt lat="48.6131" lon="-0.55565">
        <ele>206.578194</ele>
        <time>2021-09-06T08:57:56.000Z</time>
      </trkpt>
      <trkpt lat="48.6129" lon="-0.55555">
        <ele>205.868846</ele>
        <time>2021-09-06T08:57:59.000Z</time>
      </trkpt>
      <trkpt lat="48.61284" lon="-0.5555">
        <ele>205.635419</ele>
        <time>2021-09-06T08:58:00.000Z</time>
      </trkpt>
      <trkpt lat="48.61266" lon="-0.55535">
        <ele>204.949115</ele>
        <time>2021-09-06T08:58:03.000Z</time>
      </trkpt>
      <trkpt lat="48.61255" lon="-0.55525">
        <ele>204.492309</ele>
        <time>2021-09-06T08:58:05.000Z</time>
      </trkpt>
      <trkpt lat="48.61242" lon="-0.55515">
        <ele>204.029811</ele>
        <time>2021-09-06T08:58:07.000Z</time>
      </trkpt>
      <trkpt lat="48.61209" lon="-0.55493">
        <ele>203.161012</ele>
        <time>2021-09-06T08:58:12.000Z</time>
      </trkpt>
      <trkpt lat="48.61196" lon="-0.55486">
        <ele>202.901691</ele>
        <time>2021-09-06T08:58:14.000Z</time>
      </trkpt>
      <trkpt lat="48.61182" lon="-0.55484">
        <ele>202.633445</ele>
        <time>2021-09-06T08:58:16.000Z</time>
      </trkpt>
      <trkpt lat="48.61143" lon="-0.55491">
        <ele>201.908107</ele>
        <time>2021-09-06T08:58:21.000Z</time>
      </trkpt>
      <trkpt lat="48.61094" lon="-0.55497">
        <ele>200.972092</ele>
        <time>2021-09-06T08:58:28.000Z</time>
      </trkpt>
      <trkpt lat="48.61074" lon="-0.55493">
        <ele>200.595121</ele>
        <time>2021-09-06T08:58:31.000Z</time>
      </trkpt>
      <trkpt lat="48.61062" lon="-0.55488">
        <ele>200.370055</ele>
        <time>2021-09-06T08:58:33.000Z</time>
      </trkpt>
      <trkpt lat="48.61057" lon="-0.55486">
        <ele>200.270194</ele>
        <time>2021-09-06T08:58:34.000Z</time>
      </trkpt>
      <trkpt lat="48.61045" lon="-0.55479">
        <ele>200.300371</ele>
        <time>2021-09-06T08:58:37.000Z</time>
      </trkpt>
      <trkpt lat="48.6103" lon="-0.55467">
        <ele>200.379201</ele>
        <time>2021-09-06T08:58:42.000Z</time>
      </trkpt>
      <trkpt lat="48.61013" lon="-0.55453">
        <ele>200.468931</ele>
        <time>2021-09-06T08:58:49.000Z</time>
      </trkpt>
      <trkpt lat="48.60999" lon="-0.55441">
        <ele>200.543298</ele>
        <time>2021-09-06T08:58:55.000Z</time>
      </trkpt>
      <trkpt lat="48.60982" lon="-0.55426">
        <ele>200.633546</ele>
        <time>2021-09-06T08:59:03.000Z</time>
      </trkpt>
      <trkpt lat="48.60965" lon="-0.55413">
        <ele>200.719208</ele>
        <time>2021-09-06T08:59:11.000Z</time>
      </trkpt>
      <trkpt lat="48.60948" lon="-0.55396">
        <ele>200.812874</ele>
        <time>2021-09-06T08:59:20.000Z</time>
      </trkpt>
      <trkpt lat="48.60936" lon="-0.55371">
        <ele>200.906268</ele>
        <time>2021-09-06T08:59:29.000Z</time>
      </trkpt>
      <trkpt lat="48.60929" lon="-0.55351">
        <ele>200.975601</ele>
        <time>2021-09-06T08:59:36.000Z</time>
      </trkpt>
      <trkpt lat="48.60922" lon="-0.55319">
        <ele>201.126212</ele>
        <time>2021-09-06T08:59:46.000Z</time>
      </trkpt>
      <trkpt lat="48.60921" lon="-0.55295">
        <ele>201.97316</ele>
        <time>2021-09-06T08:59:53.000Z</time>
      </trkpt>
      <trkpt lat="48.60921" lon="-0.5527">
        <ele>202.85776</ele>
        <time>2021-09-06T09:00:00.000Z</time>
      </trkpt>
      <trkpt lat="48.60922" lon="-0.55246">
        <ele>203.679578</ele>
        <time>2021-09-06T09:00:07.000Z</time>
      </trkpt>
      <trkpt lat="48.60922" lon="-0.55226">
        <ele>204.371893</ele>
        <time>2021-09-06T09:00:13.000Z</time>
      </trkpt>
      <trkpt lat="48.60921" lon="-0.55203">
        <ele>205.169713</ele>
        <time>2021-09-06T09:00:20.000Z</time>
      </trkpt>
      <trkpt lat="48.60921" lon="-0.5518">
        <ele>205.984539</ele>
        <time>2021-09-06T09:00:27.000Z</time>
      </trkpt>
      <trkpt lat="48.60922" lon="-0.55149">
        <ele>207.070962</ele>
        <time>2021-09-06T09:00:36.000Z</time>
      </trkpt>
      <trkpt lat="48.60923" lon="-0.55125">
        <ele>207.928634</ele>
        <time>2021-09-06T09:00:43.000Z</time>
      </trkpt>
      <trkpt lat="48.6092" lon="-0.55101">
        <ele>208.771362</ele>
        <time>2021-09-06T09:00:50.000Z</time>
      </trkpt>
      <trkpt lat="48.6092" lon="-0.5508">
        <ele>209.488211</ele>
        <time>2021-09-06T09:00:56.000Z</time>
      </trkpt>
      <trkpt lat="48.6092" lon="-0.55061">
        <ele>210.166521</ele>
        <time>2021-09-06T09:01:02.000Z</time>
      </trkpt>
      <trkpt lat="48.60919" lon="-0.55037">
        <ele>210.842415</ele>
        <time>2021-09-06T09:01:08.000Z</time>
      </trkpt>
      <trkpt lat="48.60919" lon="-0.55003">
        <ele>211.541938</ele>
        <time>2021-09-06T09:01:16.000Z</time>
      </trkpt>
      <trkpt lat="48.60907" lon="-0.54959">
        <ele>212.514631</ele>
        <time>2021-09-06T09:01:26.000Z</time>
      </trkpt>
      <trkpt lat="48.60894" lon="-0.5492">
        <ele>213.411384</ele>
        <time>2021-09-06T09:01:35.000Z</time>
      </trkpt>
      <trkpt lat="48.60882" lon="-0.54873">
        <ele>214.449445</ele>
        <time>2021-09-06T09:01:45.000Z</time>
      </trkpt>
      <trkpt lat="48.60874" lon="-0.54846">
        <ele>215.061982</ele>
        <time>2021-09-06T09:01:51.000Z</time>
      </trkpt>
      <trkpt lat="48.60862" lon="-0.54806">
        <ele>215.95812</ele>
        <time>2021-09-06T09:02:00.000Z</time>
      </trkpt>
      <trkpt lat="48.60855" lon="-0.5478">
        <ele>216.553756</ele>
        <time>2021-09-06T09:02:06.000Z</time>
      </trkpt>
      <trkpt lat="48.60842" lon="-0.54731">
        <ele>217.660112</ele>
        <time>2021-09-06T09:02:17.000Z</time>
      </trkpt>
      <trkpt lat="48.60833" lon="-0.54698">
        <ele>218.415622</ele>
        <time>2021-09-06T09:02:25.000Z</time>
      </trkpt>
      <trkpt lat="48.60821" lon="-0.54656">
        <ele>219.370107</ele>
        <time>2021-09-06T09:02:36.000Z</time>
      </trkpt>
      <trkpt lat="48.60812" lon="-0.54626">
        <ele>220.06215</ele>
        <time>2021-09-06T09:02:45.000Z</time>
      </trkpt>
      <trkpt lat="48.60807" lon="-0.54605">
        <ele>220.528416</ele>
        <time>2021-09-06T09:02:51.000Z</time>
      </trkpt>
      <trkpt lat="48.60799" lon="-0.54578">
        <ele>221.143332</ele>
        <time>2021-09-06T09:02:59.000Z</time>
      </trkpt>
      <trkpt lat="48.60793" lon="-0.54556">
        <ele>221.650363</ele>
        <time>2021-09-06T09:03:06.000Z</time>
      </trkpt>
      <trkpt lat="48.60786" lon="-0.5453">
        <ele>222.346841</ele>
        <time>2021-09-06T09:03:14.000Z</time>
      </trkpt>
      <trkpt lat="48.6078" lon="-0.54509">
        <ele>222.995743</ele>
        <time>2021-09-06T09:03:21.000Z</time>
      </trkpt>
      <trkpt lat="48.60771" lon="-0.54481">
        <ele>223.87264</ele>
        <time>2021-09-06T09:03:30.000Z</time>
      </trkpt>
      <trkpt lat="48.60766" lon="-0.54459">
        <ele>224.530557</ele>
        <time>2021-09-06T09:03:37.000Z</time>
      </trkpt>
      <trkpt lat="48.6076" lon="-0.54437">
        <ele>225.195777</ele>
        <time>2021-09-06T09:03:44.000Z</time>
      </trkpt>
      <trkpt lat="48.60757" lon="-0.54424">
        <ele>225.601784</ele>
        <time>2021-09-06T09:03:48.000Z</time>
      </trkpt>
      <trkpt lat="48.60754" lon="-0.54404">
        <ele>226.174114</ele>
        <time>2021-09-06T09:03:53.000Z</time>
      </trkpt>
      <trkpt lat="48.60747" lon="-0.54384">
        <ele>226.798558</ele>
        <time>2021-09-06T09:03:59.000Z</time>
      </trkpt>
      <trkpt lat="48.60742" lon="-0.54366">
        <ele>227.357674</ele>
        <time>2021-09-06T09:04:03.000Z</time>
      </trkpt>
      <trkpt lat="48.60734" lon="-0.54334">
        <ele>228.30812</ele>
        <time>2021-09-06T09:04:08.000Z</time>
      </trkpt>
      <trkpt lat="48.60732" lon="-0.54328">
        <ele>228.509685</ele>
        <time>2021-09-06T09:04:09.000Z</time>
      </trkpt>
      <trkpt lat="48.60721" lon="-0.54302">
        <ele>229.387487</ele>
        <time>2021-09-06T09:04:13.000Z</time>
      </trkpt>
      <trkpt lat="48.60697" lon="-0.54257">
        <ele>229.325044</ele>
        <time>2021-09-06T09:04:19.000Z</time>
      </trkpt>
      <trkpt lat="48.60669" lon="-0.54206">
        <ele>229.011846</ele>
        <time>2021-09-06T09:04:25.000Z</time>
      </trkpt>
      <trkpt lat="48.60632" lon="-0.54137">
        <ele>228.595305</ele>
        <time>2021-09-06T09:04:32.000Z</time>
      </trkpt>
      <trkpt lat="48.60596" lon="-0.54074">
        <ele>227.984799</ele>
        <time>2021-09-06T09:04:38.000Z</time>
      </trkpt>
      <trkpt lat="48.6059" lon="-0.54063">
        <ele>227.731572</ele>
        <time>2021-09-06T09:04:39.000Z</time>
      </trkpt>
      <trkpt lat="48.60573" lon="-0.54026">
        <ele>226.963972</ele>
        <time>2021-09-06T09:04:42.000Z</time>
      </trkpt>
      <trkpt lat="48.60564" lon="-0.53999">
        <ele>226.453627</ele>
        <time>2021-09-06T09:04:44.000Z</time>
      </trkpt>
      <trkpt lat="48.60555" lon="-0.5394">
        <ele>225.425146</ele>
        <time>2021-09-06T09:04:48.000Z</time>
      </trkpt>
      <trkpt lat="48.60555" lon="-0.53925">
        <ele>225.163918</ele>
        <time>2021-09-06T09:04:49.000Z</time>
      </trkpt>
      <trkpt lat="48.60558" lon="-0.53879">
        <ele>224.374462</ele>
        <time>2021-09-06T09:04:52.000Z</time>
      </trkpt>
      <trkpt lat="48.60571" lon="-0.53811">
        <ele>223.920161</ele>
        <time>2021-09-06T09:04:57.000Z</time>
      </trkpt>
      <trkpt lat="48.60588" lon="-0.53771">
        <ele>224.390374</ele>
        <time>2021-09-06T09:05:01.000Z</time>
      </trkpt>
      <trkpt lat="48.6061" lon="-0.53744">
        <ele>224.823566</ele>
        <time>2021-09-06T09:05:06.000Z</time>
      </trkpt>
      <trkpt lat="48.60626" lon="-0.53732">
        <ele>225.084974</ele>
        <time>2021-09-06T09:05:11.000Z</time>
      </trkpt>
      <trkpt lat="48.60636" lon="-0.53727">
        <ele>225.250116</ele>
        <time>2021-09-06T09:05:16.000Z</time>
      </trkpt>
      <trkpt lat="48.60645" lon="-0.53722">
        <ele>225.387012</ele>
        <time>2021-09-06T09:05:22.000Z</time>
      </trkpt>
      <trkpt lat="48.60656" lon="-0.53714">
        <ele>225.573052</ele>
        <time>2021-09-06T09:05:29.000Z</time>
      </trkpt>
      <trkpt lat="48.6066" lon="-0.53709">
        <ele>225.655565</ele>
        <time>2021-09-06T09:05:34.000Z</time>
      </trkpt>
      <trkpt lat="48.60666" lon="-0.53702">
        <ele>225.768259</ele>
        <time>2021-09-06T09:05:38.000Z</time>
      </trkpt>
      <trkpt lat="48.60674" lon="-0.53692">
        <ele>225.926653</ele>
        <time>2021-09-06T09:05:44.000Z</time>
      </trkpt>
      <trkpt lat="48.60682" lon="-0.53679">
        <ele>226.103265</ele>
        <time>2021-09-06T09:05:50.000Z</time>
      </trkpt>
      <trkpt lat="48.60685" lon="-0.53672">
        <ele>226.183991</ele>
        <time>2021-09-06T09:05:53.000Z</time>
      </trkpt>
      <trkpt lat="48.60686" lon="-0.53668">
        <ele>226.226003</ele>
        <time>2021-09-06T09:05:55.000Z</time>
      </trkpt>
      <trkpt lat="48.60687" lon="-0.5366">
        <ele>226.312713</ele>
        <time>2021-09-06T09:06:00.000Z</time>
      </trkpt>
      <trkpt lat="48.60694" lon="-0.53645">
        <ele>228.940382</ele>
        <time>2021-09-06T09:06:06.000Z</time>
      </trkpt>
      <trkpt lat="48.60699" lon="-0.53629">
        <ele>232.187871</ele>
        <time>2021-09-06T09:06:11.000Z</time>
      </trkpt>
      <trkpt lat="48.60701" lon="-0.53618">
        <ele>234.394092</ele>
        <time>2021-09-06T09:06:16.000Z</time>
      </trkpt>
      <trkpt lat="48.60706" lon="-0.53602">
        <ele>237.560622</ele>
        <time>2021-09-06T09:06:22.000Z</time>
      </trkpt>
      <trkpt lat="48.60708" lon="-0.53597">
        <ele>238.76487</ele>
        <time>2021-09-06T09:06:24.000Z</time>
      </trkpt>
      <trkpt lat="48.60709" lon="-0.5359">
        <ele>240.089801</ele>
        <time>2021-09-06T09:06:26.000Z</time>
      </trkpt>
      <trkpt lat="48.6071" lon="-0.53588">
        <ele>240.552776</ele>
        <time>2021-09-06T09:06:27.000Z</time>
      </trkpt>
      <trkpt lat="48.6071" lon="-0.53575">
        <ele>242.967284</ele>
        <time>2021-09-06T09:06:32.000Z</time>
      </trkpt>
      <trkpt lat="48.60712" lon="-0.53564">
        <ele>245.047212</ele>
        <time>2021-09-06T09:06:36.000Z</time>
      </trkpt>
      <trkpt lat="48.60716" lon="-0.53544">
        <ele>248.953306</ele>
        <time>2021-09-06T09:06:43.000Z</time>
      </trkpt>
      <trkpt lat="48.60716" lon="-0.53533">
        <ele>250.99711</ele>
        <time>2021-09-06T09:06:48.000Z</time>
      </trkpt>
      <trkpt lat="48.60716" lon="-0.53531">
        <ele>251.352515</ele>
        <time>2021-09-06T09:06:49.000Z</time>
      </trkpt>
      <trkpt lat="48.60714" lon="-0.53516">
        <ele>254.287494</ele>
        <time>2021-09-06T09:06:57.000Z</time>
      </trkpt>
      <trkpt lat="48.60712" lon="-0.535">
        <ele>257.191528</ele>
        <time>2021-09-06T09:07:04.000Z</time>
      </trkpt>
      <trkpt lat="48.60713" lon="-0.5348">
        <ele>260.897926</ele>
        <time>2021-09-06T09:07:12.000Z</time>
      </trkpt>
      <trkpt lat="48.60713" lon="-0.53463">
        <ele>264.133986</ele>
        <time>2021-09-06T09:07:20.000Z</time>
      </trkpt>
      <trkpt lat="48.60712" lon="-0.53454">
        <ele>265.910645</ele>
        <time>2021-09-06T09:07:24.000Z</time>
      </trkpt>
      <trkpt lat="48.60711" lon="-0.53448">
        <ele>267.064239</ele>
        <time>2021-09-06T09:07:26.000Z</time>
      </trkpt>
      <trkpt lat="48.6071" lon="-0.5344">
        <ele>268.486021</ele>
        <time>2021-09-06T09:07:29.000Z</time>
      </trkpt>
      <trkpt lat="48.60708" lon="-0.53433">
        <ele>270.078351</ele>
        <time>2021-09-06T09:07:32.000Z</time>
      </trkpt>
      <trkpt lat="48.60703" lon="-0.53414">
        <ele>273.84487</ele>
        <time>2021-09-06T09:07:39.000Z</time>
      </trkpt>
      <trkpt lat="48.60699" lon="-0.53397">
        <ele>277.263106</ele>
        <time>2021-09-06T09:07:45.000Z</time>
      </trkpt>
      <trkpt lat="48.60693" lon="-0.53382">
        <ele>280.318025</ele>
        <time>2021-09-06T09:07:51.000Z</time>
      </trkpt>
      <trkpt lat="48.60691" lon="-0.53377">
        <ele>281.417386</ele>
        <time>2021-09-06T09:07:53.000Z</time>
      </trkpt>
      <trkpt lat="48.60688" lon="-0.53373">
        <ele>282.544612</ele>
        <time>2021-09-06T09:07:55.000Z</time>
      </trkpt>
      <trkpt lat="48.60685" lon="-0.53359">
        <ele>285.080271</ele>
        <time>2021-09-06T09:08:00.000Z</time>
      </trkpt>
      <trkpt lat="48.6068" lon="-0.53345">
        <ele>287.941869</ele>
        <time>2021-09-06T09:08:06.000Z</time>
      </trkpt>
      <trkpt lat="48.60677" lon="-0.53322">
        <ele>292.229403</ele>
        <time>2021-09-06T09:08:13.000Z</time>
      </trkpt>
      <trkpt lat="48.60676" lon="-0.53295">
        <ele>297.19504</ele>
        <time>2021-09-06T09:08:21.000Z</time>
      </trkpt>
      <trkpt lat="48.60676" lon="-0.53277">
        <ele>300.557653</ele>
        <time>2021-09-06T09:08:26.000Z</time>
      </trkpt>
      <trkpt lat="48.60676" lon="-0.53251">
        <ele>305.226546</ele>
        <time>2021-09-06T09:08:32.000Z</time>
      </trkpt>
      <trkpt lat="48.60674" lon="-0.5322">
        <ele>310.869593</ele>
        <time>2021-09-06T09:08:40.000Z</time>
      </trkpt>
      <trkpt lat="48.60671" lon="-0.53211">
        <ele>312.626265</ele>
        <time>2021-09-06T09:08:43.000Z</time>
      </trkpt>
      <trkpt lat="48.60671" lon="-0.53204">
        <ele>313.843427</ele>
        <time>2021-09-06T09:08:45.000Z</time>
      </trkpt>
      <trkpt lat="48.60669" lon="-0.53183">
        <ele>317.838001</ele>
        <time>2021-09-06T09:08:51.000Z</time>
      </trkpt>
      <trkpt lat="48.60667" lon="-0.5315">
        <ele>323.827227</ele>
        <time>2021-09-06T09:08:59.000Z</time>
      </trkpt>
      <trkpt lat="48.60666" lon="-0.5312">
        <ele>325.19405</ele>
        <time>2021-09-06T09:09:06.000Z</time>
      </trkpt>
      <trkpt lat="48.60665" lon="-0.53079">
        <ele>321.038977</ele>
        <time>2021-09-06T09:09:15.000Z</time>
      </trkpt>
      <trkpt lat="48.60668" lon="-0.53033">
        <ele>316.370664</ele>
        <time>2021-09-06T09:09:24.000Z</time>
      </trkpt>
      <trkpt lat="48.60671" lon="-0.5301">
        <ele>314.062468</ele>
        <time>2021-09-06T09:09:30.000Z</time>
      </trkpt>
      <trkpt lat="48.60673" lon="-0.53007">
        <ele>313.581129</ele>
        <time>2021-09-06T09:09:31.000Z</time>
      </trkpt>
      <trkpt lat="48.60681" lon="-0.53002">
        <ele>312.240177</ele>
        <time>2021-09-06T09:09:34.000Z</time>
      </trkpt>
      <trkpt lat="48.60684" lon="-0.52999">
        <ele>311.729228</ele>
        <time>2021-09-06T09:09:35.000Z</time>
      </trkpt>
      <trkpt lat="48.60691" lon="-0.52992">
        <ele>310.411017</ele>
        <time>2021-09-06T09:09:38.000Z</time>
      </trkpt>
      <trkpt lat="48.60692" lon="-0.5299">
        <ele>310.167043</ele>
        <time>2021-09-06T09:09:39.000Z</time>
      </trkpt>
      <trkpt lat="48.60692" lon="-0.5299">
        <ele>310.151792</ele>
        <time>2021-09-06T09:09:44.000Z</time>
      </trkpt>
      <trkpt lat="48.60691" lon="-0.52992">
        <ele>309.884178</ele>
        <time>2021-09-06T09:09:46.000Z</time>
      </trkpt>
      <trkpt lat="48.60691" lon="-0.52991">
        <ele>309.782542</ele>
        <time>2021-09-06T09:09:48.000Z</time>
      </trkpt>
      <trkpt lat="48.60701" lon="-0.52972">
        <ele>307.275275</ele>
        <time>2021-09-06T09:11:00.000Z</time>
      </trkpt>
      <trkpt lat="48.60701" lon="-0.52963">
        <ele>306.443341</ele>
        <time>2021-09-06T09:11:02.000Z</time>
      </trkpt>
      <trkpt lat="48.60699" lon="-0.5293">
        <ele>303.029985</ele>
        <time>2021-09-06T09:11:07.000Z</time>
      </trkpt>
      <trkpt lat="48.60697" lon="-0.52898">
        <ele>299.768651</ele>
        <time>2021-09-06T09:11:12.000Z</time>
      </trkpt>
      <trkpt lat="48.60696" lon="-0.52888">
        <ele>298.961972</ele>
        <time>2021-09-06T09:11:14.000Z</time>
      </trkpt>
      <trkpt lat="48.60693" lon="-0.5288">
        <ele>298.35638</ele>
        <time>2021-09-06T09:11:16.000Z</time>
      </trkpt>
      <trkpt lat="48.6069" lon="-0.52855">
        <ele>296.683093</ele>
        <time>2021-09-06T09:11:20.000Z</time>
      </trkpt>
      <trkpt lat="48.60688" lon="-0.52845">
        <ele>296.007328</ele>
        <time>2021-09-06T09:11:22.000Z</time>
      </trkpt>
      <trkpt lat="48.60687" lon="-0.52839">
        <ele>295.612059</ele>
        <time>2021-09-06T09:11:23.000Z</time>
      </trkpt>
      <trkpt lat="48.60688" lon="-0.52829">
        <ele>294.93902</ele>
        <time>2021-09-06T09:11:24.000Z</time>
      </trkpt>
      <trkpt lat="48.60684" lon="-0.52791">
        <ele>292.482368</ele>
        <time>2021-09-06T09:11:28.000Z</time>
      </trkpt>
      <trkpt lat="48.60679" lon="-0.52737">
        <ele>288.92059</ele>
        <time>2021-09-06T09:11:33.000Z</time>
      </trkpt>
      <trkpt lat="48.60676" lon="-0.5269">
        <ele>285.829698</ele>
        <time>2021-09-06T09:11:37.000Z</time>
      </trkpt>
      <trkpt lat="48.60674" lon="-0.52678">
        <ele>285.03097</ele>
        <time>2021-09-06T09:11:38.000Z</time>
      </trkpt>
      <trkpt lat="48.60671" lon="-0.52641">
        <ele>282.580182</ele>
        <time>2021-09-06T09:11:41.000Z</time>
      </trkpt>
      <trkpt lat="48.60665" lon="-0.52576">
        <ele>279.484587</ele>
        <time>2021-09-06T09:11:46.000Z</time>
      </trkpt>
      <trkpt lat="48.60659" lon="-0.52521">
        <ele>277.253412</ele>
        <time>2021-09-06T09:11:50.000Z</time>
      </trkpt>
      <trkpt lat="48.60649" lon="-0.52497">
        <ele>276.08169</ele>
        <time>2021-09-06T09:11:52.000Z</time>
      </trkpt>
      <trkpt lat="48.60642" lon="-0.52486">
        <ele>275.460501</ele>
        <time>2021-09-06T09:11:53.000Z</time>
      </trkpt>
      <trkpt lat="48.60633" lon="-0.52479">
        <ele>274.837748</ele>
        <time>2021-09-06T09:11:54.000Z</time>
      </trkpt>
      <trkpt lat="48.60613" lon="-0.52473">
        <ele>273.609939</ele>
        <time>2021-09-06T09:11:56.000Z</time>
      </trkpt>
      <trkpt lat="48.60571" lon="-0.52478">
        <ele>271.030044</ele>
        <time>2021-09-06T09:12:00.000Z</time>
      </trkpt>
      <trkpt lat="48.60517" lon="-0.52487">
        <ele>267.927727</ele>
        <time>2021-09-06T09:12:05.000Z</time>
      </trkpt>
      <trkpt lat="48.60493" lon="-0.52487">
        <ele>266.637277</ele>
        <time>2021-09-06T09:12:07.000Z</time>
      </trkpt>
      <trkpt lat="48.6047" lon="-0.52484">
        <ele>265.333834</ele>
        <time>2021-09-06T09:12:09.000Z</time>
      </trkpt>
      <trkpt lat="48.60459" lon="-0.5248">
        <ele>264.689985</ele>
        <time>2021-09-06T09:12:10.000Z</time>
      </trkpt>
      <trkpt lat="48.60438" lon="-0.52467">
        <ele>263.442371</ele>
        <time>2021-09-06T09:12:12.000Z</time>
      </trkpt>
      <trkpt lat="48.60419" lon="-0.52448">
        <ele>262.182676</ele>
        <time>2021-09-06T09:12:14.000Z</time>
      </trkpt>
      <trkpt lat="48.60411" lon="-0.52436">
        <ele>261.546834</ele>
        <time>2021-09-06T09:12:15.000Z</time>
      </trkpt>
      <trkpt lat="48.60404" lon="-0.52422">
        <ele>260.903962</ele>
        <time>2021-09-06T09:12:16.000Z</time>
      </trkpt>
      <trkpt lat="48.60393" lon="-0.52392">
        <ele>259.529799</ele>
        <time>2021-09-06T09:12:18.000Z</time>
      </trkpt>
      <trkpt lat="48.6039" lon="-0.52377">
        <ele>258.8365</ele>
        <time>2021-09-06T09:12:19.000Z</time>
      </trkpt>
      <trkpt lat="48.60386" lon="-0.52345">
        <ele>257.449183</ele>
        <time>2021-09-06T09:12:21.000Z</time>
      </trkpt>
      <trkpt lat="48.60379" lon="-0.52282">
        <ele>254.733399</ele>
        <time>2021-09-06T09:12:25.000Z</time>
      </trkpt>
      <trkpt lat="48.60376" lon="-0.52267">
        <ele>254.072191</ele>
        <time>2021-09-06T09:12:26.000Z</time>
      </trkpt>
      <trkpt lat="48.60357" lon="-0.52214">
        <ele>251.492351</ele>
        <time>2021-09-06T09:12:30.000Z</time>
      </trkpt>
      <trkpt lat="48.60352" lon="-0.52186">
        <ele>250.239149</ele>
        <time>2021-09-06T09:12:32.000Z</time>
      </trkpt>
      <trkpt lat="48.60352" lon="-0.5217">
        <ele>249.596237</ele>
        <time>2021-09-06T09:12:33.000Z</time>
      </trkpt>
      <trkpt lat="48.60352" lon="-0.52122">
        <ele>247.087422</ele>
        <time>2021-09-06T09:12:36.000Z</time>
      </trkpt>
      <trkpt lat="48.60348" lon="-0.52108">
        <ele>246.201595</ele>
        <time>2021-09-06T09:12:37.000Z</time>
      </trkpt>
      <trkpt lat="48.60342" lon="-0.52097">
        <ele>245.406032</ele>
        <time>2021-09-06T09:12:38.000Z</time>
      </trkpt>
      <trkpt lat="48.60334" lon="-0.52092">
        <ele>244.683053</ele>
        <time>2021-09-06T09:12:39.000Z</time>
      </trkpt>
      <trkpt lat="48.60327" lon="-0.52093">
        <ele>244.051055</ele>
        <time>2021-09-06T09:12:40.000Z</time>
      </trkpt>
      <trkpt lat="48.6032" lon="-0.52096">
        <ele>243.449459</ele>
        <time>2021-09-06T09:12:41.000Z</time>
      </trkpt>
      <trkpt lat="48.60315" lon="-0.52101">
        <ele>242.914816</ele>
        <time>2021-09-06T09:12:42.000Z</time>
      </trkpt>
      <trkpt lat="48.60309" lon="-0.52111">
        <ele>242.081605</ele>
        <time>2021-09-06T09:12:44.000Z</time>
      </trkpt>
      <trkpt lat="48.60296" lon="-0.52135">
        <ele>240.330403</ele>
        <time>2021-09-06T09:12:49.000Z</time>
      </trkpt>
      <trkpt lat="48.60286" lon="-0.52144">
        <ele>239.309996</ele>
        <time>2021-09-06T09:12:54.000Z</time>
      </trkpt>
      <trkpt lat="48.60274" lon="-0.52145">
        <ele>238.331641</ele>
        <time>2021-09-06T09:12:59.000Z</time>
      </trkpt>
      <trkpt lat="48.60271" lon="-0.52143">
        <ele>237.995683</ele>
        <time>2021-09-06T09:13:01.000Z</time>
      </trkpt>
      <trkpt lat="48.60268" lon="-0.52141">
        <ele>237.734999</ele>
        <time>2021-09-06T09:13:03.000Z</time>
      </trkpt>
      <trkpt lat="48.60262" lon="-0.52136">
        <ele>237.103511</ele>
        <time>2021-09-06T09:13:07.000Z</time>
      </trkpt>
      <trkpt lat="48.60252" lon="-0.52128">
        <ele>236.17639</ele>
        <time>2021-09-06T09:13:12.000Z</time>
      </trkpt>
      <trkpt lat="48.60249" lon="-0.52124">
        <ele>235.837125</ele>
        <time>2021-09-06T09:13:14.000Z</time>
      </trkpt>
      <trkpt lat="48.60245" lon="-0.52122">
        <ele>235.484032</ele>
        <time>2021-09-06T09:13:16.000Z</time>
      </trkpt>
      <trkpt lat="48.60235" lon="-0.52111">
        <ele>234.39932</ele>
        <time>2021-09-06T09:13:23.000Z</time>
      </trkpt>
      <trkpt lat="48.60231" lon="-0.52108">
        <ele>234.014558</ele>
        <time>2021-09-06T09:13:26.000Z</time>
      </trkpt>
      <trkpt lat="48.60229" lon="-0.52108">
        <ele>233.858675</ele>
        <time>2021-09-06T09:13:27.000Z</time>
      </trkpt>
      <trkpt lat="48.60227" lon="-0.52108">
        <ele>233.708795</ele>
        <time>2021-09-06T09:13:28.000Z</time>
      </trkpt>
      <trkpt lat="48.60224" lon="-0.52102">
        <ele>233.303334</ele>
        <time>2021-09-06T09:13:31.000Z</time>
      </trkpt>
      <trkpt lat="48.6022" lon="-0.52096">
        <ele>233.531859</ele>
        <time>2021-09-06T09:13:34.000Z</time>
      </trkpt>
      <trkpt lat="48.60216" lon="-0.5209">
        <ele>233.773671</ele>
        <time>2021-09-06T09:13:37.000Z</time>
      </trkpt>
      <trkpt lat="48.60214" lon="-0.52088">
        <ele>233.862364</ele>
        <time>2021-09-06T09:13:38.000Z</time>
      </trkpt>
      <trkpt lat="48.6021" lon="-0.52082">
        <ele>234.099238</ele>
        <time>2021-09-06T09:13:41.000Z</time>
      </trkpt>
      <trkpt lat="48.60202" lon="-0.52075">
        <ele>234.481502</ele>
        <time>2021-09-06T09:13:46.000Z</time>
      </trkpt>
      <trkpt lat="48.60192" lon="-0.52063">
        <ele>234.987188</ele>
        <time>2021-09-06T09:13:53.000Z</time>
      </trkpt>
      <trkpt lat="48.60185" lon="-0.52052">
        <ele>235.407105</ele>
        <time>2021-09-06T09:13:59.000Z</time>
      </trkpt>
      <trkpt lat="48.60172" lon="-0.5204">
        <ele>236.015816</ele>
        <time>2021-09-06T09:14:07.000Z</time>
      </trkpt>
      <trkpt lat="48.60169" lon="-0.52038">
        <ele>236.147689</ele>
        <time>2021-09-06T09:14:09.000Z</time>
      </trkpt>
      <trkpt lat="48.60163" lon="-0.52033">
        <ele>236.438968</ele>
        <time>2021-09-06T09:14:13.000Z</time>
      </trkpt>
      <trkpt lat="48.60154" lon="-0.52025">
        <ele>236.891168</ele>
        <time>2021-09-06T09:14:19.000Z</time>
      </trkpt>
      <trkpt lat="48.60152" lon="-0.52024">
        <ele>236.956403</ele>
        <time>2021-09-06T09:14:20.000Z</time>
      </trkpt>
      <trkpt lat="48.6015" lon="-0.52021">
        <ele>237.087634</ele>
        <time>2021-09-06T09:14:22.000Z</time>
      </trkpt>
      <trkpt lat="48.60147" lon="-0.52014">
        <ele>237.298329</ele>
        <time>2021-09-06T09:14:25.000Z</time>
      </trkpt>
      <trkpt lat="48.60136" lon="-0.52003">
        <ele>237.854204</ele>
        <time>2021-09-06T09:14:32.000Z</time>
      </trkpt>
      <trkpt lat="48.6013" lon="-0.51994">
        <ele>238.194619</ele>
        <time>2021-09-06T09:14:37.000Z</time>
      </trkpt>
      <trkpt lat="48.60128" lon="-0.51992">
        <ele>238.309374</ele>
        <time>2021-09-06T09:14:40.000Z</time>
      </trkpt>
      <trkpt lat="48.60122" lon="-0.51984">
        <ele>238.638754</ele>
        <time>2021-09-06T09:14:45.000Z</time>
      </trkpt>
      <trkpt lat="48.6012" lon="-0.51976">
        <ele>238.861659</ele>
        <time>2021-09-06T09:14:48.000Z</time>
      </trkpt>
      <trkpt lat="48.60118" lon="-0.51971">
        <ele>239.023255</ele>
        <time>2021-09-06T09:14:50.000Z</time>
      </trkpt>
      <trkpt lat="48.6011" lon="-0.5196">
        <ele>239.462196</ele>
        <time>2021-09-06T09:14:56.000Z</time>
      </trkpt>
      <trkpt lat="48.60104" lon="-0.51949">
        <ele>239.852308</ele>
        <time>2021-09-06T09:15:00.000Z</time>
      </trkpt>
      <trkpt lat="48.60102" lon="-0.51946">
        <ele>239.957416</ele>
        <time>2021-09-06T09:15:01.000Z</time>
      </trkpt>
      <trkpt lat="48.60096" lon="-0.51929">
        <ele>240.483593</ele>
        <time>2021-09-06T09:15:06.000Z</time>
      </trkpt>
      <trkpt lat="48.60087" lon="-0.51912">
        <ele>241.235484</ele>
        <time>2021-09-06T09:15:14.000Z</time>
      </trkpt>
      <trkpt lat="48.6008" lon="-0.51899">
        <ele>241.887442</ele>
        <time>2021-09-06T09:15:20.000Z</time>
      </trkpt>
      <trkpt lat="48.60072" lon="-0.51883">
        <ele>242.633628</ele>
        <time>2021-09-06T09:15:26.000Z</time>
      </trkpt>
      <trkpt lat="48.60063" lon="-0.51866">
        <ele>243.49407</ele>
        <time>2021-09-06T09:15:33.000Z</time>
      </trkpt>
      <trkpt lat="48.60055" lon="-0.51847">
        <ele>244.351586</ele>
        <time>2021-09-06T09:15:41.000Z</time>
      </trkpt>
      <trkpt lat="48.60051" lon="-0.51834">
        <ele>244.889385</ele>
        <time>2021-09-06T09:15:46.000Z</time>
      </trkpt>
      <trkpt lat="48.6005" lon="-0.5183">
        <ele>245.046614</ele>
        <time>2021-09-06T09:15:47.000Z</time>
      </trkpt>
      <trkpt lat="48.60042" lon="-0.51816">
        <ele>245.78307</ele>
        <time>2021-09-06T09:15:53.000Z</time>
      </trkpt>
      <trkpt lat="48.60033" lon="-0.51799">
        <ele>246.592897</ele>
        <time>2021-09-06T09:15:59.000Z</time>
      </trkpt>
      <trkpt lat="48.60027" lon="-0.51781">
        <ele>247.35419</ele>
        <time>2021-09-06T09:16:04.000Z</time>
      </trkpt>
      <trkpt lat="48.60015" lon="-0.51757">
        <ele>248.512969</ele>
        <time>2021-09-06T09:16:11.000Z</time>
      </trkpt>
      <trkpt lat="48.60008" lon="-0.5174">
        <ele>249.266266</ele>
        <time>2021-09-06T09:16:16.000Z</time>
      </trkpt>
      <trkpt lat="48.59998" lon="-0.51718">
        <ele>250.289201</ele>
        <time>2021-09-06T09:16:21.000Z</time>
      </trkpt>
      <trkpt lat="48.59983" lon="-0.51695">
        <ele>251.007081</ele>
        <time>2021-09-06T09:16:27.000Z</time>
      </trkpt>
      <trkpt lat="48.59978" lon="-0.51686">
        <ele>250.997135</ele>
        <time>2021-09-06T09:16:29.000Z</time>
      </trkpt>
      <trkpt lat="48.59973" lon="-0.51675">
        <ele>250.986326</ele>
        <time>2021-09-06T09:16:31.000Z</time>
      </trkpt>
      <trkpt lat="48.59971" lon="-0.51669">
        <ele>250.980184</ele>
        <time>2021-09-06T09:16:32.000Z</time>
      </trkpt>
      <trkpt lat="48.59962" lon="-0.51649">
        <ele>250.959934</ele>
        <time>2021-09-06T09:16:35.000Z</time>
      </trkpt>
      <trkpt lat="48.59943" lon="-0.51606">
        <ele>250.917942</ele>
        <time>2021-09-06T09:16:40.000Z</time>
      </trkpt>
      <trkpt lat="48.59918" lon="-0.51555">
        <ele>250.865275</ele>
        <time>2021-09-06T09:16:45.000Z</time>
      </trkpt>
      <trkpt lat="48.59883" lon="-0.5148">
        <ele>250.704852</ele>
        <time>2021-09-06T09:16:51.000Z</time>
      </trkpt>
      <trkpt lat="48.59848" lon="-0.5141">
        <ele>248.658674</ele>
        <time>2021-09-06T09:16:56.000Z</time>
      </trkpt>
      <trkpt lat="48.59842" lon="-0.51396">
        <ele>248.250511</ele>
        <time>2021-09-06T09:16:57.000Z</time>
      </trkpt>
      <trkpt lat="48.59808" lon="-0.51323">
        <ele>246.16447</ele>
        <time>2021-09-06T09:17:02.000Z</time>
      </trkpt>
      <trkpt lat="48.59784" lon="-0.51269">
        <ele>244.651039</ele>
        <time>2021-09-06T09:17:06.000Z</time>
      </trkpt>
      <trkpt lat="48.59766" lon="-0.51233">
        <ele>243.589742</ele>
        <time>2021-09-06T09:17:10.000Z</time>
      </trkpt>
      <trkpt lat="48.59762" lon="-0.51225">
        <ele>243.365399</ele>
        <time>2021-09-06T09:17:11.000Z</time>
      </trkpt>
      <trkpt lat="48.59754" lon="-0.51204">
        <ele>242.788306</ele>
        <time>2021-09-06T09:17:14.000Z</time>
      </trkpt>
      <trkpt lat="48.5974" lon="-0.51175">
        <ele>241.950008</ele>
        <time>2021-09-06T09:17:20.000Z</time>
      </trkpt>
      <trkpt lat="48.59731" lon="-0.51157">
        <ele>241.421664</ele>
        <time>2021-09-06T09:17:25.000Z</time>
      </trkpt>
      <trkpt lat="48.59723" lon="-0.51142">
        <ele>240.97627</ele>
        <time>2021-09-06T09:17:30.000Z</time>
      </trkpt>
      <trkpt lat="48.59714" lon="-0.51124">
        <ele>240.449129</ele>
        <time>2021-09-06T09:17:36.000Z</time>
      </trkpt>
      <trkpt lat="48.59707" lon="-0.51111">
        <ele>240.048513</ele>
        <time>2021-09-06T09:17:41.000Z</time>
      </trkpt>
      <trkpt lat="48.59706" lon="-0.51108">
        <ele>239.96078</ele>
        <time>2021-09-06T09:17:42.000Z</time>
      </trkpt>
      <trkpt lat="48.59698" lon="-0.51097">
        <ele>239.581255</ele>
        <time>2021-09-06T09:17:46.000Z</time>
      </trkpt>
      <trkpt lat="48.59692" lon="-0.51087">
        <ele>239.287921</ele>
        <time>2021-09-06T09:17:50.000Z</time>
      </trkpt>
      <trkpt lat="48.59691" lon="-0.51081">
        <ele>239.123223</ele>
        <time>2021-09-06T09:17:52.000Z</time>
      </trkpt>
      <trkpt lat="48.59688" lon="-0.51077">
        <ele>238.986328</ele>
        <time>2021-09-06T09:17:54.000Z</time>
      </trkpt>
      <trkpt lat="48.59687" lon="-0.51075">
        <ele>238.933154</ele>
        <time>2021-09-06T09:17:55.000Z</time>
      </trkpt>
      <trkpt lat="48.59678" lon="-0.51062">
        <ele>238.49842</ele>
        <time>2021-09-06T09:18:00.000Z</time>
      </trkpt>
      <trkpt lat="48.59669" lon="-0.51044">
        <ele>238.10536</ele>
        <time>2021-09-06T09:18:06.000Z</time>
      </trkpt>
      <trkpt lat="48.59661" lon="-0.51024">
        <ele>238.332662</ele>
        <time>2021-09-06T09:18:12.000Z</time>
      </trkpt>
      <trkpt lat="48.59653" lon="-0.51007">
        <ele>238.524775</ele>
        <time>2021-09-06T09:18:18.000Z</time>
      </trkpt>
      <trkpt lat="48.59644" lon="-0.50985">
        <ele>238.768568</ele>
        <time>2021-09-06T09:18:24.000Z</time>
      </trkpt>
      <trkpt lat="48.59634" lon="-0.50959">
        <ele>239.045704</ele>
        <time>2021-09-06T09:18:30.000Z</time>
      </trkpt>
      <trkpt lat="48.59625" lon="-0.50943">
        <ele>239.247823</ele>
        <time>2021-09-06T09:18:35.000Z</time>
      </trkpt>
      <trkpt lat="48.59618" lon="-0.50931">
        <ele>239.401311</ele>
        <time>2021-09-06T09:18:39.000Z</time>
      </trkpt>
      <trkpt lat="48.59615" lon="-0.50926">
        <ele>239.463596</ele>
        <time>2021-09-06T09:18:41.000Z</time>
      </trkpt>
      <trkpt lat="48.59612" lon="-0.50917">
        <ele>239.552255</ele>
        <time>2021-09-06T09:18:43.000Z</time>
      </trkpt>
      <trkpt lat="48.59601" lon="-0.50889">
        <ele>239.859507</ele>
        <time>2021-09-06T09:18:49.000Z</time>
      </trkpt>
      <trkpt lat="48.59593" lon="-0.50871">
        <ele>240.063314</ele>
        <time>2021-09-06T09:18:54.000Z</time>
      </trkpt>
      <trkpt lat="48.59584" lon="-0.50844">
        <ele>240.344073</ele>
        <time>2021-09-06T09:18:59.000Z</time>
      </trkpt>
      <trkpt lat="48.59574" lon="-0.50816">
        <ele>240.65857</ele>
        <time>2021-09-06T09:19:04.000Z</time>
      </trkpt>
      <trkpt lat="48.59554" lon="-0.50779">
        <ele>241.300951</ele>
        <time>2021-09-06T09:19:11.000Z</time>
      </trkpt>
      <trkpt lat="48.59541" lon="-0.50755">
        <ele>241.711823</ele>
        <time>2021-09-06T09:19:16.000Z</time>
      </trkpt>
      <trkpt lat="48.59528" lon="-0.50731">
        <ele>242.13877</ele>
        <time>2021-09-06T09:19:22.000Z</time>
      </trkpt>
      <trkpt lat="48.59519" lon="-0.50711">
        <ele>242.464793</ele>
        <time>2021-09-06T09:19:28.000Z</time>
      </trkpt>
      <trkpt lat="48.59512" lon="-0.50693">
        <ele>242.746362</ele>
        <time>2021-09-06T09:19:33.000Z</time>
      </trkpt>
      <trkpt lat="48.59499" lon="-0.50668">
        <ele>243.167608</ele>
        <time>2021-09-06T09:19:39.000Z</time>
      </trkpt>
      <trkpt lat="48.59487" lon="-0.50644">
        <ele>243.567353</ele>
        <time>2021-09-06T09:19:46.000Z</time>
      </trkpt>
      <trkpt lat="48.5948" lon="-0.5063">
        <ele>243.815995</ele>
        <time>2021-09-06T09:19:51.000Z</time>
      </trkpt>
      <trkpt lat="48.59472" lon="-0.50613">
        <ele>244.100245</ele>
        <time>2021-09-06T09:19:56.000Z</time>
      </trkpt>
      <trkpt lat="48.59464" lon="-0.50595">
        <ele>244.481428</ele>
        <time>2021-09-06T09:20:01.000Z</time>
      </trkpt>
      <trkpt lat="48.59456" lon="-0.5058">
        <ele>244.934283</ele>
        <time>2021-09-06T09:20:06.000Z</time>
      </trkpt>
      <trkpt lat="48.59446" lon="-0.50559">
        <ele>245.552995</ele>
        <time>2021-09-06T09:20:12.000Z</time>
      </trkpt>
      <trkpt lat="48.59438" lon="-0.50538">
        <ele>246.129688</ele>
        <time>2021-09-06T09:20:17.000Z</time>
      </trkpt>
      <trkpt lat="48.5943" lon="-0.50524">
        <ele>246.581515</ele>
        <time>2021-09-06T09:20:22.000Z</time>
      </trkpt>
      <trkpt lat="48.5942" lon="-0.50506">
        <ele>247.165363</ele>
        <time>2021-09-06T09:20:27.000Z</time>
      </trkpt>
      <trkpt lat="48.59409" lon="-0.50481">
        <ele>247.872392</ele>
        <time>2021-09-06T09:20:33.000Z</time>
      </trkpt>
      <trkpt lat="48.59397" lon="-0.50451">
        <ele>248.732894</ele>
        <time>2021-09-06T09:20:40.000Z</time>
      </trkpt>
      <trkpt lat="48.59384" lon="-0.50426">
        <ele>249.487564</ele>
        <time>2021-09-06T09:20:47.000Z</time>
      </trkpt>
      <trkpt lat="48.59378" lon="-0.5041">
        <ele>249.935403</ele>
        <time>2021-09-06T09:20:51.000Z</time>
      </trkpt>
      <trkpt lat="48.59364" lon="-0.50377">
        <ele>250.878337</ele>
        <time>2021-09-06T09:20:59.000Z</time>
      </trkpt>
      <trkpt lat="48.59349" lon="-0.50346">
        <ele>251.567496</ele>
        <time>2021-09-06T09:21:07.000Z</time>
      </trkpt>
      <trkpt lat="48.59337" lon="-0.50318">
        <ele>252.162048</ele>
        <time>2021-09-06T09:21:14.000Z</time>
      </trkpt>
      <trkpt lat="48.59324" lon="-0.50291">
        <ele>252.771731</ele>
        <time>2021-09-06T09:21:21.000Z</time>
      </trkpt>
      <trkpt lat="48.59313" lon="-0.50265">
        <ele>253.33023</ele>
        <time>2021-09-06T09:21:28.000Z</time>
      </trkpt>
      <trkpt lat="48.59304" lon="-0.50244">
        <ele>253.778137</ele>
        <time>2021-09-06T09:21:33.000Z</time>
      </trkpt>
      <trkpt lat="48.59291" lon="-0.50214">
        <ele>254.417679</ele>
        <time>2021-09-06T09:21:40.000Z</time>
      </trkpt>
      <trkpt lat="48.59281" lon="-0.5019">
        <ele>254.935615</ele>
        <time>2021-09-06T09:21:46.000Z</time>
      </trkpt>
      <trkpt lat="48.59268" lon="-0.50158">
        <ele>255.60979</ele>
        <time>2021-09-06T09:21:53.000Z</time>
      </trkpt>
      <trkpt lat="48.59256" lon="-0.50131">
        <ele>256.160125</ele>
        <time>2021-09-06T09:21:59.000Z</time>
      </trkpt>
      <trkpt lat="48.59244" lon="-0.50105">
        <ele>256.727382</ele>
        <time>2021-09-06T09:22:05.000Z</time>
      </trkpt>
      <trkpt lat="48.59236" lon="-0.50085">
        <ele>257.10964</ele>
        <time>2021-09-06T09:22:09.000Z</time>
      </trkpt>
      <trkpt lat="48.59229" lon="-0.50063">
        <ele>257.542887</ele>
        <time>2021-09-06T09:22:14.000Z</time>
      </trkpt>
      <trkpt lat="48.59221" lon="-0.50045">
        <ele>257.918954</ele>
        <time>2021-09-06T09:22:18.000Z</time>
      </trkpt>
      <trkpt lat="48.59214" lon="-0.50027">
        <ele>258.27493</ele>
        <time>2021-09-06T09:22:22.000Z</time>
      </trkpt>
      <trkpt lat="48.59204" lon="-0.50006">
        <ele>258.717058</ele>
        <time>2021-09-06T09:22:27.000Z</time>
      </trkpt>
      <trkpt lat="48.59193" lon="-0.49978">
        <ele>259.279967</ele>
        <time>2021-09-06T09:22:33.000Z</time>
      </trkpt>
      <trkpt lat="48.59184" lon="-0.49959">
        <ele>259.680452</ele>
        <time>2021-09-06T09:22:37.000Z</time>
      </trkpt>
      <trkpt lat="48.59175" lon="-0.49933">
        <ele>260.182411</ele>
        <time>2021-09-06T09:22:42.000Z</time>
      </trkpt>
      <trkpt lat="48.59167" lon="-0.49914">
        <ele>260.535421</ele>
        <time>2021-09-06T09:22:46.000Z</time>
      </trkpt>
      <trkpt lat="48.59162" lon="-0.49902">
        <ele>260.736215</ele>
        <time>2021-09-06T09:22:49.000Z</time>
      </trkpt>
      <trkpt lat="48.59154" lon="-0.49881">
        <ele>261.070125</ele>
        <time>2021-09-06T09:22:53.000Z</time>
      </trkpt>
      <trkpt lat="48.59142" lon="-0.4985">
        <ele>261.56156</ele>
        <time>2021-09-06T09:22:59.000Z</time>
      </trkpt>
      <trkpt lat="48.59132" lon="-0.49831">
        <ele>261.874881</ele>
        <time>2021-09-06T09:23:03.000Z</time>
      </trkpt>
      <trkpt lat="48.5912" lon="-0.49802">
        <ele>262.350753</ele>
        <time>2021-09-06T09:23:08.000Z</time>
      </trkpt>
      <trkpt lat="48.5911" lon="-0.49776">
        <ele>262.753236</ele>
        <time>2021-09-06T09:23:12.000Z</time>
      </trkpt>
      <trkpt lat="48.591" lon="-0.49757">
        <ele>263.082863</ele>
        <time>2021-09-06T09:23:15.000Z</time>
      </trkpt>
      <trkpt lat="48.59089" lon="-0.49738">
        <ele>263.41973</ele>
        <time>2021-09-06T09:23:18.000Z</time>
      </trkpt>
      <trkpt lat="48.59076" lon="-0.49702">
        <ele>263.979518</ele>
        <time>2021-09-06T09:23:23.000Z</time>
      </trkpt>
      <trkpt lat="48.59068" lon="-0.4968">
        <ele>264.241162</ele>
        <time>2021-09-06T09:23:26.000Z</time>
      </trkpt>
      <trkpt lat="48.59065" lon="-0.49673">
        <ele>264.303739</ele>
        <time>2021-09-06T09:23:27.000Z</time>
      </trkpt>
      <trkpt lat="48.59059" lon="-0.4966">
        <ele>264.424936</ele>
        <time>2021-09-06T09:23:29.000Z</time>
      </trkpt>
      <trkpt lat="48.59055" lon="-0.49647">
        <ele>264.541931</ele>
        <time>2021-09-06T09:23:31.000Z</time>
      </trkpt>
      <trkpt lat="48.59051" lon="-0.4964">
        <ele>264.605327</ele>
        <time>2021-09-06T09:23:32.000Z</time>
      </trkpt>
      <trkpt lat="48.59043" lon="-0.49622">
        <ele>264.782661</ele>
        <time>2021-09-06T09:23:35.000Z</time>
      </trkpt>
      <trkpt lat="48.5904" lon="-0.49616">
        <ele>264.843268</ele>
        <time>2021-09-06T09:23:36.000Z</time>
      </trkpt>
      <trkpt lat="48.59031" lon="-0.49597">
        <ele>265.020023</ele>
        <time>2021-09-06T09:23:39.000Z</time>
      </trkpt>
      <trkpt lat="48.59029" lon="-0.49589">
        <ele>265.089606</ele>
        <time>2021-09-06T09:23:40.000Z</time>
      </trkpt>
      <trkpt lat="48.59022" lon="-0.49565">
        <ele>265.295482</ele>
        <time>2021-09-06T09:23:43.000Z</time>
      </trkpt>
      <trkpt lat="48.59014" lon="-0.49545">
        <ele>265.473577</ele>
        <time>2021-09-06T09:23:46.000Z</time>
      </trkpt>
      <trkpt lat="48.59008" lon="-0.49532">
        <ele>265.59806</ele>
        <time>2021-09-06T09:23:48.000Z</time>
      </trkpt>
      <trkpt lat="48.59003" lon="-0.49521">
        <ele>265.702366</ele>
        <time>2021-09-06T09:23:50.000Z</time>
      </trkpt>
      <trkpt lat="48.59" lon="-0.49516">
        <ele>265.756505</ele>
        <time>2021-09-06T09:23:51.000Z</time>
      </trkpt>
      <trkpt lat="48.58991" lon="-0.49495">
        <ele>265.950738</ele>
        <time>2021-09-06T09:23:55.000Z</time>
      </trkpt>
      <trkpt lat="48.58989" lon="-0.49487">
        <ele>266.022485</ele>
        <time>2021-09-06T09:23:56.000Z</time>
      </trkpt>
      <trkpt lat="48.58981" lon="-0.49466">
        <ele>266.203266</ele>
        <time>2021-09-06T09:23:59.000Z</time>
      </trkpt>
      <trkpt lat="48.58966" lon="-0.49432">
        <ele>266.290511</ele>
        <time>2021-09-06T09:24:04.000Z</time>
      </trkpt>
      <trkpt lat="48.58947" lon="-0.4939">
        <ele>266.349105</ele>
        <time>2021-09-06T09:24:10.000Z</time>
      </trkpt>
      <trkpt lat="48.58941" lon="-0.49377">
        <ele>266.367745</ele>
        <time>2021-09-06T09:24:12.000Z</time>
      </trkpt>
      <trkpt lat="48.58935" lon="-0.49363">
        <ele>266.38705</ele>
        <time>2021-09-06T09:24:14.000Z</time>
      </trkpt>
      <trkpt lat="48.58916" lon="-0.49319">
        <ele>266.448575</ele>
        <time>2021-09-06T09:24:20.000Z</time>
      </trkpt>
      <trkpt lat="48.589" lon="-0.49274">
        <ele>266.508702</ele>
        <time>2021-09-06T09:24:26.000Z</time>
      </trkpt>
      <trkpt lat="48.58892" lon="-0.49256">
        <ele>266.534831</ele>
        <time>2021-09-06T09:24:29.000Z</time>
      </trkpt>
      <trkpt lat="48.58884" lon="-0.49238">
        <ele>266.559012</ele>
        <time>2021-09-06T09:24:32.000Z</time>
      </trkpt>
      <trkpt lat="48.58877" lon="-0.49221">
        <ele>266.37662</ele>
        <time>2021-09-06T09:24:35.000Z</time>
      </trkpt>
      <trkpt lat="48.5887" lon="-0.49206">
        <ele>266.119645</ele>
        <time>2021-09-06T09:24:38.000Z</time>
      </trkpt>
      <trkpt lat="48.58858" lon="-0.49175">
        <ele>265.63129</ele>
        <time>2021-09-06T09:24:44.000Z</time>
      </trkpt>
      <trkpt lat="48.5885" lon="-0.49159">
        <ele>265.367457</ele>
        <time>2021-09-06T09:24:47.000Z</time>
      </trkpt>
      <trkpt lat="48.58845" lon="-0.49148">
        <ele>265.180648</ele>
        <time>2021-09-06T09:24:49.000Z</time>
      </trkpt>
      <trkpt lat="48.58843" lon="-0.49142">
        <ele>265.090038</ele>
        <time>2021-09-06T09:24:50.000Z</time>
      </trkpt>
      <trkpt lat="48.5883" lon="-0.49113">
        <ele>264.622577</ele>
        <time>2021-09-06T09:24:55.000Z</time>
      </trkpt>
      <trkpt lat="48.58811" lon="-0.49074">
        <ele>263.966219</ele>
        <time>2021-09-06T09:25:02.000Z</time>
      </trkpt>
      <trkpt lat="48.58809" lon="-0.49068">
        <ele>263.86349</ele>
        <time>2021-09-06T09:25:03.000Z</time>
      </trkpt>
      <trkpt lat="48.58808" lon="-0.49052">
        <ele>263.648718</ele>
        <time>2021-09-06T09:25:05.000Z</time>
      </trkpt>
      <trkpt lat="48.58809" lon="-0.49045">
        <ele>263.547945</ele>
        <time>2021-09-06T09:25:06.000Z</time>
      </trkpt>
      <trkpt lat="48.5881" lon="-0.49038">
        <ele>263.452436</ele>
        <time>2021-09-06T09:25:07.000Z</time>
      </trkpt>
      <trkpt lat="48.58817" lon="-0.49017">
        <ele>263.137034</ele>
        <time>2021-09-06T09:25:11.000Z</time>
      </trkpt>
      <trkpt lat="48.58817" lon="-0.48992">
        <ele>262.803763</ele>
        <time>2021-09-06T09:25:16.000Z</time>
      </trkpt>
      <trkpt lat="48.58811" lon="-0.48976">
        <ele>262.566926</ele>
        <time>2021-09-06T09:25:20.000Z</time>
      </trkpt>
      <trkpt lat="48.5881" lon="-0.48973">
        <ele>262.517175</ele>
        <time>2021-09-06T09:25:23.000Z</time>
      </trkpt>
      <trkpt lat="48.58806" lon="-0.48973">
        <ele>262.453104</ele>
        <time>2021-09-06T09:26:12.000Z</time>
      </trkpt>
      <trkpt lat="48.588" lon="-0.48975">
        <ele>262.333543</ele>
        <time>2021-09-06T09:26:15.000Z</time>
      </trkpt>
      <trkpt lat="48.58783" lon="-0.48977">
        <ele>261.988903</ele>
        <time>2021-09-06T09:26:22.000Z</time>
      </trkpt>
      <trkpt lat="48.58768" lon="-0.48978">
        <ele>261.690849</ele>
        <time>2021-09-06T09:26:26.000Z</time>
      </trkpt>
      <trkpt lat="48.58764" lon="-0.48977">
        <ele>261.598156</ele>
        <time>2021-09-06T09:26:27.000Z</time>
      </trkpt>
      <trkpt lat="48.58754" lon="-0.48975">
        <ele>261.408968</ele>
        <time>2021-09-06T09:26:29.000Z</time>
      </trkpt>
      <trkpt lat="48.58746" lon="-0.48967">
        <ele>261.204782</ele>
        <time>2021-09-06T09:26:31.000Z</time>
      </trkpt>
      <trkpt lat="48.5874" lon="-0.48952">
        <ele>260.976448</ele>
        <time>2021-09-06T09:26:33.000Z</time>
      </trkpt>
      <trkpt lat="48.58738" lon="-0.48944">
        <ele>260.85888</ele>
        <time>2021-09-06T09:26:34.000Z</time>
      </trkpt>
      <trkpt lat="48.58737" lon="-0.48925">
        <ele>260.612735</ele>
        <time>2021-09-06T09:26:36.000Z</time>
      </trkpt>
      <trkpt lat="48.58734" lon="-0.48898">
        <ele>260.24232</ele>
        <time>2021-09-06T09:26:39.000Z</time>
      </trkpt>
      <trkpt lat="48.5872" lon="-0.48855">
        <ele>259.607008</ele>
        <time>2021-09-06T09:26:44.000Z</time>
      </trkpt>
      <trkpt lat="48.58702" lon="-0.48815">
        <ele>259.03203</ele>
        <time>2021-09-06T09:26:49.000Z</time>
      </trkpt>
      <trkpt lat="48.58674" lon="-0.48747">
        <ele>258.173566</ele>
        <time>2021-09-06T09:26:57.000Z</time>
      </trkpt>
      <trkpt lat="48.58651" lon="-0.48692">
        <ele>257.477781</ele>
        <time>2021-09-06T09:27:03.000Z</time>
      </trkpt>
      <trkpt lat="48.58621" lon="-0.4862">
        <ele>256.56441</ele>
        <time>2021-09-06T09:27:10.000Z</time>
      </trkpt>
      <trkpt lat="48.58617" lon="-0.4861">
        <ele>256.431876</ele>
        <time>2021-09-06T09:27:11.000Z</time>
      </trkpt>
      <trkpt lat="48.58591" lon="-0.48548">
        <ele>255.555412</ele>
        <time>2021-09-06T09:27:17.000Z</time>
      </trkpt>
      <trkpt lat="48.5856" lon="-0.4847">
        <ele>254.458028</ele>
        <time>2021-09-06T09:27:24.000Z</time>
      </trkpt>
      <trkpt lat="48.58531" lon="-0.484">
        <ele>253.467486</ele>
        <time>2021-09-06T09:27:30.000Z</time>
      </trkpt>
      <trkpt lat="48.58521" lon="-0.48376">
        <ele>253.126018</ele>
        <time>2021-09-06T09:27:32.000Z</time>
      </trkpt>
      <trkpt lat="48.58491" lon="-0.48305">
        <ele>252.205615</ele>
        <time>2021-09-06T09:27:38.000Z</time>
      </trkpt>
      <trkpt lat="48.58486" lon="-0.48294">
        <ele>252.057107</ele>
        <time>2021-09-06T09:27:39.000Z</time>
      </trkpt>
      <trkpt lat="48.58464" lon="-0.48242">
        <ele>251.380573</ele>
        <time>2021-09-06T09:27:44.000Z</time>
      </trkpt>
      <trkpt lat="48.58442" lon="-0.48195">
        <ele>250.756719</ele>
        <time>2021-09-06T09:27:49.000Z</time>
      </trkpt>
      <trkpt lat="48.58417" lon="-0.48134">
        <ele>249.925045</ele>
        <time>2021-09-06T09:27:55.000Z</time>
      </trkpt>
      <trkpt lat="48.58395" lon="-0.48077">
        <ele>248.979284</ele>
        <time>2021-09-06T09:28:00.000Z</time>
      </trkpt>
      <trkpt lat="48.58362" lon="-0.47997">
        <ele>247.644335</ele>
        <time>2021-09-06T09:28:07.000Z</time>
      </trkpt>
      <trkpt lat="48.58332" lon="-0.47922">
        <ele>246.380896</ele>
        <time>2021-09-06T09:28:14.000Z</time>
      </trkpt>
      <trkpt lat="48.58308" lon="-0.47861">
        <ele>245.645052</ele>
        <time>2021-09-06T09:28:20.000Z</time>
      </trkpt>
      <trkpt lat="48.58286" lon="-0.47808">
        <ele>245.024673</ele>
        <time>2021-09-06T09:28:26.000Z</time>
      </trkpt>
      <trkpt lat="48.58264" lon="-0.47756">
        <ele>244.427944</ele>
        <time>2021-09-06T09:28:32.000Z</time>
      </trkpt>
      <trkpt lat="48.58237" lon="-0.4769">
        <ele>243.663947</ele>
        <time>2021-09-06T09:28:40.000Z</time>
      </trkpt>
      <trkpt lat="48.58213" lon="-0.47632">
        <ele>243.224778</ele>
        <time>2021-09-06T09:28:47.000Z</time>
      </trkpt>
      <trkpt lat="48.5819" lon="-0.47575">
        <ele>242.823987</ele>
        <time>2021-09-06T09:28:54.000Z</time>
      </trkpt>
      <trkpt lat="48.58157" lon="-0.475">
        <ele>242.284546</ele>
        <time>2021-09-06T09:29:04.000Z</time>
      </trkpt>
      <trkpt lat="48.58135" lon="-0.47447">
        <ele>241.96345</ele>
        <time>2021-09-06T09:29:11.000Z</time>
      </trkpt>
      <trkpt lat="48.58118" lon="-0.47405">
        <ele>242.06148</ele>
        <time>2021-09-06T09:29:17.000Z</time>
      </trkpt>
      <trkpt lat="48.58104" lon="-0.47366">
        <ele>242.148245</ele>
        <time>2021-09-06T09:29:23.000Z</time>
      </trkpt>
      <trkpt lat="48.58087" lon="-0.47327">
        <ele>242.240604</ele>
        <time>2021-09-06T09:29:30.000Z</time>
      </trkpt>
      <trkpt lat="48.58083" lon="-0.47316">
        <ele>242.265444</ele>
        <time>2021-09-06T09:29:32.000Z</time>
      </trkpt>
      <trkpt lat="48.58072" lon="-0.4729">
        <ele>242.326517</ele>
        <time>2021-09-06T09:29:37.000Z</time>
      </trkpt>
      <trkpt lat="48.58068" lon="-0.47279">
        <ele>242.351395</ele>
        <time>2021-09-06T09:29:39.000Z</time>
      </trkpt>
      <trkpt lat="48.58059" lon="-0.47259">
        <ele>242.399384</ele>
        <time>2021-09-06T09:29:43.000Z</time>
      </trkpt>
      <trkpt lat="48.58053" lon="-0.47244">
        <ele>242.4353</ele>
        <time>2021-09-06T09:29:46.000Z</time>
      </trkpt>
      <trkpt lat="48.58046" lon="-0.47229">
        <ele>242.470889</ele>
        <time>2021-09-06T09:29:49.000Z</time>
      </trkpt>
      <trkpt lat="48.58028" lon="-0.47189">
        <ele>243.062545</ele>
        <time>2021-09-06T09:29:57.000Z</time>
      </trkpt>
      <trkpt lat="48.58019" lon="-0.4717">
        <ele>243.396716</ele>
        <time>2021-09-06T09:30:01.000Z</time>
      </trkpt>
      <trkpt lat="48.58001" lon="-0.47131">
        <ele>244.090619</ele>
        <time>2021-09-06T09:30:09.000Z</time>
      </trkpt>
      <trkpt lat="48.57992" lon="-0.4711">
        <ele>244.460776</ele>
        <time>2021-09-06T09:30:13.000Z</time>
      </trkpt>
      <trkpt lat="48.57987" lon="-0.47099">
        <ele>244.648914</ele>
        <time>2021-09-06T09:30:15.000Z</time>
      </trkpt>
      <trkpt lat="48.57978" lon="-0.47072">
        <ele>245.087899</ele>
        <time>2021-09-06T09:30:20.000Z</time>
      </trkpt>
      <trkpt lat="48.57965" lon="-0.47041">
        <ele>245.62043</ele>
        <time>2021-09-06T09:30:26.000Z</time>
      </trkpt>
      <trkpt lat="48.57957" lon="-0.4702">
        <ele>245.968984</ele>
        <time>2021-09-06T09:30:30.000Z</time>
      </trkpt>
      <trkpt lat="48.57948" lon="-0.46993">
        <ele>246.4077</ele>
        <time>2021-09-06T09:30:35.000Z</time>
      </trkpt>
      <trkpt lat="48.57947" lon="-0.46989">
        <ele>246.467378</ele>
        <time>2021-09-06T09:30:36.000Z</time>
      </trkpt>
      <trkpt lat="48.57942" lon="-0.46982">
        <ele>246.593148</ele>
        <time>2021-09-06T09:30:38.000Z</time>
      </trkpt>
      <trkpt lat="48.57925" lon="-0.46944">
        <ele>247.16275</ele>
        <time>2021-09-06T09:30:45.000Z</time>
      </trkpt>
      <trkpt lat="48.57913" lon="-0.46909">
        <ele>247.637605</ele>
        <time>2021-09-06T09:30:51.000Z</time>
      </trkpt>
      <trkpt lat="48.57904" lon="-0.4689">
        <ele>247.926187</ele>
        <time>2021-09-06T09:30:55.000Z</time>
      </trkpt>
      <trkpt lat="48.57892" lon="-0.46864">
        <ele>248.316807</ele>
        <time>2021-09-06T09:31:00.000Z</time>
      </trkpt>
      <trkpt lat="48.5788" lon="-0.46833">
        <ele>248.761841</ele>
        <time>2021-09-06T09:31:05.000Z</time>
      </trkpt>
      <trkpt lat="48.57866" lon="-0.468">
        <ele>249.231589</ele>
        <time>2021-09-06T09:31:10.000Z</time>
      </trkpt>
      <trkpt lat="48.57864" lon="-0.46794">
        <ele>249.318541</ele>
        <time>2021-09-06T09:31:11.000Z</time>
      </trkpt>
      <trkpt lat="48.5785" lon="-0.46763">
        <ele>249.770519</ele>
        <time>2021-09-06T09:31:16.000Z</time>
      </trkpt>
      <trkpt lat="48.57848" lon="-0.46757">
        <ele>249.859818</ele>
        <time>2021-09-06T09:31:17.000Z</time>
      </trkpt>
      <trkpt lat="48.57839" lon="-0.4674">
        <ele>250.125683</ele>
        <time>2021-09-06T09:31:20.000Z</time>
      </trkpt>
      <trkpt lat="48.57832" lon="-0.46721">
        <ele>250.389702</ele>
        <time>2021-09-06T09:31:23.000Z</time>
      </trkpt>
      <trkpt lat="48.57812" lon="-0.46674">
        <ele>251.076182</ele>
        <time>2021-09-06T09:31:31.000Z</time>
      </trkpt>
      <trkpt lat="48.57805" lon="-0.46656">
        <ele>251.337849</ele>
        <time>2021-09-06T09:31:34.000Z</time>
      </trkpt>
      <trkpt lat="48.57798" lon="-0.46639">
        <ele>251.58932</ele>
        <time>2021-09-06T09:31:37.000Z</time>
      </trkpt>
      <trkpt lat="48.57793" lon="-0.46626">
        <ele>251.760064</ele>
        <time>2021-09-06T09:31:39.000Z</time>
      </trkpt>
      <trkpt lat="48.57788" lon="-0.46615">
        <ele>251.930394</ele>
        <time>2021-09-06T09:31:41.000Z</time>
      </trkpt>
      <trkpt lat="48.57785" lon="-0.46609">
        <ele>252.02172</ele>
        <time>2021-09-06T09:31:42.000Z</time>
      </trkpt>
      <trkpt lat="48.57767" lon="-0.4657">
        <ele>252.603701</ele>
        <time>2021-09-06T09:31:49.000Z</time>
      </trkpt>
      <trkpt lat="48.57761" lon="-0.46553">
        <ele>252.84843</ele>
        <time>2021-09-06T09:31:52.000Z</time>
      </trkpt>
      <trkpt lat="48.57756" lon="-0.46541">
        <ele>253.02811</ele>
        <time>2021-09-06T09:31:54.000Z</time>
      </trkpt>
      <trkpt lat="48.57732" lon="-0.46486">
        <ele>253.889577</ele>
        <time>2021-09-06T09:32:03.000Z</time>
      </trkpt>
      <trkpt lat="48.57713" lon="-0.46436">
        <ele>254.656761</ele>
        <time>2021-09-06T09:32:11.000Z</time>
      </trkpt>
      <trkpt lat="48.57699" lon="-0.46399">
        <ele>255.213515</ele>
        <time>2021-09-06T09:32:17.000Z</time>
      </trkpt>
      <trkpt lat="48.5769" lon="-0.46377">
        <ele>255.568651</ele>
        <time>2021-09-06T09:32:21.000Z</time>
      </trkpt>
      <trkpt lat="48.57681" lon="-0.46361">
        <ele>255.852422</ele>
        <time>2021-09-06T09:32:24.000Z</time>
      </trkpt>
      <trkpt lat="48.57675" lon="-0.46349">
        <ele>256.053956</ele>
        <time>2021-09-06T09:32:26.000Z</time>
      </trkpt>
      <trkpt lat="48.57662" lon="-0.46324">
        <ele>256.472276</ele>
        <time>2021-09-06T09:32:30.000Z</time>
      </trkpt>
      <trkpt lat="48.57659" lon="-0.46316">
        <ele>256.589676</ele>
        <time>2021-09-06T09:32:31.000Z</time>
      </trkpt>
      <trkpt lat="48.57657" lon="-0.46308">
        <ele>256.713637</ele>
        <time>2021-09-06T09:32:32.000Z</time>
      </trkpt>
      <trkpt lat="48.5765" lon="-0.46294">
        <ele>256.956684</ele>
        <time>2021-09-06T09:32:34.000Z</time>
      </trkpt>
      <trkpt lat="48.57647" lon="-0.46287">
        <ele>257.080549</ele>
        <time>2021-09-06T09:32:35.000Z</time>
      </trkpt>
      <trkpt lat="48.57632" lon="-0.46253">
        <ele>257.685106</ele>
        <time>2021-09-06T09:32:40.000Z</time>
      </trkpt>
      <trkpt lat="48.5762" lon="-0.46224">
        <ele>258.183004</ele>
        <time>2021-09-06T09:32:44.000Z</time>
      </trkpt>
      <trkpt lat="48.57602" lon="-0.4618">
        <ele>258.943374</ele>
        <time>2021-09-06T09:32:50.000Z</time>
      </trkpt>
      <trkpt lat="48.57599" lon="-0.46173">
        <ele>259.069833</ele>
        <time>2021-09-06T09:32:51.000Z</time>
      </trkpt>
      <trkpt lat="48.57587" lon="-0.46143">
        <ele>259.58509</ele>
        <time>2021-09-06T09:32:55.000Z</time>
      </trkpt>
      <trkpt lat="48.57571" lon="-0.46104">
        <ele>260.258838</ele>
        <time>2021-09-06T09:33:00.000Z</time>
      </trkpt>
      <trkpt lat="48.57568" lon="-0.46097">
        <ele>260.385144</ele>
        <time>2021-09-06T09:33:01.000Z</time>
      </trkpt>
      <trkpt lat="48.57562" lon="-0.46082">
        <ele>260.64638</ele>
        <time>2021-09-06T09:33:03.000Z</time>
      </trkpt>
      <trkpt lat="48.57552" lon="-0.46057">
        <ele>260.6597</ele>
        <time>2021-09-06T09:33:06.000Z</time>
      </trkpt>
      <trkpt lat="48.57533" lon="-0.46011">
        <ele>260.478666</ele>
        <time>2021-09-06T09:33:12.000Z</time>
      </trkpt>
      <trkpt lat="48.57513" lon="-0.45956">
        <ele>260.271318</ele>
        <time>2021-09-06T09:33:18.000Z</time>
      </trkpt>
      <trkpt lat="48.57489" lon="-0.45898">
        <ele>260.047817</ele>
        <time>2021-09-06T09:33:24.000Z</time>
      </trkpt>
      <trkpt lat="48.57462" lon="-0.45831">
        <ele>259.733733</ele>
        <time>2021-09-06T09:33:31.000Z</time>
      </trkpt>
      <trkpt lat="48.57437" lon="-0.45773">
        <ele>259.244295</ele>
        <time>2021-09-06T09:33:37.000Z</time>
      </trkpt>
      <trkpt lat="48.57417" lon="-0.45724">
        <ele>258.837145</ele>
        <time>2021-09-06T09:33:42.000Z</time>
      </trkpt>
      <trkpt lat="48.57393" lon="-0.45669">
        <ele>258.375436</ele>
        <time>2021-09-06T09:33:48.000Z</time>
      </trkpt>
      <trkpt lat="48.57381" lon="-0.45643">
        <ele>258.155739</ele>
        <time>2021-09-06T09:33:51.000Z</time>
      </trkpt>
      <trkpt lat="48.57373" lon="-0.45626">
        <ele>258.008839</ele>
        <time>2021-09-06T09:33:53.000Z</time>
      </trkpt>
      <trkpt lat="48.57354" lon="-0.45586">
        <ele>258.020048</ele>
        <time>2021-09-06T09:33:58.000Z</time>
      </trkpt>
      <trkpt lat="48.57351" lon="-0.45577">
        <ele>258.046354</ele>
        <time>2021-09-06T09:33:59.000Z</time>
      </trkpt>
      <trkpt lat="48.57327" lon="-0.4552">
        <ele>258.218769</ele>
        <time>2021-09-06T09:34:06.000Z</time>
      </trkpt>
      <trkpt lat="48.57311" lon="-0.45485">
        <ele>258.327839</ele>
        <time>2021-09-06T09:34:11.000Z</time>
      </trkpt>
      <trkpt lat="48.57305" lon="-0.4547">
        <ele>258.371902</ele>
        <time>2021-09-06T09:34:13.000Z</time>
      </trkpt>
      <trkpt lat="48.57294" lon="-0.4544">
        <ele>258.460122</ele>
        <time>2021-09-06T09:34:17.000Z</time>
      </trkpt>
      <trkpt lat="48.57283" lon="-0.45415">
        <ele>258.537613</ele>
        <time>2021-09-06T09:34:21.000Z</time>
      </trkpt>
      <trkpt lat="48.57271" lon="-0.45386">
        <ele>258.604985</ele>
        <time>2021-09-06T09:34:25.000Z</time>
      </trkpt>
      <trkpt lat="48.57265" lon="-0.4537">
        <ele>258.356014</ele>
        <time>2021-09-06T09:34:27.000Z</time>
      </trkpt>
      <trkpt lat="48.57255" lon="-0.45346">
        <ele>257.97624</ele>
        <time>2021-09-06T09:34:30.000Z</time>
      </trkpt>
      <trkpt lat="48.57248" lon="-0.45328">
        <ele>257.699988</ele>
        <time>2021-09-06T09:34:32.000Z</time>
      </trkpt>
      <trkpt lat="48.57234" lon="-0.45282">
        <ele>257.016426</ele>
        <time>2021-09-06T09:34:37.000Z</time>
      </trkpt>
      <trkpt lat="48.57231" lon="-0.45271">
        <ele>256.86574</ele>
        <time>2021-09-06T09:34:38.000Z</time>
      </trkpt>
      <trkpt lat="48.57224" lon="-0.45251">
        <ele>256.562817</ele>
        <time>2021-09-06T09:34:40.000Z</time>
      </trkpt>
      <trkpt lat="48.5722" lon="-0.45241">
        <ele>256.407357</ele>
        <time>2021-09-06T09:34:41.000Z</time>
      </trkpt>
      <trkpt lat="48.57198" lon="-0.4519">
        <ele>255.597001</ele>
        <time>2021-09-06T09:34:46.000Z</time>
      </trkpt>
      <trkpt lat="48.5717" lon="-0.45119">
        <ele>254.203402</ele>
        <time>2021-09-06T09:34:52.000Z</time>
      </trkpt>
      <trkpt lat="48.57137" lon="-0.45046">
        <ele>252.335962</ele>
        <time>2021-09-06T09:34:58.000Z</time>
      </trkpt>
      <trkpt lat="48.57108" lon="-0.44979">
        <ele>250.654581</ele>
        <time>2021-09-06T09:35:03.000Z</time>
      </trkpt>
      <trkpt lat="48.57078" lon="-0.44909">
        <ele>248.832253</ele>
        <time>2021-09-06T09:35:08.000Z</time>
      </trkpt>
      <trkpt lat="48.57048" lon="-0.44838">
        <ele>246.680592</ele>
        <time>2021-09-06T09:35:13.000Z</time>
      </trkpt>
      <trkpt lat="48.57018" lon="-0.44766">
        <ele>244.503278</ele>
        <time>2021-09-06T09:35:18.000Z</time>
      </trkpt>
      <trkpt lat="48.57006" lon="-0.44738">
        <ele>243.64836</ele>
        <time>2021-09-06T09:35:20.000Z</time>
      </trkpt>
      <trkpt lat="48.56978" lon="-0.44672">
        <ele>241.528281</ele>
        <time>2021-09-06T09:35:25.000Z</time>
      </trkpt>
      <trkpt lat="48.56962" lon="-0.44635">
        <ele>240.27645</ele>
        <time>2021-09-06T09:35:28.000Z</time>
      </trkpt>
      <trkpt lat="48.56953" lon="-0.44611">
        <ele>239.449083</ele>
        <time>2021-09-06T09:35:30.000Z</time>
      </trkpt>
      <trkpt lat="48.56919" lon="-0.44534">
        <ele>236.798741</ele>
        <time>2021-09-06T09:35:37.000Z</time>
      </trkpt>
      <trkpt lat="48.56897" lon="-0.44486">
        <ele>235.10497</ele>
        <time>2021-09-06T09:35:42.000Z</time>
      </trkpt>
      <trkpt lat="48.56889" lon="-0.4447">
        <ele>234.51228</ele>
        <time>2021-09-06T09:35:44.000Z</time>
      </trkpt>
      <trkpt lat="48.5688" lon="-0.44456">
        <ele>234.086487</ele>
        <time>2021-09-06T09:35:46.000Z</time>
      </trkpt>
      <trkpt lat="48.56859" lon="-0.44408">
        <ele>232.870891</ele>
        <time>2021-09-06T09:35:51.000Z</time>
      </trkpt>
      <trkpt lat="48.56852" lon="-0.44388">
        <ele>232.369931</ele>
        <time>2021-09-06T09:35:53.000Z</time>
      </trkpt>
      <trkpt lat="48.56841" lon="-0.44358">
        <ele>231.647875</ele>
        <time>2021-09-06T09:35:56.000Z</time>
      </trkpt>
      <trkpt lat="48.56815" lon="-0.4429">
        <ele>229.980978</ele>
        <time>2021-09-06T09:36:03.000Z</time>
      </trkpt>
      <trkpt lat="48.56799" lon="-0.44255">
        <ele>229.074249</ele>
        <time>2021-09-06T09:36:07.000Z</time>
      </trkpt>
      <trkpt lat="48.56784" lon="-0.44222">
        <ele>228.419634</ele>
        <time>2021-09-06T09:36:11.000Z</time>
      </trkpt>
      <trkpt lat="48.56778" lon="-0.44206">
        <ele>228.193816</ele>
        <time>2021-09-06T09:36:13.000Z</time>
      </trkpt>
      <trkpt lat="48.56768" lon="-0.44181">
        <ele>227.844835</ele>
        <time>2021-09-06T09:36:16.000Z</time>
      </trkpt>
      <trkpt lat="48.56761" lon="-0.44164">
        <ele>227.599275</ele>
        <time>2021-09-06T09:36:18.000Z</time>
      </trkpt>
      <trkpt lat="48.56747" lon="-0.44128">
        <ele>227.101957</ele>
        <time>2021-09-06T09:36:22.000Z</time>
      </trkpt>
      <trkpt lat="48.56729" lon="-0.44085">
        <ele>226.478271</ele>
        <time>2021-09-06T09:36:27.000Z</time>
      </trkpt>
      <trkpt lat="48.56711" lon="-0.44044">
        <ele>225.886942</ele>
        <time>2021-09-06T09:36:32.000Z</time>
      </trkpt>
      <trkpt lat="48.56695" lon="-0.44002">
        <ele>225.247016</ele>
        <time>2021-09-06T09:36:37.000Z</time>
      </trkpt>
      <trkpt lat="48.56689" lon="-0.43986">
        <ele>224.87446</ele>
        <time>2021-09-06T09:36:39.000Z</time>
      </trkpt>
      <trkpt lat="48.56685" lon="-0.43976">
        <ele>224.65329</ele>
        <time>2021-09-06T09:36:40.000Z</time>
      </trkpt>
      <trkpt lat="48.56664" lon="-0.4392">
        <ele>223.362458</ele>
        <time>2021-09-06T09:36:46.000Z</time>
      </trkpt>
      <trkpt lat="48.56648" lon="-0.43873">
        <ele>222.302184</ele>
        <time>2021-09-06T09:36:51.000Z</time>
      </trkpt>
      <trkpt lat="48.56627" lon="-0.43822">
        <ele>221.103032</ele>
        <time>2021-09-06T09:36:57.000Z</time>
      </trkpt>
      <trkpt lat="48.56612" lon="-0.43789">
        <ele>220.302896</ele>
        <time>2021-09-06T09:37:01.000Z</time>
      </trkpt>
      <trkpt lat="48.56601" lon="-0.43763">
        <ele>219.567167</ele>
        <time>2021-09-06T09:37:04.000Z</time>
      </trkpt>
      <trkpt lat="48.56593" lon="-0.43748">
        <ele>219.024922</ele>
        <time>2021-09-06T09:37:06.000Z</time>
      </trkpt>
      <trkpt lat="48.56589" lon="-0.4374">
        <ele>218.745531</ele>
        <time>2021-09-06T09:37:07.000Z</time>
      </trkpt>
      <trkpt lat="48.56577" lon="-0.43709">
        <ele>217.711424</ele>
        <time>2021-09-06T09:37:10.000Z</time>
      </trkpt>
      <trkpt lat="48.56549" lon="-0.4364">
        <ele>215.414203</ele>
        <time>2021-09-06T09:37:16.000Z</time>
      </trkpt>
      <trkpt lat="48.56526" lon="-0.43588">
        <ele>213.641216</ele>
        <time>2021-09-06T09:37:21.000Z</time>
      </trkpt>
      <trkpt lat="48.56506" lon="-0.43539">
        <ele>212.010924</ele>
        <time>2021-09-06T09:37:26.000Z</time>
      </trkpt>
      <trkpt lat="48.56477" lon="-0.43474">
        <ele>209.696395</ele>
        <time>2021-09-06T09:37:33.000Z</time>
      </trkpt>
      <trkpt lat="48.56449" lon="-0.43409">
        <ele>207.384183</ele>
        <time>2021-09-06T09:37:41.000Z</time>
      </trkpt>
      <trkpt lat="48.56422" lon="-0.43342">
        <ele>205.08508</ele>
        <time>2021-09-06T09:37:49.000Z</time>
      </trkpt>
      <trkpt lat="48.56405" lon="-0.43298">
        <ele>203.659836</ele>
        <time>2021-09-06T09:37:54.000Z</time>
      </trkpt>
      <trkpt lat="48.5639" lon="-0.43267">
        <ele>202.705499</ele>
        <time>2021-09-06T09:37:58.000Z</time>
      </trkpt>
      <trkpt lat="48.56383" lon="-0.43251">
        <ele>202.216958</ele>
        <time>2021-09-06T09:38:00.000Z</time>
      </trkpt>
      <trkpt lat="48.56376" lon="-0.43237">
        <ele>201.761168</ele>
        <time>2021-09-06T09:38:02.000Z</time>
      </trkpt>
      <trkpt lat="48.56372" lon="-0.4323">
        <ele>201.538269</ele>
        <time>2021-09-06T09:38:03.000Z</time>
      </trkpt>
      <trkpt lat="48.56356" lon="-0.43187">
        <ele>200.30804</ele>
        <time>2021-09-06T09:38:08.000Z</time>
      </trkpt>
      <trkpt lat="48.56349" lon="-0.43171">
        <ele>199.813179</ele>
        <time>2021-09-06T09:38:10.000Z</time>
      </trkpt>
      <trkpt lat="48.56339" lon="-0.43148">
        <ele>199.141756</ele>
        <time>2021-09-06T09:38:13.000Z</time>
      </trkpt>
      <trkpt lat="48.56316" lon="-0.43094">
        <ele>197.512434</ele>
        <time>2021-09-06T09:38:20.000Z</time>
      </trkpt>
      <trkpt lat="48.56307" lon="-0.43071">
        <ele>197.358162</ele>
        <time>2021-09-06T09:38:23.000Z</time>
      </trkpt>
      <trkpt lat="48.56301" lon="-0.43055">
        <ele>197.343212</ele>
        <time>2021-09-06T09:38:25.000Z</time>
      </trkpt>
      <trkpt lat="48.56285" lon="-0.43013">
        <ele>197.30279</ele>
        <time>2021-09-06T09:38:31.000Z</time>
      </trkpt>
      <trkpt lat="48.56281" lon="-0.43006">
        <ele>197.295529</ele>
        <time>2021-09-06T09:38:32.000Z</time>
      </trkpt>
      <trkpt lat="48.56269" lon="-0.42978">
        <ele>197.267593</ele>
        <time>2021-09-06T09:38:36.000Z</time>
      </trkpt>
      <trkpt lat="48.56264" lon="-0.42966">
        <ele>197.255693</ele>
        <time>2021-09-06T09:38:38.000Z</time>
      </trkpt>
      <trkpt lat="48.56256" lon="-0.4295">
        <ele>197.239442</ele>
        <time>2021-09-06T09:38:41.000Z</time>
      </trkpt>
      <trkpt lat="48.56247" lon="-0.42926">
        <ele>197.216259</ele>
        <time>2021-09-06T09:38:45.000Z</time>
      </trkpt>
      <trkpt lat="48.56237" lon="-0.42906">
        <ele>197.195624</ele>
        <time>2021-09-06T09:38:49.000Z</time>
      </trkpt>
      <trkpt lat="48.56227" lon="-0.42884">
        <ele>197.173278</ele>
        <time>2021-09-06T09:38:54.000Z</time>
      </trkpt>
      <trkpt lat="48.56219" lon="-0.42864">
        <ele>197.153901</ele>
        <time>2021-09-06T09:38:58.000Z</time>
      </trkpt>
      <trkpt lat="48.5621" lon="-0.42841">
        <ele>197.750385</ele>
        <time>2021-09-06T09:39:02.000Z</time>
      </trkpt>
      <trkpt lat="48.56195" lon="-0.42807">
        <ele>198.827854</ele>
        <time>2021-09-06T09:39:08.000Z</time>
      </trkpt>
      <trkpt lat="48.56185" lon="-0.42777">
        <ele>199.709586</ele>
        <time>2021-09-06T09:39:14.000Z</time>
      </trkpt>
      <trkpt lat="48.56181" lon="-0.42768">
        <ele>199.991179</ele>
        <time>2021-09-06T09:39:16.000Z</time>
      </trkpt>
      <trkpt lat="48.56178" lon="-0.42761">
        <ele>200.202421</ele>
        <time>2021-09-06T09:39:18.000Z</time>
      </trkpt>
      <trkpt lat="48.56167" lon="-0.42739">
        <ele>200.92701</ele>
        <time>2021-09-06T09:39:23.000Z</time>
      </trkpt>
      <trkpt lat="48.56159" lon="-0.42714">
        <ele>201.653352</ele>
        <time>2021-09-06T09:39:28.000Z</time>
      </trkpt>
      <trkpt lat="48.56153" lon="-0.42696">
        <ele>202.190711</ele>
        <time>2021-09-06T09:39:32.000Z</time>
      </trkpt>
      <trkpt lat="48.56144" lon="-0.42674">
        <ele>202.879797</ele>
        <time>2021-09-06T09:39:36.000Z</time>
      </trkpt>
      <trkpt lat="48.56128" lon="-0.42646">
        <ele>203.849184</ele>
        <time>2021-09-06T09:39:41.000Z</time>
      </trkpt>
      <trkpt lat="48.56107" lon="-0.42619">
        <ele>204.375091</ele>
        <time>2021-09-06T09:39:46.000Z</time>
      </trkpt>
      <trkpt lat="48.56101" lon="-0.42583">
        <ele>204.460556</ele>
        <time>2021-09-06T09:39:50.000Z</time>
      </trkpt>
      <trkpt lat="48.56084" lon="-0.42542">
        <ele>204.574037</ele>
        <time>2021-09-06T09:39:56.000Z</time>
      </trkpt>
      <trkpt lat="48.56077" lon="-0.4253">
        <ele>204.611439</ele>
        <time>2021-09-06T09:39:58.000Z</time>
      </trkpt>
      <trkpt lat="48.56068" lon="-0.42509">
        <ele>204.66923</ele>
        <time>2021-09-06T09:40:01.000Z</time>
      </trkpt>
      <trkpt lat="48.56045" lon="-0.42458">
        <ele>204.81472</ele>
        <time>2021-09-06T09:40:08.000Z</time>
      </trkpt>
      <trkpt lat="48.56021" lon="-0.42407">
        <ele>204.926047</ele>
        <time>2021-09-06T09:40:15.000Z</time>
      </trkpt>
      <trkpt lat="48.56" lon="-0.42366">
        <ele>204.585425</ele>
        <time>2021-09-06T09:40:21.000Z</time>
      </trkpt>
      <trkpt lat="48.55997" lon="-0.42359">
        <ele>204.528854</ele>
        <time>2021-09-06T09:40:22.000Z</time>
      </trkpt>
      <trkpt lat="48.55994" lon="-0.42352">
        <ele>204.470618</ele>
        <time>2021-09-06T09:40:23.000Z</time>
      </trkpt>
      <trkpt lat="48.55984" lon="-0.42332">
        <ele>204.308444</ele>
        <time>2021-09-06T09:40:26.000Z</time>
      </trkpt>
      <trkpt lat="48.55981" lon="-0.42325">
        <ele>204.254643</ele>
        <time>2021-09-06T09:40:27.000Z</time>
      </trkpt>
      <trkpt lat="48.55953" lon="-0.4227">
        <ele>203.789102</ele>
        <time>2021-09-06T09:40:36.000Z</time>
      </trkpt>
      <trkpt lat="48.5594" lon="-0.42236">
        <ele>203.529599</ele>
        <time>2021-09-06T09:40:41.000Z</time>
      </trkpt>
      <trkpt lat="48.55938" lon="-0.4223">
        <ele>203.479513</ele>
        <time>2021-09-06T09:40:42.000Z</time>
      </trkpt>
      <trkpt lat="48.55935" lon="-0.42223">
        <ele>203.426823</ele>
        <time>2021-09-06T09:40:43.000Z</time>
      </trkpt>
      <trkpt lat="48.55923" lon="-0.42196">
        <ele>203.213289</ele>
        <time>2021-09-06T09:40:47.000Z</time>
      </trkpt>
      <trkpt lat="48.55898" lon="-0.42146">
        <ele>202.539376</ele>
        <time>2021-09-06T09:40:55.000Z</time>
      </trkpt>
      <trkpt lat="48.55875" lon="-0.42095">
        <ele>201.831486</ele>
        <time>2021-09-06T09:41:02.000Z</time>
      </trkpt>
      <trkpt lat="48.5585" lon="-0.4204">
        <ele>201.072974</ele>
        <time>2021-09-06T09:41:09.000Z</time>
      </trkpt>
      <trkpt lat="48.55829" lon="-0.41992">
        <ele>200.40807</ele>
        <time>2021-09-06T09:41:15.000Z</time>
      </trkpt>
      <trkpt lat="48.55802" lon="-0.41936">
        <ele>198.910495</ele>
        <time>2021-09-06T09:41:22.000Z</time>
      </trkpt>
      <trkpt lat="48.55795" lon="-0.4192">
        <ele>198.28322</ele>
        <time>2021-09-06T09:41:24.000Z</time>
      </trkpt>
      <trkpt lat="48.55785" lon="-0.41897">
        <ele>197.416534</ele>
        <time>2021-09-06T09:41:27.000Z</time>
      </trkpt>
      <trkpt lat="48.55773" lon="-0.41869">
        <ele>196.36017</ele>
        <time>2021-09-06T09:41:32.000Z</time>
      </trkpt>
      <trkpt lat="48.55767" lon="-0.4186">
        <ele>195.965607</ele>
        <time>2021-09-06T09:41:37.000Z</time>
      </trkpt>
      <trkpt lat="48.55759" lon="-0.41851">
        <ele>195.486663</ele>
        <time>2021-09-06T09:41:44.000Z</time>
      </trkpt>
      <trkpt lat="48.55755" lon="-0.41839">
        <ele>195.091883</ele>
        <time>2021-09-06T09:41:49.000Z</time>
      </trkpt>
      <trkpt lat="48.55753" lon="-0.41837">
        <ele>194.939768</ele>
        <time>2021-09-06T09:41:51.000Z</time>
      </trkpt>
      <trkpt lat="48.5575" lon="-0.41843">
        <ele>194.736757</ele>
        <time>2021-09-06T09:41:54.000Z</time>
      </trkpt>
      <trkpt lat="48.55753" lon="-0.41851">
        <ele>194.440267</ele>
        <time>2021-09-06T09:41:58.000Z</time>
      </trkpt>
      <trkpt lat="48.55755" lon="-0.41852">
        <ele>194.364951</ele>
        <time>2021-09-06T09:41:59.000Z</time>
      </trkpt>
      <trkpt lat="48.55756" lon="-0.41852">
        <ele>194.302583</ele>
        <time>2021-09-06T09:42:00.000Z</time>
      </trkpt>
      <trkpt lat="48.55761" lon="-0.41853">
        <ele>194.067668</ele>
        <time>2021-09-06T09:42:03.000Z</time>
      </trkpt>
      <trkpt lat="48.55766" lon="-0.41862">
        <ele>193.668412</ele>
        <time>2021-09-06T09:42:08.000Z</time>
      </trkpt>
      <trkpt lat="48.55769" lon="-0.41871">
        <ele>193.362002</ele>
        <time>2021-09-06T09:42:13.000Z</time>
      </trkpt>
      <trkpt lat="48.55769" lon="-0.41874">
        <ele>193.270398</ele>
        <time>2021-09-06T09:42:16.000Z</time>
      </trkpt>
      <trkpt lat="48.5577" lon="-0.41867">
        <ele>193.055328</ele>
        <time>2021-09-06T09:42:24.000Z</time>
      </trkpt>
      <trkpt lat="48.55769" lon="-0.41865">
        <ele>192.957589</ele>
        <time>2021-09-06T09:42:25.000Z</time>
      </trkpt>
      <trkpt lat="48.55759" lon="-0.41842">
        <ele>192.098554</ele>
        <time>2021-09-06T09:42:31.000Z</time>
      </trkpt>
      <trkpt lat="48.55744" lon="-0.41811">
        <ele>191.136015</ele>
        <time>2021-09-06T09:42:38.000Z</time>
      </trkpt>
      <trkpt lat="48.55733" lon="-0.41788">
        <ele>190.647324</ele>
        <time>2021-09-06T09:42:43.000Z</time>
      </trkpt>
      <trkpt lat="48.55727" lon="-0.41779">
        <ele>190.425435</ele>
        <time>2021-09-06T09:42:45.000Z</time>
      </trkpt>
      <trkpt lat="48.55714" lon="-0.41764">
        <ele>189.98758</ele>
        <time>2021-09-06T09:42:50.000Z</time>
      </trkpt>
      <trkpt lat="48.55697" lon="-0.41755">
        <ele>189.522983</ele>
        <time>2021-09-06T09:42:55.000Z</time>
      </trkpt>
      <trkpt lat="48.55691" lon="-0.41751">
        <ele>189.337082</ele>
        <time>2021-09-06T09:42:57.000Z</time>
      </trkpt>
      <trkpt lat="48.55689" lon="-0.41744">
        <ele>189.218384</ele>
        <time>2021-09-06T09:42:58.000Z</time>
      </trkpt>
      <trkpt lat="48.55689" lon="-0.41738">
        <ele>189.105482</ele>
        <time>2021-09-06T09:42:59.000Z</time>
      </trkpt>
      <trkpt lat="48.55691" lon="-0.4172">
        <ele>188.795615</ele>
        <time>2021-09-06T09:43:02.000Z</time>
      </trkpt>
      <trkpt lat="48.55688" lon="-0.41696">
        <ele>188.382302</ele>
        <time>2021-09-06T09:43:07.000Z</time>
      </trkpt>
      <trkpt lat="48.55685" lon="-0.41676">
        <ele>188.019038</ele>
        <time>2021-09-06T09:43:12.000Z</time>
      </trkpt>
      <trkpt lat="48.55686" lon="-0.41674">
        <ele>187.965186</ele>
        <time>2021-09-06T09:43:13.000Z</time>
      </trkpt>
      <trkpt lat="48.55689" lon="-0.41671">
        <ele>187.860458</ele>
        <time>2021-09-06T09:43:15.000Z</time>
      </trkpt>
      <trkpt lat="48.5569" lon="-0.41672">
        <ele>187.823996</ele>
        <time>2021-09-06T09:43:17.000Z</time>
      </trkpt>
      <trkpt lat="48.5569" lon="-0.41675">
        <ele>187.776818</ele>
        <time>2021-09-06T09:43:21.000Z</time>
      </trkpt>
      <trkpt lat="48.55721" lon="-0.41462">
        <ele>188.32214</ele>
        <time>2021-09-06T09:47:05.000Z</time>
      </trkpt>
      <trkpt lat="48.55724" lon="-0.41422">
        <ele>188.731104</ele>
        <time>2021-09-06T09:47:14.000Z</time>
      </trkpt>
      <trkpt lat="48.55722" lon="-0.41397">
        <ele>188.992283</ele>
        <time>2021-09-06T09:47:20.000Z</time>
      </trkpt>
      <trkpt lat="48.55716" lon="-0.41379">
        <ele>189.189183</ele>
        <time>2021-09-06T09:47:25.000Z</time>
      </trkpt>
      <trkpt lat="48.55711" lon="-0.41372">
        <ele>189.300185</ele>
        <time>2021-09-06T09:47:28.000Z</time>
      </trkpt>
      <trkpt lat="48.5571" lon="-0.41365">
        <ele>189.367586</ele>
        <time>2021-09-06T09:47:30.000Z</time>
      </trkpt>
      <trkpt lat="48.55711" lon="-0.41352">
        <ele>189.496785</ele>
        <time>2021-09-06T09:47:35.000Z</time>
      </trkpt>
      <trkpt lat="48.55711" lon="-0.4135">
        <ele>189.517324</ele>
        <time>2021-09-06T09:47:38.000Z</time>
      </trkpt>
      <trkpt lat="48.55714" lon="-0.41352">
        <ele>189.558257</ele>
        <time>2021-09-06T09:48:38.000Z</time>
      </trkpt>
      <trkpt lat="48.55716" lon="-0.41353">
        <ele>189.587986</ele>
        <time>2021-09-06T09:48:39.000Z</time>
      </trkpt>
      <trkpt lat="48.55733" lon="-0.41361">
        <ele>189.809049</ele>
        <time>2021-09-06T09:48:45.000Z</time>
      </trkpt>
      <trkpt lat="48.55747" lon="-0.41361">
        <ele>189.979105</ele>
        <time>2021-09-06T09:48:51.000Z</time>
      </trkpt>
      <trkpt lat="48.5576" lon="-0.41364">
        <ele>190.137148</ele>
        <time>2021-09-06T09:48:56.000Z</time>
      </trkpt>
      <trkpt lat="48.55765" lon="-0.41366">
        <ele>190.197782</ele>
        <time>2021-09-06T09:48:58.000Z</time>
      </trkpt>
      <trkpt lat="48.55769" lon="-0.41369">
        <ele>190.256494</ele>
        <time>2021-09-06T09:49:00.000Z</time>
      </trkpt>
      <trkpt lat="48.55778" lon="-0.41375">
        <ele>190.379844</ele>
        <time>2021-09-06T09:49:04.000Z</time>
      </trkpt>
      <trkpt lat="48.5579" lon="-0.41388">
        <ele>190.566846</ele>
        <time>2021-09-06T09:49:10.000Z</time>
      </trkpt>
      <trkpt lat="48.55807" lon="-0.41407">
        <ele>190.825935</ele>
        <time>2021-09-06T09:49:18.000Z</time>
      </trkpt>
      <trkpt lat="48.55826" lon="-0.41422">
        <ele>191.086792</ele>
        <time>2021-09-06T09:49:26.000Z</time>
      </trkpt>
      <trkpt lat="48.55846" lon="-0.41447">
        <ele>191.40288</ele>
        <time>2021-09-06T09:49:36.000Z</time>
      </trkpt>
      <trkpt lat="48.55858" lon="-0.41461">
        <ele>191.591672</ele>
        <time>2021-09-06T09:49:42.000Z</time>
      </trkpt>
      <trkpt lat="48.55864" lon="-0.41467">
        <ele>191.682844</ele>
        <time>2021-09-06T09:49:46.000Z</time>
      </trkpt>
      <trkpt lat="48.55867" lon="-0.41467">
        <ele>191.637696</ele>
        <time>2021-09-06T09:49:48.000Z</time>
      </trkpt>
      <trkpt lat="48.55868" lon="-0.41467">
        <ele>191.595437</ele>
        <time>2021-09-06T09:49:50.000Z</time>
      </trkpt>
      <trkpt lat="48.55746" lon="-0.4181">
        <ele>185.067702</ele>
        <time>2021-09-06T10:47:41.000Z</time>
      </trkpt>
      <trkpt lat="48.55745" lon="-0.41807">
        <ele>185.029361</ele>
        <time>2021-09-06T10:47:42.000Z</time>
      </trkpt>
      <trkpt lat="48.55742" lon="-0.41802">
        <ele>184.956787</ele>
        <time>2021-09-06T10:47:44.000Z</time>
      </trkpt>
      <trkpt lat="48.55732" lon="-0.41784">
        <ele>184.715777</ele>
        <time>2021-09-06T10:47:49.000Z</time>
      </trkpt>
      <trkpt lat="48.55725" lon="-0.41777">
        <ele>184.592377</ele>
        <time>2021-09-06T10:47:51.000Z</time>
      </trkpt>
      <trkpt lat="48.55718" lon="-0.41769">
        <ele>184.457316</ele>
        <time>2021-09-06T10:47:53.000Z</time>
      </trkpt>
      <trkpt lat="48.5571" lon="-0.4176">
        <ele>184.310431</ele>
        <time>2021-09-06T10:47:55.000Z</time>
      </trkpt>
      <trkpt lat="48.55706" lon="-0.41757">
        <ele>184.230255</ele>
        <time>2021-09-06T10:47:56.000Z</time>
      </trkpt>
      <trkpt lat="48.55695" lon="-0.41752">
        <ele>184.065893</ele>
        <time>2021-09-06T10:47:58.000Z</time>
      </trkpt>
      <trkpt lat="48.55689" lon="-0.4174">
        <ele>183.910126</ele>
        <time>2021-09-06T10:48:00.000Z</time>
      </trkpt>
      <trkpt lat="48.55689" lon="-0.41725">
        <ele>183.751265</ele>
        <time>2021-09-06T10:48:02.000Z</time>
      </trkpt>
      <trkpt lat="48.55689" lon="-0.41711">
        <ele>183.607479</ele>
        <time>2021-09-06T10:48:04.000Z</time>
      </trkpt>
      <trkpt lat="48.55688" lon="-0.41698">
        <ele>183.571645</ele>
        <time>2021-09-06T10:48:06.000Z</time>
      </trkpt>
      <trkpt lat="48.55683" lon="-0.41672">
        <ele>183.646504</ele>
        <time>2021-09-06T10:48:10.000Z</time>
      </trkpt>
      <trkpt lat="48.55682" lon="-0.41665">
        <ele>183.664798</ele>
        <time>2021-09-06T10:48:11.000Z</time>
      </trkpt>
      <trkpt lat="48.55682" lon="-0.41639">
        <ele>183.735957</ele>
        <time>2021-09-06T10:48:15.000Z</time>
      </trkpt>
      <trkpt lat="48.55686" lon="-0.41614">
        <ele>183.805817</ele>
        <time>2021-09-06T10:48:19.000Z</time>
      </trkpt>
      <trkpt lat="48.5569" lon="-0.41603">
        <ele>183.841914</ele>
        <time>2021-09-06T10:48:21.000Z</time>
      </trkpt>
      <trkpt lat="48.55692" lon="-0.41597">
        <ele>183.85903</ele>
        <time>2021-09-06T10:48:22.000Z</time>
      </trkpt>
      <trkpt lat="48.55698" lon="-0.41581">
        <ele>183.909636</ele>
        <time>2021-09-06T10:48:25.000Z</time>
      </trkpt>
      <trkpt lat="48.557" lon="-0.41576">
        <ele>183.927014</ele>
        <time>2021-09-06T10:48:26.000Z</time>
      </trkpt>
      <trkpt lat="48.55702" lon="-0.4157">
        <ele>183.944794</ele>
        <time>2021-09-06T10:48:27.000Z</time>
      </trkpt>
      <trkpt lat="48.55705" lon="-0.41558">
        <ele>183.980156</ele>
        <time>2021-09-06T10:48:29.000Z</time>
      </trkpt>
      <trkpt lat="48.5571" lon="-0.41541">
        <ele>184.031452</ele>
        <time>2021-09-06T10:48:32.000Z</time>
      </trkpt>
      <trkpt lat="48.55715" lon="-0.41524">
        <ele>184.080714</ele>
        <time>2021-09-06T10:48:35.000Z</time>
      </trkpt>
      <trkpt lat="48.55717" lon="-0.415">
        <ele>184.148291</ele>
        <time>2021-09-06T10:48:39.000Z</time>
      </trkpt>
      <trkpt lat="48.5572" lon="-0.4145">
        <ele>184.28598</ele>
        <time>2021-09-06T10:48:47.000Z</time>
      </trkpt>
      <trkpt lat="48.55721" lon="-0.41407">
        <ele>184.543909</ele>
        <time>2021-09-06T10:48:54.000Z</time>
      </trkpt>
      <trkpt lat="48.55716" lon="-0.4138">
        <ele>184.723975</ele>
        <time>2021-09-06T10:48:59.000Z</time>
      </trkpt>
      <trkpt lat="48.55713" lon="-0.41375">
        <ele>184.766033</ele>
        <time>2021-09-06T10:49:00.000Z</time>
      </trkpt>
      <trkpt lat="48.5571" lon="-0.41363">
        <ele>184.851133</ele>
        <time>2021-09-06T10:49:02.000Z</time>
      </trkpt>
      <trkpt lat="48.5571" lon="-0.41356">
        <ele>184.892036</ele>
        <time>2021-09-06T10:49:03.000Z</time>
      </trkpt>
      <trkpt lat="48.5571" lon="-0.41343">
        <ele>184.976387</ele>
        <time>2021-09-06T10:49:05.000Z</time>
      </trkpt>
      <trkpt lat="48.55709" lon="-0.41322">
        <ele>185.113162</ele>
        <time>2021-09-06T10:49:08.000Z</time>
      </trkpt>
      <trkpt lat="48.55703" lon="-0.41275">
        <ele>185.415903</ele>
        <time>2021-09-06T10:49:15.000Z</time>
      </trkpt>
      <trkpt lat="48.55702" lon="-0.41269">
        <ele>185.457206</ele>
        <time>2021-09-06T10:49:16.000Z</time>
      </trkpt>
      <trkpt lat="48.557" lon="-0.41257">
        <ele>185.535247</ele>
        <time>2021-09-06T10:49:18.000Z</time>
      </trkpt>
      <trkpt lat="48.55697" lon="-0.41246">
        <ele>185.609521</ele>
        <time>2021-09-06T10:49:20.000Z</time>
      </trkpt>
      <trkpt lat="48.55686" lon="-0.41216">
        <ele>185.826779</ele>
        <time>2021-09-06T10:49:26.000Z</time>
      </trkpt>
      <trkpt lat="48.55686" lon="-0.41188">
        <ele>186.007207</ele>
        <time>2021-09-06T10:49:31.000Z</time>
      </trkpt>
      <trkpt lat="48.55684" lon="-0.41159">
        <ele>186.348551</ele>
        <time>2021-09-06T10:49:36.000Z</time>
      </trkpt>
      <trkpt lat="48.55679" lon="-0.41124">
        <ele>186.800972</ele>
        <time>2021-09-06T10:49:42.000Z</time>
      </trkpt>
      <trkpt lat="48.55673" lon="-0.41079">
        <ele>187.371205</ele>
        <time>2021-09-06T10:49:50.000Z</time>
      </trkpt>
      <trkpt lat="48.55666" lon="-0.41041">
        <ele>187.864169</ele>
        <time>2021-09-06T10:49:57.000Z</time>
      </trkpt>
      <trkpt lat="48.55659" lon="-0.40986">
        <ele>188.564968</ele>
        <time>2021-09-06T10:50:07.000Z</time>
      </trkpt>
      <trkpt lat="48.55652" lon="-0.40941">
        <ele>189.134394</ele>
        <time>2021-09-06T10:50:15.000Z</time>
      </trkpt>
      <trkpt lat="48.55647" lon="-0.40907">
        <ele>189.578955</ele>
        <time>2021-09-06T10:50:21.000Z</time>
      </trkpt>
      <trkpt lat="48.55645" lon="-0.40878">
        <ele>189.962376</ele>
        <time>2021-09-06T10:50:26.000Z</time>
      </trkpt>
      <trkpt lat="48.55642" lon="-0.40844">
        <ele>190.412192</ele>
        <time>2021-09-06T10:50:32.000Z</time>
      </trkpt>
      <trkpt lat="48.5564" lon="-0.40816">
        <ele>190.789015</ele>
        <time>2021-09-06T10:50:37.000Z</time>
      </trkpt>
      <trkpt lat="48.55641" lon="-0.40788">
        <ele>191.153856</ele>
        <time>2021-09-06T10:50:42.000Z</time>
      </trkpt>
      <trkpt lat="48.55643" lon="-0.40752">
        <ele>191.62695</ele>
        <time>2021-09-06T10:50:49.000Z</time>
      </trkpt>
      <trkpt lat="48.55644" lon="-0.40721">
        <ele>192.034147</ele>
        <time>2021-09-06T10:50:54.000Z</time>
      </trkpt>
      <trkpt lat="48.55648" lon="-0.40681">
        <ele>192.569658</ele>
        <time>2021-09-06T10:51:01.000Z</time>
      </trkpt>
      <trkpt lat="48.55652" lon="-0.40648">
        <ele>193.02105</ele>
        <time>2021-09-06T10:51:07.000Z</time>
      </trkpt>
      <trkpt lat="48.55657" lon="-0.40621">
        <ele>193.472223</ele>
        <time>2021-09-06T10:51:12.000Z</time>
      </trkpt>
      <trkpt lat="48.55662" lon="-0.40593">
        <ele>193.948121</ele>
        <time>2021-09-06T10:51:17.000Z</time>
      </trkpt>
      <trkpt lat="48.5567" lon="-0.40563">
        <ele>194.466881</ele>
        <time>2021-09-06T10:51:22.000Z</time>
      </trkpt>
      <trkpt lat="48.55683" lon="-0.40519">
        <ele>195.250802</ele>
        <time>2021-09-06T10:51:30.000Z</time>
      </trkpt>
      <trkpt lat="48.55693" lon="-0.40494">
        <ele>195.722332</ele>
        <time>2021-09-06T10:51:35.000Z</time>
      </trkpt>
      <trkpt lat="48.55699" lon="-0.40485">
        <ele>195.918586</ele>
        <time>2021-09-06T10:51:37.000Z</time>
      </trkpt>
      <trkpt lat="48.55706" lon="-0.40471">
        <ele>196.210511</ele>
        <time>2021-09-06T10:51:40.000Z</time>
      </trkpt>
      <trkpt lat="48.55717" lon="-0.40438">
        <ele>196.804534</ele>
        <time>2021-09-06T10:51:46.000Z</time>
      </trkpt>
      <trkpt lat="48.55727" lon="-0.40402">
        <ele>197.435862</ele>
        <time>2021-09-06T10:51:53.000Z</time>
      </trkpt>
      <trkpt lat="48.55737" lon="-0.40375">
        <ele>197.787933</ele>
        <time>2021-09-06T10:51:58.000Z</time>
      </trkpt>
      <trkpt lat="48.55742" lon="-0.40364">
        <ele>197.938674</ele>
        <time>2021-09-06T10:52:00.000Z</time>
      </trkpt>
      <trkpt lat="48.55749" lon="-0.4034">
        <ele>198.240697</ele>
        <time>2021-09-06T10:52:04.000Z</time>
      </trkpt>
      <trkpt lat="48.55763" lon="-0.40301">
        <ele>198.749505</ele>
        <time>2021-09-06T10:52:11.000Z</time>
      </trkpt>
      <trkpt lat="48.55771" lon="-0.40277">
        <ele>199.059995</ele>
        <time>2021-09-06T10:52:15.000Z</time>
      </trkpt>
      <trkpt lat="48.55777" lon="-0.40258">
        <ele>199.300806</ele>
        <time>2021-09-06T10:52:18.000Z</time>
      </trkpt>
      <trkpt lat="48.55787" lon="-0.40225">
        <ele>199.721832</ele>
        <time>2021-09-06T10:52:23.000Z</time>
      </trkpt>
      <trkpt lat="48.55789" lon="-0.40218">
        <ele>199.802302</ele>
        <time>2021-09-06T10:52:24.000Z</time>
      </trkpt>
      <trkpt lat="48.55791" lon="-0.40212">
        <ele>199.886359</ele>
        <time>2021-09-06T10:52:25.000Z</time>
      </trkpt>
      <trkpt lat="48.55797" lon="-0.40191">
        <ele>200.154772</ele>
        <time>2021-09-06T10:52:28.000Z</time>
      </trkpt>
      <trkpt lat="48.558" lon="-0.40184">
        <ele>200.244753</ele>
        <time>2021-09-06T10:52:29.000Z</time>
      </trkpt>
      <trkpt lat="48.55815" lon="-0.40142">
        <ele>200.420412</ele>
        <time>2021-09-06T10:52:35.000Z</time>
      </trkpt>
      <trkpt lat="48.55829" lon="-0.40099">
        <ele>200.192992</ele>
        <time>2021-09-06T10:52:41.000Z</time>
      </trkpt>
      <trkpt lat="48.55831" lon="-0.40092">
        <ele>200.154476</ele>
        <time>2021-09-06T10:52:42.000Z</time>
      </trkpt>
      <trkpt lat="48.55841" lon="-0.40061">
        <ele>199.990208</ele>
        <time>2021-09-06T10:52:46.000Z</time>
      </trkpt>
      <trkpt lat="48.55843" lon="-0.40054">
        <ele>199.956036</ele>
        <time>2021-09-06T10:52:47.000Z</time>
      </trkpt>
      <trkpt lat="48.55848" lon="-0.40038">
        <ele>199.870305</ele>
        <time>2021-09-06T10:52:50.000Z</time>
      </trkpt>
      <trkpt lat="48.55852" lon="-0.40009">
        <ele>199.72843</ele>
        <time>2021-09-06T10:52:55.000Z</time>
      </trkpt>
      <trkpt lat="48.55861" lon="-0.39981">
        <ele>199.585185</ele>
        <time>2021-09-06T10:52:59.000Z</time>
      </trkpt>
      <trkpt lat="48.55864" lon="-0.39974">
        <ele>199.545126</ele>
        <time>2021-09-06T10:53:00.000Z</time>
      </trkpt>
      <trkpt lat="48.55878" lon="-0.39926">
        <ele>199.292448</ele>
        <time>2021-09-06T10:53:06.000Z</time>
      </trkpt>
      <trkpt lat="48.55881" lon="-0.39918">
        <ele>199.252389</ele>
        <time>2021-09-06T10:53:07.000Z</time>
      </trkpt>
      <trkpt lat="48.55889" lon="-0.39893">
        <ele>199.063646</ele>
        <time>2021-09-06T10:53:10.000Z</time>
      </trkpt>
      <trkpt lat="48.55891" lon="-0.39883">
        <ele>198.992994</ele>
        <time>2021-09-06T10:53:11.000Z</time>
      </trkpt>
      <trkpt lat="48.5589" lon="-0.39865">
        <ele>198.864743</ele>
        <time>2021-09-06T10:53:13.000Z</time>
      </trkpt>
      <trkpt lat="48.55889" lon="-0.39847">
        <ele>198.740377</ele>
        <time>2021-09-06T10:53:16.000Z</time>
      </trkpt>
      <trkpt lat="48.55894" lon="-0.3983">
        <ele>198.61051</ele>
        <time>2021-09-06T10:53:19.000Z</time>
      </trkpt>
      <trkpt lat="48.55898" lon="-0.39825">
        <ele>198.560898</ele>
        <time>2021-09-06T10:53:20.000Z</time>
      </trkpt>
      <trkpt lat="48.55924" lon="-0.39796">
        <ele>198.219531</ele>
        <time>2021-09-06T10:53:26.000Z</time>
      </trkpt>
      <trkpt lat="48.55965" lon="-0.39754">
        <ele>197.701036</ele>
        <time>2021-09-06T10:53:33.000Z</time>
      </trkpt>
      <trkpt lat="48.56004" lon="-0.39711">
        <ele>197.376925</ele>
        <time>2021-09-06T10:53:40.000Z</time>
      </trkpt>
      <trkpt lat="48.56042" lon="-0.39668">
        <ele>197.467875</ele>
        <time>2021-09-06T10:53:47.000Z</time>
      </trkpt>
      <trkpt lat="48.56076" lon="-0.39633">
        <ele>197.547933</ele>
        <time>2021-09-06T10:53:53.000Z</time>
      </trkpt>
      <trkpt lat="48.56099" lon="-0.39609">
        <ele>197.600717</ele>
        <time>2021-09-06T10:53:57.000Z</time>
      </trkpt>
      <trkpt lat="48.56129" lon="-0.39578">
        <ele>197.670021</ele>
        <time>2021-09-06T10:54:02.000Z</time>
      </trkpt>
      <trkpt lat="48.56133" lon="-0.39569">
        <ele>197.683919</ele>
        <time>2021-09-06T10:54:03.000Z</time>
      </trkpt>
      <trkpt lat="48.56136" lon="-0.39559">
        <ele>197.766456</ele>
        <time>2021-09-06T10:54:04.000Z</time>
      </trkpt>
      <trkpt lat="48.56136" lon="-0.39549">
        <ele>198.011532</ele>
        <time>2021-09-06T10:54:05.000Z</time>
      </trkpt>
      <trkpt lat="48.56135" lon="-0.3954">
        <ele>198.250279</ele>
        <time>2021-09-06T10:54:06.000Z</time>
      </trkpt>
      <trkpt lat="48.56127" lon="-0.39515">
        <ele>198.915416</ele>
        <time>2021-09-06T10:54:09.000Z</time>
      </trkpt>
      <trkpt lat="48.56121" lon="-0.39503">
        <ele>199.285484</ele>
        <time>2021-09-06T10:54:11.000Z</time>
      </trkpt>
      <trkpt lat="48.56115" lon="-0.39493">
        <ele>199.639598</ele>
        <time>2021-09-06T10:54:13.000Z</time>
      </trkpt>
      <trkpt lat="48.56099" lon="-0.39466">
        <ele>200.53701</ele>
        <time>2021-09-06T10:54:19.000Z</time>
      </trkpt>
      <trkpt lat="48.56089" lon="-0.39448">
        <ele>201.114723</ele>
        <time>2021-09-06T10:54:23.000Z</time>
      </trkpt>
      <trkpt lat="48.56077" lon="-0.39425">
        <ele>201.827729</ele>
        <time>2021-09-06T10:54:28.000Z</time>
      </trkpt>
      <trkpt lat="48.56062" lon="-0.39398">
        <ele>202.720609</ele>
        <time>2021-09-06T10:54:35.000Z</time>
      </trkpt>
      <trkpt lat="48.56051" lon="-0.3938">
        <ele>203.318314</ele>
        <time>2021-09-06T10:54:40.000Z</time>
      </trkpt>
      <trkpt lat="48.56044" lon="-0.39366">
        <ele>203.738026</ele>
        <time>2021-09-06T10:54:44.000Z</time>
      </trkpt>
      <trkpt lat="48.56033" lon="-0.39347">
        <ele>204.376632</ele>
        <time>2021-09-06T10:54:50.000Z</time>
      </trkpt>
      <trkpt lat="48.56033" lon="-0.39344">
        <ele>204.46389</ele>
        <time>2021-09-06T10:54:51.000Z</time>
      </trkpt>
      <trkpt lat="48.5603" lon="-0.39338">
        <ele>204.706525</ele>
        <time>2021-09-06T10:54:53.000Z</time>
      </trkpt>
      <trkpt lat="48.56022" lon="-0.39326">
        <ele>205.314497</ele>
        <time>2021-09-06T10:54:58.000Z</time>
      </trkpt>
      <trkpt lat="48.56017" lon="-0.39314">
        <ele>205.829782</ele>
        <time>2021-09-06T10:55:02.000Z</time>
      </trkpt>
      <trkpt lat="48.56009" lon="-0.39299">
        <ele>206.516174</ele>
        <time>2021-09-06T10:55:07.000Z</time>
      </trkpt>
      <trkpt lat="48.55999" lon="-0.39271">
        <ele>207.671264</ele>
        <time>2021-09-06T10:55:14.000Z</time>
      </trkpt>
      <trkpt lat="48.55988" lon="-0.39249">
        <ele>208.666441</ele>
        <time>2021-09-06T10:55:21.000Z</time>
      </trkpt>
      <trkpt lat="48.55978" lon="-0.39229">
        <ele>209.542668</ele>
        <time>2021-09-06T10:55:27.000Z</time>
      </trkpt>
      <trkpt lat="48.55976" lon="-0.39226">
        <ele>209.73166</ele>
        <time>2021-09-06T10:55:28.000Z</time>
      </trkpt>
      <trkpt lat="48.55964" lon="-0.39207">
        <ele>210.677635</ele>
        <time>2021-09-06T10:55:33.000Z</time>
      </trkpt>
      <trkpt lat="48.55954" lon="-0.39189">
        <ele>211.528039</ele>
        <time>2021-09-06T10:55:38.000Z</time>
      </trkpt>
      <trkpt lat="48.55945" lon="-0.39172">
        <ele>212.274972</ele>
        <time>2021-09-06T10:55:42.000Z</time>
      </trkpt>
      <trkpt lat="48.55931" lon="-0.39148">
        <ele>213.426817</ele>
        <time>2021-09-06T10:55:47.000Z</time>
      </trkpt>
      <trkpt lat="48.55929" lon="-0.39142">
        <ele>213.673228</ele>
        <time>2021-09-06T10:55:48.000Z</time>
      </trkpt>
      <trkpt lat="48.55913" lon="-0.39113">
        <ele>214.146025</ele>
        <time>2021-09-06T10:55:54.000Z</time>
      </trkpt>
      <trkpt lat="48.55901" lon="-0.39091">
        <ele>214.103028</ele>
        <time>2021-09-06T10:55:58.000Z</time>
      </trkpt>
      <trkpt lat="48.5589" lon="-0.39074">
        <ele>214.068097</ele>
        <time>2021-09-06T10:56:01.000Z</time>
      </trkpt>
      <trkpt lat="48.55884" lon="-0.39062">
        <ele>214.044199</ele>
        <time>2021-09-06T10:56:03.000Z</time>
      </trkpt>
      <trkpt lat="48.55866" lon="-0.3903">
        <ele>213.979427</ele>
        <time>2021-09-06T10:56:08.000Z</time>
      </trkpt>
      <trkpt lat="48.55845" lon="-0.38993">
        <ele>213.90535</ele>
        <time>2021-09-06T10:56:13.000Z</time>
      </trkpt>
      <trkpt lat="48.55823" lon="-0.38957">
        <ele>213.829128</ele>
        <time>2021-09-06T10:56:18.000Z</time>
      </trkpt>
      <trkpt lat="48.55802" lon="-0.38922">
        <ele>213.718537</ele>
        <time>2021-09-06T10:56:23.000Z</time>
      </trkpt>
      <trkpt lat="48.55798" lon="-0.38916">
        <ele>213.646567</ele>
        <time>2021-09-06T10:56:24.000Z</time>
      </trkpt>
      <trkpt lat="48.55792" lon="-0.38904">
        <ele>213.515445</ele>
        <time>2021-09-06T10:56:26.000Z</time>
      </trkpt>
      <trkpt lat="48.55789" lon="-0.38899">
        <ele>213.458351</ele>
        <time>2021-09-06T10:56:27.000Z</time>
      </trkpt>
      <trkpt lat="48.55773" lon="-0.38871">
        <ele>213.137344</ele>
        <time>2021-09-06T10:56:32.000Z</time>
      </trkpt>
      <trkpt lat="48.55755" lon="-0.38837">
        <ele>212.768513</ele>
        <time>2021-09-06T10:56:38.000Z</time>
      </trkpt>
      <trkpt lat="48.55745" lon="-0.38821">
        <ele>212.58566</ele>
        <time>2021-09-06T10:56:41.000Z</time>
      </trkpt>
      <trkpt lat="48.55739" lon="-0.38809">
        <ele>212.459474</ele>
        <time>2021-09-06T10:56:43.000Z</time>
      </trkpt>
      <trkpt lat="48.55728" lon="-0.38791">
        <ele>212.24331</ele>
        <time>2021-09-06T10:56:46.000Z</time>
      </trkpt>
      <trkpt lat="48.55721" lon="-0.38778">
        <ele>212.106156</ele>
        <time>2021-09-06T10:56:48.000Z</time>
      </trkpt>
      <trkpt lat="48.55701" lon="-0.3874">
        <ele>211.68611</ele>
        <time>2021-09-06T10:56:54.000Z</time>
      </trkpt>
      <trkpt lat="48.55685" lon="-0.38714">
        <ele>211.331752</ele>
        <time>2021-09-06T10:56:58.000Z</time>
      </trkpt>
      <trkpt lat="48.55682" lon="-0.38708">
        <ele>211.216679</ele>
        <time>2021-09-06T10:56:59.000Z</time>
      </trkpt>
      <trkpt lat="48.5568" lon="-0.38703">
        <ele>211.108315</ele>
        <time>2021-09-06T10:57:00.000Z</time>
      </trkpt>
      <trkpt lat="48.55673" lon="-0.38692">
        <ele>210.851281</ele>
        <time>2021-09-06T10:57:02.000Z</time>
      </trkpt>
      <trkpt lat="48.55666" lon="-0.38679">
        <ele>210.587573</ele>
        <time>2021-09-06T10:57:04.000Z</time>
      </trkpt>
      <trkpt lat="48.55659" lon="-0.38666">
        <ele>210.304063</ele>
        <time>2021-09-06T10:57:06.000Z</time>
      </trkpt>
      <trkpt lat="48.55651" lon="-0.38652">
        <ele>210.006322</ele>
        <time>2021-09-06T10:57:08.000Z</time>
      </trkpt>
      <trkpt lat="48.55645" lon="-0.38639">
        <ele>209.740007</ele>
        <time>2021-09-06T10:57:10.000Z</time>
      </trkpt>
      <trkpt lat="48.5563" lon="-0.38612">
        <ele>209.163825</ele>
        <time>2021-09-06T10:57:14.000Z</time>
      </trkpt>
      <trkpt lat="48.55612" lon="-0.3858">
        <ele>208.464527</ele>
        <time>2021-09-06T10:57:19.000Z</time>
      </trkpt>
      <trkpt lat="48.55608" lon="-0.38574">
        <ele>208.330999</ele>
        <time>2021-09-06T10:57:20.000Z</time>
      </trkpt>
      <trkpt lat="48.55596" lon="-0.38554">
        <ele>207.901546</ele>
        <time>2021-09-06T10:57:23.000Z</time>
      </trkpt>
      <trkpt lat="48.55589" lon="-0.3854">
        <ele>207.600008</ele>
        <time>2021-09-06T10:57:25.000Z</time>
      </trkpt>
      <trkpt lat="48.55577" lon="-0.38519">
        <ele>207.14751</ele>
        <time>2021-09-06T10:57:28.000Z</time>
      </trkpt>
      <trkpt lat="48.55562" lon="-0.38492">
        <ele>206.628965</ele>
        <time>2021-09-06T10:57:32.000Z</time>
      </trkpt>
      <trkpt lat="48.5555" lon="-0.38471">
        <ele>206.249082</ele>
        <time>2021-09-06T10:57:35.000Z</time>
      </trkpt>
      <trkpt lat="48.55545" lon="-0.38457">
        <ele>206.025776</ele>
        <time>2021-09-06T10:57:37.000Z</time>
      </trkpt>
      <trkpt lat="48.55538" lon="-0.38444">
        <ele>205.794896</ele>
        <time>2021-09-06T10:57:39.000Z</time>
      </trkpt>
      <trkpt lat="48.55525" lon="-0.38422">
        <ele>205.397685</ele>
        <time>2021-09-06T10:57:42.000Z</time>
      </trkpt>
      <trkpt lat="48.55512" lon="-0.38399">
        <ele>204.972941</ele>
        <time>2021-09-06T10:57:45.000Z</time>
      </trkpt>
      <trkpt lat="48.55504" lon="-0.38383">
        <ele>204.698838</ele>
        <time>2021-09-06T10:57:47.000Z</time>
      </trkpt>
      <trkpt lat="48.55483" lon="-0.38343">
        <ele>203.977096</ele>
        <time>2021-09-06T10:57:52.000Z</time>
      </trkpt>
      <trkpt lat="48.5546" lon="-0.38302">
        <ele>203.244268</ele>
        <time>2021-09-06T10:57:57.000Z</time>
      </trkpt>
      <trkpt lat="48.55452" lon="-0.38287">
        <ele>203.142219</ele>
        <time>2021-09-06T10:57:59.000Z</time>
      </trkpt>
      <trkpt lat="48.55443" lon="-0.38271">
        <ele>203.049964</ele>
        <time>2021-09-06T10:58:01.000Z</time>
      </trkpt>
      <trkpt lat="48.55423" lon="-0.38232">
        <ele>202.833264</ele>
        <time>2021-09-06T10:58:06.000Z</time>
      </trkpt>
      <trkpt lat="48.55411" lon="-0.38209">
        <ele>202.703918</ele>
        <time>2021-09-06T10:58:09.000Z</time>
      </trkpt>
      <trkpt lat="48.55401" lon="-0.38195">
        <ele>202.618097</ele>
        <time>2021-09-06T10:58:11.000Z</time>
      </trkpt>
      <trkpt lat="48.55394" lon="-0.3818">
        <ele>202.538515</ele>
        <time>2021-09-06T10:58:13.000Z</time>
      </trkpt>
      <trkpt lat="48.55387" lon="-0.38166">
        <ele>202.459988</ele>
        <time>2021-09-06T10:58:15.000Z</time>
      </trkpt>
      <trkpt lat="48.55377" lon="-0.38146">
        <ele>202.348203</ele>
        <time>2021-09-06T10:58:18.000Z</time>
      </trkpt>
      <trkpt lat="48.55369" lon="-0.38133">
        <ele>202.27377</ele>
        <time>2021-09-06T10:58:20.000Z</time>
      </trkpt>
      <trkpt lat="48.55357" lon="-0.38113">
        <ele>202.157147</ele>
        <time>2021-09-06T10:58:23.000Z</time>
      </trkpt>
      <trkpt lat="48.55349" lon="-0.38101">
        <ele>202.081719</ele>
        <time>2021-09-06T10:58:25.000Z</time>
      </trkpt>
      <trkpt lat="48.5534" lon="-0.38089">
        <ele>201.976414</ele>
        <time>2021-09-06T10:58:27.000Z</time>
      </trkpt>
      <trkpt lat="48.55333" lon="-0.38076">
        <ele>201.835186</ele>
        <time>2021-09-06T10:58:29.000Z</time>
      </trkpt>
      <trkpt lat="48.5533" lon="-0.3807">
        <ele>201.775005</ele>
        <time>2021-09-06T10:58:30.000Z</time>
      </trkpt>
      <trkpt lat="48.55324" lon="-0.38056">
        <ele>201.642263</ele>
        <time>2021-09-06T10:58:32.000Z</time>
      </trkpt>
      <trkpt lat="48.5532" lon="-0.3805">
        <ele>201.569934</ele>
        <time>2021-09-06T10:58:33.000Z</time>
      </trkpt>
      <trkpt lat="48.55309" lon="-0.38029">
        <ele>201.345543</ele>
        <time>2021-09-06T10:58:36.000Z</time>
      </trkpt>
      <trkpt lat="48.55288" lon="-0.37995">
        <ele>200.968055</ele>
        <time>2021-09-06T10:58:41.000Z</time>
      </trkpt>
      <trkpt lat="48.55263" lon="-0.37949">
        <ele>200.477138</ele>
        <time>2021-09-06T10:58:48.000Z</time>
      </trkpt>
      <trkpt lat="48.55252" lon="-0.37929">
        <ele>200.270694</ele>
        <time>2021-09-06T10:58:51.000Z</time>
      </trkpt>
      <trkpt lat="48.55245" lon="-0.37915">
        <ele>200.120993</ele>
        <time>2021-09-06T10:58:53.000Z</time>
      </trkpt>
      <trkpt lat="48.55229" lon="-0.37886">
        <ele>199.81734</ele>
        <time>2021-09-06T10:58:57.000Z</time>
      </trkpt>
      <trkpt lat="48.55217" lon="-0.37862">
        <ele>199.730362</ele>
        <time>2021-09-06T10:59:00.000Z</time>
      </trkpt>
      <trkpt lat="48.55213" lon="-0.37855">
        <ele>199.704629</ele>
        <time>2021-09-06T10:59:01.000Z</time>
      </trkpt>
      <trkpt lat="48.55204" lon="-0.37839">
        <ele>199.651982</ele>
        <time>2021-09-06T10:59:03.000Z</time>
      </trkpt>
      <trkpt lat="48.55195" lon="-0.37823">
        <ele>199.597974</ele>
        <time>2021-09-06T10:59:05.000Z</time>
      </trkpt>
      <trkpt lat="48.55182" lon="-0.378">
        <ele>199.519828</ele>
        <time>2021-09-06T10:59:08.000Z</time>
      </trkpt>
      <trkpt lat="48.55178" lon="-0.37793">
        <ele>199.498903</ele>
        <time>2021-09-06T10:59:09.000Z</time>
      </trkpt>
      <trkpt lat="48.55175" lon="-0.37786">
        <ele>199.476661</ele>
        <time>2021-09-06T10:59:10.000Z</time>
      </trkpt>
      <trkpt lat="48.55162" lon="-0.37763">
        <ele>199.400534</ele>
        <time>2021-09-06T10:59:13.000Z</time>
      </trkpt>
      <trkpt lat="48.55126" lon="-0.37699">
        <ele>199.184413</ele>
        <time>2021-09-06T10:59:21.000Z</time>
      </trkpt>
      <trkpt lat="48.55113" lon="-0.37674">
        <ele>199.115013</ele>
        <time>2021-09-06T10:59:24.000Z</time>
      </trkpt>
      <trkpt lat="48.551" lon="-0.3765">
        <ele>199.181272</ele>
        <time>2021-09-06T10:59:27.000Z</time>
      </trkpt>
      <trkpt lat="48.55082" lon="-0.37617">
        <ele>199.274178</ele>
        <time>2021-09-06T10:59:31.000Z</time>
      </trkpt>
      <trkpt lat="48.55077" lon="-0.37608">
        <ele>199.299131</ele>
        <time>2021-09-06T10:59:32.000Z</time>
      </trkpt>
      <trkpt lat="48.55051" lon="-0.37562">
        <ele>199.429359</ele>
        <time>2021-09-06T10:59:37.000Z</time>
      </trkpt>
      <trkpt lat="48.55027" lon="-0.37518">
        <ele>199.553856</ele>
        <time>2021-09-06T10:59:42.000Z</time>
      </trkpt>
      <trkpt lat="48.55018" lon="-0.37501">
        <ele>199.60313</ele>
        <time>2021-09-06T10:59:44.000Z</time>
      </trkpt>
      <trkpt lat="48.55008" lon="-0.37484">
        <ele>199.650415</ele>
        <time>2021-09-06T10:59:46.000Z</time>
      </trkpt>
      <trkpt lat="48.55" lon="-0.37467">
        <ele>199.695704</ele>
        <time>2021-09-06T10:59:48.000Z</time>
      </trkpt>
      <trkpt lat="48.54993" lon="-0.37451">
        <ele>199.848492</ele>
        <time>2021-09-06T10:59:50.000Z</time>
      </trkpt>
      <trkpt lat="48.54978" lon="-0.37403">
        <ele>200.291755</ele>
        <time>2021-09-06T10:59:55.000Z</time>
      </trkpt>
      <trkpt lat="48.54975" lon="-0.37394">
        <ele>200.380408</ele>
        <time>2021-09-06T10:59:56.000Z</time>
      </trkpt>
      <trkpt lat="48.54969" lon="-0.37378">
        <ele>200.536521</ele>
        <time>2021-09-06T10:59:58.000Z</time>
      </trkpt>
      <trkpt lat="48.54968" lon="-0.3736">
        <ele>200.683103</ele>
        <time>2021-09-06T11:00:00.000Z</time>
      </trkpt>
      <trkpt lat="48.54965" lon="-0.37351">
        <ele>200.766459</ele>
        <time>2021-09-06T11:00:01.000Z</time>
      </trkpt>
      <trkpt lat="48.54955" lon="-0.37304">
        <ele>201.179557</ele>
        <time>2021-09-06T11:00:06.000Z</time>
      </trkpt>
      <trkpt lat="48.54942" lon="-0.3725">
        <ele>201.656357</ele>
        <time>2021-09-06T11:00:12.000Z</time>
      </trkpt>
      <trkpt lat="48.54938" lon="-0.37232">
        <ele>201.8186</ele>
        <time>2021-09-06T11:00:14.000Z</time>
      </trkpt>
      <trkpt lat="48.54931" lon="-0.37203">
        <ele>202.134397</ele>
        <time>2021-09-06T11:00:17.000Z</time>
      </trkpt>
      <trkpt lat="48.54928" lon="-0.37184">
        <ele>202.383476</ele>
        <time>2021-09-06T11:00:19.000Z</time>
      </trkpt>
      <trkpt lat="48.54924" lon="-0.37167">
        <ele>202.615602</ele>
        <time>2021-09-06T11:00:21.000Z</time>
      </trkpt>
      <trkpt lat="48.54915" lon="-0.37123">
        <ele>203.219196</ele>
        <time>2021-09-06T11:00:26.000Z</time>
      </trkpt>
      <trkpt lat="48.54914" lon="-0.37116">
        <ele>203.309213</ele>
        <time>2021-09-06T11:00:27.000Z</time>
      </trkpt>
      <trkpt lat="48.54911" lon="-0.37095">
        <ele>203.582399</ele>
        <time>2021-09-06T11:00:30.000Z</time>
      </trkpt>
      <trkpt lat="48.54908" lon="-0.37087">
        <ele>203.70509</ele>
        <time>2021-09-06T11:00:31.000Z</time>
      </trkpt>
      <trkpt lat="48.549" lon="-0.37059">
        <ele>204.099638</ele>
        <time>2021-09-06T11:00:34.000Z</time>
      </trkpt>
      <trkpt lat="48.54895" lon="-0.37043">
        <ele>204.322456</ele>
        <time>2021-09-06T11:00:36.000Z</time>
      </trkpt>
      <trkpt lat="48.54892" lon="-0.37035">
        <ele>204.437626</ele>
        <time>2021-09-06T11:00:37.000Z</time>
      </trkpt>
      <trkpt lat="48.5489" lon="-0.37027">
        <ele>204.552338</ele>
        <time>2021-09-06T11:00:38.000Z</time>
      </trkpt>
      <trkpt lat="48.54887" lon="-0.37012">
        <ele>204.762125</ele>
        <time>2021-09-06T11:00:40.000Z</time>
      </trkpt>
      <trkpt lat="48.54878" lon="-0.36974">
        <ele>205.272497</ele>
        <time>2021-09-06T11:00:45.000Z</time>
      </trkpt>
      <trkpt lat="48.5487" lon="-0.36949">
        <ele>205.556164</ele>
        <time>2021-09-06T11:00:48.000Z</time>
      </trkpt>
      <trkpt lat="48.54866" lon="-0.36934">
        <ele>205.65864</ele>
        <time>2021-09-06T11:00:50.000Z</time>
      </trkpt>
      <trkpt lat="48.54865" lon="-0.36927">
        <ele>205.709874</ele>
        <time>2021-09-06T11:00:51.000Z</time>
      </trkpt>
      <trkpt lat="48.54858" lon="-0.36897">
        <ele>205.91451</ele>
        <time>2021-09-06T11:00:55.000Z</time>
      </trkpt>
      <trkpt lat="48.54846" lon="-0.36849">
        <ele>206.238225</ele>
        <time>2021-09-06T11:01:02.000Z</time>
      </trkpt>
      <trkpt lat="48.54842" lon="-0.3682">
        <ele>206.430481</ele>
        <time>2021-09-06T11:01:06.000Z</time>
      </trkpt>
      <trkpt lat="48.54843" lon="-0.36805">
        <ele>206.523639</ele>
        <time>2021-09-06T11:01:08.000Z</time>
      </trkpt>
      <trkpt lat="48.54842" lon="-0.36799">
        <ele>206.568347</ele>
        <time>2021-09-06T11:01:09.000Z</time>
      </trkpt>
      <trkpt lat="48.54839" lon="-0.36776">
        <ele>206.716345</ele>
        <time>2021-09-06T11:01:12.000Z</time>
      </trkpt>
      <trkpt lat="48.54838" lon="-0.36769">
        <ele>206.760258</ele>
        <time>2021-09-06T11:01:13.000Z</time>
      </trkpt>
      <trkpt lat="48.54834" lon="-0.3675">
        <ele>206.889863</ele>
        <time>2021-09-06T11:01:16.000Z</time>
      </trkpt>
      <trkpt lat="48.54831" lon="-0.36727">
        <ele>207.044246</ele>
        <time>2021-09-06T11:01:19.000Z</time>
      </trkpt>
      <trkpt lat="48.54829" lon="-0.36719">
        <ele>207.097154</ele>
        <time>2021-09-06T11:01:20.000Z</time>
      </trkpt>
      <trkpt lat="48.54821" lon="-0.36699">
        <ele>207.197325</ele>
        <time>2021-09-06T11:01:23.000Z</time>
      </trkpt>
      <trkpt lat="48.54811" lon="-0.36682">
        <ele>207.005593</ele>
        <time>2021-09-06T11:01:26.000Z</time>
      </trkpt>
      <trkpt lat="48.54808" lon="-0.36676">
        <ele>206.942401</ele>
        <time>2021-09-06T11:01:27.000Z</time>
      </trkpt>
      <trkpt lat="48.54803" lon="-0.36664">
        <ele>206.820819</ele>
        <time>2021-09-06T11:01:29.000Z</time>
      </trkpt>
      <trkpt lat="48.54798" lon="-0.36651">
        <ele>206.693015</ele>
        <time>2021-09-06T11:01:31.000Z</time>
      </trkpt>
      <trkpt lat="48.54792" lon="-0.36627">
        <ele>206.477458</ele>
        <time>2021-09-06T11:01:34.000Z</time>
      </trkpt>
      <trkpt lat="48.54791" lon="-0.36619">
        <ele>206.404039</ele>
        <time>2021-09-06T11:01:35.000Z</time>
      </trkpt>
      <trkpt lat="48.5479" lon="-0.3661">
        <ele>206.331428</ele>
        <time>2021-09-06T11:01:36.000Z</time>
      </trkpt>
      <trkpt lat="48.54783" lon="-0.36583">
        <ele>206.079949</ele>
        <time>2021-09-06T11:01:39.000Z</time>
      </trkpt>
      <trkpt lat="48.54768" lon="-0.36524">
        <ele>205.546343</ele>
        <time>2021-09-06T11:01:45.000Z</time>
      </trkpt>
      <trkpt lat="48.54754" lon="-0.36469">
        <ele>205.047476</ele>
        <time>2021-09-06T11:01:50.000Z</time>
      </trkpt>
      <trkpt lat="48.5474" lon="-0.36408">
        <ele>204.44939</ele>
        <time>2021-09-06T11:01:56.000Z</time>
      </trkpt>
      <trkpt lat="48.54725" lon="-0.36346">
        <ele>203.822284</ele>
        <time>2021-09-06T11:02:02.000Z</time>
      </trkpt>
      <trkpt lat="48.54723" lon="-0.36336">
        <ele>203.719077</ele>
        <time>2021-09-06T11:02:03.000Z</time>
      </trkpt>
      <trkpt lat="48.54708" lon="-0.36272">
        <ele>203.077592</ele>
        <time>2021-09-06T11:02:09.000Z</time>
      </trkpt>
      <trkpt lat="48.54695" lon="-0.3621">
        <ele>202.461378</ele>
        <time>2021-09-06T11:02:15.000Z</time>
      </trkpt>
      <trkpt lat="48.54689" lon="-0.3619">
        <ele>202.187503</ele>
        <time>2021-09-06T11:02:17.000Z</time>
      </trkpt>
      <trkpt lat="48.54679" lon="-0.36159">
        <ele>201.60722</ele>
        <time>2021-09-06T11:02:20.000Z</time>
      </trkpt>
      <trkpt lat="48.54663" lon="-0.36095">
        <ele>200.440798</ele>
        <time>2021-09-06T11:02:26.000Z</time>
      </trkpt>
      <trkpt lat="48.54645" lon="-0.36022">
        <ele>199.123</ele>
        <time>2021-09-06T11:02:32.000Z</time>
      </trkpt>
      <trkpt lat="48.54626" lon="-0.35943">
        <ele>197.655889</ele>
        <time>2021-09-06T11:02:38.000Z</time>
      </trkpt>
      <trkpt lat="48.54622" lon="-0.3593">
        <ele>197.310257</ele>
        <time>2021-09-06T11:02:39.000Z</time>
      </trkpt>
      <trkpt lat="48.54606" lon="-0.35864">
        <ele>195.585366</ele>
        <time>2021-09-06T11:02:44.000Z</time>
      </trkpt>
      <trkpt lat="48.54602" lon="-0.35851">
        <ele>195.223405</ele>
        <time>2021-09-06T11:02:45.000Z</time>
      </trkpt>
      <trkpt lat="48.54588" lon="-0.35796">
        <ele>193.751454</ele>
        <time>2021-09-06T11:02:49.000Z</time>
      </trkpt>
      <trkpt lat="48.5457" lon="-0.35719">
        <ele>191.721761</ele>
        <time>2021-09-06T11:02:54.000Z</time>
      </trkpt>
      <trkpt lat="48.54551" lon="-0.35646">
        <ele>190.860376</ele>
        <time>2021-09-06T11:02:59.000Z</time>
      </trkpt>
      <trkpt lat="48.54545" lon="-0.35622">
        <ele>190.793303</ele>
        <time>2021-09-06T11:03:01.000Z</time>
      </trkpt>
      <trkpt lat="48.54542" lon="-0.35612">
        <ele>190.766502</ele>
        <time>2021-09-06T11:03:02.000Z</time>
      </trkpt>
      <trkpt lat="48.54539" lon="-0.35605">
        <ele>190.744708</ele>
        <time>2021-09-06T11:03:03.000Z</time>
      </trkpt>
      <trkpt lat="48.54536" lon="-0.35596">
        <ele>190.715818</ele>
        <time>2021-09-06T11:03:05.000Z</time>
      </trkpt>
      <trkpt lat="48.54535" lon="-0.35592">
        <ele>190.705916</ele>
        <time>2021-09-06T11:03:06.000Z</time>
      </trkpt>
      <trkpt lat="48.54535" lon="-0.35583">
        <ele>190.680002</ele>
        <time>2021-09-06T11:03:09.000Z</time>
      </trkpt>
      <trkpt lat="48.54533" lon="-0.35565">
        <ele>190.634027</ele>
        <time>2021-09-06T11:03:14.000Z</time>
      </trkpt>
      <trkpt lat="48.5453" lon="-0.35548">
        <ele>190.585749</ele>
        <time>2021-09-06T11:03:20.000Z</time>
      </trkpt>
      <trkpt lat="48.54525" lon="-0.35531">
        <ele>190.535678</ele>
        <time>2021-09-06T11:03:26.000Z</time>
      </trkpt>
      <trkpt lat="48.54522" lon="-0.35515">
        <ele>190.49255</ele>
        <time>2021-09-06T11:03:31.000Z</time>
      </trkpt>
      <trkpt lat="48.54521" lon="-0.35509">
        <ele>190.477341</ele>
        <time>2021-09-06T11:03:33.000Z</time>
      </trkpt>
      <trkpt lat="48.54517" lon="-0.35493">
        <ele>190.43286</ele>
        <time>2021-09-06T11:03:39.000Z</time>
      </trkpt>
      <trkpt lat="48.54514" lon="-0.35478">
        <ele>190.391268</ele>
        <time>2021-09-06T11:03:45.000Z</time>
      </trkpt>
      <trkpt lat="48.54512" lon="-0.35458">
        <ele>190.33802</ele>
        <time>2021-09-06T11:03:52.000Z</time>
      </trkpt>
      <trkpt lat="48.54509" lon="-0.35443">
        <ele>190.294892</ele>
        <time>2021-09-06T11:03:58.000Z</time>
      </trkpt>
      <trkpt lat="48.54506" lon="-0.35429">
        <ele>190.393534</ele>
        <time>2021-09-06T11:04:03.000Z</time>
      </trkpt>
      <trkpt lat="48.545" lon="-0.35405">
        <ele>190.884965</ele>
        <time>2021-09-06T11:04:11.000Z</time>
      </trkpt>
      <trkpt lat="48.54495" lon="-0.35387">
        <ele>191.268865</ele>
        <time>2021-09-06T11:04:18.000Z</time>
      </trkpt>
      <trkpt lat="48.54491" lon="-0.35372">
        <ele>191.581033</ele>
        <time>2021-09-06T11:04:24.000Z</time>
      </trkpt>
      <trkpt lat="48.54487" lon="-0.35354">
        <ele>191.953885</ele>
        <time>2021-09-06T11:04:31.000Z</time>
      </trkpt>
      <trkpt lat="48.5448" lon="-0.35334">
        <ele>192.389023</ele>
        <time>2021-09-06T11:04:38.000Z</time>
      </trkpt>
      <trkpt lat="48.54474" lon="-0.35308">
        <ele>192.916083</ele>
        <time>2021-09-06T11:04:46.000Z</time>
      </trkpt>
      <trkpt lat="48.54466" lon="-0.35285">
        <ele>193.415067</ele>
        <time>2021-09-06T11:04:53.000Z</time>
      </trkpt>
      <trkpt lat="48.54458" lon="-0.35248">
        <ele>194.189044</ele>
        <time>2021-09-06T11:05:02.000Z</time>
      </trkpt>
      <trkpt lat="48.5445" lon="-0.35215">
        <ele>194.852693</ele>
        <time>2021-09-06T11:05:09.000Z</time>
      </trkpt>
      <trkpt lat="48.54443" lon="-0.35185">
        <ele>195.482103</ele>
        <time>2021-09-06T11:05:15.000Z</time>
      </trkpt>
      <trkpt lat="48.54435" lon="-0.35155">
        <ele>195.911544</ele>
        <time>2021-09-06T11:05:21.000Z</time>
      </trkpt>
      <trkpt lat="48.54424" lon="-0.35109">
        <ele>196.551523</ele>
        <time>2021-09-06T11:05:29.000Z</time>
      </trkpt>
      <trkpt lat="48.54413" lon="-0.35059">
        <ele>197.247546</ele>
        <time>2021-09-06T11:05:38.000Z</time>
      </trkpt>
      <trkpt lat="48.54401" lon="-0.35011">
        <ele>197.930591</ele>
        <time>2021-09-06T11:05:47.000Z</time>
      </trkpt>
      <trkpt lat="48.54391" lon="-0.3497">
        <ele>198.505487</ele>
        <time>2021-09-06T11:05:55.000Z</time>
      </trkpt>
      <trkpt lat="48.54382" lon="-0.34935">
        <ele>198.996399</ele>
        <time>2021-09-06T11:06:03.000Z</time>
      </trkpt>
      <trkpt lat="48.54378" lon="-0.34911">
        <ele>199.63578</ele>
        <time>2021-09-06T11:06:09.000Z</time>
      </trkpt>
      <trkpt lat="48.54374" lon="-0.34891">
        <ele>200.337501</ele>
        <time>2021-09-06T11:06:14.000Z</time>
      </trkpt>
      <trkpt lat="48.54369" lon="-0.34871">
        <ele>201.046232</ele>
        <time>2021-09-06T11:06:19.000Z</time>
      </trkpt>
      <trkpt lat="48.54363" lon="-0.34849">
        <ele>201.813348</ele>
        <time>2021-09-06T11:06:24.000Z</time>
      </trkpt>
      <trkpt lat="48.54357" lon="-0.3482">
        <ele>202.819106</ele>
        <time>2021-09-06T11:06:31.000Z</time>
      </trkpt>
      <trkpt lat="48.54351" lon="-0.34797">
        <ele>203.647293</ele>
        <time>2021-09-06T11:06:37.000Z</time>
      </trkpt>
      <trkpt lat="48.54345" lon="-0.34778">
        <ele>204.325515</ele>
        <time>2021-09-06T11:06:42.000Z</time>
      </trkpt>
      <trkpt lat="48.54339" lon="-0.34753">
        <ele>205.204864</ele>
        <time>2021-09-06T11:06:48.000Z</time>
      </trkpt>
      <trkpt lat="48.54333" lon="-0.34731">
        <ele>205.962721</ele>
        <time>2021-09-06T11:06:53.000Z</time>
      </trkpt>
      <trkpt lat="48.54327" lon="-0.34704">
        <ele>206.925061</ele>
        <time>2021-09-06T11:06:59.000Z</time>
      </trkpt>
      <trkpt lat="48.54323" lon="-0.34681">
        <ele>207.695993</ele>
        <time>2021-09-06T11:07:04.000Z</time>
      </trkpt>
      <trkpt lat="48.54316" lon="-0.34656">
        <ele>208.638279</ele>
        <time>2021-09-06T11:07:10.000Z</time>
      </trkpt>
      <trkpt lat="48.54309" lon="-0.34627">
        <ele>209.695432</ele>
        <time>2021-09-06T11:07:16.000Z</time>
      </trkpt>
      <trkpt lat="48.54298" lon="-0.34588">
        <ele>211.151533</ele>
        <time>2021-09-06T11:07:25.000Z</time>
      </trkpt>
      <trkpt lat="48.54294" lon="-0.34566">
        <ele>211.954793</ele>
        <time>2021-09-06T11:07:30.000Z</time>
      </trkpt>
      <trkpt lat="48.54286" lon="-0.3453">
        <ele>213.263298</ele>
        <time>2021-09-06T11:07:38.000Z</time>
      </trkpt>
      <trkpt lat="48.5428" lon="-0.34508">
        <ele>214.06917</ele>
        <time>2021-09-06T11:07:43.000Z</time>
      </trkpt>
      <trkpt lat="48.54273" lon="-0.34478">
        <ele>215.16896</ele>
        <time>2021-09-06T11:07:50.000Z</time>
      </trkpt>
      <trkpt lat="48.54265" lon="-0.34448">
        <ele>216.306744</ele>
        <time>2021-09-06T11:07:57.000Z</time>
      </trkpt>
      <trkpt lat="48.5426" lon="-0.34431">
        <ele>216.937419</ele>
        <time>2021-09-06T11:08:01.000Z</time>
      </trkpt>
      <trkpt lat="48.54256" lon="-0.34413">
        <ele>217.539557</ele>
        <time>2021-09-06T11:08:05.000Z</time>
      </trkpt>
      <trkpt lat="48.54251" lon="-0.34388">
        <ele>218.112409</ele>
        <time>2021-09-06T11:08:10.000Z</time>
      </trkpt>
      <trkpt lat="48.54249" lon="-0.34384">
        <ele>218.223837</ele>
        <time>2021-09-06T11:08:11.000Z</time>
      </trkpt>
      <trkpt lat="48.54242" lon="-0.34352">
        <ele>218.966317</ele>
        <time>2021-09-06T11:08:18.000Z</time>
      </trkpt>
      <trkpt lat="48.54235" lon="-0.34333">
        <ele>219.441607</ele>
        <time>2021-09-06T11:08:22.000Z</time>
      </trkpt>
      <trkpt lat="48.54228" lon="-0.34308">
        <ele>220.030086</ele>
        <time>2021-09-06T11:08:27.000Z</time>
      </trkpt>
      <trkpt lat="48.54224" lon="-0.3428">
        <ele>220.65761</ele>
        <time>2021-09-06T11:08:32.000Z</time>
      </trkpt>
      <trkpt lat="48.54221" lon="-0.34255">
        <ele>221.214702</ele>
        <time>2021-09-06T11:08:36.000Z</time>
      </trkpt>
      <trkpt lat="48.54212" lon="-0.34212">
        <ele>222.211934</ele>
        <time>2021-09-06T11:08:42.000Z</time>
      </trkpt>
      <trkpt lat="48.54202" lon="-0.34169">
        <ele>223.215565</ele>
        <time>2021-09-06T11:08:48.000Z</time>
      </trkpt>
      <trkpt lat="48.54197" lon="-0.34147">
        <ele>223.442977</ele>
        <time>2021-09-06T11:08:51.000Z</time>
      </trkpt>
      <trkpt lat="48.54193" lon="-0.3413">
        <ele>223.501489</ele>
        <time>2021-09-06T11:08:53.000Z</time>
      </trkpt>
      <trkpt lat="48.54185" lon="-0.34103">
        <ele>223.597795</ele>
        <time>2021-09-06T11:08:56.000Z</time>
      </trkpt>
      <trkpt lat="48.54166" lon="-0.34045">
        <ele>223.809164</ele>
        <time>2021-09-06T11:09:02.000Z</time>
      </trkpt>
      <trkpt lat="48.54147" lon="-0.33976">
        <ele>224.054187</ele>
        <time>2021-09-06T11:09:09.000Z</time>
      </trkpt>
      <trkpt lat="48.54131" lon="-0.33908">
        <ele>224.282943</ele>
        <time>2021-09-06T11:09:16.000Z</time>
      </trkpt>
      <trkpt lat="48.54117" lon="-0.33846">
        <ele>224.315854</ele>
        <time>2021-09-06T11:09:22.000Z</time>
      </trkpt>
      <trkpt lat="48.54112" lon="-0.33825">
        <ele>224.326788</ele>
        <time>2021-09-06T11:09:24.000Z</time>
      </trkpt>
      <trkpt lat="48.54107" lon="-0.33806">
        <ele>224.337206</ele>
        <time>2021-09-06T11:09:26.000Z</time>
      </trkpt>
      <trkpt lat="48.54104" lon="-0.33786">
        <ele>224.347414</ele>
        <time>2021-09-06T11:09:28.000Z</time>
      </trkpt>
      <trkpt lat="48.541" lon="-0.33767">
        <ele>224.357562</ele>
        <time>2021-09-06T11:09:30.000Z</time>
      </trkpt>
      <trkpt lat="48.54083" lon="-0.33707">
        <ele>224.390165</ele>
        <time>2021-09-06T11:09:36.000Z</time>
      </trkpt>
      <trkpt lat="48.5407" lon="-0.33656">
        <ele>224.417283</ele>
        <time>2021-09-06T11:09:41.000Z</time>
      </trkpt>
      <trkpt lat="48.54061" lon="-0.33615">
        <ele>224.359483</ele>
        <time>2021-09-06T11:09:45.000Z</time>
      </trkpt>
      <trkpt lat="48.5405" lon="-0.33563">
        <ele>224.284866</ele>
        <time>2021-09-06T11:09:50.000Z</time>
      </trkpt>
      <trkpt lat="48.54042" lon="-0.33536">
        <ele>224.243087</ele>
        <time>2021-09-06T11:09:53.000Z</time>
      </trkpt>
      <trkpt lat="48.54031" lon="-0.33497">
        <ele>224.185871</ele>
        <time>2021-09-06T11:09:57.000Z</time>
      </trkpt>
      <trkpt lat="48.54016" lon="-0.33429">
        <ele>224.087637</ele>
        <time>2021-09-06T11:10:04.000Z</time>
      </trkpt>
      <trkpt lat="48.54005" lon="-0.33384">
        <ele>223.934799</ele>
        <time>2021-09-06T11:10:09.000Z</time>
      </trkpt>
      <trkpt lat="48.53999" lon="-0.33358">
        <ele>223.756287</ele>
        <time>2021-09-06T11:10:12.000Z</time>
      </trkpt>
      <trkpt lat="48.53995" lon="-0.3334">
        <ele>223.629669</ele>
        <time>2021-09-06T11:10:14.000Z</time>
      </trkpt>
      <trkpt lat="48.53991" lon="-0.33321">
        <ele>223.501108</ele>
        <time>2021-09-06T11:10:16.000Z</time>
      </trkpt>
      <trkpt lat="48.53987" lon="-0.33313">
        <ele>223.437975</ele>
        <time>2021-09-06T11:10:17.000Z</time>
      </trkpt>
      <trkpt lat="48.53985" lon="-0.33304">
        <ele>223.377496</ele>
        <time>2021-09-06T11:10:18.000Z</time>
      </trkpt>
      <trkpt lat="48.53974" lon="-0.33269">
        <ele>223.128914</ele>
        <time>2021-09-06T11:10:22.000Z</time>
      </trkpt>
      <trkpt lat="48.53967" lon="-0.33232">
        <ele>222.874276</ele>
        <time>2021-09-06T11:10:26.000Z</time>
      </trkpt>
      <trkpt lat="48.53966" lon="-0.33222">
        <ele>222.809053</ele>
        <time>2021-09-06T11:10:27.000Z</time>
      </trkpt>
      <trkpt lat="48.53963" lon="-0.33213">
        <ele>222.742177</ele>
        <time>2021-09-06T11:10:28.000Z</time>
      </trkpt>
      <trkpt lat="48.53957" lon="-0.33192">
        <ele>222.599924</ele>
        <time>2021-09-06T11:10:30.000Z</time>
      </trkpt>
      <trkpt lat="48.53943" lon="-0.33145">
        <ele>222.245213</ele>
        <time>2021-09-06T11:10:34.000Z</time>
      </trkpt>
      <trkpt lat="48.5394" lon="-0.33133">
        <ele>222.050943</ele>
        <time>2021-09-06T11:10:35.000Z</time>
      </trkpt>
      <trkpt lat="48.53932" lon="-0.33096">
        <ele>221.477865</ele>
        <time>2021-09-06T11:10:38.000Z</time>
      </trkpt>
      <trkpt lat="48.53916" lon="-0.33031">
        <ele>220.459444</ele>
        <time>2021-09-06T11:10:43.000Z</time>
      </trkpt>
      <trkpt lat="48.5391" lon="-0.33007">
        <ele>220.07363</ele>
        <time>2021-09-06T11:10:45.000Z</time>
      </trkpt>
      <trkpt lat="48.53905" lon="-0.32982">
        <ele>219.693147</ele>
        <time>2021-09-06T11:10:47.000Z</time>
      </trkpt>
      <trkpt lat="48.53902" lon="-0.3297">
        <ele>219.506318</ele>
        <time>2021-09-06T11:10:48.000Z</time>
      </trkpt>
      <trkpt lat="48.53893" lon="-0.32934">
        <ele>218.925709</ele>
        <time>2021-09-06T11:10:51.000Z</time>
      </trkpt>
      <trkpt lat="48.53878" lon="-0.32871">
        <ele>217.981551</ele>
        <time>2021-09-06T11:10:56.000Z</time>
      </trkpt>
      <trkpt lat="48.5387" lon="-0.32837">
        <ele>217.502928</ele>
        <time>2021-09-06T11:10:59.000Z</time>
      </trkpt>
      <trkpt lat="48.53867" lon="-0.32826">
        <ele>217.343492</ele>
        <time>2021-09-06T11:11:00.000Z</time>
      </trkpt>
      <trkpt lat="48.53854" lon="-0.32768">
        <ele>216.537355</ele>
        <time>2021-09-06T11:11:05.000Z</time>
      </trkpt>
      <trkpt lat="48.53848" lon="-0.32746">
        <ele>216.217033</ele>
        <time>2021-09-06T11:11:07.000Z</time>
      </trkpt>
      <trkpt lat="48.53843" lon="-0.32722">
        <ele>215.883746</ele>
        <time>2021-09-06T11:11:09.000Z</time>
      </trkpt>
      <trkpt lat="48.53826" lon="-0.32651">
        <ele>214.893269</ele>
        <time>2021-09-06T11:11:15.000Z</time>
      </trkpt>
      <trkpt lat="48.5382" lon="-0.32628">
        <ele>214.606844</ele>
        <time>2021-09-06T11:11:17.000Z</time>
      </trkpt>
      <trkpt lat="48.53813" lon="-0.32595">
        <ele>214.302086</ele>
        <time>2021-09-06T11:11:20.000Z</time>
      </trkpt>
      <trkpt lat="48.53798" lon="-0.32535">
        <ele>213.746221</ele>
        <time>2021-09-06T11:11:26.000Z</time>
      </trkpt>
      <trkpt lat="48.53788" lon="-0.32483">
        <ele>213.278101</ele>
        <time>2021-09-06T11:11:32.000Z</time>
      </trkpt>
      <trkpt lat="48.53781" lon="-0.32451">
        <ele>212.986901</ele>
        <time>2021-09-06T11:11:36.000Z</time>
      </trkpt>
      <trkpt lat="48.53778" lon="-0.32444">
        <ele>212.912169</ele>
        <time>2021-09-06T11:11:37.000Z</time>
      </trkpt>
      <trkpt lat="48.53775" lon="-0.32436">
        <ele>212.840772</ele>
        <time>2021-09-06T11:11:38.000Z</time>
      </trkpt>
      <trkpt lat="48.53771" lon="-0.32421">
        <ele>212.697436</ele>
        <time>2021-09-06T11:11:40.000Z</time>
      </trkpt>
      <trkpt lat="48.53755" lon="-0.32358">
        <ele>212.270181</ele>
        <time>2021-09-06T11:11:48.000Z</time>
      </trkpt>
      <trkpt lat="48.53747" lon="-0.32328">
        <ele>212.198491</ele>
        <time>2021-09-06T11:11:52.000Z</time>
      </trkpt>
      <trkpt lat="48.53746" lon="-0.32321">
        <ele>212.18059</ele>
        <time>2021-09-06T11:11:53.000Z</time>
      </trkpt>
      <trkpt lat="48.53737" lon="-0.32284">
        <ele>212.093113</ele>
        <time>2021-09-06T11:11:58.000Z</time>
      </trkpt>
      <trkpt lat="48.53736" lon="-0.32276">
        <ele>212.073668</ele>
        <time>2021-09-06T11:11:59.000Z</time>
      </trkpt>
      <trkpt lat="48.53721" lon="-0.32213">
        <ele>211.922426</ele>
        <time>2021-09-06T11:12:06.000Z</time>
      </trkpt>
      <trkpt lat="48.53706" lon="-0.32147">
        <ele>211.764304</ele>
        <time>2021-09-06T11:12:13.000Z</time>
      </trkpt>
      <trkpt lat="48.53691" lon="-0.3208">
        <ele>211.17051</ele>
        <time>2021-09-06T11:12:20.000Z</time>
      </trkpt>
      <trkpt lat="48.53674" lon="-0.32008">
        <ele>210.302045</ele>
        <time>2021-09-06T11:12:28.000Z</time>
      </trkpt>
      <trkpt lat="48.53662" lon="-0.3196">
        <ele>209.709544</ele>
        <time>2021-09-06T11:12:33.000Z</time>
      </trkpt>
      <trkpt lat="48.53659" lon="-0.3195">
        <ele>209.583945</ele>
        <time>2021-09-06T11:12:34.000Z</time>
      </trkpt>
      <trkpt lat="48.53656" lon="-0.3194">
        <ele>209.461057</ele>
        <time>2021-09-06T11:12:35.000Z</time>
      </trkpt>
      <trkpt lat="48.53647" lon="-0.31909">
        <ele>209.075962</ele>
        <time>2021-09-06T11:12:38.000Z</time>
      </trkpt>
      <trkpt lat="48.5365" lon="-0.31882">
        <ele>208.758813</ele>
        <time>2021-09-06T11:12:40.000Z</time>
      </trkpt>
      <trkpt lat="48.53653" lon="-0.31867">
        <ele>208.555232</ele>
        <time>2021-09-06T11:12:41.000Z</time>
      </trkpt>
      <trkpt lat="48.53669" lon="-0.3179">
        <ele>206.746574</ele>
        <time>2021-09-06T11:12:46.000Z</time>
      </trkpt>
      <trkpt lat="48.53683" lon="-0.31719">
        <ele>205.081386</ele>
        <time>2021-09-06T11:12:51.000Z</time>
      </trkpt>
      <trkpt lat="48.53692" lon="-0.31671">
        <ele>203.977521</ele>
        <time>2021-09-06T11:12:55.000Z</time>
      </trkpt>
      <trkpt lat="48.53699" lon="-0.31649">
        <ele>203.405806</ele>
        <time>2021-09-06T11:12:57.000Z</time>
      </trkpt>
      <trkpt lat="48.53709" lon="-0.31631">
        <ele>202.90032</ele>
        <time>2021-09-06T11:12:59.000Z</time>
      </trkpt>
      <trkpt lat="48.53734" lon="-0.31593">
        <ele>201.405573</ele>
        <time>2021-09-06T11:13:04.000Z</time>
      </trkpt>
      <trkpt lat="48.53739" lon="-0.31586">
        <ele>201.096527</ele>
        <time>2021-09-06T11:13:05.000Z</time>
      </trkpt>
      <trkpt lat="48.53769" lon="-0.31538">
        <ele>199.140221</ele>
        <time>2021-09-06T11:13:12.000Z</time>
      </trkpt>
      <trkpt lat="48.53797" lon="-0.31494">
        <ele>197.286933</ele>
        <time>2021-09-06T11:13:19.000Z</time>
      </trkpt>
      <trkpt lat="48.53817" lon="-0.31464">
        <ele>196.002803</ele>
        <time>2021-09-06T11:13:24.000Z</time>
      </trkpt>
      <trkpt lat="48.53838" lon="-0.31431">
        <ele>194.631293</ele>
        <time>2021-09-06T11:13:30.000Z</time>
      </trkpt>
      <trkpt lat="48.53852" lon="-0.31413">
        <ele>194.041313</ele>
        <time>2021-09-06T11:13:34.000Z</time>
      </trkpt>
      <trkpt lat="48.53868" lon="-0.31389">
        <ele>193.458661</ele>
        <time>2021-09-06T11:13:39.000Z</time>
      </trkpt>
      <trkpt lat="48.53873" lon="-0.31379">
        <ele>193.246835</ele>
        <time>2021-09-06T11:13:41.000Z</time>
      </trkpt>
      <trkpt lat="48.53882" lon="-0.31353">
        <ele>192.752318</ele>
        <time>2021-09-06T11:13:46.000Z</time>
      </trkpt>
      <trkpt lat="48.53895" lon="-0.313">
        <ele>191.789714</ele>
        <time>2021-09-06T11:13:56.000Z</time>
      </trkpt>
      <trkpt lat="48.53906" lon="-0.31257">
        <ele>190.999675</ele>
        <time>2021-09-06T11:14:04.000Z</time>
      </trkpt>
      <trkpt lat="48.53915" lon="-0.31218">
        <ele>190.31593</ele>
        <time>2021-09-06T11:14:12.000Z</time>
      </trkpt>
      <trkpt lat="48.53916" lon="-0.31199">
        <ele>189.984044</ele>
        <time>2021-09-06T11:14:18.000Z</time>
      </trkpt>
      <trkpt lat="48.53923" lon="-0.3117">
        <ele>189.710669</ele>
        <time>2021-09-06T11:14:25.000Z</time>
      </trkpt>
      <trkpt lat="48.53933" lon="-0.31135">
        <ele>189.628089</ele>
        <time>2021-09-06T11:14:33.000Z</time>
      </trkpt>
      <trkpt lat="48.53945" lon="-0.311">
        <ele>189.546243</ele>
        <time>2021-09-06T11:14:41.000Z</time>
      </trkpt>
      <trkpt lat="48.53954" lon="-0.31068">
        <ele>189.473043</ele>
        <time>2021-09-06T11:14:48.000Z</time>
      </trkpt>
      <trkpt lat="48.53955" lon="-0.31036">
        <ele>189.406239</ele>
        <time>2021-09-06T11:14:54.000Z</time>
      </trkpt>
      <trkpt lat="48.53954" lon="-0.30993">
        <ele>189.314849</ele>
        <time>2021-09-06T11:15:01.000Z</time>
      </trkpt>
      <trkpt lat="48.53959" lon="-0.30944">
        <ele>189.212319</ele>
        <time>2021-09-06T11:15:08.000Z</time>
      </trkpt>
      <trkpt lat="48.53969" lon="-0.30901">
        <ele>189.065872</ele>
        <time>2021-09-06T11:15:14.000Z</time>
      </trkpt>
      <trkpt lat="48.53974" lon="-0.30886">
        <ele>189.004797</ele>
        <time>2021-09-06T11:15:16.000Z</time>
      </trkpt>
      <trkpt lat="48.53988" lon="-0.3086">
        <ele>188.880042</ele>
        <time>2021-09-06T11:15:20.000Z</time>
      </trkpt>
      <trkpt lat="48.53991" lon="-0.30855">
        <ele>188.849529</ele>
        <time>2021-09-06T11:15:21.000Z</time>
      </trkpt>
      <trkpt lat="48.5401" lon="-0.30837">
        <ele>188.71957</ele>
        <time>2021-09-06T11:15:25.000Z</time>
      </trkpt>
      <trkpt lat="48.54047" lon="-0.308">
        <ele>188.467703</ele>
        <time>2021-09-06T11:15:33.000Z</time>
      </trkpt>
      <trkpt lat="48.54075" lon="-0.30765">
        <ele>188.255418</ele>
        <time>2021-09-06T11:15:40.000Z</time>
      </trkpt>
      <trkpt lat="48.54089" lon="-0.30753">
        <ele>188.165845</ele>
        <time>2021-09-06T11:15:43.000Z</time>
      </trkpt>
      <trkpt lat="48.54097" lon="-0.30743">
        <ele>188.085744</ele>
        <time>2021-09-06T11:15:45.000Z</time>
      </trkpt>
      <trkpt lat="48.54104" lon="-0.30727">
        <ele>187.981002</ele>
        <time>2021-09-06T11:15:47.000Z</time>
      </trkpt>
      <trkpt lat="48.54106" lon="-0.30718">
        <ele>187.92629</ele>
        <time>2021-09-06T11:15:48.000Z</time>
      </trkpt>
      <trkpt lat="48.54106" lon="-0.30709">
        <ele>187.871263</ele>
        <time>2021-09-06T11:15:49.000Z</time>
      </trkpt>
      <trkpt lat="48.54106" lon="-0.30669">
        <ele>187.645894</ele>
        <time>2021-09-06T11:15:53.000Z</time>
      </trkpt>
      <trkpt lat="48.54106" lon="-0.30639">
        <ele>187.469863</ele>
        <time>2021-09-06T11:15:56.000Z</time>
      </trkpt>
      <trkpt lat="48.5411" lon="-0.30608">
        <ele>187.292179</ele>
        <time>2021-09-06T11:15:59.000Z</time>
      </trkpt>
      <trkpt lat="48.54115" lon="-0.3059">
        <ele>187.180165</ele>
        <time>2021-09-06T11:16:01.000Z</time>
      </trkpt>
      <trkpt lat="48.54124" lon="-0.30565">
        <ele>187.01474</ele>
        <time>2021-09-06T11:16:04.000Z</time>
      </trkpt>
      <trkpt lat="48.54145" lon="-0.30529">
        <ele>186.739914</ele>
        <time>2021-09-06T11:16:09.000Z</time>
      </trkpt>
      <trkpt lat="48.54182" lon="-0.30487">
        <ele>186.605684</ele>
        <time>2021-09-06T11:16:16.000Z</time>
      </trkpt>
      <trkpt lat="48.54204" lon="-0.30454">
        <ele>186.637973</ele>
        <time>2021-09-06T11:16:21.000Z</time>
      </trkpt>
      <trkpt lat="48.54207" lon="-0.30446">
        <ele>186.644528</ele>
        <time>2021-09-06T11:16:22.000Z</time>
      </trkpt>
      <trkpt lat="48.54208" lon="-0.30437">
        <ele>186.651044</ele>
        <time>2021-09-06T11:16:23.000Z</time>
      </trkpt>
      <trkpt lat="48.54209" lon="-0.30418">
        <ele>186.664156</ele>
        <time>2021-09-06T11:16:25.000Z</time>
      </trkpt>
      <trkpt lat="48.54203" lon="-0.30375">
        <ele>186.695023</ele>
        <time>2021-09-06T11:16:30.000Z</time>
      </trkpt>
      <trkpt lat="48.54196" lon="-0.30328">
        <ele>186.728303</ele>
        <time>2021-09-06T11:16:37.000Z</time>
      </trkpt>
      <trkpt lat="48.5419" lon="-0.30294">
        <ele>186.75248</ele>
        <time>2021-09-06T11:16:44.000Z</time>
      </trkpt>
      <trkpt lat="48.54187" lon="-0.30262">
        <ele>186.849948</ele>
        <time>2021-09-06T11:16:52.000Z</time>
      </trkpt>
      <trkpt lat="48.54187" lon="-0.30237">
        <ele>187.006836</ele>
        <time>2021-09-06T11:16:58.000Z</time>
      </trkpt>
      <trkpt lat="48.54187" lon="-0.30206">
        <ele>187.208538</ele>
        <time>2021-09-06T11:17:06.000Z</time>
      </trkpt>
      <trkpt lat="48.54183" lon="-0.30192">
        <ele>187.304495</ele>
        <time>2021-09-06T11:17:10.000Z</time>
      </trkpt>
      <trkpt lat="48.54173" lon="-0.30178">
        <ele>187.440115</ele>
        <time>2021-09-06T11:17:15.000Z</time>
      </trkpt>
      <trkpt lat="48.54164" lon="-0.30164">
        <ele>187.565453</ele>
        <time>2021-09-06T11:17:19.000Z</time>
      </trkpt>
      <trkpt lat="48.54151" lon="-0.30139">
        <ele>187.760517</ele>
        <time>2021-09-06T11:17:24.000Z</time>
      </trkpt>
      <trkpt lat="48.54148" lon="-0.30135">
        <ele>187.807194</ele>
        <time>2021-09-06T11:17:25.000Z</time>
      </trkpt>
      <trkpt lat="48.54123" lon="-0.30109">
        <ele>188.098835</ele>
        <time>2021-09-06T11:17:30.000Z</time>
      </trkpt>
      <trkpt lat="48.54085" lon="-0.30075">
        <ele>188.521441</ele>
        <time>2021-09-06T11:17:36.000Z</time>
      </trkpt>
      <trkpt lat="48.54066" lon="-0.30059">
        <ele>188.734595</ele>
        <time>2021-09-06T11:17:39.000Z</time>
      </trkpt>
      <trkpt lat="48.54055" lon="-0.30049">
        <ele>188.868708</ele>
        <time>2021-09-06T11:17:41.000Z</time>
      </trkpt>
      <trkpt lat="48.54039" lon="-0.30035">
        <ele>189.049724</ele>
        <time>2021-09-06T11:17:44.000Z</time>
      </trkpt>
      <trkpt lat="48.54031" lon="-0.30024">
        <ele>189.152238</ele>
        <time>2021-09-06T11:17:46.000Z</time>
      </trkpt>
      <trkpt lat="48.54027" lon="-0.30013">
        <ele>189.238121</ele>
        <time>2021-09-06T11:17:48.000Z</time>
      </trkpt>
      <trkpt lat="48.54026" lon="-0.30001">
        <ele>189.317021</ele>
        <time>2021-09-06T11:17:50.000Z</time>
      </trkpt>
      <trkpt lat="48.54023" lon="-0.29961">
        <ele>189.577803</ele>
        <time>2021-09-06T11:17:58.000Z</time>
      </trkpt>
      <trkpt lat="48.54019" lon="-0.29919">
        <ele>189.860335</ele>
        <time>2021-09-06T11:18:07.000Z</time>
      </trkpt>
      <trkpt lat="48.54009" lon="-0.29879">
        <ele>190.141097</ele>
        <time>2021-09-06T11:18:16.000Z</time>
      </trkpt>
      <trkpt lat="48.53996" lon="-0.29851">
        <ele>190.40976</ele>
        <time>2021-09-06T11:18:23.000Z</time>
      </trkpt>
      <trkpt lat="48.53978" lon="-0.29819">
        <ele>190.860478</ele>
        <time>2021-09-06T11:18:32.000Z</time>
      </trkpt>
      <trkpt lat="48.53964" lon="-0.29793">
        <ele>191.220456</ele>
        <time>2021-09-06T11:18:39.000Z</time>
      </trkpt>
      <trkpt lat="48.53948" lon="-0.29769">
        <ele>191.584701</ele>
        <time>2021-09-06T11:18:46.000Z</time>
      </trkpt>
      <trkpt lat="48.53928" lon="-0.29739">
        <ele>192.033748</ele>
        <time>2021-09-06T11:18:54.000Z</time>
      </trkpt>
      <trkpt lat="48.53907" lon="-0.29702">
        <ele>192.562826</ele>
        <time>2021-09-06T11:19:03.000Z</time>
      </trkpt>
      <trkpt lat="48.53893" lon="-0.29663">
        <ele>193.03809</ele>
        <time>2021-09-06T11:19:11.000Z</time>
      </trkpt>
      <trkpt lat="48.53881" lon="-0.29614">
        <ele>193.452897</ele>
        <time>2021-09-06T11:19:20.000Z</time>
      </trkpt>
      <trkpt lat="48.53872" lon="-0.29563">
        <ele>193.829859</ele>
        <time>2021-09-06T11:19:29.000Z</time>
      </trkpt>
      <trkpt lat="48.53861" lon="-0.295">
        <ele>194.294917</ele>
        <time>2021-09-06T11:19:39.000Z</time>
      </trkpt>
      <trkpt lat="48.53854" lon="-0.29463">
        <ele>194.567784</ele>
        <time>2021-09-06T11:19:45.000Z</time>
      </trkpt>
      <trkpt lat="48.53853" lon="-0.29457">
        <ele>194.61305</ele>
        <time>2021-09-06T11:19:46.000Z</time>
      </trkpt>
      <trkpt lat="48.53843" lon="-0.29394">
        <ele>195.076202</ele>
        <time>2021-09-06T11:19:56.000Z</time>
      </trkpt>
      <trkpt lat="48.53837" lon="-0.29338">
        <ele>195.553802</ele>
        <time>2021-09-06T11:20:05.000Z</time>
      </trkpt>
      <trkpt lat="48.53834" lon="-0.29308">
        <ele>195.81807</ele>
        <time>2021-09-06T11:20:10.000Z</time>
      </trkpt>
      <trkpt lat="48.53833" lon="-0.29284">
        <ele>196.023857</ele>
        <time>2021-09-06T11:20:14.000Z</time>
      </trkpt>
      <trkpt lat="48.53836" lon="-0.2924">
        <ele>196.405501</ele>
        <time>2021-09-06T11:20:22.000Z</time>
      </trkpt>
      <trkpt lat="48.53842" lon="-0.29209">
        <ele>196.685566</ele>
        <time>2021-09-06T11:20:28.000Z</time>
      </trkpt>
      <trkpt lat="48.53846" lon="-0.29174">
        <ele>196.992147</ele>
        <time>2021-09-06T11:20:35.000Z</time>
      </trkpt>
      <trkpt lat="48.53847" lon="-0.2913">
        <ele>197.373225</ele>
        <time>2021-09-06T11:20:44.000Z</time>
      </trkpt>
      <trkpt lat="48.53845" lon="-0.29075">
        <ele>198.096877</ele>
        <time>2021-09-06T11:20:55.000Z</time>
      </trkpt>
      <trkpt lat="48.53842" lon="-0.29023">
        <ele>198.84576</ele>
        <time>2021-09-06T11:21:05.000Z</time>
      </trkpt>
      <trkpt lat="48.53837" lon="-0.28983">
        <ele>199.423189</ele>
        <time>2021-09-06T11:21:13.000Z</time>
      </trkpt>
      <trkpt lat="48.53831" lon="-0.28945">
        <ele>199.978314</ele>
        <time>2021-09-06T11:21:21.000Z</time>
      </trkpt>
      <trkpt lat="48.53822" lon="-0.28908">
        <ele>200.53323</ele>
        <time>2021-09-06T11:21:29.000Z</time>
      </trkpt>
      <trkpt lat="48.5381" lon="-0.28872">
        <ele>201.11112</ele>
        <time>2021-09-06T11:21:37.000Z</time>
      </trkpt>
      <trkpt lat="48.53798" lon="-0.28835">
        <ele>201.877936</ele>
        <time>2021-09-06T11:21:45.000Z</time>
      </trkpt>
      <trkpt lat="48.53783" lon="-0.2879">
        <ele>202.957224</ele>
        <time>2021-09-06T11:21:55.000Z</time>
      </trkpt>
      <trkpt lat="48.53771" lon="-0.28754">
        <ele>203.810179</ele>
        <time>2021-09-06T11:22:03.000Z</time>
      </trkpt>
      <trkpt lat="48.53762" lon="-0.28724">
        <ele>204.5168</ele>
        <time>2021-09-06T11:22:10.000Z</time>
      </trkpt>
      <trkpt lat="48.53751" lon="-0.28692">
        <ele>205.293249</ele>
        <time>2021-09-06T11:22:18.000Z</time>
      </trkpt>
      <trkpt lat="48.53741" lon="-0.28661">
        <ele>206.021631</ele>
        <time>2021-09-06T11:22:26.000Z</time>
      </trkpt>
      <trkpt lat="48.53728" lon="-0.28627">
        <ele>206.873717</ele>
        <time>2021-09-06T11:22:35.000Z</time>
      </trkpt>
      <trkpt lat="48.53716" lon="-0.28599">
        <ele>207.640251</ele>
        <time>2021-09-06T11:22:43.000Z</time>
      </trkpt>
      <trkpt lat="48.53707" lon="-0.28573">
        <ele>208.339687</ele>
        <time>2021-09-06T11:22:50.000Z</time>
      </trkpt>
      <trkpt lat="48.53697" lon="-0.28546">
        <ele>209.061751</ele>
        <time>2021-09-06T11:22:57.000Z</time>
      </trkpt>
      <trkpt lat="48.53688" lon="-0.28514">
        <ele>209.906143</ele>
        <time>2021-09-06T11:23:05.000Z</time>
      </trkpt>
      <trkpt lat="48.53687" lon="-0.28493">
        <ele>210.401839</ele>
        <time>2021-09-06T11:23:10.000Z</time>
      </trkpt>
      <trkpt lat="48.53681" lon="-0.28457">
        <ele>211.305334</ele>
        <time>2021-09-06T11:23:19.000Z</time>
      </trkpt>
      <trkpt lat="48.53676" lon="-0.28414">
        <ele>212.356453</ele>
        <time>2021-09-06T11:23:29.000Z</time>
      </trkpt>
      <trkpt lat="48.53671" lon="-0.28386">
        <ele>213.045205</ele>
        <time>2021-09-06T11:23:35.000Z</time>
      </trkpt>
      <trkpt lat="48.53665" lon="-0.28354">
        <ele>213.791401</ele>
        <time>2021-09-06T11:23:41.000Z</time>
      </trkpt>
      <trkpt lat="48.53656" lon="-0.28314">
        <ele>214.51185</ele>
        <time>2021-09-06T11:23:48.000Z</time>
      </trkpt>
      <trkpt lat="48.53652" lon="-0.28302">
        <ele>214.733412</ele>
        <time>2021-09-06T11:23:50.000Z</time>
      </trkpt>
      <trkpt lat="48.53642" lon="-0.28274">
        <ele>215.290618</ele>
        <time>2021-09-06T11:23:55.000Z</time>
      </trkpt>
      <trkpt lat="48.53627" lon="-0.28234">
        <ele>216.074381</ele>
        <time>2021-09-06T11:24:02.000Z</time>
      </trkpt>
      <trkpt lat="48.53623" lon="-0.28224">
        <ele>216.286808</ele>
        <time>2021-09-06T11:24:04.000Z</time>
      </trkpt>
      <trkpt lat="48.53613" lon="-0.28193">
        <ele>216.889486</ele>
        <time>2021-09-06T11:24:10.000Z</time>
      </trkpt>
      <trkpt lat="48.53604" lon="-0.28168">
        <ele>217.37227</ele>
        <time>2021-09-06T11:24:15.000Z</time>
      </trkpt>
      <trkpt lat="48.53597" lon="-0.2814">
        <ele>217.893001</ele>
        <time>2021-09-06T11:24:20.000Z</time>
      </trkpt>
      <trkpt lat="48.53586" lon="-0.28113">
        <ele>218.403558</ele>
        <time>2021-09-06T11:24:25.000Z</time>
      </trkpt>
      <trkpt lat="48.53583" lon="-0.28102">
        <ele>218.578376</ele>
        <time>2021-09-06T11:24:27.000Z</time>
      </trkpt>
      <trkpt lat="48.5357" lon="-0.28066">
        <ele>219.161942</ele>
        <time>2021-09-06T11:24:34.000Z</time>
      </trkpt>
      <trkpt lat="48.53557" lon="-0.28031">
        <ele>219.743498</ele>
        <time>2021-09-06T11:24:41.000Z</time>
      </trkpt>
      <trkpt lat="48.53542" lon="-0.27992">
        <ele>220.384015</ele>
        <time>2021-09-06T11:24:49.000Z</time>
      </trkpt>
      <trkpt lat="48.53529" lon="-0.27957">
        <ele>220.964031</ele>
        <time>2021-09-06T11:24:56.000Z</time>
      </trkpt>
      <trkpt lat="48.53516" lon="-0.27922">
        <ele>221.523832</ele>
        <time>2021-09-06T11:25:03.000Z</time>
      </trkpt>
      <trkpt lat="48.53504" lon="-0.27893">
        <ele>222.024374</ele>
        <time>2021-09-06T11:25:09.000Z</time>
      </trkpt>
      <trkpt lat="48.53497" lon="-0.27877">
        <ele>222.274776</ele>
        <time>2021-09-06T11:25:12.000Z</time>
      </trkpt>
      <trkpt lat="48.53491" lon="-0.2786">
        <ele>222.476375</ele>
        <time>2021-09-06T11:25:15.000Z</time>
      </trkpt>
      <trkpt lat="48.53475" lon="-0.27822">
        <ele>222.972286</ele>
        <time>2021-09-06T11:25:22.000Z</time>
      </trkpt>
      <trkpt lat="48.53467" lon="-0.27797">
        <ele>223.273555</ele>
        <time>2021-09-06T11:25:26.000Z</time>
      </trkpt>
      <trkpt lat="48.5346" lon="-0.27778">
        <ele>223.5102</ele>
        <time>2021-09-06T11:25:29.000Z</time>
      </trkpt>
      <trkpt lat="48.53444" lon="-0.27734">
        <ele>224.051171</ele>
        <time>2021-09-06T11:25:36.000Z</time>
      </trkpt>
      <trkpt lat="48.53434" lon="-0.27708">
        <ele>224.379839</ele>
        <time>2021-09-06T11:25:40.000Z</time>
      </trkpt>
      <trkpt lat="48.53429" lon="-0.27695">
        <ele>224.54205</ele>
        <time>2021-09-06T11:25:42.000Z</time>
      </trkpt>
      <trkpt lat="48.53422" lon="-0.27684">
        <ele>224.711022</ele>
        <time>2021-09-06T11:25:44.000Z</time>
      </trkpt>
      <trkpt lat="48.5342" lon="-0.27678">
        <ele>224.786955</ele>
        <time>2021-09-06T11:25:45.000Z</time>
      </trkpt>
      <trkpt lat="48.53418" lon="-0.27671">
        <ele>224.859718</ele>
        <time>2021-09-06T11:25:46.000Z</time>
      </trkpt>
      <trkpt lat="48.5341" lon="-0.27645">
        <ele>225.168599</ele>
        <time>2021-09-06T11:25:50.000Z</time>
      </trkpt>
      <trkpt lat="48.53393" lon="-0.27593">
        <ele>225.537919</ele>
        <time>2021-09-06T11:25:58.000Z</time>
      </trkpt>
      <trkpt lat="48.53375" lon="-0.27548">
        <ele>225.866671</ele>
        <time>2021-09-06T11:26:05.000Z</time>
      </trkpt>
      <trkpt lat="48.5337" lon="-0.27534">
        <ele>225.965217</ele>
        <time>2021-09-06T11:26:07.000Z</time>
      </trkpt>
      <trkpt lat="48.5336" lon="-0.27508">
        <ele>226.157131</ele>
        <time>2021-09-06T11:26:11.000Z</time>
      </trkpt>
      <trkpt lat="48.53342" lon="-0.2746">
        <ele>226.504261</ele>
        <time>2021-09-06T11:26:18.000Z</time>
      </trkpt>
      <trkpt lat="48.53318" lon="-0.27389">
        <ele>227.082736</ele>
        <time>2021-09-06T11:26:27.000Z</time>
      </trkpt>
      <trkpt lat="48.53307" lon="-0.27339">
        <ele>227.590644</ele>
        <time>2021-09-06T11:26:33.000Z</time>
      </trkpt>
      <trkpt lat="48.53301" lon="-0.27282">
        <ele>228.146626</ele>
        <time>2021-09-06T11:26:40.000Z</time>
      </trkpt>
      <trkpt lat="48.53298" lon="-0.27234">
        <ele>228.611567</ele>
        <time>2021-09-06T11:26:46.000Z</time>
      </trkpt>
      <trkpt lat="48.53296" lon="-0.27204">
        <ele>228.905787</ele>
        <time>2021-09-06T11:26:50.000Z</time>
      </trkpt>
      <trkpt lat="48.53296" lon="-0.27189">
        <ele>229.05168</ele>
        <time>2021-09-06T11:26:52.000Z</time>
      </trkpt>
      <trkpt lat="48.53295" lon="-0.27166">
        <ele>229.26915</ele>
        <time>2021-09-06T11:26:55.000Z</time>
      </trkpt>
      <trkpt lat="48.53293" lon="-0.27152">
        <ele>229.409664</ele>
        <time>2021-09-06T11:26:57.000Z</time>
      </trkpt>
      <trkpt lat="48.53293" lon="-0.27145">
        <ele>229.481501</ele>
        <time>2021-09-06T11:26:58.000Z</time>
      </trkpt>
      <trkpt lat="48.53292" lon="-0.27129">
        <ele>229.793196</ele>
        <time>2021-09-06T11:27:00.000Z</time>
      </trkpt>
      <trkpt lat="48.53292" lon="-0.27121">
        <ele>229.954614</ele>
        <time>2021-09-06T11:27:01.000Z</time>
      </trkpt>
      <trkpt lat="48.5329" lon="-0.27091">
        <ele>230.59946</ele>
        <time>2021-09-06T11:27:05.000Z</time>
      </trkpt>
      <trkpt lat="48.53289" lon="-0.27075">
        <ele>230.92716</ele>
        <time>2021-09-06T11:27:07.000Z</time>
      </trkpt>
      <trkpt lat="48.53284" lon="-0.27014">
        <ele>232.204015</ele>
        <time>2021-09-06T11:27:15.000Z</time>
      </trkpt>
      <trkpt lat="48.53283" lon="-0.26992">
        <ele>232.675174</ele>
        <time>2021-09-06T11:27:18.000Z</time>
      </trkpt>
      <trkpt lat="48.5328" lon="-0.2697">
        <ele>233.134585</ele>
        <time>2021-09-06T11:27:21.000Z</time>
      </trkpt>
      <trkpt lat="48.53279" lon="-0.26963">
        <ele>233.282401</ele>
        <time>2021-09-06T11:27:22.000Z</time>
      </trkpt>
      <trkpt lat="48.53277" lon="-0.26905">
        <ele>234.509835</ele>
        <time>2021-09-06T11:27:30.000Z</time>
      </trkpt>
      <trkpt lat="48.53275" lon="-0.2689">
        <ele>234.817717</ele>
        <time>2021-09-06T11:27:32.000Z</time>
      </trkpt>
      <trkpt lat="48.53272" lon="-0.26853">
        <ele>235.620301</ele>
        <time>2021-09-06T11:27:37.000Z</time>
      </trkpt>
      <trkpt lat="48.5327" lon="-0.26809">
        <ele>236.599209</ele>
        <time>2021-09-06T11:27:43.000Z</time>
      </trkpt>
      <trkpt lat="48.53266" lon="-0.26755">
        <ele>237.775647</ele>
        <time>2021-09-06T11:27:50.000Z</time>
      </trkpt>
      <trkpt lat="48.53261" lon="-0.26695">
        <ele>239.116919</ele>
        <time>2021-09-06T11:27:58.000Z</time>
      </trkpt>
      <trkpt lat="48.5326" lon="-0.26688">
        <ele>239.273579</ele>
        <time>2021-09-06T11:27:59.000Z</time>
      </trkpt>
      <trkpt lat="48.53258" lon="-0.26659">
        <ele>239.920571</ele>
        <time>2021-09-06T11:28:03.000Z</time>
      </trkpt>
      <trkpt lat="48.53252" lon="-0.26604">
        <ele>241.137684</ele>
        <time>2021-09-06T11:28:10.000Z</time>
      </trkpt>
      <trkpt lat="48.53244" lon="-0.2654">
        <ele>241.218301</ele>
        <time>2021-09-06T11:28:18.000Z</time>
      </trkpt>
      <trkpt lat="48.53245" lon="-0.2648">
        <ele>241.294055</ele>
        <time>2021-09-06T11:28:25.000Z</time>
      </trkpt>
      <trkpt lat="48.53243" lon="-0.26401">
        <ele>241.391766</ele>
        <time>2021-09-06T11:28:35.000Z</time>
      </trkpt>
      <trkpt lat="48.53242" lon="-0.26347">
        <ele>241.459573</ele>
        <time>2021-09-06T11:28:42.000Z</time>
      </trkpt>
      <trkpt lat="48.53242" lon="-0.26331">
        <ele>241.471382</ele>
        <time>2021-09-06T11:28:44.000Z</time>
      </trkpt>
      <trkpt lat="48.53242" lon="-0.26307">
        <ele>241.415251</ele>
        <time>2021-09-06T11:28:47.000Z</time>
      </trkpt>
      <trkpt lat="48.53245" lon="-0.2626">
        <ele>241.304319</ele>
        <time>2021-09-06T11:28:53.000Z</time>
      </trkpt>
      <trkpt lat="48.53247" lon="-0.26252">
        <ele>241.286394</ele>
        <time>2021-09-06T11:28:54.000Z</time>
      </trkpt>
      <trkpt lat="48.5325" lon="-0.26238">
        <ele>241.250327</ele>
        <time>2021-09-06T11:28:56.000Z</time>
      </trkpt>
      <trkpt lat="48.53258" lon="-0.26217">
        <ele>241.193872</ele>
        <time>2021-09-06T11:28:59.000Z</time>
      </trkpt>
      <trkpt lat="48.53279" lon="-0.26169">
        <ele>241.060259</ele>
        <time>2021-09-06T11:29:06.000Z</time>
      </trkpt>
      <trkpt lat="48.53295" lon="-0.26129">
        <ele>240.95087</ele>
        <time>2021-09-06T11:29:12.000Z</time>
      </trkpt>
      <trkpt lat="48.53309" lon="-0.26094">
        <ele>240.855666</ele>
        <time>2021-09-06T11:29:17.000Z</time>
      </trkpt>
      <trkpt lat="48.53312" lon="-0.26087">
        <ele>240.842251</ele>
        <time>2021-09-06T11:29:18.000Z</time>
      </trkpt>
      <trkpt lat="48.53328" lon="-0.26052">
        <ele>240.816181</ele>
        <time>2021-09-06T11:29:23.000Z</time>
      </trkpt>
      <trkpt lat="48.53351" lon="-0.26">
        <ele>240.779531</ele>
        <time>2021-09-06T11:29:30.000Z</time>
      </trkpt>
      <trkpt lat="48.5338" lon="-0.25927">
        <ele>240.728022</ele>
        <time>2021-09-06T11:29:40.000Z</time>
      </trkpt>
      <trkpt lat="48.53398" lon="-0.25876">
        <ele>240.693718</ele>
        <time>2021-09-06T11:29:47.000Z</time>
      </trkpt>
      <trkpt lat="48.53411" lon="-0.25833">
        <ele>240.764335</ele>
        <time>2021-09-06T11:29:53.000Z</time>
      </trkpt>
      <trkpt lat="48.53436" lon="-0.25765">
        <ele>241.008036</ele>
        <time>2021-09-06T11:30:02.000Z</time>
      </trkpt>
      <trkpt lat="48.53452" lon="-0.25723">
        <ele>241.161742</ele>
        <time>2021-09-06T11:30:08.000Z</time>
      </trkpt>
      <trkpt lat="48.5347" lon="-0.25672">
        <ele>241.339394</ele>
        <time>2021-09-06T11:30:15.000Z</time>
      </trkpt>
      <trkpt lat="48.53489" lon="-0.2561">
        <ele>241.55318</ele>
        <time>2021-09-06T11:30:24.000Z</time>
      </trkpt>
      <trkpt lat="48.53509" lon="-0.25555">
        <ele>241.721794</ele>
        <time>2021-09-06T11:30:32.000Z</time>
      </trkpt>
      <trkpt lat="48.53529" lon="-0.255">
        <ele>241.89184</ele>
        <time>2021-09-06T11:30:40.000Z</time>
      </trkpt>
      <trkpt lat="48.53541" lon="-0.25466">
        <ele>241.997112</ele>
        <time>2021-09-06T11:30:45.000Z</time>
      </trkpt>
      <trkpt lat="48.53546" lon="-0.25453">
        <ele>242.038272</ele>
        <time>2021-09-06T11:30:47.000Z</time>
      </trkpt>
      <trkpt lat="48.53556" lon="-0.25417">
        <ele>242.143865</ele>
        <time>2021-09-06T11:30:52.000Z</time>
      </trkpt>
      <trkpt lat="48.53561" lon="-0.25403">
        <ele>242.187698</ele>
        <time>2021-09-06T11:30:54.000Z</time>
      </trkpt>
      <trkpt lat="48.53565" lon="-0.25388">
        <ele>242.230126</ele>
        <time>2021-09-06T11:30:56.000Z</time>
      </trkpt>
      <trkpt lat="48.5357" lon="-0.25368">
        <ele>242.245603</ele>
        <time>2021-09-06T11:30:59.000Z</time>
      </trkpt>
      <trkpt lat="48.53582" lon="-0.25327">
        <ele>242.08879</ele>
        <time>2021-09-06T11:31:05.000Z</time>
      </trkpt>
      <trkpt lat="48.536" lon="-0.2527">
        <ele>241.86391</ele>
        <time>2021-09-06T11:31:13.000Z</time>
      </trkpt>
      <trkpt lat="48.53615" lon="-0.25208">
        <ele>241.631941</ele>
        <time>2021-09-06T11:31:21.000Z</time>
      </trkpt>
      <trkpt lat="48.53626" lon="-0.25146">
        <ele>241.405471</ele>
        <time>2021-09-06T11:31:28.000Z</time>
      </trkpt>
      <trkpt lat="48.53637" lon="-0.25085">
        <ele>240.888196</ele>
        <time>2021-09-06T11:31:34.000Z</time>
      </trkpt>
      <trkpt lat="48.53641" lon="-0.25053">
        <ele>240.519081</ele>
        <time>2021-09-06T11:31:37.000Z</time>
      </trkpt>
      <trkpt lat="48.5364" lon="-0.25033">
        <ele>240.286381</ele>
        <time>2021-09-06T11:31:39.000Z</time>
      </trkpt>
      <trkpt lat="48.53637" lon="-0.25005">
        <ele>239.956237</ele>
        <time>2021-09-06T11:31:42.000Z</time>
      </trkpt>
      <trkpt lat="48.53637" lon="-0.24996">
        <ele>239.847433</ele>
        <time>2021-09-06T11:31:43.000Z</time>
      </trkpt>
      <trkpt lat="48.53638" lon="-0.24986">
        <ele>239.734713</ele>
        <time>2021-09-06T11:31:44.000Z</time>
      </trkpt>
      <trkpt lat="48.53645" lon="-0.24958">
        <ele>239.388445</ele>
        <time>2021-09-06T11:31:47.000Z</time>
      </trkpt>
      <trkpt lat="48.53664" lon="-0.24893">
        <ele>238.575689</ele>
        <time>2021-09-06T11:31:54.000Z</time>
      </trkpt>
      <trkpt lat="48.53682" lon="-0.24855">
        <ele>238.085263</ele>
        <time>2021-09-06T11:31:59.000Z</time>
      </trkpt>
      <trkpt lat="48.53693" lon="-0.24836">
        <ele>237.900725</ele>
        <time>2021-09-06T11:32:02.000Z</time>
      </trkpt>
      <trkpt lat="48.53723" lon="-0.2479">
        <ele>237.421014</ele>
        <time>2021-09-06T11:32:09.000Z</time>
      </trkpt>
      <trkpt lat="48.53753" lon="-0.2474">
        <ele>236.919095</ele>
        <time>2021-09-06T11:32:17.000Z</time>
      </trkpt>
      <trkpt lat="48.53776" lon="-0.247">
        <ele>236.529201</ele>
        <time>2021-09-06T11:32:24.000Z</time>
      </trkpt>
      <trkpt lat="48.53795" lon="-0.24655">
        <ele>236.187169</ele>
        <time>2021-09-06T11:32:32.000Z</time>
      </trkpt>
      <trkpt lat="48.53812" lon="-0.24605">
        <ele>236.427552</ele>
        <time>2021-09-06T11:32:40.000Z</time>
      </trkpt>
      <trkpt lat="48.53824" lon="-0.24567">
        <ele>236.606949</ele>
        <time>2021-09-06T11:32:46.000Z</time>
      </trkpt>
      <trkpt lat="48.53828" lon="-0.24555">
        <ele>236.667184</ele>
        <time>2021-09-06T11:32:48.000Z</time>
      </trkpt>
      <trkpt lat="48.5383" lon="-0.24548">
        <ele>236.696191</ele>
        <time>2021-09-06T11:32:49.000Z</time>
      </trkpt>
      <trkpt lat="48.53834" lon="-0.24536">
        <ele>236.759113</ele>
        <time>2021-09-06T11:32:51.000Z</time>
      </trkpt>
      <trkpt lat="48.53836" lon="-0.24529">
        <ele>236.788549</ele>
        <time>2021-09-06T11:32:52.000Z</time>
      </trkpt>
      <trkpt lat="48.53845" lon="-0.24491">
        <ele>236.961362</ele>
        <time>2021-09-06T11:32:58.000Z</time>
      </trkpt>
      <trkpt lat="48.53858" lon="-0.24445">
        <ele>237.176567</ele>
        <time>2021-09-06T11:33:06.000Z</time>
      </trkpt>
      <trkpt lat="48.53867" lon="-0.24416">
        <ele>237.317154</ele>
        <time>2021-09-06T11:33:12.000Z</time>
      </trkpt>
      <trkpt lat="48.53879" lon="-0.24389">
        <ele>237.852725</ele>
        <time>2021-09-06T11:33:18.000Z</time>
      </trkpt>
      <trkpt lat="48.53899" lon="-0.24354">
        <ele>238.688616</ele>
        <time>2021-09-06T11:33:26.000Z</time>
      </trkpt>
      <trkpt lat="48.53912" lon="-0.24327">
        <ele>239.282755</ele>
        <time>2021-09-06T11:33:33.000Z</time>
      </trkpt>
      <trkpt lat="48.5392" lon="-0.24306">
        <ele>239.731014</ele>
        <time>2021-09-06T11:33:39.000Z</time>
      </trkpt>
      <trkpt lat="48.53928" lon="-0.24285">
        <ele>240.18199</ele>
        <time>2021-09-06T11:33:45.000Z</time>
      </trkpt>
      <trkpt lat="48.53936" lon="-0.24262">
        <ele>240.650849</ele>
        <time>2021-09-06T11:33:51.000Z</time>
      </trkpt>
      <trkpt lat="48.53944" lon="-0.24235">
        <ele>241.186308</ele>
        <time>2021-09-06T11:33:58.000Z</time>
      </trkpt>
      <trkpt lat="48.53953" lon="-0.24206">
        <ele>241.761277</ele>
        <time>2021-09-06T11:34:05.000Z</time>
      </trkpt>
      <trkpt lat="48.53962" lon="-0.24175">
        <ele>242.424852</ele>
        <time>2021-09-06T11:34:12.000Z</time>
      </trkpt>
      <trkpt lat="48.53974" lon="-0.24142">
        <ele>243.320272</ele>
        <time>2021-09-06T11:34:19.000Z</time>
      </trkpt>
      <trkpt lat="48.53978" lon="-0.24128">
        <ele>243.680277</ele>
        <time>2021-09-06T11:34:22.000Z</time>
      </trkpt>
      <trkpt lat="48.53978" lon="-0.24124">
        <ele>243.774589</ele>
        <time>2021-09-06T11:34:23.000Z</time>
      </trkpt>
      <trkpt lat="48.53987" lon="-0.24101">
        <ele>244.411764</ele>
        <time>2021-09-06T11:34:28.000Z</time>
      </trkpt>
      <trkpt lat="48.54001" lon="-0.24073">
        <ele>245.245703</ele>
        <time>2021-09-06T11:34:34.000Z</time>
      </trkpt>
      <trkpt lat="48.54013" lon="-0.24049">
        <ele>245.961229</ele>
        <time>2021-09-06T11:34:40.000Z</time>
      </trkpt>
      <trkpt lat="48.54025" lon="-0.2403">
        <ele>246.603075</ele>
        <time>2021-09-06T11:34:46.000Z</time>
      </trkpt>
      <trkpt lat="48.54042" lon="-0.24011">
        <ele>247.347699</ele>
        <time>2021-09-06T11:34:53.000Z</time>
      </trkpt>
      <trkpt lat="48.54059" lon="-0.23994">
        <ele>248.077584</ele>
        <time>2021-09-06T11:35:00.000Z</time>
      </trkpt>
      <trkpt lat="48.54071" lon="-0.23981">
        <ele>248.61511</ele>
        <time>2021-09-06T11:35:05.000Z</time>
      </trkpt>
      <trkpt lat="48.54083" lon="-0.23969">
        <ele>249.15001</ele>
        <time>2021-09-06T11:35:10.000Z</time>
      </trkpt>
      <trkpt lat="48.54099" lon="-0.23954">
        <ele>249.818035</ele>
        <time>2021-09-06T11:35:16.000Z</time>
      </trkpt>
      <trkpt lat="48.54111" lon="-0.23944">
        <ele>250.291931</ele>
        <time>2021-09-06T11:35:21.000Z</time>
      </trkpt>
      <trkpt lat="48.54128" lon="-0.23927">
        <ele>251.034299</ele>
        <time>2021-09-06T11:35:28.000Z</time>
      </trkpt>
      <trkpt lat="48.54151" lon="-0.23906">
        <ele>252.00038</ele>
        <time>2021-09-06T11:35:37.000Z</time>
      </trkpt>
      <trkpt lat="48.54168" lon="-0.23889">
        <ele>252.720055</ele>
        <time>2021-09-06T11:35:44.000Z</time>
      </trkpt>
      <trkpt lat="48.54184" lon="-0.23872">
        <ele>253.424702</ele>
        <time>2021-09-06T11:35:51.000Z</time>
      </trkpt>
      <trkpt lat="48.54203" lon="-0.23849">
        <ele>254.303283</ele>
        <time>2021-09-06T11:36:00.000Z</time>
      </trkpt>
      <trkpt lat="48.5422" lon="-0.23828">
        <ele>255.081554</ele>
        <time>2021-09-06T11:36:08.000Z</time>
      </trkpt>
      <trkpt lat="48.54234" lon="-0.2381">
        <ele>255.973731</ele>
        <time>2021-09-06T11:36:15.000Z</time>
      </trkpt>
      <trkpt lat="48.54252" lon="-0.23789">
        <ele>257.082505</ele>
        <time>2021-09-06T11:36:23.000Z</time>
      </trkpt>
      <trkpt lat="48.54267" lon="-0.23771">
        <ele>258.054225</ele>
        <time>2021-09-06T11:36:30.000Z</time>
      </trkpt>
      <trkpt lat="48.54283" lon="-0.23751">
        <ele>259.135088</ele>
        <time>2021-09-06T11:36:38.000Z</time>
      </trkpt>
      <trkpt lat="48.543" lon="-0.2373">
        <ele>260.203947</ele>
        <time>2021-09-06T11:36:46.000Z</time>
      </trkpt>
      <trkpt lat="48.54312" lon="-0.23716">
        <ele>260.96506</ele>
        <time>2021-09-06T11:36:52.000Z</time>
      </trkpt>
      <trkpt lat="48.54324" lon="-0.23701">
        <ele>261.76223</ele>
        <time>2021-09-06T11:36:59.000Z</time>
      </trkpt>
      <trkpt lat="48.54337" lon="-0.23687">
        <ele>262.571314</ele>
        <time>2021-09-06T11:37:05.000Z</time>
      </trkpt>
      <trkpt lat="48.54353" lon="-0.23671">
        <ele>263.552963</ele>
        <time>2021-09-06T11:37:12.000Z</time>
      </trkpt>
      <trkpt lat="48.54374" lon="-0.23649">
        <ele>264.645988</ele>
        <time>2021-09-06T11:37:21.000Z</time>
      </trkpt>
      <trkpt lat="48.54393" lon="-0.23628">
        <ele>265.477865</ele>
        <time>2021-09-06T11:37:29.000Z</time>
      </trkpt>
      <trkpt lat="48.54403" lon="-0.23606">
        <ele>266.133306</ele>
        <time>2021-09-06T11:37:35.000Z</time>
      </trkpt>
      <trkpt lat="48.544" lon="-0.23576">
        <ele>266.853254</ele>
        <time>2021-09-06T11:37:41.000Z</time>
      </trkpt>
      <trkpt lat="48.54392" lon="-0.23534">
        <ele>267.888983</ele>
        <time>2021-09-06T11:37:49.000Z</time>
      </trkpt>
      <trkpt lat="48.54382" lon="-0.23494">
        <ele>268.902277</ele>
        <time>2021-09-06T11:37:56.000Z</time>
      </trkpt>
      <trkpt lat="48.54371" lon="-0.23451">
        <ele>269.984989</ele>
        <time>2021-09-06T11:38:03.000Z</time>
      </trkpt>
      <trkpt lat="48.54361" lon="-0.23413">
        <ele>270.70334</ele>
        <time>2021-09-06T11:38:09.000Z</time>
      </trkpt>
      <trkpt lat="48.54357" lon="-0.23398">
        <ele>270.736144</ele>
        <time>2021-09-06T11:38:11.000Z</time>
      </trkpt>
      <trkpt lat="48.54354" lon="-0.23382">
        <ele>270.773068</ele>
        <time>2021-09-06T11:38:13.000Z</time>
      </trkpt>
      <trkpt lat="48.54351" lon="-0.23362">
        <ele>270.815831</ele>
        <time>2021-09-06T11:38:15.000Z</time>
      </trkpt>
      <trkpt lat="48.54351" lon="-0.23351">
        <ele>270.838106</ele>
        <time>2021-09-06T11:38:16.000Z</time>
      </trkpt>
      <trkpt lat="48.54356" lon="-0.23331">
        <ele>270.884594</ele>
        <time>2021-09-06T11:38:18.000Z</time>
      </trkpt>
      <trkpt lat="48.54368" lon="-0.23314">
        <ele>270.93788</ele>
        <time>2021-09-06T11:38:20.000Z</time>
      </trkpt>
      <trkpt lat="48.54376" lon="-0.23307">
        <ele>270.965227</ele>
        <time>2021-09-06T11:38:21.000Z</time>
      </trkpt>
      <trkpt lat="48.54419" lon="-0.23273">
        <ele>271.121205</ele>
        <time>2021-09-06T11:38:27.000Z</time>
      </trkpt>
      <trkpt lat="48.54464" lon="-0.23239">
        <ele>271.159086</ele>
        <time>2021-09-06T11:38:34.000Z</time>
      </trkpt>
      <trkpt lat="48.54502" lon="-0.23212">
        <ele>270.740349</ele>
        <time>2021-09-06T11:38:40.000Z</time>
      </trkpt>
      <trkpt lat="48.54541" lon="-0.23178">
        <ele>270.286405</ele>
        <time>2021-09-06T11:38:46.000Z</time>
      </trkpt>
      <trkpt lat="48.54547" lon="-0.23171">
        <ele>270.209373</ele>
        <time>2021-09-06T11:38:47.000Z</time>
      </trkpt>
      <trkpt lat="48.54556" lon="-0.23153">
        <ele>270.05545</ele>
        <time>2021-09-06T11:38:49.000Z</time>
      </trkpt>
      <trkpt lat="48.5456" lon="-0.23143">
        <ele>269.979335</ele>
        <time>2021-09-06T11:38:50.000Z</time>
      </trkpt>
      <trkpt lat="48.54563" lon="-0.23134">
        <ele>269.908118</ele>
        <time>2021-09-06T11:38:51.000Z</time>
      </trkpt>
      <trkpt lat="48.54567" lon="-0.23104">
        <ele>269.704388</ele>
        <time>2021-09-06T11:38:54.000Z</time>
      </trkpt>
      <trkpt lat="48.54566" lon="-0.23061">
        <ele>269.429101</ele>
        <time>2021-09-06T11:38:59.000Z</time>
      </trkpt>
      <trkpt lat="48.54562" lon="-0.23014">
        <ele>269.314899</ele>
        <time>2021-09-06T11:39:06.000Z</time>
      </trkpt>
      <trkpt lat="48.54553" lon="-0.22986">
        <ele>269.23777</ele>
        <time>2021-09-06T11:39:12.000Z</time>
      </trkpt>
      <trkpt lat="48.54539" lon="-0.22951">
        <ele>269.138263</ele>
        <time>2021-09-06T11:39:20.000Z</time>
      </trkpt>
      <trkpt lat="48.54528" lon="-0.22924">
        <ele>269.060616</ele>
        <time>2021-09-06T11:39:26.000Z</time>
      </trkpt>
      <trkpt lat="48.5451" lon="-0.22884">
        <ele>268.944286</ele>
        <time>2021-09-06T11:39:34.000Z</time>
      </trkpt>
      <trkpt lat="48.54494" lon="-0.22862">
        <ele>268.862815</ele>
        <time>2021-09-06T11:39:39.000Z</time>
      </trkpt>
      <trkpt lat="48.54487" lon="-0.22853">
        <ele>268.829337</ele>
        <time>2021-09-06T11:39:41.000Z</time>
      </trkpt>
      <trkpt lat="48.54464" lon="-0.22823">
        <ele>268.631011</ele>
        <time>2021-09-06T11:39:47.000Z</time>
      </trkpt>
      <trkpt lat="48.54441" lon="-0.2279">
        <ele>268.336838</ele>
        <time>2021-09-06T11:39:53.000Z</time>
      </trkpt>
      <trkpt lat="48.54419" lon="-0.22743">
        <ele>267.978075</ele>
        <time>2021-09-06T11:40:00.000Z</time>
      </trkpt>
      <trkpt lat="48.54401" lon="-0.22683">
        <ele>267.573394</ele>
        <time>2021-09-06T11:40:08.000Z</time>
      </trkpt>
      <trkpt lat="48.54386" lon="-0.22638">
        <ele>267.263625</ele>
        <time>2021-09-06T11:40:14.000Z</time>
      </trkpt>
      <trkpt lat="48.54363" lon="-0.22585">
        <ele>266.74085</ele>
        <time>2021-09-06T11:40:21.000Z</time>
      </trkpt>
      <trkpt lat="48.54339" lon="-0.22539">
        <ele>266.179622</ele>
        <time>2021-09-06T11:40:27.000Z</time>
      </trkpt>
      <trkpt lat="48.54336" lon="-0.22531">
        <ele>266.087865</ele>
        <time>2021-09-06T11:40:28.000Z</time>
      </trkpt>
      <trkpt lat="48.54331" lon="-0.22503">
        <ele>265.805038</ele>
        <time>2021-09-06T11:40:31.000Z</time>
      </trkpt>
      <trkpt lat="48.5432" lon="-0.2243">
        <ele>265.081126</ele>
        <time>2021-09-06T11:40:38.000Z</time>
      </trkpt>
      <trkpt lat="48.54312" lon="-0.224">
        <ele>264.766751</ele>
        <time>2021-09-06T11:40:41.000Z</time>
      </trkpt>
      <trkpt lat="48.54304" lon="-0.22382">
        <ele>264.557086</ele>
        <time>2021-09-06T11:40:43.000Z</time>
      </trkpt>
      <trkpt lat="48.543" lon="-0.22374">
        <ele>264.455957</ele>
        <time>2021-09-06T11:40:44.000Z</time>
      </trkpt>
      <trkpt lat="48.54284" lon="-0.22353">
        <ele>264.275874</ele>
        <time>2021-09-06T11:40:47.000Z</time>
      </trkpt>
      <trkpt lat="48.54263" lon="-0.22322">
        <ele>264.031299</ele>
        <time>2021-09-06T11:40:51.000Z</time>
      </trkpt>
      <trkpt lat="48.54259" lon="-0.22312">
        <ele>263.96846</ele>
        <time>2021-09-06T11:40:52.000Z</time>
      </trkpt>
      <trkpt lat="48.54229" lon="-0.22247">
        <ele>263.524769</ele>
        <time>2021-09-06T11:40:59.000Z</time>
      </trkpt>
      <trkpt lat="48.54207" lon="-0.22214">
        <ele>263.262767</ele>
        <time>2021-09-06T11:41:04.000Z</time>
      </trkpt>
      <trkpt lat="48.54193" lon="-0.22191">
        <ele>263.089019</ele>
        <time>2021-09-06T11:41:09.000Z</time>
      </trkpt>
      <trkpt lat="48.54182" lon="-0.22168">
        <ele>262.961941</ele>
        <time>2021-09-06T11:41:15.000Z</time>
      </trkpt>
      <trkpt lat="48.54171" lon="-0.22128">
        <ele>263.372015</ele>
        <time>2021-09-06T11:41:24.000Z</time>
      </trkpt>
      <trkpt lat="48.54166" lon="-0.22096">
        <ele>263.686142</ele>
        <time>2021-09-06T11:41:32.000Z</time>
      </trkpt>
      <trkpt lat="48.54163" lon="-0.2207">
        <ele>263.943179</ele>
        <time>2021-09-06T11:41:39.000Z</time>
      </trkpt>
      <trkpt lat="48.54162" lon="-0.22042">
        <ele>264.208312</ele>
        <time>2021-09-06T11:41:46.000Z</time>
      </trkpt>
      <trkpt lat="48.5416" lon="-0.22013">
        <ele>264.485518</ele>
        <time>2021-09-06T11:41:53.000Z</time>
      </trkpt>
      <trkpt lat="48.54159" lon="-0.21976">
        <ele>264.833452</ele>
        <time>2021-09-06T11:42:02.000Z</time>
      </trkpt>
      <trkpt lat="48.5416" lon="-0.21931">
        <ele>265.264425</ele>
        <time>2021-09-06T11:42:12.000Z</time>
      </trkpt>
      <trkpt lat="48.54161" lon="-0.21902">
        <ele>265.553386</ele>
        <time>2021-09-06T11:42:18.000Z</time>
      </trkpt>
      <trkpt lat="48.54163" lon="-0.2186">
        <ele>266.427855</ele>
        <time>2021-09-06T11:42:26.000Z</time>
      </trkpt>
      <trkpt lat="48.54165" lon="-0.21805">
        <ele>267.56921</ele>
        <time>2021-09-06T11:42:36.000Z</time>
      </trkpt>
      <trkpt lat="48.54165" lon="-0.21762">
        <ele>268.440331</ele>
        <time>2021-09-06T11:42:44.000Z</time>
      </trkpt>
      <trkpt lat="48.5416" lon="-0.21728">
        <ele>269.163769</ele>
        <time>2021-09-06T11:42:52.000Z</time>
      </trkpt>
      <trkpt lat="48.54154" lon="-0.21704">
        <ele>269.705868</ele>
        <time>2021-09-06T11:43:00.000Z</time>
      </trkpt>
      <trkpt lat="48.54149" lon="-0.21683">
        <ele>270.160091</ele>
        <time>2021-09-06T11:43:07.000Z</time>
      </trkpt>
      <trkpt lat="48.54143" lon="-0.21657">
        <ele>270.729291</ele>
        <time>2021-09-06T11:43:15.000Z</time>
      </trkpt>
      <trkpt lat="48.54141" lon="-0.21633">
        <ele>271.230927</ele>
        <time>2021-09-06T11:43:22.000Z</time>
      </trkpt>
      <trkpt lat="48.54143" lon="-0.21605">
        <ele>271.829609</ele>
        <time>2021-09-06T11:43:29.000Z</time>
      </trkpt>
      <trkpt lat="48.54148" lon="-0.21569">
        <ele>272.626376</ele>
        <time>2021-09-06T11:43:37.000Z</time>
      </trkpt>
      <trkpt lat="48.54155" lon="-0.21522">
        <ele>273.665468</ele>
        <time>2021-09-06T11:43:47.000Z</time>
      </trkpt>
      <trkpt lat="48.54161" lon="-0.21472">
        <ele>274.757265</ele>
        <time>2021-09-06T11:43:57.000Z</time>
      </trkpt>
      <trkpt lat="48.54167" lon="-0.21432">
        <ele>275.642245</ele>
        <time>2021-09-06T11:44:05.000Z</time>
      </trkpt>
      <trkpt lat="48.54173" lon="-0.21393">
        <ele>276.498547</ele>
        <time>2021-09-06T11:44:13.000Z</time>
      </trkpt>
      <trkpt lat="48.54175" lon="-0.21351">
        <ele>277.234444</ele>
        <time>2021-09-06T11:44:22.000Z</time>
      </trkpt>
      <trkpt lat="48.54169" lon="-0.2133">
        <ele>277.543538</ele>
        <time>2021-09-06T11:44:27.000Z</time>
      </trkpt>
      <trkpt lat="48.54148" lon="-0.21306">
        <ele>278.058226</ele>
        <time>2021-09-06T11:44:34.000Z</time>
      </trkpt>
      <trkpt lat="48.54129" lon="-0.21284">
        <ele>278.534324</ele>
        <time>2021-09-06T11:44:40.000Z</time>
      </trkpt>
      <trkpt lat="48.54125" lon="-0.21274">
        <ele>278.682507</ele>
        <time>2021-09-06T11:44:42.000Z</time>
      </trkpt>
      <trkpt lat="48.54125" lon="-0.21268">
        <ele>278.760174</ele>
        <time>2021-09-06T11:44:43.000Z</time>
      </trkpt>
      <trkpt lat="48.54127" lon="-0.21263">
        <ele>278.841804</ele>
        <time>2021-09-06T11:44:44.000Z</time>
      </trkpt>
      <trkpt lat="48.54132" lon="-0.21253">
        <ele>279.009555</ele>
        <time>2021-09-06T11:44:46.000Z</time>
      </trkpt>
      <trkpt lat="48.54136" lon="-0.21249">
        <ele>279.097715</ele>
        <time>2021-09-06T11:44:47.000Z</time>
      </trkpt>
      <trkpt lat="48.54146" lon="-0.21229">
        <ele>279.422021</ele>
        <time>2021-09-06T11:44:51.000Z</time>
      </trkpt>
      <trkpt lat="48.54149" lon="-0.21224">
        <ele>279.510264</ele>
        <time>2021-09-06T11:44:52.000Z</time>
      </trkpt>
      <trkpt lat="48.54159" lon="-0.21202">
        <ele>279.862172</ele>
        <time>2021-09-06T11:44:56.000Z</time>
      </trkpt>
      <trkpt lat="48.54163" lon="-0.2119">
        <ele>280.039981</ele>
        <time>2021-09-06T11:44:58.000Z</time>
      </trkpt>
      <trkpt lat="48.54174" lon="-0.21152">
        <ele>280.554206</ele>
        <time>2021-09-06T11:45:04.000Z</time>
      </trkpt>
      <trkpt lat="48.5418" lon="-0.21107">
        <ele>280.838678</ele>
        <time>2021-09-06T11:45:11.000Z</time>
      </trkpt>
      <trkpt lat="48.5418" lon="-0.211">
        <ele>280.88283</ele>
        <time>2021-09-06T11:45:12.000Z</time>
      </trkpt>
      <trkpt lat="48.54182" lon="-0.2108">
        <ele>281.011298</ele>
        <time>2021-09-06T11:45:15.000Z</time>
      </trkpt>
      <trkpt lat="48.5419" lon="-0.21031">
        <ele>281.327683</ele>
        <time>2021-09-06T11:45:22.000Z</time>
      </trkpt>
      <trkpt lat="48.54196" lon="-0.20989">
        <ele>281.600181</ele>
        <time>2021-09-06T11:45:28.000Z</time>
      </trkpt>
      <trkpt lat="48.54201" lon="-0.20948">
        <ele>281.858331</ele>
        <time>2021-09-06T11:45:34.000Z</time>
      </trkpt>
      <trkpt lat="48.54211" lon="-0.2088">
        <ele>282.27252</ele>
        <time>2021-09-06T11:45:43.000Z</time>
      </trkpt>
      <trkpt lat="48.54213" lon="-0.20872">
        <ele>282.300581</ele>
        <time>2021-09-06T11:45:44.000Z</time>
      </trkpt>
      <trkpt lat="48.54217" lon="-0.20835">
        <ele>282.438033</ele>
        <time>2021-09-06T11:45:49.000Z</time>
      </trkpt>
      <trkpt lat="48.54224" lon="-0.20783">
        <ele>282.629529</ele>
        <time>2021-09-06T11:45:56.000Z</time>
      </trkpt>
      <trkpt lat="48.5423" lon="-0.20747">
        <ele>282.762471</ele>
        <time>2021-09-06T11:46:01.000Z</time>
      </trkpt>
      <trkpt lat="48.54231" lon="-0.20733">
        <ele>282.813763</ele>
        <time>2021-09-06T11:46:03.000Z</time>
      </trkpt>
      <trkpt lat="48.54231" lon="-0.20697">
        <ele>282.941824</ele>
        <time>2021-09-06T11:46:08.000Z</time>
      </trkpt>
      <trkpt lat="48.5423" lon="-0.2069">
        <ele>282.968513</ele>
        <time>2021-09-06T11:46:09.000Z</time>
      </trkpt>
      <trkpt lat="48.5423" lon="-0.20682">
        <ele>282.995615</ele>
        <time>2021-09-06T11:46:10.000Z</time>
      </trkpt>
      <trkpt lat="48.54228" lon="-0.20668">
        <ele>283.048334</ele>
        <time>2021-09-06T11:46:12.000Z</time>
      </trkpt>
      <trkpt lat="48.54225" lon="-0.20662">
        <ele>283.075646</ele>
        <time>2021-09-06T11:46:13.000Z</time>
      </trkpt>
      <trkpt lat="48.54216" lon="-0.20653">
        <ele>283.132166</ele>
        <time>2021-09-06T11:46:15.000Z</time>
      </trkpt>
      <trkpt lat="48.54202" lon="-0.20641">
        <ele>283.211903</ele>
        <time>2021-09-06T11:46:18.000Z</time>
      </trkpt>
      <trkpt lat="48.54193" lon="-0.20632">
        <ele>283.186016</ele>
        <time>2021-09-06T11:46:20.000Z</time>
      </trkpt>
      <trkpt lat="48.54189" lon="-0.20617">
        <ele>283.161043</ele>
        <time>2021-09-06T11:46:22.000Z</time>
      </trkpt>
      <trkpt lat="48.54192" lon="-0.20561">
        <ele>283.071093</ele>
        <time>2021-09-06T11:46:29.000Z</time>
      </trkpt>
      <trkpt lat="48.54197" lon="-0.20496">
        <ele>282.967973</ele>
        <time>2021-09-06T11:46:37.000Z</time>
      </trkpt>
      <trkpt lat="48.54198" lon="-0.2048">
        <ele>282.941615</ele>
        <time>2021-09-06T11:46:39.000Z</time>
      </trkpt>
      <trkpt lat="48.542" lon="-0.20455">
        <ele>282.902522</ele>
        <time>2021-09-06T11:46:42.000Z</time>
      </trkpt>
      <trkpt lat="48.54205" lon="-0.20374">
        <ele>282.744792</ele>
        <time>2021-09-06T11:46:52.000Z</time>
      </trkpt>
      <trkpt lat="48.54208" lon="-0.2029">
        <ele>282.273244</ele>
        <time>2021-09-06T11:47:02.000Z</time>
      </trkpt>
      <trkpt lat="48.54212" lon="-0.20232">
        <ele>281.950499</ele>
        <time>2021-09-06T11:47:09.000Z</time>
      </trkpt>
      <trkpt lat="48.54216" lon="-0.20161">
        <ele>281.550784</ele>
        <time>2021-09-06T11:47:17.000Z</time>
      </trkpt>
      <trkpt lat="48.54219" lon="-0.20097">
        <ele>281.156799</ele>
        <time>2021-09-06T11:47:24.000Z</time>
      </trkpt>
      <trkpt lat="48.54224" lon="-0.20016">
        <ele>280.45778</ele>
        <time>2021-09-06T11:47:33.000Z</time>
      </trkpt>
      <trkpt lat="48.54228" lon="-0.19942">
        <ele>279.830883</ele>
        <time>2021-09-06T11:47:41.000Z</time>
      </trkpt>
      <trkpt lat="48.54232" lon="-0.19861">
        <ele>279.137913</ele>
        <time>2021-09-06T11:47:50.000Z</time>
      </trkpt>
      <trkpt lat="48.54233" lon="-0.19853">
        <ele>279.065138</ele>
        <time>2021-09-06T11:47:51.000Z</time>
      </trkpt>
      <trkpt lat="48.54235" lon="-0.19818">
        <ele>278.838798</ele>
        <time>2021-09-06T11:47:55.000Z</time>
      </trkpt>
      <trkpt lat="48.54236" lon="-0.19792">
        <ele>278.699083</ele>
        <time>2021-09-06T11:47:58.000Z</time>
      </trkpt>
      <trkpt lat="48.54241" lon="-0.19712">
        <ele>278.270268</ele>
        <time>2021-09-06T11:48:07.000Z</time>
      </trkpt>
      <trkpt lat="48.54245" lon="-0.19645">
        <ele>277.909989</ele>
        <time>2021-09-06T11:48:15.000Z</time>
      </trkpt>
      <trkpt lat="48.54248" lon="-0.19594">
        <ele>277.63543</ele>
        <time>2021-09-06T11:48:21.000Z</time>
      </trkpt>
      <trkpt lat="48.5425" lon="-0.19551">
        <ele>277.620837</ele>
        <time>2021-09-06T11:48:27.000Z</time>
      </trkpt>
      <trkpt lat="48.54252" lon="-0.19518">
        <ele>277.85468</ele>
        <time>2021-09-06T11:48:33.000Z</time>
      </trkpt>
      <trkpt lat="48.54255" lon="-0.19471">
        <ele>278.187382</ele>
        <time>2021-09-06T11:48:42.000Z</time>
      </trkpt>
      <trkpt lat="48.54257" lon="-0.19424">
        <ele>278.516499</ele>
        <time>2021-09-06T11:48:51.000Z</time>
      </trkpt>
      <trkpt lat="48.5426" lon="-0.19384">
        <ele>278.800894</ele>
        <time>2021-09-06T11:48:59.000Z</time>
      </trkpt>
      <trkpt lat="48.54263" lon="-0.19332">
        <ele>279.16537</ele>
        <time>2021-09-06T11:49:09.000Z</time>
      </trkpt>
      <trkpt lat="48.54265" lon="-0.19296">
        <ele>279.451621</ele>
        <time>2021-09-06T11:49:16.000Z</time>
      </trkpt>
      <trkpt lat="48.54267" lon="-0.19257">
        <ele>280.242216</ele>
        <time>2021-09-06T11:49:24.000Z</time>
      </trkpt>
      <trkpt lat="48.5427" lon="-0.19219">
        <ele>281.008067</ele>
        <time>2021-09-06T11:49:32.000Z</time>
      </trkpt>
      <trkpt lat="48.54271" lon="-0.1919">
        <ele>281.593824</ele>
        <time>2021-09-06T11:49:39.000Z</time>
      </trkpt>
      <trkpt lat="48.54273" lon="-0.19157">
        <ele>282.274809</ele>
        <time>2021-09-06T11:49:47.000Z</time>
      </trkpt>
      <trkpt lat="48.54275" lon="-0.1912">
        <ele>283.02327</ele>
        <time>2021-09-06T11:49:56.000Z</time>
      </trkpt>
      <trkpt lat="48.54278" lon="-0.1908">
        <ele>283.840634</ele>
        <time>2021-09-06T11:50:06.000Z</time>
      </trkpt>
      <trkpt lat="48.54279" lon="-0.19045">
        <ele>284.534178</ele>
        <time>2021-09-06T11:50:15.000Z</time>
      </trkpt>
      <trkpt lat="48.54281" lon="-0.19011">
        <ele>285.306687</ele>
        <time>2021-09-06T11:50:24.000Z</time>
      </trkpt>
      <trkpt lat="48.54283" lon="-0.18983">
        <ele>285.977944</ele>
        <time>2021-09-06T11:50:31.000Z</time>
      </trkpt>
      <trkpt lat="48.54286" lon="-0.18947">
        <ele>286.845937</ele>
        <time>2021-09-06T11:50:40.000Z</time>
      </trkpt>
      <trkpt lat="48.54286" lon="-0.18923">
        <ele>287.425976</ele>
        <time>2021-09-06T11:50:46.000Z</time>
      </trkpt>
      <trkpt lat="48.54288" lon="-0.18894">
        <ele>288.128056</ele>
        <time>2021-09-06T11:50:53.000Z</time>
      </trkpt>
      <trkpt lat="48.54289" lon="-0.18856">
        <ele>289.045155</ele>
        <time>2021-09-06T11:51:02.000Z</time>
      </trkpt>
      <trkpt lat="48.54288" lon="-0.18811">
        <ele>290.11379</ele>
        <time>2021-09-06T11:51:12.000Z</time>
      </trkpt>
      <trkpt lat="48.54285" lon="-0.18777">
        <ele>290.948459</ele>
        <time>2021-09-06T11:51:19.000Z</time>
      </trkpt>
      <trkpt lat="48.54278" lon="-0.18739">
        <ele>291.486493</ele>
        <time>2021-09-06T11:51:26.000Z</time>
      </trkpt>
      <trkpt lat="48.54274" lon="-0.1872">
        <ele>291.542107</ele>
        <time>2021-09-06T11:51:29.000Z</time>
      </trkpt>
      <trkpt lat="48.54269" lon="-0.18701">
        <ele>291.598816</ele>
        <time>2021-09-06T11:51:32.000Z</time>
      </trkpt>
      <trkpt lat="48.54255" lon="-0.18658">
        <ele>291.727887</ele>
        <time>2021-09-06T11:51:38.000Z</time>
      </trkpt>
      <trkpt lat="48.54231" lon="-0.18605">
        <ele>291.902288</ele>
        <time>2021-09-06T11:51:45.000Z</time>
      </trkpt>
      <trkpt lat="48.54217" lon="-0.18573">
        <ele>292.008638</ele>
        <time>2021-09-06T11:51:49.000Z</time>
      </trkpt>
      <trkpt lat="48.54211" lon="-0.18555">
        <ele>292.06277</ele>
        <time>2021-09-06T11:51:51.000Z</time>
      </trkpt>
      <trkpt lat="48.54209" lon="-0.18512">
        <ele>292.168964</ele>
        <time>2021-09-06T11:51:55.000Z</time>
      </trkpt>
      <trkpt lat="48.54209" lon="-0.18465">
        <ele>291.914616</ele>
        <time>2021-09-06T11:51:59.000Z</time>
      </trkpt>
      <trkpt lat="48.54207" lon="-0.18453">
        <ele>291.851888</ele>
        <time>2021-09-06T11:52:00.000Z</time>
      </trkpt>
      <trkpt lat="48.54197" lon="-0.18368">
        <ele>291.384559</ele>
        <time>2021-09-06T11:52:07.000Z</time>
      </trkpt>
      <trkpt lat="48.54196" lon="-0.18356">
        <ele>291.318375</ele>
        <time>2021-09-06T11:52:08.000Z</time>
      </trkpt>
      <trkpt lat="48.54192" lon="-0.18305">
        <ele>291.040592</ele>
        <time>2021-09-06T11:52:13.000Z</time>
      </trkpt>
      <trkpt lat="48.54191" lon="-0.18267">
        <ele>290.834227</ele>
        <time>2021-09-06T11:52:18.000Z</time>
      </trkpt>
      <trkpt lat="48.54192" lon="-0.18238">
        <ele>290.764073</ele>
        <time>2021-09-06T11:52:23.000Z</time>
      </trkpt>
      <trkpt lat="48.54187" lon="-0.18206">
        <ele>291.056941</ele>
        <time>2021-09-06T11:52:29.000Z</time>
      </trkpt>
      <trkpt lat="48.54174" lon="-0.18183">
        <ele>291.329459</ele>
        <time>2021-09-06T11:52:35.000Z</time>
      </trkpt>
      <trkpt lat="48.54159" lon="-0.18154">
        <ele>291.657539</ele>
        <time>2021-09-06T11:52:43.000Z</time>
      </trkpt>
      <trkpt lat="48.5415" lon="-0.18124">
        <ele>291.950805</ele>
        <time>2021-09-06T11:52:50.000Z</time>
      </trkpt>
      <trkpt lat="48.54146" lon="-0.18093">
        <ele>292.236437</ele>
        <time>2021-09-06T11:52:57.000Z</time>
      </trkpt>
      <trkpt lat="48.54143" lon="-0.18054">
        <ele>292.589816</ele>
        <time>2021-09-06T11:53:06.000Z</time>
      </trkpt>
      <trkpt lat="48.54143" lon="-0.18008">
        <ele>292.997656</ele>
        <time>2021-09-06T11:53:16.000Z</time>
      </trkpt>
      <trkpt lat="48.54145" lon="-0.17971">
        <ele>293.266961</ele>
        <time>2021-09-06T11:53:23.000Z</time>
      </trkpt>
      <trkpt lat="48.54146" lon="-0.17965">
        <ele>293.302515</ele>
        <time>2021-09-06T11:53:24.000Z</time>
      </trkpt>
      <trkpt lat="48.5415" lon="-0.17938">
        <ele>293.465298</ele>
        <time>2021-09-06T11:53:28.000Z</time>
      </trkpt>
      <trkpt lat="48.54155" lon="-0.17909">
        <ele>293.646639</ele>
        <time>2021-09-06T11:53:32.000Z</time>
      </trkpt>
      <trkpt lat="48.54164" lon="-0.17864">
        <ele>293.923731</ele>
        <time>2021-09-06T11:53:37.000Z</time>
      </trkpt>
      <trkpt lat="48.54185" lon="-0.17787">
        <ele>294.419341</ele>
        <time>2021-09-06T11:53:45.000Z</time>
      </trkpt>
      <trkpt lat="48.54208" lon="-0.17718">
        <ele>294.617062</ele>
        <time>2021-09-06T11:53:52.000Z</time>
      </trkpt>
      <trkpt lat="48.54233" lon="-0.17653">
        <ele>294.107338</ele>
        <time>2021-09-06T11:53:59.000Z</time>
      </trkpt>
      <trkpt lat="48.54237" lon="-0.17645">
        <ele>294.03833</ele>
        <time>2021-09-06T11:54:00.000Z</time>
      </trkpt>
      <trkpt lat="48.54255" lon="-0.17603">
        <ele>293.702305</ele>
        <time>2021-09-06T11:54:05.000Z</time>
      </trkpt>
      <trkpt lat="48.54274" lon="-0.17566">
        <ele>293.382931</ele>
        <time>2021-09-06T11:54:10.000Z</time>
      </trkpt>
      <trkpt lat="48.543" lon="-0.17516">
        <ele>292.952952</ele>
        <time>2021-09-06T11:54:17.000Z</time>
      </trkpt>
      <trkpt lat="48.54332" lon="-0.1746">
        <ele>292.332559</ele>
        <time>2021-09-06T11:54:25.000Z</time>
      </trkpt>
      <trkpt lat="48.5436" lon="-0.17416">
        <ele>291.824835</ele>
        <time>2021-09-06T11:54:31.000Z</time>
      </trkpt>
      <trkpt lat="48.54389" lon="-0.17374">
        <ele>291.30748</ele>
        <time>2021-09-06T11:54:37.000Z</time>
      </trkpt>
      <trkpt lat="48.54405" lon="-0.17353">
        <ele>291.045372</ele>
        <time>2021-09-06T11:54:40.000Z</time>
      </trkpt>
      <trkpt lat="48.54414" lon="-0.1734">
        <ele>290.881391</ele>
        <time>2021-09-06T11:54:42.000Z</time>
      </trkpt>
      <trkpt lat="48.54434" lon="-0.17313">
        <ele>290.679124</ele>
        <time>2021-09-06T11:54:47.000Z</time>
      </trkpt>
      <trkpt lat="48.54457" lon="-0.17283">
        <ele>290.942482</ele>
        <time>2021-09-06T11:54:54.000Z</time>
      </trkpt>
      <trkpt lat="48.54472" lon="-0.17264">
        <ele>291.107058</ele>
        <time>2021-09-06T11:55:00.000Z</time>
      </trkpt>
      <trkpt lat="48.54486" lon="-0.17247">
        <ele>291.260402</ele>
        <time>2021-09-06T11:55:06.000Z</time>
      </trkpt>
      <trkpt lat="48.54501" lon="-0.1723">
        <ele>291.428896</ele>
        <time>2021-09-06T11:55:13.000Z</time>
      </trkpt>
      <trkpt lat="48.54517" lon="-0.17214">
        <ele>291.593347</ele>
        <time>2021-09-06T11:55:19.000Z</time>
      </trkpt>
      <trkpt lat="48.54535" lon="-0.17193">
        <ele>291.790804</ele>
        <time>2021-09-06T11:55:27.000Z</time>
      </trkpt>
      <trkpt lat="48.54556" lon="-0.17172">
        <ele>292.009324</ele>
        <time>2021-09-06T11:55:35.000Z</time>
      </trkpt>
      <trkpt lat="48.54585" lon="-0.17146">
        <ele>292.084071</ele>
        <time>2021-09-06T11:55:44.000Z</time>
      </trkpt>
      <trkpt lat="48.54616" lon="-0.17118">
        <ele>291.848797</ele>
        <time>2021-09-06T11:55:53.000Z</time>
      </trkpt>
      <trkpt lat="48.5462" lon="-0.17116">
        <ele>291.820646</ele>
        <time>2021-09-06T11:55:54.000Z</time>
      </trkpt>
      <trkpt lat="48.54644" lon="-0.17096">
        <ele>291.645899</ele>
        <time>2021-09-06T11:56:00.000Z</time>
      </trkpt>
      <trkpt lat="48.54655" lon="-0.17089">
        <ele>291.566802</ele>
        <time>2021-09-06T11:56:03.000Z</time>
      </trkpt>
      <trkpt lat="48.54666" lon="-0.1708">
        <ele>291.481354</ele>
        <time>2021-09-06T11:56:06.000Z</time>
      </trkpt>
      <trkpt lat="48.5467" lon="-0.17077">
        <ele>291.451654</ele>
        <time>2021-09-06T11:56:07.000Z</time>
      </trkpt>
      <trkpt lat="48.54688" lon="-0.17065">
        <ele>291.325014</ele>
        <time>2021-09-06T11:56:11.000Z</time>
      </trkpt>
      <trkpt lat="48.5471" lon="-0.1705">
        <ele>291.16635</ele>
        <time>2021-09-06T11:56:16.000Z</time>
      </trkpt>
      <trkpt lat="48.54719" lon="-0.17045">
        <ele>291.10337</ele>
        <time>2021-09-06T11:56:18.000Z</time>
      </trkpt>
      <trkpt lat="48.54757" lon="-0.17021">
        <ele>290.654311</ele>
        <time>2021-09-06T11:56:26.000Z</time>
      </trkpt>
      <trkpt lat="48.54792" lon="-0.16999">
        <ele>290.137247</ele>
        <time>2021-09-06T11:56:33.000Z</time>
      </trkpt>
      <trkpt lat="48.54826" lon="-0.16979">
        <ele>289.646423</ele>
        <time>2021-09-06T11:56:39.000Z</time>
      </trkpt>
      <trkpt lat="48.54871" lon="-0.16952">
        <ele>288.983495</ele>
        <time>2021-09-06T11:56:46.000Z</time>
      </trkpt>
      <trkpt lat="48.54907" lon="-0.1693">
        <ele>288.38061</ele>
        <time>2021-09-06T11:56:51.000Z</time>
      </trkpt>
      <trkpt lat="48.54959" lon="-0.16897">
        <ele>286.981503</ele>
        <time>2021-09-06T11:56:58.000Z</time>
      </trkpt>
      <trkpt lat="48.54975" lon="-0.16887">
        <ele>286.572395</ele>
        <time>2021-09-06T11:57:00.000Z</time>
      </trkpt>
      <trkpt lat="48.55029" lon="-0.16855">
        <ele>285.125372</ele>
        <time>2021-09-06T11:57:07.000Z</time>
      </trkpt>
      <trkpt lat="48.55036" lon="-0.1685">
        <ele>284.944481</ele>
        <time>2021-09-06T11:57:08.000Z</time>
      </trkpt>
      <trkpt lat="48.55044" lon="-0.16845">
        <ele>284.735131</ele>
        <time>2021-09-06T11:57:10.000Z</time>
      </trkpt>
      <trkpt lat="48.55045" lon="-0.16847">
        <ele>284.688046</ele>
        <time>2021-09-06T11:57:11.000Z</time>
      </trkpt>
      <trkpt lat="48.55043" lon="-0.16851">
        <ele>284.587388</ele>
        <time>2021-09-06T11:57:13.000Z</time>
      </trkpt>
      <trkpt lat="48.55029" lon="-0.16854">
        <ele>284.236001</ele>
        <time>2021-09-06T11:57:18.000Z</time>
      </trkpt>
      <trkpt lat="48.55019" lon="-0.16837">
        <ele>284.044823</ele>
        <time>2021-09-06T11:57:22.000Z</time>
      </trkpt>
      <trkpt lat="48.55008" lon="-0.16802">
        <ele>283.838017</ele>
        <time>2021-09-06T11:57:29.000Z</time>
      </trkpt>
      <trkpt lat="48.54998" lon="-0.16773">
        <ele>283.663725</ele>
        <time>2021-09-06T11:57:36.000Z</time>
      </trkpt>
      <trkpt lat="48.54986" lon="-0.16739">
        <ele>283.458235</ele>
        <time>2021-09-06T11:57:45.000Z</time>
      </trkpt>
      <trkpt lat="48.54977" lon="-0.16708">
        <ele>283.27425</ele>
        <time>2021-09-06T11:57:53.000Z</time>
      </trkpt>
      <trkpt lat="48.54964" lon="-0.16665">
        <ele>283.021432</ele>
        <time>2021-09-06T11:58:04.000Z</time>
      </trkpt>
      <trkpt lat="48.54956" lon="-0.16627">
        <ele>282.812485</ele>
        <time>2021-09-06T11:58:12.000Z</time>
      </trkpt>
      <trkpt lat="48.54948" lon="-0.16583">
        <ele>282.588012</ele>
        <time>2021-09-06T11:58:20.000Z</time>
      </trkpt>
      <trkpt lat="48.54946" lon="-0.16558">
        <ele>282.482442</ele>
        <time>2021-09-06T11:58:24.000Z</time>
      </trkpt>
      <trkpt lat="48.54946" lon="-0.16544">
        <ele>282.421118</ele>
        <time>2021-09-06T11:58:26.000Z</time>
      </trkpt>
      <trkpt lat="48.54945" lon="-0.16492">
        <ele>282.202933</ele>
        <time>2021-09-06T11:58:32.000Z</time>
      </trkpt>
      <trkpt lat="48.54945" lon="-0.16452">
        <ele>282.03282</ele>
        <time>2021-09-06T11:58:36.000Z</time>
      </trkpt>
      <trkpt lat="48.54944" lon="-0.16431">
        <ele>281.943787</ele>
        <time>2021-09-06T11:58:38.000Z</time>
      </trkpt>
      <trkpt lat="48.54943" lon="-0.16367">
        <ele>281.671091</ele>
        <time>2021-09-06T11:58:44.000Z</time>
      </trkpt>
      <trkpt lat="48.54949" lon="-0.16303">
        <ele>281.244088</ele>
        <time>2021-09-06T11:58:50.000Z</time>
      </trkpt>
      <trkpt lat="48.54957" lon="-0.16235">
        <ele>280.597866</ele>
        <time>2021-09-06T11:58:57.000Z</time>
      </trkpt>
      <trkpt lat="48.54963" lon="-0.16178">
        <ele>280.052734</ele>
        <time>2021-09-06T11:59:03.000Z</time>
      </trkpt>
      <trkpt lat="48.54969" lon="-0.16108">
        <ele>279.392119</ele>
        <time>2021-09-06T11:59:11.000Z</time>
      </trkpt>
      <trkpt lat="48.5497" lon="-0.16083">
        <ele>279.15451</ele>
        <time>2021-09-06T11:59:14.000Z</time>
      </trkpt>
      <trkpt lat="48.5497" lon="-0.1606">
        <ele>278.973436</ele>
        <time>2021-09-06T11:59:17.000Z</time>
      </trkpt>
      <trkpt lat="48.54969" lon="-0.16011">
        <ele>279.070227</ele>
        <time>2021-09-06T11:59:24.000Z</time>
      </trkpt>
      <trkpt lat="48.54968" lon="-0.15997">
        <ele>279.096605</ele>
        <time>2021-09-06T11:59:26.000Z</time>
      </trkpt>
      <trkpt lat="48.54968" lon="-0.1597">
        <ele>279.149503</ele>
        <time>2021-09-06T11:59:30.000Z</time>
      </trkpt>
      <trkpt lat="48.54967" lon="-0.1595">
        <ele>279.189465</ele>
        <time>2021-09-06T11:59:33.000Z</time>
      </trkpt>
      <trkpt lat="48.54968" lon="-0.1593">
        <ele>279.229225</ele>
        <time>2021-09-06T11:59:36.000Z</time>
      </trkpt>
      <trkpt lat="48.5497" lon="-0.15897">
        <ele>279.293337</ele>
        <time>2021-09-06T11:59:41.000Z</time>
      </trkpt>
      <trkpt lat="48.54973" lon="-0.15878">
        <ele>279.331587</ele>
        <time>2021-09-06T11:59:44.000Z</time>
      </trkpt>
      <trkpt lat="48.54978" lon="-0.15836">
        <ele>279.414572</ele>
        <time>2021-09-06T11:59:51.000Z</time>
      </trkpt>
      <trkpt lat="48.54983" lon="-0.15788">
        <ele>279.583136</ele>
        <time>2021-09-06T12:00:00.000Z</time>
      </trkpt>
      <trkpt lat="48.54985" lon="-0.15756">
        <ele>280.026551</ele>
        <time>2021-09-06T12:00:06.000Z</time>
      </trkpt>
      <trkpt lat="48.54986" lon="-0.15706">
        <ele>280.717777</ele>
        <time>2021-09-06T12:00:16.000Z</time>
      </trkpt>
      <trkpt lat="48.54983" lon="-0.15672">
        <ele>281.187698</ele>
        <time>2021-09-06T12:00:23.000Z</time>
      </trkpt>
      <trkpt lat="48.54978" lon="-0.15625">
        <ele>281.8404</ele>
        <time>2021-09-06T12:00:32.000Z</time>
      </trkpt>
      <trkpt lat="48.54975" lon="-0.15582">
        <ele>282.43559</ele>
        <time>2021-09-06T12:00:40.000Z</time>
      </trkpt>
      <trkpt lat="48.54973" lon="-0.15538">
        <ele>283.043391</ele>
        <time>2021-09-06T12:00:48.000Z</time>
      </trkpt>
      <trkpt lat="48.54974" lon="-0.15486">
        <ele>283.529727</ele>
        <time>2021-09-06T12:00:57.000Z</time>
      </trkpt>
      <trkpt lat="48.54974" lon="-0.15437">
        <ele>283.901294</ele>
        <time>2021-09-06T12:01:05.000Z</time>
      </trkpt>
      <trkpt lat="48.54973" lon="-0.15381">
        <ele>284.324482</ele>
        <time>2021-09-06T12:01:14.000Z</time>
      </trkpt>
      <trkpt lat="48.54968" lon="-0.15326">
        <ele>284.750883</ele>
        <time>2021-09-06T12:01:23.000Z</time>
      </trkpt>
      <trkpt lat="48.54957" lon="-0.15284">
        <ele>285.09458</ele>
        <time>2021-09-06T12:01:30.000Z</time>
      </trkpt>
      <trkpt lat="48.54935" lon="-0.15233">
        <ele>285.374278</ele>
        <time>2021-09-06T12:01:39.000Z</time>
      </trkpt>
      <trkpt lat="48.54911" lon="-0.15173">
        <ele>285.514861</ele>
        <time>2021-09-06T12:01:49.000Z</time>
      </trkpt>
      <trkpt lat="48.54891" lon="-0.15128">
        <ele>285.624678</ele>
        <time>2021-09-06T12:01:57.000Z</time>
      </trkpt>
      <trkpt lat="48.54875" lon="-0.15089">
        <ele>285.718359</ele>
        <time>2021-09-06T12:02:04.000Z</time>
      </trkpt>
      <trkpt lat="48.54855" lon="-0.15031">
        <ele>285.849877</ele>
        <time>2021-09-06T12:02:14.000Z</time>
      </trkpt>
      <trkpt lat="48.54841" lon="-0.14971">
        <ele>286.175821</ele>
        <time>2021-09-06T12:02:24.000Z</time>
      </trkpt>
      <trkpt lat="48.54832" lon="-0.14924">
        <ele>286.438381</ele>
        <time>2021-09-06T12:02:32.000Z</time>
      </trkpt>
      <trkpt lat="48.54822" lon="-0.14872">
        <ele>286.72824</ele>
        <time>2021-09-06T12:02:41.000Z</time>
      </trkpt>
      <trkpt lat="48.54813" lon="-0.14826">
        <ele>286.991013</ele>
        <time>2021-09-06T12:02:50.000Z</time>
      </trkpt>
      <trkpt lat="48.54805" lon="-0.14786">
        <ele>287.210334</ele>
        <time>2021-09-06T12:02:58.000Z</time>
      </trkpt>
      <trkpt lat="48.54792" lon="-0.14722">
        <ele>287.510823</ele>
        <time>2021-09-06T12:03:11.000Z</time>
      </trkpt>
      <trkpt lat="48.54785" lon="-0.14691">
        <ele>287.642308</ele>
        <time>2021-09-06T12:03:17.000Z</time>
      </trkpt>
      <trkpt lat="48.54773" lon="-0.14642">
        <ele>287.854833</ele>
        <time>2021-09-06T12:03:25.000Z</time>
      </trkpt>
      <trkpt lat="48.54757" lon="-0.14582">
        <ele>288.117671</ele>
        <time>2021-09-06T12:03:34.000Z</time>
      </trkpt>
      <trkpt lat="48.54743" lon="-0.1452">
        <ele>288.385052</ele>
        <time>2021-09-06T12:03:43.000Z</time>
      </trkpt>
      <trkpt lat="48.54736" lon="-0.14465">
        <ele>288.336998</ele>
        <time>2021-09-06T12:03:50.000Z</time>
      </trkpt>
      <trkpt lat="48.54729" lon="-0.14401">
        <ele>288.22224</ele>
        <time>2021-09-06T12:03:58.000Z</time>
      </trkpt>
      <trkpt lat="48.54715" lon="-0.14333">
        <ele>288.095685</ele>
        <time>2021-09-06T12:04:07.000Z</time>
      </trkpt>
      <trkpt lat="48.54698" lon="-0.14262">
        <ele>287.964269</ele>
        <time>2021-09-06T12:04:16.000Z</time>
      </trkpt>
      <trkpt lat="48.54686" lon="-0.14209">
        <ele>287.878088</ele>
        <time>2021-09-06T12:04:23.000Z</time>
      </trkpt>
      <trkpt lat="48.54672" lon="-0.14149">
        <ele>287.784176</ele>
        <time>2021-09-06T12:04:31.000Z</time>
      </trkpt>
      <trkpt lat="48.54661" lon="-0.14103">
        <ele>287.712987</ele>
        <time>2021-09-06T12:04:38.000Z</time>
      </trkpt>
      <trkpt lat="48.5466" lon="-0.14095">
        <ele>287.702367</ele>
        <time>2021-09-06T12:04:39.000Z</time>
      </trkpt>
      <trkpt lat="48.5466" lon="-0.14067">
        <ele>287.660522</ele>
        <time>2021-09-06T12:04:43.000Z</time>
      </trkpt>
      <trkpt lat="48.54661" lon="-0.14053">
        <ele>287.640738</ele>
        <time>2021-09-06T12:04:45.000Z</time>
      </trkpt>
      <trkpt lat="48.54663" lon="-0.14041">
        <ele>287.622046</ele>
        <time>2021-09-06T12:04:47.000Z</time>
      </trkpt>
      <trkpt lat="48.54665" lon="-0.14029">
        <ele>287.604028</ele>
        <time>2021-09-06T12:04:49.000Z</time>
      </trkpt>
      <trkpt lat="48.54672" lon="-0.13979">
        <ele>287.547072</ele>
        <time>2021-09-06T12:04:57.000Z</time>
      </trkpt>
      <trkpt lat="48.54679" lon="-0.13928">
        <ele>287.564953</ele>
        <time>2021-09-06T12:05:05.000Z</time>
      </trkpt>
      <trkpt lat="48.54688" lon="-0.13894">
        <ele>287.577582</ele>
        <time>2021-09-06T12:05:10.000Z</time>
      </trkpt>
      <trkpt lat="48.54691" lon="-0.13888">
        <ele>287.580176</ele>
        <time>2021-09-06T12:05:11.000Z</time>
      </trkpt>
      <trkpt lat="48.54708" lon="-0.13861">
        <ele>287.592981</ele>
        <time>2021-09-06T12:05:16.000Z</time>
      </trkpt>
      <trkpt lat="48.54717" lon="-0.13842">
        <ele>287.601205</ele>
        <time>2021-09-06T12:05:19.000Z</time>
      </trkpt>
      <trkpt lat="48.54724" lon="-0.1382">
        <ele>287.609651</ele>
        <time>2021-09-06T12:05:22.000Z</time>
      </trkpt>
      <trkpt lat="48.54726" lon="-0.13813">
        <ele>287.612441</ele>
        <time>2021-09-06T12:05:23.000Z</time>
      </trkpt>
      <trkpt lat="48.54728" lon="-0.1379">
        <ele>287.62031</ele>
        <time>2021-09-06T12:05:26.000Z</time>
      </trkpt>
      <trkpt lat="48.54728" lon="-0.13783">
        <ele>287.622592</ele>
        <time>2021-09-06T12:05:27.000Z</time>
      </trkpt>
      <trkpt lat="48.54726" lon="-0.13762">
        <ele>287.629976</ele>
        <time>2021-09-06T12:05:31.000Z</time>
      </trkpt>
      <trkpt lat="48.5472" lon="-0.13741">
        <ele>287.648649</ele>
        <time>2021-09-06T12:05:38.000Z</time>
      </trkpt>
      <trkpt lat="48.54716" lon="-0.13738">
        <ele>287.709445</ele>
        <time>2021-09-06T12:05:40.000Z</time>
      </trkpt>
      <trkpt lat="48.54709" lon="-0.13738">
        <ele>287.815506</ele>
        <time>2021-09-06T12:05:43.000Z</time>
      </trkpt>
      <trkpt lat="48.5469" lon="-0.13736">
        <ele>288.095068</ele>
        <time>2021-09-06T12:05:50.000Z</time>
      </trkpt>
      <trkpt lat="48.54664" lon="-0.13732">
        <ele>288.482342</ele>
        <time>2021-09-06T12:05:58.000Z</time>
      </trkpt>
      <trkpt lat="48.54629" lon="-0.13721">
        <ele>289.007339</ele>
        <time>2021-09-06T12:06:09.000Z</time>
      </trkpt>
      <trkpt lat="48.54602" lon="-0.13714">
        <ele>289.406413</ele>
        <time>2021-09-06T12:06:17.000Z</time>
      </trkpt>
      <trkpt lat="48.54572" lon="-0.13706">
        <ele>289.850317</ele>
        <time>2021-09-06T12:06:26.000Z</time>
      </trkpt>
      <trkpt lat="48.54546" lon="-0.13696">
        <ele>290.244469</ele>
        <time>2021-09-06T12:06:34.000Z</time>
      </trkpt>
      <trkpt lat="48.54544" lon="-0.13693">
        <ele>290.296301</ele>
        <time>2021-09-06T12:06:35.000Z</time>
      </trkpt>
      <trkpt lat="48.54538" lon="-0.13681">
        <ele>290.515732</ele>
        <time>2021-09-06T12:06:38.000Z</time>
      </trkpt>
      <trkpt lat="48.54535" lon="-0.13663">
        <ele>290.808639</ele>
        <time>2021-09-06T12:06:42.000Z</time>
      </trkpt>
      <trkpt lat="48.5453" lon="-0.13642">
        <ele>291.136093</ele>
        <time>2021-09-06T12:06:47.000Z</time>
      </trkpt>
      <trkpt lat="48.54523" lon="-0.13619">
        <ele>291.517887</ele>
        <time>2021-09-06T12:06:53.000Z</time>
      </trkpt>
      <trkpt lat="48.54522" lon="-0.13595">
        <ele>291.874213</ele>
        <time>2021-09-06T12:06:58.000Z</time>
      </trkpt>
      <trkpt lat="48.54515" lon="-0.13563">
        <ele>292.373654</ele>
        <time>2021-09-06T12:07:05.000Z</time>
      </trkpt>
      <trkpt lat="48.54509" lon="-0.13526">
        <ele>292.947275</ele>
        <time>2021-09-06T12:07:13.000Z</time>
      </trkpt>
      <trkpt lat="48.54506" lon="-0.13491">
        <ele>293.481091</ele>
        <time>2021-09-06T12:07:21.000Z</time>
      </trkpt>
      <trkpt lat="48.54505" lon="-0.13454">
        <ele>294.033053</ele>
        <time>2021-09-06T12:07:29.000Z</time>
      </trkpt>
      <trkpt lat="48.54507" lon="-0.13409">
        <ele>294.757632</ele>
        <time>2021-09-06T12:07:38.000Z</time>
      </trkpt>
      <trkpt lat="48.5451" lon="-0.13372">
        <ele>295.405727</ele>
        <time>2021-09-06T12:07:45.000Z</time>
      </trkpt>
      <trkpt lat="48.54512" lon="-0.13337">
        <ele>295.998803</ele>
        <time>2021-09-06T12:07:51.000Z</time>
      </trkpt>
      <trkpt lat="48.54511" lon="-0.13331">
        <ele>296.104705</ele>
        <time>2021-09-06T12:07:52.000Z</time>
      </trkpt>
      <trkpt lat="48.5451" lon="-0.13308">
        <ele>296.496967</ele>
        <time>2021-09-06T12:07:56.000Z</time>
      </trkpt>
      <trkpt lat="48.5451" lon="-0.13295">
        <ele>296.719688</ele>
        <time>2021-09-06T12:07:58.000Z</time>
      </trkpt>
      <trkpt lat="48.54507" lon="-0.1327">
        <ele>297.151822</ele>
        <time>2021-09-06T12:08:02.000Z</time>
      </trkpt>
      <trkpt lat="48.54503" lon="-0.13243">
        <ele>297.629953</ele>
        <time>2021-09-06T12:08:07.000Z</time>
      </trkpt>
      <trkpt lat="48.545" lon="-0.13212">
        <ele>298.155406</ele>
        <time>2021-09-06T12:08:12.000Z</time>
      </trkpt>
      <trkpt lat="48.54494" lon="-0.13176">
        <ele>298.792386</ele>
        <time>2021-09-06T12:08:18.000Z</time>
      </trkpt>
      <trkpt lat="48.54492" lon="-0.13155">
        <ele>299.061244</ele>
        <time>2021-09-06T12:08:22.000Z</time>
      </trkpt>
      <trkpt lat="48.54489" lon="-0.13124">
        <ele>299.259519</ele>
        <time>2021-09-06T12:08:27.000Z</time>
      </trkpt>
      <trkpt lat="48.54486" lon="-0.13089">
        <ele>299.478</ele>
        <time>2021-09-06T12:08:32.000Z</time>
      </trkpt>
      <trkpt lat="48.54486" lon="-0.13082">
        <ele>299.523088</ele>
        <time>2021-09-06T12:08:33.000Z</time>
      </trkpt>
      <trkpt lat="48.54484" lon="-0.13057">
        <ele>299.680264</ele>
        <time>2021-09-06T12:08:36.000Z</time>
      </trkpt>
      <trkpt lat="48.54481" lon="-0.13027">
        <ele>299.873873</ele>
        <time>2021-09-06T12:08:40.000Z</time>
      </trkpt>
      <trkpt lat="48.54481" lon="-0.13012">
        <ele>299.967964</ele>
        <time>2021-09-06T12:08:42.000Z</time>
      </trkpt>
      <trkpt lat="48.54481" lon="-0.12994">
        <ele>300.086067</ele>
        <time>2021-09-06T12:08:45.000Z</time>
      </trkpt>
      <trkpt lat="48.54475" lon="-0.12953">
        <ele>300.345483</ele>
        <time>2021-09-06T12:08:51.000Z</time>
      </trkpt>
      <trkpt lat="48.54474" lon="-0.12922">
        <ele>300.543469</ele>
        <time>2021-09-06T12:08:56.000Z</time>
      </trkpt>
      <trkpt lat="48.54469" lon="-0.12891">
        <ele>300.733047</ele>
        <time>2021-09-06T12:09:01.000Z</time>
      </trkpt>
      <trkpt lat="48.54469" lon="-0.12853">
        <ele>300.864293</ele>
        <time>2021-09-06T12:09:07.000Z</time>
      </trkpt>
      <trkpt lat="48.54478" lon="-0.12821">
        <ele>300.979813</ele>
        <time>2021-09-06T12:09:12.000Z</time>
      </trkpt>
      <trkpt lat="48.54478" lon="-0.12815">
        <ele>301.001061</ele>
        <time>2021-09-06T12:09:13.000Z</time>
      </trkpt>
      <trkpt lat="48.54475" lon="-0.12811">
        <ele>301.020811</ele>
        <time>2021-09-06T12:09:14.000Z</time>
      </trkpt>
      <trkpt lat="48.54472" lon="-0.12808">
        <ele>301.040233</ele>
        <time>2021-09-06T12:09:15.000Z</time>
      </trkpt>
      <trkpt lat="48.5446" lon="-0.128">
        <ele>301.110376</ele>
        <time>2021-09-06T12:09:20.000Z</time>
      </trkpt>
      <trkpt lat="48.54448" lon="-0.12787">
        <ele>301.183265</ele>
        <time>2021-09-06T12:09:26.000Z</time>
      </trkpt>
      <trkpt lat="48.54429" lon="-0.12773">
        <ele>301.294385</ele>
        <time>2021-09-06T12:09:32.000Z</time>
      </trkpt>
      <trkpt lat="48.54411" lon="-0.12768">
        <ele>301.388805</ele>
        <time>2021-09-06T12:09:36.000Z</time>
      </trkpt>
      <trkpt lat="48.54398" lon="-0.12761">
        <ele>301.459127</ele>
        <time>2021-09-06T12:09:39.000Z</time>
      </trkpt>
      <trkpt lat="48.54377" lon="-0.12748">
        <ele>301.575712</ele>
        <time>2021-09-06T12:09:44.000Z</time>
      </trkpt>
      <trkpt lat="48.54369" lon="-0.12744">
        <ele>301.622181</ele>
        <time>2021-09-06T12:09:46.000Z</time>
      </trkpt>
      <trkpt lat="48.54337" lon="-0.12736">
        <ele>301.398929</ele>
        <time>2021-09-06T12:09:52.000Z</time>
      </trkpt>
      <trkpt lat="48.54294" lon="-0.12724">
        <ele>300.982946</ele>
        <time>2021-09-06T12:09:59.000Z</time>
      </trkpt>
      <trkpt lat="48.5428" lon="-0.1272">
        <ele>300.851467</ele>
        <time>2021-09-06T12:10:01.000Z</time>
      </trkpt>
      <trkpt lat="48.54269" lon="-0.12709">
        <ele>300.729374</ele>
        <time>2021-09-06T12:10:03.000Z</time>
      </trkpt>
      <trkpt lat="48.54267" lon="-0.12691">
        <ele>300.617159</ele>
        <time>2021-09-06T12:10:05.000Z</time>
      </trkpt>
      <trkpt lat="48.54285" lon="-0.12641">
        <ele>300.265521</ele>
        <time>2021-09-06T12:10:11.000Z</time>
      </trkpt>
      <trkpt lat="48.54305" lon="-0.12573">
        <ele>299.880747</ele>
        <time>2021-09-06T12:10:19.000Z</time>
      </trkpt>
      <trkpt lat="48.54319" lon="-0.12526">
        <ele>299.717834</ele>
        <time>2021-09-06T12:10:25.000Z</time>
      </trkpt>
      <trkpt lat="48.54336" lon="-0.12486">
        <ele>299.564139</ele>
        <time>2021-09-06T12:10:31.000Z</time>
      </trkpt>
      <trkpt lat="48.54357" lon="-0.12443">
        <ele>299.395211</ele>
        <time>2021-09-06T12:10:38.000Z</time>
      </trkpt>
      <trkpt lat="48.54362" lon="-0.1243">
        <ele>299.347944</ele>
        <time>2021-09-06T12:10:40.000Z</time>
      </trkpt>
      <trkpt lat="48.54368" lon="-0.1241">
        <ele>299.278725</ele>
        <time>2021-09-06T12:10:43.000Z</time>
      </trkpt>
      <trkpt lat="48.54369" lon="-0.12404">
        <ele>299.256358</ele>
        <time>2021-09-06T12:10:44.000Z</time>
      </trkpt>
      <trkpt lat="48.54371" lon="-0.12382">
        <ele>299.186294</ele>
        <time>2021-09-06T12:10:47.000Z</time>
      </trkpt>
      <trkpt lat="48.54374" lon="-0.12321">
        <ele>299.059436</ele>
        <time>2021-09-06T12:10:55.000Z</time>
      </trkpt>
      <trkpt lat="48.54375" lon="-0.12273">
        <ele>299.002804</ele>
        <time>2021-09-06T12:11:01.000Z</time>
      </trkpt>
      <trkpt lat="48.54377" lon="-0.12196">
        <ele>298.912188</ele>
        <time>2021-09-06T12:11:11.000Z</time>
      </trkpt>
      <trkpt lat="48.54379" lon="-0.12143">
        <ele>298.850383</ele>
        <time>2021-09-06T12:11:18.000Z</time>
      </trkpt>
      <trkpt lat="48.54381" lon="-0.12076">
        <ele>298.743723</ele>
        <time>2021-09-06T12:11:27.000Z</time>
      </trkpt>
      <trkpt lat="48.54382" lon="-0.12031">
        <ele>298.495358</ele>
        <time>2021-09-06T12:11:33.000Z</time>
      </trkpt>
      <trkpt lat="48.54381" lon="-0.12016">
        <ele>298.41076</ele>
        <time>2021-09-06T12:11:35.000Z</time>
      </trkpt>
      <trkpt lat="48.5438" lon="-0.11953">
        <ele>298.06842</ele>
        <time>2021-09-06T12:11:43.000Z</time>
      </trkpt>
      <trkpt lat="48.54378" lon="-0.11896">
        <ele>297.753132</ele>
        <time>2021-09-06T12:11:50.000Z</time>
      </trkpt>
      <trkpt lat="48.54376" lon="-0.1184">
        <ele>297.443148</ele>
        <time>2021-09-06T12:11:57.000Z</time>
      </trkpt>
      <trkpt lat="48.54377" lon="-0.11832">
        <ele>297.399688</ele>
        <time>2021-09-06T12:11:58.000Z</time>
      </trkpt>
      <trkpt lat="48.54377" lon="-0.11776">
        <ele>297.26523</ele>
        <time>2021-09-06T12:12:05.000Z</time>
      </trkpt>
      <trkpt lat="48.54378" lon="-0.1176">
        <ele>297.255038</ele>
        <time>2021-09-06T12:12:07.000Z</time>
      </trkpt>
      <trkpt lat="48.54378" lon="-0.11736">
        <ele>297.240213</ele>
        <time>2021-09-06T12:12:10.000Z</time>
      </trkpt>
      <trkpt lat="48.5438" lon="-0.11688">
        <ele>297.209398</ele>
        <time>2021-09-06T12:12:17.000Z</time>
      </trkpt>
      <trkpt lat="48.54381" lon="-0.11682">
        <ele>297.205542</ele>
        <time>2021-09-06T12:12:18.000Z</time>
      </trkpt>
      <trkpt lat="48.54382" lon="-0.11675">
        <ele>297.201393</ele>
        <time>2021-09-06T12:12:19.000Z</time>
      </trkpt>
      <trkpt lat="48.54388" lon="-0.11644">
        <ele>297.180768</ele>
        <time>2021-09-06T12:12:24.000Z</time>
      </trkpt>
      <trkpt lat="48.54397" lon="-0.11603">
        <ele>297.153158</ele>
        <time>2021-09-06T12:12:31.000Z</time>
      </trkpt>
      <trkpt lat="48.54407" lon="-0.11546">
        <ele>297.116446</ele>
        <time>2021-09-06T12:12:40.000Z</time>
      </trkpt>
      <trkpt lat="48.54414" lon="-0.115">
        <ele>297.12121</ele>
        <time>2021-09-06T12:12:48.000Z</time>
      </trkpt>
      <trkpt lat="48.54427" lon="-0.11464">
        <ele>297.125834</ele>
        <time>2021-09-06T12:12:55.000Z</time>
      </trkpt>
      <trkpt lat="48.54443" lon="-0.11428">
        <ele>297.130859</ele>
        <time>2021-09-06T12:13:02.000Z</time>
      </trkpt>
      <trkpt lat="48.54459" lon="-0.11387">
        <ele>297.136278</ele>
        <time>2021-09-06T12:13:09.000Z</time>
      </trkpt>
      <trkpt lat="48.54461" lon="-0.11382">
        <ele>297.137006</ele>
        <time>2021-09-06T12:13:10.000Z</time>
      </trkpt>
      <trkpt lat="48.54466" lon="-0.1137">
        <ele>297.138597</ele>
        <time>2021-09-06T12:13:12.000Z</time>
      </trkpt>
      <trkpt lat="48.5447" lon="-0.11357">
        <ele>297.140191</ele>
        <time>2021-09-06T12:13:14.000Z</time>
      </trkpt>
      <trkpt lat="48.54472" lon="-0.11351">
        <ele>297.141025</ele>
        <time>2021-09-06T12:13:15.000Z</time>
      </trkpt>
      <trkpt lat="48.54474" lon="-0.11345">
        <ele>297.141823</ele>
        <time>2021-09-06T12:13:16.000Z</time>
      </trkpt>
      <trkpt lat="48.54482" lon="-0.11316">
        <ele>297.145443</ele>
        <time>2021-09-06T12:13:20.000Z</time>
      </trkpt>
      <trkpt lat="48.54493" lon="-0.11256">
        <ele>296.686593</ele>
        <time>2021-09-06T12:13:27.000Z</time>
      </trkpt>
      <trkpt lat="48.54499" lon="-0.112">
        <ele>296.150376</ele>
        <time>2021-09-06T12:13:33.000Z</time>
      </trkpt>
      <trkpt lat="48.54502" lon="-0.11129">
        <ele>295.480189</ele>
        <time>2021-09-06T12:13:40.000Z</time>
      </trkpt>
      <trkpt lat="48.54508" lon="-0.11063">
        <ele>294.849601</ele>
        <time>2021-09-06T12:13:46.000Z</time>
      </trkpt>
      <trkpt lat="48.54518" lon="-0.10991">
        <ele>293.962303</ele>
        <time>2021-09-06T12:13:52.000Z</time>
      </trkpt>
      <trkpt lat="48.54526" lon="-0.1091">
        <ele>292.835843</ele>
        <time>2021-09-06T12:13:58.000Z</time>
      </trkpt>
      <trkpt lat="48.54529" lon="-0.10842">
        <ele>291.895787</ele>
        <time>2021-09-06T12:14:03.000Z</time>
      </trkpt>
      <trkpt lat="48.54529" lon="-0.10772">
        <ele>290.922243</ele>
        <time>2021-09-06T12:14:08.000Z</time>
      </trkpt>
      <trkpt lat="48.54527" lon="-0.10689">
        <ele>289.109492</ele>
        <time>2021-09-06T12:14:14.000Z</time>
      </trkpt>
      <trkpt lat="48.54528" lon="-0.10676">
        <ele>288.822999</ele>
        <time>2021-09-06T12:14:15.000Z</time>
      </trkpt>
      <trkpt lat="48.5453" lon="-0.10664">
        <ele>288.544059</ele>
        <time>2021-09-06T12:14:16.000Z</time>
      </trkpt>
      <trkpt lat="48.54537" lon="-0.10645">
        <ele>288.045394</ele>
        <time>2021-09-06T12:14:18.000Z</time>
      </trkpt>
      <trkpt lat="48.54539" lon="-0.10637">
        <ele>287.842398</ele>
        <time>2021-09-06T12:14:19.000Z</time>
      </trkpt>
      <trkpt lat="48.54539" lon="-0.10619">
        <ele>287.437745</ele>
        <time>2021-09-06T12:14:21.000Z</time>
      </trkpt>
      <trkpt lat="48.54532" lon="-0.10604">
        <ele>287.020727</ele>
        <time>2021-09-06T12:14:23.000Z</time>
      </trkpt>
      <trkpt lat="48.54524" lon="-0.1059">
        <ele>286.609267</ele>
        <time>2021-09-06T12:14:25.000Z</time>
      </trkpt>
      <trkpt lat="48.54504" lon="-0.10555">
        <ele>285.555623</ele>
        <time>2021-09-06T12:14:30.000Z</time>
      </trkpt>
      <trkpt lat="48.54499" lon="-0.10549">
        <ele>285.346943</ele>
        <time>2021-09-06T12:14:31.000Z</time>
      </trkpt>
      <trkpt lat="48.54473" lon="-0.10521">
        <ele>284.356687</ele>
        <time>2021-09-06T12:14:37.000Z</time>
      </trkpt>
      <trkpt lat="48.54444" lon="-0.10494">
        <ele>283.50581</ele>
        <time>2021-09-06T12:14:44.000Z</time>
      </trkpt>
      <trkpt lat="48.54405" lon="-0.10459">
        <ele>282.364866</ele>
        <time>2021-09-06T12:14:54.000Z</time>
      </trkpt>
      <trkpt lat="48.5438" lon="-0.10438">
        <ele>281.628141</ele>
        <time>2021-09-06T12:15:01.000Z</time>
      </trkpt>
      <trkpt lat="48.54352" lon="-0.10414">
        <ele>280.824681</ele>
        <time>2021-09-06T12:15:09.000Z</time>
      </trkpt>
      <trkpt lat="48.5433" lon="-0.10393">
        <ele>280.153284</ele>
        <time>2021-09-06T12:15:16.000Z</time>
      </trkpt>
      <trkpt lat="48.54304" lon="-0.10357">
        <ele>279.38048</ele>
        <time>2021-09-06T12:15:24.000Z</time>
      </trkpt>
      <trkpt lat="48.54293" lon="-0.1034">
        <ele>279.034655</ele>
        <time>2021-09-06T12:15:27.000Z</time>
      </trkpt>
      <trkpt lat="48.54286" lon="-0.10327">
        <ele>278.793413</ele>
        <time>2021-09-06T12:15:29.000Z</time>
      </trkpt>
      <trkpt lat="48.54278" lon="-0.10316">
        <ele>278.552557</ele>
        <time>2021-09-06T12:15:31.000Z</time>
      </trkpt>
      <trkpt lat="48.54266" lon="-0.10297">
        <ele>278.179363</ele>
        <time>2021-09-06T12:15:34.000Z</time>
      </trkpt>
      <trkpt lat="48.54238" lon="-0.10255">
        <ele>277.31397</ele>
        <time>2021-09-06T12:15:40.000Z</time>
      </trkpt>
      <trkpt lat="48.54201" lon="-0.10199">
        <ele>276.147315</ele>
        <time>2021-09-06T12:15:47.000Z</time>
      </trkpt>
      <trkpt lat="48.54168" lon="-0.10162">
        <ele>275.258958</ele>
        <time>2021-09-06T12:15:52.000Z</time>
      </trkpt>
      <trkpt lat="48.54125" lon="-0.10123">
        <ele>274.172692</ele>
        <time>2021-09-06T12:15:58.000Z</time>
      </trkpt>
      <trkpt lat="48.54089" lon="-0.10101">
        <ele>273.314514</ele>
        <time>2021-09-06T12:16:03.000Z</time>
      </trkpt>
      <trkpt lat="48.54059" lon="-0.10085">
        <ele>272.611872</ele>
        <time>2021-09-06T12:16:08.000Z</time>
      </trkpt>
      <trkpt lat="48.54042" lon="-0.10073">
        <ele>272.282421</ele>
        <time>2021-09-06T12:16:12.000Z</time>
      </trkpt>
      <trkpt lat="48.54027" lon="-0.10059">
        <ele>272.407228</ele>
        <time>2021-09-06T12:16:18.000Z</time>
      </trkpt>
      <trkpt lat="48.54008" lon="-0.10038">
        <ele>272.57238</ele>
        <time>2021-09-06T12:16:28.000Z</time>
      </trkpt>
      <trkpt lat="48.53994" lon="-0.10022">
        <ele>272.699998</ele>
        <time>2021-09-06T12:16:36.000Z</time>
      </trkpt>
      <trkpt lat="48.53979" lon="-0.10004">
        <ele>272.832158</ele>
        <time>2021-09-06T12:16:44.000Z</time>
      </trkpt>
      <trkpt lat="48.53963" lon="-0.09982">
        <ele>272.989746</ele>
        <time>2021-09-06T12:16:54.000Z</time>
      </trkpt>
      <trkpt lat="48.53952" lon="-0.09966">
        <ele>273.096449</ele>
        <time>2021-09-06T12:17:01.000Z</time>
      </trkpt>
      <trkpt lat="48.53937" lon="-0.09945">
        <ele>273.238392</ele>
        <time>2021-09-06T12:17:10.000Z</time>
      </trkpt>
      <trkpt lat="48.53924" lon="-0.09926">
        <ele>273.366834</ele>
        <time>2021-09-06T12:17:18.000Z</time>
      </trkpt>
      <trkpt lat="48.5391" lon="-0.09912">
        <ele>273.486297</ele>
        <time>2021-09-06T12:17:26.000Z</time>
      </trkpt>
      <trkpt lat="48.53894" lon="-0.09903">
        <ele>273.951439</ele>
        <time>2021-09-06T12:17:34.000Z</time>
      </trkpt>
      <trkpt lat="48.53878" lon="-0.09894">
        <ele>274.71369</ele>
        <time>2021-09-06T12:17:42.000Z</time>
      </trkpt>
      <trkpt lat="48.53862" lon="-0.09887">
        <ele>275.470113</ele>
        <time>2021-09-06T12:17:50.000Z</time>
      </trkpt>
      <trkpt lat="48.53844" lon="-0.09878">
        <ele>276.325043</ele>
        <time>2021-09-06T12:17:59.000Z</time>
      </trkpt>
      <trkpt lat="48.5383" lon="-0.09871">
        <ele>276.974749</ele>
        <time>2021-09-06T12:18:06.000Z</time>
      </trkpt>
      <trkpt lat="48.53813" lon="-0.09863">
        <ele>277.734719</ele>
        <time>2021-09-06T12:18:14.000Z</time>
      </trkpt>
      <trkpt lat="48.53799" lon="-0.09857">
        <ele>278.386719</ele>
        <time>2021-09-06T12:18:21.000Z</time>
      </trkpt>
      <trkpt lat="48.53783" lon="-0.09848">
        <ele>279.14106</ele>
        <time>2021-09-06T12:18:29.000Z</time>
      </trkpt>
      <trkpt lat="48.53768" lon="-0.09841">
        <ele>279.830969</ele>
        <time>2021-09-06T12:18:36.000Z</time>
      </trkpt>
      <trkpt lat="48.5375" lon="-0.09826">
        <ele>280.760386</ele>
        <time>2021-09-06T12:18:45.000Z</time>
      </trkpt>
      <trkpt lat="48.53734" lon="-0.09806">
        <ele>281.568885</ele>
        <time>2021-09-06T12:18:53.000Z</time>
      </trkpt>
      <trkpt lat="48.53717" lon="-0.09782">
        <ele>281.945984</ele>
        <time>2021-09-06T12:19:01.000Z</time>
      </trkpt>
      <trkpt lat="48.53705" lon="-0.09767">
        <ele>282.210173</ele>
        <time>2021-09-06T12:19:07.000Z</time>
      </trkpt>
      <trkpt lat="48.53681" lon="-0.09743">
        <ele>282.664073</ele>
        <time>2021-09-06T12:19:15.000Z</time>
      </trkpt>
      <trkpt lat="48.53663" lon="-0.0973">
        <ele>282.989154</ele>
        <time>2021-09-06T12:19:20.000Z</time>
      </trkpt>
      <trkpt lat="48.53636" lon="-0.09712">
        <ele>283.468675</ele>
        <time>2021-09-06T12:19:26.000Z</time>
      </trkpt>
      <trkpt lat="48.53605" lon="-0.09689">
        <ele>284.026943</ele>
        <time>2021-09-06T12:19:32.000Z</time>
      </trkpt>
      <trkpt lat="48.53565" lon="-0.0965">
        <ele>284.205907</ele>
        <time>2021-09-06T12:19:39.000Z</time>
      </trkpt>
      <trkpt lat="48.5353" lon="-0.09611">
        <ele>283.798921</ele>
        <time>2021-09-06T12:19:45.000Z</time>
      </trkpt>
      <trkpt lat="48.53498" lon="-0.0957">
        <ele>283.401092</ele>
        <time>2021-09-06T12:19:51.000Z</time>
      </trkpt>
      <trkpt lat="48.53493" lon="-0.09563">
        <ele>283.33774</ele>
        <time>2021-09-06T12:19:52.000Z</time>
      </trkpt>
      <trkpt lat="48.53461" lon="-0.09524">
        <ele>282.954133</ele>
        <time>2021-09-06T12:19:58.000Z</time>
      </trkpt>
      <trkpt lat="48.53455" lon="-0.09518">
        <ele>282.891452</ele>
        <time>2021-09-06T12:19:59.000Z</time>
      </trkpt>
      <trkpt lat="48.53449" lon="-0.09514">
        <ele>282.828673</ele>
        <time>2021-09-06T12:20:00.000Z</time>
      </trkpt>
      <trkpt lat="48.53424" lon="-0.09502">
        <ele>282.522639</ele>
        <time>2021-09-06T12:20:04.000Z</time>
      </trkpt>
      <trkpt lat="48.5339" lon="-0.09493">
        <ele>282.079741</ele>
        <time>2021-09-06T12:20:09.000Z</time>
      </trkpt>
      <trkpt lat="48.53356" lon="-0.09479">
        <ele>281.616899</ele>
        <time>2021-09-06T12:20:14.000Z</time>
      </trkpt>
      <trkpt lat="48.5333" lon="-0.09458">
        <ele>281.239767</ele>
        <time>2021-09-06T12:20:18.000Z</time>
      </trkpt>
      <trkpt lat="48.53317" lon="-0.09446">
        <ele>281.044634</ele>
        <time>2021-09-06T12:20:20.000Z</time>
      </trkpt>
      <trkpt lat="48.53268" lon="-0.09407">
        <ele>280.254988</ele>
        <time>2021-09-06T12:20:27.000Z</time>
      </trkpt>
      <trkpt lat="48.53261" lon="-0.09402">
        <ele>280.058013</ele>
        <time>2021-09-06T12:20:28.000Z</time>
      </trkpt>
      <trkpt lat="48.53218" lon="-0.09386">
        <ele>278.984532</ele>
        <time>2021-09-06T12:20:33.000Z</time>
      </trkpt>
      <trkpt lat="48.53159" lon="-0.09373">
        <ele>277.555671</ele>
        <time>2021-09-06T12:20:39.000Z</time>
      </trkpt>
      <trkpt lat="48.5312" lon="-0.09372">
        <ele>276.599654</ele>
        <time>2021-09-06T12:20:43.000Z</time>
      </trkpt>
      <trkpt lat="48.53102" lon="-0.09369">
        <ele>276.156194</ele>
        <time>2021-09-06T12:20:45.000Z</time>
      </trkpt>
      <trkpt lat="48.53085" lon="-0.09364">
        <ele>275.773753</ele>
        <time>2021-09-06T12:20:47.000Z</time>
      </trkpt>
      <trkpt lat="48.53038" lon="-0.0935">
        <ele>274.749004</ele>
        <time>2021-09-06T12:20:53.000Z</time>
      </trkpt>
      <trkpt lat="48.52988" lon="-0.09346">
        <ele>273.660408</ele>
        <time>2021-09-06T12:21:00.000Z</time>
      </trkpt>
      <trkpt lat="48.52942" lon="-0.09343">
        <ele>272.678289</ele>
        <time>2021-09-06T12:21:07.000Z</time>
      </trkpt>
      <trkpt lat="48.52912" lon="-0.09335">
        <ele>271.961507</ele>
        <time>2021-09-06T12:21:13.000Z</time>
      </trkpt>
      <trkpt lat="48.52895" lon="-0.09329">
        <ele>271.45507</ele>
        <time>2021-09-06T12:21:17.000Z</time>
      </trkpt>
      <trkpt lat="48.52886" lon="-0.09326">
        <ele>271.205098</ele>
        <time>2021-09-06T12:21:19.000Z</time>
      </trkpt>
      <trkpt lat="48.52854" lon="-0.09315">
        <ele>270.257675</ele>
        <time>2021-09-06T12:21:26.000Z</time>
      </trkpt>
      <trkpt lat="48.52824" lon="-0.09303">
        <ele>269.383224</ele>
        <time>2021-09-06T12:21:31.000Z</time>
      </trkpt>
      <trkpt lat="48.52787" lon="-0.09284">
        <ele>268.285131</ele>
        <time>2021-09-06T12:21:36.000Z</time>
      </trkpt>
      <trkpt lat="48.52772" lon="-0.09273">
        <ele>267.791988</ele>
        <time>2021-09-06T12:21:38.000Z</time>
      </trkpt>
      <trkpt lat="48.52758" lon="-0.09256">
        <ele>267.283182</ele>
        <time>2021-09-06T12:21:40.000Z</time>
      </trkpt>
      <trkpt lat="48.5273" lon="-0.09219">
        <ele>266.087103</ele>
        <time>2021-09-06T12:21:44.000Z</time>
      </trkpt>
      <trkpt lat="48.52722" lon="-0.09211">
        <ele>265.771972</ele>
        <time>2021-09-06T12:21:45.000Z</time>
      </trkpt>
      <trkpt lat="48.52713" lon="-0.09204">
        <ele>265.459901</ele>
        <time>2021-09-06T12:21:46.000Z</time>
      </trkpt>
      <trkpt lat="48.52689" lon="-0.09185">
        <ele>264.552382</ele>
        <time>2021-09-06T12:21:49.000Z</time>
      </trkpt>
      <trkpt lat="48.5265" lon="-0.09154">
        <ele>263.092237</ele>
        <time>2021-09-06T12:21:54.000Z</time>
      </trkpt>
      <trkpt lat="48.52628" lon="-0.09128">
        <ele>262.169289</ele>
        <time>2021-09-06T12:21:58.000Z</time>
      </trkpt>
      <trkpt lat="48.52611" lon="-0.09104">
        <ele>261.371752</ele>
        <time>2021-09-06T12:22:03.000Z</time>
      </trkpt>
      <trkpt lat="48.52597" lon="-0.09086">
        <ele>261.024612</ele>
        <time>2021-09-06T12:22:09.000Z</time>
      </trkpt>
      <trkpt lat="48.52583" lon="-0.09067">
        <ele>260.872105</ele>
        <time>2021-09-06T12:22:17.000Z</time>
      </trkpt>
      <trkpt lat="48.52568" lon="-0.09046">
        <ele>260.716029</ele>
        <time>2021-09-06T12:22:26.000Z</time>
      </trkpt>
      <trkpt lat="48.52549" lon="-0.09021">
        <ele>260.519659</ele>
        <time>2021-09-06T12:22:37.000Z</time>
      </trkpt>
      <trkpt lat="48.52536" lon="-0.09003">
        <ele>260.379796</ele>
        <time>2021-09-06T12:22:45.000Z</time>
      </trkpt>
      <trkpt lat="48.52523" lon="-0.08983">
        <ele>260.234817</ele>
        <time>2021-09-06T12:22:53.000Z</time>
      </trkpt>
      <trkpt lat="48.52513" lon="-0.08969">
        <ele>260.13095</ele>
        <time>2021-09-06T12:22:59.000Z</time>
      </trkpt>
      <trkpt lat="48.525" lon="-0.08947">
        <ele>259.977342</ele>
        <time>2021-09-06T12:23:08.000Z</time>
      </trkpt>
      <trkpt lat="48.52487" lon="-0.0893">
        <ele>259.843898</ele>
        <time>2021-09-06T12:23:16.000Z</time>
      </trkpt>
      <trkpt lat="48.52476" lon="-0.0891">
        <ele>259.707772</ele>
        <time>2021-09-06T12:23:24.000Z</time>
      </trkpt>
      <trkpt lat="48.52465" lon="-0.08892">
        <ele>259.601306</ele>
        <time>2021-09-06T12:23:32.000Z</time>
      </trkpt>
      <trkpt lat="48.52454" lon="-0.08876">
        <ele>259.503353</ele>
        <time>2021-09-06T12:23:40.000Z</time>
      </trkpt>
      <trkpt lat="48.52441" lon="-0.08856">
        <ele>259.388781</ele>
        <time>2021-09-06T12:23:48.000Z</time>
      </trkpt>
      <trkpt lat="48.52424" lon="-0.08832">
        <ele>259.241033</ele>
        <time>2021-09-06T12:23:56.000Z</time>
      </trkpt>
      <trkpt lat="48.52408" lon="-0.08815">
        <ele>259.118417</ele>
        <time>2021-09-06T12:24:02.000Z</time>
      </trkpt>
      <trkpt lat="48.52398" lon="-0.08807">
        <ele>259.045604</ele>
        <time>2021-09-06T12:24:06.000Z</time>
      </trkpt>
      <trkpt lat="48.52376" lon="-0.08791">
        <ele>258.889879</ele>
        <time>2021-09-06T12:24:14.000Z</time>
      </trkpt>
      <trkpt lat="48.52361" lon="-0.0878">
        <ele>258.781914</ele>
        <time>2021-09-06T12:24:19.000Z</time>
      </trkpt>
      <trkpt lat="48.52342" lon="-0.08767">
        <ele>258.652263</ele>
        <time>2021-09-06T12:24:24.000Z</time>
      </trkpt>
      <trkpt lat="48.52339" lon="-0.08764">
        <ele>258.625414</ele>
        <time>2021-09-06T12:24:25.000Z</time>
      </trkpt>
      <trkpt lat="48.52335" lon="-0.0876">
        <ele>258.596189</ele>
        <time>2021-09-06T12:24:26.000Z</time>
      </trkpt>
      <trkpt lat="48.52321" lon="-0.08751">
        <ele>258.465047</ele>
        <time>2021-09-06T12:24:29.000Z</time>
      </trkpt>
      <trkpt lat="48.52289" lon="-0.08725">
        <ele>258.078744</ele>
        <time>2021-09-06T12:24:35.000Z</time>
      </trkpt>
      <trkpt lat="48.52278" lon="-0.08714">
        <ele>257.940134</ele>
        <time>2021-09-06T12:24:37.000Z</time>
      </trkpt>
      <trkpt lat="48.52266" lon="-0.08705">
        <ele>257.798791</ele>
        <time>2021-09-06T12:24:39.000Z</time>
      </trkpt>
      <trkpt lat="48.52255" lon="-0.08695">
        <ele>257.658046</ele>
        <time>2021-09-06T12:24:41.000Z</time>
      </trkpt>
      <trkpt lat="48.52237" lon="-0.08679">
        <ele>257.440905</ele>
        <time>2021-09-06T12:24:44.000Z</time>
      </trkpt>
      <trkpt lat="48.52195" lon="-0.08641">
        <ele>256.916118</ele>
        <time>2021-09-06T12:24:51.000Z</time>
      </trkpt>
      <trkpt lat="48.5217" lon="-0.0862">
        <ele>256.597422</ele>
        <time>2021-09-06T12:24:55.000Z</time>
      </trkpt>
      <trkpt lat="48.52157" lon="-0.08612">
        <ele>256.331917</ele>
        <time>2021-09-06T12:24:57.000Z</time>
      </trkpt>
      <trkpt lat="48.5215" lon="-0.08609">
        <ele>256.196368</ele>
        <time>2021-09-06T12:24:58.000Z</time>
      </trkpt>
      <trkpt lat="48.52135" lon="-0.08606">
        <ele>255.925416</ele>
        <time>2021-09-06T12:25:00.000Z</time>
      </trkpt>
      <trkpt lat="48.52128" lon="-0.08606">
        <ele>255.786302</ele>
        <time>2021-09-06T12:25:01.000Z</time>
      </trkpt>
      <trkpt lat="48.52104" lon="-0.08604">
        <ele>255.350851</ele>
        <time>2021-09-06T12:25:04.000Z</time>
      </trkpt>
      <trkpt lat="48.52088" lon="-0.08597">
        <ele>255.044231</ele>
        <time>2021-09-06T12:25:06.000Z</time>
      </trkpt>
      <trkpt lat="48.52075" lon="-0.0858">
        <ele>254.722552</ele>
        <time>2021-09-06T12:25:08.000Z</time>
      </trkpt>
      <trkpt lat="48.5207" lon="-0.08569">
        <ele>254.551809</ele>
        <time>2021-09-06T12:25:09.000Z</time>
      </trkpt>
      <trkpt lat="48.52055" lon="-0.08533">
        <ele>254.028207</ele>
        <time>2021-09-06T12:25:12.000Z</time>
      </trkpt>
      <trkpt lat="48.52042" lon="-0.08512">
        <ele>253.674842</ele>
        <time>2021-09-06T12:25:14.000Z</time>
      </trkpt>
      <trkpt lat="48.52034" lon="-0.08502">
        <ele>253.499581</ele>
        <time>2021-09-06T12:25:15.000Z</time>
      </trkpt>
      <trkpt lat="48.52018" lon="-0.08486">
        <ele>253.120769</ele>
        <time>2021-09-06T12:25:17.000Z</time>
      </trkpt>
      <trkpt lat="48.51968" lon="-0.08438">
        <ele>251.894701</ele>
        <time>2021-09-06T12:25:23.000Z</time>
      </trkpt>
      <trkpt lat="48.51959" lon="-0.08429">
        <ele>251.679782</ele>
        <time>2021-09-06T12:25:24.000Z</time>
      </trkpt>
      <trkpt lat="48.51913" lon="-0.08382">
        <ele>250.523679</ele>
        <time>2021-09-06T12:25:29.000Z</time>
      </trkpt>
      <trkpt lat="48.51872" lon="-0.0835">
        <ele>249.574055</ele>
        <time>2021-09-06T12:25:33.000Z</time>
      </trkpt>
      <trkpt lat="48.51861" lon="-0.08347">
        <ele>249.356655</ele>
        <time>2021-09-06T12:25:34.000Z</time>
      </trkpt>
      <trkpt lat="48.51821" lon="-0.08342">
        <ele>248.544984</ele>
        <time>2021-09-06T12:25:38.000Z</time>
      </trkpt>
      <trkpt lat="48.51788" lon="-0.08331">
        <ele>247.876612</ele>
        <time>2021-09-06T12:25:42.000Z</time>
      </trkpt>
      <trkpt lat="48.51763" lon="-0.08318">
        <ele>247.338795</ele>
        <time>2021-09-06T12:25:46.000Z</time>
      </trkpt>
      <trkpt lat="48.51737" lon="-0.08305">
        <ele>246.805367</ele>
        <time>2021-09-06T12:25:51.000Z</time>
      </trkpt>
      <trkpt lat="48.51725" lon="-0.08298">
        <ele>246.54596</ele>
        <time>2021-09-06T12:25:54.000Z</time>
      </trkpt>
      <trkpt lat="48.51714" lon="-0.0829">
        <ele>246.303777</ele>
        <time>2021-09-06T12:25:57.000Z</time>
      </trkpt>
      <trkpt lat="48.51691" lon="-0.08271">
        <ele>245.807838</ele>
        <time>2021-09-06T12:26:05.000Z</time>
      </trkpt>
      <trkpt lat="48.51665" lon="-0.08246">
        <ele>245.295109</ele>
        <time>2021-09-06T12:26:15.000Z</time>
      </trkpt>
      <trkpt lat="48.51641" lon="-0.08223">
        <ele>244.808467</ele>
        <time>2021-09-06T12:26:24.000Z</time>
      </trkpt>
      <trkpt lat="48.51619" lon="-0.08211">
        <ele>244.416593</ele>
        <time>2021-09-06T12:26:31.000Z</time>
      </trkpt>
      <trkpt lat="48.51603" lon="-0.08196">
        <ele>244.094946</ele>
        <time>2021-09-06T12:26:37.000Z</time>
      </trkpt>
      <trkpt lat="48.51587" lon="-0.08174">
        <ele>243.729897</ele>
        <time>2021-09-06T12:26:42.000Z</time>
      </trkpt>
      <trkpt lat="48.51576" lon="-0.08159">
        <ele>243.483425</ele>
        <time>2021-09-06T12:26:45.000Z</time>
      </trkpt>
      <trkpt lat="48.5156" lon="-0.08139">
        <ele>243.127203</ele>
        <time>2021-09-06T12:26:49.000Z</time>
      </trkpt>
      <trkpt lat="48.51556" lon="-0.08134">
        <ele>243.036903</ele>
        <time>2021-09-06T12:26:50.000Z</time>
      </trkpt>
      <trkpt lat="48.51539" lon="-0.0811">
        <ele>242.582305</ele>
        <time>2021-09-06T12:26:54.000Z</time>
      </trkpt>
      <trkpt lat="48.51496" lon="-0.0806">
        <ele>241.464979</ele>
        <time>2021-09-06T12:27:03.000Z</time>
      </trkpt>
      <trkpt lat="48.51462" lon="-0.08027">
        <ele>240.634315</ele>
        <time>2021-09-06T12:27:09.000Z</time>
      </trkpt>
      <trkpt lat="48.5141" lon="-0.07982">
        <ele>239.403992</ele>
        <time>2021-09-06T12:27:17.000Z</time>
      </trkpt>
      <trkpt lat="48.51384" lon="-0.07957">
        <ele>238.7238</ele>
        <time>2021-09-06T12:27:21.000Z</time>
      </trkpt>
      <trkpt lat="48.51379" lon="-0.07949">
        <ele>238.551514</ele>
        <time>2021-09-06T12:27:22.000Z</time>
      </trkpt>
      <trkpt lat="48.51352" lon="-0.07909">
        <ele>237.690507</ele>
        <time>2021-09-06T12:27:27.000Z</time>
      </trkpt>
      <trkpt lat="48.51343" lon="-0.07892">
        <ele>237.354115</ele>
        <time>2021-09-06T12:27:29.000Z</time>
      </trkpt>
      <trkpt lat="48.5133" lon="-0.07865">
        <ele>236.865348</ele>
        <time>2021-09-06T12:27:32.000Z</time>
      </trkpt>
      <trkpt lat="48.5132" lon="-0.07837">
        <ele>236.378307</ele>
        <time>2021-09-06T12:27:35.000Z</time>
      </trkpt>
      <trkpt lat="48.51313" lon="-0.07818">
        <ele>236.054679</ele>
        <time>2021-09-06T12:27:37.000Z</time>
      </trkpt>
      <trkpt lat="48.51303" lon="-0.07803">
        <ele>235.737159</ele>
        <time>2021-09-06T12:27:39.000Z</time>
      </trkpt>
      <trkpt lat="48.51291" lon="-0.07795">
        <ele>235.442327</ele>
        <time>2021-09-06T12:27:41.000Z</time>
      </trkpt>
      <trkpt lat="48.51285" lon="-0.07794">
        <ele>235.305187</ele>
        <time>2021-09-06T12:27:42.000Z</time>
      </trkpt>
      <trkpt lat="48.51247" lon="-0.07795">
        <ele>234.894743</ele>
        <time>2021-09-06T12:27:49.000Z</time>
      </trkpt>
      <trkpt lat="48.51218" lon="-0.07795">
        <ele>234.635048</ele>
        <time>2021-09-06T12:27:56.000Z</time>
      </trkpt>
      <trkpt lat="48.51191" lon="-0.07797">
        <ele>234.392875</ele>
        <time>2021-09-06T12:28:04.000Z</time>
      </trkpt>
      <trkpt lat="48.51168" lon="-0.07805">
        <ele>234.175032</ele>
        <time>2021-09-06T12:28:13.000Z</time>
      </trkpt>
      <trkpt lat="48.5115" lon="-0.0781">
        <ele>234.010972</ele>
        <time>2021-09-06T12:28:21.000Z</time>
      </trkpt>
      <trkpt lat="48.51136" lon="-0.07806">
        <ele>233.887673</ele>
        <time>2021-09-06T12:28:27.000Z</time>
      </trkpt>
      <trkpt lat="48.51114" lon="-0.0779">
        <ele>233.671035</ele>
        <time>2021-09-06T12:28:37.000Z</time>
      </trkpt>
      <trkpt lat="48.51092" lon="-0.07773">
        <ele>233.643494</ele>
        <time>2021-09-06T12:28:46.000Z</time>
      </trkpt>
      <trkpt lat="48.51069" lon="-0.07753">
        <ele>233.773071</ele>
        <time>2021-09-06T12:28:55.000Z</time>
      </trkpt>
      <trkpt lat="48.51053" lon="-0.0774">
        <ele>233.857976</ele>
        <time>2021-09-06T12:29:01.000Z</time>
      </trkpt>
      <trkpt lat="48.51028" lon="-0.07724">
        <ele>233.988951</ele>
        <time>2021-09-06T12:29:09.000Z</time>
      </trkpt>
      <trkpt lat="48.51007" lon="-0.07714">
        <ele>234.099005</ele>
        <time>2021-09-06T12:29:16.000Z</time>
      </trkpt>
      <trkpt lat="48.50984" lon="-0.07702">
        <ele>234.215165</ele>
        <time>2021-09-06T12:29:24.000Z</time>
      </trkpt>
      <trkpt lat="48.50961" lon="-0.07691">
        <ele>234.329653</ele>
        <time>2021-09-06T12:29:32.000Z</time>
      </trkpt>
      <trkpt lat="48.5093" lon="-0.07677">
        <ele>234.494639</ele>
        <time>2021-09-06T12:29:43.000Z</time>
      </trkpt>
      <trkpt lat="48.50905" lon="-0.07672">
        <ele>234.63796</ele>
        <time>2021-09-06T12:29:51.000Z</time>
      </trkpt>
      <trkpt lat="48.50885" lon="-0.07673">
        <ele>234.74855</ele>
        <time>2021-09-06T12:29:56.000Z</time>
      </trkpt>
      <trkpt lat="48.50856" lon="-0.07675">
        <ele>234.908637</ele>
        <time>2021-09-06T12:30:01.000Z</time>
      </trkpt>
      <trkpt lat="48.50814" lon="-0.07672">
        <ele>235.147442</ele>
        <time>2021-09-06T12:30:07.000Z</time>
      </trkpt>
      <trkpt lat="48.50764" lon="-0.07656">
        <ele>235.433276</ele>
        <time>2021-09-06T12:30:14.000Z</time>
      </trkpt>
      <trkpt lat="48.50732" lon="-0.07643">
        <ele>235.606176</ele>
        <time>2021-09-06T12:30:19.000Z</time>
      </trkpt>
      <trkpt lat="48.507" lon="-0.07636">
        <ele>235.776299</ele>
        <time>2021-09-06T12:30:25.000Z</time>
      </trkpt>
      <trkpt lat="48.50677" lon="-0.07625">
        <ele>235.903859</ele>
        <time>2021-09-06T12:30:30.000Z</time>
      </trkpt>
      <trkpt lat="48.50673" lon="-0.07622">
        <ele>235.929086</ele>
        <time>2021-09-06T12:30:31.000Z</time>
      </trkpt>
      <trkpt lat="48.50665" lon="-0.07614">
        <ele>235.979608</ele>
        <time>2021-09-06T12:30:33.000Z</time>
      </trkpt>
      <trkpt lat="48.50659" lon="-0.07605">
        <ele>236.026322</ele>
        <time>2021-09-06T12:30:35.000Z</time>
      </trkpt>
      <trkpt lat="48.50646" lon="-0.07586">
        <ele>236.11837</ele>
        <time>2021-09-06T12:30:39.000Z</time>
      </trkpt>
      <trkpt lat="48.5063" lon="-0.07558">
        <ele>236.247714</ele>
        <time>2021-09-06T12:30:45.000Z</time>
      </trkpt>
      <trkpt lat="48.50619" lon="-0.07538">
        <ele>236.340143</ele>
        <time>2021-09-06T12:30:50.000Z</time>
      </trkpt>
      <trkpt lat="48.50609" lon="-0.07521">
        <ele>236.425138</ele>
        <time>2021-09-06T12:30:55.000Z</time>
      </trkpt>
      <trkpt lat="48.50597" lon="-0.07505">
        <ele>236.538983</ele>
        <time>2021-09-06T12:31:01.000Z</time>
      </trkpt>
      <trkpt lat="48.50584" lon="-0.07489">
        <ele>236.65914</ele>
        <time>2021-09-06T12:31:08.000Z</time>
      </trkpt>
      <trkpt lat="48.50565" lon="-0.07468">
        <ele>236.830321</ele>
        <time>2021-09-06T12:31:17.000Z</time>
      </trkpt>
      <trkpt lat="48.5055" lon="-0.07454">
        <ele>236.96255</ele>
        <time>2021-09-06T12:31:24.000Z</time>
      </trkpt>
      <trkpt lat="48.50532" lon="-0.07439">
        <ele>237.112325</ele>
        <time>2021-09-06T12:31:31.000Z</time>
      </trkpt>
      <trkpt lat="48.50511" lon="-0.07425">
        <ele>237.277913</ele>
        <time>2021-09-06T12:31:36.000Z</time>
      </trkpt>
      <trkpt lat="48.50479" lon="-0.07402">
        <ele>237.531217</ele>
        <time>2021-09-06T12:31:42.000Z</time>
      </trkpt>
      <trkpt lat="48.50467" lon="-0.07388">
        <ele>237.64254</ele>
        <time>2021-09-06T12:31:44.000Z</time>
      </trkpt>
      <trkpt lat="48.50455" lon="-0.07369">
        <ele>237.538539</ele>
        <time>2021-09-06T12:31:46.000Z</time>
      </trkpt>
      <trkpt lat="48.50428" lon="-0.07329">
        <ele>236.857558</ele>
        <time>2021-09-06T12:31:50.000Z</time>
      </trkpt>
      <trkpt lat="48.50384" lon="-0.07271">
        <ele>235.808336</ele>
        <time>2021-09-06T12:31:56.000Z</time>
      </trkpt>
      <trkpt lat="48.50376" lon="-0.07264">
        <ele>235.630806</ele>
        <time>2021-09-06T12:31:57.000Z</time>
      </trkpt>
      <trkpt lat="48.50348" lon="-0.07245">
        <ele>235.086227</ele>
        <time>2021-09-06T12:32:00.000Z</time>
      </trkpt>
      <trkpt lat="48.50292" lon="-0.07214">
        <ele>233.884386</ele>
        <time>2021-09-06T12:32:06.000Z</time>
      </trkpt>
      <trkpt lat="48.50283" lon="-0.07208">
        <ele>233.660527</ele>
        <time>2021-09-06T12:32:07.000Z</time>
      </trkpt>
      <trkpt lat="48.50268" lon="-0.07193">
        <ele>233.229317</ele>
        <time>2021-09-06T12:32:09.000Z</time>
      </trkpt>
      <trkpt lat="48.50257" lon="-0.07174">
        <ele>232.839106</ele>
        <time>2021-09-06T12:32:11.000Z</time>
      </trkpt>
      <trkpt lat="48.50254" lon="-0.07163">
        <ele>232.65259</ele>
        <time>2021-09-06T12:32:12.000Z</time>
      </trkpt>
      <trkpt lat="48.50243" lon="-0.07111">
        <ele>231.807956</ele>
        <time>2021-09-06T12:32:17.000Z</time>
      </trkpt>
      <trkpt lat="48.50233" lon="-0.07075">
        <ele>231.209261</ele>
        <time>2021-09-06T12:32:21.000Z</time>
      </trkpt>
      <trkpt lat="48.50226" lon="-0.0706">
        <ele>230.929796</ele>
        <time>2021-09-06T12:32:23.000Z</time>
      </trkpt>
      <trkpt lat="48.50211" lon="-0.07035">
        <ele>230.399222</ele>
        <time>2021-09-06T12:32:27.000Z</time>
      </trkpt>
      <trkpt lat="48.50182" lon="-0.06995">
        <ele>229.432822</ele>
        <time>2021-09-06T12:32:33.000Z</time>
      </trkpt>
      <trkpt lat="48.50143" lon="-0.06953">
        <ele>228.241317</ele>
        <time>2021-09-06T12:32:40.000Z</time>
      </trkpt>
      <trkpt lat="48.50098" lon="-0.06902">
        <ele>226.86573</ele>
        <time>2021-09-06T12:32:48.000Z</time>
      </trkpt>
      <trkpt lat="48.50065" lon="-0.06874">
        <ele>225.906724</ele>
        <time>2021-09-06T12:32:54.000Z</time>
      </trkpt>
      <trkpt lat="48.50048" lon="-0.06862">
        <ele>225.444454</ele>
        <time>2021-09-06T12:32:57.000Z</time>
      </trkpt>
      <trkpt lat="48.50034" lon="-0.06848">
        <ele>225.008775</ele>
        <time>2021-09-06T12:33:00.000Z</time>
      </trkpt>
      <trkpt lat="48.50004" lon="-0.06825">
        <ele>224.167916</ele>
        <time>2021-09-06T12:33:06.000Z</time>
      </trkpt>
      <trkpt lat="48.49999" lon="-0.06823">
        <ele>224.031107</ele>
        <time>2021-09-06T12:33:07.000Z</time>
      </trkpt>
      <trkpt lat="48.49994" lon="-0.06821">
        <ele>223.901862</ele>
        <time>2021-09-06T12:33:08.000Z</time>
      </trkpt>
      <trkpt lat="48.49971" lon="-0.06817">
        <ele>223.295577</ele>
        <time>2021-09-06T12:33:13.000Z</time>
      </trkpt>
      <trkpt lat="48.49957" lon="-0.06814">
        <ele>222.956857</ele>
        <time>2021-09-06T12:33:16.000Z</time>
      </trkpt>
      <trkpt lat="48.49942" lon="-0.06804">
        <ele>222.532304</ele>
        <time>2021-09-06T12:33:20.000Z</time>
      </trkpt>
      <trkpt lat="48.49929" lon="-0.0679">
        <ele>222.126409</ele>
        <time>2021-09-06T12:33:24.000Z</time>
      </trkpt>
      <trkpt lat="48.49924" lon="-0.06781">
        <ele>221.922764</ele>
        <time>2021-09-06T12:33:26.000Z</time>
      </trkpt>
      <trkpt lat="48.49917" lon="-0.06765">
        <ele>221.591454</ele>
        <time>2021-09-06T12:33:29.000Z</time>
      </trkpt>
      <trkpt lat="48.49911" lon="-0.06752">
        <ele>221.340127</ele>
        <time>2021-09-06T12:33:31.000Z</time>
      </trkpt>
      <trkpt lat="48.49894" lon="-0.0671">
        <ele>220.758189</ele>
        <time>2021-09-06T12:33:37.000Z</time>
      </trkpt>
      <trkpt lat="48.49887" lon="-0.06688">
        <ele>220.484378</ele>
        <time>2021-09-06T12:33:40.000Z</time>
      </trkpt>
      <trkpt lat="48.49882" lon="-0.06673">
        <ele>220.307312</ele>
        <time>2021-09-06T12:33:42.000Z</time>
      </trkpt>
      <trkpt lat="48.49869" lon="-0.06618">
        <ele>219.652591</ele>
        <time>2021-09-06T12:33:49.000Z</time>
      </trkpt>
      <trkpt lat="48.49865" lon="-0.06602">
        <ele>219.462651</ele>
        <time>2021-09-06T12:33:51.000Z</time>
      </trkpt>
      <trkpt lat="48.4986" lon="-0.06587">
        <ele>219.279699</ele>
        <time>2021-09-06T12:33:53.000Z</time>
      </trkpt>
      <trkpt lat="48.49857" lon="-0.0658">
        <ele>219.18546</ele>
        <time>2021-09-06T12:33:54.000Z</time>
      </trkpt>
      <trkpt lat="48.49848" lon="-0.06561">
        <ele>218.923249</ele>
        <time>2021-09-06T12:33:57.000Z</time>
      </trkpt>
      <trkpt lat="48.49838" lon="-0.06545">
        <ele>218.682945</ele>
        <time>2021-09-06T12:34:00.000Z</time>
      </trkpt>
      <trkpt lat="48.49834" lon="-0.06541">
        <ele>218.60623</ele>
        <time>2021-09-06T12:34:01.000Z</time>
      </trkpt>
      <trkpt lat="48.49818" lon="-0.06529">
        <ele>218.306193</ele>
        <time>2021-09-06T12:34:05.000Z</time>
      </trkpt>
      <trkpt lat="48.49796" lon="-0.06511">
        <ele>218.122242</ele>
        <time>2021-09-06T12:34:11.000Z</time>
      </trkpt>
      <trkpt lat="48.49777" lon="-0.06493">
        <ele>218.003084</ele>
        <time>2021-09-06T12:34:17.000Z</time>
      </trkpt>
      <trkpt lat="48.49758" lon="-0.06464">
        <ele>217.864883</ele>
        <time>2021-09-06T12:34:24.000Z</time>
      </trkpt>
      <trkpt lat="48.49741" lon="-0.06427">
        <ele>217.710469</ele>
        <time>2021-09-06T12:34:30.000Z</time>
      </trkpt>
      <trkpt lat="48.49727" lon="-0.06378">
        <ele>217.528528</ele>
        <time>2021-09-06T12:34:36.000Z</time>
      </trkpt>
      <trkpt lat="48.49712" lon="-0.06322">
        <ele>217.316768</ele>
        <time>2021-09-06T12:34:43.000Z</time>
      </trkpt>
      <trkpt lat="48.497" lon="-0.06301">
        <ele>217.141933</ele>
        <time>2021-09-06T12:34:46.000Z</time>
      </trkpt>
      <trkpt lat="48.49691" lon="-0.06289">
        <ele>217.001101</ele>
        <time>2021-09-06T12:34:48.000Z</time>
      </trkpt>
      <trkpt lat="48.49686" lon="-0.06283">
        <ele>216.930015</ele>
        <time>2021-09-06T12:34:49.000Z</time>
      </trkpt>
      <trkpt lat="48.49664" lon="-0.06267">
        <ele>216.656737</ele>
        <time>2021-09-06T12:34:53.000Z</time>
      </trkpt>
      <trkpt lat="48.49624" lon="-0.06242">
        <ele>216.164815</ele>
        <time>2021-09-06T12:35:00.000Z</time>
      </trkpt>
      <trkpt lat="48.49584" lon="-0.06215">
        <ele>215.666809</ele>
        <time>2021-09-06T12:35:07.000Z</time>
      </trkpt>
      <trkpt lat="48.49572" lon="-0.06207">
        <ele>215.524063</ele>
        <time>2021-09-06T12:35:09.000Z</time>
      </trkpt>
      <trkpt lat="48.49562" lon="-0.06198">
        <ele>215.383422</ele>
        <time>2021-09-06T12:35:11.000Z</time>
      </trkpt>
      <trkpt lat="48.49557" lon="-0.06192">
        <ele>215.311935</ele>
        <time>2021-09-06T12:35:12.000Z</time>
      </trkpt>
      <trkpt lat="48.49552" lon="-0.06185">
        <ele>215.240221</ele>
        <time>2021-09-06T12:35:13.000Z</time>
      </trkpt>
      <trkpt lat="48.49542" lon="-0.0616">
        <ele>215.007234</ele>
        <time>2021-09-06T12:35:16.000Z</time>
      </trkpt>
      <trkpt lat="48.49518" lon="-0.06103">
        <ele>214.467648</ele>
        <time>2021-09-06T12:35:23.000Z</time>
      </trkpt>
      <trkpt lat="48.49494" lon="-0.06047">
        <ele>213.936116</ele>
        <time>2021-09-06T12:35:30.000Z</time>
      </trkpt>
      <trkpt lat="48.49466" lon="-0.05999">
        <ele>213.436616</ele>
        <time>2021-09-06T12:35:37.000Z</time>
      </trkpt>
      <trkpt lat="48.49453" lon="-0.05972">
        <ele>213.164701</ele>
        <time>2021-09-06T12:35:41.000Z</time>
      </trkpt>
      <trkpt lat="48.49447" lon="-0.05956">
        <ele>213.07766</ele>
        <time>2021-09-06T12:35:43.000Z</time>
      </trkpt>
      <trkpt lat="48.49442" lon="-0.05931">
        <ele>213.013554</ele>
        <time>2021-09-06T12:35:46.000Z</time>
      </trkpt>
      <trkpt lat="48.49438" lon="-0.05904">
        <ele>212.948162</ele>
        <time>2021-09-06T12:35:49.000Z</time>
      </trkpt>
      <trkpt lat="48.49431" lon="-0.05826">
        <ele>212.758335</ele>
        <time>2021-09-06T12:35:58.000Z</time>
      </trkpt>
      <trkpt lat="48.4942" lon="-0.0576">
        <ele>212.596556</ele>
        <time>2021-09-06T12:36:06.000Z</time>
      </trkpt>
      <trkpt lat="48.49406" lon="-0.05699">
        <ele>212.438363</ele>
        <time>2021-09-06T12:36:14.000Z</time>
      </trkpt>
      <trkpt lat="48.49402" lon="-0.05684">
        <ele>212.391118</ele>
        <time>2021-09-06T12:36:16.000Z</time>
      </trkpt>
      <trkpt lat="48.49392" lon="-0.05657">
        <ele>212.29835</ele>
        <time>2021-09-06T12:36:20.000Z</time>
      </trkpt>
      <trkpt lat="48.49373" lon="-0.05615">
        <ele>212.148565</ele>
        <time>2021-09-06T12:36:26.000Z</time>
      </trkpt>
      <trkpt lat="48.4937" lon="-0.05608">
        <ele>212.122946</ele>
        <time>2021-09-06T12:36:27.000Z</time>
      </trkpt>
      <trkpt lat="48.49356" lon="-0.0558">
        <ele>212.019513</ele>
        <time>2021-09-06T12:36:31.000Z</time>
      </trkpt>
      <trkpt lat="48.4935" lon="-0.05565">
        <ele>211.965802</ele>
        <time>2021-09-06T12:36:33.000Z</time>
      </trkpt>
      <trkpt lat="48.49334" lon="-0.05528">
        <ele>211.834906</ele>
        <time>2021-09-06T12:36:38.000Z</time>
      </trkpt>
      <trkpt lat="48.49327" lon="-0.05516">
        <ele>211.785018</ele>
        <time>2021-09-06T12:36:40.000Z</time>
      </trkpt>
      <trkpt lat="48.49318" lon="-0.05507">
        <ele>211.737663</ele>
        <time>2021-09-06T12:36:42.000Z</time>
      </trkpt>
      <trkpt lat="48.49303" lon="-0.05503">
        <ele>211.669345</ele>
        <time>2021-09-06T12:36:45.000Z</time>
      </trkpt>
      <trkpt lat="48.49298" lon="-0.05503">
        <ele>211.648629</ele>
        <time>2021-09-06T12:36:46.000Z</time>
      </trkpt>
      <trkpt lat="48.49263" lon="-0.05511">
        <ele>212.160221</ele>
        <time>2021-09-06T12:36:54.000Z</time>
      </trkpt>
      <trkpt lat="48.4924" lon="-0.05515">
        <ele>212.506276</ele>
        <time>2021-09-06T12:36:59.000Z</time>
      </trkpt>
      <trkpt lat="48.49231" lon="-0.05513">
        <ele>212.639614</ele>
        <time>2021-09-06T12:37:01.000Z</time>
      </trkpt>
      <trkpt lat="48.4922" lon="-0.05504">
        <ele>212.829119</ele>
        <time>2021-09-06T12:37:04.000Z</time>
      </trkpt>
      <trkpt lat="48.49214" lon="-0.05496">
        <ele>212.950496</ele>
        <time>2021-09-06T12:37:06.000Z</time>
      </trkpt>
      <trkpt lat="48.49198" lon="-0.05469">
        <ele>213.313386</ele>
        <time>2021-09-06T12:37:13.000Z</time>
      </trkpt>
      <trkpt lat="48.49186" lon="-0.05445">
        <ele>213.614301</ele>
        <time>2021-09-06T12:37:21.000Z</time>
      </trkpt>
      <trkpt lat="48.49175" lon="-0.0542">
        <ele>213.914153</ele>
        <time>2021-09-06T12:37:30.000Z</time>
      </trkpt>
      <trkpt lat="48.49168" lon="-0.05405">
        <ele>214.095736</ele>
        <time>2021-09-06T12:37:36.000Z</time>
      </trkpt>
      <trkpt lat="48.49165" lon="-0.05398">
        <ele>214.17666</ele>
        <time>2021-09-06T12:37:39.000Z</time>
      </trkpt>
      <trkpt lat="48.49164" lon="-0.05394">
        <ele>214.223136</ele>
        <time>2021-09-06T12:37:41.000Z</time>
      </trkpt>
      <trkpt lat="48.49159" lon="-0.05378">
        <ele>214.440869</ele>
        <time>2021-09-06T12:37:47.000Z</time>
      </trkpt>
      <trkpt lat="48.49155" lon="-0.05367">
        <ele>214.697595</ele>
        <time>2021-09-06T12:37:52.000Z</time>
      </trkpt>
      <trkpt lat="48.49154" lon="-0.05362">
        <ele>214.809428</ele>
        <time>2021-09-06T12:37:54.000Z</time>
      </trkpt>
      <trkpt lat="48.49147" lon="-0.0535">
        <ele>215.125648</ele>
        <time>2021-09-06T12:37:59.000Z</time>
      </trkpt>
      <trkpt lat="48.49138" lon="-0.05336">
        <ele>215.50323</ele>
        <time>2021-09-06T12:38:05.000Z</time>
      </trkpt>
      <trkpt lat="48.49137" lon="-0.05328">
        <ele>215.658559</ele>
        <time>2021-09-06T12:38:09.000Z</time>
      </trkpt>
      <trkpt lat="48.49137" lon="-0.05325">
        <ele>215.71645</ele>
        <time>2021-09-06T12:38:10.000Z</time>
      </trkpt>
      <trkpt lat="48.4913" lon="-0.05309">
        <ele>216.091717</ele>
        <time>2021-09-06T12:38:17.000Z</time>
      </trkpt>
      <trkpt lat="48.49128" lon="-0.05303">
        <ele>216.243181</ele>
        <time>2021-09-06T12:38:21.000Z</time>
      </trkpt>
      <trkpt lat="48.49122" lon="-0.05284">
        <ele>216.651328</ele>
        <time>2021-09-06T12:38:27.000Z</time>
      </trkpt>
      <trkpt lat="48.49111" lon="-0.05263">
        <ele>217.186395</ele>
        <time>2021-09-06T12:38:36.000Z</time>
      </trkpt>
      <trkpt lat="48.491" lon="-0.05252">
        <ele>217.582891</ele>
        <time>2021-09-06T12:38:42.000Z</time>
      </trkpt>
      <trkpt lat="48.49082" lon="-0.05251">
        <ele>218.131603</ele>
        <time>2021-09-06T12:38:47.000Z</time>
      </trkpt>
      <trkpt lat="48.49054" lon="-0.05263">
        <ele>219.013307</ele>
        <time>2021-09-06T12:38:52.000Z</time>
      </trkpt>
      <trkpt lat="48.49018" lon="-0.05278">
        <ele>219.620781</ele>
        <time>2021-09-06T12:38:57.000Z</time>
      </trkpt>
      <trkpt lat="48.48979" lon="-0.05296">
        <ele>219.101382</ele>
        <time>2021-09-06T12:39:02.000Z</time>
      </trkpt>
      <trkpt lat="48.4895" lon="-0.05308">
        <ele>218.724394</ele>
        <time>2021-09-06T12:39:06.000Z</time>
      </trkpt>
      <trkpt lat="48.48931" lon="-0.05309">
        <ele>218.478389</ele>
        <time>2021-09-06T12:39:10.000Z</time>
      </trkpt>
      <trkpt lat="48.48921" lon="-0.05295">
        <ele>218.302864</ele>
        <time>2021-09-06T12:39:14.000Z</time>
      </trkpt>
      <trkpt lat="48.48904" lon="-0.05255">
        <ele>217.901164</ele>
        <time>2021-09-06T12:39:20.000Z</time>
      </trkpt>
      <trkpt lat="48.48902" lon="-0.05247">
        <ele>217.824671</ele>
        <time>2021-09-06T12:39:21.000Z</time>
      </trkpt>
      <trkpt lat="48.48894" lon="-0.0522">
        <ele>217.586162</ele>
        <time>2021-09-06T12:39:24.000Z</time>
      </trkpt>
      <trkpt lat="48.48881" lon="-0.05161">
        <ele>217.006159</ele>
        <time>2021-09-06T12:39:30.000Z</time>
      </trkpt>
      <trkpt lat="48.48874" lon="-0.0513">
        <ele>216.699115</ele>
        <time>2021-09-06T12:39:33.000Z</time>
      </trkpt>
      <trkpt lat="48.4887" lon="-0.05121">
        <ele>216.598116</ele>
        <time>2021-09-06T12:39:34.000Z</time>
      </trkpt>
      <trkpt lat="48.48864" lon="-0.05115">
        <ele>216.49597</ele>
        <time>2021-09-06T12:39:35.000Z</time>
      </trkpt>
      <trkpt lat="48.48857" lon="-0.05113">
        <ele>216.39504</ele>
        <time>2021-09-06T12:39:36.000Z</time>
      </trkpt>
      <trkpt lat="48.48829" lon="-0.05113">
        <ele>215.999758</ele>
        <time>2021-09-06T12:39:41.000Z</time>
      </trkpt>
      <trkpt lat="48.4881" lon="-0.05116">
        <ele>215.72251</ele>
        <time>2021-09-06T12:39:46.000Z</time>
      </trkpt>
      <trkpt lat="48.48788" lon="-0.05126">
        <ele>215.395102</ele>
        <time>2021-09-06T12:39:52.000Z</time>
      </trkpt>
      <trkpt lat="48.48769" lon="-0.05136">
        <ele>215.114735</ele>
        <time>2021-09-06T12:39:56.000Z</time>
      </trkpt>
      <trkpt lat="48.48759" lon="-0.0514">
        <ele>214.960386</ele>
        <time>2021-09-06T12:39:58.000Z</time>
      </trkpt>
      <trkpt lat="48.48721" lon="-0.05147">
        <ele>214.407123</ele>
        <time>2021-09-06T12:40:04.000Z</time>
      </trkpt>
      <trkpt lat="48.4869" lon="-0.05151">
        <ele>213.934537</ele>
        <time>2021-09-06T12:40:09.000Z</time>
      </trkpt>
      <trkpt lat="48.48684" lon="-0.05151">
        <ele>213.84541</ele>
        <time>2021-09-06T12:40:10.000Z</time>
      </trkpt>
      <trkpt lat="48.48678" lon="-0.05151">
        <ele>213.760668</ele>
        <time>2021-09-06T12:40:11.000Z</time>
      </trkpt>
      <trkpt lat="48.48649" lon="-0.05153">
        <ele>213.322282</ele>
        <time>2021-09-06T12:40:16.000Z</time>
      </trkpt>
      <trkpt lat="48.48643" lon="-0.05152">
        <ele>213.241073</ele>
        <time>2021-09-06T12:40:17.000Z</time>
      </trkpt>
      <trkpt lat="48.48621" lon="-0.05144">
        <ele>212.907884</ele>
        <time>2021-09-06T12:40:21.000Z</time>
      </trkpt>
      <trkpt lat="48.48616" lon="-0.05141">
        <ele>212.828976</ele>
        <time>2021-09-06T12:40:22.000Z</time>
      </trkpt>
      <trkpt lat="48.48578" lon="-0.05116">
        <ele>212.243912</ele>
        <time>2021-09-06T12:40:30.000Z</time>
      </trkpt>
      <trkpt lat="48.48569" lon="-0.05112">
        <ele>212.190783</ele>
        <time>2021-09-06T12:40:32.000Z</time>
      </trkpt>
      <trkpt lat="48.48557" lon="-0.05106">
        <ele>212.117647</ele>
        <time>2021-09-06T12:40:35.000Z</time>
      </trkpt>
      <trkpt lat="48.48548" lon="-0.05104">
        <ele>212.070174</ele>
        <time>2021-09-06T12:40:37.000Z</time>
      </trkpt>
      <trkpt lat="48.48541" lon="-0.051">
        <ele>212.02675</ele>
        <time>2021-09-06T12:40:39.000Z</time>
      </trkpt>
      <trkpt lat="48.48537" lon="-0.05098">
        <ele>212.001988</ele>
        <time>2021-09-06T12:40:40.000Z</time>
      </trkpt>
      <trkpt lat="48.48514" lon="-0.0509">
        <ele>211.869589</ele>
        <time>2021-09-06T12:40:45.000Z</time>
      </trkpt>
      <trkpt lat="48.48509" lon="-0.05087">
        <ele>211.840785</ele>
        <time>2021-09-06T12:40:46.000Z</time>
      </trkpt>
      <trkpt lat="48.48499" lon="-0.05084">
        <ele>211.783389</ele>
        <time>2021-09-06T12:40:48.000Z</time>
      </trkpt>
      <trkpt lat="48.48475" lon="-0.05068">
        <ele>211.638816</ele>
        <time>2021-09-06T12:40:53.000Z</time>
      </trkpt>
      <trkpt lat="48.48444" lon="-0.05042">
        <ele>211.440147</ele>
        <time>2021-09-06T12:41:00.000Z</time>
      </trkpt>
      <trkpt lat="48.48413" lon="-0.05016">
        <ele>211.219976</ele>
        <time>2021-09-06T12:41:07.000Z</time>
      </trkpt>
      <trkpt lat="48.48379" lon="-0.04991">
        <ele>210.777546</ele>
        <time>2021-09-06T12:41:13.000Z</time>
      </trkpt>
      <trkpt lat="48.48346" lon="-0.04964">
        <ele>210.329301</ele>
        <time>2021-09-06T12:41:18.000Z</time>
      </trkpt>
      <trkpt lat="48.48308" lon="-0.04935">
        <ele>209.832905</ele>
        <time>2021-09-06T12:41:23.000Z</time>
      </trkpt>
      <trkpt lat="48.48293" lon="-0.04925">
        <ele>209.631479</ele>
        <time>2021-09-06T12:41:25.000Z</time>
      </trkpt>
      <trkpt lat="48.4827" lon="-0.04915">
        <ele>209.343164</ele>
        <time>2021-09-06T12:41:28.000Z</time>
      </trkpt>
      <trkpt lat="48.48219" lon="-0.04896">
        <ele>208.712976</ele>
        <time>2021-09-06T12:41:35.000Z</time>
      </trkpt>
      <trkpt lat="48.4818" lon="-0.04879">
        <ele>208.20784</ele>
        <time>2021-09-06T12:41:41.000Z</time>
      </trkpt>
      <trkpt lat="48.48128" lon="-0.04857">
        <ele>207.532256</ele>
        <time>2021-09-06T12:41:49.000Z</time>
      </trkpt>
      <trkpt lat="48.48121" lon="-0.04855">
        <ele>207.44741</ele>
        <time>2021-09-06T12:41:50.000Z</time>
      </trkpt>
      <trkpt lat="48.48088" lon="-0.04852">
        <ele>207.033693</ele>
        <time>2021-09-06T12:41:55.000Z</time>
      </trkpt>
      <trkpt lat="48.48062" lon="-0.04853">
        <ele>206.943516</ele>
        <time>2021-09-06T12:42:00.000Z</time>
      </trkpt>
      <trkpt lat="48.4803" lon="-0.04854">
        <ele>207.045688</ele>
        <time>2021-09-06T12:42:07.000Z</time>
      </trkpt>
      <trkpt lat="48.48004" lon="-0.04854">
        <ele>207.132872</ele>
        <time>2021-09-06T12:42:14.000Z</time>
      </trkpt>
      <trkpt lat="48.47968" lon="-0.04852">
        <ele>207.248073</ele>
        <time>2021-09-06T12:42:23.000Z</time>
      </trkpt>
      <trkpt lat="48.47935" lon="-0.04847">
        <ele>207.357721</ele>
        <time>2021-09-06T12:42:32.000Z</time>
      </trkpt>
      <trkpt lat="48.47906" lon="-0.04836">
        <ele>207.453476</ele>
        <time>2021-09-06T12:42:40.000Z</time>
      </trkpt>
      <trkpt lat="48.47879" lon="-0.04825">
        <ele>208.222691</ele>
        <time>2021-09-06T12:42:48.000Z</time>
      </trkpt>
      <trkpt lat="48.47857" lon="-0.04816">
        <ele>209.118109</ele>
        <time>2021-09-06T12:42:55.000Z</time>
      </trkpt>
      <trkpt lat="48.47832" lon="-0.04806">
        <ele>210.087506</ele>
        <time>2021-09-06T12:43:03.000Z</time>
      </trkpt>
      <trkpt lat="48.47813" lon="-0.04797">
        <ele>210.837717</ele>
        <time>2021-09-06T12:43:09.000Z</time>
      </trkpt>
      <trkpt lat="48.47799" lon="-0.04789">
        <ele>211.407111</ele>
        <time>2021-09-06T12:43:14.000Z</time>
      </trkpt>
      <trkpt lat="48.47785" lon="-0.04778">
        <ele>212.028696</ele>
        <time>2021-09-06T12:43:19.000Z</time>
      </trkpt>
      <trkpt lat="48.47766" lon="-0.04762">
        <ele>212.871701</ele>
        <time>2021-09-06T12:43:26.000Z</time>
      </trkpt>
      <trkpt lat="48.47753" lon="-0.04749">
        <ele>213.453418</ele>
        <time>2021-09-06T12:43:31.000Z</time>
      </trkpt>
      <trkpt lat="48.47736" lon="-0.0473">
        <ele>214.249895</ele>
        <time>2021-09-06T12:43:38.000Z</time>
      </trkpt>
      <trkpt lat="48.47724" lon="-0.04711">
        <ele>214.914828</ele>
        <time>2021-09-06T12:43:44.000Z</time>
      </trkpt>
      <trkpt lat="48.4771" lon="-0.04688">
        <ele>215.685585</ele>
        <time>2021-09-06T12:43:52.000Z</time>
      </trkpt>
      <trkpt lat="48.47701" lon="-0.04671">
        <ele>216.238071</ele>
        <time>2021-09-06T12:43:57.000Z</time>
      </trkpt>
      <trkpt lat="48.47687" lon="-0.04648">
        <ele>216.999394</ele>
        <time>2021-09-06T12:44:04.000Z</time>
      </trkpt>
      <trkpt lat="48.47677" lon="-0.04629">
        <ele>217.617312</ele>
        <time>2021-09-06T12:44:10.000Z</time>
      </trkpt>
      <trkpt lat="48.47667" lon="-0.04613">
        <ele>218.152889</ele>
        <time>2021-09-06T12:44:15.000Z</time>
      </trkpt>
      <trkpt lat="48.47654" lon="-0.04593">
        <ele>218.839756</ele>
        <time>2021-09-06T12:44:21.000Z</time>
      </trkpt>
      <trkpt lat="48.4764" lon="-0.04568">
        <ele>219.673284</ele>
        <time>2021-09-06T12:44:28.000Z</time>
      </trkpt>
      <trkpt lat="48.47628" lon="-0.04546">
        <ele>220.383718</ele>
        <time>2021-09-06T12:44:34.000Z</time>
      </trkpt>
      <trkpt lat="48.47608" lon="-0.04513">
        <ele>221.366123</ele>
        <time>2021-09-06T12:44:43.000Z</time>
      </trkpt>
      <trkpt lat="48.47591" lon="-0.04484">
        <ele>222.050442</ele>
        <time>2021-09-06T12:44:51.000Z</time>
      </trkpt>
      <trkpt lat="48.47576" lon="-0.04459">
        <ele>222.633164</ele>
        <time>2021-09-06T12:44:58.000Z</time>
      </trkpt>
      <trkpt lat="48.47556" lon="-0.04425">
        <ele>223.417137</ele>
        <time>2021-09-06T12:45:07.000Z</time>
      </trkpt>
      <trkpt lat="48.47543" lon="-0.04405">
        <ele>223.914922</ele>
        <time>2021-09-06T12:45:13.000Z</time>
      </trkpt>
      <trkpt lat="48.47524" lon="-0.0437">
        <ele>224.703002</ele>
        <time>2021-09-06T12:45:22.000Z</time>
      </trkpt>
      <trkpt lat="48.47505" lon="-0.04339">
        <ele>225.434707</ele>
        <time>2021-09-06T12:45:30.000Z</time>
      </trkpt>
      <trkpt lat="48.47484" lon="-0.04301">
        <ele>226.002161</ele>
        <time>2021-09-06T12:45:39.000Z</time>
      </trkpt>
      <trkpt lat="48.4747" lon="-0.0428">
        <ele>226.184703</ele>
        <time>2021-09-06T12:45:44.000Z</time>
      </trkpt>
      <trkpt lat="48.47449" lon="-0.04243">
        <ele>226.496654</ele>
        <time>2021-09-06T12:45:52.000Z</time>
      </trkpt>
      <trkpt lat="48.47424" lon="-0.04201">
        <ele>226.848347</ele>
        <time>2021-09-06T12:46:00.000Z</time>
      </trkpt>
      <trkpt lat="48.47407" lon="-0.0417">
        <ele>227.101857</ele>
        <time>2021-09-06T12:46:06.000Z</time>
      </trkpt>
      <trkpt lat="48.47396" lon="-0.0415">
        <ele>227.267647</ele>
        <time>2021-09-06T12:46:10.000Z</time>
      </trkpt>
      <trkpt lat="48.47377" lon="-0.04119">
        <ele>227.53126</ele>
        <time>2021-09-06T12:46:16.000Z</time>
      </trkpt>
      <trkpt lat="48.47362" lon="-0.04091">
        <ele>227.248735</ele>
        <time>2021-09-06T12:46:21.000Z</time>
      </trkpt>
      <trkpt lat="48.47341" lon="-0.04056">
        <ele>226.848594</ele>
        <time>2021-09-06T12:46:27.000Z</time>
      </trkpt>
      <trkpt lat="48.47333" lon="-0.04043">
        <ele>226.702609</ele>
        <time>2021-09-06T12:46:29.000Z</time>
      </trkpt>
      <trkpt lat="48.47321" lon="-0.04024">
        <ele>226.479587</ele>
        <time>2021-09-06T12:46:32.000Z</time>
      </trkpt>
      <trkpt lat="48.47288" lon="-0.03968">
        <ele>225.85769</ele>
        <time>2021-09-06T12:46:40.000Z</time>
      </trkpt>
      <trkpt lat="48.47251" lon="-0.03907">
        <ele>225.162654</ele>
        <time>2021-09-06T12:46:49.000Z</time>
      </trkpt>
      <trkpt lat="48.47219" lon="-0.03851">
        <ele>224.493292</ele>
        <time>2021-09-06T12:46:57.000Z</time>
      </trkpt>
      <trkpt lat="48.47199" lon="-0.03815">
        <ele>224.072679</ele>
        <time>2021-09-06T12:47:02.000Z</time>
      </trkpt>
      <trkpt lat="48.4719" lon="-0.03802">
        <ele>223.900554</ele>
        <time>2021-09-06T12:47:04.000Z</time>
      </trkpt>
      <trkpt lat="48.47169" lon="-0.03767">
        <ele>223.485793</ele>
        <time>2021-09-06T12:47:09.000Z</time>
      </trkpt>
      <trkpt lat="48.47165" lon="-0.03761">
        <ele>223.407656</ele>
        <time>2021-09-06T12:47:10.000Z</time>
      </trkpt>
      <trkpt lat="48.47157" lon="-0.03747">
        <ele>223.249267</ele>
        <time>2021-09-06T12:47:12.000Z</time>
      </trkpt>
      <trkpt lat="48.47127" lon="-0.03697">
        <ele>222.57662</ele>
        <time>2021-09-06T12:47:19.000Z</time>
      </trkpt>
      <trkpt lat="48.47095" lon="-0.03645">
        <ele>221.754706</ele>
        <time>2021-09-06T12:47:26.000Z</time>
      </trkpt>
      <trkpt lat="48.47056" lon="-0.03579">
        <ele>220.729168</ele>
        <time>2021-09-06T12:47:34.000Z</time>
      </trkpt>
      <trkpt lat="48.47024" lon="-0.03528">
        <ele>219.90656</ele>
        <time>2021-09-06T12:47:40.000Z</time>
      </trkpt>
      <trkpt lat="48.46998" lon="-0.03482">
        <ele>219.170621</ele>
        <time>2021-09-06T12:47:45.000Z</time>
      </trkpt>
      <trkpt lat="48.46981" lon="-0.03447">
        <ele>218.637209</ele>
        <time>2021-09-06T12:47:49.000Z</time>
      </trkpt>
      <trkpt lat="48.46977" lon="-0.03439">
        <ele>218.515837</ele>
        <time>2021-09-06T12:47:50.000Z</time>
      </trkpt>
      <trkpt lat="48.46973" lon="-0.03432">
        <ele>218.397021</ele>
        <time>2021-09-06T12:47:51.000Z</time>
      </trkpt>
      <trkpt lat="48.46957" lon="-0.034">
        <ele>217.905853</ele>
        <time>2021-09-06T12:47:55.000Z</time>
      </trkpt>
      <trkpt lat="48.46937" lon="-0.03356">
        <ele>217.243873</ele>
        <time>2021-09-06T12:48:00.000Z</time>
      </trkpt>
      <trkpt lat="48.46909" lon="-0.03303">
        <ele>216.402748</ele>
        <time>2021-09-06T12:48:06.000Z</time>
      </trkpt>
      <trkpt lat="48.46903" lon="-0.03296">
        <ele>216.264836</ele>
        <time>2021-09-06T12:48:07.000Z</time>
      </trkpt>
      <trkpt lat="48.46896" lon="-0.03289">
        <ele>216.132713</ele>
        <time>2021-09-06T12:48:08.000Z</time>
      </trkpt>
      <trkpt lat="48.46883" lon="-0.0328">
        <ele>215.882248</ele>
        <time>2021-09-06T12:48:10.000Z</time>
      </trkpt>
      <trkpt lat="48.46877" lon="-0.03277">
        <ele>215.768083</ele>
        <time>2021-09-06T12:48:11.000Z</time>
      </trkpt>
      <trkpt lat="48.46847" lon="-0.03274">
        <ele>215.245133</ele>
        <time>2021-09-06T12:48:16.000Z</time>
      </trkpt>
      <trkpt lat="48.46811" lon="-0.03272">
        <ele>214.633102</ele>
        <time>2021-09-06T12:48:23.000Z</time>
      </trkpt>
      <trkpt lat="48.46769" lon="-0.03268">
        <ele>213.904575</ele>
        <time>2021-09-06T12:48:32.000Z</time>
      </trkpt>
      <trkpt lat="48.46737" lon="-0.03264">
        <ele>213.35131</ele>
        <time>2021-09-06T12:48:39.000Z</time>
      </trkpt>
      <trkpt lat="48.46697" lon="-0.03257">
        <ele>212.727047</ele>
        <time>2021-09-06T12:48:46.000Z</time>
      </trkpt>
      <trkpt lat="48.46638" lon="-0.03248">
        <ele>211.840578</ele>
        <time>2021-09-06T12:48:55.000Z</time>
      </trkpt>
      <trkpt lat="48.46584" lon="-0.03234">
        <ele>211.003215</ele>
        <time>2021-09-06T12:49:03.000Z</time>
      </trkpt>
      <trkpt lat="48.46561" lon="-0.03213">
        <ele>210.601743</ele>
        <time>2021-09-06T12:49:07.000Z</time>
      </trkpt>
      <trkpt lat="48.46556" lon="-0.03207">
        <ele>210.508259</ele>
        <time>2021-09-06T12:49:08.000Z</time>
      </trkpt>
      <trkpt lat="48.46528" lon="-0.03173">
        <ele>210.215349</ele>
        <time>2021-09-06T12:49:14.000Z</time>
      </trkpt>
      <trkpt lat="48.46487" lon="-0.03123">
        <ele>209.778397</ele>
        <time>2021-09-06T12:49:23.000Z</time>
      </trkpt>
      <trkpt lat="48.46445" lon="-0.03084">
        <ele>209.376792</ele>
        <time>2021-09-06T12:49:31.000Z</time>
      </trkpt>
      <trkpt lat="48.46407" lon="-0.0307">
        <ele>209.056772</ele>
        <time>2021-09-06T12:49:37.000Z</time>
      </trkpt>
      <trkpt lat="48.46351" lon="-0.03056">
        <ele>209.064118</ele>
        <time>2021-09-06T12:49:45.000Z</time>
      </trkpt>
      <trkpt lat="48.46312" lon="-0.03045">
        <ele>209.083864</ele>
        <time>2021-09-06T12:49:51.000Z</time>
      </trkpt>
      <trkpt lat="48.46282" lon="-0.03039">
        <ele>209.099307</ele>
        <time>2021-09-06T12:49:57.000Z</time>
      </trkpt>
      <trkpt lat="48.46278" lon="-0.03038">
        <ele>209.101621</ele>
        <time>2021-09-06T12:49:58.000Z</time>
      </trkpt>
      <trkpt lat="48.46257" lon="-0.03033">
        <ele>209.112</ele>
        <time>2021-09-06T12:50:03.000Z</time>
      </trkpt>
      <trkpt lat="48.46235" lon="-0.03025">
        <ele>209.123774</ele>
        <time>2021-09-06T12:50:09.000Z</time>
      </trkpt>
      <trkpt lat="48.46217" lon="-0.03011">
        <ele>209.067754</ele>
        <time>2021-09-06T12:50:14.000Z</time>
      </trkpt>
      <trkpt lat="48.46215" lon="-0.03006">
        <ele>209.049164</ele>
        <time>2021-09-06T12:50:15.000Z</time>
      </trkpt>
      <trkpt lat="48.46209" lon="-0.02998">
        <ele>209.010974</ele>
        <time>2021-09-06T12:50:17.000Z</time>
      </trkpt>
      <trkpt lat="48.46204" lon="-0.02987">
        <ele>208.970246</ele>
        <time>2021-09-06T12:50:19.000Z</time>
      </trkpt>
      <trkpt lat="48.4619" lon="-0.02957">
        <ele>208.855913</ele>
        <time>2021-09-06T12:50:24.000Z</time>
      </trkpt>
      <trkpt lat="48.46188" lon="-0.02951">
        <ele>208.831317</ele>
        <time>2021-09-06T12:50:25.000Z</time>
      </trkpt>
      <trkpt lat="48.46165" lon="-0.02903">
        <ele>208.648105</ele>
        <time>2021-09-06T12:50:32.000Z</time>
      </trkpt>
      <trkpt lat="48.46138" lon="-0.02845">
        <ele>208.424887</ele>
        <time>2021-09-06T12:50:40.000Z</time>
      </trkpt>
      <trkpt lat="48.4611" lon="-0.02782">
        <ele>208.146519</ele>
        <time>2021-09-06T12:50:47.000Z</time>
      </trkpt>
      <trkpt lat="48.4608" lon="-0.02714">
        <ele>207.775773</ele>
        <time>2021-09-06T12:50:55.000Z</time>
      </trkpt>
      <trkpt lat="48.46047" lon="-0.02642">
        <ele>207.382708</ele>
        <time>2021-09-06T12:51:04.000Z</time>
      </trkpt>
      <trkpt lat="48.46023" lon="-0.02595">
        <ele>207.112787</ele>
        <time>2021-09-06T12:51:10.000Z</time>
      </trkpt>
      <trkpt lat="48.45998" lon="-0.02559">
        <ele>206.858535</ele>
        <time>2021-09-06T12:51:15.000Z</time>
      </trkpt>
      <trkpt lat="48.45966" lon="-0.02518">
        <ele>206.540187</ele>
        <time>2021-09-06T12:51:21.000Z</time>
      </trkpt>
      <trkpt lat="48.45937" lon="-0.0248">
        <ele>206.248264</ele>
        <time>2021-09-06T12:51:27.000Z</time>
      </trkpt>
      <trkpt lat="48.45919" lon="-0.02457">
        <ele>206.068796</ele>
        <time>2021-09-06T12:51:32.000Z</time>
      </trkpt>
      <trkpt lat="48.45901" lon="-0.02431">
        <ele>205.881028</ele>
        <time>2021-09-06T12:51:39.000Z</time>
      </trkpt>
      <trkpt lat="48.45886" lon="-0.0241">
        <ele>205.725789</ele>
        <time>2021-09-06T12:51:46.000Z</time>
      </trkpt>
      <trkpt lat="48.4587" lon="-0.02383">
        <ele>205.484182</ele>
        <time>2021-09-06T12:51:53.000Z</time>
      </trkpt>
      <trkpt lat="48.45845" lon="-0.02344">
        <ele>205.085386</ele>
        <time>2021-09-06T12:52:01.000Z</time>
      </trkpt>
      <trkpt lat="48.45819" lon="-0.02298">
        <ele>204.639473</ele>
        <time>2021-09-06T12:52:08.000Z</time>
      </trkpt>
      <trkpt lat="48.45793" lon="-0.02251">
        <ele>204.193385</ele>
        <time>2021-09-06T12:52:14.000Z</time>
      </trkpt>
      <trkpt lat="48.45788" lon="-0.02243">
        <ele>204.116711</ele>
        <time>2021-09-06T12:52:15.000Z</time>
      </trkpt>
      <trkpt lat="48.45775" lon="-0.0222">
        <ele>203.894153</ele>
        <time>2021-09-06T12:52:18.000Z</time>
      </trkpt>
      <trkpt lat="48.45744" lon="-0.02162">
        <ele>203.078558</ele>
        <time>2021-09-06T12:52:25.000Z</time>
      </trkpt>
      <trkpt lat="48.45718" lon="-0.02109">
        <ele>202.242213</ele>
        <time>2021-09-06T12:52:31.000Z</time>
      </trkpt>
      <trkpt lat="48.45689" lon="-0.02035">
        <ele>201.14462</ele>
        <time>2021-09-06T12:52:39.000Z</time>
      </trkpt>
      <trkpt lat="48.45666" lon="-0.01977">
        <ele>200.276422</ele>
        <time>2021-09-06T12:52:46.000Z</time>
      </trkpt>
      <trkpt lat="48.4566" lon="-0.0196">
        <ele>200.001459</ele>
        <time>2021-09-06T12:52:48.000Z</time>
      </trkpt>
      <trkpt lat="48.45646" lon="-0.01926">
        <ele>199.42277</ele>
        <time>2021-09-06T12:52:52.000Z</time>
      </trkpt>
      <trkpt lat="48.45637" lon="-0.01911">
        <ele>199.124851</ele>
        <time>2021-09-06T12:52:54.000Z</time>
      </trkpt>
      <trkpt lat="48.45628" lon="-0.01898">
        <ele>198.858253</ele>
        <time>2021-09-06T12:52:56.000Z</time>
      </trkpt>
      <trkpt lat="48.45626" lon="-0.01891">
        <ele>198.748036</ele>
        <time>2021-09-06T12:52:57.000Z</time>
      </trkpt>
      <trkpt lat="48.45625" lon="-0.01873">
        <ele>198.480655</ele>
        <time>2021-09-06T12:53:00.000Z</time>
      </trkpt>
      <trkpt lat="48.45622" lon="-0.01858">
        <ele>198.256026</ele>
        <time>2021-09-06T12:53:02.000Z</time>
      </trkpt>
      <trkpt lat="48.45615" lon="-0.01825">
        <ele>197.760376</ele>
        <time>2021-09-06T12:53:06.000Z</time>
      </trkpt>
      <trkpt lat="48.45616" lon="-0.01808">
        <ele>197.517969</ele>
        <time>2021-09-06T12:53:08.000Z</time>
      </trkpt>
      <trkpt lat="48.45625" lon="-0.01753">
        <ele>196.690077</ele>
        <time>2021-09-06T12:53:15.000Z</time>
      </trkpt>
      <trkpt lat="48.45632" lon="-0.01698">
        <ele>195.899289</ele>
        <time>2021-09-06T12:53:22.000Z</time>
      </trkpt>
      <trkpt lat="48.45637" lon="-0.01634">
        <ele>195.031351</ele>
        <time>2021-09-06T12:53:29.000Z</time>
      </trkpt>
      <trkpt lat="48.45639" lon="-0.01565">
        <ele>194.095449</ele>
        <time>2021-09-06T12:53:36.000Z</time>
      </trkpt>
      <trkpt lat="48.45639" lon="-0.01555">
        <ele>193.960974</ele>
        <time>2021-09-06T12:53:37.000Z</time>
      </trkpt>
      <trkpt lat="48.45636" lon="-0.01479">
        <ele>192.928239</ele>
        <time>2021-09-06T12:53:45.000Z</time>
      </trkpt>
      <trkpt lat="48.4563" lon="-0.01407">
        <ele>191.9052</ele>
        <time>2021-09-06T12:53:53.000Z</time>
      </trkpt>
      <trkpt lat="48.45621" lon="-0.01352">
        <ele>191.089775</ele>
        <time>2021-09-06T12:53:59.000Z</time>
      </trkpt>
      <trkpt lat="48.45604" lon="-0.01264">
        <ele>189.791709</ele>
        <time>2021-09-06T12:54:08.000Z</time>
      </trkpt>
      <trkpt lat="48.45586" lon="-0.01185">
        <ele>188.620971</ele>
        <time>2021-09-06T12:54:16.000Z</time>
      </trkpt>
      <trkpt lat="48.4557" lon="-0.01115">
        <ele>187.75703</ele>
        <time>2021-09-06T12:54:23.000Z</time>
      </trkpt>
      <trkpt lat="48.4556" lon="-0.01072">
        <ele>187.219475</ele>
        <time>2021-09-06T12:54:28.000Z</time>
      </trkpt>
      <trkpt lat="48.45556" lon="-0.01068">
        <ele>187.137629</ele>
        <time>2021-09-06T12:54:29.000Z</time>
      </trkpt>
      <trkpt lat="48.45551" lon="-0.01063">
        <ele>187.035387</ele>
        <time>2021-09-06T12:54:31.000Z</time>
      </trkpt>
      <trkpt lat="48.4555" lon="-0.01059">
        <ele>186.980746</ele>
        <time>2021-09-06T12:54:32.000Z</time>
      </trkpt>
      <trkpt lat="48.45547" lon="-0.01047">
        <ele>186.835059</ele>
        <time>2021-09-06T12:54:34.000Z</time>
      </trkpt>
      <trkpt lat="48.45544" lon="-0.01033">
        <ele>186.66603</ele>
        <time>2021-09-06T12:54:36.000Z</time>
      </trkpt>
      <trkpt lat="48.45533" lon="-0.00977">
        <ele>185.972228</ele>
        <time>2021-09-06T12:54:43.000Z</time>
      </trkpt>
      <trkpt lat="48.45522" lon="-0.00926">
        <ele>185.333077</ele>
        <time>2021-09-06T12:54:49.000Z</time>
      </trkpt>
      <trkpt lat="48.45518" lon="-0.00908">
        <ele>185.082648</ele>
        <time>2021-09-06T12:54:51.000Z</time>
      </trkpt>
      <trkpt lat="48.45512" lon="-0.00879">
        <ele>184.702991</ele>
        <time>2021-09-06T12:54:54.000Z</time>
      </trkpt>
      <trkpt lat="48.45497" lon="-0.00793">
        <ele>183.58287</ele>
        <time>2021-09-06T12:55:03.000Z</time>
      </trkpt>
      <trkpt lat="48.45488" lon="-0.00734">
        <ele>182.813514</ele>
        <time>2021-09-06T12:55:09.000Z</time>
      </trkpt>
      <trkpt lat="48.45479" lon="-0.00659">
        <ele>181.839184</ele>
        <time>2021-09-06T12:55:17.000Z</time>
      </trkpt>
      <trkpt lat="48.45479" lon="-0.00651">
        <ele>181.730743</ele>
        <time>2021-09-06T12:55:18.000Z</time>
      </trkpt>
      <trkpt lat="48.45483" lon="-0.00637">
        <ele>181.530825</ele>
        <time>2021-09-06T12:55:20.000Z</time>
      </trkpt>
      <trkpt lat="48.45486" lon="-0.0062">
        <ele>181.312279</ele>
        <time>2021-09-06T12:55:22.000Z</time>
      </trkpt>
      <trkpt lat="48.45485" lon="-0.00611">
        <ele>181.189776</ele>
        <time>2021-09-06T12:55:23.000Z</time>
      </trkpt>
      <trkpt lat="48.45479" lon="-0.00546">
        <ele>180.331737</ele>
        <time>2021-09-06T12:55:30.000Z</time>
      </trkpt>
      <trkpt lat="48.45478" lon="-0.00471">
        <ele>179.349202</ele>
        <time>2021-09-06T12:55:38.000Z</time>
      </trkpt>
      <trkpt lat="48.45479" lon="-0.0039">
        <ele>178.17671</ele>
        <time>2021-09-06T12:55:46.000Z</time>
      </trkpt>
      <trkpt lat="48.45481" lon="-0.00316">
        <ele>176.838661</ele>
        <time>2021-09-06T12:55:53.000Z</time>
      </trkpt>
      <trkpt lat="48.45487" lon="-0.00242">
        <ele>175.494166</ele>
        <time>2021-09-06T12:56:00.000Z</time>
      </trkpt>
      <trkpt lat="48.45498" lon="-0.00157">
        <ele>173.937215</ele>
        <time>2021-09-06T12:56:08.000Z</time>
      </trkpt>
      <trkpt lat="48.45512" lon="-0.00081">
        <ele>172.660862</ele>
        <time>2021-09-06T12:56:15.000Z</time>
      </trkpt>
      <trkpt lat="48.45516" lon="-0.00059">
        <ele>172.292631</ele>
        <time>2021-09-06T12:56:17.000Z</time>
      </trkpt>
      <trkpt lat="48.45525" lon="-0.00024">
        <ele>171.707896</ele>
        <time>2021-09-06T12:56:20.000Z</time>
      </trkpt>
      <trkpt lat="48.45545" lon="0.0006">
        <ele>170.279831</ele>
        <time>2021-09-06T12:56:27.000Z</time>
      </trkpt>
      <trkpt lat="48.45565" lon="0.00145">
        <ele>169.081874</ele>
        <time>2021-09-06T12:56:34.000Z</time>
      </trkpt>
      <trkpt lat="48.45576" lon="0.002">
        <ele>168.546328</ele>
        <time>2021-09-06T12:56:39.000Z</time>
      </trkpt>
      <trkpt lat="48.45591" lon="0.0026">
        <ele>167.94896</ele>
        <time>2021-09-06T12:56:45.000Z</time>
      </trkpt>
      <trkpt lat="48.45606" lon="0.00319">
        <ele>167.373056</ele>
        <time>2021-09-06T12:56:51.000Z</time>
      </trkpt>
      <trkpt lat="48.45624" lon="0.00388">
        <ele>166.706131</ele>
        <time>2021-09-06T12:56:59.000Z</time>
      </trkpt>
      <trkpt lat="48.45635" lon="0.00435">
        <ele>166.284694</ele>
        <time>2021-09-06T12:57:05.000Z</time>
      </trkpt>
      <trkpt lat="48.45637" lon="0.00443">
        <ele>166.214582</ele>
        <time>2021-09-06T12:57:06.000Z</time>
      </trkpt>
      <trkpt lat="48.45652" lon="0.00501">
        <ele>165.691575</ele>
        <time>2021-09-06T12:57:13.000Z</time>
      </trkpt>
      <trkpt lat="48.45666" lon="0.00554">
        <ele>165.206595</ele>
        <time>2021-09-06T12:57:19.000Z</time>
      </trkpt>
      <trkpt lat="48.45669" lon="0.00563">
        <ele>165.122379</ele>
        <time>2021-09-06T12:57:20.000Z</time>
      </trkpt>
      <trkpt lat="48.45683" lon="0.00622">
        <ele>164.596637</ele>
        <time>2021-09-06T12:57:26.000Z</time>
      </trkpt>
      <trkpt lat="48.45701" lon="0.00686">
        <ele>163.796516</ele>
        <time>2021-09-06T12:57:32.000Z</time>
      </trkpt>
      <trkpt lat="48.45721" lon="0.00766">
        <ele>162.819802</ele>
        <time>2021-09-06T12:57:39.000Z</time>
      </trkpt>
      <trkpt lat="48.45723" lon="0.00778">
        <ele>162.678367</ele>
        <time>2021-09-06T12:57:40.000Z</time>
      </trkpt>
      <trkpt lat="48.45738" lon="0.00843">
        <ele>161.889421</ele>
        <time>2021-09-06T12:57:46.000Z</time>
      </trkpt>
      <trkpt lat="48.4575" lon="0.00895">
        <ele>161.291749</ele>
        <time>2021-09-06T12:57:52.000Z</time>
      </trkpt>
      <trkpt lat="48.45758" lon="0.00927">
        <ele>160.945941</ele>
        <time>2021-09-06T12:57:57.000Z</time>
      </trkpt>
      <trkpt lat="48.45766" lon="0.00961">
        <ele>160.586648</ele>
        <time>2021-09-06T12:58:03.000Z</time>
      </trkpt>
      <trkpt lat="48.45774" lon="0.00983">
        <ele>160.328064</ele>
        <time>2021-09-06T12:58:07.000Z</time>
      </trkpt>
      <trkpt lat="48.45783" lon="0.00999">
        <ele>160.11988</ele>
        <time>2021-09-06T12:58:10.000Z</time>
      </trkpt>
      <trkpt lat="48.45793" lon="0.01019">
        <ele>159.855452</ele>
        <time>2021-09-06T12:58:14.000Z</time>
      </trkpt>
      <trkpt lat="48.45798" lon="0.0103">
        <ele>159.726894</ele>
        <time>2021-09-06T12:58:16.000Z</time>
      </trkpt>
      <trkpt lat="48.45799" lon="0.01036">
        <ele>159.663156</ele>
        <time>2021-09-06T12:58:17.000Z</time>
      </trkpt>
      <trkpt lat="48.458" lon="0.01042">
        <ele>159.603811</ele>
        <time>2021-09-06T12:58:18.000Z</time>
      </trkpt>
      <trkpt lat="48.45799" lon="0.01057">
        <ele>159.450531</ele>
        <time>2021-09-06T12:58:20.000Z</time>
      </trkpt>
      <trkpt lat="48.45796" lon="0.01072">
        <ele>159.280422</ele>
        <time>2021-09-06T12:58:22.000Z</time>
      </trkpt>
      <trkpt lat="48.45792" lon="0.01079">
        <ele>159.196042</ele>
        <time>2021-09-06T12:58:23.000Z</time>
      </trkpt>
      <trkpt lat="48.45787" lon="0.01081">
        <ele>159.114785</ele>
        <time>2021-09-06T12:58:24.000Z</time>
      </trkpt>
      <trkpt lat="48.45782" lon="0.0108">
        <ele>159.038286</ele>
        <time>2021-09-06T12:58:25.000Z</time>
      </trkpt>
      <trkpt lat="48.45778" lon="0.01077">
        <ele>158.967609</ele>
        <time>2021-09-06T12:58:26.000Z</time>
      </trkpt>
      <trkpt lat="48.45772" lon="0.01079">
        <ele>158.874859</ele>
        <time>2021-09-06T12:58:28.000Z</time>
      </trkpt>
      <trkpt lat="48.45771" lon="0.01089">
        <ele>158.77702</ele>
        <time>2021-09-06T12:58:30.000Z</time>
      </trkpt>
      <trkpt lat="48.45772" lon="0.01095">
        <ele>158.735446</ele>
        <time>2021-09-06T12:58:31.000Z</time>
      </trkpt>
      <trkpt lat="48.45774" lon="0.01134">
        <ele>158.496421</ele>
        <time>2021-09-06T12:58:36.000Z</time>
      </trkpt>
      <trkpt lat="48.45774" lon="0.01188">
        <ele>158.169238</ele>
        <time>2021-09-06T12:58:42.000Z</time>
      </trkpt>
      <trkpt lat="48.45772" lon="0.01252">
        <ele>157.778465</ele>
        <time>2021-09-06T12:58:49.000Z</time>
      </trkpt>
      <trkpt lat="48.45772" lon="0.0126">
        <ele>157.7267</ele>
        <time>2021-09-06T12:58:50.000Z</time>
      </trkpt>
      <trkpt lat="48.4577" lon="0.01295">
        <ele>157.51373</ele>
        <time>2021-09-06T12:58:54.000Z</time>
      </trkpt>
      <trkpt lat="48.45763" lon="0.01354">
        <ele>157.15241</ele>
        <time>2021-09-06T12:59:01.000Z</time>
      </trkpt>
      <trkpt lat="48.45755" lon="0.01409">
        <ele>156.797916</ele>
        <time>2021-09-06T12:59:07.000Z</time>
      </trkpt>
      <trkpt lat="48.45747" lon="0.01472">
        <ele>156.389039</ele>
        <time>2021-09-06T12:59:14.000Z</time>
      </trkpt>
      <trkpt lat="48.45742" lon="0.01516">
        <ele>156.108907</ele>
        <time>2021-09-06T12:59:19.000Z</time>
      </trkpt>
      <trkpt lat="48.45735" lon="0.01567">
        <ele>155.777368</ele>
        <time>2021-09-06T12:59:25.000Z</time>
      </trkpt>
      <trkpt lat="48.45734" lon="0.01583">
        <ele>155.676114</ele>
        <time>2021-09-06T12:59:27.000Z</time>
      </trkpt>
      <trkpt lat="48.45728" lon="0.01613">
        <ele>155.480193</ele>
        <time>2021-09-06T12:59:30.000Z</time>
      </trkpt>
      <trkpt lat="48.45716" lon="0.01696">
        <ele>155.0077</ele>
        <time>2021-09-06T12:59:39.000Z</time>
      </trkpt>
      <trkpt lat="48.45714" lon="0.01705">
        <ele>154.957638</ele>
        <time>2021-09-06T12:59:40.000Z</time>
      </trkpt>
      <trkpt lat="48.45704" lon="0.01778">
        <ele>154.559232</ele>
        <time>2021-09-06T12:59:48.000Z</time>
      </trkpt>
      <trkpt lat="48.45699" lon="0.01813">
        <ele>154.364752</ele>
        <time>2021-09-06T12:59:52.000Z</time>
      </trkpt>
      <trkpt lat="48.45697" lon="0.0183">
        <ele>154.273489</ele>
        <time>2021-09-06T12:59:54.000Z</time>
      </trkpt>
      <trkpt lat="48.45691" lon="0.01879">
        <ele>154.004537</ele>
        <time>2021-09-06T13:00:00.000Z</time>
      </trkpt>
      <trkpt lat="48.45686" lon="0.01929">
        <ele>153.947934</ele>
        <time>2021-09-06T13:00:06.000Z</time>
      </trkpt>
      <trkpt lat="48.45675" lon="0.01996">
        <ele>153.96411</ele>
        <time>2021-09-06T13:00:13.000Z</time>
      </trkpt>
      <trkpt lat="48.45667" lon="0.02058">
        <ele>153.97906</ele>
        <time>2021-09-06T13:00:20.000Z</time>
      </trkpt>
      <trkpt lat="48.4566" lon="0.02114">
        <ele>153.992533</ele>
        <time>2021-09-06T13:00:27.000Z</time>
      </trkpt>
      <trkpt lat="48.45659" lon="0.02129">
        <ele>153.99599</ele>
        <time>2021-09-06T13:00:29.000Z</time>
      </trkpt>
      <trkpt lat="48.45655" lon="0.02148">
        <ele>154.00058</ele>
        <time>2021-09-06T13:00:32.000Z</time>
      </trkpt>
      <trkpt lat="48.45653" lon="0.02161">
        <ele>154.016538</ele>
        <time>2021-09-06T13:00:34.000Z</time>
      </trkpt>
      <trkpt lat="48.4565" lon="0.0219">
        <ele>154.101463</ele>
        <time>2021-09-06T13:00:38.000Z</time>
      </trkpt>
      <trkpt lat="48.45646" lon="0.0222">
        <ele>154.189185</ele>
        <time>2021-09-06T13:00:42.000Z</time>
      </trkpt>
      <trkpt lat="48.45644" lon="0.02234">
        <ele>154.230693</ele>
        <time>2021-09-06T13:00:44.000Z</time>
      </trkpt>
      <trkpt lat="48.4564" lon="0.02263">
        <ele>154.316501</ele>
        <time>2021-09-06T13:00:48.000Z</time>
      </trkpt>
      <trkpt lat="48.45638" lon="0.02277">
        <ele>154.359227</ele>
        <time>2021-09-06T13:00:50.000Z</time>
      </trkpt>
      <trkpt lat="48.45636" lon="0.02292">
        <ele>154.401284</ele>
        <time>2021-09-06T13:00:52.000Z</time>
      </trkpt>
      <trkpt lat="48.45633" lon="0.02313">
        <ele>154.46454</ele>
        <time>2021-09-06T13:00:55.000Z</time>
      </trkpt>
      <trkpt lat="48.45633" lon="0.0232">
        <ele>154.485359</ele>
        <time>2021-09-06T13:00:56.000Z</time>
      </trkpt>
      <trkpt lat="48.4563" lon="0.02336">
        <ele>154.531746</ele>
        <time>2021-09-06T13:00:58.000Z</time>
      </trkpt>
      <trkpt lat="48.45629" lon="0.02344">
        <ele>154.554995</ele>
        <time>2021-09-06T13:00:59.000Z</time>
      </trkpt>
      <trkpt lat="48.45628" lon="0.02351">
        <ele>154.577964</ele>
        <time>2021-09-06T13:01:00.000Z</time>
      </trkpt>
      <trkpt lat="48.45623" lon="0.02381">
        <ele>154.666543</ele>
        <time>2021-09-06T13:01:04.000Z</time>
      </trkpt>
      <trkpt lat="48.45617" lon="0.02428">
        <ele>154.829264</ele>
        <time>2021-09-06T13:01:10.000Z</time>
      </trkpt>
      <trkpt lat="48.45608" lon="0.02492">
        <ele>155.311178</ele>
        <time>2021-09-06T13:01:19.000Z</time>
      </trkpt>
      <trkpt lat="48.45603" lon="0.02527">
        <ele>155.571812</ele>
        <time>2021-09-06T13:01:24.000Z</time>
      </trkpt>
      <trkpt lat="48.45602" lon="0.02539">
        <ele>155.662793</ele>
        <time>2021-09-06T13:01:26.000Z</time>
      </trkpt>
      <trkpt lat="48.45602" lon="0.02545">
        <ele>155.706112</ele>
        <time>2021-09-06T13:01:27.000Z</time>
      </trkpt>
      <trkpt lat="48.45601" lon="0.02558">
        <ele>155.802936</ele>
        <time>2021-09-06T13:01:29.000Z</time>
      </trkpt>
      <trkpt lat="48.45599" lon="0.02572">
        <ele>155.908663</ele>
        <time>2021-09-06T13:01:31.000Z</time>
      </trkpt>
      <trkpt lat="48.45592" lon="0.0262">
        <ele>156.268389</ele>
        <time>2021-09-06T13:01:38.000Z</time>
      </trkpt>
      <trkpt lat="48.45591" lon="0.02633">
        <ele>156.361932</ele>
        <time>2021-09-06T13:01:40.000Z</time>
      </trkpt>
      <trkpt lat="48.45588" lon="0.0266">
        <ele>156.561767</ele>
        <time>2021-09-06T13:01:44.000Z</time>
      </trkpt>
      <trkpt lat="48.4558" lon="0.02725">
        <ele>156.765152</ele>
        <time>2021-09-06T13:01:53.000Z</time>
      </trkpt>
      <trkpt lat="48.45572" lon="0.02786">
        <ele>156.748138</ele>
        <time>2021-09-06T13:02:01.000Z</time>
      </trkpt>
      <trkpt lat="48.45564" lon="0.02834">
        <ele>156.734626</ele>
        <time>2021-09-06T13:02:07.000Z</time>
      </trkpt>
      <trkpt lat="48.45564" lon="0.02841">
        <ele>156.732761</ele>
        <time>2021-09-06T13:02:08.000Z</time>
      </trkpt>
      <trkpt lat="48.45562" lon="0.02862">
        <ele>156.726971</ele>
        <time>2021-09-06T13:02:11.000Z</time>
      </trkpt>
      <trkpt lat="48.45561" lon="0.02869">
        <ele>156.724763</ele>
        <time>2021-09-06T13:02:12.000Z</time>
      </trkpt>
      <trkpt lat="48.45558" lon="0.02886">
        <ele>156.720044</ele>
        <time>2021-09-06T13:02:14.000Z</time>
      </trkpt>
      <trkpt lat="48.4555" lon="0.02927">
        <ele>156.708548</ele>
        <time>2021-09-06T13:02:19.000Z</time>
      </trkpt>
      <trkpt lat="48.4554" lon="0.02993">
        <ele>156.585207</ele>
        <time>2021-09-06T13:02:28.000Z</time>
      </trkpt>
      <trkpt lat="48.45534" lon="0.03044">
        <ele>156.437245</ele>
        <time>2021-09-06T13:02:35.000Z</time>
      </trkpt>
      <trkpt lat="48.45533" lon="0.03052">
        <ele>156.416295</ele>
        <time>2021-09-06T13:02:36.000Z</time>
      </trkpt>
      <trkpt lat="48.4553" lon="0.03082">
        <ele>156.33019</ele>
        <time>2021-09-06T13:02:40.000Z</time>
      </trkpt>
      <trkpt lat="48.45528" lon="0.03089">
        <ele>156.308817</ele>
        <time>2021-09-06T13:02:41.000Z</time>
      </trkpt>
      <trkpt lat="48.45527" lon="0.03096">
        <ele>156.2873</ele>
        <time>2021-09-06T13:02:42.000Z</time>
      </trkpt>
      <trkpt lat="48.45521" lon="0.03135">
        <ele>156.175323</ele>
        <time>2021-09-06T13:02:47.000Z</time>
      </trkpt>
      <trkpt lat="48.45513" lon="0.03191">
        <ele>156.013033</ele>
        <time>2021-09-06T13:02:54.000Z</time>
      </trkpt>
      <trkpt lat="48.45502" lon="0.03264">
        <ele>155.72776</ele>
        <time>2021-09-06T13:03:03.000Z</time>
      </trkpt>
      <trkpt lat="48.45499" lon="0.0328">
        <ele>155.657548</ele>
        <time>2021-09-06T13:03:05.000Z</time>
      </trkpt>
      <trkpt lat="48.45494" lon="0.03302">
        <ele>155.553138</ele>
        <time>2021-09-06T13:03:08.000Z</time>
      </trkpt>
      <trkpt lat="48.45489" lon="0.03332">
        <ele>155.41863</ele>
        <time>2021-09-06T13:03:12.000Z</time>
      </trkpt>
      <trkpt lat="48.45485" lon="0.03347">
        <ele>155.350638</ele>
        <time>2021-09-06T13:03:14.000Z</time>
      </trkpt>
      <trkpt lat="48.45469" lon="0.0341">
        <ele>155.056161</ele>
        <time>2021-09-06T13:03:22.000Z</time>
      </trkpt>
      <trkpt lat="48.45467" lon="0.03417">
        <ele>155.021684</ele>
        <time>2021-09-06T13:03:23.000Z</time>
      </trkpt>
      <trkpt lat="48.45456" lon="0.03454">
        <ele>154.842527</ele>
        <time>2021-09-06T13:03:28.000Z</time>
      </trkpt>
      <trkpt lat="48.45438" lon="0.03513">
        <ele>154.911477</ele>
        <time>2021-09-06T13:03:36.000Z</time>
      </trkpt>
      <trkpt lat="48.45429" lon="0.03542">
        <ele>155.029546</ele>
        <time>2021-09-06T13:03:40.000Z</time>
      </trkpt>
      <trkpt lat="48.45423" lon="0.03562">
        <ele>155.112306</ele>
        <time>2021-09-06T13:03:43.000Z</time>
      </trkpt>
      <trkpt lat="48.45418" lon="0.03574">
        <ele>155.16269</ele>
        <time>2021-09-06T13:03:45.000Z</time>
      </trkpt>
      <trkpt lat="48.45411" lon="0.0359">
        <ele>155.236556</ele>
        <time>2021-09-06T13:03:48.000Z</time>
      </trkpt>
      <trkpt lat="48.45392" lon="0.03638">
        <ele>155.443862</ele>
        <time>2021-09-06T13:03:55.000Z</time>
      </trkpt>
      <trkpt lat="48.45374" lon="0.03679">
        <ele>155.624359</ele>
        <time>2021-09-06T13:04:01.000Z</time>
      </trkpt>
      <trkpt lat="48.45349" lon="0.03734">
        <ele>155.917182</ele>
        <time>2021-09-06T13:04:09.000Z</time>
      </trkpt>
      <trkpt lat="48.45327" lon="0.03783">
        <ele>156.22138</ele>
        <time>2021-09-06T13:04:16.000Z</time>
      </trkpt>
      <trkpt lat="48.45308" lon="0.03825">
        <ele>156.483852</ele>
        <time>2021-09-06T13:04:22.000Z</time>
      </trkpt>
      <trkpt lat="48.4528" lon="0.03889">
        <ele>156.877582</ele>
        <time>2021-09-06T13:04:31.000Z</time>
      </trkpt>
      <trkpt lat="48.45262" lon="0.03931">
        <ele>157.136625</ele>
        <time>2021-09-06T13:04:37.000Z</time>
      </trkpt>
      <trkpt lat="48.45233" lon="0.03996">
        <ele>157.380888</ele>
        <time>2021-09-06T13:04:46.000Z</time>
      </trkpt>
      <trkpt lat="48.45211" lon="0.04047">
        <ele>157.568449</ele>
        <time>2021-09-06T13:04:53.000Z</time>
      </trkpt>
      <trkpt lat="48.45189" lon="0.04098">
        <ele>157.756279</ele>
        <time>2021-09-06T13:05:00.000Z</time>
      </trkpt>
      <trkpt lat="48.45163" lon="0.04162">
        <ele>157.986299</ele>
        <time>2021-09-06T13:05:09.000Z</time>
      </trkpt>
      <trkpt lat="48.45145" lon="0.04212">
        <ele>158.108339</ele>
        <time>2021-09-06T13:05:16.000Z</time>
      </trkpt>
      <trkpt lat="48.45126" lon="0.04272">
        <ele>158.249864</ele>
        <time>2021-09-06T13:05:24.000Z</time>
      </trkpt>
      <trkpt lat="48.45117" lon="0.04294">
        <ele>158.305068</ele>
        <time>2021-09-06T13:05:28.000Z</time>
      </trkpt>
      <trkpt lat="48.45108" lon="0.0433">
        <ele>158.388353</ele>
        <time>2021-09-06T13:05:34.000Z</time>
      </trkpt>
      <trkpt lat="48.45106" lon="0.04336">
        <ele>158.401433</ele>
        <time>2021-09-06T13:05:35.000Z</time>
      </trkpt>
      <trkpt lat="48.45102" lon="0.04347">
        <ele>158.42763</ele>
        <time>2021-09-06T13:05:37.000Z</time>
      </trkpt>
      <trkpt lat="48.451" lon="0.04352">
        <ele>158.440925</ele>
        <time>2021-09-06T13:05:38.000Z</time>
      </trkpt>
      <trkpt lat="48.45099" lon="0.04358">
        <ele>158.454825</ele>
        <time>2021-09-06T13:05:39.000Z</time>
      </trkpt>
      <trkpt lat="48.45096" lon="0.04371">
        <ele>158.484434</ele>
        <time>2021-09-06T13:05:41.000Z</time>
      </trkpt>
      <trkpt lat="48.45093" lon="0.04385">
        <ele>158.514142</ele>
        <time>2021-09-06T13:05:43.000Z</time>
      </trkpt>
      <trkpt lat="48.45085" lon="0.04427">
        <ele>158.632218</ele>
        <time>2021-09-06T13:05:50.000Z</time>
      </trkpt>
      <trkpt lat="48.4508" lon="0.04452">
        <ele>158.720199</ele>
        <time>2021-09-06T13:05:54.000Z</time>
      </trkpt>
      <trkpt lat="48.45078" lon="0.04466">
        <ele>158.767026</ele>
        <time>2021-09-06T13:05:56.000Z</time>
      </trkpt>
      <trkpt lat="48.45072" lon="0.04493">
        <ele>158.864722</ele>
        <time>2021-09-06T13:06:00.000Z</time>
      </trkpt>
      <trkpt lat="48.45069" lon="0.04507">
        <ele>158.913168</ele>
        <time>2021-09-06T13:06:02.000Z</time>
      </trkpt>
      <trkpt lat="48.45062" lon="0.04563">
        <ele>159.103124</ele>
        <time>2021-09-06T13:06:10.000Z</time>
      </trkpt>
      <trkpt lat="48.45058" lon="0.04597">
        <ele>159.216968</ele>
        <time>2021-09-06T13:06:15.000Z</time>
      </trkpt>
      <trkpt lat="48.45057" lon="0.04604">
        <ele>159.240103</ele>
        <time>2021-09-06T13:06:16.000Z</time>
      </trkpt>
      <trkpt lat="48.45052" lon="0.04641">
        <ele>159.368147</ele>
        <time>2021-09-06T13:06:22.000Z</time>
      </trkpt>
      <trkpt lat="48.4505" lon="0.04665">
        <ele>159.446743</ele>
        <time>2021-09-06T13:06:26.000Z</time>
      </trkpt>
      <trkpt lat="48.45047" lon="0.04705">
        <ele>159.586097</ele>
        <time>2021-09-06T13:06:32.000Z</time>
      </trkpt>
      <trkpt lat="48.45043" lon="0.04761">
        <ele>159.77755</ele>
        <time>2021-09-06T13:06:40.000Z</time>
      </trkpt>
      <trkpt lat="48.45041" lon="0.04794">
        <ele>159.890839</ele>
        <time>2021-09-06T13:06:45.000Z</time>
      </trkpt>
      <trkpt lat="48.4504" lon="0.04801">
        <ele>159.913748</ele>
        <time>2021-09-06T13:06:46.000Z</time>
      </trkpt>
      <trkpt lat="48.45037" lon="0.04833">
        <ele>160.024963</ele>
        <time>2021-09-06T13:06:51.000Z</time>
      </trkpt>
      <trkpt lat="48.45036" lon="0.04847">
        <ele>160.072101</ele>
        <time>2021-09-06T13:06:53.000Z</time>
      </trkpt>
      <trkpt lat="48.45032" lon="0.04894">
        <ele>160.233687</ele>
        <time>2021-09-06T13:07:00.000Z</time>
      </trkpt>
      <trkpt lat="48.45031" lon="0.04932">
        <ele>160.365051</ele>
        <time>2021-09-06T13:07:06.000Z</time>
      </trkpt>
      <trkpt lat="48.45026" lon="0.04985">
        <ele>160.511194</ele>
        <time>2021-09-06T13:07:14.000Z</time>
      </trkpt>
      <trkpt lat="48.45021" lon="0.05044">
        <ele>160.665327</ele>
        <time>2021-09-06T13:07:23.000Z</time>
      </trkpt>
      <trkpt lat="48.45016" lon="0.05104">
        <ele>160.82335</ele>
        <time>2021-09-06T13:07:32.000Z</time>
      </trkpt>
      <trkpt lat="48.45012" lon="0.05135">
        <ele>160.904959</ele>
        <time>2021-09-06T13:07:37.000Z</time>
      </trkpt>
      <trkpt lat="48.45011" lon="0.05175">
        <ele>161.009639</ele>
        <time>2021-09-06T13:07:43.000Z</time>
      </trkpt>
      <trkpt lat="48.4501" lon="0.05182">
        <ele>161.028074</ele>
        <time>2021-09-06T13:07:44.000Z</time>
      </trkpt>
      <trkpt lat="48.45008" lon="0.05197">
        <ele>161.065847</ele>
        <time>2021-09-06T13:07:46.000Z</time>
      </trkpt>
      <trkpt lat="48.45007" lon="0.05212">
        <ele>161.091132</ele>
        <time>2021-09-06T13:07:48.000Z</time>
      </trkpt>
      <trkpt lat="48.45005" lon="0.05251">
        <ele>160.962862</ele>
        <time>2021-09-06T13:07:53.000Z</time>
      </trkpt>
      <trkpt lat="48.45004" lon="0.05259">
        <ele>160.937539</ele>
        <time>2021-09-06T13:07:54.000Z</time>
      </trkpt>
      <trkpt lat="48.45001" lon="0.05307">
        <ele>160.781152</ele>
        <time>2021-09-06T13:08:00.000Z</time>
      </trkpt>
      <trkpt lat="48.45001" lon="0.05315">
        <ele>160.755848</ele>
        <time>2021-09-06T13:08:01.000Z</time>
      </trkpt>
      <trkpt lat="48.45" lon="0.05338">
        <ele>160.681327</ele>
        <time>2021-09-06T13:08:04.000Z</time>
      </trkpt>
      <trkpt lat="48.44993" lon="0.05394">
        <ele>160.496172</ele>
        <time>2021-09-06T13:08:11.000Z</time>
      </trkpt>
      <trkpt lat="48.4499" lon="0.05437">
        <ele>160.353596</ele>
        <time>2021-09-06T13:08:16.000Z</time>
      </trkpt>
      <trkpt lat="48.4499" lon="0.05445">
        <ele>160.328897</ele>
        <time>2021-09-06T13:08:17.000Z</time>
      </trkpt>
      <trkpt lat="48.44988" lon="0.05491">
        <ele>160.13809</ele>
        <time>2021-09-06T13:08:23.000Z</time>
      </trkpt>
      <trkpt lat="48.44988" lon="0.05504">
        <ele>160.056017</ele>
        <time>2021-09-06T13:08:24.000Z</time>
      </trkpt>
      <trkpt lat="48.44986" lon="0.05541">
        <ele>159.81796</ele>
        <time>2021-09-06T13:08:28.000Z</time>
      </trkpt>
      <trkpt lat="48.44981" lon="0.05593">
        <ele>159.482674</ele>
        <time>2021-09-06T13:08:34.000Z</time>
      </trkpt>
      <trkpt lat="48.44977" lon="0.05655">
        <ele>159.087133</ele>
        <time>2021-09-06T13:08:41.000Z</time>
      </trkpt>
      <trkpt lat="48.44974" lon="0.05682">
        <ele>158.910141</ele>
        <time>2021-09-06T13:08:44.000Z</time>
      </trkpt>
      <trkpt lat="48.44972" lon="0.057">
        <ele>158.794256</ele>
        <time>2021-09-06T13:08:46.000Z</time>
      </trkpt>
      <trkpt lat="48.44971" lon="0.05708">
        <ele>158.742266</ele>
        <time>2021-09-06T13:08:47.000Z</time>
      </trkpt>
      <trkpt lat="48.4497" lon="0.05725">
        <ele>158.634109</ele>
        <time>2021-09-06T13:08:49.000Z</time>
      </trkpt>
      <trkpt lat="48.44969" lon="0.05733">
        <ele>158.577592</ele>
        <time>2021-09-06T13:08:50.000Z</time>
      </trkpt>
      <trkpt lat="48.44963" lon="0.05803">
        <ele>157.979366</ele>
        <time>2021-09-06T13:08:58.000Z</time>
      </trkpt>
      <trkpt lat="48.44962" lon="0.05811">
        <ele>157.911003</ele>
        <time>2021-09-06T13:08:59.000Z</time>
      </trkpt>
      <trkpt lat="48.44961" lon="0.05826">
        <ele>157.77131</ele>
        <time>2021-09-06T13:09:01.000Z</time>
      </trkpt>
      <trkpt lat="48.4496" lon="0.05843">
        <ele>157.620044</ele>
        <time>2021-09-06T13:09:03.000Z</time>
      </trkpt>
      <trkpt lat="48.44959" lon="0.05859">
        <ele>157.471406</ele>
        <time>2021-09-06T13:09:05.000Z</time>
      </trkpt>
      <trkpt lat="48.44958" lon="0.05905">
        <ele>157.051021</ele>
        <time>2021-09-06T13:09:11.000Z</time>
      </trkpt>
      <trkpt lat="48.44953" lon="0.05962">
        <ele>156.530444</ele>
        <time>2021-09-06T13:09:18.000Z</time>
      </trkpt>
      <trkpt lat="48.44952" lon="0.05971">
        <ele>156.454769</ele>
        <time>2021-09-06T13:09:19.000Z</time>
      </trkpt>
      <trkpt lat="48.4495" lon="0.06005">
        <ele>156.143571</ele>
        <time>2021-09-06T13:09:23.000Z</time>
      </trkpt>
      <trkpt lat="48.44945" lon="0.0606">
        <ele>155.572076</ele>
        <time>2021-09-06T13:09:29.000Z</time>
      </trkpt>
      <trkpt lat="48.44938" lon="0.06137">
        <ele>154.741432</ele>
        <time>2021-09-06T13:09:38.000Z</time>
      </trkpt>
      <trkpt lat="48.44938" lon="0.06153">
        <ele>154.573236</ele>
        <time>2021-09-06T13:09:40.000Z</time>
      </trkpt>
      <trkpt lat="48.44937" lon="0.06183">
        <ele>154.249386</ele>
        <time>2021-09-06T13:09:44.000Z</time>
      </trkpt>
      <trkpt lat="48.44934" lon="0.06209">
        <ele>153.970073</ele>
        <time>2021-09-06T13:09:48.000Z</time>
      </trkpt>
      <trkpt lat="48.44933" lon="0.06222">
        <ele>153.825144</ele>
        <time>2021-09-06T13:09:50.000Z</time>
      </trkpt>
      <trkpt lat="48.4493" lon="0.0627">
        <ele>153.317894</ele>
        <time>2021-09-06T13:09:56.000Z</time>
      </trkpt>
      <trkpt lat="48.44929" lon="0.06278">
        <ele>153.225066</ele>
        <time>2021-09-06T13:09:57.000Z</time>
      </trkpt>
      <trkpt lat="48.44918" lon="0.06356">
        <ele>152.278035</ele>
        <time>2021-09-06T13:10:06.000Z</time>
      </trkpt>
      <trkpt lat="48.44909" lon="0.06414">
        <ele>151.557222</ele>
        <time>2021-09-06T13:10:13.000Z</time>
      </trkpt>
      <trkpt lat="48.44908" lon="0.06422">
        <ele>151.459258</ele>
        <time>2021-09-06T13:10:14.000Z</time>
      </trkpt>
      <trkpt lat="48.44906" lon="0.06438">
        <ele>151.26481</ele>
        <time>2021-09-06T13:10:16.000Z</time>
      </trkpt>
      <trkpt lat="48.44905" lon="0.06446">
        <ele>151.169194</ele>
        <time>2021-09-06T13:10:17.000Z</time>
      </trkpt>
      <trkpt lat="48.449" lon="0.06487">
        <ele>150.663047</ele>
        <time>2021-09-06T13:10:22.000Z</time>
      </trkpt>
      <trkpt lat="48.44888" lon="0.06557">
        <ele>149.812609</ele>
        <time>2021-09-06T13:10:30.000Z</time>
      </trkpt>
      <trkpt lat="48.44877" lon="0.0662">
        <ele>149.126685</ele>
        <time>2021-09-06T13:10:37.000Z</time>
      </trkpt>
      <trkpt lat="48.44867" lon="0.06682">
        <ele>148.446735</ele>
        <time>2021-09-06T13:10:44.000Z</time>
      </trkpt>
      <trkpt lat="48.4486" lon="0.06729">
        <ele>147.941522</ele>
        <time>2021-09-06T13:10:50.000Z</time>
      </trkpt>
      <trkpt lat="48.44852" lon="0.06774">
        <ele>147.451574</ele>
        <time>2021-09-06T13:10:56.000Z</time>
      </trkpt>
      <trkpt lat="48.4485" lon="0.0679">
        <ele>147.284184</ele>
        <time>2021-09-06T13:10:58.000Z</time>
      </trkpt>
      <trkpt lat="48.44848" lon="0.06805">
        <ele>147.123009</ele>
        <time>2021-09-06T13:11:00.000Z</time>
      </trkpt>
      <trkpt lat="48.44844" lon="0.06839">
        <ele>146.730904</ele>
        <time>2021-09-06T13:11:05.000Z</time>
      </trkpt>
      <trkpt lat="48.44842" lon="0.06844">
        <ele>146.659275</ele>
        <time>2021-09-06T13:11:06.000Z</time>
      </trkpt>
      <trkpt lat="48.44837" lon="0.06874">
        <ele>146.301062</ele>
        <time>2021-09-06T13:11:11.000Z</time>
      </trkpt>
      <trkpt lat="48.44828" lon="0.06929">
        <ele>145.648363</ele>
        <time>2021-09-06T13:11:18.000Z</time>
      </trkpt>
      <trkpt lat="48.44821" lon="0.06967">
        <ele>145.184064</ele>
        <time>2021-09-06T13:11:23.000Z</time>
      </trkpt>
      <trkpt lat="48.4482" lon="0.06974">
        <ele>145.100303</ele>
        <time>2021-09-06T13:11:24.000Z</time>
      </trkpt>
      <trkpt lat="48.44815" lon="0.0701">
        <ele>144.675152</ele>
        <time>2021-09-06T13:11:29.000Z</time>
      </trkpt>
      <trkpt lat="48.44813" lon="0.07017">
        <ele>144.586267</ele>
        <time>2021-09-06T13:11:30.000Z</time>
      </trkpt>
      <trkpt lat="48.44807" lon="0.07066">
        <ele>144.013847</ele>
        <time>2021-09-06T13:11:36.000Z</time>
      </trkpt>
      <trkpt lat="48.44801" lon="0.07109">
        <ele>143.810691</ele>
        <time>2021-09-06T13:11:41.000Z</time>
      </trkpt>
      <trkpt lat="48.44787" lon="0.07181">
        <ele>143.680818</ele>
        <time>2021-09-06T13:11:49.000Z</time>
      </trkpt>
      <trkpt lat="48.44776" lon="0.07246">
        <ele>143.565545</ele>
        <time>2021-09-06T13:11:57.000Z</time>
      </trkpt>
      <trkpt lat="48.44775" lon="0.07253">
        <ele>143.553426</ele>
        <time>2021-09-06T13:11:58.000Z</time>
      </trkpt>
      <trkpt lat="48.44772" lon="0.07273">
        <ele>143.518859</ele>
        <time>2021-09-06T13:12:01.000Z</time>
      </trkpt>
      <trkpt lat="48.44771" lon="0.07279">
        <ele>143.508197</ele>
        <time>2021-09-06T13:12:02.000Z</time>
      </trkpt>
      <trkpt lat="48.44767" lon="0.07306">
        <ele>143.459898</ele>
        <time>2021-09-06T13:12:08.000Z</time>
      </trkpt>
      <trkpt lat="48.44763" lon="0.07335">
        <ele>143.40919</ele>
        <time>2021-09-06T13:12:15.000Z</time>
      </trkpt>
      <trkpt lat="48.4476" lon="0.07352">
        <ele>143.480816</ele>
        <time>2021-09-06T13:12:21.000Z</time>
      </trkpt>
      <trkpt lat="48.44757" lon="0.07374">
        <ele>143.641497</ele>
        <time>2021-09-06T13:12:26.000Z</time>
      </trkpt>
      <trkpt lat="48.44751" lon="0.0741">
        <ele>143.906725</ele>
        <time>2021-09-06T13:12:33.000Z</time>
      </trkpt>
      <trkpt lat="48.44744" lon="0.07452">
        <ele>144.223961</ele>
        <time>2021-09-06T13:12:40.000Z</time>
      </trkpt>
      <trkpt lat="48.44738" lon="0.07491">
        <ele>144.514708</ele>
        <time>2021-09-06T13:12:46.000Z</time>
      </trkpt>
      <trkpt lat="48.44736" lon="0.07504">
        <ele>144.612036</ele>
        <time>2021-09-06T13:12:48.000Z</time>
      </trkpt>
      <trkpt lat="48.44727" lon="0.07557">
        <ele>145.00979</ele>
        <time>2021-09-06T13:12:56.000Z</time>
      </trkpt>
      <trkpt lat="48.44718" lon="0.0761">
        <ele>145.423029</ele>
        <time>2021-09-06T13:13:04.000Z</time>
      </trkpt>
      <trkpt lat="48.44709" lon="0.07671">
        <ele>146.021676</ele>
        <time>2021-09-06T13:13:13.000Z</time>
      </trkpt>
      <trkpt lat="48.44702" lon="0.07717">
        <ele>146.483976</ele>
        <time>2021-09-06T13:13:20.000Z</time>
      </trkpt>
      <trkpt lat="48.44696" lon="0.07749">
        <ele>146.806588</ele>
        <time>2021-09-06T13:13:25.000Z</time>
      </trkpt>
      <trkpt lat="48.44694" lon="0.07755">
        <ele>146.868584</ele>
        <time>2021-09-06T13:13:26.000Z</time>
      </trkpt>
      <trkpt lat="48.4469" lon="0.07788">
        <ele>147.191148</ele>
        <time>2021-09-06T13:13:32.000Z</time>
      </trkpt>
      <trkpt lat="48.44684" lon="0.07809">
        <ele>147.410722</ele>
        <time>2021-09-06T13:13:37.000Z</time>
      </trkpt>
      <trkpt lat="48.44673" lon="0.07825">
        <ele>147.639486</ele>
        <time>2021-09-06T13:13:41.000Z</time>
      </trkpt>
      <trkpt lat="48.44645" lon="0.07862">
        <ele>148.025583</ele>
        <time>2021-09-06T13:13:48.000Z</time>
      </trkpt>
      <trkpt lat="48.44611" lon="0.07903">
        <ele>148.159569</ele>
        <time>2021-09-06T13:13:55.000Z</time>
      </trkpt>
      <trkpt lat="48.44564" lon="0.07952">
        <ele>148.332104</ele>
        <time>2021-09-06T13:14:03.000Z</time>
      </trkpt>
      <trkpt lat="48.44559" lon="0.07958">
        <ele>148.35381</ele>
        <time>2021-09-06T13:14:04.000Z</time>
      </trkpt>
      <trkpt lat="48.44511" lon="0.08003">
        <ele>148.524357</ele>
        <time>2021-09-06T13:14:12.000Z</time>
      </trkpt>
      <trkpt lat="48.44505" lon="0.08008">
        <ele>148.531634</ele>
        <time>2021-09-06T13:14:13.000Z</time>
      </trkpt>
      <trkpt lat="48.44458" lon="0.08037">
        <ele>148.479135</ele>
        <time>2021-09-06T13:14:21.000Z</time>
      </trkpt>
      <trkpt lat="48.44423" lon="0.08055">
        <ele>148.441318</ele>
        <time>2021-09-06T13:14:27.000Z</time>
      </trkpt>
      <trkpt lat="48.44376" lon="0.08078">
        <ele>148.391355</ele>
        <time>2021-09-06T13:14:35.000Z</time>
      </trkpt>
      <trkpt lat="48.4433" lon="0.08096">
        <ele>148.314961</ele>
        <time>2021-09-06T13:14:43.000Z</time>
      </trkpt>
      <trkpt lat="48.44282" lon="0.08112">
        <ele>148.107646</ele>
        <time>2021-09-06T13:14:51.000Z</time>
      </trkpt>
      <trkpt lat="48.44243" lon="0.08126">
        <ele>147.939879</ele>
        <time>2021-09-06T13:14:58.000Z</time>
      </trkpt>
      <trkpt lat="48.44203" lon="0.08141">
        <ele>147.765287</ele>
        <time>2021-09-06T13:15:05.000Z</time>
      </trkpt>
      <trkpt lat="48.44169" lon="0.08153">
        <ele>147.615182</ele>
        <time>2021-09-06T13:15:11.000Z</time>
      </trkpt>
      <trkpt lat="48.44124" lon="0.08168">
        <ele>147.435396</ele>
        <time>2021-09-06T13:15:19.000Z</time>
      </trkpt>
      <trkpt lat="48.44085" lon="0.08184">
        <ele>147.276658</ele>
        <time>2021-09-06T13:15:26.000Z</time>
      </trkpt>
      <trkpt lat="48.44044" lon="0.08206">
        <ele>147.107636</ele>
        <time>2021-09-06T13:15:33.000Z</time>
      </trkpt>
      <trkpt lat="48.43995" lon="0.08241">
        <ele>146.895884</ele>
        <time>2021-09-06T13:15:42.000Z</time>
      </trkpt>
      <trkpt lat="48.43963" lon="0.08267">
        <ele>146.711648</ele>
        <time>2021-09-06T13:15:48.000Z</time>
      </trkpt>
      <trkpt lat="48.43927" lon="0.08297">
        <ele>146.500568</ele>
        <time>2021-09-06T13:15:55.000Z</time>
      </trkpt>
      <trkpt lat="48.43908" lon="0.08313">
        <ele>146.391187</ele>
        <time>2021-09-06T13:15:59.000Z</time>
      </trkpt>
      <trkpt lat="48.43904" lon="0.08315">
        <ele>146.370484</ele>
        <time>2021-09-06T13:16:00.000Z</time>
      </trkpt>
      <trkpt lat="48.43887" lon="0.08322">
        <ele>146.279844</ele>
        <time>2021-09-06T13:16:05.000Z</time>
      </trkpt>
      <trkpt lat="48.43885" lon="0.08326">
        <ele>146.26084</ele>
        <time>2021-09-06T13:16:06.000Z</time>
      </trkpt>
      <trkpt lat="48.43882" lon="0.0834">
        <ele>146.214196</ele>
        <time>2021-09-06T13:16:08.000Z</time>
      </trkpt>
      <trkpt lat="48.43882" lon="0.08354">
        <ele>146.164626</ele>
        <time>2021-09-06T13:16:10.000Z</time>
      </trkpt>
      <trkpt lat="48.43879" lon="0.08369">
        <ele>146.112433</ele>
        <time>2021-09-06T13:16:12.000Z</time>
      </trkpt>
      <trkpt lat="48.43863" lon="0.08426">
        <ele>145.934844</ele>
        <time>2021-09-06T13:16:20.000Z</time>
      </trkpt>
      <trkpt lat="48.43848" lon="0.08483">
        <ele>145.82868</ele>
        <time>2021-09-06T13:16:28.000Z</time>
      </trkpt>
      <trkpt lat="48.4383" lon="0.08549">
        <ele>145.705407</ele>
        <time>2021-09-06T13:16:37.000Z</time>
      </trkpt>
      <trkpt lat="48.4382" lon="0.08584">
        <ele>145.639505</ele>
        <time>2021-09-06T13:16:42.000Z</time>
      </trkpt>
      <trkpt lat="48.43816" lon="0.08597">
        <ele>145.615022</ele>
        <time>2021-09-06T13:16:44.000Z</time>
      </trkpt>
      <trkpt lat="48.43809" lon="0.08618">
        <ele>145.574733</ele>
        <time>2021-09-06T13:16:49.000Z</time>
      </trkpt>
      <trkpt lat="48.43809" lon="0.08619">
        <ele>145.572592</ele>
        <time>2021-09-06T13:16:52.000Z</time>
      </trkpt>
      <trkpt lat="48.43808" lon="0.08623">
        <ele>145.565608</ele>
        <time>2021-09-06T13:17:00.000Z</time>
      </trkpt>
      <trkpt lat="48.43802" lon="0.08642">
        <ele>145.529769</ele>
        <time>2021-09-06T13:17:06.000Z</time>
      </trkpt>
      <trkpt lat="48.43791" lon="0.08668">
        <ele>145.430264</ele>
        <time>2021-09-06T13:17:13.000Z</time>
      </trkpt>
      <trkpt lat="48.43777" lon="0.08694">
        <ele>145.280798</ele>
        <time>2021-09-06T13:17:19.000Z</time>
      </trkpt>
      <trkpt lat="48.43758" lon="0.0873">
        <ele>145.069637</ele>
        <time>2021-09-06T13:17:27.000Z</time>
      </trkpt>
      <trkpt lat="48.4374" lon="0.08767">
        <ele>144.860091</ele>
        <time>2021-09-06T13:17:35.000Z</time>
      </trkpt>
      <trkpt lat="48.43733" lon="0.08779">
        <ele>144.784962</ele>
        <time>2021-09-06T13:17:39.000Z</time>
      </trkpt>
      <trkpt lat="48.43731" lon="0.0878">
        <ele>144.771658</ele>
        <time>2021-09-06T13:17:40.000Z</time>
      </trkpt>
      <trkpt lat="48.43729" lon="0.08779">
        <ele>144.75426</ele>
        <time>2021-09-06T13:17:42.000Z</time>
      </trkpt>
      <trkpt lat="48.43724" lon="0.08773">
        <ele>144.710222</ele>
        <time>2021-09-06T13:17:45.000Z</time>
      </trkpt>
      <trkpt lat="48.43717" lon="0.08762">
        <ele>144.642661</ele>
        <time>2021-09-06T13:17:49.000Z</time>
      </trkpt>
      <trkpt lat="48.43711" lon="0.08746">
        <ele>144.557007</ele>
        <time>2021-09-06T13:17:55.000Z</time>
      </trkpt>
      <trkpt lat="48.43707" lon="0.08737">
        <ele>144.509455</ele>
        <time>2021-09-06T13:17:59.000Z</time>
      </trkpt>
      <trkpt lat="48.43706" lon="0.08737">
        <ele>144.499735</ele>
        <time>2021-09-06T13:18:01.000Z</time>
      </trkpt>
      <trkpt lat="48.43708" lon="0.08745">
        <ele>144.461289</ele>
        <time>2021-09-06T13:43:45.000Z</time>
      </trkpt>
      <trkpt lat="48.4371" lon="0.08753">
        <ele>144.423167</ele>
        <time>2021-09-06T13:43:47.000Z</time>
      </trkpt>
      <trkpt lat="48.43721" lon="0.0877">
        <ele>144.315487</ele>
        <time>2021-09-06T13:43:52.000Z</time>
      </trkpt>
      <trkpt lat="48.43727" lon="0.08784">
        <ele>144.256857</ele>
        <time>2021-09-06T13:43:56.000Z</time>
      </trkpt>
      <trkpt lat="48.43726" lon="0.08791">
        <ele>144.262487</ele>
        <time>2021-09-06T13:43:59.000Z</time>
      </trkpt>
      <trkpt lat="48.43724" lon="0.08794">
        <ele>144.265488</ele>
        <time>2021-09-06T13:44:00.000Z</time>
      </trkpt>
      <trkpt lat="48.43712" lon="0.08819">
        <ele>144.288877</ele>
        <time>2021-09-06T13:44:05.000Z</time>
      </trkpt>
      <trkpt lat="48.43688" lon="0.08863">
        <ele>144.332096</ele>
        <time>2021-09-06T13:44:13.000Z</time>
      </trkpt>
      <trkpt lat="48.43661" lon="0.08917">
        <ele>144.383939</ele>
        <time>2021-09-06T13:44:22.000Z</time>
      </trkpt>
      <trkpt lat="48.43635" lon="0.08966">
        <ele>144.430862</ele>
        <time>2021-09-06T13:44:30.000Z</time>
      </trkpt>
      <trkpt lat="48.43605" lon="0.09021">
        <ele>144.653723</ele>
        <time>2021-09-06T13:44:39.000Z</time>
      </trkpt>
      <trkpt lat="48.43578" lon="0.09072">
        <ele>145.030233</ele>
        <time>2021-09-06T13:44:47.000Z</time>
      </trkpt>
      <trkpt lat="48.43552" lon="0.09122">
        <ele>145.406829</ele>
        <time>2021-09-06T13:44:55.000Z</time>
      </trkpt>
      <trkpt lat="48.43538" lon="0.09143">
        <ele>145.571589</ele>
        <time>2021-09-06T13:45:00.000Z</time>
      </trkpt>
      <trkpt lat="48.43537" lon="0.09143">
        <ele>145.582034</ele>
        <time>2021-09-06T13:45:03.000Z</time>
      </trkpt>
      <trkpt lat="48.43536" lon="0.09145">
        <ele>145.597111</ele>
        <time>2021-09-06T13:45:13.000Z</time>
      </trkpt>
      <trkpt lat="48.43525" lon="0.09164">
        <ele>145.739696</ele>
        <time>2021-09-06T13:45:18.000Z</time>
      </trkpt>
      <trkpt lat="48.43517" lon="0.0918">
        <ele>145.858264</ele>
        <time>2021-09-06T13:45:21.000Z</time>
      </trkpt>
      <trkpt lat="48.43511" lon="0.09192">
        <ele>145.947623</ele>
        <time>2021-09-06T13:45:23.000Z</time>
      </trkpt>
      <trkpt lat="48.435" lon="0.09217">
        <ele>146.097431</ele>
        <time>2021-09-06T13:45:27.000Z</time>
      </trkpt>
      <trkpt lat="48.43497" lon="0.09223">
        <ele>146.131289</ele>
        <time>2021-09-06T13:45:28.000Z</time>
      </trkpt>
      <trkpt lat="48.43493" lon="0.09228">
        <ele>146.165476</ele>
        <time>2021-09-06T13:45:29.000Z</time>
      </trkpt>
      <trkpt lat="48.43479" lon="0.09256">
        <ele>146.316766</ele>
        <time>2021-09-06T13:45:33.000Z</time>
      </trkpt>
      <trkpt lat="48.43457" lon="0.093">
        <ele>146.559906</ele>
        <time>2021-09-06T13:45:39.000Z</time>
      </trkpt>
      <trkpt lat="48.43439" lon="0.09333">
        <ele>146.743965</ele>
        <time>2021-09-06T13:45:44.000Z</time>
      </trkpt>
      <trkpt lat="48.43434" lon="0.09341">
        <ele>146.793905</ele>
        <time>2021-09-06T13:45:46.000Z</time>
      </trkpt>
      <trkpt lat="48.43427" lon="0.09345">
        <ele>146.844196</ele>
        <time>2021-09-06T13:45:50.000Z</time>
      </trkpt>
      <trkpt lat="48.43413" lon="0.09353">
        <ele>146.942939</ele>
        <time>2021-09-06T13:45:54.000Z</time>
      </trkpt>
      <trkpt lat="48.43406" lon="0.09362">
        <ele>147.001936</ele>
        <time>2021-09-06T13:45:56.000Z</time>
      </trkpt>
      <trkpt lat="48.43403" lon="0.09374">
        <ele>147.05868</ele>
        <time>2021-09-06T13:45:58.000Z</time>
      </trkpt>
      <trkpt lat="48.43405" lon="0.09387">
        <ele>147.117633</ele>
        <time>2021-09-06T13:46:00.000Z</time>
      </trkpt>
      <trkpt lat="48.43408" lon="0.09392">
        <ele>147.148955</ele>
        <time>2021-09-06T13:46:01.000Z</time>
      </trkpt>
      <trkpt lat="48.43413" lon="0.09395">
        <ele>147.182545</ele>
        <time>2021-09-06T13:46:02.000Z</time>
      </trkpt>
      <trkpt lat="48.43423" lon="0.09396">
        <ele>147.23052</ele>
        <time>2021-09-06T13:46:04.000Z</time>
      </trkpt>
      <trkpt lat="48.43432" lon="0.09391">
        <ele>147.252956</ele>
        <time>2021-09-06T13:46:06.000Z</time>
      </trkpt>
      <trkpt lat="48.43441" lon="0.09387">
        <ele>147.273994</ele>
        <time>2021-09-06T13:46:08.000Z</time>
      </trkpt>
      <trkpt lat="48.4345" lon="0.09383">
        <ele>147.295228</ele>
        <time>2021-09-06T13:46:11.000Z</time>
      </trkpt>
      <trkpt lat="48.43452" lon="0.09387">
        <ele>147.304562</ele>
        <time>2021-09-06T13:46:13.000Z</time>
      </trkpt>
      <trkpt lat="48.43452" lon="0.09391">
        <ele>147.309844</ele>
        <time>2021-09-06T13:46:14.000Z</time>
      </trkpt>
      <trkpt lat="48.43442" lon="0.09414">
        <ele>147.352165</ele>
        <time>2021-09-06T13:46:19.000Z</time>
      </trkpt>
      <trkpt lat="48.43433" lon="0.09427">
        <ele>147.379875</ele>
        <time>2021-09-06T13:46:23.000Z</time>
      </trkpt>
      <trkpt lat="48.43432" lon="0.0943">
        <ele>147.385762</ele>
        <time>2021-09-06T13:46:26.000Z</time>
      </trkpt>
      <trkpt lat="48.43428" lon="0.09434">
        <ele>147.396448</ele>
        <time>2021-09-06T13:46:31.000Z</time>
      </trkpt>
      <trkpt lat="48.43426" lon="0.09435">
        <ele>147.400843</ele>
        <time>2021-09-06T13:46:32.000Z</time>
      </trkpt>
      <trkpt lat="48.43422" lon="0.09441">
        <ele>147.414218</ele>
        <time>2021-09-06T13:46:36.000Z</time>
      </trkpt>
      <trkpt lat="48.43422" lon="0.09442">
        <ele>147.416666</ele>
        <time>2021-09-06T13:46:38.000Z</time>
      </trkpt>
      <trkpt lat="48.43424" lon="0.09452">
        <ele>147.432755</ele>
        <time>2021-09-06T13:46:43.000Z</time>
      </trkpt>
      <trkpt lat="48.43432" lon="0.09464">
        <ele>147.459101</ele>
        <time>2021-09-06T13:46:47.000Z</time>
      </trkpt>
      <trkpt lat="48.43446" lon="0.0949">
        <ele>147.509554</ele>
        <time>2021-09-06T13:46:52.000Z</time>
      </trkpt>
      <trkpt lat="48.43472" lon="0.09539">
        <ele>147.606314</ele>
        <time>2021-09-06T13:47:00.000Z</time>
      </trkpt>
      <trkpt lat="48.43499" lon="0.09592">
        <ele>147.798157</ele>
        <time>2021-09-06T13:47:08.000Z</time>
      </trkpt>
      <trkpt lat="48.43522" lon="0.09639">
        <ele>148.000997</ele>
        <time>2021-09-06T13:47:15.000Z</time>
      </trkpt>
      <trkpt lat="48.43548" lon="0.09695">
        <ele>148.2336</ele>
        <time>2021-09-06T13:47:23.000Z</time>
      </trkpt>
      <trkpt lat="48.43563" lon="0.09726">
        <ele>148.365056</ele>
        <time>2021-09-06T13:47:28.000Z</time>
      </trkpt>
      <trkpt lat="48.43566" lon="0.09731">
        <ele>148.388374</ele>
        <time>2021-09-06T13:47:29.000Z</time>
      </trkpt>
      <trkpt lat="48.43585" lon="0.09767">
        <ele>148.5495</ele>
        <time>2021-09-06T13:47:37.000Z</time>
      </trkpt>
      <trkpt lat="48.43603" lon="0.09801">
        <ele>148.429128</ele>
        <time>2021-09-06T13:47:45.000Z</time>
      </trkpt>
      <trkpt lat="48.43618" lon="0.09831">
        <ele>148.295581</ele>
        <time>2021-09-06T13:47:52.000Z</time>
      </trkpt>
      <trkpt lat="48.43632" lon="0.0986">
        <ele>148.170194</ele>
        <time>2021-09-06T13:47:58.000Z</time>
      </trkpt>
      <trkpt lat="48.43645" lon="0.09882">
        <ele>148.062114</ele>
        <time>2021-09-06T13:48:03.000Z</time>
      </trkpt>
      <trkpt lat="48.43651" lon="0.09877">
        <ele>148.026971</ele>
        <time>2021-09-06T13:48:06.000Z</time>
      </trkpt>
      <trkpt lat="48.4366" lon="0.09866">
        <ele>147.966721</ele>
        <time>2021-09-06T13:48:10.000Z</time>
      </trkpt>
      <trkpt lat="48.43682" lon="0.09857">
        <ele>147.844264</ele>
        <time>2021-09-06T13:48:14.000Z</time>
      </trkpt>
      <trkpt lat="48.43694" lon="0.09856">
        <ele>147.77747</ele>
        <time>2021-09-06T13:48:16.000Z</time>
      </trkpt>
      <trkpt lat="48.43712" lon="0.09854">
        <ele>147.681172</ele>
        <time>2021-09-06T13:48:19.000Z</time>
      </trkpt>
      <trkpt lat="48.4375" lon="0.09847">
        <ele>147.393987</ele>
        <time>2021-09-06T13:48:25.000Z</time>
      </trkpt>
      <trkpt lat="48.43756" lon="0.09846">
        <ele>147.336088</ele>
        <time>2021-09-06T13:48:26.000Z</time>
      </trkpt>
      <trkpt lat="48.43775" lon="0.09844">
        <ele>147.165505</ele>
        <time>2021-09-06T13:48:29.000Z</time>
      </trkpt>
      <trkpt lat="48.43781" lon="0.09844">
        <ele>147.110546</ele>
        <time>2021-09-06T13:48:30.000Z</time>
      </trkpt>
      <trkpt lat="48.43824" lon="0.09842">
        <ele>146.722117</ele>
        <time>2021-09-06T13:48:37.000Z</time>
      </trkpt>
      <trkpt lat="48.43867" lon="0.09839">
        <ele>146.340618</ele>
        <time>2021-09-06T13:48:44.000Z</time>
      </trkpt>
      <trkpt lat="48.43899" lon="0.09843">
        <ele>146.050335</ele>
        <time>2021-09-06T13:48:49.000Z</time>
      </trkpt>
      <trkpt lat="48.43934" lon="0.09856">
        <ele>145.932316</ele>
        <time>2021-09-06T13:48:55.000Z</time>
      </trkpt>
      <trkpt lat="48.43976" lon="0.09877">
        <ele>145.853551</ele>
        <time>2021-09-06T13:49:02.000Z</time>
      </trkpt>
      <trkpt lat="48.43982" lon="0.0988">
        <ele>145.841833</ele>
        <time>2021-09-06T13:49:03.000Z</time>
      </trkpt>
      <trkpt lat="48.43991" lon="0.09889">
        <ele>145.821844</ele>
        <time>2021-09-06T13:49:05.000Z</time>
      </trkpt>
      <trkpt lat="48.44018" lon="0.09925">
        <ele>145.756637</ele>
        <time>2021-09-06T13:49:11.000Z</time>
      </trkpt>
      <trkpt lat="48.44028" lon="0.09935">
        <ele>145.735477</ele>
        <time>2021-09-06T13:49:13.000Z</time>
      </trkpt>
      <trkpt lat="48.44037" lon="0.09942">
        <ele>145.715578</ele>
        <time>2021-09-06T13:49:15.000Z</time>
      </trkpt>
      <trkpt lat="48.44042" lon="0.09946">
        <ele>145.706026</ele>
        <time>2021-09-06T13:49:16.000Z</time>
      </trkpt>
      <trkpt lat="48.44048" lon="0.09948">
        <ele>145.69593</ele>
        <time>2021-09-06T13:49:17.000Z</time>
      </trkpt>
      <trkpt lat="48.44057" lon="0.09947">
        <ele>145.679787</ele>
        <time>2021-09-06T13:49:19.000Z</time>
      </trkpt>
      <trkpt lat="48.44065" lon="0.09937">
        <ele>145.660475</ele>
        <time>2021-09-06T13:49:21.000Z</time>
      </trkpt>
      <trkpt lat="48.44068" lon="0.09929">
        <ele>145.645594</ele>
        <time>2021-09-06T13:49:22.000Z</time>
      </trkpt>
      <trkpt lat="48.44069" lon="0.0992">
        <ele>145.630917</ele>
        <time>2021-09-06T13:49:23.000Z</time>
      </trkpt>
      <trkpt lat="48.44073" lon="0.09904">
        <ele>145.60209</ele>
        <time>2021-09-06T13:49:25.000Z</time>
      </trkpt>
      <trkpt lat="48.44078" lon="0.09898">
        <ele>145.58722</ele>
        <time>2021-09-06T13:49:26.000Z</time>
      </trkpt>
      <trkpt lat="48.44084" lon="0.09896">
        <ele>145.57278</ele>
        <time>2021-09-06T13:49:27.000Z</time>
      </trkpt>
      <trkpt lat="48.4409" lon="0.09897">
        <ele>145.558216</ele>
        <time>2021-09-06T13:49:28.000Z</time>
      </trkpt>
      <trkpt lat="48.44095" lon="0.09901">
        <ele>145.542958</ele>
        <time>2021-09-06T13:49:29.000Z</time>
      </trkpt>
      <trkpt lat="48.44112" lon="0.09909">
        <ele>145.498262</ele>
        <time>2021-09-06T13:49:32.000Z</time>
      </trkpt>
      <trkpt lat="48.44153" lon="0.0993">
        <ele>145.392015</ele>
        <time>2021-09-06T13:49:39.000Z</time>
      </trkpt>
      <trkpt lat="48.44188" lon="0.09946">
        <ele>145.300998</ele>
        <time>2021-09-06T13:49:46.000Z</time>
      </trkpt>
      <trkpt lat="48.44214" lon="0.09959">
        <ele>145.233652</ele>
        <time>2021-09-06T13:49:52.000Z</time>
      </trkpt>
      <trkpt lat="48.44249" lon="0.09978">
        <ele>145.135696</ele>
        <time>2021-09-06T13:49:59.000Z</time>
      </trkpt>
      <trkpt lat="48.44254" lon="0.09981">
        <ele>145.121404</ele>
        <time>2021-09-06T13:50:00.000Z</time>
      </trkpt>
      <trkpt lat="48.44274" lon="0.09994">
        <ele>145.063461</ele>
        <time>2021-09-06T13:50:04.000Z</time>
      </trkpt>
      <trkpt lat="48.44279" lon="0.09997">
        <ele>145.049152</ele>
        <time>2021-09-06T13:50:05.000Z</time>
      </trkpt>
      <trkpt lat="48.443" lon="0.10009">
        <ele>144.98753</ele>
        <time>2021-09-06T13:50:09.000Z</time>
      </trkpt>
      <trkpt lat="48.44325" lon="0.10028">
        <ele>144.912031</ele>
        <time>2021-09-06T13:50:14.000Z</time>
      </trkpt>
      <trkpt lat="48.44351" lon="0.10046">
        <ele>144.836081</ele>
        <time>2021-09-06T13:50:19.000Z</time>
      </trkpt>
      <trkpt lat="48.44362" lon="0.10052">
        <ele>144.803737</ele>
        <time>2021-09-06T13:50:21.000Z</time>
      </trkpt>
      <trkpt lat="48.44367" lon="0.10057">
        <ele>144.789006</ele>
        <time>2021-09-06T13:50:22.000Z</time>
      </trkpt>
      <trkpt lat="48.44395" lon="0.10072">
        <ele>144.699037</ele>
        <time>2021-09-06T13:50:26.000Z</time>
      </trkpt>
      <trkpt lat="48.44446" lon="0.10103">
        <ele>144.477261</ele>
        <time>2021-09-06T13:50:34.000Z</time>
      </trkpt>
      <trkpt lat="48.44452" lon="0.10107">
        <ele>144.451067</ele>
        <time>2021-09-06T13:50:35.000Z</time>
      </trkpt>
      <trkpt lat="48.44505" lon="0.10143">
        <ele>144.215189</ele>
        <time>2021-09-06T13:50:44.000Z</time>
      </trkpt>
      <trkpt lat="48.44556" lon="0.10179">
        <ele>143.996234</ele>
        <time>2021-09-06T13:50:53.000Z</time>
      </trkpt>
      <trkpt lat="48.44593" lon="0.10209">
        <ele>143.883735</ele>
        <time>2021-09-06T13:51:00.000Z</time>
      </trkpt>
      <trkpt lat="48.44634" lon="0.10242">
        <ele>143.759442</ele>
        <time>2021-09-06T13:51:08.000Z</time>
      </trkpt>
      <trkpt lat="48.4468" lon="0.10279">
        <ele>143.621908</ele>
        <time>2021-09-06T13:51:17.000Z</time>
      </trkpt>
      <trkpt lat="48.44723" lon="0.10317">
        <ele>143.534985</ele>
        <time>2021-09-06T13:51:26.000Z</time>
      </trkpt>
      <trkpt lat="48.44741" lon="0.10333">
        <ele>143.54368</ele>
        <time>2021-09-06T13:51:30.000Z</time>
      </trkpt>
      <trkpt lat="48.44746" lon="0.10338">
        <ele>143.545935</ele>
        <time>2021-09-06T13:51:31.000Z</time>
      </trkpt>
      <trkpt lat="48.4477" lon="0.1036">
        <ele>143.55763</ele>
        <time>2021-09-06T13:51:36.000Z</time>
      </trkpt>
      <trkpt lat="48.44784" lon="0.10374">
        <ele>143.564586</ele>
        <time>2021-09-06T13:51:39.000Z</time>
      </trkpt>
      <trkpt lat="48.44819" lon="0.10407">
        <ele>143.581182</ele>
        <time>2021-09-06T13:51:46.000Z</time>
      </trkpt>
      <trkpt lat="48.44832" lon="0.10422">
        <ele>143.588141</ele>
        <time>2021-09-06T13:51:49.000Z</time>
      </trkpt>
      <trkpt lat="48.44847" lon="0.10436">
        <ele>143.595122</ele>
        <time>2021-09-06T13:51:52.000Z</time>
      </trkpt>
      <trkpt lat="48.44883" lon="0.10475">
        <ele>143.744837</ele>
        <time>2021-09-06T13:52:00.000Z</time>
      </trkpt>
      <trkpt lat="48.4492" lon="0.10512">
        <ele>143.977001</ele>
        <time>2021-09-06T13:52:08.000Z</time>
      </trkpt>
      <trkpt lat="48.44955" lon="0.10552">
        <ele>144.206489</ele>
        <time>2021-09-06T13:52:16.000Z</time>
      </trkpt>
      <trkpt lat="48.44986" lon="0.10586">
        <ele>144.407628</ele>
        <time>2021-09-06T13:52:23.000Z</time>
      </trkpt>
      <trkpt lat="48.45021" lon="0.10628">
        <ele>144.586651</ele>
        <time>2021-09-06T13:52:31.000Z</time>
      </trkpt>
      <trkpt lat="48.45065" lon="0.1068">
        <ele>144.708388</ele>
        <time>2021-09-06T13:52:41.000Z</time>
      </trkpt>
      <trkpt lat="48.45099" lon="0.10725">
        <ele>144.807414</ele>
        <time>2021-09-06T13:52:49.000Z</time>
      </trkpt>
      <trkpt lat="48.4513" lon="0.10765">
        <ele>144.895075</ele>
        <time>2021-09-06T13:52:56.000Z</time>
      </trkpt>
      <trkpt lat="48.45167" lon="0.10812">
        <ele>144.905745</ele>
        <time>2021-09-06T13:53:04.000Z</time>
      </trkpt>
      <trkpt lat="48.45189" lon="0.10842">
        <ele>144.872135</ele>
        <time>2021-09-06T13:53:09.000Z</time>
      </trkpt>
      <trkpt lat="48.4522" lon="0.10882">
        <ele>144.827427</ele>
        <time>2021-09-06T13:53:16.000Z</time>
      </trkpt>
      <trkpt lat="48.45226" lon="0.10891">
        <ele>144.817274</ele>
        <time>2021-09-06T13:53:19.000Z</time>
      </trkpt>
      <trkpt lat="48.45227" lon="0.10892">
        <ele>144.816379</ele>
        <time>2021-09-06T13:53:21.000Z</time>
      </trkpt>
      <trkpt lat="48.45228" lon="0.10895">
        <ele>144.813101</ele>
        <time>2021-09-06T13:53:24.000Z</time>
      </trkpt>
      <trkpt lat="48.45231" lon="0.10898">
        <ele>144.810107</ele>
        <time>2021-09-06T13:53:25.000Z</time>
      </trkpt>
      <trkpt lat="48.45244" lon="0.10912">
        <ele>144.7918</ele>
        <time>2021-09-06T13:53:29.000Z</time>
      </trkpt>
      <trkpt lat="48.45275" lon="0.10948">
        <ele>144.748177</ele>
        <time>2021-09-06T13:53:36.000Z</time>
      </trkpt>
      <trkpt lat="48.45284" lon="0.10959">
        <ele>144.735414</ele>
        <time>2021-09-06T13:53:38.000Z</time>
      </trkpt>
      <trkpt lat="48.45297" lon="0.10978">
        <ele>144.712893</ele>
        <time>2021-09-06T13:53:41.000Z</time>
      </trkpt>
      <trkpt lat="48.45333" lon="0.11025">
        <ele>144.654677</ele>
        <time>2021-09-06T13:53:49.000Z</time>
      </trkpt>
      <trkpt lat="48.45349" lon="0.11035">
        <ele>144.634036</ele>
        <time>2021-09-06T13:53:52.000Z</time>
      </trkpt>
      <trkpt lat="48.45363" lon="0.11044">
        <ele>144.615718</ele>
        <time>2021-09-06T13:53:55.000Z</time>
      </trkpt>
      <trkpt lat="48.45371" lon="0.11053">
        <ele>144.604103</ele>
        <time>2021-09-06T13:53:57.000Z</time>
      </trkpt>
      <trkpt lat="48.45399" lon="0.11091">
        <ele>144.558096</ele>
        <time>2021-09-06T13:54:05.000Z</time>
      </trkpt>
      <trkpt lat="48.45431" lon="0.11132">
        <ele>144.482872</ele>
        <time>2021-09-06T13:54:13.000Z</time>
      </trkpt>
      <trkpt lat="48.4547" lon="0.11182">
        <ele>144.293849</ele>
        <time>2021-09-06T13:54:22.000Z</time>
      </trkpt>
      <trkpt lat="48.45506" lon="0.11231">
        <ele>144.114197</ele>
        <time>2021-09-06T13:54:30.000Z</time>
      </trkpt>
      <trkpt lat="48.45542" lon="0.11285">
        <ele>143.925613</ele>
        <time>2021-09-06T13:54:38.000Z</time>
      </trkpt>
      <trkpt lat="48.45567" lon="0.11327">
        <ele>143.783964</ele>
        <time>2021-09-06T13:54:44.000Z</time>
      </trkpt>
      <trkpt lat="48.45579" lon="0.11348">
        <ele>143.713026</ele>
        <time>2021-09-06T13:54:47.000Z</time>
      </trkpt>
      <trkpt lat="48.45591" lon="0.11368">
        <ele>143.643529</ele>
        <time>2021-09-06T13:54:50.000Z</time>
      </trkpt>
      <trkpt lat="48.45623" lon="0.11424">
        <ele>143.450276</ele>
        <time>2021-09-06T13:54:59.000Z</time>
      </trkpt>
      <trkpt lat="48.45658" lon="0.11482">
        <ele>143.24705</ele>
        <time>2021-09-06T13:55:09.000Z</time>
      </trkpt>
      <trkpt lat="48.4569" lon="0.11531">
        <ele>143.165656</ele>
        <time>2021-09-06T13:55:18.000Z</time>
      </trkpt>
      <trkpt lat="48.45728" lon="0.11592">
        <ele>143.209892</ele>
        <time>2021-09-06T13:55:29.000Z</time>
      </trkpt>
      <trkpt lat="48.45765" lon="0.11653">
        <ele>143.253304</ele>
        <time>2021-09-06T13:55:40.000Z</time>
      </trkpt>
      <trkpt lat="48.45795" lon="0.11701">
        <ele>143.287708</ele>
        <time>2021-09-06T13:55:49.000Z</time>
      </trkpt>
      <trkpt lat="48.45802" lon="0.11704">
        <ele>143.298262</ele>
        <time>2021-09-06T13:55:51.000Z</time>
      </trkpt>
      <trkpt lat="48.45806" lon="0.11703">
        <ele>143.30873</ele>
        <time>2021-09-06T13:55:52.000Z</time>
      </trkpt>
      <trkpt lat="48.4581" lon="0.11703">
        <ele>143.320019</ele>
        <time>2021-09-06T13:55:53.000Z</time>
      </trkpt>
      <trkpt lat="48.45812" lon="0.11707">
        <ele>143.330566</ele>
        <time>2021-09-06T13:55:54.000Z</time>
      </trkpt>
      <trkpt lat="48.45815" lon="0.11723">
        <ele>143.362454</ele>
        <time>2021-09-06T13:55:57.000Z</time>
      </trkpt>
      <trkpt lat="48.45818" lon="0.11725">
        <ele>143.371494</ele>
        <time>2021-09-06T13:55:58.000Z</time>
      </trkpt>
      <trkpt lat="48.45836" lon="0.11714">
        <ele>143.428733</ele>
        <time>2021-09-06T13:56:03.000Z</time>
      </trkpt>
      <trkpt lat="48.4584" lon="0.11712">
        <ele>143.441256</ele>
        <time>2021-09-06T13:56:04.000Z</time>
      </trkpt>
      <trkpt lat="48.45854" lon="0.11711">
        <ele>143.4803</ele>
        <time>2021-09-06T13:56:07.000Z</time>
      </trkpt>
      <trkpt lat="48.45858" lon="0.11711">
        <ele>143.493599</ele>
        <time>2021-09-06T13:56:08.000Z</time>
      </trkpt>
      <trkpt lat="48.45867" lon="0.11711">
        <ele>143.519652</ele>
        <time>2021-09-06T13:56:10.000Z</time>
      </trkpt>
      <trkpt lat="48.45876" lon="0.11714">
        <ele>143.54517</ele>
        <time>2021-09-06T13:56:12.000Z</time>
      </trkpt>
      <trkpt lat="48.45906" lon="0.11725">
        <ele>143.635917</ele>
        <time>2021-09-06T13:56:19.000Z</time>
      </trkpt>
      <trkpt lat="48.45929" lon="0.11736">
        <ele>143.703685</ele>
        <time>2021-09-06T13:56:24.000Z</time>
      </trkpt>
      <trkpt lat="48.45938" lon="0.11741">
        <ele>143.732314</ele>
        <time>2021-09-06T13:56:26.000Z</time>
      </trkpt>
      <trkpt lat="48.45952" lon="0.11747">
        <ele>143.774514</ele>
        <time>2021-09-06T13:56:29.000Z</time>
      </trkpt>
      <trkpt lat="48.45961" lon="0.1175">
        <ele>143.802459</ele>
        <time>2021-09-06T13:56:31.000Z</time>
      </trkpt>
      <trkpt lat="48.45965" lon="0.11753">
        <ele>143.829272</ele>
        <time>2021-09-06T13:56:32.000Z</time>
      </trkpt>
      <trkpt lat="48.45974" lon="0.11757">
        <ele>143.988795</ele>
        <time>2021-09-06T13:56:34.000Z</time>
      </trkpt>
      <trkpt lat="48.45979" lon="0.11759">
        <ele>144.072101</ele>
        <time>2021-09-06T13:56:35.000Z</time>
      </trkpt>
      <trkpt lat="48.45992" lon="0.11763">
        <ele>144.292743</ele>
        <time>2021-09-06T13:56:38.000Z</time>
      </trkpt>
      <trkpt lat="48.45997" lon="0.11765">
        <ele>144.370896</ele>
        <time>2021-09-06T13:56:39.000Z</time>
      </trkpt>
      <trkpt lat="48.46001" lon="0.11768">
        <ele>144.455325</ele>
        <time>2021-09-06T13:56:40.000Z</time>
      </trkpt>
      <trkpt lat="48.46017" lon="0.11776">
        <ele>144.737684</ele>
        <time>2021-09-06T13:56:44.000Z</time>
      </trkpt>
      <trkpt lat="48.46045" lon="0.11792">
        <ele>145.238364</ele>
        <time>2021-09-06T13:56:52.000Z</time>
      </trkpt>
      <trkpt lat="48.4607" lon="0.11805">
        <ele>145.68015</ele>
        <time>2021-09-06T13:57:01.000Z</time>
      </trkpt>
      <trkpt lat="48.46086" lon="0.11813">
        <ele>145.964918</ele>
        <time>2021-09-06T13:57:07.000Z</time>
      </trkpt>
      <trkpt lat="48.46101" lon="0.11821">
        <ele>146.24103</ele>
        <time>2021-09-06T13:57:13.000Z</time>
      </trkpt>
      <trkpt lat="48.46126" lon="0.11834">
        <ele>146.670693</ele>
        <time>2021-09-06T13:57:21.000Z</time>
      </trkpt>
      <trkpt lat="48.46153" lon="0.11847">
        <ele>147.091191</ele>
        <time>2021-09-06T13:57:28.000Z</time>
      </trkpt>
      <trkpt lat="48.46192" lon="0.11862">
        <ele>147.619344</ele>
        <time>2021-09-06T13:57:36.000Z</time>
      </trkpt>
      <trkpt lat="48.46228" lon="0.11876">
        <ele>148.11876</ele>
        <time>2021-09-06T13:57:43.000Z</time>
      </trkpt>
      <trkpt lat="48.46269" lon="0.1189">
        <ele>148.690573</ele>
        <time>2021-09-06T13:57:51.000Z</time>
      </trkpt>
      <trkpt lat="48.46285" lon="0.11893">
        <ele>148.906417</ele>
        <time>2021-09-06T13:57:54.000Z</time>
      </trkpt>
      <trkpt lat="48.46306" lon="0.11896">
        <ele>149.177759</ele>
        <time>2021-09-06T13:57:58.000Z</time>
      </trkpt>
      <trkpt lat="48.46339" lon="0.11903">
        <ele>149.453355</ele>
        <time>2021-09-06T13:58:05.000Z</time>
      </trkpt>
      <trkpt lat="48.46343" lon="0.11906">
        <ele>149.487237</ele>
        <time>2021-09-06T13:58:06.000Z</time>
      </trkpt>
      <trkpt lat="48.4636" lon="0.11919">
        <ele>149.629926</ele>
        <time>2021-09-06T13:58:10.000Z</time>
      </trkpt>
      <trkpt lat="48.46388" lon="0.11951">
        <ele>149.894493</ele>
        <time>2021-09-06T13:58:17.000Z</time>
      </trkpt>
      <trkpt lat="48.46396" lon="0.11962">
        <ele>149.971881</ele>
        <time>2021-09-06T13:58:19.000Z</time>
      </trkpt>
      <trkpt lat="48.46412" lon="0.11982">
        <ele>150.127544</ele>
        <time>2021-09-06T13:58:23.000Z</time>
      </trkpt>
      <trkpt lat="48.46428" lon="0.12003">
        <ele>150.287937</ele>
        <time>2021-09-06T13:58:27.000Z</time>
      </trkpt>
      <trkpt lat="48.46433" lon="0.12008">
        <ele>150.330022</ele>
        <time>2021-09-06T13:58:28.000Z</time>
      </trkpt>
      <trkpt lat="48.46453" lon="0.12027">
        <ele>150.510991</ele>
        <time>2021-09-06T13:58:32.000Z</time>
      </trkpt>
      <trkpt lat="48.46463" lon="0.12039">
        <ele>150.586062</ele>
        <time>2021-09-06T13:58:34.000Z</time>
      </trkpt>
      <trkpt lat="48.46496" lon="0.12073">
        <ele>150.652691</ele>
        <time>2021-09-06T13:58:40.000Z</time>
      </trkpt>
      <trkpt lat="48.46537" lon="0.12103">
        <ele>150.730068</ele>
        <time>2021-09-06T13:58:47.000Z</time>
      </trkpt>
      <trkpt lat="48.46561" lon="0.1212">
        <ele>150.774961</ele>
        <time>2021-09-06T13:58:51.000Z</time>
      </trkpt>
      <trkpt lat="48.46568" lon="0.12122">
        <ele>150.785964</ele>
        <time>2021-09-06T13:58:52.000Z</time>
      </trkpt>
      <trkpt lat="48.46574" lon="0.12121">
        <ele>150.797143</ele>
        <time>2021-09-06T13:58:53.000Z</time>
      </trkpt>
      <trkpt lat="48.46586" lon="0.12113">
        <ele>150.818743</ele>
        <time>2021-09-06T13:58:55.000Z</time>
      </trkpt>
      <trkpt lat="48.46608" lon="0.12097">
        <ele>150.860493</ele>
        <time>2021-09-06T13:58:59.000Z</time>
      </trkpt>
      <trkpt lat="48.4662" lon="0.12091">
        <ele>150.881216</ele>
        <time>2021-09-06T13:59:01.000Z</time>
      </trkpt>
      <trkpt lat="48.46626" lon="0.12089">
        <ele>150.846318</ele>
        <time>2021-09-06T13:59:02.000Z</time>
      </trkpt>
      <trkpt lat="48.46649" lon="0.12084">
        <ele>150.646847</ele>
        <time>2021-09-06T13:59:06.000Z</time>
      </trkpt>
      <trkpt lat="48.46679" lon="0.12077">
        <ele>150.399722</ele>
        <time>2021-09-06T13:59:11.000Z</time>
      </trkpt>
      <trkpt lat="48.46685" lon="0.12077">
        <ele>150.352588</ele>
        <time>2021-09-06T13:59:12.000Z</time>
      </trkpt>
      <trkpt lat="48.46701" lon="0.12082">
        <ele>150.211619</ele>
        <time>2021-09-06T13:59:15.000Z</time>
      </trkpt>
      <trkpt lat="48.46707" lon="0.12086">
        <ele>150.161146</ele>
        <time>2021-09-06T13:59:16.000Z</time>
      </trkpt>
      <trkpt lat="48.46712" lon="0.1209">
        <ele>150.111394</ele>
        <time>2021-09-06T13:59:17.000Z</time>
      </trkpt>
      <trkpt lat="48.46722" lon="0.12101">
        <ele>150.010722</ele>
        <time>2021-09-06T13:59:19.000Z</time>
      </trkpt>
      <trkpt lat="48.46726" lon="0.12109">
        <ele>149.95583</ele>
        <time>2021-09-06T13:59:20.000Z</time>
      </trkpt>
      <trkpt lat="48.4675" lon="0.12157">
        <ele>149.62861</ele>
        <time>2021-09-06T13:59:25.000Z</time>
      </trkpt>
      <trkpt lat="48.46777" lon="0.12196">
        <ele>149.239016</ele>
        <time>2021-09-06T13:59:29.000Z</time>
      </trkpt>
      <trkpt lat="48.46813" lon="0.12224">
        <ele>148.543264</ele>
        <time>2021-09-06T13:59:33.000Z</time>
      </trkpt>
      <trkpt lat="48.46865" lon="0.12257">
        <ele>147.57023</ele>
        <time>2021-09-06T13:59:39.000Z</time>
      </trkpt>
      <trkpt lat="48.46918" lon="0.1229">
        <ele>146.575927</ele>
        <time>2021-09-06T13:59:46.000Z</time>
      </trkpt>
      <trkpt lat="48.46951" lon="0.12305">
        <ele>146.072935</ele>
        <time>2021-09-06T13:59:51.000Z</time>
      </trkpt>
      <trkpt lat="48.46957" lon="0.12306">
        <ele>145.993152</ele>
        <time>2021-09-06T13:59:52.000Z</time>
      </trkpt>
      <trkpt lat="48.46989" lon="0.12299">
        <ele>145.597231</ele>
        <time>2021-09-06T13:59:57.000Z</time>
      </trkpt>
      <trkpt lat="48.47017" lon="0.12278">
        <ele>145.206075</ele>
        <time>2021-09-06T14:00:02.000Z</time>
      </trkpt>
      <trkpt lat="48.47043" lon="0.12254">
        <ele>144.824861</ele>
        <time>2021-09-06T14:00:07.000Z</time>
      </trkpt>
      <trkpt lat="48.47054" lon="0.12248">
        <ele>144.676018</ele>
        <time>2021-09-06T14:00:09.000Z</time>
      </trkpt>
      <trkpt lat="48.4706" lon="0.12245">
        <ele>144.601143</ele>
        <time>2021-09-06T14:00:10.000Z</time>
      </trkpt>
      <trkpt lat="48.47078" lon="0.12241">
        <ele>144.377219</ele>
        <time>2021-09-06T14:00:13.000Z</time>
      </trkpt>
      <trkpt lat="48.47084" lon="0.12242">
        <ele>144.303749</ele>
        <time>2021-09-06T14:00:14.000Z</time>
      </trkpt>
      <trkpt lat="48.4709" lon="0.12242">
        <ele>144.230131</ele>
        <time>2021-09-06T14:00:15.000Z</time>
      </trkpt>
      <trkpt lat="48.47113" lon="0.1225">
        <ele>144.031793</ele>
        <time>2021-09-06T14:00:19.000Z</time>
      </trkpt>
      <trkpt lat="48.47124" lon="0.12255">
        <ele>143.997834</ele>
        <time>2021-09-06T14:00:21.000Z</time>
      </trkpt>
      <trkpt lat="48.47132" lon="0.12267">
        <ele>143.965638</ele>
        <time>2021-09-06T14:00:23.000Z</time>
      </trkpt>
      <trkpt lat="48.47132" lon="0.12283">
        <ele>143.934424</ele>
        <time>2021-09-06T14:00:25.000Z</time>
      </trkpt>
      <trkpt lat="48.4713" lon="0.12291">
        <ele>143.918395</ele>
        <time>2021-09-06T14:00:26.000Z</time>
      </trkpt>
      <trkpt lat="48.47123" lon="0.12338">
        <ele>143.826012</ele>
        <time>2021-09-06T14:00:32.000Z</time>
      </trkpt>
      <trkpt lat="48.47121" lon="0.12345">
        <ele>143.811473</ele>
        <time>2021-09-06T14:00:33.000Z</time>
      </trkpt>
      <trkpt lat="48.47108" lon="0.12381">
        <ele>143.733449</ele>
        <time>2021-09-06T14:00:39.000Z</time>
      </trkpt>
      <trkpt lat="48.47106" lon="0.12386">
        <ele>143.721796</ele>
        <time>2021-09-06T14:00:40.000Z</time>
      </trkpt>
      <trkpt lat="48.47087" lon="0.12419">
        <ele>143.638291</ele>
        <time>2021-09-06T14:00:48.000Z</time>
      </trkpt>
      <trkpt lat="48.47074" lon="0.12456">
        <ele>143.55823</ele>
        <time>2021-09-06T14:00:56.000Z</time>
      </trkpt>
      <trkpt lat="48.47064" lon="0.12497">
        <ele>143.484023</ele>
        <time>2021-09-06T14:01:04.000Z</time>
      </trkpt>
      <trkpt lat="48.47057" lon="0.12535">
        <ele>143.420211</ele>
        <time>2021-09-06T14:01:11.000Z</time>
      </trkpt>
      <trkpt lat="48.47049" lon="0.1258">
        <ele>143.342928</ele>
        <time>2021-09-06T14:01:18.000Z</time>
      </trkpt>
      <trkpt lat="48.47044" lon="0.12603">
        <ele>143.303463</ele>
        <time>2021-09-06T14:01:21.000Z</time>
      </trkpt>
      <trkpt lat="48.47037" lon="0.12627">
        <ele>143.260459</ele>
        <time>2021-09-06T14:01:24.000Z</time>
      </trkpt>
      <trkpt lat="48.47017" lon="0.12669">
        <ele>143.175671</ele>
        <time>2021-09-06T14:01:29.000Z</time>
      </trkpt>
      <trkpt lat="48.46982" lon="0.12731">
        <ele>142.829627</ele>
        <time>2021-09-06T14:01:36.000Z</time>
      </trkpt>
      <trkpt lat="48.46977" lon="0.1274">
        <ele>142.737122</ele>
        <time>2021-09-06T14:01:37.000Z</time>
      </trkpt>
      <trkpt lat="48.46941" lon="0.12811">
        <ele>142.027246</ele>
        <time>2021-09-06T14:01:45.000Z</time>
      </trkpt>
      <trkpt lat="48.46922" lon="0.12855">
        <ele>141.610721</ele>
        <time>2021-09-06T14:01:50.000Z</time>
      </trkpt>
      <trkpt lat="48.46892" lon="0.12931">
        <ele>140.896132</ele>
        <time>2021-09-06T14:01:59.000Z</time>
      </trkpt>
      <trkpt lat="48.46885" lon="0.12947">
        <ele>140.716423</ele>
        <time>2021-09-06T14:02:01.000Z</time>
      </trkpt>
      <trkpt lat="48.46855" lon="0.13019">
        <ele>139.916097</ele>
        <time>2021-09-06T14:02:10.000Z</time>
      </trkpt>
      <trkpt lat="48.46836" lon="0.13071">
        <ele>139.357629</ele>
        <time>2021-09-06T14:02:17.000Z</time>
      </trkpt>
      <trkpt lat="48.46829" lon="0.13093">
        <ele>139.121467</ele>
        <time>2021-09-06T14:02:21.000Z</time>
      </trkpt>
      <trkpt lat="48.46816" lon="0.13135">
        <ele>138.681977</ele>
        <time>2021-09-06T14:02:27.000Z</time>
      </trkpt>
      <trkpt lat="48.46794" lon="0.13195">
        <ele>138.125688</ele>
        <time>2021-09-06T14:02:35.000Z</time>
      </trkpt>
      <trkpt lat="48.46771" lon="0.13251">
        <ele>137.675248</ele>
        <time>2021-09-06T14:02:43.000Z</time>
      </trkpt>
      <trkpt lat="48.46752" lon="0.13292">
        <ele>137.32745</ele>
        <time>2021-09-06T14:02:50.000Z</time>
      </trkpt>
      <trkpt lat="48.46733" lon="0.13328">
        <ele>137.005458</ele>
        <time>2021-09-06T14:02:56.000Z</time>
      </trkpt>
      <trkpt lat="48.46723" lon="0.13348">
        <ele>136.833908</ele>
        <time>2021-09-06T14:02:59.000Z</time>
      </trkpt>
      <trkpt lat="48.46716" lon="0.1337">
        <ele>136.663723</ele>
        <time>2021-09-06T14:03:02.000Z</time>
      </trkpt>
      <trkpt lat="48.467" lon="0.1344">
        <ele>136.498417</ele>
        <time>2021-09-06T14:03:11.000Z</time>
      </trkpt>
      <trkpt lat="48.46692" lon="0.13484">
        <ele>136.500531</ele>
        <time>2021-09-06T14:03:18.000Z</time>
      </trkpt>
      <trkpt lat="48.46692" lon="0.13494">
        <ele>136.500973</ele>
        <time>2021-09-06T14:03:20.000Z</time>
      </trkpt>
      <trkpt lat="48.46694" lon="0.13499">
        <ele>136.501216</ele>
        <time>2021-09-06T14:03:21.000Z</time>
      </trkpt>
      <trkpt lat="48.46696" lon="0.13504">
        <ele>136.501485</ele>
        <time>2021-09-06T14:03:22.000Z</time>
      </trkpt>
      <trkpt lat="48.46705" lon="0.1352">
        <ele>136.502433</ele>
        <time>2021-09-06T14:03:25.000Z</time>
      </trkpt>
      <trkpt lat="48.4673" lon="0.1357">
        <ele>136.505294</ele>
        <time>2021-09-06T14:03:33.000Z</time>
      </trkpt>
      <trkpt lat="48.46739" lon="0.1359">
        <ele>136.506407</ele>
        <time>2021-09-06T14:03:36.000Z</time>
      </trkpt>
      <trkpt lat="48.4675" lon="0.1361">
        <ele>136.507535</ele>
        <time>2021-09-06T14:03:39.000Z</time>
      </trkpt>
      <trkpt lat="48.46774" lon="0.13663">
        <ele>136.605851</ele>
        <time>2021-09-06T14:03:47.000Z</time>
      </trkpt>
      <trkpt lat="48.46801" lon="0.1372">
        <ele>136.765209</ele>
        <time>2021-09-06T14:03:56.000Z</time>
      </trkpt>
      <trkpt lat="48.46819" lon="0.13761">
        <ele>136.873627</ele>
        <time>2021-09-06T14:04:02.000Z</time>
      </trkpt>
      <trkpt lat="48.46822" lon="0.13767">
        <ele>136.891596</ele>
        <time>2021-09-06T14:04:03.000Z</time>
      </trkpt>
      <trkpt lat="48.46824" lon="0.13774">
        <ele>136.908839</ele>
        <time>2021-09-06T14:04:04.000Z</time>
      </trkpt>
      <trkpt lat="48.46829" lon="0.13788">
        <ele>136.94352</ele>
        <time>2021-09-06T14:04:06.000Z</time>
      </trkpt>
      <trkpt lat="48.46832" lon="0.13794">
        <ele>136.959969</ele>
        <time>2021-09-06T14:04:07.000Z</time>
      </trkpt>
      <trkpt lat="48.46843" lon="0.1382">
        <ele>137.029507</ele>
        <time>2021-09-06T14:04:11.000Z</time>
      </trkpt>
      <trkpt lat="48.46849" lon="0.13833">
        <ele>137.064649</ele>
        <time>2021-09-06T14:04:13.000Z</time>
      </trkpt>
      <trkpt lat="48.46857" lon="0.13852">
        <ele>137.115307</ele>
        <time>2021-09-06T14:04:16.000Z</time>
      </trkpt>
      <trkpt lat="48.46863" lon="0.13864">
        <ele>137.181496</ele>
        <time>2021-09-06T14:04:18.000Z</time>
      </trkpt>
      <trkpt lat="48.46878" lon="0.13902">
        <ele>137.377473</ele>
        <time>2021-09-06T14:04:24.000Z</time>
      </trkpt>
      <trkpt lat="48.46881" lon="0.13908">
        <ele>137.409127</ele>
        <time>2021-09-06T14:04:25.000Z</time>
      </trkpt>
      <trkpt lat="48.46892" lon="0.13938">
        <ele>137.563634</ele>
        <time>2021-09-06T14:04:30.000Z</time>
      </trkpt>
      <trkpt lat="48.46893" lon="0.13943">
        <ele>137.591283</ele>
        <time>2021-09-06T14:04:31.000Z</time>
      </trkpt>
      <trkpt lat="48.4691" lon="0.13981">
        <ele>137.793819</ele>
        <time>2021-09-06T14:04:37.000Z</time>
      </trkpt>
      <trkpt lat="48.46913" lon="0.13987">
        <ele>137.826615</ele>
        <time>2021-09-06T14:04:38.000Z</time>
      </trkpt>
      <trkpt lat="48.46918" lon="0.13999">
        <ele>137.889982</ele>
        <time>2021-09-06T14:04:40.000Z</time>
      </trkpt>
      <trkpt lat="48.46925" lon="0.14018">
        <ele>137.987533</ele>
        <time>2021-09-06T14:04:43.000Z</time>
      </trkpt>
      <trkpt lat="48.46943" lon="0.14063">
        <ele>138.221208</ele>
        <time>2021-09-06T14:04:50.000Z</time>
      </trkpt>
      <trkpt lat="48.46953" lon="0.14088">
        <ele>138.37338</ele>
        <time>2021-09-06T14:04:54.000Z</time>
      </trkpt>
      <trkpt lat="48.46957" lon="0.141">
        <ele>138.502792</ele>
        <time>2021-09-06T14:04:56.000Z</time>
      </trkpt>
      <trkpt lat="48.46971" lon="0.14135">
        <ele>138.871135</ele>
        <time>2021-09-06T14:05:02.000Z</time>
      </trkpt>
      <trkpt lat="48.46976" lon="0.14151">
        <ele>139.029692</ele>
        <time>2021-09-06T14:05:05.000Z</time>
      </trkpt>
      <trkpt lat="48.46987" lon="0.1418">
        <ele>139.332042</ele>
        <time>2021-09-06T14:05:10.000Z</time>
      </trkpt>
      <trkpt lat="48.46991" lon="0.14192">
        <ele>139.452204</ele>
        <time>2021-09-06T14:05:12.000Z</time>
      </trkpt>
      <trkpt lat="48.46995" lon="0.14204">
        <ele>139.574102</ele>
        <time>2021-09-06T14:05:14.000Z</time>
      </trkpt>
      <trkpt lat="48.46997" lon="0.1421">
        <ele>139.6323</ele>
        <time>2021-09-06T14:05:15.000Z</time>
      </trkpt>
      <trkpt lat="48.47008" lon="0.1424">
        <ele>139.948068</ele>
        <time>2021-09-06T14:05:20.000Z</time>
      </trkpt>
      <trkpt lat="48.47016" lon="0.14266">
        <ele>140.204031</ele>
        <time>2021-09-06T14:05:24.000Z</time>
      </trkpt>
      <trkpt lat="48.47019" lon="0.14272">
        <ele>140.267744</ele>
        <time>2021-09-06T14:05:25.000Z</time>
      </trkpt>
      <trkpt lat="48.47033" lon="0.14313">
        <ele>140.69069</ele>
        <time>2021-09-06T14:05:32.000Z</time>
      </trkpt>
      <trkpt lat="48.47042" lon="0.1434">
        <ele>140.900778</ele>
        <time>2021-09-06T14:05:37.000Z</time>
      </trkpt>
      <trkpt lat="48.47052" lon="0.1437">
        <ele>141.102442</ele>
        <time>2021-09-06T14:05:42.000Z</time>
      </trkpt>
      <trkpt lat="48.47065" lon="0.14409">
        <ele>141.364169</ele>
        <time>2021-09-06T14:05:48.000Z</time>
      </trkpt>
      <trkpt lat="48.4707" lon="0.14427">
        <ele>141.480214</ele>
        <time>2021-09-06T14:05:51.000Z</time>
      </trkpt>
      <trkpt lat="48.47072" lon="0.14434">
        <ele>141.522495</ele>
        <time>2021-09-06T14:05:52.000Z</time>
      </trkpt>
      <trkpt lat="48.47084" lon="0.14468">
        <ele>141.751806</ele>
        <time>2021-09-06T14:05:58.000Z</time>
      </trkpt>
      <trkpt lat="48.47099" lon="0.14509">
        <ele>142.031028</ele>
        <time>2021-09-06T14:06:05.000Z</time>
      </trkpt>
      <trkpt lat="48.47103" lon="0.14522">
        <ele>142.114517</ele>
        <time>2021-09-06T14:06:07.000Z</time>
      </trkpt>
      <trkpt lat="48.47108" lon="0.14536">
        <ele>142.208758</ele>
        <time>2021-09-06T14:06:09.000Z</time>
      </trkpt>
      <trkpt lat="48.47123" lon="0.14581">
        <ele>142.433054</ele>
        <time>2021-09-06T14:06:15.000Z</time>
      </trkpt>
      <trkpt lat="48.47128" lon="0.14596">
        <ele>142.465766</ele>
        <time>2021-09-06T14:06:17.000Z</time>
      </trkpt>
      <trkpt lat="48.47135" lon="0.14611">
        <ele>142.50088</ele>
        <time>2021-09-06T14:06:19.000Z</time>
      </trkpt>
      <trkpt lat="48.47138" lon="0.1462">
        <ele>142.519013</ele>
        <time>2021-09-06T14:06:20.000Z</time>
      </trkpt>
      <trkpt lat="48.47162" lon="0.14688">
        <ele>142.666134</ele>
        <time>2021-09-06T14:06:28.000Z</time>
      </trkpt>
      <trkpt lat="48.47186" lon="0.14753">
        <ele>142.808693</ele>
        <time>2021-09-06T14:06:36.000Z</time>
      </trkpt>
      <trkpt lat="48.47207" lon="0.14817">
        <ele>142.873461</ele>
        <time>2021-09-06T14:06:44.000Z</time>
      </trkpt>
      <trkpt lat="48.47223" lon="0.14863">
        <ele>142.726153</ele>
        <time>2021-09-06T14:06:50.000Z</time>
      </trkpt>
      <trkpt lat="48.47228" lon="0.14877">
        <ele>142.684036</ele>
        <time>2021-09-06T14:06:52.000Z</time>
      </trkpt>
      <trkpt lat="48.4723" lon="0.14884">
        <ele>142.662567</ele>
        <time>2021-09-06T14:06:53.000Z</time>
      </trkpt>
      <trkpt lat="48.47245" lon="0.14926">
        <ele>142.528943</ele>
        <time>2021-09-06T14:06:58.000Z</time>
      </trkpt>
      <trkpt lat="48.47253" lon="0.14951">
        <ele>142.44867</ele>
        <time>2021-09-06T14:07:01.000Z</time>
      </trkpt>
      <trkpt lat="48.47258" lon="0.14966">
        <ele>142.402195</ele>
        <time>2021-09-06T14:07:03.000Z</time>
      </trkpt>
      <trkpt lat="48.47269" lon="0.14997">
        <ele>142.304204</ele>
        <time>2021-09-06T14:07:07.000Z</time>
      </trkpt>
      <trkpt lat="48.47288" lon="0.15055">
        <ele>142.148454</ele>
        <time>2021-09-06T14:07:14.000Z</time>
      </trkpt>
      <trkpt lat="48.4729" lon="0.15063">
        <ele>142.145442</ele>
        <time>2021-09-06T14:07:15.000Z</time>
      </trkpt>
      <trkpt lat="48.47292" lon="0.15071">
        <ele>142.142206</ele>
        <time>2021-09-06T14:07:16.000Z</time>
      </trkpt>
      <trkpt lat="48.47297" lon="0.15086">
        <ele>142.136308</ele>
        <time>2021-09-06T14:07:18.000Z</time>
      </trkpt>
      <trkpt lat="48.473" lon="0.15093">
        <ele>142.133211</ele>
        <time>2021-09-06T14:07:19.000Z</time>
      </trkpt>
      <trkpt lat="48.47306" lon="0.15105">
        <ele>142.127458</ele>
        <time>2021-09-06T14:07:21.000Z</time>
      </trkpt>
      <trkpt lat="48.4732" lon="0.15141">
        <ele>142.112255</ele>
        <time>2021-09-06T14:07:27.000Z</time>
      </trkpt>
      <trkpt lat="48.47336" lon="0.15187">
        <ele>142.093546</ele>
        <time>2021-09-06T14:07:33.000Z</time>
      </trkpt>
      <trkpt lat="48.4735" lon="0.15227">
        <ele>142.077056</ele>
        <time>2021-09-06T14:07:38.000Z</time>
      </trkpt>
      <trkpt lat="48.47352" lon="0.15235">
        <ele>142.073989</ele>
        <time>2021-09-06T14:07:39.000Z</time>
      </trkpt>
      <trkpt lat="48.47354" lon="0.15242">
        <ele>142.070963</ele>
        <time>2021-09-06T14:07:40.000Z</time>
      </trkpt>
      <trkpt lat="48.47363" lon="0.15266">
        <ele>142.061296</ele>
        <time>2021-09-06T14:07:43.000Z</time>
      </trkpt>
      <trkpt lat="48.47366" lon="0.15272">
        <ele>142.05847</ele>
        <time>2021-09-06T14:07:44.000Z</time>
      </trkpt>
      <trkpt lat="48.47371" lon="0.15287">
        <ele>142.035636</ele>
        <time>2021-09-06T14:07:46.000Z</time>
      </trkpt>
      <trkpt lat="48.47376" lon="0.15304">
        <ele>141.967245</ele>
        <time>2021-09-06T14:07:48.000Z</time>
      </trkpt>
      <trkpt lat="48.47386" lon="0.15328">
        <ele>141.860068</ele>
        <time>2021-09-06T14:07:51.000Z</time>
      </trkpt>
      <trkpt lat="48.47395" lon="0.15352">
        <ele>141.754408</ele>
        <time>2021-09-06T14:07:54.000Z</time>
      </trkpt>
      <trkpt lat="48.47401" lon="0.15368">
        <ele>141.687966</ele>
        <time>2021-09-06T14:07:56.000Z</time>
      </trkpt>
      <trkpt lat="48.47408" lon="0.15391">
        <ele>141.591658</ele>
        <time>2021-09-06T14:08:00.000Z</time>
      </trkpt>
      <trkpt lat="48.47411" lon="0.15396">
        <ele>141.56842</ele>
        <time>2021-09-06T14:08:01.000Z</time>
      </trkpt>
      <trkpt lat="48.47417" lon="0.15416">
        <ele>141.484348</ele>
        <time>2021-09-06T14:08:04.000Z</time>
      </trkpt>
      <trkpt lat="48.47427" lon="0.1545">
        <ele>141.343528</ele>
        <time>2021-09-06T14:08:09.000Z</time>
      </trkpt>
      <trkpt lat="48.47432" lon="0.15463">
        <ele>141.286867</ele>
        <time>2021-09-06T14:08:11.000Z</time>
      </trkpt>
      <trkpt lat="48.47437" lon="0.15478">
        <ele>141.224032</ele>
        <time>2021-09-06T14:08:13.000Z</time>
      </trkpt>
      <trkpt lat="48.47442" lon="0.15494">
        <ele>141.158468</ele>
        <time>2021-09-06T14:08:15.000Z</time>
      </trkpt>
      <trkpt lat="48.47448" lon="0.15509">
        <ele>141.093053</ele>
        <time>2021-09-06T14:08:17.000Z</time>
      </trkpt>
      <trkpt lat="48.47461" lon="0.15547">
        <ele>140.935561</ele>
        <time>2021-09-06T14:08:22.000Z</time>
      </trkpt>
      <trkpt lat="48.47469" lon="0.15569">
        <ele>140.842868</ele>
        <time>2021-09-06T14:08:25.000Z</time>
      </trkpt>
      <trkpt lat="48.47472" lon="0.15576">
        <ele>140.815802</ele>
        <time>2021-09-06T14:08:26.000Z</time>
      </trkpt>
      <trkpt lat="48.47475" lon="0.15583">
        <ele>140.783968</ele>
        <time>2021-09-06T14:08:27.000Z</time>
      </trkpt>
      <trkpt lat="48.47481" lon="0.15598">
        <ele>140.722941</ele>
        <time>2021-09-06T14:08:29.000Z</time>
      </trkpt>
      <trkpt lat="48.47485" lon="0.15613">
        <ele>140.66507</ele>
        <time>2021-09-06T14:08:31.000Z</time>
      </trkpt>
      <trkpt lat="48.47489" lon="0.15627">
        <ele>140.606977</ele>
        <time>2021-09-06T14:08:33.000Z</time>
      </trkpt>
      <trkpt lat="48.475" lon="0.15654">
        <ele>140.496256</ele>
        <time>2021-09-06T14:08:37.000Z</time>
      </trkpt>
      <trkpt lat="48.47502" lon="0.15661">
        <ele>140.468827</ele>
        <time>2021-09-06T14:08:38.000Z</time>
      </trkpt>
      <trkpt lat="48.47511" lon="0.15687">
        <ele>140.36425</ele>
        <time>2021-09-06T14:08:42.000Z</time>
      </trkpt>
      <trkpt lat="48.4752" lon="0.15713">
        <ele>140.256366</ele>
        <time>2021-09-06T14:08:46.000Z</time>
      </trkpt>
      <trkpt lat="48.47524" lon="0.15727">
        <ele>140.203107</ele>
        <time>2021-09-06T14:08:48.000Z</time>
      </trkpt>
      <trkpt lat="48.47528" lon="0.15741">
        <ele>140.145697</ele>
        <time>2021-09-06T14:08:50.000Z</time>
      </trkpt>
      <trkpt lat="48.47533" lon="0.15754">
        <ele>140.092868</ele>
        <time>2021-09-06T14:08:52.000Z</time>
      </trkpt>
      <trkpt lat="48.47541" lon="0.15776">
        <ele>140.056499</ele>
        <time>2021-09-06T14:08:55.000Z</time>
      </trkpt>
      <trkpt lat="48.47544" lon="0.15784">
        <ele>140.057626</ele>
        <time>2021-09-06T14:08:56.000Z</time>
      </trkpt>
      <trkpt lat="48.47554" lon="0.15813">
        <ele>140.061469</ele>
        <time>2021-09-06T14:09:00.000Z</time>
      </trkpt>
      <trkpt lat="48.47564" lon="0.15841">
        <ele>140.065339</ele>
        <time>2021-09-06T14:09:04.000Z</time>
      </trkpt>
      <trkpt lat="48.47579" lon="0.15886">
        <ele>140.071399</ele>
        <time>2021-09-06T14:09:10.000Z</time>
      </trkpt>
      <trkpt lat="48.47584" lon="0.15901">
        <ele>140.073423</ele>
        <time>2021-09-06T14:09:12.000Z</time>
      </trkpt>
      <trkpt lat="48.47589" lon="0.15913">
        <ele>140.0752</ele>
        <time>2021-09-06T14:09:14.000Z</time>
      </trkpt>
      <trkpt lat="48.47591" lon="0.1592">
        <ele>140.076143</ele>
        <time>2021-09-06T14:09:15.000Z</time>
      </trkpt>
      <trkpt lat="48.47605" lon="0.15962">
        <ele>140.081745</ele>
        <time>2021-09-06T14:09:20.000Z</time>
      </trkpt>
      <trkpt lat="48.47611" lon="0.15978">
        <ele>140.083889</ele>
        <time>2021-09-06T14:09:22.000Z</time>
      </trkpt>
      <trkpt lat="48.47624" lon="0.16016">
        <ele>140.167426</ele>
        <time>2021-09-06T14:09:27.000Z</time>
      </trkpt>
      <trkpt lat="48.47637" lon="0.16051">
        <ele>140.396446</ele>
        <time>2021-09-06T14:09:32.000Z</time>
      </trkpt>
      <trkpt lat="48.47639" lon="0.16058">
        <ele>140.441629</ele>
        <time>2021-09-06T14:09:33.000Z</time>
      </trkpt>
      <trkpt lat="48.47645" lon="0.16076">
        <ele>140.559333</ele>
        <time>2021-09-06T14:09:36.000Z</time>
      </trkpt>
      <trkpt lat="48.47648" lon="0.16083">
        <ele>140.60199</ele>
        <time>2021-09-06T14:09:37.000Z</time>
      </trkpt>
      <trkpt lat="48.47659" lon="0.16117">
        <ele>140.821721</ele>
        <time>2021-09-06T14:09:42.000Z</time>
      </trkpt>
      <trkpt lat="48.47673" lon="0.16156">
        <ele>141.073664</ele>
        <time>2021-09-06T14:09:48.000Z</time>
      </trkpt>
      <trkpt lat="48.47683" lon="0.16188">
        <ele>141.279423</ele>
        <time>2021-09-06T14:09:53.000Z</time>
      </trkpt>
      <trkpt lat="48.47686" lon="0.16194">
        <ele>141.320756</ele>
        <time>2021-09-06T14:09:54.000Z</time>
      </trkpt>
      <trkpt lat="48.47701" lon="0.1624">
        <ele>141.613259</ele>
        <time>2021-09-06T14:10:01.000Z</time>
      </trkpt>
      <trkpt lat="48.47715" lon="0.16284">
        <ele>142.168424</ele>
        <time>2021-09-06T14:10:08.000Z</time>
      </trkpt>
      <trkpt lat="48.47717" lon="0.1629">
        <ele>142.25066</ele>
        <time>2021-09-06T14:10:09.000Z</time>
      </trkpt>
      <trkpt lat="48.47722" lon="0.16306">
        <ele>142.469252</ele>
        <time>2021-09-06T14:10:12.000Z</time>
      </trkpt>
      <trkpt lat="48.47732" lon="0.16335">
        <ele>142.856278</ele>
        <time>2021-09-06T14:10:17.000Z</time>
      </trkpt>
      <trkpt lat="48.47743" lon="0.1637">
        <ele>143.318658</ele>
        <time>2021-09-06T14:10:23.000Z</time>
      </trkpt>
      <trkpt lat="48.47752" lon="0.16401">
        <ele>143.726654</ele>
        <time>2021-09-06T14:10:28.000Z</time>
      </trkpt>
      <trkpt lat="48.47762" lon="0.16432">
        <ele>144.148723</ele>
        <time>2021-09-06T14:10:33.000Z</time>
      </trkpt>
      <trkpt lat="48.47764" lon="0.16439">
        <ele>144.242195</ele>
        <time>2021-09-06T14:10:34.000Z</time>
      </trkpt>
      <trkpt lat="48.47772" lon="0.16468">
        <ele>144.60818</ele>
        <time>2021-09-06T14:10:38.000Z</time>
      </trkpt>
      <trkpt lat="48.47785" lon="0.16517">
        <ele>145.082832</ele>
        <time>2021-09-06T14:10:45.000Z</time>
      </trkpt>
      <trkpt lat="48.47797" lon="0.16561">
        <ele>145.385155</ele>
        <time>2021-09-06T14:10:51.000Z</time>
      </trkpt>
      <trkpt lat="48.478" lon="0.16575">
        <ele>145.479347</ele>
        <time>2021-09-06T14:10:53.000Z</time>
      </trkpt>
      <trkpt lat="48.47803" lon="0.16589">
        <ele>145.573217</ele>
        <time>2021-09-06T14:10:55.000Z</time>
      </trkpt>
      <trkpt lat="48.47809" lon="0.16613">
        <ele>145.735259</ele>
        <time>2021-09-06T14:10:58.000Z</time>
      </trkpt>
      <trkpt lat="48.47817" lon="0.16652">
        <ele>145.992281</ele>
        <time>2021-09-06T14:11:03.000Z</time>
      </trkpt>
      <trkpt lat="48.4782" lon="0.16667">
        <ele>146.092124</ele>
        <time>2021-09-06T14:11:05.000Z</time>
      </trkpt>
      <trkpt lat="48.47823" lon="0.1668">
        <ele>146.177376</ele>
        <time>2021-09-06T14:11:07.000Z</time>
      </trkpt>
      <trkpt lat="48.47824" lon="0.16687">
        <ele>146.222442</ele>
        <time>2021-09-06T14:11:08.000Z</time>
      </trkpt>
      <trkpt lat="48.47827" lon="0.167">
        <ele>146.30972</ele>
        <time>2021-09-06T14:11:10.000Z</time>
      </trkpt>
      <trkpt lat="48.47831" lon="0.1672">
        <ele>146.443784</ele>
        <time>2021-09-06T14:11:13.000Z</time>
      </trkpt>
      <trkpt lat="48.47837" lon="0.16753">
        <ele>146.603497</ele>
        <time>2021-09-06T14:11:18.000Z</time>
      </trkpt>
      <trkpt lat="48.47841" lon="0.16778">
        <ele>146.529856</ele>
        <time>2021-09-06T14:11:22.000Z</time>
      </trkpt>
      <trkpt lat="48.47843" lon="0.1681">
        <ele>146.443318</ele>
        <time>2021-09-06T14:11:27.000Z</time>
      </trkpt>
      <trkpt lat="48.47847" lon="0.16849">
        <ele>146.332638</ele>
        <time>2021-09-06T14:11:33.000Z</time>
      </trkpt>
      <trkpt lat="48.47849" lon="0.16873">
        <ele>146.268384</ele>
        <time>2021-09-06T14:11:36.000Z</time>
      </trkpt>
      <trkpt lat="48.4785" lon="0.1688">
        <ele>146.247768</ele>
        <time>2021-09-06T14:11:37.000Z</time>
      </trkpt>
      <trkpt lat="48.47851" lon="0.16897">
        <ele>146.199741</ele>
        <time>2021-09-06T14:11:39.000Z</time>
      </trkpt>
      <trkpt lat="48.47857" lon="0.16935">
        <ele>146.091925</ele>
        <time>2021-09-06T14:11:43.000Z</time>
      </trkpt>
      <trkpt lat="48.47859" lon="0.16954">
        <ele>146.039227</ele>
        <time>2021-09-06T14:11:45.000Z</time>
      </trkpt>
      <trkpt lat="48.47862" lon="0.16967">
        <ele>146.001511</ele>
        <time>2021-09-06T14:11:47.000Z</time>
      </trkpt>
      <trkpt lat="48.47865" lon="0.17007">
        <ele>145.891032</ele>
        <time>2021-09-06T14:11:52.000Z</time>
      </trkpt>
      <trkpt lat="48.47865" lon="0.17016">
        <ele>145.867093</ele>
        <time>2021-09-06T14:11:53.000Z</time>
      </trkpt>
      <trkpt lat="48.47866" lon="0.17026">
        <ele>145.849834</ele>
        <time>2021-09-06T14:11:54.000Z</time>
      </trkpt>
      <trkpt lat="48.4787" lon="0.17073">
        <ele>145.765616</ele>
        <time>2021-09-06T14:11:59.000Z</time>
      </trkpt>
      <trkpt lat="48.47876" lon="0.17138">
        <ele>145.646518</ele>
        <time>2021-09-06T14:12:06.000Z</time>
      </trkpt>
      <trkpt lat="48.47894" lon="0.17197">
        <ele>145.531136</ele>
        <time>2021-09-06T14:12:10.000Z</time>
      </trkpt>
      <trkpt lat="48.47898" lon="0.17209">
        <ele>145.507301</ele>
        <time>2021-09-06T14:12:11.000Z</time>
      </trkpt>
      <trkpt lat="48.479" lon="0.17225">
        <ele>145.476623</ele>
        <time>2021-09-06T14:12:13.000Z</time>
      </trkpt>
      <trkpt lat="48.479" lon="0.17233">
        <ele>145.462274</ele>
        <time>2021-09-06T14:12:14.000Z</time>
      </trkpt>
      <trkpt lat="48.47901" lon="0.17241">
        <ele>145.448211</ele>
        <time>2021-09-06T14:12:15.000Z</time>
      </trkpt>
      <trkpt lat="48.47903" lon="0.17257">
        <ele>145.418992</ele>
        <time>2021-09-06T14:12:17.000Z</time>
      </trkpt>
      <trkpt lat="48.47905" lon="0.17273">
        <ele>145.390874</ele>
        <time>2021-09-06T14:12:19.000Z</time>
      </trkpt>
      <trkpt lat="48.47906" lon="0.17289">
        <ele>145.263288</ele>
        <time>2021-09-06T14:12:21.000Z</time>
      </trkpt>
      <trkpt lat="48.47907" lon="0.17297">
        <ele>145.179979</ele>
        <time>2021-09-06T14:12:22.000Z</time>
      </trkpt>
      <trkpt lat="48.47911" lon="0.17326">
        <ele>144.889985</ele>
        <time>2021-09-06T14:12:25.000Z</time>
      </trkpt>
      <trkpt lat="48.47915" lon="0.17347">
        <ele>144.679295</ele>
        <time>2021-09-06T14:12:27.000Z</time>
      </trkpt>
      <trkpt lat="48.47916" lon="0.17357">
        <ele>144.586752</ele>
        <time>2021-09-06T14:12:28.000Z</time>
      </trkpt>
      <trkpt lat="48.47918" lon="0.17376">
        <ele>144.39416</ele>
        <time>2021-09-06T14:12:30.000Z</time>
      </trkpt>
      <trkpt lat="48.47921" lon="0.17408">
        <ele>144.077482</ele>
        <time>2021-09-06T14:12:33.000Z</time>
      </trkpt>
      <trkpt lat="48.47928" lon="0.17462">
        <ele>143.543429</ele>
        <time>2021-09-06T14:12:38.000Z</time>
      </trkpt>
      <trkpt lat="48.47931" lon="0.17491">
        <ele>143.264594</ele>
        <time>2021-09-06T14:12:41.000Z</time>
      </trkpt>
      <trkpt lat="48.47932" lon="0.175">
        <ele>143.177697</ele>
        <time>2021-09-06T14:12:42.000Z</time>
      </trkpt>
      <trkpt lat="48.47941" lon="0.17557">
        <ele>142.629297</ele>
        <time>2021-09-06T14:12:47.000Z</time>
      </trkpt>
      <trkpt lat="48.47946" lon="0.17613">
        <ele>142.178365</ele>
        <time>2021-09-06T14:12:52.000Z</time>
      </trkpt>
      <trkpt lat="48.47955" lon="0.17679">
        <ele>141.629064</ele>
        <time>2021-09-06T14:12:58.000Z</time>
      </trkpt>
      <trkpt lat="48.47962" lon="0.17741">
        <ele>141.12062</ele>
        <time>2021-09-06T14:13:04.000Z</time>
      </trkpt>
      <trkpt lat="48.4797" lon="0.17811">
        <ele>140.552848</ele>
        <time>2021-09-06T14:13:11.000Z</time>
      </trkpt>
      <trkpt lat="48.47977" lon="0.17868">
        <ele>140.130244</ele>
        <time>2021-09-06T14:13:17.000Z</time>
      </trkpt>
      <trkpt lat="48.47978" lon="0.17877">
        <ele>140.062035</ele>
        <time>2021-09-06T14:13:18.000Z</time>
      </trkpt>
      <trkpt lat="48.47984" lon="0.17912">
        <ele>139.796076</ele>
        <time>2021-09-06T14:13:22.000Z</time>
      </trkpt>
      <trkpt lat="48.47987" lon="0.17945">
        <ele>139.551922</ele>
        <time>2021-09-06T14:13:26.000Z</time>
      </trkpt>
      <trkpt lat="48.47987" lon="0.17953">
        <ele>139.494599</ele>
        <time>2021-09-06T14:13:27.000Z</time>
      </trkpt>
      <trkpt lat="48.47986" lon="0.17961">
        <ele>139.435083</ele>
        <time>2021-09-06T14:13:28.000Z</time>
      </trkpt>
      <trkpt lat="48.47988" lon="0.17984">
        <ele>139.266839</ele>
        <time>2021-09-06T14:13:31.000Z</time>
      </trkpt>
      <trkpt lat="48.4799" lon="0.18008">
        <ele>139.085492</ele>
        <time>2021-09-06T14:13:34.000Z</time>
      </trkpt>
      <trkpt lat="48.4799" lon="0.18017">
        <ele>139.025398</ele>
        <time>2021-09-06T14:13:35.000Z</time>
      </trkpt>
      <trkpt lat="48.47992" lon="0.18034">
        <ele>138.89435</ele>
        <time>2021-09-06T14:13:37.000Z</time>
      </trkpt>
      <trkpt lat="48.47996" lon="0.1806">
        <ele>138.699237</ele>
        <time>2021-09-06T14:13:40.000Z</time>
      </trkpt>
      <trkpt lat="48.48003" lon="0.1811">
        <ele>138.491828</ele>
        <time>2021-09-06T14:13:46.000Z</time>
      </trkpt>
      <trkpt lat="48.48005" lon="0.18119">
        <ele>138.468967</ele>
        <time>2021-09-06T14:13:47.000Z</time>
      </trkpt>
      <trkpt lat="48.48008" lon="0.18155">
        <ele>138.382381</ele>
        <time>2021-09-06T14:13:51.000Z</time>
      </trkpt>
      <trkpt lat="48.48014" lon="0.18209">
        <ele>138.248527</ele>
        <time>2021-09-06T14:13:58.000Z</time>
      </trkpt>
      <trkpt lat="48.48015" lon="0.18216">
        <ele>138.229678</ele>
        <time>2021-09-06T14:13:59.000Z</time>
      </trkpt>
      <trkpt lat="48.48019" lon="0.1825">
        <ele>138.146501</ele>
        <time>2021-09-06T14:14:03.000Z</time>
      </trkpt>
      <trkpt lat="48.48028" lon="0.18307">
        <ele>138.004587</ele>
        <time>2021-09-06T14:14:10.000Z</time>
      </trkpt>
      <trkpt lat="48.48039" lon="0.18362">
        <ele>137.927494</ele>
        <time>2021-09-06T14:14:17.000Z</time>
      </trkpt>
      <trkpt lat="48.48044" lon="0.18392">
        <ele>137.946173</ele>
        <time>2021-09-06T14:14:21.000Z</time>
      </trkpt>
      <trkpt lat="48.48047" lon="0.18408">
        <ele>137.955443</ele>
        <time>2021-09-06T14:14:23.000Z</time>
      </trkpt>
      <trkpt lat="48.48054" lon="0.18448">
        <ele>137.980032</ele>
        <time>2021-09-06T14:14:28.000Z</time>
      </trkpt>
      <trkpt lat="48.48057" lon="0.18456">
        <ele>137.985051</ele>
        <time>2021-09-06T14:14:29.000Z</time>
      </trkpt>
      <trkpt lat="48.48059" lon="0.18464">
        <ele>137.99052</ele>
        <time>2021-09-06T14:14:30.000Z</time>
      </trkpt>
      <trkpt lat="48.48064" lon="0.18489">
        <ele>138.005843</ele>
        <time>2021-09-06T14:14:33.000Z</time>
      </trkpt>
      <trkpt lat="48.48065" lon="0.18496">
        <ele>138.010211</ele>
        <time>2021-09-06T14:14:34.000Z</time>
      </trkpt>
      <trkpt lat="48.4807" lon="0.18525">
        <ele>138.027494</ele>
        <time>2021-09-06T14:14:38.000Z</time>
      </trkpt>
      <trkpt lat="48.48073" lon="0.18541">
        <ele>138.037514</ele>
        <time>2021-09-06T14:14:40.000Z</time>
      </trkpt>
      <trkpt lat="48.48075" lon="0.18549">
        <ele>138.042445</ele>
        <time>2021-09-06T14:14:41.000Z</time>
      </trkpt>
      <trkpt lat="48.4808" lon="0.18564">
        <ele>138.052637</ele>
        <time>2021-09-06T14:14:43.000Z</time>
      </trkpt>
      <trkpt lat="48.48083" lon="0.18571">
        <ele>138.05743</ele>
        <time>2021-09-06T14:14:44.000Z</time>
      </trkpt>
      <trkpt lat="48.48084" lon="0.18579">
        <ele>138.062132</ele>
        <time>2021-09-06T14:14:45.000Z</time>
      </trkpt>
      <trkpt lat="48.4809" lon="0.1861">
        <ele>138.094442</ele>
        <time>2021-09-06T14:14:49.000Z</time>
      </trkpt>
      <trkpt lat="48.48099" lon="0.18645">
        <ele>138.170864</ele>
        <time>2021-09-06T14:14:54.000Z</time>
      </trkpt>
      <trkpt lat="48.48102" lon="0.18652">
        <ele>138.188176</ele>
        <time>2021-09-06T14:14:55.000Z</time>
      </trkpt>
      <trkpt lat="48.48109" lon="0.18677">
        <ele>138.243259</ele>
        <time>2021-09-06T14:14:58.000Z</time>
      </trkpt>
      <trkpt lat="48.48113" lon="0.18695">
        <ele>138.282993</ele>
        <time>2021-09-06T14:15:00.000Z</time>
      </trkpt>
      <trkpt lat="48.48121" lon="0.18722">
        <ele>138.341832</ele>
        <time>2021-09-06T14:15:03.000Z</time>
      </trkpt>
      <trkpt lat="48.4813" lon="0.18754">
        <ele>138.413227</ele>
        <time>2021-09-06T14:15:07.000Z</time>
      </trkpt>
      <trkpt lat="48.48143" lon="0.18799">
        <ele>138.512724</ele>
        <time>2021-09-06T14:15:13.000Z</time>
      </trkpt>
      <trkpt lat="48.48154" lon="0.1884">
        <ele>138.603405</ele>
        <time>2021-09-06T14:15:18.000Z</time>
      </trkpt>
      <trkpt lat="48.48162" lon="0.18876">
        <ele>138.77179</ele>
        <time>2021-09-06T14:15:23.000Z</time>
      </trkpt>
      <trkpt lat="48.48164" lon="0.18883">
        <ele>138.8095</ele>
        <time>2021-09-06T14:15:24.000Z</time>
      </trkpt>
      <trkpt lat="48.48177" lon="0.18924">
        <ele>139.059774</ele>
        <time>2021-09-06T14:15:30.000Z</time>
      </trkpt>
      <trkpt lat="48.48186" lon="0.18955">
        <ele>139.245624</ele>
        <time>2021-09-06T14:15:35.000Z</time>
      </trkpt>
      <trkpt lat="48.48198" lon="0.18996">
        <ele>139.485702</ele>
        <time>2021-09-06T14:15:41.000Z</time>
      </trkpt>
      <trkpt lat="48.4822" lon="0.19063">
        <ele>139.893681</ele>
        <time>2021-09-06T14:15:49.000Z</time>
      </trkpt>
      <trkpt lat="48.48237" lon="0.1912">
        <ele>140.178802</ele>
        <time>2021-09-06T14:15:56.000Z</time>
      </trkpt>
      <trkpt lat="48.48249" lon="0.19165">
        <ele>140.338252</ele>
        <time>2021-09-06T14:16:02.000Z</time>
      </trkpt>
      <trkpt lat="48.48251" lon="0.19173">
        <ele>140.363925</ele>
        <time>2021-09-06T14:16:03.000Z</time>
      </trkpt>
      <trkpt lat="48.48254" lon="0.19188">
        <ele>140.416611</ele>
        <time>2021-09-06T14:16:05.000Z</time>
      </trkpt>
      <trkpt lat="48.48255" lon="0.19196">
        <ele>140.441692</ele>
        <time>2021-09-06T14:16:06.000Z</time>
      </trkpt>
      <trkpt lat="48.48259" lon="0.19217">
        <ele>140.513397</ele>
        <time>2021-09-06T14:16:09.000Z</time>
      </trkpt>
      <trkpt lat="48.48264" lon="0.19232">
        <ele>140.566074</ele>
        <time>2021-09-06T14:16:11.000Z</time>
      </trkpt>
      <trkpt lat="48.48268" lon="0.19247">
        <ele>140.618564</ele>
        <time>2021-09-06T14:16:13.000Z</time>
      </trkpt>
      <trkpt lat="48.48272" lon="0.19261">
        <ele>140.670052</ele>
        <time>2021-09-06T14:16:15.000Z</time>
      </trkpt>
      <trkpt lat="48.48282" lon="0.193">
        <ele>140.803464</ele>
        <time>2021-09-06T14:16:20.000Z</time>
      </trkpt>
      <trkpt lat="48.48298" lon="0.19349">
        <ele>140.981278</ele>
        <time>2021-09-06T14:16:26.000Z</time>
      </trkpt>
      <trkpt lat="48.48312" lon="0.19396">
        <ele>141.012007</ele>
        <time>2021-09-06T14:16:32.000Z</time>
      </trkpt>
      <trkpt lat="48.48314" lon="0.19404">
        <ele>141.016522</ele>
        <time>2021-09-06T14:16:33.000Z</time>
      </trkpt>
      <trkpt lat="48.48327" lon="0.19448">
        <ele>141.044509</ele>
        <time>2021-09-06T14:16:39.000Z</time>
      </trkpt>
      <trkpt lat="48.48329" lon="0.19455">
        <ele>141.048797</ele>
        <time>2021-09-06T14:16:40.000Z</time>
      </trkpt>
      <trkpt lat="48.4833" lon="0.19463">
        <ele>141.053326</ele>
        <time>2021-09-06T14:16:41.000Z</time>
      </trkpt>
      <trkpt lat="48.48337" lon="0.19485">
        <ele>141.067678</ele>
        <time>2021-09-06T14:16:44.000Z</time>
      </trkpt>
      <trkpt lat="48.4835" lon="0.19528">
        <ele>141.094512</ele>
        <time>2021-09-06T14:16:49.000Z</time>
      </trkpt>
      <trkpt lat="48.48363" lon="0.19571">
        <ele>141.122295</ele>
        <time>2021-09-06T14:16:54.000Z</time>
      </trkpt>
      <trkpt lat="48.48368" lon="0.19587">
        <ele>141.132875</ele>
        <time>2021-09-06T14:16:56.000Z</time>
      </trkpt>
      <trkpt lat="48.48373" lon="0.19603">
        <ele>141.132918</ele>
        <time>2021-09-06T14:16:58.000Z</time>
      </trkpt>
      <trkpt lat="48.48382" lon="0.19636">
        <ele>141.095429</ele>
        <time>2021-09-06T14:17:03.000Z</time>
      </trkpt>
      <trkpt lat="48.48388" lon="0.19666">
        <ele>141.062778</ele>
        <time>2021-09-06T14:17:07.000Z</time>
      </trkpt>
      <trkpt lat="48.484" lon="0.19702">
        <ele>141.021903</ele>
        <time>2021-09-06T14:17:11.000Z</time>
      </trkpt>
      <trkpt lat="48.48403" lon="0.19711">
        <ele>141.010717</ele>
        <time>2021-09-06T14:17:12.000Z</time>
      </trkpt>
      <trkpt lat="48.48408" lon="0.19727">
        <ele>140.992791</ele>
        <time>2021-09-06T14:17:14.000Z</time>
      </trkpt>
      <trkpt lat="48.48413" lon="0.19741">
        <ele>140.976557</ele>
        <time>2021-09-06T14:17:16.000Z</time>
      </trkpt>
      <trkpt lat="48.48418" lon="0.19757">
        <ele>140.958074</ele>
        <time>2021-09-06T14:17:18.000Z</time>
      </trkpt>
      <trkpt lat="48.48424" lon="0.19784">
        <ele>140.928859</ele>
        <time>2021-09-06T14:17:21.000Z</time>
      </trkpt>
      <trkpt lat="48.48426" lon="0.19792">
        <ele>140.920014</ele>
        <time>2021-09-06T14:17:22.000Z</time>
      </trkpt>
      <trkpt lat="48.48433" lon="0.19818">
        <ele>140.890461</ele>
        <time>2021-09-06T14:17:25.000Z</time>
      </trkpt>
      <trkpt lat="48.48448" lon="0.19868">
        <ele>140.863508</ele>
        <time>2021-09-06T14:17:31.000Z</time>
      </trkpt>
      <trkpt lat="48.4845" lon="0.19875">
        <ele>140.865105</ele>
        <time>2021-09-06T14:17:32.000Z</time>
      </trkpt>
      <trkpt lat="48.48458" lon="0.19901">
        <ele>140.871332</ele>
        <time>2021-09-06T14:17:36.000Z</time>
      </trkpt>
      <trkpt lat="48.48469" lon="0.19937">
        <ele>140.880094</ele>
        <time>2021-09-06T14:17:41.000Z</time>
      </trkpt>
      <trkpt lat="48.48474" lon="0.19956">
        <ele>140.884773</ele>
        <time>2021-09-06T14:17:44.000Z</time>
      </trkpt>
      <trkpt lat="48.48476" lon="0.19964">
        <ele>140.886495</ele>
        <time>2021-09-06T14:17:45.000Z</time>
      </trkpt>
      <trkpt lat="48.4848" lon="0.19985">
        <ele>140.891229</ele>
        <time>2021-09-06T14:17:48.000Z</time>
      </trkpt>
      <trkpt lat="48.4848" lon="0.19991">
        <ele>140.892549</ele>
        <time>2021-09-06T14:17:49.000Z</time>
      </trkpt>
      <trkpt lat="48.48487" lon="0.20018">
        <ele>140.898955</ele>
        <time>2021-09-06T14:17:53.000Z</time>
      </trkpt>
      <trkpt lat="48.48505" lon="0.20076">
        <ele>140.913121</ele>
        <time>2021-09-06T14:18:01.000Z</time>
      </trkpt>
      <trkpt lat="48.48515" lon="0.20106">
        <ele>140.990321</ele>
        <time>2021-09-06T14:18:05.000Z</time>
      </trkpt>
      <trkpt lat="48.48518" lon="0.20113">
        <ele>141.0409</ele>
        <time>2021-09-06T14:18:06.000Z</time>
      </trkpt>
      <trkpt lat="48.4853" lon="0.20157">
        <ele>141.33746</ele>
        <time>2021-09-06T14:18:12.000Z</time>
      </trkpt>
      <trkpt lat="48.48532" lon="0.20163">
        <ele>141.382398</ele>
        <time>2021-09-06T14:18:13.000Z</time>
      </trkpt>
      <trkpt lat="48.48542" lon="0.20203">
        <ele>141.650042</ele>
        <time>2021-09-06T14:18:19.000Z</time>
      </trkpt>
      <trkpt lat="48.48551" lon="0.20235">
        <ele>141.864546</ele>
        <time>2021-09-06T14:18:24.000Z</time>
      </trkpt>
      <trkpt lat="48.4856" lon="0.20267">
        <ele>142.079139</ele>
        <time>2021-09-06T14:18:29.000Z</time>
      </trkpt>
      <trkpt lat="48.48571" lon="0.20304">
        <ele>142.332989</ele>
        <time>2021-09-06T14:18:35.000Z</time>
      </trkpt>
      <trkpt lat="48.48577" lon="0.20323">
        <ele>142.465134</ele>
        <time>2021-09-06T14:18:38.000Z</time>
      </trkpt>
      <trkpt lat="48.4858" lon="0.20336">
        <ele>142.552762</ele>
        <time>2021-09-06T14:18:40.000Z</time>
      </trkpt>
      <trkpt lat="48.4859" lon="0.20369">
        <ele>142.806835</ele>
        <time>2021-09-06T14:18:45.000Z</time>
      </trkpt>
      <trkpt lat="48.48601" lon="0.20409">
        <ele>143.129292</ele>
        <time>2021-09-06T14:18:51.000Z</time>
      </trkpt>
      <trkpt lat="48.48613" lon="0.20442">
        <ele>143.39965</ele>
        <time>2021-09-06T14:18:56.000Z</time>
      </trkpt>
      <trkpt lat="48.48617" lon="0.20455">
        <ele>143.504431</ele>
        <time>2021-09-06T14:18:58.000Z</time>
      </trkpt>
      <trkpt lat="48.4862" lon="0.20461">
        <ele>143.558752</ele>
        <time>2021-09-06T14:18:59.000Z</time>
      </trkpt>
      <trkpt lat="48.48622" lon="0.20468">
        <ele>143.613037</ele>
        <time>2021-09-06T14:19:00.000Z</time>
      </trkpt>
      <trkpt lat="48.48629" lon="0.20494">
        <ele>143.823121</ele>
        <time>2021-09-06T14:19:04.000Z</time>
      </trkpt>
      <trkpt lat="48.48632" lon="0.20509">
        <ele>143.938148</ele>
        <time>2021-09-06T14:19:06.000Z</time>
      </trkpt>
      <trkpt lat="48.48636" lon="0.20531">
        <ele>144.103543</ele>
        <time>2021-09-06T14:19:09.000Z</time>
      </trkpt>
      <trkpt lat="48.48642" lon="0.20552">
        <ele>144.269528</ele>
        <time>2021-09-06T14:19:12.000Z</time>
      </trkpt>
      <trkpt lat="48.48648" lon="0.20573">
        <ele>144.436947</ele>
        <time>2021-09-06T14:19:15.000Z</time>
      </trkpt>
      <trkpt lat="48.48659" lon="0.20615">
        <ele>144.619113</ele>
        <time>2021-09-06T14:19:21.000Z</time>
      </trkpt>
      <trkpt lat="48.4866" lon="0.20622">
        <ele>144.625631</ele>
        <time>2021-09-06T14:19:22.000Z</time>
      </trkpt>
      <trkpt lat="48.48663" lon="0.20629">
        <ele>144.632385</ele>
        <time>2021-09-06T14:19:23.000Z</time>
      </trkpt>
      <trkpt lat="48.48671" lon="0.20655">
        <ele>144.657205</ele>
        <time>2021-09-06T14:19:27.000Z</time>
      </trkpt>
      <trkpt lat="48.48672" lon="0.20661">
        <ele>144.663355</ele>
        <time>2021-09-06T14:19:28.000Z</time>
      </trkpt>
      <trkpt lat="48.48674" lon="0.20668">
        <ele>144.66958</ele>
        <time>2021-09-06T14:19:29.000Z</time>
      </trkpt>
      <trkpt lat="48.48682" lon="0.20693">
        <ele>144.69384</ele>
        <time>2021-09-06T14:19:33.000Z</time>
      </trkpt>
      <trkpt lat="48.48688" lon="0.20713">
        <ele>144.712247</ele>
        <time>2021-09-06T14:19:36.000Z</time>
      </trkpt>
      <trkpt lat="48.48691" lon="0.20725">
        <ele>144.724084</ele>
        <time>2021-09-06T14:19:38.000Z</time>
      </trkpt>
      <trkpt lat="48.48704" lon="0.20771">
        <ele>144.767781</ele>
        <time>2021-09-06T14:19:45.000Z</time>
      </trkpt>
      <trkpt lat="48.48717" lon="0.20818">
        <ele>144.811867</ele>
        <time>2021-09-06T14:19:52.000Z</time>
      </trkpt>
      <trkpt lat="48.48723" lon="0.20838">
        <ele>144.830458</ele>
        <time>2021-09-06T14:19:55.000Z</time>
      </trkpt>
      <trkpt lat="48.48726" lon="0.2085">
        <ele>144.821586</ele>
        <time>2021-09-06T14:19:57.000Z</time>
      </trkpt>
      <trkpt lat="48.48728" lon="0.20857">
        <ele>144.809671</ele>
        <time>2021-09-06T14:19:58.000Z</time>
      </trkpt>
      <trkpt lat="48.48735" lon="0.20883">
        <ele>144.763985</ele>
        <time>2021-09-06T14:20:02.000Z</time>
      </trkpt>
      <trkpt lat="48.48738" lon="0.20896">
        <ele>144.742243</ele>
        <time>2021-09-06T14:20:04.000Z</time>
      </trkpt>
      <trkpt lat="48.4874" lon="0.20902">
        <ele>144.730695</ele>
        <time>2021-09-06T14:20:05.000Z</time>
      </trkpt>
      <trkpt lat="48.48745" lon="0.20921">
        <ele>144.697655</ele>
        <time>2021-09-06T14:20:08.000Z</time>
      </trkpt>
      <trkpt lat="48.48746" lon="0.20927">
        <ele>144.686595</ele>
        <time>2021-09-06T14:20:09.000Z</time>
      </trkpt>
      <trkpt lat="48.48751" lon="0.20939">
        <ele>144.663826</ele>
        <time>2021-09-06T14:20:11.000Z</time>
      </trkpt>
      <trkpt lat="48.48759" lon="0.20965">
        <ele>144.617636</ele>
        <time>2021-09-06T14:20:15.000Z</time>
      </trkpt>
      <trkpt lat="48.48768" lon="0.20997">
        <ele>144.560045</ele>
        <time>2021-09-06T14:20:20.000Z</time>
      </trkpt>
      <trkpt lat="48.48772" lon="0.21016">
        <ele>144.526098</ele>
        <time>2021-09-06T14:20:23.000Z</time>
      </trkpt>
      <trkpt lat="48.48774" lon="0.21023">
        <ele>144.514499</ele>
        <time>2021-09-06T14:20:24.000Z</time>
      </trkpt>
      <trkpt lat="48.48779" lon="0.21035">
        <ele>144.492686</ele>
        <time>2021-09-06T14:20:26.000Z</time>
      </trkpt>
      <trkpt lat="48.48781" lon="0.21041">
        <ele>144.481488</ele>
        <time>2021-09-06T14:20:27.000Z</time>
      </trkpt>
      <trkpt lat="48.48782" lon="0.21047">
        <ele>144.470841</ele>
        <time>2021-09-06T14:20:28.000Z</time>
      </trkpt>
      <trkpt lat="48.48788" lon="0.21071">
        <ele>144.428262</ele>
        <time>2021-09-06T14:20:32.000Z</time>
      </trkpt>
      <trkpt lat="48.48794" lon="0.21103">
        <ele>144.454372</ele>
        <time>2021-09-06T14:20:37.000Z</time>
      </trkpt>
      <trkpt lat="48.48797" lon="0.21115">
        <ele>144.541555</ele>
        <time>2021-09-06T14:20:39.000Z</time>
      </trkpt>
      <trkpt lat="48.48799" lon="0.21121">
        <ele>144.587963</ele>
        <time>2021-09-06T14:20:40.000Z</time>
      </trkpt>
      <trkpt lat="48.48801" lon="0.21128">
        <ele>144.63264</ele>
        <time>2021-09-06T14:20:41.000Z</time>
      </trkpt>
      <trkpt lat="48.48805" lon="0.2114">
        <ele>144.721307</ele>
        <time>2021-09-06T14:20:43.000Z</time>
      </trkpt>
      <trkpt lat="48.4881" lon="0.21157">
        <ele>144.84777</ele>
        <time>2021-09-06T14:20:46.000Z</time>
      </trkpt>
      <trkpt lat="48.48813" lon="0.21169">
        <ele>144.930437</ele>
        <time>2021-09-06T14:20:48.000Z</time>
      </trkpt>
      <trkpt lat="48.48819" lon="0.21195">
        <ele>145.112953</ele>
        <time>2021-09-06T14:20:53.000Z</time>
      </trkpt>
      <trkpt lat="48.48825" lon="0.21223">
        <ele>145.312539</ele>
        <time>2021-09-06T14:20:58.000Z</time>
      </trkpt>
      <trkpt lat="48.48835" lon="0.21257">
        <ele>145.554885</ele>
        <time>2021-09-06T14:21:03.000Z</time>
      </trkpt>
      <trkpt lat="48.48836" lon="0.21264">
        <ele>145.601236</ele>
        <time>2021-09-06T14:21:04.000Z</time>
      </trkpt>
      <trkpt lat="48.48838" lon="0.21277">
        <ele>145.690902</ele>
        <time>2021-09-06T14:21:06.000Z</time>
      </trkpt>
      <trkpt lat="48.4884" lon="0.21284">
        <ele>145.739981</ele>
        <time>2021-09-06T14:21:07.000Z</time>
      </trkpt>
      <trkpt lat="48.48847" lon="0.21304">
        <ele>145.896684</ele>
        <time>2021-09-06T14:21:10.000Z</time>
      </trkpt>
      <trkpt lat="48.48858" lon="0.21341">
        <ele>146.161413</ele>
        <time>2021-09-06T14:21:15.000Z</time>
      </trkpt>
      <trkpt lat="48.48864" lon="0.21362">
        <ele>146.371635</ele>
        <time>2021-09-06T14:21:18.000Z</time>
      </trkpt>
      <trkpt lat="48.48869" lon="0.21376">
        <ele>146.533053</ele>
        <time>2021-09-06T14:21:20.000Z</time>
      </trkpt>
      <trkpt lat="48.48874" lon="0.21396">
        <ele>146.750767</ele>
        <time>2021-09-06T14:21:23.000Z</time>
      </trkpt>
      <trkpt lat="48.48876" lon="0.21403">
        <ele>146.823446</ele>
        <time>2021-09-06T14:21:24.000Z</time>
      </trkpt>
      <trkpt lat="48.48884" lon="0.21428">
        <ele>147.104856</ele>
        <time>2021-09-06T14:21:28.000Z</time>
      </trkpt>
      <trkpt lat="48.48902" lon="0.21475">
        <ele>147.641348</ele>
        <time>2021-09-06T14:21:34.000Z</time>
      </trkpt>
      <trkpt lat="48.48916" lon="0.21525">
        <ele>148.186333</ele>
        <time>2021-09-06T14:21:40.000Z</time>
      </trkpt>
      <trkpt lat="48.48918" lon="0.21534">
        <ele>148.282401</ele>
        <time>2021-09-06T14:21:41.000Z</time>
      </trkpt>
      <trkpt lat="48.48926" lon="0.2156">
        <ele>148.565359</ele>
        <time>2021-09-06T14:21:44.000Z</time>
      </trkpt>
      <trkpt lat="48.48928" lon="0.21567">
        <ele>148.652265</ele>
        <time>2021-09-06T14:21:45.000Z</time>
      </trkpt>
      <trkpt lat="48.48939" lon="0.2161">
        <ele>148.988019</ele>
        <time>2021-09-06T14:21:50.000Z</time>
      </trkpt>
      <trkpt lat="48.48951" lon="0.21647">
        <ele>149.160288</ele>
        <time>2021-09-06T14:21:54.000Z</time>
      </trkpt>
      <trkpt lat="48.48954" lon="0.21655">
        <ele>149.200257</ele>
        <time>2021-09-06T14:21:55.000Z</time>
      </trkpt>
      <trkpt lat="48.48967" lon="0.21694">
        <ele>149.379364</ele>
        <time>2021-09-06T14:22:00.000Z</time>
      </trkpt>
      <trkpt lat="48.48972" lon="0.21706">
        <ele>149.440355</ele>
        <time>2021-09-06T14:22:02.000Z</time>
      </trkpt>
      <trkpt lat="48.48976" lon="0.21719">
        <ele>149.498313</ele>
        <time>2021-09-06T14:22:04.000Z</time>
      </trkpt>
      <trkpt lat="48.4898" lon="0.21739">
        <ele>149.587826</ele>
        <time>2021-09-06T14:22:07.000Z</time>
      </trkpt>
      <trkpt lat="48.48982" lon="0.21748">
        <ele>149.625431</ele>
        <time>2021-09-06T14:22:08.000Z</time>
      </trkpt>
      <trkpt lat="48.48988" lon="0.21771">
        <ele>149.733498</ele>
        <time>2021-09-06T14:22:11.000Z</time>
      </trkpt>
      <trkpt lat="48.48993" lon="0.21789">
        <ele>149.811428</ele>
        <time>2021-09-06T14:22:13.000Z</time>
      </trkpt>
      <trkpt lat="48.48996" lon="0.21797">
        <ele>149.851288</ele>
        <time>2021-09-06T14:22:14.000Z</time>
      </trkpt>
      <trkpt lat="48.49001" lon="0.21814">
        <ele>149.926903</ele>
        <time>2021-09-06T14:22:16.000Z</time>
      </trkpt>
      <trkpt lat="48.49003" lon="0.21823">
        <ele>149.967871</ele>
        <time>2021-09-06T14:22:17.000Z</time>
      </trkpt>
      <trkpt lat="48.49018" lon="0.21881">
        <ele>150.115131</ele>
        <time>2021-09-06T14:22:23.000Z</time>
      </trkpt>
      <trkpt lat="48.49021" lon="0.21892">
        <ele>150.134785</ele>
        <time>2021-09-06T14:22:24.000Z</time>
      </trkpt>
      <trkpt lat="48.49025" lon="0.21909">
        <ele>150.165538</ele>
        <time>2021-09-06T14:22:26.000Z</time>
      </trkpt>
      <trkpt lat="48.49027" lon="0.21919">
        <ele>150.183101</ele>
        <time>2021-09-06T14:22:27.000Z</time>
      </trkpt>
      <trkpt lat="48.49042" lon="0.21974">
        <ele>150.281865</ele>
        <time>2021-09-06T14:22:32.000Z</time>
      </trkpt>
      <trkpt lat="48.4906" lon="0.2203">
        <ele>150.385005</ele>
        <time>2021-09-06T14:22:37.000Z</time>
      </trkpt>
      <trkpt lat="48.49076" lon="0.22085">
        <ele>150.486231</ele>
        <time>2021-09-06T14:22:42.000Z</time>
      </trkpt>
      <trkpt lat="48.49084" lon="0.22115">
        <ele>150.441227</ele>
        <time>2021-09-06T14:22:45.000Z</time>
      </trkpt>
      <trkpt lat="48.49087" lon="0.22125">
        <ele>150.422248</ele>
        <time>2021-09-06T14:22:46.000Z</time>
      </trkpt>
      <trkpt lat="48.49096" lon="0.22163">
        <ele>150.350866</ele>
        <time>2021-09-06T14:22:50.000Z</time>
      </trkpt>
      <trkpt lat="48.49098" lon="0.22172">
        <ele>150.333896</ele>
        <time>2021-09-06T14:22:51.000Z</time>
      </trkpt>
      <trkpt lat="48.49111" lon="0.2221">
        <ele>150.256882</ele>
        <time>2021-09-06T14:22:55.000Z</time>
      </trkpt>
      <trkpt lat="48.49115" lon="0.22218">
        <ele>150.240284</ele>
        <time>2021-09-06T14:22:56.000Z</time>
      </trkpt>
      <trkpt lat="48.4912" lon="0.22234">
        <ele>150.207293</ele>
        <time>2021-09-06T14:22:58.000Z</time>
      </trkpt>
      <trkpt lat="48.49123" lon="0.22243">
        <ele>150.191209</ele>
        <time>2021-09-06T14:22:59.000Z</time>
      </trkpt>
      <trkpt lat="48.49137" lon="0.22296">
        <ele>150.08906</ele>
        <time>2021-09-06T14:23:05.000Z</time>
      </trkpt>
      <trkpt lat="48.49149" lon="0.22345">
        <ele>149.95241</ele>
        <time>2021-09-06T14:23:10.000Z</time>
      </trkpt>
      <trkpt lat="48.49164" lon="0.22397">
        <ele>149.561868</ele>
        <time>2021-09-06T14:23:15.000Z</time>
      </trkpt>
      <trkpt lat="48.49166" lon="0.22407">
        <ele>149.488265</ele>
        <time>2021-09-06T14:23:16.000Z</time>
      </trkpt>
      <trkpt lat="48.49174" lon="0.22439">
        <ele>149.256598</ele>
        <time>2021-09-06T14:23:19.000Z</time>
      </trkpt>
      <trkpt lat="48.49181" lon="0.2246">
        <ele>149.091577</ele>
        <time>2021-09-06T14:23:21.000Z</time>
      </trkpt>
      <trkpt lat="48.49198" lon="0.22513">
        <ele>148.685563</ele>
        <time>2021-09-06T14:23:26.000Z</time>
      </trkpt>
      <trkpt lat="48.49214" lon="0.22566">
        <ele>148.279857</ele>
        <time>2021-09-06T14:23:31.000Z</time>
      </trkpt>
      <trkpt lat="48.49217" lon="0.22577">
        <ele>148.197749</ele>
        <time>2021-09-06T14:23:32.000Z</time>
      </trkpt>
      <trkpt lat="48.49235" lon="0.22637">
        <ele>147.619892</ele>
        <time>2021-09-06T14:23:38.000Z</time>
      </trkpt>
      <trkpt lat="48.49247" lon="0.22676">
        <ele>147.219956</ele>
        <time>2021-09-06T14:23:42.000Z</time>
      </trkpt>
      <trkpt lat="48.49259" lon="0.22714">
        <ele>146.83422</ele>
        <time>2021-09-06T14:23:46.000Z</time>
      </trkpt>
      <trkpt lat="48.49262" lon="0.22723">
        <ele>146.742839</ele>
        <time>2021-09-06T14:23:47.000Z</time>
      </trkpt>
      <trkpt lat="48.49278" lon="0.22777">
        <ele>146.19599</ele>
        <time>2021-09-06T14:23:53.000Z</time>
      </trkpt>
      <trkpt lat="48.49287" lon="0.22812">
        <ele>145.854463</ele>
        <time>2021-09-06T14:23:57.000Z</time>
      </trkpt>
      <trkpt lat="48.49296" lon="0.22846">
        <ele>145.514592</ele>
        <time>2021-09-06T14:24:01.000Z</time>
      </trkpt>
      <trkpt lat="48.49299" lon="0.22855">
        <ele>145.413695</ele>
        <time>2021-09-06T14:24:02.000Z</time>
      </trkpt>
      <trkpt lat="48.49315" lon="0.22902">
        <ele>144.893607</ele>
        <time>2021-09-06T14:24:07.000Z</time>
      </trkpt>
      <trkpt lat="48.4933" lon="0.22954">
        <ele>144.331883</ele>
        <time>2021-09-06T14:24:13.000Z</time>
      </trkpt>
      <trkpt lat="48.49341" lon="0.2299">
        <ele>143.942165</ele>
        <time>2021-09-06T14:24:17.000Z</time>
      </trkpt>
      <trkpt lat="48.49343" lon="0.23">
        <ele>143.845088</ele>
        <time>2021-09-06T14:24:18.000Z</time>
      </trkpt>
      <trkpt lat="48.49348" lon="0.23018">
        <ele>143.65231</ele>
        <time>2021-09-06T14:24:20.000Z</time>
      </trkpt>
      <trkpt lat="48.49353" lon="0.23034">
        <ele>143.472694</ele>
        <time>2021-09-06T14:24:22.000Z</time>
      </trkpt>
      <trkpt lat="48.49366" lon="0.23086">
        <ele>142.919429</ele>
        <time>2021-09-06T14:24:28.000Z</time>
      </trkpt>
      <trkpt lat="48.49368" lon="0.23095">
        <ele>142.808285</ele>
        <time>2021-09-06T14:24:29.000Z</time>
      </trkpt>
      <trkpt lat="48.49377" lon="0.23123">
        <ele>142.437705</ele>
        <time>2021-09-06T14:24:32.000Z</time>
      </trkpt>
      <trkpt lat="48.49384" lon="0.2315">
        <ele>142.077382</ele>
        <time>2021-09-06T14:24:35.000Z</time>
      </trkpt>
      <trkpt lat="48.49392" lon="0.23177">
        <ele>141.722992</ele>
        <time>2021-09-06T14:24:38.000Z</time>
      </trkpt>
      <trkpt lat="48.49404" lon="0.23214">
        <ele>141.227557</ele>
        <time>2021-09-06T14:24:42.000Z</time>
      </trkpt>
      <trkpt lat="48.49409" lon="0.23232">
        <ele>140.985986</ele>
        <time>2021-09-06T14:24:44.000Z</time>
      </trkpt>
      <trkpt lat="48.49421" lon="0.23278">
        <ele>140.393812</ele>
        <time>2021-09-06T14:24:49.000Z</time>
      </trkpt>
      <trkpt lat="48.49424" lon="0.23287">
        <ele>140.268323</ele>
        <time>2021-09-06T14:24:50.000Z</time>
      </trkpt>
      <trkpt lat="48.49437" lon="0.23332">
        <ele>139.682408</ele>
        <time>2021-09-06T14:24:55.000Z</time>
      </trkpt>
      <trkpt lat="48.49438" lon="0.2334">
        <ele>139.594735</ele>
        <time>2021-09-06T14:24:56.000Z</time>
      </trkpt>
      <trkpt lat="48.49441" lon="0.23356">
        <ele>139.420681</ele>
        <time>2021-09-06T14:24:58.000Z</time>
      </trkpt>
      <trkpt lat="48.49447" lon="0.2338">
        <ele>139.148424</ele>
        <time>2021-09-06T14:25:01.000Z</time>
      </trkpt>
      <trkpt lat="48.49449" lon="0.23388">
        <ele>139.054175</ele>
        <time>2021-09-06T14:25:02.000Z</time>
      </trkpt>
      <trkpt lat="48.49461" lon="0.23432">
        <ele>138.539101</ele>
        <time>2021-09-06T14:25:07.000Z</time>
      </trkpt>
      <trkpt lat="48.49463" lon="0.2344">
        <ele>138.445244</ele>
        <time>2021-09-06T14:25:08.000Z</time>
      </trkpt>
      <trkpt lat="48.49472" lon="0.23467">
        <ele>138.127222</ele>
        <time>2021-09-06T14:25:11.000Z</time>
      </trkpt>
      <trkpt lat="48.49487" lon="0.2352">
        <ele>137.504486</ele>
        <time>2021-09-06T14:25:17.000Z</time>
      </trkpt>
      <trkpt lat="48.49492" lon="0.23536">
        <ele>137.318387</ele>
        <time>2021-09-06T14:25:19.000Z</time>
      </trkpt>
      <trkpt lat="48.49497" lon="0.23552">
        <ele>137.130392</ele>
        <time>2021-09-06T14:25:21.000Z</time>
      </trkpt>
      <trkpt lat="48.49509" lon="0.23594">
        <ele>136.798679</ele>
        <time>2021-09-06T14:25:26.000Z</time>
      </trkpt>
      <trkpt lat="48.49511" lon="0.23602">
        <ele>136.803789</ele>
        <time>2021-09-06T14:25:27.000Z</time>
      </trkpt>
      <trkpt lat="48.49513" lon="0.2361">
        <ele>136.808931</ele>
        <time>2021-09-06T14:25:28.000Z</time>
      </trkpt>
      <trkpt lat="48.49518" lon="0.23623">
        <ele>136.817965</ele>
        <time>2021-09-06T14:25:30.000Z</time>
      </trkpt>
      <trkpt lat="48.49521" lon="0.23631">
        <ele>136.823144</ele>
        <time>2021-09-06T14:25:31.000Z</time>
      </trkpt>
      <trkpt lat="48.49524" lon="0.2364">
        <ele>136.828467</ele>
        <time>2021-09-06T14:25:32.000Z</time>
      </trkpt>
      <trkpt lat="48.49532" lon="0.23667">
        <ele>136.84568</ele>
        <time>2021-09-06T14:25:35.000Z</time>
      </trkpt>
      <trkpt lat="48.49535" lon="0.23675">
        <ele>136.851547</ele>
        <time>2021-09-06T14:25:36.000Z</time>
      </trkpt>
      <trkpt lat="48.49542" lon="0.23693">
        <ele>136.863201</ele>
        <time>2021-09-06T14:25:38.000Z</time>
      </trkpt>
      <trkpt lat="48.49549" lon="0.23719">
        <ele>136.880006</ele>
        <time>2021-09-06T14:25:41.000Z</time>
      </trkpt>
      <trkpt lat="48.49554" lon="0.23736">
        <ele>136.89089</ele>
        <time>2021-09-06T14:25:43.000Z</time>
      </trkpt>
      <trkpt lat="48.49567" lon="0.23785">
        <ele>136.921605</ele>
        <time>2021-09-06T14:25:49.000Z</time>
      </trkpt>
      <trkpt lat="48.49569" lon="0.23793">
        <ele>136.926185</ele>
        <time>2021-09-06T14:25:50.000Z</time>
      </trkpt>
      <trkpt lat="48.49571" lon="0.238">
        <ele>136.930546</ele>
        <time>2021-09-06T14:25:51.000Z</time>
      </trkpt>
      <trkpt lat="48.49576" lon="0.23813">
        <ele>136.93958</ele>
        <time>2021-09-06T14:25:53.000Z</time>
      </trkpt>
      <trkpt lat="48.49584" lon="0.23844">
        <ele>137.05705</ele>
        <time>2021-09-06T14:25:57.000Z</time>
      </trkpt>
      <trkpt lat="48.49586" lon="0.23852">
        <ele>137.113194</ele>
        <time>2021-09-06T14:25:58.000Z</time>
      </trkpt>
      <trkpt lat="48.49588" lon="0.2386">
        <ele>137.166653</ele>
        <time>2021-09-06T14:25:59.000Z</time>
      </trkpt>
      <trkpt lat="48.49593" lon="0.23876">
        <ele>137.279921</ele>
        <time>2021-09-06T14:26:01.000Z</time>
      </trkpt>
      <trkpt lat="48.49595" lon="0.23885">
        <ele>137.338585</ele>
        <time>2021-09-06T14:26:02.000Z</time>
      </trkpt>
      <trkpt lat="48.49597" lon="0.23893">
        <ele>137.397267</ele>
        <time>2021-09-06T14:26:03.000Z</time>
      </trkpt>
      <trkpt lat="48.49605" lon="0.23921">
        <ele>137.584851</ele>
        <time>2021-09-06T14:26:06.000Z</time>
      </trkpt>
      <trkpt lat="48.4961" lon="0.23937">
        <ele>137.697137</ele>
        <time>2021-09-06T14:26:08.000Z</time>
      </trkpt>
      <trkpt lat="48.49613" lon="0.23953">
        <ele>137.806454</ele>
        <time>2021-09-06T14:26:10.000Z</time>
      </trkpt>
      <trkpt lat="48.49616" lon="0.23962">
        <ele>137.863607</ele>
        <time>2021-09-06T14:26:11.000Z</time>
      </trkpt>
      <trkpt lat="48.49622" lon="0.23987">
        <ele>138.034714</ele>
        <time>2021-09-06T14:26:14.000Z</time>
      </trkpt>
      <trkpt lat="48.49627" lon="0.24004">
        <ele>138.151135</ele>
        <time>2021-09-06T14:26:16.000Z</time>
      </trkpt>
      <trkpt lat="48.49632" lon="0.24022">
        <ele>138.275768</ele>
        <time>2021-09-06T14:26:18.000Z</time>
      </trkpt>
      <trkpt lat="48.49642" lon="0.24058">
        <ele>138.520497</ele>
        <time>2021-09-06T14:26:22.000Z</time>
      </trkpt>
      <trkpt lat="48.49644" lon="0.24067">
        <ele>138.583059</ele>
        <time>2021-09-06T14:26:23.000Z</time>
      </trkpt>
      <trkpt lat="48.49655" lon="0.2411">
        <ele>138.923549</ele>
        <time>2021-09-06T14:26:28.000Z</time>
      </trkpt>
      <trkpt lat="48.49657" lon="0.24125">
        <ele>139.041538</ele>
        <time>2021-09-06T14:26:30.000Z</time>
      </trkpt>
      <trkpt lat="48.4967" lon="0.24169">
        <ele>139.412303</ele>
        <time>2021-09-06T14:26:35.000Z</time>
      </trkpt>
      <trkpt lat="48.49681" lon="0.24213">
        <ele>139.776583</ele>
        <time>2021-09-06T14:26:40.000Z</time>
      </trkpt>
      <trkpt lat="48.49682" lon="0.2422">
        <ele>139.836454</ele>
        <time>2021-09-06T14:26:41.000Z</time>
      </trkpt>
      <trkpt lat="48.49684" lon="0.24228">
        <ele>139.90062</ele>
        <time>2021-09-06T14:26:42.000Z</time>
      </trkpt>
      <trkpt lat="48.49688" lon="0.24252">
        <ele>140.096284</ele>
        <time>2021-09-06T14:26:45.000Z</time>
      </trkpt>
      <trkpt lat="48.4969" lon="0.24261">
        <ele>140.164009</ele>
        <time>2021-09-06T14:26:46.000Z</time>
      </trkpt>
      <trkpt lat="48.49692" lon="0.24269">
        <ele>140.23146</ele>
        <time>2021-09-06T14:26:47.000Z</time>
      </trkpt>
      <trkpt lat="48.49696" lon="0.24283">
        <ele>140.353945</ele>
        <time>2021-09-06T14:26:49.000Z</time>
      </trkpt>
      <trkpt lat="48.49698" lon="0.2429">
        <ele>140.407861</ele>
        <time>2021-09-06T14:26:50.000Z</time>
      </trkpt>
      <trkpt lat="48.49702" lon="0.24313">
        <ele>140.596174</ele>
        <time>2021-09-06T14:26:54.000Z</time>
      </trkpt>
      <trkpt lat="48.4971" lon="0.24346">
        <ele>140.679931</ele>
        <time>2021-09-06T14:26:59.000Z</time>
      </trkpt>
      <trkpt lat="48.49722" lon="0.24407">
        <ele>140.19105</ele>
        <time>2021-09-06T14:27:07.000Z</time>
      </trkpt>
      <trkpt lat="48.49736" lon="0.24481">
        <ele>139.613409</ele>
        <time>2021-09-06T14:27:16.000Z</time>
      </trkpt>
      <trkpt lat="48.49746" lon="0.24539">
        <ele>139.156321</ele>
        <time>2021-09-06T14:27:23.000Z</time>
      </trkpt>
      <trkpt lat="48.49755" lon="0.24589">
        <ele>138.762334</ele>
        <time>2021-09-06T14:27:29.000Z</time>
      </trkpt>
      <trkpt lat="48.49756" lon="0.24597">
        <ele>138.698332</ele>
        <time>2021-09-06T14:27:30.000Z</time>
      </trkpt>
      <trkpt lat="48.49763" lon="0.24631">
        <ele>138.40734</ele>
        <time>2021-09-06T14:27:34.000Z</time>
      </trkpt>
      <trkpt lat="48.49765" lon="0.24639">
        <ele>138.33419</ele>
        <time>2021-09-06T14:27:35.000Z</time>
      </trkpt>
      <trkpt lat="48.49767" lon="0.24656">
        <ele>138.195097</ele>
        <time>2021-09-06T14:27:37.000Z</time>
      </trkpt>
      <trkpt lat="48.4977" lon="0.24672">
        <ele>138.056608</ele>
        <time>2021-09-06T14:27:39.000Z</time>
      </trkpt>
      <trkpt lat="48.49775" lon="0.24704">
        <ele>137.779839</ele>
        <time>2021-09-06T14:27:43.000Z</time>
      </trkpt>
      <trkpt lat="48.49778" lon="0.24713">
        <ele>137.701801</ele>
        <time>2021-09-06T14:27:44.000Z</time>
      </trkpt>
      <trkpt lat="48.49784" lon="0.2475">
        <ele>137.390401</ele>
        <time>2021-09-06T14:27:48.000Z</time>
      </trkpt>
      <trkpt lat="48.49784" lon="0.24757">
        <ele>137.333351</ele>
        <time>2021-09-06T14:27:49.000Z</time>
      </trkpt>
      <trkpt lat="48.49789" lon="0.2479">
        <ele>137.0497</ele>
        <time>2021-09-06T14:27:53.000Z</time>
      </trkpt>
      <trkpt lat="48.49793" lon="0.24807">
        <ele>136.902582</ele>
        <time>2021-09-06T14:27:55.000Z</time>
      </trkpt>
      <trkpt lat="48.49795" lon="0.24824">
        <ele>136.756856</ele>
        <time>2021-09-06T14:27:57.000Z</time>
      </trkpt>
      <trkpt lat="48.49799" lon="0.2485">
        <ele>136.540682</ele>
        <time>2021-09-06T14:28:00.000Z</time>
      </trkpt>
      <trkpt lat="48.498" lon="0.24858">
        <ele>136.471811</ele>
        <time>2021-09-06T14:28:01.000Z</time>
      </trkpt>
      <trkpt lat="48.49807" lon="0.24899">
        <ele>136.191474</ele>
        <time>2021-09-06T14:28:05.000Z</time>
      </trkpt>
      <trkpt lat="48.49813" lon="0.24928">
        <ele>135.986772</ele>
        <time>2021-09-06T14:28:08.000Z</time>
      </trkpt>
      <trkpt lat="48.49816" lon="0.24948">
        <ele>135.853585</ele>
        <time>2021-09-06T14:28:10.000Z</time>
      </trkpt>
      <trkpt lat="48.49824" lon="0.24996">
        <ele>135.521982</ele>
        <time>2021-09-06T14:28:15.000Z</time>
      </trkpt>
      <trkpt lat="48.49828" lon="0.25024">
        <ele>135.334929</ele>
        <time>2021-09-06T14:28:18.000Z</time>
      </trkpt>
      <trkpt lat="48.4983" lon="0.25041">
        <ele>135.218602</ele>
        <time>2021-09-06T14:28:20.000Z</time>
      </trkpt>
      <trkpt lat="48.49833" lon="0.2506">
        <ele>135.090603</ele>
        <time>2021-09-06T14:28:22.000Z</time>
      </trkpt>
      <trkpt lat="48.49838" lon="0.25098">
        <ele>134.8333</ele>
        <time>2021-09-06T14:28:26.000Z</time>
      </trkpt>
      <trkpt lat="48.49842" lon="0.25124">
        <ele>134.659447</ele>
        <time>2021-09-06T14:28:29.000Z</time>
      </trkpt>
      <trkpt lat="48.49843" lon="0.2514">
        <ele>134.58478</ele>
        <time>2021-09-06T14:28:31.000Z</time>
      </trkpt>
      <trkpt lat="48.49844" lon="0.25147">
        <ele>134.54848</ele>
        <time>2021-09-06T14:28:32.000Z</time>
      </trkpt>
      <trkpt lat="48.49845" lon="0.25163">
        <ele>134.476208</ele>
        <time>2021-09-06T14:28:34.000Z</time>
      </trkpt>
      <trkpt lat="48.49844" lon="0.25171">
        <ele>134.438349</ele>
        <time>2021-09-06T14:28:35.000Z</time>
      </trkpt>
      <trkpt lat="48.49845" lon="0.25179">
        <ele>134.399423</ele>
        <time>2021-09-06T14:28:36.000Z</time>
      </trkpt>
      <trkpt lat="48.4985" lon="0.25211">
        <ele>134.248004</ele>
        <time>2021-09-06T14:28:40.000Z</time>
      </trkpt>
      <trkpt lat="48.49853" lon="0.25232">
        <ele>134.143692</ele>
        <time>2021-09-06T14:28:43.000Z</time>
      </trkpt>
      <trkpt lat="48.49857" lon="0.25254">
        <ele>134.038927</ele>
        <time>2021-09-06T14:28:46.000Z</time>
      </trkpt>
      <trkpt lat="48.4986" lon="0.25276">
        <ele>133.934754</ele>
        <time>2021-09-06T14:28:49.000Z</time>
      </trkpt>
      <trkpt lat="48.49861" lon="0.25283">
        <ele>133.899503</ele>
        <time>2021-09-06T14:28:50.000Z</time>
      </trkpt>
      <trkpt lat="48.49863" lon="0.25298">
        <ele>133.827292</ele>
        <time>2021-09-06T14:28:52.000Z</time>
      </trkpt>
      <trkpt lat="48.49866" lon="0.25312">
        <ele>133.760203</ele>
        <time>2021-09-06T14:28:54.000Z</time>
      </trkpt>
      <trkpt lat="48.49866" lon="0.25319">
        <ele>133.729551</ele>
        <time>2021-09-06T14:28:55.000Z</time>
      </trkpt>
      <trkpt lat="48.49871" lon="0.2536">
        <ele>133.536252</ele>
        <time>2021-09-06T14:29:01.000Z</time>
      </trkpt>
      <trkpt lat="48.49874" lon="0.25403">
        <ele>133.410016</ele>
        <time>2021-09-06T14:29:06.000Z</time>
      </trkpt>
      <trkpt lat="48.49876" lon="0.2542">
        <ele>133.425696</ele>
        <time>2021-09-06T14:29:08.000Z</time>
      </trkpt>
      <trkpt lat="48.49879" lon="0.25448">
        <ele>133.451105</ele>
        <time>2021-09-06T14:29:11.000Z</time>
      </trkpt>
      <trkpt lat="48.49882" lon="0.25476">
        <ele>133.476367</ele>
        <time>2021-09-06T14:29:14.000Z</time>
      </trkpt>
      <trkpt lat="48.49889" lon="0.25553">
        <ele>133.545154</ele>
        <time>2021-09-06T14:29:22.000Z</time>
      </trkpt>
      <trkpt lat="48.49896" lon="0.25617">
        <ele>133.603481</ele>
        <time>2021-09-06T14:29:29.000Z</time>
      </trkpt>
      <trkpt lat="48.49897" lon="0.25626">
        <ele>133.611446</ele>
        <time>2021-09-06T14:29:30.000Z</time>
      </trkpt>
      <trkpt lat="48.49899" lon="0.25652">
        <ele>133.634506</ele>
        <time>2021-09-06T14:29:33.000Z</time>
      </trkpt>
      <trkpt lat="48.49903" lon="0.25678">
        <ele>133.621377</ele>
        <time>2021-09-06T14:29:36.000Z</time>
      </trkpt>
      <trkpt lat="48.49908" lon="0.25722">
        <ele>133.583078</ele>
        <time>2021-09-06T14:29:41.000Z</time>
      </trkpt>
      <trkpt lat="48.49915" lon="0.25782">
        <ele>133.530288</ele>
        <time>2021-09-06T14:29:48.000Z</time>
      </trkpt>
      <trkpt lat="48.49918" lon="0.25807">
        <ele>133.508115</ele>
        <time>2021-09-06T14:29:51.000Z</time>
      </trkpt>
      <trkpt lat="48.4992" lon="0.25832">
        <ele>133.486834</ele>
        <time>2021-09-06T14:29:54.000Z</time>
      </trkpt>
      <trkpt lat="48.49923" lon="0.25856">
        <ele>133.465207</ele>
        <time>2021-09-06T14:29:57.000Z</time>
      </trkpt>
      <trkpt lat="48.49926" lon="0.25882">
        <ele>133.442994</ele>
        <time>2021-09-06T14:30:00.000Z</time>
      </trkpt>
      <trkpt lat="48.49932" lon="0.25931">
        <ele>133.422188</ele>
        <time>2021-09-06T14:30:06.000Z</time>
      </trkpt>
      <trkpt lat="48.49935" lon="0.25973">
        <ele>133.544602</ele>
        <time>2021-09-06T14:30:11.000Z</time>
      </trkpt>
      <trkpt lat="48.49936" lon="0.25982">
        <ele>133.56902</ele>
        <time>2021-09-06T14:30:12.000Z</time>
      </trkpt>
      <trkpt lat="48.49941" lon="0.26032">
        <ele>133.713941</ele>
        <time>2021-09-06T14:30:18.000Z</time>
      </trkpt>
      <trkpt lat="48.49944" lon="0.26066">
        <ele>133.810908</ele>
        <time>2021-09-06T14:30:22.000Z</time>
      </trkpt>
      <trkpt lat="48.49946" lon="0.26089">
        <ele>133.87865</ele>
        <time>2021-09-06T14:30:25.000Z</time>
      </trkpt>
      <trkpt lat="48.49948" lon="0.26104">
        <ele>133.922842</ele>
        <time>2021-09-06T14:30:27.000Z</time>
      </trkpt>
      <trkpt lat="48.49951" lon="0.26119">
        <ele>133.967227</ele>
        <time>2021-09-06T14:30:29.000Z</time>
      </trkpt>
      <trkpt lat="48.49952" lon="0.26136">
        <ele>134.014099</ele>
        <time>2021-09-06T14:30:31.000Z</time>
      </trkpt>
      <trkpt lat="48.49957" lon="0.2617">
        <ele>134.113729</ele>
        <time>2021-09-06T14:30:35.000Z</time>
      </trkpt>
      <trkpt lat="48.49959" lon="0.26186">
        <ele>134.161919</ele>
        <time>2021-09-06T14:30:37.000Z</time>
      </trkpt>
      <trkpt lat="48.49967" lon="0.26247">
        <ele>134.471405</ele>
        <time>2021-09-06T14:30:44.000Z</time>
      </trkpt>
      <trkpt lat="48.49968" lon="0.26264">
        <ele>134.562939</ele>
        <time>2021-09-06T14:30:46.000Z</time>
      </trkpt>
      <trkpt lat="48.49972" lon="0.26296">
        <ele>134.73641</ele>
        <time>2021-09-06T14:30:50.000Z</time>
      </trkpt>
      <trkpt lat="48.49974" lon="0.26322">
        <ele>134.87366</ele>
        <time>2021-09-06T14:30:53.000Z</time>
      </trkpt>
      <trkpt lat="48.49976" lon="0.26339">
        <ele>134.964239</ele>
        <time>2021-09-06T14:30:55.000Z</time>
      </trkpt>
      <trkpt lat="48.49981" lon="0.26389">
        <ele>135.22958</ele>
        <time>2021-09-06T14:31:01.000Z</time>
      </trkpt>
      <trkpt lat="48.49982" lon="0.26395">
        <ele>135.263761</ele>
        <time>2021-09-06T14:31:02.000Z</time>
      </trkpt>
      <trkpt lat="48.49986" lon="0.26418">
        <ele>135.386896</ele>
        <time>2021-09-06T14:31:06.000Z</time>
      </trkpt>
      <trkpt lat="48.49986" lon="0.26424">
        <ele>135.421719</ele>
        <time>2021-09-06T14:31:07.000Z</time>
      </trkpt>
      <trkpt lat="48.49987" lon="0.26439">
        <ele>135.497717</ele>
        <time>2021-09-06T14:31:09.000Z</time>
      </trkpt>
      <trkpt lat="48.49991" lon="0.26461">
        <ele>135.615934</ele>
        <time>2021-09-06T14:31:12.000Z</time>
      </trkpt>
      <trkpt lat="48.49997" lon="0.2651">
        <ele>135.748688</ele>
        <time>2021-09-06T14:31:18.000Z</time>
      </trkpt>
      <trkpt lat="48.49999" lon="0.26518">
        <ele>135.77065</ele>
        <time>2021-09-06T14:31:19.000Z</time>
      </trkpt>
      <trkpt lat="48.50004" lon="0.26556">
        <ele>135.87525</ele>
        <time>2021-09-06T14:31:24.000Z</time>
      </trkpt>
      <trkpt lat="48.50005" lon="0.26563">
        <ele>135.89408</ele>
        <time>2021-09-06T14:31:25.000Z</time>
      </trkpt>
      <trkpt lat="48.5001" lon="0.2661">
        <ele>136.020479</ele>
        <time>2021-09-06T14:31:31.000Z</time>
      </trkpt>
      <trkpt lat="48.50015" lon="0.26648">
        <ele>136.125263</ele>
        <time>2021-09-06T14:31:36.000Z</time>
      </trkpt>
      <trkpt lat="48.50017" lon="0.26664">
        <ele>136.168404</ele>
        <time>2021-09-06T14:31:38.000Z</time>
      </trkpt>
      <trkpt lat="48.5002" lon="0.26688">
        <ele>136.234479</ele>
        <time>2021-09-06T14:31:41.000Z</time>
      </trkpt>
      <trkpt lat="48.50021" lon="0.26696">
        <ele>136.255488</ele>
        <time>2021-09-06T14:31:42.000Z</time>
      </trkpt>
      <trkpt lat="48.50028" lon="0.2673">
        <ele>136.359434</ele>
        <time>2021-09-06T14:31:46.000Z</time>
      </trkpt>
      <trkpt lat="48.50035" lon="0.26773">
        <ele>136.548263</ele>
        <time>2021-09-06T14:31:51.000Z</time>
      </trkpt>
      <trkpt lat="48.50036" lon="0.26781">
        <ele>136.582242</ele>
        <time>2021-09-06T14:31:52.000Z</time>
      </trkpt>
      <trkpt lat="48.50037" lon="0.26789">
        <ele>136.617117</ele>
        <time>2021-09-06T14:31:53.000Z</time>
      </trkpt>
      <trkpt lat="48.50042" lon="0.26814">
        <ele>136.7286</ele>
        <time>2021-09-06T14:31:56.000Z</time>
      </trkpt>
      <trkpt lat="48.50043" lon="0.26823">
        <ele>136.764886</ele>
        <time>2021-09-06T14:31:57.000Z</time>
      </trkpt>
      <trkpt lat="48.50044" lon="0.26831">
        <ele>136.799346</ele>
        <time>2021-09-06T14:31:58.000Z</time>
      </trkpt>
      <trkpt lat="48.50049" lon="0.26863">
        <ele>136.940826</ele>
        <time>2021-09-06T14:32:02.000Z</time>
      </trkpt>
      <trkpt lat="48.50053" lon="0.26893">
        <ele>137.07129</ele>
        <time>2021-09-06T14:32:06.000Z</time>
      </trkpt>
      <trkpt lat="48.50054" lon="0.26899">
        <ele>137.098834</ele>
        <time>2021-09-06T14:32:07.000Z</time>
      </trkpt>
      <trkpt lat="48.50057" lon="0.26928">
        <ele>137.221538</ele>
        <time>2021-09-06T14:32:11.000Z</time>
      </trkpt>
      <trkpt lat="48.5006" lon="0.26943">
        <ele>137.287157</ele>
        <time>2021-09-06T14:32:13.000Z</time>
      </trkpt>
      <trkpt lat="48.50067" lon="0.26973">
        <ele>137.422568</ele>
        <time>2021-09-06T14:32:17.000Z</time>
      </trkpt>
      <trkpt lat="48.5007" lon="0.26987">
        <ele>137.487923</ele>
        <time>2021-09-06T14:32:19.000Z</time>
      </trkpt>
      <trkpt lat="48.50076" lon="0.27009">
        <ele>137.66931</ele>
        <time>2021-09-06T14:32:22.000Z</time>
      </trkpt>
      <trkpt lat="48.5008" lon="0.27032">
        <ele>137.850713</ele>
        <time>2021-09-06T14:32:25.000Z</time>
      </trkpt>
      <trkpt lat="48.50083" lon="0.27047">
        <ele>137.973352</ele>
        <time>2021-09-06T14:32:27.000Z</time>
      </trkpt>
      <trkpt lat="48.50084" lon="0.27055">
        <ele>138.032994</ele>
        <time>2021-09-06T14:32:28.000Z</time>
      </trkpt>
      <trkpt lat="48.50087" lon="0.27069">
        <ele>138.149191</ele>
        <time>2021-09-06T14:32:30.000Z</time>
      </trkpt>
      <trkpt lat="48.50091" lon="0.2709">
        <ele>138.322396</ele>
        <time>2021-09-06T14:32:33.000Z</time>
      </trkpt>
      <trkpt lat="48.50093" lon="0.27104">
        <ele>138.426463</ele>
        <time>2021-09-06T14:32:35.000Z</time>
      </trkpt>
      <trkpt lat="48.50096" lon="0.27118">
        <ele>138.542925</ele>
        <time>2021-09-06T14:32:37.000Z</time>
      </trkpt>
      <trkpt lat="48.50105" lon="0.27162">
        <ele>138.904811</ele>
        <time>2021-09-06T14:32:43.000Z</time>
      </trkpt>
      <trkpt lat="48.50118" lon="0.27218">
        <ele>139.364449</ele>
        <time>2021-09-06T14:32:50.000Z</time>
      </trkpt>
      <trkpt lat="48.50122" lon="0.27234">
        <ele>139.49638</ele>
        <time>2021-09-06T14:32:52.000Z</time>
      </trkpt>
      <trkpt lat="48.50126" lon="0.2725">
        <ele>139.622608</ele>
        <time>2021-09-06T14:32:54.000Z</time>
      </trkpt>
      <trkpt lat="48.50137" lon="0.27305">
        <ele>139.948731</ele>
        <time>2021-09-06T14:33:01.000Z</time>
      </trkpt>
      <trkpt lat="48.50144" lon="0.27337">
        <ele>140.139667</ele>
        <time>2021-09-06T14:33:06.000Z</time>
      </trkpt>
      <trkpt lat="48.50152" lon="0.27369">
        <ele>140.332062</ele>
        <time>2021-09-06T14:33:12.000Z</time>
      </trkpt>
      <trkpt lat="48.50163" lon="0.27416">
        <ele>140.614826</ele>
        <time>2021-09-06T14:33:19.000Z</time>
      </trkpt>
      <trkpt lat="48.50173" lon="0.27462">
        <ele>140.889513</ele>
        <time>2021-09-06T14:33:26.000Z</time>
      </trkpt>
      <trkpt lat="48.50181" lon="0.275">
        <ele>141.114144</ele>
        <time>2021-09-06T14:33:32.000Z</time>
      </trkpt>
      <trkpt lat="48.50188" lon="0.27537">
        <ele>141.247461</ele>
        <time>2021-09-06T14:33:39.000Z</time>
      </trkpt>
      <trkpt lat="48.50195" lon="0.27573">
        <ele>141.363308</ele>
        <time>2021-09-06T14:33:45.000Z</time>
      </trkpt>
      <trkpt lat="48.50197" lon="0.27585">
        <ele>141.402295</ele>
        <time>2021-09-06T14:33:47.000Z</time>
      </trkpt>
      <trkpt lat="48.50201" lon="0.27598">
        <ele>141.447495</ele>
        <time>2021-09-06T14:33:49.000Z</time>
      </trkpt>
      <trkpt lat="48.50202" lon="0.27606">
        <ele>141.471644</ele>
        <time>2021-09-06T14:33:50.000Z</time>
      </trkpt>
      <trkpt lat="48.50207" lon="0.27627">
        <ele>141.543041</ele>
        <time>2021-09-06T14:33:53.000Z</time>
      </trkpt>
      <trkpt lat="48.50209" lon="0.27642">
        <ele>141.588857</ele>
        <time>2021-09-06T14:33:55.000Z</time>
      </trkpt>
      <trkpt lat="48.50221" lon="0.27687">
        <ele>141.741349</ele>
        <time>2021-09-06T14:34:01.000Z</time>
      </trkpt>
      <trkpt lat="48.50233" lon="0.27748">
        <ele>141.937657</ele>
        <time>2021-09-06T14:34:09.000Z</time>
      </trkpt>
      <trkpt lat="48.50238" lon="0.27775">
        <ele>142.009723</ele>
        <time>2021-09-06T14:34:13.000Z</time>
      </trkpt>
      <trkpt lat="48.5024" lon="0.27783">
        <ele>142.022619</ele>
        <time>2021-09-06T14:34:14.000Z</time>
      </trkpt>
      <trkpt lat="48.50244" lon="0.27804">
        <ele>142.061628</ele>
        <time>2021-09-06T14:34:17.000Z</time>
      </trkpt>
      <trkpt lat="48.50252" lon="0.27834">
        <ele>142.115662</ele>
        <time>2021-09-06T14:34:21.000Z</time>
      </trkpt>
      <trkpt lat="48.50253" lon="0.27842">
        <ele>142.129405</ele>
        <time>2021-09-06T14:34:22.000Z</time>
      </trkpt>
      <trkpt lat="48.50264" lon="0.27894">
        <ele>142.223475</ele>
        <time>2021-09-06T14:34:29.000Z</time>
      </trkpt>
      <trkpt lat="48.50273" lon="0.27931">
        <ele>142.289649</ele>
        <time>2021-09-06T14:34:34.000Z</time>
      </trkpt>
      <trkpt lat="48.50281" lon="0.27968">
        <ele>142.356474</ele>
        <time>2021-09-06T14:34:39.000Z</time>
      </trkpt>
      <trkpt lat="48.50282" lon="0.27974">
        <ele>142.367653</ele>
        <time>2021-09-06T14:34:40.000Z</time>
      </trkpt>
      <trkpt lat="48.50284" lon="0.27988">
        <ele>142.392824</ele>
        <time>2021-09-06T14:34:42.000Z</time>
      </trkpt>
      <trkpt lat="48.50288" lon="0.28003">
        <ele>142.418857</ele>
        <time>2021-09-06T14:34:44.000Z</time>
      </trkpt>
      <trkpt lat="48.50298" lon="0.28049">
        <ele>142.491258</ele>
        <time>2021-09-06T14:34:50.000Z</time>
      </trkpt>
      <trkpt lat="48.50299" lon="0.28057">
        <ele>142.502387</ele>
        <time>2021-09-06T14:34:51.000Z</time>
      </trkpt>
      <trkpt lat="48.50305" lon="0.28087">
        <ele>142.543748</ele>
        <time>2021-09-06T14:34:55.000Z</time>
      </trkpt>
      <trkpt lat="48.50313" lon="0.28118">
        <ele>142.587905</ele>
        <time>2021-09-06T14:34:59.000Z</time>
      </trkpt>
      <trkpt lat="48.50316" lon="0.28133">
        <ele>142.608871</ele>
        <time>2021-09-06T14:35:01.000Z</time>
      </trkpt>
      <trkpt lat="48.50324" lon="0.28169">
        <ele>142.660587</ele>
        <time>2021-09-06T14:35:06.000Z</time>
      </trkpt>
      <trkpt lat="48.50328" lon="0.28192">
        <ele>142.69221</ele>
        <time>2021-09-06T14:35:09.000Z</time>
      </trkpt>
      <trkpt lat="48.50332" lon="0.28207">
        <ele>142.713371</ele>
        <time>2021-09-06T14:35:11.000Z</time>
      </trkpt>
      <trkpt lat="48.50342" lon="0.28255">
        <ele>142.780657</ele>
        <time>2021-09-06T14:35:17.000Z</time>
      </trkpt>
      <trkpt lat="48.5035" lon="0.28292">
        <ele>142.838201</ele>
        <time>2021-09-06T14:35:22.000Z</time>
      </trkpt>
      <trkpt lat="48.50352" lon="0.283">
        <ele>142.851912</ele>
        <time>2021-09-06T14:35:23.000Z</time>
      </trkpt>
      <trkpt lat="48.50359" lon="0.28331">
        <ele>142.908283</ele>
        <time>2021-09-06T14:35:27.000Z</time>
      </trkpt>
      <trkpt lat="48.5037" lon="0.28378">
        <ele>142.992222</ele>
        <time>2021-09-06T14:35:33.000Z</time>
      </trkpt>
      <trkpt lat="48.50371" lon="0.28386">
        <ele>143.00707</ele>
        <time>2021-09-06T14:35:34.000Z</time>
      </trkpt>
      <trkpt lat="48.50378" lon="0.28417">
        <ele>143.061506</ele>
        <time>2021-09-06T14:35:38.000Z</time>
      </trkpt>
      <trkpt lat="48.50391" lon="0.28477">
        <ele>143.169636</ele>
        <time>2021-09-06T14:35:46.000Z</time>
      </trkpt>
      <trkpt lat="48.50398" lon="0.285">
        <ele>143.212126</ele>
        <time>2021-09-06T14:35:50.000Z</time>
      </trkpt>
      <trkpt lat="48.50399" lon="0.28506">
        <ele>143.222866</ele>
        <time>2021-09-06T14:35:51.000Z</time>
      </trkpt>
      <trkpt lat="48.50401" lon="0.2852">
        <ele>143.247426</ele>
        <time>2021-09-06T14:35:53.000Z</time>
      </trkpt>
      <trkpt lat="48.50404" lon="0.28535">
        <ele>143.273471</ele>
        <time>2021-09-06T14:35:55.000Z</time>
      </trkpt>
      <trkpt lat="48.50418" lon="0.28597">
        <ele>143.243409</ele>
        <time>2021-09-06T14:36:03.000Z</time>
      </trkpt>
      <trkpt lat="48.5042" lon="0.28605">
        <ele>143.239094</ele>
        <time>2021-09-06T14:36:04.000Z</time>
      </trkpt>
      <trkpt lat="48.50429" lon="0.28645">
        <ele>143.217517</ele>
        <time>2021-09-06T14:36:09.000Z</time>
      </trkpt>
      <trkpt lat="48.50443" lon="0.28712">
        <ele>143.182418</ele>
        <time>2021-09-06T14:36:17.000Z</time>
      </trkpt>
      <trkpt lat="48.50448" lon="0.28736">
        <ele>143.16928</ele>
        <time>2021-09-06T14:36:20.000Z</time>
      </trkpt>
      <trkpt lat="48.50454" lon="0.2876">
        <ele>143.156382</ele>
        <time>2021-09-06T14:36:23.000Z</time>
      </trkpt>
      <trkpt lat="48.50462" lon="0.28801">
        <ele>143.110921</ele>
        <time>2021-09-06T14:36:28.000Z</time>
      </trkpt>
      <trkpt lat="48.50471" lon="0.28841">
        <ele>142.951167</ele>
        <time>2021-09-06T14:36:33.000Z</time>
      </trkpt>
      <trkpt lat="48.50473" lon="0.28849">
        <ele>142.919748</ele>
        <time>2021-09-06T14:36:34.000Z</time>
      </trkpt>
      <trkpt lat="48.50477" lon="0.28874">
        <ele>142.822766</ele>
        <time>2021-09-06T14:36:37.000Z</time>
      </trkpt>
      <trkpt lat="48.50482" lon="0.28901">
        <ele>142.720746</ele>
        <time>2021-09-06T14:36:40.000Z</time>
      </trkpt>
      <trkpt lat="48.5049" lon="0.28934">
        <ele>142.586707</ele>
        <time>2021-09-06T14:36:44.000Z</time>
      </trkpt>
      <trkpt lat="48.50492" lon="0.28942">
        <ele>142.556692</ele>
        <time>2021-09-06T14:36:45.000Z</time>
      </trkpt>
      <trkpt lat="48.50501" lon="0.28993">
        <ele>142.359495</ele>
        <time>2021-09-06T14:36:51.000Z</time>
      </trkpt>
      <trkpt lat="48.50505" lon="0.29009">
        <ele>142.294516</ele>
        <time>2021-09-06T14:36:53.000Z</time>
      </trkpt>
      <trkpt lat="48.50509" lon="0.29035">
        <ele>142.193938</ele>
        <time>2021-09-06T14:36:56.000Z</time>
      </trkpt>
      <trkpt lat="48.50522" lon="0.29088">
        <ele>141.868543</ele>
        <time>2021-09-06T14:37:02.000Z</time>
      </trkpt>
      <trkpt lat="48.50536" lon="0.29152">
        <ele>141.406634</ele>
        <time>2021-09-06T14:37:09.000Z</time>
      </trkpt>
      <trkpt lat="48.50542" lon="0.29178">
        <ele>141.219923</ele>
        <time>2021-09-06T14:37:12.000Z</time>
      </trkpt>
      <trkpt lat="48.50548" lon="0.29204">
        <ele>141.03406</ele>
        <time>2021-09-06T14:37:15.000Z</time>
      </trkpt>
      <trkpt lat="48.50561" lon="0.29263">
        <ele>140.609755</ele>
        <time>2021-09-06T14:37:22.000Z</time>
      </trkpt>
      <trkpt lat="48.50573" lon="0.29313">
        <ele>140.249173</ele>
        <time>2021-09-06T14:37:28.000Z</time>
      </trkpt>
      <trkpt lat="48.50588" lon="0.2938">
        <ele>139.851333</ele>
        <time>2021-09-06T14:37:36.000Z</time>
      </trkpt>
      <trkpt lat="48.50598" lon="0.29428">
        <ele>139.571364</ele>
        <time>2021-09-06T14:37:42.000Z</time>
      </trkpt>
      <trkpt lat="48.50607" lon="0.29477">
        <ele>139.288321</ele>
        <time>2021-09-06T14:37:48.000Z</time>
      </trkpt>
      <trkpt lat="48.50615" lon="0.29519">
        <ele>139.041499</ele>
        <time>2021-09-06T14:37:53.000Z</time>
      </trkpt>
      <trkpt lat="48.50632" lon="0.29594">
        <ele>138.718329</ele>
        <time>2021-09-06T14:38:02.000Z</time>
      </trkpt>
      <trkpt lat="48.50645" lon="0.29651">
        <ele>138.654253</ele>
        <time>2021-09-06T14:38:09.000Z</time>
      </trkpt>
      <trkpt lat="48.50646" lon="0.2966">
        <ele>138.644906</ele>
        <time>2021-09-06T14:38:10.000Z</time>
      </trkpt>
      <trkpt lat="48.50654" lon="0.29695">
        <ele>138.606208</ele>
        <time>2021-09-06T14:38:14.000Z</time>
      </trkpt>
      <trkpt lat="48.50665" lon="0.29746">
        <ele>138.549267</ele>
        <time>2021-09-06T14:38:20.000Z</time>
      </trkpt>
      <trkpt lat="48.50679" lon="0.29817">
        <ele>138.470399</ele>
        <time>2021-09-06T14:38:28.000Z</time>
      </trkpt>
      <trkpt lat="48.50693" lon="0.29873">
        <ele>138.565291</ele>
        <time>2021-09-06T14:38:35.000Z</time>
      </trkpt>
      <trkpt lat="48.50696" lon="0.2989">
        <ele>138.601823</ele>
        <time>2021-09-06T14:38:37.000Z</time>
      </trkpt>
      <trkpt lat="48.50701" lon="0.29914">
        <ele>138.657229</ele>
        <time>2021-09-06T14:38:40.000Z</time>
      </trkpt>
      <trkpt lat="48.50705" lon="0.29942">
        <ele>138.719276</ele>
        <time>2021-09-06T14:38:44.000Z</time>
      </trkpt>
      <trkpt lat="48.50712" lon="0.29976">
        <ele>138.794252</ele>
        <time>2021-09-06T14:38:48.000Z</time>
      </trkpt>
      <trkpt lat="48.50714" lon="0.29984">
        <ele>138.813538</ele>
        <time>2021-09-06T14:38:49.000Z</time>
      </trkpt>
      <trkpt lat="48.50727" lon="0.30044">
        <ele>138.949913</ele>
        <time>2021-09-06T14:38:56.000Z</time>
      </trkpt>
      <trkpt lat="48.50736" lon="0.30084">
        <ele>139.039264</ele>
        <time>2021-09-06T14:39:01.000Z</time>
      </trkpt>
      <trkpt lat="48.50746" lon="0.30131">
        <ele>139.240508</ele>
        <time>2021-09-06T14:39:07.000Z</time>
      </trkpt>
      <trkpt lat="48.50758" lon="0.30187">
        <ele>139.486138</ele>
        <time>2021-09-06T14:39:14.000Z</time>
      </trkpt>
      <trkpt lat="48.5076" lon="0.30195">
        <ele>139.520625</ele>
        <time>2021-09-06T14:39:15.000Z</time>
      </trkpt>
      <trkpt lat="48.50779" lon="0.30276">
        <ele>139.876212</ele>
        <time>2021-09-06T14:39:25.000Z</time>
      </trkpt>
      <trkpt lat="48.50791" lon="0.30333">
        <ele>140.127947</ele>
        <time>2021-09-06T14:39:32.000Z</time>
      </trkpt>
      <trkpt lat="48.50804" lon="0.30391">
        <ele>140.399323</ele>
        <time>2021-09-06T14:39:39.000Z</time>
      </trkpt>
      <trkpt lat="48.50816" lon="0.30449">
        <ele>140.668563</ele>
        <time>2021-09-06T14:39:46.000Z</time>
      </trkpt>
      <trkpt lat="48.50829" lon="0.30514">
        <ele>140.97487</ele>
        <time>2021-09-06T14:39:54.000Z</time>
      </trkpt>
      <trkpt lat="48.50836" lon="0.30545">
        <ele>141.12251</ele>
        <time>2021-09-06T14:39:58.000Z</time>
      </trkpt>
      <trkpt lat="48.50848" lon="0.30602">
        <ele>141.387934</ele>
        <time>2021-09-06T14:40:05.000Z</time>
      </trkpt>
      <trkpt lat="48.50861" lon="0.30657">
        <ele>141.6967</ele>
        <time>2021-09-06T14:40:12.000Z</time>
      </trkpt>
      <trkpt lat="48.50871" lon="0.30705">
        <ele>141.959051</ele>
        <time>2021-09-06T14:40:18.000Z</time>
      </trkpt>
      <trkpt lat="48.50883" lon="0.3076">
        <ele>142.263095</ele>
        <time>2021-09-06T14:40:25.000Z</time>
      </trkpt>
      <trkpt lat="48.50897" lon="0.30824">
        <ele>142.612555</ele>
        <time>2021-09-06T14:40:33.000Z</time>
      </trkpt>
      <trkpt lat="48.50912" lon="0.30895">
        <ele>143.001512</ele>
        <time>2021-09-06T14:40:42.000Z</time>
      </trkpt>
      <trkpt lat="48.50925" lon="0.3095">
        <ele>143.301613</ele>
        <time>2021-09-06T14:40:49.000Z</time>
      </trkpt>
      <trkpt lat="48.50939" lon="0.31015">
        <ele>143.65153</ele>
        <time>2021-09-06T14:40:57.000Z</time>
      </trkpt>
      <trkpt lat="48.50949" lon="0.31065">
        <ele>143.91799</ele>
        <time>2021-09-06T14:41:03.000Z</time>
      </trkpt>
      <trkpt lat="48.50954" lon="0.31096">
        <ele>144.086475</ele>
        <time>2021-09-06T14:41:07.000Z</time>
      </trkpt>
      <trkpt lat="48.50956" lon="0.31104">
        <ele>144.126779</ele>
        <time>2021-09-06T14:41:08.000Z</time>
      </trkpt>
      <trkpt lat="48.50967" lon="0.31152">
        <ele>144.416446</ele>
        <time>2021-09-06T14:41:14.000Z</time>
      </trkpt>
      <trkpt lat="48.50975" lon="0.31191">
        <ele>144.661294</ele>
        <time>2021-09-06T14:41:19.000Z</time>
      </trkpt>
      <trkpt lat="48.50977" lon="0.31198">
        <ele>144.707444</ele>
        <time>2021-09-06T14:41:20.000Z</time>
      </trkpt>
      <trkpt lat="48.50982" lon="0.31221">
        <ele>144.850117</ele>
        <time>2021-09-06T14:41:23.000Z</time>
      </trkpt>
      <trkpt lat="48.50988" lon="0.31255">
        <ele>145.058977</ele>
        <time>2021-09-06T14:41:28.000Z</time>
      </trkpt>
      <trkpt lat="48.50994" lon="0.31289">
        <ele>145.264535</ele>
        <time>2021-09-06T14:41:33.000Z</time>
      </trkpt>
      <trkpt lat="48.50998" lon="0.31316">
        <ele>145.430118</ele>
        <time>2021-09-06T14:41:37.000Z</time>
      </trkpt>
      <trkpt lat="48.51" lon="0.31324">
        <ele>145.480208</ele>
        <time>2021-09-06T14:41:38.000Z</time>
      </trkpt>
      <trkpt lat="48.51002" lon="0.31332">
        <ele>145.531976</ele>
        <time>2021-09-06T14:41:39.000Z</time>
      </trkpt>
      <trkpt lat="48.5101" lon="0.31362">
        <ele>145.72097</ele>
        <time>2021-09-06T14:41:43.000Z</time>
      </trkpt>
      <trkpt lat="48.51019" lon="0.31401">
        <ele>145.81875</ele>
        <time>2021-09-06T14:41:48.000Z</time>
      </trkpt>
      <trkpt lat="48.51026" lon="0.31431">
        <ele>145.825288</ele>
        <time>2021-09-06T14:41:52.000Z</time>
      </trkpt>
      <trkpt lat="48.51029" lon="0.31446">
        <ele>145.828409</ele>
        <time>2021-09-06T14:41:54.000Z</time>
      </trkpt>
      <trkpt lat="48.51031" lon="0.31453">
        <ele>145.829984</ele>
        <time>2021-09-06T14:41:55.000Z</time>
      </trkpt>
      <trkpt lat="48.51032" lon="0.3146">
        <ele>145.831565</ele>
        <time>2021-09-06T14:41:56.000Z</time>
      </trkpt>
      <trkpt lat="48.51039" lon="0.31487">
        <ele>145.837329</ele>
        <time>2021-09-06T14:42:00.000Z</time>
      </trkpt>
      <trkpt lat="48.51042" lon="0.315">
        <ele>145.840229</ele>
        <time>2021-09-06T14:42:02.000Z</time>
      </trkpt>
      <trkpt lat="48.51047" lon="0.31528">
        <ele>145.84615</ele>
        <time>2021-09-06T14:42:06.000Z</time>
      </trkpt>
      <trkpt lat="48.51056" lon="0.31574">
        <ele>145.856022</ele>
        <time>2021-09-06T14:42:13.000Z</time>
      </trkpt>
      <trkpt lat="48.51066" lon="0.31621">
        <ele>145.866105</ele>
        <time>2021-09-06T14:42:20.000Z</time>
      </trkpt>
      <trkpt lat="48.51075" lon="0.31659">
        <ele>145.686282</ele>
        <time>2021-09-06T14:42:25.000Z</time>
      </trkpt>
      <trkpt lat="48.51077" lon="0.31667">
        <ele>145.630446</ele>
        <time>2021-09-06T14:42:26.000Z</time>
      </trkpt>
      <trkpt lat="48.51085" lon="0.31704">
        <ele>145.354184</ele>
        <time>2021-09-06T14:42:31.000Z</time>
      </trkpt>
      <trkpt lat="48.51089" lon="0.31719">
        <ele>145.246508</ele>
        <time>2021-09-06T14:42:33.000Z</time>
      </trkpt>
      <trkpt lat="48.51094" lon="0.31741">
        <ele>145.083118</ele>
        <time>2021-09-06T14:42:36.000Z</time>
      </trkpt>
      <trkpt lat="48.51096" lon="0.31756">
        <ele>144.976237</ele>
        <time>2021-09-06T14:42:38.000Z</time>
      </trkpt>
      <trkpt lat="48.51099" lon="0.3177">
        <ele>144.869877</ele>
        <time>2021-09-06T14:42:40.000Z</time>
      </trkpt>
      <trkpt lat="48.51103" lon="0.31793">
        <ele>144.710436</ele>
        <time>2021-09-06T14:42:43.000Z</time>
      </trkpt>
      <trkpt lat="48.51111" lon="0.31837">
        <ele>144.386389</ele>
        <time>2021-09-06T14:42:49.000Z</time>
      </trkpt>
      <trkpt lat="48.51123" lon="0.31883">
        <ele>144.048496</ele>
        <time>2021-09-06T14:42:55.000Z</time>
      </trkpt>
      <trkpt lat="48.51127" lon="0.3191">
        <ele>143.970522</ele>
        <time>2021-09-06T14:42:59.000Z</time>
      </trkpt>
      <trkpt lat="48.51133" lon="0.3194">
        <ele>143.951964</ele>
        <time>2021-09-06T14:43:04.000Z</time>
      </trkpt>
      <trkpt lat="48.51137" lon="0.31954">
        <ele>143.943056</ele>
        <time>2021-09-06T14:43:06.000Z</time>
      </trkpt>
      <trkpt lat="48.51142" lon="0.31974">
        <ele>143.930018</ele>
        <time>2021-09-06T14:43:09.000Z</time>
      </trkpt>
      <trkpt lat="48.51146" lon="0.31988">
        <ele>143.921307</ele>
        <time>2021-09-06T14:43:11.000Z</time>
      </trkpt>
      <trkpt lat="48.51149" lon="0.32002">
        <ele>143.912572</ele>
        <time>2021-09-06T14:43:13.000Z</time>
      </trkpt>
      <trkpt lat="48.5115" lon="0.3201">
        <ele>143.908162</ele>
        <time>2021-09-06T14:43:14.000Z</time>
      </trkpt>
      <trkpt lat="48.51157" lon="0.32043">
        <ele>143.887817</ele>
        <time>2021-09-06T14:43:19.000Z</time>
      </trkpt>
      <trkpt lat="48.51163" lon="0.32071">
        <ele>143.87037</ele>
        <time>2021-09-06T14:43:23.000Z</time>
      </trkpt>
      <trkpt lat="48.51166" lon="0.32086">
        <ele>143.861157</ele>
        <time>2021-09-06T14:43:25.000Z</time>
      </trkpt>
      <trkpt lat="48.5117" lon="0.321">
        <ele>143.852158</ele>
        <time>2021-09-06T14:43:27.000Z</time>
      </trkpt>
      <trkpt lat="48.51174" lon="0.32114">
        <ele>143.84347</ele>
        <time>2021-09-06T14:43:29.000Z</time>
      </trkpt>
      <trkpt lat="48.51176" lon="0.32129">
        <ele>143.834571</ele>
        <time>2021-09-06T14:43:31.000Z</time>
      </trkpt>
      <trkpt lat="48.51184" lon="0.32172">
        <ele>144.021464</ele>
        <time>2021-09-06T14:43:37.000Z</time>
      </trkpt>
      <trkpt lat="48.5119" lon="0.32198">
        <ele>144.260474</ele>
        <time>2021-09-06T14:43:41.000Z</time>
      </trkpt>
      <trkpt lat="48.51198" lon="0.32235">
        <ele>144.593301</ele>
        <time>2021-09-06T14:43:46.000Z</time>
      </trkpt>
      <trkpt lat="48.51202" lon="0.32248">
        <ele>144.721082</ele>
        <time>2021-09-06T14:43:48.000Z</time>
      </trkpt>
      <trkpt lat="48.51206" lon="0.32262">
        <ele>144.852824</ele>
        <time>2021-09-06T14:43:50.000Z</time>
      </trkpt>
      <trkpt lat="48.51207" lon="0.32269">
        <ele>144.916988</ele>
        <time>2021-09-06T14:43:51.000Z</time>
      </trkpt>
      <trkpt lat="48.51211" lon="0.32288">
        <ele>145.08977</ele>
        <time>2021-09-06T14:43:54.000Z</time>
      </trkpt>
      <trkpt lat="48.51212" lon="0.32295">
        <ele>145.151453</ele>
        <time>2021-09-06T14:43:55.000Z</time>
      </trkpt>
      <trkpt lat="48.51219" lon="0.32327">
        <ele>145.445583</ele>
        <time>2021-09-06T14:44:00.000Z</time>
      </trkpt>
      <trkpt lat="48.51222" lon="0.32345">
        <ele>145.607081</ele>
        <time>2021-09-06T14:44:03.000Z</time>
      </trkpt>
      <trkpt lat="48.51224" lon="0.32357">
        <ele>145.720925</ele>
        <time>2021-09-06T14:44:05.000Z</time>
      </trkpt>
      <trkpt lat="48.51227" lon="0.32372">
        <ele>145.853651</ele>
        <time>2021-09-06T14:44:07.000Z</time>
      </trkpt>
      <trkpt lat="48.51229" lon="0.32383">
        <ele>145.952477</ele>
        <time>2021-09-06T14:44:09.000Z</time>
      </trkpt>
      <trkpt lat="48.51231" lon="0.32399">
        <ele>146.094944</ele>
        <time>2021-09-06T14:44:11.000Z</time>
      </trkpt>
      <trkpt lat="48.51243" lon="0.32446">
        <ele>146.386045</ele>
        <time>2021-09-06T14:44:16.000Z</time>
      </trkpt>
      <trkpt lat="48.51253" lon="0.32491">
        <ele>146.631669</ele>
        <time>2021-09-06T14:44:21.000Z</time>
      </trkpt>
      <trkpt lat="48.51261" lon="0.32532">
        <ele>146.8492</ele>
        <time>2021-09-06T14:44:26.000Z</time>
      </trkpt>
      <trkpt lat="48.51262" lon="0.32541">
        <ele>146.896151</ele>
        <time>2021-09-06T14:44:27.000Z</time>
      </trkpt>
      <trkpt lat="48.51271" lon="0.32578">
        <ele>147.097488</ele>
        <time>2021-09-06T14:44:31.000Z</time>
      </trkpt>
      <trkpt lat="48.51278" lon="0.32613">
        <ele>147.284547</ele>
        <time>2021-09-06T14:44:35.000Z</time>
      </trkpt>
      <trkpt lat="48.51281" lon="0.32622">
        <ele>147.33289</ele>
        <time>2021-09-06T14:44:36.000Z</time>
      </trkpt>
      <trkpt lat="48.51295" lon="0.32684">
        <ele>147.42961</ele>
        <time>2021-09-06T14:44:43.000Z</time>
      </trkpt>
      <trkpt lat="48.51301" lon="0.3271">
        <ele>147.222415</ele>
        <time>2021-09-06T14:44:46.000Z</time>
      </trkpt>
      <trkpt lat="48.51304" lon="0.32727">
        <ele>147.097349</ele>
        <time>2021-09-06T14:44:48.000Z</time>
      </trkpt>
      <trkpt lat="48.51316" lon="0.32785">
        <ele>146.639695</ele>
        <time>2021-09-06T14:44:55.000Z</time>
      </trkpt>
      <trkpt lat="48.51326" lon="0.32833">
        <ele>146.268473</ele>
        <time>2021-09-06T14:45:01.000Z</time>
      </trkpt>
      <trkpt lat="48.51327" lon="0.3284">
        <ele>146.214848</ele>
        <time>2021-09-06T14:45:02.000Z</time>
      </trkpt>
      <trkpt lat="48.51332" lon="0.32865">
        <ele>146.021238</ele>
        <time>2021-09-06T14:45:06.000Z</time>
      </trkpt>
      <trkpt lat="48.5134" lon="0.329">
        <ele>145.745257</ele>
        <time>2021-09-06T14:45:11.000Z</time>
      </trkpt>
      <trkpt lat="48.51343" lon="0.32914">
        <ele>145.637185</ele>
        <time>2021-09-06T14:45:13.000Z</time>
      </trkpt>
      <trkpt lat="48.51348" lon="0.32935">
        <ele>145.523585</ele>
        <time>2021-09-06T14:45:16.000Z</time>
      </trkpt>
      <trkpt lat="48.51349" lon="0.32942">
        <ele>145.501832</ele>
        <time>2021-09-06T14:45:17.000Z</time>
      </trkpt>
      <trkpt lat="48.51363" lon="0.33014">
        <ele>145.279965</ele>
        <time>2021-09-06T14:45:27.000Z</time>
      </trkpt>
      <trkpt lat="48.51377" lon="0.33072">
        <ele>145.096063</ele>
        <time>2021-09-06T14:45:35.000Z</time>
      </trkpt>
      <trkpt lat="48.51386" lon="0.33112">
        <ele>144.970782</ele>
        <time>2021-09-06T14:45:41.000Z</time>
      </trkpt>
      <trkpt lat="48.51392" lon="0.33144">
        <ele>144.87392</ele>
        <time>2021-09-06T14:45:47.000Z</time>
      </trkpt>
      <trkpt lat="48.51396" lon="0.33165">
        <ele>144.807334</ele>
        <time>2021-09-06T14:45:52.000Z</time>
      </trkpt>
      <trkpt lat="48.514" lon="0.33191">
        <ele>144.808179</ele>
        <time>2021-09-06T14:45:57.000Z</time>
      </trkpt>
      <trkpt lat="48.51406" lon="0.33223">
        <ele>145.078853</ele>
        <time>2021-09-06T14:46:04.000Z</time>
      </trkpt>
      <trkpt lat="48.51412" lon="0.33252">
        <ele>145.33307</ele>
        <time>2021-09-06T14:46:10.000Z</time>
      </trkpt>
      <trkpt lat="48.5142" lon="0.33298">
        <ele>145.71449</ele>
        <time>2021-09-06T14:46:17.000Z</time>
      </trkpt>
      <trkpt lat="48.51425" lon="0.33329">
        <ele>145.978347</ele>
        <time>2021-09-06T14:46:22.000Z</time>
      </trkpt>
      <trkpt lat="48.51427" lon="0.33344">
        <ele>146.099695</ele>
        <time>2021-09-06T14:46:24.000Z</time>
      </trkpt>
      <trkpt lat="48.51431" lon="0.33366">
        <ele>146.288983</ele>
        <time>2021-09-06T14:46:27.000Z</time>
      </trkpt>
      <trkpt lat="48.51432" lon="0.33373">
        <ele>146.347043</ele>
        <time>2021-09-06T14:46:28.000Z</time>
      </trkpt>
      <trkpt lat="48.51439" lon="0.33412">
        <ele>146.669312</ele>
        <time>2021-09-06T14:46:33.000Z</time>
      </trkpt>
      <trkpt lat="48.51445" lon="0.33449">
        <ele>146.979483</ele>
        <time>2021-09-06T14:46:38.000Z</time>
      </trkpt>
      <trkpt lat="48.51447" lon="0.33456">
        <ele>147.035941</ele>
        <time>2021-09-06T14:46:39.000Z</time>
      </trkpt>
      <trkpt lat="48.51452" lon="0.33479">
        <ele>147.212272</ele>
        <time>2021-09-06T14:46:42.000Z</time>
      </trkpt>
      <trkpt lat="48.51458" lon="0.33524">
        <ele>147.536562</ele>
        <time>2021-09-06T14:46:48.000Z</time>
      </trkpt>
      <trkpt lat="48.51458" lon="0.3353">
        <ele>147.584802</ele>
        <time>2021-09-06T14:46:49.000Z</time>
      </trkpt>
      <trkpt lat="48.5146" lon="0.33551">
        <ele>147.73839</ele>
        <time>2021-09-06T14:46:53.000Z</time>
      </trkpt>
      <trkpt lat="48.51465" lon="0.33576">
        <ele>147.922893</ele>
        <time>2021-09-06T14:46:57.000Z</time>
      </trkpt>
      <trkpt lat="48.51467" lon="0.33582">
        <ele>147.972853</ele>
        <time>2021-09-06T14:46:58.000Z</time>
      </trkpt>
      <trkpt lat="48.51473" lon="0.33634">
        <ele>148.347201</ele>
        <time>2021-09-06T14:47:05.000Z</time>
      </trkpt>
      <trkpt lat="48.51479" lon="0.33689">
        <ele>148.747919</ele>
        <time>2021-09-06T14:47:12.000Z</time>
      </trkpt>
      <trkpt lat="48.51481" lon="0.33711">
        <ele>148.907916</ele>
        <time>2021-09-06T14:47:15.000Z</time>
      </trkpt>
      <trkpt lat="48.51483" lon="0.33726">
        <ele>148.903747</ele>
        <time>2021-09-06T14:47:17.000Z</time>
      </trkpt>
      <trkpt lat="48.51484" lon="0.33733">
        <ele>148.897952</ele>
        <time>2021-09-06T14:47:18.000Z</time>
      </trkpt>
      <trkpt lat="48.5149" lon="0.33778">
        <ele>148.863526</ele>
        <time>2021-09-06T14:47:24.000Z</time>
      </trkpt>
      <trkpt lat="48.51491" lon="0.33791">
        <ele>148.85307</ele>
        <time>2021-09-06T14:47:26.000Z</time>
      </trkpt>
      <trkpt lat="48.51492" lon="0.33799">
        <ele>148.84723</ele>
        <time>2021-09-06T14:47:27.000Z</time>
      </trkpt>
      <trkpt lat="48.51493" lon="0.33807">
        <ele>148.84132</ele>
        <time>2021-09-06T14:47:28.000Z</time>
      </trkpt>
      <trkpt lat="48.51497" lon="0.33839">
        <ele>148.816548</ele>
        <time>2021-09-06T14:47:32.000Z</time>
      </trkpt>
      <trkpt lat="48.51506" lon="0.33909">
        <ele>148.762118</ele>
        <time>2021-09-06T14:47:40.000Z</time>
      </trkpt>
      <trkpt lat="48.51515" lon="0.33978">
        <ele>148.706902</ele>
        <time>2021-09-06T14:47:48.000Z</time>
      </trkpt>
      <trkpt lat="48.51524" lon="0.34042">
        <ele>148.453642</ele>
        <time>2021-09-06T14:47:55.000Z</time>
      </trkpt>
      <trkpt lat="48.51531" lon="0.34089">
        <ele>148.265279</ele>
        <time>2021-09-06T14:48:00.000Z</time>
      </trkpt>
      <trkpt lat="48.51538" lon="0.34158">
        <ele>147.995833</ele>
        <time>2021-09-06T14:48:07.000Z</time>
      </trkpt>
      <trkpt lat="48.51546" lon="0.34218">
        <ele>147.756574</ele>
        <time>2021-09-06T14:48:13.000Z</time>
      </trkpt>
      <trkpt lat="48.51554" lon="0.34278">
        <ele>147.385745</ele>
        <time>2021-09-06T14:48:19.000Z</time>
      </trkpt>
      <trkpt lat="48.5156" lon="0.34338">
        <ele>146.905001</ele>
        <time>2021-09-06T14:48:25.000Z</time>
      </trkpt>
      <trkpt lat="48.51567" lon="0.34397">
        <ele>146.429979</ele>
        <time>2021-09-06T14:48:31.000Z</time>
      </trkpt>
      <trkpt lat="48.51571" lon="0.34443">
        <ele>146.063588</ele>
        <time>2021-09-06T14:48:36.000Z</time>
      </trkpt>
      <trkpt lat="48.51575" lon="0.34479">
        <ele>145.780798</ele>
        <time>2021-09-06T14:48:40.000Z</time>
      </trkpt>
      <trkpt lat="48.51577" lon="0.34487">
        <ele>145.708931</ele>
        <time>2021-09-06T14:48:41.000Z</time>
      </trkpt>
      <trkpt lat="48.51586" lon="0.34549">
        <ele>145.547273</ele>
        <time>2021-09-06T14:48:48.000Z</time>
      </trkpt>
      <trkpt lat="48.51594" lon="0.3461">
        <ele>145.603537</ele>
        <time>2021-09-06T14:48:55.000Z</time>
      </trkpt>
      <trkpt lat="48.51595" lon="0.34618">
        <ele>145.611384</ele>
        <time>2021-09-06T14:48:56.000Z</time>
      </trkpt>
      <trkpt lat="48.51607" lon="0.34701">
        <ele>145.689336</ele>
        <time>2021-09-06T14:49:06.000Z</time>
      </trkpt>
      <trkpt lat="48.51609" lon="0.34718">
        <ele>145.704789</ele>
        <time>2021-09-06T14:49:08.000Z</time>
      </trkpt>
      <trkpt lat="48.5161" lon="0.34726">
        <ele>145.712483</ele>
        <time>2021-09-06T14:49:09.000Z</time>
      </trkpt>
      <trkpt lat="48.51614" lon="0.34759">
        <ele>145.742379</ele>
        <time>2021-09-06T14:49:13.000Z</time>
      </trkpt>
      <trkpt lat="48.51616" lon="0.34809">
        <ele>145.951308</ele>
        <time>2021-09-06T14:49:19.000Z</time>
      </trkpt>
      <trkpt lat="48.51619" lon="0.34872">
        <ele>146.344426</ele>
        <time>2021-09-06T14:49:27.000Z</time>
      </trkpt>
      <trkpt lat="48.51619" lon="0.34887">
        <ele>146.43851</ele>
        <time>2021-09-06T14:49:29.000Z</time>
      </trkpt>
      <trkpt lat="48.5162" lon="0.34943">
        <ele>146.784487</ele>
        <time>2021-09-06T14:49:37.000Z</time>
      </trkpt>
      <trkpt lat="48.51617" lon="0.34976">
        <ele>146.991154</ele>
        <time>2021-09-06T14:49:43.000Z</time>
      </trkpt>
      <trkpt lat="48.51613" lon="0.34986">
        <ele>147.061949</ele>
        <time>2021-09-06T14:49:47.000Z</time>
      </trkpt>
      <trkpt lat="48.51614" lon="0.34988">
        <ele>147.077536</ele>
        <time>2021-09-06T14:49:48.000Z</time>
      </trkpt>
      <trkpt lat="48.51615" lon="0.3499">
        <ele>147.094656</ele>
        <time>2021-09-06T14:49:49.000Z</time>
      </trkpt>
      <trkpt lat="48.51618" lon="0.35002">
        <ele>147.175354</ele>
        <time>2021-09-06T14:49:52.000Z</time>
      </trkpt>
      <trkpt lat="48.51616" lon="0.35033">
        <ele>147.368992</ele>
        <time>2021-09-06T14:49:57.000Z</time>
      </trkpt>
      <trkpt lat="48.51615" lon="0.35073">
        <ele>147.457892</ele>
        <time>2021-09-06T14:50:03.000Z</time>
      </trkpt>
      <trkpt lat="48.51612" lon="0.35086">
        <ele>147.46368</ele>
        <time>2021-09-06T14:50:05.000Z</time>
      </trkpt>
      <trkpt lat="48.51613" lon="0.35098">
        <ele>147.468723</ele>
        <time>2021-09-06T14:50:07.000Z</time>
      </trkpt>
      <trkpt lat="48.51612" lon="0.35104">
        <ele>147.471068</ele>
        <time>2021-09-06T14:50:08.000Z</time>
      </trkpt>
      <trkpt lat="48.5161" lon="0.35116">
        <ele>147.476299</ele>
        <time>2021-09-06T14:50:10.000Z</time>
      </trkpt>
      <trkpt lat="48.5161" lon="0.35135">
        <ele>147.484304</ele>
        <time>2021-09-06T14:50:13.000Z</time>
      </trkpt>
      <trkpt lat="48.5161" lon="0.3515">
        <ele>147.490224</ele>
        <time>2021-09-06T14:50:15.000Z</time>
      </trkpt>
      <trkpt lat="48.51608" lon="0.35172">
        <ele>147.499776</ele>
        <time>2021-09-06T14:50:18.000Z</time>
      </trkpt>
      <trkpt lat="48.51605" lon="0.3519">
        <ele>147.507551</ele>
        <time>2021-09-06T14:50:20.000Z</time>
      </trkpt>
      <trkpt lat="48.51601" lon="0.35217">
        <ele>147.51887</ele>
        <time>2021-09-06T14:50:23.000Z</time>
      </trkpt>
      <trkpt lat="48.51596" lon="0.35241">
        <ele>147.529351</ele>
        <time>2021-09-06T14:50:26.000Z</time>
      </trkpt>
      <trkpt lat="48.51586" lon="0.35287">
        <ele>147.549744</ele>
        <time>2021-09-06T14:50:32.000Z</time>
      </trkpt>
      <trkpt lat="48.51581" lon="0.35308">
        <ele>147.559017</ele>
        <time>2021-09-06T14:50:35.000Z</time>
      </trkpt>
      <trkpt lat="48.51579" lon="0.35324">
        <ele>147.57612</ele>
        <time>2021-09-06T14:50:37.000Z</time>
      </trkpt>
      <trkpt lat="48.51574" lon="0.35356">
        <ele>147.612657</ele>
        <time>2021-09-06T14:50:41.000Z</time>
      </trkpt>
      <trkpt lat="48.51572" lon="0.35373">
        <ele>147.631135</ele>
        <time>2021-09-06T14:50:43.000Z</time>
      </trkpt>
      <trkpt lat="48.51567" lon="0.35397">
        <ele>147.659292</ele>
        <time>2021-09-06T14:50:46.000Z</time>
      </trkpt>
      <trkpt lat="48.51564" lon="0.35421">
        <ele>147.687231</ele>
        <time>2021-09-06T14:50:49.000Z</time>
      </trkpt>
      <trkpt lat="48.51553" lon="0.35484">
        <ele>147.759899</ele>
        <time>2021-09-06T14:50:57.000Z</time>
      </trkpt>
      <trkpt lat="48.51544" lon="0.35539">
        <ele>147.822997</ele>
        <time>2021-09-06T14:51:04.000Z</time>
      </trkpt>
      <trkpt lat="48.51536" lon="0.35601">
        <ele>147.988286</ele>
        <time>2021-09-06T14:51:12.000Z</time>
      </trkpt>
      <trkpt lat="48.51527" lon="0.3566">
        <ele>148.270429</ele>
        <time>2021-09-06T14:51:20.000Z</time>
      </trkpt>
      <trkpt lat="48.51517" lon="0.3573">
        <ele>148.599031</ele>
        <time>2021-09-06T14:51:29.000Z</time>
      </trkpt>
      <trkpt lat="48.5151" lon="0.35792">
        <ele>148.890069</ele>
        <time>2021-09-06T14:51:37.000Z</time>
      </trkpt>
      <trkpt lat="48.51508" lon="0.35799">
        <ele>148.92374</ele>
        <time>2021-09-06T14:51:38.000Z</time>
      </trkpt>
      <trkpt lat="48.51506" lon="0.35834">
        <ele>149.088371</ele>
        <time>2021-09-06T14:51:44.000Z</time>
      </trkpt>
      <trkpt lat="48.51503" lon="0.35869">
        <ele>149.081197</ele>
        <time>2021-09-06T14:51:49.000Z</time>
      </trkpt>
      <trkpt lat="48.51501" lon="0.35899">
        <ele>149.044439</ele>
        <time>2021-09-06T14:51:53.000Z</time>
      </trkpt>
      <trkpt lat="48.515" lon="0.35913">
        <ele>149.026865</ele>
        <time>2021-09-06T14:51:55.000Z</time>
      </trkpt>
      <trkpt lat="48.51499" lon="0.35959">
        <ele>148.970452</ele>
        <time>2021-09-06T14:52:01.000Z</time>
      </trkpt>
      <trkpt lat="48.51498" lon="0.35975">
        <ele>148.951392</ele>
        <time>2021-09-06T14:52:03.000Z</time>
      </trkpt>
      <trkpt lat="48.51498" lon="0.3599">
        <ele>148.93289</ele>
        <time>2021-09-06T14:52:05.000Z</time>
      </trkpt>
      <trkpt lat="48.51498" lon="0.36028">
        <ele>148.886389</ele>
        <time>2021-09-06T14:52:10.000Z</time>
      </trkpt>
      <trkpt lat="48.51499" lon="0.36043">
        <ele>148.868801</ele>
        <time>2021-09-06T14:52:12.000Z</time>
      </trkpt>
      <trkpt lat="48.51499" lon="0.36074">
        <ele>148.830206</ele>
        <time>2021-09-06T14:52:17.000Z</time>
      </trkpt>
      <trkpt lat="48.51498" lon="0.36088">
        <ele>148.813868</ele>
        <time>2021-09-06T14:52:19.000Z</time>
      </trkpt>
      <trkpt lat="48.51498" lon="0.36102">
        <ele>148.795942</ele>
        <time>2021-09-06T14:52:21.000Z</time>
      </trkpt>
      <trkpt lat="48.51497" lon="0.3611">
        <ele>148.78704</ele>
        <time>2021-09-06T14:52:22.000Z</time>
      </trkpt>
      <trkpt lat="48.51498" lon="0.36131">
        <ele>148.922556</ele>
        <time>2021-09-06T14:52:25.000Z</time>
      </trkpt>
      <trkpt lat="48.515" lon="0.36173">
        <ele>149.205438</ele>
        <time>2021-09-06T14:52:30.000Z</time>
      </trkpt>
      <trkpt lat="48.51501" lon="0.3622">
        <ele>149.524052</ele>
        <time>2021-09-06T14:52:36.000Z</time>
      </trkpt>
      <trkpt lat="48.51501" lon="0.36227">
        <ele>149.577108</ele>
        <time>2021-09-06T14:52:37.000Z</time>
      </trkpt>
      <trkpt lat="48.51505" lon="0.36267">
        <ele>149.8483</ele>
        <time>2021-09-06T14:52:42.000Z</time>
      </trkpt>
      <trkpt lat="48.51506" lon="0.36281">
        <ele>149.947871</ele>
        <time>2021-09-06T14:52:44.000Z</time>
      </trkpt>
      <trkpt lat="48.51508" lon="0.36296">
        <ele>150.047529</ele>
        <time>2021-09-06T14:52:46.000Z</time>
      </trkpt>
      <trkpt lat="48.51509" lon="0.36303">
        <ele>150.100173</ele>
        <time>2021-09-06T14:52:47.000Z</time>
      </trkpt>
      <trkpt lat="48.51512" lon="0.36326">
        <ele>150.258892</ele>
        <time>2021-09-06T14:52:50.000Z</time>
      </trkpt>
      <trkpt lat="48.51515" lon="0.36341">
        <ele>150.363344</ele>
        <time>2021-09-06T14:52:52.000Z</time>
      </trkpt>
      <trkpt lat="48.5152" lon="0.36377">
        <ele>150.609798</ele>
        <time>2021-09-06T14:52:57.000Z</time>
      </trkpt>
      <trkpt lat="48.51523" lon="0.3639">
        <ele>150.788898</ele>
        <time>2021-09-06T14:52:59.000Z</time>
      </trkpt>
      <trkpt lat="48.5153" lon="0.3644">
        <ele>151.494604</ele>
        <time>2021-09-06T14:53:06.000Z</time>
      </trkpt>
      <trkpt lat="48.51531" lon="0.3645">
        <ele>151.648048</ele>
        <time>2021-09-06T14:53:09.000Z</time>
      </trkpt>
      <trkpt lat="48.51531" lon="0.36446">
        <ele>151.711094</ele>
        <time>2021-09-06T14:53:13.000Z</time>
      </trkpt>
      <trkpt lat="48.51531" lon="0.36444">
        <ele>151.735</ele>
        <time>2021-09-06T14:53:16.000Z</time>
      </trkpt>
      <trkpt lat="48.51531" lon="0.36451">
        <ele>151.826473</ele>
        <time>2021-09-06T14:53:28.000Z</time>
      </trkpt>
      <trkpt lat="48.51531" lon="0.36454">
        <ele>151.869859</ele>
        <time>2021-09-06T14:53:29.000Z</time>
      </trkpt>
      <trkpt lat="48.51535" lon="0.36475">
        <ele>152.181733</ele>
        <time>2021-09-06T14:53:34.000Z</time>
      </trkpt>
      <trkpt lat="48.51537" lon="0.36487">
        <ele>152.347716</ele>
        <time>2021-09-06T14:53:36.000Z</time>
      </trkpt>
      <trkpt lat="48.51539" lon="0.365">
        <ele>152.53446</ele>
        <time>2021-09-06T14:53:38.000Z</time>
      </trkpt>
      <trkpt lat="48.5154" lon="0.36506">
        <ele>152.62502</ele>
        <time>2021-09-06T14:53:39.000Z</time>
      </trkpt>
      <trkpt lat="48.51545" lon="0.36525">
        <ele>152.907699</ele>
        <time>2021-09-06T14:53:42.000Z</time>
      </trkpt>
      <trkpt lat="48.51551" lon="0.36552">
        <ele>153.309121</ele>
        <time>2021-09-06T14:53:47.000Z</time>
      </trkpt>
      <trkpt lat="48.5156" lon="0.36588">
        <ele>153.842175</ele>
        <time>2021-09-06T14:53:53.000Z</time>
      </trkpt>
      <trkpt lat="48.51568" lon="0.3662">
        <ele>154.31824</ele>
        <time>2021-09-06T14:53:58.000Z</time>
      </trkpt>
      <trkpt lat="48.51579" lon="0.36663">
        <ele>154.77999</ele>
        <time>2021-09-06T14:54:04.000Z</time>
      </trkpt>
      <trkpt lat="48.51591" lon="0.36707">
        <ele>155.208429</ele>
        <time>2021-09-06T14:54:10.000Z</time>
      </trkpt>
      <trkpt lat="48.51602" lon="0.36748">
        <ele>155.619113</ele>
        <time>2021-09-06T14:54:16.000Z</time>
      </trkpt>
      <trkpt lat="48.51606" lon="0.36762">
        <ele>155.753666</ele>
        <time>2021-09-06T14:54:18.000Z</time>
      </trkpt>
      <trkpt lat="48.51612" lon="0.36781">
        <ele>155.951613</ele>
        <time>2021-09-06T14:54:21.000Z</time>
      </trkpt>
      <trkpt lat="48.5162" lon="0.36811">
        <ele>156.243287</ele>
        <time>2021-09-06T14:54:26.000Z</time>
      </trkpt>
      <trkpt lat="48.51625" lon="0.36833">
        <ele>156.449112</ele>
        <time>2021-09-06T14:54:30.000Z</time>
      </trkpt>
      <trkpt lat="48.51634" lon="0.36868">
        <ele>156.802039</ele>
        <time>2021-09-06T14:54:36.000Z</time>
      </trkpt>
      <trkpt lat="48.51638" lon="0.36881">
        <ele>156.926352</ele>
        <time>2021-09-06T14:54:38.000Z</time>
      </trkpt>
      <trkpt lat="48.51644" lon="0.36906">
        <ele>157.147145</ele>
        <time>2021-09-06T14:54:42.000Z</time>
      </trkpt>
      <trkpt lat="48.51655" lon="0.3695">
        <ele>157.539126</ele>
        <time>2021-09-06T14:54:49.000Z</time>
      </trkpt>
      <trkpt lat="48.51657" lon="0.36956">
        <ele>157.593362</ele>
        <time>2021-09-06T14:54:50.000Z</time>
      </trkpt>
      <trkpt lat="48.51664" lon="0.36982">
        <ele>157.82231</ele>
        <time>2021-09-06T14:54:54.000Z</time>
      </trkpt>
      <trkpt lat="48.51671" lon="0.37007">
        <ele>158.041903</ele>
        <time>2021-09-06T14:54:58.000Z</time>
      </trkpt>
      <trkpt lat="48.51678" lon="0.37037">
        <ele>158.309298</ele>
        <time>2021-09-06T14:55:03.000Z</time>
      </trkpt>
      <trkpt lat="48.51685" lon="0.37068">
        <ele>158.583576</ele>
        <time>2021-09-06T14:55:08.000Z</time>
      </trkpt>
      <trkpt lat="48.51696" lon="0.3711">
        <ele>158.953706</ele>
        <time>2021-09-06T14:55:14.000Z</time>
      </trkpt>
      <trkpt lat="48.51709" lon="0.37152">
        <ele>159.281767</ele>
        <time>2021-09-06T14:55:20.000Z</time>
      </trkpt>
      <trkpt lat="48.51721" lon="0.372">
        <ele>159.583865</ele>
        <time>2021-09-06T14:55:27.000Z</time>
      </trkpt>
      <trkpt lat="48.51723" lon="0.37207">
        <ele>159.627177</ele>
        <time>2021-09-06T14:55:28.000Z</time>
      </trkpt>
      <trkpt lat="48.51732" lon="0.37241">
        <ele>159.836151</ele>
        <time>2021-09-06T14:55:33.000Z</time>
      </trkpt>
      <trkpt lat="48.51733" lon="0.37248">
        <ele>159.882741</ele>
        <time>2021-09-06T14:55:34.000Z</time>
      </trkpt>
      <trkpt lat="48.51749" lon="0.37303">
        <ele>160.235185</ele>
        <time>2021-09-06T14:55:42.000Z</time>
      </trkpt>
      <trkpt lat="48.51759" lon="0.37343">
        <ele>160.481717</ele>
        <time>2021-09-06T14:55:48.000Z</time>
      </trkpt>
      <trkpt lat="48.51772" lon="0.37392">
        <ele>160.76132</ele>
        <time>2021-09-06T14:55:55.000Z</time>
      </trkpt>
      <trkpt lat="48.51783" lon="0.37436">
        <ele>160.897878</ele>
        <time>2021-09-06T14:56:01.000Z</time>
      </trkpt>
      <trkpt lat="48.51786" lon="0.3745">
        <ele>160.940145</ele>
        <time>2021-09-06T14:56:03.000Z</time>
      </trkpt>
      <trkpt lat="48.51792" lon="0.3747">
        <ele>161.003792</ele>
        <time>2021-09-06T14:56:06.000Z</time>
      </trkpt>
      <trkpt lat="48.51804" lon="0.37515">
        <ele>161.142935</ele>
        <time>2021-09-06T14:56:12.000Z</time>
      </trkpt>
      <trkpt lat="48.51813" lon="0.37556">
        <ele>161.270008</ele>
        <time>2021-09-06T14:56:18.000Z</time>
      </trkpt>
      <trkpt lat="48.51825" lon="0.37597">
        <ele>161.400103</ele>
        <time>2021-09-06T14:56:24.000Z</time>
      </trkpt>
      <trkpt lat="48.5184" lon="0.37652">
        <ele>161.574731</ele>
        <time>2021-09-06T14:56:31.000Z</time>
      </trkpt>
      <trkpt lat="48.51846" lon="0.37675">
        <ele>161.649283</ele>
        <time>2021-09-06T14:56:34.000Z</time>
      </trkpt>
      <trkpt lat="48.5185" lon="0.37689">
        <ele>161.698612</ele>
        <time>2021-09-06T14:56:36.000Z</time>
      </trkpt>
      <trkpt lat="48.51856" lon="0.37711">
        <ele>161.77055</ele>
        <time>2021-09-06T14:56:39.000Z</time>
      </trkpt>
      <trkpt lat="48.51859" lon="0.37727">
        <ele>161.819749</ele>
        <time>2021-09-06T14:56:41.000Z</time>
      </trkpt>
      <trkpt lat="48.51861" lon="0.37734">
        <ele>161.844468</ele>
        <time>2021-09-06T14:56:42.000Z</time>
      </trkpt>
      <trkpt lat="48.51864" lon="0.37749">
        <ele>161.893521</ele>
        <time>2021-09-06T14:56:44.000Z</time>
      </trkpt>
      <trkpt lat="48.51867" lon="0.37757">
        <ele>161.918415</ele>
        <time>2021-09-06T14:56:45.000Z</time>
      </trkpt>
      <trkpt lat="48.51876" lon="0.37789">
        <ele>162.0262</ele>
        <time>2021-09-06T14:56:49.000Z</time>
      </trkpt>
      <trkpt lat="48.51881" lon="0.37805">
        <ele>162.079066</ele>
        <time>2021-09-06T14:56:51.000Z</time>
      </trkpt>
      <trkpt lat="48.51894" lon="0.37851">
        <ele>162.233123</ele>
        <time>2021-09-06T14:56:57.000Z</time>
      </trkpt>
      <trkpt lat="48.51907" lon="0.37898">
        <ele>162.273895</ele>
        <time>2021-09-06T14:57:03.000Z</time>
      </trkpt>
      <trkpt lat="48.5192" lon="0.37946">
        <ele>161.942886</ele>
        <time>2021-09-06T14:57:09.000Z</time>
      </trkpt>
      <trkpt lat="48.51926" lon="0.37968">
        <ele>161.794828</ele>
        <time>2021-09-06T14:57:12.000Z</time>
      </trkpt>
      <trkpt lat="48.51929" lon="0.37981">
        <ele>161.702418</ele>
        <time>2021-09-06T14:57:14.000Z</time>
      </trkpt>
      <trkpt lat="48.51938" lon="0.38017">
        <ele>161.4613</ele>
        <time>2021-09-06T14:57:19.000Z</time>
      </trkpt>
      <trkpt lat="48.51939" lon="0.38023">
        <ele>161.417368</ele>
        <time>2021-09-06T14:57:20.000Z</time>
      </trkpt>
      <trkpt lat="48.51943" lon="0.38036">
        <ele>161.331177</ele>
        <time>2021-09-06T14:57:22.000Z</time>
      </trkpt>
      <trkpt lat="48.51951" lon="0.38067">
        <ele>161.113797</ele>
        <time>2021-09-06T14:57:28.000Z</time>
      </trkpt>
      <trkpt lat="48.5196" lon="0.38098">
        <ele>160.902089</ele>
        <time>2021-09-06T14:57:34.000Z</time>
      </trkpt>
      <trkpt lat="48.51968" lon="0.38128">
        <ele>160.694682</ele>
        <time>2021-09-06T14:57:41.000Z</time>
      </trkpt>
      <trkpt lat="48.51974" lon="0.3816">
        <ele>160.381245</ele>
        <time>2021-09-06T14:57:47.000Z</time>
      </trkpt>
      <trkpt lat="48.51975" lon="0.38167">
        <ele>160.300878</ele>
        <time>2021-09-06T14:57:48.000Z</time>
      </trkpt>
      <trkpt lat="48.51983" lon="0.38196">
        <ele>159.943816</ele>
        <time>2021-09-06T14:57:52.000Z</time>
      </trkpt>
      <trkpt lat="48.51996" lon="0.38243">
        <ele>159.381213</ele>
        <time>2021-09-06T14:57:59.000Z</time>
      </trkpt>
      <trkpt lat="48.52009" lon="0.38288">
        <ele>158.838521</ele>
        <time>2021-09-06T14:58:06.000Z</time>
      </trkpt>
      <trkpt lat="48.52011" lon="0.38296">
        <ele>158.746479</ele>
        <time>2021-09-06T14:58:07.000Z</time>
      </trkpt>
      <trkpt lat="48.52018" lon="0.38318">
        <ele>158.472372</ele>
        <time>2021-09-06T14:58:10.000Z</time>
      </trkpt>
      <trkpt lat="48.5202" lon="0.38325">
        <ele>158.384093</ele>
        <time>2021-09-06T14:58:11.000Z</time>
      </trkpt>
      <trkpt lat="48.52032" lon="0.38376">
        <ele>157.783567</ele>
        <time>2021-09-06T14:58:18.000Z</time>
      </trkpt>
      <trkpt lat="48.52047" lon="0.38433">
        <ele>157.29444</ele>
        <time>2021-09-06T14:58:25.000Z</time>
      </trkpt>
      <trkpt lat="48.52063" lon="0.38493">
        <ele>156.85884</ele>
        <time>2021-09-06T14:58:32.000Z</time>
      </trkpt>
      <trkpt lat="48.52079" lon="0.38551">
        <ele>156.439748</ele>
        <time>2021-09-06T14:58:39.000Z</time>
      </trkpt>
      <trkpt lat="48.52087" lon="0.38579">
        <ele>156.230963</ele>
        <time>2021-09-06T14:58:43.000Z</time>
      </trkpt>
      <trkpt lat="48.52088" lon="0.38585">
        <ele>156.189685</ele>
        <time>2021-09-06T14:58:44.000Z</time>
      </trkpt>
      <trkpt lat="48.52091" lon="0.38597">
        <ele>156.107314</ele>
        <time>2021-09-06T14:58:46.000Z</time>
      </trkpt>
      <trkpt lat="48.52095" lon="0.38609">
        <ele>156.013648</ele>
        <time>2021-09-06T14:58:48.000Z</time>
      </trkpt>
      <trkpt lat="48.52097" lon="0.38616">
        <ele>155.95957</ele>
        <time>2021-09-06T14:58:49.000Z</time>
      </trkpt>
      <trkpt lat="48.52112" lon="0.38674">
        <ele>155.782675</ele>
        <time>2021-09-06T14:58:56.000Z</time>
      </trkpt>
      <trkpt lat="48.52125" lon="0.38724">
        <ele>155.808345</ele>
        <time>2021-09-06T14:59:02.000Z</time>
      </trkpt>
      <trkpt lat="48.52138" lon="0.38776">
        <ele>155.83534</ele>
        <time>2021-09-06T14:59:08.000Z</time>
      </trkpt>
      <trkpt lat="48.52152" lon="0.38837">
        <ele>155.866415</ele>
        <time>2021-09-06T14:59:15.000Z</time>
      </trkpt>
      <trkpt lat="48.52166" lon="0.3889">
        <ele>155.894114</ele>
        <time>2021-09-06T14:59:21.000Z</time>
      </trkpt>
      <trkpt lat="48.5217" lon="0.38907">
        <ele>155.899211</ele>
        <time>2021-09-06T14:59:23.000Z</time>
      </trkpt>
      <trkpt lat="48.52176" lon="0.3893">
        <ele>155.902367</ele>
        <time>2021-09-06T14:59:26.000Z</time>
      </trkpt>
      <trkpt lat="48.52189" lon="0.38988">
        <ele>155.910235</ele>
        <time>2021-09-06T14:59:33.000Z</time>
      </trkpt>
      <trkpt lat="48.52203" lon="0.3905">
        <ele>155.918633</ele>
        <time>2021-09-06T14:59:40.000Z</time>
      </trkpt>
      <trkpt lat="48.52212" lon="0.39094">
        <ele>155.924532</ele>
        <time>2021-09-06T14:59:45.000Z</time>
      </trkpt>
      <trkpt lat="48.52216" lon="0.3911">
        <ele>155.926776</ele>
        <time>2021-09-06T14:59:47.000Z</time>
      </trkpt>
      <trkpt lat="48.52227" lon="0.39167">
        <ele>155.903418</ele>
        <time>2021-09-06T14:59:54.000Z</time>
      </trkpt>
      <trkpt lat="48.52231" lon="0.39184">
        <ele>155.864646</ele>
        <time>2021-09-06T14:59:56.000Z</time>
      </trkpt>
      <trkpt lat="48.52235" lon="0.3921">
        <ele>155.80656</ele>
        <time>2021-09-06T14:59:59.000Z</time>
      </trkpt>
      <trkpt lat="48.52248" lon="0.3928">
        <ele>155.650159</ele>
        <time>2021-09-06T15:00:07.000Z</time>
      </trkpt>
      <trkpt lat="48.52259" lon="0.3934">
        <ele>155.513752</ele>
        <time>2021-09-06T15:00:14.000Z</time>
      </trkpt>
      <trkpt lat="48.52269" lon="0.39392">
        <ele>155.396954</ele>
        <time>2021-09-06T15:00:20.000Z</time>
      </trkpt>
      <trkpt lat="48.52279" lon="0.39451">
        <ele>155.252462</ele>
        <time>2021-09-06T15:00:27.000Z</time>
      </trkpt>
      <trkpt lat="48.52288" lon="0.39512">
        <ele>155.094356</ele>
        <time>2021-09-06T15:00:34.000Z</time>
      </trkpt>
      <trkpt lat="48.52292" lon="0.39539">
        <ele>155.026815</ele>
        <time>2021-09-06T15:00:37.000Z</time>
      </trkpt>
      <trkpt lat="48.52294" lon="0.39554">
        <ele>154.987155</ele>
        <time>2021-09-06T15:00:39.000Z</time>
      </trkpt>
      <trkpt lat="48.52295" lon="0.39563">
        <ele>154.964207</ele>
        <time>2021-09-06T15:00:40.000Z</time>
      </trkpt>
      <trkpt lat="48.52298" lon="0.39581">
        <ele>154.919215</ele>
        <time>2021-09-06T15:00:42.000Z</time>
      </trkpt>
      <trkpt lat="48.523" lon="0.39606">
        <ele>154.85592</ele>
        <time>2021-09-06T15:00:45.000Z</time>
      </trkpt>
      <trkpt lat="48.52305" lon="0.39639">
        <ele>154.769611</ele>
        <time>2021-09-06T15:00:49.000Z</time>
      </trkpt>
      <trkpt lat="48.52306" lon="0.39648">
        <ele>154.748666</ele>
        <time>2021-09-06T15:00:50.000Z</time>
      </trkpt>
      <trkpt lat="48.52309" lon="0.39674">
        <ele>154.682256</ele>
        <time>2021-09-06T15:00:53.000Z</time>
      </trkpt>
      <trkpt lat="48.52317" lon="0.39731">
        <ele>154.422083</ele>
        <time>2021-09-06T15:01:00.000Z</time>
      </trkpt>
      <trkpt lat="48.52322" lon="0.3977">
        <ele>154.235048</ele>
        <time>2021-09-06T15:01:05.000Z</time>
      </trkpt>
      <trkpt lat="48.52329" lon="0.3983">
        <ele>153.946403</ele>
        <time>2021-09-06T15:01:12.000Z</time>
      </trkpt>
      <trkpt lat="48.52337" lon="0.39897">
        <ele>153.624876</ele>
        <time>2021-09-06T15:01:20.000Z</time>
      </trkpt>
      <trkpt lat="48.52342" lon="0.3995">
        <ele>153.372009</ele>
        <time>2021-09-06T15:01:27.000Z</time>
      </trkpt>
      <trkpt lat="48.52343" lon="0.39958">
        <ele>153.338178</ele>
        <time>2021-09-06T15:01:28.000Z</time>
      </trkpt>
      <trkpt lat="48.52346" lon="0.39988">
        <ele>153.206181</ele>
        <time>2021-09-06T15:01:32.000Z</time>
      </trkpt>
      <trkpt lat="48.52352" lon="0.40044">
        <ele>152.961698</ele>
        <time>2021-09-06T15:01:39.000Z</time>
      </trkpt>
      <trkpt lat="48.52354" lon="0.40095">
        <ele>152.741343</ele>
        <time>2021-09-06T15:01:45.000Z</time>
      </trkpt>
      <trkpt lat="48.52357" lon="0.40145">
        <ele>152.525128</ele>
        <time>2021-09-06T15:01:51.000Z</time>
      </trkpt>
      <trkpt lat="48.5236" lon="0.40186">
        <ele>152.345766</ele>
        <time>2021-09-06T15:01:56.000Z</time>
      </trkpt>
      <trkpt lat="48.52363" lon="0.40229">
        <ele>152.199558</ele>
        <time>2021-09-06T15:02:01.000Z</time>
      </trkpt>
      <trkpt lat="48.52367" lon="0.40278">
        <ele>152.166276</ele>
        <time>2021-09-06T15:02:07.000Z</time>
      </trkpt>
      <trkpt lat="48.52367" lon="0.40286">
        <ele>152.160781</ele>
        <time>2021-09-06T15:02:08.000Z</time>
      </trkpt>
      <trkpt lat="48.52369" lon="0.40327">
        <ele>152.13332</ele>
        <time>2021-09-06T15:02:13.000Z</time>
      </trkpt>
      <trkpt lat="48.5237" lon="0.40343">
        <ele>152.12273</ele>
        <time>2021-09-06T15:02:15.000Z</time>
      </trkpt>
      <trkpt lat="48.52372" lon="0.4037">
        <ele>152.104849</ele>
        <time>2021-09-06T15:02:18.000Z</time>
      </trkpt>
      <trkpt lat="48.52373" lon="0.40415">
        <ele>152.07425</ele>
        <time>2021-09-06T15:02:23.000Z</time>
      </trkpt>
      <trkpt lat="48.52375" lon="0.40451">
        <ele>152.050266</ele>
        <time>2021-09-06T15:02:27.000Z</time>
      </trkpt>
      <trkpt lat="48.52375" lon="0.4046">
        <ele>152.044155</ele>
        <time>2021-09-06T15:02:28.000Z</time>
      </trkpt>
      <trkpt lat="48.52376" lon="0.40486">
        <ele>152.027031</ele>
        <time>2021-09-06T15:02:31.000Z</time>
      </trkpt>
      <trkpt lat="48.52377" lon="0.40511">
        <ele>152.017836</ele>
        <time>2021-09-06T15:02:34.000Z</time>
      </trkpt>
      <trkpt lat="48.52378" lon="0.40562">
        <ele>152.001807</ele>
        <time>2021-09-06T15:02:40.000Z</time>
      </trkpt>
      <trkpt lat="48.5238" lon="0.40615">
        <ele>151.98542</ele>
        <time>2021-09-06T15:02:46.000Z</time>
      </trkpt>
      <trkpt lat="48.5238" lon="0.40623">
        <ele>151.983085</ele>
        <time>2021-09-06T15:02:47.000Z</time>
      </trkpt>
      <trkpt lat="48.5238" lon="0.40638">
        <ele>151.978293</ele>
        <time>2021-09-06T15:02:49.000Z</time>
      </trkpt>
      <trkpt lat="48.5238" lon="0.40654">
        <ele>151.973155</ele>
        <time>2021-09-06T15:02:51.000Z</time>
      </trkpt>
      <trkpt lat="48.52382" lon="0.40679">
        <ele>151.965472</ele>
        <time>2021-09-06T15:02:54.000Z</time>
      </trkpt>
      <trkpt lat="48.52383" lon="0.40696">
        <ele>151.960231</ele>
        <time>2021-09-06T15:02:56.000Z</time>
      </trkpt>
      <trkpt lat="48.52383" lon="0.40713">
        <ele>151.954841</ele>
        <time>2021-09-06T15:02:58.000Z</time>
      </trkpt>
      <trkpt lat="48.52385" lon="0.40764">
        <ele>151.953407</ele>
        <time>2021-09-06T15:03:04.000Z</time>
      </trkpt>
      <trkpt lat="48.52387" lon="0.40804">
        <ele>152.080863</ele>
        <time>2021-09-06T15:03:09.000Z</time>
      </trkpt>
      <trkpt lat="48.52389" lon="0.40845">
        <ele>152.212455</ele>
        <time>2021-09-06T15:03:15.000Z</time>
      </trkpt>
      <trkpt lat="48.52388" lon="0.40887">
        <ele>152.349878</ele>
        <time>2021-09-06T15:03:21.000Z</time>
      </trkpt>
      <trkpt lat="48.52389" lon="0.40923">
        <ele>152.463138</ele>
        <time>2021-09-06T15:03:26.000Z</time>
      </trkpt>
      <trkpt lat="48.5239" lon="0.40996">
        <ele>152.700007</ele>
        <time>2021-09-06T15:03:35.000Z</time>
      </trkpt>
      <trkpt lat="48.5239" lon="0.4105">
        <ele>152.870702</ele>
        <time>2021-09-06T15:03:42.000Z</time>
      </trkpt>
      <trkpt lat="48.52389" lon="0.41089">
        <ele>152.986839</ele>
        <time>2021-09-06T15:03:47.000Z</time>
      </trkpt>
      <trkpt lat="48.52389" lon="0.41096">
        <ele>153.010227</ele>
        <time>2021-09-06T15:03:48.000Z</time>
      </trkpt>
      <trkpt lat="48.52388" lon="0.41158">
        <ele>153.196454</ele>
        <time>2021-09-06T15:03:56.000Z</time>
      </trkpt>
      <trkpt lat="48.52387" lon="0.41203">
        <ele>153.335918</ele>
        <time>2021-09-06T15:04:03.000Z</time>
      </trkpt>
      <trkpt lat="48.52387" lon="0.41234">
        <ele>153.427385</ele>
        <time>2021-09-06T15:04:08.000Z</time>
      </trkpt>
      <trkpt lat="48.52385" lon="0.41286">
        <ele>153.587971</ele>
        <time>2021-09-06T15:04:16.000Z</time>
      </trkpt>
      <trkpt lat="48.52383" lon="0.41307">
        <ele>153.599958</ele>
        <time>2021-09-06T15:04:19.000Z</time>
      </trkpt>
      <trkpt lat="48.52382" lon="0.41325">
        <ele>153.410606</ele>
        <time>2021-09-06T15:04:22.000Z</time>
      </trkpt>
      <trkpt lat="48.5238" lon="0.41351">
        <ele>153.139682</ele>
        <time>2021-09-06T15:04:27.000Z</time>
      </trkpt>
      <trkpt lat="48.52379" lon="0.41379">
        <ele>152.847266</ele>
        <time>2021-09-06T15:04:32.000Z</time>
      </trkpt>
      <trkpt lat="48.52375" lon="0.41407">
        <ele>152.54992</ele>
        <time>2021-09-06T15:04:37.000Z</time>
      </trkpt>
      <trkpt lat="48.52375" lon="0.41437">
        <ele>152.237317</ele>
        <time>2021-09-06T15:04:42.000Z</time>
      </trkpt>
      <trkpt lat="48.5237" lon="0.41474">
        <ele>151.843523</ele>
        <time>2021-09-06T15:04:48.000Z</time>
      </trkpt>
      <trkpt lat="48.52368" lon="0.41498">
        <ele>151.586562</ele>
        <time>2021-09-06T15:04:52.000Z</time>
      </trkpt>
      <trkpt lat="48.52362" lon="0.41532">
        <ele>151.223497</ele>
        <time>2021-09-06T15:04:57.000Z</time>
      </trkpt>
      <trkpt lat="48.52359" lon="0.41577">
        <ele>150.805614</ele>
        <time>2021-09-06T15:05:03.000Z</time>
      </trkpt>
      <trkpt lat="48.52359" lon="0.41584">
        <ele>150.79635</ele>
        <time>2021-09-06T15:05:04.000Z</time>
      </trkpt>
      <trkpt lat="48.52358" lon="0.41599">
        <ele>150.77742</ele>
        <time>2021-09-06T15:05:06.000Z</time>
      </trkpt>
      <trkpt lat="48.52354" lon="0.41627">
        <ele>150.741743</ele>
        <time>2021-09-06T15:05:10.000Z</time>
      </trkpt>
      <trkpt lat="48.52352" lon="0.41649">
        <ele>150.714263</ele>
        <time>2021-09-06T15:05:13.000Z</time>
      </trkpt>
      <trkpt lat="48.5235" lon="0.41671">
        <ele>150.686813</ele>
        <time>2021-09-06T15:05:16.000Z</time>
      </trkpt>
      <trkpt lat="48.52349" lon="0.41679">
        <ele>150.677611</ele>
        <time>2021-09-06T15:05:17.000Z</time>
      </trkpt>
      <trkpt lat="48.52346" lon="0.41708">
        <ele>150.641206</ele>
        <time>2021-09-06T15:05:21.000Z</time>
      </trkpt>
      <trkpt lat="48.52343" lon="0.41743">
        <ele>150.597147</ele>
        <time>2021-09-06T15:05:25.000Z</time>
      </trkpt>
      <trkpt lat="48.52342" lon="0.41752">
        <ele>150.585805</ele>
        <time>2021-09-06T15:05:26.000Z</time>
      </trkpt>
      <trkpt lat="48.52337" lon="0.418">
        <ele>150.525344</ele>
        <time>2021-09-06T15:05:32.000Z</time>
      </trkpt>
      <trkpt lat="48.52335" lon="0.41824">
        <ele>150.495808</ele>
        <time>2021-09-06T15:05:34.000Z</time>
      </trkpt>
      <trkpt lat="48.52332" lon="0.41848">
        <ele>150.4535</ele>
        <time>2021-09-06T15:05:37.000Z</time>
      </trkpt>
      <trkpt lat="48.52328" lon="0.41899">
        <ele>150.316861</ele>
        <time>2021-09-06T15:05:43.000Z</time>
      </trkpt>
      <trkpt lat="48.52325" lon="0.41926">
        <ele>150.243863</ele>
        <time>2021-09-06T15:05:46.000Z</time>
      </trkpt>
      <trkpt lat="48.52323" lon="0.41941">
        <ele>150.202954</ele>
        <time>2021-09-06T15:05:48.000Z</time>
      </trkpt>
      <trkpt lat="48.52318" lon="0.41989">
        <ele>150.071333</ele>
        <time>2021-09-06T15:05:54.000Z</time>
      </trkpt>
      <trkpt lat="48.52317" lon="0.41998">
        <ele>150.049325</ele>
        <time>2021-09-06T15:05:55.000Z</time>
      </trkpt>
      <trkpt lat="48.52312" lon="0.42037">
        <ele>149.942671</ele>
        <time>2021-09-06T15:06:00.000Z</time>
      </trkpt>
      <trkpt lat="48.52307" lon="0.4208">
        <ele>149.826637</ele>
        <time>2021-09-06T15:06:06.000Z</time>
      </trkpt>
      <trkpt lat="48.52304" lon="0.42107">
        <ele>149.75218</ele>
        <time>2021-09-06T15:06:10.000Z</time>
      </trkpt>
      <trkpt lat="48.523" lon="0.42133">
        <ele>149.945279</ele>
        <time>2021-09-06T15:06:14.000Z</time>
      </trkpt>
      <trkpt lat="48.523" lon="0.42139">
        <ele>149.991283</ele>
        <time>2021-09-06T15:06:15.000Z</time>
      </trkpt>
      <trkpt lat="48.52295" lon="0.4218">
        <ele>150.313484</ele>
        <time>2021-09-06T15:06:21.000Z</time>
      </trkpt>
      <trkpt lat="48.5229" lon="0.42222">
        <ele>150.640812</ele>
        <time>2021-09-06T15:06:27.000Z</time>
      </trkpt>
      <trkpt lat="48.52285" lon="0.42266">
        <ele>150.990996</ele>
        <time>2021-09-06T15:06:33.000Z</time>
      </trkpt>
      <trkpt lat="48.52277" lon="0.42333">
        <ele>151.514722</ele>
        <time>2021-09-06T15:06:42.000Z</time>
      </trkpt>
      <trkpt lat="48.52269" lon="0.42397">
        <ele>152.061839</ele>
        <time>2021-09-06T15:06:51.000Z</time>
      </trkpt>
      <trkpt lat="48.52268" lon="0.42404">
        <ele>152.121466</ele>
        <time>2021-09-06T15:06:52.000Z</time>
      </trkpt>
      <trkpt lat="48.52268" lon="0.4241">
        <ele>152.185449</ele>
        <time>2021-09-06T15:06:53.000Z</time>
      </trkpt>
      <trkpt lat="48.52266" lon="0.42423">
        <ele>152.312078</ele>
        <time>2021-09-06T15:06:55.000Z</time>
      </trkpt>
      <trkpt lat="48.52265" lon="0.42436">
        <ele>152.434984</ele>
        <time>2021-09-06T15:06:57.000Z</time>
      </trkpt>
      <trkpt lat="48.52264" lon="0.42454">
        <ele>152.607541</ele>
        <time>2021-09-06T15:07:00.000Z</time>
      </trkpt>
      <trkpt lat="48.5226" lon="0.42484">
        <ele>152.907563</ele>
        <time>2021-09-06T15:07:05.000Z</time>
      </trkpt>
      <trkpt lat="48.52256" lon="0.42517">
        <ele>153.23163</ele>
        <time>2021-09-06T15:07:10.000Z</time>
      </trkpt>
      <trkpt lat="48.52251" lon="0.4255">
        <ele>153.552449</ele>
        <time>2021-09-06T15:07:15.000Z</time>
      </trkpt>
      <trkpt lat="48.52249" lon="0.42585">
        <ele>153.89696</ele>
        <time>2021-09-06T15:07:20.000Z</time>
      </trkpt>
      <trkpt lat="48.52245" lon="0.42623">
        <ele>154.260224</ele>
        <time>2021-09-06T15:07:25.000Z</time>
      </trkpt>
      <trkpt lat="48.52239" lon="0.42667">
        <ele>154.567781</ele>
        <time>2021-09-06T15:07:31.000Z</time>
      </trkpt>
      <trkpt lat="48.52236" lon="0.42699">
        <ele>154.707387</ele>
        <time>2021-09-06T15:07:35.000Z</time>
      </trkpt>
      <trkpt lat="48.52234" lon="0.42724">
        <ele>154.816071</ele>
        <time>2021-09-06T15:07:38.000Z</time>
      </trkpt>
      <trkpt lat="48.52233" lon="0.42739">
        <ele>154.880137</ele>
        <time>2021-09-06T15:07:40.000Z</time>
      </trkpt>
      <trkpt lat="48.52232" lon="0.42761">
        <ele>154.975055</ele>
        <time>2021-09-06T15:07:43.000Z</time>
      </trkpt>
      <trkpt lat="48.52232" lon="0.42776">
        <ele>155.040854</ele>
        <time>2021-09-06T15:07:45.000Z</time>
      </trkpt>
      <trkpt lat="48.52231" lon="0.42789">
        <ele>155.100366</ele>
        <time>2021-09-06T15:07:47.000Z</time>
      </trkpt>
      <trkpt lat="48.5223" lon="0.42805">
        <ele>155.167463</ele>
        <time>2021-09-06T15:07:49.000Z</time>
      </trkpt>
      <trkpt lat="48.52229" lon="0.42813">
        <ele>155.201445</ele>
        <time>2021-09-06T15:07:50.000Z</time>
      </trkpt>
      <trkpt lat="48.52227" lon="0.42835">
        <ele>155.300053</ele>
        <time>2021-09-06T15:07:53.000Z</time>
      </trkpt>
      <trkpt lat="48.52225" lon="0.42861">
        <ele>155.411945</ele>
        <time>2021-09-06T15:07:57.000Z</time>
      </trkpt>
      <trkpt lat="48.52223" lon="0.42912">
        <ele>155.633425</ele>
        <time>2021-09-06T15:08:03.000Z</time>
      </trkpt>
      <trkpt lat="48.52221" lon="0.4294">
        <ele>155.859141</ele>
        <time>2021-09-06T15:08:06.000Z</time>
      </trkpt>
      <trkpt lat="48.52217" lon="0.42957">
        <ele>156.008563</ele>
        <time>2021-09-06T15:08:08.000Z</time>
      </trkpt>
      <trkpt lat="48.52213" lon="0.42972">
        <ele>156.145222</ele>
        <time>2021-09-06T15:08:10.000Z</time>
      </trkpt>
      <trkpt lat="48.52211" lon="0.42988">
        <ele>156.27583</ele>
        <time>2021-09-06T15:08:12.000Z</time>
      </trkpt>
      <trkpt lat="48.52211" lon="0.42995">
        <ele>156.334433</ele>
        <time>2021-09-06T15:08:13.000Z</time>
      </trkpt>
      <trkpt lat="48.52211" lon="0.43009">
        <ele>156.443515</ele>
        <time>2021-09-06T15:08:15.000Z</time>
      </trkpt>
      <trkpt lat="48.52211" lon="0.43022">
        <ele>156.547057</ele>
        <time>2021-09-06T15:08:17.000Z</time>
      </trkpt>
      <trkpt lat="48.52212" lon="0.43034">
        <ele>156.647904</ele>
        <time>2021-09-06T15:08:19.000Z</time>
      </trkpt>
      <trkpt lat="48.5221" lon="0.4307">
        <ele>156.938076</ele>
        <time>2021-09-06T15:08:25.000Z</time>
      </trkpt>
      <trkpt lat="48.52207" lon="0.43083">
        <ele>157.053536</ele>
        <time>2021-09-06T15:08:29.000Z</time>
      </trkpt>
      <trkpt lat="48.52216" lon="0.43101">
        <ele>157.238433</ele>
        <time>2021-09-06T15:08:34.000Z</time>
      </trkpt>
      <trkpt lat="48.52224" lon="0.43125">
        <ele>157.452375</ele>
        <time>2021-09-06T15:08:39.000Z</time>
      </trkpt>
      <trkpt lat="48.52227" lon="0.43166">
        <ele>157.790799</ele>
        <time>2021-09-06T15:08:45.000Z</time>
      </trkpt>
      <trkpt lat="48.52232" lon="0.43227">
        <ele>158.205159</ele>
        <time>2021-09-06T15:08:53.000Z</time>
      </trkpt>
      <trkpt lat="48.52236" lon="0.43278">
        <ele>158.539983</ele>
        <time>2021-09-06T15:08:59.000Z</time>
      </trkpt>
      <trkpt lat="48.52237" lon="0.43286">
        <ele>158.59627</ele>
        <time>2021-09-06T15:09:00.000Z</time>
      </trkpt>
      <trkpt lat="48.5224" lon="0.43319">
        <ele>158.817972</ele>
        <time>2021-09-06T15:09:04.000Z</time>
      </trkpt>
      <trkpt lat="48.52243" lon="0.43345">
        <ele>158.987572</ele>
        <time>2021-09-06T15:09:07.000Z</time>
      </trkpt>
      <trkpt lat="48.52245" lon="0.43364">
        <ele>159.112421</ele>
        <time>2021-09-06T15:09:09.000Z</time>
      </trkpt>
      <trkpt lat="48.52248" lon="0.43389">
        <ele>159.283028</ele>
        <time>2021-09-06T15:09:12.000Z</time>
      </trkpt>
      <trkpt lat="48.52251" lon="0.43406">
        <ele>159.394718</ele>
        <time>2021-09-06T15:09:14.000Z</time>
      </trkpt>
      <trkpt lat="48.52256" lon="0.43457">
        <ele>159.783508</ele>
        <time>2021-09-06T15:09:20.000Z</time>
      </trkpt>
      <trkpt lat="48.52258" lon="0.43476">
        <ele>159.962904</ele>
        <time>2021-09-06T15:09:22.000Z</time>
      </trkpt>
      <trkpt lat="48.52261" lon="0.43495">
        <ele>160.150279</ele>
        <time>2021-09-06T15:09:24.000Z</time>
      </trkpt>
      <trkpt lat="48.52262" lon="0.43504">
        <ele>160.245281</ele>
        <time>2021-09-06T15:09:25.000Z</time>
      </trkpt>
      <trkpt lat="48.52264" lon="0.43523">
        <ele>160.422552</ele>
        <time>2021-09-06T15:09:27.000Z</time>
      </trkpt>
      <trkpt lat="48.52267" lon="0.4354">
        <ele>160.592429</ele>
        <time>2021-09-06T15:09:29.000Z</time>
      </trkpt>
      <trkpt lat="48.52267" lon="0.43549">
        <ele>160.678641</ele>
        <time>2021-09-06T15:09:30.000Z</time>
      </trkpt>
      <trkpt lat="48.52267" lon="0.43575">
        <ele>160.930046</ele>
        <time>2021-09-06T15:09:33.000Z</time>
      </trkpt>
      <trkpt lat="48.52267" lon="0.43583">
        <ele>161.007799</ele>
        <time>2021-09-06T15:09:34.000Z</time>
      </trkpt>
      <trkpt lat="48.52268" lon="0.43592">
        <ele>161.08993</ele>
        <time>2021-09-06T15:09:35.000Z</time>
      </trkpt>
      <trkpt lat="48.52271" lon="0.43609">
        <ele>161.25423</ele>
        <time>2021-09-06T15:09:37.000Z</time>
      </trkpt>
      <trkpt lat="48.52272" lon="0.43617">
        <ele>161.33854</ele>
        <time>2021-09-06T15:09:38.000Z</time>
      </trkpt>
      <trkpt lat="48.52274" lon="0.43636">
        <ele>161.522647</ele>
        <time>2021-09-06T15:09:41.000Z</time>
      </trkpt>
      <trkpt lat="48.52281" lon="0.43689">
        <ele>162.0363</ele>
        <time>2021-09-06T15:09:47.000Z</time>
      </trkpt>
      <trkpt lat="48.52288" lon="0.4374">
        <ele>162.337713</ele>
        <time>2021-09-06T15:09:53.000Z</time>
      </trkpt>
      <trkpt lat="48.52294" lon="0.43778">
        <ele>162.470756</ele>
        <time>2021-09-06T15:09:58.000Z</time>
      </trkpt>
      <trkpt lat="48.52295" lon="0.43792">
        <ele>162.51797</ele>
        <time>2021-09-06T15:10:00.000Z</time>
      </trkpt>
      <trkpt lat="48.52296" lon="0.43805">
        <ele>162.562822</ele>
        <time>2021-09-06T15:10:02.000Z</time>
      </trkpt>
      <trkpt lat="48.52298" lon="0.43836">
        <ele>162.668984</ele>
        <time>2021-09-06T15:10:07.000Z</time>
      </trkpt>
      <trkpt lat="48.52301" lon="0.43858">
        <ele>162.747386</ele>
        <time>2021-09-06T15:10:11.000Z</time>
      </trkpt>
      <trkpt lat="48.52302" lon="0.43866">
        <ele>162.772261</ele>
        <time>2021-09-06T15:10:12.000Z</time>
      </trkpt>
      <trkpt lat="48.52306" lon="0.439">
        <ele>162.892757</ele>
        <time>2021-09-06T15:10:17.000Z</time>
      </trkpt>
      <trkpt lat="48.52312" lon="0.43946">
        <ele>163.050659</ele>
        <time>2021-09-06T15:10:24.000Z</time>
      </trkpt>
      <trkpt lat="48.52314" lon="0.43965">
        <ele>163.117519</ele>
        <time>2021-09-06T15:10:27.000Z</time>
      </trkpt>
      <trkpt lat="48.52315" lon="0.43979">
        <ele>163.187647</ele>
        <time>2021-09-06T15:10:29.000Z</time>
      </trkpt>
      <trkpt lat="48.5232" lon="0.44025">
        <ele>163.664753</ele>
        <time>2021-09-06T15:10:36.000Z</time>
      </trkpt>
      <trkpt lat="48.52325" lon="0.44072">
        <ele>164.146211</ele>
        <time>2021-09-06T15:10:44.000Z</time>
      </trkpt>
      <trkpt lat="48.52329" lon="0.44107">
        <ele>164.509237</ele>
        <time>2021-09-06T15:10:50.000Z</time>
      </trkpt>
      <trkpt lat="48.52333" lon="0.44151">
        <ele>164.964263</ele>
        <time>2021-09-06T15:10:58.000Z</time>
      </trkpt>
      <trkpt lat="48.52337" lon="0.44187">
        <ele>165.333801</ele>
        <time>2021-09-06T15:11:04.000Z</time>
      </trkpt>
      <trkpt lat="48.52342" lon="0.44227">
        <ele>165.752134</ele>
        <time>2021-09-06T15:11:11.000Z</time>
      </trkpt>
      <trkpt lat="48.52348" lon="0.44275">
        <ele>166.426502</ele>
        <time>2021-09-06T15:11:19.000Z</time>
      </trkpt>
      <trkpt lat="48.52353" lon="0.44311">
        <ele>167.000309</ele>
        <time>2021-09-06T15:11:25.000Z</time>
      </trkpt>
      <trkpt lat="48.52358" lon="0.44354">
        <ele>167.682079</ele>
        <time>2021-09-06T15:11:32.000Z</time>
      </trkpt>
      <trkpt lat="48.52363" lon="0.44391">
        <ele>168.272558</ele>
        <time>2021-09-06T15:11:38.000Z</time>
      </trkpt>
      <trkpt lat="48.52365" lon="0.44416">
        <ele>168.681377</ele>
        <time>2021-09-06T15:11:42.000Z</time>
      </trkpt>
      <trkpt lat="48.52368" lon="0.44435">
        <ele>168.978375</ele>
        <time>2021-09-06T15:11:45.000Z</time>
      </trkpt>
      <trkpt lat="48.52372" lon="0.44477">
        <ele>169.651223</ele>
        <time>2021-09-06T15:11:52.000Z</time>
      </trkpt>
      <trkpt lat="48.52377" lon="0.44508">
        <ele>170.141188</ele>
        <time>2021-09-06T15:11:57.000Z</time>
      </trkpt>
      <trkpt lat="48.5238" lon="0.44544">
        <ele>170.404502</ele>
        <time>2021-09-06T15:12:03.000Z</time>
      </trkpt>
      <trkpt lat="48.52383" lon="0.44576">
        <ele>170.616073</ele>
        <time>2021-09-06T15:12:09.000Z</time>
      </trkpt>
      <trkpt lat="48.52387" lon="0.44612">
        <ele>170.858999</ele>
        <time>2021-09-06T15:12:15.000Z</time>
      </trkpt>
      <trkpt lat="48.5239" lon="0.44645">
        <ele>171.077065</ele>
        <time>2021-09-06T15:12:20.000Z</time>
      </trkpt>
      <trkpt lat="48.52391" lon="0.44653">
        <ele>171.127996</ele>
        <time>2021-09-06T15:12:21.000Z</time>
      </trkpt>
      <trkpt lat="48.52394" lon="0.44681">
        <ele>171.313626</ele>
        <time>2021-09-06T15:12:25.000Z</time>
      </trkpt>
      <trkpt lat="48.52397" lon="0.44714">
        <ele>171.53834</ele>
        <time>2021-09-06T15:12:30.000Z</time>
      </trkpt>
      <trkpt lat="48.52401" lon="0.44749">
        <ele>171.766453</ele>
        <time>2021-09-06T15:12:35.000Z</time>
      </trkpt>
      <trkpt lat="48.52404" lon="0.44782">
        <ele>171.974801</ele>
        <time>2021-09-06T15:12:40.000Z</time>
      </trkpt>
      <trkpt lat="48.52407" lon="0.44807">
        <ele>172.046395</ele>
        <time>2021-09-06T15:12:44.000Z</time>
      </trkpt>
      <trkpt lat="48.52409" lon="0.44827">
        <ele>172.100357</ele>
        <time>2021-09-06T15:12:47.000Z</time>
      </trkpt>
      <trkpt lat="48.52412" lon="0.44846">
        <ele>172.15379</ele>
        <time>2021-09-06T15:12:50.000Z</time>
      </trkpt>
      <trkpt lat="48.52416" lon="0.44873">
        <ele>172.230932</ele>
        <time>2021-09-06T15:12:54.000Z</time>
      </trkpt>
      <trkpt lat="48.52417" lon="0.44881">
        <ele>172.252203</ele>
        <time>2021-09-06T15:12:55.000Z</time>
      </trkpt>
      <trkpt lat="48.52422" lon="0.44932">
        <ele>172.394861</ele>
        <time>2021-09-06T15:13:02.000Z</time>
      </trkpt>
      <trkpt lat="48.52424" lon="0.44949">
        <ele>172.440253</ele>
        <time>2021-09-06T15:13:05.000Z</time>
      </trkpt>
      <trkpt lat="48.52424" lon="0.44955">
        <ele>172.458402</ele>
        <time>2021-09-06T15:13:06.000Z</time>
      </trkpt>
      <trkpt lat="48.52427" lon="0.4498">
        <ele>172.527666</ele>
        <time>2021-09-06T15:13:10.000Z</time>
      </trkpt>
      <trkpt lat="48.52429" lon="0.45004">
        <ele>172.595108</ele>
        <time>2021-09-06T15:13:14.000Z</time>
      </trkpt>
      <trkpt lat="48.52434" lon="0.45036">
        <ele>172.684562</ele>
        <time>2021-09-06T15:13:19.000Z</time>
      </trkpt>
      <trkpt lat="48.52437" lon="0.45062">
        <ele>172.806774</ele>
        <time>2021-09-06T15:13:23.000Z</time>
      </trkpt>
      <trkpt lat="48.5244" lon="0.45089">
        <ele>172.970417</ele>
        <time>2021-09-06T15:13:27.000Z</time>
      </trkpt>
      <trkpt lat="48.52442" lon="0.45125">
        <ele>173.182633</ele>
        <time>2021-09-06T15:13:32.000Z</time>
      </trkpt>
      <trkpt lat="48.52443" lon="0.45152">
        <ele>173.342303</ele>
        <time>2021-09-06T15:13:36.000Z</time>
      </trkpt>
      <trkpt lat="48.52443" lon="0.45184">
        <ele>173.531876</ele>
        <time>2021-09-06T15:13:41.000Z</time>
      </trkpt>
      <trkpt lat="48.52445" lon="0.45214">
        <ele>173.708044</ele>
        <time>2021-09-06T15:13:46.000Z</time>
      </trkpt>
      <trkpt lat="48.52444" lon="0.45257">
        <ele>173.964859</ele>
        <time>2021-09-06T15:13:53.000Z</time>
      </trkpt>
      <trkpt lat="48.52445" lon="0.45289">
        <ele>174.149685</ele>
        <time>2021-09-06T15:13:58.000Z</time>
      </trkpt>
      <trkpt lat="48.52444" lon="0.4533">
        <ele>174.514082</ele>
        <time>2021-09-06T15:14:05.000Z</time>
      </trkpt>
      <trkpt lat="48.52442" lon="0.45357">
        <ele>174.910321</ele>
        <time>2021-09-06T15:14:10.000Z</time>
      </trkpt>
      <trkpt lat="48.52443" lon="0.45385">
        <ele>175.327916</ele>
        <time>2021-09-06T15:14:15.000Z</time>
      </trkpt>
      <trkpt lat="48.52442" lon="0.45406">
        <ele>175.640812</ele>
        <time>2021-09-06T15:14:19.000Z</time>
      </trkpt>
      <trkpt lat="48.52443" lon="0.45424">
        <ele>175.908305</ele>
        <time>2021-09-06T15:14:23.000Z</time>
      </trkpt>
      <trkpt lat="48.5244" lon="0.45462">
        <ele>176.473565</ele>
        <time>2021-09-06T15:14:29.000Z</time>
      </trkpt>
      <trkpt lat="48.52438" lon="0.45486">
        <ele>176.836562</ele>
        <time>2021-09-06T15:14:33.000Z</time>
      </trkpt>
      <trkpt lat="48.52437" lon="0.45511">
        <ele>177.20031</ele>
        <time>2021-09-06T15:14:37.000Z</time>
      </trkpt>
      <trkpt lat="48.52431" lon="0.45535">
        <ele>177.581963</ele>
        <time>2021-09-06T15:14:41.000Z</time>
      </trkpt>
      <trkpt lat="48.5243" lon="0.45541">
        <ele>177.670692</ele>
        <time>2021-09-06T15:14:42.000Z</time>
      </trkpt>
      <trkpt lat="48.52429" lon="0.4556">
        <ele>177.957572</ele>
        <time>2021-09-06T15:14:45.000Z</time>
      </trkpt>
      <trkpt lat="48.52423" lon="0.456">
        <ele>178.694204</ele>
        <time>2021-09-06T15:14:51.000Z</time>
      </trkpt>
      <trkpt lat="48.52419" lon="0.45617">
        <ele>179.119301</ele>
        <time>2021-09-06T15:14:54.000Z</time>
      </trkpt>
      <trkpt lat="48.52417" lon="0.45623">
        <ele>179.259385</ele>
        <time>2021-09-06T15:14:55.000Z</time>
      </trkpt>
      <trkpt lat="48.52415" lon="0.45644">
        <ele>179.770329</ele>
        <time>2021-09-06T15:14:59.000Z</time>
      </trkpt>
      <trkpt lat="48.52413" lon="0.45668">
        <ele>180.316205</ele>
        <time>2021-09-06T15:15:03.000Z</time>
      </trkpt>
      <trkpt lat="48.52412" lon="0.45673">
        <ele>180.442166</ele>
        <time>2021-09-06T15:15:04.000Z</time>
      </trkpt>
      <trkpt lat="48.52411" lon="0.45683">
        <ele>180.680174</ele>
        <time>2021-09-06T15:15:06.000Z</time>
      </trkpt>
      <trkpt lat="48.52406" lon="0.45706">
        <ele>181.231237</ele>
        <time>2021-09-06T15:15:10.000Z</time>
      </trkpt>
      <trkpt lat="48.52401" lon="0.45733">
        <ele>181.88601</ele>
        <time>2021-09-06T15:15:15.000Z</time>
      </trkpt>
      <trkpt lat="48.52396" lon="0.45757">
        <ele>182.475644</ele>
        <time>2021-09-06T15:15:19.000Z</time>
      </trkpt>
      <trkpt lat="48.52387" lon="0.45791">
        <ele>183.310744</ele>
        <time>2021-09-06T15:15:24.000Z</time>
      </trkpt>
      <trkpt lat="48.52382" lon="0.45812">
        <ele>183.834297</ele>
        <time>2021-09-06T15:15:28.000Z</time>
      </trkpt>
      <trkpt lat="48.52377" lon="0.45834">
        <ele>184.386937</ele>
        <time>2021-09-06T15:15:32.000Z</time>
      </trkpt>
      <trkpt lat="48.52365" lon="0.4587">
        <ele>185.106731</ele>
        <time>2021-09-06T15:15:38.000Z</time>
      </trkpt>
      <trkpt lat="48.52356" lon="0.45901">
        <ele>185.658545</ele>
        <time>2021-09-06T15:15:43.000Z</time>
      </trkpt>
      <trkpt lat="48.52343" lon="0.45932">
        <ele>186.253506</ele>
        <time>2021-09-06T15:15:48.000Z</time>
      </trkpt>
      <trkpt lat="48.52338" lon="0.45958">
        <ele>186.687457</ele>
        <time>2021-09-06T15:15:53.000Z</time>
      </trkpt>
      <trkpt lat="48.52328" lon="0.45989">
        <ele>187.24914</ele>
        <time>2021-09-06T15:15:59.000Z</time>
      </trkpt>
      <trkpt lat="48.52317" lon="0.46024">
        <ele>187.876632</ele>
        <time>2021-09-06T15:16:05.000Z</time>
      </trkpt>
      <trkpt lat="48.52311" lon="0.46046">
        <ele>188.263521</ele>
        <time>2021-09-06T15:16:10.000Z</time>
      </trkpt>
      <trkpt lat="48.52301" lon="0.46075">
        <ele>188.80453</ele>
        <time>2021-09-06T15:16:17.000Z</time>
      </trkpt>
      <trkpt lat="48.52291" lon="0.46099">
        <ele>189.135607</ele>
        <time>2021-09-06T15:16:22.000Z</time>
      </trkpt>
      <trkpt lat="48.52287" lon="0.46111">
        <ele>189.228469</ele>
        <time>2021-09-06T15:16:25.000Z</time>
      </trkpt>
      <trkpt lat="48.52284" lon="0.4612">
        <ele>189.294899</ele>
        <time>2021-09-06T15:16:27.000Z</time>
      </trkpt>
      <trkpt lat="48.52274" lon="0.4614">
        <ele>189.456432</ele>
        <time>2021-09-06T15:16:32.000Z</time>
      </trkpt>
      <trkpt lat="48.52269" lon="0.46151">
        <ele>189.5488</ele>
        <time>2021-09-06T15:16:35.000Z</time>
      </trkpt>
      <trkpt lat="48.52267" lon="0.46155">
        <ele>189.580385</ele>
        <time>2021-09-06T15:16:36.000Z</time>
      </trkpt>
      <trkpt lat="48.52254" lon="0.46186">
        <ele>189.826499</ele>
        <time>2021-09-06T15:16:42.000Z</time>
      </trkpt>
      <trkpt lat="48.52247" lon="0.46204">
        <ele>189.96827</ele>
        <time>2021-09-06T15:16:47.000Z</time>
      </trkpt>
      <trkpt lat="48.52244" lon="0.46208">
        <ele>190.002872</ele>
        <time>2021-09-06T15:16:48.000Z</time>
      </trkpt>
      <trkpt lat="48.52239" lon="0.46217">
        <ele>190.081104</ele>
        <time>2021-09-06T15:16:50.000Z</time>
      </trkpt>
      <trkpt lat="48.52227" lon="0.46241">
        <ele>190.283643</ele>
        <time>2021-09-06T15:16:55.000Z</time>
      </trkpt>
      <trkpt lat="48.52222" lon="0.46247">
        <ele>190.343246</ele>
        <time>2021-09-06T15:16:56.000Z</time>
      </trkpt>
      <trkpt lat="48.52195" lon="0.46282">
        <ele>190.698519</ele>
        <time>2021-09-06T15:17:01.000Z</time>
      </trkpt>
      <trkpt lat="48.5218" lon="0.46311">
        <ele>190.817977</ele>
        <time>2021-09-06T15:17:08.000Z</time>
      </trkpt>
      <trkpt lat="48.5217" lon="0.4633">
        <ele>190.753547</ele>
        <time>2021-09-06T15:17:13.000Z</time>
      </trkpt>
      <trkpt lat="48.5216" lon="0.46353">
        <ele>190.678099</ele>
        <time>2021-09-06T15:17:19.000Z</time>
      </trkpt>
      <trkpt lat="48.52146" lon="0.46377">
        <ele>190.58996</ele>
        <time>2021-09-06T15:17:25.000Z</time>
      </trkpt>
      <trkpt lat="48.52134" lon="0.464">
        <ele>190.507315</ele>
        <time>2021-09-06T15:17:31.000Z</time>
      </trkpt>
      <trkpt lat="48.5212" lon="0.46427">
        <ele>190.412484</ele>
        <time>2021-09-06T15:17:37.000Z</time>
      </trkpt>
      <trkpt lat="48.52108" lon="0.4645">
        <ele>190.332279</ele>
        <time>2021-09-06T15:17:42.000Z</time>
      </trkpt>
      <trkpt lat="48.521" lon="0.46468">
        <ele>190.271573</ele>
        <time>2021-09-06T15:17:46.000Z</time>
      </trkpt>
      <trkpt lat="48.52084" lon="0.46495">
        <ele>190.172469</ele>
        <time>2021-09-06T15:17:51.000Z</time>
      </trkpt>
      <trkpt lat="48.52069" lon="0.46521">
        <ele>190.185278</ele>
        <time>2021-09-06T15:17:56.000Z</time>
      </trkpt>
      <trkpt lat="48.5206" lon="0.4654">
        <ele>190.366051</ele>
        <time>2021-09-06T15:18:01.000Z</time>
      </trkpt>
      <trkpt lat="48.52049" lon="0.4656">
        <ele>190.557011</ele>
        <time>2021-09-06T15:18:06.000Z</time>
      </trkpt>
      <trkpt lat="48.52035" lon="0.46583">
        <ele>190.792714</ele>
        <time>2021-09-06T15:18:12.000Z</time>
      </trkpt>
      <trkpt lat="48.52023" lon="0.46604">
        <ele>190.995889</ele>
        <time>2021-09-06T15:18:17.000Z</time>
      </trkpt>
      <trkpt lat="48.52014" lon="0.46622">
        <ele>191.165586</ele>
        <time>2021-09-06T15:18:21.000Z</time>
      </trkpt>
      <trkpt lat="48.52003" lon="0.46641">
        <ele>191.349237</ele>
        <time>2021-09-06T15:18:26.000Z</time>
      </trkpt>
      <trkpt lat="48.51993" lon="0.46661">
        <ele>191.538271</ele>
        <time>2021-09-06T15:18:30.000Z</time>
      </trkpt>
      <trkpt lat="48.51977" lon="0.46691">
        <ele>191.825807</ele>
        <time>2021-09-06T15:18:36.000Z</time>
      </trkpt>
      <trkpt lat="48.51965" lon="0.46719">
        <ele>192.075264</ele>
        <time>2021-09-06T15:18:41.000Z</time>
      </trkpt>
      <trkpt lat="48.51958" lon="0.4674">
        <ele>192.346369</ele>
        <time>2021-09-06T15:18:44.000Z</time>
      </trkpt>
      <trkpt lat="48.51953" lon="0.46752">
        <ele>192.54471</ele>
        <time>2021-09-06T15:18:46.000Z</time>
      </trkpt>
      <trkpt lat="48.51942" lon="0.46787">
        <ele>193.076017</ele>
        <time>2021-09-06T15:18:52.000Z</time>
      </trkpt>
      <trkpt lat="48.51931" lon="0.46825">
        <ele>193.632371</ele>
        <time>2021-09-06T15:18:59.000Z</time>
      </trkpt>
      <trkpt lat="48.51923" lon="0.46859">
        <ele>194.128821</ele>
        <time>2021-09-06T15:19:05.000Z</time>
      </trkpt>
      <trkpt lat="48.51916" lon="0.46893">
        <ele>194.608715</ele>
        <time>2021-09-06T15:19:11.000Z</time>
      </trkpt>
      <trkpt lat="48.51911" lon="0.46933">
        <ele>195.165899</ele>
        <time>2021-09-06T15:19:18.000Z</time>
      </trkpt>
      <trkpt lat="48.51907" lon="0.46972">
        <ele>195.709438</ele>
        <time>2021-09-06T15:19:25.000Z</time>
      </trkpt>
      <trkpt lat="48.51903" lon="0.47016">
        <ele>196.482449</ele>
        <time>2021-09-06T15:19:33.000Z</time>
      </trkpt>
      <trkpt lat="48.51901" lon="0.47052">
        <ele>197.153545</ele>
        <time>2021-09-06T15:19:40.000Z</time>
      </trkpt>
      <trkpt lat="48.51899" lon="0.47083">
        <ele>197.73621</ele>
        <time>2021-09-06T15:19:46.000Z</time>
      </trkpt>
      <trkpt lat="48.51896" lon="0.4712">
        <ele>198.423405</ele>
        <time>2021-09-06T15:19:53.000Z</time>
      </trkpt>
      <trkpt lat="48.51894" lon="0.47176">
        <ele>199.461061</ele>
        <time>2021-09-06T15:20:03.000Z</time>
      </trkpt>
      <trkpt lat="48.51892" lon="0.47212">
        <ele>200.135861</ele>
        <time>2021-09-06T15:20:10.000Z</time>
      </trkpt>
      <trkpt lat="48.51891" lon="0.47266">
        <ele>201.181697</ele>
        <time>2021-09-06T15:20:20.000Z</time>
      </trkpt>
      <trkpt lat="48.5189" lon="0.47306">
        <ele>202.050913</ele>
        <time>2021-09-06T15:20:27.000Z</time>
      </trkpt>
      <trkpt lat="48.51892" lon="0.47346">
        <ele>202.917806</ele>
        <time>2021-09-06T15:20:34.000Z</time>
      </trkpt>
      <trkpt lat="48.51894" lon="0.47363">
        <ele>203.298004</ele>
        <time>2021-09-06T15:20:38.000Z</time>
      </trkpt>
      <trkpt lat="48.51896" lon="0.47391">
        <ele>203.905251</ele>
        <time>2021-09-06T15:20:43.000Z</time>
      </trkpt>
      <trkpt lat="48.51899" lon="0.47429">
        <ele>204.734592</ele>
        <time>2021-09-06T15:20:49.000Z</time>
      </trkpt>
      <trkpt lat="48.51901" lon="0.47455">
        <ele>205.297773</ele>
        <time>2021-09-06T15:20:53.000Z</time>
      </trkpt>
      <trkpt lat="48.51903" lon="0.47487">
        <ele>205.979677</ele>
        <time>2021-09-06T15:20:58.000Z</time>
      </trkpt>
      <trkpt lat="48.51906" lon="0.47509">
        <ele>206.467592</ele>
        <time>2021-09-06T15:21:02.000Z</time>
      </trkpt>
      <trkpt lat="48.51909" lon="0.47537">
        <ele>207.362372</ele>
        <time>2021-09-06T15:21:07.000Z</time>
      </trkpt>
      <trkpt lat="48.51914" lon="0.47568">
        <ele>208.62633</ele>
        <time>2021-09-06T15:21:12.000Z</time>
      </trkpt>
      <trkpt lat="48.51916" lon="0.47592">
        <ele>209.565244</ele>
        <time>2021-09-06T15:21:16.000Z</time>
      </trkpt>
      <trkpt lat="48.51919" lon="0.47617">
        <ele>210.540179</ele>
        <time>2021-09-06T15:21:20.000Z</time>
      </trkpt>
      <trkpt lat="48.51924" lon="0.4764">
        <ele>211.518826</ele>
        <time>2021-09-06T15:21:24.000Z</time>
      </trkpt>
      <trkpt lat="48.5193" lon="0.47671">
        <ele>212.760042</ele>
        <time>2021-09-06T15:21:29.000Z</time>
      </trkpt>
      <trkpt lat="48.51937" lon="0.47703">
        <ele>214.064222</ele>
        <time>2021-09-06T15:21:35.000Z</time>
      </trkpt>
      <trkpt lat="48.51942" lon="0.47728">
        <ele>215.121618</ele>
        <time>2021-09-06T15:21:40.000Z</time>
      </trkpt>
      <trkpt lat="48.51944" lon="0.47754">
        <ele>216.137313</ele>
        <time>2021-09-06T15:21:45.000Z</time>
      </trkpt>
      <trkpt lat="48.51948" lon="0.47786">
        <ele>217.428954</ele>
        <time>2021-09-06T15:21:51.000Z</time>
      </trkpt>
      <trkpt lat="48.51953" lon="0.47818">
        <ele>219.027214</ele>
        <time>2021-09-06T15:21:57.000Z</time>
      </trkpt>
      <trkpt lat="48.51958" lon="0.47848">
        <ele>220.601804</ele>
        <time>2021-09-06T15:22:03.000Z</time>
      </trkpt>
      <trkpt lat="48.51962" lon="0.47867">
        <ele>221.575381</ele>
        <time>2021-09-06T15:22:07.000Z</time>
      </trkpt>
      <trkpt lat="48.51968" lon="0.47893">
        <ele>222.945957</ele>
        <time>2021-09-06T15:22:13.000Z</time>
      </trkpt>
      <trkpt lat="48.51974" lon="0.47918">
        <ele>224.271377</ele>
        <time>2021-09-06T15:22:18.000Z</time>
      </trkpt>
      <trkpt lat="48.51979" lon="0.47937">
        <ele>225.298666</ele>
        <time>2021-09-06T15:22:22.000Z</time>
      </trkpt>
      <trkpt lat="48.51984" lon="0.47964">
        <ele>226.66151</ele>
        <time>2021-09-06T15:22:28.000Z</time>
      </trkpt>
      <trkpt lat="48.5199" lon="0.4799">
        <ele>228.033716</ele>
        <time>2021-09-06T15:22:33.000Z</time>
      </trkpt>
      <trkpt lat="48.51996" lon="0.48017">
        <ele>229.462893</ele>
        <time>2021-09-06T15:22:38.000Z</time>
      </trkpt>
      <trkpt lat="48.52" lon="0.48038">
        <ele>230.541095</ele>
        <time>2021-09-06T15:22:42.000Z</time>
      </trkpt>
      <trkpt lat="48.52006" lon="0.48066">
        <ele>231.567557</ele>
        <time>2021-09-06T15:22:47.000Z</time>
      </trkpt>
      <trkpt lat="48.52009" lon="0.48093">
        <ele>232.42158</ele>
        <time>2021-09-06T15:22:52.000Z</time>
      </trkpt>
      <trkpt lat="48.52012" lon="0.48123">
        <ele>233.333679</ele>
        <time>2021-09-06T15:22:57.000Z</time>
      </trkpt>
      <trkpt lat="48.52017" lon="0.48161">
        <ele>234.487329</ele>
        <time>2021-09-06T15:23:03.000Z</time>
      </trkpt>
      <trkpt lat="48.52025" lon="0.48193">
        <ele>235.521873</ele>
        <time>2021-09-06T15:23:08.000Z</time>
      </trkpt>
      <trkpt lat="48.52041" lon="0.48232">
        <ele>236.918894</ele>
        <time>2021-09-06T15:23:15.000Z</time>
      </trkpt>
      <trkpt lat="48.52075" lon="0.48282">
        <ele>239.088678</ele>
        <time>2021-09-06T15:23:25.000Z</time>
      </trkpt>
      <trkpt lat="48.52097" lon="0.48318">
        <ele>238.486792</ele>
        <time>2021-09-06T15:23:32.000Z</time>
      </trkpt>
      <trkpt lat="48.521" lon="0.48324">
        <ele>238.400341</ele>
        <time>2021-09-06T15:23:33.000Z</time>
      </trkpt>
      <trkpt lat="48.52108" lon="0.48349">
        <ele>238.049352</ele>
        <time>2021-09-06T15:23:37.000Z</time>
      </trkpt>
      <trkpt lat="48.52112" lon="0.48367">
        <ele>237.813955</ele>
        <time>2021-09-06T15:23:40.000Z</time>
      </trkpt>
      <trkpt lat="48.52113" lon="0.48404">
        <ele>237.347107</ele>
        <time>2021-09-06T15:23:47.000Z</time>
      </trkpt>
      <trkpt lat="48.52112" lon="0.48406">
        <ele>237.309716</ele>
        <time>2021-09-06T15:23:50.000Z</time>
      </trkpt>
      <trkpt lat="48.52111" lon="0.48409">
        <ele>237.268084</ele>
        <time>2021-09-06T15:24:42.000Z</time>
      </trkpt>
      <trkpt lat="48.5211" lon="0.48415">
        <ele>237.195955</ele>
        <time>2021-09-06T15:24:44.000Z</time>
      </trkpt>
      <trkpt lat="48.521" lon="0.48425">
        <ele>236.964318</ele>
        <time>2021-09-06T15:24:49.000Z</time>
      </trkpt>
      <trkpt lat="48.52084" lon="0.48431">
        <ele>236.655138</ele>
        <time>2021-09-06T15:24:55.000Z</time>
      </trkpt>
      <trkpt lat="48.52067" lon="0.48446">
        <ele>236.287201</ele>
        <time>2021-09-06T15:25:02.000Z</time>
      </trkpt>
      <trkpt lat="48.52054" lon="0.48453">
        <ele>236.013775</ele>
        <time>2021-09-06T15:25:08.000Z</time>
      </trkpt>
      <trkpt lat="48.52033" lon="0.48464">
        <ele>235.515343</ele>
        <time>2021-09-06T15:25:15.000Z</time>
      </trkpt>
      <trkpt lat="48.5201" lon="0.48471">
        <ele>234.711449</ele>
        <time>2021-09-06T15:25:23.000Z</time>
      </trkpt>
      <trkpt lat="48.51995" lon="0.48479">
        <ele>234.133419</ele>
        <time>2021-09-06T15:25:30.000Z</time>
      </trkpt>
      <trkpt lat="48.51984" lon="0.48492">
        <ele>233.647005</ele>
        <time>2021-09-06T15:25:36.000Z</time>
      </trkpt>
      <trkpt lat="48.51978" lon="0.48506">
        <ele>233.253296</ele>
        <time>2021-09-06T15:25:41.000Z</time>
      </trkpt>
      <trkpt lat="48.51976" lon="0.48511">
        <ele>233.113068</ele>
        <time>2021-09-06T15:25:43.000Z</time>
      </trkpt>
      <trkpt lat="48.51974" lon="0.48522">
        <ele>232.868733</ele>
        <time>2021-09-06T15:25:46.000Z</time>
      </trkpt>
      <trkpt lat="48.51968" lon="0.48543">
        <ele>232.310963</ele>
        <time>2021-09-06T15:25:52.000Z</time>
      </trkpt>
      <trkpt lat="48.51961" lon="0.48568">
        <ele>231.700385</ele>
        <time>2021-09-06T15:25:58.000Z</time>
      </trkpt>
      <trkpt lat="48.51956" lon="0.48587">
        <ele>231.201026</ele>
        <time>2021-09-06T15:26:02.000Z</time>
      </trkpt>
      <trkpt lat="48.5194" lon="0.48621">
        <ele>230.223107</ele>
        <time>2021-09-06T15:26:07.000Z</time>
      </trkpt>
      <trkpt lat="48.51937" lon="0.48629">
        <ele>230.031535</ele>
        <time>2021-09-06T15:26:08.000Z</time>
      </trkpt>
      <trkpt lat="48.51926" lon="0.48658">
        <ele>229.295675</ele>
        <time>2021-09-06T15:26:12.000Z</time>
      </trkpt>
      <trkpt lat="48.5192" lon="0.48673">
        <ele>229.166089</ele>
        <time>2021-09-06T15:26:14.000Z</time>
      </trkpt>
      <trkpt lat="48.51913" lon="0.48688">
        <ele>229.029127</ele>
        <time>2021-09-06T15:26:16.000Z</time>
      </trkpt>
      <trkpt lat="48.51896" lon="0.48726">
        <ele>228.682671</ele>
        <time>2021-09-06T15:26:21.000Z</time>
      </trkpt>
      <trkpt lat="48.5189" lon="0.48753">
        <ele>228.465026</ele>
        <time>2021-09-06T15:26:25.000Z</time>
      </trkpt>
      <trkpt lat="48.51885" lon="0.48765">
        <ele>228.359987</ele>
        <time>2021-09-06T15:26:28.000Z</time>
      </trkpt>
      <trkpt lat="48.51879" lon="0.48783">
        <ele>228.205073</ele>
        <time>2021-09-06T15:26:32.000Z</time>
      </trkpt>
      <trkpt lat="48.51873" lon="0.48807">
        <ele>228.00988</ele>
        <time>2021-09-06T15:26:36.000Z</time>
      </trkpt>
      <trkpt lat="48.51869" lon="0.48822">
        <ele>227.886351</ele>
        <time>2021-09-06T15:26:38.000Z</time>
      </trkpt>
      <trkpt lat="48.51864" lon="0.48838">
        <ele>227.756168</ele>
        <time>2021-09-06T15:26:40.000Z</time>
      </trkpt>
      <trkpt lat="48.51863" lon="0.48846">
        <ele>227.693233</ele>
        <time>2021-09-06T15:26:41.000Z</time>
      </trkpt>
      <trkpt lat="48.5186" lon="0.48862">
        <ele>227.569275</ele>
        <time>2021-09-06T15:26:43.000Z</time>
      </trkpt>
      <trkpt lat="48.51858" lon="0.4887">
        <ele>227.503422</ele>
        <time>2021-09-06T15:26:44.000Z</time>
      </trkpt>
      <trkpt lat="48.51849" lon="0.4891">
        <ele>227.499629</ele>
        <time>2021-09-06T15:26:49.000Z</time>
      </trkpt>
      <trkpt lat="48.51845" lon="0.48942">
        <ele>228.128735</ele>
        <time>2021-09-06T15:26:53.000Z</time>
      </trkpt>
      <trkpt lat="48.51845" lon="0.48949">
        <ele>228.276545</ele>
        <time>2021-09-06T15:26:54.000Z</time>
      </trkpt>
      <trkpt lat="48.51844" lon="0.48964">
        <ele>228.574844</ele>
        <time>2021-09-06T15:26:56.000Z</time>
      </trkpt>
      <trkpt lat="48.51841" lon="0.48988">
        <ele>229.052789</ele>
        <time>2021-09-06T15:26:59.000Z</time>
      </trkpt>
      <trkpt lat="48.51838" lon="0.49019">
        <ele>229.677525</ele>
        <time>2021-09-06T15:27:03.000Z</time>
      </trkpt>
      <trkpt lat="48.51837" lon="0.49027">
        <ele>229.82762</ele>
        <time>2021-09-06T15:27:04.000Z</time>
      </trkpt>
      <trkpt lat="48.51837" lon="0.49053">
        <ele>230.342004</ele>
        <time>2021-09-06T15:27:08.000Z</time>
      </trkpt>
      <trkpt lat="48.51838" lon="0.49084">
        <ele>230.960685</ele>
        <time>2021-09-06T15:27:13.000Z</time>
      </trkpt>
      <trkpt lat="48.51839" lon="0.491">
        <ele>231.260948</ele>
        <time>2021-09-06T15:27:15.000Z</time>
      </trkpt>
      <trkpt lat="48.51841" lon="0.49123">
        <ele>231.720273</ele>
        <time>2021-09-06T15:27:18.000Z</time>
      </trkpt>
      <trkpt lat="48.51843" lon="0.49138">
        <ele>232.023465</ele>
        <time>2021-09-06T15:27:20.000Z</time>
      </trkpt>
      <trkpt lat="48.51844" lon="0.49163">
        <ele>232.516851</ele>
        <time>2021-09-06T15:27:23.000Z</time>
      </trkpt>
      <trkpt lat="48.51847" lon="0.49197">
        <ele>233.701321</ele>
        <time>2021-09-06T15:27:27.000Z</time>
      </trkpt>
      <trkpt lat="48.51849" lon="0.49204">
        <ele>233.998794</ele>
        <time>2021-09-06T15:27:28.000Z</time>
      </trkpt>
      <trkpt lat="48.5185" lon="0.49212">
        <ele>234.293489</ele>
        <time>2021-09-06T15:27:29.000Z</time>
      </trkpt>
      <trkpt lat="48.51857" lon="0.49242">
        <ele>235.480114</ele>
        <time>2021-09-06T15:27:33.000Z</time>
      </trkpt>
      <trkpt lat="48.51861" lon="0.49271">
        <ele>236.577786</ele>
        <time>2021-09-06T15:27:37.000Z</time>
      </trkpt>
      <trkpt lat="48.51865" lon="0.49293">
        <ele>237.421614</ele>
        <time>2021-09-06T15:27:40.000Z</time>
      </trkpt>
      <trkpt lat="48.51868" lon="0.49307">
        <ele>237.966437</ele>
        <time>2021-09-06T15:27:42.000Z</time>
      </trkpt>
      <trkpt lat="48.51869" lon="0.49314">
        <ele>238.242093</ele>
        <time>2021-09-06T15:27:43.000Z</time>
      </trkpt>
      <trkpt lat="48.5187" lon="0.49322">
        <ele>238.544045</ele>
        <time>2021-09-06T15:27:44.000Z</time>
      </trkpt>
      <trkpt lat="48.51875" lon="0.49344">
        <ele>239.418608</ele>
        <time>2021-09-06T15:27:47.000Z</time>
      </trkpt>
      <trkpt lat="48.51882" lon="0.49383">
        <ele>240.900621</ele>
        <time>2021-09-06T15:27:52.000Z</time>
      </trkpt>
      <trkpt lat="48.5189" lon="0.49429">
        <ele>242.686944</ele>
        <time>2021-09-06T15:27:57.000Z</time>
      </trkpt>
      <trkpt lat="48.51899" lon="0.49479">
        <ele>244.351889</ele>
        <time>2021-09-06T15:28:02.000Z</time>
      </trkpt>
      <trkpt lat="48.51901" lon="0.49489">
        <ele>244.666415</ele>
        <time>2021-09-06T15:28:03.000Z</time>
      </trkpt>
      <trkpt lat="48.51906" lon="0.49515">
        <ele>245.54896</ele>
        <time>2021-09-06T15:28:06.000Z</time>
      </trkpt>
      <trkpt lat="48.5191" lon="0.49534">
        <ele>246.168837</ele>
        <time>2021-09-06T15:28:08.000Z</time>
      </trkpt>
      <trkpt lat="48.51913" lon="0.49554">
        <ele>246.832893</ele>
        <time>2021-09-06T15:28:10.000Z</time>
      </trkpt>
      <trkpt lat="48.51926" lon="0.49627">
        <ele>249.224405</ele>
        <time>2021-09-06T15:28:17.000Z</time>
      </trkpt>
      <trkpt lat="48.51934" lon="0.49678">
        <ele>250.899576</ele>
        <time>2021-09-06T15:28:22.000Z</time>
      </trkpt>
      <trkpt lat="48.51936" lon="0.49687">
        <ele>251.217162</ele>
        <time>2021-09-06T15:28:23.000Z</time>
      </trkpt>
      <trkpt lat="48.5194" lon="0.49718">
        <ele>252.007336</ele>
        <time>2021-09-06T15:28:26.000Z</time>
      </trkpt>
      <trkpt lat="48.5194" lon="0.49729">
        <ele>252.256832</ele>
        <time>2021-09-06T15:28:27.000Z</time>
      </trkpt>
      <trkpt lat="48.51944" lon="0.49759">
        <ele>252.972695</ele>
        <time>2021-09-06T15:28:30.000Z</time>
      </trkpt>
      <trkpt lat="48.51947" lon="0.49779">
        <ele>253.463579</ele>
        <time>2021-09-06T15:28:32.000Z</time>
      </trkpt>
      <trkpt lat="48.51953" lon="0.49827">
        <ele>254.618311</ele>
        <time>2021-09-06T15:28:37.000Z</time>
      </trkpt>
      <trkpt lat="48.51957" lon="0.49885">
        <ele>255.992498</ele>
        <time>2021-09-06T15:28:43.000Z</time>
      </trkpt>
      <trkpt lat="48.51958" lon="0.49905">
        <ele>256.481163</ele>
        <time>2021-09-06T15:28:46.000Z</time>
      </trkpt>
      <trkpt lat="48.51966" lon="0.49938">
        <ele>257.314075</ele>
        <time>2021-09-06T15:28:51.000Z</time>
      </trkpt>
      <trkpt lat="48.51973" lon="0.49975">
        <ele>257.937174</ele>
        <time>2021-09-06T15:28:56.000Z</time>
      </trkpt>
      <trkpt lat="48.51973" lon="0.49983">
        <ele>257.995638</ele>
        <time>2021-09-06T15:28:57.000Z</time>
      </trkpt>
      <trkpt lat="48.51975" lon="0.50008">
        <ele>258.182458</ele>
        <time>2021-09-06T15:29:00.000Z</time>
      </trkpt>
      <trkpt lat="48.51979" lon="0.50056">
        <ele>258.54764</ele>
        <time>2021-09-06T15:29:05.000Z</time>
      </trkpt>
      <trkpt lat="48.51985" lon="0.50105">
        <ele>258.917852</ele>
        <time>2021-09-06T15:29:10.000Z</time>
      </trkpt>
      <trkpt lat="48.51986" lon="0.50123">
        <ele>259.056226</ele>
        <time>2021-09-06T15:29:12.000Z</time>
      </trkpt>
      <trkpt lat="48.51987" lon="0.50142">
        <ele>259.199679</ele>
        <time>2021-09-06T15:29:14.000Z</time>
      </trkpt>
      <trkpt lat="48.51988" lon="0.50161">
        <ele>259.343555</ele>
        <time>2021-09-06T15:29:16.000Z</time>
      </trkpt>
      <trkpt lat="48.51989" lon="0.50182">
        <ele>259.500146</ele>
        <time>2021-09-06T15:29:18.000Z</time>
      </trkpt>
      <trkpt lat="48.51991" lon="0.50228">
        <ele>259.833223</ele>
        <time>2021-09-06T15:29:23.000Z</time>
      </trkpt>
      <trkpt lat="48.51992" lon="0.50282">
        <ele>259.310121</ele>
        <time>2021-09-06T15:29:28.000Z</time>
      </trkpt>
      <trkpt lat="48.51993" lon="0.50325">
        <ele>258.883277</ele>
        <time>2021-09-06T15:29:32.000Z</time>
      </trkpt>
      <trkpt lat="48.51994" lon="0.50355">
        <ele>258.584443</ele>
        <time>2021-09-06T15:29:35.000Z</time>
      </trkpt>
      <trkpt lat="48.51995" lon="0.50366">
        <ele>258.482154</ele>
        <time>2021-09-06T15:29:36.000Z</time>
      </trkpt>
      <trkpt lat="48.51996" lon="0.50377">
        <ele>258.369641</ele>
        <time>2021-09-06T15:29:37.000Z</time>
      </trkpt>
      <trkpt lat="48.51995" lon="0.5041">
        <ele>258.048102</ele>
        <time>2021-09-06T15:29:40.000Z</time>
      </trkpt>
      <trkpt lat="48.51994" lon="0.50443">
        <ele>257.72465</ele>
        <time>2021-09-06T15:29:43.000Z</time>
      </trkpt>
      <trkpt lat="48.51993" lon="0.50462">
        <ele>257.533345</ele>
        <time>2021-09-06T15:29:45.000Z</time>
      </trkpt>
      <trkpt lat="48.51992" lon="0.50472">
        <ele>257.436896</ele>
        <time>2021-09-06T15:29:46.000Z</time>
      </trkpt>
      <trkpt lat="48.51992" lon="0.50502">
        <ele>257.118601</ele>
        <time>2021-09-06T15:29:49.000Z</time>
      </trkpt>
      <trkpt lat="48.51992" lon="0.50522">
        <ele>256.798745</ele>
        <time>2021-09-06T15:29:51.000Z</time>
      </trkpt>
      <trkpt lat="48.51991" lon="0.50553">
        <ele>256.312636</ele>
        <time>2021-09-06T15:29:54.000Z</time>
      </trkpt>
      <trkpt lat="48.51987" lon="0.50602">
        <ele>255.523042</ele>
        <time>2021-09-06T15:29:59.000Z</time>
      </trkpt>
      <trkpt lat="48.51984" lon="0.50654">
        <ele>254.699913</ele>
        <time>2021-09-06T15:30:04.000Z</time>
      </trkpt>
      <trkpt lat="48.51983" lon="0.50674">
        <ele>254.387534</ele>
        <time>2021-09-06T15:30:06.000Z</time>
      </trkpt>
      <trkpt lat="48.51983" lon="0.50694">
        <ele>254.061318</ele>
        <time>2021-09-06T15:30:08.000Z</time>
      </trkpt>
      <trkpt lat="48.51983" lon="0.50705">
        <ele>253.894786</ele>
        <time>2021-09-06T15:30:09.000Z</time>
      </trkpt>
      <trkpt lat="48.51977" lon="0.50737">
        <ele>253.376832</ele>
        <time>2021-09-06T15:30:12.000Z</time>
      </trkpt>
      <trkpt lat="48.51966" lon="0.50789">
        <ele>251.927126</ele>
        <time>2021-09-06T15:30:17.000Z</time>
      </trkpt>
      <trkpt lat="48.51961" lon="0.50842">
        <ele>249.781088</ele>
        <time>2021-09-06T15:30:22.000Z</time>
      </trkpt>
      <trkpt lat="48.51961" lon="0.5086">
        <ele>249.070009</ele>
        <time>2021-09-06T15:30:24.000Z</time>
      </trkpt>
      <trkpt lat="48.51961" lon="0.50878">
        <ele>248.36327</ele>
        <time>2021-09-06T15:30:26.000Z</time>
      </trkpt>
      <trkpt lat="48.5196" lon="0.50887">
        <ele>247.999111</ele>
        <time>2021-09-06T15:30:27.000Z</time>
      </trkpt>
      <trkpt lat="48.51957" lon="0.50927">
        <ele>246.351496</ele>
        <time>2021-09-06T15:30:31.000Z</time>
      </trkpt>
      <trkpt lat="48.51954" lon="0.50949">
        <ele>245.484766</ele>
        <time>2021-09-06T15:30:33.000Z</time>
      </trkpt>
      <trkpt lat="48.5195" lon="0.50967">
        <ele>244.726891</ele>
        <time>2021-09-06T15:30:35.000Z</time>
      </trkpt>
      <trkpt lat="48.51945" lon="0.51004">
        <ele>243.200939</ele>
        <time>2021-09-06T15:30:39.000Z</time>
      </trkpt>
      <trkpt lat="48.51936" lon="0.51041">
        <ele>241.514221</ele>
        <time>2021-09-06T15:30:43.000Z</time>
      </trkpt>
      <trkpt lat="48.51934" lon="0.5105">
        <ele>241.050636</ele>
        <time>2021-09-06T15:30:44.000Z</time>
      </trkpt>
      <trkpt lat="48.51932" lon="0.51059">
        <ele>240.596613</ele>
        <time>2021-09-06T15:30:45.000Z</time>
      </trkpt>
      <trkpt lat="48.51923" lon="0.51095">
        <ele>238.716202</ele>
        <time>2021-09-06T15:30:49.000Z</time>
      </trkpt>
      <trkpt lat="48.51905" lon="0.51155">
        <ele>235.506393</ele>
        <time>2021-09-06T15:30:55.000Z</time>
      </trkpt>
      <trkpt lat="48.51896" lon="0.51184">
        <ele>233.958588</ele>
        <time>2021-09-06T15:30:58.000Z</time>
      </trkpt>
      <trkpt lat="48.51887" lon="0.51212">
        <ele>232.413125</ele>
        <time>2021-09-06T15:31:01.000Z</time>
      </trkpt>
      <trkpt lat="48.51872" lon="0.51254">
        <ele>230.116253</ele>
        <time>2021-09-06T15:31:06.000Z</time>
      </trkpt>
      <trkpt lat="48.51869" lon="0.51263">
        <ele>229.607049</ele>
        <time>2021-09-06T15:31:07.000Z</time>
      </trkpt>
      <trkpt lat="48.5185" lon="0.51319">
        <ele>226.873314</ele>
        <time>2021-09-06T15:31:13.000Z</time>
      </trkpt>
      <trkpt lat="48.51839" lon="0.51345">
        <ele>225.590051</ele>
        <time>2021-09-06T15:31:16.000Z</time>
      </trkpt>
      <trkpt lat="48.51829" lon="0.51372">
        <ele>224.329572</ele>
        <time>2021-09-06T15:31:19.000Z</time>
      </trkpt>
      <trkpt lat="48.51811" lon="0.51413">
        <ele>222.286513</ele>
        <time>2021-09-06T15:31:24.000Z</time>
      </trkpt>
      <trkpt lat="48.51808" lon="0.51421">
        <ele>221.88207</ele>
        <time>2021-09-06T15:31:25.000Z</time>
      </trkpt>
      <trkpt lat="48.51802" lon="0.51436">
        <ele>221.152632</ele>
        <time>2021-09-06T15:31:27.000Z</time>
      </trkpt>
      <trkpt lat="48.51798" lon="0.51444">
        <ele>220.772378</ele>
        <time>2021-09-06T15:31:28.000Z</time>
      </trkpt>
      <trkpt lat="48.51794" lon="0.51452">
        <ele>220.354114</ele>
        <time>2021-09-06T15:31:29.000Z</time>
      </trkpt>
      <trkpt lat="48.51782" lon="0.51477">
        <ele>219.063267</ele>
        <time>2021-09-06T15:31:32.000Z</time>
      </trkpt>
      <trkpt lat="48.51756" lon="0.51522">
        <ele>216.808406</ele>
        <time>2021-09-06T15:31:38.000Z</time>
      </trkpt>
      <trkpt lat="48.51715" lon="0.51589">
        <ele>213.881679</ele>
        <time>2021-09-06T15:31:46.000Z</time>
      </trkpt>
      <trkpt lat="48.51678" lon="0.51642">
        <ele>211.444086</ele>
        <time>2021-09-06T15:31:53.000Z</time>
      </trkpt>
      <trkpt lat="48.51635" lon="0.51697">
        <ele>208.755293</ele>
        <time>2021-09-06T15:32:01.000Z</time>
      </trkpt>
      <trkpt lat="48.51604" lon="0.51736">
        <ele>207.117673</ele>
        <time>2021-09-06T15:32:07.000Z</time>
      </trkpt>
      <trkpt lat="48.51566" lon="0.51795">
        <ele>204.908228</ele>
        <time>2021-09-06T15:32:15.000Z</time>
      </trkpt>
      <trkpt lat="48.51545" lon="0.51828">
        <ele>203.691511</ele>
        <time>2021-09-06T15:32:20.000Z</time>
      </trkpt>
      <trkpt lat="48.5152" lon="0.5187">
        <ele>202.1893</ele>
        <time>2021-09-06T15:32:26.000Z</time>
      </trkpt>
      <trkpt lat="48.51509" lon="0.51893">
        <ele>201.464891</ele>
        <time>2021-09-06T15:32:29.000Z</time>
      </trkpt>
      <trkpt lat="48.51505" lon="0.51902">
        <ele>201.258544</ele>
        <time>2021-09-06T15:32:30.000Z</time>
      </trkpt>
      <trkpt lat="48.51478" lon="0.51955">
        <ele>199.98531</ele>
        <time>2021-09-06T15:32:36.000Z</time>
      </trkpt>
      <trkpt lat="48.5146" lon="0.51995">
        <ele>199.056734</ele>
        <time>2021-09-06T15:32:41.000Z</time>
      </trkpt>
      <trkpt lat="48.51438" lon="0.52046">
        <ele>197.90415</ele>
        <time>2021-09-06T15:32:47.000Z</time>
      </trkpt>
      <trkpt lat="48.51421" lon="0.5209">
        <ele>196.931427</ele>
        <time>2021-09-06T15:32:53.000Z</time>
      </trkpt>
      <trkpt lat="48.51419" lon="0.52096">
        <ele>196.807404</ele>
        <time>2021-09-06T15:32:54.000Z</time>
      </trkpt>
      <trkpt lat="48.51411" lon="0.52117">
        <ele>196.365715</ele>
        <time>2021-09-06T15:32:58.000Z</time>
      </trkpt>
      <trkpt lat="48.51408" lon="0.52122">
        <ele>196.302378</ele>
        <time>2021-09-06T15:32:59.000Z</time>
      </trkpt>
      <trkpt lat="48.51397" lon="0.52147">
        <ele>196.003265</ele>
        <time>2021-09-06T15:33:03.000Z</time>
      </trkpt>
      <trkpt lat="48.51372" lon="0.52211">
        <ele>195.258518</ele>
        <time>2021-09-06T15:33:12.000Z</time>
      </trkpt>
      <trkpt lat="48.5135" lon="0.52264">
        <ele>194.635842</ele>
        <time>2021-09-06T15:33:20.000Z</time>
      </trkpt>
      <trkpt lat="48.51329" lon="0.52317">
        <ele>194.016449</ele>
        <time>2021-09-06T15:33:28.000Z</time>
      </trkpt>
      <trkpt lat="48.51314" lon="0.52357">
        <ele>193.590988</ele>
        <time>2021-09-06T15:33:34.000Z</time>
      </trkpt>
      <trkpt lat="48.51295" lon="0.52415">
        <ele>193.126215</ele>
        <time>2021-09-06T15:33:42.000Z</time>
      </trkpt>
      <trkpt lat="48.51278" lon="0.52482">
        <ele>192.598382</ele>
        <time>2021-09-06T15:33:51.000Z</time>
      </trkpt>
      <trkpt lat="48.51262" lon="0.52555">
        <ele>192.042484</ele>
        <time>2021-09-06T15:34:00.000Z</time>
      </trkpt>
      <trkpt lat="48.51253" lon="0.52613">
        <ele>191.655652</ele>
        <time>2021-09-06T15:34:07.000Z</time>
      </trkpt>
      <trkpt lat="48.51247" lon="0.52668">
        <ele>191.422012</ele>
        <time>2021-09-06T15:34:14.000Z</time>
      </trkpt>
      <trkpt lat="48.51246" lon="0.52689">
        <ele>191.334428</ele>
        <time>2021-09-06T15:34:17.000Z</time>
      </trkpt>
      <trkpt lat="48.51245" lon="0.52702">
        <ele>191.278775</ele>
        <time>2021-09-06T15:34:19.000Z</time>
      </trkpt>
      <trkpt lat="48.51245" lon="0.52709">
        <ele>191.250169</ele>
        <time>2021-09-06T15:34:20.000Z</time>
      </trkpt>
      <trkpt lat="48.51243" lon="0.52742">
        <ele>191.109757</ele>
        <time>2021-09-06T15:34:24.000Z</time>
      </trkpt>
      <trkpt lat="48.51241" lon="0.52793">
        <ele>190.895602</ele>
        <time>2021-09-06T15:34:30.000Z</time>
      </trkpt>
      <trkpt lat="48.51242" lon="0.52801">
        <ele>190.861914</ele>
        <time>2021-09-06T15:34:31.000Z</time>
      </trkpt>
      <trkpt lat="48.51243" lon="0.52809">
        <ele>190.828001</ele>
        <time>2021-09-06T15:34:32.000Z</time>
      </trkpt>
      <trkpt lat="48.51243" lon="0.52844">
        <ele>190.679626</ele>
        <time>2021-09-06T15:34:36.000Z</time>
      </trkpt>
      <trkpt lat="48.51247" lon="0.52904">
        <ele>190.567897</ele>
        <time>2021-09-06T15:34:43.000Z</time>
      </trkpt>
      <trkpt lat="48.51248" lon="0.52948">
        <ele>190.561167</ele>
        <time>2021-09-06T15:34:48.000Z</time>
      </trkpt>
      <trkpt lat="48.51248" lon="0.52957">
        <ele>190.559758</ele>
        <time>2021-09-06T15:34:49.000Z</time>
      </trkpt>
      <trkpt lat="48.51251" lon="0.52993">
        <ele>190.554164</ele>
        <time>2021-09-06T15:34:53.000Z</time>
      </trkpt>
      <trkpt lat="48.51255" lon="0.53026">
        <ele>190.549041</ele>
        <time>2021-09-06T15:34:57.000Z</time>
      </trkpt>
      <trkpt lat="48.51255" lon="0.5307">
        <ele>190.542172</ele>
        <time>2021-09-06T15:35:02.000Z</time>
      </trkpt>
      <trkpt lat="48.51252" lon="0.53123">
        <ele>190.533922</ele>
        <time>2021-09-06T15:35:08.000Z</time>
      </trkpt>
      <trkpt lat="48.51248" lon="0.53172">
        <ele>190.50331</ele>
        <time>2021-09-06T15:35:14.000Z</time>
      </trkpt>
      <trkpt lat="48.5124" lon="0.53219">
        <ele>190.461833</ele>
        <time>2021-09-06T15:35:20.000Z</time>
      </trkpt>
      <trkpt lat="48.51239" lon="0.53227">
        <ele>190.454821</ele>
        <time>2021-09-06T15:35:21.000Z</time>
      </trkpt>
      <trkpt lat="48.51232" lon="0.53267">
        <ele>190.419258</ele>
        <time>2021-09-06T15:35:26.000Z</time>
      </trkpt>
      <trkpt lat="48.51228" lon="0.53283">
        <ele>190.404434</ele>
        <time>2021-09-06T15:35:28.000Z</time>
      </trkpt>
      <trkpt lat="48.51221" lon="0.53307">
        <ele>190.38209</ele>
        <time>2021-09-06T15:35:31.000Z</time>
      </trkpt>
      <trkpt lat="48.51209" lon="0.53353">
        <ele>190.3404</ele>
        <time>2021-09-06T15:35:37.000Z</time>
      </trkpt>
      <trkpt lat="48.51197" lon="0.53394">
        <ele>190.301285</ele>
        <time>2021-09-06T15:35:43.000Z</time>
      </trkpt>
      <trkpt lat="48.51195" lon="0.53401">
        <ele>190.362962</ele>
        <time>2021-09-06T15:35:44.000Z</time>
      </trkpt>
      <trkpt lat="48.51186" lon="0.53436">
        <ele>190.981366</ele>
        <time>2021-09-06T15:35:50.000Z</time>
      </trkpt>
      <trkpt lat="48.51178" lon="0.53462">
        <ele>191.448193</ele>
        <time>2021-09-06T15:35:55.000Z</time>
      </trkpt>
      <trkpt lat="48.51177" lon="0.53467">
        <ele>191.531021</ele>
        <time>2021-09-06T15:35:56.000Z</time>
      </trkpt>
      <trkpt lat="48.51174" lon="0.53481">
        <ele>191.767994</ele>
        <time>2021-09-06T15:35:59.000Z</time>
      </trkpt>
      <trkpt lat="48.51167" lon="0.53509">
        <ele>192.259256</ele>
        <time>2021-09-06T15:36:04.000Z</time>
      </trkpt>
      <trkpt lat="48.51159" lon="0.53544">
        <ele>192.854421</ele>
        <time>2021-09-06T15:36:10.000Z</time>
      </trkpt>
      <trkpt lat="48.51153" lon="0.53576">
        <ele>193.410018</ele>
        <time>2021-09-06T15:36:16.000Z</time>
      </trkpt>
      <trkpt lat="48.51146" lon="0.5362">
        <ele>194.13097</ele>
        <time>2021-09-06T15:36:23.000Z</time>
      </trkpt>
      <trkpt lat="48.51142" lon="0.5367">
        <ele>195.281525</ele>
        <time>2021-09-06T15:36:31.000Z</time>
      </trkpt>
      <trkpt lat="48.51139" lon="0.53699">
        <ele>196.365186</ele>
        <time>2021-09-06T15:36:36.000Z</time>
      </trkpt>
      <trkpt lat="48.51137" lon="0.53719">
        <ele>197.126935</ele>
        <time>2021-09-06T15:36:41.000Z</time>
      </trkpt>
      <trkpt lat="48.51136" lon="0.53738">
        <ele>197.801916</ele>
        <time>2021-09-06T15:36:46.000Z</time>
      </trkpt>
      <trkpt lat="48.51138" lon="0.53756">
        <ele>198.511688</ele>
        <time>2021-09-06T15:36:51.000Z</time>
      </trkpt>
      <trkpt lat="48.51141" lon="0.53773">
        <ele>199.149077</ele>
        <time>2021-09-06T15:36:56.000Z</time>
      </trkpt>
      <trkpt lat="48.51142" lon="0.53794">
        <ele>199.920006</ele>
        <time>2021-09-06T15:37:01.000Z</time>
      </trkpt>
      <trkpt lat="48.51144" lon="0.53817">
        <ele>200.797466</ele>
        <time>2021-09-06T15:37:08.000Z</time>
      </trkpt>
      <trkpt lat="48.5114" lon="0.53828">
        <ele>201.244238</ele>
        <time>2021-09-06T15:37:14.000Z</time>
      </trkpt>
      <trkpt lat="48.51142" lon="0.53832">
        <ele>201.453561</ele>
        <time>2021-09-06T15:41:13.000Z</time>
      </trkpt>
      <trkpt lat="48.51145" lon="0.53835">
        <ele>201.635998</ele>
        <time>2021-09-06T15:41:15.000Z</time>
      </trkpt>
      <trkpt lat="48.51155" lon="0.53845">
        <ele>202.333595</ele>
        <time>2021-09-06T15:41:21.000Z</time>
      </trkpt>
      <trkpt lat="48.51169" lon="0.53854">
        <ele>203.171098</ele>
        <time>2021-09-06T15:41:28.000Z</time>
      </trkpt>
      <trkpt lat="48.51181" lon="0.5386">
        <ele>203.86793</ele>
        <time>2021-09-06T15:41:34.000Z</time>
      </trkpt>
      <trkpt lat="48.51192" lon="0.53866">
        <ele>204.513783</ele>
        <time>2021-09-06T15:41:40.000Z</time>
      </trkpt>
      <trkpt lat="48.51201" lon="0.53873">
        <ele>204.917491</ele>
        <time>2021-09-06T15:41:45.000Z</time>
      </trkpt>
      <trkpt lat="48.51212" lon="0.53885">
        <ele>205.198888</ele>
        <time>2021-09-06T15:41:52.000Z</time>
      </trkpt>
      <trkpt lat="48.51225" lon="0.53897">
        <ele>205.515449</ele>
        <time>2021-09-06T15:42:00.000Z</time>
      </trkpt>
      <trkpt lat="48.51235" lon="0.539">
        <ele>205.702504</ele>
        <time>2021-09-06T15:42:05.000Z</time>
      </trkpt>
      <trkpt lat="48.51244" lon="0.53896">
        <ele>205.9054</ele>
        <time>2021-09-06T15:42:11.000Z</time>
      </trkpt>
      <trkpt lat="48.51248" lon="0.53896">
        <ele>205.978254</ele>
        <time>2021-09-06T15:42:14.000Z</time>
      </trkpt>
      <trkpt lat="48.51249" lon="0.539">
        <ele>206.043162</ele>
        <time>2021-09-06T15:42:16.000Z</time>
      </trkpt>
      <trkpt lat="48.51254" lon="0.53922">
        <ele>206.359195</ele>
        <time>2021-09-06T15:42:22.000Z</time>
      </trkpt>
      <trkpt lat="48.51262" lon="0.53954">
        <ele>206.804428</ele>
        <time>2021-09-06T15:42:30.000Z</time>
      </trkpt>
      <trkpt lat="48.51268" lon="0.53979">
        <ele>207.16331</ele>
        <time>2021-09-06T15:42:36.000Z</time>
      </trkpt>
      <trkpt lat="48.51274" lon="0.54007">
        <ele>207.557565</ele>
        <time>2021-09-06T15:42:42.000Z</time>
      </trkpt>
      <trkpt lat="48.51276" lon="0.54015">
        <ele>207.676067</ele>
        <time>2021-09-06T15:42:44.000Z</time>
      </trkpt>
      <trkpt lat="48.51281" lon="0.5402">
        <ele>207.788512</ele>
        <time>2021-09-06T15:42:46.000Z</time>
      </trkpt>
      <trkpt lat="48.51295" lon="0.54029">
        <ele>208.102353</ele>
        <time>2021-09-06T15:42:52.000Z</time>
      </trkpt>
      <trkpt lat="48.51316" lon="0.54036">
        <ele>208.545063</ele>
        <time>2021-09-06T15:43:00.000Z</time>
      </trkpt>
      <trkpt lat="48.5134" lon="0.5404">
        <ele>209.028857</ele>
        <time>2021-09-06T15:43:09.000Z</time>
      </trkpt>
      <trkpt lat="48.51362" lon="0.54045">
        <ele>209.4651</ele>
        <time>2021-09-06T15:43:17.000Z</time>
      </trkpt>
      <trkpt lat="48.51386" lon="0.5405">
        <ele>209.96263</ele>
        <time>2021-09-06T15:43:26.000Z</time>
      </trkpt>
      <trkpt lat="48.51405" lon="0.54055">
        <ele>210.348313</ele>
        <time>2021-09-06T15:43:33.000Z</time>
      </trkpt>
      <trkpt lat="48.51424" lon="0.54059">
        <ele>210.72368</ele>
        <time>2021-09-06T15:43:40.000Z</time>
      </trkpt>
      <trkpt lat="48.51441" lon="0.54063">
        <ele>211.063194</ele>
        <time>2021-09-06T15:43:46.000Z</time>
      </trkpt>
      <trkpt lat="48.5146" lon="0.5407">
        <ele>211.461705</ele>
        <time>2021-09-06T15:43:53.000Z</time>
      </trkpt>
      <trkpt lat="48.51482" lon="0.54078">
        <ele>211.907088</ele>
        <time>2021-09-06T15:44:01.000Z</time>
      </trkpt>
      <trkpt lat="48.51511" lon="0.5409">
        <ele>212.878679</ele>
        <time>2021-09-06T15:44:12.000Z</time>
      </trkpt>
      <trkpt lat="48.51538" lon="0.54101">
        <ele>213.857258</ele>
        <time>2021-09-06T15:44:22.000Z</time>
      </trkpt>
      <trkpt lat="48.51558" lon="0.5411">
        <ele>214.603364</ele>
        <time>2021-09-06T15:44:30.000Z</time>
      </trkpt>
      <trkpt lat="48.51579" lon="0.54119">
        <ele>215.374055</ele>
        <time>2021-09-06T15:44:38.000Z</time>
      </trkpt>
      <trkpt lat="48.51602" lon="0.5413">
        <ele>216.243174</ele>
        <time>2021-09-06T15:44:47.000Z</time>
      </trkpt>
      <trkpt lat="48.51621" lon="0.54138">
        <ele>216.934271</ele>
        <time>2021-09-06T15:44:54.000Z</time>
      </trkpt>
      <trkpt lat="48.5164" lon="0.54146">
        <ele>217.624072</ele>
        <time>2021-09-06T15:45:01.000Z</time>
      </trkpt>
      <trkpt lat="48.51663" lon="0.54156">
        <ele>218.493747</ele>
        <time>2021-09-06T15:45:10.000Z</time>
      </trkpt>
      <trkpt lat="48.51686" lon="0.54167">
        <ele>219.682479</ele>
        <time>2021-09-06T15:45:19.000Z</time>
      </trkpt>
      <trkpt lat="48.51704" lon="0.54174">
        <ele>220.556428</ele>
        <time>2021-09-06T15:45:26.000Z</time>
      </trkpt>
      <trkpt lat="48.51716" lon="0.54179">
        <ele>221.191051</ele>
        <time>2021-09-06T15:45:31.000Z</time>
      </trkpt>
      <trkpt lat="48.51736" lon="0.54188">
        <ele>222.176275</ele>
        <time>2021-09-06T15:45:38.000Z</time>
      </trkpt>
      <trkpt lat="48.51763" lon="0.54201">
        <ele>223.573851</ele>
        <time>2021-09-06T15:45:48.000Z</time>
      </trkpt>
      <trkpt lat="48.51785" lon="0.54209">
        <ele>224.666651</ele>
        <time>2021-09-06T15:45:56.000Z</time>
      </trkpt>
      <trkpt lat="48.51804" lon="0.54213">
        <ele>225.5929</ele>
        <time>2021-09-06T15:46:03.000Z</time>
      </trkpt>
      <trkpt lat="48.5182" lon="0.54215">
        <ele>226.376927</ele>
        <time>2021-09-06T15:46:09.000Z</time>
      </trkpt>
      <trkpt lat="48.51839" lon="0.54212">
        <ele>227.296862</ele>
        <time>2021-09-06T15:46:16.000Z</time>
      </trkpt>
      <trkpt lat="48.51859" lon="0.54204">
        <ele>228.648564</ele>
        <time>2021-09-06T15:46:24.000Z</time>
      </trkpt>
      <trkpt lat="48.51881" lon="0.54188">
        <ele>230.239125</ele>
        <time>2021-09-06T15:46:33.000Z</time>
      </trkpt>
      <trkpt lat="48.51899" lon="0.54171">
        <ele>231.619824</ele>
        <time>2021-09-06T15:46:41.000Z</time>
      </trkpt>
      <trkpt lat="48.51918" lon="0.54158">
        <ele>232.983977</ele>
        <time>2021-09-06T15:46:49.000Z</time>
      </trkpt>
      <trkpt lat="48.51935" lon="0.5416">
        <ele>234.053794</ele>
        <time>2021-09-06T15:46:55.000Z</time>
      </trkpt>
      <trkpt lat="48.51951" lon="0.54171">
        <ele>235.165073</ele>
        <time>2021-09-06T15:47:02.000Z</time>
      </trkpt>
      <trkpt lat="48.5196" lon="0.54184">
        <ele>235.958065</ele>
        <time>2021-09-06T15:47:08.000Z</time>
      </trkpt>
      <trkpt lat="48.51961" lon="0.54185">
        <ele>236.098419</ele>
        <time>2021-09-06T15:47:09.000Z</time>
      </trkpt>
      <trkpt lat="48.51975" lon="0.54205">
        <ele>237.313113</ele>
        <time>2021-09-06T15:47:18.000Z</time>
      </trkpt>
      <trkpt lat="48.5199" lon="0.54222">
        <ele>238.546311</ele>
        <time>2021-09-06T15:47:26.000Z</time>
      </trkpt>
      <trkpt lat="48.52006" lon="0.54243">
        <ele>239.648038</ele>
        <time>2021-09-06T15:47:35.000Z</time>
      </trkpt>
      <trkpt lat="48.52019" lon="0.54261">
        <ele>240.586625</ele>
        <time>2021-09-06T15:47:43.000Z</time>
      </trkpt>
      <trkpt lat="48.52031" lon="0.54279">
        <ele>241.465357</ele>
        <time>2021-09-06T15:47:51.000Z</time>
      </trkpt>
      <trkpt lat="48.52045" lon="0.54294">
        <ele>242.348102</ele>
        <time>2021-09-06T15:47:59.000Z</time>
      </trkpt>
      <trkpt lat="48.52052" lon="0.54303">
        <ele>242.821518</ele>
        <time>2021-09-06T15:48:04.000Z</time>
      </trkpt>
      <trkpt lat="48.52065" lon="0.5432">
        <ele>243.733825</ele>
        <time>2021-09-06T15:48:12.000Z</time>
      </trkpt>
      <trkpt lat="48.52076" lon="0.54337">
        <ele>244.531075</ele>
        <time>2021-09-06T15:48:19.000Z</time>
      </trkpt>
      <trkpt lat="48.52085" lon="0.54351">
        <ele>245.190848</ele>
        <time>2021-09-06T15:48:25.000Z</time>
      </trkpt>
      <trkpt lat="48.52097" lon="0.54371">
        <ele>246.108237</ele>
        <time>2021-09-06T15:48:33.000Z</time>
      </trkpt>
      <trkpt lat="48.52106" lon="0.54384">
        <ele>246.768617</ele>
        <time>2021-09-06T15:48:39.000Z</time>
      </trkpt>
      <trkpt lat="48.5211" lon="0.54392">
        <ele>247.123767</ele>
        <time>2021-09-06T15:48:43.000Z</time>
      </trkpt>
      <trkpt lat="48.52109" lon="0.54395">
        <ele>247.216664</ele>
        <time>2021-09-06T15:48:44.000Z</time>
      </trkpt>
      <trkpt lat="48.52108" lon="0.54398">
        <ele>247.319647</ele>
        <time>2021-09-06T15:48:45.000Z</time>
      </trkpt>
      <trkpt lat="48.52101" lon="0.54403">
        <ele>247.751587</ele>
        <time>2021-09-06T15:48:49.000Z</time>
      </trkpt>
      <trkpt lat="48.52099" lon="0.54405">
        <ele>247.858096</ele>
        <time>2021-09-06T15:48:50.000Z</time>
      </trkpt>
      <trkpt lat="48.52094" lon="0.54413">
        <ele>248.204212</ele>
        <time>2021-09-06T15:48:54.000Z</time>
      </trkpt>
      <trkpt lat="48.52084" lon="0.54432">
        <ele>248.719199</ele>
        <time>2021-09-06T15:49:00.000Z</time>
      </trkpt>
      <trkpt lat="48.52075" lon="0.54449">
        <ele>249.201204</ele>
        <time>2021-09-06T15:49:06.000Z</time>
      </trkpt>
      <trkpt lat="48.52067" lon="0.54466">
        <ele>249.656818</ele>
        <time>2021-09-06T15:49:11.000Z</time>
      </trkpt>
      <trkpt lat="48.52072" lon="0.54477">
        <ele>249.946052</ele>
        <time>2021-09-06T15:49:14.000Z</time>
      </trkpt>
      <trkpt lat="48.52077" lon="0.54492">
        <ele>250.331321</ele>
        <time>2021-09-06T15:49:18.000Z</time>
      </trkpt>
      <trkpt lat="48.52079" lon="0.54495">
        <ele>250.40696</ele>
        <time>2021-09-06T15:49:19.000Z</time>
      </trkpt>
      <trkpt lat="48.52081" lon="0.54499">
        <ele>250.524083</ele>
        <time>2021-09-06T15:49:21.000Z</time>
      </trkpt>
      <trkpt lat="48.5208" lon="0.54504">
        <ele>250.634099</ele>
        <time>2021-09-06T15:49:23.000Z</time>
      </trkpt>
      <trkpt lat="48.52072" lon="0.54517">
        <ele>251.0358</ele>
        <time>2021-09-06T15:49:29.000Z</time>
      </trkpt>
      <trkpt lat="48.52059" lon="0.54535">
        <ele>251.608845</ele>
        <time>2021-09-06T15:49:36.000Z</time>
      </trkpt>
      <trkpt lat="48.52053" lon="0.54547">
        <ele>251.953304</ele>
        <time>2021-09-06T15:49:40.000Z</time>
      </trkpt>
      <trkpt lat="48.52045" lon="0.54558">
        <ele>252.295647</ele>
        <time>2021-09-06T15:49:45.000Z</time>
      </trkpt>
      <trkpt lat="48.52034" lon="0.54572">
        <ele>252.762317</ele>
        <time>2021-09-06T15:49:52.000Z</time>
      </trkpt>
      <trkpt lat="48.52029" lon="0.54579">
        <ele>253.008441</ele>
        <time>2021-09-06T15:49:57.000Z</time>
      </trkpt>
      <trkpt lat="48.52033" lon="0.54588">
        <ele>253.240841</ele>
        <time>2021-09-06T15:50:01.000Z</time>
      </trkpt>
      <trkpt lat="48.52034" lon="0.54591">
        <ele>253.304897</ele>
        <time>2021-09-06T15:50:02.000Z</time>
      </trkpt>
      <trkpt lat="48.52033" lon="0.54598">
        <ele>253.464209</ele>
        <time>2021-09-06T15:50:05.000Z</time>
      </trkpt>
      <trkpt lat="48.52033" lon="0.54599">
        <ele>253.492933</ele>
        <time>2021-09-06T15:50:06.000Z</time>
      </trkpt>
      <trkpt lat="48.52033" lon="0.54601">
        <ele>253.529788</ele>
        <time>2021-09-06T15:50:08.000Z</time>
      </trkpt>
      <trkpt lat="48.51949" lon="0.54809">
        <ele>259.622759</ele>
        <time>2021-09-06T16:08:02.000Z</time>
      </trkpt>
      <trkpt lat="48.51917" lon="0.54829">
        <ele>260.919532</ele>
        <time>2021-09-06T16:08:08.000Z</time>
      </trkpt>
      <trkpt lat="48.51888" lon="0.54852">
        <ele>260.786941</ele>
        <time>2021-09-06T16:08:14.000Z</time>
      </trkpt>
      <trkpt lat="48.51857" lon="0.54871">
        <ele>260.655305</ele>
        <time>2021-09-06T16:08:19.000Z</time>
      </trkpt>
      <trkpt lat="48.51814" lon="0.54902">
        <ele>260.46421</ele>
        <time>2021-09-06T16:08:25.000Z</time>
      </trkpt>
      <trkpt lat="48.51756" lon="0.54939">
        <ele>260.215082</ele>
        <time>2021-09-06T16:08:32.000Z</time>
      </trkpt>
      <trkpt lat="48.51713" lon="0.54968">
        <ele>258.290519</ele>
        <time>2021-09-06T16:08:37.000Z</time>
      </trkpt>
      <trkpt lat="48.51681" lon="0.54986">
        <ele>256.834077</ele>
        <time>2021-09-06T16:08:41.000Z</time>
      </trkpt>
      <trkpt lat="48.51664" lon="0.54996">
        <ele>256.049205</ele>
        <time>2021-09-06T16:08:44.000Z</time>
      </trkpt>
      <trkpt lat="48.51658" lon="0.54996">
        <ele>255.813082</ele>
        <time>2021-09-06T16:08:45.000Z</time>
      </trkpt>
      <trkpt lat="48.51653" lon="0.54995">
        <ele>255.56645</ele>
        <time>2021-09-06T16:08:46.000Z</time>
      </trkpt>
      <trkpt lat="48.5163" lon="0.54988">
        <ele>254.577776</ele>
        <time>2021-09-06T16:08:50.000Z</time>
      </trkpt>
      <trkpt lat="48.51586" lon="0.5497">
        <ele>252.608379</ele>
        <time>2021-09-06T16:08:57.000Z</time>
      </trkpt>
      <trkpt lat="48.5155" lon="0.54959">
        <ele>250.896236</ele>
        <time>2021-09-06T16:09:02.000Z</time>
      </trkpt>
      <trkpt lat="48.51543" lon="0.54957">
        <ele>250.542566</ele>
        <time>2021-09-06T16:09:03.000Z</time>
      </trkpt>
      <trkpt lat="48.5152" lon="0.5495">
        <ele>249.431222</ele>
        <time>2021-09-06T16:09:06.000Z</time>
      </trkpt>
      <trkpt lat="48.51505" lon="0.54946">
        <ele>248.678205</ele>
        <time>2021-09-06T16:09:08.000Z</time>
      </trkpt>
      <trkpt lat="48.51471" lon="0.54933">
        <ele>247.035471</ele>
        <time>2021-09-06T16:09:12.000Z</time>
      </trkpt>
      <trkpt lat="48.51416" lon="0.54914">
        <ele>244.35551</ele>
        <time>2021-09-06T16:09:18.000Z</time>
      </trkpt>
      <trkpt lat="48.5136" lon="0.54892">
        <ele>241.537232</ele>
        <time>2021-09-06T16:09:24.000Z</time>
      </trkpt>
      <trkpt lat="48.5135" lon="0.54889">
        <ele>241.06405</ele>
        <time>2021-09-06T16:09:25.000Z</time>
      </trkpt>
      <trkpt lat="48.51303" lon="0.54871">
        <ele>238.684963</ele>
        <time>2021-09-06T16:09:30.000Z</time>
      </trkpt>
      <trkpt lat="48.51252" lon="0.54853">
        <ele>236.163223</ele>
        <time>2021-09-06T16:09:35.000Z</time>
      </trkpt>
      <trkpt lat="48.51192" lon="0.54832">
        <ele>232.758156</ele>
        <time>2021-09-06T16:09:41.000Z</time>
      </trkpt>
      <trkpt lat="48.51181" lon="0.54828">
        <ele>232.146133</ele>
        <time>2021-09-06T16:09:42.000Z</time>
      </trkpt>
      <trkpt lat="48.51123" lon="0.54806">
        <ele>228.677686</ele>
        <time>2021-09-06T16:09:48.000Z</time>
      </trkpt>
      <trkpt lat="48.51115" lon="0.54803">
        <ele>228.178</ele>
        <time>2021-09-06T16:09:49.000Z</time>
      </trkpt>
      <trkpt lat="48.51092" lon="0.54795">
        <ele>226.822086</ele>
        <time>2021-09-06T16:09:52.000Z</time>
      </trkpt>
      <trkpt lat="48.51068" lon="0.54786">
        <ele>225.375485</ele>
        <time>2021-09-06T16:09:56.000Z</time>
      </trkpt>
      <trkpt lat="48.51053" lon="0.54781">
        <ele>224.490928</ele>
        <time>2021-09-06T16:09:59.000Z</time>
      </trkpt>
      <trkpt lat="48.51045" lon="0.54779">
        <ele>223.975207</ele>
        <time>2021-09-06T16:10:01.000Z</time>
      </trkpt>
      <trkpt lat="48.51028" lon="0.54774">
        <ele>222.93658</ele>
        <time>2021-09-06T16:10:06.000Z</time>
      </trkpt>
      <trkpt lat="48.51022" lon="0.54784">
        <ele>222.381023</ele>
        <time>2021-09-06T16:10:09.000Z</time>
      </trkpt>
      <trkpt lat="48.51019" lon="0.54793">
        <ele>221.946688</ele>
        <time>2021-09-06T16:10:11.000Z</time>
      </trkpt>
      <trkpt lat="48.51018" lon="0.54799">
        <ele>221.720344</ele>
        <time>2021-09-06T16:10:12.000Z</time>
      </trkpt>
      <trkpt lat="48.51009" lon="0.5483">
        <ele>220.328424</ele>
        <time>2021-09-06T16:10:19.000Z</time>
      </trkpt>
      <trkpt lat="48.51" lon="0.54847">
        <ele>219.445535</ele>
        <time>2021-09-06T16:10:23.000Z</time>
      </trkpt>
      <trkpt lat="48.50995" lon="0.54858">
        <ele>218.90995</ele>
        <time>2021-09-06T16:10:25.000Z</time>
      </trkpt>
      <trkpt lat="48.50986" lon="0.54881">
        <ele>217.823251</ele>
        <time>2021-09-06T16:10:29.000Z</time>
      </trkpt>
      <trkpt lat="48.50979" lon="0.54905">
        <ele>216.760826</ele>
        <time>2021-09-06T16:10:33.000Z</time>
      </trkpt>
      <trkpt lat="48.50972" lon="0.54923">
        <ele>215.931067</ele>
        <time>2021-09-06T16:10:36.000Z</time>
      </trkpt>
      <trkpt lat="48.50963" lon="0.54954">
        <ele>214.522732</ele>
        <time>2021-09-06T16:10:41.000Z</time>
      </trkpt>
      <trkpt lat="48.50958" lon="0.54967">
        <ele>213.953801</ele>
        <time>2021-09-06T16:10:43.000Z</time>
      </trkpt>
      <trkpt lat="48.50949" lon="0.54998">
        <ele>213.035433</ele>
        <time>2021-09-06T16:10:48.000Z</time>
      </trkpt>
      <trkpt lat="48.50945" lon="0.55011">
        <ele>212.706648</ele>
        <time>2021-09-06T16:10:50.000Z</time>
      </trkpt>
      <trkpt lat="48.50936" lon="0.55044">
        <ele>211.854281</ele>
        <time>2021-09-06T16:10:56.000Z</time>
      </trkpt>
      <trkpt lat="48.50922" lon="0.5508">
        <ele>210.851515</ele>
        <time>2021-09-06T16:11:03.000Z</time>
      </trkpt>
      <trkpt lat="48.50914" lon="0.55102">
        <ele>210.238634</ele>
        <time>2021-09-06T16:11:08.000Z</time>
      </trkpt>
      <trkpt lat="48.50905" lon="0.55121">
        <ele>209.662173</ele>
        <time>2021-09-06T16:11:12.000Z</time>
      </trkpt>
      <trkpt lat="48.50899" lon="0.55132">
        <ele>209.330331</ele>
        <time>2021-09-06T16:11:14.000Z</time>
      </trkpt>
      <trkpt lat="48.50888" lon="0.55155">
        <ele>208.639752</ele>
        <time>2021-09-06T16:11:18.000Z</time>
      </trkpt>
      <trkpt lat="48.50873" lon="0.55187">
        <ele>207.709944</ele>
        <time>2021-09-06T16:11:23.000Z</time>
      </trkpt>
      <trkpt lat="48.50871" lon="0.55194">
        <ele>207.526457</ele>
        <time>2021-09-06T16:11:24.000Z</time>
      </trkpt>
      <trkpt lat="48.50868" lon="0.552">
        <ele>207.345521</ele>
        <time>2021-09-06T16:11:25.000Z</time>
      </trkpt>
      <trkpt lat="48.50857" lon="0.55224">
        <ele>206.516267</ele>
        <time>2021-09-06T16:11:29.000Z</time>
      </trkpt>
      <trkpt lat="48.50855" lon="0.5523">
        <ele>206.31356</ele>
        <time>2021-09-06T16:11:30.000Z</time>
      </trkpt>
      <trkpt lat="48.50849" lon="0.55247">
        <ele>205.745891</ele>
        <time>2021-09-06T16:11:33.000Z</time>
      </trkpt>
      <trkpt lat="48.50836" lon="0.5529">
        <ele>204.364931</ele>
        <time>2021-09-06T16:11:40.000Z</time>
      </trkpt>
      <trkpt lat="48.50828" lon="0.55316">
        <ele>203.514207</ele>
        <time>2021-09-06T16:11:44.000Z</time>
      </trkpt>
      <trkpt lat="48.50823" lon="0.55329">
        <ele>203.083325</ele>
        <time>2021-09-06T16:11:46.000Z</time>
      </trkpt>
      <trkpt lat="48.50812" lon="0.55363">
        <ele>201.996894</ele>
        <time>2021-09-06T16:11:51.000Z</time>
      </trkpt>
      <trkpt lat="48.5081" lon="0.55369">
        <ele>201.781654</ele>
        <time>2021-09-06T16:11:52.000Z</time>
      </trkpt>
      <trkpt lat="48.50793" lon="0.5541">
        <ele>200.356095</ele>
        <time>2021-09-06T16:11:58.000Z</time>
      </trkpt>
      <trkpt lat="48.50786" lon="0.55434">
        <ele>199.601976</ele>
        <time>2021-09-06T16:12:02.000Z</time>
      </trkpt>
      <trkpt lat="48.50783" lon="0.5544">
        <ele>199.398701</ele>
        <time>2021-09-06T16:12:03.000Z</time>
      </trkpt>
      <trkpt lat="48.50777" lon="0.55458">
        <ele>198.461792</ele>
        <time>2021-09-06T16:12:06.000Z</time>
      </trkpt>
      <trkpt lat="48.50766" lon="0.5549">
        <ele>196.723434</ele>
        <time>2021-09-06T16:12:11.000Z</time>
      </trkpt>
      <trkpt lat="48.50751" lon="0.55529">
        <ele>194.56194</ele>
        <time>2021-09-06T16:12:17.000Z</time>
      </trkpt>
      <trkpt lat="48.5074" lon="0.55559">
        <ele>192.929572</ele>
        <time>2021-09-06T16:12:22.000Z</time>
      </trkpt>
      <trkpt lat="48.50738" lon="0.55565">
        <ele>192.597102</ele>
        <time>2021-09-06T16:12:23.000Z</time>
      </trkpt>
      <trkpt lat="48.50724" lon="0.55592">
        <ele>190.916973</ele>
        <time>2021-09-06T16:12:27.000Z</time>
      </trkpt>
      <trkpt lat="48.50711" lon="0.55622">
        <ele>189.163124</ele>
        <time>2021-09-06T16:12:33.000Z</time>
      </trkpt>
      <trkpt lat="48.50704" lon="0.55639">
        <ele>188.210611</ele>
        <time>2021-09-06T16:12:38.000Z</time>
      </trkpt>
      <trkpt lat="48.50703" lon="0.55642">
        <ele>188.056784</ele>
        <time>2021-09-06T16:12:39.000Z</time>
      </trkpt>
      <trkpt lat="48.50702" lon="0.55646">
        <ele>187.850013</ele>
        <time>2021-09-06T16:12:41.000Z</time>
      </trkpt>
      <trkpt lat="48.50701" lon="0.55646">
        <ele>187.747699</ele>
        <time>2021-09-06T16:12:42.000Z</time>
      </trkpt>
      <trkpt lat="48.50696" lon="0.55645">
        <ele>187.358362</ele>
        <time>2021-09-06T16:12:48.000Z</time>
      </trkpt>
      <trkpt lat="48.50694" lon="0.55644">
        <ele>187.238371</ele>
        <time>2021-09-06T16:13:14.000Z</time>
      </trkpt>
      <trkpt lat="48.5069" lon="0.5564">
        <ele>186.877049</ele>
        <time>2021-09-06T16:13:16.000Z</time>
      </trkpt>
      <trkpt lat="48.50673" lon="0.55629">
        <ele>185.896042</ele>
        <time>2021-09-06T16:13:21.000Z</time>
      </trkpt>
      <trkpt lat="48.50651" lon="0.55625">
        <ele>185.234845</ele>
        <time>2021-09-06T16:13:27.000Z</time>
      </trkpt>
      <trkpt lat="48.50633" lon="0.55629">
        <ele>184.703338</ele>
        <time>2021-09-06T16:13:32.000Z</time>
      </trkpt>
      <trkpt lat="48.50622" lon="0.55631">
        <ele>184.343982</ele>
        <time>2021-09-06T16:13:34.000Z</time>
      </trkpt>
      <trkpt lat="48.50617" lon="0.55633">
        <ele>184.185264</ele>
        <time>2021-09-06T16:13:35.000Z</time>
      </trkpt>
      <trkpt lat="48.50612" lon="0.55637">
        <ele>184.02259</ele>
        <time>2021-09-06T16:13:36.000Z</time>
      </trkpt>
      <trkpt lat="48.50602" lon="0.55648">
        <ele>183.646448</ele>
        <time>2021-09-06T16:13:39.000Z</time>
      </trkpt>
      <trkpt lat="48.50589" lon="0.55666">
        <ele>183.124035</ele>
        <time>2021-09-06T16:13:44.000Z</time>
      </trkpt>
      <trkpt lat="48.50568" lon="0.5569">
        <ele>182.338022</ele>
        <time>2021-09-06T16:13:51.000Z</time>
      </trkpt>
      <trkpt lat="48.50564" lon="0.55694">
        <ele>182.195663</ele>
        <time>2021-09-06T16:13:52.000Z</time>
      </trkpt>
      <trkpt lat="48.50553" lon="0.55706">
        <ele>181.783441</ele>
        <time>2021-09-06T16:13:55.000Z</time>
      </trkpt>
      <trkpt lat="48.50546" lon="0.55713">
        <ele>181.539087</ele>
        <time>2021-09-06T16:13:57.000Z</time>
      </trkpt>
      <trkpt lat="48.5054" lon="0.5572">
        <ele>181.310304</ele>
        <time>2021-09-06T16:13:59.000Z</time>
      </trkpt>
      <trkpt lat="48.50534" lon="0.55726">
        <ele>181.094673</ele>
        <time>2021-09-06T16:14:03.000Z</time>
      </trkpt>
      <trkpt lat="48.50517" lon="0.55753">
        <ele>181.323208</ele>
        <time>2021-09-06T16:14:32.000Z</time>
      </trkpt>
      <trkpt lat="48.50513" lon="0.55756">
        <ele>181.49325</ele>
        <time>2021-09-06T16:14:34.000Z</time>
      </trkpt>
      <trkpt lat="48.50508" lon="0.55762">
        <ele>181.76524</ele>
        <time>2021-09-06T16:14:39.000Z</time>
      </trkpt>
      <trkpt lat="48.50503" lon="0.5577">
        <ele>182.051338</ele>
        <time>2021-09-06T16:14:43.000Z</time>
      </trkpt>
      <trkpt lat="48.50502" lon="0.55771">
        <ele>182.113268</ele>
        <time>2021-09-06T16:14:44.000Z</time>
      </trkpt>
      <trkpt lat="48.50498" lon="0.55774">
        <ele>182.294088</ele>
        <time>2021-09-06T16:14:47.000Z</time>
      </trkpt>
      <trkpt lat="48.50491" lon="0.55785">
        <ele>182.729564</ele>
        <time>2021-09-06T16:14:52.000Z</time>
      </trkpt>
      <trkpt lat="48.50489" lon="0.55787">
        <ele>182.835788</ele>
        <time>2021-09-06T16:14:53.000Z</time>
      </trkpt>
      <trkpt lat="48.50484" lon="0.55792">
        <ele>183.073544</ele>
        <time>2021-09-06T16:14:56.000Z</time>
      </trkpt>
      <trkpt lat="48.50477" lon="0.558">
        <ele>183.431987</ele>
        <time>2021-09-06T16:15:00.000Z</time>
      </trkpt>
      <trkpt lat="48.50474" lon="0.55804">
        <ele>183.58306</ele>
        <time>2021-09-06T16:15:02.000Z</time>
      </trkpt>
      <trkpt lat="48.50465" lon="0.55814">
        <ele>184.062778</ele>
        <time>2021-09-06T16:15:08.000Z</time>
      </trkpt>
      <trkpt lat="48.5045" lon="0.55823">
        <ele>184.722963</ele>
        <time>2021-09-06T16:15:14.000Z</time>
      </trkpt>
      <trkpt lat="48.50429" lon="0.55836">
        <ele>185.682358</ele>
        <time>2021-09-06T16:15:20.000Z</time>
      </trkpt>
      <trkpt lat="48.50408" lon="0.55846">
        <ele>186.583029</ele>
        <time>2021-09-06T16:15:26.000Z</time>
      </trkpt>
      <trkpt lat="48.50386" lon="0.55853">
        <ele>187.534142</ele>
        <time>2021-09-06T16:15:32.000Z</time>
      </trkpt>
      <trkpt lat="48.50358" lon="0.5586">
        <ele>188.277534</ele>
        <time>2021-09-06T16:15:39.000Z</time>
      </trkpt>
      <trkpt lat="48.5033" lon="0.55867">
        <ele>188.390746</ele>
        <time>2021-09-06T16:15:47.000Z</time>
      </trkpt>
      <trkpt lat="48.50315" lon="0.55869">
        <ele>188.455008</ele>
        <time>2021-09-06T16:15:52.000Z</time>
      </trkpt>
      <trkpt lat="48.50291" lon="0.5587">
        <ele>188.549307</ele>
        <time>2021-09-06T16:15:59.000Z</time>
      </trkpt>
      <trkpt lat="48.50278" lon="0.55872">
        <ele>188.602709</ele>
        <time>2021-09-06T16:16:03.000Z</time>
      </trkpt>
      <trkpt lat="48.5026" lon="0.55875">
        <ele>188.67516</ele>
        <time>2021-09-06T16:16:08.000Z</time>
      </trkpt>
      <trkpt lat="48.50247" lon="0.55877">
        <ele>188.728471</ele>
        <time>2021-09-06T16:16:11.000Z</time>
      </trkpt>
      <trkpt lat="48.50241" lon="0.55885">
        <ele>188.760517</ele>
        <time>2021-09-06T16:16:13.000Z</time>
      </trkpt>
      <trkpt lat="48.5024" lon="0.55902">
        <ele>188.807885</ele>
        <time>2021-09-06T16:16:17.000Z</time>
      </trkpt>
      <trkpt lat="48.5024" lon="0.5592">
        <ele>188.854272</ele>
        <time>2021-09-06T16:16:22.000Z</time>
      </trkpt>
      <trkpt lat="48.5024" lon="0.5594">
        <ele>188.909799</ele>
        <time>2021-09-06T16:16:28.000Z</time>
      </trkpt>
      <trkpt lat="48.50239" lon="0.55954">
        <ele>188.946056</ele>
        <time>2021-09-06T16:16:32.000Z</time>
      </trkpt>
      <trkpt lat="48.50242" lon="0.55968">
        <ele>188.909677</ele>
        <time>2021-09-06T16:16:37.000Z</time>
      </trkpt>
      <trkpt lat="48.50256" lon="0.5598">
        <ele>188.781525</ele>
        <time>2021-09-06T16:16:44.000Z</time>
      </trkpt>
      <trkpt lat="48.50269" lon="0.55993">
        <ele>188.659783</ele>
        <time>2021-09-06T16:16:51.000Z</time>
      </trkpt>
      <trkpt lat="48.50272" lon="0.56">
        <ele>188.614962</ele>
        <time>2021-09-06T16:16:54.000Z</time>
      </trkpt>
      <trkpt lat="48.50273" lon="0.56004">
        <ele>188.589817</ele>
        <time>2021-09-06T16:16:56.000Z</time>
      </trkpt>
      <trkpt lat="48.50272" lon="0.56018">
        <ele>188.51919</ele>
        <time>2021-09-06T16:17:00.000Z</time>
      </trkpt>
      <trkpt lat="48.50269" lon="0.5602">
        <ele>188.494748</ele>
        <time>2021-09-06T16:17:01.000Z</time>
      </trkpt>
      <trkpt lat="48.50263" lon="0.56026">
        <ele>188.438536</ele>
        <time>2021-09-06T16:17:04.000Z</time>
      </trkpt>
      <trkpt lat="48.50255" lon="0.56034">
        <ele>188.361496</ele>
        <time>2021-09-06T16:17:08.000Z</time>
      </trkpt>
      <trkpt lat="48.50248" lon="0.56042">
        <ele>188.292509</ele>
        <time>2021-09-06T16:17:12.000Z</time>
      </trkpt>
      <trkpt lat="48.50236" lon="0.56056">
        <ele>188.171304</ele>
        <time>2021-09-06T16:17:18.000Z</time>
      </trkpt>
      <trkpt lat="48.50225" lon="0.56068">
        <ele>188.066508</ele>
        <time>2021-09-06T16:17:22.000Z</time>
      </trkpt>
      <trkpt lat="48.50213" lon="0.5608">
        <ele>187.948643</ele>
        <time>2021-09-06T16:17:26.000Z</time>
      </trkpt>
      <trkpt lat="48.50193" lon="0.56103">
        <ele>187.750524</ele>
        <time>2021-09-06T16:17:32.000Z</time>
      </trkpt>
      <trkpt lat="48.50176" lon="0.56126">
        <ele>187.571625</ele>
        <time>2021-09-06T16:17:38.000Z</time>
      </trkpt>
      <trkpt lat="48.50164" lon="0.56142">
        <ele>187.284077</ele>
        <time>2021-09-06T16:17:43.000Z</time>
      </trkpt>
      <trkpt lat="48.50157" lon="0.56146">
        <ele>187.124752</ele>
        <time>2021-09-06T16:17:48.000Z</time>
      </trkpt>
      <trkpt lat="48.50154" lon="0.56151">
        <ele>187.024849</ele>
        <time>2021-09-06T16:19:06.000Z</time>
      </trkpt>
      <trkpt lat="48.5015" lon="0.56156">
        <ele>186.908486</ele>
        <time>2021-09-06T16:19:08.000Z</time>
      </trkpt>
      <trkpt lat="48.50136" lon="0.56177">
        <ele>186.498716</ele>
        <time>2021-09-06T16:19:13.000Z</time>
      </trkpt>
      <trkpt lat="48.50124" lon="0.56196">
        <ele>186.116308</ele>
        <time>2021-09-06T16:19:17.000Z</time>
      </trkpt>
      <trkpt lat="48.5011" lon="0.5622">
        <ele>185.660297</ele>
        <time>2021-09-06T16:19:22.000Z</time>
      </trkpt>
      <trkpt lat="48.50101" lon="0.56236">
        <ele>185.358808</ele>
        <time>2021-09-06T16:19:26.000Z</time>
      </trkpt>
      <trkpt lat="48.50099" lon="0.5624">
        <ele>185.298686</ele>
        <time>2021-09-06T16:19:27.000Z</time>
      </trkpt>
      <trkpt lat="48.5009" lon="0.56257">
        <ele>184.969779</ele>
        <time>2021-09-06T16:19:31.000Z</time>
      </trkpt>
      <trkpt lat="48.50086" lon="0.56262">
        <ele>184.868795</ele>
        <time>2021-09-06T16:19:32.000Z</time>
      </trkpt>
      <trkpt lat="48.50081" lon="0.56271">
        <ele>184.695063</ele>
        <time>2021-09-06T16:19:34.000Z</time>
      </trkpt>
      <trkpt lat="48.50067" lon="0.563">
        <ele>184.185445</ele>
        <time>2021-09-06T16:19:39.000Z</time>
      </trkpt>
      <trkpt lat="48.5005" lon="0.56339">
        <ele>183.5951</ele>
        <time>2021-09-06T16:19:45.000Z</time>
      </trkpt>
      <trkpt lat="48.50038" lon="0.56372">
        <ele>183.35528</ele>
        <time>2021-09-06T16:19:50.000Z</time>
      </trkpt>
      <trkpt lat="48.50023" lon="0.5641">
        <ele>183.073019</ele>
        <time>2021-09-06T16:19:56.000Z</time>
      </trkpt>
      <trkpt lat="48.50016" lon="0.56433">
        <ele>182.911818</ele>
        <time>2021-09-06T16:20:00.000Z</time>
      </trkpt>
      <trkpt lat="48.50005" lon="0.56464">
        <ele>182.691516</ele>
        <time>2021-09-06T16:20:05.000Z</time>
      </trkpt>
      <trkpt lat="48.49999" lon="0.56482">
        <ele>182.562615</ele>
        <time>2021-09-06T16:20:08.000Z</time>
      </trkpt>
      <trkpt lat="48.49995" lon="0.56494">
        <ele>182.475349</ele>
        <time>2021-09-06T16:20:10.000Z</time>
      </trkpt>
      <trkpt lat="48.49993" lon="0.56501">
        <ele>182.430281</ele>
        <time>2021-09-06T16:20:11.000Z</time>
      </trkpt>
      <trkpt lat="48.49989" lon="0.56513">
        <ele>182.341815</ele>
        <time>2021-09-06T16:20:13.000Z</time>
      </trkpt>
      <trkpt lat="48.49987" lon="0.56519">
        <ele>182.298263</ele>
        <time>2021-09-06T16:20:14.000Z</time>
      </trkpt>
      <trkpt lat="48.49977" lon="0.56555">
        <ele>182.050154</ele>
        <time>2021-09-06T16:20:20.000Z</time>
      </trkpt>
      <trkpt lat="48.49974" lon="0.56576">
        <ele>181.888873</ele>
        <time>2021-09-06T16:20:24.000Z</time>
      </trkpt>
      <trkpt lat="48.49964" lon="0.56603">
        <ele>181.456086</ele>
        <time>2021-09-06T16:20:29.000Z</time>
      </trkpt>
      <trkpt lat="48.4995" lon="0.56639">
        <ele>180.879303</ele>
        <time>2021-09-06T16:20:35.000Z</time>
      </trkpt>
      <trkpt lat="48.49943" lon="0.56661">
        <ele>180.532904</ele>
        <time>2021-09-06T16:20:39.000Z</time>
      </trkpt>
      <trkpt lat="48.49936" lon="0.56687">
        <ele>180.148407</ele>
        <time>2021-09-06T16:20:45.000Z</time>
      </trkpt>
      <trkpt lat="48.4993" lon="0.56704">
        <ele>179.87736</ele>
        <time>2021-09-06T16:20:49.000Z</time>
      </trkpt>
      <trkpt lat="48.49927" lon="0.56717">
        <ele>179.68447</ele>
        <time>2021-09-06T16:20:52.000Z</time>
      </trkpt>
      <trkpt lat="48.49924" lon="0.56725">
        <ele>179.556269</ele>
        <time>2021-09-06T16:20:54.000Z</time>
      </trkpt>
      <trkpt lat="48.4992" lon="0.56742">
        <ele>179.305719</ele>
        <time>2021-09-06T16:20:58.000Z</time>
      </trkpt>
      <trkpt lat="48.49918" lon="0.56747">
        <ele>179.229998</ele>
        <time>2021-09-06T16:20:59.000Z</time>
      </trkpt>
      <trkpt lat="48.49913" lon="0.5676">
        <ele>179.017679</ele>
        <time>2021-09-06T16:21:02.000Z</time>
      </trkpt>
      <trkpt lat="48.49912" lon="0.56764">
        <ele>178.946555</ele>
        <time>2021-09-06T16:21:03.000Z</time>
      </trkpt>
      <trkpt lat="48.49905" lon="0.56787">
        <ele>178.593121</ele>
        <time>2021-09-06T16:21:08.000Z</time>
      </trkpt>
      <trkpt lat="48.49899" lon="0.56807">
        <ele>178.296216</ele>
        <time>2021-09-06T16:21:12.000Z</time>
      </trkpt>
      <trkpt lat="48.49892" lon="0.56831">
        <ele>177.919916</ele>
        <time>2021-09-06T16:21:17.000Z</time>
      </trkpt>
      <trkpt lat="48.49888" lon="0.56844">
        <ele>177.696215</ele>
        <time>2021-09-06T16:21:20.000Z</time>
      </trkpt>
      <trkpt lat="48.49885" lon="0.56853">
        <ele>177.550753</ele>
        <time>2021-09-06T16:21:22.000Z</time>
      </trkpt>
      <trkpt lat="48.49878" lon="0.56875">
        <ele>177.173205</ele>
        <time>2021-09-06T16:21:26.000Z</time>
      </trkpt>
      <trkpt lat="48.49869" lon="0.569">
        <ele>176.751969</ele>
        <time>2021-09-06T16:21:31.000Z</time>
      </trkpt>
      <trkpt lat="48.49864" lon="0.56916">
        <ele>176.483187</ele>
        <time>2021-09-06T16:21:35.000Z</time>
      </trkpt>
      <trkpt lat="48.49859" lon="0.56931">
        <ele>176.224974</ele>
        <time>2021-09-06T16:21:39.000Z</time>
      </trkpt>
      <trkpt lat="48.49853" lon="0.56955">
        <ele>175.846362</ele>
        <time>2021-09-06T16:21:43.000Z</time>
      </trkpt>
      <trkpt lat="48.49844" lon="0.56983">
        <ele>175.377466</ele>
        <time>2021-09-06T16:21:48.000Z</time>
      </trkpt>
      <trkpt lat="48.49836" lon="0.57009">
        <ele>174.941747</ele>
        <time>2021-09-06T16:21:53.000Z</time>
      </trkpt>
      <trkpt lat="48.49832" lon="0.57025">
        <ele>174.696979</ele>
        <time>2021-09-06T16:21:56.000Z</time>
      </trkpt>
      <trkpt lat="48.49822" lon="0.57053">
        <ele>174.221184</ele>
        <time>2021-09-06T16:22:01.000Z</time>
      </trkpt>
      <trkpt lat="48.49815" lon="0.57076">
        <ele>174.037148</ele>
        <time>2021-09-06T16:22:06.000Z</time>
      </trkpt>
      <trkpt lat="48.49806" lon="0.57096">
        <ele>173.998055</ele>
        <time>2021-09-06T16:22:11.000Z</time>
      </trkpt>
      <trkpt lat="48.49799" lon="0.57128">
        <ele>173.944404</ele>
        <time>2021-09-06T16:22:16.000Z</time>
      </trkpt>
      <trkpt lat="48.49795" lon="0.57145">
        <ele>173.915993</ele>
        <time>2021-09-06T16:22:19.000Z</time>
      </trkpt>
      <trkpt lat="48.49793" lon="0.57148">
        <ele>173.908436</ele>
        <time>2021-09-06T16:22:20.000Z</time>
      </trkpt>
      <trkpt lat="48.4979" lon="0.57155">
        <ele>173.894687</ele>
        <time>2021-09-06T16:22:22.000Z</time>
      </trkpt>
      <trkpt lat="48.49787" lon="0.57164">
        <ele>173.879415</ele>
        <time>2021-09-06T16:22:24.000Z</time>
      </trkpt>
      <trkpt lat="48.4978" lon="0.5718">
        <ele>173.849259</ele>
        <time>2021-09-06T16:22:29.000Z</time>
      </trkpt>
      <trkpt lat="48.49779" lon="0.57183">
        <ele>173.842914</ele>
        <time>2021-09-06T16:22:30.000Z</time>
      </trkpt>
      <trkpt lat="48.49776" lon="0.57194">
        <ele>173.824562</ele>
        <time>2021-09-06T16:22:33.000Z</time>
      </trkpt>
      <trkpt lat="48.49766" lon="0.57223">
        <ele>173.77221</ele>
        <time>2021-09-06T16:22:39.000Z</time>
      </trkpt>
      <trkpt lat="48.49759" lon="0.57242">
        <ele>173.736689</ele>
        <time>2021-09-06T16:22:44.000Z</time>
      </trkpt>
      <trkpt lat="48.49748" lon="0.57266">
        <ele>173.689985</ele>
        <time>2021-09-06T16:22:50.000Z</time>
      </trkpt>
      <trkpt lat="48.49746" lon="0.5727">
        <ele>173.682466</ele>
        <time>2021-09-06T16:22:52.000Z</time>
      </trkpt>
      <trkpt lat="48.49742" lon="0.57281">
        <ele>173.661425</ele>
        <time>2021-09-06T16:23:40.000Z</time>
      </trkpt>
      <trkpt lat="48.49741" lon="0.57284">
        <ele>173.656934</ele>
        <time>2021-09-06T16:23:41.000Z</time>
      </trkpt>
      <trkpt lat="48.49731" lon="0.57306">
        <ele>173.687436</ele>
        <time>2021-09-06T16:23:46.000Z</time>
      </trkpt>
      <trkpt lat="48.49713" lon="0.57342">
        <ele>174.030681</ele>
        <time>2021-09-06T16:23:53.000Z</time>
      </trkpt>
      <trkpt lat="48.49711" lon="0.57348">
        <ele>174.084896</ele>
        <time>2021-09-06T16:23:54.000Z</time>
      </trkpt>
      <trkpt lat="48.497" lon="0.57364">
        <ele>174.256953</ele>
        <time>2021-09-06T16:23:57.000Z</time>
      </trkpt>
      <trkpt lat="48.49696" lon="0.57371">
        <ele>174.322504</ele>
        <time>2021-09-06T16:23:58.000Z</time>
      </trkpt>
      <trkpt lat="48.49688" lon="0.57386">
        <ele>174.477619</ele>
        <time>2021-09-06T16:24:01.000Z</time>
      </trkpt>
      <trkpt lat="48.49686" lon="0.57391">
        <ele>174.520277</ele>
        <time>2021-09-06T16:24:02.000Z</time>
      </trkpt>
      <trkpt lat="48.49678" lon="0.57403">
        <ele>174.650124</ele>
        <time>2021-09-06T16:24:04.000Z</time>
      </trkpt>
      <trkpt lat="48.49666" lon="0.57421">
        <ele>174.84465</ele>
        <time>2021-09-06T16:24:08.000Z</time>
      </trkpt>
      <trkpt lat="48.49645" lon="0.57448">
        <ele>175.156638</ele>
        <time>2021-09-06T16:24:13.000Z</time>
      </trkpt>
      <trkpt lat="48.49627" lon="0.57474">
        <ele>175.444761</ele>
        <time>2021-09-06T16:24:18.000Z</time>
      </trkpt>
      <trkpt lat="48.49609" lon="0.57496">
        <ele>175.718971</ele>
        <time>2021-09-06T16:24:23.000Z</time>
      </trkpt>
      <trkpt lat="48.49591" lon="0.57519">
        <ele>176.103333</ele>
        <time>2021-09-06T16:24:30.000Z</time>
      </trkpt>
      <trkpt lat="48.49577" lon="0.57538">
        <ele>176.406773</ele>
        <time>2021-09-06T16:24:35.000Z</time>
      </trkpt>
      <trkpt lat="48.49563" lon="0.57558">
        <ele>176.721505</ele>
        <time>2021-09-06T16:24:40.000Z</time>
      </trkpt>
      <trkpt lat="48.49546" lon="0.57575">
        <ele>177.051315</ele>
        <time>2021-09-06T16:24:45.000Z</time>
      </trkpt>
      <trkpt lat="48.49528" lon="0.57591">
        <ele>177.391765</ele>
        <time>2021-09-06T16:24:49.000Z</time>
      </trkpt>
      <trkpt lat="48.49505" lon="0.57622">
        <ele>177.891494</ele>
        <time>2021-09-06T16:24:55.000Z</time>
      </trkpt>
      <trkpt lat="48.49485" lon="0.57648">
        <ele>178.321531</ele>
        <time>2021-09-06T16:25:01.000Z</time>
      </trkpt>
      <trkpt lat="48.49473" lon="0.57666">
        <ele>178.59845</ele>
        <time>2021-09-06T16:25:05.000Z</time>
      </trkpt>
      <trkpt lat="48.49466" lon="0.57679">
        <ele>178.439861</ele>
        <time>2021-09-06T16:25:10.000Z</time>
      </trkpt>
      <trkpt lat="48.49463" lon="0.57682">
        <ele>178.382559</ele>
        <time>2021-09-06T16:25:12.000Z</time>
      </trkpt>
      <trkpt lat="48.49461" lon="0.57683">
        <ele>178.343868</ele>
        <time>2021-09-06T16:25:14.000Z</time>
      </trkpt>
      <trkpt lat="48.49461" lon="0.57682">
        <ele>178.333838</ele>
        <time>2021-09-06T16:25:15.000Z</time>
      </trkpt>
      <trkpt lat="48.49464" lon="0.57681">
        <ele>178.291076</ele>
        <time>2021-09-06T16:25:18.000Z</time>
      </trkpt>
      <trkpt lat="48.49465" lon="0.57677">
        <ele>178.232689</ele>
        <time>2021-09-06T16:25:20.000Z</time>
      </trkpt>
      <trkpt lat="48.49466" lon="0.57675">
        <ele>178.198521</ele>
        <time>2021-09-06T16:25:22.000Z</time>
      </trkpt>
      <trkpt lat="48.49468" lon="0.57672">
        <ele>178.154606</ele>
        <time>2021-09-06T16:25:24.000Z</time>
      </trkpt>
      <trkpt lat="48.49476" lon="0.57663">
        <ele>177.979877</ele>
        <time>2021-09-06T16:25:29.000Z</time>
      </trkpt>
      <trkpt lat="48.49486" lon="0.57651">
        <ele>177.754084</ele>
        <time>2021-09-06T16:25:33.000Z</time>
      </trkpt>
      <trkpt lat="48.49498" lon="0.57634">
        <ele>177.465752</ele>
        <time>2021-09-06T16:25:38.000Z</time>
      </trkpt>
      <trkpt lat="48.49513" lon="0.57613">
        <ele>177.097882</ele>
        <time>2021-09-06T16:25:43.000Z</time>
      </trkpt>
      <trkpt lat="48.49528" lon="0.57595">
        <ele>176.756105</ele>
        <time>2021-09-06T16:25:48.000Z</time>
      </trkpt>
      <trkpt lat="48.4954" lon="0.5758">
        <ele>176.479185</ele>
        <time>2021-09-06T16:25:53.000Z</time>
      </trkpt>
      <trkpt lat="48.49541" lon="0.57577">
        <ele>176.442093</ele>
        <time>2021-09-06T16:25:54.000Z</time>
      </trkpt>
      <trkpt lat="48.49538" lon="0.57572">
        <ele>176.360812</ele>
        <time>2021-09-06T16:25:56.000Z</time>
      </trkpt>
      <trkpt lat="48.4952" lon="0.57556">
        <ele>175.999647</ele>
        <time>2021-09-06T16:26:02.000Z</time>
      </trkpt>
      <trkpt lat="48.49503" lon="0.57544">
        <ele>175.663804</ele>
        <time>2021-09-06T16:26:08.000Z</time>
      </trkpt>
      <trkpt lat="48.49498" lon="0.57543">
        <ele>175.573882</ele>
        <time>2021-09-06T16:26:13.000Z</time>
      </trkpt>
      <trkpt lat="48.49498" lon="0.57543">
        <ele>175.567503</ele>
        <time>2021-09-06T16:26:14.000Z</time>
      </trkpt>
      <trkpt lat="48.49493" lon="0.5753">
        <ele>175.437402</ele>
        <time>2021-09-06T16:26:54.000Z</time>
      </trkpt>
      <trkpt lat="48.49489" lon="0.57526">
        <ele>175.451156</ele>
        <time>2021-09-06T16:26:56.000Z</time>
      </trkpt>
      <trkpt lat="48.49476" lon="0.57513">
        <ele>175.504677</ele>
        <time>2021-09-06T16:27:02.000Z</time>
      </trkpt>
      <trkpt lat="48.49461" lon="0.57499">
        <ele>175.564734</ele>
        <time>2021-09-06T16:27:09.000Z</time>
      </trkpt>
      <trkpt lat="48.49448" lon="0.57488">
        <ele>175.613882</ele>
        <time>2021-09-06T16:27:15.000Z</time>
      </trkpt>
      <trkpt lat="48.49444" lon="0.57484">
        <ele>175.631356</ele>
        <time>2021-09-06T16:27:18.000Z</time>
      </trkpt>
      <trkpt lat="48.49441" lon="0.57482">
        <ele>175.641197</ele>
        <time>2021-09-06T16:27:20.000Z</time>
      </trkpt>
      <trkpt lat="48.49433" lon="0.57473">
        <ele>175.675924</ele>
        <time>2021-09-06T16:27:26.000Z</time>
      </trkpt>
      <trkpt lat="48.49432" lon="0.57472">
        <ele>175.680348</ele>
        <time>2021-09-06T16:27:27.000Z</time>
      </trkpt>
      <trkpt lat="48.49428" lon="0.5747">
        <ele>175.694467</ele>
        <time>2021-09-06T16:27:30.000Z</time>
      </trkpt>
      <trkpt lat="48.49418" lon="0.57457">
        <ele>175.738233</ele>
        <time>2021-09-06T16:27:37.000Z</time>
      </trkpt>
      <trkpt lat="48.49406" lon="0.57448">
        <ele>175.782182</ele>
        <time>2021-09-06T16:27:43.000Z</time>
      </trkpt>
      <trkpt lat="48.49404" lon="0.57448">
        <ele>175.788256</ele>
        <time>2021-09-06T16:27:44.000Z</time>
      </trkpt>
      <trkpt lat="48.49406" lon="0.57452">
        <ele>175.797864</ele>
        <time>2021-09-06T16:27:46.000Z</time>
      </trkpt>
      <trkpt lat="48.49419" lon="0.57463">
        <ele>175.848014</ele>
        <time>2021-09-06T16:27:52.000Z</time>
      </trkpt>
      <trkpt lat="48.49432" lon="0.57473">
        <ele>175.898227</ele>
        <time>2021-09-06T16:27:59.000Z</time>
      </trkpt>
      <trkpt lat="48.49443" lon="0.57482">
        <ele>175.939534</ele>
        <time>2021-09-06T16:28:05.000Z</time>
      </trkpt>
      <trkpt lat="48.49452" lon="0.5749">
        <ele>175.97765</ele>
        <time>2021-09-06T16:28:11.000Z</time>
      </trkpt>
      <trkpt lat="48.49462" lon="0.57501">
        <ele>176.017113</ele>
        <time>2021-09-06T16:28:17.000Z</time>
      </trkpt>
      <trkpt lat="48.49471" lon="0.57511">
        <ele>176.118933</ele>
        <time>2021-09-06T16:28:23.000Z</time>
      </trkpt>
      <trkpt lat="48.49488" lon="0.57526">
        <ele>176.373367</ele>
        <time>2021-09-06T16:28:30.000Z</time>
      </trkpt>
      <trkpt lat="48.49509" lon="0.57544">
        <ele>176.691517</ele>
        <time>2021-09-06T16:28:38.000Z</time>
      </trkpt>
      <trkpt lat="48.49528" lon="0.57561">
        <ele>176.971853</ele>
        <time>2021-09-06T16:28:44.000Z</time>
      </trkpt>
      <trkpt lat="48.49539" lon="0.57574">
        <ele>177.162205</ele>
        <time>2021-09-06T16:28:49.000Z</time>
      </trkpt>
      <trkpt lat="48.4954" lon="0.57576">
        <ele>177.185331</ele>
        <time>2021-09-06T16:28:50.000Z</time>
      </trkpt>
      <trkpt lat="48.49538" lon="0.57581">
        <ele>177.234424</ele>
        <time>2021-09-06T16:28:52.000Z</time>
      </trkpt>
      <trkpt lat="48.49525" lon="0.57596">
        <ele>177.445108</ele>
        <time>2021-09-06T16:28:57.000Z</time>
      </trkpt>
      <trkpt lat="48.49511" lon="0.57615">
        <ele>177.695031</ele>
        <time>2021-09-06T16:29:02.000Z</time>
      </trkpt>
      <trkpt lat="48.49494" lon="0.57636">
        <ele>177.98552</ele>
        <time>2021-09-06T16:29:08.000Z</time>
      </trkpt>
      <trkpt lat="48.4948" lon="0.57658">
        <ele>178.248709</ele>
        <time>2021-09-06T16:29:13.000Z</time>
      </trkpt>
      <trkpt lat="48.49463" lon="0.5768">
        <ele>178.43002</ele>
        <time>2021-09-06T16:29:19.000Z</time>
      </trkpt>
      <trkpt lat="48.49442" lon="0.57707">
        <ele>178.531078</ele>
        <time>2021-09-06T16:29:25.000Z</time>
      </trkpt>
      <trkpt lat="48.49435" lon="0.57717">
        <ele>178.567618</ele>
        <time>2021-09-06T16:29:27.000Z</time>
      </trkpt>
      <trkpt lat="48.49423" lon="0.5773">
        <ele>178.623561</ele>
        <time>2021-09-06T16:29:30.000Z</time>
      </trkpt>
      <trkpt lat="48.49407" lon="0.57748">
        <ele>178.697654</ele>
        <time>2021-09-06T16:29:35.000Z</time>
      </trkpt>
      <trkpt lat="48.49393" lon="0.57768">
        <ele>178.769005</ele>
        <time>2021-09-06T16:29:39.000Z</time>
      </trkpt>
      <trkpt lat="48.49389" lon="0.57773">
        <ele>178.78881</ele>
        <time>2021-09-06T16:29:40.000Z</time>
      </trkpt>
      <trkpt lat="48.49379" lon="0.57786">
        <ele>178.838258</ele>
        <time>2021-09-06T16:29:43.000Z</time>
      </trkpt>
      <trkpt lat="48.49361" lon="0.57808">
        <ele>178.92303</ele>
        <time>2021-09-06T16:29:48.000Z</time>
      </trkpt>
      <trkpt lat="48.49341" lon="0.57834">
        <ele>179.023363</ele>
        <time>2021-09-06T16:29:53.000Z</time>
      </trkpt>
      <trkpt lat="48.49322" lon="0.57859">
        <ele>178.786421</ele>
        <time>2021-09-06T16:29:58.000Z</time>
      </trkpt>
      <trkpt lat="48.49314" lon="0.5787">
        <ele>178.602432</ele>
        <time>2021-09-06T16:30:00.000Z</time>
      </trkpt>
      <trkpt lat="48.49305" lon="0.57882">
        <ele>178.415494</ele>
        <time>2021-09-06T16:30:02.000Z</time>
      </trkpt>
      <trkpt lat="48.49284" lon="0.57909">
        <ele>177.953705</ele>
        <time>2021-09-06T16:30:08.000Z</time>
      </trkpt>
      <trkpt lat="48.49281" lon="0.57913">
        <ele>177.89292</ele>
        <time>2021-09-06T16:30:09.000Z</time>
      </trkpt>
      <trkpt lat="48.49276" lon="0.57921">
        <ele>177.764767</ele>
        <time>2021-09-06T16:30:11.000Z</time>
      </trkpt>
      <trkpt lat="48.49262" lon="0.57938">
        <ele>177.470134</ele>
        <time>2021-09-06T16:30:15.000Z</time>
      </trkpt>
      <trkpt lat="48.49249" lon="0.57955">
        <ele>177.183914</ele>
        <time>2021-09-06T16:30:19.000Z</time>
      </trkpt>
      <trkpt lat="48.49236" lon="0.57974">
        <ele>176.877921</ele>
        <time>2021-09-06T16:30:23.000Z</time>
      </trkpt>
      <trkpt lat="48.49232" lon="0.57979">
        <ele>176.796126</ele>
        <time>2021-09-06T16:30:24.000Z</time>
      </trkpt>
      <trkpt lat="48.49217" lon="0.57996">
        <ele>176.488119</ele>
        <time>2021-09-06T16:30:28.000Z</time>
      </trkpt>
      <trkpt lat="48.49204" lon="0.58015">
        <ele>176.195317</ele>
        <time>2021-09-06T16:30:32.000Z</time>
      </trkpt>
      <trkpt lat="48.49185" lon="0.58038">
        <ele>175.53276</ele>
        <time>2021-09-06T16:30:37.000Z</time>
      </trkpt>
      <trkpt lat="48.49169" lon="0.5806">
        <ele>174.837242</ele>
        <time>2021-09-06T16:30:42.000Z</time>
      </trkpt>
      <trkpt lat="48.49153" lon="0.5808">
        <ele>174.187358</ele>
        <time>2021-09-06T16:30:47.000Z</time>
      </trkpt>
      <trkpt lat="48.49134" lon="0.58103">
        <ele>173.419977</ele>
        <time>2021-09-06T16:30:53.000Z</time>
      </trkpt>
      <trkpt lat="48.49121" lon="0.58118">
        <ele>172.919559</ele>
        <time>2021-09-06T16:30:58.000Z</time>
      </trkpt>
      <trkpt lat="48.49109" lon="0.58132">
        <ele>172.44477</ele>
        <time>2021-09-06T16:31:02.000Z</time>
      </trkpt>
      <trkpt lat="48.49091" lon="0.58153">
        <ele>171.724131</ele>
        <time>2021-09-06T16:31:07.000Z</time>
      </trkpt>
      <trkpt lat="48.49076" lon="0.58172">
        <ele>171.105695</ele>
        <time>2021-09-06T16:31:12.000Z</time>
      </trkpt>
      <trkpt lat="48.49061" lon="0.58192">
        <ele>170.480645</ele>
        <time>2021-09-06T16:31:18.000Z</time>
      </trkpt>
      <trkpt lat="48.49051" lon="0.58206">
        <ele>170.344918</ele>
        <time>2021-09-06T16:31:22.000Z</time>
      </trkpt>
      <trkpt lat="48.4905" lon="0.58209">
        <ele>170.321065</ele>
        <time>2021-09-06T16:31:23.000Z</time>
      </trkpt>
      <trkpt lat="48.49046" lon="0.58214">
        <ele>170.276993</ele>
        <time>2021-09-06T16:31:25.000Z</time>
      </trkpt>
      <trkpt lat="48.49034" lon="0.58228">
        <ele>170.148728</ele>
        <time>2021-09-06T16:31:29.000Z</time>
      </trkpt>
      <trkpt lat="48.49017" lon="0.58248">
        <ele>169.965344</ele>
        <time>2021-09-06T16:31:34.000Z</time>
      </trkpt>
      <trkpt lat="48.49001" lon="0.5827">
        <ele>169.781078</ele>
        <time>2021-09-06T16:31:39.000Z</time>
      </trkpt>
      <trkpt lat="48.4898" lon="0.58294">
        <ele>169.558168</ele>
        <time>2021-09-06T16:31:45.000Z</time>
      </trkpt>
      <trkpt lat="48.48971" lon="0.58308">
        <ele>169.445983</ele>
        <time>2021-09-06T16:31:49.000Z</time>
      </trkpt>
      <trkpt lat="48.48954" lon="0.5833">
        <ele>169.254641</ele>
        <time>2021-09-06T16:31:54.000Z</time>
      </trkpt>
      <trkpt lat="48.48946" lon="0.58339">
        <ele>169.167882</ele>
        <time>2021-09-06T16:31:56.000Z</time>
      </trkpt>
      <trkpt lat="48.48935" lon="0.58351">
        <ele>169.056267</ele>
        <time>2021-09-06T16:31:59.000Z</time>
      </trkpt>
      <trkpt lat="48.48915" lon="0.58376">
        <ele>169.012379</ele>
        <time>2021-09-06T16:32:05.000Z</time>
      </trkpt>
      <trkpt lat="48.48898" lon="0.58396">
        <ele>169.243145</ele>
        <time>2021-09-06T16:32:10.000Z</time>
      </trkpt>
      <trkpt lat="48.48883" lon="0.58413">
        <ele>169.431741</ele>
        <time>2021-09-06T16:32:15.000Z</time>
      </trkpt>
      <trkpt lat="48.48865" lon="0.58433">
        <ele>169.670945</ele>
        <time>2021-09-06T16:32:20.000Z</time>
      </trkpt>
      <trkpt lat="48.4885" lon="0.5845">
        <ele>169.872181</ele>
        <time>2021-09-06T16:32:25.000Z</time>
      </trkpt>
      <trkpt lat="48.4884" lon="0.58463">
        <ele>170.01309</ele>
        <time>2021-09-06T16:32:28.000Z</time>
      </trkpt>
      <trkpt lat="48.48819" lon="0.58486">
        <ele>170.282681</ele>
        <time>2021-09-06T16:32:34.000Z</time>
      </trkpt>
      <trkpt lat="48.48804" lon="0.58501">
        <ele>170.473899</ele>
        <time>2021-09-06T16:32:39.000Z</time>
      </trkpt>
      <trkpt lat="48.48792" lon="0.58518">
        <ele>170.654274</ele>
        <time>2021-09-06T16:32:44.000Z</time>
      </trkpt>
      <trkpt lat="48.48777" lon="0.58535">
        <ele>170.865649</ele>
        <time>2021-09-06T16:32:48.000Z</time>
      </trkpt>
      <trkpt lat="48.48753" lon="0.58557">
        <ele>171.317141</ele>
        <time>2021-09-06T16:32:54.000Z</time>
      </trkpt>
      <trkpt lat="48.48741" lon="0.58569">
        <ele>171.555385</ele>
        <time>2021-09-06T16:32:58.000Z</time>
      </trkpt>
      <trkpt lat="48.48726" lon="0.58584">
        <ele>171.852349</ele>
        <time>2021-09-06T16:33:03.000Z</time>
      </trkpt>
      <trkpt lat="48.48717" lon="0.58594">
        <ele>172.037205</ele>
        <time>2021-09-06T16:33:08.000Z</time>
      </trkpt>
      <trkpt lat="48.48707" lon="0.58604">
        <ele>172.230936</ele>
        <time>2021-09-06T16:33:12.000Z</time>
      </trkpt>
      <trkpt lat="48.48694" lon="0.58617">
        <ele>172.486894</ele>
        <time>2021-09-06T16:33:17.000Z</time>
      </trkpt>
      <trkpt lat="48.48684" lon="0.58627">
        <ele>172.677302</ele>
        <time>2021-09-06T16:33:21.000Z</time>
      </trkpt>
      <trkpt lat="48.48672" lon="0.58639">
        <ele>172.911496</ele>
        <time>2021-09-06T16:33:26.000Z</time>
      </trkpt>
      <trkpt lat="48.48659" lon="0.58652">
        <ele>173.159598</ele>
        <time>2021-09-06T16:33:30.000Z</time>
      </trkpt>
      <trkpt lat="48.48646" lon="0.58665">
        <ele>173.412396</ele>
        <time>2021-09-06T16:33:34.000Z</time>
      </trkpt>
      <trkpt lat="48.48627" lon="0.58684">
        <ele>173.798381</ele>
        <time>2021-09-06T16:33:40.000Z</time>
      </trkpt>
      <trkpt lat="48.48607" lon="0.58701">
        <ele>174.197202</ele>
        <time>2021-09-06T16:33:45.000Z</time>
      </trkpt>
      <trkpt lat="48.48584" lon="0.58723">
        <ele>174.667877</ele>
        <time>2021-09-06T16:33:51.000Z</time>
      </trkpt>
      <trkpt lat="48.48566" lon="0.58741">
        <ele>175.043105</ele>
        <time>2021-09-06T16:33:56.000Z</time>
      </trkpt>
      <trkpt lat="48.48543" lon="0.58762">
        <ele>175.506255</ele>
        <time>2021-09-06T16:34:02.000Z</time>
      </trkpt>
      <trkpt lat="48.48525" lon="0.58779">
        <ele>175.873784</ele>
        <time>2021-09-06T16:34:07.000Z</time>
      </trkpt>
      <trkpt lat="48.4851" lon="0.58791">
        <ele>176.176204</ele>
        <time>2021-09-06T16:34:11.000Z</time>
      </trkpt>
      <trkpt lat="48.48491" lon="0.58809">
        <ele>176.57618</ele>
        <time>2021-09-06T16:34:17.000Z</time>
      </trkpt>
      <trkpt lat="48.48474" lon="0.58826">
        <ele>176.891354</ele>
        <time>2021-09-06T16:34:22.000Z</time>
      </trkpt>
      <trkpt lat="48.48453" lon="0.58845">
        <ele>177.031559</ele>
        <time>2021-09-06T16:34:28.000Z</time>
      </trkpt>
      <trkpt lat="48.48438" lon="0.58857">
        <ele>177.125949</ele>
        <time>2021-09-06T16:34:32.000Z</time>
      </trkpt>
      <trkpt lat="48.48424" lon="0.58871">
        <ele>177.220696</ele>
        <time>2021-09-06T16:34:37.000Z</time>
      </trkpt>
      <trkpt lat="48.48422" lon="0.58874">
        <ele>177.238213</ele>
        <time>2021-09-06T16:34:38.000Z</time>
      </trkpt>
      <trkpt lat="48.48416" lon="0.58879">
        <ele>177.278156</ele>
        <time>2021-09-06T16:34:40.000Z</time>
      </trkpt>
      <trkpt lat="48.48408" lon="0.58889">
        <ele>177.336312</ele>
        <time>2021-09-06T16:34:45.000Z</time>
      </trkpt>
      <trkpt lat="48.48407" lon="0.5889">
        <ele>177.343571</ele>
        <time>2021-09-06T16:34:46.000Z</time>
      </trkpt>
      <trkpt lat="48.48407" lon="0.58883">
        <ele>177.368433</ele>
        <time>2021-09-06T16:36:14.000Z</time>
      </trkpt>
      <trkpt lat="48.48406" lon="0.58885">
        <ele>177.378479</ele>
        <time>2021-09-06T16:36:15.000Z</time>
      </trkpt>
      <trkpt lat="48.48405" lon="0.58887">
        <ele>177.387554</ele>
        <time>2021-09-06T16:36:16.000Z</time>
      </trkpt>
      <trkpt lat="48.48396" lon="0.58896">
        <ele>177.447891</ele>
        <time>2021-09-06T16:36:20.000Z</time>
      </trkpt>
      <trkpt lat="48.48382" lon="0.58907">
        <ele>177.535387</ele>
        <time>2021-09-06T16:36:24.000Z</time>
      </trkpt>
      <trkpt lat="48.48365" lon="0.58923">
        <ele>177.64935</ele>
        <time>2021-09-06T16:36:29.000Z</time>
      </trkpt>
      <trkpt lat="48.48344" lon="0.58939">
        <ele>177.78506</ele>
        <time>2021-09-06T16:36:34.000Z</time>
      </trkpt>
      <trkpt lat="48.48328" lon="0.5895">
        <ele>177.883458</ele>
        <time>2021-09-06T16:36:38.000Z</time>
      </trkpt>
      <trkpt lat="48.48314" lon="0.58962">
        <ele>177.872535</ele>
        <time>2021-09-06T16:36:42.000Z</time>
      </trkpt>
      <trkpt lat="48.48299" lon="0.58973">
        <ele>177.839123</ele>
        <time>2021-09-06T16:36:47.000Z</time>
      </trkpt>
      <trkpt lat="48.48287" lon="0.58981">
        <ele>177.815717</ele>
        <time>2021-09-06T16:36:51.000Z</time>
      </trkpt>
      <trkpt lat="48.48274" lon="0.58988">
        <ele>177.788258</ele>
        <time>2021-09-06T16:36:56.000Z</time>
      </trkpt>
      <trkpt lat="48.48258" lon="0.58998">
        <ele>177.756049</ele>
        <time>2021-09-06T16:37:03.000Z</time>
      </trkpt>
      <trkpt lat="48.48245" lon="0.59008">
        <ele>177.728824</ele>
        <time>2021-09-06T16:37:09.000Z</time>
      </trkpt>
      <trkpt lat="48.48229" lon="0.59016">
        <ele>177.697141</ele>
        <time>2021-09-06T16:37:15.000Z</time>
      </trkpt>
      <trkpt lat="48.48215" lon="0.59026">
        <ele>177.667946</ele>
        <time>2021-09-06T16:37:21.000Z</time>
      </trkpt>
      <trkpt lat="48.48195" lon="0.59036">
        <ele>177.628607</ele>
        <time>2021-09-06T16:37:27.000Z</time>
      </trkpt>
      <trkpt lat="48.48181" lon="0.59044">
        <ele>177.599915</ele>
        <time>2021-09-06T16:37:32.000Z</time>
      </trkpt>
      <trkpt lat="48.48167" lon="0.59052">
        <ele>177.571491</ele>
        <time>2021-09-06T16:37:36.000Z</time>
      </trkpt>
      <trkpt lat="48.4815" lon="0.59063">
        <ele>177.41006</ele>
        <time>2021-09-06T16:37:41.000Z</time>
      </trkpt>
      <trkpt lat="48.48148" lon="0.59065">
        <ele>177.375448</ele>
        <time>2021-09-06T16:37:42.000Z</time>
      </trkpt>
      <trkpt lat="48.48142" lon="0.59067">
        <ele>177.28865</ele>
        <time>2021-09-06T16:37:46.000Z</time>
      </trkpt>
      <trkpt lat="48.4814" lon="0.59067">
        <ele>177.26382</ele>
        <time>2021-09-06T16:37:47.000Z</time>
      </trkpt>
      <trkpt lat="48.48138" lon="0.59065">
        <ele>177.238217</ele>
        <time>2021-09-06T16:37:48.000Z</time>
      </trkpt>
      <trkpt lat="48.48137" lon="0.59061">
        <ele>177.196137</ele>
        <time>2021-09-06T16:37:51.000Z</time>
      </trkpt>
      <trkpt lat="48.48134" lon="0.59056">
        <ele>177.133909</ele>
        <time>2021-09-06T16:37:56.000Z</time>
      </trkpt>
      <trkpt lat="48.48134" lon="0.59065">
        <ele>177.045882</ele>
        <time>2021-09-06T16:39:15.000Z</time>
      </trkpt>
      <trkpt lat="48.48134" lon="0.5907">
        <ele>177.00437</ele>
        <time>2021-09-06T16:39:17.000Z</time>
      </trkpt>
      <trkpt lat="48.48129" lon="0.59073">
        <ele>176.931467</ele>
        <time>2021-09-06T16:39:21.000Z</time>
      </trkpt>
      <trkpt lat="48.4811" lon="0.59084">
        <ele>176.664587</ele>
        <time>2021-09-06T16:39:27.000Z</time>
      </trkpt>
      <trkpt lat="48.48092" lon="0.59094">
        <ele>176.407714</ele>
        <time>2021-09-06T16:39:32.000Z</time>
      </trkpt>
      <trkpt lat="48.48073" lon="0.59104">
        <ele>176.136382</ele>
        <time>2021-09-06T16:39:37.000Z</time>
      </trkpt>
      <trkpt lat="48.48059" lon="0.59112">
        <ele>175.944521</ele>
        <time>2021-09-06T16:39:40.000Z</time>
      </trkpt>
      <trkpt lat="48.4805" lon="0.59117">
        <ele>175.805152</ele>
        <time>2021-09-06T16:39:42.000Z</time>
      </trkpt>
      <trkpt lat="48.48029" lon="0.59128">
        <ele>175.518872</ele>
        <time>2021-09-06T16:39:46.000Z</time>
      </trkpt>
      <trkpt lat="48.48006" lon="0.59141">
        <ele>175.187632</ele>
        <time>2021-09-06T16:39:51.000Z</time>
      </trkpt>
      <trkpt lat="48.47975" lon="0.59157">
        <ele>174.777097</ele>
        <time>2021-09-06T16:39:57.000Z</time>
      </trkpt>
      <trkpt lat="48.47945" lon="0.59175">
        <ele>174.36303</ele>
        <time>2021-09-06T16:40:04.000Z</time>
      </trkpt>
      <trkpt lat="48.47931" lon="0.59182">
        <ele>174.177869</ele>
        <time>2021-09-06T16:40:07.000Z</time>
      </trkpt>
      <trkpt lat="48.47925" lon="0.59185">
        <ele>174.107365</ele>
        <time>2021-09-06T16:40:08.000Z</time>
      </trkpt>
      <trkpt lat="48.47893" lon="0.59204">
        <ele>173.676497</ele>
        <time>2021-09-06T16:40:15.000Z</time>
      </trkpt>
      <trkpt lat="48.47877" lon="0.59213">
        <ele>173.455952</ele>
        <time>2021-09-06T16:40:19.000Z</time>
      </trkpt>
      <trkpt lat="48.47858" lon="0.59223">
        <ele>173.208885</ele>
        <time>2021-09-06T16:40:24.000Z</time>
      </trkpt>
      <trkpt lat="48.47846" lon="0.59232">
        <ele>173.029393</ele>
        <time>2021-09-06T16:40:29.000Z</time>
      </trkpt>
      <trkpt lat="48.47842" lon="0.59236">
        <ele>172.973256</ele>
        <time>2021-09-06T16:40:31.000Z</time>
      </trkpt>
      <trkpt lat="48.47839" lon="0.59233">
        <ele>172.93165</ele>
        <time>2021-09-06T16:40:33.000Z</time>
      </trkpt>
      <trkpt lat="48.47832" lon="0.59222">
        <ele>172.897209</ele>
        <time>2021-09-06T16:40:38.000Z</time>
      </trkpt>
      <trkpt lat="48.47831" lon="0.59222">
        <ele>172.897209</ele>
        <time>2021-09-06T16:40:39.000Z</time>
      </trkpt>
      <trkpt lat="48.4783" lon="0.59222">
        <ele>172.897209</ele>
        <time>2021-09-06T16:40:42.000Z</time>
      </trkpt>
      <trkpt lat="48.47825" lon="0.5923">
        <ele>172.897209</ele>
        <time>2021-09-06T16:40:49.000Z</time>
      </trkpt>
      <trkpt lat="48.47823" lon="0.59232">
        <ele>172.897209</ele>
        <time>2021-09-06T16:40:50.000Z</time>
      </trkpt>
      <trkpt lat="48.47816" lon="0.59237">
        <ele>172.897209</ele>
        <time>2021-09-06T16:40:55.000Z</time>
      </trkpt>
      <trkpt lat="48.47805" lon="0.59245">
        <ele>172.897209</ele>
        <time>2021-09-06T16:41:00.000Z</time>
      </trkpt>
      <trkpt lat="48.47795" lon="0.59251">
        <ele>172.897209</ele>
        <time>2021-09-06T16:41:05.000Z</time>
      </trkpt>
      <trkpt lat="48.47779" lon="0.59263">
        <ele>172.897209</ele>
        <time>2021-09-06T16:41:12.000Z</time>
      </trkpt>
      <trkpt lat="48.47766" lon="0.59274">
        <ele>172.897209</ele>
        <time>2021-09-06T16:41:18.000Z</time>
      </trkpt>
      <trkpt lat="48.47754" lon="0.59284">
        <ele>172.897209</ele>
        <time>2021-09-06T16:41:24.000Z</time>
      </trkpt>
      <trkpt lat="48.47741" lon="0.59294">
        <ele>172.897209</ele>
        <time>2021-09-06T16:41:30.000Z</time>
      </trkpt>
      <trkpt lat="48.47733" lon="0.593">
        <ele>172.897209</ele>
        <time>2021-09-06T16:41:36.000Z</time>
      </trkpt>
      <trkpt lat="48.47725" lon="0.59307">
        <ele>172.897209</ele>
        <time>2021-09-06T16:41:42.000Z</time>
      </trkpt>
      <trkpt lat="48.47714" lon="0.59315">
        <ele>172.897209</ele>
        <time>2021-09-06T16:41:50.000Z</time>
      </trkpt>
      <trkpt lat="48.47705" lon="0.59325">
        <ele>172.897209</ele>
        <time>2021-09-06T16:41:58.000Z</time>
      </trkpt>
      <trkpt lat="48.47697" lon="0.59331">
        <ele>172.897209</ele>
        <time>2021-09-06T16:42:06.000Z</time>
      </trkpt>
      <trkpt lat="48.4769" lon="0.59336">
        <ele>172.897209</ele>
        <time>2021-09-06T16:42:14.000Z</time>
      </trkpt>
      <trkpt lat="48.47686" lon="0.59343">
        <ele>172.897209</ele>
        <time>2021-09-06T16:42:21.000Z</time>
      </trkpt>
      <trkpt lat="48.47686" lon="0.59343">
        <ele>172.897209</ele>
        <time>2021-09-06T16:42:22.000Z</time>
      </trkpt>
    </trkseg>
  </trk>
  <trk>
    <name><![CDATA[Étape 3 : Mortagne-au-Perche - Chateaudun]]></name>
    <extensions>
      <line xmlns="http://www.topografix.com/GPX/gpx_style/0/2">
        <color>00FFFF</color>
        <width>4</width>
      </line>
    </extensions>
    <trkseg>
      <trkpt lat="48.47661" lon="0.5939">
        <ele>165.590773</ele>
        <time>2021-09-07T06:47:03.000Z</time>
      </trkpt>
      <trkpt lat="48.47644" lon="0.5941">
        <ele>165.590773</ele>
        <time>2021-09-07T06:47:10.000Z</time>
      </trkpt>
      <trkpt lat="48.4763" lon="0.59427">
        <ele>165.590773</ele>
        <time>2021-09-07T06:47:15.000Z</time>
      </trkpt>
      <trkpt lat="48.4761" lon="0.59448">
        <ele>165.590773</ele>
        <time>2021-09-07T06:47:21.000Z</time>
      </trkpt>
      <trkpt lat="48.47595" lon="0.59468">
        <ele>165.590773</ele>
        <time>2021-09-07T06:47:26.000Z</time>
      </trkpt>
      <trkpt lat="48.4758" lon="0.5949">
        <ele>165.609537</ele>
        <time>2021-09-07T06:47:31.000Z</time>
      </trkpt>
      <trkpt lat="48.47573" lon="0.59499">
        <ele>165.621073</ele>
        <time>2021-09-07T06:47:33.000Z</time>
      </trkpt>
      <trkpt lat="48.47562" lon="0.59515">
        <ele>165.640807</ele>
        <time>2021-09-07T06:47:36.000Z</time>
      </trkpt>
      <trkpt lat="48.47558" lon="0.5952">
        <ele>165.647003</ele>
        <time>2021-09-07T06:47:37.000Z</time>
      </trkpt>
      <trkpt lat="48.47546" lon="0.59534">
        <ele>165.665914</ele>
        <time>2021-09-07T06:47:40.000Z</time>
      </trkpt>
      <trkpt lat="48.47525" lon="0.59559">
        <ele>165.700278</ele>
        <time>2021-09-07T06:47:45.000Z</time>
      </trkpt>
      <trkpt lat="48.47498" lon="0.59593">
        <ele>165.745376</ele>
        <time>2021-09-07T06:47:51.000Z</time>
      </trkpt>
      <trkpt lat="48.47493" lon="0.59599">
        <ele>165.753408</ele>
        <time>2021-09-07T06:47:52.000Z</time>
      </trkpt>
      <trkpt lat="48.47479" lon="0.59616">
        <ele>165.77665</ele>
        <time>2021-09-07T06:47:55.000Z</time>
      </trkpt>
      <trkpt lat="48.47469" lon="0.59627">
        <ele>165.792459</ele>
        <time>2021-09-07T06:47:57.000Z</time>
      </trkpt>
      <trkpt lat="48.47439" lon="0.59666">
        <ele>165.457285</ele>
        <time>2021-09-07T06:48:03.000Z</time>
      </trkpt>
      <trkpt lat="48.47431" lon="0.59677">
        <ele>165.219772</ele>
        <time>2021-09-07T06:48:05.000Z</time>
      </trkpt>
      <trkpt lat="48.47424" lon="0.59686">
        <ele>165.036849</ele>
        <time>2021-09-07T06:48:07.000Z</time>
      </trkpt>
      <trkpt lat="48.47417" lon="0.59695">
        <ele>164.844414</ele>
        <time>2021-09-07T06:48:11.000Z</time>
      </trkpt>
      <trkpt lat="48.47406" lon="0.59709">
        <ele>164.543535</ele>
        <time>2021-09-07T06:48:16.000Z</time>
      </trkpt>
      <trkpt lat="48.47403" lon="0.59713">
        <ele>164.458822</ele>
        <time>2021-09-07T06:48:17.000Z</time>
      </trkpt>
      <trkpt lat="48.47396" lon="0.59722">
        <ele>164.263142</ele>
        <time>2021-09-07T06:48:19.000Z</time>
      </trkpt>
      <trkpt lat="48.47392" lon="0.59726">
        <ele>164.168613</ele>
        <time>2021-09-07T06:48:20.000Z</time>
      </trkpt>
      <trkpt lat="48.4737" lon="0.59754">
        <ele>163.570164</ele>
        <time>2021-09-07T06:48:25.000Z</time>
      </trkpt>
      <trkpt lat="48.47332" lon="0.59804">
        <ele>162.532242</ele>
        <time>2021-09-07T06:48:33.000Z</time>
      </trkpt>
      <trkpt lat="48.47299" lon="0.59846">
        <ele>161.80813</ele>
        <time>2021-09-07T06:48:40.000Z</time>
      </trkpt>
      <trkpt lat="48.47271" lon="0.59883">
        <ele>161.351992</ele>
        <time>2021-09-07T06:48:46.000Z</time>
      </trkpt>
      <trkpt lat="48.47266" lon="0.59889">
        <ele>161.272649</ele>
        <time>2021-09-07T06:48:47.000Z</time>
      </trkpt>
      <trkpt lat="48.47251" lon="0.59906">
        <ele>161.037176</ele>
        <time>2021-09-07T06:48:50.000Z</time>
      </trkpt>
      <trkpt lat="48.47241" lon="0.59919">
        <ele>160.875787</ele>
        <time>2021-09-07T06:48:52.000Z</time>
      </trkpt>
      <trkpt lat="48.47203" lon="0.59968">
        <ele>160.252454</ele>
        <time>2021-09-07T06:49:00.000Z</time>
      </trkpt>
      <trkpt lat="48.47169" lon="0.60009">
        <ele>159.790005</ele>
        <time>2021-09-07T06:49:07.000Z</time>
      </trkpt>
      <trkpt lat="48.47133" lon="0.60048">
        <ele>159.551859</ele>
        <time>2021-09-07T06:49:14.000Z</time>
      </trkpt>
      <trkpt lat="48.47114" lon="0.60071">
        <ele>159.420345</ele>
        <time>2021-09-07T06:49:18.000Z</time>
      </trkpt>
      <trkpt lat="48.47109" lon="0.60077">
        <ele>159.386636</ele>
        <time>2021-09-07T06:49:19.000Z</time>
      </trkpt>
      <trkpt lat="48.47079" lon="0.60112">
        <ele>159.181373</ele>
        <time>2021-09-07T06:49:25.000Z</time>
      </trkpt>
      <trkpt lat="48.47038" lon="0.60154">
        <ele>158.918113</ele>
        <time>2021-09-07T06:49:33.000Z</time>
      </trkpt>
      <trkpt lat="48.47008" lon="0.60184">
        <ele>158.614167</ele>
        <time>2021-09-07T06:49:39.000Z</time>
      </trkpt>
      <trkpt lat="48.46967" lon="0.60226">
        <ele>158.157283</ele>
        <time>2021-09-07T06:49:47.000Z</time>
      </trkpt>
      <trkpt lat="48.46961" lon="0.60231">
        <ele>158.098781</ele>
        <time>2021-09-07T06:49:48.000Z</time>
      </trkpt>
      <trkpt lat="48.46939" lon="0.60251">
        <ele>157.867887</ele>
        <time>2021-09-07T06:49:52.000Z</time>
      </trkpt>
      <trkpt lat="48.46901" lon="0.60285">
        <ele>157.459777</ele>
        <time>2021-09-07T06:49:59.000Z</time>
      </trkpt>
      <trkpt lat="48.46873" lon="0.60312">
        <ele>157.186085</ele>
        <time>2021-09-07T06:50:04.000Z</time>
      </trkpt>
      <trkpt lat="48.46846" lon="0.6034">
        <ele>156.974236</ele>
        <time>2021-09-07T06:50:09.000Z</time>
      </trkpt>
      <trkpt lat="48.46817" lon="0.60366">
        <ele>156.755584</ele>
        <time>2021-09-07T06:50:14.000Z</time>
      </trkpt>
      <trkpt lat="48.46791" lon="0.60394">
        <ele>156.552072</ele>
        <time>2021-09-07T06:50:19.000Z</time>
      </trkpt>
      <trkpt lat="48.4677" lon="0.60414">
        <ele>156.391735</ele>
        <time>2021-09-07T06:50:23.000Z</time>
      </trkpt>
      <trkpt lat="48.46761" lon="0.60421">
        <ele>156.325877</ele>
        <time>2021-09-07T06:50:25.000Z</time>
      </trkpt>
      <trkpt lat="48.46751" lon="0.60431">
        <ele>156.25542</ele>
        <time>2021-09-07T06:50:27.000Z</time>
      </trkpt>
      <trkpt lat="48.46736" lon="0.60446">
        <ele>156.138757</ele>
        <time>2021-09-07T06:50:30.000Z</time>
      </trkpt>
      <trkpt lat="48.46696" lon="0.60481">
        <ele>155.933535</ele>
        <time>2021-09-07T06:50:37.000Z</time>
      </trkpt>
      <trkpt lat="48.46653" lon="0.6052">
        <ele>155.733499</ele>
        <time>2021-09-07T06:50:44.000Z</time>
      </trkpt>
      <trkpt lat="48.46617" lon="0.60553">
        <ele>155.563827</ele>
        <time>2021-09-07T06:50:50.000Z</time>
      </trkpt>
      <trkpt lat="48.46572" lon="0.60594">
        <ele>155.390126</ele>
        <time>2021-09-07T06:50:57.000Z</time>
      </trkpt>
      <trkpt lat="48.46536" lon="0.60629">
        <ele>155.606442</ele>
        <time>2021-09-07T06:51:03.000Z</time>
      </trkpt>
      <trkpt lat="48.465" lon="0.60663">
        <ele>155.815212</ele>
        <time>2021-09-07T06:51:09.000Z</time>
      </trkpt>
      <trkpt lat="48.46463" lon="0.607">
        <ele>156.036513</ele>
        <time>2021-09-07T06:51:15.000Z</time>
      </trkpt>
      <trkpt lat="48.46419" lon="0.60742">
        <ele>156.263145</ele>
        <time>2021-09-07T06:51:22.000Z</time>
      </trkpt>
      <trkpt lat="48.46388" lon="0.60772">
        <ele>156.255239</ele>
        <time>2021-09-07T06:51:27.000Z</time>
      </trkpt>
      <trkpt lat="48.46351" lon="0.60807">
        <ele>156.245771</ele>
        <time>2021-09-07T06:51:33.000Z</time>
      </trkpt>
      <trkpt lat="48.46307" lon="0.60852">
        <ele>156.234291</ele>
        <time>2021-09-07T06:51:40.000Z</time>
      </trkpt>
      <trkpt lat="48.46258" lon="0.60901">
        <ele>155.87779</ele>
        <time>2021-09-07T06:51:48.000Z</time>
      </trkpt>
      <trkpt lat="48.46253" lon="0.60908">
        <ele>155.740613</ele>
        <time>2021-09-07T06:51:49.000Z</time>
      </trkpt>
      <trkpt lat="48.46231" lon="0.60933">
        <ele>155.2249</ele>
        <time>2021-09-07T06:51:53.000Z</time>
      </trkpt>
      <trkpt lat="48.46199" lon="0.60972">
        <ele>154.460466</ele>
        <time>2021-09-07T06:51:59.000Z</time>
      </trkpt>
      <trkpt lat="48.4617" lon="0.61007">
        <ele>153.755346</ele>
        <time>2021-09-07T06:52:05.000Z</time>
      </trkpt>
      <trkpt lat="48.46164" lon="0.61017">
        <ele>153.589334</ele>
        <time>2021-09-07T06:52:08.000Z</time>
      </trkpt>
      <trkpt lat="48.4616" lon="0.61023">
        <ele>153.489376</ele>
        <time>2021-09-07T06:52:14.000Z</time>
      </trkpt>
      <trkpt lat="48.46157" lon="0.61027">
        <ele>153.410537</ele>
        <time>2021-09-07T06:52:16.000Z</time>
      </trkpt>
      <trkpt lat="48.46154" lon="0.61031">
        <ele>153.327221</ele>
        <time>2021-09-07T06:52:18.000Z</time>
      </trkpt>
      <trkpt lat="48.46142" lon="0.61044">
        <ele>153.058871</ele>
        <time>2021-09-07T06:52:22.000Z</time>
      </trkpt>
      <trkpt lat="48.46135" lon="0.61052">
        <ele>152.887188</ele>
        <time>2021-09-07T06:52:24.000Z</time>
      </trkpt>
      <trkpt lat="48.46121" lon="0.61071">
        <ele>151.927738</ele>
        <time>2021-09-07T06:52:28.000Z</time>
      </trkpt>
      <trkpt lat="48.46109" lon="0.61085">
        <ele>151.104464</ele>
        <time>2021-09-07T06:52:31.000Z</time>
      </trkpt>
      <trkpt lat="48.46105" lon="0.61091">
        <ele>150.799344</ele>
        <time>2021-09-07T06:52:32.000Z</time>
      </trkpt>
      <trkpt lat="48.46078" lon="0.61127">
        <ele>148.822781</ele>
        <time>2021-09-07T06:52:38.000Z</time>
      </trkpt>
      <trkpt lat="48.46054" lon="0.61162">
        <ele>146.977466</ele>
        <time>2021-09-07T06:52:44.000Z</time>
      </trkpt>
      <trkpt lat="48.46028" lon="0.612">
        <ele>144.998662</ele>
        <time>2021-09-07T06:52:50.000Z</time>
      </trkpt>
      <trkpt lat="48.46003" lon="0.61238">
        <ele>143.08686</ele>
        <time>2021-09-07T06:52:56.000Z</time>
      </trkpt>
      <trkpt lat="48.45983" lon="0.61271">
        <ele>141.526579</ele>
        <time>2021-09-07T06:53:01.000Z</time>
      </trkpt>
      <trkpt lat="48.45978" lon="0.61278">
        <ele>141.199666</ele>
        <time>2021-09-07T06:53:02.000Z</time>
      </trkpt>
      <trkpt lat="48.45965" lon="0.61301">
        <ele>140.181573</ele>
        <time>2021-09-07T06:53:05.000Z</time>
      </trkpt>
      <trkpt lat="48.45949" lon="0.61331">
        <ele>138.849993</ele>
        <time>2021-09-07T06:53:09.000Z</time>
      </trkpt>
      <trkpt lat="48.45945" lon="0.61338">
        <ele>138.520275</ele>
        <time>2021-09-07T06:53:10.000Z</time>
      </trkpt>
      <trkpt lat="48.45936" lon="0.61353">
        <ele>137.842906</ele>
        <time>2021-09-07T06:53:12.000Z</time>
      </trkpt>
      <trkpt lat="48.45924" lon="0.61375">
        <ele>136.889206</ele>
        <time>2021-09-07T06:53:15.000Z</time>
      </trkpt>
      <trkpt lat="48.45912" lon="0.61396">
        <ele>135.943278</ele>
        <time>2021-09-07T06:53:18.000Z</time>
      </trkpt>
      <trkpt lat="48.45904" lon="0.61413">
        <ele>135.233681</ele>
        <time>2021-09-07T06:53:20.000Z</time>
      </trkpt>
      <trkpt lat="48.45879" lon="0.61455">
        <ele>133.801848</ele>
        <time>2021-09-07T06:53:26.000Z</time>
      </trkpt>
      <trkpt lat="48.45857" lon="0.61498">
        <ele>133.928427</ele>
        <time>2021-09-07T06:53:32.000Z</time>
      </trkpt>
      <trkpt lat="48.45838" lon="0.61545">
        <ele>134.059317</ele>
        <time>2021-09-07T06:53:38.000Z</time>
      </trkpt>
      <trkpt lat="48.45834" lon="0.61553">
        <ele>134.082464</ele>
        <time>2021-09-07T06:53:39.000Z</time>
      </trkpt>
      <trkpt lat="48.45821" lon="0.61585">
        <ele>134.173501</ele>
        <time>2021-09-07T06:53:43.000Z</time>
      </trkpt>
      <trkpt lat="48.45818" lon="0.61594">
        <ele>134.195608</ele>
        <time>2021-09-07T06:53:44.000Z</time>
      </trkpt>
      <trkpt lat="48.45811" lon="0.61608">
        <ele>134.237636</ele>
        <time>2021-09-07T06:53:46.000Z</time>
      </trkpt>
      <trkpt lat="48.45807" lon="0.61615">
        <ele>134.260299</ele>
        <time>2021-09-07T06:53:47.000Z</time>
      </trkpt>
      <trkpt lat="48.45788" lon="0.61664">
        <ele>134.394535</ele>
        <time>2021-09-07T06:53:53.000Z</time>
      </trkpt>
      <trkpt lat="48.45774" lon="0.61702">
        <ele>135.806693</ele>
        <time>2021-09-07T06:53:58.000Z</time>
      </trkpt>
      <trkpt lat="48.4577" lon="0.61716">
        <ele>136.398729</ele>
        <time>2021-09-07T06:54:01.000Z</time>
      </trkpt>
      <trkpt lat="48.45765" lon="0.61738">
        <ele>137.295937</ele>
        <time>2021-09-07T06:54:06.000Z</time>
      </trkpt>
      <trkpt lat="48.45763" lon="0.61751">
        <ele>137.837814</ele>
        <time>2021-09-07T06:54:11.000Z</time>
      </trkpt>
      <trkpt lat="48.45764" lon="0.61757">
        <ele>138.076256</ele>
        <time>2021-09-07T06:54:15.000Z</time>
      </trkpt>
      <trkpt lat="48.45761" lon="0.61762">
        <ele>138.295789</ele>
        <time>2021-09-07T06:55:18.000Z</time>
      </trkpt>
      <trkpt lat="48.45758" lon="0.61767">
        <ele>138.577088</ele>
        <time>2021-09-07T06:55:20.000Z</time>
      </trkpt>
      <trkpt lat="48.45754" lon="0.61771">
        <ele>138.860499</ele>
        <time>2021-09-07T06:55:22.000Z</time>
      </trkpt>
      <trkpt lat="48.45752" lon="0.61779">
        <ele>139.193796</ele>
        <time>2021-09-07T06:55:24.000Z</time>
      </trkpt>
      <trkpt lat="48.45747" lon="0.61796">
        <ele>139.891386</ele>
        <time>2021-09-07T06:55:27.000Z</time>
      </trkpt>
      <trkpt lat="48.45742" lon="0.61808">
        <ele>140.468511</ele>
        <time>2021-09-07T06:55:29.000Z</time>
      </trkpt>
      <trkpt lat="48.45728" lon="0.61849">
        <ele>142.260177</ele>
        <time>2021-09-07T06:55:35.000Z</time>
      </trkpt>
      <trkpt lat="48.45721" lon="0.6187">
        <ele>143.18593</ele>
        <time>2021-09-07T06:55:38.000Z</time>
      </trkpt>
      <trkpt lat="48.45713" lon="0.61892">
        <ele>144.151627</ele>
        <time>2021-09-07T06:55:41.000Z</time>
      </trkpt>
      <trkpt lat="48.45695" lon="0.61948">
        <ele>145.261105</ele>
        <time>2021-09-07T06:55:48.000Z</time>
      </trkpt>
      <trkpt lat="48.45679" lon="0.62006">
        <ele>145.723847</ele>
        <time>2021-09-07T06:55:55.000Z</time>
      </trkpt>
      <trkpt lat="48.45664" lon="0.62058">
        <ele>146.131546</ele>
        <time>2021-09-07T06:56:01.000Z</time>
      </trkpt>
      <trkpt lat="48.45646" lon="0.62118">
        <ele>146.616111</ele>
        <time>2021-09-07T06:56:08.000Z</time>
      </trkpt>
      <trkpt lat="48.45639" lon="0.62144">
        <ele>146.818467</ele>
        <time>2021-09-07T06:56:11.000Z</time>
      </trkpt>
      <trkpt lat="48.45636" lon="0.62152">
        <ele>146.886476</ele>
        <time>2021-09-07T06:56:12.000Z</time>
      </trkpt>
      <trkpt lat="48.45623" lon="0.62195">
        <ele>147.095905</ele>
        <time>2021-09-07T06:56:17.000Z</time>
      </trkpt>
      <trkpt lat="48.45615" lon="0.62221">
        <ele>147.204509</ele>
        <time>2021-09-07T06:56:20.000Z</time>
      </trkpt>
      <trkpt lat="48.45609" lon="0.62239">
        <ele>147.2798</ele>
        <time>2021-09-07T06:56:22.000Z</time>
      </trkpt>
      <trkpt lat="48.45594" lon="0.62291">
        <ele>147.497006</ele>
        <time>2021-09-07T06:56:28.000Z</time>
      </trkpt>
      <trkpt lat="48.45591" lon="0.62299">
        <ele>147.530536</ele>
        <time>2021-09-07T06:56:29.000Z</time>
      </trkpt>
      <trkpt lat="48.45581" lon="0.62331">
        <ele>147.665149</ele>
        <time>2021-09-07T06:56:33.000Z</time>
      </trkpt>
      <trkpt lat="48.45579" lon="0.62339">
        <ele>147.699647</ele>
        <time>2021-09-07T06:56:34.000Z</time>
      </trkpt>
      <trkpt lat="48.45566" lon="0.62381">
        <ele>147.875994</ele>
        <time>2021-09-07T06:56:39.000Z</time>
      </trkpt>
      <trkpt lat="48.45564" lon="0.62389">
        <ele>147.908689</ele>
        <time>2021-09-07T06:56:40.000Z</time>
      </trkpt>
      <trkpt lat="48.45549" lon="0.62438">
        <ele>148.129142</ele>
        <time>2021-09-07T06:56:46.000Z</time>
      </trkpt>
      <trkpt lat="48.45539" lon="0.6247">
        <ele>148.274112</ele>
        <time>2021-09-07T06:56:50.000Z</time>
      </trkpt>
      <trkpt lat="48.45535" lon="0.62487">
        <ele>148.347225</ele>
        <time>2021-09-07T06:56:52.000Z</time>
      </trkpt>
      <trkpt lat="48.45533" lon="0.62495">
        <ele>148.385653</ele>
        <time>2021-09-07T06:56:53.000Z</time>
      </trkpt>
      <trkpt lat="48.45523" lon="0.62527">
        <ele>148.534375</ele>
        <time>2021-09-07T06:56:57.000Z</time>
      </trkpt>
      <trkpt lat="48.4552" lon="0.62535">
        <ele>148.569429</ele>
        <time>2021-09-07T06:56:58.000Z</time>
      </trkpt>
      <trkpt lat="48.45512" lon="0.62565">
        <ele>148.709947</ele>
        <time>2021-09-07T06:57:02.000Z</time>
      </trkpt>
      <trkpt lat="48.45508" lon="0.6258">
        <ele>148.774776</ele>
        <time>2021-09-07T06:57:04.000Z</time>
      </trkpt>
      <trkpt lat="48.45502" lon="0.62594">
        <ele>148.844256</ele>
        <time>2021-09-07T06:57:06.000Z</time>
      </trkpt>
      <trkpt lat="48.45497" lon="0.62617">
        <ele>148.948157</ele>
        <time>2021-09-07T06:57:09.000Z</time>
      </trkpt>
      <trkpt lat="48.45482" lon="0.62664">
        <ele>149.122917</ele>
        <time>2021-09-07T06:57:15.000Z</time>
      </trkpt>
      <trkpt lat="48.4548" lon="0.62681">
        <ele>149.139372</ele>
        <time>2021-09-07T06:57:17.000Z</time>
      </trkpt>
      <trkpt lat="48.45474" lon="0.62696">
        <ele>149.156411</ele>
        <time>2021-09-07T06:57:19.000Z</time>
      </trkpt>
      <trkpt lat="48.45466" lon="0.62723">
        <ele>149.184808</ele>
        <time>2021-09-07T06:57:23.000Z</time>
      </trkpt>
      <trkpt lat="48.45461" lon="0.62741">
        <ele>149.204328</ele>
        <time>2021-09-07T06:57:26.000Z</time>
      </trkpt>
      <trkpt lat="48.45458" lon="0.62754">
        <ele>149.217706</ele>
        <time>2021-09-07T06:57:28.000Z</time>
      </trkpt>
      <trkpt lat="48.45456" lon="0.6276">
        <ele>149.224161</ele>
        <time>2021-09-07T06:57:29.000Z</time>
      </trkpt>
      <trkpt lat="48.45452" lon="0.62773">
        <ele>149.238792</ele>
        <time>2021-09-07T06:57:31.000Z</time>
      </trkpt>
      <trkpt lat="48.45442" lon="0.62804">
        <ele>149.271328</ele>
        <time>2021-09-07T06:57:35.000Z</time>
      </trkpt>
      <trkpt lat="48.45439" lon="0.62811">
        <ele>149.280196</ele>
        <time>2021-09-07T06:57:36.000Z</time>
      </trkpt>
      <trkpt lat="48.45434" lon="0.62828">
        <ele>149.297836</ele>
        <time>2021-09-07T06:57:38.000Z</time>
      </trkpt>
      <trkpt lat="48.4543" lon="0.62845">
        <ele>149.315508</ele>
        <time>2021-09-07T06:57:40.000Z</time>
      </trkpt>
      <trkpt lat="48.45414" lon="0.62889">
        <ele>149.364196</ele>
        <time>2021-09-07T06:57:45.000Z</time>
      </trkpt>
      <trkpt lat="48.45401" lon="0.62932">
        <ele>149.437593</ele>
        <time>2021-09-07T06:57:50.000Z</time>
      </trkpt>
      <trkpt lat="48.45396" lon="0.62948">
        <ele>149.466912</ele>
        <time>2021-09-07T06:57:52.000Z</time>
      </trkpt>
      <trkpt lat="48.45391" lon="0.62964">
        <ele>149.497677</ele>
        <time>2021-09-07T06:57:54.000Z</time>
      </trkpt>
      <trkpt lat="48.45383" lon="0.62991">
        <ele>149.548073</ele>
        <time>2021-09-07T06:57:57.000Z</time>
      </trkpt>
      <trkpt lat="48.45365" lon="0.63038">
        <ele>149.639598</ele>
        <time>2021-09-07T06:58:02.000Z</time>
      </trkpt>
      <trkpt lat="48.45337" lon="0.63103">
        <ele>149.772626</ele>
        <time>2021-09-07T06:58:09.000Z</time>
      </trkpt>
      <trkpt lat="48.45329" lon="0.6312">
        <ele>149.807232</ele>
        <time>2021-09-07T06:58:11.000Z</time>
      </trkpt>
      <trkpt lat="48.45321" lon="0.63138">
        <ele>149.81377</ele>
        <time>2021-09-07T06:58:13.000Z</time>
      </trkpt>
      <trkpt lat="48.45312" lon="0.63156">
        <ele>149.714783</ele>
        <time>2021-09-07T06:58:15.000Z</time>
      </trkpt>
      <trkpt lat="48.45303" lon="0.63175">
        <ele>149.612258</ele>
        <time>2021-09-07T06:58:17.000Z</time>
      </trkpt>
      <trkpt lat="48.45298" lon="0.63184">
        <ele>149.561844</ele>
        <time>2021-09-07T06:58:18.000Z</time>
      </trkpt>
      <trkpt lat="48.45264" lon="0.63245">
        <ele>149.205484</ele>
        <time>2021-09-07T06:58:25.000Z</time>
      </trkpt>
      <trkpt lat="48.45235" lon="0.63297">
        <ele>148.906148</ele>
        <time>2021-09-07T06:58:31.000Z</time>
      </trkpt>
      <trkpt lat="48.45206" lon="0.63349">
        <ele>148.579811</ele>
        <time>2021-09-07T06:58:37.000Z</time>
      </trkpt>
      <trkpt lat="48.45171" lon="0.63412">
        <ele>147.951925</ele>
        <time>2021-09-07T06:58:44.000Z</time>
      </trkpt>
      <trkpt lat="48.45157" lon="0.63439">
        <ele>147.689439</ele>
        <time>2021-09-07T06:58:47.000Z</time>
      </trkpt>
      <trkpt lat="48.45148" lon="0.63457">
        <ele>147.516912</ele>
        <time>2021-09-07T06:58:49.000Z</time>
      </trkpt>
      <trkpt lat="48.45118" lon="0.63511">
        <ele>146.978086</ele>
        <time>2021-09-07T06:58:55.000Z</time>
      </trkpt>
      <trkpt lat="48.45093" lon="0.63556">
        <ele>146.510058</ele>
        <time>2021-09-07T06:59:00.000Z</time>
      </trkpt>
      <trkpt lat="48.45058" lon="0.63619">
        <ele>145.623239</ele>
        <time>2021-09-07T06:59:07.000Z</time>
      </trkpt>
      <trkpt lat="48.45025" lon="0.63684">
        <ele>144.730466</ele>
        <time>2021-09-07T06:59:14.000Z</time>
      </trkpt>
      <trkpt lat="48.4502" lon="0.63694">
        <ele>144.605827</ele>
        <time>2021-09-07T06:59:15.000Z</time>
      </trkpt>
      <trkpt lat="48.45" lon="0.63742">
        <ele>143.987951</ele>
        <time>2021-09-07T06:59:20.000Z</time>
      </trkpt>
      <trkpt lat="48.44982" lon="0.63789">
        <ele>143.555366</ele>
        <time>2021-09-07T06:59:25.000Z</time>
      </trkpt>
      <trkpt lat="48.44979" lon="0.63798">
        <ele>143.521669</ele>
        <time>2021-09-07T06:59:26.000Z</time>
      </trkpt>
      <trkpt lat="48.44956" lon="0.63873">
        <ele>143.268629</ele>
        <time>2021-09-07T06:59:34.000Z</time>
      </trkpt>
      <trkpt lat="48.44955" lon="0.63891">
        <ele>143.215552</ele>
        <time>2021-09-07T06:59:36.000Z</time>
      </trkpt>
      <trkpt lat="48.44953" lon="0.639">
        <ele>143.186911</ele>
        <time>2021-09-07T06:59:37.000Z</time>
      </trkpt>
      <trkpt lat="48.44941" lon="0.63953">
        <ele>143.013319</ele>
        <time>2021-09-07T06:59:43.000Z</time>
      </trkpt>
      <trkpt lat="48.44938" lon="0.63972">
        <ele>142.955383</ele>
        <time>2021-09-07T06:59:45.000Z</time>
      </trkpt>
      <trkpt lat="48.44934" lon="0.63988">
        <ele>142.901529</ele>
        <time>2021-09-07T06:59:47.000Z</time>
      </trkpt>
      <trkpt lat="48.44932" lon="0.63997">
        <ele>142.873876</ele>
        <time>2021-09-07T06:59:48.000Z</time>
      </trkpt>
      <trkpt lat="48.44931" lon="0.64006">
        <ele>142.845036</ele>
        <time>2021-09-07T06:59:49.000Z</time>
      </trkpt>
      <trkpt lat="48.44928" lon="0.64021">
        <ele>142.796668</ele>
        <time>2021-09-07T06:59:51.000Z</time>
      </trkpt>
      <trkpt lat="48.44925" lon="0.64034">
        <ele>142.768906</ele>
        <time>2021-09-07T06:59:53.000Z</time>
      </trkpt>
      <trkpt lat="48.44923" lon="0.6404">
        <ele>142.758262</ele>
        <time>2021-09-07T06:59:54.000Z</time>
      </trkpt>
      <trkpt lat="48.44919" lon="0.64071">
        <ele>142.708465</ele>
        <time>2021-09-07T06:59:57.000Z</time>
      </trkpt>
      <trkpt lat="48.44917" lon="0.64093">
        <ele>142.673502</ele>
        <time>2021-09-07T06:59:59.000Z</time>
      </trkpt>
      <trkpt lat="48.44914" lon="0.64124">
        <ele>142.624225</ele>
        <time>2021-09-07T07:00:02.000Z</time>
      </trkpt>
      <trkpt lat="48.44913" lon="0.64133">
        <ele>142.60844</ele>
        <time>2021-09-07T07:00:03.000Z</time>
      </trkpt>
      <trkpt lat="48.44909" lon="0.64173">
        <ele>142.54532</ele>
        <time>2021-09-07T07:00:07.000Z</time>
      </trkpt>
      <trkpt lat="48.44906" lon="0.64202">
        <ele>142.497776</ele>
        <time>2021-09-07T07:00:10.000Z</time>
      </trkpt>
      <trkpt lat="48.44904" lon="0.64222">
        <ele>142.465456</ele>
        <time>2021-09-07T07:00:12.000Z</time>
      </trkpt>
      <trkpt lat="48.44901" lon="0.64298">
        <ele>142.366111</ele>
        <time>2021-09-07T07:00:20.000Z</time>
      </trkpt>
      <trkpt lat="48.449" lon="0.64315">
        <ele>142.405649</ele>
        <time>2021-09-07T07:00:22.000Z</time>
      </trkpt>
      <trkpt lat="48.44899" lon="0.64342">
        <ele>142.463599</ele>
        <time>2021-09-07T07:00:25.000Z</time>
      </trkpt>
      <trkpt lat="48.44899" lon="0.64368">
        <ele>142.522358</ele>
        <time>2021-09-07T07:00:28.000Z</time>
      </trkpt>
      <trkpt lat="48.449" lon="0.64384">
        <ele>142.558798</ele>
        <time>2021-09-07T07:00:30.000Z</time>
      </trkpt>
      <trkpt lat="48.44902" lon="0.6443">
        <ele>142.659044</ele>
        <time>2021-09-07T07:00:35.000Z</time>
      </trkpt>
      <trkpt lat="48.44903" lon="0.64438">
        <ele>142.679006</ele>
        <time>2021-09-07T07:00:36.000Z</time>
      </trkpt>
      <trkpt lat="48.44905" lon="0.64464">
        <ele>142.736288</ele>
        <time>2021-09-07T07:00:39.000Z</time>
      </trkpt>
      <trkpt lat="48.44905" lon="0.64472">
        <ele>142.753833</ele>
        <time>2021-09-07T07:00:40.000Z</time>
      </trkpt>
      <trkpt lat="48.4491" lon="0.64508">
        <ele>142.835436</ele>
        <time>2021-09-07T07:00:44.000Z</time>
      </trkpt>
      <trkpt lat="48.44917" lon="0.6456">
        <ele>142.953577</ele>
        <time>2021-09-07T07:00:50.000Z</time>
      </trkpt>
      <trkpt lat="48.44918" lon="0.64568">
        <ele>142.963434</ele>
        <time>2021-09-07T07:00:51.000Z</time>
      </trkpt>
      <trkpt lat="48.44923" lon="0.64596">
        <ele>142.995814</ele>
        <time>2021-09-07T07:00:54.000Z</time>
      </trkpt>
      <trkpt lat="48.44925" lon="0.64604">
        <ele>143.005375</ele>
        <time>2021-09-07T07:00:55.000Z</time>
      </trkpt>
      <trkpt lat="48.44927" lon="0.64613">
        <ele>143.015331</ele>
        <time>2021-09-07T07:00:56.000Z</time>
      </trkpt>
      <trkpt lat="48.44932" lon="0.64639">
        <ele>143.04648</ele>
        <time>2021-09-07T07:00:59.000Z</time>
      </trkpt>
      <trkpt lat="48.4494" lon="0.64677">
        <ele>143.090912</ele>
        <time>2021-09-07T07:01:03.000Z</time>
      </trkpt>
      <trkpt lat="48.44944" lon="0.64694">
        <ele>143.110992</ele>
        <time>2021-09-07T07:01:05.000Z</time>
      </trkpt>
      <trkpt lat="48.4495" lon="0.64721">
        <ele>143.142611</ele>
        <time>2021-09-07T07:01:08.000Z</time>
      </trkpt>
      <trkpt lat="48.44953" lon="0.64731">
        <ele>143.154483</ele>
        <time>2021-09-07T07:01:09.000Z</time>
      </trkpt>
      <trkpt lat="48.44963" lon="0.64765">
        <ele>143.195953</ele>
        <time>2021-09-07T07:01:12.000Z</time>
      </trkpt>
      <trkpt lat="48.44967" lon="0.64776">
        <ele>143.210603</ele>
        <time>2021-09-07T07:01:13.000Z</time>
      </trkpt>
      <trkpt lat="48.44989" lon="0.64837">
        <ele>143.094602</ele>
        <time>2021-09-07T07:01:19.000Z</time>
      </trkpt>
      <trkpt lat="48.44992" lon="0.64844">
        <ele>143.046924</ele>
        <time>2021-09-07T07:01:20.000Z</time>
      </trkpt>
      <trkpt lat="48.45003" lon="0.64865">
        <ele>142.885875</ele>
        <time>2021-09-07T07:01:23.000Z</time>
      </trkpt>
      <trkpt lat="48.45006" lon="0.64873">
        <ele>142.83104</ele>
        <time>2021-09-07T07:01:24.000Z</time>
      </trkpt>
      <trkpt lat="48.45014" lon="0.64898">
        <ele>142.657745</ele>
        <time>2021-09-07T07:01:27.000Z</time>
      </trkpt>
      <trkpt lat="48.4502" lon="0.64915">
        <ele>142.537353</ele>
        <time>2021-09-07T07:01:29.000Z</time>
      </trkpt>
      <trkpt lat="48.45031" lon="0.64942">
        <ele>142.347716</ele>
        <time>2021-09-07T07:01:32.000Z</time>
      </trkpt>
      <trkpt lat="48.45042" lon="0.6497">
        <ele>142.149795</ele>
        <time>2021-09-07T07:01:35.000Z</time>
      </trkpt>
      <trkpt lat="48.45048" lon="0.64988">
        <ele>142.027823</ele>
        <time>2021-09-07T07:01:37.000Z</time>
      </trkpt>
      <trkpt lat="48.45061" lon="0.65024">
        <ele>141.777125</ele>
        <time>2021-09-07T07:01:41.000Z</time>
      </trkpt>
      <trkpt lat="48.45064" lon="0.65034">
        <ele>141.712444</ele>
        <time>2021-09-07T07:01:42.000Z</time>
      </trkpt>
      <trkpt lat="48.45091" lon="0.65102">
        <ele>141.08711</ele>
        <time>2021-09-07T07:01:49.000Z</time>
      </trkpt>
      <trkpt lat="48.45105" lon="0.6514">
        <ele>140.722607</ele>
        <time>2021-09-07T07:01:53.000Z</time>
      </trkpt>
      <trkpt lat="48.45108" lon="0.65149">
        <ele>140.635523</ele>
        <time>2021-09-07T07:01:54.000Z</time>
      </trkpt>
      <trkpt lat="48.45114" lon="0.65167">
        <ele>140.466126</ele>
        <time>2021-09-07T07:01:56.000Z</time>
      </trkpt>
      <trkpt lat="48.45117" lon="0.65177">
        <ele>140.370962</ele>
        <time>2021-09-07T07:01:57.000Z</time>
      </trkpt>
      <trkpt lat="48.45128" lon="0.65207">
        <ele>140.078893</ele>
        <time>2021-09-07T07:02:00.000Z</time>
      </trkpt>
      <trkpt lat="48.45146" lon="0.65248">
        <ele>139.67416</ele>
        <time>2021-09-07T07:02:04.000Z</time>
      </trkpt>
      <trkpt lat="48.45172" lon="0.65316">
        <ele>139.089695</ele>
        <time>2021-09-07T07:02:11.000Z</time>
      </trkpt>
      <trkpt lat="48.45193" lon="0.65371">
        <ele>138.6989</ele>
        <time>2021-09-07T07:02:17.000Z</time>
      </trkpt>
      <trkpt lat="48.45217" lon="0.65432">
        <ele>138.255267</ele>
        <time>2021-09-07T07:02:24.000Z</time>
      </trkpt>
      <trkpt lat="48.45221" lon="0.65441">
        <ele>138.190456</ele>
        <time>2021-09-07T07:02:25.000Z</time>
      </trkpt>
      <trkpt lat="48.45231" lon="0.65467">
        <ele>138.003596</ele>
        <time>2021-09-07T07:02:28.000Z</time>
      </trkpt>
      <trkpt lat="48.45246" lon="0.65509">
        <ele>137.706146</ele>
        <time>2021-09-07T07:02:33.000Z</time>
      </trkpt>
      <trkpt lat="48.45248" lon="0.65517">
        <ele>137.652123</ele>
        <time>2021-09-07T07:02:34.000Z</time>
      </trkpt>
      <trkpt lat="48.45256" lon="0.6554">
        <ele>137.646195</ele>
        <time>2021-09-07T07:02:37.000Z</time>
      </trkpt>
      <trkpt lat="48.45261" lon="0.65556">
        <ele>137.650515</ele>
        <time>2021-09-07T07:02:39.000Z</time>
      </trkpt>
      <trkpt lat="48.45265" lon="0.65571">
        <ele>137.654483</ele>
        <time>2021-09-07T07:02:41.000Z</time>
      </trkpt>
      <trkpt lat="48.45267" lon="0.65578">
        <ele>137.656328</ele>
        <time>2021-09-07T07:02:42.000Z</time>
      </trkpt>
      <trkpt lat="48.45269" lon="0.65586">
        <ele>137.658453</ele>
        <time>2021-09-07T07:02:43.000Z</time>
      </trkpt>
      <trkpt lat="48.45274" lon="0.65602">
        <ele>137.662849</ele>
        <time>2021-09-07T07:02:45.000Z</time>
      </trkpt>
      <trkpt lat="48.45277" lon="0.6561">
        <ele>137.665074</ele>
        <time>2021-09-07T07:02:46.000Z</time>
      </trkpt>
      <trkpt lat="48.4528" lon="0.65618">
        <ele>137.667403</ele>
        <time>2021-09-07T07:02:47.000Z</time>
      </trkpt>
      <trkpt lat="48.45287" lon="0.65643">
        <ele>137.673981</ele>
        <time>2021-09-07T07:02:50.000Z</time>
      </trkpt>
      <trkpt lat="48.45291" lon="0.65658">
        <ele>137.67801</ele>
        <time>2021-09-07T07:02:52.000Z</time>
      </trkpt>
      <trkpt lat="48.45294" lon="0.65675">
        <ele>137.682213</ele>
        <time>2021-09-07T07:02:54.000Z</time>
      </trkpt>
      <trkpt lat="48.45305" lon="0.65727">
        <ele>137.695657</ele>
        <time>2021-09-07T07:03:00.000Z</time>
      </trkpt>
      <trkpt lat="48.45309" lon="0.65745">
        <ele>137.700257</ele>
        <time>2021-09-07T07:03:02.000Z</time>
      </trkpt>
      <trkpt lat="48.45319" lon="0.65797">
        <ele>137.724492</ele>
        <time>2021-09-07T07:03:08.000Z</time>
      </trkpt>
      <trkpt lat="48.45322" lon="0.65821">
        <ele>137.740097</ele>
        <time>2021-09-07T07:03:11.000Z</time>
      </trkpt>
      <trkpt lat="48.45324" lon="0.65837">
        <ele>137.750616</ele>
        <time>2021-09-07T07:03:13.000Z</time>
      </trkpt>
      <trkpt lat="48.45325" lon="0.65846">
        <ele>137.756294</ele>
        <time>2021-09-07T07:03:14.000Z</time>
      </trkpt>
      <trkpt lat="48.45329" lon="0.65883">
        <ele>137.780227</ele>
        <time>2021-09-07T07:03:18.000Z</time>
      </trkpt>
      <trkpt lat="48.45335" lon="0.65943">
        <ele>137.819045</ele>
        <time>2021-09-07T07:03:24.000Z</time>
      </trkpt>
      <trkpt lat="48.45338" lon="0.65989">
        <ele>137.848421</ele>
        <time>2021-09-07T07:03:29.000Z</time>
      </trkpt>
      <trkpt lat="48.4534" lon="0.66014">
        <ele>137.86454</ele>
        <time>2021-09-07T07:03:32.000Z</time>
      </trkpt>
      <trkpt lat="48.4534" lon="0.66024">
        <ele>137.870872</ele>
        <time>2021-09-07T07:03:33.000Z</time>
      </trkpt>
      <trkpt lat="48.45339" lon="0.6608">
        <ele>137.494135</ele>
        <time>2021-09-07T07:03:39.000Z</time>
      </trkpt>
      <trkpt lat="48.45336" lon="0.66108">
        <ele>137.237108</ele>
        <time>2021-09-07T07:03:43.000Z</time>
      </trkpt>
      <trkpt lat="48.45337" lon="0.66131">
        <ele>137.021744</ele>
        <time>2021-09-07T07:03:47.000Z</time>
      </trkpt>
      <trkpt lat="48.45336" lon="0.66138">
        <ele>136.955432</ele>
        <time>2021-09-07T07:03:48.000Z</time>
      </trkpt>
      <trkpt lat="48.45333" lon="0.66172">
        <ele>136.636869</ele>
        <time>2021-09-07T07:03:53.000Z</time>
      </trkpt>
      <trkpt lat="48.4533" lon="0.66203">
        <ele>136.354043</ele>
        <time>2021-09-07T07:03:57.000Z</time>
      </trkpt>
      <trkpt lat="48.4533" lon="0.66211">
        <ele>136.276243</ele>
        <time>2021-09-07T07:03:58.000Z</time>
      </trkpt>
      <trkpt lat="48.45326" lon="0.66249">
        <ele>135.924875</ele>
        <time>2021-09-07T07:04:02.000Z</time>
      </trkpt>
      <trkpt lat="48.45325" lon="0.66258">
        <ele>135.832534</ele>
        <time>2021-09-07T07:04:03.000Z</time>
      </trkpt>
      <trkpt lat="48.45323" lon="0.66267">
        <ele>135.749245</ele>
        <time>2021-09-07T07:04:04.000Z</time>
      </trkpt>
      <trkpt lat="48.4532" lon="0.66295">
        <ele>135.487431</ele>
        <time>2021-09-07T07:04:07.000Z</time>
      </trkpt>
      <trkpt lat="48.45315" lon="0.66332">
        <ele>135.187692</ele>
        <time>2021-09-07T07:04:11.000Z</time>
      </trkpt>
      <trkpt lat="48.45314" lon="0.66342">
        <ele>135.118526</ele>
        <time>2021-09-07T07:04:12.000Z</time>
      </trkpt>
      <trkpt lat="48.45306" lon="0.66398">
        <ele>134.700437</ele>
        <time>2021-09-07T07:04:18.000Z</time>
      </trkpt>
      <trkpt lat="48.453" lon="0.66442">
        <ele>134.377785</ele>
        <time>2021-09-07T07:04:23.000Z</time>
      </trkpt>
      <trkpt lat="48.45292" lon="0.66498">
        <ele>133.954509</ele>
        <time>2021-09-07T07:04:29.000Z</time>
      </trkpt>
      <trkpt lat="48.45287" lon="0.66531">
        <ele>133.711894</ele>
        <time>2021-09-07T07:04:33.000Z</time>
      </trkpt>
      <trkpt lat="48.45286" lon="0.66539">
        <ele>133.655566</ele>
        <time>2021-09-07T07:04:34.000Z</time>
      </trkpt>
      <trkpt lat="48.45285" lon="0.66547">
        <ele>133.596684</ele>
        <time>2021-09-07T07:04:35.000Z</time>
      </trkpt>
      <trkpt lat="48.45282" lon="0.66572">
        <ele>133.406567</ele>
        <time>2021-09-07T07:04:38.000Z</time>
      </trkpt>
      <trkpt lat="48.45271" lon="0.66651">
        <ele>133.196304</ele>
        <time>2021-09-07T07:04:47.000Z</time>
      </trkpt>
      <trkpt lat="48.45261" lon="0.66721">
        <ele>133.012647</ele>
        <time>2021-09-07T07:04:55.000Z</time>
      </trkpt>
      <trkpt lat="48.4526" lon="0.6673">
        <ele>132.989642</ele>
        <time>2021-09-07T07:04:56.000Z</time>
      </trkpt>
      <trkpt lat="48.45259" lon="0.66739">
        <ele>132.966595</ele>
        <time>2021-09-07T07:04:57.000Z</time>
      </trkpt>
      <trkpt lat="48.45256" lon="0.66764">
        <ele>132.900579</ele>
        <time>2021-09-07T07:05:00.000Z</time>
      </trkpt>
      <trkpt lat="48.45249" lon="0.66812">
        <ele>132.773303</ele>
        <time>2021-09-07T07:05:06.000Z</time>
      </trkpt>
      <trkpt lat="48.45238" lon="0.66862">
        <ele>132.783844</ele>
        <time>2021-09-07T07:05:12.000Z</time>
      </trkpt>
      <trkpt lat="48.45224" lon="0.6691">
        <ele>132.943995</ele>
        <time>2021-09-07T07:05:18.000Z</time>
      </trkpt>
      <trkpt lat="48.45219" lon="0.66927">
        <ele>132.998621</ele>
        <time>2021-09-07T07:05:20.000Z</time>
      </trkpt>
      <trkpt lat="48.45214" lon="0.66942">
        <ele>133.051871</ele>
        <time>2021-09-07T07:05:22.000Z</time>
      </trkpt>
      <trkpt lat="48.45202" lon="0.66982">
        <ele>133.182067</ele>
        <time>2021-09-07T07:05:27.000Z</time>
      </trkpt>
      <trkpt lat="48.45198" lon="0.66995">
        <ele>133.226857</ele>
        <time>2021-09-07T07:05:29.000Z</time>
      </trkpt>
      <trkpt lat="48.45192" lon="0.67016">
        <ele>133.296592</ele>
        <time>2021-09-07T07:05:32.000Z</time>
      </trkpt>
      <trkpt lat="48.4519" lon="0.67023">
        <ele>133.320728</ele>
        <time>2021-09-07T07:05:33.000Z</time>
      </trkpt>
      <trkpt lat="48.45186" lon="0.67037">
        <ele>133.367002</ele>
        <time>2021-09-07T07:05:35.000Z</time>
      </trkpt>
      <trkpt lat="48.45184" lon="0.67045">
        <ele>133.392161</ele>
        <time>2021-09-07T07:05:36.000Z</time>
      </trkpt>
      <trkpt lat="48.45173" lon="0.67075">
        <ele>133.494976</ele>
        <time>2021-09-07T07:05:40.000Z</time>
      </trkpt>
      <trkpt lat="48.4517" lon="0.67088">
        <ele>133.535215</ele>
        <time>2021-09-07T07:05:42.000Z</time>
      </trkpt>
      <trkpt lat="48.45165" lon="0.67109">
        <ele>133.576346</ele>
        <time>2021-09-07T07:05:45.000Z</time>
      </trkpt>
      <trkpt lat="48.45164" lon="0.67116">
        <ele>133.588829</ele>
        <time>2021-09-07T07:05:46.000Z</time>
      </trkpt>
      <trkpt lat="48.45163" lon="0.67122">
        <ele>133.599944</ele>
        <time>2021-09-07T07:05:47.000Z</time>
      </trkpt>
      <trkpt lat="48.45159" lon="0.67133">
        <ele>133.624313</ele>
        <time>2021-09-07T07:05:49.000Z</time>
      </trkpt>
      <trkpt lat="48.45146" lon="0.67181">
        <ele>133.718748</ele>
        <time>2021-09-07T07:05:55.000Z</time>
      </trkpt>
      <trkpt lat="48.45141" lon="0.67207">
        <ele>133.769096</ele>
        <time>2021-09-07T07:05:58.000Z</time>
      </trkpt>
      <trkpt lat="48.45137" lon="0.67233">
        <ele>133.818131</ele>
        <time>2021-09-07T07:06:01.000Z</time>
      </trkpt>
      <trkpt lat="48.45133" lon="0.67259">
        <ele>133.867412</ele>
        <time>2021-09-07T07:06:04.000Z</time>
      </trkpt>
      <trkpt lat="48.45133" lon="0.67269">
        <ele>133.885221</ele>
        <time>2021-09-07T07:06:05.000Z</time>
      </trkpt>
      <trkpt lat="48.45131" lon="0.67288">
        <ele>133.920469</ele>
        <time>2021-09-07T07:06:07.000Z</time>
      </trkpt>
      <trkpt lat="48.45129" lon="0.67307">
        <ele>133.956085</ele>
        <time>2021-09-07T07:06:09.000Z</time>
      </trkpt>
      <trkpt lat="48.45128" lon="0.67356">
        <ele>134.04179</ele>
        <time>2021-09-07T07:06:14.000Z</time>
      </trkpt>
      <trkpt lat="48.45128" lon="0.67385">
        <ele>134.080118</ele>
        <time>2021-09-07T07:06:17.000Z</time>
      </trkpt>
      <trkpt lat="48.45129" lon="0.67405">
        <ele>134.105702</ele>
        <time>2021-09-07T07:06:19.000Z</time>
      </trkpt>
      <trkpt lat="48.4513" lon="0.67425">
        <ele>134.132244</ele>
        <time>2021-09-07T07:06:21.000Z</time>
      </trkpt>
      <trkpt lat="48.45133" lon="0.67454">
        <ele>134.170835</ele>
        <time>2021-09-07T07:06:24.000Z</time>
      </trkpt>
      <trkpt lat="48.45138" lon="0.67492">
        <ele>134.222792</ele>
        <time>2021-09-07T07:06:28.000Z</time>
      </trkpt>
      <trkpt lat="48.45141" lon="0.67512">
        <ele>134.24896</ele>
        <time>2021-09-07T07:06:30.000Z</time>
      </trkpt>
      <trkpt lat="48.4515" lon="0.67559">
        <ele>134.313434</ele>
        <time>2021-09-07T07:06:35.000Z</time>
      </trkpt>
      <trkpt lat="48.45168" lon="0.67644">
        <ele>134.243148</ele>
        <time>2021-09-07T07:06:44.000Z</time>
      </trkpt>
      <trkpt lat="48.45178" lon="0.67699">
        <ele>134.005801</ele>
        <time>2021-09-07T07:06:50.000Z</time>
      </trkpt>
      <trkpt lat="48.45189" lon="0.67754">
        <ele>133.765894</ele>
        <time>2021-09-07T07:06:56.000Z</time>
      </trkpt>
      <trkpt lat="48.45191" lon="0.67763">
        <ele>133.725868</ele>
        <time>2021-09-07T07:06:57.000Z</time>
      </trkpt>
      <trkpt lat="48.45203" lon="0.67818">
        <ele>133.482848</ele>
        <time>2021-09-07T07:07:03.000Z</time>
      </trkpt>
      <trkpt lat="48.45214" lon="0.67874">
        <ele>133.236577</ele>
        <time>2021-09-07T07:07:09.000Z</time>
      </trkpt>
      <trkpt lat="48.45227" lon="0.67941">
        <ele>132.854383</ele>
        <time>2021-09-07T07:07:16.000Z</time>
      </trkpt>
      <trkpt lat="48.45237" lon="0.67995">
        <ele>132.545805</ele>
        <time>2021-09-07T07:07:22.000Z</time>
      </trkpt>
      <trkpt lat="48.45247" lon="0.68052">
        <ele>132.226951</ele>
        <time>2021-09-07T07:07:28.000Z</time>
      </trkpt>
      <trkpt lat="48.45253" lon="0.68088">
        <ele>132.024835</ele>
        <time>2021-09-07T07:07:32.000Z</time>
      </trkpt>
      <trkpt lat="48.45254" lon="0.68097">
        <ele>131.976258</ele>
        <time>2021-09-07T07:07:33.000Z</time>
      </trkpt>
      <trkpt lat="48.45264" lon="0.68143">
        <ele>131.849854</ele>
        <time>2021-09-07T07:07:38.000Z</time>
      </trkpt>
      <trkpt lat="48.45267" lon="0.68169">
        <ele>132.018378</ele>
        <time>2021-09-07T07:07:41.000Z</time>
      </trkpt>
      <trkpt lat="48.45271" lon="0.68187">
        <ele>132.13944</ele>
        <time>2021-09-07T07:07:43.000Z</time>
      </trkpt>
      <trkpt lat="48.45274" lon="0.68205">
        <ele>132.256357</ele>
        <time>2021-09-07T07:07:45.000Z</time>
      </trkpt>
      <trkpt lat="48.45278" lon="0.68222">
        <ele>132.377459</ele>
        <time>2021-09-07T07:07:47.000Z</time>
      </trkpt>
      <trkpt lat="48.45285" lon="0.68249">
        <ele>132.560114</ele>
        <time>2021-09-07T07:07:50.000Z</time>
      </trkpt>
      <trkpt lat="48.45291" lon="0.68278">
        <ele>132.754433</ele>
        <time>2021-09-07T07:07:53.000Z</time>
      </trkpt>
      <trkpt lat="48.45296" lon="0.68326">
        <ele>133.06777</ele>
        <time>2021-09-07T07:07:58.000Z</time>
      </trkpt>
      <trkpt lat="48.45299" lon="0.68356">
        <ele>133.26372</ele>
        <time>2021-09-07T07:08:01.000Z</time>
      </trkpt>
      <trkpt lat="48.45301" lon="0.68376">
        <ele>133.3929</ele>
        <time>2021-09-07T07:08:03.000Z</time>
      </trkpt>
      <trkpt lat="48.45306" lon="0.68434">
        <ele>133.308291</ele>
        <time>2021-09-07T07:08:09.000Z</time>
      </trkpt>
      <trkpt lat="48.45308" lon="0.68502">
        <ele>132.950308</ele>
        <time>2021-09-07T07:08:16.000Z</time>
      </trkpt>
      <trkpt lat="48.45307" lon="0.68548">
        <ele>132.714585</ele>
        <time>2021-09-07T07:08:21.000Z</time>
      </trkpt>
      <trkpt lat="48.45304" lon="0.68604">
        <ele>132.420755</ele>
        <time>2021-09-07T07:08:27.000Z</time>
      </trkpt>
      <trkpt lat="48.45303" lon="0.68613">
        <ele>132.374945</ele>
        <time>2021-09-07T07:08:28.000Z</time>
      </trkpt>
      <trkpt lat="48.45301" lon="0.68642">
        <ele>132.223369</ele>
        <time>2021-09-07T07:08:31.000Z</time>
      </trkpt>
      <trkpt lat="48.45297" lon="0.68681">
        <ele>131.936776</ele>
        <time>2021-09-07T07:08:35.000Z</time>
      </trkpt>
      <trkpt lat="48.45295" lon="0.68699">
        <ele>131.756438</ele>
        <time>2021-09-07T07:08:37.000Z</time>
      </trkpt>
      <trkpt lat="48.45294" lon="0.68707">
        <ele>131.673774</ele>
        <time>2021-09-07T07:08:38.000Z</time>
      </trkpt>
      <trkpt lat="48.4529" lon="0.68744">
        <ele>131.294976</ele>
        <time>2021-09-07T07:08:42.000Z</time>
      </trkpt>
      <trkpt lat="48.4528" lon="0.68798">
        <ele>130.735208</ele>
        <time>2021-09-07T07:08:48.000Z</time>
      </trkpt>
      <trkpt lat="48.45273" lon="0.68833">
        <ele>130.371223</ele>
        <time>2021-09-07T07:08:52.000Z</time>
      </trkpt>
      <trkpt lat="48.45263" lon="0.68875">
        <ele>129.928973</ele>
        <time>2021-09-07T07:08:57.000Z</time>
      </trkpt>
      <trkpt lat="48.45261" lon="0.68884">
        <ele>129.836258</ele>
        <time>2021-09-07T07:08:58.000Z</time>
      </trkpt>
      <trkpt lat="48.45247" lon="0.68934">
        <ele>129.377969</ele>
        <time>2021-09-07T07:09:04.000Z</time>
      </trkpt>
      <trkpt lat="48.45243" lon="0.6895">
        <ele>129.356268</ele>
        <time>2021-09-07T07:09:06.000Z</time>
      </trkpt>
      <trkpt lat="48.45234" lon="0.68985">
        <ele>129.308954</ele>
        <time>2021-09-07T07:09:10.000Z</time>
      </trkpt>
      <trkpt lat="48.45217" lon="0.69045">
        <ele>129.226408</ele>
        <time>2021-09-07T07:09:17.000Z</time>
      </trkpt>
      <trkpt lat="48.45207" lon="0.69079">
        <ele>129.179959</ele>
        <time>2021-09-07T07:09:21.000Z</time>
      </trkpt>
      <trkpt lat="48.45205" lon="0.69088">
        <ele>129.168035</ele>
        <time>2021-09-07T07:09:22.000Z</time>
      </trkpt>
      <trkpt lat="48.45192" lon="0.69138">
        <ele>129.100177</ele>
        <time>2021-09-07T07:09:28.000Z</time>
      </trkpt>
      <trkpt lat="48.4518" lon="0.69178">
        <ele>129.059019</ele>
        <time>2021-09-07T07:09:33.000Z</time>
      </trkpt>
      <trkpt lat="48.4517" lon="0.69218">
        <ele>129.225535</ele>
        <time>2021-09-07T07:09:38.000Z</time>
      </trkpt>
      <trkpt lat="48.45165" lon="0.69234">
        <ele>129.292309</ele>
        <time>2021-09-07T07:09:40.000Z</time>
      </trkpt>
      <trkpt lat="48.45159" lon="0.69258">
        <ele>129.389735</ele>
        <time>2021-09-07T07:09:43.000Z</time>
      </trkpt>
      <trkpt lat="48.45153" lon="0.6928">
        <ele>129.483205</ele>
        <time>2021-09-07T07:09:46.000Z</time>
      </trkpt>
      <trkpt lat="48.45148" lon="0.69296">
        <ele>129.550443</ele>
        <time>2021-09-07T07:09:48.000Z</time>
      </trkpt>
      <trkpt lat="48.45134" lon="0.69342">
        <ele>129.747081</ele>
        <time>2021-09-07T07:09:54.000Z</time>
      </trkpt>
      <trkpt lat="48.45132" lon="0.6935">
        <ele>129.780584</ele>
        <time>2021-09-07T07:09:55.000Z</time>
      </trkpt>
      <trkpt lat="48.45122" lon="0.69385">
        <ele>129.925145</ele>
        <time>2021-09-07T07:09:59.000Z</time>
      </trkpt>
      <trkpt lat="48.45114" lon="0.69417">
        <ele>130.05783</ele>
        <time>2021-09-07T07:10:03.000Z</time>
      </trkpt>
      <trkpt lat="48.451" lon="0.69468">
        <ele>130.219619</ele>
        <time>2021-09-07T07:10:09.000Z</time>
      </trkpt>
      <trkpt lat="48.45087" lon="0.69519">
        <ele>130.372472</ele>
        <time>2021-09-07T07:10:15.000Z</time>
      </trkpt>
      <trkpt lat="48.45077" lon="0.69554">
        <ele>130.47594</ele>
        <time>2021-09-07T07:10:19.000Z</time>
      </trkpt>
      <trkpt lat="48.45076" lon="0.69563">
        <ele>130.501427</ele>
        <time>2021-09-07T07:10:20.000Z</time>
      </trkpt>
      <trkpt lat="48.45061" lon="0.69614">
        <ele>130.656432</ele>
        <time>2021-09-07T07:10:26.000Z</time>
      </trkpt>
      <trkpt lat="48.45049" lon="0.69653">
        <ele>130.775381</ele>
        <time>2021-09-07T07:10:31.000Z</time>
      </trkpt>
      <trkpt lat="48.45047" lon="0.69661">
        <ele>130.800155</ele>
        <time>2021-09-07T07:10:32.000Z</time>
      </trkpt>
      <trkpt lat="48.4503" lon="0.69717">
        <ele>130.867657</ele>
        <time>2021-09-07T07:10:39.000Z</time>
      </trkpt>
      <trkpt lat="48.45013" lon="0.69764">
        <ele>130.894383</ele>
        <time>2021-09-07T07:10:45.000Z</time>
      </trkpt>
      <trkpt lat="48.45005" lon="0.69783">
        <ele>130.905507</ele>
        <time>2021-09-07T07:10:48.000Z</time>
      </trkpt>
      <trkpt lat="48.44991" lon="0.69813">
        <ele>130.923676</ele>
        <time>2021-09-07T07:10:52.000Z</time>
      </trkpt>
      <trkpt lat="48.44987" lon="0.69821">
        <ele>130.928396</ele>
        <time>2021-09-07T07:10:53.000Z</time>
      </trkpt>
      <trkpt lat="48.44969" lon="0.69851">
        <ele>130.948555</ele>
        <time>2021-09-07T07:10:57.000Z</time>
      </trkpt>
      <trkpt lat="48.44938" lon="0.69894">
        <ele>130.971828</ele>
        <time>2021-09-07T07:11:03.000Z</time>
      </trkpt>
      <trkpt lat="48.44924" lon="0.69911">
        <ele>130.771609</ele>
        <time>2021-09-07T07:11:06.000Z</time>
      </trkpt>
      <trkpt lat="48.44914" lon="0.69921">
        <ele>130.646085</ele>
        <time>2021-09-07T07:11:08.000Z</time>
      </trkpt>
      <trkpt lat="48.44888" lon="0.69946">
        <ele>130.31232</ele>
        <time>2021-09-07T07:11:13.000Z</time>
      </trkpt>
      <trkpt lat="48.44869" lon="0.69965">
        <ele>130.059836</ele>
        <time>2021-09-07T07:11:17.000Z</time>
      </trkpt>
      <trkpt lat="48.44864" lon="0.6997">
        <ele>129.996772</ele>
        <time>2021-09-07T07:11:18.000Z</time>
      </trkpt>
      <trkpt lat="48.44859" lon="0.69974">
        <ele>129.935568</ele>
        <time>2021-09-07T07:11:19.000Z</time>
      </trkpt>
      <trkpt lat="48.4485" lon="0.69984">
        <ele>129.81164</ele>
        <time>2021-09-07T07:11:21.000Z</time>
      </trkpt>
      <trkpt lat="48.44844" lon="0.69988">
        <ele>129.742426</ele>
        <time>2021-09-07T07:11:22.000Z</time>
      </trkpt>
      <trkpt lat="48.44826" lon="0.7">
        <ele>129.534971</ele>
        <time>2021-09-07T07:11:25.000Z</time>
      </trkpt>
      <trkpt lat="48.44821" lon="0.70003">
        <ele>129.471741</ele>
        <time>2021-09-07T07:11:26.000Z</time>
      </trkpt>
      <trkpt lat="48.44795" lon="0.7002">
        <ele>129.162048</ele>
        <time>2021-09-07T07:11:31.000Z</time>
      </trkpt>
      <trkpt lat="48.44784" lon="0.70027">
        <ele>129.036465</ele>
        <time>2021-09-07T07:11:33.000Z</time>
      </trkpt>
      <trkpt lat="48.44773" lon="0.70033">
        <ele>128.85782</ele>
        <time>2021-09-07T07:11:35.000Z</time>
      </trkpt>
      <trkpt lat="48.44769" lon="0.70035">
        <ele>128.776801</ele>
        <time>2021-09-07T07:11:36.000Z</time>
      </trkpt>
      <trkpt lat="48.44763" lon="0.70035">
        <ele>128.694267</ele>
        <time>2021-09-07T07:11:37.000Z</time>
      </trkpt>
      <trkpt lat="48.44753" lon="0.70037">
        <ele>128.531498</ele>
        <time>2021-09-07T07:11:39.000Z</time>
      </trkpt>
      <trkpt lat="48.44749" lon="0.70038">
        <ele>128.452107</ele>
        <time>2021-09-07T07:11:40.000Z</time>
      </trkpt>
      <trkpt lat="48.4472" lon="0.70046">
        <ele>127.98375</ele>
        <time>2021-09-07T07:11:45.000Z</time>
      </trkpt>
      <trkpt lat="48.44709" lon="0.7005">
        <ele>127.798357</ele>
        <time>2021-09-07T07:11:47.000Z</time>
      </trkpt>
      <trkpt lat="48.44691" lon="0.70054">
        <ele>127.504212</ele>
        <time>2021-09-07T07:11:50.000Z</time>
      </trkpt>
      <trkpt lat="48.44653" lon="0.7006">
        <ele>126.893725</ele>
        <time>2021-09-07T07:11:56.000Z</time>
      </trkpt>
      <trkpt lat="48.44642" lon="0.70059">
        <ele>126.711086</ele>
        <time>2021-09-07T07:11:58.000Z</time>
      </trkpt>
      <trkpt lat="48.44625" lon="0.70062">
        <ele>126.432034</ele>
        <time>2021-09-07T07:12:01.000Z</time>
      </trkpt>
      <trkpt lat="48.44601" lon="0.70063">
        <ele>126.074792</ele>
        <time>2021-09-07T07:12:05.000Z</time>
      </trkpt>
      <trkpt lat="48.44595" lon="0.70064">
        <ele>126.017498</ele>
        <time>2021-09-07T07:12:06.000Z</time>
      </trkpt>
      <trkpt lat="48.44589" lon="0.70065">
        <ele>125.959055</ele>
        <time>2021-09-07T07:12:07.000Z</time>
      </trkpt>
      <trkpt lat="48.44565" lon="0.70067">
        <ele>125.711553</ele>
        <time>2021-09-07T07:12:11.000Z</time>
      </trkpt>
      <trkpt lat="48.44528" lon="0.70077">
        <ele>125.33383</ele>
        <time>2021-09-07T07:12:17.000Z</time>
      </trkpt>
      <trkpt lat="48.44522" lon="0.70078">
        <ele>125.273095</ele>
        <time>2021-09-07T07:12:18.000Z</time>
      </trkpt>
      <trkpt lat="48.44491" lon="0.70086">
        <ele>124.95815</ele>
        <time>2021-09-07T07:12:23.000Z</time>
      </trkpt>
      <trkpt lat="48.44484" lon="0.70088">
        <ele>124.891462</ele>
        <time>2021-09-07T07:12:24.000Z</time>
      </trkpt>
      <trkpt lat="48.44466" lon="0.70095">
        <ele>124.699738</ele>
        <time>2021-09-07T07:12:27.000Z</time>
      </trkpt>
      <trkpt lat="48.44454" lon="0.70099">
        <ele>124.575362</ele>
        <time>2021-09-07T07:12:29.000Z</time>
      </trkpt>
      <trkpt lat="48.44429" lon="0.70109">
        <ele>124.324537</ele>
        <time>2021-09-07T07:12:33.000Z</time>
      </trkpt>
      <trkpt lat="48.44412" lon="0.70117">
        <ele>124.19372</ele>
        <time>2021-09-07T07:12:36.000Z</time>
      </trkpt>
      <trkpt lat="48.444" lon="0.70123">
        <ele>124.108707</ele>
        <time>2021-09-07T07:12:38.000Z</time>
      </trkpt>
      <trkpt lat="48.44371" lon="0.70141">
        <ele>123.891574</ele>
        <time>2021-09-07T07:12:43.000Z</time>
      </trkpt>
      <trkpt lat="48.44359" lon="0.70148">
        <ele>123.808211</ele>
        <time>2021-09-07T07:12:45.000Z</time>
      </trkpt>
      <trkpt lat="48.44343" lon="0.70158">
        <ele>123.684602</ele>
        <time>2021-09-07T07:12:48.000Z</time>
      </trkpt>
      <trkpt lat="48.44302" lon="0.70188">
        <ele>123.374609</ele>
        <time>2021-09-07T07:12:55.000Z</time>
      </trkpt>
      <trkpt lat="48.4427" lon="0.70214">
        <ele>123.122942</ele>
        <time>2021-09-07T07:13:01.000Z</time>
      </trkpt>
      <trkpt lat="48.44242" lon="0.70241">
        <ele>123.164793</ele>
        <time>2021-09-07T07:13:07.000Z</time>
      </trkpt>
      <trkpt lat="48.44237" lon="0.70246">
        <ele>123.184115</ele>
        <time>2021-09-07T07:13:08.000Z</time>
      </trkpt>
      <trkpt lat="48.44215" lon="0.7027">
        <ele>123.267349</ele>
        <time>2021-09-07T07:13:12.000Z</time>
      </trkpt>
      <trkpt lat="48.44195" lon="0.70292">
        <ele>123.344519</ele>
        <time>2021-09-07T07:13:16.000Z</time>
      </trkpt>
      <trkpt lat="48.4418" lon="0.7031">
        <ele>123.403978</ele>
        <time>2021-09-07T07:13:19.000Z</time>
      </trkpt>
      <trkpt lat="48.44176" lon="0.70316">
        <ele>123.421948</ele>
        <time>2021-09-07T07:13:20.000Z</time>
      </trkpt>
      <trkpt lat="48.44156" lon="0.7034">
        <ele>123.500296</ele>
        <time>2021-09-07T07:13:24.000Z</time>
      </trkpt>
      <trkpt lat="48.44146" lon="0.70351">
        <ele>123.538568</ele>
        <time>2021-09-07T07:13:26.000Z</time>
      </trkpt>
      <trkpt lat="48.44118" lon="0.70388">
        <ele>123.65473</ele>
        <time>2021-09-07T07:13:32.000Z</time>
      </trkpt>
      <trkpt lat="48.44096" lon="0.70418">
        <ele>123.754734</ele>
        <time>2021-09-07T07:13:37.000Z</time>
      </trkpt>
      <trkpt lat="48.44071" lon="0.70453">
        <ele>123.868208</ele>
        <time>2021-09-07T07:13:43.000Z</time>
      </trkpt>
      <trkpt lat="48.44048" lon="0.70481">
        <ele>123.966263</ele>
        <time>2021-09-07T07:13:48.000Z</time>
      </trkpt>
      <trkpt lat="48.44026" lon="0.70511">
        <ele>124.064439</ele>
        <time>2021-09-07T07:13:53.000Z</time>
      </trkpt>
      <trkpt lat="48.43994" lon="0.70556">
        <ele>124.208534</ele>
        <time>2021-09-07T07:14:00.000Z</time>
      </trkpt>
      <trkpt lat="48.43967" lon="0.70593">
        <ele>124.460865</ele>
        <time>2021-09-07T07:14:06.000Z</time>
      </trkpt>
      <trkpt lat="48.43955" lon="0.70611">
        <ele>124.59443</ele>
        <time>2021-09-07T07:14:09.000Z</time>
      </trkpt>
      <trkpt lat="48.43948" lon="0.70617">
        <ele>124.656528</ele>
        <time>2021-09-07T07:14:11.000Z</time>
      </trkpt>
      <trkpt lat="48.43937" lon="0.70631">
        <ele>124.769457</ele>
        <time>2021-09-07T07:14:15.000Z</time>
      </trkpt>
      <trkpt lat="48.43915" lon="0.70664">
        <ele>125.019792</ele>
        <time>2021-09-07T07:14:21.000Z</time>
      </trkpt>
      <trkpt lat="48.43907" lon="0.70677">
        <ele>125.11007</ele>
        <time>2021-09-07T07:14:23.000Z</time>
      </trkpt>
      <trkpt lat="48.43896" lon="0.70696">
        <ele>125.243317</ele>
        <time>2021-09-07T07:14:26.000Z</time>
      </trkpt>
      <trkpt lat="48.43881" lon="0.70722">
        <ele>125.422831</ele>
        <time>2021-09-07T07:14:30.000Z</time>
      </trkpt>
      <trkpt lat="48.43853" lon="0.7077">
        <ele>125.744617</ele>
        <time>2021-09-07T07:14:37.000Z</time>
      </trkpt>
      <trkpt lat="48.43846" lon="0.70784">
        <ele>125.821816</ele>
        <time>2021-09-07T07:14:39.000Z</time>
      </trkpt>
      <trkpt lat="48.43839" lon="0.70798">
        <ele>125.899678</ele>
        <time>2021-09-07T07:14:41.000Z</time>
      </trkpt>
      <trkpt lat="48.43817" lon="0.70842">
        <ele>126.1409</ele>
        <time>2021-09-07T07:14:47.000Z</time>
      </trkpt>
      <trkpt lat="48.43792" lon="0.70895">
        <ele>126.426663</ele>
        <time>2021-09-07T07:14:54.000Z</time>
      </trkpt>
      <trkpt lat="48.43775" lon="0.70934">
        <ele>126.629429</ele>
        <time>2021-09-07T07:14:59.000Z</time>
      </trkpt>
      <trkpt lat="48.43754" lon="0.70991">
        <ele>126.853882</ele>
        <time>2021-09-07T07:15:06.000Z</time>
      </trkpt>
      <trkpt lat="48.43737" lon="0.71039">
        <ele>126.868454</ele>
        <time>2021-09-07T07:15:12.000Z</time>
      </trkpt>
      <trkpt lat="48.43722" lon="0.71086">
        <ele>126.882536</ele>
        <time>2021-09-07T07:15:18.000Z</time>
      </trkpt>
      <trkpt lat="48.43708" lon="0.71136">
        <ele>126.897116</ele>
        <time>2021-09-07T07:15:24.000Z</time>
      </trkpt>
      <trkpt lat="48.43695" lon="0.71188">
        <ele>126.911974</ele>
        <time>2021-09-07T07:15:30.000Z</time>
      </trkpt>
      <trkpt lat="48.43686" lon="0.71228">
        <ele>126.914109</ele>
        <time>2021-09-07T07:15:35.000Z</time>
      </trkpt>
      <trkpt lat="48.4368" lon="0.71254">
        <ele>126.843029</ele>
        <time>2021-09-07T07:15:38.000Z</time>
      </trkpt>
      <trkpt lat="48.43676" lon="0.71279">
        <ele>126.774898</ele>
        <time>2021-09-07T07:15:41.000Z</time>
      </trkpt>
      <trkpt lat="48.43668" lon="0.71332">
        <ele>126.628732</ele>
        <time>2021-09-07T07:15:47.000Z</time>
      </trkpt>
      <trkpt lat="48.43667" lon="0.71341">
        <ele>126.604168</ele>
        <time>2021-09-07T07:15:48.000Z</time>
      </trkpt>
      <trkpt lat="48.43666" lon="0.7135">
        <ele>126.58143</ele>
        <time>2021-09-07T07:15:49.000Z</time>
      </trkpt>
      <trkpt lat="48.43662" lon="0.71376">
        <ele>126.510814</ele>
        <time>2021-09-07T07:15:52.000Z</time>
      </trkpt>
      <trkpt lat="48.43656" lon="0.7142">
        <ele>126.391864</ele>
        <time>2021-09-07T07:15:57.000Z</time>
      </trkpt>
      <trkpt lat="48.43654" lon="0.71437">
        <ele>126.344302</ele>
        <time>2021-09-07T07:15:59.000Z</time>
      </trkpt>
      <trkpt lat="48.43651" lon="0.71455">
        <ele>126.296926</ele>
        <time>2021-09-07T07:16:01.000Z</time>
      </trkpt>
      <trkpt lat="48.43647" lon="0.71488">
        <ele>126.207718</ele>
        <time>2021-09-07T07:16:05.000Z</time>
      </trkpt>
      <trkpt lat="48.43643" lon="0.71522">
        <ele>126.366239</ele>
        <time>2021-09-07T07:16:09.000Z</time>
      </trkpt>
      <trkpt lat="48.4364" lon="0.7154">
        <ele>126.453461</ele>
        <time>2021-09-07T07:16:11.000Z</time>
      </trkpt>
      <trkpt lat="48.43637" lon="0.71563">
        <ele>126.572361</ele>
        <time>2021-09-07T07:16:14.000Z</time>
      </trkpt>
      <trkpt lat="48.43633" lon="0.71589">
        <ele>126.7007</ele>
        <time>2021-09-07T07:16:17.000Z</time>
      </trkpt>
      <trkpt lat="48.43631" lon="0.71605">
        <ele>126.781993</ele>
        <time>2021-09-07T07:16:19.000Z</time>
      </trkpt>
      <trkpt lat="48.43629" lon="0.7162">
        <ele>126.855436</ele>
        <time>2021-09-07T07:16:21.000Z</time>
      </trkpt>
      <trkpt lat="48.43628" lon="0.71633">
        <ele>126.923959</ele>
        <time>2021-09-07T07:16:23.000Z</time>
      </trkpt>
      <trkpt lat="48.43627" lon="0.7164">
        <ele>126.959161</ele>
        <time>2021-09-07T07:16:24.000Z</time>
      </trkpt>
      <trkpt lat="48.43624" lon="0.71657">
        <ele>127.043645</ele>
        <time>2021-09-07T07:16:26.000Z</time>
      </trkpt>
      <trkpt lat="48.43616" lon="0.71719">
        <ele>127.352631</ele>
        <time>2021-09-07T07:16:34.000Z</time>
      </trkpt>
      <trkpt lat="48.43614" lon="0.71733">
        <ele>127.426884</ele>
        <time>2021-09-07T07:16:36.000Z</time>
      </trkpt>
      <trkpt lat="48.43612" lon="0.71748">
        <ele>127.499147</ele>
        <time>2021-09-07T07:16:38.000Z</time>
      </trkpt>
      <trkpt lat="48.43611" lon="0.71763">
        <ele>127.653186</ele>
        <time>2021-09-07T07:16:40.000Z</time>
      </trkpt>
      <trkpt lat="48.43608" lon="0.71785">
        <ele>127.999242</ele>
        <time>2021-09-07T07:16:43.000Z</time>
      </trkpt>
      <trkpt lat="48.43607" lon="0.71791">
        <ele>128.100504</ele>
        <time>2021-09-07T07:16:44.000Z</time>
      </trkpt>
      <trkpt lat="48.43604" lon="0.71811">
        <ele>128.423006</ele>
        <time>2021-09-07T07:16:47.000Z</time>
      </trkpt>
      <trkpt lat="48.43598" lon="0.71862">
        <ele>129.213481</ele>
        <time>2021-09-07T07:16:54.000Z</time>
      </trkpt>
      <trkpt lat="48.43592" lon="0.71894">
        <ele>129.733422</ele>
        <time>2021-09-07T07:16:59.000Z</time>
      </trkpt>
      <trkpt lat="48.43588" lon="0.71931">
        <ele>130.313557</ele>
        <time>2021-09-07T07:17:04.000Z</time>
      </trkpt>
      <trkpt lat="48.43585" lon="0.71953">
        <ele>130.662833</ele>
        <time>2021-09-07T07:17:07.000Z</time>
      </trkpt>
      <trkpt lat="48.43583" lon="0.71976">
        <ele>131.021663</ele>
        <time>2021-09-07T07:17:10.000Z</time>
      </trkpt>
      <trkpt lat="48.43577" lon="0.72021">
        <ele>131.730991</ele>
        <time>2021-09-07T07:17:16.000Z</time>
      </trkpt>
      <trkpt lat="48.43573" lon="0.72048">
        <ele>131.907198</ele>
        <time>2021-09-07T07:17:20.000Z</time>
      </trkpt>
      <trkpt lat="48.43572" lon="0.72054">
        <ele>131.94813</ele>
        <time>2021-09-07T07:17:21.000Z</time>
      </trkpt>
      <trkpt lat="48.43568" lon="0.7208">
        <ele>132.121138</ele>
        <time>2021-09-07T07:17:25.000Z</time>
      </trkpt>
      <trkpt lat="48.43566" lon="0.72093">
        <ele>132.207435</ele>
        <time>2021-09-07T07:17:27.000Z</time>
      </trkpt>
      <trkpt lat="48.43561" lon="0.72132">
        <ele>132.46928</ele>
        <time>2021-09-07T07:17:33.000Z</time>
      </trkpt>
      <trkpt lat="48.43554" lon="0.72172">
        <ele>132.737501</ele>
        <time>2021-09-07T07:17:39.000Z</time>
      </trkpt>
      <trkpt lat="48.43553" lon="0.72178">
        <ele>132.780568</ele>
        <time>2021-09-07T07:17:40.000Z</time>
      </trkpt>
      <trkpt lat="48.43549" lon="0.72202">
        <ele>132.941951</ele>
        <time>2021-09-07T07:17:43.000Z</time>
      </trkpt>
      <trkpt lat="48.43547" lon="0.72218">
        <ele>133.047994</ele>
        <time>2021-09-07T07:17:45.000Z</time>
      </trkpt>
      <trkpt lat="48.43542" lon="0.72251">
        <ele>133.266374</ele>
        <time>2021-09-07T07:17:49.000Z</time>
      </trkpt>
      <trkpt lat="48.43536" lon="0.72287">
        <ele>133.498548</ele>
        <time>2021-09-07T07:17:54.000Z</time>
      </trkpt>
      <trkpt lat="48.43527" lon="0.72342">
        <ele>133.536036</ele>
        <time>2021-09-07T07:18:01.000Z</time>
      </trkpt>
      <trkpt lat="48.4352" lon="0.72384">
        <ele>133.564864</ele>
        <time>2021-09-07T07:18:06.000Z</time>
      </trkpt>
      <trkpt lat="48.43509" lon="0.72436">
        <ele>133.601168</ele>
        <time>2021-09-07T07:18:12.000Z</time>
      </trkpt>
      <trkpt lat="48.43497" lon="0.72496">
        <ele>133.642958</ele>
        <time>2021-09-07T07:18:19.000Z</time>
      </trkpt>
      <trkpt lat="48.43489" lon="0.7254">
        <ele>133.673728</ele>
        <time>2021-09-07T07:18:24.000Z</time>
      </trkpt>
      <trkpt lat="48.43483" lon="0.72566">
        <ele>133.674066</ele>
        <time>2021-09-07T07:18:27.000Z</time>
      </trkpt>
      <trkpt lat="48.43479" lon="0.72583">
        <ele>133.670667</ele>
        <time>2021-09-07T07:18:29.000Z</time>
      </trkpt>
      <trkpt lat="48.43469" lon="0.72633">
        <ele>133.660521</ele>
        <time>2021-09-07T07:18:35.000Z</time>
      </trkpt>
      <trkpt lat="48.43465" lon="0.72652">
        <ele>133.656678</ele>
        <time>2021-09-07T07:18:37.000Z</time>
      </trkpt>
      <trkpt lat="48.43459" lon="0.72678">
        <ele>133.651294</ele>
        <time>2021-09-07T07:18:40.000Z</time>
      </trkpt>
      <trkpt lat="48.43452" lon="0.72712">
        <ele>133.644276</ele>
        <time>2021-09-07T07:18:44.000Z</time>
      </trkpt>
      <trkpt lat="48.43449" lon="0.72729">
        <ele>133.640882</ele>
        <time>2021-09-07T07:18:46.000Z</time>
      </trkpt>
      <trkpt lat="48.43439" lon="0.72772">
        <ele>133.632292</ele>
        <time>2021-09-07T07:18:51.000Z</time>
      </trkpt>
      <trkpt lat="48.43434" lon="0.72796">
        <ele>133.627286</ele>
        <time>2021-09-07T07:18:54.000Z</time>
      </trkpt>
      <trkpt lat="48.4343" lon="0.72814">
        <ele>133.62444</ele>
        <time>2021-09-07T07:18:56.000Z</time>
      </trkpt>
      <trkpt lat="48.43417" lon="0.72876">
        <ele>133.616756</ele>
        <time>2021-09-07T07:19:03.000Z</time>
      </trkpt>
      <trkpt lat="48.43408" lon="0.72918">
        <ele>133.611524</ele>
        <time>2021-09-07T07:19:08.000Z</time>
      </trkpt>
      <trkpt lat="48.43403" lon="0.72941">
        <ele>133.608607</ele>
        <time>2021-09-07T07:19:11.000Z</time>
      </trkpt>
      <trkpt lat="48.43386" lon="0.7302">
        <ele>133.598825</ele>
        <time>2021-09-07T07:19:20.000Z</time>
      </trkpt>
      <trkpt lat="48.43373" lon="0.73081">
        <ele>133.54521</ele>
        <time>2021-09-07T07:19:27.000Z</time>
      </trkpt>
      <trkpt lat="48.43365" lon="0.73123">
        <ele>133.433715</ele>
        <time>2021-09-07T07:19:32.000Z</time>
      </trkpt>
      <trkpt lat="48.43356" lon="0.73165">
        <ele>133.324832</ele>
        <time>2021-09-07T07:19:37.000Z</time>
      </trkpt>
      <trkpt lat="48.43346" lon="0.73206">
        <ele>133.214962</ele>
        <time>2021-09-07T07:19:42.000Z</time>
      </trkpt>
      <trkpt lat="48.43334" lon="0.73246">
        <ele>133.106062</ele>
        <time>2021-09-07T07:19:47.000Z</time>
      </trkpt>
      <trkpt lat="48.43332" lon="0.73253">
        <ele>133.084911</ele>
        <time>2021-09-07T07:19:48.000Z</time>
      </trkpt>
      <trkpt lat="48.43328" lon="0.7327">
        <ele>133.041032</ele>
        <time>2021-09-07T07:19:50.000Z</time>
      </trkpt>
      <trkpt lat="48.43316" lon="0.73311">
        <ele>132.929744</ele>
        <time>2021-09-07T07:19:55.000Z</time>
      </trkpt>
      <trkpt lat="48.43312" lon="0.73326">
        <ele>132.927341</ele>
        <time>2021-09-07T07:19:57.000Z</time>
      </trkpt>
      <trkpt lat="48.43307" lon="0.73338">
        <ele>132.942152</ele>
        <time>2021-09-07T07:19:59.000Z</time>
      </trkpt>
      <trkpt lat="48.43299" lon="0.73357">
        <ele>132.965964</ele>
        <time>2021-09-07T07:20:02.000Z</time>
      </trkpt>
      <trkpt lat="48.43295" lon="0.73372">
        <ele>132.983278</ele>
        <time>2021-09-07T07:20:04.000Z</time>
      </trkpt>
      <trkpt lat="48.43287" lon="0.73386">
        <ele>133.002269</ele>
        <time>2021-09-07T07:20:06.000Z</time>
      </trkpt>
      <trkpt lat="48.43285" lon="0.73393">
        <ele>133.011237</ele>
        <time>2021-09-07T07:20:07.000Z</time>
      </trkpt>
      <trkpt lat="48.43282" lon="0.734">
        <ele>133.020369</ele>
        <time>2021-09-07T07:20:08.000Z</time>
      </trkpt>
      <trkpt lat="48.43273" lon="0.73422">
        <ele>133.04696</ele>
        <time>2021-09-07T07:20:11.000Z</time>
      </trkpt>
      <trkpt lat="48.43257" lon="0.73458">
        <ele>133.09322</ele>
        <time>2021-09-07T07:20:16.000Z</time>
      </trkpt>
      <trkpt lat="48.43238" lon="0.73502">
        <ele>133.149061</ele>
        <time>2021-09-07T07:20:22.000Z</time>
      </trkpt>
      <trkpt lat="48.43224" lon="0.73531">
        <ele>133.187177</ele>
        <time>2021-09-07T07:20:26.000Z</time>
      </trkpt>
      <trkpt lat="48.43207" lon="0.73565">
        <ele>133.233585</ele>
        <time>2021-09-07T07:20:31.000Z</time>
      </trkpt>
      <trkpt lat="48.43192" lon="0.73593">
        <ele>133.272725</ele>
        <time>2021-09-07T07:20:35.000Z</time>
      </trkpt>
      <trkpt lat="48.43185" lon="0.73605">
        <ele>133.290519</ele>
        <time>2021-09-07T07:20:37.000Z</time>
      </trkpt>
      <trkpt lat="48.43166" lon="0.73637">
        <ele>133.337236</ele>
        <time>2021-09-07T07:20:42.000Z</time>
      </trkpt>
      <trkpt lat="48.43149" lon="0.73669">
        <ele>133.382327</ele>
        <time>2021-09-07T07:20:47.000Z</time>
      </trkpt>
      <trkpt lat="48.43133" lon="0.737">
        <ele>133.425133</ele>
        <time>2021-09-07T07:20:52.000Z</time>
      </trkpt>
      <trkpt lat="48.43129" lon="0.73706">
        <ele>133.434417</ele>
        <time>2021-09-07T07:20:53.000Z</time>
      </trkpt>
      <trkpt lat="48.43115" lon="0.73733">
        <ele>133.47265</ele>
        <time>2021-09-07T07:20:57.000Z</time>
      </trkpt>
      <trkpt lat="48.43091" lon="0.73775">
        <ele>133.502318</ele>
        <time>2021-09-07T07:21:03.000Z</time>
      </trkpt>
      <trkpt lat="48.43078" lon="0.73803">
        <ele>133.503803</ele>
        <time>2021-09-07T07:21:07.000Z</time>
      </trkpt>
      <trkpt lat="48.43071" lon="0.73816">
        <ele>133.504568</ele>
        <time>2021-09-07T07:21:09.000Z</time>
      </trkpt>
      <trkpt lat="48.4304" lon="0.73862">
        <ele>133.50741</ele>
        <time>2021-09-07T07:21:16.000Z</time>
      </trkpt>
      <trkpt lat="48.43014" lon="0.73898">
        <ele>133.509769</ele>
        <time>2021-09-07T07:21:22.000Z</time>
      </trkpt>
      <trkpt lat="48.43006" lon="0.73908">
        <ele>133.51047</ele>
        <time>2021-09-07T07:21:24.000Z</time>
      </trkpt>
      <trkpt lat="48.42998" lon="0.73921">
        <ele>133.51122</ele>
        <time>2021-09-07T07:21:26.000Z</time>
      </trkpt>
      <trkpt lat="48.42993" lon="0.73927">
        <ele>133.51162</ele>
        <time>2021-09-07T07:21:27.000Z</time>
      </trkpt>
      <trkpt lat="48.42974" lon="0.73949">
        <ele>133.534659</ele>
        <time>2021-09-07T07:21:31.000Z</time>
      </trkpt>
      <trkpt lat="48.42946" lon="0.73982">
        <ele>133.72782</ele>
        <time>2021-09-07T07:21:37.000Z</time>
      </trkpt>
      <trkpt lat="48.42918" lon="0.74015">
        <ele>133.917345</ele>
        <time>2021-09-07T07:21:43.000Z</time>
      </trkpt>
      <trkpt lat="48.42887" lon="0.74055">
        <ele>134.140209</ele>
        <time>2021-09-07T07:21:50.000Z</time>
      </trkpt>
      <trkpt lat="48.4286" lon="0.74091">
        <ele>134.331855</ele>
        <time>2021-09-07T07:21:56.000Z</time>
      </trkpt>
      <trkpt lat="48.42839" lon="0.74122">
        <ele>134.495275</ele>
        <time>2021-09-07T07:22:01.000Z</time>
      </trkpt>
      <trkpt lat="48.42819" lon="0.74153">
        <ele>134.70913</ele>
        <time>2021-09-07T07:22:06.000Z</time>
      </trkpt>
      <trkpt lat="48.42815" lon="0.74158">
        <ele>134.748191</ele>
        <time>2021-09-07T07:22:07.000Z</time>
      </trkpt>
      <trkpt lat="48.42794" lon="0.74196">
        <ele>134.996382</ele>
        <time>2021-09-07T07:22:13.000Z</time>
      </trkpt>
      <trkpt lat="48.42784" lon="0.74213">
        <ele>135.110432</ele>
        <time>2021-09-07T07:22:16.000Z</time>
      </trkpt>
      <trkpt lat="48.42781" lon="0.74219">
        <ele>135.147042</ele>
        <time>2021-09-07T07:22:17.000Z</time>
      </trkpt>
      <trkpt lat="48.42763" lon="0.74261">
        <ele>135.396392</ele>
        <time>2021-09-07T07:22:23.000Z</time>
      </trkpt>
      <trkpt lat="48.42751" lon="0.74289">
        <ele>135.562225</ele>
        <time>2021-09-07T07:22:27.000Z</time>
      </trkpt>
      <trkpt lat="48.42742" lon="0.74311">
        <ele>135.688244</ele>
        <time>2021-09-07T07:22:30.000Z</time>
      </trkpt>
      <trkpt lat="48.42736" lon="0.74325">
        <ele>135.769695</ele>
        <time>2021-09-07T07:22:32.000Z</time>
      </trkpt>
      <trkpt lat="48.42731" lon="0.74337">
        <ele>135.835351</ele>
        <time>2021-09-07T07:22:34.000Z</time>
      </trkpt>
      <trkpt lat="48.42725" lon="0.74352">
        <ele>135.856251</ele>
        <time>2021-09-07T07:22:36.000Z</time>
      </trkpt>
      <trkpt lat="48.42711" lon="0.74389">
        <ele>135.909933</ele>
        <time>2021-09-07T07:22:41.000Z</time>
      </trkpt>
      <trkpt lat="48.42708" lon="0.74395">
        <ele>135.919178</ele>
        <time>2021-09-07T07:22:42.000Z</time>
      </trkpt>
      <trkpt lat="48.42695" lon="0.74432">
        <ele>135.970761</ele>
        <time>2021-09-07T07:22:47.000Z</time>
      </trkpt>
      <trkpt lat="48.42694" lon="0.74439">
        <ele>135.979958</ele>
        <time>2021-09-07T07:22:48.000Z</time>
      </trkpt>
      <trkpt lat="48.42687" lon="0.7446">
        <ele>136.008418</ele>
        <time>2021-09-07T07:22:51.000Z</time>
      </trkpt>
      <trkpt lat="48.42679" lon="0.74493">
        <ele>136.053308</ele>
        <time>2021-09-07T07:22:56.000Z</time>
      </trkpt>
      <trkpt lat="48.42667" lon="0.74536">
        <ele>136.110705</ele>
        <time>2021-09-07T07:23:01.000Z</time>
      </trkpt>
      <trkpt lat="48.4266" lon="0.74564">
        <ele>136.148169</ele>
        <time>2021-09-07T07:23:04.000Z</time>
      </trkpt>
      <trkpt lat="48.42657" lon="0.74581">
        <ele>136.172281</ele>
        <time>2021-09-07T07:23:06.000Z</time>
      </trkpt>
      <trkpt lat="48.42652" lon="0.74597">
        <ele>136.239759</ele>
        <time>2021-09-07T07:23:08.000Z</time>
      </trkpt>
      <trkpt lat="48.42648" lon="0.74611">
        <ele>136.301256</ele>
        <time>2021-09-07T07:23:10.000Z</time>
      </trkpt>
      <trkpt lat="48.42637" lon="0.74652">
        <ele>136.474744</ele>
        <time>2021-09-07T07:23:15.000Z</time>
      </trkpt>
      <trkpt lat="48.42631" lon="0.74678">
        <ele>136.57999</ele>
        <time>2021-09-07T07:23:18.000Z</time>
      </trkpt>
      <trkpt lat="48.42627" lon="0.74694">
        <ele>136.650002</ele>
        <time>2021-09-07T07:23:20.000Z</time>
      </trkpt>
      <trkpt lat="48.42621" lon="0.74711">
        <ele>136.724072</ele>
        <time>2021-09-07T07:23:22.000Z</time>
      </trkpt>
      <trkpt lat="48.42614" lon="0.74739">
        <ele>136.841575</ele>
        <time>2021-09-07T07:23:25.000Z</time>
      </trkpt>
      <trkpt lat="48.42599" lon="0.74796">
        <ele>137.084853</ele>
        <time>2021-09-07T07:23:31.000Z</time>
      </trkpt>
      <trkpt lat="48.42592" lon="0.74826">
        <ele>137.207777</ele>
        <time>2021-09-07T07:23:34.000Z</time>
      </trkpt>
      <trkpt lat="48.4259" lon="0.74836">
        <ele>137.246694</ele>
        <time>2021-09-07T07:23:35.000Z</time>
      </trkpt>
      <trkpt lat="48.42587" lon="0.74856">
        <ele>137.320228</ele>
        <time>2021-09-07T07:23:37.000Z</time>
      </trkpt>
      <trkpt lat="48.42583" lon="0.74877">
        <ele>137.396617</ele>
        <time>2021-09-07T07:23:39.000Z</time>
      </trkpt>
      <trkpt lat="48.42575" lon="0.74918">
        <ele>137.544994</ele>
        <time>2021-09-07T07:23:43.000Z</time>
      </trkpt>
      <trkpt lat="48.42566" lon="0.74969">
        <ele>137.732161</ele>
        <time>2021-09-07T07:23:48.000Z</time>
      </trkpt>
      <trkpt lat="48.42564" lon="0.74979">
        <ele>137.769746</ele>
        <time>2021-09-07T07:23:49.000Z</time>
      </trkpt>
      <trkpt lat="48.42556" lon="0.75041">
        <ele>137.991216</ele>
        <time>2021-09-07T07:23:55.000Z</time>
      </trkpt>
      <trkpt lat="48.42551" lon="0.75084">
        <ele>138.142528</ele>
        <time>2021-09-07T07:23:59.000Z</time>
      </trkpt>
      <trkpt lat="48.42547" lon="0.75115">
        <ele>138.070923</ele>
        <time>2021-09-07T07:24:02.000Z</time>
      </trkpt>
      <trkpt lat="48.42544" lon="0.75156">
        <ele>137.826886</ele>
        <time>2021-09-07T07:24:06.000Z</time>
      </trkpt>
      <trkpt lat="48.42536" lon="0.75214">
        <ele>137.476473</ele>
        <time>2021-09-07T07:24:11.000Z</time>
      </trkpt>
      <trkpt lat="48.42533" lon="0.75246">
        <ele>137.285543</ele>
        <time>2021-09-07T07:24:14.000Z</time>
      </trkpt>
      <trkpt lat="48.4253" lon="0.75266">
        <ele>137.161497</ele>
        <time>2021-09-07T07:24:16.000Z</time>
      </trkpt>
      <trkpt lat="48.42523" lon="0.75315">
        <ele>136.870218</ele>
        <time>2021-09-07T07:24:21.000Z</time>
      </trkpt>
      <trkpt lat="48.42523" lon="0.75324">
        <ele>136.818686</ele>
        <time>2021-09-07T07:24:22.000Z</time>
      </trkpt>
      <trkpt lat="48.42525" lon="0.75349">
        <ele>136.66882</ele>
        <time>2021-09-07T07:24:25.000Z</time>
      </trkpt>
      <trkpt lat="48.4252" lon="0.75365">
        <ele>136.548011</ele>
        <time>2021-09-07T07:24:28.000Z</time>
      </trkpt>
      <trkpt lat="48.42517" lon="0.75377">
        <ele>136.406368</ele>
        <time>2021-09-07T07:24:30.000Z</time>
      </trkpt>
      <trkpt lat="48.42513" lon="0.75402">
        <ele>136.148733</ele>
        <time>2021-09-07T07:24:33.000Z</time>
      </trkpt>
      <trkpt lat="48.42509" lon="0.75447">
        <ele>135.670449</ele>
        <time>2021-09-07T07:24:38.000Z</time>
      </trkpt>
      <trkpt lat="48.42502" lon="0.75507">
        <ele>135.02752</ele>
        <time>2021-09-07T07:24:44.000Z</time>
      </trkpt>
      <trkpt lat="48.42501" lon="0.75517">
        <ele>134.920966</ele>
        <time>2021-09-07T07:24:45.000Z</time>
      </trkpt>
      <trkpt lat="48.42494" lon="0.75578">
        <ele>134.276223</ele>
        <time>2021-09-07T07:24:51.000Z</time>
      </trkpt>
      <trkpt lat="48.42488" lon="0.75631">
        <ele>133.716518</ele>
        <time>2021-09-07T07:24:57.000Z</time>
      </trkpt>
      <trkpt lat="48.42486" lon="0.75645">
        <ele>133.577953</ele>
        <time>2021-09-07T07:24:59.000Z</time>
      </trkpt>
      <trkpt lat="48.42484" lon="0.75668">
        <ele>133.355388</ele>
        <time>2021-09-07T07:25:02.000Z</time>
      </trkpt>
      <trkpt lat="48.42484" lon="0.75693">
        <ele>133.109188</ele>
        <time>2021-09-07T07:25:06.000Z</time>
      </trkpt>
      <trkpt lat="48.42485" lon="0.75694">
        <ele>133.094567</ele>
        <time>2021-09-07T07:25:08.000Z</time>
      </trkpt>
      <trkpt lat="48.42484" lon="0.75696">
        <ele>133.070969</ele>
        <time>2021-09-07T07:25:30.000Z</time>
      </trkpt>
      <trkpt lat="48.4248" lon="0.75713">
        <ele>132.901487</ele>
        <time>2021-09-07T07:25:34.000Z</time>
      </trkpt>
      <trkpt lat="48.42479" lon="0.75718">
        <ele>132.845588</ele>
        <time>2021-09-07T07:25:35.000Z</time>
      </trkpt>
      <trkpt lat="48.42477" lon="0.75732">
        <ele>132.706533</ele>
        <time>2021-09-07T07:25:37.000Z</time>
      </trkpt>
      <trkpt lat="48.42477" lon="0.7574">
        <ele>132.626081</ele>
        <time>2021-09-07T07:25:38.000Z</time>
      </trkpt>
      <trkpt lat="48.42471" lon="0.75802">
        <ele>132.021629</ele>
        <time>2021-09-07T07:25:45.000Z</time>
      </trkpt>
      <trkpt lat="48.42466" lon="0.75868">
        <ele>131.377821</ele>
        <time>2021-09-07T07:25:52.000Z</time>
      </trkpt>
      <trkpt lat="48.42465" lon="0.75876">
        <ele>131.290768</ele>
        <time>2021-09-07T07:25:53.000Z</time>
      </trkpt>
      <trkpt lat="48.42461" lon="0.75922">
        <ele>130.95676</ele>
        <time>2021-09-07T07:25:58.000Z</time>
      </trkpt>
      <trkpt lat="48.42459" lon="0.7597">
        <ele>130.688728</ele>
        <time>2021-09-07T07:26:03.000Z</time>
      </trkpt>
      <trkpt lat="48.42458" lon="0.7601">
        <ele>130.464181</ele>
        <time>2021-09-07T07:26:07.000Z</time>
      </trkpt>
      <trkpt lat="48.42456" lon="0.76075">
        <ele>130.095398</ele>
        <time>2021-09-07T07:26:13.000Z</time>
      </trkpt>
      <trkpt lat="48.42455" lon="0.76128">
        <ele>129.797594</ele>
        <time>2021-09-07T07:26:18.000Z</time>
      </trkpt>
      <trkpt lat="48.42453" lon="0.76193">
        <ele>129.427455</ele>
        <time>2021-09-07T07:26:24.000Z</time>
      </trkpt>
      <trkpt lat="48.42453" lon="0.76247">
        <ele>129.121905</ele>
        <time>2021-09-07T07:26:29.000Z</time>
      </trkpt>
      <trkpt lat="48.42453" lon="0.76267">
        <ele>129.002899</ele>
        <time>2021-09-07T07:26:31.000Z</time>
      </trkpt>
      <trkpt lat="48.42452" lon="0.7629">
        <ele>128.875812</ele>
        <time>2021-09-07T07:26:33.000Z</time>
      </trkpt>
      <trkpt lat="48.42452" lon="0.76335">
        <ele>128.617766</ele>
        <time>2021-09-07T07:26:37.000Z</time>
      </trkpt>
      <trkpt lat="48.42452" lon="0.76387">
        <ele>128.316252</ele>
        <time>2021-09-07T07:26:42.000Z</time>
      </trkpt>
      <trkpt lat="48.42453" lon="0.76441">
        <ele>128.010929</ele>
        <time>2021-09-07T07:26:47.000Z</time>
      </trkpt>
      <trkpt lat="48.42453" lon="0.76505">
        <ele>127.692705</ele>
        <time>2021-09-07T07:26:53.000Z</time>
      </trkpt>
      <trkpt lat="48.42452" lon="0.76574">
        <ele>127.346381</ele>
        <time>2021-09-07T07:27:00.000Z</time>
      </trkpt>
      <trkpt lat="48.42449" lon="0.76619">
        <ele>127.120308</ele>
        <time>2021-09-07T07:27:05.000Z</time>
      </trkpt>
      <trkpt lat="48.4245" lon="0.76637">
        <ele>127.029574</ele>
        <time>2021-09-07T07:27:07.000Z</time>
      </trkpt>
      <trkpt lat="48.42447" lon="0.76681">
        <ele>126.808987</ele>
        <time>2021-09-07T07:27:12.000Z</time>
      </trkpt>
      <trkpt lat="48.42445" lon="0.76741">
        <ele>126.583099</ele>
        <time>2021-09-07T07:27:19.000Z</time>
      </trkpt>
      <trkpt lat="48.42444" lon="0.76784">
        <ele>126.461</ele>
        <time>2021-09-07T07:27:25.000Z</time>
      </trkpt>
      <trkpt lat="48.42444" lon="0.76797">
        <ele>126.425992</ele>
        <time>2021-09-07T07:27:29.000Z</time>
      </trkpt>
      <trkpt lat="48.42443" lon="0.76817">
        <ele>126.367455</ele>
        <time>2021-09-07T07:27:35.000Z</time>
      </trkpt>
      <trkpt lat="48.42443" lon="0.76824">
        <ele>126.349407</ele>
        <time>2021-09-07T07:27:36.000Z</time>
      </trkpt>
      <trkpt lat="48.42442" lon="0.76855">
        <ele>126.261772</ele>
        <time>2021-09-07T07:27:40.000Z</time>
      </trkpt>
      <trkpt lat="48.42438" lon="0.76914">
        <ele>126.096012</ele>
        <time>2021-09-07T07:27:47.000Z</time>
      </trkpt>
      <trkpt lat="48.42434" lon="0.76957">
        <ele>125.971805</ele>
        <time>2021-09-07T07:27:52.000Z</time>
      </trkpt>
      <trkpt lat="48.42432" lon="0.76975">
        <ele>125.921344</ele>
        <time>2021-09-07T07:27:54.000Z</time>
      </trkpt>
      <trkpt lat="48.42427" lon="0.77002">
        <ele>125.841544</ele>
        <time>2021-09-07T07:27:57.000Z</time>
      </trkpt>
      <trkpt lat="48.42414" lon="0.77076">
        <ele>125.624224</ele>
        <time>2021-09-07T07:28:05.000Z</time>
      </trkpt>
      <trkpt lat="48.42407" lon="0.77112">
        <ele>125.519877</ele>
        <time>2021-09-07T07:28:09.000Z</time>
      </trkpt>
      <trkpt lat="48.42398" lon="0.77166">
        <ele>125.36167</ele>
        <time>2021-09-07T07:28:15.000Z</time>
      </trkpt>
      <trkpt lat="48.42391" lon="0.77211">
        <ele>125.229755</ele>
        <time>2021-09-07T07:28:20.000Z</time>
      </trkpt>
      <trkpt lat="48.42385" lon="0.77254">
        <ele>125.117119</ele>
        <time>2021-09-07T07:28:25.000Z</time>
      </trkpt>
      <trkpt lat="48.42384" lon="0.77262">
        <ele>125.101237</ele>
        <time>2021-09-07T07:28:26.000Z</time>
      </trkpt>
      <trkpt lat="48.42379" lon="0.77286">
        <ele>125.04989</ele>
        <time>2021-09-07T07:28:29.000Z</time>
      </trkpt>
      <trkpt lat="48.4237" lon="0.77339">
        <ele>124.934622</ele>
        <time>2021-09-07T07:28:35.000Z</time>
      </trkpt>
      <trkpt lat="48.42368" lon="0.77347">
        <ele>124.916401</ele>
        <time>2021-09-07T07:28:36.000Z</time>
      </trkpt>
      <trkpt lat="48.42364" lon="0.77373">
        <ele>124.861265</ele>
        <time>2021-09-07T07:28:39.000Z</time>
      </trkpt>
      <trkpt lat="48.42363" lon="0.77382">
        <ele>124.841653</ele>
        <time>2021-09-07T07:28:40.000Z</time>
      </trkpt>
      <trkpt lat="48.42358" lon="0.7741">
        <ele>124.781598</ele>
        <time>2021-09-07T07:28:43.000Z</time>
      </trkpt>
      <trkpt lat="48.4235" lon="0.77445">
        <ele>124.703978</ele>
        <time>2021-09-07T07:28:47.000Z</time>
      </trkpt>
      <trkpt lat="48.42346" lon="0.77462">
        <ele>124.666937</ele>
        <time>2021-09-07T07:28:49.000Z</time>
      </trkpt>
      <trkpt lat="48.42341" lon="0.77487">
        <ele>124.611721</ele>
        <time>2021-09-07T07:28:52.000Z</time>
      </trkpt>
      <trkpt lat="48.42331" lon="0.77533">
        <ele>124.30942</ele>
        <time>2021-09-07T07:28:57.000Z</time>
      </trkpt>
      <trkpt lat="48.42328" lon="0.77541">
        <ele>124.239549</ele>
        <time>2021-09-07T07:28:58.000Z</time>
      </trkpt>
      <trkpt lat="48.42316" lon="0.77583">
        <ele>123.891138</ele>
        <time>2021-09-07T07:29:03.000Z</time>
      </trkpt>
      <trkpt lat="48.42314" lon="0.77592">
        <ele>123.81726</ele>
        <time>2021-09-07T07:29:04.000Z</time>
      </trkpt>
      <trkpt lat="48.42306" lon="0.77624">
        <ele>123.550212</ele>
        <time>2021-09-07T07:29:08.000Z</time>
      </trkpt>
      <trkpt lat="48.42301" lon="0.77639">
        <ele>123.415376</ele>
        <time>2021-09-07T07:29:10.000Z</time>
      </trkpt>
      <trkpt lat="48.42293" lon="0.77664">
        <ele>123.208572</ele>
        <time>2021-09-07T07:29:13.000Z</time>
      </trkpt>
      <trkpt lat="48.42288" lon="0.77681">
        <ele>123.06152</ele>
        <time>2021-09-07T07:29:15.000Z</time>
      </trkpt>
      <trkpt lat="48.42281" lon="0.77707">
        <ele>122.842928</ele>
        <time>2021-09-07T07:29:18.000Z</time>
      </trkpt>
      <trkpt lat="48.42268" lon="0.77747">
        <ele>122.505368</ele>
        <time>2021-09-07T07:29:23.000Z</time>
      </trkpt>
      <trkpt lat="48.42258" lon="0.77785">
        <ele>122.316794</ele>
        <time>2021-09-07T07:29:28.000Z</time>
      </trkpt>
      <trkpt lat="48.42251" lon="0.77808">
        <ele>122.210744</ele>
        <time>2021-09-07T07:29:31.000Z</time>
      </trkpt>
      <trkpt lat="48.42247" lon="0.77821">
        <ele>122.147059</ele>
        <time>2021-09-07T07:29:33.000Z</time>
      </trkpt>
      <trkpt lat="48.42244" lon="0.77828">
        <ele>122.112274</ele>
        <time>2021-09-07T07:29:34.000Z</time>
      </trkpt>
      <trkpt lat="48.42239" lon="0.77845">
        <ele>122.033295</ele>
        <time>2021-09-07T07:29:36.000Z</time>
      </trkpt>
      <trkpt lat="48.4223" lon="0.77879">
        <ele>121.874008</ele>
        <time>2021-09-07T07:29:40.000Z</time>
      </trkpt>
      <trkpt lat="48.42213" lon="0.77932">
        <ele>121.626656</ele>
        <time>2021-09-07T07:29:46.000Z</time>
      </trkpt>
      <trkpt lat="48.42198" lon="0.77981">
        <ele>121.392923</ele>
        <time>2021-09-07T07:29:52.000Z</time>
      </trkpt>
      <trkpt lat="48.42193" lon="0.77996">
        <ele>121.326379</ele>
        <time>2021-09-07T07:29:54.000Z</time>
      </trkpt>
      <trkpt lat="48.42189" lon="0.7801">
        <ele>121.405722</ele>
        <time>2021-09-07T07:29:56.000Z</time>
      </trkpt>
      <trkpt lat="48.42175" lon="0.7806">
        <ele>121.675165</ele>
        <time>2021-09-07T07:30:02.000Z</time>
      </trkpt>
      <trkpt lat="48.42172" lon="0.78068">
        <ele>121.718573</ele>
        <time>2021-09-07T07:30:03.000Z</time>
      </trkpt>
      <trkpt lat="48.42166" lon="0.78095">
        <ele>121.859166</ele>
        <time>2021-09-07T07:30:06.000Z</time>
      </trkpt>
      <trkpt lat="48.42153" lon="0.78157">
        <ele>122.180999</ele>
        <time>2021-09-07T07:30:13.000Z</time>
      </trkpt>
      <trkpt lat="48.42142" lon="0.78222">
        <ele>122.519214</ele>
        <time>2021-09-07T07:30:20.000Z</time>
      </trkpt>
      <trkpt lat="48.42138" lon="0.78248">
        <ele>122.64853</ele>
        <time>2021-09-07T07:30:23.000Z</time>
      </trkpt>
      <trkpt lat="48.42137" lon="0.78256">
        <ele>122.693839</ele>
        <time>2021-09-07T07:30:24.000Z</time>
      </trkpt>
      <trkpt lat="48.42131" lon="0.78285">
        <ele>122.87643</ele>
        <time>2021-09-07T07:30:28.000Z</time>
      </trkpt>
      <trkpt lat="48.4213" lon="0.78292">
        <ele>122.920326</ele>
        <time>2021-09-07T07:30:29.000Z</time>
      </trkpt>
      <trkpt lat="48.42128" lon="0.78306">
        <ele>123.009189</ele>
        <time>2021-09-07T07:30:31.000Z</time>
      </trkpt>
      <trkpt lat="48.42127" lon="0.78314">
        <ele>123.060612</ele>
        <time>2021-09-07T07:30:32.000Z</time>
      </trkpt>
      <trkpt lat="48.42119" lon="0.78354">
        <ele>123.310284</ele>
        <time>2021-09-07T07:30:37.000Z</time>
      </trkpt>
      <trkpt lat="48.42113" lon="0.78394">
        <ele>123.55723</ele>
        <time>2021-09-07T07:30:42.000Z</time>
      </trkpt>
      <trkpt lat="48.42105" lon="0.78434">
        <ele>123.810603</ele>
        <time>2021-09-07T07:30:47.000Z</time>
      </trkpt>
      <trkpt lat="48.42102" lon="0.78452">
        <ele>123.920105</ele>
        <time>2021-09-07T07:30:49.000Z</time>
      </trkpt>
      <trkpt lat="48.421" lon="0.78469">
        <ele>124.027546</ele>
        <time>2021-09-07T07:30:51.000Z</time>
      </trkpt>
      <trkpt lat="48.42098" lon="0.78477">
        <ele>124.079187</ele>
        <time>2021-09-07T07:30:52.000Z</time>
      </trkpt>
      <trkpt lat="48.42097" lon="0.78485">
        <ele>124.128394</ele>
        <time>2021-09-07T07:30:53.000Z</time>
      </trkpt>
      <trkpt lat="48.42092" lon="0.78512">
        <ele>124.295392</ele>
        <time>2021-09-07T07:30:56.000Z</time>
      </trkpt>
      <trkpt lat="48.42084" lon="0.78555">
        <ele>124.496226</ele>
        <time>2021-09-07T07:31:01.000Z</time>
      </trkpt>
      <trkpt lat="48.42082" lon="0.78563">
        <ele>124.531201</ele>
        <time>2021-09-07T07:31:02.000Z</time>
      </trkpt>
      <trkpt lat="48.42081" lon="0.78571">
        <ele>124.566377</ele>
        <time>2021-09-07T07:31:03.000Z</time>
      </trkpt>
      <trkpt lat="48.42076" lon="0.78595">
        <ele>124.674135</ele>
        <time>2021-09-07T07:31:06.000Z</time>
      </trkpt>
      <trkpt lat="48.42067" lon="0.78644">
        <ele>124.896663</ele>
        <time>2021-09-07T07:31:12.000Z</time>
      </trkpt>
      <trkpt lat="48.42056" lon="0.787">
        <ele>125.150404</ele>
        <time>2021-09-07T07:31:19.000Z</time>
      </trkpt>
      <trkpt lat="48.42047" lon="0.78755">
        <ele>125.39709</ele>
        <time>2021-09-07T07:31:26.000Z</time>
      </trkpt>
      <trkpt lat="48.42035" lon="0.78819">
        <ele>125.640305</ele>
        <time>2021-09-07T07:31:34.000Z</time>
      </trkpt>
      <trkpt lat="48.42032" lon="0.78835">
        <ele>125.696101</ele>
        <time>2021-09-07T07:31:36.000Z</time>
      </trkpt>
      <trkpt lat="48.42028" lon="0.7886">
        <ele>125.782255</ele>
        <time>2021-09-07T07:31:39.000Z</time>
      </trkpt>
      <trkpt lat="48.42021" lon="0.78901">
        <ele>125.927023</ele>
        <time>2021-09-07T07:31:44.000Z</time>
      </trkpt>
      <trkpt lat="48.42011" lon="0.78952">
        <ele>126.109064</ele>
        <time>2021-09-07T07:31:50.000Z</time>
      </trkpt>
      <trkpt lat="48.42008" lon="0.7897">
        <ele>126.17004</ele>
        <time>2021-09-07T07:31:52.000Z</time>
      </trkpt>
      <trkpt lat="48.42005" lon="0.78988">
        <ele>126.232865</ele>
        <time>2021-09-07T07:31:54.000Z</time>
      </trkpt>
      <trkpt lat="48.41995" lon="0.79044">
        <ele>126.412104</ele>
        <time>2021-09-07T07:32:00.000Z</time>
      </trkpt>
      <trkpt lat="48.41986" lon="0.7909">
        <ele>126.460146</ele>
        <time>2021-09-07T07:32:05.000Z</time>
      </trkpt>
      <trkpt lat="48.41982" lon="0.79109">
        <ele>126.47975</ele>
        <time>2021-09-07T07:32:07.000Z</time>
      </trkpt>
      <trkpt lat="48.41969" lon="0.79166">
        <ele>126.538875</ele>
        <time>2021-09-07T07:32:13.000Z</time>
      </trkpt>
      <trkpt lat="48.41966" lon="0.79176">
        <ele>126.54916</ele>
        <time>2021-09-07T07:32:14.000Z</time>
      </trkpt>
      <trkpt lat="48.41957" lon="0.79215">
        <ele>126.590148</ele>
        <time>2021-09-07T07:32:18.000Z</time>
      </trkpt>
      <trkpt lat="48.41939" lon="0.79284">
        <ele>126.663163</ele>
        <time>2021-09-07T07:32:25.000Z</time>
      </trkpt>
      <trkpt lat="48.41924" lon="0.79341">
        <ele>126.657191</ele>
        <time>2021-09-07T07:32:31.000Z</time>
      </trkpt>
      <trkpt lat="48.4192" lon="0.7936">
        <ele>126.651219</ele>
        <time>2021-09-07T07:32:33.000Z</time>
      </trkpt>
      <trkpt lat="48.41917" lon="0.79371">
        <ele>126.648046</ele>
        <time>2021-09-07T07:32:34.000Z</time>
      </trkpt>
      <trkpt lat="48.41912" lon="0.79391">
        <ele>126.641844</ele>
        <time>2021-09-07T07:32:36.000Z</time>
      </trkpt>
      <trkpt lat="48.41907" lon="0.79411">
        <ele>126.635527</ele>
        <time>2021-09-07T07:32:38.000Z</time>
      </trkpt>
      <trkpt lat="48.41889" lon="0.79482">
        <ele>126.613759</ele>
        <time>2021-09-07T07:32:45.000Z</time>
      </trkpt>
      <trkpt lat="48.41873" lon="0.79542">
        <ele>126.595115</ele>
        <time>2021-09-07T07:32:51.000Z</time>
      </trkpt>
      <trkpt lat="48.41857" lon="0.796">
        <ele>126.550519</ele>
        <time>2021-09-07T07:32:57.000Z</time>
      </trkpt>
      <trkpt lat="48.41844" lon="0.79645">
        <ele>126.514137</ele>
        <time>2021-09-07T07:33:02.000Z</time>
      </trkpt>
      <trkpt lat="48.41833" lon="0.79688">
        <ele>126.480055</ele>
        <time>2021-09-07T07:33:07.000Z</time>
      </trkpt>
      <trkpt lat="48.41822" lon="0.79734">
        <ele>126.444318</ele>
        <time>2021-09-07T07:33:12.000Z</time>
      </trkpt>
      <trkpt lat="48.41806" lon="0.79795">
        <ele>126.395441</ele>
        <time>2021-09-07T07:33:19.000Z</time>
      </trkpt>
      <trkpt lat="48.41802" lon="0.79812">
        <ele>126.336793</ele>
        <time>2021-09-07T07:33:21.000Z</time>
      </trkpt>
      <trkpt lat="48.41795" lon="0.79836">
        <ele>126.248384</ele>
        <time>2021-09-07T07:33:24.000Z</time>
      </trkpt>
      <trkpt lat="48.41792" lon="0.79852">
        <ele>126.19131</ele>
        <time>2021-09-07T07:33:26.000Z</time>
      </trkpt>
      <trkpt lat="48.41787" lon="0.79869">
        <ele>126.128307</ele>
        <time>2021-09-07T07:33:28.000Z</time>
      </trkpt>
      <trkpt lat="48.41785" lon="0.79877">
        <ele>126.097494</ele>
        <time>2021-09-07T07:33:29.000Z</time>
      </trkpt>
      <trkpt lat="48.41779" lon="0.79902">
        <ele>126.005527</ele>
        <time>2021-09-07T07:33:32.000Z</time>
      </trkpt>
      <trkpt lat="48.41767" lon="0.79937">
        <ele>125.870973</ele>
        <time>2021-09-07T07:33:37.000Z</time>
      </trkpt>
      <trkpt lat="48.41765" lon="0.79943">
        <ele>125.846698</ele>
        <time>2021-09-07T07:33:38.000Z</time>
      </trkpt>
      <trkpt lat="48.41759" lon="0.79963">
        <ele>125.769864</ele>
        <time>2021-09-07T07:33:41.000Z</time>
      </trkpt>
      <trkpt lat="48.41758" lon="0.79971">
        <ele>125.741676</ele>
        <time>2021-09-07T07:33:42.000Z</time>
      </trkpt>
      <trkpt lat="48.41755" lon="0.79979">
        <ele>125.711137</ele>
        <time>2021-09-07T07:33:43.000Z</time>
      </trkpt>
      <trkpt lat="48.41746" lon="0.80014">
        <ele>125.582289</ele>
        <time>2021-09-07T07:33:47.000Z</time>
      </trkpt>
      <trkpt lat="48.41736" lon="0.80048">
        <ele>125.450283</ele>
        <time>2021-09-07T07:33:51.000Z</time>
      </trkpt>
      <trkpt lat="48.41733" lon="0.80067">
        <ele>125.369628</ele>
        <time>2021-09-07T07:33:53.000Z</time>
      </trkpt>
      <trkpt lat="48.41732" lon="0.80077">
        <ele>125.328593</ele>
        <time>2021-09-07T07:33:54.000Z</time>
      </trkpt>
      <trkpt lat="48.41722" lon="0.80103">
        <ele>125.203363</ele>
        <time>2021-09-07T07:33:57.000Z</time>
      </trkpt>
      <trkpt lat="48.41715" lon="0.80119">
        <ele>125.122635</ele>
        <time>2021-09-07T07:33:59.000Z</time>
      </trkpt>
      <trkpt lat="48.41703" lon="0.80144">
        <ele>124.995932</ele>
        <time>2021-09-07T07:34:02.000Z</time>
      </trkpt>
      <trkpt lat="48.41679" lon="0.80191">
        <ele>124.746906</ele>
        <time>2021-09-07T07:34:08.000Z</time>
      </trkpt>
      <trkpt lat="48.41648" lon="0.80242">
        <ele>124.458288</ele>
        <time>2021-09-07T07:34:15.000Z</time>
      </trkpt>
      <trkpt lat="48.41631" lon="0.80269">
        <ele>124.295746</ele>
        <time>2021-09-07T07:34:19.000Z</time>
      </trkpt>
      <trkpt lat="48.41627" lon="0.80276">
        <ele>124.252442</ele>
        <time>2021-09-07T07:34:20.000Z</time>
      </trkpt>
      <trkpt lat="48.41605" lon="0.80311">
        <ele>124.011347</ele>
        <time>2021-09-07T07:34:25.000Z</time>
      </trkpt>
      <trkpt lat="48.41593" lon="0.80333">
        <ele>123.873021</ele>
        <time>2021-09-07T07:34:28.000Z</time>
      </trkpt>
      <trkpt lat="48.41588" lon="0.8034">
        <ele>123.823726</ele>
        <time>2021-09-07T07:34:29.000Z</time>
      </trkpt>
      <trkpt lat="48.41564" lon="0.80388">
        <ele>123.520453</ele>
        <time>2021-09-07T07:34:35.000Z</time>
      </trkpt>
      <trkpt lat="48.4155" lon="0.80421">
        <ele>123.329194</ele>
        <time>2021-09-07T07:34:39.000Z</time>
      </trkpt>
      <trkpt lat="48.41537" lon="0.80454">
        <ele>123.135851</ele>
        <time>2021-09-07T07:34:43.000Z</time>
      </trkpt>
      <trkpt lat="48.41534" lon="0.80463">
        <ele>123.086968</ele>
        <time>2021-09-07T07:34:44.000Z</time>
      </trkpt>
      <trkpt lat="48.41516" lon="0.80513">
        <ele>123.129192</ele>
        <time>2021-09-07T07:34:50.000Z</time>
      </trkpt>
      <trkpt lat="48.41505" lon="0.80559">
        <ele>123.33722</ele>
        <time>2021-09-07T07:34:55.000Z</time>
      </trkpt>
      <trkpt lat="48.41497" lon="0.80604">
        <ele>123.537143</ele>
        <time>2021-09-07T07:35:00.000Z</time>
      </trkpt>
      <trkpt lat="48.41496" lon="0.80614">
        <ele>123.578769</ele>
        <time>2021-09-07T07:35:01.000Z</time>
      </trkpt>
      <trkpt lat="48.41491" lon="0.80652">
        <ele>123.74588</ele>
        <time>2021-09-07T07:35:05.000Z</time>
      </trkpt>
      <trkpt lat="48.41488" lon="0.80661">
        <ele>123.787148</ele>
        <time>2021-09-07T07:35:06.000Z</time>
      </trkpt>
      <trkpt lat="48.41482" lon="0.80688">
        <ele>123.909715</ele>
        <time>2021-09-07T07:35:09.000Z</time>
      </trkpt>
      <trkpt lat="48.4148" lon="0.80697">
        <ele>123.95024</ele>
        <time>2021-09-07T07:35:10.000Z</time>
      </trkpt>
      <trkpt lat="48.41473" lon="0.80733">
        <ele>124.109859</ele>
        <time>2021-09-07T07:35:14.000Z</time>
      </trkpt>
      <trkpt lat="48.41469" lon="0.8075">
        <ele>124.37694</ele>
        <time>2021-09-07T07:35:16.000Z</time>
      </trkpt>
      <trkpt lat="48.41467" lon="0.80768">
        <ele>124.734958</ele>
        <time>2021-09-07T07:35:18.000Z</time>
      </trkpt>
      <trkpt lat="48.4146" lon="0.80811">
        <ele>125.613675</ele>
        <time>2021-09-07T07:35:23.000Z</time>
      </trkpt>
      <trkpt lat="48.41454" lon="0.80826">
        <ele>125.948402</ele>
        <time>2021-09-07T07:35:25.000Z</time>
      </trkpt>
      <trkpt lat="48.41453" lon="0.80835">
        <ele>126.129014</ele>
        <time>2021-09-07T07:35:26.000Z</time>
      </trkpt>
      <trkpt lat="48.4145" lon="0.80852">
        <ele>126.481243</ele>
        <time>2021-09-07T07:35:28.000Z</time>
      </trkpt>
      <trkpt lat="48.41447" lon="0.80878">
        <ele>126.999491</ele>
        <time>2021-09-07T07:35:31.000Z</time>
      </trkpt>
      <trkpt lat="48.4144" lon="0.8091">
        <ele>127.667799</ele>
        <time>2021-09-07T07:35:35.000Z</time>
      </trkpt>
      <trkpt lat="48.41434" lon="0.80933">
        <ele>128.150224</ele>
        <time>2021-09-07T07:35:38.000Z</time>
      </trkpt>
      <trkpt lat="48.41434" lon="0.8094">
        <ele>128.295434</ele>
        <time>2021-09-07T07:35:39.000Z</time>
      </trkpt>
      <trkpt lat="48.41431" lon="0.80947">
        <ele>128.447684</ele>
        <time>2021-09-07T07:35:40.000Z</time>
      </trkpt>
      <trkpt lat="48.41425" lon="0.80967">
        <ele>128.885179</ele>
        <time>2021-09-07T07:35:43.000Z</time>
      </trkpt>
      <trkpt lat="48.41424" lon="0.80974">
        <ele>129.032912</ele>
        <time>2021-09-07T07:35:44.000Z</time>
      </trkpt>
      <trkpt lat="48.4142" lon="0.80999">
        <ele>129.51977</ele>
        <time>2021-09-07T07:35:47.000Z</time>
      </trkpt>
      <trkpt lat="48.41415" lon="0.81043">
        <ele>129.906277</ele>
        <time>2021-09-07T07:35:52.000Z</time>
      </trkpt>
      <trkpt lat="48.41413" lon="0.8106">
        <ele>130.058956</ele>
        <time>2021-09-07T07:35:54.000Z</time>
      </trkpt>
      <trkpt lat="48.41409" lon="0.81086">
        <ele>130.284862</ele>
        <time>2021-09-07T07:35:57.000Z</time>
      </trkpt>
      <trkpt lat="48.41407" lon="0.81094">
        <ele>130.358696</ele>
        <time>2021-09-07T07:35:58.000Z</time>
      </trkpt>
      <trkpt lat="48.41404" lon="0.81127">
        <ele>130.643839</ele>
        <time>2021-09-07T07:36:02.000Z</time>
      </trkpt>
      <trkpt lat="48.41399" lon="0.81158">
        <ele>130.920514</ele>
        <time>2021-09-07T07:36:06.000Z</time>
      </trkpt>
      <trkpt lat="48.41398" lon="0.81176">
        <ele>131.074356</ele>
        <time>2021-09-07T07:36:08.000Z</time>
      </trkpt>
      <trkpt lat="48.41393" lon="0.81221">
        <ele>131.467181</ele>
        <time>2021-09-07T07:36:13.000Z</time>
      </trkpt>
      <trkpt lat="48.41389" lon="0.81278">
        <ele>131.806511</ele>
        <time>2021-09-07T07:36:19.000Z</time>
      </trkpt>
      <trkpt lat="48.41385" lon="0.81335">
        <ele>131.656552</ele>
        <time>2021-09-07T07:36:25.000Z</time>
      </trkpt>
      <trkpt lat="48.41383" lon="0.81354">
        <ele>131.606135</ele>
        <time>2021-09-07T07:36:27.000Z</time>
      </trkpt>
      <trkpt lat="48.41382" lon="0.81374">
        <ele>131.554169</ele>
        <time>2021-09-07T07:36:29.000Z</time>
      </trkpt>
      <trkpt lat="48.41378" lon="0.81422">
        <ele>131.430232</ele>
        <time>2021-09-07T07:36:34.000Z</time>
      </trkpt>
      <trkpt lat="48.41377" lon="0.81439">
        <ele>131.38558</ele>
        <time>2021-09-07T07:36:36.000Z</time>
      </trkpt>
      <trkpt lat="48.41374" lon="0.81456">
        <ele>131.338337</ele>
        <time>2021-09-07T07:36:38.000Z</time>
      </trkpt>
      <trkpt lat="48.4137" lon="0.81473">
        <ele>131.291509</ele>
        <time>2021-09-07T07:36:40.000Z</time>
      </trkpt>
      <trkpt lat="48.41367" lon="0.815">
        <ele>131.221314</ele>
        <time>2021-09-07T07:36:43.000Z</time>
      </trkpt>
      <trkpt lat="48.41358" lon="0.81556">
        <ele>131.087342</ele>
        <time>2021-09-07T07:36:49.000Z</time>
      </trkpt>
      <trkpt lat="48.41357" lon="0.81566">
        <ele>131.068581</ele>
        <time>2021-09-07T07:36:50.000Z</time>
      </trkpt>
      <trkpt lat="48.41352" lon="0.81593">
        <ele>131.012946</ele>
        <time>2021-09-07T07:36:53.000Z</time>
      </trkpt>
      <trkpt lat="48.4135" lon="0.81602">
        <ele>130.995186</ele>
        <time>2021-09-07T07:36:54.000Z</time>
      </trkpt>
      <trkpt lat="48.41346" lon="0.81619">
        <ele>130.959518</ele>
        <time>2021-09-07T07:36:56.000Z</time>
      </trkpt>
      <trkpt lat="48.41345" lon="0.81628">
        <ele>130.940731</ele>
        <time>2021-09-07T07:36:57.000Z</time>
      </trkpt>
      <trkpt lat="48.4134" lon="0.81647">
        <ele>130.901498</ele>
        <time>2021-09-07T07:36:59.000Z</time>
      </trkpt>
      <trkpt lat="48.41333" lon="0.81674">
        <ele>130.843556</ele>
        <time>2021-09-07T07:37:02.000Z</time>
      </trkpt>
      <trkpt lat="48.41326" lon="0.81707">
        <ele>130.774752</ele>
        <time>2021-09-07T07:37:06.000Z</time>
      </trkpt>
      <trkpt lat="48.41313" lon="0.81749">
        <ele>130.683956</ele>
        <time>2021-09-07T07:37:11.000Z</time>
      </trkpt>
      <trkpt lat="48.41305" lon="0.8177">
        <ele>130.636443</ele>
        <time>2021-09-07T07:37:14.000Z</time>
      </trkpt>
      <trkpt lat="48.41294" lon="0.81814">
        <ele>130.34144</ele>
        <time>2021-09-07T07:37:19.000Z</time>
      </trkpt>
      <trkpt lat="48.41278" lon="0.81869">
        <ele>129.818441</ele>
        <time>2021-09-07T07:37:25.000Z</time>
      </trkpt>
      <trkpt lat="48.41263" lon="0.81915">
        <ele>129.37386</ele>
        <time>2021-09-07T07:37:30.000Z</time>
      </trkpt>
      <trkpt lat="48.41243" lon="0.81977">
        <ele>128.779911</ele>
        <time>2021-09-07T07:37:37.000Z</time>
      </trkpt>
      <trkpt lat="48.41238" lon="0.81996">
        <ele>128.600314</ele>
        <time>2021-09-07T07:37:39.000Z</time>
      </trkpt>
      <trkpt lat="48.41228" lon="0.82021">
        <ele>128.34329</ele>
        <time>2021-09-07T07:37:42.000Z</time>
      </trkpt>
      <trkpt lat="48.41225" lon="0.82029">
        <ele>128.263678</ele>
        <time>2021-09-07T07:37:43.000Z</time>
      </trkpt>
      <trkpt lat="48.41217" lon="0.82056">
        <ele>127.936564</ele>
        <time>2021-09-07T07:37:46.000Z</time>
      </trkpt>
      <trkpt lat="48.41214" lon="0.82065">
        <ele>127.823041</ele>
        <time>2021-09-07T07:37:47.000Z</time>
      </trkpt>
      <trkpt lat="48.41206" lon="0.82092">
        <ele>127.480263</ele>
        <time>2021-09-07T07:37:50.000Z</time>
      </trkpt>
      <trkpt lat="48.41204" lon="0.821">
        <ele>127.378081</ele>
        <time>2021-09-07T07:37:51.000Z</time>
      </trkpt>
      <trkpt lat="48.41202" lon="0.82108">
        <ele>127.280182</ele>
        <time>2021-09-07T07:37:52.000Z</time>
      </trkpt>
      <trkpt lat="48.41196" lon="0.82123">
        <ele>127.076704</ele>
        <time>2021-09-07T07:37:54.000Z</time>
      </trkpt>
      <trkpt lat="48.41192" lon="0.82131">
        <ele>126.969846</ele>
        <time>2021-09-07T07:37:55.000Z</time>
      </trkpt>
      <trkpt lat="48.4118" lon="0.8216">
        <ele>126.572778</ele>
        <time>2021-09-07T07:37:59.000Z</time>
      </trkpt>
      <trkpt lat="48.41171" lon="0.82182">
        <ele>126.277848</ele>
        <time>2021-09-07T07:38:02.000Z</time>
      </trkpt>
      <trkpt lat="48.41165" lon="0.82197">
        <ele>126.080314</ele>
        <time>2021-09-07T07:38:04.000Z</time>
      </trkpt>
      <trkpt lat="48.41152" lon="0.82228">
        <ele>125.655739</ele>
        <time>2021-09-07T07:38:08.000Z</time>
      </trkpt>
      <trkpt lat="48.41148" lon="0.82236">
        <ele>125.549824</ele>
        <time>2021-09-07T07:38:09.000Z</time>
      </trkpt>
      <trkpt lat="48.41137" lon="0.82259">
        <ele>125.222597</ele>
        <time>2021-09-07T07:38:12.000Z</time>
      </trkpt>
      <trkpt lat="48.4113" lon="0.82276">
        <ele>125.086698</ele>
        <time>2021-09-07T07:38:14.000Z</time>
      </trkpt>
      <trkpt lat="48.41127" lon="0.82284">
        <ele>125.037005</ele>
        <time>2021-09-07T07:38:15.000Z</time>
      </trkpt>
      <trkpt lat="48.41106" lon="0.8233">
        <ele>124.75511</ele>
        <time>2021-09-07T07:38:21.000Z</time>
      </trkpt>
      <trkpt lat="48.41102" lon="0.82338">
        <ele>124.705765</ele>
        <time>2021-09-07T07:38:22.000Z</time>
      </trkpt>
      <trkpt lat="48.41089" lon="0.82362">
        <ele>124.553728</ele>
        <time>2021-09-07T07:38:25.000Z</time>
      </trkpt>
      <trkpt lat="48.41086" lon="0.82369">
        <ele>124.508405</ele>
        <time>2021-09-07T07:38:26.000Z</time>
      </trkpt>
      <trkpt lat="48.41077" lon="0.82385">
        <ele>124.408116</ele>
        <time>2021-09-07T07:38:28.000Z</time>
      </trkpt>
      <trkpt lat="48.41065" lon="0.82408">
        <ele>124.259607</ele>
        <time>2021-09-07T07:38:31.000Z</time>
      </trkpt>
      <trkpt lat="48.4104" lon="0.82451">
        <ele>123.973949</ele>
        <time>2021-09-07T07:38:37.000Z</time>
      </trkpt>
      <trkpt lat="48.41036" lon="0.82458">
        <ele>123.928908</ele>
        <time>2021-09-07T07:38:38.000Z</time>
      </trkpt>
      <trkpt lat="48.41027" lon="0.82471">
        <ele>123.833234</ele>
        <time>2021-09-07T07:38:40.000Z</time>
      </trkpt>
      <trkpt lat="48.41022" lon="0.82476">
        <ele>123.794937</ele>
        <time>2021-09-07T07:38:41.000Z</time>
      </trkpt>
      <trkpt lat="48.41001" lon="0.82507">
        <ele>123.759482</ele>
        <time>2021-09-07T07:38:46.000Z</time>
      </trkpt>
      <trkpt lat="48.40983" lon="0.82533">
        <ele>123.729735</ele>
        <time>2021-09-07T07:38:50.000Z</time>
      </trkpt>
      <trkpt lat="48.40965" lon="0.82558">
        <ele>123.700206</ele>
        <time>2021-09-07T07:38:54.000Z</time>
      </trkpt>
      <trkpt lat="48.40956" lon="0.8257">
        <ele>123.685039</ele>
        <time>2021-09-07T07:38:56.000Z</time>
      </trkpt>
      <trkpt lat="48.40948" lon="0.82583">
        <ele>123.670787</ele>
        <time>2021-09-07T07:38:58.000Z</time>
      </trkpt>
      <trkpt lat="48.40944" lon="0.8259">
        <ele>123.663728</ele>
        <time>2021-09-07T07:38:59.000Z</time>
      </trkpt>
      <trkpt lat="48.40931" lon="0.82608">
        <ele>123.642512</ele>
        <time>2021-09-07T07:39:02.000Z</time>
      </trkpt>
      <trkpt lat="48.40916" lon="0.8263">
        <ele>123.617161</ele>
        <time>2021-09-07T07:39:06.000Z</time>
      </trkpt>
      <trkpt lat="48.40912" lon="0.82636">
        <ele>123.610285</ele>
        <time>2021-09-07T07:39:07.000Z</time>
      </trkpt>
      <trkpt lat="48.40891" lon="0.82666">
        <ele>123.593557</ele>
        <time>2021-09-07T07:39:12.000Z</time>
      </trkpt>
      <trkpt lat="48.40874" lon="0.82691">
        <ele>123.709615</ele>
        <time>2021-09-07T07:39:16.000Z</time>
      </trkpt>
      <trkpt lat="48.40864" lon="0.82704">
        <ele>123.773978</ele>
        <time>2021-09-07T07:39:18.000Z</time>
      </trkpt>
      <trkpt lat="48.40859" lon="0.82709">
        <ele>123.803391</ele>
        <time>2021-09-07T07:39:19.000Z</time>
      </trkpt>
      <trkpt lat="48.4085" lon="0.82722">
        <ele>123.862242</ele>
        <time>2021-09-07T07:39:21.000Z</time>
      </trkpt>
      <trkpt lat="48.40845" lon="0.82728">
        <ele>123.893414</ele>
        <time>2021-09-07T07:39:22.000Z</time>
      </trkpt>
      <trkpt lat="48.40834" lon="0.8274">
        <ele>123.958788</ele>
        <time>2021-09-07T07:39:24.000Z</time>
      </trkpt>
      <trkpt lat="48.40829" lon="0.82746">
        <ele>123.989433</ele>
        <time>2021-09-07T07:39:25.000Z</time>
      </trkpt>
      <trkpt lat="48.40824" lon="0.82752">
        <ele>124.019295</ele>
        <time>2021-09-07T07:39:26.000Z</time>
      </trkpt>
      <trkpt lat="48.4081" lon="0.82772">
        <ele>124.109232</ele>
        <time>2021-09-07T07:39:29.000Z</time>
      </trkpt>
      <trkpt lat="48.40806" lon="0.82777">
        <ele>124.137739</ele>
        <time>2021-09-07T07:39:30.000Z</time>
      </trkpt>
      <trkpt lat="48.40797" lon="0.82789">
        <ele>124.195858</ele>
        <time>2021-09-07T07:39:32.000Z</time>
      </trkpt>
      <trkpt lat="48.40788" lon="0.82801">
        <ele>124.251637</ele>
        <time>2021-09-07T07:39:34.000Z</time>
      </trkpt>
      <trkpt lat="48.40784" lon="0.82807">
        <ele>124.28198</ele>
        <time>2021-09-07T07:39:35.000Z</time>
      </trkpt>
      <trkpt lat="48.40766" lon="0.82834">
        <ele>124.40303</ele>
        <time>2021-09-07T07:39:39.000Z</time>
      </trkpt>
      <trkpt lat="48.40756" lon="0.82845">
        <ele>124.462538</ele>
        <time>2021-09-07T07:39:41.000Z</time>
      </trkpt>
      <trkpt lat="48.40748" lon="0.82855">
        <ele>124.526657</ele>
        <time>2021-09-07T07:39:43.000Z</time>
      </trkpt>
      <trkpt lat="48.40731" lon="0.8288">
        <ele>124.665066</ele>
        <time>2021-09-07T07:39:47.000Z</time>
      </trkpt>
      <trkpt lat="48.40702" lon="0.82918">
        <ele>124.886898</ele>
        <time>2021-09-07T07:39:53.000Z</time>
      </trkpt>
      <trkpt lat="48.40678" lon="0.8295">
        <ele>125.076529</ele>
        <time>2021-09-07T07:39:58.000Z</time>
      </trkpt>
      <trkpt lat="48.40669" lon="0.82962">
        <ele>125.149325</ele>
        <time>2021-09-07T07:40:00.000Z</time>
      </trkpt>
      <trkpt lat="48.40655" lon="0.82982">
        <ele>125.258469</ele>
        <time>2021-09-07T07:40:03.000Z</time>
      </trkpt>
      <trkpt lat="48.40646" lon="0.82995">
        <ele>125.331431</ele>
        <time>2021-09-07T07:40:05.000Z</time>
      </trkpt>
      <trkpt lat="48.40637" lon="0.83008">
        <ele>125.404283</ele>
        <time>2021-09-07T07:40:07.000Z</time>
      </trkpt>
      <trkpt lat="48.40633" lon="0.83013">
        <ele>125.437362</ele>
        <time>2021-09-07T07:40:08.000Z</time>
      </trkpt>
      <trkpt lat="48.4062" lon="0.83033">
        <ele>125.616037</ele>
        <time>2021-09-07T07:40:11.000Z</time>
      </trkpt>
      <trkpt lat="48.40604" lon="0.83051">
        <ele>125.912852</ele>
        <time>2021-09-07T07:40:14.000Z</time>
      </trkpt>
      <trkpt lat="48.40599" lon="0.83056">
        <ele>126.011737</ele>
        <time>2021-09-07T07:40:15.000Z</time>
      </trkpt>
      <trkpt lat="48.40581" lon="0.83077">
        <ele>126.352718</ele>
        <time>2021-09-07T07:40:19.000Z</time>
      </trkpt>
      <trkpt lat="48.40577" lon="0.83082">
        <ele>126.425932</ele>
        <time>2021-09-07T07:40:20.000Z</time>
      </trkpt>
      <trkpt lat="48.40565" lon="0.83098">
        <ele>126.66997</ele>
        <time>2021-09-07T07:40:23.000Z</time>
      </trkpt>
      <trkpt lat="48.40552" lon="0.83115">
        <ele>126.928857</ele>
        <time>2021-09-07T07:40:26.000Z</time>
      </trkpt>
      <trkpt lat="48.40531" lon="0.83145">
        <ele>127.355453</ele>
        <time>2021-09-07T07:40:31.000Z</time>
      </trkpt>
      <trkpt lat="48.40527" lon="0.83151">
        <ele>127.440312</ele>
        <time>2021-09-07T07:40:32.000Z</time>
      </trkpt>
      <trkpt lat="48.40514" lon="0.83167">
        <ele>127.686218</ele>
        <time>2021-09-07T07:40:35.000Z</time>
      </trkpt>
      <trkpt lat="48.4049" lon="0.83204">
        <ele>128.204282</ele>
        <time>2021-09-07T07:40:41.000Z</time>
      </trkpt>
      <trkpt lat="48.40467" lon="0.83235">
        <ele>128.616295</ele>
        <time>2021-09-07T07:40:46.000Z</time>
      </trkpt>
      <trkpt lat="48.40457" lon="0.83245">
        <ele>128.775624</ele>
        <time>2021-09-07T07:40:48.000Z</time>
      </trkpt>
      <trkpt lat="48.40448" lon="0.83257">
        <ele>128.934473</ele>
        <time>2021-09-07T07:40:50.000Z</time>
      </trkpt>
      <trkpt lat="48.40431" lon="0.83281">
        <ele>129.248222</ele>
        <time>2021-09-07T07:40:54.000Z</time>
      </trkpt>
      <trkpt lat="48.40427" lon="0.83287">
        <ele>129.32737</ele>
        <time>2021-09-07T07:40:55.000Z</time>
      </trkpt>
      <trkpt lat="48.40409" lon="0.83309">
        <ele>129.636448</ele>
        <time>2021-09-07T07:40:59.000Z</time>
      </trkpt>
      <trkpt lat="48.40405" lon="0.83314">
        <ele>129.701653</ele>
        <time>2021-09-07T07:41:00.000Z</time>
      </trkpt>
      <trkpt lat="48.40402" lon="0.83319">
        <ele>129.766493</ele>
        <time>2021-09-07T07:41:01.000Z</time>
      </trkpt>
      <trkpt lat="48.40394" lon="0.83331">
        <ele>129.910974</ele>
        <time>2021-09-07T07:41:03.000Z</time>
      </trkpt>
      <trkpt lat="48.40382" lon="0.83349">
        <ele>130.143265</ele>
        <time>2021-09-07T07:41:06.000Z</time>
      </trkpt>
      <trkpt lat="48.40379" lon="0.83356">
        <ele>130.215156</ele>
        <time>2021-09-07T07:41:07.000Z</time>
      </trkpt>
      <trkpt lat="48.40374" lon="0.83363">
        <ele>130.302363</ele>
        <time>2021-09-07T07:41:08.000Z</time>
      </trkpt>
      <trkpt lat="48.40366" lon="0.83376">
        <ele>130.459357</ele>
        <time>2021-09-07T07:41:10.000Z</time>
      </trkpt>
      <trkpt lat="48.40363" lon="0.83382">
        <ele>130.531487</ele>
        <time>2021-09-07T07:41:11.000Z</time>
      </trkpt>
      <trkpt lat="48.40359" lon="0.83389">
        <ele>130.605636</ele>
        <time>2021-09-07T07:41:12.000Z</time>
      </trkpt>
      <trkpt lat="48.40349" lon="0.834">
        <ele>130.708198</ele>
        <time>2021-09-07T07:41:14.000Z</time>
      </trkpt>
      <trkpt lat="48.40339" lon="0.83411">
        <ele>130.808461</ele>
        <time>2021-09-07T07:41:16.000Z</time>
      </trkpt>
      <trkpt lat="48.40331" lon="0.83423">
        <ele>130.898326</ele>
        <time>2021-09-07T07:41:18.000Z</time>
      </trkpt>
      <trkpt lat="48.40327" lon="0.8343">
        <ele>130.947</ele>
        <time>2021-09-07T07:41:19.000Z</time>
      </trkpt>
      <trkpt lat="48.40315" lon="0.83448">
        <ele>131.088717</ele>
        <time>2021-09-07T07:41:22.000Z</time>
      </trkpt>
      <trkpt lat="48.4031" lon="0.83453">
        <ele>131.139036</ele>
        <time>2021-09-07T07:41:23.000Z</time>
      </trkpt>
      <trkpt lat="48.40295" lon="0.83472">
        <ele>131.297563</ele>
        <time>2021-09-07T07:41:26.000Z</time>
      </trkpt>
      <trkpt lat="48.40285" lon="0.83485">
        <ele>131.402279</ele>
        <time>2021-09-07T07:41:28.000Z</time>
      </trkpt>
      <trkpt lat="48.40276" lon="0.83497">
        <ele>131.501784</ele>
        <time>2021-09-07T07:41:30.000Z</time>
      </trkpt>
      <trkpt lat="48.40266" lon="0.8351">
        <ele>131.607989</ele>
        <time>2021-09-07T07:41:32.000Z</time>
      </trkpt>
      <trkpt lat="48.40257" lon="0.83522">
        <ele>131.707421</ele>
        <time>2021-09-07T07:41:34.000Z</time>
      </trkpt>
      <trkpt lat="48.40236" lon="0.83551">
        <ele>131.939695</ele>
        <time>2021-09-07T07:41:39.000Z</time>
      </trkpt>
      <trkpt lat="48.40232" lon="0.83557">
        <ele>131.987625</ele>
        <time>2021-09-07T07:41:40.000Z</time>
      </trkpt>
      <trkpt lat="48.40215" lon="0.83582">
        <ele>131.999559</ele>
        <time>2021-09-07T07:41:44.000Z</time>
      </trkpt>
      <trkpt lat="48.40206" lon="0.83595">
        <ele>131.943558</ele>
        <time>2021-09-07T07:41:46.000Z</time>
      </trkpt>
      <trkpt lat="48.40192" lon="0.83614">
        <ele>131.858435</ele>
        <time>2021-09-07T07:41:49.000Z</time>
      </trkpt>
      <trkpt lat="48.40187" lon="0.83621">
        <ele>131.828601</ele>
        <time>2021-09-07T07:41:50.000Z</time>
      </trkpt>
      <trkpt lat="48.40173" lon="0.83639">
        <ele>131.742072</ele>
        <time>2021-09-07T07:41:53.000Z</time>
      </trkpt>
      <trkpt lat="48.40139" lon="0.83683">
        <ele>131.541742</ele>
        <time>2021-09-07T07:42:00.000Z</time>
      </trkpt>
      <trkpt lat="48.40134" lon="0.83689">
        <ele>131.512384</ele>
        <time>2021-09-07T07:42:01.000Z</time>
      </trkpt>
      <trkpt lat="48.40119" lon="0.83708">
        <ele>131.424238</ele>
        <time>2021-09-07T07:42:04.000Z</time>
      </trkpt>
      <trkpt lat="48.40087" lon="0.83754">
        <ele>131.206599</ele>
        <time>2021-09-07T07:42:11.000Z</time>
      </trkpt>
      <trkpt lat="48.40078" lon="0.83765">
        <ele>131.119683</ele>
        <time>2021-09-07T07:42:13.000Z</time>
      </trkpt>
      <trkpt lat="48.40073" lon="0.83771">
        <ele>131.073135</ele>
        <time>2021-09-07T07:42:14.000Z</time>
      </trkpt>
      <trkpt lat="48.40051" lon="0.83802">
        <ele>130.858949</ele>
        <time>2021-09-07T07:42:19.000Z</time>
      </trkpt>
      <trkpt lat="48.40041" lon="0.83813">
        <ele>130.770123</ele>
        <time>2021-09-07T07:42:21.000Z</time>
      </trkpt>
      <trkpt lat="48.40028" lon="0.83832">
        <ele>130.638484</ele>
        <time>2021-09-07T07:42:24.000Z</time>
      </trkpt>
      <trkpt lat="48.40021" lon="0.83845">
        <ele>130.557383</ele>
        <time>2021-09-07T07:42:26.000Z</time>
      </trkpt>
      <trkpt lat="48.40005" lon="0.83868">
        <ele>130.398014</ele>
        <time>2021-09-07T07:42:30.000Z</time>
      </trkpt>
      <trkpt lat="48.39995" lon="0.83878">
        <ele>130.309571</ele>
        <time>2021-09-07T07:42:32.000Z</time>
      </trkpt>
      <trkpt lat="48.39986" lon="0.83891">
        <ele>130.224057</ele>
        <time>2021-09-07T07:42:34.000Z</time>
      </trkpt>
      <trkpt lat="48.39979" lon="0.83901">
        <ele>130.151449</ele>
        <time>2021-09-07T07:42:36.000Z</time>
      </trkpt>
      <trkpt lat="48.39972" lon="0.83912">
        <ele>130.075134</ele>
        <time>2021-09-07T07:42:38.000Z</time>
      </trkpt>
      <trkpt lat="48.39968" lon="0.83918">
        <ele>130.036315</ele>
        <time>2021-09-07T07:42:39.000Z</time>
      </trkpt>
      <trkpt lat="48.39956" lon="0.83933">
        <ele>129.932227</ele>
        <time>2021-09-07T07:42:42.000Z</time>
      </trkpt>
      <trkpt lat="48.39943" lon="0.83949">
        <ele>129.853046</ele>
        <time>2021-09-07T07:42:45.000Z</time>
      </trkpt>
      <trkpt lat="48.39938" lon="0.83956">
        <ele>129.824004</ele>
        <time>2021-09-07T07:42:46.000Z</time>
      </trkpt>
      <trkpt lat="48.3993" lon="0.83968">
        <ele>129.770711</ele>
        <time>2021-09-07T07:42:48.000Z</time>
      </trkpt>
      <trkpt lat="48.39925" lon="0.83974">
        <ele>129.740591</ele>
        <time>2021-09-07T07:42:49.000Z</time>
      </trkpt>
      <trkpt lat="48.39905" lon="0.83999">
        <ele>129.61952</ele>
        <time>2021-09-07T07:42:53.000Z</time>
      </trkpt>
      <trkpt lat="48.39901" lon="0.84005">
        <ele>129.591387</ele>
        <time>2021-09-07T07:42:54.000Z</time>
      </trkpt>
      <trkpt lat="48.39874" lon="0.84041">
        <ele>129.423014</ele>
        <time>2021-09-07T07:43:00.000Z</time>
      </trkpt>
      <trkpt lat="48.39857" lon="0.84065">
        <ele>129.312279</ele>
        <time>2021-09-07T07:43:04.000Z</time>
      </trkpt>
      <trkpt lat="48.39853" lon="0.84072">
        <ele>129.284638</ele>
        <time>2021-09-07T07:43:05.000Z</time>
      </trkpt>
      <trkpt lat="48.39844" lon="0.84082">
        <ele>129.233029</ele>
        <time>2021-09-07T07:43:07.000Z</time>
      </trkpt>
      <trkpt lat="48.39839" lon="0.84087">
        <ele>129.205105</ele>
        <time>2021-09-07T07:43:08.000Z</time>
      </trkpt>
      <trkpt lat="48.39828" lon="0.84096">
        <ele>129.147281</ele>
        <time>2021-09-07T07:43:10.000Z</time>
      </trkpt>
      <trkpt lat="48.39818" lon="0.84108">
        <ele>129.117556</ele>
        <time>2021-09-07T07:43:12.000Z</time>
      </trkpt>
      <trkpt lat="48.39798" lon="0.84139">
        <ele>129.187743</ele>
        <time>2021-09-07T07:43:17.000Z</time>
      </trkpt>
      <trkpt lat="48.39782" lon="0.84164">
        <ele>129.242607</ele>
        <time>2021-09-07T07:43:21.000Z</time>
      </trkpt>
      <trkpt lat="48.39778" lon="0.8417">
        <ele>129.255957</ele>
        <time>2021-09-07T07:43:22.000Z</time>
      </trkpt>
      <trkpt lat="48.3977" lon="0.84183">
        <ele>129.283462</ele>
        <time>2021-09-07T07:43:24.000Z</time>
      </trkpt>
      <trkpt lat="48.39752" lon="0.84207">
        <ele>129.340954</ele>
        <time>2021-09-07T07:43:28.000Z</time>
      </trkpt>
      <trkpt lat="48.39749" lon="0.84213">
        <ele>129.353415</ele>
        <time>2021-09-07T07:43:29.000Z</time>
      </trkpt>
      <trkpt lat="48.39745" lon="0.84218">
        <ele>129.366257</ele>
        <time>2021-09-07T07:43:30.000Z</time>
      </trkpt>
      <trkpt lat="48.39728" lon="0.84241">
        <ele>129.42066</ele>
        <time>2021-09-07T07:43:34.000Z</time>
      </trkpt>
      <trkpt lat="48.39708" lon="0.84267">
        <ele>129.483772</ele>
        <time>2021-09-07T07:43:39.000Z</time>
      </trkpt>
      <trkpt lat="48.39698" lon="0.84281">
        <ele>129.516339</ele>
        <time>2021-09-07T07:43:42.000Z</time>
      </trkpt>
      <trkpt lat="48.39691" lon="0.84291">
        <ele>129.539794</ele>
        <time>2021-09-07T07:43:44.000Z</time>
      </trkpt>
      <trkpt lat="48.39683" lon="0.843">
        <ele>129.575231</ele>
        <time>2021-09-07T07:43:46.000Z</time>
      </trkpt>
      <trkpt lat="48.39675" lon="0.84309">
        <ele>129.610526</ele>
        <time>2021-09-07T07:43:48.000Z</time>
      </trkpt>
      <trkpt lat="48.39671" lon="0.84314">
        <ele>129.626928</ele>
        <time>2021-09-07T07:43:49.000Z</time>
      </trkpt>
      <trkpt lat="48.39668" lon="0.84318">
        <ele>129.642478</ele>
        <time>2021-09-07T07:43:50.000Z</time>
      </trkpt>
      <trkpt lat="48.39661" lon="0.84328">
        <ele>129.675622</ele>
        <time>2021-09-07T07:43:52.000Z</time>
      </trkpt>
      <trkpt lat="48.39658" lon="0.84333">
        <ele>129.690785</ele>
        <time>2021-09-07T07:43:53.000Z</time>
      </trkpt>
      <trkpt lat="48.39647" lon="0.84349">
        <ele>129.74386</ele>
        <time>2021-09-07T07:43:56.000Z</time>
      </trkpt>
      <trkpt lat="48.39643" lon="0.84354">
        <ele>129.763487</ele>
        <time>2021-09-07T07:43:57.000Z</time>
      </trkpt>
      <trkpt lat="48.39633" lon="0.8437">
        <ele>129.81308</ele>
        <time>2021-09-07T07:44:00.000Z</time>
      </trkpt>
      <trkpt lat="48.39629" lon="0.84375">
        <ele>129.83053</ele>
        <time>2021-09-07T07:44:01.000Z</time>
      </trkpt>
      <trkpt lat="48.39622" lon="0.84383">
        <ele>129.862085</ele>
        <time>2021-09-07T07:44:03.000Z</time>
      </trkpt>
      <trkpt lat="48.39615" lon="0.84394">
        <ele>129.896633</ele>
        <time>2021-09-07T07:44:05.000Z</time>
      </trkpt>
      <trkpt lat="48.39601" lon="0.84415">
        <ele>129.964967</ele>
        <time>2021-09-07T07:44:09.000Z</time>
      </trkpt>
      <trkpt lat="48.39594" lon="0.84425">
        <ele>129.998367</ele>
        <time>2021-09-07T07:44:11.000Z</time>
      </trkpt>
      <trkpt lat="48.39584" lon="0.84441">
        <ele>130.05148</ele>
        <time>2021-09-07T07:44:14.000Z</time>
      </trkpt>
      <trkpt lat="48.3958" lon="0.84447">
        <ele>130.070324</ele>
        <time>2021-09-07T07:44:15.000Z</time>
      </trkpt>
      <trkpt lat="48.39565" lon="0.84468">
        <ele>130.141673</ele>
        <time>2021-09-07T07:44:19.000Z</time>
      </trkpt>
      <trkpt lat="48.39558" lon="0.84478">
        <ele>130.220866</ele>
        <time>2021-09-07T07:44:21.000Z</time>
      </trkpt>
      <trkpt lat="48.39543" lon="0.84497">
        <ele>130.565983</ele>
        <time>2021-09-07T07:44:25.000Z</time>
      </trkpt>
      <trkpt lat="48.39531" lon="0.84511">
        <ele>130.837708</ele>
        <time>2021-09-07T07:44:28.000Z</time>
      </trkpt>
      <trkpt lat="48.39527" lon="0.84515">
        <ele>130.929107</ele>
        <time>2021-09-07T07:44:29.000Z</time>
      </trkpt>
      <trkpt lat="48.39523" lon="0.84519">
        <ele>131.021999</ele>
        <time>2021-09-07T07:44:30.000Z</time>
      </trkpt>
      <trkpt lat="48.3951" lon="0.84533">
        <ele>131.304027</ele>
        <time>2021-09-07T07:44:33.000Z</time>
      </trkpt>
      <trkpt lat="48.39494" lon="0.84551">
        <ele>131.661319</ele>
        <time>2021-09-07T07:44:37.000Z</time>
      </trkpt>
      <trkpt lat="48.39476" lon="0.84576">
        <ele>132.096404</ele>
        <time>2021-09-07T07:44:42.000Z</time>
      </trkpt>
      <trkpt lat="48.39473" lon="0.84581">
        <ele>132.183516</ele>
        <time>2021-09-07T07:44:43.000Z</time>
      </trkpt>
      <trkpt lat="48.39463" lon="0.84595">
        <ele>132.43372</ele>
        <time>2021-09-07T07:44:46.000Z</time>
      </trkpt>
      <trkpt lat="48.39459" lon="0.846">
        <ele>132.522669</ele>
        <time>2021-09-07T07:44:47.000Z</time>
      </trkpt>
      <trkpt lat="48.3945" lon="0.84609">
        <ele>132.715383</ele>
        <time>2021-09-07T07:44:49.000Z</time>
      </trkpt>
      <trkpt lat="48.39439" lon="0.84624">
        <ele>132.984579</ele>
        <time>2021-09-07T07:44:52.000Z</time>
      </trkpt>
      <trkpt lat="48.39427" lon="0.84639">
        <ele>133.257418</ele>
        <time>2021-09-07T07:44:55.000Z</time>
      </trkpt>
      <trkpt lat="48.39411" lon="0.84658">
        <ele>133.609885</ele>
        <time>2021-09-07T07:44:59.000Z</time>
      </trkpt>
      <trkpt lat="48.39407" lon="0.84663">
        <ele>133.695788</ele>
        <time>2021-09-07T07:45:00.000Z</time>
      </trkpt>
      <trkpt lat="48.39389" lon="0.84688">
        <ele>134.086266</ele>
        <time>2021-09-07T07:45:05.000Z</time>
      </trkpt>
      <trkpt lat="48.39386" lon="0.84693">
        <ele>134.160615</ele>
        <time>2021-09-07T07:45:06.000Z</time>
      </trkpt>
      <trkpt lat="48.39373" lon="0.84716">
        <ele>134.485203</ele>
        <time>2021-09-07T07:45:10.000Z</time>
      </trkpt>
      <trkpt lat="48.39358" lon="0.84737">
        <ele>134.813698</ele>
        <time>2021-09-07T07:45:14.000Z</time>
      </trkpt>
      <trkpt lat="48.39335" lon="0.84769">
        <ele>135.3207</ele>
        <time>2021-09-07T07:45:20.000Z</time>
      </trkpt>
      <trkpt lat="48.39318" lon="0.84792">
        <ele>135.680794</ele>
        <time>2021-09-07T07:45:24.000Z</time>
      </trkpt>
      <trkpt lat="48.39314" lon="0.84797">
        <ele>135.774238</ele>
        <time>2021-09-07T07:45:25.000Z</time>
      </trkpt>
      <trkpt lat="48.39289" lon="0.84831">
        <ele>136.297324</ele>
        <time>2021-09-07T07:45:31.000Z</time>
      </trkpt>
      <trkpt lat="48.39285" lon="0.84837">
        <ele>136.274028</ele>
        <time>2021-09-07T07:45:32.000Z</time>
      </trkpt>
      <trkpt lat="48.39277" lon="0.84849">
        <ele>136.224749</ele>
        <time>2021-09-07T07:45:34.000Z</time>
      </trkpt>
      <trkpt lat="48.39273" lon="0.84855">
        <ele>136.197798</ele>
        <time>2021-09-07T07:45:35.000Z</time>
      </trkpt>
      <trkpt lat="48.39268" lon="0.84861">
        <ele>136.169401</ele>
        <time>2021-09-07T07:45:36.000Z</time>
      </trkpt>
      <trkpt lat="48.39258" lon="0.84873">
        <ele>136.114151</ele>
        <time>2021-09-07T07:45:38.000Z</time>
      </trkpt>
      <trkpt lat="48.39254" lon="0.84879">
        <ele>136.087845</ele>
        <time>2021-09-07T07:45:39.000Z</time>
      </trkpt>
      <trkpt lat="48.39231" lon="0.84908">
        <ele>135.957121</ele>
        <time>2021-09-07T07:45:44.000Z</time>
      </trkpt>
      <trkpt lat="48.39207" lon="0.8494">
        <ele>135.815055</ele>
        <time>2021-09-07T07:45:49.000Z</time>
      </trkpt>
      <trkpt lat="48.39184" lon="0.84973">
        <ele>135.673227</ele>
        <time>2021-09-07T07:45:54.000Z</time>
      </trkpt>
      <trkpt lat="48.39161" lon="0.85006">
        <ele>135.532005</ele>
        <time>2021-09-07T07:45:59.000Z</time>
      </trkpt>
      <trkpt lat="48.39148" lon="0.85027">
        <ele>135.218552</ele>
        <time>2021-09-07T07:46:02.000Z</time>
      </trkpt>
      <trkpt lat="48.39138" lon="0.85043">
        <ele>134.893318</ele>
        <time>2021-09-07T07:46:04.000Z</time>
      </trkpt>
      <trkpt lat="48.39127" lon="0.85057">
        <ele>134.579398</ele>
        <time>2021-09-07T07:46:06.000Z</time>
      </trkpt>
      <trkpt lat="48.39119" lon="0.85069">
        <ele>134.322922</ele>
        <time>2021-09-07T07:46:08.000Z</time>
      </trkpt>
      <trkpt lat="48.39112" lon="0.8508">
        <ele>134.103067</ele>
        <time>2021-09-07T07:46:10.000Z</time>
      </trkpt>
      <trkpt lat="48.39105" lon="0.85091">
        <ele>133.873916</ele>
        <time>2021-09-07T07:46:12.000Z</time>
      </trkpt>
      <trkpt lat="48.39102" lon="0.85096">
        <ele>133.768976</ele>
        <time>2021-09-07T07:46:13.000Z</time>
      </trkpt>
      <trkpt lat="48.39095" lon="0.85111">
        <ele>133.496211</ele>
        <time>2021-09-07T07:46:16.000Z</time>
      </trkpt>
      <trkpt lat="48.39091" lon="0.85118">
        <ele>133.372734</ele>
        <time>2021-09-07T07:46:17.000Z</time>
      </trkpt>
      <trkpt lat="48.39063" lon="0.85159">
        <ele>132.494925</ele>
        <time>2021-09-07T07:46:23.000Z</time>
      </trkpt>
      <trkpt lat="48.39035" lon="0.85206">
        <ele>131.547193</ele>
        <time>2021-09-07T07:46:29.000Z</time>
      </trkpt>
      <trkpt lat="48.39025" lon="0.85221">
        <ele>131.342039</ele>
        <time>2021-09-07T07:46:31.000Z</time>
      </trkpt>
      <trkpt lat="48.39016" lon="0.85234">
        <ele>131.163419</ele>
        <time>2021-09-07T07:46:33.000Z</time>
      </trkpt>
      <trkpt lat="48.39012" lon="0.8524">
        <ele>131.078279</ele>
        <time>2021-09-07T07:46:34.000Z</time>
      </trkpt>
      <trkpt lat="48.38998" lon="0.85255">
        <ele>130.831492</ele>
        <time>2021-09-07T07:46:37.000Z</time>
      </trkpt>
      <trkpt lat="48.38993" lon="0.8526">
        <ele>130.749347</ele>
        <time>2021-09-07T07:46:38.000Z</time>
      </trkpt>
      <trkpt lat="48.38982" lon="0.85271">
        <ele>130.557718</ele>
        <time>2021-09-07T07:46:40.000Z</time>
      </trkpt>
      <trkpt lat="48.38975" lon="0.85277">
        <ele>130.45482</ele>
        <time>2021-09-07T07:46:41.000Z</time>
      </trkpt>
      <trkpt lat="48.38948" lon="0.853">
        <ele>130.007984</ele>
        <time>2021-09-07T07:46:46.000Z</time>
      </trkpt>
      <trkpt lat="48.38936" lon="0.85309">
        <ele>129.820615</ele>
        <time>2021-09-07T07:46:48.000Z</time>
      </trkpt>
      <trkpt lat="48.38913" lon="0.85322">
        <ele>129.473918</ele>
        <time>2021-09-07T07:46:52.000Z</time>
      </trkpt>
      <trkpt lat="48.38898" lon="0.85329">
        <ele>129.246497</ele>
        <time>2021-09-07T07:46:55.000Z</time>
      </trkpt>
      <trkpt lat="48.38892" lon="0.8533">
        <ele>129.15909</ele>
        <time>2021-09-07T07:46:56.000Z</time>
      </trkpt>
      <trkpt lat="48.38877" lon="0.85333">
        <ele>128.95646</ele>
        <time>2021-09-07T07:46:58.000Z</time>
      </trkpt>
      <trkpt lat="48.3887" lon="0.85333">
        <ele>128.895815</ele>
        <time>2021-09-07T07:46:59.000Z</time>
      </trkpt>
      <trkpt lat="48.38854" lon="0.85337">
        <ele>128.758122</ele>
        <time>2021-09-07T07:47:02.000Z</time>
      </trkpt>
      <trkpt lat="48.38849" lon="0.85338">
        <ele>128.718541</ele>
        <time>2021-09-07T07:47:03.000Z</time>
      </trkpt>
      <trkpt lat="48.38841" lon="0.85338">
        <ele>128.648501</ele>
        <time>2021-09-07T07:47:05.000Z</time>
      </trkpt>
      <trkpt lat="48.38831" lon="0.85337">
        <ele>128.570138</ele>
        <time>2021-09-07T07:47:07.000Z</time>
      </trkpt>
      <trkpt lat="48.38812" lon="0.85336">
        <ele>128.415167</ele>
        <time>2021-09-07T07:47:11.000Z</time>
      </trkpt>
      <trkpt lat="48.38796" lon="0.85334">
        <ele>128.28055</ele>
        <time>2021-09-07T07:47:15.000Z</time>
      </trkpt>
      <trkpt lat="48.38779" lon="0.85329">
        <ele>128.135904</ele>
        <time>2021-09-07T07:47:20.000Z</time>
      </trkpt>
      <trkpt lat="48.38765" lon="0.85323">
        <ele>128.018989</ele>
        <time>2021-09-07T07:47:24.000Z</time>
      </trkpt>
      <trkpt lat="48.38758" lon="0.85318">
        <ele>127.950117</ele>
        <time>2021-09-07T07:47:26.000Z</time>
      </trkpt>
      <trkpt lat="48.38748" lon="0.85314">
        <ele>127.871222</ele>
        <time>2021-09-07T07:47:28.000Z</time>
      </trkpt>
      <trkpt lat="48.38739" lon="0.85305">
        <ele>127.776578</ele>
        <time>2021-09-07T07:47:31.000Z</time>
      </trkpt>
      <trkpt lat="48.38736" lon="0.853">
        <ele>127.740334</ele>
        <time>2021-09-07T07:47:32.000Z</time>
      </trkpt>
      <trkpt lat="48.38732" lon="0.85293">
        <ele>127.692125</ele>
        <time>2021-09-07T07:47:33.000Z</time>
      </trkpt>
      <trkpt lat="48.38726" lon="0.85282">
        <ele>127.609711</ele>
        <time>2021-09-07T07:47:35.000Z</time>
      </trkpt>
      <trkpt lat="48.38721" lon="0.85275">
        <ele>127.556346</ele>
        <time>2021-09-07T07:47:36.000Z</time>
      </trkpt>
      <trkpt lat="48.38689" lon="0.85239">
        <ele>126.772976</ele>
        <time>2021-09-07T07:47:42.000Z</time>
      </trkpt>
      <trkpt lat="48.38669" lon="0.85215">
        <ele>126.138457</ele>
        <time>2021-09-07T07:47:47.000Z</time>
      </trkpt>
      <trkpt lat="48.38659" lon="0.85203">
        <ele>125.83183</ele>
        <time>2021-09-07T07:47:50.000Z</time>
      </trkpt>
      <trkpt lat="48.38643" lon="0.85181">
        <ele>125.319529</ele>
        <time>2021-09-07T07:47:54.000Z</time>
      </trkpt>
      <trkpt lat="48.3864" lon="0.85176">
        <ele>125.202064</ele>
        <time>2021-09-07T07:47:55.000Z</time>
      </trkpt>
      <trkpt lat="48.38632" lon="0.85165">
        <ele>124.946895</ele>
        <time>2021-09-07T07:47:57.000Z</time>
      </trkpt>
      <trkpt lat="48.38627" lon="0.85158">
        <ele>124.776247</ele>
        <time>2021-09-07T07:47:58.000Z</time>
      </trkpt>
      <trkpt lat="48.38617" lon="0.85144">
        <ele>124.45078</ele>
        <time>2021-09-07T07:48:00.000Z</time>
      </trkpt>
      <trkpt lat="48.38611" lon="0.85138">
        <ele>124.277648</ele>
        <time>2021-09-07T07:48:01.000Z</time>
      </trkpt>
      <trkpt lat="48.38581" lon="0.851">
        <ele>123.329283</ele>
        <time>2021-09-07T07:48:07.000Z</time>
      </trkpt>
      <trkpt lat="48.38577" lon="0.85094">
        <ele>123.185173</ele>
        <time>2021-09-07T07:48:08.000Z</time>
      </trkpt>
      <trkpt lat="48.38564" lon="0.8507">
        <ele>122.979109</ele>
        <time>2021-09-07T07:48:12.000Z</time>
      </trkpt>
      <trkpt lat="48.38554" lon="0.85055">
        <ele>122.872867</ele>
        <time>2021-09-07T07:48:15.000Z</time>
      </trkpt>
      <trkpt lat="48.3855" lon="0.85051">
        <ele>122.836277</ele>
        <time>2021-09-07T07:48:16.000Z</time>
      </trkpt>
      <trkpt lat="48.38531" lon="0.85039">
        <ele>122.679785</ele>
        <time>2021-09-07T07:48:21.000Z</time>
      </trkpt>
      <trkpt lat="48.38511" lon="0.85009">
        <ele>122.46299</ele>
        <time>2021-09-07T07:48:28.000Z</time>
      </trkpt>
      <trkpt lat="48.38497" lon="0.8499">
        <ele>122.323618</ele>
        <time>2021-09-07T07:48:33.000Z</time>
      </trkpt>
      <trkpt lat="48.38494" lon="0.84988">
        <ele>122.295388</ele>
        <time>2021-09-07T07:48:34.000Z</time>
      </trkpt>
      <trkpt lat="48.3848" lon="0.8497">
        <ele>122.153528</ele>
        <time>2021-09-07T07:48:39.000Z</time>
      </trkpt>
      <trkpt lat="48.38469" lon="0.84952">
        <ele>122.029455</ele>
        <time>2021-09-07T07:48:44.000Z</time>
      </trkpt>
      <trkpt lat="48.3846" lon="0.8494">
        <ele>121.940569</ele>
        <time>2021-09-07T07:48:48.000Z</time>
      </trkpt>
      <trkpt lat="48.38447" lon="0.84919">
        <ele>121.79082</ele>
        <time>2021-09-07T07:48:54.000Z</time>
      </trkpt>
      <trkpt lat="48.38442" lon="0.84909">
        <ele>121.752101</ele>
        <time>2021-09-07T07:48:56.000Z</time>
      </trkpt>
      <trkpt lat="48.38437" lon="0.84898">
        <ele>121.810877</ele>
        <time>2021-09-07T07:48:58.000Z</time>
      </trkpt>
      <trkpt lat="48.38433" lon="0.84892">
        <ele>121.84364</ele>
        <time>2021-09-07T07:48:59.000Z</time>
      </trkpt>
      <trkpt lat="48.38406" lon="0.84858">
        <ele>122.072058</ele>
        <time>2021-09-07T07:49:06.000Z</time>
      </trkpt>
      <trkpt lat="48.38383" lon="0.84837">
        <ele>122.247812</ele>
        <time>2021-09-07T07:49:12.000Z</time>
      </trkpt>
      <trkpt lat="48.38369" lon="0.84824">
        <ele>122.351793</ele>
        <time>2021-09-07T07:49:16.000Z</time>
      </trkpt>
      <trkpt lat="48.38365" lon="0.84823">
        <ele>122.37834</ele>
        <time>2021-09-07T07:49:17.000Z</time>
      </trkpt>
      <trkpt lat="48.38362" lon="0.8482">
        <ele>122.406321</ele>
        <time>2021-09-07T07:49:18.000Z</time>
      </trkpt>
      <trkpt lat="48.38347" lon="0.84806">
        <ele>122.514625</ele>
        <time>2021-09-07T07:49:22.000Z</time>
      </trkpt>
      <trkpt lat="48.38336" lon="0.84797">
        <ele>122.597526</ele>
        <time>2021-09-07T07:49:25.000Z</time>
      </trkpt>
      <trkpt lat="48.38328" lon="0.84784">
        <ele>122.675381</ele>
        <time>2021-09-07T07:49:28.000Z</time>
      </trkpt>
      <trkpt lat="48.38318" lon="0.84768">
        <ele>122.768053</ele>
        <time>2021-09-07T07:49:33.000Z</time>
      </trkpt>
      <trkpt lat="48.38317" lon="0.84767">
        <ele>122.774521</ele>
        <time>2021-09-07T07:49:36.000Z</time>
      </trkpt>
      <trkpt lat="48.38315" lon="0.84761">
        <ele>122.804943</ele>
        <time>2021-09-07T07:53:25.000Z</time>
      </trkpt>
      <trkpt lat="48.38314" lon="0.84759">
        <ele>122.81957</ele>
        <time>2021-09-07T07:53:26.000Z</time>
      </trkpt>
      <trkpt lat="48.38302" lon="0.8474">
        <ele>122.926099</ele>
        <time>2021-09-07T07:53:31.000Z</time>
      </trkpt>
      <trkpt lat="48.3829" lon="0.84723">
        <ele>123.024596</ele>
        <time>2021-09-07T07:53:36.000Z</time>
      </trkpt>
      <trkpt lat="48.38287" lon="0.84718">
        <ele>123.048262</ele>
        <time>2021-09-07T07:53:38.000Z</time>
      </trkpt>
      <trkpt lat="48.38286" lon="0.84713">
        <ele>123.070935</ele>
        <time>2021-09-07T07:53:40.000Z</time>
      </trkpt>
      <trkpt lat="48.38277" lon="0.84694">
        <ele>123.160557</ele>
        <time>2021-09-07T07:53:45.000Z</time>
      </trkpt>
      <trkpt lat="48.38263" lon="0.84668">
        <ele>123.290766</ele>
        <time>2021-09-07T07:53:51.000Z</time>
      </trkpt>
      <trkpt lat="48.38247" lon="0.8464">
        <ele>123.432192</ele>
        <time>2021-09-07T07:53:58.000Z</time>
      </trkpt>
      <trkpt lat="48.38236" lon="0.84621">
        <ele>123.530963</ele>
        <time>2021-09-07T07:54:03.000Z</time>
      </trkpt>
      <trkpt lat="48.38225" lon="0.84597">
        <ele>123.645961</ele>
        <time>2021-09-07T07:54:08.000Z</time>
      </trkpt>
      <trkpt lat="48.38213" lon="0.84577">
        <ele>123.751605</ele>
        <time>2021-09-07T07:54:12.000Z</time>
      </trkpt>
      <trkpt lat="48.38207" lon="0.84565">
        <ele>123.810875</ele>
        <time>2021-09-07T07:54:14.000Z</time>
      </trkpt>
      <trkpt lat="48.382" lon="0.84552">
        <ele>123.873809</ele>
        <time>2021-09-07T07:54:16.000Z</time>
      </trkpt>
      <trkpt lat="48.38189" lon="0.84533">
        <ele>123.925345</ele>
        <time>2021-09-07T07:54:19.000Z</time>
      </trkpt>
      <trkpt lat="48.38179" lon="0.84512">
        <ele>123.65892</ele>
        <time>2021-09-07T07:54:22.000Z</time>
      </trkpt>
      <trkpt lat="48.38176" lon="0.84497">
        <ele>123.497639</ele>
        <time>2021-09-07T07:54:24.000Z</time>
      </trkpt>
      <trkpt lat="48.38179" lon="0.84473">
        <ele>123.253667</ele>
        <time>2021-09-07T07:54:27.000Z</time>
      </trkpt>
      <trkpt lat="48.38178" lon="0.84467">
        <ele>123.185576</ele>
        <time>2021-09-07T07:54:28.000Z</time>
      </trkpt>
      <trkpt lat="48.38176" lon="0.8446">
        <ele>123.111019</ele>
        <time>2021-09-07T07:54:29.000Z</time>
      </trkpt>
      <trkpt lat="48.38169" lon="0.84448">
        <ele>122.9564</ele>
        <time>2021-09-07T07:54:31.000Z</time>
      </trkpt>
      <trkpt lat="48.38166" lon="0.84443">
        <ele>122.876821</ele>
        <time>2021-09-07T07:54:32.000Z</time>
      </trkpt>
      <trkpt lat="48.3814" lon="0.84406">
        <ele>122.339225</ele>
        <time>2021-09-07T07:54:39.000Z</time>
      </trkpt>
      <trkpt lat="48.38116" lon="0.84377">
        <ele>121.861688</ele>
        <time>2021-09-07T07:54:45.000Z</time>
      </trkpt>
      <trkpt lat="48.38087" lon="0.8435">
        <ele>121.33424</ele>
        <time>2021-09-07T07:54:52.000Z</time>
      </trkpt>
      <trkpt lat="48.38055" lon="0.84321">
        <ele>120.525184</ele>
        <time>2021-09-07T07:55:00.000Z</time>
      </trkpt>
      <trkpt lat="48.38052" lon="0.84317">
        <ele>120.42399</ele>
        <time>2021-09-07T07:55:01.000Z</time>
      </trkpt>
      <trkpt lat="48.38045" lon="0.843">
        <ele>120.105312</ele>
        <time>2021-09-07T07:55:04.000Z</time>
      </trkpt>
      <trkpt lat="48.3803" lon="0.84255">
        <ele>119.284844</ele>
        <time>2021-09-07T07:55:11.000Z</time>
      </trkpt>
      <trkpt lat="48.38028" lon="0.84248">
        <ele>119.171707</ele>
        <time>2021-09-07T07:55:12.000Z</time>
      </trkpt>
      <trkpt lat="48.3802" lon="0.84235">
        <ele>118.885855</ele>
        <time>2021-09-07T07:55:15.000Z</time>
      </trkpt>
      <trkpt lat="48.38011" lon="0.84241">
        <ele>118.653358</ele>
        <time>2021-09-07T07:55:18.000Z</time>
      </trkpt>
      <trkpt lat="48.38008" lon="0.84249">
        <ele>118.504451</ele>
        <time>2021-09-07T07:55:20.000Z</time>
      </trkpt>
      <trkpt lat="48.38008" lon="0.84253">
        <ele>118.440423</ele>
        <time>2021-09-07T07:55:21.000Z</time>
      </trkpt>
      <trkpt lat="48.38012" lon="0.84263">
        <ele>118.268049</ele>
        <time>2021-09-07T07:55:26.000Z</time>
      </trkpt>
      <trkpt lat="48.38008" lon="0.84267">
        <ele>118.147795</ele>
        <time>2021-09-07T07:56:02.000Z</time>
      </trkpt>
      <trkpt lat="48.38004" lon="0.84268">
        <ele>118.053003</ele>
        <time>2021-09-07T07:56:04.000Z</time>
      </trkpt>
      <trkpt lat="48.3799" lon="0.84265">
        <ele>117.715474</ele>
        <time>2021-09-07T07:56:08.000Z</time>
      </trkpt>
      <trkpt lat="48.37986" lon="0.84264">
        <ele>117.616199</ele>
        <time>2021-09-07T07:56:09.000Z</time>
      </trkpt>
      <trkpt lat="48.37982" lon="0.84261">
        <ele>117.516469</ele>
        <time>2021-09-07T07:56:10.000Z</time>
      </trkpt>
      <trkpt lat="48.37976" lon="0.84253">
        <ele>117.308637</ele>
        <time>2021-09-07T07:56:12.000Z</time>
      </trkpt>
      <trkpt lat="48.37973" lon="0.84249">
        <ele>117.208202</ele>
        <time>2021-09-07T07:56:13.000Z</time>
      </trkpt>
      <trkpt lat="48.37969" lon="0.84246">
        <ele>117.111798</ele>
        <time>2021-09-07T07:56:14.000Z</time>
      </trkpt>
      <trkpt lat="48.37962" lon="0.84247">
        <ele>116.93581</ele>
        <time>2021-09-07T07:56:16.000Z</time>
      </trkpt>
      <trkpt lat="48.37955" lon="0.84248">
        <ele>116.818372</ele>
        <time>2021-09-07T07:56:18.000Z</time>
      </trkpt>
      <trkpt lat="48.37947" lon="0.84244">
        <ele>116.723526</ele>
        <time>2021-09-07T07:56:20.000Z</time>
      </trkpt>
      <trkpt lat="48.37939" lon="0.84245">
        <ele>116.630114</ele>
        <time>2021-09-07T07:56:22.000Z</time>
      </trkpt>
      <trkpt lat="48.37935" lon="0.84246">
        <ele>116.586893</ele>
        <time>2021-09-07T07:56:23.000Z</time>
      </trkpt>
      <trkpt lat="48.37925" lon="0.84245">
        <ele>116.47127</ele>
        <time>2021-09-07T07:56:26.000Z</time>
      </trkpt>
      <trkpt lat="48.37923" lon="0.84243">
        <ele>116.439908</ele>
        <time>2021-09-07T07:56:27.000Z</time>
      </trkpt>
      <trkpt lat="48.3792" lon="0.84234">
        <ele>116.356509</ele>
        <time>2021-09-07T07:56:31.000Z</time>
      </trkpt>
      <trkpt lat="48.37921" lon="0.84241">
        <ele>116.294604</ele>
        <time>2021-09-07T07:59:59.000Z</time>
      </trkpt>
      <trkpt lat="48.37923" lon="0.84245">
        <ele>116.257777</ele>
        <time>2021-09-07T08:00:01.000Z</time>
      </trkpt>
      <trkpt lat="48.37929" lon="0.84247">
        <ele>116.184722</ele>
        <time>2021-09-07T08:00:06.000Z</time>
      </trkpt>
      <trkpt lat="48.37941" lon="0.84243">
        <ele>116.042025</ele>
        <time>2021-09-07T08:00:11.000Z</time>
      </trkpt>
      <trkpt lat="48.37944" lon="0.84242">
        <ele>116.009006</ele>
        <time>2021-09-07T08:00:12.000Z</time>
      </trkpt>
      <trkpt lat="48.37953" lon="0.84247">
        <ele>115.893192</ele>
        <time>2021-09-07T08:00:15.000Z</time>
      </trkpt>
      <trkpt lat="48.37964" lon="0.84245">
        <ele>115.766637</ele>
        <time>2021-09-07T08:00:18.000Z</time>
      </trkpt>
      <trkpt lat="48.3797" lon="0.84241">
        <ele>115.692548</ele>
        <time>2021-09-07T08:00:20.000Z</time>
      </trkpt>
      <trkpt lat="48.37973" lon="0.84246">
        <ele>115.643652</ele>
        <time>2021-09-07T08:00:22.000Z</time>
      </trkpt>
      <trkpt lat="48.37978" lon="0.84271">
        <ele>115.436861</ele>
        <time>2021-09-07T08:00:27.000Z</time>
      </trkpt>
      <trkpt lat="48.37983" lon="0.84287">
        <ele>115.298123</ele>
        <time>2021-09-07T08:00:30.000Z</time>
      </trkpt>
      <trkpt lat="48.37982" lon="0.84298">
        <ele>115.212565</ele>
        <time>2021-09-07T08:00:32.000Z</time>
      </trkpt>
      <trkpt lat="48.37974" lon="0.84301">
        <ele>115.118766</ele>
        <time>2021-09-07T08:00:34.000Z</time>
      </trkpt>
      <trkpt lat="48.37969" lon="0.843">
        <ele>115.065864</ele>
        <time>2021-09-07T08:00:35.000Z</time>
      </trkpt>
      <trkpt lat="48.37965" lon="0.84299">
        <ele>115.012369</ele>
        <time>2021-09-07T08:00:36.000Z</time>
      </trkpt>
      <trkpt lat="48.37952" lon="0.84295">
        <ele>114.858757</ele>
        <time>2021-09-07T08:00:39.000Z</time>
      </trkpt>
      <trkpt lat="48.37948" lon="0.84295">
        <ele>114.812058</ele>
        <time>2021-09-07T08:00:40.000Z</time>
      </trkpt>
      <trkpt lat="48.37931" lon="0.84297">
        <ele>114.676217</ele>
        <time>2021-09-07T08:00:44.000Z</time>
      </trkpt>
      <trkpt lat="48.37927" lon="0.84297">
        <ele>114.64668</ele>
        <time>2021-09-07T08:00:45.000Z</time>
      </trkpt>
      <trkpt lat="48.37923" lon="0.84299">
        <ele>114.615215</ele>
        <time>2021-09-07T08:00:46.000Z</time>
      </trkpt>
      <trkpt lat="48.37911" lon="0.84308">
        <ele>114.523037</ele>
        <time>2021-09-07T08:00:49.000Z</time>
      </trkpt>
      <trkpt lat="48.37904" lon="0.84316">
        <ele>114.454673</ele>
        <time>2021-09-07T08:00:51.000Z</time>
      </trkpt>
      <trkpt lat="48.37896" lon="0.84327">
        <ele>114.379652</ele>
        <time>2021-09-07T08:00:53.000Z</time>
      </trkpt>
      <trkpt lat="48.37892" lon="0.84333">
        <ele>114.341078</ele>
        <time>2021-09-07T08:00:54.000Z</time>
      </trkpt>
      <trkpt lat="48.37889" lon="0.84339">
        <ele>114.303973</ele>
        <time>2021-09-07T08:00:55.000Z</time>
      </trkpt>
      <trkpt lat="48.37882" lon="0.8435">
        <ele>114.234939</ele>
        <time>2021-09-07T08:00:57.000Z</time>
      </trkpt>
      <trkpt lat="48.37877" lon="0.84361">
        <ele>114.168808</ele>
        <time>2021-09-07T08:00:59.000Z</time>
      </trkpt>
      <trkpt lat="48.37872" lon="0.84372">
        <ele>114.106054</ele>
        <time>2021-09-07T08:01:01.000Z</time>
      </trkpt>
      <trkpt lat="48.37865" lon="0.84388">
        <ele>114.016902</ele>
        <time>2021-09-07T08:01:04.000Z</time>
      </trkpt>
      <trkpt lat="48.37857" lon="0.84402">
        <ele>113.9258</ele>
        <time>2021-09-07T08:01:07.000Z</time>
      </trkpt>
      <trkpt lat="48.37849" lon="0.84417">
        <ele>113.839356</ele>
        <time>2021-09-07T08:01:10.000Z</time>
      </trkpt>
      <trkpt lat="48.37834" lon="0.84454">
        <ele>113.630245</ele>
        <time>2021-09-07T08:01:18.000Z</time>
      </trkpt>
      <trkpt lat="48.37832" lon="0.8446">
        <ele>113.600652</ele>
        <time>2021-09-07T08:01:19.000Z</time>
      </trkpt>
      <trkpt lat="48.37829" lon="0.84472">
        <ele>113.537292</ele>
        <time>2021-09-07T08:01:21.000Z</time>
      </trkpt>
      <trkpt lat="48.37828" lon="0.84479">
        <ele>113.504593</ele>
        <time>2021-09-07T08:01:22.000Z</time>
      </trkpt>
      <trkpt lat="48.37822" lon="0.84517">
        <ele>113.363281</ele>
        <time>2021-09-07T08:01:27.000Z</time>
      </trkpt>
      <trkpt lat="48.3782" lon="0.84524">
        <ele>113.335176</ele>
        <time>2021-09-07T08:01:28.000Z</time>
      </trkpt>
      <trkpt lat="48.37815" lon="0.84546">
        <ele>113.254892</ele>
        <time>2021-09-07T08:01:31.000Z</time>
      </trkpt>
      <trkpt lat="48.37821" lon="0.84555">
        <ele>113.207695</ele>
        <time>2021-09-07T08:01:33.000Z</time>
      </trkpt>
      <trkpt lat="48.37826" lon="0.84556">
        <ele>113.180572</ele>
        <time>2021-09-07T08:01:34.000Z</time>
      </trkpt>
      <trkpt lat="48.37841" lon="0.84558">
        <ele>113.101257</ele>
        <time>2021-09-07T08:01:37.000Z</time>
      </trkpt>
      <trkpt lat="48.37851" lon="0.84559">
        <ele>113.048154</ele>
        <time>2021-09-07T08:01:39.000Z</time>
      </trkpt>
      <trkpt lat="48.37862" lon="0.84558">
        <ele>112.991855</ele>
        <time>2021-09-07T08:01:42.000Z</time>
      </trkpt>
      <trkpt lat="48.37854" lon="0.84556">
        <ele>112.95242</ele>
        <time>2021-09-07T08:01:45.000Z</time>
      </trkpt>
      <trkpt lat="48.37837" lon="0.84557">
        <ele>112.86163</ele>
        <time>2021-09-07T08:01:49.000Z</time>
      </trkpt>
      <trkpt lat="48.37833" lon="0.84557">
        <ele>112.836139</ele>
        <time>2021-09-07T08:01:50.000Z</time>
      </trkpt>
      <trkpt lat="48.37828" lon="0.84556">
        <ele>112.810582</ele>
        <time>2021-09-07T08:01:51.000Z</time>
      </trkpt>
      <trkpt lat="48.37814" lon="0.84554">
        <ele>112.736524</ele>
        <time>2021-09-07T08:01:54.000Z</time>
      </trkpt>
      <trkpt lat="48.3781" lon="0.84556">
        <ele>112.712644</ele>
        <time>2021-09-07T08:01:55.000Z</time>
      </trkpt>
      <trkpt lat="48.37806" lon="0.84561">
        <ele>112.687758</ele>
        <time>2021-09-07T08:01:56.000Z</time>
      </trkpt>
      <trkpt lat="48.37804" lon="0.84568">
        <ele>112.660902</ele>
        <time>2021-09-07T08:01:57.000Z</time>
      </trkpt>
      <trkpt lat="48.37804" lon="0.84576">
        <ele>112.63333</ele>
        <time>2021-09-07T08:01:58.000Z</time>
      </trkpt>
      <trkpt lat="48.37802" lon="0.846">
        <ele>112.54832</ele>
        <time>2021-09-07T08:02:01.000Z</time>
      </trkpt>
      <trkpt lat="48.37801" lon="0.84608">
        <ele>112.536425</ele>
        <time>2021-09-07T08:02:02.000Z</time>
      </trkpt>
      <trkpt lat="48.37796" lon="0.84631">
        <ele>112.577356</ele>
        <time>2021-09-07T08:02:05.000Z</time>
      </trkpt>
      <trkpt lat="48.3779" lon="0.84664">
        <ele>112.633558</ele>
        <time>2021-09-07T08:02:09.000Z</time>
      </trkpt>
      <trkpt lat="48.37791" lon="0.84672">
        <ele>112.646887</ele>
        <time>2021-09-07T08:02:10.000Z</time>
      </trkpt>
      <trkpt lat="48.37794" lon="0.8468">
        <ele>112.660493</ele>
        <time>2021-09-07T08:02:11.000Z</time>
      </trkpt>
      <trkpt lat="48.37803" lon="0.84689">
        <ele>112.688518</ele>
        <time>2021-09-07T08:02:13.000Z</time>
      </trkpt>
      <trkpt lat="48.37834" lon="0.84714">
        <ele>112.774168</ele>
        <time>2021-09-07T08:02:19.000Z</time>
      </trkpt>
      <trkpt lat="48.37844" lon="0.84722">
        <ele>112.802392</ele>
        <time>2021-09-07T08:02:21.000Z</time>
      </trkpt>
      <trkpt lat="48.37862" lon="0.84741">
        <ele>112.857637</ele>
        <time>2021-09-07T08:02:25.000Z</time>
      </trkpt>
      <trkpt lat="48.3789" lon="0.84769">
        <ele>112.940379</ele>
        <time>2021-09-07T08:02:31.000Z</time>
      </trkpt>
      <trkpt lat="48.37906" lon="0.84787">
        <ele>113.06742</ele>
        <time>2021-09-07T08:02:35.000Z</time>
      </trkpt>
      <trkpt lat="48.37914" lon="0.84796">
        <ele>113.215761</ele>
        <time>2021-09-07T08:02:37.000Z</time>
      </trkpt>
      <trkpt lat="48.3793" lon="0.84815">
        <ele>113.52209</ele>
        <time>2021-09-07T08:02:42.000Z</time>
      </trkpt>
      <trkpt lat="48.37953" lon="0.84844">
        <ele>113.974259</ele>
        <time>2021-09-07T08:02:50.000Z</time>
      </trkpt>
      <trkpt lat="48.37968" lon="0.84868">
        <ele>114.31038</ele>
        <time>2021-09-07T08:02:56.000Z</time>
      </trkpt>
      <trkpt lat="48.37979" lon="0.84901">
        <ele>114.677734</ele>
        <time>2021-09-07T08:03:02.000Z</time>
      </trkpt>
      <trkpt lat="48.37985" lon="0.84922">
        <ele>114.907031</ele>
        <time>2021-09-07T08:03:06.000Z</time>
      </trkpt>
      <trkpt lat="48.37989" lon="0.84926">
        <ele>114.970229</ele>
        <time>2021-09-07T08:03:07.000Z</time>
      </trkpt>
      <trkpt lat="48.38004" lon="0.84943">
        <ele>115.258386</ele>
        <time>2021-09-07T08:03:12.000Z</time>
      </trkpt>
      <trkpt lat="48.38011" lon="0.84962">
        <ele>115.476813</ele>
        <time>2021-09-07T08:03:16.000Z</time>
      </trkpt>
      <trkpt lat="48.38011" lon="0.84967">
        <ele>115.53637</ele>
        <time>2021-09-07T08:03:17.000Z</time>
      </trkpt>
      <trkpt lat="48.38007" lon="0.84977">
        <ele>115.649719</ele>
        <time>2021-09-07T08:03:19.000Z</time>
      </trkpt>
      <trkpt lat="48.38003" lon="0.84987">
        <ele>115.77227</ele>
        <time>2021-09-07T08:03:21.000Z</time>
      </trkpt>
      <trkpt lat="48.37996" lon="0.85009">
        <ele>116.029444</ele>
        <time>2021-09-07T08:03:25.000Z</time>
      </trkpt>
      <trkpt lat="48.37994" lon="0.85022">
        <ele>116.163009</ele>
        <time>2021-09-07T08:03:27.000Z</time>
      </trkpt>
      <trkpt lat="48.37998" lon="0.85037">
        <ele>116.323852</ele>
        <time>2021-09-07T08:03:29.000Z</time>
      </trkpt>
      <trkpt lat="48.37999" lon="0.85042">
        <ele>116.387795</ele>
        <time>2021-09-07T08:03:30.000Z</time>
      </trkpt>
      <trkpt lat="48.38004" lon="0.85059">
        <ele>116.57788</ele>
        <time>2021-09-07T08:03:33.000Z</time>
      </trkpt>
      <trkpt lat="48.38005" lon="0.85066">
        <ele>116.652981</ele>
        <time>2021-09-07T08:03:34.000Z</time>
      </trkpt>
      <trkpt lat="48.38004" lon="0.85092">
        <ele>116.926055</ele>
        <time>2021-09-07T08:03:38.000Z</time>
      </trkpt>
      <trkpt lat="48.38" lon="0.85104">
        <ele>117.062422</ele>
        <time>2021-09-07T08:03:40.000Z</time>
      </trkpt>
      <trkpt lat="48.37981" lon="0.85144">
        <ele>117.572541</ele>
        <time>2021-09-07T08:03:46.000Z</time>
      </trkpt>
      <trkpt lat="48.37959" lon="0.85195">
        <ele>118.207592</ele>
        <time>2021-09-07T08:03:53.000Z</time>
      </trkpt>
      <trkpt lat="48.37938" lon="0.8524">
        <ele>118.571434</ele>
        <time>2021-09-07T08:03:59.000Z</time>
      </trkpt>
      <trkpt lat="48.37912" lon="0.85283">
        <ele>118.682119</ele>
        <time>2021-09-07T08:04:05.000Z</time>
      </trkpt>
      <trkpt lat="48.37874" lon="0.85341">
        <ele>118.833534</ele>
        <time>2021-09-07T08:04:13.000Z</time>
      </trkpt>
      <trkpt lat="48.3785" lon="0.85388">
        <ele>118.945859</ele>
        <time>2021-09-07T08:04:19.000Z</time>
      </trkpt>
      <trkpt lat="48.37847" lon="0.85396">
        <ele>118.963896</ele>
        <time>2021-09-07T08:04:20.000Z</time>
      </trkpt>
      <trkpt lat="48.37832" lon="0.85439">
        <ele>119.036473</ele>
        <time>2021-09-07T08:04:25.000Z</time>
      </trkpt>
      <trkpt lat="48.3781" lon="0.85498">
        <ele>119.04427</ele>
        <time>2021-09-07T08:04:32.000Z</time>
      </trkpt>
      <trkpt lat="48.37787" lon="0.85561">
        <ele>119.052528</ele>
        <time>2021-09-07T08:04:40.000Z</time>
      </trkpt>
      <trkpt lat="48.37764" lon="0.85617">
        <ele>119.060099</ele>
        <time>2021-09-07T08:04:48.000Z</time>
      </trkpt>
      <trkpt lat="48.37741" lon="0.85661">
        <ele>119.067505</ele>
        <time>2021-09-07T08:04:55.000Z</time>
      </trkpt>
      <trkpt lat="48.37708" lon="0.85701">
        <ele>119.132782</ele>
        <time>2021-09-07T08:05:02.000Z</time>
      </trkpt>
      <trkpt lat="48.37681" lon="0.85732">
        <ele>119.184453</ele>
        <time>2021-09-07T08:05:08.000Z</time>
      </trkpt>
      <trkpt lat="48.3767" lon="0.85747">
        <ele>119.206806</ele>
        <time>2021-09-07T08:05:11.000Z</time>
      </trkpt>
      <trkpt lat="48.37664" lon="0.85757">
        <ele>119.220711</ele>
        <time>2021-09-07T08:05:13.000Z</time>
      </trkpt>
      <trkpt lat="48.3766" lon="0.85761">
        <ele>119.227494</ele>
        <time>2021-09-07T08:05:14.000Z</time>
      </trkpt>
      <trkpt lat="48.37656" lon="0.85763">
        <ele>119.234429</ele>
        <time>2021-09-07T08:05:15.000Z</time>
      </trkpt>
      <trkpt lat="48.37647" lon="0.85768">
        <ele>119.248755</ele>
        <time>2021-09-07T08:05:17.000Z</time>
      </trkpt>
      <trkpt lat="48.37643" lon="0.85772">
        <ele>119.256268</ele>
        <time>2021-09-07T08:05:18.000Z</time>
      </trkpt>
      <trkpt lat="48.37634" lon="0.85776">
        <ele>119.270239</ele>
        <time>2021-09-07T08:05:20.000Z</time>
      </trkpt>
      <trkpt lat="48.37624" lon="0.85775">
        <ele>119.285717</ele>
        <time>2021-09-07T08:05:22.000Z</time>
      </trkpt>
      <trkpt lat="48.37588" lon="0.85763">
        <ele>119.340921</ele>
        <time>2021-09-07T08:05:28.000Z</time>
      </trkpt>
      <trkpt lat="48.37569" lon="0.85759">
        <ele>119.333877</ele>
        <time>2021-09-07T08:05:31.000Z</time>
      </trkpt>
      <trkpt lat="48.37548" lon="0.85759">
        <ele>119.326596</ele>
        <time>2021-09-07T08:05:34.000Z</time>
      </trkpt>
      <trkpt lat="48.37505" lon="0.85765">
        <ele>119.311329</ele>
        <time>2021-09-07T08:05:41.000Z</time>
      </trkpt>
      <trkpt lat="48.37454" lon="0.85774">
        <ele>119.293502</ele>
        <time>2021-09-07T08:05:50.000Z</time>
      </trkpt>
      <trkpt lat="48.37405" lon="0.85785">
        <ele>119.264299</ele>
        <time>2021-09-07T08:05:59.000Z</time>
      </trkpt>
      <trkpt lat="48.37364" lon="0.85792">
        <ele>119.165666</ele>
        <time>2021-09-07T08:06:06.000Z</time>
      </trkpt>
      <trkpt lat="48.37316" lon="0.85798">
        <ele>119.04687</ele>
        <time>2021-09-07T08:06:14.000Z</time>
      </trkpt>
      <trkpt lat="48.37272" lon="0.858">
        <ele>118.941124</ele>
        <time>2021-09-07T08:06:21.000Z</time>
      </trkpt>
      <trkpt lat="48.37246" lon="0.858">
        <ele>118.877782</ele>
        <time>2021-09-07T08:06:25.000Z</time>
      </trkpt>
      <trkpt lat="48.37197" lon="0.85802">
        <ele>118.683531</ele>
        <time>2021-09-07T08:06:32.000Z</time>
      </trkpt>
      <trkpt lat="48.37148" lon="0.85802">
        <ele>118.461846</ele>
        <time>2021-09-07T08:06:39.000Z</time>
      </trkpt>
      <trkpt lat="48.37093" lon="0.85804">
        <ele>118.209983</ele>
        <time>2021-09-07T08:06:47.000Z</time>
      </trkpt>
      <trkpt lat="48.37036" lon="0.85806">
        <ele>118.004861</ele>
        <time>2021-09-07T08:06:55.000Z</time>
      </trkpt>
      <trkpt lat="48.37016" lon="0.85808">
        <ele>117.987289</ele>
        <time>2021-09-07T08:06:58.000Z</time>
      </trkpt>
      <trkpt lat="48.36958" lon="0.85819">
        <ele>117.936728</ele>
        <time>2021-09-07T08:07:07.000Z</time>
      </trkpt>
      <trkpt lat="48.36909" lon="0.85835">
        <ele>117.893901</ele>
        <time>2021-09-07T08:07:15.000Z</time>
      </trkpt>
      <trkpt lat="48.36862" lon="0.85852">
        <ele>117.948216</ele>
        <time>2021-09-07T08:07:23.000Z</time>
      </trkpt>
      <trkpt lat="48.36818" lon="0.85868">
        <ele>118.28834</ele>
        <time>2021-09-07T08:07:31.000Z</time>
      </trkpt>
      <trkpt lat="48.36791" lon="0.85878">
        <ele>118.490954</ele>
        <time>2021-09-07T08:07:36.000Z</time>
      </trkpt>
      <trkpt lat="48.3675" lon="0.85894">
        <ele>118.803955</ele>
        <time>2021-09-07T08:07:44.000Z</time>
      </trkpt>
      <trkpt lat="48.36713" lon="0.85908">
        <ele>119.086135</ele>
        <time>2021-09-07T08:07:52.000Z</time>
      </trkpt>
      <trkpt lat="48.36685" lon="0.85919">
        <ele>119.602726</ele>
        <time>2021-09-07T08:07:59.000Z</time>
      </trkpt>
      <trkpt lat="48.36658" lon="0.85929">
        <ele>120.41816</ele>
        <time>2021-09-07T08:08:07.000Z</time>
      </trkpt>
      <trkpt lat="48.36641" lon="0.85936">
        <ele>120.913321</ele>
        <time>2021-09-07T08:08:13.000Z</time>
      </trkpt>
      <trkpt lat="48.36628" lon="0.85942">
        <ele>121.319716</ele>
        <time>2021-09-07T08:08:18.000Z</time>
      </trkpt>
      <trkpt lat="48.36615" lon="0.85946">
        <ele>121.691684</ele>
        <time>2021-09-07T08:08:23.000Z</time>
      </trkpt>
      <trkpt lat="48.36606" lon="0.8595">
        <ele>121.967171</ele>
        <time>2021-09-07T08:08:27.000Z</time>
      </trkpt>
      <trkpt lat="48.36588" lon="0.85956">
        <ele>122.503778</ele>
        <time>2021-09-07T08:08:33.000Z</time>
      </trkpt>
      <trkpt lat="48.36569" lon="0.8596">
        <ele>123.057288</ele>
        <time>2021-09-07T08:08:39.000Z</time>
      </trkpt>
      <trkpt lat="48.36548" lon="0.85963">
        <ele>123.66362</ele>
        <time>2021-09-07T08:08:46.000Z</time>
      </trkpt>
      <trkpt lat="48.36531" lon="0.85964">
        <ele>124.142545</ele>
        <time>2021-09-07T08:08:52.000Z</time>
      </trkpt>
      <trkpt lat="48.36516" lon="0.85966">
        <ele>124.701412</ele>
        <time>2021-09-07T08:08:57.000Z</time>
      </trkpt>
      <trkpt lat="48.36495" lon="0.85977">
        <ele>125.621748</ele>
        <time>2021-09-07T08:09:04.000Z</time>
      </trkpt>
      <trkpt lat="48.36476" lon="0.85984">
        <ele>126.447941</ele>
        <time>2021-09-07T08:09:10.000Z</time>
      </trkpt>
      <trkpt lat="48.36455" lon="0.85992">
        <ele>127.399047</ele>
        <time>2021-09-07T08:09:17.000Z</time>
      </trkpt>
      <trkpt lat="48.36427" lon="0.85997">
        <ele>128.578344</ele>
        <time>2021-09-07T08:09:25.000Z</time>
      </trkpt>
      <trkpt lat="48.36403" lon="0.85989">
        <ele>129.601211</ele>
        <time>2021-09-07T08:09:32.000Z</time>
      </trkpt>
      <trkpt lat="48.36384" lon="0.8598">
        <ele>130.457048</ele>
        <time>2021-09-07T08:09:38.000Z</time>
      </trkpt>
      <trkpt lat="48.36362" lon="0.85973">
        <ele>131.40222</ele>
        <time>2021-09-07T08:09:45.000Z</time>
      </trkpt>
      <trkpt lat="48.36347" lon="0.85981">
        <ele>132.143077</ele>
        <time>2021-09-07T08:09:51.000Z</time>
      </trkpt>
      <trkpt lat="48.36338" lon="0.85994">
        <ele>133.180314</ele>
        <time>2021-09-07T08:09:56.000Z</time>
      </trkpt>
      <trkpt lat="48.36326" lon="0.86009">
        <ele>134.50209</ele>
        <time>2021-09-07T08:10:03.000Z</time>
      </trkpt>
      <trkpt lat="48.36317" lon="0.8602">
        <ele>135.432905</ele>
        <time>2021-09-07T08:10:09.000Z</time>
      </trkpt>
      <trkpt lat="48.36309" lon="0.86026">
        <ele>136.207462</ele>
        <time>2021-09-07T08:10:13.000Z</time>
      </trkpt>
      <trkpt lat="48.36296" lon="0.86034">
        <ele>137.36009</ele>
        <time>2021-09-07T08:10:19.000Z</time>
      </trkpt>
      <trkpt lat="48.36282" lon="0.86034">
        <ele>138.494526</ele>
        <time>2021-09-07T08:10:26.000Z</time>
      </trkpt>
      <trkpt lat="48.36267" lon="0.86032">
        <ele>139.735141</ele>
        <time>2021-09-07T08:10:33.000Z</time>
      </trkpt>
      <trkpt lat="48.36254" lon="0.86031">
        <ele>140.828854</ele>
        <time>2021-09-07T08:10:39.000Z</time>
      </trkpt>
      <trkpt lat="48.36242" lon="0.86028">
        <ele>141.836861</ele>
        <time>2021-09-07T08:10:45.000Z</time>
      </trkpt>
      <trkpt lat="48.36227" lon="0.86024">
        <ele>143.100018</ele>
        <time>2021-09-07T08:10:52.000Z</time>
      </trkpt>
      <trkpt lat="48.36222" lon="0.86023">
        <ele>143.515282</ele>
        <time>2021-09-07T08:10:56.000Z</time>
      </trkpt>
      <trkpt lat="48.36211" lon="0.8602">
        <ele>144.44895</ele>
        <time>2021-09-07T08:11:02.000Z</time>
      </trkpt>
      <trkpt lat="48.36201" lon="0.86017">
        <ele>145.2728</ele>
        <time>2021-09-07T08:11:08.000Z</time>
      </trkpt>
      <trkpt lat="48.36198" lon="0.86017">
        <ele>145.515149</ele>
        <time>2021-09-07T08:11:10.000Z</time>
      </trkpt>
      <trkpt lat="48.36194" lon="0.86016">
        <ele>145.842682</ele>
        <time>2021-09-07T08:11:12.000Z</time>
      </trkpt>
      <trkpt lat="48.3619" lon="0.86015">
        <ele>146.18848</ele>
        <time>2021-09-07T08:11:14.000Z</time>
      </trkpt>
      <trkpt lat="48.36188" lon="0.86013">
        <ele>146.415599</ele>
        <time>2021-09-07T08:11:16.000Z</time>
      </trkpt>
      <trkpt lat="48.36181" lon="0.8601">
        <ele>147.126412</ele>
        <time>2021-09-07T08:11:20.000Z</time>
      </trkpt>
      <trkpt lat="48.36172" lon="0.86006">
        <ele>148.863728</ele>
        <time>2021-09-07T08:11:25.000Z</time>
      </trkpt>
      <trkpt lat="48.36166" lon="0.86003">
        <ele>149.989755</ele>
        <time>2021-09-07T08:11:29.000Z</time>
      </trkpt>
      <trkpt lat="48.36154" lon="0.85997">
        <ele>152.239532</ele>
        <time>2021-09-07T08:11:34.000Z</time>
      </trkpt>
      <trkpt lat="48.36142" lon="0.85991">
        <ele>154.5738</ele>
        <time>2021-09-07T08:11:40.000Z</time>
      </trkpt>
      <trkpt lat="48.36129" lon="0.85983">
        <ele>157.125741</ele>
        <time>2021-09-07T08:11:46.000Z</time>
      </trkpt>
      <trkpt lat="48.36115" lon="0.85977">
        <ele>159.765739</ele>
        <time>2021-09-07T08:11:53.000Z</time>
      </trkpt>
      <trkpt lat="48.361" lon="0.85972">
        <ele>162.572614</ele>
        <time>2021-09-07T08:12:01.000Z</time>
      </trkpt>
      <trkpt lat="48.36096" lon="0.8597">
        <ele>163.264584</ele>
        <time>2021-09-07T08:12:04.000Z</time>
      </trkpt>
      <trkpt lat="48.36086" lon="0.85965">
        <ele>165.256084</ele>
        <time>2021-09-07T08:12:11.000Z</time>
      </trkpt>
      <trkpt lat="48.36075" lon="0.85962">
        <ele>167.250239</ele>
        <time>2021-09-07T08:12:17.000Z</time>
      </trkpt>
      <trkpt lat="48.36071" lon="0.85962">
        <ele>167.885508</ele>
        <time>2021-09-07T08:12:19.000Z</time>
      </trkpt>
      <trkpt lat="48.36068" lon="0.8596">
        <ele>168.493406</ele>
        <time>2021-09-07T08:12:21.000Z</time>
      </trkpt>
      <trkpt lat="48.36064" lon="0.85959">
        <ele>169.255942</ele>
        <time>2021-09-07T08:12:24.000Z</time>
      </trkpt>
      <trkpt lat="48.36051" lon="0.85957">
        <ele>171.612038</ele>
        <time>2021-09-07T08:12:31.000Z</time>
      </trkpt>
      <trkpt lat="48.36038" lon="0.85953">
        <ele>174.132418</ele>
        <time>2021-09-07T08:12:38.000Z</time>
      </trkpt>
      <trkpt lat="48.36027" lon="0.85951">
        <ele>176.127101</ele>
        <time>2021-09-07T08:12:43.000Z</time>
      </trkpt>
      <trkpt lat="48.36016" lon="0.85947">
        <ele>178.141546</ele>
        <time>2021-09-07T08:12:49.000Z</time>
      </trkpt>
      <trkpt lat="48.36006" lon="0.85945">
        <ele>179.745016</ele>
        <time>2021-09-07T08:12:54.000Z</time>
      </trkpt>
      <trkpt lat="48.35994" lon="0.85943">
        <ele>180.765772</ele>
        <time>2021-09-07T08:13:00.000Z</time>
      </trkpt>
      <trkpt lat="48.35981" lon="0.85939">
        <ele>181.953651</ele>
        <time>2021-09-07T08:13:07.000Z</time>
      </trkpt>
      <trkpt lat="48.35967" lon="0.85937">
        <ele>183.165638</ele>
        <time>2021-09-07T08:13:14.000Z</time>
      </trkpt>
      <trkpt lat="48.35953" lon="0.85937">
        <ele>184.425461</ele>
        <time>2021-09-07T08:13:22.000Z</time>
      </trkpt>
      <trkpt lat="48.35945" lon="0.85935">
        <ele>185.139537</ele>
        <time>2021-09-07T08:13:27.000Z</time>
      </trkpt>
      <trkpt lat="48.35941" lon="0.85933">
        <ele>185.465525</ele>
        <time>2021-09-07T08:13:31.000Z</time>
      </trkpt>
      <trkpt lat="48.35932" lon="0.85935">
        <ele>186.296195</ele>
        <time>2021-09-07T08:13:37.000Z</time>
      </trkpt>
      <trkpt lat="48.35922" lon="0.85938">
        <ele>187.19521</ele>
        <time>2021-09-07T08:13:42.000Z</time>
      </trkpt>
      <trkpt lat="48.35911" lon="0.85944">
        <ele>188.262512</ele>
        <time>2021-09-07T08:13:48.000Z</time>
      </trkpt>
      <trkpt lat="48.35906" lon="0.85947">
        <ele>188.732268</ele>
        <time>2021-09-07T08:13:50.000Z</time>
      </trkpt>
      <trkpt lat="48.35905" lon="0.85949">
        <ele>188.850515</ele>
        <time>2021-09-07T08:13:51.000Z</time>
      </trkpt>
      <trkpt lat="48.35902" lon="0.85952">
        <ele>189.160094</ele>
        <time>2021-09-07T08:13:54.000Z</time>
      </trkpt>
      <trkpt lat="48.359" lon="0.85954">
        <ele>189.350925</ele>
        <time>2021-09-07T08:13:55.000Z</time>
      </trkpt>
      <trkpt lat="48.35894" lon="0.85964">
        <ele>190.18392</ele>
        <time>2021-09-07T08:14:00.000Z</time>
      </trkpt>
      <trkpt lat="48.35889" lon="0.85971">
        <ele>190.729097</ele>
        <time>2021-09-07T08:14:03.000Z</time>
      </trkpt>
      <trkpt lat="48.35887" lon="0.85976">
        <ele>191.095979</ele>
        <time>2021-09-07T08:14:05.000Z</time>
      </trkpt>
      <trkpt lat="48.35878" lon="0.85993">
        <ele>192.374728</ele>
        <time>2021-09-07T08:14:11.000Z</time>
      </trkpt>
      <trkpt lat="48.35871" lon="0.8601">
        <ele>193.545724</ele>
        <time>2021-09-07T08:14:16.000Z</time>
      </trkpt>
      <trkpt lat="48.3587" lon="0.86013">
        <ele>193.776409</ele>
        <time>2021-09-07T08:14:17.000Z</time>
      </trkpt>
      <trkpt lat="48.35866" lon="0.86022">
        <ele>194.400298</ele>
        <time>2021-09-07T08:14:20.000Z</time>
      </trkpt>
      <trkpt lat="48.35864" lon="0.86029">
        <ele>194.853562</ele>
        <time>2021-09-07T08:14:22.000Z</time>
      </trkpt>
      <trkpt lat="48.35862" lon="0.86037">
        <ele>195.29818</ele>
        <time>2021-09-07T08:14:24.000Z</time>
      </trkpt>
      <trkpt lat="48.35857" lon="0.8605">
        <ele>194.835377</ele>
        <time>2021-09-07T08:14:28.000Z</time>
      </trkpt>
      <trkpt lat="48.3585" lon="0.86063">
        <ele>194.208389</ele>
        <time>2021-09-07T08:14:33.000Z</time>
      </trkpt>
      <trkpt lat="48.35849" lon="0.86066">
        <ele>194.096586</ele>
        <time>2021-09-07T08:14:34.000Z</time>
      </trkpt>
      <trkpt lat="48.35848" lon="0.8607">
        <ele>193.918138</ele>
        <time>2021-09-07T08:14:36.000Z</time>
      </trkpt>
      <trkpt lat="48.35846" lon="0.86073">
        <ele>193.777159</ele>
        <time>2021-09-07T08:14:37.000Z</time>
      </trkpt>
      <trkpt lat="48.35845" lon="0.86075">
        <ele>193.664782</ele>
        <time>2021-09-07T08:14:38.000Z</time>
      </trkpt>
      <trkpt lat="48.35842" lon="0.86084">
        <ele>193.289175</ele>
        <time>2021-09-07T08:14:41.000Z</time>
      </trkpt>
      <trkpt lat="48.35835" lon="0.861">
        <ele>192.575607</ele>
        <time>2021-09-07T08:14:46.000Z</time>
      </trkpt>
      <trkpt lat="48.35832" lon="0.86119">
        <ele>191.854714</ele>
        <time>2021-09-07T08:14:50.000Z</time>
      </trkpt>
      <trkpt lat="48.35832" lon="0.86127">
        <ele>191.574188</ele>
        <time>2021-09-07T08:14:52.000Z</time>
      </trkpt>
      <trkpt lat="48.35831" lon="0.86136">
        <ele>191.241779</ele>
        <time>2021-09-07T08:14:54.000Z</time>
      </trkpt>
      <trkpt lat="48.35823" lon="0.86154">
        <ele>190.413935</ele>
        <time>2021-09-07T08:14:59.000Z</time>
      </trkpt>
      <trkpt lat="48.35818" lon="0.86172">
        <ele>189.694716</ele>
        <time>2021-09-07T08:15:03.000Z</time>
      </trkpt>
      <trkpt lat="48.3581" lon="0.86191">
        <ele>188.87328</ele>
        <time>2021-09-07T08:15:07.000Z</time>
      </trkpt>
      <trkpt lat="48.35801" lon="0.86211">
        <ele>187.961564</ele>
        <time>2021-09-07T08:15:11.000Z</time>
      </trkpt>
      <trkpt lat="48.35792" lon="0.86221">
        <ele>187.331819</ele>
        <time>2021-09-07T08:15:14.000Z</time>
      </trkpt>
      <trkpt lat="48.35775" lon="0.86245">
        <ele>186.057898</ele>
        <time>2021-09-07T08:15:20.000Z</time>
      </trkpt>
      <trkpt lat="48.35762" lon="0.86263">
        <ele>184.981086</ele>
        <time>2021-09-07T08:15:25.000Z</time>
      </trkpt>
      <trkpt lat="48.35748" lon="0.86289">
        <ele>183.506479</ele>
        <time>2021-09-07T08:15:31.000Z</time>
      </trkpt>
      <trkpt lat="48.35745" lon="0.86298">
        <ele>183.053647</ele>
        <time>2021-09-07T08:15:33.000Z</time>
      </trkpt>
      <trkpt lat="48.35743" lon="0.86303">
        <ele>182.787323</ele>
        <time>2021-09-07T08:15:34.000Z</time>
      </trkpt>
      <trkpt lat="48.3573" lon="0.86327">
        <ele>181.395836</ele>
        <time>2021-09-07T08:15:40.000Z</time>
      </trkpt>
      <trkpt lat="48.3572" lon="0.86346">
        <ele>180.271947</ele>
        <time>2021-09-07T08:15:45.000Z</time>
      </trkpt>
      <trkpt lat="48.35712" lon="0.86361">
        <ele>179.438086</ele>
        <time>2021-09-07T08:15:50.000Z</time>
      </trkpt>
      <trkpt lat="48.35702" lon="0.86373">
        <ele>178.556624</ele>
        <time>2021-09-07T08:15:54.000Z</time>
      </trkpt>
      <trkpt lat="48.35697" lon="0.86385">
        <ele>177.907807</ele>
        <time>2021-09-07T08:15:58.000Z</time>
      </trkpt>
      <trkpt lat="48.35689" lon="0.86393">
        <ele>177.228491</ele>
        <time>2021-09-07T08:16:02.000Z</time>
      </trkpt>
      <trkpt lat="48.35673" lon="0.86407">
        <ele>176.024366</ele>
        <time>2021-09-07T08:16:07.000Z</time>
      </trkpt>
      <trkpt lat="48.35663" lon="0.86421">
        <ele>175.094417</ele>
        <time>2021-09-07T08:16:11.000Z</time>
      </trkpt>
      <trkpt lat="48.35643" lon="0.86441">
        <ele>173.480054</ele>
        <time>2021-09-07T08:16:17.000Z</time>
      </trkpt>
      <trkpt lat="48.35629" lon="0.86455">
        <ele>173.077751</ele>
        <time>2021-09-07T08:16:22.000Z</time>
      </trkpt>
      <trkpt lat="48.35614" lon="0.86473">
        <ele>173.02869</ele>
        <time>2021-09-07T08:16:27.000Z</time>
      </trkpt>
      <trkpt lat="48.35597" lon="0.86502">
        <ele>172.964</ele>
        <time>2021-09-07T08:16:33.000Z</time>
      </trkpt>
      <trkpt lat="48.35588" lon="0.86523">
        <ele>172.922657</ele>
        <time>2021-09-07T08:16:37.000Z</time>
      </trkpt>
      <trkpt lat="48.35586" lon="0.86529">
        <ele>172.912224</ele>
        <time>2021-09-07T08:16:38.000Z</time>
      </trkpt>
      <trkpt lat="48.35574" lon="0.86564">
        <ele>172.845635</ele>
        <time>2021-09-07T08:16:44.000Z</time>
      </trkpt>
      <trkpt lat="48.35556" lon="0.86597">
        <ele>172.774624</ele>
        <time>2021-09-07T08:16:50.000Z</time>
      </trkpt>
      <trkpt lat="48.35537" lon="0.86619">
        <ele>172.714127</ele>
        <time>2021-09-07T08:16:56.000Z</time>
      </trkpt>
      <trkpt lat="48.35523" lon="0.86638">
        <ele>172.66837</ele>
        <time>2021-09-07T08:17:02.000Z</time>
      </trkpt>
      <trkpt lat="48.35511" lon="0.86656">
        <ele>172.808952</ele>
        <time>2021-09-07T08:17:09.000Z</time>
      </trkpt>
      <trkpt lat="48.35503" lon="0.86668">
        <ele>172.944715</ele>
        <time>2021-09-07T08:17:15.000Z</time>
      </trkpt>
      <trkpt lat="48.35503" lon="0.86668">
        <ele>172.952941</ele>
        <time>2021-09-07T08:17:17.000Z</time>
      </trkpt>
      <trkpt lat="48.35503" lon="0.86668">
        <ele>172.961873</ele>
        <time>2021-09-07T08:18:38.000Z</time>
      </trkpt>
      <trkpt lat="48.35497" lon="0.86673">
        <ele>173.054539</ele>
        <time>2021-09-07T08:18:50.000Z</time>
      </trkpt>
      <trkpt lat="48.35491" lon="0.86679">
        <ele>173.144273</ele>
        <time>2021-09-07T08:18:53.000Z</time>
      </trkpt>
      <trkpt lat="48.35488" lon="0.86687">
        <ele>173.219017</ele>
        <time>2021-09-07T08:18:55.000Z</time>
      </trkpt>
      <trkpt lat="48.35474" lon="0.86711">
        <ele>173.488159</ele>
        <time>2021-09-07T08:19:02.000Z</time>
      </trkpt>
      <trkpt lat="48.35463" lon="0.86725">
        <ele>173.663833</ele>
        <time>2021-09-07T08:19:08.000Z</time>
      </trkpt>
      <trkpt lat="48.35456" lon="0.86735">
        <ele>173.78293</ele>
        <time>2021-09-07T08:19:14.000Z</time>
      </trkpt>
      <trkpt lat="48.35447" lon="0.86744">
        <ele>173.919764</ele>
        <time>2021-09-07T08:19:21.000Z</time>
      </trkpt>
      <trkpt lat="48.35438" lon="0.86752">
        <ele>174.057668</ele>
        <time>2021-09-07T08:19:27.000Z</time>
      </trkpt>
      <trkpt lat="48.35421" lon="0.86766">
        <ele>174.293101</ele>
        <time>2021-09-07T08:19:36.000Z</time>
      </trkpt>
      <trkpt lat="48.35409" lon="0.86772">
        <ele>174.452149</ele>
        <time>2021-09-07T08:19:42.000Z</time>
      </trkpt>
      <trkpt lat="48.35389" lon="0.86781">
        <ele>174.721754</ele>
        <time>2021-09-07T08:19:50.000Z</time>
      </trkpt>
      <trkpt lat="48.35374" lon="0.86788">
        <ele>174.908406</ele>
        <time>2021-09-07T08:19:56.000Z</time>
      </trkpt>
      <trkpt lat="48.35355" lon="0.86798">
        <ele>174.671494</ele>
        <time>2021-09-07T08:20:04.000Z</time>
      </trkpt>
      <trkpt lat="48.35331" lon="0.86809">
        <ele>174.373879</ele>
        <time>2021-09-07T08:20:12.000Z</time>
      </trkpt>
      <trkpt lat="48.35311" lon="0.86819">
        <ele>174.129555</ele>
        <time>2021-09-07T08:20:19.000Z</time>
      </trkpt>
      <trkpt lat="48.35297" lon="0.86824">
        <ele>173.957808</ele>
        <time>2021-09-07T08:20:24.000Z</time>
      </trkpt>
      <trkpt lat="48.35285" lon="0.8683">
        <ele>173.798658</ele>
        <time>2021-09-07T08:20:30.000Z</time>
      </trkpt>
      <trkpt lat="48.35269" lon="0.86838">
        <ele>173.606724</ele>
        <time>2021-09-07T08:20:36.000Z</time>
      </trkpt>
      <trkpt lat="48.35246" lon="0.86849">
        <ele>173.324658</ele>
        <time>2021-09-07T08:20:44.000Z</time>
      </trkpt>
      <trkpt lat="48.35227" lon="0.86859">
        <ele>173.085731</ele>
        <time>2021-09-07T08:20:51.000Z</time>
      </trkpt>
      <trkpt lat="48.35212" lon="0.86873">
        <ele>172.868648</ele>
        <time>2021-09-07T08:20:59.000Z</time>
      </trkpt>
      <trkpt lat="48.35211" lon="0.86891">
        <ele>172.640381</ele>
        <time>2021-09-07T08:21:04.000Z</time>
      </trkpt>
      <trkpt lat="48.35217" lon="0.86925">
        <ele>171.932549</ele>
        <time>2021-09-07T08:21:12.000Z</time>
      </trkpt>
      <trkpt lat="48.35214" lon="0.86949">
        <ele>171.445184</ele>
        <time>2021-09-07T08:21:17.000Z</time>
      </trkpt>
      <trkpt lat="48.35201" lon="0.8697">
        <ele>170.870801</ele>
        <time>2021-09-07T08:21:23.000Z</time>
      </trkpt>
      <trkpt lat="48.35182" lon="0.86988">
        <ele>170.201202</ele>
        <time>2021-09-07T08:21:30.000Z</time>
      </trkpt>
      <trkpt lat="48.35167" lon="0.87001">
        <ele>169.677291</ele>
        <time>2021-09-07T08:21:36.000Z</time>
      </trkpt>
      <trkpt lat="48.35146" lon="0.87022">
        <ele>168.930574</ele>
        <time>2021-09-07T08:21:44.000Z</time>
      </trkpt>
      <trkpt lat="48.35127" lon="0.87038">
        <ele>168.286622</ele>
        <time>2021-09-07T08:21:51.000Z</time>
      </trkpt>
      <trkpt lat="48.3511" lon="0.87055">
        <ele>167.659305</ele>
        <time>2021-09-07T08:21:58.000Z</time>
      </trkpt>
      <trkpt lat="48.35088" lon="0.87076">
        <ele>166.621642</ele>
        <time>2021-09-07T08:22:07.000Z</time>
      </trkpt>
      <trkpt lat="48.35072" lon="0.87093">
        <ele>165.718407</ele>
        <time>2021-09-07T08:22:14.000Z</time>
      </trkpt>
      <trkpt lat="48.35054" lon="0.87111">
        <ele>164.725757</ele>
        <time>2021-09-07T08:22:21.000Z</time>
      </trkpt>
      <trkpt lat="48.35047" lon="0.87118">
        <ele>164.325386</ele>
        <time>2021-09-07T08:22:26.000Z</time>
      </trkpt>
      <trkpt lat="48.35044" lon="0.87121">
        <ele>164.191494</ele>
        <time>2021-09-07T08:24:08.000Z</time>
      </trkpt>
      <trkpt lat="48.35041" lon="0.87124">
        <ele>164.022817</ele>
        <time>2021-09-07T08:24:10.000Z</time>
      </trkpt>
      <trkpt lat="48.35027" lon="0.87139">
        <ele>163.212217</ele>
        <time>2021-09-07T08:24:16.000Z</time>
      </trkpt>
      <trkpt lat="48.35008" lon="0.87155">
        <ele>162.220926</ele>
        <time>2021-09-07T08:24:21.000Z</time>
      </trkpt>
      <trkpt lat="48.34991" lon="0.87171">
        <ele>161.299727</ele>
        <time>2021-09-07T08:24:25.000Z</time>
      </trkpt>
      <trkpt lat="48.34976" lon="0.87185">
        <ele>160.507047</ele>
        <time>2021-09-07T08:24:28.000Z</time>
      </trkpt>
      <trkpt lat="48.34941" lon="0.87222">
        <ele>158.833235</ele>
        <time>2021-09-07T08:24:35.000Z</time>
      </trkpt>
      <trkpt lat="48.349" lon="0.87266">
        <ele>157.674959</ele>
        <time>2021-09-07T08:24:43.000Z</time>
      </trkpt>
      <trkpt lat="48.3487" lon="0.87297">
        <ele>156.842941</ele>
        <time>2021-09-07T08:24:49.000Z</time>
      </trkpt>
      <trkpt lat="48.34834" lon="0.87336">
        <ele>155.807372</ele>
        <time>2021-09-07T08:24:57.000Z</time>
      </trkpt>
      <trkpt lat="48.34816" lon="0.87356">
        <ele>155.299912</ele>
        <time>2021-09-07T08:25:01.000Z</time>
      </trkpt>
      <trkpt lat="48.3481" lon="0.87369">
        <ele>155.043804</ele>
        <time>2021-09-07T08:25:03.000Z</time>
      </trkpt>
      <trkpt lat="48.34802" lon="0.87393">
        <ele>154.576614</ele>
        <time>2021-09-07T08:25:06.000Z</time>
      </trkpt>
      <trkpt lat="48.34797" lon="0.87411">
        <ele>154.245554</ele>
        <time>2021-09-07T08:25:08.000Z</time>
      </trkpt>
      <trkpt lat="48.34782" lon="0.87468">
        <ele>153.137189</ele>
        <time>2021-09-07T08:25:15.000Z</time>
      </trkpt>
      <trkpt lat="48.34777" lon="0.87484">
        <ele>152.83728</ele>
        <time>2021-09-07T08:25:17.000Z</time>
      </trkpt>
      <trkpt lat="48.34772" lon="0.87498">
        <ele>152.540417</ele>
        <time>2021-09-07T08:25:19.000Z</time>
      </trkpt>
      <trkpt lat="48.34768" lon="0.87504">
        <ele>152.390823</ele>
        <time>2021-09-07T08:25:20.000Z</time>
      </trkpt>
      <trkpt lat="48.3476" lon="0.87515">
        <ele>152.100507</ele>
        <time>2021-09-07T08:25:22.000Z</time>
      </trkpt>
      <trkpt lat="48.34747" lon="0.87529">
        <ele>151.68222</ele>
        <time>2021-09-07T08:25:24.000Z</time>
      </trkpt>
      <trkpt lat="48.34743" lon="0.87533">
        <ele>151.549144</ele>
        <time>2021-09-07T08:25:25.000Z</time>
      </trkpt>
      <trkpt lat="48.34734" lon="0.87541">
        <ele>151.272025</ele>
        <time>2021-09-07T08:25:27.000Z</time>
      </trkpt>
      <trkpt lat="48.34724" lon="0.87547">
        <ele>150.980652</ele>
        <time>2021-09-07T08:25:29.000Z</time>
      </trkpt>
      <trkpt lat="48.34718" lon="0.87549">
        <ele>150.826561</ele>
        <time>2021-09-07T08:25:30.000Z</time>
      </trkpt>
      <trkpt lat="48.34688" lon="0.87552">
        <ele>149.953254</ele>
        <time>2021-09-07T08:25:35.000Z</time>
      </trkpt>
      <trkpt lat="48.34648" lon="0.87554">
        <ele>148.357481</ele>
        <time>2021-09-07T08:25:41.000Z</time>
      </trkpt>
      <trkpt lat="48.34599" lon="0.87551">
        <ele>146.412785</ele>
        <time>2021-09-07T08:25:47.000Z</time>
      </trkpt>
      <trkpt lat="48.34585" lon="0.87553">
        <ele>145.873264</ele>
        <time>2021-09-07T08:25:49.000Z</time>
      </trkpt>
      <trkpt lat="48.3458" lon="0.8755">
        <ele>145.638791</ele>
        <time>2021-09-07T08:25:50.000Z</time>
      </trkpt>
      <trkpt lat="48.34575" lon="0.87544">
        <ele>145.392523</ele>
        <time>2021-09-07T08:25:51.000Z</time>
      </trkpt>
      <trkpt lat="48.34569" lon="0.87526">
        <ele>144.867637</ele>
        <time>2021-09-07T08:25:53.000Z</time>
      </trkpt>
      <trkpt lat="48.34564" lon="0.87506">
        <ele>144.307042</ele>
        <time>2021-09-07T08:25:55.000Z</time>
      </trkpt>
      <trkpt lat="48.34561" lon="0.87484">
        <ele>143.71687</ele>
        <time>2021-09-07T08:25:57.000Z</time>
      </trkpt>
      <trkpt lat="48.3456" lon="0.87473">
        <ele>143.411074</ele>
        <time>2021-09-07T08:25:58.000Z</time>
      </trkpt>
      <trkpt lat="48.34551" lon="0.87429">
        <ele>142.19338</ele>
        <time>2021-09-07T08:26:02.000Z</time>
      </trkpt>
      <trkpt lat="48.34542" lon="0.87387">
        <ele>141.019669</ele>
        <time>2021-09-07T08:26:06.000Z</time>
      </trkpt>
      <trkpt lat="48.34537" lon="0.87368">
        <ele>140.488997</ele>
        <time>2021-09-07T08:26:08.000Z</time>
      </trkpt>
      <trkpt lat="48.34529" lon="0.87335">
        <ele>139.541674</ele>
        <time>2021-09-07T08:26:12.000Z</time>
      </trkpt>
      <trkpt lat="48.34526" lon="0.87329">
        <ele>139.321998</ele>
        <time>2021-09-07T08:26:13.000Z</time>
      </trkpt>
      <trkpt lat="48.34521" lon="0.87326">
        <ele>139.119757</ele>
        <time>2021-09-07T08:26:14.000Z</time>
      </trkpt>
      <trkpt lat="48.34516" lon="0.87328">
        <ele>138.901022</ele>
        <time>2021-09-07T08:26:15.000Z</time>
      </trkpt>
      <trkpt lat="48.34511" lon="0.87333">
        <ele>138.690811</ele>
        <time>2021-09-07T08:26:16.000Z</time>
      </trkpt>
      <trkpt lat="48.34506" lon="0.87345">
        <ele>138.304124</ele>
        <time>2021-09-07T08:26:18.000Z</time>
      </trkpt>
      <trkpt lat="48.34492" lon="0.87374">
        <ele>137.344602</ele>
        <time>2021-09-07T08:26:24.000Z</time>
      </trkpt>
      <trkpt lat="48.34481" lon="0.87393">
        <ele>136.68206</ele>
        <time>2021-09-07T08:26:30.000Z</time>
      </trkpt>
      <trkpt lat="48.34473" lon="0.87409">
        <ele>136.151354</ele>
        <time>2021-09-07T08:26:36.000Z</time>
      </trkpt>
      <trkpt lat="48.34472" lon="0.87411">
        <ele>136.069522</ele>
        <time>2021-09-07T08:26:37.000Z</time>
      </trkpt>
      <trkpt lat="48.34468" lon="0.87418">
        <ele>135.832049</ele>
        <time>2021-09-07T08:26:40.000Z</time>
      </trkpt>
      <trkpt lat="48.34453" lon="0.87449">
        <ele>135.537211</ele>
        <time>2021-09-07T08:26:51.000Z</time>
      </trkpt>
      <trkpt lat="48.34441" lon="0.87469">
        <ele>135.332209</ele>
        <time>2021-09-07T08:26:57.000Z</time>
      </trkpt>
      <trkpt lat="48.34427" lon="0.87471">
        <ele>135.159302</ele>
        <time>2021-09-07T08:27:01.000Z</time>
      </trkpt>
      <trkpt lat="48.34396" lon="0.87462">
        <ele>134.792745</ele>
        <time>2021-09-07T08:27:09.000Z</time>
      </trkpt>
      <trkpt lat="48.34381" lon="0.87455">
        <ele>134.613648</ele>
        <time>2021-09-07T08:27:14.000Z</time>
      </trkpt>
      <trkpt lat="48.34366" lon="0.87439">
        <ele>134.401707</ele>
        <time>2021-09-07T08:27:20.000Z</time>
      </trkpt>
      <trkpt lat="48.34345" lon="0.87415">
        <ele>134.086569</ele>
        <time>2021-09-07T08:27:29.000Z</time>
      </trkpt>
      <trkpt lat="48.34327" lon="0.87402">
        <ele>133.852953</ele>
        <time>2021-09-07T08:27:35.000Z</time>
      </trkpt>
      <trkpt lat="48.34297" lon="0.87384">
        <ele>133.769298</ele>
        <time>2021-09-07T08:27:45.000Z</time>
      </trkpt>
      <trkpt lat="48.34276" lon="0.87375">
        <ele>133.808223</ele>
        <time>2021-09-07T08:27:52.000Z</time>
      </trkpt>
      <trkpt lat="48.34258" lon="0.87364">
        <ele>133.843302</ele>
        <time>2021-09-07T08:27:59.000Z</time>
      </trkpt>
      <trkpt lat="48.34239" lon="0.87351">
        <ele>133.880179</ele>
        <time>2021-09-07T08:28:05.000Z</time>
      </trkpt>
      <trkpt lat="48.34214" lon="0.87342">
        <ele>133.926064</ele>
        <time>2021-09-07T08:28:10.000Z</time>
      </trkpt>
      <trkpt lat="48.34202" lon="0.87341">
        <ele>133.947631</ele>
        <time>2021-09-07T08:28:12.000Z</time>
      </trkpt>
      <trkpt lat="48.34183" lon="0.87343">
        <ele>133.982852</ele>
        <time>2021-09-07T08:28:15.000Z</time>
      </trkpt>
      <trkpt lat="48.34139" lon="0.87352">
        <ele>134.040555</ele>
        <time>2021-09-07T08:28:21.000Z</time>
      </trkpt>
      <trkpt lat="48.34101" lon="0.87359">
        <ele>133.942789</ele>
        <time>2021-09-07T08:28:26.000Z</time>
      </trkpt>
      <trkpt lat="48.34093" lon="0.87357">
        <ele>133.923827</ele>
        <time>2021-09-07T08:28:27.000Z</time>
      </trkpt>
      <trkpt lat="48.34086" lon="0.87353">
        <ele>133.905781</ele>
        <time>2021-09-07T08:28:28.000Z</time>
      </trkpt>
      <trkpt lat="48.34074" lon="0.87342">
        <ele>133.870176</ele>
        <time>2021-09-07T08:28:30.000Z</time>
      </trkpt>
      <trkpt lat="48.34047" lon="0.87305">
        <ele>133.778565</ele>
        <time>2021-09-07T08:28:36.000Z</time>
      </trkpt>
      <trkpt lat="48.34036" lon="0.87292">
        <ele>133.743328</ele>
        <time>2021-09-07T08:28:39.000Z</time>
      </trkpt>
      <trkpt lat="48.34032" lon="0.87289">
        <ele>133.731309</ele>
        <time>2021-09-07T08:28:40.000Z</time>
      </trkpt>
      <trkpt lat="48.34023" lon="0.87283">
        <ele>133.705977</ele>
        <time>2021-09-07T08:28:42.000Z</time>
      </trkpt>
      <trkpt lat="48.34012" lon="0.87279">
        <ele>133.679055</ele>
        <time>2021-09-07T08:28:44.000Z</time>
      </trkpt>
      <trkpt lat="48.33994" lon="0.87281">
        <ele>133.634157</ele>
        <time>2021-09-07T08:28:49.000Z</time>
      </trkpt>
      <trkpt lat="48.33981" lon="0.87289">
        <ele>133.682842</ele>
        <time>2021-09-07T08:28:55.000Z</time>
      </trkpt>
      <trkpt lat="48.33968" lon="0.87299">
        <ele>134.237537</ele>
        <time>2021-09-07T08:29:01.000Z</time>
      </trkpt>
      <trkpt lat="48.33962" lon="0.87307">
        <ele>134.588205</ele>
        <time>2021-09-07T08:29:05.000Z</time>
      </trkpt>
      <trkpt lat="48.33958" lon="0.87311">
        <ele>134.776493</ele>
        <time>2021-09-07T08:29:07.000Z</time>
      </trkpt>
      <trkpt lat="48.33953" lon="0.87316">
        <ele>135.01109</ele>
        <time>2021-09-07T08:29:10.000Z</time>
      </trkpt>
      <trkpt lat="48.33944" lon="0.87325">
        <ele>135.461062</ele>
        <time>2021-09-07T08:29:15.000Z</time>
      </trkpt>
      <trkpt lat="48.33936" lon="0.87333">
        <ele>135.827984</ele>
        <time>2021-09-07T08:29:20.000Z</time>
      </trkpt>
      <trkpt lat="48.33927" lon="0.87342">
        <ele>136.280805</ele>
        <time>2021-09-07T08:29:25.000Z</time>
      </trkpt>
      <trkpt lat="48.33913" lon="0.87356">
        <ele>136.94972</ele>
        <time>2021-09-07T08:29:32.000Z</time>
      </trkpt>
      <trkpt lat="48.33903" lon="0.87373">
        <ele>137.562452</ele>
        <time>2021-09-07T08:29:39.000Z</time>
      </trkpt>
      <trkpt lat="48.33901" lon="0.8738">
        <ele>137.760287</ele>
        <time>2021-09-07T08:29:43.000Z</time>
      </trkpt>
      <trkpt lat="48.33893" lon="0.87395">
        <ele>138.288321</ele>
        <time>2021-09-07T08:29:49.000Z</time>
      </trkpt>
      <trkpt lat="48.33888" lon="0.87406">
        <ele>138.637885</ele>
        <time>2021-09-07T08:29:53.000Z</time>
      </trkpt>
      <trkpt lat="48.33881" lon="0.87417">
        <ele>139.032707</ele>
        <time>2021-09-07T08:29:57.000Z</time>
      </trkpt>
      <trkpt lat="48.3388" lon="0.87418">
        <ele>139.0924</ele>
        <time>2021-09-07T08:29:58.000Z</time>
      </trkpt>
      <trkpt lat="48.3388" lon="0.8742">
        <ele>139.149807</ele>
        <time>2021-09-07T08:29:59.000Z</time>
      </trkpt>
      <trkpt lat="48.33877" lon="0.87429">
        <ele>139.39262</ele>
        <time>2021-09-07T08:30:02.000Z</time>
      </trkpt>
      <trkpt lat="48.33875" lon="0.87435">
        <ele>139.571867</ele>
        <time>2021-09-07T08:30:04.000Z</time>
      </trkpt>
      <trkpt lat="48.33875" lon="0.87439">
        <ele>139.694532</ele>
        <time>2021-09-07T08:30:06.000Z</time>
      </trkpt>
      <trkpt lat="48.33872" lon="0.87447">
        <ele>139.926051</ele>
        <time>2021-09-07T08:30:09.000Z</time>
      </trkpt>
      <trkpt lat="48.33871" lon="0.87452">
        <ele>140.070727</ele>
        <time>2021-09-07T08:30:11.000Z</time>
      </trkpt>
      <trkpt lat="48.33869" lon="0.87459">
        <ele>140.267553</ele>
        <time>2021-09-07T08:30:13.000Z</time>
      </trkpt>
      <trkpt lat="48.33868" lon="0.87469">
        <ele>140.551151</ele>
        <time>2021-09-07T08:30:16.000Z</time>
      </trkpt>
      <trkpt lat="48.33867" lon="0.87472">
        <ele>140.642524</ele>
        <time>2021-09-07T08:30:17.000Z</time>
      </trkpt>
      <trkpt lat="48.33866" lon="0.87478">
        <ele>140.806296</ele>
        <time>2021-09-07T08:30:19.000Z</time>
      </trkpt>
      <trkpt lat="48.33866" lon="0.87482">
        <ele>140.925834</ele>
        <time>2021-09-07T08:30:20.000Z</time>
      </trkpt>
      <trkpt lat="48.33866" lon="0.87484">
        <ele>141.045403</ele>
        <time>2021-09-07T08:30:21.000Z</time>
      </trkpt>
      <trkpt lat="48.33864" lon="0.8749">
        <ele>141.305693</ele>
        <time>2021-09-07T08:30:23.000Z</time>
      </trkpt>
      <trkpt lat="48.3386" lon="0.87507">
        <ele>142.070797</ele>
        <time>2021-09-07T08:30:28.000Z</time>
      </trkpt>
      <trkpt lat="48.33858" lon="0.87513">
        <ele>142.385308</ele>
        <time>2021-09-07T08:30:30.000Z</time>
      </trkpt>
      <trkpt lat="48.33856" lon="0.87524">
        <ele>142.86951</ele>
        <time>2021-09-07T08:30:33.000Z</time>
      </trkpt>
      <trkpt lat="48.33855" lon="0.87528">
        <ele>143.001751</ele>
        <time>2021-09-07T08:30:34.000Z</time>
      </trkpt>
      <trkpt lat="48.33853" lon="0.87537">
        <ele>143.41273</ele>
        <time>2021-09-07T08:30:37.000Z</time>
      </trkpt>
      <trkpt lat="48.33851" lon="0.87542">
        <ele>143.668401</ele>
        <time>2021-09-07T08:30:39.000Z</time>
      </trkpt>
      <trkpt lat="48.3385" lon="0.87547">
        <ele>143.909829</ele>
        <time>2021-09-07T08:30:41.000Z</time>
      </trkpt>
      <trkpt lat="48.33848" lon="0.87552">
        <ele>144.164909</ele>
        <time>2021-09-07T08:30:43.000Z</time>
      </trkpt>
      <trkpt lat="48.33846" lon="0.87557">
        <ele>144.413139</ele>
        <time>2021-09-07T08:30:45.000Z</time>
      </trkpt>
      <trkpt lat="48.33845" lon="0.8756">
        <ele>144.543995</ele>
        <time>2021-09-07T08:30:46.000Z</time>
      </trkpt>
      <trkpt lat="48.33836" lon="0.87574">
        <ele>145.356455</ele>
        <time>2021-09-07T08:30:52.000Z</time>
      </trkpt>
      <trkpt lat="48.33825" lon="0.87589">
        <ele>146.32742</ele>
        <time>2021-09-07T08:30:58.000Z</time>
      </trkpt>
      <trkpt lat="48.33816" lon="0.87599">
        <ele>147.016539</ele>
        <time>2021-09-07T08:31:03.000Z</time>
      </trkpt>
      <trkpt lat="48.33807" lon="0.87606">
        <ele>147.668132</ele>
        <time>2021-09-07T08:31:09.000Z</time>
      </trkpt>
      <trkpt lat="48.338" lon="0.87612">
        <ele>148.188292</ele>
        <time>2021-09-07T08:31:14.000Z</time>
      </trkpt>
      <trkpt lat="48.33792" lon="0.8762">
        <ele>148.766543</ele>
        <time>2021-09-07T08:31:19.000Z</time>
      </trkpt>
      <trkpt lat="48.33784" lon="0.87628">
        <ele>149.420062</ele>
        <time>2021-09-07T08:31:24.000Z</time>
      </trkpt>
      <trkpt lat="48.33768" lon="0.8764">
        <ele>150.534186</ele>
        <time>2021-09-07T08:31:31.000Z</time>
      </trkpt>
      <trkpt lat="48.33753" lon="0.87651">
        <ele>151.609735</ele>
        <time>2021-09-07T08:31:38.000Z</time>
      </trkpt>
      <trkpt lat="48.33739" lon="0.87662">
        <ele>152.523663</ele>
        <time>2021-09-07T08:31:45.000Z</time>
      </trkpt>
      <trkpt lat="48.33727" lon="0.8767">
        <ele>153.148714</ele>
        <time>2021-09-07T08:31:51.000Z</time>
      </trkpt>
      <trkpt lat="48.33713" lon="0.87681">
        <ele>153.872314</ele>
        <time>2021-09-07T08:31:58.000Z</time>
      </trkpt>
      <trkpt lat="48.337" lon="0.87692">
        <ele>154.551856</ele>
        <time>2021-09-07T08:32:05.000Z</time>
      </trkpt>
      <trkpt lat="48.33686" lon="0.87702">
        <ele>155.251818</ele>
        <time>2021-09-07T08:32:12.000Z</time>
      </trkpt>
      <trkpt lat="48.33669" lon="0.87715">
        <ele>156.157606</ele>
        <time>2021-09-07T08:32:20.000Z</time>
      </trkpt>
      <trkpt lat="48.33646" lon="0.87733">
        <ele>157.353038</ele>
        <time>2021-09-07T08:32:29.000Z</time>
      </trkpt>
      <trkpt lat="48.33623" lon="0.8775">
        <ele>158.530561</ele>
        <time>2021-09-07T08:32:38.000Z</time>
      </trkpt>
      <trkpt lat="48.33598" lon="0.8777">
        <ele>159.815088</ele>
        <time>2021-09-07T08:32:47.000Z</time>
      </trkpt>
      <trkpt lat="48.33568" lon="0.87793">
        <ele>161.014738</ele>
        <time>2021-09-07T08:32:58.000Z</time>
      </trkpt>
      <trkpt lat="48.33541" lon="0.87815">
        <ele>161.738562</ele>
        <time>2021-09-07T08:33:07.000Z</time>
      </trkpt>
      <trkpt lat="48.33515" lon="0.87835">
        <ele>162.410187</ele>
        <time>2021-09-07T08:33:15.000Z</time>
      </trkpt>
      <trkpt lat="48.3349" lon="0.87854">
        <ele>163.080368</ele>
        <time>2021-09-07T08:33:23.000Z</time>
      </trkpt>
      <trkpt lat="48.33461" lon="0.87877">
        <ele>163.855673</ele>
        <time>2021-09-07T08:33:32.000Z</time>
      </trkpt>
      <trkpt lat="48.33428" lon="0.87902">
        <ele>164.725963</ele>
        <time>2021-09-07T08:33:42.000Z</time>
      </trkpt>
      <trkpt lat="48.33401" lon="0.87923">
        <ele>165.262415</ele>
        <time>2021-09-07T08:33:50.000Z</time>
      </trkpt>
      <trkpt lat="48.33369" lon="0.87948">
        <ele>165.853812</ele>
        <time>2021-09-07T08:34:00.000Z</time>
      </trkpt>
      <trkpt lat="48.33351" lon="0.87966">
        <ele>166.205122</ele>
        <time>2021-09-07T08:34:06.000Z</time>
      </trkpt>
      <trkpt lat="48.33339" lon="0.87986">
        <ele>166.492083</ele>
        <time>2021-09-07T08:34:11.000Z</time>
      </trkpt>
      <trkpt lat="48.33329" lon="0.8801">
        <ele>166.808757</ele>
        <time>2021-09-07T08:34:16.000Z</time>
      </trkpt>
      <trkpt lat="48.33315" lon="0.88052">
        <ele>167.311899</ele>
        <time>2021-09-07T08:34:24.000Z</time>
      </trkpt>
      <trkpt lat="48.333" lon="0.88112">
        <ele>167.978129</ele>
        <time>2021-09-07T08:34:35.000Z</time>
      </trkpt>
      <trkpt lat="48.33287" lon="0.88171">
        <ele>168.552203</ele>
        <time>2021-09-07T08:34:46.000Z</time>
      </trkpt>
      <trkpt lat="48.33275" lon="0.88226">
        <ele>169.083303</ele>
        <time>2021-09-07T08:34:56.000Z</time>
      </trkpt>
      <trkpt lat="48.33265" lon="0.88271">
        <ele>169.527576</ele>
        <time>2021-09-07T08:35:04.000Z</time>
      </trkpt>
      <trkpt lat="48.33255" lon="0.88306">
        <ele>169.877537</ele>
        <time>2021-09-07T08:35:11.000Z</time>
      </trkpt>
      <trkpt lat="48.33243" lon="0.88349">
        <ele>170.300192</ele>
        <time>2021-09-07T08:35:19.000Z</time>
      </trkpt>
      <trkpt lat="48.33222" lon="0.88396">
        <ele>170.635314</ele>
        <time>2021-09-07T08:35:28.000Z</time>
      </trkpt>
      <trkpt lat="48.33205" lon="0.88439">
        <ele>170.928967</ele>
        <time>2021-09-07T08:35:36.000Z</time>
      </trkpt>
      <trkpt lat="48.33194" lon="0.88476">
        <ele>171.166393</ele>
        <time>2021-09-07T08:35:42.000Z</time>
      </trkpt>
      <trkpt lat="48.33193" lon="0.88482">
        <ele>171.20408</ele>
        <time>2021-09-07T08:35:43.000Z</time>
      </trkpt>
      <trkpt lat="48.33181" lon="0.88532">
        <ele>171.517314</ele>
        <time>2021-09-07T08:35:51.000Z</time>
      </trkpt>
      <trkpt lat="48.33167" lon="0.88577">
        <ele>171.811912</ele>
        <time>2021-09-07T08:35:58.000Z</time>
      </trkpt>
      <trkpt lat="48.3316" lon="0.88588">
        <ele>171.893159</ele>
        <time>2021-09-07T08:36:00.000Z</time>
      </trkpt>
      <trkpt lat="48.33149" lon="0.886">
        <ele>171.982606</ele>
        <time>2021-09-07T08:36:03.000Z</time>
      </trkpt>
      <trkpt lat="48.33119" lon="0.88629">
        <ele>172.212495</ele>
        <time>2021-09-07T08:36:11.000Z</time>
      </trkpt>
      <trkpt lat="48.33096" lon="0.88652">
        <ele>172.395409</ele>
        <time>2021-09-07T08:36:18.000Z</time>
      </trkpt>
      <trkpt lat="48.33092" lon="0.88655">
        <ele>172.421661</ele>
        <time>2021-09-07T08:36:19.000Z</time>
      </trkpt>
      <trkpt lat="48.33075" lon="0.88672">
        <ele>172.555261</ele>
        <time>2021-09-07T08:36:24.000Z</time>
      </trkpt>
      <trkpt lat="48.33043" lon="0.88703">
        <ele>172.801508</ele>
        <time>2021-09-07T08:36:33.000Z</time>
      </trkpt>
      <trkpt lat="48.33013" lon="0.88732">
        <ele>173.033268</ele>
        <time>2021-09-07T08:36:41.000Z</time>
      </trkpt>
      <trkpt lat="48.32975" lon="0.88771">
        <ele>173.124316</ele>
        <time>2021-09-07T08:36:50.000Z</time>
      </trkpt>
      <trkpt lat="48.32939" lon="0.88806">
        <ele>173.195967</ele>
        <time>2021-09-07T08:36:58.000Z</time>
      </trkpt>
      <trkpt lat="48.32906" lon="0.88838">
        <ele>173.262521</ele>
        <time>2021-09-07T08:37:06.000Z</time>
      </trkpt>
      <trkpt lat="48.32888" lon="0.88857">
        <ele>173.30058</ele>
        <time>2021-09-07T08:37:11.000Z</time>
      </trkpt>
      <trkpt lat="48.32877" lon="0.88867">
        <ele>173.322866</ele>
        <time>2021-09-07T08:37:14.000Z</time>
      </trkpt>
      <trkpt lat="48.32848" lon="0.88896">
        <ele>173.460793</ele>
        <time>2021-09-07T08:37:22.000Z</time>
      </trkpt>
      <trkpt lat="48.32831" lon="0.88913">
        <ele>173.605743</ele>
        <time>2021-09-07T08:37:27.000Z</time>
      </trkpt>
      <trkpt lat="48.3282" lon="0.88923">
        <ele>173.692473</ele>
        <time>2021-09-07T08:37:30.000Z</time>
      </trkpt>
      <trkpt lat="48.32782" lon="0.8896">
        <ele>174.011473</ele>
        <time>2021-09-07T08:37:41.000Z</time>
      </trkpt>
      <trkpt lat="48.32749" lon="0.88993">
        <ele>174.285718</ele>
        <time>2021-09-07T08:37:51.000Z</time>
      </trkpt>
      <trkpt lat="48.32722" lon="0.89019">
        <ele>174.51062</ele>
        <time>2021-09-07T08:38:00.000Z</time>
      </trkpt>
      <trkpt lat="48.32694" lon="0.89047">
        <ele>175.124651</ele>
        <time>2021-09-07T08:38:10.000Z</time>
      </trkpt>
      <trkpt lat="48.32672" lon="0.89068">
        <ele>175.828673</ele>
        <time>2021-09-07T08:38:19.000Z</time>
      </trkpt>
      <trkpt lat="48.32645" lon="0.89094">
        <ele>176.715483</ele>
        <time>2021-09-07T08:38:31.000Z</time>
      </trkpt>
      <trkpt lat="48.32627" lon="0.89113">
        <ele>177.316753</ele>
        <time>2021-09-07T08:38:39.000Z</time>
      </trkpt>
      <trkpt lat="48.32606" lon="0.89133">
        <ele>177.988082</ele>
        <time>2021-09-07T08:38:48.000Z</time>
      </trkpt>
      <trkpt lat="48.32587" lon="0.89151">
        <ele>178.610746</ele>
        <time>2021-09-07T08:38:57.000Z</time>
      </trkpt>
      <trkpt lat="48.32567" lon="0.8917">
        <ele>179.235958</ele>
        <time>2021-09-07T08:39:06.000Z</time>
      </trkpt>
      <trkpt lat="48.3255" lon="0.89186">
        <ele>179.870441</ele>
        <time>2021-09-07T08:39:14.000Z</time>
      </trkpt>
      <trkpt lat="48.3253" lon="0.89208">
        <ele>180.763755</ele>
        <time>2021-09-07T08:39:24.000Z</time>
      </trkpt>
      <trkpt lat="48.32513" lon="0.89217">
        <ele>181.363189</ele>
        <time>2021-09-07T08:39:30.000Z</time>
      </trkpt>
      <trkpt lat="48.32493" lon="0.89215">
        <ele>182.085362</ele>
        <time>2021-09-07T08:39:37.000Z</time>
      </trkpt>
      <trkpt lat="48.32472" lon="0.89211">
        <ele>182.834858</ele>
        <time>2021-09-07T08:39:44.000Z</time>
      </trkpt>
      <trkpt lat="48.32456" lon="0.89221">
        <ele>183.431514</ele>
        <time>2021-09-07T08:39:50.000Z</time>
      </trkpt>
      <trkpt lat="48.3245" lon="0.89226">
        <ele>183.672941</ele>
        <time>2021-09-07T08:39:53.000Z</time>
      </trkpt>
      <trkpt lat="48.32448" lon="0.89229">
        <ele>183.759015</ele>
        <time>2021-09-07T08:39:54.000Z</time>
      </trkpt>
      <trkpt lat="48.32446" lon="0.89231">
        <ele>183.850554</ele>
        <time>2021-09-07T08:39:55.000Z</time>
      </trkpt>
      <trkpt lat="48.3244" lon="0.89237">
        <ele>184.112519</ele>
        <time>2021-09-07T08:39:58.000Z</time>
      </trkpt>
      <trkpt lat="48.32421" lon="0.89255">
        <ele>184.918253</ele>
        <time>2021-09-07T08:40:06.000Z</time>
      </trkpt>
      <trkpt lat="48.32408" lon="0.89267">
        <ele>185.442685</ele>
        <time>2021-09-07T08:40:12.000Z</time>
      </trkpt>
      <trkpt lat="48.32394" lon="0.89283">
        <ele>185.786465</ele>
        <time>2021-09-07T08:40:19.000Z</time>
      </trkpt>
      <trkpt lat="48.32376" lon="0.893">
        <ele>185.636604</ele>
        <time>2021-09-07T08:40:27.000Z</time>
      </trkpt>
      <trkpt lat="48.32362" lon="0.89311">
        <ele>185.526997</ele>
        <time>2021-09-07T08:40:33.000Z</time>
      </trkpt>
      <trkpt lat="48.32349" lon="0.89326">
        <ele>185.411114</ele>
        <time>2021-09-07T08:40:40.000Z</time>
      </trkpt>
      <trkpt lat="48.32332" lon="0.8934">
        <ele>185.280048</ele>
        <time>2021-09-07T08:40:47.000Z</time>
      </trkpt>
      <trkpt lat="48.32323" lon="0.8935">
        <ele>185.201529</ele>
        <time>2021-09-07T08:40:52.000Z</time>
      </trkpt>
      <trkpt lat="48.32306" lon="0.89366">
        <ele>185.063827</ele>
        <time>2021-09-07T08:40:58.000Z</time>
      </trkpt>
      <trkpt lat="48.32293" lon="0.89381">
        <ele>184.949077</ele>
        <time>2021-09-07T08:41:02.000Z</time>
      </trkpt>
      <trkpt lat="48.3229" lon="0.89387">
        <ele>184.916402</ele>
        <time>2021-09-07T08:41:03.000Z</time>
      </trkpt>
      <trkpt lat="48.32289" lon="0.89394">
        <ele>184.881268</ele>
        <time>2021-09-07T08:41:04.000Z</time>
      </trkpt>
      <trkpt lat="48.32291" lon="0.89411">
        <ele>184.801609</ele>
        <time>2021-09-07T08:41:06.000Z</time>
      </trkpt>
      <trkpt lat="48.32291" lon="0.8942">
        <ele>184.760025</ele>
        <time>2021-09-07T08:41:07.000Z</time>
      </trkpt>
      <trkpt lat="48.32292" lon="0.89459">
        <ele>184.58295</ele>
        <time>2021-09-07T08:41:11.000Z</time>
      </trkpt>
      <trkpt lat="48.32292" lon="0.89469">
        <ele>184.367386</ele>
        <time>2021-09-07T08:41:12.000Z</time>
      </trkpt>
      <trkpt lat="48.32292" lon="0.89496">
        <ele>183.767653</ele>
        <time>2021-09-07T08:41:15.000Z</time>
      </trkpt>
      <trkpt lat="48.32292" lon="0.89502">
        <ele>183.61475</ele>
        <time>2021-09-07T08:41:16.000Z</time>
      </trkpt>
      <trkpt lat="48.32287" lon="0.89512">
        <ele>183.335878</ele>
        <time>2021-09-07T08:41:18.000Z</time>
      </trkpt>
      <trkpt lat="48.32279" lon="0.8952">
        <ele>183.020036</ele>
        <time>2021-09-07T08:41:20.000Z</time>
      </trkpt>
      <trkpt lat="48.32274" lon="0.89534">
        <ele>182.679017</ele>
        <time>2021-09-07T08:41:22.000Z</time>
      </trkpt>
      <trkpt lat="48.32269" lon="0.89589">
        <ele>181.426619</ele>
        <time>2021-09-07T08:41:28.000Z</time>
      </trkpt>
      <trkpt lat="48.32268" lon="0.89599">
        <ele>181.199664</ele>
        <time>2021-09-07T08:41:29.000Z</time>
      </trkpt>
      <trkpt lat="48.32262" lon="0.8964">
        <ele>180.267886</ele>
        <time>2021-09-07T08:41:33.000Z</time>
      </trkpt>
      <trkpt lat="48.32255" lon="0.89701">
        <ele>178.879572</ele>
        <time>2021-09-07T08:41:39.000Z</time>
      </trkpt>
      <trkpt lat="48.32246" lon="0.89754">
        <ele>177.828145</ele>
        <time>2021-09-07T08:41:45.000Z</time>
      </trkpt>
      <trkpt lat="48.32235" lon="0.89819">
        <ele>176.645919</ele>
        <time>2021-09-07T08:41:52.000Z</time>
      </trkpt>
      <trkpt lat="48.3222" lon="0.89898">
        <ele>175.176016</ele>
        <time>2021-09-07T08:42:00.000Z</time>
      </trkpt>
      <trkpt lat="48.32206" lon="0.89932">
        <ele>174.459042</ele>
        <time>2021-09-07T08:42:04.000Z</time>
      </trkpt>
      <trkpt lat="48.32201" lon="0.89939">
        <ele>174.278918</ele>
        <time>2021-09-07T08:42:05.000Z</time>
      </trkpt>
      <trkpt lat="48.32159" lon="0.89999">
        <ele>173.02885</ele>
        <time>2021-09-07T08:42:14.000Z</time>
      </trkpt>
      <trkpt lat="48.32126" lon="0.90042">
        <ele>172.230387</ele>
        <time>2021-09-07T08:42:21.000Z</time>
      </trkpt>
      <trkpt lat="48.32096" lon="0.90086">
        <ele>171.471246</ele>
        <time>2021-09-07T08:42:28.000Z</time>
      </trkpt>
      <trkpt lat="48.32084" lon="0.90104">
        <ele>171.155799</ele>
        <time>2021-09-07T08:42:31.000Z</time>
      </trkpt>
      <trkpt lat="48.32074" lon="0.90125">
        <ele>170.840018</ele>
        <time>2021-09-07T08:42:34.000Z</time>
      </trkpt>
      <trkpt lat="48.32072" lon="0.90133">
        <ele>170.739073</ele>
        <time>2021-09-07T08:42:35.000Z</time>
      </trkpt>
      <trkpt lat="48.32067" lon="0.90156">
        <ele>170.438307</ele>
        <time>2021-09-07T08:42:38.000Z</time>
      </trkpt>
      <trkpt lat="48.32054" lon="0.90205">
        <ele>170.158918</ele>
        <time>2021-09-07T08:42:44.000Z</time>
      </trkpt>
      <trkpt lat="48.32034" lon="0.90256">
        <ele>169.858432</ele>
        <time>2021-09-07T08:42:51.000Z</time>
      </trkpt>
      <trkpt lat="48.32028" lon="0.90285">
        <ele>169.707704</ele>
        <time>2021-09-07T08:42:55.000Z</time>
      </trkpt>
      <trkpt lat="48.32026" lon="0.90298">
        <ele>169.638421</ele>
        <time>2021-09-07T08:42:57.000Z</time>
      </trkpt>
      <trkpt lat="48.32026" lon="0.90341">
        <ele>169.425435</ele>
        <time>2021-09-07T08:43:04.000Z</time>
      </trkpt>
      <trkpt lat="48.32019" lon="0.90358">
        <ele>169.3254</ele>
        <time>2021-09-07T08:43:08.000Z</time>
      </trkpt>
      <trkpt lat="48.32005" lon="0.90368">
        <ele>169.200609</ele>
        <time>2021-09-07T08:43:13.000Z</time>
      </trkpt>
      <trkpt lat="48.31977" lon="0.90384">
        <ele>169.018493</ele>
        <time>2021-09-07T08:43:22.000Z</time>
      </trkpt>
      <trkpt lat="48.31955" lon="0.90406">
        <ele>168.932814</ele>
        <time>2021-09-07T08:43:30.000Z</time>
      </trkpt>
      <trkpt lat="48.3194" lon="0.90428">
        <ele>168.865162</ele>
        <time>2021-09-07T08:43:36.000Z</time>
      </trkpt>
      <trkpt lat="48.31924" lon="0.90453">
        <ele>168.790947</ele>
        <time>2021-09-07T08:43:42.000Z</time>
      </trkpt>
      <trkpt lat="48.31902" lon="0.90481">
        <ele>168.699836</ele>
        <time>2021-09-07T08:43:49.000Z</time>
      </trkpt>
      <trkpt lat="48.31873" lon="0.90509">
        <ele>168.589427</ele>
        <time>2021-09-07T08:43:57.000Z</time>
      </trkpt>
      <trkpt lat="48.31847" lon="0.90535">
        <ele>168.489383</ele>
        <time>2021-09-07T08:44:04.000Z</time>
      </trkpt>
      <trkpt lat="48.3182" lon="0.90561">
        <ele>168.364209</ele>
        <time>2021-09-07T08:44:11.000Z</time>
      </trkpt>
      <trkpt lat="48.31787" lon="0.90595">
        <ele>168.203153</ele>
        <time>2021-09-07T08:44:20.000Z</time>
      </trkpt>
      <trkpt lat="48.3178" lon="0.90602">
        <ele>168.169671</ele>
        <time>2021-09-07T08:44:22.000Z</time>
      </trkpt>
      <trkpt lat="48.31766" lon="0.90615">
        <ele>168.100349</ele>
        <time>2021-09-07T08:44:26.000Z</time>
      </trkpt>
      <trkpt lat="48.31734" lon="0.9064">
        <ele>167.955293</ele>
        <time>2021-09-07T08:44:34.000Z</time>
      </trkpt>
      <trkpt lat="48.31702" lon="0.90672">
        <ele>167.799411</ele>
        <time>2021-09-07T08:44:43.000Z</time>
      </trkpt>
      <trkpt lat="48.31674" lon="0.90716">
        <ele>167.67553</ele>
        <time>2021-09-07T08:44:52.000Z</time>
      </trkpt>
      <trkpt lat="48.31651" lon="0.90754">
        <ele>167.58863</ele>
        <time>2021-09-07T08:45:00.000Z</time>
      </trkpt>
      <trkpt lat="48.31626" lon="0.90793">
        <ele>167.499197</ele>
        <time>2021-09-07T08:45:08.000Z</time>
      </trkpt>
      <trkpt lat="48.31623" lon="0.90798">
        <ele>167.487855</ele>
        <time>2021-09-07T08:45:09.000Z</time>
      </trkpt>
      <trkpt lat="48.31607" lon="0.90819">
        <ele>167.434156</ele>
        <time>2021-09-07T08:45:14.000Z</time>
      </trkpt>
      <trkpt lat="48.31592" lon="0.90833">
        <ele>167.389187</ele>
        <time>2021-09-07T08:45:18.000Z</time>
      </trkpt>
      <trkpt lat="48.31585" lon="0.90841">
        <ele>167.366869</ele>
        <time>2021-09-07T08:45:20.000Z</time>
      </trkpt>
      <trkpt lat="48.31567" lon="0.90854">
        <ele>167.317194</ele>
        <time>2021-09-07T08:45:25.000Z</time>
      </trkpt>
      <trkpt lat="48.3155" lon="0.90863">
        <ele>167.379049</ele>
        <time>2021-09-07T08:45:30.000Z</time>
      </trkpt>
      <trkpt lat="48.31539" lon="0.90865">
        <ele>167.545009</ele>
        <time>2021-09-07T08:45:33.000Z</time>
      </trkpt>
      <trkpt lat="48.3153" lon="0.90862">
        <ele>167.669021</ele>
        <time>2021-09-07T08:45:35.000Z</time>
      </trkpt>
      <trkpt lat="48.31507" lon="0.90841">
        <ele>168.042374</ele>
        <time>2021-09-07T08:45:41.000Z</time>
      </trkpt>
      <trkpt lat="48.31503" lon="0.90839">
        <ele>168.103566</ele>
        <time>2021-09-07T08:45:42.000Z</time>
      </trkpt>
      <trkpt lat="48.31495" lon="0.90838">
        <ele>168.225416</ele>
        <time>2021-09-07T08:45:44.000Z</time>
      </trkpt>
      <trkpt lat="48.31491" lon="0.90839">
        <ele>168.285808</ele>
        <time>2021-09-07T08:45:45.000Z</time>
      </trkpt>
      <trkpt lat="48.31468" lon="0.90853">
        <ele>168.626708</ele>
        <time>2021-09-07T08:45:51.000Z</time>
      </trkpt>
      <trkpt lat="48.31439" lon="0.90872">
        <ele>169.070068</ele>
        <time>2021-09-07T08:45:59.000Z</time>
      </trkpt>
      <trkpt lat="48.31414" lon="0.90888">
        <ele>169.461122</ele>
        <time>2021-09-07T08:46:07.000Z</time>
      </trkpt>
      <trkpt lat="48.31391" lon="0.909">
        <ele>169.807296</ele>
        <time>2021-09-07T08:46:14.000Z</time>
      </trkpt>
      <trkpt lat="48.31369" lon="0.90907">
        <ele>170.205828</ele>
        <time>2021-09-07T08:46:21.000Z</time>
      </trkpt>
      <trkpt lat="48.31347" lon="0.90912">
        <ele>170.590415</ele>
        <time>2021-09-07T08:46:28.000Z</time>
      </trkpt>
      <trkpt lat="48.31329" lon="0.90921">
        <ele>170.929576</ele>
        <time>2021-09-07T08:46:35.000Z</time>
      </trkpt>
      <trkpt lat="48.31316" lon="0.90929">
        <ele>171.188322</ele>
        <time>2021-09-07T08:46:40.000Z</time>
      </trkpt>
      <trkpt lat="48.31304" lon="0.90947">
        <ele>171.495117</ele>
        <time>2021-09-07T08:46:45.000Z</time>
      </trkpt>
      <trkpt lat="48.31288" lon="0.90969">
        <ele>171.874422</ele>
        <time>2021-09-07T08:46:51.000Z</time>
      </trkpt>
      <trkpt lat="48.31272" lon="0.9098">
        <ele>172.184223</ele>
        <time>2021-09-07T08:46:56.000Z</time>
      </trkpt>
      <trkpt lat="48.31249" lon="0.90987">
        <ele>172.607683</ele>
        <time>2021-09-07T08:47:03.000Z</time>
      </trkpt>
      <trkpt lat="48.31228" lon="0.90989">
        <ele>172.980141</ele>
        <time>2021-09-07T08:47:09.000Z</time>
      </trkpt>
      <trkpt lat="48.31206" lon="0.90986">
        <ele>173.317595</ele>
        <time>2021-09-07T08:47:16.000Z</time>
      </trkpt>
      <trkpt lat="48.31185" lon="0.90979">
        <ele>173.630774</ele>
        <time>2021-09-07T08:47:23.000Z</time>
      </trkpt>
      <trkpt lat="48.3117" lon="0.90974">
        <ele>173.859988</ele>
        <time>2021-09-07T08:47:29.000Z</time>
      </trkpt>
      <trkpt lat="48.31156" lon="0.90971">
        <ele>174.065637</ele>
        <time>2021-09-07T08:47:34.000Z</time>
      </trkpt>
      <trkpt lat="48.3113" lon="0.90961">
        <ele>174.448334</ele>
        <time>2021-09-07T08:47:42.000Z</time>
      </trkpt>
      <trkpt lat="48.3111" lon="0.90955">
        <ele>174.749748</ele>
        <time>2021-09-07T08:47:48.000Z</time>
      </trkpt>
      <trkpt lat="48.31083" lon="0.90948">
        <ele>175.140652</ele>
        <time>2021-09-07T08:47:56.000Z</time>
      </trkpt>
      <trkpt lat="48.3106" lon="0.90949">
        <ele>175.474834</ele>
        <time>2021-09-07T08:48:03.000Z</time>
      </trkpt>
      <trkpt lat="48.31038" lon="0.90956">
        <ele>175.763158</ele>
        <time>2021-09-07T08:48:10.000Z</time>
      </trkpt>
      <trkpt lat="48.31013" lon="0.90965">
        <ele>176.034968</ele>
        <time>2021-09-07T08:48:18.000Z</time>
      </trkpt>
      <trkpt lat="48.30991" lon="0.90975">
        <ele>176.277382</ele>
        <time>2021-09-07T08:48:25.000Z</time>
      </trkpt>
      <trkpt lat="48.30966" lon="0.90987">
        <ele>176.554174</ele>
        <time>2021-09-07T08:48:33.000Z</time>
      </trkpt>
      <trkpt lat="48.30946" lon="0.90996">
        <ele>176.764661</ele>
        <time>2021-09-07T08:48:39.000Z</time>
      </trkpt>
      <trkpt lat="48.30921" lon="0.91001">
        <ele>177.032651</ele>
        <time>2021-09-07T08:48:47.000Z</time>
      </trkpt>
      <trkpt lat="48.30905" lon="0.90999">
        <ele>177.20483</ele>
        <time>2021-09-07T08:48:52.000Z</time>
      </trkpt>
      <trkpt lat="48.30885" lon="0.90991">
        <ele>177.418103</ele>
        <time>2021-09-07T08:48:58.000Z</time>
      </trkpt>
      <trkpt lat="48.30864" lon="0.9098">
        <ele>177.608232</ele>
        <time>2021-09-07T08:49:05.000Z</time>
      </trkpt>
      <trkpt lat="48.30844" lon="0.90974">
        <ele>177.733215</ele>
        <time>2021-09-07T08:49:11.000Z</time>
      </trkpt>
      <trkpt lat="48.30826" lon="0.90977">
        <ele>177.846783</ele>
        <time>2021-09-07T08:49:17.000Z</time>
      </trkpt>
      <trkpt lat="48.308" lon="0.90992">
        <ele>178.017121</ele>
        <time>2021-09-07T08:49:26.000Z</time>
      </trkpt>
      <trkpt lat="48.30781" lon="0.91009">
        <ele>178.152618</ele>
        <time>2021-09-07T08:49:33.000Z</time>
      </trkpt>
      <trkpt lat="48.30762" lon="0.91025">
        <ele>178.285903</ele>
        <time>2021-09-07T08:49:40.000Z</time>
      </trkpt>
      <trkpt lat="48.30741" lon="0.91046">
        <ele>178.443661</ele>
        <time>2021-09-07T08:49:48.000Z</time>
      </trkpt>
      <trkpt lat="48.30723" lon="0.91065">
        <ele>178.579804</ele>
        <time>2021-09-07T08:49:55.000Z</time>
      </trkpt>
      <trkpt lat="48.30708" lon="0.91082">
        <ele>178.700093</ele>
        <time>2021-09-07T08:50:01.000Z</time>
      </trkpt>
      <trkpt lat="48.30689" lon="0.91102">
        <ele>178.859429</ele>
        <time>2021-09-07T08:50:08.000Z</time>
      </trkpt>
      <trkpt lat="48.3067" lon="0.91125">
        <ele>179.029902</ele>
        <time>2021-09-07T08:50:15.000Z</time>
      </trkpt>
      <trkpt lat="48.3065" lon="0.91149">
        <ele>179.209275</ele>
        <time>2021-09-07T08:50:23.000Z</time>
      </trkpt>
      <trkpt lat="48.30633" lon="0.91169">
        <ele>179.360013</ele>
        <time>2021-09-07T08:50:30.000Z</time>
      </trkpt>
      <trkpt lat="48.30612" lon="0.91198">
        <ele>179.55899</ele>
        <time>2021-09-07T08:50:38.000Z</time>
      </trkpt>
      <trkpt lat="48.30597" lon="0.91234">
        <ele>179.754182</ele>
        <time>2021-09-07T08:50:45.000Z</time>
      </trkpt>
      <trkpt lat="48.30582" lon="0.91288">
        <ele>180.030656</ele>
        <time>2021-09-07T08:50:54.000Z</time>
      </trkpt>
      <trkpt lat="48.30576" lon="0.91312">
        <ele>180.152482</ele>
        <time>2021-09-07T08:50:58.000Z</time>
      </trkpt>
      <trkpt lat="48.30573" lon="0.9133">
        <ele>180.242023</ele>
        <time>2021-09-07T08:51:01.000Z</time>
      </trkpt>
      <trkpt lat="48.30566" lon="0.91373">
        <ele>180.452578</ele>
        <time>2021-09-07T08:51:08.000Z</time>
      </trkpt>
      <trkpt lat="48.30563" lon="0.91404">
        <ele>180.601554</ele>
        <time>2021-09-07T08:51:13.000Z</time>
      </trkpt>
      <trkpt lat="48.30562" lon="0.9141">
        <ele>180.632452</ele>
        <time>2021-09-07T08:51:14.000Z</time>
      </trkpt>
      <trkpt lat="48.30556" lon="0.91454">
        <ele>180.844929</ele>
        <time>2021-09-07T08:51:21.000Z</time>
      </trkpt>
      <trkpt lat="48.30554" lon="0.91472">
        <ele>180.932714</ele>
        <time>2021-09-07T08:51:24.000Z</time>
      </trkpt>
      <trkpt lat="48.30553" lon="0.91489">
        <ele>181.012476</ele>
        <time>2021-09-07T08:51:27.000Z</time>
      </trkpt>
      <trkpt lat="48.30552" lon="0.91517">
        <ele>181.147721</ele>
        <time>2021-09-07T08:51:32.000Z</time>
      </trkpt>
      <trkpt lat="48.30545" lon="0.91562">
        <ele>181.439914</ele>
        <time>2021-09-07T08:51:39.000Z</time>
      </trkpt>
      <trkpt lat="48.30539" lon="0.91615">
        <ele>181.804505</ele>
        <time>2021-09-07T08:51:48.000Z</time>
      </trkpt>
      <trkpt lat="48.30535" lon="0.91667">
        <ele>182.165467</ele>
        <time>2021-09-07T08:51:57.000Z</time>
      </trkpt>
      <trkpt lat="48.30532" lon="0.91713">
        <ele>182.476332</ele>
        <time>2021-09-07T08:52:05.000Z</time>
      </trkpt>
      <trkpt lat="48.30528" lon="0.91764">
        <ele>182.831139</ele>
        <time>2021-09-07T08:52:14.000Z</time>
      </trkpt>
      <trkpt lat="48.30524" lon="0.91812">
        <ele>183.26292</ele>
        <time>2021-09-07T08:52:22.000Z</time>
      </trkpt>
      <trkpt lat="48.3052" lon="0.91865">
        <ele>183.967203</ele>
        <time>2021-09-07T08:52:31.000Z</time>
      </trkpt>
      <trkpt lat="48.30516" lon="0.91905">
        <ele>184.494159</ele>
        <time>2021-09-07T08:52:38.000Z</time>
      </trkpt>
      <trkpt lat="48.30512" lon="0.91955">
        <ele>185.146492</ele>
        <time>2021-09-07T08:52:47.000Z</time>
      </trkpt>
      <trkpt lat="48.30509" lon="0.91992">
        <ele>185.635191</ele>
        <time>2021-09-07T08:52:54.000Z</time>
      </trkpt>
      <trkpt lat="48.30505" lon="0.92036">
        <ele>186.206876</ele>
        <time>2021-09-07T08:53:02.000Z</time>
      </trkpt>
      <trkpt lat="48.305" lon="0.92077">
        <ele>186.66488</ele>
        <time>2021-09-07T08:53:09.000Z</time>
      </trkpt>
      <trkpt lat="48.30494" lon="0.92133">
        <ele>187.03131</ele>
        <time>2021-09-07T08:53:17.000Z</time>
      </trkpt>
      <trkpt lat="48.30488" lon="0.92187">
        <ele>187.391213</ele>
        <time>2021-09-07T08:53:25.000Z</time>
      </trkpt>
      <trkpt lat="48.30483" lon="0.92238">
        <ele>187.733915</ele>
        <time>2021-09-07T08:53:32.000Z</time>
      </trkpt>
      <trkpt lat="48.30478" lon="0.9229">
        <ele>188.077908</ele>
        <time>2021-09-07T08:53:39.000Z</time>
      </trkpt>
      <trkpt lat="48.30469" lon="0.92337">
        <ele>188.436752</ele>
        <time>2021-09-07T08:53:46.000Z</time>
      </trkpt>
      <trkpt lat="48.30454" lon="0.92391">
        <ele>189.107636</ele>
        <time>2021-09-07T08:53:55.000Z</time>
      </trkpt>
      <trkpt lat="48.30438" lon="0.92434">
        <ele>189.677145</ele>
        <time>2021-09-07T08:54:04.000Z</time>
      </trkpt>
      <trkpt lat="48.30425" lon="0.92472">
        <ele>190.165859</ele>
        <time>2021-09-07T08:54:13.000Z</time>
      </trkpt>
      <trkpt lat="48.30413" lon="0.92504">
        <ele>190.578695</ele>
        <time>2021-09-07T08:54:21.000Z</time>
      </trkpt>
      <trkpt lat="48.30402" lon="0.92533">
        <ele>190.955062</ele>
        <time>2021-09-07T08:54:29.000Z</time>
      </trkpt>
      <trkpt lat="48.30391" lon="0.92563">
        <ele>191.350055</ele>
        <time>2021-09-07T08:54:38.000Z</time>
      </trkpt>
      <trkpt lat="48.3038" lon="0.92593">
        <ele>192.021788</ele>
        <time>2021-09-07T08:54:47.000Z</time>
      </trkpt>
      <trkpt lat="48.30372" lon="0.92617">
        <ele>192.603156</ele>
        <time>2021-09-07T08:54:54.000Z</time>
      </trkpt>
      <trkpt lat="48.30359" lon="0.92651">
        <ele>193.455233</ele>
        <time>2021-09-07T08:55:04.000Z</time>
      </trkpt>
      <trkpt lat="48.30349" lon="0.92679">
        <ele>194.152622</ele>
        <time>2021-09-07T08:55:12.000Z</time>
      </trkpt>
      <trkpt lat="48.30337" lon="0.92713">
        <ele>194.994747</ele>
        <time>2021-09-07T08:55:21.000Z</time>
      </trkpt>
      <trkpt lat="48.30325" lon="0.92746">
        <ele>195.817067</ele>
        <time>2021-09-07T08:55:30.000Z</time>
      </trkpt>
      <trkpt lat="48.30314" lon="0.92775">
        <ele>196.531265</ele>
        <time>2021-09-07T08:55:38.000Z</time>
      </trkpt>
      <trkpt lat="48.30302" lon="0.92808">
        <ele>197.375224</ele>
        <time>2021-09-07T08:55:48.000Z</time>
      </trkpt>
      <trkpt lat="48.30286" lon="0.92848">
        <ele>199.026225</ele>
        <time>2021-09-07T08:56:00.000Z</time>
      </trkpt>
      <trkpt lat="48.30279" lon="0.9287">
        <ele>199.926606</ele>
        <time>2021-09-07T08:56:07.000Z</time>
      </trkpt>
      <trkpt lat="48.30273" lon="0.9289">
        <ele>200.701812</ele>
        <time>2021-09-07T08:56:13.000Z</time>
      </trkpt>
      <trkpt lat="48.30268" lon="0.9291">
        <ele>201.465376</ele>
        <time>2021-09-07T08:56:19.000Z</time>
      </trkpt>
      <trkpt lat="48.3026" lon="0.92932">
        <ele>202.370915</ele>
        <time>2021-09-07T08:56:26.000Z</time>
      </trkpt>
      <trkpt lat="48.30256" lon="0.9295">
        <ele>203.03291</ele>
        <time>2021-09-07T08:56:31.000Z</time>
      </trkpt>
      <trkpt lat="48.30248" lon="0.92972">
        <ele>203.92605</ele>
        <time>2021-09-07T08:56:38.000Z</time>
      </trkpt>
      <trkpt lat="48.30241" lon="0.92993">
        <ele>204.780143</ele>
        <time>2021-09-07T08:56:45.000Z</time>
      </trkpt>
      <trkpt lat="48.30236" lon="0.93015">
        <ele>205.623552</ele>
        <time>2021-09-07T08:56:52.000Z</time>
      </trkpt>
      <trkpt lat="48.30234" lon="0.9303">
        <ele>206.160017</ele>
        <time>2021-09-07T08:56:57.000Z</time>
      </trkpt>
      <trkpt lat="48.3023" lon="0.93053">
        <ele>207.023115</ele>
        <time>2021-09-07T08:57:04.000Z</time>
      </trkpt>
      <trkpt lat="48.30227" lon="0.93078">
        <ele>208.200606</ele>
        <time>2021-09-07T08:57:12.000Z</time>
      </trkpt>
      <trkpt lat="48.30225" lon="0.93091">
        <ele>208.838314</ele>
        <time>2021-09-07T08:57:17.000Z</time>
      </trkpt>
      <trkpt lat="48.30223" lon="0.93107">
        <ele>209.588899</ele>
        <time>2021-09-07T08:57:23.000Z</time>
      </trkpt>
      <trkpt lat="48.3022" lon="0.93135">
        <ele>210.923935</ele>
        <time>2021-09-07T08:57:33.000Z</time>
      </trkpt>
      <trkpt lat="48.3022" lon="0.93161">
        <ele>212.101997</ele>
        <time>2021-09-07T08:57:42.000Z</time>
      </trkpt>
      <trkpt lat="48.3022" lon="0.93178">
        <ele>212.934106</ele>
        <time>2021-09-07T08:57:49.000Z</time>
      </trkpt>
      <trkpt lat="48.30224" lon="0.93204">
        <ele>214.155717</ele>
        <time>2021-09-07T08:57:59.000Z</time>
      </trkpt>
      <trkpt lat="48.30229" lon="0.93224">
        <ele>215.147297</ele>
        <time>2021-09-07T08:58:07.000Z</time>
      </trkpt>
      <trkpt lat="48.30235" lon="0.93245">
        <ele>216.212966</ele>
        <time>2021-09-07T08:58:15.000Z</time>
      </trkpt>
      <trkpt lat="48.3024" lon="0.93263">
        <ele>217.11622</ele>
        <time>2021-09-07T08:58:22.000Z</time>
      </trkpt>
      <trkpt lat="48.30246" lon="0.93284">
        <ele>218.18755</ele>
        <time>2021-09-07T08:58:30.000Z</time>
      </trkpt>
      <trkpt lat="48.30252" lon="0.93303">
        <ele>219.186102</ele>
        <time>2021-09-07T08:58:37.000Z</time>
      </trkpt>
      <trkpt lat="48.30258" lon="0.93325">
        <ele>220.316539</ele>
        <time>2021-09-07T08:58:45.000Z</time>
      </trkpt>
      <trkpt lat="48.30268" lon="0.93349">
        <ele>221.664173</ele>
        <time>2021-09-07T08:58:54.000Z</time>
      </trkpt>
      <trkpt lat="48.30275" lon="0.93364">
        <ele>222.559922</ele>
        <time>2021-09-07T08:59:01.000Z</time>
      </trkpt>
      <trkpt lat="48.30286" lon="0.93381">
        <ele>223.729484</ele>
        <time>2021-09-07T08:59:09.000Z</time>
      </trkpt>
      <trkpt lat="48.30296" lon="0.93394">
        <ele>224.666431</ele>
        <time>2021-09-07T08:59:16.000Z</time>
      </trkpt>
      <trkpt lat="48.30307" lon="0.93408">
        <ele>225.738915</ele>
        <time>2021-09-07T08:59:23.000Z</time>
      </trkpt>
      <trkpt lat="48.30317" lon="0.93423">
        <ele>226.725991</ele>
        <time>2021-09-07T08:59:30.000Z</time>
      </trkpt>
      <trkpt lat="48.30321" lon="0.93434">
        <ele>227.336765</ele>
        <time>2021-09-07T08:59:35.000Z</time>
      </trkpt>
      <trkpt lat="48.30324" lon="0.93447">
        <ele>228.005405</ele>
        <time>2021-09-07T08:59:40.000Z</time>
      </trkpt>
      <trkpt lat="48.30324" lon="0.93449">
        <ele>228.1214</ele>
        <time>2021-09-07T08:59:41.000Z</time>
      </trkpt>
      <trkpt lat="48.30324" lon="0.93459">
        <ele>228.598947</ele>
        <time>2021-09-07T08:59:45.000Z</time>
      </trkpt>
      <trkpt lat="48.30324" lon="0.93461">
        <ele>228.706538</ele>
        <time>2021-09-07T08:59:46.000Z</time>
      </trkpt>
      <trkpt lat="48.30325" lon="0.93469">
        <ele>229.064668</ele>
        <time>2021-09-07T08:59:49.000Z</time>
      </trkpt>
      <trkpt lat="48.30325" lon="0.93474">
        <ele>229.315605</ele>
        <time>2021-09-07T08:59:51.000Z</time>
      </trkpt>
      <trkpt lat="48.30326" lon="0.93479">
        <ele>229.543228</ele>
        <time>2021-09-07T08:59:53.000Z</time>
      </trkpt>
      <trkpt lat="48.30326" lon="0.93489">
        <ele>230.064389</ele>
        <time>2021-09-07T08:59:57.000Z</time>
      </trkpt>
      <trkpt lat="48.30323" lon="0.93512">
        <ele>231.192267</ele>
        <time>2021-09-07T09:00:05.000Z</time>
      </trkpt>
      <trkpt lat="48.3032" lon="0.93532">
        <ele>232.170525</ele>
        <time>2021-09-07T09:00:12.000Z</time>
      </trkpt>
      <trkpt lat="48.30317" lon="0.93556">
        <ele>233.014393</ele>
        <time>2021-09-07T09:00:20.000Z</time>
      </trkpt>
      <trkpt lat="48.30313" lon="0.93576">
        <ele>233.545498</ele>
        <time>2021-09-07T09:00:26.000Z</time>
      </trkpt>
      <trkpt lat="48.3031" lon="0.93598">
        <ele>234.139695</ele>
        <time>2021-09-07T09:00:32.000Z</time>
      </trkpt>
      <trkpt lat="48.30306" lon="0.9363">
        <ele>234.977692</ele>
        <time>2021-09-07T09:00:39.000Z</time>
      </trkpt>
      <trkpt lat="48.30303" lon="0.93658">
        <ele>235.729674</ele>
        <time>2021-09-07T09:00:45.000Z</time>
      </trkpt>
      <trkpt lat="48.30298" lon="0.93687">
        <ele>236.487247</ele>
        <time>2021-09-07T09:00:50.000Z</time>
      </trkpt>
      <trkpt lat="48.30294" lon="0.93715">
        <ele>237.23949</ele>
        <time>2021-09-07T09:00:55.000Z</time>
      </trkpt>
      <trkpt lat="48.30291" lon="0.93737">
        <ele>237.838811</ele>
        <time>2021-09-07T09:00:59.000Z</time>
      </trkpt>
      <trkpt lat="48.3029" lon="0.93744">
        <ele>238.009557</ele>
        <time>2021-09-07T09:01:00.000Z</time>
      </trkpt>
      <trkpt lat="48.30285" lon="0.93782">
        <ele>239.030576</ele>
        <time>2021-09-07T09:01:07.000Z</time>
      </trkpt>
      <trkpt lat="48.3028" lon="0.93817">
        <ele>239.900531</ele>
        <time>2021-09-07T09:01:14.000Z</time>
      </trkpt>
      <trkpt lat="48.30275" lon="0.93847">
        <ele>240.561344</ele>
        <time>2021-09-07T09:01:20.000Z</time>
      </trkpt>
      <trkpt lat="48.3027" lon="0.93884">
        <ele>241.358286</ele>
        <time>2021-09-07T09:01:27.000Z</time>
      </trkpt>
      <trkpt lat="48.30264" lon="0.93931">
        <ele>242.387214</ele>
        <time>2021-09-07T09:01:36.000Z</time>
      </trkpt>
      <trkpt lat="48.30263" lon="0.93972">
        <ele>243.265961</ele>
        <time>2021-09-07T09:01:44.000Z</time>
      </trkpt>
      <trkpt lat="48.30266" lon="0.94004">
        <ele>243.953453</ele>
        <time>2021-09-07T09:01:50.000Z</time>
      </trkpt>
      <trkpt lat="48.30274" lon="0.94045">
        <ele>244.864528</ele>
        <time>2021-09-07T09:01:59.000Z</time>
      </trkpt>
      <trkpt lat="48.30276" lon="0.94078">
        <ele>245.714563</ele>
        <time>2021-09-07T09:02:06.000Z</time>
      </trkpt>
      <trkpt lat="48.30278" lon="0.94099">
        <ele>246.731023</ele>
        <time>2021-09-07T09:02:12.000Z</time>
      </trkpt>
      <trkpt lat="48.30279" lon="0.94119">
        <ele>247.696303</ele>
        <time>2021-09-07T09:02:19.000Z</time>
      </trkpt>
      <trkpt lat="48.30283" lon="0.94136">
        <ele>248.535597</ele>
        <time>2021-09-07T09:02:25.000Z</time>
      </trkpt>
      <trkpt lat="48.30287" lon="0.94155">
        <ele>249.458246</ele>
        <time>2021-09-07T09:02:31.000Z</time>
      </trkpt>
      <trkpt lat="48.30292" lon="0.94173">
        <ele>250.396128</ele>
        <time>2021-09-07T09:02:38.000Z</time>
      </trkpt>
      <trkpt lat="48.30298" lon="0.94196">
        <ele>251.56488</ele>
        <time>2021-09-07T09:02:47.000Z</time>
      </trkpt>
      <trkpt lat="48.30306" lon="0.94217">
        <ele>252.686329</ele>
        <time>2021-09-07T09:02:55.000Z</time>
      </trkpt>
      <trkpt lat="48.30311" lon="0.94233">
        <ele>253.543173</ele>
        <time>2021-09-07T09:03:02.000Z</time>
      </trkpt>
      <trkpt lat="48.30313" lon="0.94238">
        <ele>253.778889</ele>
        <time>2021-09-07T09:03:04.000Z</time>
      </trkpt>
      <trkpt lat="48.30315" lon="0.94246">
        <ele>254.195752</ele>
        <time>2021-09-07T09:03:07.000Z</time>
      </trkpt>
      <trkpt lat="48.30321" lon="0.9426">
        <ele>254.974799</ele>
        <time>2021-09-07T09:03:13.000Z</time>
      </trkpt>
      <trkpt lat="48.30324" lon="0.94271">
        <ele>255.534415</ele>
        <time>2021-09-07T09:03:18.000Z</time>
      </trkpt>
      <trkpt lat="48.30325" lon="0.94273">
        <ele>255.650933</ele>
        <time>2021-09-07T09:03:19.000Z</time>
      </trkpt>
      <trkpt lat="48.30326" lon="0.94277">
        <ele>255.863816</ele>
        <time>2021-09-07T09:03:22.000Z</time>
      </trkpt>
      <trkpt lat="48.30328" lon="0.94284">
        <ele>256.243636</ele>
        <time>2021-09-07T09:03:25.000Z</time>
      </trkpt>
      <trkpt lat="48.30335" lon="0.943">
        <ele>257.123814</ele>
        <time>2021-09-07T09:03:32.000Z</time>
      </trkpt>
      <trkpt lat="48.30336" lon="0.94302">
        <ele>257.226249</ele>
        <time>2021-09-07T09:03:33.000Z</time>
      </trkpt>
      <trkpt lat="48.3034" lon="0.94314">
        <ele>257.891162</ele>
        <time>2021-09-07T09:03:40.000Z</time>
      </trkpt>
      <trkpt lat="48.30341" lon="0.94316">
        <ele>257.966105</ele>
        <time>2021-09-07T09:03:41.000Z</time>
      </trkpt>
      <trkpt lat="48.30345" lon="0.94325">
        <ele>258.413336</ele>
        <time>2021-09-07T09:03:47.000Z</time>
      </trkpt>
      <trkpt lat="48.30344" lon="0.94326">
        <ele>258.485592</ele>
        <time>2021-09-07T09:03:48.000Z</time>
      </trkpt>
      <trkpt lat="48.30345" lon="0.94328">
        <ele>258.569588</ele>
        <time>2021-09-07T09:03:49.000Z</time>
      </trkpt>
      <trkpt lat="48.30348" lon="0.94341">
        <ele>259.092011</ele>
        <time>2021-09-07T09:03:54.000Z</time>
      </trkpt>
      <trkpt lat="48.30348" lon="0.94342">
        <ele>259.143484</ele>
        <time>2021-09-07T09:03:55.000Z</time>
      </trkpt>
      <trkpt lat="48.30357" lon="0.94384">
        <ele>260.913052</ele>
        <time>2021-09-07T09:04:13.000Z</time>
      </trkpt>
      <trkpt lat="48.30358" lon="0.94389">
        <ele>261.094769</ele>
        <time>2021-09-07T09:04:15.000Z</time>
      </trkpt>
      <trkpt lat="48.3036" lon="0.94407">
        <ele>261.836048</ele>
        <time>2021-09-07T09:04:22.000Z</time>
      </trkpt>
      <trkpt lat="48.30362" lon="0.94425">
        <ele>262.540209</ele>
        <time>2021-09-07T09:04:29.000Z</time>
      </trkpt>
      <trkpt lat="48.30365" lon="0.94443">
        <ele>263.284067</ele>
        <time>2021-09-07T09:04:35.000Z</time>
      </trkpt>
      <trkpt lat="48.30369" lon="0.94467">
        <ele>264.282907</ele>
        <time>2021-09-07T09:04:43.000Z</time>
      </trkpt>
      <trkpt lat="48.30373" lon="0.94491">
        <ele>265.245436</ele>
        <time>2021-09-07T09:04:51.000Z</time>
      </trkpt>
      <trkpt lat="48.30375" lon="0.94508">
        <ele>265.93115</ele>
        <time>2021-09-07T09:04:56.000Z</time>
      </trkpt>
      <trkpt lat="48.30374" lon="0.94541">
        <ele>267.22225</ele>
        <time>2021-09-07T09:05:04.000Z</time>
      </trkpt>
      <trkpt lat="48.30372" lon="0.94574">
        <ele>268.55509</ele>
        <time>2021-09-07T09:05:11.000Z</time>
      </trkpt>
      <trkpt lat="48.30369" lon="0.94611">
        <ele>269.027689</ele>
        <time>2021-09-07T09:05:18.000Z</time>
      </trkpt>
      <trkpt lat="48.30365" lon="0.94654">
        <ele>269.238693</ele>
        <time>2021-09-07T09:05:26.000Z</time>
      </trkpt>
      <trkpt lat="48.30362" lon="0.94681">
        <ele>269.370121</ele>
        <time>2021-09-07T09:05:31.000Z</time>
      </trkpt>
      <trkpt lat="48.30354" lon="0.94713">
        <ele>269.537226</ele>
        <time>2021-09-07T09:05:38.000Z</time>
      </trkpt>
      <trkpt lat="48.30347" lon="0.94738">
        <ele>269.663075</ele>
        <time>2021-09-07T09:05:43.000Z</time>
      </trkpt>
      <trkpt lat="48.30343" lon="0.94757">
        <ele>269.762369</ele>
        <time>2021-09-07T09:05:47.000Z</time>
      </trkpt>
      <trkpt lat="48.30337" lon="0.94789">
        <ele>269.920631</ele>
        <time>2021-09-07T09:05:53.000Z</time>
      </trkpt>
      <trkpt lat="48.30335" lon="0.94821">
        <ele>270.075697</ele>
        <time>2021-09-07T09:05:59.000Z</time>
      </trkpt>
      <trkpt lat="48.3033" lon="0.94847">
        <ele>270.21038</ele>
        <time>2021-09-07T09:06:04.000Z</time>
      </trkpt>
      <trkpt lat="48.30326" lon="0.94887">
        <ele>270.449689</ele>
        <time>2021-09-07T09:06:10.000Z</time>
      </trkpt>
      <trkpt lat="48.30325" lon="0.94894">
        <ele>270.490623</ele>
        <time>2021-09-07T09:06:11.000Z</time>
      </trkpt>
      <trkpt lat="48.30319" lon="0.94924">
        <ele>270.678093</ele>
        <time>2021-09-07T09:06:15.000Z</time>
      </trkpt>
      <trkpt lat="48.30316" lon="0.94939">
        <ele>270.768113</ele>
        <time>2021-09-07T09:06:17.000Z</time>
      </trkpt>
      <trkpt lat="48.30312" lon="0.94951">
        <ele>270.848505</ele>
        <time>2021-09-07T09:06:19.000Z</time>
      </trkpt>
      <trkpt lat="48.30311" lon="0.94958">
        <ele>270.891355</ele>
        <time>2021-09-07T09:06:20.000Z</time>
      </trkpt>
      <trkpt lat="48.30305" lon="0.94994">
        <ele>271.113652</ele>
        <time>2021-09-07T09:06:25.000Z</time>
      </trkpt>
      <trkpt lat="48.30295" lon="0.95053">
        <ele>271.472341</ele>
        <time>2021-09-07T09:06:33.000Z</time>
      </trkpt>
      <trkpt lat="48.30292" lon="0.95077">
        <ele>271.615351</ele>
        <time>2021-09-07T09:06:36.000Z</time>
      </trkpt>
      <trkpt lat="48.30292" lon="0.95094">
        <ele>271.719741</ele>
        <time>2021-09-07T09:06:38.000Z</time>
      </trkpt>
      <trkpt lat="48.30291" lon="0.95113">
        <ele>271.90273</ele>
        <time>2021-09-07T09:06:40.000Z</time>
      </trkpt>
      <trkpt lat="48.30289" lon="0.95129">
        <ele>272.26253</ele>
        <time>2021-09-07T09:06:42.000Z</time>
      </trkpt>
      <trkpt lat="48.30286" lon="0.95161">
        <ele>272.931431</ele>
        <time>2021-09-07T09:06:46.000Z</time>
      </trkpt>
      <trkpt lat="48.30284" lon="0.95174">
        <ele>273.199733</ele>
        <time>2021-09-07T09:06:48.000Z</time>
      </trkpt>
      <trkpt lat="48.30282" lon="0.95196">
        <ele>273.684611</ele>
        <time>2021-09-07T09:06:53.000Z</time>
      </trkpt>
      <trkpt lat="48.30279" lon="0.95219">
        <ele>274.164412</ele>
        <time>2021-09-07T09:06:58.000Z</time>
      </trkpt>
      <trkpt lat="48.30278" lon="0.95223">
        <ele>274.247957</ele>
        <time>2021-09-07T09:06:59.000Z</time>
      </trkpt>
      <trkpt lat="48.30273" lon="0.95249">
        <ele>274.817271</ele>
        <time>2021-09-07T09:07:05.000Z</time>
      </trkpt>
      <trkpt lat="48.3027" lon="0.95275">
        <ele>275.368875</ele>
        <time>2021-09-07T09:07:11.000Z</time>
      </trkpt>
      <trkpt lat="48.30268" lon="0.9528">
        <ele>275.499242</ele>
        <time>2021-09-07T09:07:13.000Z</time>
      </trkpt>
      <trkpt lat="48.30265" lon="0.95289">
        <ele>275.713923</ele>
        <time>2021-09-07T09:07:16.000Z</time>
      </trkpt>
      <trkpt lat="48.30263" lon="0.95297">
        <ele>275.893957</ele>
        <time>2021-09-07T09:07:18.000Z</time>
      </trkpt>
      <trkpt lat="48.30261" lon="0.95304">
        <ele>276.054101</ele>
        <time>2021-09-07T09:07:20.000Z</time>
      </trkpt>
      <trkpt lat="48.3026" lon="0.95334">
        <ele>276.675695</ele>
        <time>2021-09-07T09:07:26.000Z</time>
      </trkpt>
      <trkpt lat="48.30259" lon="0.95343">
        <ele>276.867392</ele>
        <time>2021-09-07T09:07:28.000Z</time>
      </trkpt>
      <trkpt lat="48.30257" lon="0.95353">
        <ele>277.093907</ele>
        <time>2021-09-07T09:07:30.000Z</time>
      </trkpt>
      <trkpt lat="48.30254" lon="0.95373">
        <ele>277.497595</ele>
        <time>2021-09-07T09:07:34.000Z</time>
      </trkpt>
      <trkpt lat="48.30255" lon="0.95382">
        <ele>277.599874</ele>
        <time>2021-09-07T09:07:36.000Z</time>
      </trkpt>
      <trkpt lat="48.30253" lon="0.95397">
        <ele>277.782785</ele>
        <time>2021-09-07T09:07:39.000Z</time>
      </trkpt>
      <trkpt lat="48.30253" lon="0.95403">
        <ele>277.84944</ele>
        <time>2021-09-07T09:07:40.000Z</time>
      </trkpt>
      <trkpt lat="48.30254" lon="0.95434">
        <ele>278.226114</ele>
        <time>2021-09-07T09:07:45.000Z</time>
      </trkpt>
      <trkpt lat="48.30257" lon="0.95465">
        <ele>278.59395</ele>
        <time>2021-09-07T09:07:50.000Z</time>
      </trkpt>
      <trkpt lat="48.30256" lon="0.95485">
        <ele>278.831992</ele>
        <time>2021-09-07T09:07:54.000Z</time>
      </trkpt>
      <trkpt lat="48.30255" lon="0.95515">
        <ele>279.189009</ele>
        <time>2021-09-07T09:08:00.000Z</time>
      </trkpt>
      <trkpt lat="48.30256" lon="0.95544">
        <ele>279.53297</ele>
        <time>2021-09-07T09:08:07.000Z</time>
      </trkpt>
      <trkpt lat="48.30256" lon="0.9557">
        <ele>279.83862</ele>
        <time>2021-09-07T09:08:13.000Z</time>
      </trkpt>
      <trkpt lat="48.30254" lon="0.95597">
        <ele>280.168802</ele>
        <time>2021-09-07T09:08:19.000Z</time>
      </trkpt>
      <trkpt lat="48.30251" lon="0.95626">
        <ele>280.508524</ele>
        <time>2021-09-07T09:08:26.000Z</time>
      </trkpt>
      <trkpt lat="48.30247" lon="0.95651">
        <ele>280.550164</ele>
        <time>2021-09-07T09:08:32.000Z</time>
      </trkpt>
      <trkpt lat="48.30242" lon="0.95685">
        <ele>280.180263</ele>
        <time>2021-09-07T09:08:38.000Z</time>
      </trkpt>
      <trkpt lat="48.30241" lon="0.95709">
        <ele>279.926294</ele>
        <time>2021-09-07T09:08:42.000Z</time>
      </trkpt>
      <trkpt lat="48.30242" lon="0.95748">
        <ele>279.510782</ele>
        <time>2021-09-07T09:08:48.000Z</time>
      </trkpt>
      <trkpt lat="48.30246" lon="0.9577">
        <ele>279.269989</ele>
        <time>2021-09-07T09:08:52.000Z</time>
      </trkpt>
      <trkpt lat="48.30249" lon="0.9579">
        <ele>279.042916</ele>
        <time>2021-09-07T09:08:56.000Z</time>
      </trkpt>
      <trkpt lat="48.30255" lon="0.95813">
        <ele>278.779705</ele>
        <time>2021-09-07T09:09:00.000Z</time>
      </trkpt>
      <trkpt lat="48.30262" lon="0.95849">
        <ele>278.38613</ele>
        <time>2021-09-07T09:09:05.000Z</time>
      </trkpt>
      <trkpt lat="48.30266" lon="0.95879">
        <ele>278.056798</ele>
        <time>2021-09-07T09:09:10.000Z</time>
      </trkpt>
      <trkpt lat="48.30266" lon="0.95897">
        <ele>277.861673</ele>
        <time>2021-09-07T09:09:14.000Z</time>
      </trkpt>
      <trkpt lat="48.30257" lon="0.9591">
        <ele>277.677382</ele>
        <time>2021-09-07T09:09:19.000Z</time>
      </trkpt>
      <trkpt lat="48.30258" lon="0.95917">
        <ele>277.602508</ele>
        <time>2021-09-07T09:09:20.000Z</time>
      </trkpt>
      <trkpt lat="48.30266" lon="0.95936">
        <ele>277.381577</ele>
        <time>2021-09-07T09:09:21.000Z</time>
      </trkpt>
      <trkpt lat="48.30266" lon="0.95966">
        <ele>277.095604</ele>
        <time>2021-09-07T09:09:25.000Z</time>
      </trkpt>
      <trkpt lat="48.30265" lon="0.9597">
        <ele>277.048768</ele>
        <time>2021-09-07T09:09:26.000Z</time>
      </trkpt>
      <trkpt lat="48.30261" lon="0.9598">
        <ele>276.934072</ele>
        <time>2021-09-07T09:09:28.000Z</time>
      </trkpt>
      <trkpt lat="48.30259" lon="0.95983">
        <ele>276.883382</ele>
        <time>2021-09-07T09:09:29.000Z</time>
      </trkpt>
      <trkpt lat="48.30261" lon="0.95996">
        <ele>276.755557</ele>
        <time>2021-09-07T09:09:30.000Z</time>
      </trkpt>
      <trkpt lat="48.3026" lon="0.96013">
        <ele>276.589902</ele>
        <time>2021-09-07T09:09:32.000Z</time>
      </trkpt>
      <trkpt lat="48.30263" lon="0.96034">
        <ele>276.373229</ele>
        <time>2021-09-07T09:09:34.000Z</time>
      </trkpt>
      <trkpt lat="48.3027" lon="0.96055">
        <ele>276.146608</ele>
        <time>2021-09-07T09:09:35.000Z</time>
      </trkpt>
      <trkpt lat="48.30272" lon="0.96067">
        <ele>276.019327</ele>
        <time>2021-09-07T09:09:36.000Z</time>
      </trkpt>
      <trkpt lat="48.30273" lon="0.96084">
        <ele>275.85589</ele>
        <time>2021-09-07T09:09:38.000Z</time>
      </trkpt>
      <trkpt lat="48.30274" lon="0.96094">
        <ele>275.75866</ele>
        <time>2021-09-07T09:09:39.000Z</time>
      </trkpt>
      <trkpt lat="48.30275" lon="0.96104">
        <ele>275.654433</ele>
        <time>2021-09-07T09:09:40.000Z</time>
      </trkpt>
      <trkpt lat="48.30274" lon="0.96124">
        <ele>275.461733</ele>
        <time>2021-09-07T09:09:43.000Z</time>
      </trkpt>
      <trkpt lat="48.30275" lon="0.96134">
        <ele>275.358861</ele>
        <time>2021-09-07T09:09:45.000Z</time>
      </trkpt>
      <trkpt lat="48.3028" lon="0.96147">
        <ele>275.22137</ele>
        <time>2021-09-07T09:09:47.000Z</time>
      </trkpt>
      <trkpt lat="48.30286" lon="0.96163">
        <ele>275.078994</ele>
        <time>2021-09-07T09:09:49.000Z</time>
      </trkpt>
      <trkpt lat="48.3029" lon="0.96171">
        <ele>275.013421</ele>
        <time>2021-09-07T09:09:50.000Z</time>
      </trkpt>
      <trkpt lat="48.30298" lon="0.96192">
        <ele>274.860999</ele>
        <time>2021-09-07T09:09:53.000Z</time>
      </trkpt>
      <trkpt lat="48.30308" lon="0.96216">
        <ele>274.683622</ele>
        <time>2021-09-07T09:09:56.000Z</time>
      </trkpt>
      <trkpt lat="48.30313" lon="0.96231">
        <ele>274.570924</ele>
        <time>2021-09-07T09:09:58.000Z</time>
      </trkpt>
      <trkpt lat="48.30318" lon="0.96246">
        <ele>274.465062</ele>
        <time>2021-09-07T09:10:00.000Z</time>
      </trkpt>
      <trkpt lat="48.30325" lon="0.96262">
        <ele>274.344948</ele>
        <time>2021-09-07T09:10:02.000Z</time>
      </trkpt>
      <trkpt lat="48.3033" lon="0.96277">
        <ele>274.235504</ele>
        <time>2021-09-07T09:10:04.000Z</time>
      </trkpt>
      <trkpt lat="48.30336" lon="0.96293">
        <ele>274.119315</ele>
        <time>2021-09-07T09:10:06.000Z</time>
      </trkpt>
      <trkpt lat="48.30339" lon="0.96301">
        <ele>274.065036</ele>
        <time>2021-09-07T09:10:07.000Z</time>
      </trkpt>
      <trkpt lat="48.30343" lon="0.96316">
        <ele>273.957424</ele>
        <time>2021-09-07T09:10:09.000Z</time>
      </trkpt>
      <trkpt lat="48.30349" lon="0.96334">
        <ele>273.836216</ele>
        <time>2021-09-07T09:10:11.000Z</time>
      </trkpt>
      <trkpt lat="48.30351" lon="0.96341">
        <ele>273.784056</ele>
        <time>2021-09-07T09:10:12.000Z</time>
      </trkpt>
      <trkpt lat="48.30358" lon="0.96371">
        <ele>273.585474</ele>
        <time>2021-09-07T09:10:16.000Z</time>
      </trkpt>
      <trkpt lat="48.30361" lon="0.96389">
        <ele>273.468465</ele>
        <time>2021-09-07T09:10:19.000Z</time>
      </trkpt>
      <trkpt lat="48.30363" lon="0.96396">
        <ele>273.406612</ele>
        <time>2021-09-07T09:10:20.000Z</time>
      </trkpt>
      <trkpt lat="48.30371" lon="0.96425">
        <ele>273.037054</ele>
        <time>2021-09-07T09:10:24.000Z</time>
      </trkpt>
      <trkpt lat="48.30377" lon="0.96452">
        <ele>272.704458</ele>
        <time>2021-09-07T09:10:28.000Z</time>
      </trkpt>
      <trkpt lat="48.3038" lon="0.96466">
        <ele>272.528473</ele>
        <time>2021-09-07T09:10:30.000Z</time>
      </trkpt>
      <trkpt lat="48.30382" lon="0.96473">
        <ele>272.439305</ele>
        <time>2021-09-07T09:10:31.000Z</time>
      </trkpt>
      <trkpt lat="48.30388" lon="0.96498">
        <ele>272.128192</ele>
        <time>2021-09-07T09:10:34.000Z</time>
      </trkpt>
      <trkpt lat="48.30392" lon="0.96508">
        <ele>271.995569</ele>
        <time>2021-09-07T09:10:35.000Z</time>
      </trkpt>
      <trkpt lat="48.30395" lon="0.96516">
        <ele>271.881596</ele>
        <time>2021-09-07T09:10:36.000Z</time>
      </trkpt>
      <trkpt lat="48.30403" lon="0.96542">
        <ele>271.546836</ele>
        <time>2021-09-07T09:10:39.000Z</time>
      </trkpt>
      <trkpt lat="48.30418" lon="0.96586">
        <ele>270.975512</ele>
        <time>2021-09-07T09:10:44.000Z</time>
      </trkpt>
      <trkpt lat="48.30436" lon="0.9663">
        <ele>270.365404</ele>
        <time>2021-09-07T09:10:48.000Z</time>
      </trkpt>
      <trkpt lat="48.30444" lon="0.96649">
        <ele>269.977926</ele>
        <time>2021-09-07T09:10:50.000Z</time>
      </trkpt>
      <trkpt lat="48.30457" lon="0.96694">
        <ele>268.98334</ele>
        <time>2021-09-07T09:10:55.000Z</time>
      </trkpt>
      <trkpt lat="48.3046" lon="0.96711">
        <ele>268.623092</ele>
        <time>2021-09-07T09:10:57.000Z</time>
      </trkpt>
      <trkpt lat="48.30463" lon="0.96737">
        <ele>268.100627</ele>
        <time>2021-09-07T09:11:00.000Z</time>
      </trkpt>
      <trkpt lat="48.30467" lon="0.96771">
        <ele>267.383057</ele>
        <time>2021-09-07T09:11:04.000Z</time>
      </trkpt>
      <trkpt lat="48.30468" lon="0.9678">
        <ele>267.20207</ele>
        <time>2021-09-07T09:11:05.000Z</time>
      </trkpt>
      <trkpt lat="48.30472" lon="0.968">
        <ele>266.794153</ele>
        <time>2021-09-07T09:11:07.000Z</time>
      </trkpt>
      <trkpt lat="48.30474" lon="0.96825">
        <ele>266.273246</ele>
        <time>2021-09-07T09:11:10.000Z</time>
      </trkpt>
      <trkpt lat="48.30471" lon="0.9685">
        <ele>265.759995</ele>
        <time>2021-09-07T09:11:14.000Z</time>
      </trkpt>
      <trkpt lat="48.30472" lon="0.96863">
        <ele>265.492375</ele>
        <time>2021-09-07T09:11:16.000Z</time>
      </trkpt>
      <trkpt lat="48.30479" lon="0.96893">
        <ele>264.842648</ele>
        <time>2021-09-07T09:11:19.000Z</time>
      </trkpt>
      <trkpt lat="48.30483" lon="0.96918">
        <ele>264.445715</ele>
        <time>2021-09-07T09:11:22.000Z</time>
      </trkpt>
      <trkpt lat="48.30483" lon="0.96929">
        <ele>264.285552</ele>
        <time>2021-09-07T09:11:24.000Z</time>
      </trkpt>
      <trkpt lat="48.3049" lon="0.9695">
        <ele>263.933825</ele>
        <time>2021-09-07T09:11:26.000Z</time>
      </trkpt>
      <trkpt lat="48.30504" lon="0.97008">
        <ele>263.003554</ele>
        <time>2021-09-07T09:11:32.000Z</time>
      </trkpt>
      <trkpt lat="48.30506" lon="0.97017">
        <ele>262.867174</ele>
        <time>2021-09-07T09:11:33.000Z</time>
      </trkpt>
      <trkpt lat="48.30518" lon="0.97069">
        <ele>262.039057</ele>
        <time>2021-09-07T09:11:39.000Z</time>
      </trkpt>
      <trkpt lat="48.30527" lon="0.97112">
        <ele>261.364865</ele>
        <time>2021-09-07T09:11:44.000Z</time>
      </trkpt>
      <trkpt lat="48.30528" lon="0.9712">
        <ele>261.248265</ele>
        <time>2021-09-07T09:11:45.000Z</time>
      </trkpt>
      <trkpt lat="48.30537" lon="0.97163">
        <ele>260.527978</ele>
        <time>2021-09-07T09:11:51.000Z</time>
      </trkpt>
      <trkpt lat="48.30546" lon="0.97209">
        <ele>259.58728</ele>
        <time>2021-09-07T09:11:57.000Z</time>
      </trkpt>
      <trkpt lat="48.30555" lon="0.97258">
        <ele>258.609388</ele>
        <time>2021-09-07T09:12:03.000Z</time>
      </trkpt>
      <trkpt lat="48.3056" lon="0.97291">
        <ele>257.942398</ele>
        <time>2021-09-07T09:12:08.000Z</time>
      </trkpt>
      <trkpt lat="48.30563" lon="0.97313">
        <ele>257.50498</ele>
        <time>2021-09-07T09:12:12.000Z</time>
      </trkpt>
      <trkpt lat="48.30559" lon="0.97318">
        <ele>257.345638</ele>
        <time>2021-09-07T09:12:14.000Z</time>
      </trkpt>
      <trkpt lat="48.3056" lon="0.97337">
        <ele>256.971213</ele>
        <time>2021-09-07T09:12:17.000Z</time>
      </trkpt>
      <trkpt lat="48.30562" lon="0.97347">
        <ele>256.772502</ele>
        <time>2021-09-07T09:12:18.000Z</time>
      </trkpt>
      <trkpt lat="48.3057" lon="0.97376">
        <ele>256.159537</ele>
        <time>2021-09-07T09:12:21.000Z</time>
      </trkpt>
      <trkpt lat="48.30576" lon="0.97395">
        <ele>255.744239</ele>
        <time>2021-09-07T09:12:23.000Z</time>
      </trkpt>
      <trkpt lat="48.30578" lon="0.97405">
        <ele>255.537959</ele>
        <time>2021-09-07T09:12:24.000Z</time>
      </trkpt>
      <trkpt lat="48.30582" lon="0.97421">
        <ele>255.42003</ele>
        <time>2021-09-07T09:12:26.000Z</time>
      </trkpt>
      <trkpt lat="48.30585" lon="0.97445">
        <ele>255.342591</ele>
        <time>2021-09-07T09:12:30.000Z</time>
      </trkpt>
      <trkpt lat="48.30582" lon="0.97464">
        <ele>255.281928</ele>
        <time>2021-09-07T09:12:34.000Z</time>
      </trkpt>
      <trkpt lat="48.30583" lon="0.97471">
        <ele>255.25795</ele>
        <time>2021-09-07T09:12:35.000Z</time>
      </trkpt>
      <trkpt lat="48.30594" lon="0.97503">
        <ele>255.141829</ele>
        <time>2021-09-07T09:12:39.000Z</time>
      </trkpt>
      <trkpt lat="48.30598" lon="0.97513">
        <ele>255.104621</ele>
        <time>2021-09-07T09:12:40.000Z</time>
      </trkpt>
      <trkpt lat="48.30601" lon="0.97521">
        <ele>255.073566</ele>
        <time>2021-09-07T09:12:41.000Z</time>
      </trkpt>
      <trkpt lat="48.3062" lon="0.97566">
        <ele>254.903779</ele>
        <time>2021-09-07T09:12:45.000Z</time>
      </trkpt>
      <trkpt lat="48.30626" lon="0.97587">
        <ele>254.831111</ele>
        <time>2021-09-07T09:12:47.000Z</time>
      </trkpt>
      <trkpt lat="48.3063" lon="0.97604">
        <ele>254.773316</ele>
        <time>2021-09-07T09:12:49.000Z</time>
      </trkpt>
      <trkpt lat="48.30636" lon="0.97632">
        <ele>254.678773</ele>
        <time>2021-09-07T09:12:53.000Z</time>
      </trkpt>
      <trkpt lat="48.30643" lon="0.97647">
        <ele>254.62092</ele>
        <time>2021-09-07T09:12:54.000Z</time>
      </trkpt>
      <trkpt lat="48.3066" lon="0.97702">
        <ele>254.381161</ele>
        <time>2021-09-07T09:12:59.000Z</time>
      </trkpt>
      <trkpt lat="48.30675" lon="0.97753">
        <ele>254.152535</ele>
        <time>2021-09-07T09:13:04.000Z</time>
      </trkpt>
      <trkpt lat="48.30682" lon="0.97781">
        <ele>254.033771</ele>
        <time>2021-09-07T09:13:07.000Z</time>
      </trkpt>
      <trkpt lat="48.30686" lon="0.97796">
        <ele>253.968632</ele>
        <time>2021-09-07T09:13:09.000Z</time>
      </trkpt>
      <trkpt lat="48.30686" lon="0.97803">
        <ele>253.940439</ele>
        <time>2021-09-07T09:13:10.000Z</time>
      </trkpt>
      <trkpt lat="48.30687" lon="0.9781">
        <ele>253.911367</ele>
        <time>2021-09-07T09:13:11.000Z</time>
      </trkpt>
      <trkpt lat="48.30694" lon="0.9784">
        <ele>253.781992</ele>
        <time>2021-09-07T09:13:14.000Z</time>
      </trkpt>
      <trkpt lat="48.30701" lon="0.9786">
        <ele>253.68811</ele>
        <time>2021-09-07T09:13:16.000Z</time>
      </trkpt>
      <trkpt lat="48.30705" lon="0.97881">
        <ele>253.60026</ele>
        <time>2021-09-07T09:13:18.000Z</time>
      </trkpt>
      <trkpt lat="48.30715" lon="0.97946">
        <ele>253.5209</ele>
        <time>2021-09-07T09:13:24.000Z</time>
      </trkpt>
      <trkpt lat="48.30727" lon="0.98024">
        <ele>253.570839</ele>
        <time>2021-09-07T09:13:32.000Z</time>
      </trkpt>
      <trkpt lat="48.30738" lon="0.98084">
        <ele>253.60944</ele>
        <time>2021-09-07T09:13:39.000Z</time>
      </trkpt>
      <trkpt lat="48.3074" lon="0.98092">
        <ele>253.614889</ele>
        <time>2021-09-07T09:13:40.000Z</time>
      </trkpt>
      <trkpt lat="48.30753" lon="0.98125">
        <ele>253.63884</ele>
        <time>2021-09-07T09:13:44.000Z</time>
      </trkpt>
      <trkpt lat="48.30774" lon="0.98173">
        <ele>253.62522</ele>
        <time>2021-09-07T09:13:50.000Z</time>
      </trkpt>
      <trkpt lat="48.30799" lon="0.98231">
        <ele>253.472296</ele>
        <time>2021-09-07T09:13:58.000Z</time>
      </trkpt>
      <trkpt lat="48.30817" lon="0.98272">
        <ele>253.362865</ele>
        <time>2021-09-07T09:14:04.000Z</time>
      </trkpt>
      <trkpt lat="48.30821" lon="0.98279">
        <ele>253.343045</ele>
        <time>2021-09-07T09:14:05.000Z</time>
      </trkpt>
      <trkpt lat="48.30832" lon="0.98301">
        <ele>253.282969</ele>
        <time>2021-09-07T09:14:08.000Z</time>
      </trkpt>
      <trkpt lat="48.30838" lon="0.98316">
        <ele>253.242807</ele>
        <time>2021-09-07T09:14:10.000Z</time>
      </trkpt>
      <trkpt lat="48.30859" lon="0.98357">
        <ele>253.130099</ele>
        <time>2021-09-07T09:14:15.000Z</time>
      </trkpt>
      <trkpt lat="48.30878" lon="0.98392">
        <ele>253.029758</ele>
        <time>2021-09-07T09:14:20.000Z</time>
      </trkpt>
      <trkpt lat="48.30888" lon="0.98411">
        <ele>252.975825</ele>
        <time>2021-09-07T09:14:23.000Z</time>
      </trkpt>
      <trkpt lat="48.30895" lon="0.98425">
        <ele>252.937784</ele>
        <time>2021-09-07T09:14:25.000Z</time>
      </trkpt>
      <trkpt lat="48.30921" lon="0.98474">
        <ele>252.799961</ele>
        <time>2021-09-07T09:14:31.000Z</time>
      </trkpt>
      <trkpt lat="48.3094" lon="0.98522">
        <ele>252.676859</ele>
        <time>2021-09-07T09:14:37.000Z</time>
      </trkpt>
      <trkpt lat="48.30945" lon="0.98541">
        <ele>252.631243</ele>
        <time>2021-09-07T09:14:40.000Z</time>
      </trkpt>
      <trkpt lat="48.30947" lon="0.98547">
        <ele>252.614727</ele>
        <time>2021-09-07T09:14:41.000Z</time>
      </trkpt>
      <trkpt lat="48.30949" lon="0.98554">
        <ele>252.598897</ele>
        <time>2021-09-07T09:14:42.000Z</time>
      </trkpt>
      <trkpt lat="48.30958" lon="0.98585">
        <ele>252.524268</ele>
        <time>2021-09-07T09:14:47.000Z</time>
      </trkpt>
      <trkpt lat="48.30972" lon="0.98634">
        <ele>252.614158</ele>
        <time>2021-09-07T09:14:55.000Z</time>
      </trkpt>
      <trkpt lat="48.30975" lon="0.98647">
        <ele>252.680686</ele>
        <time>2021-09-07T09:14:57.000Z</time>
      </trkpt>
      <trkpt lat="48.30977" lon="0.98671">
        <ele>252.810203</ele>
        <time>2021-09-07T09:15:01.000Z</time>
      </trkpt>
      <trkpt lat="48.30979" lon="0.98716">
        <ele>253.043998</ele>
        <time>2021-09-07T09:15:09.000Z</time>
      </trkpt>
      <trkpt lat="48.30982" lon="0.98757">
        <ele>253.257481</ele>
        <time>2021-09-07T09:15:17.000Z</time>
      </trkpt>
      <trkpt lat="48.3099" lon="0.98797">
        <ele>253.47257</ele>
        <time>2021-09-07T09:15:24.000Z</time>
      </trkpt>
      <trkpt lat="48.30999" lon="0.98827">
        <ele>253.64049</ele>
        <time>2021-09-07T09:15:29.000Z</time>
      </trkpt>
      <trkpt lat="48.31002" lon="0.9884">
        <ele>253.713057</ele>
        <time>2021-09-07T09:15:31.000Z</time>
      </trkpt>
      <trkpt lat="48.31006" lon="0.98852">
        <ele>253.78427</ele>
        <time>2021-09-07T09:15:33.000Z</time>
      </trkpt>
      <trkpt lat="48.31012" lon="0.98873">
        <ele>253.860445</ele>
        <time>2021-09-07T09:15:36.000Z</time>
      </trkpt>
      <trkpt lat="48.31017" lon="0.98889">
        <ele>253.83384</ele>
        <time>2021-09-07T09:15:38.000Z</time>
      </trkpt>
      <trkpt lat="48.31026" lon="0.98903">
        <ele>253.805353</ele>
        <time>2021-09-07T09:15:40.000Z</time>
      </trkpt>
      <trkpt lat="48.31035" lon="0.9892">
        <ele>253.771639</ele>
        <time>2021-09-07T09:15:42.000Z</time>
      </trkpt>
      <trkpt lat="48.31037" lon="0.98931">
        <ele>253.754785</ele>
        <time>2021-09-07T09:15:43.000Z</time>
      </trkpt>
      <trkpt lat="48.31036" lon="0.98941">
        <ele>253.739693</ele>
        <time>2021-09-07T09:15:44.000Z</time>
      </trkpt>
      <trkpt lat="48.31033" lon="0.98956">
        <ele>253.71639</ele>
        <time>2021-09-07T09:15:46.000Z</time>
      </trkpt>
      <trkpt lat="48.31031" lon="0.98978">
        <ele>253.682999</ele>
        <time>2021-09-07T09:15:50.000Z</time>
      </trkpt>
      <trkpt lat="48.31037" lon="0.99012">
        <ele>253.63122</ele>
        <time>2021-09-07T09:15:57.000Z</time>
      </trkpt>
      <trkpt lat="48.31048" lon="0.99044">
        <ele>253.577991</ele>
        <time>2021-09-07T09:16:03.000Z</time>
      </trkpt>
      <trkpt lat="48.31063" lon="0.99091">
        <ele>253.499729</ele>
        <time>2021-09-07T09:16:11.000Z</time>
      </trkpt>
      <trkpt lat="48.31068" lon="0.9911">
        <ele>253.469535</ele>
        <time>2021-09-07T09:16:14.000Z</time>
      </trkpt>
      <trkpt lat="48.3107" lon="0.9913">
        <ele>253.534864</ele>
        <time>2021-09-07T09:16:17.000Z</time>
      </trkpt>
      <trkpt lat="48.31069" lon="0.99162">
        <ele>253.658611</ele>
        <time>2021-09-07T09:16:22.000Z</time>
      </trkpt>
      <trkpt lat="48.31069" lon="0.99175">
        <ele>253.70707</ele>
        <time>2021-09-07T09:16:24.000Z</time>
      </trkpt>
      <trkpt lat="48.31065" lon="0.99211">
        <ele>253.847705</ele>
        <time>2021-09-07T09:16:30.000Z</time>
      </trkpt>
      <trkpt lat="48.31065" lon="0.99218">
        <ele>253.870983</ele>
        <time>2021-09-07T09:16:31.000Z</time>
      </trkpt>
      <trkpt lat="48.31064" lon="0.9923">
        <ele>253.919661</ele>
        <time>2021-09-07T09:16:33.000Z</time>
      </trkpt>
      <trkpt lat="48.31062" lon="0.99256">
        <ele>254.018096</ele>
        <time>2021-09-07T09:16:37.000Z</time>
      </trkpt>
      <trkpt lat="48.31057" lon="0.99274">
        <ele>254.093781</ele>
        <time>2021-09-07T09:16:40.000Z</time>
      </trkpt>
      <trkpt lat="48.31054" lon="0.9928">
        <ele>254.120782</ele>
        <time>2021-09-07T09:16:41.000Z</time>
      </trkpt>
      <trkpt lat="48.3104" lon="0.9929">
        <ele>254.210097</ele>
        <time>2021-09-07T09:16:45.000Z</time>
      </trkpt>
      <trkpt lat="48.31017" lon="0.99288">
        <ele>254.34336</ele>
        <time>2021-09-07T09:16:52.000Z</time>
      </trkpt>
      <trkpt lat="48.31005" lon="0.99285">
        <ele>254.412164</ele>
        <time>2021-09-07T09:16:57.000Z</time>
      </trkpt>
      <trkpt lat="48.31004" lon="0.99284">
        <ele>254.420259</ele>
        <time>2021-09-07T09:16:58.000Z</time>
      </trkpt>
      <trkpt lat="48.31002" lon="0.99282">
        <ele>254.432242</ele>
        <time>2021-09-07T09:17:00.000Z</time>
      </trkpt>
      <trkpt lat="48.30998" lon="0.99282">
        <ele>254.45693</ele>
        <time>2021-09-07T09:17:03.000Z</time>
      </trkpt>
      <trkpt lat="48.30997" lon="0.99281">
        <ele>254.463014</ele>
        <time>2021-09-07T09:17:04.000Z</time>
      </trkpt>
      <trkpt lat="48.30993" lon="0.99278">
        <ele>254.491847</ele>
        <time>2021-09-07T09:17:08.000Z</time>
      </trkpt>
      <trkpt lat="48.30977" lon="0.9927">
        <ele>254.62274</ele>
        <time>2021-09-07T09:17:13.000Z</time>
      </trkpt>
      <trkpt lat="48.30952" lon="0.9926">
        <ele>254.841175</ele>
        <time>2021-09-07T09:17:20.000Z</time>
      </trkpt>
      <trkpt lat="48.30923" lon="0.99262">
        <ele>255.076871</ele>
        <time>2021-09-07T09:17:27.000Z</time>
      </trkpt>
      <trkpt lat="48.30888" lon="0.99268">
        <ele>255.364882</ele>
        <time>2021-09-07T09:17:34.000Z</time>
      </trkpt>
      <trkpt lat="48.30857" lon="0.9927">
        <ele>255.613637</ele>
        <time>2021-09-07T09:17:40.000Z</time>
      </trkpt>
      <trkpt lat="48.30849" lon="0.9927">
        <ele>255.683274</ele>
        <time>2021-09-07T09:17:42.000Z</time>
      </trkpt>
      <trkpt lat="48.30839" lon="0.99273">
        <ele>255.764672</ele>
        <time>2021-09-07T09:17:44.000Z</time>
      </trkpt>
      <trkpt lat="48.30811" lon="0.99277">
        <ele>255.951627</ele>
        <time>2021-09-07T09:17:49.000Z</time>
      </trkpt>
      <trkpt lat="48.30766" lon="0.99283">
        <ele>255.754542</ele>
        <time>2021-09-07T09:17:56.000Z</time>
      </trkpt>
      <trkpt lat="48.30722" lon="0.99289">
        <ele>255.559327</ele>
        <time>2021-09-07T09:18:03.000Z</time>
      </trkpt>
      <trkpt lat="48.3068" lon="0.99294">
        <ele>255.376849</ele>
        <time>2021-09-07T09:18:10.000Z</time>
      </trkpt>
      <trkpt lat="48.30658" lon="0.99295">
        <ele>255.278661</ele>
        <time>2021-09-07T09:18:14.000Z</time>
      </trkpt>
      <trkpt lat="48.30642" lon="0.99294">
        <ele>255.206301</ele>
        <time>2021-09-07T09:18:17.000Z</time>
      </trkpt>
      <trkpt lat="48.3061" lon="0.99287">
        <ele>254.968105</ele>
        <time>2021-09-07T09:18:24.000Z</time>
      </trkpt>
      <trkpt lat="48.30599" lon="0.99282">
        <ele>254.875647</ele>
        <time>2021-09-07T09:18:28.000Z</time>
      </trkpt>
      <trkpt lat="48.30599" lon="0.99281">
        <ele>254.872002</ele>
        <time>2021-09-07T09:18:30.000Z</time>
      </trkpt>
      <trkpt lat="48.30598" lon="0.99285">
        <ele>254.849753</ele>
        <time>2021-09-07T09:19:03.000Z</time>
      </trkpt>
      <trkpt lat="48.30599" lon="0.99287">
        <ele>254.838946</ele>
        <time>2021-09-07T09:19:04.000Z</time>
      </trkpt>
      <trkpt lat="48.30607" lon="0.99294">
        <ele>254.762138</ele>
        <time>2021-09-07T09:19:09.000Z</time>
      </trkpt>
      <trkpt lat="48.30624" lon="0.99298">
        <ele>254.619746</ele>
        <time>2021-09-07T09:19:14.000Z</time>
      </trkpt>
      <trkpt lat="48.30652" lon="0.99302">
        <ele>254.394329</ele>
        <time>2021-09-07T09:19:21.000Z</time>
      </trkpt>
      <trkpt lat="48.30666" lon="0.99303">
        <ele>254.280104</ele>
        <time>2021-09-07T09:19:24.000Z</time>
      </trkpt>
      <trkpt lat="48.30676" lon="0.99301">
        <ele>254.196689</ele>
        <time>2021-09-07T09:19:26.000Z</time>
      </trkpt>
      <trkpt lat="48.30707" lon="0.99296">
        <ele>253.939946</ele>
        <time>2021-09-07T09:19:32.000Z</time>
      </trkpt>
      <trkpt lat="48.30712" lon="0.99298">
        <ele>253.898029</ele>
        <time>2021-09-07T09:19:33.000Z</time>
      </trkpt>
      <trkpt lat="48.30716" lon="0.99304">
        <ele>253.856323</ele>
        <time>2021-09-07T09:19:34.000Z</time>
      </trkpt>
      <trkpt lat="48.30716" lon="0.99313">
        <ele>253.809431</ele>
        <time>2021-09-07T09:19:35.000Z</time>
      </trkpt>
      <trkpt lat="48.30715" lon="0.99322">
        <ele>253.759654</ele>
        <time>2021-09-07T09:19:36.000Z</time>
      </trkpt>
      <trkpt lat="48.3071" lon="0.99359">
        <ele>253.381798</ele>
        <time>2021-09-07T09:19:40.000Z</time>
      </trkpt>
      <trkpt lat="48.307" lon="0.99431">
        <ele>252.539991</ele>
        <time>2021-09-07T09:19:48.000Z</time>
      </trkpt>
      <trkpt lat="48.30686" lon="0.99485">
        <ele>251.882875</ele>
        <time>2021-09-07T09:19:54.000Z</time>
      </trkpt>
      <trkpt lat="48.30683" lon="0.99493">
        <ele>251.769997</ele>
        <time>2021-09-07T09:19:55.000Z</time>
      </trkpt>
      <trkpt lat="48.30656" lon="0.99546">
        <ele>251.01893</ele>
        <time>2021-09-07T09:20:02.000Z</time>
      </trkpt>
      <trkpt lat="48.30628" lon="0.99598">
        <ele>250.170704</ele>
        <time>2021-09-07T09:20:09.000Z</time>
      </trkpt>
      <trkpt lat="48.30605" lon="0.99656">
        <ele>249.224065</ele>
        <time>2021-09-07T09:20:16.000Z</time>
      </trkpt>
      <trkpt lat="48.30594" lon="0.9968">
        <ele>248.81306</ele>
        <time>2021-09-07T09:20:19.000Z</time>
      </trkpt>
      <trkpt lat="48.30584" lon="0.99693">
        <ele>248.53615</ele>
        <time>2021-09-07T09:20:21.000Z</time>
      </trkpt>
      <trkpt lat="48.30579" lon="0.99699">
        <ele>248.395356</ele>
        <time>2021-09-07T09:20:22.000Z</time>
      </trkpt>
      <trkpt lat="48.30567" lon="0.99708">
        <ele>248.120232</ele>
        <time>2021-09-07T09:20:24.000Z</time>
      </trkpt>
      <trkpt lat="48.30549" lon="0.99717">
        <ele>247.716129</ele>
        <time>2021-09-07T09:20:27.000Z</time>
      </trkpt>
      <trkpt lat="48.30506" lon="0.99726">
        <ele>246.854657</ele>
        <time>2021-09-07T09:20:34.000Z</time>
      </trkpt>
      <trkpt lat="48.30471" lon="0.99732">
        <ele>247.021974</ele>
        <time>2021-09-07T09:20:40.000Z</time>
      </trkpt>
      <trkpt lat="48.30438" lon="0.99741">
        <ele>247.187839</ele>
        <time>2021-09-07T09:20:47.000Z</time>
      </trkpt>
      <trkpt lat="48.30418" lon="0.99745">
        <ele>247.282091</ele>
        <time>2021-09-07T09:20:53.000Z</time>
      </trkpt>
      <trkpt lat="48.30404" lon="0.99748">
        <ele>247.351601</ele>
        <time>2021-09-07T09:21:00.000Z</time>
      </trkpt>
      <trkpt lat="48.30389" lon="0.99751">
        <ele>247.426524</ele>
        <time>2021-09-07T09:21:08.000Z</time>
      </trkpt>
      <trkpt lat="48.30373" lon="0.99756">
        <ele>247.505738</ele>
        <time>2021-09-07T09:21:18.000Z</time>
      </trkpt>
      <trkpt lat="48.3036" lon="0.99756">
        <ele>247.566299</ele>
        <time>2021-09-07T09:21:26.000Z</time>
      </trkpt>
      <trkpt lat="48.3035" lon="0.99759">
        <ele>247.616051</ele>
        <time>2021-09-07T09:21:33.000Z</time>
      </trkpt>
      <trkpt lat="48.30347" lon="0.99759">
        <ele>247.628683</ele>
        <time>2021-09-07T09:21:35.000Z</time>
      </trkpt>
      <trkpt lat="48.30344" lon="0.99761">
        <ele>247.647166</ele>
        <time>2021-09-07T09:21:38.000Z</time>
      </trkpt>
      <trkpt lat="48.30338" lon="0.99762">
        <ele>247.675836</ele>
        <time>2021-09-07T09:21:43.000Z</time>
      </trkpt>
      <trkpt lat="48.30331" lon="0.99765">
        <ele>247.711218</ele>
        <time>2021-09-07T09:21:48.000Z</time>
      </trkpt>
      <trkpt lat="48.3033" lon="0.99767">
        <ele>247.721543</ele>
        <time>2021-09-07T09:21:49.000Z</time>
      </trkpt>
      <trkpt lat="48.3033" lon="0.99769">
        <ele>247.750235</ele>
        <time>2021-09-07T09:21:50.000Z</time>
      </trkpt>
      <trkpt lat="48.30326" lon="0.99776">
        <ele>247.869476</ele>
        <time>2021-09-07T09:21:54.000Z</time>
      </trkpt>
      <trkpt lat="48.30326" lon="0.99787">
        <ele>248.013562</ele>
        <time>2021-09-07T09:21:59.000Z</time>
      </trkpt>
      <trkpt lat="48.3033" lon="0.99803">
        <ele>248.224189</ele>
        <time>2021-09-07T09:22:04.000Z</time>
      </trkpt>
      <trkpt lat="48.30338" lon="0.99834">
        <ele>248.666961</ele>
        <time>2021-09-07T09:22:11.000Z</time>
      </trkpt>
      <trkpt lat="48.3035" lon="0.99878">
        <ele>249.268435</ele>
        <time>2021-09-07T09:22:19.000Z</time>
      </trkpt>
      <trkpt lat="48.30361" lon="0.9992">
        <ele>249.846287</ele>
        <time>2021-09-07T09:22:26.000Z</time>
      </trkpt>
      <trkpt lat="48.30362" lon="0.99926">
        <ele>249.931152</ele>
        <time>2021-09-07T09:22:27.000Z</time>
      </trkpt>
      <trkpt lat="48.30367" lon="0.9995">
        <ele>250.26093</ele>
        <time>2021-09-07T09:22:31.000Z</time>
      </trkpt>
      <trkpt lat="48.3037" lon="0.99963">
        <ele>250.428767</ele>
        <time>2021-09-07T09:22:33.000Z</time>
      </trkpt>
      <trkpt lat="48.30372" lon="0.99975">
        <ele>250.589286</ele>
        <time>2021-09-07T09:22:35.000Z</time>
      </trkpt>
      <trkpt lat="48.30375" lon="0.99986">
        <ele>250.74614</ele>
        <time>2021-09-07T09:22:37.000Z</time>
      </trkpt>
      <trkpt lat="48.3038" lon="1.00022">
        <ele>251.205933</ele>
        <time>2021-09-07T09:22:43.000Z</time>
      </trkpt>
      <trkpt lat="48.30383" lon="1.00062">
        <ele>251.474319</ele>
        <time>2021-09-07T09:22:49.000Z</time>
      </trkpt>
      <trkpt lat="48.30386" lon="1.00103">
        <ele>251.752496</ele>
        <time>2021-09-07T09:22:56.000Z</time>
      </trkpt>
      <trkpt lat="48.30393" lon="1.00147">
        <ele>252.049427</ele>
        <time>2021-09-07T09:23:04.000Z</time>
      </trkpt>
      <trkpt lat="48.30409" lon="1.0016">
        <ele>252.237672</ele>
        <time>2021-09-07T09:23:09.000Z</time>
      </trkpt>
      <trkpt lat="48.30438" lon="1.00175">
        <ele>252.542555</ele>
        <time>2021-09-07T09:23:16.000Z</time>
      </trkpt>
      <trkpt lat="48.30456" lon="1.0019">
        <ele>252.751801</ele>
        <time>2021-09-07T09:23:20.000Z</time>
      </trkpt>
      <trkpt lat="48.30464" lon="1.00201">
        <ele>252.859488</ele>
        <time>2021-09-07T09:23:22.000Z</time>
      </trkpt>
      <trkpt lat="48.30486" lon="1.00237">
        <ele>253.067088</ele>
        <time>2021-09-07T09:23:28.000Z</time>
      </trkpt>
      <trkpt lat="48.30491" lon="1.0025">
        <ele>253.102476</ele>
        <time>2021-09-07T09:23:30.000Z</time>
      </trkpt>
      <trkpt lat="48.30499" lon="1.00273">
        <ele>253.166407</ele>
        <time>2021-09-07T09:23:34.000Z</time>
      </trkpt>
      <trkpt lat="48.30501" lon="1.00279">
        <ele>253.18323</ele>
        <time>2021-09-07T09:23:35.000Z</time>
      </trkpt>
      <trkpt lat="48.30509" lon="1.00303">
        <ele>253.246514</ele>
        <time>2021-09-07T09:23:39.000Z</time>
      </trkpt>
      <trkpt lat="48.30515" lon="1.00332">
        <ele>253.319371</ele>
        <time>2021-09-07T09:23:44.000Z</time>
      </trkpt>
      <trkpt lat="48.30513" lon="1.0035">
        <ele>253.362707</ele>
        <time>2021-09-07T09:23:47.000Z</time>
      </trkpt>
      <trkpt lat="48.30498" lon="1.00358">
        <ele>253.418335</ele>
        <time>2021-09-07T09:23:51.000Z</time>
      </trkpt>
      <trkpt lat="48.30469" lon="1.00366">
        <ele>253.52411</ele>
        <time>2021-09-07T09:23:59.000Z</time>
      </trkpt>
      <trkpt lat="48.30456" lon="1.00374">
        <ele>253.575348</ele>
        <time>2021-09-07T09:24:03.000Z</time>
      </trkpt>
      <trkpt lat="48.30435" lon="1.00404">
        <ele>253.578552</ele>
        <time>2021-09-07T09:24:11.000Z</time>
      </trkpt>
      <trkpt lat="48.30414" lon="1.00418">
        <ele>253.398018</ele>
        <time>2021-09-07T09:24:17.000Z</time>
      </trkpt>
      <trkpt lat="48.30407" lon="1.00425">
        <ele>253.332803</ele>
        <time>2021-09-07T09:24:19.000Z</time>
      </trkpt>
      <trkpt lat="48.30399" lon="1.0044">
        <ele>253.235619</ele>
        <time>2021-09-07T09:24:22.000Z</time>
      </trkpt>
      <trkpt lat="48.3039" lon="1.0047">
        <ele>253.061977</ele>
        <time>2021-09-07T09:24:27.000Z</time>
      </trkpt>
      <trkpt lat="48.30378" lon="1.00511">
        <ele>252.829713</ele>
        <time>2021-09-07T09:24:33.000Z</time>
      </trkpt>
      <trkpt lat="48.30362" lon="1.00556">
        <ele>252.562373</ele>
        <time>2021-09-07T09:24:39.000Z</time>
      </trkpt>
      <trkpt lat="48.30352" lon="1.00581">
        <ele>252.411291</ele>
        <time>2021-09-07T09:24:42.000Z</time>
      </trkpt>
      <trkpt lat="48.30349" lon="1.00599">
        <ele>252.311752</ele>
        <time>2021-09-07T09:24:44.000Z</time>
      </trkpt>
      <trkpt lat="48.30347" lon="1.00618">
        <ele>252.240652</ele>
        <time>2021-09-07T09:24:46.000Z</time>
      </trkpt>
      <trkpt lat="48.30345" lon="1.00644">
        <ele>252.252044</ele>
        <time>2021-09-07T09:24:49.000Z</time>
      </trkpt>
      <trkpt lat="48.30337" lon="1.00657">
        <ele>252.259343</ele>
        <time>2021-09-07T09:24:51.000Z</time>
      </trkpt>
      <trkpt lat="48.30333" lon="1.0066">
        <ele>252.262718</ele>
        <time>2021-09-07T09:24:52.000Z</time>
      </trkpt>
      <trkpt lat="48.30306" lon="1.00665">
        <ele>252.280081</ele>
        <time>2021-09-07T09:24:58.000Z</time>
      </trkpt>
      <trkpt lat="48.30277" lon="1.00671">
        <ele>252.299781</ele>
        <time>2021-09-07T09:25:06.000Z</time>
      </trkpt>
      <trkpt lat="48.30255" lon="1.00675">
        <ele>252.31401</ele>
        <time>2021-09-07T09:25:12.000Z</time>
      </trkpt>
      <trkpt lat="48.30237" lon="1.00667">
        <ele>252.326477</ele>
        <time>2021-09-07T09:25:17.000Z</time>
      </trkpt>
      <trkpt lat="48.30219" lon="1.0065">
        <ele>252.340016</ele>
        <time>2021-09-07T09:25:23.000Z</time>
      </trkpt>
      <trkpt lat="48.30204" lon="1.00637">
        <ele>252.351598</ele>
        <time>2021-09-07T09:25:28.000Z</time>
      </trkpt>
      <trkpt lat="48.3019" lon="1.00624">
        <ele>252.413773</ele>
        <time>2021-09-07T09:25:33.000Z</time>
      </trkpt>
      <trkpt lat="48.30174" lon="1.00616">
        <ele>252.51241</ele>
        <time>2021-09-07T09:25:38.000Z</time>
      </trkpt>
      <trkpt lat="48.30146" lon="1.00616">
        <ele>252.681441</ele>
        <time>2021-09-07T09:25:45.000Z</time>
      </trkpt>
      <trkpt lat="48.30141" lon="1.00631">
        <ele>252.750239</ele>
        <time>2021-09-07T09:25:48.000Z</time>
      </trkpt>
      <trkpt lat="48.30139" lon="1.00647">
        <ele>252.816724</ele>
        <time>2021-09-07T09:25:51.000Z</time>
      </trkpt>
      <trkpt lat="48.30138" lon="1.00653">
        <ele>252.840987</ele>
        <time>2021-09-07T09:25:52.000Z</time>
      </trkpt>
      <trkpt lat="48.30137" lon="1.00683">
        <ele>252.961691</ele>
        <time>2021-09-07T09:25:57.000Z</time>
      </trkpt>
      <trkpt lat="48.30136" lon="1.0071">
        <ele>253.071222</ele>
        <time>2021-09-07T09:26:01.000Z</time>
      </trkpt>
      <trkpt lat="48.30133" lon="1.00745">
        <ele>253.213425</ele>
        <time>2021-09-07T09:26:06.000Z</time>
      </trkpt>
      <trkpt lat="48.30132" lon="1.00753">
        <ele>253.247138</ele>
        <time>2021-09-07T09:26:07.000Z</time>
      </trkpt>
      <trkpt lat="48.30129" lon="1.00777">
        <ele>253.345431</ele>
        <time>2021-09-07T09:26:10.000Z</time>
      </trkpt>
      <trkpt lat="48.30128" lon="1.00785">
        <ele>253.37699</ele>
        <time>2021-09-07T09:26:11.000Z</time>
      </trkpt>
      <trkpt lat="48.30127" lon="1.00792">
        <ele>253.407418</ele>
        <time>2021-09-07T09:26:12.000Z</time>
      </trkpt>
      <trkpt lat="48.30125" lon="1.00811">
        <ele>253.391979</ele>
        <time>2021-09-07T09:26:15.000Z</time>
      </trkpt>
      <trkpt lat="48.30124" lon="1.0082">
        <ele>253.344291</ele>
        <time>2021-09-07T09:26:16.000Z</time>
      </trkpt>
      <trkpt lat="48.3012" lon="1.00851">
        <ele>253.163082</ele>
        <time>2021-09-07T09:26:20.000Z</time>
      </trkpt>
      <trkpt lat="48.30119" lon="1.00867">
        <ele>253.073451</ele>
        <time>2021-09-07T09:26:22.000Z</time>
      </trkpt>
      <trkpt lat="48.30116" lon="1.00884">
        <ele>252.977157</ele>
        <time>2021-09-07T09:26:24.000Z</time>
      </trkpt>
      <trkpt lat="48.30115" lon="1.00891">
        <ele>252.932949</ele>
        <time>2021-09-07T09:26:25.000Z</time>
      </trkpt>
      <trkpt lat="48.30113" lon="1.00915">
        <ele>252.798109</ele>
        <time>2021-09-07T09:26:28.000Z</time>
      </trkpt>
      <trkpt lat="48.30106" lon="1.00967">
        <ele>252.497277</ele>
        <time>2021-09-07T09:26:34.000Z</time>
      </trkpt>
      <trkpt lat="48.301" lon="1.01021">
        <ele>252.189867</ele>
        <time>2021-09-07T09:26:40.000Z</time>
      </trkpt>
      <trkpt lat="48.301" lon="1.01029">
        <ele>252.143028</ele>
        <time>2021-09-07T09:26:41.000Z</time>
      </trkpt>
      <trkpt lat="48.30101" lon="1.01037">
        <ele>252.09696</ele>
        <time>2021-09-07T09:26:42.000Z</time>
      </trkpt>
      <trkpt lat="48.30104" lon="1.01052">
        <ele>252.007123</ele>
        <time>2021-09-07T09:26:44.000Z</time>
      </trkpt>
      <trkpt lat="48.30106" lon="1.01069">
        <ele>251.909294</ele>
        <time>2021-09-07T09:26:46.000Z</time>
      </trkpt>
      <trkpt lat="48.30109" lon="1.01105">
        <ele>251.66774</ele>
        <time>2021-09-07T09:26:50.000Z</time>
      </trkpt>
      <trkpt lat="48.30109" lon="1.01114">
        <ele>251.609735</ele>
        <time>2021-09-07T09:26:51.000Z</time>
      </trkpt>
      <trkpt lat="48.3011" lon="1.01122">
        <ele>251.554756</ele>
        <time>2021-09-07T09:26:52.000Z</time>
      </trkpt>
      <trkpt lat="48.30112" lon="1.01148">
        <ele>251.378313</ele>
        <time>2021-09-07T09:26:55.000Z</time>
      </trkpt>
      <trkpt lat="48.30117" lon="1.01192">
        <ele>251.077824</ele>
        <time>2021-09-07T09:27:00.000Z</time>
      </trkpt>
      <trkpt lat="48.30124" lon="1.01228">
        <ele>250.830779</ele>
        <time>2021-09-07T09:27:04.000Z</time>
      </trkpt>
      <trkpt lat="48.30126" lon="1.01236">
        <ele>250.771049</ele>
        <time>2021-09-07T09:27:05.000Z</time>
      </trkpt>
      <trkpt lat="48.3014" lon="1.01302">
        <ele>250.305691</ele>
        <time>2021-09-07T09:27:13.000Z</time>
      </trkpt>
      <trkpt lat="48.30141" lon="1.01344">
        <ele>250.14872</ele>
        <time>2021-09-07T09:27:18.000Z</time>
      </trkpt>
      <trkpt lat="48.30142" lon="1.0136">
        <ele>250.194118</ele>
        <time>2021-09-07T09:27:20.000Z</time>
      </trkpt>
      <trkpt lat="48.30145" lon="1.01393">
        <ele>250.287426</ele>
        <time>2021-09-07T09:27:24.000Z</time>
      </trkpt>
      <trkpt lat="48.3015" lon="1.01437">
        <ele>250.41077</ele>
        <time>2021-09-07T09:27:30.000Z</time>
      </trkpt>
      <trkpt lat="48.30153" lon="1.01451">
        <ele>250.452538</ele>
        <time>2021-09-07T09:27:32.000Z</time>
      </trkpt>
      <trkpt lat="48.30152" lon="1.01465">
        <ele>250.491913</ele>
        <time>2021-09-07T09:27:34.000Z</time>
      </trkpt>
      <trkpt lat="48.30144" lon="1.01481">
        <ele>250.549761</ele>
        <time>2021-09-07T09:27:37.000Z</time>
      </trkpt>
      <trkpt lat="48.30123" lon="1.01503">
        <ele>250.656969</ele>
        <time>2021-09-07T09:27:42.000Z</time>
      </trkpt>
      <trkpt lat="48.30113" lon="1.01511">
        <ele>250.706218</ele>
        <time>2021-09-07T09:27:44.000Z</time>
      </trkpt>
      <trkpt lat="48.30103" lon="1.01518">
        <ele>250.750529</ele>
        <time>2021-09-07T09:27:46.000Z</time>
      </trkpt>
      <trkpt lat="48.30095" lon="1.01526">
        <ele>250.792762</ele>
        <time>2021-09-07T09:27:48.000Z</time>
      </trkpt>
      <trkpt lat="48.30091" lon="1.01532">
        <ele>250.816736</ele>
        <time>2021-09-07T09:27:49.000Z</time>
      </trkpt>
      <trkpt lat="48.30078" lon="1.01547">
        <ele>250.886797</ele>
        <time>2021-09-07T09:27:52.000Z</time>
      </trkpt>
      <trkpt lat="48.3007" lon="1.01557">
        <ele>250.942658</ele>
        <time>2021-09-07T09:27:54.000Z</time>
      </trkpt>
      <trkpt lat="48.30061" lon="1.01567">
        <ele>251.001251</ele>
        <time>2021-09-07T09:27:56.000Z</time>
      </trkpt>
      <trkpt lat="48.30053" lon="1.01577">
        <ele>251.055677</ele>
        <time>2021-09-07T09:27:58.000Z</time>
      </trkpt>
      <trkpt lat="48.30049" lon="1.01581">
        <ele>251.081418</ele>
        <time>2021-09-07T09:27:59.000Z</time>
      </trkpt>
      <trkpt lat="48.30038" lon="1.01594">
        <ele>251.156735</ele>
        <time>2021-09-07T09:28:02.000Z</time>
      </trkpt>
      <trkpt lat="48.30033" lon="1.01598">
        <ele>251.184379</ele>
        <time>2021-09-07T09:28:03.000Z</time>
      </trkpt>
      <trkpt lat="48.30024" lon="1.01606">
        <ele>251.237817</ele>
        <time>2021-09-07T09:28:05.000Z</time>
      </trkpt>
      <trkpt lat="48.30016" lon="1.01614">
        <ele>251.290573</ele>
        <time>2021-09-07T09:28:07.000Z</time>
      </trkpt>
      <trkpt lat="48.30002" lon="1.01628">
        <ele>251.376657</ele>
        <time>2021-09-07T09:28:10.000Z</time>
      </trkpt>
      <trkpt lat="48.29998" lon="1.01633">
        <ele>251.405544</ele>
        <time>2021-09-07T09:28:11.000Z</time>
      </trkpt>
      <trkpt lat="48.29977" lon="1.01657">
        <ele>251.544472</ele>
        <time>2021-09-07T09:28:16.000Z</time>
      </trkpt>
      <trkpt lat="48.29963" lon="1.01671">
        <ele>251.630753</ele>
        <time>2021-09-07T09:28:19.000Z</time>
      </trkpt>
      <trkpt lat="48.29955" lon="1.01684">
        <ele>251.689368</ele>
        <time>2021-09-07T09:28:21.000Z</time>
      </trkpt>
      <trkpt lat="48.29952" lon="1.01691">
        <ele>251.719814</ele>
        <time>2021-09-07T09:28:22.000Z</time>
      </trkpt>
      <trkpt lat="48.29944" lon="1.01713">
        <ele>251.807854</ele>
        <time>2021-09-07T09:28:25.000Z</time>
      </trkpt>
      <trkpt lat="48.29938" lon="1.01735">
        <ele>251.774424</ele>
        <time>2021-09-07T09:28:28.000Z</time>
      </trkpt>
      <trkpt lat="48.29931" lon="1.01769">
        <ele>251.711083</ele>
        <time>2021-09-07T09:28:33.000Z</time>
      </trkpt>
      <trkpt lat="48.29922" lon="1.01807">
        <ele>251.639607</ele>
        <time>2021-09-07T09:28:38.000Z</time>
      </trkpt>
      <trkpt lat="48.29908" lon="1.01884">
        <ele>251.498372</ele>
        <time>2021-09-07T09:28:47.000Z</time>
      </trkpt>
      <trkpt lat="48.29896" lon="1.01934">
        <ele>251.404229</ele>
        <time>2021-09-07T09:28:53.000Z</time>
      </trkpt>
      <trkpt lat="48.29892" lon="1.01943">
        <ele>251.386842</ele>
        <time>2021-09-07T09:28:54.000Z</time>
      </trkpt>
      <trkpt lat="48.29888" lon="1.01951">
        <ele>251.369098</ele>
        <time>2021-09-07T09:28:55.000Z</time>
      </trkpt>
      <trkpt lat="48.29869" lon="1.01979">
        <ele>251.205783</ele>
        <time>2021-09-07T09:28:59.000Z</time>
      </trkpt>
      <trkpt lat="48.29855" lon="1.01996">
        <ele>251.042998</ele>
        <time>2021-09-07T09:29:02.000Z</time>
      </trkpt>
      <trkpt lat="48.29841" lon="1.02013">
        <ele>250.876807</ele>
        <time>2021-09-07T09:29:05.000Z</time>
      </trkpt>
      <trkpt lat="48.2981" lon="1.02052">
        <ele>250.512656</ele>
        <time>2021-09-07T09:29:12.000Z</time>
      </trkpt>
      <trkpt lat="48.29782" lon="1.02088">
        <ele>250.171566</ele>
        <time>2021-09-07T09:29:19.000Z</time>
      </trkpt>
      <trkpt lat="48.29752" lon="1.02125">
        <ele>249.817783</ele>
        <time>2021-09-07T09:29:26.000Z</time>
      </trkpt>
      <trkpt lat="48.29714" lon="1.02172">
        <ele>249.323634</ele>
        <time>2021-09-07T09:29:35.000Z</time>
      </trkpt>
      <trkpt lat="48.29692" lon="1.02198">
        <ele>249.030568</ele>
        <time>2021-09-07T09:29:40.000Z</time>
      </trkpt>
      <trkpt lat="48.29682" lon="1.02205">
        <ele>248.917688</ele>
        <time>2021-09-07T09:29:42.000Z</time>
      </trkpt>
      <trkpt lat="48.29667" lon="1.02205">
        <ele>248.752446</ele>
        <time>2021-09-07T09:29:45.000Z</time>
      </trkpt>
      <trkpt lat="48.29637" lon="1.02193">
        <ele>248.433848</ele>
        <time>2021-09-07T09:29:51.000Z</time>
      </trkpt>
      <trkpt lat="48.29594" lon="1.02175">
        <ele>247.966035</ele>
        <time>2021-09-07T09:29:59.000Z</time>
      </trkpt>
      <trkpt lat="48.29556" lon="1.02161">
        <ele>247.440511</ele>
        <time>2021-09-07T09:30:06.000Z</time>
      </trkpt>
      <trkpt lat="48.29528" lon="1.02151">
        <ele>247.01736</ele>
        <time>2021-09-07T09:30:11.000Z</time>
      </trkpt>
      <trkpt lat="48.29488" lon="1.02135">
        <ele>246.397125</ele>
        <time>2021-09-07T09:30:18.000Z</time>
      </trkpt>
      <trkpt lat="48.29482" lon="1.02133">
        <ele>246.298708</ele>
        <time>2021-09-07T09:30:19.000Z</time>
      </trkpt>
      <trkpt lat="48.2945" lon="1.02119">
        <ele>245.794162</ele>
        <time>2021-09-07T09:30:24.000Z</time>
      </trkpt>
      <trkpt lat="48.2939" lon="1.02096">
        <ele>244.904576</ele>
        <time>2021-09-07T09:30:32.000Z</time>
      </trkpt>
      <trkpt lat="48.29339" lon="1.02077">
        <ele>244.21593</ele>
        <time>2021-09-07T09:30:39.000Z</time>
      </trkpt>
      <trkpt lat="48.29311" lon="1.02058">
        <ele>243.80843</ele>
        <time>2021-09-07T09:30:44.000Z</time>
      </trkpt>
      <trkpt lat="48.29287" lon="1.02027">
        <ele>243.386448</ele>
        <time>2021-09-07T09:30:50.000Z</time>
      </trkpt>
      <trkpt lat="48.29257" lon="1.01991">
        <ele>242.883355</ele>
        <time>2021-09-07T09:30:58.000Z</time>
      </trkpt>
      <trkpt lat="48.29253" lon="1.01988">
        <ele>242.821337</ele>
        <time>2021-09-07T09:30:59.000Z</time>
      </trkpt>
      <trkpt lat="48.29244" lon="1.01986">
        <ele>242.737984</ele>
        <time>2021-09-07T09:31:01.000Z</time>
      </trkpt>
      <trkpt lat="48.29239" lon="1.01988">
        <ele>242.719737</ele>
        <time>2021-09-07T09:31:02.000Z</time>
      </trkpt>
      <trkpt lat="48.29235" lon="1.01992">
        <ele>242.701254</ele>
        <time>2021-09-07T09:31:03.000Z</time>
      </trkpt>
      <trkpt lat="48.29226" lon="1.02009">
        <ele>242.643474</ele>
        <time>2021-09-07T09:31:06.000Z</time>
      </trkpt>
      <trkpt lat="48.29205" lon="1.02058">
        <ele>242.492845</ele>
        <time>2021-09-07T09:31:13.000Z</time>
      </trkpt>
      <trkpt lat="48.29202" lon="1.02064">
        <ele>242.470783</ele>
        <time>2021-09-07T09:31:14.000Z</time>
      </trkpt>
      <trkpt lat="48.29194" lon="1.02077">
        <ele>242.424687</ele>
        <time>2021-09-07T09:31:16.000Z</time>
      </trkpt>
      <trkpt lat="48.29184" lon="1.02087">
        <ele>242.378746</ele>
        <time>2021-09-07T09:31:18.000Z</time>
      </trkpt>
      <trkpt lat="48.29173" lon="1.02091">
        <ele>242.334594</ele>
        <time>2021-09-07T09:31:20.000Z</time>
      </trkpt>
      <trkpt lat="48.29162" lon="1.02091">
        <ele>242.292448</ele>
        <time>2021-09-07T09:31:22.000Z</time>
      </trkpt>
      <trkpt lat="48.29148" lon="1.0209">
        <ele>242.235303</ele>
        <time>2021-09-07T09:31:25.000Z</time>
      </trkpt>
      <trkpt lat="48.29134" lon="1.02088">
        <ele>242.180379</ele>
        <time>2021-09-07T09:31:28.000Z</time>
      </trkpt>
      <trkpt lat="48.29101" lon="1.0208">
        <ele>242.049746</ele>
        <time>2021-09-07T09:31:35.000Z</time>
      </trkpt>
      <trkpt lat="48.29057" lon="1.02067">
        <ele>241.784115</ele>
        <time>2021-09-07T09:31:44.000Z</time>
      </trkpt>
      <trkpt lat="48.29018" lon="1.02055">
        <ele>241.544547</ele>
        <time>2021-09-07T09:31:52.000Z</time>
      </trkpt>
      <trkpt lat="48.28965" lon="1.02039">
        <ele>241.221942</ele>
        <time>2021-09-07T09:32:02.000Z</time>
      </trkpt>
      <trkpt lat="48.28955" lon="1.02036">
        <ele>241.155905</ele>
        <time>2021-09-07T09:32:04.000Z</time>
      </trkpt>
      <trkpt lat="48.28938" lon="1.02032">
        <ele>241.057953</ele>
        <time>2021-09-07T09:32:07.000Z</time>
      </trkpt>
      <trkpt lat="48.28894" lon="1.02018">
        <ele>240.665793</ele>
        <time>2021-09-07T09:32:15.000Z</time>
      </trkpt>
      <trkpt lat="48.28888" lon="1.02017">
        <ele>240.607474</ele>
        <time>2021-09-07T09:32:16.000Z</time>
      </trkpt>
      <trkpt lat="48.28871" lon="1.02013">
        <ele>240.43147</ele>
        <time>2021-09-07T09:32:19.000Z</time>
      </trkpt>
      <trkpt lat="48.2884" lon="1.02011">
        <ele>240.120956</ele>
        <time>2021-09-07T09:32:24.000Z</time>
      </trkpt>
      <trkpt lat="48.28834" lon="1.02013">
        <ele>240.054627</ele>
        <time>2021-09-07T09:32:25.000Z</time>
      </trkpt>
      <trkpt lat="48.28788" lon="1.02028">
        <ele>239.585047</ele>
        <time>2021-09-07T09:32:32.000Z</time>
      </trkpt>
      <trkpt lat="48.28764" lon="1.02028">
        <ele>239.340178</ele>
        <time>2021-09-07T09:32:36.000Z</time>
      </trkpt>
      <trkpt lat="48.28731" lon="1.02014">
        <ele>239.008629</ele>
        <time>2021-09-07T09:32:42.000Z</time>
      </trkpt>
      <trkpt lat="48.28726" lon="1.02012">
        <ele>238.956569</ele>
        <time>2021-09-07T09:32:43.000Z</time>
      </trkpt>
      <trkpt lat="48.28716" lon="1.02007">
        <ele>238.851752</ele>
        <time>2021-09-07T09:32:45.000Z</time>
      </trkpt>
      <trkpt lat="48.2871" lon="1.02005">
        <ele>238.798757</ele>
        <time>2021-09-07T09:32:46.000Z</time>
      </trkpt>
      <trkpt lat="48.28683" lon="1.01994">
        <ele>238.527518</ele>
        <time>2021-09-07T09:32:51.000Z</time>
      </trkpt>
      <trkpt lat="48.28678" lon="1.01992">
        <ele>238.47215</ele>
        <time>2021-09-07T09:32:52.000Z</time>
      </trkpt>
      <trkpt lat="48.28639" lon="1.01977">
        <ele>238.087117</ele>
        <time>2021-09-07T09:32:59.000Z</time>
      </trkpt>
      <trkpt lat="48.28595" lon="1.01961">
        <ele>237.647719</ele>
        <time>2021-09-07T09:33:07.000Z</time>
      </trkpt>
      <trkpt lat="48.28564" lon="1.01948">
        <ele>237.397014</ele>
        <time>2021-09-07T09:33:13.000Z</time>
      </trkpt>
      <trkpt lat="48.28532" lon="1.01936">
        <ele>237.304163</ele>
        <time>2021-09-07T09:33:19.000Z</time>
      </trkpt>
      <trkpt lat="48.285" lon="1.01923">
        <ele>237.21038</ele>
        <time>2021-09-07T09:33:26.000Z</time>
      </trkpt>
      <trkpt lat="48.28487" lon="1.01919">
        <ele>237.173145</ele>
        <time>2021-09-07T09:33:29.000Z</time>
      </trkpt>
      <trkpt lat="48.28479" lon="1.0192">
        <ele>237.148239</ele>
        <time>2021-09-07T09:33:31.000Z</time>
      </trkpt>
      <trkpt lat="48.28475" lon="1.01923">
        <ele>237.135374</ele>
        <time>2021-09-07T09:33:32.000Z</time>
      </trkpt>
      <trkpt lat="48.28472" lon="1.01928">
        <ele>237.122602</ele>
        <time>2021-09-07T09:33:33.000Z</time>
      </trkpt>
      <trkpt lat="48.28467" lon="1.01941">
        <ele>237.09592</ele>
        <time>2021-09-07T09:33:35.000Z</time>
      </trkpt>
      <trkpt lat="48.28453" lon="1.01987">
        <ele>237.000707</ele>
        <time>2021-09-07T09:33:42.000Z</time>
      </trkpt>
      <trkpt lat="48.2843" lon="1.02037">
        <ele>236.865564</ele>
        <time>2021-09-07T09:33:50.000Z</time>
      </trkpt>
      <trkpt lat="48.28414" lon="1.02072">
        <ele>236.728511</ele>
        <time>2021-09-07T09:33:56.000Z</time>
      </trkpt>
      <trkpt lat="48.28411" lon="1.02092">
        <ele>236.665033</ele>
        <time>2021-09-07T09:33:59.000Z</time>
      </trkpt>
      <trkpt lat="48.2841" lon="1.02098">
        <ele>236.643779</ele>
        <time>2021-09-07T09:34:00.000Z</time>
      </trkpt>
      <trkpt lat="48.28408" lon="1.02105">
        <ele>236.620888</ele>
        <time>2021-09-07T09:34:01.000Z</time>
      </trkpt>
      <trkpt lat="48.28401" lon="1.02115">
        <ele>236.575137</ele>
        <time>2021-09-07T09:34:03.000Z</time>
      </trkpt>
      <trkpt lat="48.28398" lon="1.02119">
        <ele>236.553151</ele>
        <time>2021-09-07T09:34:04.000Z</time>
      </trkpt>
      <trkpt lat="48.28393" lon="1.02122">
        <ele>236.530322</ele>
        <time>2021-09-07T09:34:05.000Z</time>
      </trkpt>
      <trkpt lat="48.28375" lon="1.0213">
        <ele>236.439952</ele>
        <time>2021-09-07T09:34:09.000Z</time>
      </trkpt>
      <trkpt lat="48.28353" lon="1.02146">
        <ele>236.32062</ele>
        <time>2021-09-07T09:34:14.000Z</time>
      </trkpt>
      <trkpt lat="48.28348" lon="1.0215">
        <ele>236.296026</ele>
        <time>2021-09-07T09:34:15.000Z</time>
      </trkpt>
      <trkpt lat="48.28345" lon="1.02155">
        <ele>236.272546</ele>
        <time>2021-09-07T09:34:16.000Z</time>
      </trkpt>
      <trkpt lat="48.28332" lon="1.02179">
        <ele>236.174063</ele>
        <time>2021-09-07T09:34:20.000Z</time>
      </trkpt>
      <trkpt lat="48.28329" lon="1.02185">
        <ele>236.15089</ele>
        <time>2021-09-07T09:34:21.000Z</time>
      </trkpt>
      <trkpt lat="48.2832" lon="1.02225">
        <ele>235.963171</ele>
        <time>2021-09-07T09:34:27.000Z</time>
      </trkpt>
      <trkpt lat="48.2831" lon="1.0227">
        <ele>235.578464</ele>
        <time>2021-09-07T09:34:34.000Z</time>
      </trkpt>
      <trkpt lat="48.28307" lon="1.02275">
        <ele>235.526916</ele>
        <time>2021-09-07T09:34:35.000Z</time>
      </trkpt>
      <trkpt lat="48.283" lon="1.02282">
        <ele>235.42365</ele>
        <time>2021-09-07T09:34:37.000Z</time>
      </trkpt>
      <trkpt lat="48.28292" lon="1.02285">
        <ele>235.322094</ele>
        <time>2021-09-07T09:34:39.000Z</time>
      </trkpt>
      <trkpt lat="48.28287" lon="1.02286">
        <ele>235.267221</ele>
        <time>2021-09-07T09:34:40.000Z</time>
      </trkpt>
      <trkpt lat="48.28255" lon="1.02292">
        <ele>234.864476</ele>
        <time>2021-09-07T09:34:47.000Z</time>
      </trkpt>
      <trkpt lat="48.28201" lon="1.02304">
        <ele>234.199793</ele>
        <time>2021-09-07T09:34:58.000Z</time>
      </trkpt>
      <trkpt lat="48.28196" lon="1.02305">
        <ele>234.138645</ele>
        <time>2021-09-07T09:34:59.000Z</time>
      </trkpt>
      <trkpt lat="48.28169" lon="1.02306">
        <ele>233.745336</ele>
        <time>2021-09-07T09:35:04.000Z</time>
      </trkpt>
      <trkpt lat="48.28157" lon="1.02303">
        <ele>233.405221</ele>
        <time>2021-09-07T09:35:06.000Z</time>
      </trkpt>
      <trkpt lat="48.2811" lon="1.02288">
        <ele>232.007034</ele>
        <time>2021-09-07T09:35:13.000Z</time>
      </trkpt>
      <trkpt lat="48.28096" lon="1.02285">
        <ele>231.575177</ele>
        <time>2021-09-07T09:35:15.000Z</time>
      </trkpt>
      <trkpt lat="48.28089" lon="1.02287">
        <ele>231.359639</ele>
        <time>2021-09-07T09:35:16.000Z</time>
      </trkpt>
      <trkpt lat="48.28083" lon="1.02294">
        <ele>231.140208</ele>
        <time>2021-09-07T09:35:17.000Z</time>
      </trkpt>
      <trkpt lat="48.2808" lon="1.02304">
        <ele>230.92308</ele>
        <time>2021-09-07T09:35:18.000Z</time>
      </trkpt>
      <trkpt lat="48.28072" lon="1.02342">
        <ele>230.162572</ele>
        <time>2021-09-07T09:35:22.000Z</time>
      </trkpt>
      <trkpt lat="48.28071" lon="1.02351">
        <ele>229.986948</ele>
        <time>2021-09-07T09:35:23.000Z</time>
      </trkpt>
      <trkpt lat="48.28064" lon="1.02396">
        <ele>229.093717</ele>
        <time>2021-09-07T09:35:29.000Z</time>
      </trkpt>
      <trkpt lat="48.28063" lon="1.02402">
        <ele>228.96233</ele>
        <time>2021-09-07T09:35:30.000Z</time>
      </trkpt>
      <trkpt lat="48.28058" lon="1.02433">
        <ele>228.396089</ele>
        <time>2021-09-07T09:35:35.000Z</time>
      </trkpt>
      <trkpt lat="48.28055" lon="1.02452">
        <ele>228.090644</ele>
        <time>2021-09-07T09:35:38.000Z</time>
      </trkpt>
      <trkpt lat="48.2805" lon="1.02477">
        <ele>227.688057</ele>
        <time>2021-09-07T09:35:42.000Z</time>
      </trkpt>
      <trkpt lat="48.28046" lon="1.02501">
        <ele>227.303271</ele>
        <time>2021-09-07T09:35:46.000Z</time>
      </trkpt>
      <trkpt lat="48.28045" lon="1.02507">
        <ele>227.212741</ele>
        <time>2021-09-07T09:35:47.000Z</time>
      </trkpt>
      <trkpt lat="48.28043" lon="1.02519">
        <ele>227.019261</ele>
        <time>2021-09-07T09:35:49.000Z</time>
      </trkpt>
      <trkpt lat="48.28039" lon="1.02537">
        <ele>226.716961</ele>
        <time>2021-09-07T09:35:52.000Z</time>
      </trkpt>
      <trkpt lat="48.28037" lon="1.0255">
        <ele>226.51357</ele>
        <time>2021-09-07T09:35:54.000Z</time>
      </trkpt>
      <trkpt lat="48.28035" lon="1.02568">
        <ele>226.216667</ele>
        <time>2021-09-07T09:35:57.000Z</time>
      </trkpt>
      <trkpt lat="48.28032" lon="1.02595">
        <ele>225.796366</ele>
        <time>2021-09-07T09:36:01.000Z</time>
      </trkpt>
      <trkpt lat="48.28028" lon="1.02613">
        <ele>225.506354</ele>
        <time>2021-09-07T09:36:04.000Z</time>
      </trkpt>
      <trkpt lat="48.28028" lon="1.02618">
        <ele>225.418415</ele>
        <time>2021-09-07T09:36:05.000Z</time>
      </trkpt>
      <trkpt lat="48.28026" lon="1.02639">
        <ele>225.085727</ele>
        <time>2021-09-07T09:36:08.000Z</time>
      </trkpt>
      <trkpt lat="48.28018" lon="1.02681">
        <ele>224.413044</ele>
        <time>2021-09-07T09:36:14.000Z</time>
      </trkpt>
      <trkpt lat="48.28016" lon="1.02687">
        <ele>224.405342</ele>
        <time>2021-09-07T09:36:15.000Z</time>
      </trkpt>
      <trkpt lat="48.28015" lon="1.02695">
        <ele>224.418837</ele>
        <time>2021-09-07T09:36:16.000Z</time>
      </trkpt>
      <trkpt lat="48.28007" lon="1.02729">
        <ele>224.48641</ele>
        <time>2021-09-07T09:36:21.000Z</time>
      </trkpt>
      <trkpt lat="48.28005" lon="1.02736">
        <ele>224.499018</ele>
        <time>2021-09-07T09:36:22.000Z</time>
      </trkpt>
      <trkpt lat="48.28002" lon="1.02755">
        <ele>224.535927</ele>
        <time>2021-09-07T09:36:25.000Z</time>
      </trkpt>
      <trkpt lat="48.28" lon="1.02761">
        <ele>224.548189</ele>
        <time>2021-09-07T09:36:26.000Z</time>
      </trkpt>
      <trkpt lat="48.27993" lon="1.02784">
        <ele>224.592975</ele>
        <time>2021-09-07T09:36:30.000Z</time>
      </trkpt>
      <trkpt lat="48.27984" lon="1.02813">
        <ele>224.652513</ele>
        <time>2021-09-07T09:36:34.000Z</time>
      </trkpt>
      <trkpt lat="48.27981" lon="1.0282">
        <ele>224.667499</ele>
        <time>2021-09-07T09:36:35.000Z</time>
      </trkpt>
      <trkpt lat="48.27979" lon="1.02827">
        <ele>224.681099</ele>
        <time>2021-09-07T09:36:36.000Z</time>
      </trkpt>
      <trkpt lat="48.27975" lon="1.0284">
        <ele>224.70799</ele>
        <time>2021-09-07T09:36:38.000Z</time>
      </trkpt>
      <trkpt lat="48.27972" lon="1.02847">
        <ele>224.722748</ele>
        <time>2021-09-07T09:36:39.000Z</time>
      </trkpt>
      <trkpt lat="48.27966" lon="1.02862">
        <ele>224.755093</ele>
        <time>2021-09-07T09:36:41.000Z</time>
      </trkpt>
      <trkpt lat="48.2796" lon="1.02877">
        <ele>224.787976</ele>
        <time>2021-09-07T09:36:43.000Z</time>
      </trkpt>
      <trkpt lat="48.27957" lon="1.02885">
        <ele>224.80417</ele>
        <time>2021-09-07T09:36:44.000Z</time>
      </trkpt>
      <trkpt lat="48.27954" lon="1.02892">
        <ele>224.819542</ele>
        <time>2021-09-07T09:36:45.000Z</time>
      </trkpt>
      <trkpt lat="48.27946" lon="1.0291">
        <ele>224.859233</ele>
        <time>2021-09-07T09:36:48.000Z</time>
      </trkpt>
      <trkpt lat="48.27936" lon="1.02931">
        <ele>224.822497</ele>
        <time>2021-09-07T09:36:51.000Z</time>
      </trkpt>
      <trkpt lat="48.27933" lon="1.0294">
        <ele>224.751363</ele>
        <time>2021-09-07T09:36:52.000Z</time>
      </trkpt>
      <trkpt lat="48.2791" lon="1.02993">
        <ele>224.285678</ele>
        <time>2021-09-07T09:36:59.000Z</time>
      </trkpt>
      <trkpt lat="48.27881" lon="1.0305">
        <ele>223.765989</ele>
        <time>2021-09-07T09:37:07.000Z</time>
      </trkpt>
      <trkpt lat="48.27848" lon="1.03111">
        <ele>223.188715</ele>
        <time>2021-09-07T09:37:16.000Z</time>
      </trkpt>
      <trkpt lat="48.27822" lon="1.03165">
        <ele>222.78338</ele>
        <time>2021-09-07T09:37:24.000Z</time>
      </trkpt>
      <trkpt lat="48.27803" lon="1.03212">
        <ele>222.532111</ele>
        <time>2021-09-07T09:37:31.000Z</time>
      </trkpt>
      <trkpt lat="48.27797" lon="1.03231">
        <ele>222.434864</ele>
        <time>2021-09-07T09:37:34.000Z</time>
      </trkpt>
      <trkpt lat="48.27792" lon="1.03243">
        <ele>222.37232</ele>
        <time>2021-09-07T09:37:36.000Z</time>
      </trkpt>
      <trkpt lat="48.27791" lon="1.03249">
        <ele>222.343303</ele>
        <time>2021-09-07T09:37:37.000Z</time>
      </trkpt>
      <trkpt lat="48.27781" lon="1.0329">
        <ele>222.139426</ele>
        <time>2021-09-07T09:37:44.000Z</time>
      </trkpt>
      <trkpt lat="48.27762" lon="1.03356">
        <ele>221.811516</ele>
        <time>2021-09-07T09:37:56.000Z</time>
      </trkpt>
      <trkpt lat="48.27752" lon="1.03391">
        <ele>221.646002</ele>
        <time>2021-09-07T09:38:03.000Z</time>
      </trkpt>
      <trkpt lat="48.2774" lon="1.03438">
        <ele>221.458541</ele>
        <time>2021-09-07T09:38:13.000Z</time>
      </trkpt>
      <trkpt lat="48.27728" lon="1.03484">
        <ele>221.276687</ele>
        <time>2021-09-07T09:38:23.000Z</time>
      </trkpt>
      <trkpt lat="48.27717" lon="1.03523">
        <ele>221.121288</ele>
        <time>2021-09-07T09:38:31.000Z</time>
      </trkpt>
      <trkpt lat="48.27707" lon="1.03565">
        <ele>220.956914</ele>
        <time>2021-09-07T09:38:39.000Z</time>
      </trkpt>
      <trkpt lat="48.27693" lon="1.03616">
        <ele>220.75253</ele>
        <time>2021-09-07T09:38:49.000Z</time>
      </trkpt>
      <trkpt lat="48.27682" lon="1.03655">
        <ele>220.607771</ele>
        <time>2021-09-07T09:38:57.000Z</time>
      </trkpt>
      <trkpt lat="48.27669" lon="1.03708">
        <ele>220.42796</ele>
        <time>2021-09-07T09:39:08.000Z</time>
      </trkpt>
      <trkpt lat="48.27658" lon="1.03747">
        <ele>220.291148</ele>
        <time>2021-09-07T09:39:16.000Z</time>
      </trkpt>
      <trkpt lat="48.27647" lon="1.03789">
        <ele>220.148465</ele>
        <time>2021-09-07T09:39:24.000Z</time>
      </trkpt>
      <trkpt lat="48.27637" lon="1.03826">
        <ele>220.02138</ele>
        <time>2021-09-07T09:39:31.000Z</time>
      </trkpt>
      <trkpt lat="48.27628" lon="1.0387">
        <ele>219.87263</ele>
        <time>2021-09-07T09:39:39.000Z</time>
      </trkpt>
      <trkpt lat="48.27617" lon="1.03928">
        <ele>219.704874</ele>
        <time>2021-09-07T09:39:49.000Z</time>
      </trkpt>
      <trkpt lat="48.27609" lon="1.03976">
        <ele>219.575914</ele>
        <time>2021-09-07T09:39:57.000Z</time>
      </trkpt>
      <trkpt lat="48.27601" lon="1.04021">
        <ele>219.453282</ele>
        <time>2021-09-07T09:40:05.000Z</time>
      </trkpt>
      <trkpt lat="48.27593" lon="1.04074">
        <ele>219.312304</ele>
        <time>2021-09-07T09:40:14.000Z</time>
      </trkpt>
      <trkpt lat="48.27584" lon="1.04121">
        <ele>219.182533</ele>
        <time>2021-09-07T09:40:22.000Z</time>
      </trkpt>
      <trkpt lat="48.27576" lon="1.04169">
        <ele>219.028587</ele>
        <time>2021-09-07T09:40:30.000Z</time>
      </trkpt>
      <trkpt lat="48.27569" lon="1.04212">
        <ele>218.864029</ele>
        <time>2021-09-07T09:40:37.000Z</time>
      </trkpt>
      <trkpt lat="48.2756" lon="1.04263">
        <ele>218.670085</ele>
        <time>2021-09-07T09:40:45.000Z</time>
      </trkpt>
      <trkpt lat="48.2755" lon="1.04314">
        <ele>218.472538</ele>
        <time>2021-09-07T09:40:53.000Z</time>
      </trkpt>
      <trkpt lat="48.27542" lon="1.04358">
        <ele>218.302674</ele>
        <time>2021-09-07T09:41:00.000Z</time>
      </trkpt>
      <trkpt lat="48.27538" lon="1.04392">
        <ele>218.173879</ele>
        <time>2021-09-07T09:41:06.000Z</time>
      </trkpt>
      <trkpt lat="48.27533" lon="1.0442">
        <ele>218.051914</ele>
        <time>2021-09-07T09:41:11.000Z</time>
      </trkpt>
      <trkpt lat="48.2753" lon="1.04465">
        <ele>217.817903</ele>
        <time>2021-09-07T09:41:18.000Z</time>
      </trkpt>
      <trkpt lat="48.27528" lon="1.04508">
        <ele>217.593146</ele>
        <time>2021-09-07T09:41:25.000Z</time>
      </trkpt>
      <trkpt lat="48.27525" lon="1.04548">
        <ele>217.38519</ele>
        <time>2021-09-07T09:41:32.000Z</time>
      </trkpt>
      <trkpt lat="48.27523" lon="1.04594">
        <ele>217.151211</ele>
        <time>2021-09-07T09:41:39.000Z</time>
      </trkpt>
      <trkpt lat="48.2752" lon="1.04637">
        <ele>216.924813</ele>
        <time>2021-09-07T09:41:46.000Z</time>
      </trkpt>
      <trkpt lat="48.27519" lon="1.04677">
        <ele>216.718438</ele>
        <time>2021-09-07T09:41:52.000Z</time>
      </trkpt>
      <trkpt lat="48.27515" lon="1.04731">
        <ele>216.428352</ele>
        <time>2021-09-07T09:42:00.000Z</time>
      </trkpt>
      <trkpt lat="48.27515" lon="1.04738">
        <ele>216.390192</ele>
        <time>2021-09-07T09:42:01.000Z</time>
      </trkpt>
      <trkpt lat="48.27514" lon="1.04772">
        <ele>216.210881</ele>
        <time>2021-09-07T09:42:06.000Z</time>
      </trkpt>
      <trkpt lat="48.27513" lon="1.04797">
        <ele>216.075036</ele>
        <time>2021-09-07T09:42:10.000Z</time>
      </trkpt>
      <trkpt lat="48.2751" lon="1.0481">
        <ele>216.005811</ele>
        <time>2021-09-07T09:42:12.000Z</time>
      </trkpt>
      <trkpt lat="48.27495" lon="1.0486">
        <ele>215.707416</ele>
        <time>2021-09-07T09:42:20.000Z</time>
      </trkpt>
      <trkpt lat="48.27493" lon="1.04866">
        <ele>215.670109</ele>
        <time>2021-09-07T09:42:21.000Z</time>
      </trkpt>
      <trkpt lat="48.27483" lon="1.04897">
        <ele>215.488027</ele>
        <time>2021-09-07T09:42:26.000Z</time>
      </trkpt>
      <trkpt lat="48.27476" lon="1.04919">
        <ele>215.358227</ele>
        <time>2021-09-07T09:42:30.000Z</time>
      </trkpt>
      <trkpt lat="48.27472" lon="1.04937">
        <ele>215.257118</ele>
        <time>2021-09-07T09:42:33.000Z</time>
      </trkpt>
      <trkpt lat="48.27471" lon="1.04943">
        <ele>215.226982</ele>
        <time>2021-09-07T09:42:34.000Z</time>
      </trkpt>
      <trkpt lat="48.2746" lon="1.04973">
        <ele>215.072488</ele>
        <time>2021-09-07T09:42:39.000Z</time>
      </trkpt>
      <trkpt lat="48.2745" lon="1.0501">
        <ele>214.887825</ele>
        <time>2021-09-07T09:42:45.000Z</time>
      </trkpt>
      <trkpt lat="48.27438" lon="1.05062">
        <ele>214.638796</ele>
        <time>2021-09-07T09:42:53.000Z</time>
      </trkpt>
      <trkpt lat="48.27425" lon="1.0512">
        <ele>214.355917</ele>
        <time>2021-09-07T09:43:02.000Z</time>
      </trkpt>
      <trkpt lat="48.27411" lon="1.05173">
        <ele>214.091084</ele>
        <time>2021-09-07T09:43:10.000Z</time>
      </trkpt>
      <trkpt lat="48.27409" lon="1.0518">
        <ele>214.059193</ele>
        <time>2021-09-07T09:43:11.000Z</time>
      </trkpt>
      <trkpt lat="48.27405" lon="1.05214">
        <ele>213.870527</ele>
        <time>2021-09-07T09:43:16.000Z</time>
      </trkpt>
      <trkpt lat="48.27396" lon="1.05267">
        <ele>213.557744</ele>
        <time>2021-09-07T09:43:24.000Z</time>
      </trkpt>
      <trkpt lat="48.27389" lon="1.05313">
        <ele>213.288564</ele>
        <time>2021-09-07T09:43:31.000Z</time>
      </trkpt>
      <trkpt lat="48.27377" lon="1.05379">
        <ele>212.900605</ele>
        <time>2021-09-07T09:43:40.000Z</time>
      </trkpt>
      <trkpt lat="48.27365" lon="1.05434">
        <ele>212.572514</ele>
        <time>2021-09-07T09:43:48.000Z</time>
      </trkpt>
      <trkpt lat="48.27354" lon="1.05486">
        <ele>212.245942</ele>
        <time>2021-09-07T09:43:56.000Z</time>
      </trkpt>
      <trkpt lat="48.27343" lon="1.05547">
        <ele>211.86682</ele>
        <time>2021-09-07T09:44:06.000Z</time>
      </trkpt>
      <trkpt lat="48.27336" lon="1.05596">
        <ele>211.568016</ele>
        <time>2021-09-07T09:44:14.000Z</time>
      </trkpt>
      <trkpt lat="48.27327" lon="1.05657">
        <ele>211.192172</ele>
        <time>2021-09-07T09:44:24.000Z</time>
      </trkpt>
      <trkpt lat="48.27319" lon="1.05711">
        <ele>210.860195</ele>
        <time>2021-09-07T09:44:33.000Z</time>
      </trkpt>
      <trkpt lat="48.27314" lon="1.05764">
        <ele>210.615319</ele>
        <time>2021-09-07T09:44:42.000Z</time>
      </trkpt>
      <trkpt lat="48.27308" lon="1.0581">
        <ele>210.402147</ele>
        <time>2021-09-07T09:44:50.000Z</time>
      </trkpt>
      <trkpt lat="48.273" lon="1.05868">
        <ele>210.131154</ele>
        <time>2021-09-07T09:45:00.000Z</time>
      </trkpt>
      <trkpt lat="48.27292" lon="1.0592">
        <ele>209.88511</ele>
        <time>2021-09-07T09:45:09.000Z</time>
      </trkpt>
      <trkpt lat="48.27286" lon="1.05969">
        <ele>209.656487</ele>
        <time>2021-09-07T09:45:17.000Z</time>
      </trkpt>
      <trkpt lat="48.27277" lon="1.06022">
        <ele>209.465889</ele>
        <time>2021-09-07T09:45:26.000Z</time>
      </trkpt>
      <trkpt lat="48.2727" lon="1.06067">
        <ele>209.311316</ele>
        <time>2021-09-07T09:45:34.000Z</time>
      </trkpt>
      <trkpt lat="48.27262" lon="1.06115">
        <ele>209.14916</ele>
        <time>2021-09-07T09:45:42.000Z</time>
      </trkpt>
      <trkpt lat="48.27248" lon="1.06188">
        <ele>208.893854</ele>
        <time>2021-09-07T09:45:54.000Z</time>
      </trkpt>
      <trkpt lat="48.27237" lon="1.06236">
        <ele>208.727423</ele>
        <time>2021-09-07T09:46:02.000Z</time>
      </trkpt>
      <trkpt lat="48.27227" lon="1.06278">
        <ele>208.405153</ele>
        <time>2021-09-07T09:46:09.000Z</time>
      </trkpt>
      <trkpt lat="48.27219" lon="1.06331">
        <ele>208.008374</ele>
        <time>2021-09-07T09:46:17.000Z</time>
      </trkpt>
      <trkpt lat="48.27215" lon="1.06372">
        <ele>207.713476</ele>
        <time>2021-09-07T09:46:23.000Z</time>
      </trkpt>
      <trkpt lat="48.27214" lon="1.06378">
        <ele>207.665669</ele>
        <time>2021-09-07T09:46:24.000Z</time>
      </trkpt>
      <trkpt lat="48.27211" lon="1.06405">
        <ele>207.467177</ele>
        <time>2021-09-07T09:46:28.000Z</time>
      </trkpt>
      <trkpt lat="48.27206" lon="1.06466">
        <ele>207.023692</ele>
        <time>2021-09-07T09:46:36.000Z</time>
      </trkpt>
      <trkpt lat="48.27199" lon="1.06547">
        <ele>206.302337</ele>
        <time>2021-09-07T09:46:46.000Z</time>
      </trkpt>
      <trkpt lat="48.27198" lon="1.06556">
        <ele>206.220755</ele>
        <time>2021-09-07T09:46:47.000Z</time>
      </trkpt>
      <trkpt lat="48.27193" lon="1.06631">
        <ele>205.473187</ele>
        <time>2021-09-07T09:46:56.000Z</time>
      </trkpt>
      <trkpt lat="48.27188" lon="1.06708">
        <ele>204.703719</ele>
        <time>2021-09-07T09:47:05.000Z</time>
      </trkpt>
      <trkpt lat="48.27183" lon="1.06769">
        <ele>204.093</ele>
        <time>2021-09-07T09:47:12.000Z</time>
      </trkpt>
      <trkpt lat="48.27174" lon="1.06855">
        <ele>203.117907</ele>
        <time>2021-09-07T09:47:22.000Z</time>
      </trkpt>
      <trkpt lat="48.27167" lon="1.06909">
        <ele>202.491061</ele>
        <time>2021-09-07T09:47:29.000Z</time>
      </trkpt>
      <trkpt lat="48.27157" lon="1.06988">
        <ele>201.588094</ele>
        <time>2021-09-07T09:47:39.000Z</time>
      </trkpt>
      <trkpt lat="48.27151" lon="1.07038">
        <ele>201.02713</ele>
        <time>2021-09-07T09:47:45.000Z</time>
      </trkpt>
      <trkpt lat="48.27143" lon="1.07109">
        <ele>200.262769</ele>
        <time>2021-09-07T09:47:53.000Z</time>
      </trkpt>
      <trkpt lat="48.27133" lon="1.0719">
        <ele>199.402217</ele>
        <time>2021-09-07T09:48:01.000Z</time>
      </trkpt>
      <trkpt lat="48.27131" lon="1.072">
        <ele>199.291044</ele>
        <time>2021-09-07T09:48:02.000Z</time>
      </trkpt>
      <trkpt lat="48.27124" lon="1.07246">
        <ele>198.802928</ele>
        <time>2021-09-07T09:48:07.000Z</time>
      </trkpt>
      <trkpt lat="48.27117" lon="1.07284">
        <ele>198.385859</ele>
        <time>2021-09-07T09:48:12.000Z</time>
      </trkpt>
      <trkpt lat="48.27111" lon="1.07334">
        <ele>198.276299</ele>
        <time>2021-09-07T09:48:20.000Z</time>
      </trkpt>
      <trkpt lat="48.27105" lon="1.07374">
        <ele>198.356057</ele>
        <time>2021-09-07T09:48:27.000Z</time>
      </trkpt>
      <trkpt lat="48.271" lon="1.07429">
        <ele>198.465148</ele>
        <time>2021-09-07T09:48:37.000Z</time>
      </trkpt>
      <trkpt lat="48.27096" lon="1.07473">
        <ele>198.550959</ele>
        <time>2021-09-07T09:48:45.000Z</time>
      </trkpt>
      <trkpt lat="48.27091" lon="1.07512">
        <ele>198.628514</ele>
        <time>2021-09-07T09:48:52.000Z</time>
      </trkpt>
      <trkpt lat="48.27084" lon="1.0756">
        <ele>198.725289</ele>
        <time>2021-09-07T09:49:00.000Z</time>
      </trkpt>
      <trkpt lat="48.27075" lon="1.07612">
        <ele>198.778492</ele>
        <time>2021-09-07T09:49:08.000Z</time>
      </trkpt>
      <trkpt lat="48.27068" lon="1.07652">
        <ele>198.813925</ele>
        <time>2021-09-07T09:49:15.000Z</time>
      </trkpt>
      <trkpt lat="48.27062" lon="1.07688">
        <ele>198.847051</ele>
        <time>2021-09-07T09:49:22.000Z</time>
      </trkpt>
      <trkpt lat="48.27052" lon="1.07735">
        <ele>198.889168</ele>
        <time>2021-09-07T09:49:30.000Z</time>
      </trkpt>
      <trkpt lat="48.27044" lon="1.07784">
        <ele>198.933548</ele>
        <time>2021-09-07T09:49:38.000Z</time>
      </trkpt>
      <trkpt lat="48.27035" lon="1.0783">
        <ele>198.96139</ele>
        <time>2021-09-07T09:49:45.000Z</time>
      </trkpt>
      <trkpt lat="48.27026" lon="1.0789">
        <ele>198.762122</ele>
        <time>2021-09-07T09:49:54.000Z</time>
      </trkpt>
      <trkpt lat="48.27019" lon="1.07942">
        <ele>198.592947</ele>
        <time>2021-09-07T09:50:01.000Z</time>
      </trkpt>
      <trkpt lat="48.27009" lon="1.08016">
        <ele>198.346398</ele>
        <time>2021-09-07T09:50:11.000Z</time>
      </trkpt>
      <trkpt lat="48.27001" lon="1.0808">
        <ele>198.136021</ele>
        <time>2021-09-07T09:50:20.000Z</time>
      </trkpt>
      <trkpt lat="48.26993" lon="1.0813">
        <ele>197.817369</ele>
        <time>2021-09-07T09:50:27.000Z</time>
      </trkpt>
      <trkpt lat="48.26992" lon="1.08137">
        <ele>197.768724</ele>
        <time>2021-09-07T09:50:28.000Z</time>
      </trkpt>
      <trkpt lat="48.26986" lon="1.08185">
        <ele>197.423557</ele>
        <time>2021-09-07T09:50:35.000Z</time>
      </trkpt>
      <trkpt lat="48.26985" lon="1.08192">
        <ele>197.37217</ele>
        <time>2021-09-07T09:50:36.000Z</time>
      </trkpt>
      <trkpt lat="48.26981" lon="1.08231">
        <ele>197.097676</ele>
        <time>2021-09-07T09:50:41.000Z</time>
      </trkpt>
      <trkpt lat="48.26977" lon="1.0826">
        <ele>196.887845</ele>
        <time>2021-09-07T09:50:45.000Z</time>
      </trkpt>
      <trkpt lat="48.26976" lon="1.08275">
        <ele>196.780065</ele>
        <time>2021-09-07T09:50:47.000Z</time>
      </trkpt>
      <trkpt lat="48.26973" lon="1.08307">
        <ele>196.555753</ele>
        <time>2021-09-07T09:50:51.000Z</time>
      </trkpt>
      <trkpt lat="48.26971" lon="1.08323">
        <ele>196.435629</ele>
        <time>2021-09-07T09:50:53.000Z</time>
      </trkpt>
      <trkpt lat="48.26966" lon="1.08386">
        <ele>196.711524</ele>
        <time>2021-09-07T09:51:00.000Z</time>
      </trkpt>
      <trkpt lat="48.2696" lon="1.0844">
        <ele>197.706415</ele>
        <time>2021-09-07T09:51:06.000Z</time>
      </trkpt>
      <trkpt lat="48.26956" lon="1.08466">
        <ele>198.185775</ele>
        <time>2021-09-07T09:51:09.000Z</time>
      </trkpt>
      <trkpt lat="48.26952" lon="1.0848">
        <ele>198.475641</ele>
        <time>2021-09-07T09:51:11.000Z</time>
      </trkpt>
      <trkpt lat="48.2694" lon="1.08513">
        <ele>199.158658</ele>
        <time>2021-09-07T09:51:17.000Z</time>
      </trkpt>
      <trkpt lat="48.26931" lon="1.08532">
        <ele>199.572886</ele>
        <time>2021-09-07T09:51:22.000Z</time>
      </trkpt>
      <trkpt lat="48.26923" lon="1.08556">
        <ele>200.061441</ele>
        <time>2021-09-07T09:51:28.000Z</time>
      </trkpt>
      <trkpt lat="48.26917" lon="1.08575">
        <ele>200.440453</ele>
        <time>2021-09-07T09:51:33.000Z</time>
      </trkpt>
      <trkpt lat="48.26909" lon="1.08596">
        <ele>200.886468</ele>
        <time>2021-09-07T09:51:39.000Z</time>
      </trkpt>
      <trkpt lat="48.26897" lon="1.08624">
        <ele>202.4024</ele>
        <time>2021-09-07T09:51:47.000Z</time>
      </trkpt>
      <trkpt lat="48.26887" lon="1.08646">
        <ele>204.076157</ele>
        <time>2021-09-07T09:51:54.000Z</time>
      </trkpt>
      <trkpt lat="48.26878" lon="1.08665">
        <ele>205.433292</ele>
        <time>2021-09-07T09:52:00.000Z</time>
      </trkpt>
      <trkpt lat="48.26871" lon="1.0868">
        <ele>206.555998</ele>
        <time>2021-09-07T09:52:05.000Z</time>
      </trkpt>
      <trkpt lat="48.2686" lon="1.08703">
        <ele>208.334946</ele>
        <time>2021-09-07T09:52:12.000Z</time>
      </trkpt>
      <trkpt lat="48.26848" lon="1.0872">
        <ele>209.894169</ele>
        <time>2021-09-07T09:52:17.000Z</time>
      </trkpt>
      <trkpt lat="48.26839" lon="1.08734">
        <ele>211.015346</ele>
        <time>2021-09-07T09:52:21.000Z</time>
      </trkpt>
      <trkpt lat="48.26827" lon="1.08753">
        <ele>212.680894</ele>
        <time>2021-09-07T09:52:27.000Z</time>
      </trkpt>
      <trkpt lat="48.26815" lon="1.08775">
        <ele>214.404008</ele>
        <time>2021-09-07T09:52:33.000Z</time>
      </trkpt>
      <trkpt lat="48.26803" lon="1.08792">
        <ele>215.946186</ele>
        <time>2021-09-07T09:52:38.000Z</time>
      </trkpt>
      <trkpt lat="48.26794" lon="1.08808">
        <ele>217.172261</ele>
        <time>2021-09-07T09:52:42.000Z</time>
      </trkpt>
      <trkpt lat="48.26774" lon="1.08838">
        <ele>220.147888</ele>
        <time>2021-09-07T09:52:48.000Z</time>
      </trkpt>
      <trkpt lat="48.2676" lon="1.08858">
        <ele>222.253716</ele>
        <time>2021-09-07T09:52:53.000Z</time>
      </trkpt>
      <trkpt lat="48.26757" lon="1.08865">
        <ele>222.948659</ele>
        <time>2021-09-07T09:52:55.000Z</time>
      </trkpt>
      <trkpt lat="48.26754" lon="1.0887">
        <ele>223.422749</ele>
        <time>2021-09-07T09:52:56.000Z</time>
      </trkpt>
      <trkpt lat="48.2675" lon="1.08876">
        <ele>223.967357</ele>
        <time>2021-09-07T09:52:57.000Z</time>
      </trkpt>
      <trkpt lat="48.26743" lon="1.08886">
        <ele>225.043083</ele>
        <time>2021-09-07T09:52:59.000Z</time>
      </trkpt>
      <trkpt lat="48.26737" lon="1.08896">
        <ele>226.036835</ele>
        <time>2021-09-07T09:53:01.000Z</time>
      </trkpt>
      <trkpt lat="48.26727" lon="1.08913">
        <ele>227.704748</ele>
        <time>2021-09-07T09:53:05.000Z</time>
      </trkpt>
      <trkpt lat="48.2671" lon="1.08941">
        <ele>230.389613</ele>
        <time>2021-09-07T09:53:10.000Z</time>
      </trkpt>
      <trkpt lat="48.26704" lon="1.08953">
        <ele>231.51906</ele>
        <time>2021-09-07T09:53:12.000Z</time>
      </trkpt>
      <trkpt lat="48.26695" lon="1.08969">
        <ele>233.03499</ele>
        <time>2021-09-07T09:53:15.000Z</time>
      </trkpt>
      <trkpt lat="48.26682" lon="1.08994">
        <ele>235.292902</ele>
        <time>2021-09-07T09:53:20.000Z</time>
      </trkpt>
      <trkpt lat="48.26667" lon="1.09018">
        <ele>237.759157</ele>
        <time>2021-09-07T09:53:25.000Z</time>
      </trkpt>
      <trkpt lat="48.26664" lon="1.09023">
        <ele>238.256319</ele>
        <time>2021-09-07T09:53:26.000Z</time>
      </trkpt>
      <trkpt lat="48.26653" lon="1.09046">
        <ele>240.454508</ele>
        <time>2021-09-07T09:53:30.000Z</time>
      </trkpt>
      <trkpt lat="48.26645" lon="1.09057">
        <ele>241.605748</ele>
        <time>2021-09-07T09:53:32.000Z</time>
      </trkpt>
      <trkpt lat="48.26634" lon="1.09076">
        <ele>243.579512</ele>
        <time>2021-09-07T09:53:35.000Z</time>
      </trkpt>
      <trkpt lat="48.26611" lon="1.09116">
        <ele>247.534295</ele>
        <time>2021-09-07T09:53:42.000Z</time>
      </trkpt>
      <trkpt lat="48.26601" lon="1.09135">
        <ele>249.434558</ele>
        <time>2021-09-07T09:53:46.000Z</time>
      </trkpt>
      <trkpt lat="48.26595" lon="1.09146">
        <ele>250.41572</ele>
        <time>2021-09-07T09:53:48.000Z</time>
      </trkpt>
      <trkpt lat="48.26592" lon="1.0915">
        <ele>250.882843</ele>
        <time>2021-09-07T09:53:49.000Z</time>
      </trkpt>
      <trkpt lat="48.2659" lon="1.09154">
        <ele>251.306765</ele>
        <time>2021-09-07T09:53:50.000Z</time>
      </trkpt>
      <trkpt lat="48.2658" lon="1.09175">
        <ele>253.277957</ele>
        <time>2021-09-07T09:53:54.000Z</time>
      </trkpt>
      <trkpt lat="48.26567" lon="1.09203">
        <ele>255.85981</ele>
        <time>2021-09-07T09:53:59.000Z</time>
      </trkpt>
      <trkpt lat="48.26557" lon="1.09218">
        <ele>257.509929</ele>
        <time>2021-09-07T09:54:02.000Z</time>
      </trkpt>
      <trkpt lat="48.26551" lon="1.09228">
        <ele>258.160431</ele>
        <time>2021-09-07T09:54:04.000Z</time>
      </trkpt>
      <trkpt lat="48.26539" lon="1.09248">
        <ele>259.283923</ele>
        <time>2021-09-07T09:54:08.000Z</time>
      </trkpt>
      <trkpt lat="48.26534" lon="1.0926">
        <ele>259.866341</ele>
        <time>2021-09-07T09:54:10.000Z</time>
      </trkpt>
      <trkpt lat="48.26524" lon="1.09277">
        <ele>260.787535</ele>
        <time>2021-09-07T09:54:13.000Z</time>
      </trkpt>
      <trkpt lat="48.26521" lon="1.09283">
        <ele>261.106839</ele>
        <time>2021-09-07T09:54:14.000Z</time>
      </trkpt>
      <trkpt lat="48.26513" lon="1.09305">
        <ele>262.162583</ele>
        <time>2021-09-07T09:54:17.000Z</time>
      </trkpt>
      <trkpt lat="48.26501" lon="1.09336">
        <ele>263.660992</ele>
        <time>2021-09-07T09:54:21.000Z</time>
      </trkpt>
      <trkpt lat="48.26494" lon="1.09361">
        <ele>264.760655</ele>
        <time>2021-09-07T09:54:24.000Z</time>
      </trkpt>
      <trkpt lat="48.26487" lon="1.09369">
        <ele>265.318034</ele>
        <time>2021-09-07T09:54:26.000Z</time>
      </trkpt>
      <trkpt lat="48.26485" lon="1.09374">
        <ele>265.588298</ele>
        <time>2021-09-07T09:54:27.000Z</time>
      </trkpt>
      <trkpt lat="48.26476" lon="1.09394">
        <ele>266.561738</ele>
        <time>2021-09-07T09:54:30.000Z</time>
      </trkpt>
      <trkpt lat="48.26472" lon="1.09402">
        <ele>266.974302</ele>
        <time>2021-09-07T09:54:31.000Z</time>
      </trkpt>
      <trkpt lat="48.26463" lon="1.09418">
        <ele>267.85144</ele>
        <time>2021-09-07T09:54:33.000Z</time>
      </trkpt>
      <trkpt lat="48.26459" lon="1.09427">
        <ele>268.330171</ele>
        <time>2021-09-07T09:54:34.000Z</time>
      </trkpt>
      <trkpt lat="48.26454" lon="1.09436">
        <ele>268.797755</ele>
        <time>2021-09-07T09:54:35.000Z</time>
      </trkpt>
      <trkpt lat="48.26438" lon="1.09475">
        <ele>268.793668</ele>
        <time>2021-09-07T09:54:39.000Z</time>
      </trkpt>
      <trkpt lat="48.26435" lon="1.09486">
        <ele>268.733313</ele>
        <time>2021-09-07T09:54:40.000Z</time>
      </trkpt>
      <trkpt lat="48.26427" lon="1.09504">
        <ele>268.631376</ele>
        <time>2021-09-07T09:54:42.000Z</time>
      </trkpt>
      <trkpt lat="48.26424" lon="1.09512">
        <ele>268.579634</ele>
        <time>2021-09-07T09:54:43.000Z</time>
      </trkpt>
      <trkpt lat="48.26416" lon="1.09529">
        <ele>268.483134</ele>
        <time>2021-09-07T09:54:45.000Z</time>
      </trkpt>
      <trkpt lat="48.26409" lon="1.09544">
        <ele>268.389804</ele>
        <time>2021-09-07T09:54:47.000Z</time>
      </trkpt>
      <trkpt lat="48.26396" lon="1.0957">
        <ele>268.22688</ele>
        <time>2021-09-07T09:54:50.000Z</time>
      </trkpt>
      <trkpt lat="48.26392" lon="1.09591">
        <ele>268.120922</ele>
        <time>2021-09-07T09:54:52.000Z</time>
      </trkpt>
      <trkpt lat="48.2639" lon="1.09628">
        <ele>267.937426</ele>
        <time>2021-09-07T09:54:56.000Z</time>
      </trkpt>
      <trkpt lat="48.26392" lon="1.0966">
        <ele>267.779503</ele>
        <time>2021-09-07T09:54:59.000Z</time>
      </trkpt>
      <trkpt lat="48.26392" lon="1.09678">
        <ele>267.690214</ele>
        <time>2021-09-07T09:55:01.000Z</time>
      </trkpt>
      <trkpt lat="48.26394" lon="1.09722">
        <ele>264.224496</ele>
        <time>2021-09-07T09:55:06.000Z</time>
      </trkpt>
      <trkpt lat="48.26401" lon="1.09786">
        <ele>258.37592</ele>
        <time>2021-09-07T09:55:12.000Z</time>
      </trkpt>
      <trkpt lat="48.26402" lon="1.09798">
        <ele>257.32878</ele>
        <time>2021-09-07T09:55:13.000Z</time>
      </trkpt>
      <trkpt lat="48.26403" lon="1.09823">
        <ele>255.10664</ele>
        <time>2021-09-07T09:55:16.000Z</time>
      </trkpt>
      <trkpt lat="48.26404" lon="1.09868">
        <ele>250.992838</ele>
        <time>2021-09-07T09:55:22.000Z</time>
      </trkpt>
      <trkpt lat="48.26404" lon="1.09928">
        <ele>245.659289</ele>
        <time>2021-09-07T09:55:29.000Z</time>
      </trkpt>
      <trkpt lat="48.26402" lon="1.09953">
        <ele>243.364293</ele>
        <time>2021-09-07T09:55:32.000Z</time>
      </trkpt>
      <trkpt lat="48.26402" lon="1.0997">
        <ele>241.753122</ele>
        <time>2021-09-07T09:55:34.000Z</time>
      </trkpt>
      <trkpt lat="48.26401" lon="1.10025">
        <ele>236.414881</ele>
        <time>2021-09-07T09:55:41.000Z</time>
      </trkpt>
      <trkpt lat="48.26401" lon="1.10069">
        <ele>232.106183</ele>
        <time>2021-09-07T09:55:48.000Z</time>
      </trkpt>
      <trkpt lat="48.264" lon="1.10111">
        <ele>228.021108</ele>
        <time>2021-09-07T09:55:56.000Z</time>
      </trkpt>
      <trkpt lat="48.264" lon="1.1015">
        <ele>224.236967</ele>
        <time>2021-09-07T09:56:04.000Z</time>
      </trkpt>
      <trkpt lat="48.264" lon="1.1019">
        <ele>220.394754</ele>
        <time>2021-09-07T09:56:12.000Z</time>
      </trkpt>
      <trkpt lat="48.26402" lon="1.10237">
        <ele>216.532402</ele>
        <time>2021-09-07T09:56:21.000Z</time>
      </trkpt>
      <trkpt lat="48.26404" lon="1.10282">
        <ele>214.36999</ele>
        <time>2021-09-07T09:56:30.000Z</time>
      </trkpt>
      <trkpt lat="48.26407" lon="1.10332">
        <ele>211.96446</ele>
        <time>2021-09-07T09:56:39.000Z</time>
      </trkpt>
      <trkpt lat="48.2641" lon="1.10381">
        <ele>209.611748</ele>
        <time>2021-09-07T09:56:47.000Z</time>
      </trkpt>
      <trkpt lat="48.26412" lon="1.10406">
        <ele>208.411019</ele>
        <time>2021-09-07T09:56:51.000Z</time>
      </trkpt>
      <trkpt lat="48.26412" lon="1.10426">
        <ele>207.485836</ele>
        <time>2021-09-07T09:56:54.000Z</time>
      </trkpt>
      <trkpt lat="48.26416" lon="1.10477">
        <ele>205.015189</ele>
        <time>2021-09-07T09:57:02.000Z</time>
      </trkpt>
      <trkpt lat="48.26419" lon="1.1053">
        <ele>203.429234</ele>
        <time>2021-09-07T09:57:10.000Z</time>
      </trkpt>
      <trkpt lat="48.26422" lon="1.10584">
        <ele>202.176709</ele>
        <time>2021-09-07T09:57:18.000Z</time>
      </trkpt>
      <trkpt lat="48.26428" lon="1.10657">
        <ele>200.49348</ele>
        <time>2021-09-07T09:57:28.000Z</time>
      </trkpt>
      <trkpt lat="48.26436" lon="1.10702">
        <ele>199.421923</ele>
        <time>2021-09-07T09:57:34.000Z</time>
      </trkpt>
      <trkpt lat="48.2645" lon="1.10765">
        <ele>197.969059</ele>
        <time>2021-09-07T09:57:43.000Z</time>
      </trkpt>
      <trkpt lat="48.26463" lon="1.10829">
        <ele>197.117897</ele>
        <time>2021-09-07T09:57:52.000Z</time>
      </trkpt>
      <trkpt lat="48.26469" lon="1.10857">
        <ele>196.749865</ele>
        <time>2021-09-07T09:57:56.000Z</time>
      </trkpt>
      <trkpt lat="48.26472" lon="1.1087">
        <ele>196.575444</ele>
        <time>2021-09-07T09:57:58.000Z</time>
      </trkpt>
      <trkpt lat="48.2648" lon="1.10911">
        <ele>196.03026</ele>
        <time>2021-09-07T09:58:04.000Z</time>
      </trkpt>
      <trkpt lat="48.26488" lon="1.10968">
        <ele>195.295047</ele>
        <time>2021-09-07T09:58:12.000Z</time>
      </trkpt>
      <trkpt lat="48.2649" lon="1.1102">
        <ele>194.648396</ele>
        <time>2021-09-07T09:58:19.000Z</time>
      </trkpt>
      <trkpt lat="48.26489" lon="1.11069">
        <ele>194.245848</ele>
        <time>2021-09-07T09:58:26.000Z</time>
      </trkpt>
      <trkpt lat="48.26487" lon="1.11122">
        <ele>193.815027</ele>
        <time>2021-09-07T09:58:33.000Z</time>
      </trkpt>
      <trkpt lat="48.26487" lon="1.11129">
        <ele>193.754249</ele>
        <time>2021-09-07T09:58:34.000Z</time>
      </trkpt>
      <trkpt lat="48.26487" lon="1.1118">
        <ele>193.337514</ele>
        <time>2021-09-07T09:58:40.000Z</time>
      </trkpt>
      <trkpt lat="48.26488" lon="1.11189">
        <ele>193.266875</ele>
        <time>2021-09-07T09:58:41.000Z</time>
      </trkpt>
      <trkpt lat="48.26491" lon="1.11222">
        <ele>192.996774</ele>
        <time>2021-09-07T09:58:45.000Z</time>
      </trkpt>
      <trkpt lat="48.26492" lon="1.11229">
        <ele>192.932813</ele>
        <time>2021-09-07T09:58:46.000Z</time>
      </trkpt>
      <trkpt lat="48.26501" lon="1.11291">
        <ele>192.401554</ele>
        <time>2021-09-07T09:58:53.000Z</time>
      </trkpt>
      <trkpt lat="48.26512" lon="1.11356">
        <ele>191.607601</ele>
        <time>2021-09-07T09:59:00.000Z</time>
      </trkpt>
      <trkpt lat="48.26525" lon="1.11443">
        <ele>190.556655</ele>
        <time>2021-09-07T09:59:09.000Z</time>
      </trkpt>
      <trkpt lat="48.26537" lon="1.11519">
        <ele>189.630885</ele>
        <time>2021-09-07T09:59:17.000Z</time>
      </trkpt>
      <trkpt lat="48.26548" lon="1.11583">
        <ele>188.932794</ele>
        <time>2021-09-07T09:59:24.000Z</time>
      </trkpt>
      <trkpt lat="48.26558" lon="1.11638">
        <ele>188.377026</ele>
        <time>2021-09-07T09:59:31.000Z</time>
      </trkpt>
      <trkpt lat="48.26574" lon="1.11715">
        <ele>187.604613</ele>
        <time>2021-09-07T09:59:42.000Z</time>
      </trkpt>
      <trkpt lat="48.26578" lon="1.11741">
        <ele>187.343817</ele>
        <time>2021-09-07T09:59:46.000Z</time>
      </trkpt>
      <trkpt lat="48.26581" lon="1.11753">
        <ele>187.214127</ele>
        <time>2021-09-07T09:59:48.000Z</time>
      </trkpt>
      <trkpt lat="48.26582" lon="1.1176">
        <ele>187.14804</ele>
        <time>2021-09-07T09:59:49.000Z</time>
      </trkpt>
      <trkpt lat="48.2659" lon="1.11797">
        <ele>186.771571</ele>
        <time>2021-09-07T09:59:55.000Z</time>
      </trkpt>
      <trkpt lat="48.26598" lon="1.11836">
        <ele>186.551262</ele>
        <time>2021-09-07T10:00:02.000Z</time>
      </trkpt>
      <trkpt lat="48.26608" lon="1.11886">
        <ele>186.364787</ele>
        <time>2021-09-07T10:00:11.000Z</time>
      </trkpt>
      <trkpt lat="48.26622" lon="1.11936">
        <ele>186.168837</ele>
        <time>2021-09-07T10:00:20.000Z</time>
      </trkpt>
      <trkpt lat="48.26638" lon="1.11988">
        <ele>185.965288</ele>
        <time>2021-09-07T10:00:29.000Z</time>
      </trkpt>
      <trkpt lat="48.26651" lon="1.1203">
        <ele>185.799072</ele>
        <time>2021-09-07T10:00:36.000Z</time>
      </trkpt>
      <trkpt lat="48.2666" lon="1.12061">
        <ele>185.67779</ele>
        <time>2021-09-07T10:00:41.000Z</time>
      </trkpt>
      <trkpt lat="48.26668" lon="1.12082">
        <ele>185.585368</ele>
        <time>2021-09-07T10:00:45.000Z</time>
      </trkpt>
      <trkpt lat="48.2668" lon="1.12109">
        <ele>185.463618</ele>
        <time>2021-09-07T10:00:50.000Z</time>
      </trkpt>
      <trkpt lat="48.26687" lon="1.1212">
        <ele>185.410084</ele>
        <time>2021-09-07T10:00:52.000Z</time>
      </trkpt>
      <trkpt lat="48.26715" lon="1.12161">
        <ele>185.190904</ele>
        <time>2021-09-07T10:01:00.000Z</time>
      </trkpt>
      <trkpt lat="48.26748" lon="1.12201">
        <ele>184.95043</ele>
        <time>2021-09-07T10:01:08.000Z</time>
      </trkpt>
      <trkpt lat="48.26775" lon="1.12231">
        <ele>184.766254</ele>
        <time>2021-09-07T10:01:14.000Z</time>
      </trkpt>
      <trkpt lat="48.26793" lon="1.12249">
        <ele>184.603909</ele>
        <time>2021-09-07T10:01:18.000Z</time>
      </trkpt>
      <trkpt lat="48.26807" lon="1.12261">
        <ele>184.423005</ele>
        <time>2021-09-07T10:01:21.000Z</time>
      </trkpt>
      <trkpt lat="48.26849" lon="1.12301">
        <ele>183.860455</ele>
        <time>2021-09-07T10:01:30.000Z</time>
      </trkpt>
      <trkpt lat="48.26878" lon="1.12341">
        <ele>183.417436</ele>
        <time>2021-09-07T10:01:37.000Z</time>
      </trkpt>
      <trkpt lat="48.26903" lon="1.12395">
        <ele>182.926977</ele>
        <time>2021-09-07T10:01:44.000Z</time>
      </trkpt>
      <trkpt lat="48.26917" lon="1.1245">
        <ele>182.408722</ele>
        <time>2021-09-07T10:01:50.000Z</time>
      </trkpt>
      <trkpt lat="48.26924" lon="1.12512">
        <ele>181.726465</ele>
        <time>2021-09-07T10:01:56.000Z</time>
      </trkpt>
      <trkpt lat="48.26933" lon="1.12594">
        <ele>180.814008</ele>
        <time>2021-09-07T10:02:04.000Z</time>
      </trkpt>
      <trkpt lat="48.26934" lon="1.12604">
        <ele>180.703606</ele>
        <time>2021-09-07T10:02:05.000Z</time>
      </trkpt>
      <trkpt lat="48.26942" lon="1.12682">
        <ele>179.845543</ele>
        <time>2021-09-07T10:02:13.000Z</time>
      </trkpt>
      <trkpt lat="48.2695" lon="1.12742">
        <ele>179.275162</ele>
        <time>2021-09-07T10:02:20.000Z</time>
      </trkpt>
      <trkpt lat="48.26957" lon="1.12807">
        <ele>178.684932</ele>
        <time>2021-09-07T10:02:28.000Z</time>
      </trkpt>
      <trkpt lat="48.26966" lon="1.12886">
        <ele>177.964728</ele>
        <time>2021-09-07T10:02:38.000Z</time>
      </trkpt>
      <trkpt lat="48.26986" lon="1.12962">
        <ele>177.296608</ele>
        <time>2021-09-07T10:02:48.000Z</time>
      </trkpt>
      <trkpt lat="48.27009" lon="1.13015">
        <ele>177.424462</ele>
        <time>2021-09-07T10:02:56.000Z</time>
      </trkpt>
      <trkpt lat="48.27033" lon="1.13062">
        <ele>177.544869</ele>
        <time>2021-09-07T10:03:04.000Z</time>
      </trkpt>
      <trkpt lat="48.2704" lon="1.13077">
        <ele>177.581954</ele>
        <time>2021-09-07T10:03:07.000Z</time>
      </trkpt>
      <trkpt lat="48.27046" lon="1.13092">
        <ele>177.61701</ele>
        <time>2021-09-07T10:03:10.000Z</time>
      </trkpt>
      <trkpt lat="48.27061" lon="1.13125">
        <ele>177.697783</ele>
        <time>2021-09-07T10:03:18.000Z</time>
      </trkpt>
      <trkpt lat="48.27073" lon="1.13156">
        <ele>177.770688</ele>
        <time>2021-09-07T10:03:26.000Z</time>
      </trkpt>
      <trkpt lat="48.27083" lon="1.13184">
        <ele>177.868933</ele>
        <time>2021-09-07T10:03:34.000Z</time>
      </trkpt>
      <trkpt lat="48.27096" lon="1.13216">
        <ele>178.736484</ele>
        <time>2021-09-07T10:03:43.000Z</time>
      </trkpt>
      <trkpt lat="48.27108" lon="1.13246">
        <ele>179.570467</ele>
        <time>2021-09-07T10:03:52.000Z</time>
      </trkpt>
      <trkpt lat="48.27119" lon="1.1327">
        <ele>180.284242</ele>
        <time>2021-09-07T10:04:00.000Z</time>
      </trkpt>
      <trkpt lat="48.27129" lon="1.13292">
        <ele>180.90631</ele>
        <time>2021-09-07T10:04:07.000Z</time>
      </trkpt>
      <trkpt lat="48.2714" lon="1.13315">
        <ele>181.604403</ele>
        <time>2021-09-07T10:04:15.000Z</time>
      </trkpt>
      <trkpt lat="48.27151" lon="1.13334">
        <ele>182.179969</ele>
        <time>2021-09-07T10:04:22.000Z</time>
      </trkpt>
      <trkpt lat="48.27158" lon="1.13352">
        <ele>182.705287</ele>
        <time>2021-09-07T10:04:28.000Z</time>
      </trkpt>
      <trkpt lat="48.27169" lon="1.13372">
        <ele>183.316582</ele>
        <time>2021-09-07T10:04:35.000Z</time>
      </trkpt>
      <trkpt lat="48.2718" lon="1.13392">
        <ele>183.930009</ele>
        <time>2021-09-07T10:04:42.000Z</time>
      </trkpt>
      <trkpt lat="48.27189" lon="1.13408">
        <ele>184.361667</ele>
        <time>2021-09-07T10:04:48.000Z</time>
      </trkpt>
      <trkpt lat="48.27197" lon="1.13421">
        <ele>184.601292</ele>
        <time>2021-09-07T10:04:53.000Z</time>
      </trkpt>
      <trkpt lat="48.2721" lon="1.13441">
        <ele>184.949744</ele>
        <time>2021-09-07T10:05:00.000Z</time>
      </trkpt>
      <trkpt lat="48.27221" lon="1.13453">
        <ele>185.211258</ele>
        <time>2021-09-07T10:05:06.000Z</time>
      </trkpt>
      <trkpt lat="48.27237" lon="1.13474">
        <ele>185.621091</ele>
        <time>2021-09-07T10:05:14.000Z</time>
      </trkpt>
      <trkpt lat="48.27248" lon="1.1349">
        <ele>185.911354</ele>
        <time>2021-09-07T10:05:20.000Z</time>
      </trkpt>
      <trkpt lat="48.27257" lon="1.13505">
        <ele>186.186745</ele>
        <time>2021-09-07T10:05:25.000Z</time>
      </trkpt>
      <trkpt lat="48.2727" lon="1.13525">
        <ele>186.543873</ele>
        <time>2021-09-07T10:05:31.000Z</time>
      </trkpt>
      <trkpt lat="48.27284" lon="1.13545">
        <ele>186.905531</ele>
        <time>2021-09-07T10:05:37.000Z</time>
      </trkpt>
      <trkpt lat="48.27303" lon="1.1357">
        <ele>187.401313</ele>
        <time>2021-09-07T10:05:45.000Z</time>
      </trkpt>
      <trkpt lat="48.27322" lon="1.13593">
        <ele>187.866463</ele>
        <time>2021-09-07T10:05:52.000Z</time>
      </trkpt>
      <trkpt lat="48.27332" lon="1.13609">
        <ele>188.13577</ele>
        <time>2021-09-07T10:05:56.000Z</time>
      </trkpt>
      <trkpt lat="48.27347" lon="1.13633">
        <ele>188.559476</ele>
        <time>2021-09-07T10:06:02.000Z</time>
      </trkpt>
      <trkpt lat="48.27369" lon="1.13662">
        <ele>189.091491</ele>
        <time>2021-09-07T10:06:09.000Z</time>
      </trkpt>
      <trkpt lat="48.27389" lon="1.13691">
        <ele>189.624493</ele>
        <time>2021-09-07T10:06:16.000Z</time>
      </trkpt>
      <trkpt lat="48.27407" lon="1.13716">
        <ele>190.074415</ele>
        <time>2021-09-07T10:06:22.000Z</time>
      </trkpt>
      <trkpt lat="48.27419" lon="1.13734">
        <ele>190.384653</ele>
        <time>2021-09-07T10:06:26.000Z</time>
      </trkpt>
      <trkpt lat="48.27427" lon="1.13747">
        <ele>190.618283</ele>
        <time>2021-09-07T10:06:29.000Z</time>
      </trkpt>
      <trkpt lat="48.27434" lon="1.13756">
        <ele>190.77713</ele>
        <time>2021-09-07T10:06:31.000Z</time>
      </trkpt>
      <trkpt lat="48.2745" lon="1.13777">
        <ele>191.138847</ele>
        <time>2021-09-07T10:06:36.000Z</time>
      </trkpt>
      <trkpt lat="48.27461" lon="1.13794">
        <ele>191.224957</ele>
        <time>2021-09-07T10:06:40.000Z</time>
      </trkpt>
      <trkpt lat="48.27465" lon="1.13798">
        <ele>191.2484</ele>
        <time>2021-09-07T10:06:41.000Z</time>
      </trkpt>
      <trkpt lat="48.27485" lon="1.13826">
        <ele>191.392011</ele>
        <time>2021-09-07T10:06:47.000Z</time>
      </trkpt>
      <trkpt lat="48.27512" lon="1.13863">
        <ele>191.57967</ele>
        <time>2021-09-07T10:06:54.000Z</time>
      </trkpt>
      <trkpt lat="48.27526" lon="1.13883">
        <ele>191.685112</ele>
        <time>2021-09-07T10:06:58.000Z</time>
      </trkpt>
      <trkpt lat="48.27538" lon="1.13898">
        <ele>191.764376</ele>
        <time>2021-09-07T10:07:01.000Z</time>
      </trkpt>
      <trkpt lat="48.27549" lon="1.13915">
        <ele>191.845557</ele>
        <time>2021-09-07T10:07:04.000Z</time>
      </trkpt>
      <trkpt lat="48.2756" lon="1.13932">
        <ele>191.927879</ele>
        <time>2021-09-07T10:07:07.000Z</time>
      </trkpt>
      <trkpt lat="48.27567" lon="1.13943">
        <ele>191.983077</ele>
        <time>2021-09-07T10:07:09.000Z</time>
      </trkpt>
      <trkpt lat="48.27586" lon="1.1397">
        <ele>192.127265</ele>
        <time>2021-09-07T10:07:14.000Z</time>
      </trkpt>
      <trkpt lat="48.27593" lon="1.13981">
        <ele>192.186561</ele>
        <time>2021-09-07T10:07:16.000Z</time>
      </trkpt>
      <trkpt lat="48.2761" lon="1.14004">
        <ele>192.32207</ele>
        <time>2021-09-07T10:07:21.000Z</time>
      </trkpt>
      <trkpt lat="48.27632" lon="1.14032">
        <ele>192.493545</ele>
        <time>2021-09-07T10:07:27.000Z</time>
      </trkpt>
      <trkpt lat="48.27635" lon="1.14038">
        <ele>192.522329</ele>
        <time>2021-09-07T10:07:28.000Z</time>
      </trkpt>
      <trkpt lat="48.27642" lon="1.14049">
        <ele>192.58093</ele>
        <time>2021-09-07T10:07:30.000Z</time>
      </trkpt>
      <trkpt lat="48.27656" lon="1.14069">
        <ele>192.692321</ele>
        <time>2021-09-07T10:07:34.000Z</time>
      </trkpt>
      <trkpt lat="48.27663" lon="1.14078">
        <ele>192.750485</ele>
        <time>2021-09-07T10:07:36.000Z</time>
      </trkpt>
      <trkpt lat="48.27667" lon="1.14084">
        <ele>192.780759</ele>
        <time>2021-09-07T10:07:37.000Z</time>
      </trkpt>
      <trkpt lat="48.27697" lon="1.14127">
        <ele>193.027806</ele>
        <time>2021-09-07T10:07:45.000Z</time>
      </trkpt>
      <trkpt lat="48.27722" lon="1.1416">
        <ele>193.160597</ele>
        <time>2021-09-07T10:07:51.000Z</time>
      </trkpt>
      <trkpt lat="48.27758" lon="1.14213">
        <ele>193.269419</ele>
        <time>2021-09-07T10:08:00.000Z</time>
      </trkpt>
      <trkpt lat="48.27796" lon="1.14268">
        <ele>193.38236</ele>
        <time>2021-09-07T10:08:09.000Z</time>
      </trkpt>
      <trkpt lat="48.27831" lon="1.14319">
        <ele>193.486098</ele>
        <time>2021-09-07T10:08:17.000Z</time>
      </trkpt>
      <trkpt lat="48.2784" lon="1.14331">
        <ele>193.50855</ele>
        <time>2021-09-07T10:08:19.000Z</time>
      </trkpt>
      <trkpt lat="48.27852" lon="1.14348">
        <ele>193.423921</ele>
        <time>2021-09-07T10:08:22.000Z</time>
      </trkpt>
      <trkpt lat="48.27881" lon="1.1439">
        <ele>193.222372</ele>
        <time>2021-09-07T10:08:29.000Z</time>
      </trkpt>
      <trkpt lat="48.27889" lon="1.14402">
        <ele>193.163952</ele>
        <time>2021-09-07T10:08:31.000Z</time>
      </trkpt>
      <trkpt lat="48.27903" lon="1.14422">
        <ele>193.067341</ele>
        <time>2021-09-07T10:08:34.000Z</time>
      </trkpt>
      <trkpt lat="48.27921" lon="1.14448">
        <ele>192.938541</ele>
        <time>2021-09-07T10:08:38.000Z</time>
      </trkpt>
      <trkpt lat="48.2793" lon="1.14461">
        <ele>192.87426</ele>
        <time>2021-09-07T10:08:40.000Z</time>
      </trkpt>
      <trkpt lat="48.2796" lon="1.14504">
        <ele>192.666853</ele>
        <time>2021-09-07T10:08:47.000Z</time>
      </trkpt>
      <trkpt lat="48.27991" lon="1.14547">
        <ele>192.271966</ele>
        <time>2021-09-07T10:08:54.000Z</time>
      </trkpt>
      <trkpt lat="48.28" lon="1.14561">
        <ele>192.126612</ele>
        <time>2021-09-07T10:08:56.000Z</time>
      </trkpt>
      <trkpt lat="48.28009" lon="1.14575">
        <ele>191.984374</ele>
        <time>2021-09-07T10:08:58.000Z</time>
      </trkpt>
      <trkpt lat="48.28036" lon="1.14614">
        <ele>191.56481</ele>
        <time>2021-09-07T10:09:04.000Z</time>
      </trkpt>
      <trkpt lat="48.28059" lon="1.14647">
        <ele>191.203567</ele>
        <time>2021-09-07T10:09:09.000Z</time>
      </trkpt>
      <trkpt lat="48.2809" lon="1.14691">
        <ele>190.732044</ele>
        <time>2021-09-07T10:09:15.000Z</time>
      </trkpt>
      <trkpt lat="48.28115" lon="1.14727">
        <ele>190.257853</ele>
        <time>2021-09-07T10:09:20.000Z</time>
      </trkpt>
      <trkpt lat="48.28126" lon="1.14741">
        <ele>190.049777</ele>
        <time>2021-09-07T10:09:22.000Z</time>
      </trkpt>
      <trkpt lat="48.28147" lon="1.1477">
        <ele>189.625942</ele>
        <time>2021-09-07T10:09:26.000Z</time>
      </trkpt>
      <trkpt lat="48.28152" lon="1.14777">
        <ele>189.520152</ele>
        <time>2021-09-07T10:09:27.000Z</time>
      </trkpt>
      <trkpt lat="48.28184" lon="1.14824">
        <ele>188.868401</ele>
        <time>2021-09-07T10:09:33.000Z</time>
      </trkpt>
      <trkpt lat="48.28206" lon="1.14858">
        <ele>188.394121</ele>
        <time>2021-09-07T10:09:37.000Z</time>
      </trkpt>
      <trkpt lat="48.28243" lon="1.14932">
        <ele>187.219288</ele>
        <time>2021-09-07T10:09:44.000Z</time>
      </trkpt>
      <trkpt lat="48.28252" lon="1.14954">
        <ele>186.817505</ele>
        <time>2021-09-07T10:09:46.000Z</time>
      </trkpt>
      <trkpt lat="48.28262" lon="1.14988">
        <ele>186.213638</ele>
        <time>2021-09-07T10:09:49.000Z</time>
      </trkpt>
      <trkpt lat="48.28281" lon="1.15069">
        <ele>184.850525</ele>
        <time>2021-09-07T10:09:56.000Z</time>
      </trkpt>
      <trkpt lat="48.28295" lon="1.1514">
        <ele>183.678187</ele>
        <time>2021-09-07T10:10:03.000Z</time>
      </trkpt>
      <trkpt lat="48.28299" lon="1.15157">
        <ele>183.404348</ele>
        <time>2021-09-07T10:10:05.000Z</time>
      </trkpt>
      <trkpt lat="48.28308" lon="1.15177">
        <ele>183.036948</ele>
        <time>2021-09-07T10:10:08.000Z</time>
      </trkpt>
      <trkpt lat="48.28332" lon="1.15228">
        <ele>182.10865</ele>
        <time>2021-09-07T10:10:16.000Z</time>
      </trkpt>
      <trkpt lat="48.28353" lon="1.15273">
        <ele>181.294339</ele>
        <time>2021-09-07T10:10:24.000Z</time>
      </trkpt>
      <trkpt lat="48.2837" lon="1.15304">
        <ele>180.704951</ele>
        <time>2021-09-07T10:10:31.000Z</time>
      </trkpt>
      <trkpt lat="48.28383" lon="1.15333">
        <ele>180.176585</ele>
        <time>2021-09-07T10:10:39.000Z</time>
      </trkpt>
      <trkpt lat="48.28395" lon="1.15357">
        <ele>179.73797</ele>
        <time>2021-09-07T10:10:47.000Z</time>
      </trkpt>
      <trkpt lat="48.28401" lon="1.1537">
        <ele>179.645495</ele>
        <time>2021-09-07T10:10:52.000Z</time>
      </trkpt>
      <trkpt lat="48.28402" lon="1.15376">
        <ele>179.678255</ele>
        <time>2021-09-07T10:10:54.000Z</time>
      </trkpt>
      <trkpt lat="48.28407" lon="1.1539">
        <ele>179.765252</ele>
        <time>2021-09-07T10:10:59.000Z</time>
      </trkpt>
      <trkpt lat="48.28407" lon="1.15393">
        <ele>179.782457</ele>
        <time>2021-09-07T10:11:00.000Z</time>
      </trkpt>
      <trkpt lat="48.28408" lon="1.15396">
        <ele>179.801285</ele>
        <time>2021-09-07T10:11:01.000Z</time>
      </trkpt>
      <trkpt lat="48.2841" lon="1.15405">
        <ele>179.853868</ele>
        <time>2021-09-07T10:11:04.000Z</time>
      </trkpt>
      <trkpt lat="48.28416" lon="1.15425">
        <ele>179.976694</ele>
        <time>2021-09-07T10:11:11.000Z</time>
      </trkpt>
      <trkpt lat="48.28424" lon="1.15445">
        <ele>180.105305</ele>
        <time>2021-09-07T10:11:17.000Z</time>
      </trkpt>
      <trkpt lat="48.28431" lon="1.15466">
        <ele>180.233984</ele>
        <time>2021-09-07T10:11:23.000Z</time>
      </trkpt>
      <trkpt lat="48.28436" lon="1.15489">
        <ele>180.37123</ele>
        <time>2021-09-07T10:11:30.000Z</time>
      </trkpt>
      <trkpt lat="48.28437" lon="1.15495">
        <ele>180.407653</ele>
        <time>2021-09-07T10:11:32.000Z</time>
      </trkpt>
      <trkpt lat="48.28439" lon="1.15501">
        <ele>180.441975</ele>
        <time>2021-09-07T10:11:34.000Z</time>
      </trkpt>
      <trkpt lat="48.28444" lon="1.15522">
        <ele>180.565973</ele>
        <time>2021-09-07T10:11:40.000Z</time>
      </trkpt>
      <trkpt lat="48.28449" lon="1.15539">
        <ele>180.668356</ele>
        <time>2021-09-07T10:11:45.000Z</time>
      </trkpt>
      <trkpt lat="48.28454" lon="1.15558">
        <ele>180.785224</ele>
        <time>2021-09-07T10:11:51.000Z</time>
      </trkpt>
      <trkpt lat="48.2846" lon="1.15583">
        <ele>180.929865</ele>
        <time>2021-09-07T10:11:58.000Z</time>
      </trkpt>
      <trkpt lat="48.28465" lon="1.15609">
        <ele>181.079015</ele>
        <time>2021-09-07T10:12:05.000Z</time>
      </trkpt>
      <trkpt lat="48.28471" lon="1.15632">
        <ele>181.118473</ele>
        <time>2021-09-07T10:12:11.000Z</time>
      </trkpt>
      <trkpt lat="48.28476" lon="1.15655">
        <ele>181.131584</ele>
        <time>2021-09-07T10:12:17.000Z</time>
      </trkpt>
      <trkpt lat="48.28481" lon="1.15684">
        <ele>181.147495</ele>
        <time>2021-09-07T10:12:24.000Z</time>
      </trkpt>
      <trkpt lat="48.28484" lon="1.1572">
        <ele>181.166459</ele>
        <time>2021-09-07T10:12:32.000Z</time>
      </trkpt>
      <trkpt lat="48.28484" lon="1.15751">
        <ele>181.183184</ele>
        <time>2021-09-07T10:12:38.000Z</time>
      </trkpt>
      <trkpt lat="48.28479" lon="1.15793">
        <ele>181.206217</ele>
        <time>2021-09-07T10:12:45.000Z</time>
      </trkpt>
      <trkpt lat="48.28472" lon="1.15842">
        <ele>181.232388</ele>
        <time>2021-09-07T10:12:52.000Z</time>
      </trkpt>
      <trkpt lat="48.28464" lon="1.15891">
        <ele>181.154475</ele>
        <time>2021-09-07T10:12:59.000Z</time>
      </trkpt>
      <trkpt lat="48.28455" lon="1.1595">
        <ele>180.736889</ele>
        <time>2021-09-07T10:13:07.000Z</time>
      </trkpt>
      <trkpt lat="48.28447" lon="1.16008">
        <ele>180.329604</ele>
        <time>2021-09-07T10:13:15.000Z</time>
      </trkpt>
      <trkpt lat="48.28439" lon="1.16062">
        <ele>179.949276</ele>
        <time>2021-09-07T10:13:23.000Z</time>
      </trkpt>
      <trkpt lat="48.28433" lon="1.16108">
        <ele>179.619871</ele>
        <time>2021-09-07T10:13:30.000Z</time>
      </trkpt>
      <trkpt lat="48.28425" lon="1.1617">
        <ele>179.175773</ele>
        <time>2021-09-07T10:13:39.000Z</time>
      </trkpt>
      <trkpt lat="48.28425" lon="1.16177">
        <ele>179.12547</ele>
        <time>2021-09-07T10:13:40.000Z</time>
      </trkpt>
      <trkpt lat="48.28424" lon="1.16218">
        <ele>178.822485</ele>
        <time>2021-09-07T10:13:46.000Z</time>
      </trkpt>
      <trkpt lat="48.28428" lon="1.16267">
        <ele>178.457937</ele>
        <time>2021-09-07T10:13:53.000Z</time>
      </trkpt>
      <trkpt lat="48.28434" lon="1.16321">
        <ele>178.053191</ele>
        <time>2021-09-07T10:14:00.000Z</time>
      </trkpt>
      <trkpt lat="48.2844" lon="1.1637">
        <ele>177.688101</ele>
        <time>2021-09-07T10:14:06.000Z</time>
      </trkpt>
      <trkpt lat="48.28447" lon="1.16428">
        <ele>177.217553</ele>
        <time>2021-09-07T10:14:13.000Z</time>
      </trkpt>
      <trkpt lat="48.28456" lon="1.16508">
        <ele>176.478706</ele>
        <time>2021-09-07T10:14:22.000Z</time>
      </trkpt>
      <trkpt lat="48.28465" lon="1.16577">
        <ele>175.845379</ele>
        <time>2021-09-07T10:14:30.000Z</time>
      </trkpt>
      <trkpt lat="48.28473" lon="1.16649">
        <ele>175.178307</ele>
        <time>2021-09-07T10:14:39.000Z</time>
      </trkpt>
      <trkpt lat="48.28482" lon="1.16722">
        <ele>174.477276</ele>
        <time>2021-09-07T10:14:48.000Z</time>
      </trkpt>
      <trkpt lat="48.28489" lon="1.16786">
        <ele>173.848042</ele>
        <time>2021-09-07T10:14:56.000Z</time>
      </trkpt>
      <trkpt lat="48.28501" lon="1.1686">
        <ele>173.103201</ele>
        <time>2021-09-07T10:15:06.000Z</time>
      </trkpt>
      <trkpt lat="48.28512" lon="1.16909">
        <ele>172.597576</ele>
        <time>2021-09-07T10:15:13.000Z</time>
      </trkpt>
      <trkpt lat="48.28531" lon="1.16966">
        <ele>172.031638</ele>
        <time>2021-09-07T10:15:22.000Z</time>
      </trkpt>
      <trkpt lat="48.28553" lon="1.17026">
        <ele>171.476035</ele>
        <time>2021-09-07T10:15:32.000Z</time>
      </trkpt>
      <trkpt lat="48.28578" lon="1.17093">
        <ele>170.856852</ele>
        <time>2021-09-07T10:15:44.000Z</time>
      </trkpt>
      <trkpt lat="48.28598" lon="1.17149">
        <ele>170.343083</ele>
        <time>2021-09-07T10:15:54.000Z</time>
      </trkpt>
      <trkpt lat="48.28612" lon="1.17188">
        <ele>170.058738</ele>
        <time>2021-09-07T10:16:01.000Z</time>
      </trkpt>
      <trkpt lat="48.28638" lon="1.17257">
        <ele>169.794111</ele>
        <time>2021-09-07T10:16:13.000Z</time>
      </trkpt>
      <trkpt lat="48.28652" lon="1.17297">
        <ele>169.642691</ele>
        <time>2021-09-07T10:16:20.000Z</time>
      </trkpt>
      <trkpt lat="48.28665" lon="1.17332">
        <ele>169.507455</ele>
        <time>2021-09-07T10:16:27.000Z</time>
      </trkpt>
      <trkpt lat="48.28677" lon="1.17365">
        <ele>169.378508</ele>
        <time>2021-09-07T10:16:34.000Z</time>
      </trkpt>
      <trkpt lat="48.28692" lon="1.17407">
        <ele>169.216075</ele>
        <time>2021-09-07T10:16:43.000Z</time>
      </trkpt>
      <trkpt lat="48.2871" lon="1.17457">
        <ele>169.117614</ele>
        <time>2021-09-07T10:16:53.000Z</time>
      </trkpt>
      <trkpt lat="48.28727" lon="1.17501">
        <ele>169.033102</ele>
        <time>2021-09-07T10:17:02.000Z</time>
      </trkpt>
      <trkpt lat="48.28746" lon="1.17556">
        <ele>168.929793</ele>
        <time>2021-09-07T10:17:13.000Z</time>
      </trkpt>
      <trkpt lat="48.28761" lon="1.17596">
        <ele>168.853928</ele>
        <time>2021-09-07T10:17:21.000Z</time>
      </trkpt>
      <trkpt lat="48.28778" lon="1.17642">
        <ele>168.76541</ele>
        <time>2021-09-07T10:17:30.000Z</time>
      </trkpt>
      <trkpt lat="48.28798" lon="1.17696">
        <ele>168.465416</ele>
        <time>2021-09-07T10:17:40.000Z</time>
      </trkpt>
      <trkpt lat="48.28817" lon="1.17749">
        <ele>168.154986</ele>
        <time>2021-09-07T10:17:49.000Z</time>
      </trkpt>
      <trkpt lat="48.28837" lon="1.178">
        <ele>167.847359</ele>
        <time>2021-09-07T10:17:57.000Z</time>
      </trkpt>
      <trkpt lat="48.28859" lon="1.17864">
        <ele>167.470727</ele>
        <time>2021-09-07T10:18:06.000Z</time>
      </trkpt>
      <trkpt lat="48.28884" lon="1.17932">
        <ele>166.951833</ele>
        <time>2021-09-07T10:18:16.000Z</time>
      </trkpt>
      <trkpt lat="48.28905" lon="1.17991">
        <ele>166.458244</ele>
        <time>2021-09-07T10:18:25.000Z</time>
      </trkpt>
      <trkpt lat="48.28924" lon="1.18038">
        <ele>166.05797</ele>
        <time>2021-09-07T10:18:33.000Z</time>
      </trkpt>
      <trkpt lat="48.28942" lon="1.18093">
        <ele>165.604522</ele>
        <time>2021-09-07T10:18:42.000Z</time>
      </trkpt>
      <trkpt lat="48.28954" lon="1.18145">
        <ele>165.203056</ele>
        <time>2021-09-07T10:18:50.000Z</time>
      </trkpt>
      <trkpt lat="48.28959" lon="1.18203">
        <ele>164.786381</ele>
        <time>2021-09-07T10:18:58.000Z</time>
      </trkpt>
      <trkpt lat="48.28961" lon="1.18269">
        <ele>164.316495</ele>
        <time>2021-09-07T10:19:07.000Z</time>
      </trkpt>
      <trkpt lat="48.28962" lon="1.18306">
        <ele>164.053512</ele>
        <time>2021-09-07T10:19:12.000Z</time>
      </trkpt>
      <trkpt lat="48.28962" lon="1.18321">
        <ele>163.950948</ele>
        <time>2021-09-07T10:19:14.000Z</time>
      </trkpt>
      <trkpt lat="48.28964" lon="1.18378">
        <ele>163.544579</ele>
        <time>2021-09-07T10:19:22.000Z</time>
      </trkpt>
      <trkpt lat="48.28967" lon="1.18445">
        <ele>163.114417</ele>
        <time>2021-09-07T10:19:31.000Z</time>
      </trkpt>
      <trkpt lat="48.28968" lon="1.18473">
        <ele>162.935577</ele>
        <time>2021-09-07T10:19:35.000Z</time>
      </trkpt>
      <trkpt lat="48.28968" lon="1.18495">
        <ele>162.802717</ele>
        <time>2021-09-07T10:19:38.000Z</time>
      </trkpt>
      <trkpt lat="48.2897" lon="1.18545">
        <ele>162.488275</ele>
        <time>2021-09-07T10:19:45.000Z</time>
      </trkpt>
      <trkpt lat="48.28973" lon="1.18602">
        <ele>162.130531</ele>
        <time>2021-09-07T10:19:53.000Z</time>
      </trkpt>
      <trkpt lat="48.28975" lon="1.18631">
        <ele>161.951933</ele>
        <time>2021-09-07T10:19:57.000Z</time>
      </trkpt>
      <trkpt lat="48.28979" lon="1.18651">
        <ele>161.822123</ele>
        <time>2021-09-07T10:20:00.000Z</time>
      </trkpt>
      <trkpt lat="48.28992" lon="1.18699">
        <ele>161.623842</ele>
        <time>2021-09-07T10:20:07.000Z</time>
      </trkpt>
      <trkpt lat="48.29016" lon="1.18748">
        <ele>161.426883</ele>
        <time>2021-09-07T10:20:15.000Z</time>
      </trkpt>
      <trkpt lat="48.29043" lon="1.18801">
        <ele>161.208275</ele>
        <time>2021-09-07T10:20:24.000Z</time>
      </trkpt>
      <trkpt lat="48.29067" lon="1.18849">
        <ele>161.016142</ele>
        <time>2021-09-07T10:20:32.000Z</time>
      </trkpt>
      <trkpt lat="48.29095" lon="1.18904">
        <ele>160.891257</ele>
        <time>2021-09-07T10:20:41.000Z</time>
      </trkpt>
      <trkpt lat="48.29117" lon="1.18946">
        <ele>160.903212</ele>
        <time>2021-09-07T10:20:48.000Z</time>
      </trkpt>
      <trkpt lat="48.29142" lon="1.18995">
        <ele>160.916951</ele>
        <time>2021-09-07T10:20:56.000Z</time>
      </trkpt>
      <trkpt lat="48.29164" lon="1.19039">
        <ele>160.92923</ele>
        <time>2021-09-07T10:21:03.000Z</time>
      </trkpt>
      <trkpt lat="48.29168" lon="1.19046">
        <ele>160.931136</ele>
        <time>2021-09-07T10:21:04.000Z</time>
      </trkpt>
      <trkpt lat="48.29182" lon="1.19073">
        <ele>160.938808</ele>
        <time>2021-09-07T10:21:08.000Z</time>
      </trkpt>
      <trkpt lat="48.29186" lon="1.19081">
        <ele>160.940875</ele>
        <time>2021-09-07T10:21:09.000Z</time>
      </trkpt>
      <trkpt lat="48.29205" lon="1.19121">
        <ele>161.012151</ele>
        <time>2021-09-07T10:21:15.000Z</time>
      </trkpt>
      <trkpt lat="48.29226" lon="1.19163">
        <ele>161.123144</ele>
        <time>2021-09-07T10:21:21.000Z</time>
      </trkpt>
      <trkpt lat="48.29247" lon="1.19202">
        <ele>161.229405</ele>
        <time>2021-09-07T10:21:27.000Z</time>
      </trkpt>
      <trkpt lat="48.2928" lon="1.19254">
        <ele>161.382126</ele>
        <time>2021-09-07T10:21:35.000Z</time>
      </trkpt>
      <trkpt lat="48.2932" lon="1.19307">
        <ele>161.555546</ele>
        <time>2021-09-07T10:21:44.000Z</time>
      </trkpt>
      <trkpt lat="48.29354" lon="1.19349">
        <ele>161.713029</ele>
        <time>2021-09-07T10:21:52.000Z</time>
      </trkpt>
      <trkpt lat="48.29383" lon="1.19386">
        <ele>161.846544</ele>
        <time>2021-09-07T10:21:59.000Z</time>
      </trkpt>
      <trkpt lat="48.29417" lon="1.19431">
        <ele>162.007649</ele>
        <time>2021-09-07T10:22:07.000Z</time>
      </trkpt>
      <trkpt lat="48.29451" lon="1.19477">
        <ele>162.137629</ele>
        <time>2021-09-07T10:22:15.000Z</time>
      </trkpt>
      <trkpt lat="48.2949" lon="1.1953">
        <ele>161.848676</ele>
        <time>2021-09-07T10:22:24.000Z</time>
      </trkpt>
      <trkpt lat="48.29525" lon="1.19577">
        <ele>161.59589</ele>
        <time>2021-09-07T10:22:32.000Z</time>
      </trkpt>
      <trkpt lat="48.29569" lon="1.19637">
        <ele>161.27351</ele>
        <time>2021-09-07T10:22:42.000Z</time>
      </trkpt>
      <trkpt lat="48.29603" lon="1.19682">
        <ele>160.967166</ele>
        <time>2021-09-07T10:22:50.000Z</time>
      </trkpt>
      <trkpt lat="48.29644" lon="1.19735">
        <ele>160.559133</ele>
        <time>2021-09-07T10:23:00.000Z</time>
      </trkpt>
      <trkpt lat="48.29677" lon="1.19778">
        <ele>160.226693</ele>
        <time>2021-09-07T10:23:08.000Z</time>
      </trkpt>
      <trkpt lat="48.29715" lon="1.19828">
        <ele>159.845333</ele>
        <time>2021-09-07T10:23:17.000Z</time>
      </trkpt>
      <trkpt lat="48.29753" lon="1.19878">
        <ele>159.673319</ele>
        <time>2021-09-07T10:23:26.000Z</time>
      </trkpt>
      <trkpt lat="48.29784" lon="1.19919">
        <ele>159.546628</ele>
        <time>2021-09-07T10:23:34.000Z</time>
      </trkpt>
      <trkpt lat="48.29809" lon="1.1996">
        <ele>159.434945</ele>
        <time>2021-09-07T10:23:41.000Z</time>
      </trkpt>
      <trkpt lat="48.29827" lon="1.20008">
        <ele>159.324071</ele>
        <time>2021-09-07T10:23:48.000Z</time>
      </trkpt>
      <trkpt lat="48.29842" lon="1.20076">
        <ele>159.128737</ele>
        <time>2021-09-07T10:23:57.000Z</time>
      </trkpt>
      <trkpt lat="48.29854" lon="1.20144">
        <ele>158.903542</ele>
        <time>2021-09-07T10:24:06.000Z</time>
      </trkpt>
      <trkpt lat="48.29865" lon="1.20198">
        <ele>158.72608</ele>
        <time>2021-09-07T10:24:13.000Z</time>
      </trkpt>
      <trkpt lat="48.29866" lon="1.20205">
        <ele>158.701053</ele>
        <time>2021-09-07T10:24:14.000Z</time>
      </trkpt>
      <trkpt lat="48.29877" lon="1.20259">
        <ele>158.524336</ele>
        <time>2021-09-07T10:24:21.000Z</time>
      </trkpt>
      <trkpt lat="48.29879" lon="1.20273">
        <ele>158.476491</ele>
        <time>2021-09-07T10:24:23.000Z</time>
      </trkpt>
      <trkpt lat="48.29887" lon="1.2031">
        <ele>158.292286</ele>
        <time>2021-09-07T10:24:28.000Z</time>
      </trkpt>
      <trkpt lat="48.29892" lon="1.20363">
        <ele>157.936868</ele>
        <time>2021-09-07T10:24:35.000Z</time>
      </trkpt>
      <trkpt lat="48.29891" lon="1.20409">
        <ele>157.634937</ele>
        <time>2021-09-07T10:24:41.000Z</time>
      </trkpt>
      <trkpt lat="48.29889" lon="1.20424">
        <ele>157.534347</ele>
        <time>2021-09-07T10:24:43.000Z</time>
      </trkpt>
      <trkpt lat="48.29885" lon="1.20453">
        <ele>157.335792</ele>
        <time>2021-09-07T10:24:47.000Z</time>
      </trkpt>
      <trkpt lat="48.29875" lon="1.20512">
        <ele>156.930749</ele>
        <time>2021-09-07T10:24:55.000Z</time>
      </trkpt>
      <trkpt lat="48.29874" lon="1.2052">
        <ele>156.878832</ele>
        <time>2021-09-07T10:24:56.000Z</time>
      </trkpt>
      <trkpt lat="48.29868" lon="1.20542">
        <ele>156.71828</ele>
        <time>2021-09-07T10:24:59.000Z</time>
      </trkpt>
      <trkpt lat="48.29854" lon="1.20587">
        <ele>156.56594</ele>
        <time>2021-09-07T10:25:05.000Z</time>
      </trkpt>
      <trkpt lat="48.29852" lon="1.20594">
        <ele>156.554038</ele>
        <time>2021-09-07T10:25:06.000Z</time>
      </trkpt>
      <trkpt lat="48.29851" lon="1.206">
        <ele>156.542794</ele>
        <time>2021-09-07T10:25:07.000Z</time>
      </trkpt>
      <trkpt lat="48.29841" lon="1.20628">
        <ele>156.494742</ele>
        <time>2021-09-07T10:25:11.000Z</time>
      </trkpt>
      <trkpt lat="48.29822" lon="1.20687">
        <ele>156.3939</ele>
        <time>2021-09-07T10:25:19.000Z</time>
      </trkpt>
      <trkpt lat="48.29808" lon="1.20738">
        <ele>156.308331</ele>
        <time>2021-09-07T10:25:26.000Z</time>
      </trkpt>
      <trkpt lat="48.29806" lon="1.20746">
        <ele>156.296093</ele>
        <time>2021-09-07T10:25:27.000Z</time>
      </trkpt>
      <trkpt lat="48.29798" lon="1.2079">
        <ele>156.224659</ele>
        <time>2021-09-07T10:25:33.000Z</time>
      </trkpt>
      <trkpt lat="48.29793" lon="1.20819">
        <ele>156.190169</ele>
        <time>2021-09-07T10:25:37.000Z</time>
      </trkpt>
      <trkpt lat="48.29791" lon="1.20832">
        <ele>156.179668</ele>
        <time>2021-09-07T10:25:39.000Z</time>
      </trkpt>
      <trkpt lat="48.29783" lon="1.20876">
        <ele>156.145596</ele>
        <time>2021-09-07T10:25:46.000Z</time>
      </trkpt>
      <trkpt lat="48.29782" lon="1.20882">
        <ele>156.140739</ele>
        <time>2021-09-07T10:25:47.000Z</time>
      </trkpt>
      <trkpt lat="48.2978" lon="1.20932">
        <ele>156.103302</ele>
        <time>2021-09-07T10:25:55.000Z</time>
      </trkpt>
      <trkpt lat="48.29785" lon="1.20968">
        <ele>156.075554</ele>
        <time>2021-09-07T10:26:01.000Z</time>
      </trkpt>
      <trkpt lat="48.29786" lon="1.20974">
        <ele>156.070878</ele>
        <time>2021-09-07T10:26:02.000Z</time>
      </trkpt>
      <trkpt lat="48.29795" lon="1.21009">
        <ele>156.04268</ele>
        <time>2021-09-07T10:26:08.000Z</time>
      </trkpt>
      <trkpt lat="48.29801" lon="1.21026">
        <ele>156.028657</ele>
        <time>2021-09-07T10:26:11.000Z</time>
      </trkpt>
      <trkpt lat="48.2981" lon="1.21048">
        <ele>156.008943</ele>
        <time>2021-09-07T10:26:15.000Z</time>
      </trkpt>
      <trkpt lat="48.29827" lon="1.21087">
        <ele>155.942784</ele>
        <time>2021-09-07T10:26:22.000Z</time>
      </trkpt>
      <trkpt lat="48.29846" lon="1.2113">
        <ele>155.850752</ele>
        <time>2021-09-07T10:26:30.000Z</time>
      </trkpt>
      <trkpt lat="48.29848" lon="1.21135">
        <ele>155.839193</ele>
        <time>2021-09-07T10:26:31.000Z</time>
      </trkpt>
      <trkpt lat="48.2986" lon="1.21162">
        <ele>155.781099</ele>
        <time>2021-09-07T10:26:36.000Z</time>
      </trkpt>
      <trkpt lat="48.29883" lon="1.21211">
        <ele>155.675274</ele>
        <time>2021-09-07T10:26:45.000Z</time>
      </trkpt>
      <trkpt lat="48.29885" lon="1.21216">
        <ele>155.663998</ele>
        <time>2021-09-07T10:26:46.000Z</time>
      </trkpt>
      <trkpt lat="48.29906" lon="1.21265">
        <ele>155.561436</ele>
        <time>2021-09-07T10:26:55.000Z</time>
      </trkpt>
      <trkpt lat="48.29923" lon="1.21299">
        <ele>155.511973</ele>
        <time>2021-09-07T10:27:02.000Z</time>
      </trkpt>
      <trkpt lat="48.29947" lon="1.21344">
        <ele>155.49788</ele>
        <time>2021-09-07T10:27:12.000Z</time>
      </trkpt>
      <trkpt lat="48.29968" lon="1.21385">
        <ele>155.485179</ele>
        <time>2021-09-07T10:27:21.000Z</time>
      </trkpt>
      <trkpt lat="48.29984" lon="1.21424">
        <ele>155.473907</ele>
        <time>2021-09-07T10:27:29.000Z</time>
      </trkpt>
      <trkpt lat="48.29991" lon="1.21456">
        <ele>155.465863</ele>
        <time>2021-09-07T10:27:35.000Z</time>
      </trkpt>
      <trkpt lat="48.29996" lon="1.21502">
        <ele>155.454426</ele>
        <time>2021-09-07T10:27:44.000Z</time>
      </trkpt>
      <trkpt lat="48.30001" lon="1.21541">
        <ele>155.473784</ele>
        <time>2021-09-07T10:27:52.000Z</time>
      </trkpt>
      <trkpt lat="48.30006" lon="1.21575">
        <ele>155.511778</ele>
        <time>2021-09-07T10:27:59.000Z</time>
      </trkpt>
      <trkpt lat="48.30012" lon="1.2162">
        <ele>155.560527</ele>
        <time>2021-09-07T10:28:08.000Z</time>
      </trkpt>
      <trkpt lat="48.30017" lon="1.21658">
        <ele>155.603076</ele>
        <time>2021-09-07T10:28:16.000Z</time>
      </trkpt>
      <trkpt lat="48.30023" lon="1.21697">
        <ele>155.645932</ele>
        <time>2021-09-07T10:28:24.000Z</time>
      </trkpt>
      <trkpt lat="48.30032" lon="1.21739">
        <ele>155.692982</ele>
        <time>2021-09-07T10:28:33.000Z</time>
      </trkpt>
      <trkpt lat="48.30046" lon="1.21785">
        <ele>155.753555</ele>
        <time>2021-09-07T10:28:43.000Z</time>
      </trkpt>
      <trkpt lat="48.30055" lon="1.21816">
        <ele>155.829524</ele>
        <time>2021-09-07T10:28:50.000Z</time>
      </trkpt>
      <trkpt lat="48.30064" lon="1.2185">
        <ele>155.907904</ele>
        <time>2021-09-07T10:28:57.000Z</time>
      </trkpt>
      <trkpt lat="48.30072" lon="1.21893">
        <ele>156.004859</ele>
        <time>2021-09-07T10:29:06.000Z</time>
      </trkpt>
      <trkpt lat="48.30077" lon="1.2193">
        <ele>156.089405</ele>
        <time>2021-09-07T10:29:14.000Z</time>
      </trkpt>
      <trkpt lat="48.30081" lon="1.21965">
        <ele>156.166755</ele>
        <time>2021-09-07T10:29:22.000Z</time>
      </trkpt>
      <trkpt lat="48.30083" lon="1.22013">
        <ele>156.271752</ele>
        <time>2021-09-07T10:29:32.000Z</time>
      </trkpt>
      <trkpt lat="48.30084" lon="1.22058">
        <ele>156.387968</ele>
        <time>2021-09-07T10:29:41.000Z</time>
      </trkpt>
      <trkpt lat="48.30085" lon="1.22097">
        <ele>156.515942</ele>
        <time>2021-09-07T10:29:49.000Z</time>
      </trkpt>
      <trkpt lat="48.30086" lon="1.22135">
        <ele>156.638049</ele>
        <time>2021-09-07T10:29:57.000Z</time>
      </trkpt>
      <trkpt lat="48.30087" lon="1.22178">
        <ele>156.778721</ele>
        <time>2021-09-07T10:30:06.000Z</time>
      </trkpt>
      <trkpt lat="48.30088" lon="1.22196">
        <ele>156.838193</ele>
        <time>2021-09-07T10:30:12.000Z</time>
      </trkpt>
      <trkpt lat="48.30088" lon="1.22218">
        <ele>156.910303</ele>
        <time>2021-09-07T10:30:19.000Z</time>
      </trkpt>
      <trkpt lat="48.30089" lon="1.22267">
        <ele>157.070914</ele>
        <time>2021-09-07T10:30:29.000Z</time>
      </trkpt>
      <trkpt lat="48.3009" lon="1.22312">
        <ele>157.217254</ele>
        <time>2021-09-07T10:30:38.000Z</time>
      </trkpt>
      <trkpt lat="48.30091" lon="1.22349">
        <ele>157.316535</ele>
        <time>2021-09-07T10:30:45.000Z</time>
      </trkpt>
      <trkpt lat="48.30091" lon="1.22388">
        <ele>157.422222</ele>
        <time>2021-09-07T10:30:52.000Z</time>
      </trkpt>
      <trkpt lat="48.30092" lon="1.22435">
        <ele>157.549457</ele>
        <time>2021-09-07T10:31:00.000Z</time>
      </trkpt>
      <trkpt lat="48.30093" lon="1.22478">
        <ele>157.663203</ele>
        <time>2021-09-07T10:31:08.000Z</time>
      </trkpt>
      <trkpt lat="48.30095" lon="1.22529">
        <ele>157.802636</ele>
        <time>2021-09-07T10:31:18.000Z</time>
      </trkpt>
      <trkpt lat="48.30095" lon="1.22564">
        <ele>157.895666</ele>
        <time>2021-09-07T10:31:25.000Z</time>
      </trkpt>
      <trkpt lat="48.30096" lon="1.22603">
        <ele>158.060384</ele>
        <time>2021-09-07T10:31:33.000Z</time>
      </trkpt>
      <trkpt lat="48.30097" lon="1.22637">
        <ele>158.243272</ele>
        <time>2021-09-07T10:31:40.000Z</time>
      </trkpt>
      <trkpt lat="48.30101" lon="1.22669">
        <ele>158.417868</ele>
        <time>2021-09-07T10:31:47.000Z</time>
      </trkpt>
      <trkpt lat="48.30104" lon="1.227">
        <ele>158.583675</ele>
        <time>2021-09-07T10:31:53.000Z</time>
      </trkpt>
      <trkpt lat="48.30109" lon="1.2274">
        <ele>158.801139</ele>
        <time>2021-09-07T10:32:01.000Z</time>
      </trkpt>
      <trkpt lat="48.30114" lon="1.22775">
        <ele>158.996579</ele>
        <time>2021-09-07T10:32:08.000Z</time>
      </trkpt>
      <trkpt lat="48.3012" lon="1.22814">
        <ele>159.211779</ele>
        <time>2021-09-07T10:32:16.000Z</time>
      </trkpt>
      <trkpt lat="48.30126" lon="1.22849">
        <ele>159.407452</ele>
        <time>2021-09-07T10:32:23.000Z</time>
      </trkpt>
      <trkpt lat="48.30134" lon="1.22899">
        <ele>159.698183</ele>
        <time>2021-09-07T10:32:32.000Z</time>
      </trkpt>
      <trkpt lat="48.30143" lon="1.22958">
        <ele>160.043604</ele>
        <time>2021-09-07T10:32:42.000Z</time>
      </trkpt>
      <trkpt lat="48.30149" lon="1.22999">
        <ele>160.284461</ele>
        <time>2021-09-07T10:32:49.000Z</time>
      </trkpt>
      <trkpt lat="48.30156" lon="1.23041">
        <ele>160.53257</ele>
        <time>2021-09-07T10:32:57.000Z</time>
      </trkpt>
      <trkpt lat="48.30162" lon="1.2309">
        <ele>160.819318</ele>
        <time>2021-09-07T10:33:06.000Z</time>
      </trkpt>
      <trkpt lat="48.30163" lon="1.23136">
        <ele>161.011125</ele>
        <time>2021-09-07T10:33:14.000Z</time>
      </trkpt>
      <trkpt lat="48.30156" lon="1.23175">
        <ele>161.128443</ele>
        <time>2021-09-07T10:33:21.000Z</time>
      </trkpt>
      <trkpt lat="48.30143" lon="1.23214">
        <ele>161.253258</ele>
        <time>2021-09-07T10:33:29.000Z</time>
      </trkpt>
      <trkpt lat="48.30133" lon="1.2325">
        <ele>161.366393</ele>
        <time>2021-09-07T10:33:36.000Z</time>
      </trkpt>
      <trkpt lat="48.3012" lon="1.2329">
        <ele>161.495337</ele>
        <time>2021-09-07T10:33:44.000Z</time>
      </trkpt>
      <trkpt lat="48.30108" lon="1.2333">
        <ele>161.62228</ele>
        <time>2021-09-07T10:33:52.000Z</time>
      </trkpt>
      <trkpt lat="48.30098" lon="1.23364">
        <ele>161.709962</ele>
        <time>2021-09-07T10:33:59.000Z</time>
      </trkpt>
      <trkpt lat="48.30088" lon="1.23397">
        <ele>161.567876</ele>
        <time>2021-09-07T10:34:06.000Z</time>
      </trkpt>
      <trkpt lat="48.30077" lon="1.2343">
        <ele>161.424747</ele>
        <time>2021-09-07T10:34:13.000Z</time>
      </trkpt>
      <trkpt lat="48.30067" lon="1.23461">
        <ele>161.293135</ele>
        <time>2021-09-07T10:34:19.000Z</time>
      </trkpt>
      <trkpt lat="48.3006" lon="1.23488">
        <ele>161.177479</ele>
        <time>2021-09-07T10:34:24.000Z</time>
      </trkpt>
      <trkpt lat="48.30057" lon="1.23501">
        <ele>161.126234</ele>
        <time>2021-09-07T10:34:26.000Z</time>
      </trkpt>
      <trkpt lat="48.30047" lon="1.23535">
        <ele>160.980226</ele>
        <time>2021-09-07T10:34:31.000Z</time>
      </trkpt>
      <trkpt lat="48.30043" lon="1.23551">
        <ele>160.913635</ele>
        <time>2021-09-07T10:34:33.000Z</time>
      </trkpt>
      <trkpt lat="48.30038" lon="1.23577">
        <ele>160.808557</ele>
        <time>2021-09-07T10:34:36.000Z</time>
      </trkpt>
      <trkpt lat="48.30029" lon="1.23631">
        <ele>160.414201</ele>
        <time>2021-09-07T10:34:42.000Z</time>
      </trkpt>
      <trkpt lat="48.30026" lon="1.23669">
        <ele>159.908231</ele>
        <time>2021-09-07T10:34:46.000Z</time>
      </trkpt>
      <trkpt lat="48.30029" lon="1.23689">
        <ele>159.646438</ele>
        <time>2021-09-07T10:34:48.000Z</time>
      </trkpt>
      <trkpt lat="48.30043" lon="1.23738">
        <ele>158.947456</ele>
        <time>2021-09-07T10:34:53.000Z</time>
      </trkpt>
      <trkpt lat="48.30045" lon="1.23749">
        <ele>158.795829</ele>
        <time>2021-09-07T10:34:54.000Z</time>
      </trkpt>
      <trkpt lat="48.30046" lon="1.23771">
        <ele>158.509321</ele>
        <time>2021-09-07T10:34:56.000Z</time>
      </trkpt>
      <trkpt lat="48.30044" lon="1.23782">
        <ele>158.361408</ele>
        <time>2021-09-07T10:34:57.000Z</time>
      </trkpt>
      <trkpt lat="48.3004" lon="1.23802">
        <ele>158.08112</ele>
        <time>2021-09-07T10:34:59.000Z</time>
      </trkpt>
      <trkpt lat="48.30033" lon="1.2382">
        <ele>157.8168</ele>
        <time>2021-09-07T10:35:01.000Z</time>
      </trkpt>
      <trkpt lat="48.30024" lon="1.23834">
        <ele>157.555702</ele>
        <time>2021-09-07T10:35:03.000Z</time>
      </trkpt>
      <trkpt lat="48.30014" lon="1.23845">
        <ele>157.306077</ele>
        <time>2021-09-07T10:35:05.000Z</time>
      </trkpt>
      <trkpt lat="48.29981" lon="1.23876">
        <ele>156.407358</ele>
        <time>2021-09-07T10:35:12.000Z</time>
      </trkpt>
      <trkpt lat="48.29969" lon="1.23886">
        <ele>156.076552</ele>
        <time>2021-09-07T10:35:15.000Z</time>
      </trkpt>
      <trkpt lat="48.29964" lon="1.23894">
        <ele>155.894058</ele>
        <time>2021-09-07T10:35:17.000Z</time>
      </trkpt>
      <trkpt lat="48.29965" lon="1.2391">
        <ele>155.63245</ele>
        <time>2021-09-07T10:35:20.000Z</time>
      </trkpt>
      <trkpt lat="48.29971" lon="1.23953">
        <ele>154.922299</ele>
        <time>2021-09-07T10:35:28.000Z</time>
      </trkpt>
      <trkpt lat="48.2997" lon="1.23977">
        <ele>154.533996</ele>
        <time>2021-09-07T10:35:32.000Z</time>
      </trkpt>
      <trkpt lat="48.29968" lon="1.23983">
        <ele>154.435196</ele>
        <time>2021-09-07T10:35:33.000Z</time>
      </trkpt>
      <trkpt lat="48.29958" lon="1.24011">
        <ele>153.918586</ele>
        <time>2021-09-07T10:35:38.000Z</time>
      </trkpt>
      <trkpt lat="48.29956" lon="1.24016">
        <ele>153.815936</ele>
        <time>2021-09-07T10:35:39.000Z</time>
      </trkpt>
      <trkpt lat="48.29953" lon="1.24021">
        <ele>153.712001</ele>
        <time>2021-09-07T10:35:40.000Z</time>
      </trkpt>
      <trkpt lat="48.29944" lon="1.24045">
        <ele>153.259274</ele>
        <time>2021-09-07T10:35:45.000Z</time>
      </trkpt>
      <trkpt lat="48.29934" lon="1.24082">
        <ele>152.781117</ele>
        <time>2021-09-07T10:35:53.000Z</time>
      </trkpt>
      <trkpt lat="48.29928" lon="1.24113">
        <ele>152.943777</ele>
        <time>2021-09-07T10:36:01.000Z</time>
      </trkpt>
      <trkpt lat="48.29928" lon="1.24119">
        <ele>152.975142</ele>
        <time>2021-09-07T10:36:03.000Z</time>
      </trkpt>
      <trkpt lat="48.29927" lon="1.24124">
        <ele>152.999656</ele>
        <time>2021-09-07T10:36:05.000Z</time>
      </trkpt>
      <trkpt lat="48.29928" lon="1.24127">
        <ele>153.018211</ele>
        <time>2021-09-07T10:36:07.000Z</time>
      </trkpt>
      <trkpt lat="48.2993" lon="1.24132">
        <ele>153.044684</ele>
        <time>2021-09-07T10:36:10.000Z</time>
      </trkpt>
      <trkpt lat="48.2993" lon="1.24136">
        <ele>153.064376</ele>
        <time>2021-09-07T10:36:12.000Z</time>
      </trkpt>
      <trkpt lat="48.29931" lon="1.24146">
        <ele>153.119256</ele>
        <time>2021-09-07T10:36:16.000Z</time>
      </trkpt>
      <trkpt lat="48.29936" lon="1.2417">
        <ele>153.241884</ele>
        <time>2021-09-07T10:36:24.000Z</time>
      </trkpt>
      <trkpt lat="48.29943" lon="1.24203">
        <ele>153.419992</ele>
        <time>2021-09-07T10:36:33.000Z</time>
      </trkpt>
      <trkpt lat="48.2995" lon="1.24235">
        <ele>153.586844</ele>
        <time>2021-09-07T10:36:40.000Z</time>
      </trkpt>
      <trkpt lat="48.2996" lon="1.24263">
        <ele>153.748368</ele>
        <time>2021-09-07T10:36:47.000Z</time>
      </trkpt>
      <trkpt lat="48.29972" lon="1.24285">
        <ele>153.893696</ele>
        <time>2021-09-07T10:36:54.000Z</time>
      </trkpt>
      <trkpt lat="48.29985" lon="1.24307">
        <ele>154.037921</ele>
        <time>2021-09-07T10:37:01.000Z</time>
      </trkpt>
      <trkpt lat="48.29993" lon="1.24326">
        <ele>154.190052</ele>
        <time>2021-09-07T10:37:07.000Z</time>
      </trkpt>
      <trkpt lat="48.29997" lon="1.24332">
        <ele>154.275673</ele>
        <time>2021-09-07T10:37:10.000Z</time>
      </trkpt>
      <trkpt lat="48.29999" lon="1.24335">
        <ele>154.310863</ele>
        <time>2021-09-07T10:37:12.000Z</time>
      </trkpt>
      <trkpt lat="48.30006" lon="1.24334">
        <ele>154.420451</ele>
        <time>2021-09-07T10:37:17.000Z</time>
      </trkpt>
      <trkpt lat="48.30018" lon="1.2432">
        <ele>154.634696</ele>
        <time>2021-09-07T10:37:24.000Z</time>
      </trkpt>
      <trkpt lat="48.30028" lon="1.24311">
        <ele>154.800227</ele>
        <time>2021-09-07T10:37:30.000Z</time>
      </trkpt>
      <trkpt lat="48.30032" lon="1.24308">
        <ele>154.864039</ele>
        <time>2021-09-07T10:37:35.000Z</time>
      </trkpt>
      <trkpt lat="48.30027" lon="1.24306">
        <ele>154.945238</ele>
        <time>2021-09-07T10:44:41.000Z</time>
      </trkpt>
      <trkpt lat="48.30024" lon="1.2431">
        <ele>154.998332</ele>
        <time>2021-09-07T10:44:43.000Z</time>
      </trkpt>
      <trkpt lat="48.30013" lon="1.24319">
        <ele>155.171417</ele>
        <time>2021-09-07T10:44:48.000Z</time>
      </trkpt>
      <trkpt lat="48.29997" lon="1.24333">
        <ele>155.436215</ele>
        <time>2021-09-07T10:44:53.000Z</time>
      </trkpt>
      <trkpt lat="48.29978" lon="1.24351">
        <ele>155.758767</ele>
        <time>2021-09-07T10:44:59.000Z</time>
      </trkpt>
      <trkpt lat="48.2996" lon="1.24368">
        <ele>156.054581</ele>
        <time>2021-09-07T10:45:04.000Z</time>
      </trkpt>
      <trkpt lat="48.29954" lon="1.24375">
        <ele>156.164528</ele>
        <time>2021-09-07T10:45:06.000Z</time>
      </trkpt>
      <trkpt lat="48.29953" lon="1.24379">
        <ele>156.204486</ele>
        <time>2021-09-07T10:45:07.000Z</time>
      </trkpt>
      <trkpt lat="48.29954" lon="1.24383">
        <ele>156.247907</ele>
        <time>2021-09-07T10:45:08.000Z</time>
      </trkpt>
      <trkpt lat="48.29957" lon="1.24395">
        <ele>156.365193</ele>
        <time>2021-09-07T10:45:11.000Z</time>
      </trkpt>
      <trkpt lat="48.29962" lon="1.24419">
        <ele>156.603724</ele>
        <time>2021-09-07T10:45:19.000Z</time>
      </trkpt>
      <trkpt lat="48.29962" lon="1.24435">
        <ele>156.80367</ele>
        <time>2021-09-07T10:45:25.000Z</time>
      </trkpt>
      <trkpt lat="48.29961" lon="1.24437">
        <ele>156.843655</ele>
        <time>2021-09-07T10:45:26.000Z</time>
      </trkpt>
      <trkpt lat="48.29959" lon="1.24446">
        <ele>156.968279</ele>
        <time>2021-09-07T10:45:29.000Z</time>
      </trkpt>
      <trkpt lat="48.29959" lon="1.24455">
        <ele>157.092767</ele>
        <time>2021-09-07T10:45:32.000Z</time>
      </trkpt>
      <trkpt lat="48.29959" lon="1.2446">
        <ele>157.174263</ele>
        <time>2021-09-07T10:45:34.000Z</time>
      </trkpt>
      <trkpt lat="48.29958" lon="1.24475">
        <ele>157.382321</ele>
        <time>2021-09-07T10:45:39.000Z</time>
      </trkpt>
      <trkpt lat="48.29958" lon="1.24478">
        <ele>157.417437</ele>
        <time>2021-09-07T10:45:40.000Z</time>
      </trkpt>
      <trkpt lat="48.29958" lon="1.24481">
        <ele>157.459453</ele>
        <time>2021-09-07T10:45:41.000Z</time>
      </trkpt>
      <trkpt lat="48.29957" lon="1.2449">
        <ele>157.593493</ele>
        <time>2021-09-07T10:45:44.000Z</time>
      </trkpt>
      <trkpt lat="48.29957" lon="1.2451">
        <ele>157.86769</ele>
        <time>2021-09-07T10:45:51.000Z</time>
      </trkpt>
      <trkpt lat="48.29957" lon="1.24511">
        <ele>157.892565</ele>
        <time>2021-09-07T10:45:53.000Z</time>
      </trkpt>
      <trkpt lat="48.2996" lon="1.24516">
        <ele>157.980315</ele>
        <time>2021-09-07T10:45:56.000Z</time>
      </trkpt>
      <trkpt lat="48.29957" lon="1.24528">
        <ele>158.15651</ele>
        <time>2021-09-07T10:46:01.000Z</time>
      </trkpt>
      <trkpt lat="48.2996" lon="1.24528">
        <ele>158.218528</ele>
        <time>2021-09-07T10:46:04.000Z</time>
      </trkpt>
      <trkpt lat="48.29959" lon="1.24524">
        <ele>158.270511</ele>
        <time>2021-09-07T10:46:05.000Z</time>
      </trkpt>
      <trkpt lat="48.29958" lon="1.24508">
        <ele>158.501647</ele>
        <time>2021-09-07T10:46:10.000Z</time>
      </trkpt>
      <trkpt lat="48.29956" lon="1.24503">
        <ele>158.583752</ele>
        <time>2021-09-07T10:46:13.000Z</time>
      </trkpt>
      <trkpt lat="48.29955" lon="1.245">
        <ele>158.625937</ele>
        <time>2021-09-07T10:46:14.000Z</time>
      </trkpt>
      <trkpt lat="48.29953" lon="1.24485">
        <ele>158.842799</ele>
        <time>2021-09-07T10:46:19.000Z</time>
      </trkpt>
      <trkpt lat="48.29953" lon="1.24483">
        <ele>158.875175</ele>
        <time>2021-09-07T10:46:20.000Z</time>
      </trkpt>
      <trkpt lat="48.29952" lon="1.24478">
        <ele>158.935993</ele>
        <time>2021-09-07T10:46:24.000Z</time>
      </trkpt>
      <trkpt lat="48.29956" lon="1.24488">
        <ele>159.089687</ele>
        <time>2021-09-07T11:10:18.000Z</time>
      </trkpt>
      <trkpt lat="48.29956" lon="1.24494">
        <ele>159.178824</ele>
        <time>2021-09-07T11:10:20.000Z</time>
      </trkpt>
      <trkpt lat="48.2996" lon="1.24512">
        <ele>159.434159</ele>
        <time>2021-09-07T11:10:27.000Z</time>
      </trkpt>
      <trkpt lat="48.2996" lon="1.24514">
        <ele>159.458131</ele>
        <time>2021-09-07T11:10:28.000Z</time>
      </trkpt>
      <trkpt lat="48.29957" lon="1.24522">
        <ele>159.593832</ele>
        <time>2021-09-07T11:10:32.000Z</time>
      </trkpt>
      <trkpt lat="48.29955" lon="1.2455">
        <ele>159.979523</ele>
        <time>2021-09-07T11:10:40.000Z</time>
      </trkpt>
      <trkpt lat="48.29949" lon="1.24574">
        <ele>160.337476</ele>
        <time>2021-09-07T11:10:47.000Z</time>
      </trkpt>
      <trkpt lat="48.29947" lon="1.24585">
        <ele>160.425276</ele>
        <time>2021-09-07T11:10:50.000Z</time>
      </trkpt>
      <trkpt lat="48.29945" lon="1.24592">
        <ele>160.360005</ele>
        <time>2021-09-07T11:10:52.000Z</time>
      </trkpt>
      <trkpt lat="48.29943" lon="1.24595">
        <ele>160.323635</ele>
        <time>2021-09-07T11:10:56.000Z</time>
      </trkpt>
      <trkpt lat="48.2994" lon="1.24593">
        <ele>160.283311</ele>
        <time>2021-09-07T11:11:04.000Z</time>
      </trkpt>
      <trkpt lat="48.29934" lon="1.24591">
        <ele>160.21465</ele>
        <time>2021-09-07T11:11:06.000Z</time>
      </trkpt>
      <trkpt lat="48.29921" lon="1.24593">
        <ele>160.044545</ele>
        <time>2021-09-07T11:11:10.000Z</time>
      </trkpt>
      <trkpt lat="48.29903" lon="1.24604">
        <ele>159.806207</ele>
        <time>2021-09-07T11:11:15.000Z</time>
      </trkpt>
      <trkpt lat="48.29899" lon="1.24606">
        <ele>159.75109</ele>
        <time>2021-09-07T11:11:16.000Z</time>
      </trkpt>
      <trkpt lat="48.2988" lon="1.24617">
        <ele>159.49837</ele>
        <time>2021-09-07T11:11:20.000Z</time>
      </trkpt>
      <trkpt lat="48.29871" lon="1.24621">
        <ele>159.382194</ele>
        <time>2021-09-07T11:11:22.000Z</time>
      </trkpt>
      <trkpt lat="48.29867" lon="1.24623">
        <ele>159.330122</ele>
        <time>2021-09-07T11:11:23.000Z</time>
      </trkpt>
      <trkpt lat="48.29849" lon="1.24625">
        <ele>159.102831</ele>
        <time>2021-09-07T11:11:27.000Z</time>
      </trkpt>
      <trkpt lat="48.29817" lon="1.24629">
        <ele>158.700782</ele>
        <time>2021-09-07T11:11:34.000Z</time>
      </trkpt>
      <trkpt lat="48.29789" lon="1.24637">
        <ele>158.334505</ele>
        <time>2021-09-07T11:11:41.000Z</time>
      </trkpt>
      <trkpt lat="48.29768" lon="1.24633">
        <ele>158.004121</ele>
        <time>2021-09-07T11:11:46.000Z</time>
      </trkpt>
      <trkpt lat="48.29743" lon="1.24625">
        <ele>157.486904</ele>
        <time>2021-09-07T11:11:51.000Z</time>
      </trkpt>
      <trkpt lat="48.29721" lon="1.24628">
        <ele>157.069059</ele>
        <time>2021-09-07T11:11:55.000Z</time>
      </trkpt>
      <trkpt lat="48.29692" lon="1.24634">
        <ele>156.48887</ele>
        <time>2021-09-07T11:12:01.000Z</time>
      </trkpt>
      <trkpt lat="48.29668" lon="1.24638">
        <ele>156.005713</ele>
        <time>2021-09-07T11:12:06.000Z</time>
      </trkpt>
      <trkpt lat="48.29653" lon="1.24641">
        <ele>155.713972</ele>
        <time>2021-09-07T11:12:09.000Z</time>
      </trkpt>
      <trkpt lat="48.29621" lon="1.24649">
        <ele>155.066638</ele>
        <time>2021-09-07T11:12:16.000Z</time>
      </trkpt>
      <trkpt lat="48.29597" lon="1.24654">
        <ele>154.645241</ele>
        <time>2021-09-07T11:12:21.000Z</time>
      </trkpt>
      <trkpt lat="48.29564" lon="1.24661">
        <ele>154.600214</ele>
        <time>2021-09-07T11:12:29.000Z</time>
      </trkpt>
      <trkpt lat="48.29561" lon="1.24662">
        <ele>154.595134</ele>
        <time>2021-09-07T11:12:30.000Z</time>
      </trkpt>
      <trkpt lat="48.29544" lon="1.24668">
        <ele>154.57108</ele>
        <time>2021-09-07T11:12:35.000Z</time>
      </trkpt>
      <trkpt lat="48.29521" lon="1.24679">
        <ele>154.538672</ele>
        <time>2021-09-07T11:12:42.000Z</time>
      </trkpt>
      <trkpt lat="48.29496" lon="1.24696">
        <ele>154.500764</ele>
        <time>2021-09-07T11:12:49.000Z</time>
      </trkpt>
      <trkpt lat="48.29469" lon="1.24716">
        <ele>154.458959</ele>
        <time>2021-09-07T11:12:57.000Z</time>
      </trkpt>
      <trkpt lat="48.29442" lon="1.24737">
        <ele>154.416583</ele>
        <time>2021-09-07T11:13:05.000Z</time>
      </trkpt>
      <trkpt lat="48.29419" lon="1.24763">
        <ele>154.404104</ele>
        <time>2021-09-07T11:13:12.000Z</time>
      </trkpt>
      <trkpt lat="48.29391" lon="1.24795">
        <ele>154.40739</ele>
        <time>2021-09-07T11:13:20.000Z</time>
      </trkpt>
      <trkpt lat="48.29368" lon="1.2482">
        <ele>154.409984</ele>
        <time>2021-09-07T11:13:26.000Z</time>
      </trkpt>
      <trkpt lat="48.29354" lon="1.24837">
        <ele>154.41167</ele>
        <time>2021-09-07T11:13:30.000Z</time>
      </trkpt>
      <trkpt lat="48.29345" lon="1.24845">
        <ele>154.412598</ele>
        <time>2021-09-07T11:13:32.000Z</time>
      </trkpt>
      <trkpt lat="48.29321" lon="1.24861">
        <ele>154.41501</ele>
        <time>2021-09-07T11:13:37.000Z</time>
      </trkpt>
      <trkpt lat="48.29306" lon="1.24866">
        <ele>154.41643</ele>
        <time>2021-09-07T11:13:40.000Z</time>
      </trkpt>
      <trkpt lat="48.29298" lon="1.24869">
        <ele>154.417221</ele>
        <time>2021-09-07T11:13:42.000Z</time>
      </trkpt>
      <trkpt lat="48.29263" lon="1.24895">
        <ele>154.285209</ele>
        <time>2021-09-07T11:13:50.000Z</time>
      </trkpt>
      <trkpt lat="48.29221" lon="1.24921">
        <ele>153.974079</ele>
        <time>2021-09-07T11:13:57.000Z</time>
      </trkpt>
      <trkpt lat="48.29177" lon="1.24948">
        <ele>153.644623</ele>
        <time>2021-09-07T11:14:04.000Z</time>
      </trkpt>
      <trkpt lat="48.29139" lon="1.24965">
        <ele>153.368889</ele>
        <time>2021-09-07T11:14:10.000Z</time>
      </trkpt>
      <trkpt lat="48.29112" lon="1.24974">
        <ele>153.180138</ele>
        <time>2021-09-07T11:14:15.000Z</time>
      </trkpt>
      <trkpt lat="48.29094" lon="1.24981">
        <ele>153.060959</ele>
        <time>2021-09-07T11:14:19.000Z</time>
      </trkpt>
      <trkpt lat="48.2908" lon="1.24986">
        <ele>152.965906</ele>
        <time>2021-09-07T11:14:22.000Z</time>
      </trkpt>
      <trkpt lat="48.29075" lon="1.24988">
        <ele>152.93383</ele>
        <time>2021-09-07T11:14:23.000Z</time>
      </trkpt>
      <trkpt lat="48.29071" lon="1.24989">
        <ele>152.902925</ele>
        <time>2021-09-07T11:14:24.000Z</time>
      </trkpt>
      <trkpt lat="48.29053" lon="1.24996">
        <ele>152.783842</ele>
        <time>2021-09-07T11:14:28.000Z</time>
      </trkpt>
      <trkpt lat="48.29028" lon="1.25003">
        <ele>152.620251</ele>
        <time>2021-09-07T11:14:34.000Z</time>
      </trkpt>
      <trkpt lat="48.2901" lon="1.25008">
        <ele>152.496977</ele>
        <time>2021-09-07T11:14:39.000Z</time>
      </trkpt>
      <trkpt lat="48.28983" lon="1.25015">
        <ele>152.319294</ele>
        <time>2021-09-07T11:14:47.000Z</time>
      </trkpt>
      <trkpt lat="48.28955" lon="1.2502">
        <ele>152.13593</ele>
        <time>2021-09-07T11:14:55.000Z</time>
      </trkpt>
      <trkpt lat="48.2893" lon="1.25023">
        <ele>152.027939</ele>
        <time>2021-09-07T11:15:02.000Z</time>
      </trkpt>
      <trkpt lat="48.28898" lon="1.25025">
        <ele>152.185769</ele>
        <time>2021-09-07T11:15:11.000Z</time>
      </trkpt>
      <trkpt lat="48.28868" lon="1.25027">
        <ele>152.335569</ele>
        <time>2021-09-07T11:15:19.000Z</time>
      </trkpt>
      <trkpt lat="48.28837" lon="1.25024">
        <ele>152.487445</ele>
        <time>2021-09-07T11:15:27.000Z</time>
      </trkpt>
      <trkpt lat="48.28808" lon="1.2502">
        <ele>152.628878</ele>
        <time>2021-09-07T11:15:34.000Z</time>
      </trkpt>
      <trkpt lat="48.28772" lon="1.25015">
        <ele>152.808561</ele>
        <time>2021-09-07T11:15:43.000Z</time>
      </trkpt>
      <trkpt lat="48.28744" lon="1.25012">
        <ele>153.02141</ele>
        <time>2021-09-07T11:15:50.000Z</time>
      </trkpt>
      <trkpt lat="48.28711" lon="1.25012">
        <ele>153.412844</ele>
        <time>2021-09-07T11:15:58.000Z</time>
      </trkpt>
      <trkpt lat="48.2868" lon="1.25013">
        <ele>153.766967</ele>
        <time>2021-09-07T11:16:05.000Z</time>
      </trkpt>
      <trkpt lat="48.28647" lon="1.25016">
        <ele>154.159394</ele>
        <time>2021-09-07T11:16:13.000Z</time>
      </trkpt>
      <trkpt lat="48.28622" lon="1.25021">
        <ele>154.449144</ele>
        <time>2021-09-07T11:16:19.000Z</time>
      </trkpt>
      <trkpt lat="48.28589" lon="1.25028">
        <ele>154.842968</ele>
        <time>2021-09-07T11:16:27.000Z</time>
      </trkpt>
      <trkpt lat="48.28556" lon="1.25034">
        <ele>155.029214</ele>
        <time>2021-09-07T11:16:35.000Z</time>
      </trkpt>
      <trkpt lat="48.2852" lon="1.25042">
        <ele>155.096461</ele>
        <time>2021-09-07T11:16:43.000Z</time>
      </trkpt>
      <trkpt lat="48.28491" lon="1.25048">
        <ele>155.151147</ele>
        <time>2021-09-07T11:16:49.000Z</time>
      </trkpt>
      <trkpt lat="48.28454" lon="1.25055">
        <ele>155.220055</ele>
        <time>2021-09-07T11:16:56.000Z</time>
      </trkpt>
      <trkpt lat="48.2842" lon="1.25062">
        <ele>155.284</ele>
        <time>2021-09-07T11:17:02.000Z</time>
      </trkpt>
      <trkpt lat="48.28369" lon="1.25072">
        <ele>154.876505</ele>
        <time>2021-09-07T11:17:10.000Z</time>
      </trkpt>
      <trkpt lat="48.28319" lon="1.25082">
        <ele>154.120032</ele>
        <time>2021-09-07T11:17:17.000Z</time>
      </trkpt>
      <trkpt lat="48.28286" lon="1.25086">
        <ele>153.614759</ele>
        <time>2021-09-07T11:17:22.000Z</time>
      </trkpt>
      <trkpt lat="48.2826" lon="1.25089">
        <ele>153.224368</ele>
        <time>2021-09-07T11:17:26.000Z</time>
      </trkpt>
      <trkpt lat="48.28233" lon="1.25092">
        <ele>152.811802</ele>
        <time>2021-09-07T11:17:30.000Z</time>
      </trkpt>
      <trkpt lat="48.28212" lon="1.25098">
        <ele>152.463715</ele>
        <time>2021-09-07T11:17:33.000Z</time>
      </trkpt>
      <trkpt lat="48.28197" lon="1.25104">
        <ele>152.212867</ele>
        <time>2021-09-07T11:17:35.000Z</time>
      </trkpt>
      <trkpt lat="48.28158" lon="1.25133">
        <ele>151.468302</ele>
        <time>2021-09-07T11:17:41.000Z</time>
      </trkpt>
      <trkpt lat="48.28118" lon="1.25175">
        <ele>150.642633</ele>
        <time>2021-09-07T11:17:48.000Z</time>
      </trkpt>
      <trkpt lat="48.28076" lon="1.25224">
        <ele>149.726811</ele>
        <time>2021-09-07T11:17:56.000Z</time>
      </trkpt>
      <trkpt lat="48.28047" lon="1.25257">
        <ele>148.906977</ele>
        <time>2021-09-07T11:18:02.000Z</time>
      </trkpt>
      <trkpt lat="48.28037" lon="1.25266">
        <ele>148.632698</ele>
        <time>2021-09-07T11:18:04.000Z</time>
      </trkpt>
      <trkpt lat="48.28029" lon="1.25275">
        <ele>148.36762</ele>
        <time>2021-09-07T11:18:06.000Z</time>
      </trkpt>
      <trkpt lat="48.28013" lon="1.25294">
        <ele>147.869498</ele>
        <time>2021-09-07T11:18:10.000Z</time>
      </trkpt>
      <trkpt lat="48.28006" lon="1.25304">
        <ele>147.635332</ele>
        <time>2021-09-07T11:18:12.000Z</time>
      </trkpt>
      <trkpt lat="48.28003" lon="1.25309">
        <ele>147.513256</ele>
        <time>2021-09-07T11:18:13.000Z</time>
      </trkpt>
      <trkpt lat="48.27988" lon="1.2533">
        <ele>147.005878</ele>
        <time>2021-09-07T11:18:17.000Z</time>
      </trkpt>
      <trkpt lat="48.27966" lon="1.25372">
        <ele>146.119031</ele>
        <time>2021-09-07T11:18:24.000Z</time>
      </trkpt>
      <trkpt lat="48.27951" lon="1.254">
        <ele>145.525922</ele>
        <time>2021-09-07T11:18:29.000Z</time>
      </trkpt>
      <trkpt lat="48.27945" lon="1.25409">
        <ele>145.316843</ele>
        <time>2021-09-07T11:18:31.000Z</time>
      </trkpt>
      <trkpt lat="48.2793" lon="1.25426">
        <ele>144.98899</ele>
        <time>2021-09-07T11:18:36.000Z</time>
      </trkpt>
      <trkpt lat="48.27913" lon="1.25437">
        <ele>144.847591</ele>
        <time>2021-09-07T11:18:40.000Z</time>
      </trkpt>
      <trkpt lat="48.27904" lon="1.25441">
        <ele>144.773513</ele>
        <time>2021-09-07T11:18:42.000Z</time>
      </trkpt>
      <trkpt lat="48.27895" lon="1.25445">
        <ele>144.695172</ele>
        <time>2021-09-07T11:18:44.000Z</time>
      </trkpt>
      <trkpt lat="48.27875" lon="1.25455">
        <ele>144.530977</ele>
        <time>2021-09-07T11:18:48.000Z</time>
      </trkpt>
      <trkpt lat="48.27836" lon="1.2548">
        <ele>144.198441</ele>
        <time>2021-09-07T11:18:56.000Z</time>
      </trkpt>
      <trkpt lat="48.27831" lon="1.25484">
        <ele>144.158077</ele>
        <time>2021-09-07T11:18:57.000Z</time>
      </trkpt>
      <trkpt lat="48.27806" lon="1.25501">
        <ele>143.938127</ele>
        <time>2021-09-07T11:19:02.000Z</time>
      </trkpt>
      <trkpt lat="48.27772" lon="1.25525">
        <ele>143.649864</ele>
        <time>2021-09-07T11:19:09.000Z</time>
      </trkpt>
      <trkpt lat="48.27733" lon="1.25556">
        <ele>143.630062</ele>
        <time>2021-09-07T11:19:17.000Z</time>
      </trkpt>
      <trkpt lat="48.27724" lon="1.25565">
        <ele>143.625262</ele>
        <time>2021-09-07T11:19:19.000Z</time>
      </trkpt>
      <trkpt lat="48.27716" lon="1.25575">
        <ele>143.620534</ele>
        <time>2021-09-07T11:19:21.000Z</time>
      </trkpt>
      <trkpt lat="48.27689" lon="1.25619">
        <ele>143.602481</ele>
        <time>2021-09-07T11:19:29.000Z</time>
      </trkpt>
      <trkpt lat="48.27666" lon="1.25666">
        <ele>143.584838</ele>
        <time>2021-09-07T11:19:37.000Z</time>
      </trkpt>
      <trkpt lat="48.27639" lon="1.25718">
        <ele>143.531243</ele>
        <time>2021-09-07T11:19:46.000Z</time>
      </trkpt>
      <trkpt lat="48.27619" lon="1.25758">
        <ele>143.385075</ele>
        <time>2021-09-07T11:19:53.000Z</time>
      </trkpt>
      <trkpt lat="48.276" lon="1.25794">
        <ele>143.247472</ele>
        <time>2021-09-07T11:20:00.000Z</time>
      </trkpt>
      <trkpt lat="48.27575" lon="1.25841">
        <ele>143.070824</ele>
        <time>2021-09-07T11:20:09.000Z</time>
      </trkpt>
      <trkpt lat="48.27548" lon="1.25888">
        <ele>142.888217</ele>
        <time>2021-09-07T11:20:18.000Z</time>
      </trkpt>
      <trkpt lat="48.2752" lon="1.25931">
        <ele>142.71134</ele>
        <time>2021-09-07T11:20:27.000Z</time>
      </trkpt>
      <trkpt lat="48.27491" lon="1.25971">
        <ele>142.526229</ele>
        <time>2021-09-07T11:20:36.000Z</time>
      </trkpt>
      <trkpt lat="48.27461" lon="1.2601">
        <ele>142.340151</ele>
        <time>2021-09-07T11:20:45.000Z</time>
      </trkpt>
      <trkpt lat="48.27434" lon="1.26045">
        <ele>142.173855</ele>
        <time>2021-09-07T11:20:53.000Z</time>
      </trkpt>
      <trkpt lat="48.27407" lon="1.26079">
        <ele>142.011647</ele>
        <time>2021-09-07T11:21:01.000Z</time>
      </trkpt>
      <trkpt lat="48.27379" lon="1.26115">
        <ele>141.959917</ele>
        <time>2021-09-07T11:21:10.000Z</time>
      </trkpt>
      <trkpt lat="48.27358" lon="1.26142">
        <ele>141.992037</ele>
        <time>2021-09-07T11:21:17.000Z</time>
      </trkpt>
      <trkpt lat="48.27333" lon="1.26177">
        <ele>142.031851</ele>
        <time>2021-09-07T11:21:25.000Z</time>
      </trkpt>
      <trkpt lat="48.27308" lon="1.2622">
        <ele>142.076245</ele>
        <time>2021-09-07T11:21:33.000Z</time>
      </trkpt>
      <trkpt lat="48.27305" lon="1.26226">
        <ele>142.081741</ele>
        <time>2021-09-07T11:21:34.000Z</time>
      </trkpt>
      <trkpt lat="48.27302" lon="1.26231">
        <ele>142.087084</ele>
        <time>2021-09-07T11:21:35.000Z</time>
      </trkpt>
      <trkpt lat="48.27288" lon="1.26258">
        <ele>142.114081</ele>
        <time>2021-09-07T11:21:40.000Z</time>
      </trkpt>
      <trkpt lat="48.27265" lon="1.26303">
        <ele>142.151863</ele>
        <time>2021-09-07T11:21:49.000Z</time>
      </trkpt>
      <trkpt lat="48.27251" lon="1.26331">
        <ele>142.164886</ele>
        <time>2021-09-07T11:21:55.000Z</time>
      </trkpt>
      <trkpt lat="48.27236" lon="1.2636">
        <ele>142.178852</ele>
        <time>2021-09-07T11:22:01.000Z</time>
      </trkpt>
      <trkpt lat="48.2723" lon="1.26376">
        <ele>142.185973</ele>
        <time>2021-09-07T11:22:04.000Z</time>
      </trkpt>
      <trkpt lat="48.27221" lon="1.26397">
        <ele>142.195528</ele>
        <time>2021-09-07T11:22:08.000Z</time>
      </trkpt>
      <trkpt lat="48.27204" lon="1.26433">
        <ele>142.212181</ele>
        <time>2021-09-07T11:22:15.000Z</time>
      </trkpt>
      <trkpt lat="48.27187" lon="1.26462">
        <ele>142.226914</ele>
        <time>2021-09-07T11:22:21.000Z</time>
      </trkpt>
      <trkpt lat="48.27184" lon="1.26467">
        <ele>142.229414</ele>
        <time>2021-09-07T11:22:22.000Z</time>
      </trkpt>
      <trkpt lat="48.27181" lon="1.26472">
        <ele>142.231868</ele>
        <time>2021-09-07T11:22:23.000Z</time>
      </trkpt>
      <trkpt lat="48.27162" lon="1.26505">
        <ele>142.247417</ele>
        <time>2021-09-07T11:22:30.000Z</time>
      </trkpt>
      <trkpt lat="48.27144" lon="1.2654">
        <ele>142.206262</ele>
        <time>2021-09-07T11:22:37.000Z</time>
      </trkpt>
      <trkpt lat="48.27132" lon="1.26572">
        <ele>142.171065</ele>
        <time>2021-09-07T11:22:43.000Z</time>
      </trkpt>
      <trkpt lat="48.27121" lon="1.26617">
        <ele>142.125506</ele>
        <time>2021-09-07T11:22:51.000Z</time>
      </trkpt>
      <trkpt lat="48.27114" lon="1.26662">
        <ele>142.082103</ele>
        <time>2021-09-07T11:22:58.000Z</time>
      </trkpt>
      <trkpt lat="48.27107" lon="1.26708">
        <ele>142.036508</ele>
        <time>2021-09-07T11:23:05.000Z</time>
      </trkpt>
      <trkpt lat="48.27105" lon="1.26721">
        <ele>142.024209</ele>
        <time>2021-09-07T11:23:07.000Z</time>
      </trkpt>
      <trkpt lat="48.27097" lon="1.26763">
        <ele>141.986473</ele>
        <time>2021-09-07T11:23:14.000Z</time>
      </trkpt>
      <trkpt lat="48.27087" lon="1.26814">
        <ele>141.958856</ele>
        <time>2021-09-07T11:23:22.000Z</time>
      </trkpt>
      <trkpt lat="48.27083" lon="1.26858">
        <ele>141.93549</ele>
        <time>2021-09-07T11:23:29.000Z</time>
      </trkpt>
      <trkpt lat="48.27081" lon="1.2687">
        <ele>141.928653</ele>
        <time>2021-09-07T11:23:31.000Z</time>
      </trkpt>
      <trkpt lat="48.27078" lon="1.2689">
        <ele>141.917748</ele>
        <time>2021-09-07T11:23:34.000Z</time>
      </trkpt>
      <trkpt lat="48.27075" lon="1.26903">
        <ele>141.910537</ele>
        <time>2021-09-07T11:23:36.000Z</time>
      </trkpt>
      <trkpt lat="48.27072" lon="1.26915">
        <ele>141.903923</ele>
        <time>2021-09-07T11:23:38.000Z</time>
      </trkpt>
      <trkpt lat="48.27073" lon="1.26922">
        <ele>141.900489</ele>
        <time>2021-09-07T11:23:39.000Z</time>
      </trkpt>
      <trkpt lat="48.27076" lon="1.26962">
        <ele>141.878807</ele>
        <time>2021-09-07T11:23:45.000Z</time>
      </trkpt>
      <trkpt lat="48.27076" lon="1.27014">
        <ele>141.851362</ele>
        <time>2021-09-07T11:23:53.000Z</time>
      </trkpt>
      <trkpt lat="48.27076" lon="1.27041">
        <ele>141.853985</ele>
        <time>2021-09-07T11:23:57.000Z</time>
      </trkpt>
      <trkpt lat="48.27076" lon="1.27061">
        <ele>141.858446</ele>
        <time>2021-09-07T11:24:00.000Z</time>
      </trkpt>
      <trkpt lat="48.27075" lon="1.27119">
        <ele>141.871158</ele>
        <time>2021-09-07T11:24:09.000Z</time>
      </trkpt>
      <trkpt lat="48.27073" lon="1.27159">
        <ele>141.87997</ele>
        <time>2021-09-07T11:24:15.000Z</time>
      </trkpt>
      <trkpt lat="48.27074" lon="1.27185">
        <ele>141.885727</ele>
        <time>2021-09-07T11:24:19.000Z</time>
      </trkpt>
      <trkpt lat="48.27074" lon="1.27199">
        <ele>141.88869</ele>
        <time>2021-09-07T11:24:21.000Z</time>
      </trkpt>
      <trkpt lat="48.27074" lon="1.27206">
        <ele>141.890226</ele>
        <time>2021-09-07T11:24:22.000Z</time>
      </trkpt>
      <trkpt lat="48.27074" lon="1.27239">
        <ele>141.897601</ele>
        <time>2021-09-07T11:24:27.000Z</time>
      </trkpt>
      <trkpt lat="48.27073" lon="1.27279">
        <ele>141.906426</ele>
        <time>2021-09-07T11:24:33.000Z</time>
      </trkpt>
      <trkpt lat="48.27073" lon="1.27339">
        <ele>141.950856</ele>
        <time>2021-09-07T11:24:42.000Z</time>
      </trkpt>
      <trkpt lat="48.27073" lon="1.27383">
        <ele>141.988149</ele>
        <time>2021-09-07T11:24:49.000Z</time>
      </trkpt>
      <trkpt lat="48.27072" lon="1.2739">
        <ele>141.993643</ele>
        <time>2021-09-07T11:24:50.000Z</time>
      </trkpt>
      <trkpt lat="48.27073" lon="1.27396">
        <ele>141.999204</ele>
        <time>2021-09-07T11:24:51.000Z</time>
      </trkpt>
      <trkpt lat="48.27072" lon="1.27421">
        <ele>142.020172</ele>
        <time>2021-09-07T11:24:55.000Z</time>
      </trkpt>
      <trkpt lat="48.27073" lon="1.27427">
        <ele>142.025345</ele>
        <time>2021-09-07T11:24:56.000Z</time>
      </trkpt>
      <trkpt lat="48.27071" lon="1.27451">
        <ele>142.045103</ele>
        <time>2021-09-07T11:25:00.000Z</time>
      </trkpt>
      <trkpt lat="48.27058" lon="1.27498">
        <ele>142.088176</ele>
        <time>2021-09-07T11:25:08.000Z</time>
      </trkpt>
      <trkpt lat="48.27055" lon="1.27504">
        <ele>142.093643</ele>
        <time>2021-09-07T11:25:09.000Z</time>
      </trkpt>
      <trkpt lat="48.27039" lon="1.27534">
        <ele>142.126528</ele>
        <time>2021-09-07T11:25:15.000Z</time>
      </trkpt>
      <trkpt lat="48.27015" lon="1.27579">
        <ele>142.179144</ele>
        <time>2021-09-07T11:25:24.000Z</time>
      </trkpt>
      <trkpt lat="48.26994" lon="1.27618">
        <ele>142.226517</ele>
        <time>2021-09-07T11:25:32.000Z</time>
      </trkpt>
      <trkpt lat="48.26977" lon="1.2765">
        <ele>142.264239</ele>
        <time>2021-09-07T11:25:39.000Z</time>
      </trkpt>
      <trkpt lat="48.26956" lon="1.27689">
        <ele>142.310716</ele>
        <time>2021-09-07T11:25:47.000Z</time>
      </trkpt>
      <trkpt lat="48.26941" lon="1.27726">
        <ele>142.351282</ele>
        <time>2021-09-07T11:25:54.000Z</time>
      </trkpt>
      <trkpt lat="48.26937" lon="1.27737">
        <ele>142.362701</ele>
        <time>2021-09-07T11:25:56.000Z</time>
      </trkpt>
      <trkpt lat="48.2692" lon="1.27783">
        <ele>142.415186</ele>
        <time>2021-09-07T11:26:05.000Z</time>
      </trkpt>
      <trkpt lat="48.26911" lon="1.27812">
        <ele>142.449933</ele>
        <time>2021-09-07T11:26:11.000Z</time>
      </trkpt>
      <trkpt lat="48.26897" lon="1.27852">
        <ele>142.49787</ele>
        <time>2021-09-07T11:26:19.000Z</time>
      </trkpt>
      <trkpt lat="48.26882" lon="1.27893">
        <ele>142.547888</ele>
        <time>2021-09-07T11:26:27.000Z</time>
      </trkpt>
      <trkpt lat="48.26871" lon="1.27927">
        <ele>142.5884</ele>
        <time>2021-09-07T11:26:34.000Z</time>
      </trkpt>
      <trkpt lat="48.26856" lon="1.27967">
        <ele>142.637437</ele>
        <time>2021-09-07T11:26:42.000Z</time>
      </trkpt>
      <trkpt lat="48.26844" lon="1.28002">
        <ele>142.672979</ele>
        <time>2021-09-07T11:26:49.000Z</time>
      </trkpt>
      <trkpt lat="48.26829" lon="1.28045">
        <ele>142.608372</ele>
        <time>2021-09-07T11:26:58.000Z</time>
      </trkpt>
      <trkpt lat="48.26818" lon="1.28077">
        <ele>142.559207</ele>
        <time>2021-09-07T11:27:05.000Z</time>
      </trkpt>
      <trkpt lat="48.26807" lon="1.28106">
        <ele>142.514436</ele>
        <time>2021-09-07T11:27:12.000Z</time>
      </trkpt>
      <trkpt lat="48.26797" lon="1.28137">
        <ele>142.468908</ele>
        <time>2021-09-07T11:27:19.000Z</time>
      </trkpt>
      <trkpt lat="48.26784" lon="1.28172">
        <ele>142.415369</ele>
        <time>2021-09-07T11:27:27.000Z</time>
      </trkpt>
      <trkpt lat="48.26771" lon="1.2821">
        <ele>142.3575</ele>
        <time>2021-09-07T11:27:35.000Z</time>
      </trkpt>
      <trkpt lat="48.26761" lon="1.28239">
        <ele>142.311109</ele>
        <time>2021-09-07T11:27:41.000Z</time>
      </trkpt>
      <trkpt lat="48.2675" lon="1.28274">
        <ele>142.131745</ele>
        <time>2021-09-07T11:27:48.000Z</time>
      </trkpt>
      <trkpt lat="48.26729" lon="1.28323">
        <ele>141.857565</ele>
        <time>2021-09-07T11:27:58.000Z</time>
      </trkpt>
      <trkpt lat="48.26711" lon="1.28346">
        <ele>141.692539</ele>
        <time>2021-09-07T11:28:04.000Z</time>
      </trkpt>
      <trkpt lat="48.26688" lon="1.28371">
        <ele>141.489592</ele>
        <time>2021-09-07T11:28:11.000Z</time>
      </trkpt>
      <trkpt lat="48.26661" lon="1.28399">
        <ele>141.2571</ele>
        <time>2021-09-07T11:28:19.000Z</time>
      </trkpt>
      <trkpt lat="48.26643" lon="1.28417">
        <ele>141.105196</ele>
        <time>2021-09-07T11:28:24.000Z</time>
      </trkpt>
      <trkpt lat="48.26639" lon="1.28422">
        <ele>141.072443</ele>
        <time>2021-09-07T11:28:25.000Z</time>
      </trkpt>
      <trkpt lat="48.26636" lon="1.28425">
        <ele>141.042108</ele>
        <time>2021-09-07T11:28:26.000Z</time>
      </trkpt>
      <trkpt lat="48.26613" lon="1.28448">
        <ele>140.888343</ele>
        <time>2021-09-07T11:28:32.000Z</time>
      </trkpt>
      <trkpt lat="48.26585" lon="1.28478">
        <ele>140.688926</ele>
        <time>2021-09-07T11:28:40.000Z</time>
      </trkpt>
      <trkpt lat="48.26547" lon="1.28516">
        <ele>140.429315</ele>
        <time>2021-09-07T11:28:50.000Z</time>
      </trkpt>
      <trkpt lat="48.26511" lon="1.28554">
        <ele>140.17537</ele>
        <time>2021-09-07T11:29:00.000Z</time>
      </trkpt>
      <trkpt lat="48.26476" lon="1.28591">
        <ele>139.971083</ele>
        <time>2021-09-07T11:29:10.000Z</time>
      </trkpt>
      <trkpt lat="48.26446" lon="1.28623">
        <ele>139.861448</ele>
        <time>2021-09-07T11:29:19.000Z</time>
      </trkpt>
      <trkpt lat="48.26419" lon="1.2865">
        <ele>139.76771</ele>
        <time>2021-09-07T11:29:26.000Z</time>
      </trkpt>
      <trkpt lat="48.26394" lon="1.28677">
        <ele>139.675719</ele>
        <time>2021-09-07T11:29:33.000Z</time>
      </trkpt>
      <trkpt lat="48.26369" lon="1.28703">
        <ele>139.585715</ele>
        <time>2021-09-07T11:29:40.000Z</time>
      </trkpt>
      <trkpt lat="48.26343" lon="1.28728">
        <ele>139.494191</ele>
        <time>2021-09-07T11:29:47.000Z</time>
      </trkpt>
      <trkpt lat="48.26319" lon="1.28756">
        <ele>139.321776</ele>
        <time>2021-09-07T11:29:54.000Z</time>
      </trkpt>
      <trkpt lat="48.263" lon="1.28776">
        <ele>139.185039</ele>
        <time>2021-09-07T11:29:59.000Z</time>
      </trkpt>
      <trkpt lat="48.2629" lon="1.28788">
        <ele>139.106259</ele>
        <time>2021-09-07T11:30:02.000Z</time>
      </trkpt>
      <trkpt lat="48.26278" lon="1.28805">
        <ele>139.003898</ele>
        <time>2021-09-07T11:30:06.000Z</time>
      </trkpt>
      <trkpt lat="48.26266" lon="1.28822">
        <ele>138.90352</ele>
        <time>2021-09-07T11:30:10.000Z</time>
      </trkpt>
      <trkpt lat="48.26246" lon="1.28851">
        <ele>138.737507</ele>
        <time>2021-09-07T11:30:17.000Z</time>
      </trkpt>
      <trkpt lat="48.26221" lon="1.28888">
        <ele>138.525592</ele>
        <time>2021-09-07T11:30:25.000Z</time>
      </trkpt>
      <trkpt lat="48.262" lon="1.28924">
        <ele>138.353004</ele>
        <time>2021-09-07T11:30:32.000Z</time>
      </trkpt>
      <trkpt lat="48.26197" lon="1.28929">
        <ele>138.333528</ele>
        <time>2021-09-07T11:30:33.000Z</time>
      </trkpt>
      <trkpt lat="48.26179" lon="1.28969">
        <ele>138.199125</ele>
        <time>2021-09-07T11:30:40.000Z</time>
      </trkpt>
      <trkpt lat="48.26166" lon="1.29004">
        <ele>138.087819</ele>
        <time>2021-09-07T11:30:46.000Z</time>
      </trkpt>
      <trkpt lat="48.26151" lon="1.29055">
        <ele>137.934395</ele>
        <time>2021-09-07T11:30:54.000Z</time>
      </trkpt>
      <trkpt lat="48.26141" lon="1.29097">
        <ele>137.80792</ele>
        <time>2021-09-07T11:31:01.000Z</time>
      </trkpt>
      <trkpt lat="48.26127" lon="1.2916">
        <ele>137.623547</ele>
        <time>2021-09-07T11:31:11.000Z</time>
      </trkpt>
      <trkpt lat="48.26121" lon="1.29185">
        <ele>137.545077</ele>
        <time>2021-09-07T11:31:15.000Z</time>
      </trkpt>
      <trkpt lat="48.26118" lon="1.29196">
        <ele>137.508595</ele>
        <time>2021-09-07T11:31:17.000Z</time>
      </trkpt>
      <trkpt lat="48.26117" lon="1.29201">
        <ele>137.490362</ele>
        <time>2021-09-07T11:31:18.000Z</time>
      </trkpt>
      <trkpt lat="48.26109" lon="1.29237">
        <ele>137.37901</ele>
        <time>2021-09-07T11:31:24.000Z</time>
      </trkpt>
      <trkpt lat="48.26108" lon="1.29243">
        <ele>137.360495</ele>
        <time>2021-09-07T11:31:25.000Z</time>
      </trkpt>
      <trkpt lat="48.26095" lon="1.29298">
        <ele>137.182778</ele>
        <time>2021-09-07T11:31:35.000Z</time>
      </trkpt>
      <trkpt lat="48.26085" lon="1.29339">
        <ele>137.054608</ele>
        <time>2021-09-07T11:31:43.000Z</time>
      </trkpt>
      <trkpt lat="48.26071" lon="1.29386">
        <ele>136.900539</ele>
        <time>2021-09-07T11:31:52.000Z</time>
      </trkpt>
      <trkpt lat="48.26054" lon="1.2943">
        <ele>136.840323</ele>
        <time>2021-09-07T11:32:00.000Z</time>
      </trkpt>
      <trkpt lat="48.26035" lon="1.29473">
        <ele>136.849764</ele>
        <time>2021-09-07T11:32:07.000Z</time>
      </trkpt>
      <trkpt lat="48.26008" lon="1.29528">
        <ele>136.862545</ele>
        <time>2021-09-07T11:32:16.000Z</time>
      </trkpt>
      <trkpt lat="48.25988" lon="1.2957">
        <ele>136.871991</ele>
        <time>2021-09-07T11:32:23.000Z</time>
      </trkpt>
      <trkpt lat="48.25973" lon="1.29603">
        <ele>136.879463</ele>
        <time>2021-09-07T11:32:29.000Z</time>
      </trkpt>
      <trkpt lat="48.25955" lon="1.29642">
        <ele>136.848266</ele>
        <time>2021-09-07T11:32:37.000Z</time>
      </trkpt>
      <trkpt lat="48.25939" lon="1.29676">
        <ele>136.764697</ele>
        <time>2021-09-07T11:32:44.000Z</time>
      </trkpt>
      <trkpt lat="48.25924" lon="1.29708">
        <ele>136.683467</ele>
        <time>2021-09-07T11:32:51.000Z</time>
      </trkpt>
      <trkpt lat="48.25904" lon="1.29752">
        <ele>136.575779</ele>
        <time>2021-09-07T11:33:00.000Z</time>
      </trkpt>
      <trkpt lat="48.25882" lon="1.29798">
        <ele>136.461503</ele>
        <time>2021-09-07T11:33:09.000Z</time>
      </trkpt>
      <trkpt lat="48.25864" lon="1.29837">
        <ele>136.365103</ele>
        <time>2021-09-07T11:33:17.000Z</time>
      </trkpt>
      <trkpt lat="48.25846" lon="1.29876">
        <ele>136.204222</ele>
        <time>2021-09-07T11:33:25.000Z</time>
      </trkpt>
      <trkpt lat="48.25827" lon="1.29916">
        <ele>136.012668</ele>
        <time>2021-09-07T11:33:33.000Z</time>
      </trkpt>
      <trkpt lat="48.25807" lon="1.29953">
        <ele>135.823924</ele>
        <time>2021-09-07T11:33:41.000Z</time>
      </trkpt>
      <trkpt lat="48.25789" lon="1.29986">
        <ele>135.658645</ele>
        <time>2021-09-07T11:33:48.000Z</time>
      </trkpt>
      <trkpt lat="48.25762" lon="1.30029">
        <ele>135.426112</ele>
        <time>2021-09-07T11:33:57.000Z</time>
      </trkpt>
      <trkpt lat="48.25739" lon="1.30063">
        <ele>135.264044</ele>
        <time>2021-09-07T11:34:05.000Z</time>
      </trkpt>
      <trkpt lat="48.25715" lon="1.30096">
        <ele>135.195635</ele>
        <time>2021-09-07T11:34:13.000Z</time>
      </trkpt>
      <trkpt lat="48.25687" lon="1.30136">
        <ele>135.114696</ele>
        <time>2021-09-07T11:34:22.000Z</time>
      </trkpt>
      <trkpt lat="48.25662" lon="1.30174">
        <ele>135.037862</ele>
        <time>2021-09-07T11:34:31.000Z</time>
      </trkpt>
      <trkpt lat="48.25636" lon="1.30216">
        <ele>134.957397</ele>
        <time>2021-09-07T11:34:40.000Z</time>
      </trkpt>
      <trkpt lat="48.25611" lon="1.30259">
        <ele>134.881001</ele>
        <time>2021-09-07T11:34:49.000Z</time>
      </trkpt>
      <trkpt lat="48.25591" lon="1.30293">
        <ele>134.831653</ele>
        <time>2021-09-07T11:34:56.000Z</time>
      </trkpt>
      <trkpt lat="48.25568" lon="1.30334">
        <ele>134.771948</ele>
        <time>2021-09-07T11:35:04.000Z</time>
      </trkpt>
      <trkpt lat="48.25546" lon="1.30374">
        <ele>134.713585</ele>
        <time>2021-09-07T11:35:12.000Z</time>
      </trkpt>
      <trkpt lat="48.25521" lon="1.30418">
        <ele>134.64892</ele>
        <time>2021-09-07T11:35:21.000Z</time>
      </trkpt>
      <trkpt lat="48.25497" lon="1.30461">
        <ele>134.590925</ele>
        <time>2021-09-07T11:35:29.000Z</time>
      </trkpt>
      <trkpt lat="48.25472" lon="1.30506">
        <ele>134.550166</ele>
        <time>2021-09-07T11:35:37.000Z</time>
      </trkpt>
      <trkpt lat="48.25459" lon="1.30528">
        <ele>134.530055</ele>
        <time>2021-09-07T11:35:41.000Z</time>
      </trkpt>
      <trkpt lat="48.2545" lon="1.30544">
        <ele>134.515469</ele>
        <time>2021-09-07T11:35:44.000Z</time>
      </trkpt>
      <trkpt lat="48.25427" lon="1.30584">
        <ele>134.477858</ele>
        <time>2021-09-07T11:35:52.000Z</time>
      </trkpt>
      <trkpt lat="48.25404" lon="1.30624">
        <ele>134.441215</ele>
        <time>2021-09-07T11:36:00.000Z</time>
      </trkpt>
      <trkpt lat="48.25376" lon="1.30673">
        <ele>134.40394</ele>
        <time>2021-09-07T11:36:10.000Z</time>
      </trkpt>
      <trkpt lat="48.25354" lon="1.30715">
        <ele>134.38864</ele>
        <time>2021-09-07T11:36:18.000Z</time>
      </trkpt>
      <trkpt lat="48.25336" lon="1.30768">
        <ele>134.371615</ele>
        <time>2021-09-07T11:36:27.000Z</time>
      </trkpt>
      <trkpt lat="48.25328" lon="1.30805">
        <ele>134.36036</ele>
        <time>2021-09-07T11:36:33.000Z</time>
      </trkpt>
      <trkpt lat="48.25327" lon="1.30811">
        <ele>134.358521</ele>
        <time>2021-09-07T11:36:34.000Z</time>
      </trkpt>
      <trkpt lat="48.25321" lon="1.30866">
        <ele>134.342557</ele>
        <time>2021-09-07T11:36:43.000Z</time>
      </trkpt>
      <trkpt lat="48.25315" lon="1.30917">
        <ele>134.310258</ele>
        <time>2021-09-07T11:36:52.000Z</time>
      </trkpt>
      <trkpt lat="48.2531" lon="1.3096">
        <ele>134.244798</ele>
        <time>2021-09-07T11:37:00.000Z</time>
      </trkpt>
      <trkpt lat="48.25306" lon="1.30991">
        <ele>134.196918</ele>
        <time>2021-09-07T11:37:06.000Z</time>
      </trkpt>
      <trkpt lat="48.25299" lon="1.3105">
        <ele>134.1073</ele>
        <time>2021-09-07T11:37:17.000Z</time>
      </trkpt>
      <trkpt lat="48.25291" lon="1.31103">
        <ele>134.027118</ele>
        <time>2021-09-07T11:37:27.000Z</time>
      </trkpt>
      <trkpt lat="48.25281" lon="1.31155">
        <ele>133.945317</ele>
        <time>2021-09-07T11:37:37.000Z</time>
      </trkpt>
      <trkpt lat="48.2527" lon="1.31207">
        <ele>133.793736</ele>
        <time>2021-09-07T11:37:47.000Z</time>
      </trkpt>
      <trkpt lat="48.25258" lon="1.31263">
        <ele>133.61194</ele>
        <time>2021-09-07T11:37:57.000Z</time>
      </trkpt>
      <trkpt lat="48.25247" lon="1.31309">
        <ele>133.462265</ele>
        <time>2021-09-07T11:38:05.000Z</time>
      </trkpt>
      <trkpt lat="48.25239" lon="1.31347">
        <ele>133.336749</ele>
        <time>2021-09-07T11:38:12.000Z</time>
      </trkpt>
      <trkpt lat="48.25231" lon="1.31393">
        <ele>133.188329</ele>
        <time>2021-09-07T11:38:20.000Z</time>
      </trkpt>
      <trkpt lat="48.25226" lon="1.31446">
        <ele>133.117147</ele>
        <time>2021-09-07T11:38:29.000Z</time>
      </trkpt>
      <trkpt lat="48.25227" lon="1.31488">
        <ele>133.172634</ele>
        <time>2021-09-07T11:38:36.000Z</time>
      </trkpt>
      <trkpt lat="48.25229" lon="1.31536">
        <ele>133.235398</ele>
        <time>2021-09-07T11:38:44.000Z</time>
      </trkpt>
      <trkpt lat="48.2523" lon="1.31542">
        <ele>133.243803</ele>
        <time>2021-09-07T11:38:45.000Z</time>
      </trkpt>
      <trkpt lat="48.25233" lon="1.31585">
        <ele>133.300287</ele>
        <time>2021-09-07T11:38:52.000Z</time>
      </trkpt>
      <trkpt lat="48.25237" lon="1.31635">
        <ele>133.366701</ele>
        <time>2021-09-07T11:39:00.000Z</time>
      </trkpt>
      <trkpt lat="48.2524" lon="1.31683">
        <ele>133.430073</ele>
        <time>2021-09-07T11:39:08.000Z</time>
      </trkpt>
      <trkpt lat="48.25243" lon="1.31738">
        <ele>133.507173</ele>
        <time>2021-09-07T11:39:17.000Z</time>
      </trkpt>
      <trkpt lat="48.25243" lon="1.31749">
        <ele>133.52406</ele>
        <time>2021-09-07T11:39:19.000Z</time>
      </trkpt>
      <trkpt lat="48.25242" lon="1.31762">
        <ele>133.541813</ele>
        <time>2021-09-07T11:39:21.000Z</time>
      </trkpt>
      <trkpt lat="48.2524" lon="1.31775">
        <ele>133.560839</ele>
        <time>2021-09-07T11:39:23.000Z</time>
      </trkpt>
      <trkpt lat="48.25238" lon="1.31788">
        <ele>133.580065</ele>
        <time>2021-09-07T11:39:25.000Z</time>
      </trkpt>
      <trkpt lat="48.2523" lon="1.31811">
        <ele>133.616364</ele>
        <time>2021-09-07T11:39:29.000Z</time>
      </trkpt>
      <trkpt lat="48.25227" lon="1.31816">
        <ele>133.624869</ele>
        <time>2021-09-07T11:39:30.000Z</time>
      </trkpt>
      <trkpt lat="48.25216" lon="1.31832">
        <ele>133.658456</ele>
        <time>2021-09-07T11:39:34.000Z</time>
      </trkpt>
      <trkpt lat="48.25189" lon="1.31864">
        <ele>133.732259</ele>
        <time>2021-09-07T11:39:42.000Z</time>
      </trkpt>
      <trkpt lat="48.25166" lon="1.31891">
        <ele>133.794295</ele>
        <time>2021-09-07T11:39:49.000Z</time>
      </trkpt>
      <trkpt lat="48.25143" lon="1.31915">
        <ele>133.876731</ele>
        <time>2021-09-07T11:39:56.000Z</time>
      </trkpt>
      <trkpt lat="48.2514" lon="1.31919">
        <ele>133.892692</ele>
        <time>2021-09-07T11:39:57.000Z</time>
      </trkpt>
      <trkpt lat="48.25127" lon="1.31933">
        <ele>133.9559</ele>
        <time>2021-09-07T11:40:01.000Z</time>
      </trkpt>
      <trkpt lat="48.25114" lon="1.31949">
        <ele>134.021075</ele>
        <time>2021-09-07T11:40:05.000Z</time>
      </trkpt>
      <trkpt lat="48.25104" lon="1.31961">
        <ele>134.072746</ele>
        <time>2021-09-07T11:40:08.000Z</time>
      </trkpt>
      <trkpt lat="48.2509" lon="1.31978">
        <ele>134.142479</ele>
        <time>2021-09-07T11:40:12.000Z</time>
      </trkpt>
      <trkpt lat="48.25082" lon="1.31993">
        <ele>134.194615</ele>
        <time>2021-09-07T11:40:15.000Z</time>
      </trkpt>
      <trkpt lat="48.25069" lon="1.32036">
        <ele>134.317528</ele>
        <time>2021-09-07T11:40:22.000Z</time>
      </trkpt>
      <trkpt lat="48.2506" lon="1.32079">
        <ele>134.438122</ele>
        <time>2021-09-07T11:40:29.000Z</time>
      </trkpt>
      <trkpt lat="48.25047" lon="1.32111">
        <ele>134.536053</ele>
        <time>2021-09-07T11:40:35.000Z</time>
      </trkpt>
      <trkpt lat="48.25031" lon="1.32147">
        <ele>134.524677</ele>
        <time>2021-09-07T11:40:42.000Z</time>
      </trkpt>
      <trkpt lat="48.25028" lon="1.32152">
        <ele>134.522479</ele>
        <time>2021-09-07T11:40:43.000Z</time>
      </trkpt>
      <trkpt lat="48.25014" lon="1.32189">
        <ele>134.508175</ele>
        <time>2021-09-07T11:40:50.000Z</time>
      </trkpt>
      <trkpt lat="48.25007" lon="1.32202">
        <ele>134.502473</ele>
        <time>2021-09-07T11:40:53.000Z</time>
      </trkpt>
      <trkpt lat="48.25004" lon="1.32203">
        <ele>134.500672</ele>
        <time>2021-09-07T11:40:54.000Z</time>
      </trkpt>
      <trkpt lat="48.25001" lon="1.32206">
        <ele>134.499107</ele>
        <time>2021-09-07T11:40:55.000Z</time>
      </trkpt>
      <trkpt lat="48.25001" lon="1.3221">
        <ele>134.497684</ele>
        <time>2021-09-07T11:40:56.000Z</time>
      </trkpt>
      <trkpt lat="48.25012" lon="1.32227">
        <ele>134.490044</ele>
        <time>2021-09-07T11:41:00.000Z</time>
      </trkpt>
      <trkpt lat="48.25021" lon="1.32239">
        <ele>134.483795</ele>
        <time>2021-09-07T11:41:03.000Z</time>
      </trkpt>
      <trkpt lat="48.25033" lon="1.32249">
        <ele>134.476797</ele>
        <time>2021-09-07T11:41:06.000Z</time>
      </trkpt>
      <trkpt lat="48.25056" lon="1.32272">
        <ele>134.462532</ele>
        <time>2021-09-07T11:41:12.000Z</time>
      </trkpt>
      <trkpt lat="48.2508" lon="1.32292">
        <ele>134.448979</ele>
        <time>2021-09-07T11:41:18.000Z</time>
      </trkpt>
      <trkpt lat="48.25107" lon="1.3231">
        <ele>134.34839</ele>
        <time>2021-09-07T11:41:25.000Z</time>
      </trkpt>
      <trkpt lat="48.25109" lon="1.32322">
        <ele>134.318681</ele>
        <time>2021-09-07T11:41:27.000Z</time>
      </trkpt>
      <trkpt lat="48.25101" lon="1.32347">
        <ele>134.249438</ele>
        <time>2021-09-07T11:41:32.000Z</time>
      </trkpt>
      <trkpt lat="48.25087" lon="1.32386">
        <ele>134.14226</ele>
        <time>2021-09-07T11:41:40.000Z</time>
      </trkpt>
      <trkpt lat="48.25074" lon="1.32423">
        <ele>134.038478</ele>
        <time>2021-09-07T11:41:48.000Z</time>
      </trkpt>
      <trkpt lat="48.25058" lon="1.32471">
        <ele>133.907659</ele>
        <time>2021-09-07T11:41:58.000Z</time>
      </trkpt>
      <trkpt lat="48.25043" lon="1.32519">
        <ele>133.76865</ele>
        <time>2021-09-07T11:42:08.000Z</time>
      </trkpt>
      <trkpt lat="48.2503" lon="1.32557">
        <ele>133.533649</ele>
        <time>2021-09-07T11:42:16.000Z</time>
      </trkpt>
      <trkpt lat="48.25017" lon="1.32598">
        <ele>133.284274</ele>
        <time>2021-09-07T11:42:24.000Z</time>
      </trkpt>
      <trkpt lat="48.25004" lon="1.32635">
        <ele>133.051639</ele>
        <time>2021-09-07T11:42:32.000Z</time>
      </trkpt>
      <trkpt lat="48.24992" lon="1.32675">
        <ele>132.809748</ele>
        <time>2021-09-07T11:42:40.000Z</time>
      </trkpt>
      <trkpt lat="48.2498" lon="1.3271">
        <ele>132.596674</ele>
        <time>2021-09-07T11:42:47.000Z</time>
      </trkpt>
      <trkpt lat="48.24968" lon="1.32749">
        <ele>132.356268</ele>
        <time>2021-09-07T11:42:55.000Z</time>
      </trkpt>
      <trkpt lat="48.24954" lon="1.32786">
        <ele>132.277227</ele>
        <time>2021-09-07T11:43:03.000Z</time>
      </trkpt>
      <trkpt lat="48.24945" lon="1.32814">
        <ele>132.254705</ele>
        <time>2021-09-07T11:43:10.000Z</time>
      </trkpt>
      <trkpt lat="48.24933" lon="1.32839">
        <ele>132.233024</ele>
        <time>2021-09-07T11:43:17.000Z</time>
      </trkpt>
      <trkpt lat="48.24931" lon="1.32841">
        <ele>132.230844</ele>
        <time>2021-09-07T11:43:18.000Z</time>
      </trkpt>
      <trkpt lat="48.24925" lon="1.32846">
        <ele>132.22364</ele>
        <time>2021-09-07T11:43:22.000Z</time>
      </trkpt>
      <trkpt lat="48.24917" lon="1.32849">
        <ele>132.214252</ele>
        <time>2021-09-07T11:43:30.000Z</time>
      </trkpt>
      <trkpt lat="48.24914" lon="1.32849">
        <ele>132.211146</ele>
        <time>2021-09-07T11:43:33.000Z</time>
      </trkpt>
      <trkpt lat="48.2491" lon="1.32847">
        <ele>132.206909</ele>
        <time>2021-09-07T11:43:35.000Z</time>
      </trkpt>
      <trkpt lat="48.24896" lon="1.32845">
        <ele>132.191243</ele>
        <time>2021-09-07T11:43:40.000Z</time>
      </trkpt>
      <trkpt lat="48.24875" lon="1.32847">
        <ele>132.169418</ele>
        <time>2021-09-07T11:43:46.000Z</time>
      </trkpt>
      <trkpt lat="48.24862" lon="1.32858">
        <ele>132.153543</ele>
        <time>2021-09-07T11:43:52.000Z</time>
      </trkpt>
      <trkpt lat="48.24855" lon="1.32871">
        <ele>132.141236</ele>
        <time>2021-09-07T11:43:58.000Z</time>
      </trkpt>
      <trkpt lat="48.24851" lon="1.32886">
        <ele>132.130026</ele>
        <time>2021-09-07T11:44:05.000Z</time>
      </trkpt>
      <trkpt lat="48.24846" lon="1.32901">
        <ele>132.118185</ele>
        <time>2021-09-07T11:44:11.000Z</time>
      </trkpt>
      <trkpt lat="48.24838" lon="1.32923">
        <ele>132.150956</ele>
        <time>2021-09-07T11:44:18.000Z</time>
      </trkpt>
      <trkpt lat="48.24832" lon="1.32938">
        <ele>132.22419</ele>
        <time>2021-09-07T11:44:23.000Z</time>
      </trkpt>
      <trkpt lat="48.2483" lon="1.3294">
        <ele>132.239456</ele>
        <time>2021-09-07T11:44:24.000Z</time>
      </trkpt>
      <trkpt lat="48.24817" lon="1.32951">
        <ele>132.331289</ele>
        <time>2021-09-07T11:44:29.000Z</time>
      </trkpt>
      <trkpt lat="48.24793" lon="1.32963">
        <ele>132.487229</ele>
        <time>2021-09-07T11:44:37.000Z</time>
      </trkpt>
      <trkpt lat="48.2478" lon="1.32977">
        <ele>132.586826</ele>
        <time>2021-09-07T11:44:42.000Z</time>
      </trkpt>
      <trkpt lat="48.24777" lon="1.33002">
        <ele>132.692388</ele>
        <time>2021-09-07T11:44:48.000Z</time>
      </trkpt>
      <trkpt lat="48.24779" lon="1.33009">
        <ele>132.722695</ele>
        <time>2021-09-07T11:44:50.000Z</time>
      </trkpt>
      <trkpt lat="48.24781" lon="1.33015">
        <ele>132.755144</ele>
        <time>2021-09-07T11:44:52.000Z</time>
      </trkpt>
      <trkpt lat="48.24787" lon="1.33043">
        <ele>132.874758</ele>
        <time>2021-09-07T11:44:59.000Z</time>
      </trkpt>
      <trkpt lat="48.24789" lon="1.3307">
        <ele>132.989223</ele>
        <time>2021-09-07T11:45:05.000Z</time>
      </trkpt>
      <trkpt lat="48.24792" lon="1.33092">
        <ele>133.081811</ele>
        <time>2021-09-07T11:45:10.000Z</time>
      </trkpt>
      <trkpt lat="48.24794" lon="1.33128">
        <ele>133.227816</ele>
        <time>2021-09-07T11:45:17.000Z</time>
      </trkpt>
      <trkpt lat="48.24796" lon="1.33166">
        <ele>133.234136</ele>
        <time>2021-09-07T11:45:24.000Z</time>
      </trkpt>
      <trkpt lat="48.248" lon="1.33223">
        <ele>133.243947</ele>
        <time>2021-09-07T11:45:34.000Z</time>
      </trkpt>
      <trkpt lat="48.24803" lon="1.33256">
        <ele>133.249579</ele>
        <time>2021-09-07T11:45:40.000Z</time>
      </trkpt>
      <trkpt lat="48.24808" lon="1.33297">
        <ele>133.256614</ele>
        <time>2021-09-07T11:45:48.000Z</time>
      </trkpt>
      <trkpt lat="48.24814" lon="1.33314">
        <ele>133.259863</ele>
        <time>2021-09-07T11:45:52.000Z</time>
      </trkpt>
      <trkpt lat="48.2483" lon="1.33335">
        <ele>133.265159</ele>
        <time>2021-09-07T11:45:58.000Z</time>
      </trkpt>
      <trkpt lat="48.24843" lon="1.33351">
        <ele>133.269572</ele>
        <time>2021-09-07T11:46:03.000Z</time>
      </trkpt>
      <trkpt lat="48.24867" lon="1.33374">
        <ele>133.293903</ele>
        <time>2021-09-07T11:46:11.000Z</time>
      </trkpt>
      <trkpt lat="48.24888" lon="1.33393">
        <ele>133.331975</ele>
        <time>2021-09-07T11:46:18.000Z</time>
      </trkpt>
      <trkpt lat="48.24914" lon="1.33423">
        <ele>133.383209</ele>
        <time>2021-09-07T11:46:28.000Z</time>
      </trkpt>
      <trkpt lat="48.24934" lon="1.33447">
        <ele>133.422619</ele>
        <time>2021-09-07T11:46:36.000Z</time>
      </trkpt>
      <trkpt lat="48.24947" lon="1.33469">
        <ele>133.452572</ele>
        <time>2021-09-07T11:46:44.000Z</time>
      </trkpt>
      <trkpt lat="48.24955" lon="1.33487">
        <ele>133.475473</ele>
        <time>2021-09-07T11:46:50.000Z</time>
      </trkpt>
      <trkpt lat="48.24964" lon="1.3351">
        <ele>133.502688</ele>
        <time>2021-09-07T11:46:57.000Z</time>
      </trkpt>
      <trkpt lat="48.24976" lon="1.33538">
        <ele>133.536319</ele>
        <time>2021-09-07T11:47:05.000Z</time>
      </trkpt>
      <trkpt lat="48.24987" lon="1.33564">
        <ele>133.676666</ele>
        <time>2021-09-07T11:47:13.000Z</time>
      </trkpt>
      <trkpt lat="48.24996" lon="1.33587">
        <ele>133.889042</ele>
        <time>2021-09-07T11:47:20.000Z</time>
      </trkpt>
      <trkpt lat="48.25002" lon="1.336">
        <ele>134.014262</ele>
        <time>2021-09-07T11:47:24.000Z</time>
      </trkpt>
      <trkpt lat="48.25014" lon="1.3363">
        <ele>134.290899</ele>
        <time>2021-09-07T11:47:33.000Z</time>
      </trkpt>
      <trkpt lat="48.25026" lon="1.33659">
        <ele>134.558223</ele>
        <time>2021-09-07T11:47:42.000Z</time>
      </trkpt>
      <trkpt lat="48.25037" lon="1.33688">
        <ele>134.821203</ele>
        <time>2021-09-07T11:47:51.000Z</time>
      </trkpt>
      <trkpt lat="48.25035" lon="1.33711">
        <ele>134.998761</ele>
        <time>2021-09-07T11:47:57.000Z</time>
      </trkpt>
      <trkpt lat="48.25025" lon="1.3374">
        <ele>135.257548</ele>
        <time>2021-09-07T11:48:05.000Z</time>
      </trkpt>
      <trkpt lat="48.25021" lon="1.33757">
        <ele>135.401816</ele>
        <time>2021-09-07T11:48:10.000Z</time>
      </trkpt>
      <trkpt lat="48.25013" lon="1.33782">
        <ele>135.61238</ele>
        <time>2021-09-07T11:48:17.000Z</time>
      </trkpt>
      <trkpt lat="48.25007" lon="1.33803">
        <ele>135.767565</ele>
        <time>2021-09-07T11:48:23.000Z</time>
      </trkpt>
      <trkpt lat="48.25" lon="1.33839">
        <ele>135.998965</ele>
        <time>2021-09-07T11:48:33.000Z</time>
      </trkpt>
      <trkpt lat="48.24993" lon="1.33867">
        <ele>136.178857</ele>
        <time>2021-09-07T11:48:41.000Z</time>
      </trkpt>
      <trkpt lat="48.24986" lon="1.339">
        <ele>136.384676</ele>
        <time>2021-09-07T11:48:50.000Z</time>
      </trkpt>
      <trkpt lat="48.24979" lon="1.33939">
        <ele>136.632297</ele>
        <time>2021-09-07T11:49:01.000Z</time>
      </trkpt>
      <trkpt lat="48.24973" lon="1.33963">
        <ele>136.789525</ele>
        <time>2021-09-07T11:49:08.000Z</time>
      </trkpt>
      <trkpt lat="48.24966" lon="1.33993">
        <ele>136.97893</ele>
        <time>2021-09-07T11:49:16.000Z</time>
      </trkpt>
      <trkpt lat="48.2496" lon="1.3403">
        <ele>137.214599</ele>
        <time>2021-09-07T11:49:25.000Z</time>
      </trkpt>
      <trkpt lat="48.24954" lon="1.34059">
        <ele>137.203005</ele>
        <time>2021-09-07T11:49:30.000Z</time>
      </trkpt>
      <trkpt lat="48.24938" lon="1.34114">
        <ele>136.69605</ele>
        <time>2021-09-07T11:49:38.000Z</time>
      </trkpt>
      <trkpt lat="48.24921" lon="1.34167">
        <ele>136.198708</ele>
        <time>2021-09-07T11:49:46.000Z</time>
      </trkpt>
      <trkpt lat="48.24909" lon="1.34205">
        <ele>135.845686</ele>
        <time>2021-09-07T11:49:53.000Z</time>
      </trkpt>
      <trkpt lat="48.24894" lon="1.34244">
        <ele>135.464093</ele>
        <time>2021-09-07T11:50:01.000Z</time>
      </trkpt>
      <trkpt lat="48.24874" lon="1.3429">
        <ele>135.001262</ele>
        <time>2021-09-07T11:50:11.000Z</time>
      </trkpt>
      <trkpt lat="48.24863" lon="1.34312">
        <ele>134.759049</ele>
        <time>2021-09-07T11:50:17.000Z</time>
      </trkpt>
      <trkpt lat="48.24852" lon="1.34338">
        <ele>134.484744</ele>
        <time>2021-09-07T11:50:25.000Z</time>
      </trkpt>
      <trkpt lat="48.2484" lon="1.3437">
        <ele>134.160799</ele>
        <time>2021-09-07T11:50:32.000Z</time>
      </trkpt>
      <trkpt lat="48.24826" lon="1.34403">
        <ele>133.822562</ele>
        <time>2021-09-07T11:50:39.000Z</time>
      </trkpt>
      <trkpt lat="48.24812" lon="1.34436">
        <ele>133.48092</ele>
        <time>2021-09-07T11:50:46.000Z</time>
      </trkpt>
      <trkpt lat="48.24804" lon="1.34454">
        <ele>133.284109</ele>
        <time>2021-09-07T11:50:50.000Z</time>
      </trkpt>
      <trkpt lat="48.24784" lon="1.34497">
        <ele>132.824343</ele>
        <time>2021-09-07T11:50:59.000Z</time>
      </trkpt>
      <trkpt lat="48.24777" lon="1.34511">
        <ele>132.663974</ele>
        <time>2021-09-07T11:51:02.000Z</time>
      </trkpt>
      <trkpt lat="48.2477" lon="1.34527">
        <ele>132.581876</ele>
        <time>2021-09-07T11:51:05.000Z</time>
      </trkpt>
      <trkpt lat="48.24752" lon="1.34566">
        <ele>132.376763</ele>
        <time>2021-09-07T11:51:13.000Z</time>
      </trkpt>
      <trkpt lat="48.24733" lon="1.3461">
        <ele>132.148539</ele>
        <time>2021-09-07T11:51:22.000Z</time>
      </trkpt>
      <trkpt lat="48.24723" lon="1.34633">
        <ele>132.028289</ele>
        <time>2021-09-07T11:51:28.000Z</time>
      </trkpt>
      <trkpt lat="48.24706" lon="1.34663">
        <ele>131.85795</ele>
        <time>2021-09-07T11:51:35.000Z</time>
      </trkpt>
      <trkpt lat="48.24683" lon="1.34697">
        <ele>131.649989</ele>
        <time>2021-09-07T11:51:44.000Z</time>
      </trkpt>
      <trkpt lat="48.24661" lon="1.3473">
        <ele>131.530876</ele>
        <time>2021-09-07T11:51:53.000Z</time>
      </trkpt>
      <trkpt lat="48.24636" lon="1.34765">
        <ele>131.779432</ele>
        <time>2021-09-07T11:52:03.000Z</time>
      </trkpt>
      <trkpt lat="48.24614" lon="1.34798">
        <ele>132.00569</ele>
        <time>2021-09-07T11:52:13.000Z</time>
      </trkpt>
      <trkpt lat="48.24601" lon="1.34818">
        <ele>132.144666</ele>
        <time>2021-09-07T11:52:20.000Z</time>
      </trkpt>
      <trkpt lat="48.24583" lon="1.3485">
        <ele>132.347048</ele>
        <time>2021-09-07T11:52:30.000Z</time>
      </trkpt>
      <trkpt lat="48.24571" lon="1.34874">
        <ele>132.489821</ele>
        <time>2021-09-07T11:52:37.000Z</time>
      </trkpt>
      <trkpt lat="48.24561" lon="1.34893">
        <ele>132.610854</ele>
        <time>2021-09-07T11:52:43.000Z</time>
      </trkpt>
      <trkpt lat="48.24548" lon="1.34918">
        <ele>132.76289</ele>
        <time>2021-09-07T11:52:50.000Z</time>
      </trkpt>
      <trkpt lat="48.24534" lon="1.34944">
        <ele>132.774747</ele>
        <time>2021-09-07T11:52:58.000Z</time>
      </trkpt>
      <trkpt lat="48.24519" lon="1.34974">
        <ele>132.743348</ele>
        <time>2021-09-07T11:53:05.000Z</time>
      </trkpt>
      <trkpt lat="48.24514" lon="1.34983">
        <ele>132.733233</ele>
        <time>2021-09-07T11:53:07.000Z</time>
      </trkpt>
      <trkpt lat="48.24503" lon="1.34996">
        <ele>132.716225</ele>
        <time>2021-09-07T11:53:10.000Z</time>
      </trkpt>
      <trkpt lat="48.24499" lon="1.35">
        <ele>132.710271</ele>
        <time>2021-09-07T11:53:11.000Z</time>
      </trkpt>
      <trkpt lat="48.24483" lon="1.35009">
        <ele>132.689104</ele>
        <time>2021-09-07T11:53:15.000Z</time>
      </trkpt>
      <trkpt lat="48.24457" lon="1.35011">
        <ele>132.655408</ele>
        <time>2021-09-07T11:53:22.000Z</time>
      </trkpt>
      <trkpt lat="48.24436" lon="1.35008">
        <ele>132.62928</ele>
        <time>2021-09-07T11:53:28.000Z</time>
      </trkpt>
      <trkpt lat="48.24408" lon="1.3501">
        <ele>132.59495</ele>
        <time>2021-09-07T11:53:35.000Z</time>
      </trkpt>
      <trkpt lat="48.24378" lon="1.35015">
        <ele>132.428947</ele>
        <time>2021-09-07T11:53:41.000Z</time>
      </trkpt>
      <trkpt lat="48.24348" lon="1.35024">
        <ele>132.047463</ele>
        <time>2021-09-07T11:53:46.000Z</time>
      </trkpt>
      <trkpt lat="48.24343" lon="1.35028">
        <ele>131.973522</ele>
        <time>2021-09-07T11:53:47.000Z</time>
      </trkpt>
      <trkpt lat="48.24335" lon="1.35039">
        <ele>131.835985</ele>
        <time>2021-09-07T11:53:49.000Z</time>
      </trkpt>
      <trkpt lat="48.24323" lon="1.35054">
        <ele>131.647748</ele>
        <time>2021-09-07T11:53:52.000Z</time>
      </trkpt>
      <trkpt lat="48.24303" lon="1.35078">
        <ele>131.321969</ele>
        <time>2021-09-07T11:53:58.000Z</time>
      </trkpt>
      <trkpt lat="48.24275" lon="1.35104">
        <ele>130.911478</ele>
        <time>2021-09-07T11:54:06.000Z</time>
      </trkpt>
      <trkpt lat="48.24249" lon="1.35128">
        <ele>130.53113</ele>
        <time>2021-09-07T11:54:14.000Z</time>
      </trkpt>
      <trkpt lat="48.2422" lon="1.35152">
        <ele>130.332901</ele>
        <time>2021-09-07T11:54:23.000Z</time>
      </trkpt>
      <trkpt lat="48.24192" lon="1.35175">
        <ele>130.335859</ele>
        <time>2021-09-07T11:54:32.000Z</time>
      </trkpt>
      <trkpt lat="48.24166" lon="1.35197">
        <ele>130.33857</ele>
        <time>2021-09-07T11:54:41.000Z</time>
      </trkpt>
      <trkpt lat="48.24145" lon="1.35215">
        <ele>130.340843</ele>
        <time>2021-09-07T11:54:49.000Z</time>
      </trkpt>
      <trkpt lat="48.24123" lon="1.35235">
        <ele>130.343178</ele>
        <time>2021-09-07T11:54:57.000Z</time>
      </trkpt>
      <trkpt lat="48.24103" lon="1.35256">
        <ele>130.34546</ele>
        <time>2021-09-07T11:55:05.000Z</time>
      </trkpt>
      <trkpt lat="48.24083" lon="1.35283">
        <ele>130.347929</ele>
        <time>2021-09-07T11:55:14.000Z</time>
      </trkpt>
      <trkpt lat="48.24069" lon="1.35303">
        <ele>130.30029</ele>
        <time>2021-09-07T11:55:20.000Z</time>
      </trkpt>
      <trkpt lat="48.24048" lon="1.35331">
        <ele>130.234861</ele>
        <time>2021-09-07T11:55:28.000Z</time>
      </trkpt>
      <trkpt lat="48.24032" lon="1.35353">
        <ele>130.180925</ele>
        <time>2021-09-07T11:55:35.000Z</time>
      </trkpt>
      <trkpt lat="48.24012" lon="1.35372">
        <ele>130.124895</ele>
        <time>2021-09-07T11:55:41.000Z</time>
      </trkpt>
      <trkpt lat="48.23984" lon="1.35398">
        <ele>130.044562</ele>
        <time>2021-09-07T11:55:49.000Z</time>
      </trkpt>
      <trkpt lat="48.2395" lon="1.35434">
        <ele>129.944462</ele>
        <time>2021-09-07T11:55:59.000Z</time>
      </trkpt>
      <trkpt lat="48.23929" lon="1.3547">
        <ele>129.85844</ele>
        <time>2021-09-07T11:56:07.000Z</time>
      </trkpt>
      <trkpt lat="48.23913" lon="1.35503">
        <ele>129.780147</ele>
        <time>2021-09-07T11:56:14.000Z</time>
      </trkpt>
      <trkpt lat="48.23898" lon="1.35543">
        <ele>129.692033</ele>
        <time>2021-09-07T11:56:22.000Z</time>
      </trkpt>
      <trkpt lat="48.23889" lon="1.35585">
        <ele>129.606423</ele>
        <time>2021-09-07T11:56:31.000Z</time>
      </trkpt>
      <trkpt lat="48.2388" lon="1.35626">
        <ele>129.523832</ele>
        <time>2021-09-07T11:56:41.000Z</time>
      </trkpt>
      <trkpt lat="48.23869" lon="1.35659">
        <ele>129.452524</ele>
        <time>2021-09-07T11:56:50.000Z</time>
      </trkpt>
      <trkpt lat="48.23855" lon="1.3569">
        <ele>129.380535</ele>
        <time>2021-09-07T11:56:58.000Z</time>
      </trkpt>
      <trkpt lat="48.23838" lon="1.35725">
        <ele>129.301831</ele>
        <time>2021-09-07T11:57:06.000Z</time>
      </trkpt>
      <trkpt lat="48.23821" lon="1.35755">
        <ele>129.230694</ele>
        <time>2021-09-07T11:57:13.000Z</time>
      </trkpt>
      <trkpt lat="48.23801" lon="1.35792">
        <ele>129.143428</ele>
        <time>2021-09-07T11:57:22.000Z</time>
      </trkpt>
      <trkpt lat="48.23783" lon="1.35824">
        <ele>129.067275</ele>
        <time>2021-09-07T11:57:31.000Z</time>
      </trkpt>
      <trkpt lat="48.2377" lon="1.35849">
        <ele>129.01062</ele>
        <time>2021-09-07T11:57:39.000Z</time>
      </trkpt>
      <trkpt lat="48.23757" lon="1.35872">
        <ele>128.955609</ele>
        <time>2021-09-07T11:57:47.000Z</time>
      </trkpt>
      <trkpt lat="48.23741" lon="1.35899">
        <ele>128.914413</ele>
        <time>2021-09-07T11:57:56.000Z</time>
      </trkpt>
      <trkpt lat="48.23726" lon="1.35925">
        <ele>128.968988</ele>
        <time>2021-09-07T11:58:05.000Z</time>
      </trkpt>
      <trkpt lat="48.23712" lon="1.35947">
        <ele>129.017548</ele>
        <time>2021-09-07T11:58:13.000Z</time>
      </trkpt>
      <trkpt lat="48.23696" lon="1.35971">
        <ele>129.070066</ele>
        <time>2021-09-07T11:58:22.000Z</time>
      </trkpt>
      <trkpt lat="48.23682" lon="1.35995">
        <ele>129.121031</ele>
        <time>2021-09-07T11:58:31.000Z</time>
      </trkpt>
      <trkpt lat="48.2367" lon="1.36013">
        <ele>129.160643</ele>
        <time>2021-09-07T11:58:38.000Z</time>
      </trkpt>
      <trkpt lat="48.23663" lon="1.36027">
        <ele>129.189169</ele>
        <time>2021-09-07T11:58:43.000Z</time>
      </trkpt>
      <trkpt lat="48.23651" lon="1.36051">
        <ele>129.2362</ele>
        <time>2021-09-07T11:58:51.000Z</time>
      </trkpt>
      <trkpt lat="48.23638" lon="1.3608">
        <ele>129.291329</ele>
        <time>2021-09-07T11:59:00.000Z</time>
      </trkpt>
      <trkpt lat="48.23624" lon="1.36112">
        <ele>129.309826</ele>
        <time>2021-09-07T11:59:09.000Z</time>
      </trkpt>
      <trkpt lat="48.23609" lon="1.36143">
        <ele>129.255314</ele>
        <time>2021-09-07T11:59:18.000Z</time>
      </trkpt>
      <trkpt lat="48.23594" lon="1.36177">
        <ele>129.197706</ele>
        <time>2021-09-07T11:59:27.000Z</time>
      </trkpt>
      <trkpt lat="48.23584" lon="1.36203">
        <ele>129.153942</ele>
        <time>2021-09-07T11:59:34.000Z</time>
      </trkpt>
      <trkpt lat="48.23571" lon="1.36236">
        <ele>129.097926</ele>
        <time>2021-09-07T11:59:43.000Z</time>
      </trkpt>
      <trkpt lat="48.23559" lon="1.36268">
        <ele>129.045966</ele>
        <time>2021-09-07T11:59:51.000Z</time>
      </trkpt>
      <trkpt lat="48.23547" lon="1.363">
        <ele>128.992943</ele>
        <time>2021-09-07T11:59:59.000Z</time>
      </trkpt>
      <trkpt lat="48.23535" lon="1.3633">
        <ele>128.943161</ele>
        <time>2021-09-07T12:00:07.000Z</time>
      </trkpt>
      <trkpt lat="48.23526" lon="1.36355">
        <ele>128.859957</ele>
        <time>2021-09-07T12:00:14.000Z</time>
      </trkpt>
      <trkpt lat="48.23514" lon="1.36386">
        <ele>128.758864</ele>
        <time>2021-09-07T12:00:23.000Z</time>
      </trkpt>
      <trkpt lat="48.23506" lon="1.36412">
        <ele>128.677287</ele>
        <time>2021-09-07T12:00:31.000Z</time>
      </trkpt>
      <trkpt lat="48.23496" lon="1.36438">
        <ele>128.592777</ele>
        <time>2021-09-07T12:00:39.000Z</time>
      </trkpt>
      <trkpt lat="48.23485" lon="1.36467">
        <ele>128.496659</ele>
        <time>2021-09-07T12:00:47.000Z</time>
      </trkpt>
      <trkpt lat="48.23477" lon="1.36491">
        <ele>128.417775</ele>
        <time>2021-09-07T12:00:54.000Z</time>
      </trkpt>
      <trkpt lat="48.23469" lon="1.36518">
        <ele>128.334764</ele>
        <time>2021-09-07T12:01:01.000Z</time>
      </trkpt>
      <trkpt lat="48.23461" lon="1.36546">
        <ele>128.245293</ele>
        <time>2021-09-07T12:01:08.000Z</time>
      </trkpt>
      <trkpt lat="48.23454" lon="1.36574">
        <ele>128.16898</ele>
        <time>2021-09-07T12:01:16.000Z</time>
      </trkpt>
      <trkpt lat="48.23447" lon="1.36595">
        <ele>128.170494</ele>
        <time>2021-09-07T12:01:23.000Z</time>
      </trkpt>
      <trkpt lat="48.23445" lon="1.36617">
        <ele>128.172038</ele>
        <time>2021-09-07T12:01:30.000Z</time>
      </trkpt>
      <trkpt lat="48.23442" lon="1.3664">
        <ele>128.173544</ele>
        <time>2021-09-07T12:01:36.000Z</time>
      </trkpt>
      <trkpt lat="48.23439" lon="1.36668">
        <ele>128.175452</ele>
        <time>2021-09-07T12:01:43.000Z</time>
      </trkpt>
      <trkpt lat="48.23437" lon="1.36692">
        <ele>128.177059</ele>
        <time>2021-09-07T12:01:49.000Z</time>
      </trkpt>
      <trkpt lat="48.23433" lon="1.36716">
        <ele>128.178685</ele>
        <time>2021-09-07T12:01:56.000Z</time>
      </trkpt>
      <trkpt lat="48.23426" lon="1.3674">
        <ele>128.180458</ele>
        <time>2021-09-07T12:02:04.000Z</time>
      </trkpt>
      <trkpt lat="48.23419" lon="1.36761">
        <ele>128.182037</ele>
        <time>2021-09-07T12:02:12.000Z</time>
      </trkpt>
      <trkpt lat="48.23409" lon="1.36784">
        <ele>128.183814</ele>
        <time>2021-09-07T12:02:20.000Z</time>
      </trkpt>
      <trkpt lat="48.23392" lon="1.36807">
        <ele>128.186136</ele>
        <time>2021-09-07T12:02:28.000Z</time>
      </trkpt>
      <trkpt lat="48.23371" lon="1.36822">
        <ele>128.098809</ele>
        <time>2021-09-07T12:02:36.000Z</time>
      </trkpt>
      <trkpt lat="48.23343" lon="1.36842">
        <ele>127.94116</ele>
        <time>2021-09-07T12:02:45.000Z</time>
      </trkpt>
      <trkpt lat="48.2331" lon="1.36872">
        <ele>127.743963</ele>
        <time>2021-09-07T12:02:55.000Z</time>
      </trkpt>
      <trkpt lat="48.23295" lon="1.36884">
        <ele>127.657722</ele>
        <time>2021-09-07T12:02:59.000Z</time>
      </trkpt>
      <trkpt lat="48.23287" lon="1.36888">
        <ele>127.615861</ele>
        <time>2021-09-07T12:03:01.000Z</time>
      </trkpt>
      <trkpt lat="48.23272" lon="1.36882">
        <ele>127.535137</ele>
        <time>2021-09-07T12:03:05.000Z</time>
      </trkpt>
      <trkpt lat="48.23247" lon="1.36874">
        <ele>127.404791</ele>
        <time>2021-09-07T12:03:12.000Z</time>
      </trkpt>
      <trkpt lat="48.23226" lon="1.36876">
        <ele>127.29492</ele>
        <time>2021-09-07T12:03:18.000Z</time>
      </trkpt>
      <trkpt lat="48.23207" lon="1.36882">
        <ele>127.19533</ele>
        <time>2021-09-07T12:03:24.000Z</time>
      </trkpt>
      <trkpt lat="48.23189" lon="1.36893">
        <ele>127.0891</ele>
        <time>2021-09-07T12:03:31.000Z</time>
      </trkpt>
      <trkpt lat="48.23163" lon="1.36908">
        <ele>126.944321</ele>
        <time>2021-09-07T12:03:40.000Z</time>
      </trkpt>
      <trkpt lat="48.23146" lon="1.36919">
        <ele>126.842223</ele>
        <time>2021-09-07T12:03:47.000Z</time>
      </trkpt>
      <trkpt lat="48.2313" lon="1.36929">
        <ele>126.751345</ele>
        <time>2021-09-07T12:03:54.000Z</time>
      </trkpt>
      <trkpt lat="48.23107" lon="1.36942">
        <ele>126.622034</ele>
        <time>2021-09-07T12:04:03.000Z</time>
      </trkpt>
      <trkpt lat="48.23089" lon="1.36953">
        <ele>126.514719</ele>
        <time>2021-09-07T12:04:12.000Z</time>
      </trkpt>
      <trkpt lat="48.23073" lon="1.36962">
        <ele>126.426156</ele>
        <time>2021-09-07T12:04:20.000Z</time>
      </trkpt>
      <trkpt lat="48.2306" lon="1.36969">
        <ele>126.353695</ele>
        <time>2021-09-07T12:04:26.000Z</time>
      </trkpt>
      <trkpt lat="48.23046" lon="1.36976">
        <ele>126.275954</ele>
        <time>2021-09-07T12:04:33.000Z</time>
      </trkpt>
      <trkpt lat="48.23031" lon="1.36986">
        <ele>126.194682</ele>
        <time>2021-09-07T12:04:40.000Z</time>
      </trkpt>
      <trkpt lat="48.2301" lon="1.36998">
        <ele>126.086248</ele>
        <time>2021-09-07T12:04:49.000Z</time>
      </trkpt>
      <trkpt lat="48.22997" lon="1.37007">
        <ele>126.011696</ele>
        <time>2021-09-07T12:04:56.000Z</time>
      </trkpt>
      <trkpt lat="48.22983" lon="1.37016">
        <ele>125.937862</ele>
        <time>2021-09-07T12:05:03.000Z</time>
      </trkpt>
      <trkpt lat="48.22966" lon="1.37031">
        <ele>125.840005</ele>
        <time>2021-09-07T12:05:12.000Z</time>
      </trkpt>
      <trkpt lat="48.22956" lon="1.3704">
        <ele>125.78412</ele>
        <time>2021-09-07T12:05:17.000Z</time>
      </trkpt>
      <trkpt lat="48.22948" lon="1.37055">
        <ele>125.720403</ele>
        <time>2021-09-07T12:05:22.000Z</time>
      </trkpt>
      <trkpt lat="48.22945" lon="1.37078">
        <ele>125.645085</ele>
        <time>2021-09-07T12:05:29.000Z</time>
      </trkpt>
      <trkpt lat="48.22942" lon="1.37093">
        <ele>125.593222</ele>
        <time>2021-09-07T12:05:34.000Z</time>
      </trkpt>
      <trkpt lat="48.22936" lon="1.37115">
        <ele>125.513654</ele>
        <time>2021-09-07T12:05:41.000Z</time>
      </trkpt>
      <trkpt lat="48.22932" lon="1.37136">
        <ele>125.442297</ele>
        <time>2021-09-07T12:05:47.000Z</time>
      </trkpt>
      <trkpt lat="48.22925" lon="1.37165">
        <ele>125.444512</ele>
        <time>2021-09-07T12:05:56.000Z</time>
      </trkpt>
      <trkpt lat="48.2292" lon="1.37188">
        <ele>125.467163</ele>
        <time>2021-09-07T12:06:02.000Z</time>
      </trkpt>
      <trkpt lat="48.22914" lon="1.37217">
        <ele>125.496099</ele>
        <time>2021-09-07T12:06:09.000Z</time>
      </trkpt>
      <trkpt lat="48.22909" lon="1.37238">
        <ele>125.516495</ele>
        <time>2021-09-07T12:06:15.000Z</time>
      </trkpt>
      <trkpt lat="48.22904" lon="1.3726">
        <ele>125.53843</ele>
        <time>2021-09-07T12:06:21.000Z</time>
      </trkpt>
      <trkpt lat="48.22901" lon="1.37283">
        <ele>125.559342</ele>
        <time>2021-09-07T12:06:27.000Z</time>
      </trkpt>
      <trkpt lat="48.22893" lon="1.37306">
        <ele>125.583907</ele>
        <time>2021-09-07T12:06:34.000Z</time>
      </trkpt>
      <trkpt lat="48.22889" lon="1.37329">
        <ele>125.605728</ele>
        <time>2021-09-07T12:06:40.000Z</time>
      </trkpt>
      <trkpt lat="48.22884" lon="1.37345">
        <ele>125.621511</ele>
        <time>2021-09-07T12:06:45.000Z</time>
      </trkpt>
      <trkpt lat="48.2288" lon="1.37365">
        <ele>125.641462</ele>
        <time>2021-09-07T12:06:51.000Z</time>
      </trkpt>
      <trkpt lat="48.22875" lon="1.37387">
        <ele>125.66291</ele>
        <time>2021-09-07T12:06:58.000Z</time>
      </trkpt>
      <trkpt lat="48.2287" lon="1.3741">
        <ele>125.58326</ele>
        <time>2021-09-07T12:07:05.000Z</time>
      </trkpt>
      <trkpt lat="48.22865" lon="1.37435">
        <ele>125.399895</ele>
        <time>2021-09-07T12:07:11.000Z</time>
      </trkpt>
      <trkpt lat="48.22858" lon="1.37466">
        <ele>125.176813</ele>
        <time>2021-09-07T12:07:18.000Z</time>
      </trkpt>
      <trkpt lat="48.22855" lon="1.37494">
        <ele>124.984641</ele>
        <time>2021-09-07T12:07:25.000Z</time>
      </trkpt>
      <trkpt lat="48.22853" lon="1.37518">
        <ele>124.816835</ele>
        <time>2021-09-07T12:07:31.000Z</time>
      </trkpt>
      <trkpt lat="48.22852" lon="1.37542">
        <ele>124.652673</ele>
        <time>2021-09-07T12:07:38.000Z</time>
      </trkpt>
      <trkpt lat="48.22848" lon="1.3756">
        <ele>124.525655</ele>
        <time>2021-09-07T12:07:43.000Z</time>
      </trkpt>
      <trkpt lat="48.22844" lon="1.37574">
        <ele>124.416454</ele>
        <time>2021-09-07T12:07:49.000Z</time>
      </trkpt>
      <trkpt lat="48.22838" lon="1.37584">
        <ele>124.330537</ele>
        <time>2021-09-07T12:07:54.000Z</time>
      </trkpt>
      <trkpt lat="48.22838" lon="1.37585">
        <ele>124.323122</ele>
        <time>2021-09-07T12:07:56.000Z</time>
      </trkpt>
      <trkpt lat="48.22838" lon="1.37583">
        <ele>124.309739</ele>
        <time>2021-09-07T12:30:49.000Z</time>
      </trkpt>
      <trkpt lat="48.22839" lon="1.37587">
        <ele>124.280881</ele>
        <time>2021-09-07T12:34:39.000Z</time>
      </trkpt>
      <trkpt lat="48.22838" lon="1.37588">
        <ele>124.270802</ele>
        <time>2021-09-07T12:34:40.000Z</time>
      </trkpt>
      <trkpt lat="48.22837" lon="1.37587">
        <ele>124.254183</ele>
        <time>2021-09-07T12:34:42.000Z</time>
      </trkpt>
      <trkpt lat="48.22836" lon="1.37584">
        <ele>124.228308</ele>
        <time>2021-09-07T12:34:44.000Z</time>
      </trkpt>
      <trkpt lat="48.22836" lon="1.37582">
        <ele>124.215952</ele>
        <time>2021-09-07T12:34:45.000Z</time>
      </trkpt>
      <trkpt lat="48.22835" lon="1.37575">
        <ele>124.170532</ele>
        <time>2021-09-07T12:34:48.000Z</time>
      </trkpt>
      <trkpt lat="48.22836" lon="1.37573">
        <ele>124.152278</ele>
        <time>2021-09-07T12:34:49.000Z</time>
      </trkpt>
      <trkpt lat="48.22842" lon="1.37565">
        <ele>124.07301</ele>
        <time>2021-09-07T12:34:54.000Z</time>
      </trkpt>
      <trkpt lat="48.22839" lon="1.37564">
        <ele>124.040238</ele>
        <time>2021-09-07T12:34:57.000Z</time>
      </trkpt>
      <trkpt lat="48.22827" lon="1.37562">
        <ele>123.91569</ele>
        <time>2021-09-07T12:35:03.000Z</time>
      </trkpt>
      <trkpt lat="48.22817" lon="1.37551">
        <ele>123.843369</ele>
        <time>2021-09-07T12:35:07.000Z</time>
      </trkpt>
      <trkpt lat="48.22805" lon="1.37532">
        <ele>123.958123</ele>
        <time>2021-09-07T12:35:12.000Z</time>
      </trkpt>
      <trkpt lat="48.22789" lon="1.37535">
        <ele>124.059201</ele>
        <time>2021-09-07T12:35:16.000Z</time>
      </trkpt>
      <trkpt lat="48.22761" lon="1.37545">
        <ele>124.245448</ele>
        <time>2021-09-07T12:35:23.000Z</time>
      </trkpt>
      <trkpt lat="48.22737" lon="1.37555">
        <ele>124.407928</ele>
        <time>2021-09-07T12:35:29.000Z</time>
      </trkpt>
      <trkpt lat="48.22707" lon="1.37572">
        <ele>124.616723</ele>
        <time>2021-09-07T12:35:37.000Z</time>
      </trkpt>
      <trkpt lat="48.22685" lon="1.37584">
        <ele>124.763333</ele>
        <time>2021-09-07T12:35:43.000Z</time>
      </trkpt>
      <trkpt lat="48.22656" lon="1.37601">
        <ele>124.966528</ele>
        <time>2021-09-07T12:35:51.000Z</time>
      </trkpt>
      <trkpt lat="48.22637" lon="1.37612">
        <ele>125.025489</ele>
        <time>2021-09-07T12:35:56.000Z</time>
      </trkpt>
      <trkpt lat="48.22627" lon="1.37616">
        <ele>125.046931</ele>
        <time>2021-09-07T12:35:58.000Z</time>
      </trkpt>
      <trkpt lat="48.22591" lon="1.37629">
        <ele>125.131081</ele>
        <time>2021-09-07T12:36:05.000Z</time>
      </trkpt>
      <trkpt lat="48.22554" lon="1.37638">
        <ele>125.217025</ele>
        <time>2021-09-07T12:36:12.000Z</time>
      </trkpt>
      <trkpt lat="48.22511" lon="1.37637">
        <ele>125.31356</ele>
        <time>2021-09-07T12:36:20.000Z</time>
      </trkpt>
      <trkpt lat="48.22496" lon="1.37633">
        <ele>125.349692</ele>
        <time>2021-09-07T12:36:23.000Z</time>
      </trkpt>
      <trkpt lat="48.22479" lon="1.37627">
        <ele>125.387974</ele>
        <time>2021-09-07T12:36:26.000Z</time>
      </trkpt>
      <trkpt lat="48.22435" lon="1.376">
        <ele>125.197711</ele>
        <time>2021-09-07T12:36:34.000Z</time>
      </trkpt>
      <trkpt lat="48.22404" lon="1.37577">
        <ele>125.049639</ele>
        <time>2021-09-07T12:36:40.000Z</time>
      </trkpt>
      <trkpt lat="48.22399" lon="1.37574">
        <ele>125.025714</ele>
        <time>2021-09-07T12:36:41.000Z</time>
      </trkpt>
      <trkpt lat="48.22393" lon="1.37573">
        <ele>125.001867</ele>
        <time>2021-09-07T12:36:42.000Z</time>
      </trkpt>
      <trkpt lat="48.22383" lon="1.37576">
        <ele>124.95665</ele>
        <time>2021-09-07T12:36:44.000Z</time>
      </trkpt>
      <trkpt lat="48.22374" lon="1.37585">
        <ele>124.909908</ele>
        <time>2021-09-07T12:36:46.000Z</time>
      </trkpt>
      <trkpt lat="48.22366" lon="1.37596">
        <ele>124.863215</ele>
        <time>2021-09-07T12:36:48.000Z</time>
      </trkpt>
      <trkpt lat="48.22344" lon="1.37627">
        <ele>124.734031</ele>
        <time>2021-09-07T12:36:54.000Z</time>
      </trkpt>
      <trkpt lat="48.22319" lon="1.3766">
        <ele>124.589577</ele>
        <time>2021-09-07T12:37:01.000Z</time>
      </trkpt>
      <trkpt lat="48.22307" lon="1.37674">
        <ele>124.523951</ele>
        <time>2021-09-07T12:37:04.000Z</time>
      </trkpt>
      <trkpt lat="48.22292" lon="1.37691">
        <ele>124.437391</ele>
        <time>2021-09-07T12:37:08.000Z</time>
      </trkpt>
      <trkpt lat="48.2227" lon="1.37705">
        <ele>124.332081</ele>
        <time>2021-09-07T12:37:13.000Z</time>
      </trkpt>
      <trkpt lat="48.22265" lon="1.37706">
        <ele>124.309834</ele>
        <time>2021-09-07T12:37:14.000Z</time>
      </trkpt>
      <trkpt lat="48.22251" lon="1.37707">
        <ele>124.248372</ele>
        <time>2021-09-07T12:37:17.000Z</time>
      </trkpt>
      <trkpt lat="48.22238" lon="1.37703">
        <ele>124.185967</ele>
        <time>2021-09-07T12:37:20.000Z</time>
      </trkpt>
      <trkpt lat="48.22206" lon="1.37682">
        <ele>124.031944</ele>
        <time>2021-09-07T12:37:27.000Z</time>
      </trkpt>
      <trkpt lat="48.22178" lon="1.37659">
        <ele>123.888048</ele>
        <time>2021-09-07T12:37:34.000Z</time>
      </trkpt>
      <trkpt lat="48.22156" lon="1.3764">
        <ele>123.840861</ele>
        <time>2021-09-07T12:37:40.000Z</time>
      </trkpt>
      <trkpt lat="48.2213" lon="1.37621">
        <ele>123.911701</ele>
        <time>2021-09-07T12:37:46.000Z</time>
      </trkpt>
      <trkpt lat="48.22125" lon="1.3762">
        <ele>123.925189</ele>
        <time>2021-09-07T12:37:47.000Z</time>
      </trkpt>
      <trkpt lat="48.22113" lon="1.3762">
        <ele>123.954082</ele>
        <time>2021-09-07T12:37:49.000Z</time>
      </trkpt>
      <trkpt lat="48.22107" lon="1.37622">
        <ele>123.967595</ele>
        <time>2021-09-07T12:37:50.000Z</time>
      </trkpt>
      <trkpt lat="48.22093" lon="1.37625">
        <ele>124.002662</ele>
        <time>2021-09-07T12:37:53.000Z</time>
      </trkpt>
      <trkpt lat="48.22084" lon="1.37629">
        <ele>124.026096</ele>
        <time>2021-09-07T12:37:55.000Z</time>
      </trkpt>
      <trkpt lat="48.22061" lon="1.37638">
        <ele>124.081824</ele>
        <time>2021-09-07T12:38:00.000Z</time>
      </trkpt>
      <trkpt lat="48.2203" lon="1.3765">
        <ele>124.159993</ele>
        <time>2021-09-07T12:38:07.000Z</time>
      </trkpt>
      <trkpt lat="48.22012" lon="1.37658">
        <ele>124.205419</ele>
        <time>2021-09-07T12:38:12.000Z</time>
      </trkpt>
      <trkpt lat="48.21995" lon="1.37665">
        <ele>124.249779</ele>
        <time>2021-09-07T12:38:16.000Z</time>
      </trkpt>
      <trkpt lat="48.2197" lon="1.37675">
        <ele>124.486723</ele>
        <time>2021-09-07T12:38:21.000Z</time>
      </trkpt>
      <trkpt lat="48.21951" lon="1.37682">
        <ele>124.681344</ele>
        <time>2021-09-07T12:38:25.000Z</time>
      </trkpt>
      <trkpt lat="48.2194" lon="1.37685">
        <ele>124.784923</ele>
        <time>2021-09-07T12:38:27.000Z</time>
      </trkpt>
      <trkpt lat="48.21915" lon="1.37695">
        <ele>125.042252</ele>
        <time>2021-09-07T12:38:32.000Z</time>
      </trkpt>
      <trkpt lat="48.21886" lon="1.37706">
        <ele>125.336161</ele>
        <time>2021-09-07T12:38:38.000Z</time>
      </trkpt>
      <trkpt lat="48.21853" lon="1.37719">
        <ele>125.668756</ele>
        <time>2021-09-07T12:38:45.000Z</time>
      </trkpt>
      <trkpt lat="48.2182" lon="1.37731">
        <ele>125.99592</ele>
        <time>2021-09-07T12:38:52.000Z</time>
      </trkpt>
      <trkpt lat="48.21801" lon="1.3774">
        <ele>125.992178</ele>
        <time>2021-09-07T12:38:56.000Z</time>
      </trkpt>
      <trkpt lat="48.21788" lon="1.37744">
        <ele>125.975032</ele>
        <time>2021-09-07T12:38:59.000Z</time>
      </trkpt>
      <trkpt lat="48.21775" lon="1.37755">
        <ele>125.956005</ele>
        <time>2021-09-07T12:39:03.000Z</time>
      </trkpt>
      <trkpt lat="48.2177" lon="1.37785">
        <ele>125.929409</ele>
        <time>2021-09-07T12:39:08.000Z</time>
      </trkpt>
      <trkpt lat="48.21757" lon="1.37848">
        <ele>125.873498</ele>
        <time>2021-09-07T12:39:18.000Z</time>
      </trkpt>
      <trkpt lat="48.21745" lon="1.37907">
        <ele>125.820709</ele>
        <time>2021-09-07T12:39:27.000Z</time>
      </trkpt>
      <trkpt lat="48.21732" lon="1.37967">
        <ele>125.67163</ele>
        <time>2021-09-07T12:39:36.000Z</time>
      </trkpt>
      <trkpt lat="48.21721" lon="1.38021">
        <ele>125.378343</ele>
        <time>2021-09-07T12:39:44.000Z</time>
      </trkpt>
      <trkpt lat="48.21708" lon="1.38082">
        <ele>125.050127</ele>
        <time>2021-09-07T12:39:53.000Z</time>
      </trkpt>
      <trkpt lat="48.21699" lon="1.38128">
        <ele>124.799911</ele>
        <time>2021-09-07T12:40:00.000Z</time>
      </trkpt>
      <trkpt lat="48.2169" lon="1.38174">
        <ele>124.553544</ele>
        <time>2021-09-07T12:40:07.000Z</time>
      </trkpt>
      <trkpt lat="48.21682" lon="1.3821">
        <ele>124.407199</ele>
        <time>2021-09-07T12:40:13.000Z</time>
      </trkpt>
      <trkpt lat="48.21681" lon="1.38217">
        <ele>124.430433</ele>
        <time>2021-09-07T12:40:14.000Z</time>
      </trkpt>
      <trkpt lat="48.21674" lon="1.38257">
        <ele>124.574924</ele>
        <time>2021-09-07T12:40:21.000Z</time>
      </trkpt>
      <trkpt lat="48.21671" lon="1.38279">
        <ele>124.651813</ele>
        <time>2021-09-07T12:40:26.000Z</time>
      </trkpt>
      <trkpt lat="48.21666" lon="1.38312">
        <ele>124.769296</ele>
        <time>2021-09-07T12:40:32.000Z</time>
      </trkpt>
      <trkpt lat="48.21659" lon="1.38339">
        <ele>124.871018</ele>
        <time>2021-09-07T12:40:37.000Z</time>
      </trkpt>
      <trkpt lat="48.21654" lon="1.3835">
        <ele>124.915426</ele>
        <time>2021-09-07T12:40:39.000Z</time>
      </trkpt>
      <trkpt lat="48.21646" lon="1.38356">
        <ele>124.964785</ele>
        <time>2021-09-07T12:40:41.000Z</time>
      </trkpt>
      <trkpt lat="48.21617" lon="1.38341">
        <ele>125.121071</ele>
        <time>2021-09-07T12:40:48.000Z</time>
      </trkpt>
      <trkpt lat="48.21609" lon="1.38336">
        <ele>125.166505</ele>
        <time>2021-09-07T12:40:50.000Z</time>
      </trkpt>
      <trkpt lat="48.216" lon="1.38335">
        <ele>125.213456</ele>
        <time>2021-09-07T12:40:52.000Z</time>
      </trkpt>
      <trkpt lat="48.21595" lon="1.38336">
        <ele>125.237497</ele>
        <time>2021-09-07T12:40:53.000Z</time>
      </trkpt>
      <trkpt lat="48.21591" lon="1.38338">
        <ele>125.259913</ele>
        <time>2021-09-07T12:40:54.000Z</time>
      </trkpt>
      <trkpt lat="48.21584" lon="1.38344">
        <ele>125.302849</ele>
        <time>2021-09-07T12:40:56.000Z</time>
      </trkpt>
      <trkpt lat="48.2158" lon="1.38347">
        <ele>125.331464</ele>
        <time>2021-09-07T12:40:57.000Z</time>
      </trkpt>
      <trkpt lat="48.21555" lon="1.38373">
        <ele>125.721523</ele>
        <time>2021-09-07T12:41:05.000Z</time>
      </trkpt>
      <trkpt lat="48.21522" lon="1.38396">
        <ele>126.178938</ele>
        <time>2021-09-07T12:41:14.000Z</time>
      </trkpt>
      <trkpt lat="48.21484" lon="1.38405">
        <ele>126.657725</ele>
        <time>2021-09-07T12:41:23.000Z</time>
      </trkpt>
      <trkpt lat="48.21443" lon="1.38406">
        <ele>127.172475</ele>
        <time>2021-09-07T12:41:32.000Z</time>
      </trkpt>
      <trkpt lat="48.21403" lon="1.38406">
        <ele>127.648028</ele>
        <time>2021-09-07T12:41:41.000Z</time>
      </trkpt>
      <trkpt lat="48.21377" lon="1.38406">
        <ele>127.88292</ele>
        <time>2021-09-07T12:41:47.000Z</time>
      </trkpt>
      <trkpt lat="48.21368" lon="1.38406">
        <ele>127.961933</ele>
        <time>2021-09-07T12:41:49.000Z</time>
      </trkpt>
      <trkpt lat="48.21335" lon="1.38406">
        <ele>128.251737</ele>
        <time>2021-09-07T12:41:57.000Z</time>
      </trkpt>
      <trkpt lat="48.21297" lon="1.38406">
        <ele>128.59293</ele>
        <time>2021-09-07T12:42:07.000Z</time>
      </trkpt>
      <trkpt lat="48.21264" lon="1.38405">
        <ele>128.883759</ele>
        <time>2021-09-07T12:42:15.000Z</time>
      </trkpt>
      <trkpt lat="48.2126" lon="1.38404">
        <ele>128.919251</ele>
        <time>2021-09-07T12:42:16.000Z</time>
      </trkpt>
      <trkpt lat="48.21235" lon="1.38403">
        <ele>129.144458</ele>
        <time>2021-09-07T12:42:22.000Z</time>
      </trkpt>
      <trkpt lat="48.21194" lon="1.38402">
        <ele>129.149542</ele>
        <time>2021-09-07T12:42:31.000Z</time>
      </trkpt>
      <trkpt lat="48.21158" lon="1.38399">
        <ele>129.120886</ele>
        <time>2021-09-07T12:42:39.000Z</time>
      </trkpt>
      <trkpt lat="48.21118" lon="1.38393">
        <ele>129.088324</ele>
        <time>2021-09-07T12:42:47.000Z</time>
      </trkpt>
      <trkpt lat="48.21074" lon="1.38382">
        <ele>129.052663</ele>
        <time>2021-09-07T12:42:55.000Z</time>
      </trkpt>
      <trkpt lat="48.21035" lon="1.3837">
        <ele>128.942272</ele>
        <time>2021-09-07T12:43:02.000Z</time>
      </trkpt>
      <trkpt lat="48.20985" lon="1.38356">
        <ele>128.676155</ele>
        <time>2021-09-07T12:43:11.000Z</time>
      </trkpt>
      <trkpt lat="48.20929" lon="1.38341">
        <ele>128.382415</ele>
        <time>2021-09-07T12:43:21.000Z</time>
      </trkpt>
      <trkpt lat="48.20924" lon="1.3834">
        <ele>128.351778</ele>
        <time>2021-09-07T12:43:22.000Z</time>
      </trkpt>
      <trkpt lat="48.20912" lon="1.38337">
        <ele>128.290451</ele>
        <time>2021-09-07T12:43:24.000Z</time>
      </trkpt>
      <trkpt lat="48.20884" lon="1.3833">
        <ele>128.14321</ele>
        <time>2021-09-07T12:43:29.000Z</time>
      </trkpt>
      <trkpt lat="48.20836" lon="1.38317">
        <ele>127.873796</ele>
        <time>2021-09-07T12:43:38.000Z</time>
      </trkpt>
      <trkpt lat="48.20796" lon="1.38309">
        <ele>127.646713</ele>
        <time>2021-09-07T12:43:46.000Z</time>
      </trkpt>
      <trkpt lat="48.20759" lon="1.383">
        <ele>127.43551</ele>
        <time>2021-09-07T12:43:53.000Z</time>
      </trkpt>
      <trkpt lat="48.20711" lon="1.38288">
        <ele>127.161549</ele>
        <time>2021-09-07T12:44:01.000Z</time>
      </trkpt>
      <trkpt lat="48.20676" lon="1.38273">
        <ele>126.881918</ele>
        <time>2021-09-07T12:44:07.000Z</time>
      </trkpt>
      <trkpt lat="48.20631" lon="1.38254">
        <ele>126.474178</ele>
        <time>2021-09-07T12:44:15.000Z</time>
      </trkpt>
      <trkpt lat="48.20594" lon="1.38244">
        <ele>126.137454</ele>
        <time>2021-09-07T12:44:22.000Z</time>
      </trkpt>
      <trkpt lat="48.20559" lon="1.38234">
        <ele>125.824725</ele>
        <time>2021-09-07T12:44:29.000Z</time>
      </trkpt>
      <trkpt lat="48.20554" lon="1.38233">
        <ele>125.783058</ele>
        <time>2021-09-07T12:44:30.000Z</time>
      </trkpt>
      <trkpt lat="48.20546" lon="1.38227">
        <ele>125.70453</ele>
        <time>2021-09-07T12:44:32.000Z</time>
      </trkpt>
      <trkpt lat="48.20542" lon="1.38223">
        <ele>125.662427</ele>
        <time>2021-09-07T12:44:33.000Z</time>
      </trkpt>
      <trkpt lat="48.2054" lon="1.38216">
        <ele>125.618522</ele>
        <time>2021-09-07T12:44:34.000Z</time>
      </trkpt>
      <trkpt lat="48.20535" lon="1.38193">
        <ele>125.483005</ele>
        <time>2021-09-07T12:44:37.000Z</time>
      </trkpt>
      <trkpt lat="48.20527" lon="1.38139">
        <ele>125.268571</ele>
        <time>2021-09-07T12:44:43.000Z</time>
      </trkpt>
      <trkpt lat="48.20516" lon="1.38076">
        <ele>125.014501</ele>
        <time>2021-09-07T12:44:50.000Z</time>
      </trkpt>
      <trkpt lat="48.20507" lon="1.38026">
        <ele>124.812292</ele>
        <time>2021-09-07T12:44:56.000Z</time>
      </trkpt>
      <trkpt lat="48.20503" lon="1.38021">
        <ele>124.780447</ele>
        <time>2021-09-07T12:44:57.000Z</time>
      </trkpt>
      <trkpt lat="48.20497" lon="1.38019">
        <ele>124.747002</ele>
        <time>2021-09-07T12:44:58.000Z</time>
      </trkpt>
      <trkpt lat="48.20486" lon="1.38023">
        <ele>124.677414</ele>
        <time>2021-09-07T12:45:00.000Z</time>
      </trkpt>
      <trkpt lat="48.20446" lon="1.38045">
        <ele>124.459703</ele>
        <time>2021-09-07T12:45:07.000Z</time>
      </trkpt>
      <trkpt lat="48.20404" lon="1.38069">
        <ele>124.6284</ele>
        <time>2021-09-07T12:45:15.000Z</time>
      </trkpt>
      <trkpt lat="48.20372" lon="1.38086">
        <ele>124.754737</ele>
        <time>2021-09-07T12:45:22.000Z</time>
      </trkpt>
      <trkpt lat="48.20353" lon="1.38096">
        <ele>124.828816</ele>
        <time>2021-09-07T12:45:27.000Z</time>
      </trkpt>
      <trkpt lat="48.20334" lon="1.38107">
        <ele>124.907875</ele>
        <time>2021-09-07T12:45:32.000Z</time>
      </trkpt>
      <trkpt lat="48.2032" lon="1.38115">
        <ele>124.964311</ele>
        <time>2021-09-07T12:45:36.000Z</time>
      </trkpt>
      <trkpt lat="48.20304" lon="1.38123">
        <ele>125.023594</ele>
        <time>2021-09-07T12:45:40.000Z</time>
      </trkpt>
      <trkpt lat="48.20301" lon="1.38125">
        <ele>125.038887</ele>
        <time>2021-09-07T12:45:41.000Z</time>
      </trkpt>
      <trkpt lat="48.20281" lon="1.38136">
        <ele>125.115238</ele>
        <time>2021-09-07T12:45:46.000Z</time>
      </trkpt>
      <trkpt lat="48.20262" lon="1.3815">
        <ele>125.18297</ele>
        <time>2021-09-07T12:45:51.000Z</time>
      </trkpt>
      <trkpt lat="48.20232" lon="1.38174">
        <ele>125.286135</ele>
        <time>2021-09-07T12:45:57.000Z</time>
      </trkpt>
      <trkpt lat="48.20204" lon="1.38204">
        <ele>125.393676</ele>
        <time>2021-09-07T12:46:03.000Z</time>
      </trkpt>
      <trkpt lat="48.2017" lon="1.38241">
        <ele>125.521599</ele>
        <time>2021-09-07T12:46:10.000Z</time>
      </trkpt>
      <trkpt lat="48.20123" lon="1.38292">
        <ele>125.660388</ele>
        <time>2021-09-07T12:46:20.000Z</time>
      </trkpt>
      <trkpt lat="48.20098" lon="1.38321">
        <ele>125.617381</ele>
        <time>2021-09-07T12:46:26.000Z</time>
      </trkpt>
      <trkpt lat="48.20093" lon="1.38325">
        <ele>125.610135</ele>
        <time>2021-09-07T12:46:27.000Z</time>
      </trkpt>
      <trkpt lat="48.20061" lon="1.38356">
        <ele>125.558401</ele>
        <time>2021-09-07T12:46:34.000Z</time>
      </trkpt>
      <trkpt lat="48.20034" lon="1.38376">
        <ele>125.518182</ele>
        <time>2021-09-07T12:46:39.000Z</time>
      </trkpt>
      <trkpt lat="48.20029" lon="1.38379">
        <ele>125.509998</ele>
        <time>2021-09-07T12:46:40.000Z</time>
      </trkpt>
      <trkpt lat="48.20023" lon="1.38383">
        <ele>125.501723</ele>
        <time>2021-09-07T12:46:41.000Z</time>
      </trkpt>
      <trkpt lat="48.20013" lon="1.3839">
        <ele>125.486468</ele>
        <time>2021-09-07T12:46:43.000Z</time>
      </trkpt>
      <trkpt lat="48.20007" lon="1.38392">
        <ele>125.479025</ele>
        <time>2021-09-07T12:46:44.000Z</time>
      </trkpt>
      <trkpt lat="48.20002" lon="1.38393">
        <ele>125.471406</ele>
        <time>2021-09-07T12:46:45.000Z</time>
      </trkpt>
      <trkpt lat="48.19991" lon="1.38398">
        <ele>125.456361</ele>
        <time>2021-09-07T12:46:47.000Z</time>
      </trkpt>
      <trkpt lat="48.1996" lon="1.38416">
        <ele>125.450115</ele>
        <time>2021-09-07T12:46:53.000Z</time>
      </trkpt>
      <trkpt lat="48.19933" lon="1.38425">
        <ele>125.493896</ele>
        <time>2021-09-07T12:46:59.000Z</time>
      </trkpt>
      <trkpt lat="48.19897" lon="1.3843">
        <ele>125.550055</ele>
        <time>2021-09-07T12:47:08.000Z</time>
      </trkpt>
      <trkpt lat="48.19861" lon="1.38435">
        <ele>125.606663</ele>
        <time>2021-09-07T12:47:17.000Z</time>
      </trkpt>
      <trkpt lat="48.19828" lon="1.38437">
        <ele>125.658267</ele>
        <time>2021-09-07T12:47:24.000Z</time>
      </trkpt>
      <trkpt lat="48.19798" lon="1.38441">
        <ele>125.705163</ele>
        <time>2021-09-07T12:47:30.000Z</time>
      </trkpt>
      <trkpt lat="48.19756" lon="1.3845">
        <ele>125.606544</ele>
        <time>2021-09-07T12:47:38.000Z</time>
      </trkpt>
      <trkpt lat="48.19713" lon="1.38449">
        <ele>125.49115</ele>
        <time>2021-09-07T12:47:46.000Z</time>
      </trkpt>
      <trkpt lat="48.19665" lon="1.3844">
        <ele>125.361305</ele>
        <time>2021-09-07T12:47:55.000Z</time>
      </trkpt>
      <trkpt lat="48.19608" lon="1.38426">
        <ele>125.191807</ele>
        <time>2021-09-07T12:48:06.000Z</time>
      </trkpt>
      <trkpt lat="48.19599" lon="1.38424">
        <ele>125.151629</ele>
        <time>2021-09-07T12:48:08.000Z</time>
      </trkpt>
      <trkpt lat="48.19579" lon="1.38417">
        <ele>125.058565</ele>
        <time>2021-09-07T12:48:13.000Z</time>
      </trkpt>
      <trkpt lat="48.19571" lon="1.38415">
        <ele>125.020553</ele>
        <time>2021-09-07T12:48:15.000Z</time>
      </trkpt>
      <trkpt lat="48.19562" lon="1.38411">
        <ele>124.981371</ele>
        <time>2021-09-07T12:48:17.000Z</time>
      </trkpt>
      <trkpt lat="48.19558" lon="1.3841">
        <ele>124.959792</ele>
        <time>2021-09-07T12:48:18.000Z</time>
      </trkpt>
      <trkpt lat="48.19523" lon="1.38393">
        <ele>124.7935</ele>
        <time>2021-09-07T12:48:25.000Z</time>
      </trkpt>
      <trkpt lat="48.19467" lon="1.38366">
        <ele>124.529549</ele>
        <time>2021-09-07T12:48:36.000Z</time>
      </trkpt>
      <trkpt lat="48.19462" lon="1.38364">
        <ele>124.507627</ele>
        <time>2021-09-07T12:48:37.000Z</time>
      </trkpt>
      <trkpt lat="48.19453" lon="1.38361">
        <ele>124.464218</ele>
        <time>2021-09-07T12:48:39.000Z</time>
      </trkpt>
      <trkpt lat="48.19428" lon="1.38355">
        <ele>124.463427</ele>
        <time>2021-09-07T12:48:44.000Z</time>
      </trkpt>
      <trkpt lat="48.19389" lon="1.38352">
        <ele>124.583296</ele>
        <time>2021-09-07T12:48:52.000Z</time>
      </trkpt>
      <trkpt lat="48.19352" lon="1.38357">
        <ele>124.695542</ele>
        <time>2021-09-07T12:49:00.000Z</time>
      </trkpt>
      <trkpt lat="48.19331" lon="1.38362">
        <ele>124.761955</ele>
        <time>2021-09-07T12:49:05.000Z</time>
      </trkpt>
      <trkpt lat="48.19322" lon="1.38363">
        <ele>124.789091</ele>
        <time>2021-09-07T12:49:07.000Z</time>
      </trkpt>
      <trkpt lat="48.19317" lon="1.38364">
        <ele>124.802257</ele>
        <time>2021-09-07T12:49:08.000Z</time>
      </trkpt>
      <trkpt lat="48.19271" lon="1.38369">
        <ele>124.944267</ele>
        <time>2021-09-07T12:49:19.000Z</time>
      </trkpt>
      <trkpt lat="48.19221" lon="1.38373">
        <ele>125.238151</ele>
        <time>2021-09-07T12:49:30.000Z</time>
      </trkpt>
      <trkpt lat="48.19181" lon="1.38377">
        <ele>125.497574</ele>
        <time>2021-09-07T12:49:39.000Z</time>
      </trkpt>
      <trkpt lat="48.19139" lon="1.38371">
        <ele>125.771613</ele>
        <time>2021-09-07T12:49:48.000Z</time>
      </trkpt>
      <trkpt lat="48.19098" lon="1.38363">
        <ele>126.037649</ele>
        <time>2021-09-07T12:49:56.000Z</time>
      </trkpt>
      <trkpt lat="48.19058" lon="1.38358">
        <ele>126.274021</ele>
        <time>2021-09-07T12:50:04.000Z</time>
      </trkpt>
      <trkpt lat="48.19034" lon="1.38358">
        <ele>126.412906</ele>
        <time>2021-09-07T12:50:10.000Z</time>
      </trkpt>
      <trkpt lat="48.1902" lon="1.38356">
        <ele>126.498225</ele>
        <time>2021-09-07T12:50:15.000Z</time>
      </trkpt>
      <trkpt lat="48.18996" lon="1.38355">
        <ele>126.633729</ele>
        <time>2021-09-07T12:50:21.000Z</time>
      </trkpt>
      <trkpt lat="48.18962" lon="1.3835">
        <ele>126.830163</ele>
        <time>2021-09-07T12:50:28.000Z</time>
      </trkpt>
      <trkpt lat="48.18918" lon="1.38345">
        <ele>127.089581</ele>
        <time>2021-09-07T12:50:37.000Z</time>
      </trkpt>
      <trkpt lat="48.18874" lon="1.38339">
        <ele>127.200961</ele>
        <time>2021-09-07T12:50:46.000Z</time>
      </trkpt>
      <trkpt lat="48.18847" lon="1.38338">
        <ele>127.235518</ele>
        <time>2021-09-07T12:50:51.000Z</time>
      </trkpt>
      <trkpt lat="48.18807" lon="1.38335">
        <ele>127.286097</ele>
        <time>2021-09-07T12:50:58.000Z</time>
      </trkpt>
      <trkpt lat="48.18765" lon="1.38323">
        <ele>127.339267</ele>
        <time>2021-09-07T12:51:06.000Z</time>
      </trkpt>
      <trkpt lat="48.18729" lon="1.38309">
        <ele>127.386524</ele>
        <time>2021-09-07T12:51:13.000Z</time>
      </trkpt>
      <trkpt lat="48.18681" lon="1.38294">
        <ele>127.144552</ele>
        <time>2021-09-07T12:51:22.000Z</time>
      </trkpt>
      <trkpt lat="48.18653" lon="1.38288">
        <ele>127.002975</ele>
        <time>2021-09-07T12:51:27.000Z</time>
      </trkpt>
      <trkpt lat="48.18647" lon="1.38287">
        <ele>126.973638</ele>
        <time>2021-09-07T12:51:28.000Z</time>
      </trkpt>
      <trkpt lat="48.18612" lon="1.38291">
        <ele>126.798337</ele>
        <time>2021-09-07T12:51:34.000Z</time>
      </trkpt>
      <trkpt lat="48.18564" lon="1.38294">
        <ele>126.550775</ele>
        <time>2021-09-07T12:51:42.000Z</time>
      </trkpt>
      <trkpt lat="48.18525" lon="1.38282">
        <ele>126.265233</ele>
        <time>2021-09-07T12:51:48.000Z</time>
      </trkpt>
      <trkpt lat="48.18486" lon="1.38257">
        <ele>125.912954</ele>
        <time>2021-09-07T12:51:54.000Z</time>
      </trkpt>
      <trkpt lat="48.18453" lon="1.38231">
        <ele>125.59113</ele>
        <time>2021-09-07T12:52:00.000Z</time>
      </trkpt>
      <trkpt lat="48.18423" lon="1.38208">
        <ele>125.309075</ele>
        <time>2021-09-07T12:52:06.000Z</time>
      </trkpt>
      <trkpt lat="48.18417" lon="1.38204">
        <ele>125.258296</ele>
        <time>2021-09-07T12:52:07.000Z</time>
      </trkpt>
      <trkpt lat="48.18384" lon="1.38184">
        <ele>124.959373</ele>
        <time>2021-09-07T12:52:13.000Z</time>
      </trkpt>
      <trkpt lat="48.18351" lon="1.38161">
        <ele>124.873846</ele>
        <time>2021-09-07T12:52:19.000Z</time>
      </trkpt>
      <trkpt lat="48.18347" lon="1.38156">
        <ele>124.860901</ele>
        <time>2021-09-07T12:52:20.000Z</time>
      </trkpt>
      <trkpt lat="48.18339" lon="1.38147">
        <ele>124.837345</ele>
        <time>2021-09-07T12:52:22.000Z</time>
      </trkpt>
      <trkpt lat="48.18335" lon="1.38146">
        <ele>124.826968</ele>
        <time>2021-09-07T12:52:23.000Z</time>
      </trkpt>
      <trkpt lat="48.18331" lon="1.38149">
        <ele>124.817527</ele>
        <time>2021-09-07T12:52:24.000Z</time>
      </trkpt>
      <trkpt lat="48.18329" lon="1.38155">
        <ele>124.806808</ele>
        <time>2021-09-07T12:52:25.000Z</time>
      </trkpt>
      <trkpt lat="48.18319" lon="1.38191">
        <ele>124.744033</ele>
        <time>2021-09-07T12:52:31.000Z</time>
      </trkpt>
      <trkpt lat="48.18303" lon="1.38245">
        <ele>124.650727</ele>
        <time>2021-09-07T12:52:39.000Z</time>
      </trkpt>
      <trkpt lat="48.18289" lon="1.38289">
        <ele>124.573173</ele>
        <time>2021-09-07T12:52:46.000Z</time>
      </trkpt>
      <trkpt lat="48.18276" lon="1.38325">
        <ele>124.47379</ele>
        <time>2021-09-07T12:52:52.000Z</time>
      </trkpt>
      <trkpt lat="48.18267" lon="1.38354">
        <ele>124.352797</ele>
        <time>2021-09-07T12:52:57.000Z</time>
      </trkpt>
      <trkpt lat="48.18253" lon="1.3839">
        <ele>124.192183</ele>
        <time>2021-09-07T12:53:03.000Z</time>
      </trkpt>
      <trkpt lat="48.1825" lon="1.38395">
        <ele>124.164312</ele>
        <time>2021-09-07T12:53:04.000Z</time>
      </trkpt>
      <trkpt lat="48.18236" lon="1.38421">
        <ele>124.037486</ele>
        <time>2021-09-07T12:53:09.000Z</time>
      </trkpt>
      <trkpt lat="48.18222" lon="1.38448">
        <ele>123.906843</ele>
        <time>2021-09-07T12:53:14.000Z</time>
      </trkpt>
      <trkpt lat="48.182" lon="1.38484">
        <ele>123.721126</ele>
        <time>2021-09-07T12:53:21.000Z</time>
      </trkpt>
      <trkpt lat="48.18188" lon="1.38499">
        <ele>123.631555</ele>
        <time>2021-09-07T12:53:24.000Z</time>
      </trkpt>
      <trkpt lat="48.18185" lon="1.38505">
        <ele>123.60347</ele>
        <time>2021-09-07T12:53:25.000Z</time>
      </trkpt>
      <trkpt lat="48.18179" lon="1.38516">
        <ele>123.549056</ele>
        <time>2021-09-07T12:53:27.000Z</time>
      </trkpt>
      <trkpt lat="48.18172" lon="1.38526">
        <ele>123.494354</ele>
        <time>2021-09-07T12:53:29.000Z</time>
      </trkpt>
      <trkpt lat="48.18169" lon="1.38531">
        <ele>123.468512</ele>
        <time>2021-09-07T12:53:30.000Z</time>
      </trkpt>
      <trkpt lat="48.18145" lon="1.38575">
        <ele>123.267519</ele>
        <time>2021-09-07T12:53:38.000Z</time>
      </trkpt>
      <trkpt lat="48.18129" lon="1.38604">
        <ele>123.136195</ele>
        <time>2021-09-07T12:53:44.000Z</time>
      </trkpt>
      <trkpt lat="48.18118" lon="1.38618">
        <ele>123.058785</ele>
        <time>2021-09-07T12:53:49.000Z</time>
      </trkpt>
      <trkpt lat="48.18115" lon="1.38617">
        <ele>123.043607</ele>
        <time>2021-09-07T12:53:50.000Z</time>
      </trkpt>
      <trkpt lat="48.1811" lon="1.38611">
        <ele>123.008008</ele>
        <time>2021-09-07T12:53:52.000Z</time>
      </trkpt>
      <trkpt lat="48.18097" lon="1.38593">
        <ele>122.914184</ele>
        <time>2021-09-07T12:53:56.000Z</time>
      </trkpt>
      <trkpt lat="48.18092" lon="1.38582">
        <ele>122.866322</ele>
        <time>2021-09-07T12:53:58.000Z</time>
      </trkpt>
      <trkpt lat="48.18076" lon="1.38539">
        <ele>122.692624</ele>
        <time>2021-09-07T12:54:05.000Z</time>
      </trkpt>
      <trkpt lat="48.18052" lon="1.38478">
        <ele>122.517094</ele>
        <time>2021-09-07T12:54:14.000Z</time>
      </trkpt>
      <trkpt lat="48.18035" lon="1.38432">
        <ele>122.464842</ele>
        <time>2021-09-07T12:54:21.000Z</time>
      </trkpt>
      <trkpt lat="48.18018" lon="1.3839">
        <ele>122.414628</ele>
        <time>2021-09-07T12:54:28.000Z</time>
      </trkpt>
      <trkpt lat="48.17995" lon="1.38337">
        <ele>122.351862</ele>
        <time>2021-09-07T12:54:35.000Z</time>
      </trkpt>
      <trkpt lat="48.17971" lon="1.38285">
        <ele>122.288513</ele>
        <time>2021-09-07T12:54:42.000Z</time>
      </trkpt>
      <trkpt lat="48.17969" lon="1.38279">
        <ele>122.281089</ele>
        <time>2021-09-07T12:54:43.000Z</time>
      </trkpt>
      <trkpt lat="48.17961" lon="1.38271">
        <ele>122.361524</ele>
        <time>2021-09-07T12:54:45.000Z</time>
      </trkpt>
      <trkpt lat="48.17957" lon="1.38268">
        <ele>122.422334</ele>
        <time>2021-09-07T12:54:46.000Z</time>
      </trkpt>
      <trkpt lat="48.17942" lon="1.38261">
        <ele>122.6345</ele>
        <time>2021-09-07T12:54:50.000Z</time>
      </trkpt>
      <trkpt lat="48.17935" lon="1.38257">
        <ele>122.739306</ele>
        <time>2021-09-07T12:54:52.000Z</time>
      </trkpt>
      <trkpt lat="48.17906" lon="1.38236">
        <ele>123.166659</ele>
        <time>2021-09-07T12:55:01.000Z</time>
      </trkpt>
      <trkpt lat="48.17878" lon="1.38219">
        <ele>123.580005</ele>
        <time>2021-09-07T12:55:10.000Z</time>
      </trkpt>
      <trkpt lat="48.17853" lon="1.38203">
        <ele>123.944749</ele>
        <time>2021-09-07T12:55:17.000Z</time>
      </trkpt>
      <trkpt lat="48.17828" lon="1.38188">
        <ele>124.303242</ele>
        <time>2021-09-07T12:55:24.000Z</time>
      </trkpt>
      <trkpt lat="48.17801" lon="1.38171">
        <ele>124.698236</ele>
        <time>2021-09-07T12:55:31.000Z</time>
      </trkpt>
      <trkpt lat="48.17772" lon="1.38153">
        <ele>124.907636</ele>
        <time>2021-09-07T12:55:38.000Z</time>
      </trkpt>
      <trkpt lat="48.17768" lon="1.38149">
        <ele>124.937209</ele>
        <time>2021-09-07T12:55:39.000Z</time>
      </trkpt>
      <trkpt lat="48.17758" lon="1.38137">
        <ele>125.024521</ele>
        <time>2021-09-07T12:55:42.000Z</time>
      </trkpt>
      <trkpt lat="48.17747" lon="1.38127">
        <ele>125.112951</ele>
        <time>2021-09-07T12:55:45.000Z</time>
      </trkpt>
      <trkpt lat="48.17735" lon="1.38114">
        <ele>125.209347</ele>
        <time>2021-09-07T12:55:48.000Z</time>
      </trkpt>
      <trkpt lat="48.1773" lon="1.3811">
        <ele>125.243428</ele>
        <time>2021-09-07T12:55:49.000Z</time>
      </trkpt>
      <trkpt lat="48.17707" lon="1.38081">
        <ele>125.445707</ele>
        <time>2021-09-07T12:55:55.000Z</time>
      </trkpt>
      <trkpt lat="48.17703" lon="1.38076">
        <ele>125.478193</ele>
        <time>2021-09-07T12:55:56.000Z</time>
      </trkpt>
      <trkpt lat="48.17691" lon="1.38063">
        <ele>125.576922</ele>
        <time>2021-09-07T12:55:59.000Z</time>
      </trkpt>
      <trkpt lat="48.17688" lon="1.38058">
        <ele>125.608612</ele>
        <time>2021-09-07T12:56:00.000Z</time>
      </trkpt>
      <trkpt lat="48.17666" lon="1.38032">
        <ele>125.792667</ele>
        <time>2021-09-07T12:56:06.000Z</time>
      </trkpt>
      <trkpt lat="48.17659" lon="1.38023">
        <ele>125.854456</ele>
        <time>2021-09-07T12:56:08.000Z</time>
      </trkpt>
      <trkpt lat="48.17635" lon="1.38">
        <ele>125.775977</ele>
        <time>2021-09-07T12:56:14.000Z</time>
      </trkpt>
      <trkpt lat="48.17631" lon="1.37996">
        <ele>125.750553</ele>
        <time>2021-09-07T12:56:15.000Z</time>
      </trkpt>
      <trkpt lat="48.17624" lon="1.37987">
        <ele>125.699292</ele>
        <time>2021-09-07T12:56:17.000Z</time>
      </trkpt>
      <trkpt lat="48.17615" lon="1.37981">
        <ele>125.647236</ele>
        <time>2021-09-07T12:56:19.000Z</time>
      </trkpt>
      <trkpt lat="48.17605" lon="1.37974">
        <ele>125.593694</ele>
        <time>2021-09-07T12:56:21.000Z</time>
      </trkpt>
      <trkpt lat="48.1759" lon="1.37968">
        <ele>125.510572</ele>
        <time>2021-09-07T12:56:24.000Z</time>
      </trkpt>
      <trkpt lat="48.1758" lon="1.37966">
        <ele>125.454854</ele>
        <time>2021-09-07T12:56:26.000Z</time>
      </trkpt>
      <trkpt lat="48.17564" lon="1.37966">
        <ele>125.371892</ele>
        <time>2021-09-07T12:56:29.000Z</time>
      </trkpt>
      <trkpt lat="48.17558" lon="1.37968">
        <ele>125.341619</ele>
        <time>2021-09-07T12:56:30.000Z</time>
      </trkpt>
      <trkpt lat="48.17547" lon="1.37973">
        <ele>125.281059</ele>
        <time>2021-09-07T12:56:32.000Z</time>
      </trkpt>
      <trkpt lat="48.17537" lon="1.37978">
        <ele>125.224757</ele>
        <time>2021-09-07T12:56:34.000Z</time>
      </trkpt>
      <trkpt lat="48.17527" lon="1.37981">
        <ele>125.169454</ele>
        <time>2021-09-07T12:56:36.000Z</time>
      </trkpt>
      <trkpt lat="48.17516" lon="1.37979">
        <ele>125.115295</ele>
        <time>2021-09-07T12:56:38.000Z</time>
      </trkpt>
      <trkpt lat="48.17507" lon="1.3797">
        <ele>125.056841</ele>
        <time>2021-09-07T12:56:40.000Z</time>
      </trkpt>
      <trkpt lat="48.17503" lon="1.37963">
        <ele>125.02631</ele>
        <time>2021-09-07T12:56:41.000Z</time>
      </trkpt>
      <trkpt lat="48.17472" lon="1.37908">
        <ele>124.687702</ele>
        <time>2021-09-07T12:56:49.000Z</time>
      </trkpt>
      <trkpt lat="48.17439" lon="1.37851">
        <ele>124.301309</ele>
        <time>2021-09-07T12:56:57.000Z</time>
      </trkpt>
      <trkpt lat="48.1741" lon="1.37802">
        <ele>123.965651</ele>
        <time>2021-09-07T12:57:04.000Z</time>
      </trkpt>
      <trkpt lat="48.17393" lon="1.37773">
        <ele>123.771392</ele>
        <time>2021-09-07T12:57:08.000Z</time>
      </trkpt>
      <trkpt lat="48.17386" lon="1.37758">
        <ele>123.673533</ele>
        <time>2021-09-07T12:57:10.000Z</time>
      </trkpt>
      <trkpt lat="48.17381" lon="1.3775">
        <ele>123.623449</ele>
        <time>2021-09-07T12:57:11.000Z</time>
      </trkpt>
      <trkpt lat="48.17361" lon="1.37715">
        <ele>123.492256</ele>
        <time>2021-09-07T12:57:16.000Z</time>
      </trkpt>
      <trkpt lat="48.17353" lon="1.37701">
        <ele>123.454812</ele>
        <time>2021-09-07T12:57:18.000Z</time>
      </trkpt>
      <trkpt lat="48.17336" lon="1.37677">
        <ele>123.380088</ele>
        <time>2021-09-07T12:57:22.000Z</time>
      </trkpt>
      <trkpt lat="48.17328" lon="1.37665">
        <ele>123.343692</ele>
        <time>2021-09-07T12:57:24.000Z</time>
      </trkpt>
      <trkpt lat="48.17316" lon="1.37647">
        <ele>123.290483</ele>
        <time>2021-09-07T12:57:27.000Z</time>
      </trkpt>
      <trkpt lat="48.1728" lon="1.37596">
        <ele>123.133476</ele>
        <time>2021-09-07T12:57:36.000Z</time>
      </trkpt>
      <trkpt lat="48.17243" lon="1.37548">
        <ele>123.000759</ele>
        <time>2021-09-07T12:57:45.000Z</time>
      </trkpt>
      <trkpt lat="48.17239" lon="1.37543">
        <ele>123.001416</ele>
        <time>2021-09-07T12:57:46.000Z</time>
      </trkpt>
      <trkpt lat="48.17212" lon="1.3751">
        <ele>123.005779</ele>
        <time>2021-09-07T12:57:53.000Z</time>
      </trkpt>
      <trkpt lat="48.17208" lon="1.37506">
        <ele>123.006443</ele>
        <time>2021-09-07T12:57:54.000Z</time>
      </trkpt>
      <trkpt lat="48.17203" lon="1.37501">
        <ele>123.007145</ele>
        <time>2021-09-07T12:57:55.000Z</time>
      </trkpt>
      <trkpt lat="48.17185" lon="1.37482">
        <ele>123.00992</ele>
        <time>2021-09-07T12:57:59.000Z</time>
      </trkpt>
      <trkpt lat="48.17159" lon="1.37461">
        <ele>123.013583</ele>
        <time>2021-09-07T12:58:04.000Z</time>
      </trkpt>
      <trkpt lat="48.17153" lon="1.37457">
        <ele>123.014292</ele>
        <time>2021-09-07T12:58:05.000Z</time>
      </trkpt>
      <trkpt lat="48.17132" lon="1.37436">
        <ele>123.017432</ele>
        <time>2021-09-07T12:58:10.000Z</time>
      </trkpt>
      <trkpt lat="48.17118" lon="1.37425">
        <ele>123.019462</ele>
        <time>2021-09-07T12:58:13.000Z</time>
      </trkpt>
      <trkpt lat="48.17108" lon="1.37415">
        <ele>123.020896</ele>
        <time>2021-09-07T12:58:15.000Z</time>
      </trkpt>
      <trkpt lat="48.17066" lon="1.37388">
        <ele>122.878995</ele>
        <time>2021-09-07T12:58:23.000Z</time>
      </trkpt>
      <trkpt lat="48.17031" lon="1.37376">
        <ele>122.726531</ele>
        <time>2021-09-07T12:58:29.000Z</time>
      </trkpt>
      <trkpt lat="48.16997" lon="1.37364">
        <ele>122.578974</ele>
        <time>2021-09-07T12:58:35.000Z</time>
      </trkpt>
      <trkpt lat="48.16963" lon="1.37353">
        <ele>122.432556</ele>
        <time>2021-09-07T12:58:41.000Z</time>
      </trkpt>
      <trkpt lat="48.1693" lon="1.37345">
        <ele>122.293501</ele>
        <time>2021-09-07T12:58:46.000Z</time>
      </trkpt>
      <trkpt lat="48.16894" lon="1.37338">
        <ele>122.571681</ele>
        <time>2021-09-07T12:58:51.000Z</time>
      </trkpt>
      <trkpt lat="48.16873" lon="1.37336">
        <ele>122.785394</ele>
        <time>2021-09-07T12:58:54.000Z</time>
      </trkpt>
      <trkpt lat="48.16848" lon="1.37335">
        <ele>123.045188</ele>
        <time>2021-09-07T12:58:58.000Z</time>
      </trkpt>
      <trkpt lat="48.16822" lon="1.37331">
        <ele>123.308857</ele>
        <time>2021-09-07T12:59:02.000Z</time>
      </trkpt>
      <trkpt lat="48.16816" lon="1.37332">
        <ele>123.374532</ele>
        <time>2021-09-07T12:59:03.000Z</time>
      </trkpt>
      <trkpt lat="48.16781" lon="1.37329">
        <ele>123.727939</ele>
        <time>2021-09-07T12:59:09.000Z</time>
      </trkpt>
      <trkpt lat="48.1675" lon="1.37328">
        <ele>124.050097</ele>
        <time>2021-09-07T12:59:16.000Z</time>
      </trkpt>
      <trkpt lat="48.16721" lon="1.3733">
        <ele>125.929855</ele>
        <time>2021-09-07T12:59:23.000Z</time>
      </trkpt>
      <trkpt lat="48.16718" lon="1.3733">
        <ele>126.115933</ele>
        <time>2021-09-07T12:59:24.000Z</time>
      </trkpt>
      <trkpt lat="48.16717" lon="1.3733">
        <ele>126.200924</ele>
        <time>2021-09-07T12:59:26.000Z</time>
      </trkpt>
      <trkpt lat="48.16716" lon="1.3733">
        <ele>126.255254</ele>
        <time>2021-09-07T12:59:28.000Z</time>
      </trkpt>
      <trkpt lat="48.16712" lon="1.37324">
        <ele>126.683777</ele>
        <time>2021-09-07T12:59:55.000Z</time>
      </trkpt>
      <trkpt lat="48.16711" lon="1.37324">
        <ele>126.793047</ele>
        <time>2021-09-07T12:59:56.000Z</time>
      </trkpt>
      <trkpt lat="48.167" lon="1.37321">
        <ele>127.635071</ele>
        <time>2021-09-07T13:00:01.000Z</time>
      </trkpt>
      <trkpt lat="48.16681" lon="1.37315">
        <ele>129.180592</ele>
        <time>2021-09-07T13:00:08.000Z</time>
      </trkpt>
      <trkpt lat="48.16664" lon="1.37314">
        <ele>130.466173</ele>
        <time>2021-09-07T13:00:14.000Z</time>
      </trkpt>
      <trkpt lat="48.16649" lon="1.37318">
        <ele>131.669871</ele>
        <time>2021-09-07T13:00:20.000Z</time>
      </trkpt>
      <trkpt lat="48.16641" lon="1.37323">
        <ele>132.33368</ele>
        <time>2021-09-07T13:00:26.000Z</time>
      </trkpt>
      <trkpt lat="48.16634" lon="1.37328">
        <ele>132.889692</ele>
        <time>2021-09-07T13:00:31.000Z</time>
      </trkpt>
      <trkpt lat="48.16623" lon="1.37335">
        <ele>133.846742</ele>
        <time>2021-09-07T13:00:38.000Z</time>
      </trkpt>
      <trkpt lat="48.16616" lon="1.3734">
        <ele>134.3975</ele>
        <time>2021-09-07T13:00:43.000Z</time>
      </trkpt>
      <trkpt lat="48.16611" lon="1.37344">
        <ele>134.869317</ele>
        <time>2021-09-07T13:00:48.000Z</time>
      </trkpt>
      <trkpt lat="48.16548" lon="1.37397">
        <ele>139.556488</ele>
        <time>2021-09-07T13:01:31.000Z</time>
      </trkpt>
      <trkpt lat="48.1654" lon="1.37404">
        <ele>139.963238</ele>
        <time>2021-09-07T13:01:37.000Z</time>
      </trkpt>
      <trkpt lat="48.16536" lon="1.37411">
        <ele>140.26447</ele>
        <time>2021-09-07T13:01:42.000Z</time>
      </trkpt>
      <trkpt lat="48.16529" lon="1.37419">
        <ele>140.708108</ele>
        <time>2021-09-07T13:01:48.000Z</time>
      </trkpt>
      <trkpt lat="48.16523" lon="1.37421">
        <ele>140.967673</ele>
        <time>2021-09-07T13:01:51.000Z</time>
      </trkpt>
      <trkpt lat="48.16521" lon="1.37423">
        <ele>141.112825</ele>
        <time>2021-09-07T13:01:53.000Z</time>
      </trkpt>
      <trkpt lat="48.16509" lon="1.37436">
        <ele>141.801292</ele>
        <time>2021-09-07T13:01:59.000Z</time>
      </trkpt>
      <trkpt lat="48.16505" lon="1.37441">
        <ele>142.084747</ele>
        <time>2021-09-07T13:02:02.000Z</time>
      </trkpt>
      <trkpt lat="48.16503" lon="1.37445">
        <ele>142.23569</ele>
        <time>2021-09-07T13:02:04.000Z</time>
      </trkpt>
      <trkpt lat="48.16502" lon="1.37451">
        <ele>142.446409</ele>
        <time>2021-09-07T13:02:07.000Z</time>
      </trkpt>
      <trkpt lat="48.16499" lon="1.37457">
        <ele>142.649681</ele>
        <time>2021-09-07T13:02:10.000Z</time>
      </trkpt>
      <trkpt lat="48.16489" lon="1.37473">
        <ele>143.378062</ele>
        <time>2021-09-07T13:02:19.000Z</time>
      </trkpt>
      <trkpt lat="48.16479" lon="1.37471">
        <ele>143.832766</ele>
        <time>2021-09-07T13:02:25.000Z</time>
      </trkpt>
      <trkpt lat="48.16468" lon="1.37455">
        <ele>144.583921</ele>
        <time>2021-09-07T13:02:33.000Z</time>
      </trkpt>
      <trkpt lat="48.16462" lon="1.37442">
        <ele>145.097534</ele>
        <time>2021-09-07T13:02:38.000Z</time>
      </trkpt>
      <trkpt lat="48.16451" lon="1.37429">
        <ele>145.772474</ele>
        <time>2021-09-07T13:02:44.000Z</time>
      </trkpt>
      <trkpt lat="48.16445" lon="1.37425">
        <ele>146.108824</ele>
        <time>2021-09-07T13:02:47.000Z</time>
      </trkpt>
      <trkpt lat="48.1644" lon="1.37426">
        <ele>146.334441</ele>
        <time>2021-09-07T13:02:49.000Z</time>
      </trkpt>
      <trkpt lat="48.16422" lon="1.37434">
        <ele>146.662367</ele>
        <time>2021-09-07T13:02:55.000Z</time>
      </trkpt>
      <trkpt lat="48.16398" lon="1.37437">
        <ele>146.631872</ele>
        <time>2021-09-07T13:03:03.000Z</time>
      </trkpt>
      <trkpt lat="48.16368" lon="1.3744">
        <ele>146.595238</ele>
        <time>2021-09-07T13:03:12.000Z</time>
      </trkpt>
      <trkpt lat="48.16342" lon="1.37443">
        <ele>146.562944</ele>
        <time>2021-09-07T13:03:20.000Z</time>
      </trkpt>
      <trkpt lat="48.1632" lon="1.37444">
        <ele>146.536243</ele>
        <time>2021-09-07T13:03:27.000Z</time>
      </trkpt>
      <trkpt lat="48.16301" lon="1.37444">
        <ele>146.512649</ele>
        <time>2021-09-07T13:03:33.000Z</time>
      </trkpt>
      <trkpt lat="48.16281" lon="1.37444">
        <ele>146.487948</ele>
        <time>2021-09-07T13:03:38.000Z</time>
      </trkpt>
      <trkpt lat="48.16274" lon="1.37444">
        <ele>146.478438</ele>
        <time>2021-09-07T13:03:40.000Z</time>
      </trkpt>
      <trkpt lat="48.16246" lon="1.37444">
        <ele>146.432958</ele>
        <time>2021-09-07T13:03:47.000Z</time>
      </trkpt>
      <trkpt lat="48.16223" lon="1.37439">
        <ele>146.369327</ele>
        <time>2021-09-07T13:03:53.000Z</time>
      </trkpt>
      <trkpt lat="48.16178" lon="1.37423">
        <ele>146.245567</ele>
        <time>2021-09-07T13:04:04.000Z</time>
      </trkpt>
      <trkpt lat="48.1615" lon="1.37411">
        <ele>146.167536</ele>
        <time>2021-09-07T13:04:11.000Z</time>
      </trkpt>
      <trkpt lat="48.16119" lon="1.37396">
        <ele>146.079033</ele>
        <time>2021-09-07T13:04:19.000Z</time>
      </trkpt>
      <trkpt lat="48.16088" lon="1.3738">
        <ele>145.99083</ele>
        <time>2021-09-07T13:04:27.000Z</time>
      </trkpt>
      <trkpt lat="48.16061" lon="1.37366">
        <ele>145.847998</ele>
        <time>2021-09-07T13:04:34.000Z</time>
      </trkpt>
      <trkpt lat="48.16037" lon="1.37354">
        <ele>145.706033</ele>
        <time>2021-09-07T13:04:40.000Z</time>
      </trkpt>
      <trkpt lat="48.16011" lon="1.3734">
        <ele>145.546296</ele>
        <time>2021-09-07T13:04:47.000Z</time>
      </trkpt>
      <trkpt lat="48.1597" lon="1.37323">
        <ele>145.302158</ele>
        <time>2021-09-07T13:04:56.000Z</time>
      </trkpt>
      <trkpt lat="48.15965" lon="1.37321">
        <ele>145.273139</ele>
        <time>2021-09-07T13:04:57.000Z</time>
      </trkpt>
      <trkpt lat="48.15941" lon="1.37313">
        <ele>145.130901</ele>
        <time>2021-09-07T13:05:02.000Z</time>
      </trkpt>
      <trkpt lat="48.15902" lon="1.37301">
        <ele>144.893489</ele>
        <time>2021-09-07T13:05:10.000Z</time>
      </trkpt>
      <trkpt lat="48.15862" lon="1.37292">
        <ele>144.614565</ele>
        <time>2021-09-07T13:05:18.000Z</time>
      </trkpt>
      <trkpt lat="48.15822" lon="1.37282">
        <ele>144.337069</ele>
        <time>2021-09-07T13:05:26.000Z</time>
      </trkpt>
      <trkpt lat="48.1578" lon="1.3727">
        <ele>144.044076</ele>
        <time>2021-09-07T13:05:34.000Z</time>
      </trkpt>
      <trkpt lat="48.15737" lon="1.37256">
        <ele>143.743871</ele>
        <time>2021-09-07T13:05:42.000Z</time>
      </trkpt>
      <trkpt lat="48.15715" lon="1.37254">
        <ele>143.581518</ele>
        <time>2021-09-07T13:05:46.000Z</time>
      </trkpt>
      <trkpt lat="48.15704" lon="1.37258">
        <ele>143.498012</ele>
        <time>2021-09-07T13:05:48.000Z</time>
      </trkpt>
      <trkpt lat="48.15681" lon="1.37278">
        <ele>143.291464</ele>
        <time>2021-09-07T13:05:53.000Z</time>
      </trkpt>
      <trkpt lat="48.1566" lon="1.373">
        <ele>143.096355</ele>
        <time>2021-09-07T13:05:58.000Z</time>
      </trkpt>
      <trkpt lat="48.15651" lon="1.37307">
        <ele>143.021818</ele>
        <time>2021-09-07T13:06:00.000Z</time>
      </trkpt>
      <trkpt lat="48.15625" lon="1.37322">
        <ele>142.810831</ele>
        <time>2021-09-07T13:06:06.000Z</time>
      </trkpt>
      <trkpt lat="48.1562" lon="1.37324">
        <ele>142.77645</ele>
        <time>2021-09-07T13:06:07.000Z</time>
      </trkpt>
      <trkpt lat="48.15594" lon="1.37336">
        <ele>142.564065</ele>
        <time>2021-09-07T13:06:13.000Z</time>
      </trkpt>
      <trkpt lat="48.15559" lon="1.37351">
        <ele>142.294989</ele>
        <time>2021-09-07T13:06:20.000Z</time>
      </trkpt>
      <trkpt lat="48.15518" lon="1.3737">
        <ele>142.002932</ele>
        <time>2021-09-07T13:06:28.000Z</time>
      </trkpt>
      <trkpt lat="48.15482" lon="1.37385">
        <ele>141.749532</ele>
        <time>2021-09-07T13:06:35.000Z</time>
      </trkpt>
      <trkpt lat="48.15443" lon="1.37399">
        <ele>141.475452</ele>
        <time>2021-09-07T13:06:42.000Z</time>
      </trkpt>
      <trkpt lat="48.15409" lon="1.37411">
        <ele>141.231685</ele>
        <time>2021-09-07T13:06:49.000Z</time>
      </trkpt>
      <trkpt lat="48.154" lon="1.37413">
        <ele>141.168463</ele>
        <time>2021-09-07T13:06:51.000Z</time>
      </trkpt>
      <trkpt lat="48.15382" lon="1.37415">
        <ele>141.040058</ele>
        <time>2021-09-07T13:06:55.000Z</time>
      </trkpt>
      <trkpt lat="48.15335" lon="1.37417">
        <ele>140.694311</ele>
        <time>2021-09-07T13:07:05.000Z</time>
      </trkpt>
      <trkpt lat="48.15294" lon="1.37419">
        <ele>140.392185</ele>
        <time>2021-09-07T13:07:13.000Z</time>
      </trkpt>
      <trkpt lat="48.15248" lon="1.37412">
        <ele>140.049397</ele>
        <time>2021-09-07T13:07:21.000Z</time>
      </trkpt>
      <trkpt lat="48.15205" lon="1.37411">
        <ele>139.677553</ele>
        <time>2021-09-07T13:07:28.000Z</time>
      </trkpt>
      <trkpt lat="48.15169" lon="1.37411">
        <ele>139.103328</ele>
        <time>2021-09-07T13:07:33.000Z</time>
      </trkpt>
      <trkpt lat="48.15162" lon="1.3741">
        <ele>138.984653</ele>
        <time>2021-09-07T13:07:34.000Z</time>
      </trkpt>
      <trkpt lat="48.15115" lon="1.37407">
        <ele>138.21892</ele>
        <time>2021-09-07T13:07:40.000Z</time>
      </trkpt>
      <trkpt lat="48.15098" lon="1.37407">
        <ele>137.948784</ele>
        <time>2021-09-07T13:07:42.000Z</time>
      </trkpt>
      <trkpt lat="48.15072" lon="1.37402">
        <ele>137.526519</ele>
        <time>2021-09-07T13:07:45.000Z</time>
      </trkpt>
      <trkpt lat="48.15038" lon="1.37397">
        <ele>136.962543</ele>
        <time>2021-09-07T13:07:49.000Z</time>
      </trkpt>
      <trkpt lat="48.15029" lon="1.37398">
        <ele>136.802854</ele>
        <time>2021-09-07T13:07:50.000Z</time>
      </trkpt>
      <trkpt lat="48.15022" lon="1.374">
        <ele>136.59124</ele>
        <time>2021-09-07T13:07:51.000Z</time>
      </trkpt>
      <trkpt lat="48.15007" lon="1.37408">
        <ele>136.179822</ele>
        <time>2021-09-07T13:07:53.000Z</time>
      </trkpt>
      <trkpt lat="48.15" lon="1.37413">
        <ele>135.969434</ele>
        <time>2021-09-07T13:07:54.000Z</time>
      </trkpt>
      <trkpt lat="48.14993" lon="1.3742">
        <ele>135.753039</ele>
        <time>2021-09-07T13:07:55.000Z</time>
      </trkpt>
      <trkpt lat="48.14975" lon="1.37447">
        <ele>135.067465</ele>
        <time>2021-09-07T13:07:58.000Z</time>
      </trkpt>
      <trkpt lat="48.14936" lon="1.37499">
        <ele>133.683889</ele>
        <time>2021-09-07T13:08:04.000Z</time>
      </trkpt>
      <trkpt lat="48.14901" lon="1.37544">
        <ele>132.465038</ele>
        <time>2021-09-07T13:08:10.000Z</time>
      </trkpt>
      <trkpt lat="48.14864" lon="1.37573">
        <ele>131.377926</ele>
        <time>2021-09-07T13:08:16.000Z</time>
      </trkpt>
      <trkpt lat="48.14815" lon="1.37607">
        <ele>129.998189</ele>
        <time>2021-09-07T13:08:24.000Z</time>
      </trkpt>
      <trkpt lat="48.1477" lon="1.37639">
        <ele>128.699818</ele>
        <time>2021-09-07T13:08:32.000Z</time>
      </trkpt>
      <trkpt lat="48.14731" lon="1.37672">
        <ele>127.566824</ele>
        <time>2021-09-07T13:08:40.000Z</time>
      </trkpt>
      <trkpt lat="48.14699" lon="1.37703">
        <ele>127.21917</ele>
        <time>2021-09-07T13:08:48.000Z</time>
      </trkpt>
      <trkpt lat="48.14681" lon="1.37729">
        <ele>127.038476</ele>
        <time>2021-09-07T13:08:53.000Z</time>
      </trkpt>
      <trkpt lat="48.14676" lon="1.37735">
        <ele>126.995655</ele>
        <time>2021-09-07T13:08:54.000Z</time>
      </trkpt>
      <trkpt lat="48.14671" lon="1.37738">
        <ele>126.953226</ele>
        <time>2021-09-07T13:08:55.000Z</time>
      </trkpt>
      <trkpt lat="48.14666" lon="1.37737">
        <ele>126.91658</ele>
        <time>2021-09-07T13:08:56.000Z</time>
      </trkpt>
      <trkpt lat="48.14662" lon="1.37733">
        <ele>126.885125</ele>
        <time>2021-09-07T13:08:57.000Z</time>
      </trkpt>
      <trkpt lat="48.14655" lon="1.37715">
        <ele>126.783318</ele>
        <time>2021-09-07T13:09:01.000Z</time>
      </trkpt>
      <trkpt lat="48.14644" lon="1.37692">
        <ele>126.647973</ele>
        <time>2021-09-07T13:09:09.000Z</time>
      </trkpt>
      <trkpt lat="48.14638" lon="1.37677">
        <ele>126.560263</ele>
        <time>2021-09-07T13:09:16.000Z</time>
      </trkpt>
      <trkpt lat="48.1463" lon="1.3766">
        <ele>126.460087</ele>
        <time>2021-09-07T13:09:23.000Z</time>
      </trkpt>
      <trkpt lat="48.14623" lon="1.37645">
        <ele>126.372024</ele>
        <time>2021-09-07T13:09:29.000Z</time>
      </trkpt>
      <trkpt lat="48.14611" lon="1.37625">
        <ele>126.23861</ele>
        <time>2021-09-07T13:09:38.000Z</time>
      </trkpt>
      <trkpt lat="48.14597" lon="1.37609">
        <ele>126.304573</ele>
        <time>2021-09-07T13:09:47.000Z</time>
      </trkpt>
      <trkpt lat="48.14583" lon="1.37598">
        <ele>126.589077</ele>
        <time>2021-09-07T13:09:54.000Z</time>
      </trkpt>
      <trkpt lat="48.14569" lon="1.37583">
        <ele>126.920028</ele>
        <time>2021-09-07T13:10:02.000Z</time>
      </trkpt>
      <trkpt lat="48.14552" lon="1.37568">
        <ele>127.280877</ele>
        <time>2021-09-07T13:10:09.000Z</time>
      </trkpt>
      <trkpt lat="48.1453" lon="1.37552">
        <ele>127.743634</ele>
        <time>2021-09-07T13:10:17.000Z</time>
      </trkpt>
      <trkpt lat="48.14505" lon="1.37545">
        <ele>128.201677</ele>
        <time>2021-09-07T13:10:25.000Z</time>
      </trkpt>
      <trkpt lat="48.14487" lon="1.37538">
        <ele>128.547861</ele>
        <time>2021-09-07T13:10:31.000Z</time>
      </trkpt>
      <trkpt lat="48.14461" lon="1.37525">
        <ele>129.068869</ele>
        <time>2021-09-07T13:10:39.000Z</time>
      </trkpt>
      <trkpt lat="48.14434" lon="1.37508">
        <ele>129.575382</ele>
        <time>2021-09-07T13:10:47.000Z</time>
      </trkpt>
      <trkpt lat="48.14411" lon="1.3748">
        <ele>129.915596</ele>
        <time>2021-09-07T13:10:55.000Z</time>
      </trkpt>
      <trkpt lat="48.14395" lon="1.37442">
        <ele>130.251033</ele>
        <time>2021-09-07T13:11:03.000Z</time>
      </trkpt>
      <trkpt lat="48.14374" lon="1.37392">
        <ele>130.693868</ele>
        <time>2021-09-07T13:11:13.000Z</time>
      </trkpt>
      <trkpt lat="48.14359" lon="1.37368">
        <ele>130.947189</ele>
        <time>2021-09-07T13:11:19.000Z</time>
      </trkpt>
      <trkpt lat="48.1434" lon="1.37369">
        <ele>131.155879</ele>
        <time>2021-09-07T13:11:24.000Z</time>
      </trkpt>
      <trkpt lat="48.1431" lon="1.37369">
        <ele>131.498589</ele>
        <time>2021-09-07T13:11:31.000Z</time>
      </trkpt>
      <trkpt lat="48.14279" lon="1.37358">
        <ele>131.96756</ele>
        <time>2021-09-07T13:11:38.000Z</time>
      </trkpt>
      <trkpt lat="48.14246" lon="1.37343">
        <ele>132.491146</ele>
        <time>2021-09-07T13:11:46.000Z</time>
      </trkpt>
      <trkpt lat="48.14211" lon="1.37328">
        <ele>133.050124</ele>
        <time>2021-09-07T13:11:55.000Z</time>
      </trkpt>
      <trkpt lat="48.14174" lon="1.37311">
        <ele>133.638113</ele>
        <time>2021-09-07T13:12:05.000Z</time>
      </trkpt>
      <trkpt lat="48.14141" lon="1.37291">
        <ele>134.176562</ele>
        <time>2021-09-07T13:12:14.000Z</time>
      </trkpt>
      <trkpt lat="48.1411" lon="1.37268">
        <ele>134.730023</ele>
        <time>2021-09-07T13:12:23.000Z</time>
      </trkpt>
      <trkpt lat="48.14077" lon="1.37242">
        <ele>135.31768</ele>
        <time>2021-09-07T13:12:32.000Z</time>
      </trkpt>
      <trkpt lat="48.14063" lon="1.37229">
        <ele>135.581679</ele>
        <time>2021-09-07T13:12:36.000Z</time>
      </trkpt>
      <trkpt lat="48.14049" lon="1.37217">
        <ele>135.839052</ele>
        <time>2021-09-07T13:12:40.000Z</time>
      </trkpt>
      <trkpt lat="48.14025" lon="1.37194">
        <ele>136.296131</ele>
        <time>2021-09-07T13:12:48.000Z</time>
      </trkpt>
      <trkpt lat="48.14008" lon="1.37181">
        <ele>136.597342</ele>
        <time>2021-09-07T13:12:53.000Z</time>
      </trkpt>
      <trkpt lat="48.14004" lon="1.37179">
        <ele>136.661378</ele>
        <time>2021-09-07T13:12:54.000Z</time>
      </trkpt>
      <trkpt lat="48.13993" lon="1.37174">
        <ele>136.840944</ele>
        <time>2021-09-07T13:12:57.000Z</time>
      </trkpt>
      <trkpt lat="48.13989" lon="1.37172">
        <ele>136.909209</ele>
        <time>2021-09-07T13:12:58.000Z</time>
      </trkpt>
      <trkpt lat="48.13981" lon="1.37168">
        <ele>137.041463</ele>
        <time>2021-09-07T13:13:00.000Z</time>
      </trkpt>
      <trkpt lat="48.13974" lon="1.37161">
        <ele>137.176397</ele>
        <time>2021-09-07T13:13:02.000Z</time>
      </trkpt>
      <trkpt lat="48.1397" lon="1.37159">
        <ele>137.239765</ele>
        <time>2021-09-07T13:13:03.000Z</time>
      </trkpt>
      <trkpt lat="48.13962" lon="1.37155">
        <ele>137.366501</ele>
        <time>2021-09-07T13:13:05.000Z</time>
      </trkpt>
      <trkpt lat="48.13945" lon="1.37146">
        <ele>137.622824</ele>
        <time>2021-09-07T13:13:09.000Z</time>
      </trkpt>
      <trkpt lat="48.13907" lon="1.37129">
        <ele>138.193754</ele>
        <time>2021-09-07T13:13:18.000Z</time>
      </trkpt>
      <trkpt lat="48.1387" lon="1.37116">
        <ele>138.746736</ele>
        <time>2021-09-07T13:13:27.000Z</time>
      </trkpt>
      <trkpt lat="48.13832" lon="1.37107">
        <ele>139.317361</ele>
        <time>2021-09-07T13:13:37.000Z</time>
      </trkpt>
      <trkpt lat="48.13803" lon="1.37102">
        <ele>139.740246</ele>
        <time>2021-09-07T13:13:45.000Z</time>
      </trkpt>
      <trkpt lat="48.13783" lon="1.37097">
        <ele>139.957549</ele>
        <time>2021-09-07T13:13:51.000Z</time>
      </trkpt>
      <trkpt lat="48.13752" lon="1.37092">
        <ele>140.293979</ele>
        <time>2021-09-07T13:14:00.000Z</time>
      </trkpt>
      <trkpt lat="48.1372" lon="1.37085">
        <ele>140.631563</ele>
        <time>2021-09-07T13:14:09.000Z</time>
      </trkpt>
      <trkpt lat="48.13697" lon="1.37082">
        <ele>140.873771</ele>
        <time>2021-09-07T13:14:15.000Z</time>
      </trkpt>
      <trkpt lat="48.13663" lon="1.37074">
        <ele>141.241085</ele>
        <time>2021-09-07T13:14:24.000Z</time>
      </trkpt>
      <trkpt lat="48.13645" lon="1.37072">
        <ele>141.434248</ele>
        <time>2021-09-07T13:14:29.000Z</time>
      </trkpt>
      <trkpt lat="48.13616" lon="1.37064">
        <ele>141.688512</ele>
        <time>2021-09-07T13:14:36.000Z</time>
      </trkpt>
      <trkpt lat="48.13589" lon="1.37053">
        <ele>141.750689</ele>
        <time>2021-09-07T13:14:43.000Z</time>
      </trkpt>
      <trkpt lat="48.13546" lon="1.37028">
        <ele>141.850543</ele>
        <time>2021-09-07T13:14:53.000Z</time>
      </trkpt>
      <trkpt lat="48.13516" lon="1.37002">
        <ele>141.926576</ele>
        <time>2021-09-07T13:15:00.000Z</time>
      </trkpt>
      <trkpt lat="48.13484" lon="1.3697">
        <ele>142.009781</ele>
        <time>2021-09-07T13:15:08.000Z</time>
      </trkpt>
      <trkpt lat="48.13457" lon="1.36941">
        <ele>142.055705</ele>
        <time>2021-09-07T13:15:15.000Z</time>
      </trkpt>
      <trkpt lat="48.13429" lon="1.36909">
        <ele>141.997108</ele>
        <time>2021-09-07T13:15:23.000Z</time>
      </trkpt>
      <trkpt lat="48.13406" lon="1.36881">
        <ele>141.94908</ele>
        <time>2021-09-07T13:15:30.000Z</time>
      </trkpt>
      <trkpt lat="48.13381" lon="1.36841">
        <ele>141.888504</ele>
        <time>2021-09-07T13:15:38.000Z</time>
      </trkpt>
      <trkpt lat="48.13354" lon="1.36798">
        <ele>141.823915</ele>
        <time>2021-09-07T13:15:46.000Z</time>
      </trkpt>
      <trkpt lat="48.13347" lon="1.36786">
        <ele>141.806521</ele>
        <time>2021-09-07T13:15:48.000Z</time>
      </trkpt>
      <trkpt lat="48.13338" lon="1.36777">
        <ele>141.789269</ele>
        <time>2021-09-07T13:15:50.000Z</time>
      </trkpt>
      <trkpt lat="48.13334" lon="1.36772">
        <ele>141.780768</ele>
        <time>2021-09-07T13:15:51.000Z</time>
      </trkpt>
      <trkpt lat="48.13319" lon="1.36756">
        <ele>141.661188</ele>
        <time>2021-09-07T13:15:55.000Z</time>
      </trkpt>
      <trkpt lat="48.1331" lon="1.36749">
        <ele>141.577299</ele>
        <time>2021-09-07T13:15:57.000Z</time>
      </trkpt>
      <trkpt lat="48.13287" lon="1.36735">
        <ele>141.374924</ele>
        <time>2021-09-07T13:16:02.000Z</time>
      </trkpt>
      <trkpt lat="48.13283" lon="1.36733">
        <ele>141.337833</ele>
        <time>2021-09-07T13:16:03.000Z</time>
      </trkpt>
      <trkpt lat="48.13262" lon="1.36721">
        <ele>141.156778</ele>
        <time>2021-09-07T13:16:08.000Z</time>
      </trkpt>
      <trkpt lat="48.13258" lon="1.36718">
        <ele>141.119297</ele>
        <time>2021-09-07T13:16:09.000Z</time>
      </trkpt>
      <trkpt lat="48.13235" lon="1.36706">
        <ele>140.923454</ele>
        <time>2021-09-07T13:16:14.000Z</time>
      </trkpt>
      <trkpt lat="48.13214" lon="1.36692">
        <ele>140.73076</ele>
        <time>2021-09-07T13:16:19.000Z</time>
      </trkpt>
      <trkpt lat="48.13209" lon="1.3669">
        <ele>140.692934</ele>
        <time>2021-09-07T13:16:20.000Z</time>
      </trkpt>
      <trkpt lat="48.13191" lon="1.36679">
        <ele>140.528378</ele>
        <time>2021-09-07T13:16:24.000Z</time>
      </trkpt>
      <trkpt lat="48.1318" lon="1.36674">
        <ele>140.44102</ele>
        <time>2021-09-07T13:16:26.000Z</time>
      </trkpt>
      <trkpt lat="48.1317" lon="1.36669">
        <ele>140.351277</ele>
        <time>2021-09-07T13:16:28.000Z</time>
      </trkpt>
      <trkpt lat="48.1315" lon="1.3666">
        <ele>139.955995</ele>
        <time>2021-09-07T13:16:32.000Z</time>
      </trkpt>
      <trkpt lat="48.13126" lon="1.36647">
        <ele>139.352232</ele>
        <time>2021-09-07T13:16:37.000Z</time>
      </trkpt>
      <trkpt lat="48.13087" lon="1.36626">
        <ele>138.38958</ele>
        <time>2021-09-07T13:16:44.000Z</time>
      </trkpt>
      <trkpt lat="48.13075" lon="1.36621">
        <ele>138.087877</ele>
        <time>2021-09-07T13:16:46.000Z</time>
      </trkpt>
      <trkpt lat="48.13063" lon="1.36616">
        <ele>137.801062</ele>
        <time>2021-09-07T13:16:48.000Z</time>
      </trkpt>
      <trkpt lat="48.13058" lon="1.36612">
        <ele>137.659776</ele>
        <time>2021-09-07T13:16:49.000Z</time>
      </trkpt>
      <trkpt lat="48.13047" lon="1.36603">
        <ele>137.370628</ele>
        <time>2021-09-07T13:16:51.000Z</time>
      </trkpt>
      <trkpt lat="48.13043" lon="1.36596">
        <ele>137.232676</ele>
        <time>2021-09-07T13:16:52.000Z</time>
      </trkpt>
      <trkpt lat="48.13036" lon="1.36582">
        <ele>136.953155</ele>
        <time>2021-09-07T13:16:54.000Z</time>
      </trkpt>
      <trkpt lat="48.13029" lon="1.3657">
        <ele>136.705079</ele>
        <time>2021-09-07T13:16:56.000Z</time>
      </trkpt>
      <trkpt lat="48.13026" lon="1.36566">
        <ele>136.592739</ele>
        <time>2021-09-07T13:16:57.000Z</time>
      </trkpt>
      <trkpt lat="48.13021" lon="1.36563">
        <ele>136.480657</ele>
        <time>2021-09-07T13:16:58.000Z</time>
      </trkpt>
      <trkpt lat="48.13009" lon="1.36566">
        <ele>136.199942</ele>
        <time>2021-09-07T13:17:00.000Z</time>
      </trkpt>
      <trkpt lat="48.12977" lon="1.36569">
        <ele>135.211343</ele>
        <time>2021-09-07T13:17:04.000Z</time>
      </trkpt>
      <trkpt lat="48.12929" lon="1.36574">
        <ele>133.651968</ele>
        <time>2021-09-07T13:17:09.000Z</time>
      </trkpt>
      <trkpt lat="48.12908" lon="1.3658">
        <ele>132.958835</ele>
        <time>2021-09-07T13:17:11.000Z</time>
      </trkpt>
      <trkpt lat="48.12886" lon="1.36589">
        <ele>132.2158</ele>
        <time>2021-09-07T13:17:13.000Z</time>
      </trkpt>
      <trkpt lat="48.12844" lon="1.36615">
        <ele>130.761759</ele>
        <time>2021-09-07T13:17:17.000Z</time>
      </trkpt>
      <trkpt lat="48.12809" lon="1.36638">
        <ele>129.419805</ele>
        <time>2021-09-07T13:17:21.000Z</time>
      </trkpt>
      <trkpt lat="48.12802" lon="1.36643">
        <ele>129.112257</ele>
        <time>2021-09-07T13:17:22.000Z</time>
      </trkpt>
      <trkpt lat="48.12778" lon="1.36651">
        <ele>128.175653</ele>
        <time>2021-09-07T13:17:25.000Z</time>
      </trkpt>
      <trkpt lat="48.1274" lon="1.36655">
        <ele>126.757216</ele>
        <time>2021-09-07T13:17:30.000Z</time>
      </trkpt>
      <trkpt lat="48.12719" lon="1.36656">
        <ele>125.96664</ele>
        <time>2021-09-07T13:17:33.000Z</time>
      </trkpt>
      <trkpt lat="48.12705" lon="1.36655">
        <ele>125.439466</ele>
        <time>2021-09-07T13:17:35.000Z</time>
      </trkpt>
      <trkpt lat="48.12674" lon="1.3665">
        <ele>124.275862</ele>
        <time>2021-09-07T13:17:40.000Z</time>
      </trkpt>
      <trkpt lat="48.12662" lon="1.36646">
        <ele>123.793588</ele>
        <time>2021-09-07T13:17:42.000Z</time>
      </trkpt>
      <trkpt lat="48.12657" lon="1.3664">
        <ele>123.570184</ele>
        <time>2021-09-07T13:17:43.000Z</time>
      </trkpt>
      <trkpt lat="48.12656" lon="1.36622">
        <ele>123.130391</ele>
        <time>2021-09-07T13:17:45.000Z</time>
      </trkpt>
      <trkpt lat="48.12659" lon="1.36603">
        <ele>122.683054</ele>
        <time>2021-09-07T13:17:47.000Z</time>
      </trkpt>
      <trkpt lat="48.12659" lon="1.36585">
        <ele>122.266718</ele>
        <time>2021-09-07T13:17:49.000Z</time>
      </trkpt>
      <trkpt lat="48.12657" lon="1.36578">
        <ele>122.080194</ele>
        <time>2021-09-07T13:17:50.000Z</time>
      </trkpt>
      <trkpt lat="48.12654" lon="1.36572">
        <ele>121.915041</ele>
        <time>2021-09-07T13:17:51.000Z</time>
      </trkpt>
      <trkpt lat="48.12647" lon="1.36566">
        <ele>121.651497</ele>
        <time>2021-09-07T13:17:53.000Z</time>
      </trkpt>
      <trkpt lat="48.12632" lon="1.36564">
        <ele>121.137527</ele>
        <time>2021-09-07T13:17:57.000Z</time>
      </trkpt>
      <trkpt lat="48.12628" lon="1.36564">
        <ele>120.994686</ele>
        <time>2021-09-07T13:17:58.000Z</time>
      </trkpt>
      <trkpt lat="48.12624" lon="1.36564">
        <ele>120.855173</ele>
        <time>2021-09-07T13:17:59.000Z</time>
      </trkpt>
      <trkpt lat="48.12616" lon="1.36563">
        <ele>120.571637</ele>
        <time>2021-09-07T13:18:01.000Z</time>
      </trkpt>
      <trkpt lat="48.12609" lon="1.36563">
        <ele>120.310285</ele>
        <time>2021-09-07T13:18:03.000Z</time>
      </trkpt>
      <trkpt lat="48.12594" lon="1.3656">
        <ele>119.787182</ele>
        <time>2021-09-07T13:18:07.000Z</time>
      </trkpt>
      <trkpt lat="48.1259" lon="1.36558">
        <ele>119.633845</ele>
        <time>2021-09-07T13:18:08.000Z</time>
      </trkpt>
      <trkpt lat="48.12585" lon="1.36555">
        <ele>119.465446</ele>
        <time>2021-09-07T13:18:09.000Z</time>
      </trkpt>
      <trkpt lat="48.1257" lon="1.36545">
        <ele>118.885545</ele>
        <time>2021-09-07T13:18:12.000Z</time>
      </trkpt>
      <trkpt lat="48.12553" lon="1.36544">
        <ele>118.282458</ele>
        <time>2021-09-07T13:18:15.000Z</time>
      </trkpt>
      <trkpt lat="48.12547" lon="1.36545">
        <ele>118.075349</ele>
        <time>2021-09-07T13:18:16.000Z</time>
      </trkpt>
      <trkpt lat="48.12506" lon="1.36557">
        <ele>116.968779</ele>
        <time>2021-09-07T13:18:23.000Z</time>
      </trkpt>
      <trkpt lat="48.12475" lon="1.36566">
        <ele>116.493736</ele>
        <time>2021-09-07T13:18:29.000Z</time>
      </trkpt>
      <trkpt lat="48.12441" lon="1.36576">
        <ele>115.982949</ele>
        <time>2021-09-07T13:18:36.000Z</time>
      </trkpt>
      <trkpt lat="48.12418" lon="1.36582">
        <ele>115.645886</ele>
        <time>2021-09-07T13:18:41.000Z</time>
      </trkpt>
      <trkpt lat="48.1241" lon="1.36582">
        <ele>115.523224</ele>
        <time>2021-09-07T13:18:43.000Z</time>
      </trkpt>
      <trkpt lat="48.12406" lon="1.3658">
        <ele>115.457979</ele>
        <time>2021-09-07T13:18:44.000Z</time>
      </trkpt>
      <trkpt lat="48.12402" lon="1.36578">
        <ele>115.391894</ele>
        <time>2021-09-07T13:18:45.000Z</time>
      </trkpt>
      <trkpt lat="48.12387" lon="1.36565">
        <ele>115.143153</ele>
        <time>2021-09-07T13:18:49.000Z</time>
      </trkpt>
      <trkpt lat="48.12365" lon="1.36541">
        <ele>114.729644</ele>
        <time>2021-09-07T13:18:57.000Z</time>
      </trkpt>
      <trkpt lat="48.1234" lon="1.36528">
        <ele>114.80685</ele>
        <time>2021-09-07T13:19:06.000Z</time>
      </trkpt>
      <trkpt lat="48.12316" lon="1.36526">
        <ele>115.226263</ele>
        <time>2021-09-07T13:19:15.000Z</time>
      </trkpt>
      <trkpt lat="48.12292" lon="1.36525">
        <ele>115.651813</ele>
        <time>2021-09-07T13:19:25.000Z</time>
      </trkpt>
      <trkpt lat="48.12272" lon="1.36527">
        <ele>116.003133</ele>
        <time>2021-09-07T13:19:34.000Z</time>
      </trkpt>
      <trkpt lat="48.12254" lon="1.36526">
        <ele>116.300349</ele>
        <time>2021-09-07T13:19:42.000Z</time>
      </trkpt>
      <trkpt lat="48.12239" lon="1.36526">
        <ele>116.574762</ele>
        <time>2021-09-07T13:19:49.000Z</time>
      </trkpt>
      <trkpt lat="48.12221" lon="1.36524">
        <ele>116.884335</ele>
        <time>2021-09-07T13:19:57.000Z</time>
      </trkpt>
      <trkpt lat="48.122" lon="1.36524">
        <ele>117.240422</ele>
        <time>2021-09-07T13:20:06.000Z</time>
      </trkpt>
      <trkpt lat="48.12181" lon="1.36525">
        <ele>117.575749</ele>
        <time>2021-09-07T13:20:14.000Z</time>
      </trkpt>
      <trkpt lat="48.12162" lon="1.36528">
        <ele>117.940275</ele>
        <time>2021-09-07T13:20:21.000Z</time>
      </trkpt>
      <trkpt lat="48.1214" lon="1.36536">
        <ele>118.397288</ele>
        <time>2021-09-07T13:20:28.000Z</time>
      </trkpt>
      <trkpt lat="48.12119" lon="1.36544">
        <ele>118.831612</ele>
        <time>2021-09-07T13:20:35.000Z</time>
      </trkpt>
      <trkpt lat="48.12098" lon="1.36554">
        <ele>119.281683</ele>
        <time>2021-09-07T13:20:43.000Z</time>
      </trkpt>
      <trkpt lat="48.12079" lon="1.36564">
        <ele>119.68257</ele>
        <time>2021-09-07T13:20:50.000Z</time>
      </trkpt>
      <trkpt lat="48.12058" lon="1.36572">
        <ele>120.110858</ele>
        <time>2021-09-07T13:20:56.000Z</time>
      </trkpt>
      <trkpt lat="48.1203" lon="1.36584">
        <ele>120.703056</ele>
        <time>2021-09-07T13:21:04.000Z</time>
      </trkpt>
      <trkpt lat="48.12002" lon="1.36596">
        <ele>121.271411</ele>
        <time>2021-09-07T13:21:11.000Z</time>
      </trkpt>
      <trkpt lat="48.11969" lon="1.36613">
        <ele>121.399872</ele>
        <time>2021-09-07T13:21:19.000Z</time>
      </trkpt>
      <trkpt lat="48.11932" lon="1.3664">
        <ele>121.532551</ele>
        <time>2021-09-07T13:21:27.000Z</time>
      </trkpt>
      <trkpt lat="48.11899" lon="1.36665">
        <ele>121.652197</ele>
        <time>2021-09-07T13:21:34.000Z</time>
      </trkpt>
      <trkpt lat="48.11865" lon="1.36687">
        <ele>121.77415</ele>
        <time>2021-09-07T13:21:41.000Z</time>
      </trkpt>
      <trkpt lat="48.11828" lon="1.36705">
        <ele>121.882521</ele>
        <time>2021-09-07T13:21:49.000Z</time>
      </trkpt>
      <trkpt lat="48.11795" lon="1.3672">
        <ele>121.930264</ele>
        <time>2021-09-07T13:21:57.000Z</time>
      </trkpt>
      <trkpt lat="48.11751" lon="1.36741">
        <ele>121.992514</ele>
        <time>2021-09-07T13:22:06.000Z</time>
      </trkpt>
      <trkpt lat="48.11716" lon="1.36768">
        <ele>122.045943</ele>
        <time>2021-09-07T13:22:14.000Z</time>
      </trkpt>
      <trkpt lat="48.1169" lon="1.36803">
        <ele>122.093836</ele>
        <time>2021-09-07T13:22:21.000Z</time>
      </trkpt>
      <trkpt lat="48.11665" lon="1.3684">
        <ele>122.098448</ele>
        <time>2021-09-07T13:22:28.000Z</time>
      </trkpt>
      <trkpt lat="48.11653" lon="1.36858">
        <ele>122.081822</ele>
        <time>2021-09-07T13:22:32.000Z</time>
      </trkpt>
      <trkpt lat="48.11647" lon="1.36866">
        <ele>122.074038</ele>
        <time>2021-09-07T13:22:34.000Z</time>
      </trkpt>
      <trkpt lat="48.11623" lon="1.369">
        <ele>122.042683</ele>
        <time>2021-09-07T13:22:43.000Z</time>
      </trkpt>
      <trkpt lat="48.116" lon="1.36934">
        <ele>122.011803</ele>
        <time>2021-09-07T13:22:52.000Z</time>
      </trkpt>
      <trkpt lat="48.11579" lon="1.36968">
        <ele>121.982391</ele>
        <time>2021-09-07T13:23:00.000Z</time>
      </trkpt>
      <trkpt lat="48.11567" lon="1.36994">
        <ele>121.962336</ele>
        <time>2021-09-07T13:23:05.000Z</time>
      </trkpt>
      <trkpt lat="48.11563" lon="1.37005">
        <ele>121.954305</ele>
        <time>2021-09-07T13:23:07.000Z</time>
      </trkpt>
      <trkpt lat="48.11558" lon="1.37021">
        <ele>121.924167</ele>
        <time>2021-09-07T13:23:10.000Z</time>
      </trkpt>
      <trkpt lat="48.11555" lon="1.3704">
        <ele>121.753858</ele>
        <time>2021-09-07T13:23:13.000Z</time>
      </trkpt>
      <trkpt lat="48.11557" lon="1.37079">
        <ele>121.396035</ele>
        <time>2021-09-07T13:23:20.000Z</time>
      </trkpt>
      <trkpt lat="48.11559" lon="1.37119">
        <ele>121.034943</ele>
        <time>2021-09-07T13:23:27.000Z</time>
      </trkpt>
      <trkpt lat="48.1156" lon="1.37138">
        <ele>120.872085</ele>
        <time>2021-09-07T13:23:30.000Z</time>
      </trkpt>
      <trkpt lat="48.11555" lon="1.37149">
        <ele>120.747889</ele>
        <time>2021-09-07T13:23:32.000Z</time>
      </trkpt>
      <trkpt lat="48.11544" lon="1.3715">
        <ele>120.603596</ele>
        <time>2021-09-07T13:23:34.000Z</time>
      </trkpt>
      <trkpt lat="48.11506" lon="1.37136">
        <ele>120.085401</ele>
        <time>2021-09-07T13:23:40.000Z</time>
      </trkpt>
      <trkpt lat="48.11499" lon="1.37135">
        <ele>119.985561</ele>
        <time>2021-09-07T13:23:41.000Z</time>
      </trkpt>
      <trkpt lat="48.11483" lon="1.37139">
        <ele>119.767984</ele>
        <time>2021-09-07T13:23:43.000Z</time>
      </trkpt>
      <trkpt lat="48.11442" lon="1.37162">
        <ele>119.04864</ele>
        <time>2021-09-07T13:23:48.000Z</time>
      </trkpt>
      <trkpt lat="48.11408" lon="1.37182">
        <ele>118.406567</ele>
        <time>2021-09-07T13:23:52.000Z</time>
      </trkpt>
      <trkpt lat="48.11399" lon="1.37184">
        <ele>118.239864</ele>
        <time>2021-09-07T13:23:53.000Z</time>
      </trkpt>
      <trkpt lat="48.11364" lon="1.37188">
        <ele>117.597673</ele>
        <time>2021-09-07T13:23:57.000Z</time>
      </trkpt>
      <trkpt lat="48.11323" lon="1.37199">
        <ele>116.844212</ele>
        <time>2021-09-07T13:24:02.000Z</time>
      </trkpt>
      <trkpt lat="48.11288" lon="1.37208">
        <ele>116.203071</ele>
        <time>2021-09-07T13:24:07.000Z</time>
      </trkpt>
      <trkpt lat="48.11281" lon="1.3721">
        <ele>116.081542</ele>
        <time>2021-09-07T13:24:08.000Z</time>
      </trkpt>
      <trkpt lat="48.11255" lon="1.37216">
        <ele>115.59191</ele>
        <time>2021-09-07T13:24:12.000Z</time>
      </trkpt>
      <trkpt lat="48.11217" lon="1.37225">
        <ele>114.868386</ele>
        <time>2021-09-07T13:24:18.000Z</time>
      </trkpt>
      <trkpt lat="48.11205" lon="1.37229">
        <ele>114.648683</ele>
        <time>2021-09-07T13:24:20.000Z</time>
      </trkpt>
      <trkpt lat="48.11188" lon="1.37231">
        <ele>114.321466</ele>
        <time>2021-09-07T13:24:23.000Z</time>
      </trkpt>
      <trkpt lat="48.11148" lon="1.3723">
        <ele>113.574476</ele>
        <time>2021-09-07T13:24:30.000Z</time>
      </trkpt>
      <trkpt lat="48.11108" lon="1.37228">
        <ele>112.932489</ele>
        <time>2021-09-07T13:24:37.000Z</time>
      </trkpt>
      <trkpt lat="48.11096" lon="1.37227">
        <ele>112.937429</ele>
        <time>2021-09-07T13:24:39.000Z</time>
      </trkpt>
      <trkpt lat="48.11073" lon="1.37222">
        <ele>112.947433</ele>
        <time>2021-09-07T13:24:43.000Z</time>
      </trkpt>
      <trkpt lat="48.11035" lon="1.37208">
        <ele>112.963513</ele>
        <time>2021-09-07T13:24:50.000Z</time>
      </trkpt>
      <trkpt lat="48.11018" lon="1.37199">
        <ele>112.970989</ele>
        <time>2021-09-07T13:24:54.000Z</time>
      </trkpt>
      <trkpt lat="48.11005" lon="1.37192">
        <ele>112.976675</ele>
        <time>2021-09-07T13:24:57.000Z</time>
      </trkpt>
      <trkpt lat="48.10983" lon="1.37181">
        <ele>112.98667</ele>
        <time>2021-09-07T13:25:03.000Z</time>
      </trkpt>
      <trkpt lat="48.10967" lon="1.37173">
        <ele>112.993655</ele>
        <time>2021-09-07T13:25:09.000Z</time>
      </trkpt>
      <trkpt lat="48.10958" lon="1.37168">
        <ele>112.997668</ele>
        <time>2021-09-07T13:25:15.000Z</time>
      </trkpt>
      <trkpt lat="48.10954" lon="1.3716">
        <ele>113.000468</ele>
        <time>2021-09-07T13:25:20.000Z</time>
      </trkpt>
      <trkpt lat="48.10952" lon="1.37155">
        <ele>113.002167</ele>
        <time>2021-09-07T13:25:23.000Z</time>
      </trkpt>
      <trkpt lat="48.10949" lon="1.37151">
        <ele>113.003684</ele>
        <time>2021-09-07T13:25:25.000Z</time>
      </trkpt>
      <trkpt lat="48.10945" lon="1.37145">
        <ele>113.077268</ele>
        <time>2021-09-07T13:25:28.000Z</time>
      </trkpt>
      <trkpt lat="48.10942" lon="1.3714">
        <ele>113.310283</ele>
        <time>2021-09-07T13:25:30.000Z</time>
      </trkpt>
      <trkpt lat="48.1093" lon="1.37123">
        <ele>114.165936</ele>
        <time>2021-09-07T13:25:39.000Z</time>
      </trkpt>
      <trkpt lat="48.10923" lon="1.37112">
        <ele>114.65191</ele>
        <time>2021-09-07T13:25:45.000Z</time>
      </trkpt>
      <trkpt lat="48.10913" lon="1.37097">
        <ele>115.378864</ele>
        <time>2021-09-07T13:25:54.000Z</time>
      </trkpt>
      <trkpt lat="48.10903" lon="1.3708">
        <ele>116.163688</ele>
        <time>2021-09-07T13:26:04.000Z</time>
      </trkpt>
      <trkpt lat="48.10894" lon="1.37067">
        <ele>116.798138</ele>
        <time>2021-09-07T13:26:12.000Z</time>
      </trkpt>
      <trkpt lat="48.1088" lon="1.37054">
        <ele>117.617379</ele>
        <time>2021-09-07T13:26:21.000Z</time>
      </trkpt>
      <trkpt lat="48.10869" lon="1.37044">
        <ele>118.294624</ele>
        <time>2021-09-07T13:26:29.000Z</time>
      </trkpt>
      <trkpt lat="48.10858" lon="1.37033">
        <ele>118.954116</ele>
        <time>2021-09-07T13:26:37.000Z</time>
      </trkpt>
      <trkpt lat="48.10847" lon="1.37021">
        <ele>119.638993</ele>
        <time>2021-09-07T13:26:45.000Z</time>
      </trkpt>
      <trkpt lat="48.10835" lon="1.3701">
        <ele>120.377465</ele>
        <time>2021-09-07T13:26:53.000Z</time>
      </trkpt>
      <trkpt lat="48.10822" lon="1.36995">
        <ele>121.217247</ele>
        <time>2021-09-07T13:27:01.000Z</time>
      </trkpt>
      <trkpt lat="48.10808" lon="1.36978">
        <ele>122.11164</ele>
        <time>2021-09-07T13:27:08.000Z</time>
      </trkpt>
      <trkpt lat="48.10792" lon="1.3696">
        <ele>122.8121</ele>
        <time>2021-09-07T13:27:16.000Z</time>
      </trkpt>
      <trkpt lat="48.10773" lon="1.36937">
        <ele>123.627288</ele>
        <time>2021-09-07T13:27:25.000Z</time>
      </trkpt>
      <trkpt lat="48.10761" lon="1.36922">
        <ele>124.166079</ele>
        <time>2021-09-07T13:27:31.000Z</time>
      </trkpt>
      <trkpt lat="48.10742" lon="1.36901">
        <ele>124.960533</ele>
        <time>2021-09-07T13:27:39.000Z</time>
      </trkpt>
      <trkpt lat="48.10724" lon="1.36884">
        <ele>125.646695</ele>
        <time>2021-09-07T13:27:46.000Z</time>
      </trkpt>
      <trkpt lat="48.10707" lon="1.36887">
        <ele>126.222268</ele>
        <time>2021-09-07T13:27:52.000Z</time>
      </trkpt>
      <trkpt lat="48.10699" lon="1.36887">
        <ele>126.483831</ele>
        <time>2021-09-07T13:27:55.000Z</time>
      </trkpt>
      <trkpt lat="48.10696" lon="1.36885">
        <ele>126.603854</ele>
        <time>2021-09-07T13:27:56.000Z</time>
      </trkpt>
      <trkpt lat="48.10688" lon="1.36868">
        <ele>127.072288</ele>
        <time>2021-09-07T13:28:00.000Z</time>
      </trkpt>
      <trkpt lat="48.10685" lon="1.36837">
        <ele>127.782779</ele>
        <time>2021-09-07T13:28:05.000Z</time>
      </trkpt>
      <trkpt lat="48.10683" lon="1.3683">
        <ele>127.93228</ele>
        <time>2021-09-07T13:28:06.000Z</time>
      </trkpt>
      <trkpt lat="48.10672" lon="1.36793">
        <ele>128.371796</ele>
        <time>2021-09-07T13:28:12.000Z</time>
      </trkpt>
      <trkpt lat="48.1067" lon="1.36788">
        <ele>128.414222</ele>
        <time>2021-09-07T13:28:13.000Z</time>
      </trkpt>
      <trkpt lat="48.10664" lon="1.36771">
        <ele>128.538665</ele>
        <time>2021-09-07T13:28:16.000Z</time>
      </trkpt>
      <trkpt lat="48.10658" lon="1.36761">
        <ele>128.625169</ele>
        <time>2021-09-07T13:28:18.000Z</time>
      </trkpt>
      <trkpt lat="48.10642" lon="1.36728">
        <ele>128.886316</ele>
        <time>2021-09-07T13:28:24.000Z</time>
      </trkpt>
      <trkpt lat="48.1064" lon="1.36722">
        <ele>128.92919</ele>
        <time>2021-09-07T13:28:25.000Z</time>
      </trkpt>
      <trkpt lat="48.10627" lon="1.36693">
        <ele>129.158564</ele>
        <time>2021-09-07T13:28:30.000Z</time>
      </trkpt>
      <trkpt lat="48.10618" lon="1.36667">
        <ele>129.344552</ele>
        <time>2021-09-07T13:28:34.000Z</time>
      </trkpt>
      <trkpt lat="48.10614" lon="1.36654">
        <ele>129.435724</ele>
        <time>2021-09-07T13:28:36.000Z</time>
      </trkpt>
      <trkpt lat="48.10604" lon="1.36604">
        <ele>129.772689</ele>
        <time>2021-09-07T13:28:43.000Z</time>
      </trkpt>
      <trkpt lat="48.10595" lon="1.36535">
        <ele>130.033913</ele>
        <time>2021-09-07T13:28:52.000Z</time>
      </trkpt>
      <trkpt lat="48.10589" lon="1.36475">
        <ele>130.176189</ele>
        <time>2021-09-07T13:29:00.000Z</time>
      </trkpt>
      <trkpt lat="48.10583" lon="1.3643">
        <ele>130.286289</ele>
        <time>2021-09-07T13:29:06.000Z</time>
      </trkpt>
      <trkpt lat="48.10569" lon="1.3637">
        <ele>130.436426</ele>
        <time>2021-09-07T13:29:14.000Z</time>
      </trkpt>
      <trkpt lat="48.10561" lon="1.36348">
        <ele>130.495453</ele>
        <time>2021-09-07T13:29:17.000Z</time>
      </trkpt>
      <trkpt lat="48.10556" lon="1.36333">
        <ele>130.534807</ele>
        <time>2021-09-07T13:29:19.000Z</time>
      </trkpt>
      <trkpt lat="48.10536" lon="1.36283">
        <ele>130.523476</ele>
        <time>2021-09-07T13:29:26.000Z</time>
      </trkpt>
      <trkpt lat="48.10509" lon="1.36224">
        <ele>130.468436</ele>
        <time>2021-09-07T13:29:34.000Z</time>
      </trkpt>
      <trkpt lat="48.1048" lon="1.3616">
        <ele>130.409031</ele>
        <time>2021-09-07T13:29:43.000Z</time>
      </trkpt>
      <trkpt lat="48.10456" lon="1.361">
        <ele>130.355135</ele>
        <time>2021-09-07T13:29:51.000Z</time>
      </trkpt>
      <trkpt lat="48.10437" lon="1.36054">
        <ele>130.207405</ele>
        <time>2021-09-07T13:29:56.000Z</time>
      </trkpt>
      <trkpt lat="48.10418" lon="1.3601">
        <ele>130.058285</ele>
        <time>2021-09-07T13:30:00.000Z</time>
      </trkpt>
      <trkpt lat="48.10415" lon="1.35997">
        <ele>130.019224</ele>
        <time>2021-09-07T13:30:01.000Z</time>
      </trkpt>
      <trkpt lat="48.10412" lon="1.35985">
        <ele>129.981092</ele>
        <time>2021-09-07T13:30:02.000Z</time>
      </trkpt>
      <trkpt lat="48.10408" lon="1.35949">
        <ele>129.879033</ele>
        <time>2021-09-07T13:30:05.000Z</time>
      </trkpt>
      <trkpt lat="48.10406" lon="1.35903">
        <ele>129.747059</ele>
        <time>2021-09-07T13:30:10.000Z</time>
      </trkpt>
      <trkpt lat="48.10396" lon="1.35826">
        <ele>129.742626</ele>
        <time>2021-09-07T13:30:19.000Z</time>
      </trkpt>
      <trkpt lat="48.10384" lon="1.35777">
        <ele>130.136209</ele>
        <time>2021-09-07T13:30:26.000Z</time>
      </trkpt>
      <trkpt lat="48.10368" lon="1.35718">
        <ele>130.612875</ele>
        <time>2021-09-07T13:30:36.000Z</time>
      </trkpt>
      <trkpt lat="48.10351" lon="1.35652">
        <ele>131.135869</ele>
        <time>2021-09-07T13:30:48.000Z</time>
      </trkpt>
      <trkpt lat="48.10338" lon="1.35594">
        <ele>131.593595</ele>
        <time>2021-09-07T13:30:58.000Z</time>
      </trkpt>
      <trkpt lat="48.10316" lon="1.35525">
        <ele>132.14832</ele>
        <time>2021-09-07T13:31:10.000Z</time>
      </trkpt>
      <trkpt lat="48.10299" lon="1.35487">
        <ele>132.483724</ele>
        <time>2021-09-07T13:31:17.000Z</time>
      </trkpt>
      <trkpt lat="48.10293" lon="1.35476">
        <ele>132.587615</ele>
        <time>2021-09-07T13:31:19.000Z</time>
      </trkpt>
      <trkpt lat="48.10264" lon="1.35431">
        <ele>133.043287</ele>
        <time>2021-09-07T13:31:27.000Z</time>
      </trkpt>
      <trkpt lat="48.10236" lon="1.35394">
        <ele>133.447079</ele>
        <time>2021-09-07T13:31:34.000Z</time>
      </trkpt>
      <trkpt lat="48.10202" lon="1.35355">
        <ele>133.755931</ele>
        <time>2021-09-07T13:31:42.000Z</time>
      </trkpt>
      <trkpt lat="48.10172" lon="1.35323">
        <ele>133.982059</ele>
        <time>2021-09-07T13:31:49.000Z</time>
      </trkpt>
      <trkpt lat="48.10132" lon="1.35285">
        <ele>134.277218</ele>
        <time>2021-09-07T13:31:58.000Z</time>
      </trkpt>
      <trkpt lat="48.10086" lon="1.35245">
        <ele>134.607988</ele>
        <time>2021-09-07T13:32:07.000Z</time>
      </trkpt>
      <trkpt lat="48.10041" lon="1.3521">
        <ele>134.665489</ele>
        <time>2021-09-07T13:32:15.000Z</time>
      </trkpt>
      <trkpt lat="48.10008" lon="1.35188">
        <ele>134.666151</ele>
        <time>2021-09-07T13:32:21.000Z</time>
      </trkpt>
      <trkpt lat="48.09956" lon="1.3515">
        <ele>134.667172</ele>
        <time>2021-09-07T13:32:30.000Z</time>
      </trkpt>
      <trkpt lat="48.09911" lon="1.3511">
        <ele>134.663183</ele>
        <time>2021-09-07T13:32:38.000Z</time>
      </trkpt>
      <trkpt lat="48.09873" lon="1.35069">
        <ele>134.633393</ele>
        <time>2021-09-07T13:32:45.000Z</time>
      </trkpt>
      <trkpt lat="48.09826" lon="1.35011">
        <ele>134.595138</ele>
        <time>2021-09-07T13:32:54.000Z</time>
      </trkpt>
      <trkpt lat="48.09821" lon="1.35005">
        <ele>134.591006</ele>
        <time>2021-09-07T13:32:55.000Z</time>
      </trkpt>
      <trkpt lat="48.09796" lon="1.34974">
        <ele>134.570305</ele>
        <time>2021-09-07T13:33:00.000Z</time>
      </trkpt>
      <trkpt lat="48.09751" lon="1.34918">
        <ele>134.697715</ele>
        <time>2021-09-07T13:33:09.000Z</time>
      </trkpt>
      <trkpt lat="48.09736" lon="1.34901">
        <ele>134.779801</ele>
        <time>2021-09-07T13:33:12.000Z</time>
      </trkpt>
      <trkpt lat="48.09696" lon="1.3486">
        <ele>134.989144</ele>
        <time>2021-09-07T13:33:20.000Z</time>
      </trkpt>
      <trkpt lat="48.09662" lon="1.34834">
        <ele>135.154276</ele>
        <time>2021-09-07T13:33:27.000Z</time>
      </trkpt>
      <trkpt lat="48.09622" lon="1.34808">
        <ele>135.369102</ele>
        <time>2021-09-07T13:33:36.000Z</time>
      </trkpt>
      <trkpt lat="48.09579" lon="1.34787">
        <ele>135.996817</ele>
        <time>2021-09-07T13:33:45.000Z</time>
      </trkpt>
      <trkpt lat="48.09555" lon="1.34778">
        <ele>136.347981</ele>
        <time>2021-09-07T13:33:50.000Z</time>
      </trkpt>
      <trkpt lat="48.09546" lon="1.34775">
        <ele>136.480915</ele>
        <time>2021-09-07T13:33:52.000Z</time>
      </trkpt>
      <trkpt lat="48.09511" lon="1.34764">
        <ele>136.978731</ele>
        <time>2021-09-07T13:34:01.000Z</time>
      </trkpt>
      <trkpt lat="48.09481" lon="1.34755">
        <ele>137.402032</ele>
        <time>2021-09-07T13:34:10.000Z</time>
      </trkpt>
      <trkpt lat="48.09455" lon="1.34747">
        <ele>137.779342</ele>
        <time>2021-09-07T13:34:18.000Z</time>
      </trkpt>
      <trkpt lat="48.09434" lon="1.34742">
        <ele>137.902035</ele>
        <time>2021-09-07T13:34:24.000Z</time>
      </trkpt>
      <trkpt lat="48.09403" lon="1.34732">
        <ele>137.988652</ele>
        <time>2021-09-07T13:34:32.000Z</time>
      </trkpt>
      <trkpt lat="48.09372" lon="1.34721">
        <ele>138.078677</ele>
        <time>2021-09-07T13:34:39.000Z</time>
      </trkpt>
      <trkpt lat="48.09342" lon="1.34707">
        <ele>138.163446</ele>
        <time>2021-09-07T13:34:44.000Z</time>
      </trkpt>
      <trkpt lat="48.0933" lon="1.347">
        <ele>138.201654</ele>
        <time>2021-09-07T13:34:46.000Z</time>
      </trkpt>
      <trkpt lat="48.0931" lon="1.34686">
        <ele>138.260921</ele>
        <time>2021-09-07T13:34:49.000Z</time>
      </trkpt>
      <trkpt lat="48.09278" lon="1.3466">
        <ele>138.356956</ele>
        <time>2021-09-07T13:34:54.000Z</time>
      </trkpt>
      <trkpt lat="48.09265" lon="1.3465">
        <ele>138.361265</ele>
        <time>2021-09-07T13:34:56.000Z</time>
      </trkpt>
      <trkpt lat="48.09228" lon="1.34623">
        <ele>138.37384</ele>
        <time>2021-09-07T13:35:02.000Z</time>
      </trkpt>
      <trkpt lat="48.0919" lon="1.346">
        <ele>138.386018</ele>
        <time>2021-09-07T13:35:08.000Z</time>
      </trkpt>
      <trkpt lat="48.09172" lon="1.3459">
        <ele>138.39189</ele>
        <time>2021-09-07T13:35:11.000Z</time>
      </trkpt>
      <trkpt lat="48.09154" lon="1.34582">
        <ele>138.397535</ele>
        <time>2021-09-07T13:35:14.000Z</time>
      </trkpt>
      <trkpt lat="48.09127" lon="1.34567">
        <ele>138.406159</ele>
        <time>2021-09-07T13:35:19.000Z</time>
      </trkpt>
      <trkpt lat="48.09122" lon="1.34562">
        <ele>138.407849</ele>
        <time>2021-09-07T13:35:20.000Z</time>
      </trkpt>
      <trkpt lat="48.09103" lon="1.34545">
        <ele>138.423035</ele>
        <time>2021-09-07T13:35:24.000Z</time>
      </trkpt>
      <trkpt lat="48.09098" lon="1.3454">
        <ele>138.427972</ele>
        <time>2021-09-07T13:35:25.000Z</time>
      </trkpt>
      <trkpt lat="48.09079" lon="1.34522">
        <ele>138.447974</ele>
        <time>2021-09-07T13:35:29.000Z</time>
      </trkpt>
      <trkpt lat="48.09055" lon="1.345">
        <ele>138.473504</ele>
        <time>2021-09-07T13:35:34.000Z</time>
      </trkpt>
      <trkpt lat="48.09045" lon="1.34492">
        <ele>138.483993</ele>
        <time>2021-09-07T13:35:36.000Z</time>
      </trkpt>
      <trkpt lat="48.09015" lon="1.34466">
        <ele>138.514313</ele>
        <time>2021-09-07T13:35:42.000Z</time>
      </trkpt>
      <trkpt lat="48.08985" lon="1.34438">
        <ele>138.546378</ele>
        <time>2021-09-07T13:35:49.000Z</time>
      </trkpt>
      <trkpt lat="48.0896" lon="1.34413">
        <ele>138.568114</ele>
        <time>2021-09-07T13:35:55.000Z</time>
      </trkpt>
      <trkpt lat="48.08944" lon="1.34397">
        <ele>138.544547</ele>
        <time>2021-09-07T13:35:59.000Z</time>
      </trkpt>
      <trkpt lat="48.08936" lon="1.34388">
        <ele>138.532211</ele>
        <time>2021-09-07T13:36:01.000Z</time>
      </trkpt>
      <trkpt lat="48.08911" lon="1.34359">
        <ele>138.493905</ele>
        <time>2021-09-07T13:36:07.000Z</time>
      </trkpt>
      <trkpt lat="48.08906" lon="1.34353">
        <ele>138.487127</ele>
        <time>2021-09-07T13:36:08.000Z</time>
      </trkpt>
      <trkpt lat="48.08887" lon="1.34323">
        <ele>138.452538</ele>
        <time>2021-09-07T13:36:13.000Z</time>
      </trkpt>
      <trkpt lat="48.08883" lon="1.34317">
        <ele>138.445764</ele>
        <time>2021-09-07T13:36:14.000Z</time>
      </trkpt>
      <trkpt lat="48.08853" lon="1.3427">
        <ele>138.39372</ele>
        <time>2021-09-07T13:36:21.000Z</time>
      </trkpt>
      <trkpt lat="48.08815" lon="1.3421">
        <ele>138.283388</ele>
        <time>2021-09-07T13:36:29.000Z</time>
      </trkpt>
      <trkpt lat="48.0878" lon="1.34157">
        <ele>138.1229</ele>
        <time>2021-09-07T13:36:36.000Z</time>
      </trkpt>
      <trkpt lat="48.08737" lon="1.34101">
        <ele>137.939566</ele>
        <time>2021-09-07T13:36:44.000Z</time>
      </trkpt>
      <trkpt lat="48.08696" lon="1.34053">
        <ele>137.768815</ele>
        <time>2021-09-07T13:36:51.000Z</time>
      </trkpt>
      <trkpt lat="48.08656" lon="1.34007">
        <ele>137.465732</ele>
        <time>2021-09-07T13:36:58.000Z</time>
      </trkpt>
      <trkpt lat="48.08636" lon="1.33976">
        <ele>137.290397</ele>
        <time>2021-09-07T13:37:02.000Z</time>
      </trkpt>
      <trkpt lat="48.08632" lon="1.33967">
        <ele>137.24613</ele>
        <time>2021-09-07T13:37:03.000Z</time>
      </trkpt>
      <trkpt lat="48.08628" lon="1.33957">
        <ele>137.201435</ele>
        <time>2021-09-07T13:37:04.000Z</time>
      </trkpt>
      <trkpt lat="48.0862" lon="1.33926">
        <ele>137.068921</ele>
        <time>2021-09-07T13:37:07.000Z</time>
      </trkpt>
      <trkpt lat="48.08617" lon="1.33916">
        <ele>137.025051</ele>
        <time>2021-09-07T13:37:08.000Z</time>
      </trkpt>
      <trkpt lat="48.08609" lon="1.33901">
        <ele>136.943934</ele>
        <time>2021-09-07T13:37:10.000Z</time>
      </trkpt>
      <trkpt lat="48.08596" lon="1.33895">
        <ele>136.862014</ele>
        <time>2021-09-07T13:37:12.000Z</time>
      </trkpt>
      <trkpt lat="48.08589" lon="1.33895">
        <ele>136.820867</ele>
        <time>2021-09-07T13:37:13.000Z</time>
      </trkpt>
      <trkpt lat="48.08582" lon="1.33895">
        <ele>136.780412</ele>
        <time>2021-09-07T13:37:14.000Z</time>
      </trkpt>
      <trkpt lat="48.08558" lon="1.339">
        <ele>136.590689</ele>
        <time>2021-09-07T13:37:18.000Z</time>
      </trkpt>
      <trkpt lat="48.08541" lon="1.33906">
        <ele>136.410602</ele>
        <time>2021-09-07T13:37:21.000Z</time>
      </trkpt>
      <trkpt lat="48.08531" lon="1.33912">
        <ele>136.299184</ele>
        <time>2021-09-07T13:37:23.000Z</time>
      </trkpt>
      <trkpt lat="48.08525" lon="1.33923">
        <ele>136.19565</ele>
        <time>2021-09-07T13:37:25.000Z</time>
      </trkpt>
      <trkpt lat="48.08521" lon="1.33936">
        <ele>136.098059</ele>
        <time>2021-09-07T13:37:27.000Z</time>
      </trkpt>
      <trkpt lat="48.08519" lon="1.33942">
        <ele>136.050716</ele>
        <time>2021-09-07T13:37:28.000Z</time>
      </trkpt>
      <trkpt lat="48.08514" lon="1.33954">
        <ele>135.953375</ele>
        <time>2021-09-07T13:37:30.000Z</time>
      </trkpt>
      <trkpt lat="48.08509" lon="1.33958">
        <ele>135.901163</ele>
        <time>2021-09-07T13:37:31.000Z</time>
      </trkpt>
      <trkpt lat="48.08505" lon="1.3396">
        <ele>135.848005</ele>
        <time>2021-09-07T13:37:32.000Z</time>
      </trkpt>
      <trkpt lat="48.08494" lon="1.33958">
        <ele>135.738147</ele>
        <time>2021-09-07T13:37:34.000Z</time>
      </trkpt>
      <trkpt lat="48.08461" lon="1.33935">
        <ele>135.355482</ele>
        <time>2021-09-07T13:37:41.000Z</time>
      </trkpt>
      <trkpt lat="48.08424" lon="1.33926">
        <ele>134.971954</ele>
        <time>2021-09-07T13:37:47.000Z</time>
      </trkpt>
      <trkpt lat="48.08393" lon="1.33922">
        <ele>134.473431</ele>
        <time>2021-09-07T13:37:52.000Z</time>
      </trkpt>
      <trkpt lat="48.08384" lon="1.33917">
        <ele>134.275097</ele>
        <time>2021-09-07T13:37:54.000Z</time>
      </trkpt>
      <trkpt lat="48.0838" lon="1.33913">
        <ele>134.181374</ele>
        <time>2021-09-07T13:37:55.000Z</time>
      </trkpt>
      <trkpt lat="48.08378" lon="1.33898">
        <ele>133.976038</ele>
        <time>2021-09-07T13:37:57.000Z</time>
      </trkpt>
      <trkpt lat="48.08381" lon="1.33881">
        <ele>133.730478</ele>
        <time>2021-09-07T13:37:59.000Z</time>
      </trkpt>
      <trkpt lat="48.08385" lon="1.33856">
        <ele>133.38411</ele>
        <time>2021-09-07T13:38:02.000Z</time>
      </trkpt>
      <trkpt lat="48.08383" lon="1.33839">
        <ele>133.155974</ele>
        <time>2021-09-07T13:38:04.000Z</time>
      </trkpt>
      <trkpt lat="48.0838" lon="1.33824">
        <ele>132.938198</ele>
        <time>2021-09-07T13:38:06.000Z</time>
      </trkpt>
      <trkpt lat="48.08372" lon="1.33808">
        <ele>132.663017</ele>
        <time>2021-09-07T13:38:09.000Z</time>
      </trkpt>
      <trkpt lat="48.08365" lon="1.338">
        <ele>132.473752</ele>
        <time>2021-09-07T13:38:11.000Z</time>
      </trkpt>
      <trkpt lat="48.08356" lon="1.33794">
        <ele>132.283234</ele>
        <time>2021-09-07T13:38:13.000Z</time>
      </trkpt>
      <trkpt lat="48.08332" lon="1.33787">
        <ele>131.772518</ele>
        <time>2021-09-07T13:38:18.000Z</time>
      </trkpt>
      <trkpt lat="48.08315" lon="1.33786">
        <ele>131.436777</ele>
        <time>2021-09-07T13:38:21.000Z</time>
      </trkpt>
      <trkpt lat="48.08304" lon="1.33786">
        <ele>131.207676</ele>
        <time>2021-09-07T13:38:23.000Z</time>
      </trkpt>
      <trkpt lat="48.08299" lon="1.33786">
        <ele>131.115205</ele>
        <time>2021-09-07T13:38:24.000Z</time>
      </trkpt>
      <trkpt lat="48.08269" lon="1.33786">
        <ele>130.790167</ele>
        <time>2021-09-07T13:38:30.000Z</time>
      </trkpt>
      <trkpt lat="48.08243" lon="1.33785">
        <ele>130.504729</ele>
        <time>2021-09-07T13:38:35.000Z</time>
      </trkpt>
      <trkpt lat="48.08238" lon="1.33785">
        <ele>130.44633</ele>
        <time>2021-09-07T13:38:36.000Z</time>
      </trkpt>
      <trkpt lat="48.08193" lon="1.33782">
        <ele>129.947804</ele>
        <time>2021-09-07T13:38:44.000Z</time>
      </trkpt>
      <trkpt lat="48.08159" lon="1.3378">
        <ele>129.571779</ele>
        <time>2021-09-07T13:38:50.000Z</time>
      </trkpt>
      <trkpt lat="48.08129" lon="1.33781">
        <ele>129.242265</ele>
        <time>2021-09-07T13:38:56.000Z</time>
      </trkpt>
      <trkpt lat="48.08123" lon="1.33781">
        <ele>129.175053</ele>
        <time>2021-09-07T13:38:58.000Z</time>
      </trkpt>
      <trkpt lat="48.08118" lon="1.33781">
        <ele>129.140658</ele>
        <time>2021-09-07T13:38:59.000Z</time>
      </trkpt>
      <trkpt lat="48.08097" lon="1.33779">
        <ele>129.050315</ele>
        <time>2021-09-07T13:39:03.000Z</time>
      </trkpt>
      <trkpt lat="48.08085" lon="1.33778">
        <ele>129.000546</ele>
        <time>2021-09-07T13:39:05.000Z</time>
      </trkpt>
      <trkpt lat="48.0804" lon="1.33777">
        <ele>128.811446</ele>
        <time>2021-09-07T13:39:12.000Z</time>
      </trkpt>
      <trkpt lat="48.08028" lon="1.33774">
        <ele>128.757187</ele>
        <time>2021-09-07T13:39:14.000Z</time>
      </trkpt>
      <trkpt lat="48.08022" lon="1.33769">
        <ele>128.730205</ele>
        <time>2021-09-07T13:39:15.000Z</time>
      </trkpt>
      <trkpt lat="48.08012" lon="1.3376">
        <ele>128.678871</ele>
        <time>2021-09-07T13:39:17.000Z</time>
      </trkpt>
      <trkpt lat="48.08002" lon="1.33756">
        <ele>128.633171</ele>
        <time>2021-09-07T13:39:19.000Z</time>
      </trkpt>
      <trkpt lat="48.07964" lon="1.3375">
        <ele>128.472944</ele>
        <time>2021-09-07T13:39:27.000Z</time>
      </trkpt>
      <trkpt lat="48.07926" lon="1.33742">
        <ele>128.616127</ele>
        <time>2021-09-07T13:39:37.000Z</time>
      </trkpt>
      <trkpt lat="48.07905" lon="1.33736">
        <ele>128.891287</ele>
        <time>2021-09-07T13:39:44.000Z</time>
      </trkpt>
      <trkpt lat="48.07887" lon="1.3373">
        <ele>129.114751</ele>
        <time>2021-09-07T13:39:50.000Z</time>
      </trkpt>
      <trkpt lat="48.07858" lon="1.33715">
        <ele>129.50023</ele>
        <time>2021-09-07T13:40:00.000Z</time>
      </trkpt>
      <trkpt lat="48.07836" lon="1.33702">
        <ele>129.796405</ele>
        <time>2021-09-07T13:40:07.000Z</time>
      </trkpt>
      <trkpt lat="48.0781" lon="1.33684">
        <ele>130.150136</ele>
        <time>2021-09-07T13:40:15.000Z</time>
      </trkpt>
      <trkpt lat="48.0779" lon="1.33669">
        <ele>130.433121</ele>
        <time>2021-09-07T13:40:21.000Z</time>
      </trkpt>
      <trkpt lat="48.07762" lon="1.33647">
        <ele>130.758981</ele>
        <time>2021-09-07T13:40:29.000Z</time>
      </trkpt>
      <trkpt lat="48.07748" lon="1.33635">
        <ele>130.887092</ele>
        <time>2021-09-07T13:40:33.000Z</time>
      </trkpt>
      <trkpt lat="48.07732" lon="1.33624">
        <ele>131.028245</ele>
        <time>2021-09-07T13:40:37.000Z</time>
      </trkpt>
      <trkpt lat="48.077" lon="1.33599">
        <ele>131.314352</ele>
        <time>2021-09-07T13:40:45.000Z</time>
      </trkpt>
      <trkpt lat="48.07676" lon="1.3358">
        <ele>131.534947</ele>
        <time>2021-09-07T13:40:51.000Z</time>
      </trkpt>
      <trkpt lat="48.07667" lon="1.33575">
        <ele>131.607377</ele>
        <time>2021-09-07T13:40:53.000Z</time>
      </trkpt>
      <trkpt lat="48.07655" lon="1.33567">
        <ele>131.711804</ele>
        <time>2021-09-07T13:40:56.000Z</time>
      </trkpt>
      <trkpt lat="48.07647" lon="1.33561">
        <ele>131.783091</ele>
        <time>2021-09-07T13:40:58.000Z</time>
      </trkpt>
      <trkpt lat="48.07643" lon="1.33558">
        <ele>131.819964</ele>
        <time>2021-09-07T13:40:59.000Z</time>
      </trkpt>
      <trkpt lat="48.07639" lon="1.33555">
        <ele>131.856924</ele>
        <time>2021-09-07T13:41:00.000Z</time>
      </trkpt>
      <trkpt lat="48.07621" lon="1.33541">
        <ele>132.0177</ele>
        <time>2021-09-07T13:41:04.000Z</time>
      </trkpt>
      <trkpt lat="48.07589" lon="1.33516">
        <ele>132.294201</ele>
        <time>2021-09-07T13:41:11.000Z</time>
      </trkpt>
      <trkpt lat="48.07561" lon="1.33493">
        <ele>132.535643</ele>
        <time>2021-09-07T13:41:18.000Z</time>
      </trkpt>
      <trkpt lat="48.0753" lon="1.33468">
        <ele>132.811329</ele>
        <time>2021-09-07T13:41:26.000Z</time>
      </trkpt>
      <trkpt lat="48.07522" lon="1.33461">
        <ele>132.880598</ele>
        <time>2021-09-07T13:41:28.000Z</time>
      </trkpt>
      <trkpt lat="48.07508" lon="1.33444">
        <ele>133.01632</ele>
        <time>2021-09-07T13:41:32.000Z</time>
      </trkpt>
      <trkpt lat="48.07483" lon="1.33415">
        <ele>133.257518</ele>
        <time>2021-09-07T13:41:39.000Z</time>
      </trkpt>
      <trkpt lat="48.07471" lon="1.33402">
        <ele>133.366096</ele>
        <time>2021-09-07T13:41:42.000Z</time>
      </trkpt>
      <trkpt lat="48.0746" lon="1.33389">
        <ele>133.499935</ele>
        <time>2021-09-07T13:41:45.000Z</time>
      </trkpt>
      <trkpt lat="48.07438" lon="1.33364">
        <ele>133.874177</ele>
        <time>2021-09-07T13:41:51.000Z</time>
      </trkpt>
      <trkpt lat="48.07435" lon="1.3336">
        <ele>133.935526</ele>
        <time>2021-09-07T13:41:52.000Z</time>
      </trkpt>
      <trkpt lat="48.07418" lon="1.3334">
        <ele>134.230672</ele>
        <time>2021-09-07T13:41:57.000Z</time>
      </trkpt>
      <trkpt lat="48.07414" lon="1.33336">
        <ele>134.288163</ele>
        <time>2021-09-07T13:41:58.000Z</time>
      </trkpt>
      <trkpt lat="48.07407" lon="1.33329">
        <ele>134.403699</ele>
        <time>2021-09-07T13:42:00.000Z</time>
      </trkpt>
      <trkpt lat="48.07401" lon="1.3332">
        <ele>134.518433</ele>
        <time>2021-09-07T13:42:02.000Z</time>
      </trkpt>
      <trkpt lat="48.07395" lon="1.33312">
        <ele>134.629934</ele>
        <time>2021-09-07T13:42:04.000Z</time>
      </trkpt>
      <trkpt lat="48.07388" lon="1.33304">
        <ele>134.744936</ele>
        <time>2021-09-07T13:42:06.000Z</time>
      </trkpt>
      <trkpt lat="48.07384" lon="1.33301">
        <ele>134.804103</ele>
        <time>2021-09-07T13:42:07.000Z</time>
      </trkpt>
      <trkpt lat="48.07375" lon="1.33288">
        <ele>134.972251</ele>
        <time>2021-09-07T13:42:10.000Z</time>
      </trkpt>
      <trkpt lat="48.07362" lon="1.33273">
        <ele>135.192567</ele>
        <time>2021-09-07T13:42:14.000Z</time>
      </trkpt>
      <trkpt lat="48.07341" lon="1.3324">
        <ele>135.610111</ele>
        <time>2021-09-07T13:42:22.000Z</time>
      </trkpt>
      <trkpt lat="48.07321" lon="1.33217">
        <ele>135.934274</ele>
        <time>2021-09-07T13:42:28.000Z</time>
      </trkpt>
      <trkpt lat="48.07318" lon="1.33212">
        <ele>135.978937</ele>
        <time>2021-09-07T13:42:29.000Z</time>
      </trkpt>
      <trkpt lat="48.0729" lon="1.3318">
        <ele>136.346721</ele>
        <time>2021-09-07T13:42:37.000Z</time>
      </trkpt>
      <trkpt lat="48.07264" lon="1.33146">
        <ele>136.700215</ele>
        <time>2021-09-07T13:42:45.000Z</time>
      </trkpt>
      <trkpt lat="48.07241" lon="1.33116">
        <ele>137.010843</ele>
        <time>2021-09-07T13:42:52.000Z</time>
      </trkpt>
      <trkpt lat="48.07219" lon="1.33087">
        <ele>137.316215</ele>
        <time>2021-09-07T13:42:59.000Z</time>
      </trkpt>
      <trkpt lat="48.07216" lon="1.33083">
        <ele>137.358333</ele>
        <time>2021-09-07T13:43:00.000Z</time>
      </trkpt>
      <trkpt lat="48.07193" lon="1.33055">
        <ele>137.661696</ele>
        <time>2021-09-07T13:43:08.000Z</time>
      </trkpt>
      <trkpt lat="48.07174" lon="1.33026">
        <ele>137.435445</ele>
        <time>2021-09-07T13:43:16.000Z</time>
      </trkpt>
      <trkpt lat="48.07162" lon="1.33008">
        <ele>137.187485</ele>
        <time>2021-09-07T13:43:22.000Z</time>
      </trkpt>
      <trkpt lat="48.07148" lon="1.32989">
        <ele>136.915622</ele>
        <time>2021-09-07T13:43:29.000Z</time>
      </trkpt>
      <trkpt lat="48.07139" lon="1.32976">
        <ele>136.732347</ele>
        <time>2021-09-07T13:43:34.000Z</time>
      </trkpt>
      <trkpt lat="48.07126" lon="1.32956">
        <ele>136.457287</ele>
        <time>2021-09-07T13:43:41.000Z</time>
      </trkpt>
      <trkpt lat="48.07109" lon="1.32937">
        <ele>136.1516</ele>
        <time>2021-09-07T13:43:47.000Z</time>
      </trkpt>
      <trkpt lat="48.0709" lon="1.32912">
        <ele>135.785861</ele>
        <time>2021-09-07T13:43:54.000Z</time>
      </trkpt>
      <trkpt lat="48.07076" lon="1.32891">
        <ele>135.491902</ele>
        <time>2021-09-07T13:44:00.000Z</time>
      </trkpt>
      <trkpt lat="48.07076" lon="1.32886">
        <ele>135.444002</ele>
        <time>2021-09-07T13:44:01.000Z</time>
      </trkpt>
      <trkpt lat="48.07076" lon="1.32859">
        <ele>135.182075</ele>
        <time>2021-09-07T13:44:06.000Z</time>
      </trkpt>
      <trkpt lat="48.07075" lon="1.32853">
        <ele>135.125377</ele>
        <time>2021-09-07T13:44:07.000Z</time>
      </trkpt>
      <trkpt lat="48.07074" lon="1.32831">
        <ele>135.260573</ele>
        <time>2021-09-07T13:44:11.000Z</time>
      </trkpt>
      <trkpt lat="48.07074" lon="1.32806">
        <ele>135.433704</ele>
        <time>2021-09-07T13:44:16.000Z</time>
      </trkpt>
      <trkpt lat="48.07075" lon="1.32802">
        <ele>135.463553</ele>
        <time>2021-09-07T13:44:17.000Z</time>
      </trkpt>
      <trkpt lat="48.07073" lon="1.32793">
        <ele>135.5217</ele>
        <time>2021-09-07T13:44:19.000Z</time>
      </trkpt>
      <trkpt lat="48.07071" lon="1.32778">
        <ele>135.633778</ele>
        <time>2021-09-07T13:44:24.000Z</time>
      </trkpt>
      <trkpt lat="48.07071" lon="1.32775">
        <ele>135.65326</ele>
        <time>2021-09-07T13:44:27.000Z</time>
      </trkpt>
      <trkpt lat="48.0707" lon="1.32778">
        <ele>135.673387</ele>
        <time>2021-09-07T13:45:54.000Z</time>
      </trkpt>
      <trkpt lat="48.07065" lon="1.32757">
        <ele>135.827322</ele>
        <time>2021-09-07T13:46:00.000Z</time>
      </trkpt>
      <trkpt lat="48.07059" lon="1.32719">
        <ele>136.096635</ele>
        <time>2021-09-07T13:46:09.000Z</time>
      </trkpt>
      <trkpt lat="48.07058" lon="1.32699">
        <ele>136.237777</ele>
        <time>2021-09-07T13:46:15.000Z</time>
      </trkpt>
      <trkpt lat="48.0706" lon="1.32691">
        <ele>136.294855</ele>
        <time>2021-09-07T13:46:20.000Z</time>
      </trkpt>
      <trkpt lat="48.07057" lon="1.32687">
        <ele>136.332358</ele>
        <time>2021-09-07T13:47:48.000Z</time>
      </trkpt>
      <trkpt lat="48.07056" lon="1.32681">
        <ele>136.377961</ele>
        <time>2021-09-07T13:47:50.000Z</time>
      </trkpt>
      <trkpt lat="48.07057" lon="1.3267">
        <ele>136.45383</ele>
        <time>2021-09-07T13:47:53.000Z</time>
      </trkpt>
      <trkpt lat="48.07053" lon="1.32657">
        <ele>136.551128</ele>
        <time>2021-09-07T13:47:56.000Z</time>
      </trkpt>
      <trkpt lat="48.0705" lon="1.32628">
        <ele>136.757</ele>
        <time>2021-09-07T13:48:01.000Z</time>
      </trkpt>
      <trkpt lat="48.07047" lon="1.32602">
        <ele>136.938828</ele>
        <time>2021-09-07T13:48:05.000Z</time>
      </trkpt>
      <trkpt lat="48.07045" lon="1.32589">
        <ele>136.92192</ele>
        <time>2021-09-07T13:48:07.000Z</time>
      </trkpt>
      <trkpt lat="48.07044" lon="1.32575">
        <ele>136.801107</ele>
        <time>2021-09-07T13:48:09.000Z</time>
      </trkpt>
      <trkpt lat="48.07043" lon="1.32555">
        <ele>136.62927</ele>
        <time>2021-09-07T13:48:12.000Z</time>
      </trkpt>
      <trkpt lat="48.07041" lon="1.32548">
        <ele>136.569823</ele>
        <time>2021-09-07T13:48:13.000Z</time>
      </trkpt>
      <trkpt lat="48.0704" lon="1.32541">
        <ele>136.506573</ele>
        <time>2021-09-07T13:48:14.000Z</time>
      </trkpt>
      <trkpt lat="48.07037" lon="1.3251">
        <ele>136.238261</ele>
        <time>2021-09-07T13:48:18.000Z</time>
      </trkpt>
      <trkpt lat="48.07034" lon="1.32481">
        <ele>135.992422</ele>
        <time>2021-09-07T13:48:22.000Z</time>
      </trkpt>
      <trkpt lat="48.07032" lon="1.32477">
        <ele>135.951206</ele>
        <time>2021-09-07T13:48:24.000Z</time>
      </trkpt>
      <trkpt lat="48.07029" lon="1.32477">
        <ele>135.920028</ele>
        <time>2021-09-07T13:48:26.000Z</time>
      </trkpt>
      <trkpt lat="48.0702" lon="1.32481">
        <ele>135.802248</ele>
        <time>2021-09-07T13:48:31.000Z</time>
      </trkpt>
      <trkpt lat="48.07014" lon="1.32487">
        <ele>135.707481</ele>
        <time>2021-09-07T13:48:34.000Z</time>
      </trkpt>
      <trkpt lat="48.07006" lon="1.3249">
        <ele>135.603647</ele>
        <time>2021-09-07T13:48:37.000Z</time>
      </trkpt>
      <trkpt lat="48.07001" lon="1.32491">
        <ele>135.539867</ele>
        <time>2021-09-07T13:48:39.000Z</time>
      </trkpt>
      <trkpt lat="48.06998" lon="1.32486">
        <ele>135.481661</ele>
        <time>2021-09-07T13:48:41.000Z</time>
      </trkpt>
      <trkpt lat="48.06988" lon="1.32469">
        <ele>135.289887</ele>
        <time>2021-09-07T13:48:47.000Z</time>
      </trkpt>
      <trkpt lat="48.06983" lon="1.32449">
        <ele>135.105176</ele>
        <time>2021-09-07T13:48:53.000Z</time>
      </trkpt>
      <trkpt lat="48.0698" lon="1.3243">
        <ele>134.936755</ele>
        <time>2021-09-07T13:48:58.000Z</time>
      </trkpt>
      <trkpt lat="48.06979" lon="1.32427">
        <ele>134.90769</ele>
        <time>2021-09-07T13:48:59.000Z</time>
      </trkpt>
      <trkpt lat="48.06976" lon="1.32418">
        <ele>134.822852</ele>
        <time>2021-09-07T13:49:02.000Z</time>
      </trkpt>
      <trkpt lat="48.06974" lon="1.32413">
        <ele>134.775872</ele>
        <time>2021-09-07T13:49:04.000Z</time>
      </trkpt>
      <trkpt lat="48.06977" lon="1.3239">
        <ele>134.12868</ele>
        <time>2021-09-07T13:49:10.000Z</time>
      </trkpt>
      <trkpt lat="48.06975" lon="1.32375">
        <ele>133.484337</ele>
        <time>2021-09-07T13:49:15.000Z</time>
      </trkpt>
      <trkpt lat="48.06974" lon="1.3236">
        <ele>132.81393</ele>
        <time>2021-09-07T13:49:21.000Z</time>
      </trkpt>
      <trkpt lat="48.06974" lon="1.32355">
        <ele>132.596217</ele>
        <time>2021-09-07T13:49:24.000Z</time>
      </trkpt>
      <trkpt lat="48.06978" lon="1.32348">
        <ele>132.201289</ele>
        <time>2021-09-07T13:49:44.000Z</time>
      </trkpt>
      <trkpt lat="48.06981" lon="1.32345">
        <ele>131.98688</ele>
        <time>2021-09-07T13:49:45.000Z</time>
      </trkpt>
      <trkpt lat="48.06993" lon="1.32333">
        <ele>131.054263</ele>
        <time>2021-09-07T13:49:48.000Z</time>
      </trkpt>
      <trkpt lat="48.06995" lon="1.32327">
        <ele>130.744913</ele>
        <time>2021-09-07T13:49:49.000Z</time>
      </trkpt>
      <trkpt lat="48.06997" lon="1.3232">
        <ele>130.435319</ele>
        <time>2021-09-07T13:49:50.000Z</time>
      </trkpt>
      <trkpt lat="48.07001" lon="1.32306">
        <ele>129.770609</ele>
        <time>2021-09-07T13:49:52.000Z</time>
      </trkpt>
      <trkpt lat="48.07004" lon="1.32299">
        <ele>129.398914</ele>
        <time>2021-09-07T13:49:53.000Z</time>
      </trkpt>
      <trkpt lat="48.07009" lon="1.32293">
        <ele>129.002007</ele>
        <time>2021-09-07T13:49:54.000Z</time>
      </trkpt>
      <trkpt lat="48.07027" lon="1.32275">
        <ele>127.603088</ele>
        <time>2021-09-07T13:49:57.000Z</time>
      </trkpt>
      <trkpt lat="48.07054" lon="1.32256">
        <ele>125.671257</ele>
        <time>2021-09-07T13:50:01.000Z</time>
      </trkpt>
      <trkpt lat="48.0706" lon="1.32253">
        <ele>125.263178</ele>
        <time>2021-09-07T13:50:02.000Z</time>
      </trkpt>
      <trkpt lat="48.07066" lon="1.32251">
        <ele>124.841031</ele>
        <time>2021-09-07T13:50:03.000Z</time>
      </trkpt>
      <trkpt lat="48.07079" lon="1.32257">
        <ele>123.964157</ele>
        <time>2021-09-07T13:50:05.000Z</time>
      </trkpt>
      <trkpt lat="48.07105" lon="1.32271">
        <ele>122.258295</ele>
        <time>2021-09-07T13:50:09.000Z</time>
      </trkpt>
      <trkpt lat="48.07111" lon="1.32272">
        <ele>121.859408</ele>
        <time>2021-09-07T13:50:10.000Z</time>
      </trkpt>
      <trkpt lat="48.07118" lon="1.32271">
        <ele>121.466274</ele>
        <time>2021-09-07T13:50:11.000Z</time>
      </trkpt>
      <trkpt lat="48.07134" lon="1.32267">
        <ele>120.498898</ele>
        <time>2021-09-07T13:50:14.000Z</time>
      </trkpt>
      <trkpt lat="48.07146" lon="1.32264">
        <ele>119.737007</ele>
        <time>2021-09-07T13:50:18.000Z</time>
      </trkpt>
      <trkpt lat="48.0716" lon="1.32261">
        <ele>118.920795</ele>
        <time>2021-09-07T13:50:24.000Z</time>
      </trkpt>
      <trkpt lat="48.07181" lon="1.32255">
        <ele>117.601867</ele>
        <time>2021-09-07T13:50:31.000Z</time>
      </trkpt>
      <trkpt lat="48.07189" lon="1.32251">
        <ele>117.102316</ele>
        <time>2021-09-07T13:50:33.000Z</time>
      </trkpt>
      <trkpt lat="48.07203" lon="1.32246">
        <ele>116.215406</ele>
        <time>2021-09-07T13:50:36.000Z</time>
      </trkpt>
      <trkpt lat="48.07233" lon="1.32229">
        <ele>114.275945</ele>
        <time>2021-09-07T13:50:42.000Z</time>
      </trkpt>
      <trkpt lat="48.07243" lon="1.32224">
        <ele>113.676779</ele>
        <time>2021-09-07T13:50:44.000Z</time>
      </trkpt>
      <trkpt lat="48.07256" lon="1.32217">
        <ele>112.853272</ele>
        <time>2021-09-07T13:50:47.000Z</time>
      </trkpt>
      <trkpt lat="48.07276" lon="1.32206">
        <ele>111.84484</ele>
        <time>2021-09-07T13:50:52.000Z</time>
      </trkpt>
      <trkpt lat="48.07292" lon="1.32199">
        <ele>111.262631</ele>
        <time>2021-09-07T13:50:57.000Z</time>
      </trkpt>
      <trkpt lat="48.073" lon="1.32196">
        <ele>110.999956</ele>
        <time>2021-09-07T13:50:59.000Z</time>
      </trkpt>
      <trkpt lat="48.07315" lon="1.32188">
        <ele>110.463665</ele>
        <time>2021-09-07T13:51:03.000Z</time>
      </trkpt>
      <trkpt lat="48.07334" lon="1.32186">
        <ele>109.846785</ele>
        <time>2021-09-07T13:51:08.000Z</time>
      </trkpt>
      <trkpt lat="48.07337" lon="1.32193">
        <ele>109.653287</ele>
        <time>2021-09-07T13:51:10.000Z</time>
      </trkpt>
      <trkpt lat="48.07337" lon="1.32198">
        <ele>109.547857</ele>
        <time>2021-09-07T13:51:11.000Z</time>
      </trkpt>
      <trkpt lat="48.07344" lon="1.32232">
        <ele>108.75141</ele>
        <time>2021-09-07T13:51:18.000Z</time>
      </trkpt>
      <trkpt lat="48.07349" lon="1.32259">
        <ele>108.117154</ele>
        <time>2021-09-07T13:51:23.000Z</time>
      </trkpt>
      <trkpt lat="48.07353" lon="1.32294">
        <ele>107.33141</ele>
        <time>2021-09-07T13:51:29.000Z</time>
      </trkpt>
      <trkpt lat="48.07365" lon="1.32332">
        <ele>106.39949</ele>
        <time>2021-09-07T13:51:36.000Z</time>
      </trkpt>
      <trkpt lat="48.07375" lon="1.32367">
        <ele>106.119995</ele>
        <time>2021-09-07T13:51:42.000Z</time>
      </trkpt>
      <trkpt lat="48.07376" lon="1.32373">
        <ele>106.10409</ele>
        <time>2021-09-07T13:51:43.000Z</time>
      </trkpt>
      <trkpt lat="48.07385" lon="1.32403">
        <ele>106.02115</ele>
        <time>2021-09-07T13:51:48.000Z</time>
      </trkpt>
      <trkpt lat="48.07392" lon="1.32427">
        <ele>105.956025</ele>
        <time>2021-09-07T13:51:52.000Z</time>
      </trkpt>
      <trkpt lat="48.07396" lon="1.32439">
        <ele>105.923704</ele>
        <time>2021-09-07T13:51:54.000Z</time>
      </trkpt>
      <trkpt lat="48.07404" lon="1.32462">
        <ele>105.859717</ele>
        <time>2021-09-07T13:51:58.000Z</time>
      </trkpt>
      <trkpt lat="48.07409" lon="1.32472">
        <ele>105.827441</ele>
        <time>2021-09-07T13:52:00.000Z</time>
      </trkpt>
      <trkpt lat="48.07426" lon="1.32508">
        <ele>105.716968</ele>
        <time>2021-09-07T13:52:07.000Z</time>
      </trkpt>
      <trkpt lat="48.07429" lon="1.32514">
        <ele>105.700658</ele>
        <time>2021-09-07T13:52:08.000Z</time>
      </trkpt>
      <trkpt lat="48.07441" lon="1.32551">
        <ele>105.597722</ele>
        <time>2021-09-07T13:52:14.000Z</time>
      </trkpt>
      <trkpt lat="48.07451" lon="1.32575">
        <ele>105.528488</ele>
        <time>2021-09-07T13:52:18.000Z</time>
      </trkpt>
      <trkpt lat="48.07455" lon="1.32586">
        <ele>105.559087</ele>
        <time>2021-09-07T13:52:20.000Z</time>
      </trkpt>
      <trkpt lat="48.07464" lon="1.32611">
        <ele>105.654371</ele>
        <time>2021-09-07T13:52:24.000Z</time>
      </trkpt>
      <trkpt lat="48.07471" lon="1.32628">
        <ele>105.722154</ele>
        <time>2021-09-07T13:52:27.000Z</time>
      </trkpt>
      <trkpt lat="48.07472" lon="1.32634">
        <ele>105.745411</ele>
        <time>2021-09-07T13:52:28.000Z</time>
      </trkpt>
      <trkpt lat="48.07477" lon="1.32645">
        <ele>105.790055</ele>
        <time>2021-09-07T13:52:30.000Z</time>
      </trkpt>
      <trkpt lat="48.07483" lon="1.32661">
        <ele>105.855098</ele>
        <time>2021-09-07T13:52:33.000Z</time>
      </trkpt>
      <trkpt lat="48.07504" lon="1.32709">
        <ele>106.051064</ele>
        <time>2021-09-07T13:52:42.000Z</time>
      </trkpt>
      <trkpt lat="48.07519" lon="1.32745">
        <ele>106.197005</ele>
        <time>2021-09-07T13:52:49.000Z</time>
      </trkpt>
      <trkpt lat="48.07526" lon="1.3276">
        <ele>106.261965</ele>
        <time>2021-09-07T13:52:52.000Z</time>
      </trkpt>
      <trkpt lat="48.07536" lon="1.3278">
        <ele>106.345793</ele>
        <time>2021-09-07T13:52:56.000Z</time>
      </trkpt>
      <trkpt lat="48.07554" lon="1.32813">
        <ele>106.474764</ele>
        <time>2021-09-07T13:53:03.000Z</time>
      </trkpt>
      <trkpt lat="48.07557" lon="1.32818">
        <ele>106.48726</ele>
        <time>2021-09-07T13:53:04.000Z</time>
      </trkpt>
      <trkpt lat="48.07575" lon="1.32852">
        <ele>106.57801</ele>
        <time>2021-09-07T13:53:11.000Z</time>
      </trkpt>
      <trkpt lat="48.07584" lon="1.32873">
        <ele>106.630117</ele>
        <time>2021-09-07T13:53:15.000Z</time>
      </trkpt>
      <trkpt lat="48.0759" lon="1.32883">
        <ele>106.658278</ele>
        <time>2021-09-07T13:53:17.000Z</time>
      </trkpt>
      <trkpt lat="48.07616" lon="1.32928">
        <ele>106.780981</ele>
        <time>2021-09-07T13:53:26.000Z</time>
      </trkpt>
      <trkpt lat="48.07618" lon="1.32934">
        <ele>106.794453</ele>
        <time>2021-09-07T13:53:27.000Z</time>
      </trkpt>
      <trkpt lat="48.07622" lon="1.32945">
        <ele>106.820425</ele>
        <time>2021-09-07T13:53:29.000Z</time>
      </trkpt>
      <trkpt lat="48.0763" lon="1.32959">
        <ele>106.859146</ele>
        <time>2021-09-07T13:53:32.000Z</time>
      </trkpt>
      <trkpt lat="48.07657" lon="1.33001">
        <ele>106.979652</ele>
        <time>2021-09-07T13:53:41.000Z</time>
      </trkpt>
      <trkpt lat="48.07684" lon="1.33036">
        <ele>106.785975</ele>
        <time>2021-09-07T13:53:50.000Z</time>
      </trkpt>
      <trkpt lat="48.07711" lon="1.33057">
        <ele>106.53364</ele>
        <time>2021-09-07T13:53:58.000Z</time>
      </trkpt>
      <trkpt lat="48.07732" lon="1.33072">
        <ele>106.342994</ele>
        <time>2021-09-07T13:54:04.000Z</time>
      </trkpt>
      <trkpt lat="48.07748" lon="1.33081">
        <ele>106.207881</ele>
        <time>2021-09-07T13:54:08.000Z</time>
      </trkpt>
      <trkpt lat="48.07756" lon="1.33083">
        <ele>106.136746</ele>
        <time>2021-09-07T13:54:10.000Z</time>
      </trkpt>
      <trkpt lat="48.07784" lon="1.33088">
        <ele>105.910189</ele>
        <time>2021-09-07T13:54:16.000Z</time>
      </trkpt>
      <trkpt lat="48.07815" lon="1.33098">
        <ele>105.648596</ele>
        <time>2021-09-07T13:54:23.000Z</time>
      </trkpt>
      <trkpt lat="48.07828" lon="1.33104">
        <ele>105.54174</ele>
        <time>2021-09-07T13:54:26.000Z</time>
      </trkpt>
      <trkpt lat="48.07845" lon="1.3311">
        <ele>105.536246</ele>
        <time>2021-09-07T13:54:30.000Z</time>
      </trkpt>
      <trkpt lat="48.07875" lon="1.33123">
        <ele>105.536246</ele>
        <time>2021-09-07T13:54:37.000Z</time>
      </trkpt>
      <trkpt lat="48.07887" lon="1.33131">
        <ele>105.536246</ele>
        <time>2021-09-07T13:54:40.000Z</time>
      </trkpt>
      <trkpt lat="48.07901" lon="1.33136">
        <ele>105.536246</ele>
        <time>2021-09-07T13:54:43.000Z</time>
      </trkpt>
      <trkpt lat="48.0793" lon="1.3315">
        <ele>105.536246</ele>
        <time>2021-09-07T13:54:50.000Z</time>
      </trkpt>
      <trkpt lat="48.07938" lon="1.33156">
        <ele>105.536246</ele>
        <time>2021-09-07T13:54:52.000Z</time>
      </trkpt>
      <trkpt lat="48.07951" lon="1.33163">
        <ele>105.536246</ele>
        <time>2021-09-07T13:54:55.000Z</time>
      </trkpt>
      <trkpt lat="48.07967" lon="1.33171">
        <ele>105.536246</ele>
        <time>2021-09-07T13:54:59.000Z</time>
      </trkpt>
      <trkpt lat="48.07987" lon="1.33183">
        <ele>105.536246</ele>
        <time>2021-09-07T13:55:04.000Z</time>
      </trkpt>
      <trkpt lat="48.07991" lon="1.33184">
        <ele>105.536246</ele>
        <time>2021-09-07T13:55:05.000Z</time>
      </trkpt>
      <trkpt lat="48.08007" lon="1.33192">
        <ele>105.536246</ele>
        <time>2021-09-07T13:55:10.000Z</time>
      </trkpt>
      <trkpt lat="48.08012" lon="1.33191">
        <ele>105.536246</ele>
        <time>2021-09-07T13:55:13.000Z</time>
      </trkpt>
      <trkpt lat="48.08013" lon="1.33189">
        <ele>105.536246</ele>
        <time>2021-09-07T13:55:14.000Z</time>
      </trkpt>
      <trkpt lat="48.08014" lon="1.33187">
        <ele>105.536246</ele>
        <time>2021-09-07T13:55:15.000Z</time>
      </trkpt>
      <trkpt lat="48.08017" lon="1.33179">
        <ele>105.536246</ele>
        <time>2021-09-07T13:55:19.000Z</time>
      </trkpt>
      <trkpt lat="48.08021" lon="1.33171">
        <ele>105.536246</ele>
        <time>2021-09-07T13:55:23.000Z</time>
      </trkpt>
      <trkpt lat="48.08022" lon="1.33169">
        <ele>105.536246</ele>
        <time>2021-09-07T13:55:24.000Z</time>
      </trkpt>
      <trkpt lat="48.08023" lon="1.33167">
        <ele>105.536246</ele>
        <time>2021-09-07T13:55:27.000Z</time>
      </trkpt>
    </trkseg>
  </trk>
  <trk>
    <name><![CDATA[Étape 4 : Chateaudun - Orléans]]></name>
    <extensions>
      <line xmlns="http://www.topografix.com/GPX/gpx_style/0/2">
        <color>FFFF00</color>
        <width>4</width>
      </line>
    </extensions>
    <trkseg>
      <trkpt lat="48.08014" lon="1.33188">
        <ele>106.734712</ele>
        <time>2021-09-08T07:24:55.000Z</time>
      </trkpt>
      <trkpt lat="48.08009" lon="1.33191">
        <ele>106.734712</ele>
        <time>2021-09-08T07:24:59.000Z</time>
      </trkpt>
      <trkpt lat="48.08006" lon="1.3319">
        <ele>106.734712</ele>
        <time>2021-09-08T07:25:00.000Z</time>
      </trkpt>
      <trkpt lat="48.07989" lon="1.33181">
        <ele>106.734712</ele>
        <time>2021-09-08T07:25:05.000Z</time>
      </trkpt>
      <trkpt lat="48.07974" lon="1.33171">
        <ele>106.734712</ele>
        <time>2021-09-08T07:25:09.000Z</time>
      </trkpt>
      <trkpt lat="48.07965" lon="1.33167">
        <ele>106.734712</ele>
        <time>2021-09-08T07:25:11.000Z</time>
      </trkpt>
      <trkpt lat="48.07956" lon="1.33162">
        <ele>106.734712</ele>
        <time>2021-09-08T07:25:13.000Z</time>
      </trkpt>
      <trkpt lat="48.07944" lon="1.33157">
        <ele>106.734712</ele>
        <time>2021-09-08T07:25:16.000Z</time>
      </trkpt>
      <trkpt lat="48.07932" lon="1.3315">
        <ele>106.734712</ele>
        <time>2021-09-08T07:25:19.000Z</time>
      </trkpt>
      <trkpt lat="48.07924" lon="1.33146">
        <ele>106.739681</ele>
        <time>2021-09-08T07:25:21.000Z</time>
      </trkpt>
      <trkpt lat="48.0792" lon="1.33144">
        <ele>106.743808</ele>
        <time>2021-09-08T07:25:22.000Z</time>
      </trkpt>
      <trkpt lat="48.0789" lon="1.33127">
        <ele>106.775942</ele>
        <time>2021-09-08T07:25:29.000Z</time>
      </trkpt>
      <trkpt lat="48.07865" lon="1.33115">
        <ele>106.802871</ele>
        <time>2021-09-08T07:25:35.000Z</time>
      </trkpt>
      <trkpt lat="48.07835" lon="1.33104">
        <ele>106.833016</ele>
        <time>2021-09-08T07:25:41.000Z</time>
      </trkpt>
      <trkpt lat="48.07822" lon="1.33099">
        <ele>106.847245</ele>
        <time>2021-09-08T07:25:44.000Z</time>
      </trkpt>
      <trkpt lat="48.07807" lon="1.33094">
        <ele>106.86239</ele>
        <time>2021-09-08T07:25:47.000Z</time>
      </trkpt>
      <trkpt lat="48.07782" lon="1.33088">
        <ele>106.887362</ele>
        <time>2021-09-08T07:25:52.000Z</time>
      </trkpt>
      <trkpt lat="48.07772" lon="1.33085">
        <ele>106.897522</ele>
        <time>2021-09-08T07:25:54.000Z</time>
      </trkpt>
      <trkpt lat="48.07744" lon="1.33076">
        <ele>106.938386</ele>
        <time>2021-09-08T07:26:00.000Z</time>
      </trkpt>
      <trkpt lat="48.0774" lon="1.33073">
        <ele>106.94844</ele>
        <time>2021-09-08T07:26:01.000Z</time>
      </trkpt>
      <trkpt lat="48.07726" lon="1.33063">
        <ele>106.980025</ele>
        <time>2021-09-08T07:26:04.000Z</time>
      </trkpt>
      <trkpt lat="48.07688" lon="1.33033">
        <ele>107.07013</ele>
        <time>2021-09-08T07:26:12.000Z</time>
      </trkpt>
      <trkpt lat="48.0766" lon="1.32999">
        <ele>107.145273</ele>
        <time>2021-09-08T07:26:18.000Z</time>
      </trkpt>
      <trkpt lat="48.07636" lon="1.32961">
        <ele>107.218327</ele>
        <time>2021-09-08T07:26:24.000Z</time>
      </trkpt>
      <trkpt lat="48.07621" lon="1.32935">
        <ele>107.267124</ele>
        <time>2021-09-08T07:26:28.000Z</time>
      </trkpt>
      <trkpt lat="48.07613" lon="1.32922">
        <ele>107.291615</ele>
        <time>2021-09-08T07:26:30.000Z</time>
      </trkpt>
      <trkpt lat="48.07591" lon="1.32882">
        <ele>107.387223</ele>
        <time>2021-09-08T07:26:36.000Z</time>
      </trkpt>
      <trkpt lat="48.0758" lon="1.32862">
        <ele>107.433497</ele>
        <time>2021-09-08T07:26:39.000Z</time>
      </trkpt>
      <trkpt lat="48.07569" lon="1.32843">
        <ele>107.48051</ele>
        <time>2021-09-08T07:26:42.000Z</time>
      </trkpt>
      <trkpt lat="48.07554" lon="1.32816">
        <ele>107.545154</ele>
        <time>2021-09-08T07:26:46.000Z</time>
      </trkpt>
      <trkpt lat="48.07539" lon="1.32789">
        <ele>107.608965</ele>
        <time>2021-09-08T07:26:50.000Z</time>
      </trkpt>
      <trkpt lat="48.0753" lon="1.32766">
        <ele>107.658096</ele>
        <time>2021-09-08T07:26:53.000Z</time>
      </trkpt>
      <trkpt lat="48.07521" lon="1.32742">
        <ele>107.707906</ele>
        <time>2021-09-08T07:26:56.000Z</time>
      </trkpt>
      <trkpt lat="48.07514" lon="1.32728">
        <ele>107.740284</ele>
        <time>2021-09-08T07:26:58.000Z</time>
      </trkpt>
      <trkpt lat="48.07507" lon="1.32714">
        <ele>107.772163</ele>
        <time>2021-09-08T07:27:00.000Z</time>
      </trkpt>
      <trkpt lat="48.075" lon="1.32698">
        <ele>107.784093</ele>
        <time>2021-09-08T07:27:02.000Z</time>
      </trkpt>
      <trkpt lat="48.07483" lon="1.32659">
        <ele>107.786996</ele>
        <time>2021-09-08T07:27:07.000Z</time>
      </trkpt>
      <trkpt lat="48.0748" lon="1.32651">
        <ele>107.787574</ele>
        <time>2021-09-08T07:27:08.000Z</time>
      </trkpt>
      <trkpt lat="48.07467" lon="1.32618">
        <ele>107.789965</ele>
        <time>2021-09-08T07:27:12.000Z</time>
      </trkpt>
      <trkpt lat="48.07464" lon="1.3261">
        <ele>107.790551</ele>
        <time>2021-09-08T07:27:13.000Z</time>
      </trkpt>
      <trkpt lat="48.07444" lon="1.32561">
        <ele>107.794045</ele>
        <time>2021-09-08T07:27:19.000Z</time>
      </trkpt>
      <trkpt lat="48.07427" lon="1.32508">
        <ele>107.797726</ele>
        <time>2021-09-08T07:27:26.000Z</time>
      </trkpt>
      <trkpt lat="48.07424" lon="1.32501">
        <ele>107.79821</ele>
        <time>2021-09-08T07:27:27.000Z</time>
      </trkpt>
      <trkpt lat="48.07414" lon="1.32483">
        <ele>107.799665</ele>
        <time>2021-09-08T07:27:30.000Z</time>
      </trkpt>
      <trkpt lat="48.0741" lon="1.32477">
        <ele>107.801841</ele>
        <time>2021-09-08T07:27:31.000Z</time>
      </trkpt>
      <trkpt lat="48.07407" lon="1.32471">
        <ele>107.807255</ele>
        <time>2021-09-08T07:27:32.000Z</time>
      </trkpt>
      <trkpt lat="48.07397" lon="1.32448">
        <ele>107.824606</ele>
        <time>2021-09-08T07:27:35.000Z</time>
      </trkpt>
      <trkpt lat="48.07385" lon="1.3241">
        <ele>107.852268</ele>
        <time>2021-09-08T07:27:40.000Z</time>
      </trkpt>
      <trkpt lat="48.07382" lon="1.32402">
        <ele>107.857828</ele>
        <time>2021-09-08T07:27:41.000Z</time>
      </trkpt>
      <trkpt lat="48.07369" lon="1.32353">
        <ele>107.892143</ele>
        <time>2021-09-08T07:27:47.000Z</time>
      </trkpt>
      <trkpt lat="48.07367" lon="1.32345">
        <ele>107.897742</ele>
        <time>2021-09-08T07:27:48.000Z</time>
      </trkpt>
      <trkpt lat="48.07357" lon="1.32313">
        <ele>107.920926</ele>
        <time>2021-09-08T07:27:52.000Z</time>
      </trkpt>
      <trkpt lat="48.07353" lon="1.32297">
        <ele>107.932147</ele>
        <time>2021-09-08T07:27:54.000Z</time>
      </trkpt>
      <trkpt lat="48.07349" lon="1.32271">
        <ele>107.949038</ele>
        <time>2021-09-08T07:27:57.000Z</time>
      </trkpt>
      <trkpt lat="48.07348" lon="1.32263">
        <ele>107.954682</ele>
        <time>2021-09-08T07:27:58.000Z</time>
      </trkpt>
      <trkpt lat="48.07341" lon="1.32222">
        <ele>108.018017</ele>
        <time>2021-09-08T07:28:03.000Z</time>
      </trkpt>
      <trkpt lat="48.07335" lon="1.32187">
        <ele>108.161085</ele>
        <time>2021-09-08T07:28:08.000Z</time>
      </trkpt>
      <trkpt lat="48.07334" lon="1.32182">
        <ele>108.179763</ele>
        <time>2021-09-08T07:28:12.000Z</time>
      </trkpt>
      <trkpt lat="48.07332" lon="1.32181">
        <ele>108.191082</ele>
        <time>2021-09-08T07:28:16.000Z</time>
      </trkpt>
      <trkpt lat="48.07327" lon="1.32181">
        <ele>108.222266</ele>
        <time>2021-09-08T07:28:18.000Z</time>
      </trkpt>
      <trkpt lat="48.07308" lon="1.32188">
        <ele>108.339651</ele>
        <time>2021-09-08T07:28:23.000Z</time>
      </trkpt>
      <trkpt lat="48.07285" lon="1.32196">
        <ele>108.474176</ele>
        <time>2021-09-08T07:28:28.000Z</time>
      </trkpt>
      <trkpt lat="48.07281" lon="1.32198">
        <ele>108.498691</ele>
        <time>2021-09-08T07:28:29.000Z</time>
      </trkpt>
      <trkpt lat="48.07259" lon="1.32213">
        <ele>108.640624</ele>
        <time>2021-09-08T07:28:34.000Z</time>
      </trkpt>
      <trkpt lat="48.07229" lon="1.3223">
        <ele>108.830704</ele>
        <time>2021-09-08T07:28:40.000Z</time>
      </trkpt>
      <trkpt lat="48.07198" lon="1.32245">
        <ele>109.020946</ele>
        <time>2021-09-08T07:28:46.000Z</time>
      </trkpt>
      <trkpt lat="48.07172" lon="1.3225">
        <ele>109.306177</ele>
        <time>2021-09-08T07:28:52.000Z</time>
      </trkpt>
      <trkpt lat="48.07142" lon="1.32257">
        <ele>109.658545</ele>
        <time>2021-09-08T07:28:59.000Z</time>
      </trkpt>
      <trkpt lat="48.07122" lon="1.32262">
        <ele>109.885536</ele>
        <time>2021-09-08T07:29:03.000Z</time>
      </trkpt>
      <trkpt lat="48.07116" lon="1.32261">
        <ele>109.954019</ele>
        <time>2021-09-08T07:29:04.000Z</time>
      </trkpt>
      <trkpt lat="48.0711" lon="1.3226">
        <ele>110.025263</ele>
        <time>2021-09-08T07:29:05.000Z</time>
      </trkpt>
      <trkpt lat="48.07086" lon="1.32251">
        <ele>110.309438</ele>
        <time>2021-09-08T07:29:09.000Z</time>
      </trkpt>
      <trkpt lat="48.07067" lon="1.32245">
        <ele>110.529618</ele>
        <time>2021-09-08T07:29:13.000Z</time>
      </trkpt>
      <trkpt lat="48.07063" lon="1.32246">
        <ele>110.577778</ele>
        <time>2021-09-08T07:29:14.000Z</time>
      </trkpt>
      <trkpt lat="48.07046" lon="1.32251">
        <ele>110.778059</ele>
        <time>2021-09-08T07:29:19.000Z</time>
      </trkpt>
      <trkpt lat="48.07041" lon="1.32251">
        <ele>110.829483</ele>
        <time>2021-09-08T07:29:21.000Z</time>
      </trkpt>
      <trkpt lat="48.07038" lon="1.32255">
        <ele>110.875255</ele>
        <time>2021-09-08T07:29:23.000Z</time>
      </trkpt>
      <trkpt lat="48.07034" lon="1.32254">
        <ele>110.913784</ele>
        <time>2021-09-08T07:29:25.000Z</time>
      </trkpt>
      <trkpt lat="48.07033" lon="1.32251">
        <ele>110.937445</ele>
        <time>2021-09-08T07:29:27.000Z</time>
      </trkpt>
      <trkpt lat="48.07033" lon="1.32251">
        <ele>110.937445</ele>
        <time>2021-09-08T07:29:28.000Z</time>
      </trkpt>
      <trkpt lat="48.07025" lon="1.32246">
        <ele>111.036727</ele>
        <time>2021-09-08T07:29:40.000Z</time>
      </trkpt>
      <trkpt lat="48.07023" lon="1.32245">
        <ele>111.067834</ele>
        <time>2021-09-08T07:29:42.000Z</time>
      </trkpt>
      <trkpt lat="48.07011" lon="1.32244">
        <ele>111.344202</ele>
        <time>2021-09-08T07:29:49.000Z</time>
      </trkpt>
      <trkpt lat="48.07006" lon="1.32243">
        <ele>111.480791</ele>
        <time>2021-09-08T07:29:53.000Z</time>
      </trkpt>
      <trkpt lat="48.07004" lon="1.32243">
        <ele>111.520425</ele>
        <time>2021-09-08T07:29:54.000Z</time>
      </trkpt>
      <trkpt lat="48.06992" lon="1.32244">
        <ele>111.83445</ele>
        <time>2021-09-08T07:29:59.000Z</time>
      </trkpt>
      <trkpt lat="48.06973" lon="1.32244">
        <ele>112.309257</ele>
        <time>2021-09-08T07:30:04.000Z</time>
      </trkpt>
      <trkpt lat="48.06955" lon="1.32242">
        <ele>112.775101</ele>
        <time>2021-09-08T07:30:09.000Z</time>
      </trkpt>
      <trkpt lat="48.06942" lon="1.3224">
        <ele>113.120544</ele>
        <time>2021-09-08T07:30:14.000Z</time>
      </trkpt>
      <trkpt lat="48.06923" lon="1.32241">
        <ele>113.597976</ele>
        <time>2021-09-08T07:30:21.000Z</time>
      </trkpt>
      <trkpt lat="48.0691" lon="1.32243">
        <ele>113.923621</ele>
        <time>2021-09-08T07:30:25.000Z</time>
      </trkpt>
      <trkpt lat="48.06891" lon="1.32246">
        <ele>114.430037</ele>
        <time>2021-09-08T07:30:31.000Z</time>
      </trkpt>
      <trkpt lat="48.06875" lon="1.32259">
        <ele>114.885465</ele>
        <time>2021-09-08T07:30:36.000Z</time>
      </trkpt>
      <trkpt lat="48.06861" lon="1.32276">
        <ele>115.357021</ele>
        <time>2021-09-08T07:30:41.000Z</time>
      </trkpt>
      <trkpt lat="48.06845" lon="1.32307">
        <ele>116.021828</ele>
        <time>2021-09-08T07:30:48.000Z</time>
      </trkpt>
      <trkpt lat="48.06838" lon="1.32326">
        <ele>116.37894</ele>
        <time>2021-09-08T07:30:52.000Z</time>
      </trkpt>
      <trkpt lat="48.06834" lon="1.32347">
        <ele>116.739115</ele>
        <time>2021-09-08T07:30:56.000Z</time>
      </trkpt>
      <trkpt lat="48.0683" lon="1.32363">
        <ele>117.034257</ele>
        <time>2021-09-08T07:31:00.000Z</time>
      </trkpt>
      <trkpt lat="48.06828" lon="1.32372">
        <ele>117.18648</ele>
        <time>2021-09-08T07:31:04.000Z</time>
      </trkpt>
      <trkpt lat="48.06826" lon="1.32378">
        <ele>117.300806</ele>
        <time>2021-09-08T07:31:06.000Z</time>
      </trkpt>
      <trkpt lat="48.06825" lon="1.32383">
        <ele>117.395462</ele>
        <time>2021-09-08T07:31:08.000Z</time>
      </trkpt>
      <trkpt lat="48.0682" lon="1.32397">
        <ele>117.653326</ele>
        <time>2021-09-08T07:31:12.000Z</time>
      </trkpt>
      <trkpt lat="48.06813" lon="1.32414">
        <ele>117.988111</ele>
        <time>2021-09-08T07:31:17.000Z</time>
      </trkpt>
      <trkpt lat="48.06807" lon="1.32433">
        <ele>118.341108</ele>
        <time>2021-09-08T07:31:22.000Z</time>
      </trkpt>
      <trkpt lat="48.06795" lon="1.32461">
        <ele>118.897731</ele>
        <time>2021-09-08T07:31:28.000Z</time>
      </trkpt>
      <trkpt lat="48.0679" lon="1.32492">
        <ele>119.429344</ele>
        <time>2021-09-08T07:31:34.000Z</time>
      </trkpt>
      <trkpt lat="48.06789" lon="1.32525">
        <ele>119.988011</ele>
        <time>2021-09-08T07:31:40.000Z</time>
      </trkpt>
      <trkpt lat="48.06789" lon="1.32552">
        <ele>120.242609</ele>
        <time>2021-09-08T07:31:45.000Z</time>
      </trkpt>
      <trkpt lat="48.06798" lon="1.32603">
        <ele>120.42635</ele>
        <time>2021-09-08T07:31:54.000Z</time>
      </trkpt>
      <trkpt lat="48.06808" lon="1.3264">
        <ele>120.569739</ele>
        <time>2021-09-08T07:32:01.000Z</time>
      </trkpt>
      <trkpt lat="48.06818" lon="1.3268">
        <ele>120.722548</ele>
        <time>2021-09-08T07:32:09.000Z</time>
      </trkpt>
      <trkpt lat="48.06828" lon="1.32718">
        <ele>120.86555</ele>
        <time>2021-09-08T07:32:16.000Z</time>
      </trkpt>
      <trkpt lat="48.06833" lon="1.32753">
        <ele>120.993122</ele>
        <time>2021-09-08T07:32:22.000Z</time>
      </trkpt>
      <trkpt lat="48.06833" lon="1.32783">
        <ele>121.100274</ele>
        <time>2021-09-08T07:32:27.000Z</time>
      </trkpt>
      <trkpt lat="48.06832" lon="1.32789">
        <ele>121.121665</ele>
        <time>2021-09-08T07:32:28.000Z</time>
      </trkpt>
      <trkpt lat="48.06829" lon="1.32801">
        <ele>121.232078</ele>
        <time>2021-09-08T07:32:30.000Z</time>
      </trkpt>
      <trkpt lat="48.06826" lon="1.32813">
        <ele>121.397998</ele>
        <time>2021-09-08T07:32:32.000Z</time>
      </trkpt>
      <trkpt lat="48.06823" lon="1.32824">
        <ele>121.562964</ele>
        <time>2021-09-08T07:32:34.000Z</time>
      </trkpt>
      <trkpt lat="48.0682" lon="1.32836">
        <ele>121.734001</ele>
        <time>2021-09-08T07:32:36.000Z</time>
      </trkpt>
      <trkpt lat="48.06818" lon="1.32848">
        <ele>121.898202</ele>
        <time>2021-09-08T07:32:38.000Z</time>
      </trkpt>
      <trkpt lat="48.06809" lon="1.32884">
        <ele>122.410052</ele>
        <time>2021-09-08T07:32:44.000Z</time>
      </trkpt>
      <trkpt lat="48.06799" lon="1.32928">
        <ele>123.035553</ele>
        <time>2021-09-08T07:32:52.000Z</time>
      </trkpt>
      <trkpt lat="48.06794" lon="1.3296">
        <ele>123.481713</ele>
        <time>2021-09-08T07:32:58.000Z</time>
      </trkpt>
      <trkpt lat="48.06796" lon="1.32991">
        <ele>123.899776</ele>
        <time>2021-09-08T07:33:04.000Z</time>
      </trkpt>
      <trkpt lat="48.06796" lon="1.33016">
        <ele>124.235081</ele>
        <time>2021-09-08T07:33:10.000Z</time>
      </trkpt>
      <trkpt lat="48.07075" lon="1.33333">
        <ele>140.297149</ele>
        <time>2021-09-08T07:36:38.000Z</time>
      </trkpt>
      <trkpt lat="48.0708" lon="1.33368">
        <ele>141.334765</ele>
        <time>2021-09-08T07:36:44.000Z</time>
      </trkpt>
      <trkpt lat="48.07086" lon="1.3342">
        <ele>141.743983</ele>
        <time>2021-09-08T07:36:52.000Z</time>
      </trkpt>
      <trkpt lat="48.07087" lon="1.3344">
        <ele>141.709533</ele>
        <time>2021-09-08T07:36:55.000Z</time>
      </trkpt>
      <trkpt lat="48.07089" lon="1.3346">
        <ele>141.672658</ele>
        <time>2021-09-08T07:36:58.000Z</time>
      </trkpt>
      <trkpt lat="48.07097" lon="1.33515">
        <ele>141.574379</ele>
        <time>2021-09-08T07:37:05.000Z</time>
      </trkpt>
      <trkpt lat="48.07106" lon="1.33593">
        <ele>141.436452</ele>
        <time>2021-09-08T07:37:15.000Z</time>
      </trkpt>
      <trkpt lat="48.07115" lon="1.33659">
        <ele>141.319855</ele>
        <time>2021-09-08T07:37:24.000Z</time>
      </trkpt>
      <trkpt lat="48.07118" lon="1.33705">
        <ele>141.246629</ele>
        <time>2021-09-08T07:37:32.000Z</time>
      </trkpt>
      <trkpt lat="48.07121" lon="1.33719">
        <ele>141.223286</ele>
        <time>2021-09-08T07:37:37.000Z</time>
      </trkpt>
      <trkpt lat="48.07121" lon="1.33719">
        <ele>141.222501</ele>
        <time>2021-09-08T07:37:38.000Z</time>
      </trkpt>
      <trkpt lat="48.07121" lon="1.33724">
        <ele>141.214139</ele>
        <time>2021-09-08T07:38:04.000Z</time>
      </trkpt>
      <trkpt lat="48.07121" lon="1.3373">
        <ele>141.20471</ele>
        <time>2021-09-08T07:38:06.000Z</time>
      </trkpt>
      <trkpt lat="48.07125" lon="1.33759">
        <ele>141.157829</ele>
        <time>2021-09-08T07:38:13.000Z</time>
      </trkpt>
      <trkpt lat="48.07128" lon="1.33787">
        <ele>141.113156</ele>
        <time>2021-09-08T07:38:19.000Z</time>
      </trkpt>
      <trkpt lat="48.07131" lon="1.33822">
        <ele>141.055719</ele>
        <time>2021-09-08T07:38:26.000Z</time>
      </trkpt>
      <trkpt lat="48.07136" lon="1.33858">
        <ele>140.998007</ele>
        <time>2021-09-08T07:38:33.000Z</time>
      </trkpt>
      <trkpt lat="48.07137" lon="1.33876">
        <ele>140.969503</ele>
        <time>2021-09-08T07:38:36.000Z</time>
      </trkpt>
      <trkpt lat="48.0714" lon="1.33895">
        <ele>140.938252</ele>
        <time>2021-09-08T07:38:39.000Z</time>
      </trkpt>
      <trkpt lat="48.07146" lon="1.33945">
        <ele>140.644785</ele>
        <time>2021-09-08T07:38:46.000Z</time>
      </trkpt>
      <trkpt lat="48.07152" lon="1.33998">
        <ele>140.209128</ele>
        <time>2021-09-08T07:38:52.000Z</time>
      </trkpt>
      <trkpt lat="48.07161" lon="1.34076">
        <ele>139.560525</ele>
        <time>2021-09-08T07:39:00.000Z</time>
      </trkpt>
      <trkpt lat="48.07163" lon="1.34096">
        <ele>139.391878</ele>
        <time>2021-09-08T07:39:02.000Z</time>
      </trkpt>
      <trkpt lat="48.07168" lon="1.34135">
        <ele>139.06845</ele>
        <time>2021-09-08T07:39:06.000Z</time>
      </trkpt>
      <trkpt lat="48.07177" lon="1.34215">
        <ele>138.159069</ele>
        <time>2021-09-08T07:39:14.000Z</time>
      </trkpt>
      <trkpt lat="48.07186" lon="1.34295">
        <ele>136.922604</ele>
        <time>2021-09-08T07:39:22.000Z</time>
      </trkpt>
      <trkpt lat="48.07191" lon="1.34341">
        <ele>136.224847</ele>
        <time>2021-09-08T07:39:27.000Z</time>
      </trkpt>
      <trkpt lat="48.07193" lon="1.34367">
        <ele>135.826824</ele>
        <time>2021-09-08T07:39:30.000Z</time>
      </trkpt>
      <trkpt lat="48.07196" lon="1.34394">
        <ele>135.41016</ele>
        <time>2021-09-08T07:39:33.000Z</time>
      </trkpt>
      <trkpt lat="48.07202" lon="1.34443">
        <ele>134.652306</ele>
        <time>2021-09-08T07:39:39.000Z</time>
      </trkpt>
      <trkpt lat="48.07203" lon="1.34457">
        <ele>134.468349</ele>
        <time>2021-09-08T07:39:43.000Z</time>
      </trkpt>
      <trkpt lat="48.07203" lon="1.34459">
        <ele>134.44743</ele>
        <time>2021-09-08T07:39:46.000Z</time>
      </trkpt>
      <trkpt lat="48.07203" lon="1.34462">
        <ele>134.399262</ele>
        <time>2021-09-08T07:40:03.000Z</time>
      </trkpt>
      <trkpt lat="48.07207" lon="1.34492">
        <ele>134.016058</ele>
        <time>2021-09-08T07:40:08.000Z</time>
      </trkpt>
      <trkpt lat="48.07214" lon="1.3455">
        <ele>133.250111</ele>
        <time>2021-09-08T07:40:16.000Z</time>
      </trkpt>
      <trkpt lat="48.07219" lon="1.34605">
        <ele>132.543616</ele>
        <time>2021-09-08T07:40:23.000Z</time>
      </trkpt>
      <trkpt lat="48.07225" lon="1.34661">
        <ele>131.812953</ele>
        <time>2021-09-08T07:40:30.000Z</time>
      </trkpt>
      <trkpt lat="48.07231" lon="1.34733">
        <ele>131.083214</ele>
        <time>2021-09-08T07:40:39.000Z</time>
      </trkpt>
      <trkpt lat="48.0724" lon="1.34815">
        <ele>130.769593</ele>
        <time>2021-09-08T07:40:49.000Z</time>
      </trkpt>
      <trkpt lat="48.07248" lon="1.34888">
        <ele>130.489296</ele>
        <time>2021-09-08T07:40:58.000Z</time>
      </trkpt>
      <trkpt lat="48.07251" lon="1.3491">
        <ele>130.406709</ele>
        <time>2021-09-08T07:41:01.000Z</time>
      </trkpt>
      <trkpt lat="48.07252" lon="1.3493">
        <ele>130.328042</ele>
        <time>2021-09-08T07:41:04.000Z</time>
      </trkpt>
      <trkpt lat="48.07254" lon="1.34945">
        <ele>130.271443</ele>
        <time>2021-09-08T07:41:06.000Z</time>
      </trkpt>
      <trkpt lat="48.07256" lon="1.34968">
        <ele>130.185054</ele>
        <time>2021-09-08T07:41:09.000Z</time>
      </trkpt>
      <trkpt lat="48.0726" lon="1.35016">
        <ele>129.993913</ele>
        <time>2021-09-08T07:41:15.000Z</time>
      </trkpt>
      <trkpt lat="48.07253" lon="1.35066">
        <ele>129.794694</ele>
        <time>2021-09-08T07:41:21.000Z</time>
      </trkpt>
      <trkpt lat="48.07252" lon="1.35074">
        <ele>129.761494</ele>
        <time>2021-09-08T07:41:22.000Z</time>
      </trkpt>
      <trkpt lat="48.0725" lon="1.3509">
        <ele>129.698198</ele>
        <time>2021-09-08T07:41:24.000Z</time>
      </trkpt>
      <trkpt lat="48.07249" lon="1.35105">
        <ele>129.634994</ele>
        <time>2021-09-08T07:41:26.000Z</time>
      </trkpt>
      <trkpt lat="48.07247" lon="1.35113">
        <ele>129.602319</ele>
        <time>2021-09-08T07:41:27.000Z</time>
      </trkpt>
      <trkpt lat="48.0724" lon="1.35127">
        <ele>129.532578</ele>
        <time>2021-09-08T07:41:29.000Z</time>
      </trkpt>
      <trkpt lat="48.0722" lon="1.35176">
        <ele>129.3084</ele>
        <time>2021-09-08T07:41:35.000Z</time>
      </trkpt>
      <trkpt lat="48.07196" lon="1.35256">
        <ele>129.045331</ele>
        <time>2021-09-08T07:41:44.000Z</time>
      </trkpt>
      <trkpt lat="48.07178" lon="1.35319">
        <ele>128.954127</ele>
        <time>2021-09-08T07:41:52.000Z</time>
      </trkpt>
      <trkpt lat="48.07164" lon="1.35366">
        <ele>128.88643</ele>
        <time>2021-09-08T07:41:59.000Z</time>
      </trkpt>
      <trkpt lat="48.07145" lon="1.35428">
        <ele>128.796636</ele>
        <time>2021-09-08T07:42:09.000Z</time>
      </trkpt>
      <trkpt lat="48.07127" lon="1.35486">
        <ele>128.704919</ele>
        <time>2021-09-08T07:42:19.000Z</time>
      </trkpt>
      <trkpt lat="48.07114" lon="1.35526">
        <ele>128.62586</ele>
        <time>2021-09-08T07:42:26.000Z</time>
      </trkpt>
      <trkpt lat="48.07109" lon="1.35536">
        <ele>128.603352</ele>
        <time>2021-09-08T07:42:28.000Z</time>
      </trkpt>
      <trkpt lat="48.07106" lon="1.35541">
        <ele>128.591527</ele>
        <time>2021-09-08T07:42:29.000Z</time>
      </trkpt>
      <trkpt lat="48.07099" lon="1.35566">
        <ele>128.542793</ele>
        <time>2021-09-08T07:42:33.000Z</time>
      </trkpt>
      <trkpt lat="48.07082" lon="1.35619">
        <ele>128.439119</ele>
        <time>2021-09-08T07:42:41.000Z</time>
      </trkpt>
      <trkpt lat="48.07066" lon="1.35667">
        <ele>128.343336</ele>
        <time>2021-09-08T07:42:48.000Z</time>
      </trkpt>
      <trkpt lat="48.07062" lon="1.35681">
        <ele>128.317295</ele>
        <time>2021-09-08T07:42:50.000Z</time>
      </trkpt>
      <trkpt lat="48.07058" lon="1.35695">
        <ele>128.289956</ele>
        <time>2021-09-08T07:42:52.000Z</time>
      </trkpt>
      <trkpt lat="48.07039" lon="1.35754">
        <ele>128.093066</ele>
        <time>2021-09-08T07:43:00.000Z</time>
      </trkpt>
      <trkpt lat="48.07022" lon="1.35808">
        <ele>127.881235</ele>
        <time>2021-09-08T07:43:07.000Z</time>
      </trkpt>
      <trkpt lat="48.07018" lon="1.35823">
        <ele>127.82195</ele>
        <time>2021-09-08T07:43:09.000Z</time>
      </trkpt>
      <trkpt lat="48.07011" lon="1.35845">
        <ele>127.736742</ele>
        <time>2021-09-08T07:43:12.000Z</time>
      </trkpt>
      <trkpt lat="48.07001" lon="1.35882">
        <ele>127.590826</ele>
        <time>2021-09-08T07:43:17.000Z</time>
      </trkpt>
      <trkpt lat="48.06998" lon="1.3589">
        <ele>127.560746</ele>
        <time>2021-09-08T07:43:18.000Z</time>
      </trkpt>
      <trkpt lat="48.06978" lon="1.35961">
        <ele>127.287219</ele>
        <time>2021-09-08T07:43:27.000Z</time>
      </trkpt>
      <trkpt lat="48.06963" lon="1.36014">
        <ele>127.198215</ele>
        <time>2021-09-08T07:43:34.000Z</time>
      </trkpt>
      <trkpt lat="48.06954" lon="1.36042">
        <ele>127.149556</ele>
        <time>2021-09-08T07:43:38.000Z</time>
      </trkpt>
      <trkpt lat="48.06948" lon="1.36053">
        <ele>127.12572</ele>
        <time>2021-09-08T07:43:40.000Z</time>
      </trkpt>
      <trkpt lat="48.0692" lon="1.36092">
        <ele>127.036554</ele>
        <time>2021-09-08T07:43:47.000Z</time>
      </trkpt>
      <trkpt lat="48.06889" lon="1.36136">
        <ele>126.936999</ele>
        <time>2021-09-08T07:43:55.000Z</time>
      </trkpt>
      <trkpt lat="48.06883" lon="1.36146">
        <ele>126.915412</ele>
        <time>2021-09-08T07:43:57.000Z</time>
      </trkpt>
      <trkpt lat="48.0688" lon="1.36156">
        <ele>126.898476</ele>
        <time>2021-09-08T07:43:59.000Z</time>
      </trkpt>
      <trkpt lat="48.06877" lon="1.3618">
        <ele>126.876322</ele>
        <time>2021-09-08T07:44:04.000Z</time>
      </trkpt>
      <trkpt lat="48.06877" lon="1.36186">
        <ele>126.883616</ele>
        <time>2021-09-08T07:44:05.000Z</time>
      </trkpt>
      <trkpt lat="48.0688" lon="1.36197">
        <ele>126.89939</ele>
        <time>2021-09-08T07:44:07.000Z</time>
      </trkpt>
      <trkpt lat="48.06885" lon="1.36216">
        <ele>126.925162</ele>
        <time>2021-09-08T07:44:10.000Z</time>
      </trkpt>
      <trkpt lat="48.06887" lon="1.36229">
        <ele>126.94299</ele>
        <time>2021-09-08T07:44:12.000Z</time>
      </trkpt>
      <trkpt lat="48.06887" lon="1.36236">
        <ele>126.952315</ele>
        <time>2021-09-08T07:44:13.000Z</time>
      </trkpt>
      <trkpt lat="48.06886" lon="1.36243">
        <ele>126.961512</ele>
        <time>2021-09-08T07:44:14.000Z</time>
      </trkpt>
      <trkpt lat="48.06881" lon="1.36273">
        <ele>127.001099</ele>
        <time>2021-09-08T07:44:18.000Z</time>
      </trkpt>
      <trkpt lat="48.06867" lon="1.36324">
        <ele>127.073072</ele>
        <time>2021-09-08T07:44:25.000Z</time>
      </trkpt>
      <trkpt lat="48.06846" lon="1.36388">
        <ele>127.165505</ele>
        <time>2021-09-08T07:44:34.000Z</time>
      </trkpt>
      <trkpt lat="48.06837" lon="1.36423">
        <ele>127.214003</ele>
        <time>2021-09-08T07:44:39.000Z</time>
      </trkpt>
      <trkpt lat="48.06835" lon="1.36438">
        <ele>127.24817</ele>
        <time>2021-09-08T07:44:41.000Z</time>
      </trkpt>
      <trkpt lat="48.06823" lon="1.36478">
        <ele>127.362176</ele>
        <time>2021-09-08T07:44:47.000Z</time>
      </trkpt>
      <trkpt lat="48.06802" lon="1.36547">
        <ele>127.557268</ele>
        <time>2021-09-08T07:44:57.000Z</time>
      </trkpt>
      <trkpt lat="48.06781" lon="1.36615">
        <ele>127.753064</ele>
        <time>2021-09-08T07:45:07.000Z</time>
      </trkpt>
      <trkpt lat="48.06766" lon="1.36673">
        <ele>127.911899</ele>
        <time>2021-09-08T07:45:15.000Z</time>
      </trkpt>
      <trkpt lat="48.06745" lon="1.36744">
        <ele>128.047008</ele>
        <time>2021-09-08T07:45:25.000Z</time>
      </trkpt>
      <trkpt lat="48.06725" lon="1.36815">
        <ele>128.179135</ele>
        <time>2021-09-08T07:45:35.000Z</time>
      </trkpt>
      <trkpt lat="48.06702" lon="1.36891">
        <ele>128.323311</ele>
        <time>2021-09-08T07:45:46.000Z</time>
      </trkpt>
      <trkpt lat="48.067" lon="1.36898">
        <ele>128.33627</ele>
        <time>2021-09-08T07:45:47.000Z</time>
      </trkpt>
      <trkpt lat="48.06676" lon="1.36977">
        <ele>128.411909</ele>
        <time>2021-09-08T07:45:58.000Z</time>
      </trkpt>
      <trkpt lat="48.06655" lon="1.37048">
        <ele>128.455572</ele>
        <time>2021-09-08T07:46:08.000Z</time>
      </trkpt>
      <trkpt lat="48.06637" lon="1.37106">
        <ele>128.491703</ele>
        <time>2021-09-08T07:46:16.000Z</time>
      </trkpt>
      <trkpt lat="48.06619" lon="1.37165">
        <ele>128.527423</ele>
        <time>2021-09-08T07:46:24.000Z</time>
      </trkpt>
      <trkpt lat="48.06598" lon="1.37232">
        <ele>128.501658</ele>
        <time>2021-09-08T07:46:33.000Z</time>
      </trkpt>
      <trkpt lat="48.06576" lon="1.37306">
        <ele>128.473263</ele>
        <time>2021-09-08T07:46:43.000Z</time>
      </trkpt>
      <trkpt lat="48.06553" lon="1.37385">
        <ele>128.443021</ele>
        <time>2021-09-08T07:46:54.000Z</time>
      </trkpt>
      <trkpt lat="48.06551" lon="1.37392">
        <ele>128.440245</ele>
        <time>2021-09-08T07:46:55.000Z</time>
      </trkpt>
      <trkpt lat="48.06532" lon="1.37454">
        <ele>128.479695</ele>
        <time>2021-09-08T07:47:04.000Z</time>
      </trkpt>
      <trkpt lat="48.06509" lon="1.3753">
        <ele>128.559674</ele>
        <time>2021-09-08T07:47:15.000Z</time>
      </trkpt>
      <trkpt lat="48.06492" lon="1.37588">
        <ele>128.6211</ele>
        <time>2021-09-08T07:47:24.000Z</time>
      </trkpt>
      <trkpt lat="48.06476" lon="1.37638">
        <ele>128.67498</ele>
        <time>2021-09-08T07:47:32.000Z</time>
      </trkpt>
      <trkpt lat="48.06461" lon="1.3769">
        <ele>128.714617</ele>
        <time>2021-09-08T07:47:40.000Z</time>
      </trkpt>
      <trkpt lat="48.06446" lon="1.37738">
        <ele>128.744764</ele>
        <time>2021-09-08T07:47:47.000Z</time>
      </trkpt>
      <trkpt lat="48.06432" lon="1.37786">
        <ele>128.774924</ele>
        <time>2021-09-08T07:47:54.000Z</time>
      </trkpt>
      <trkpt lat="48.06416" lon="1.37837">
        <ele>128.807628</ele>
        <time>2021-09-08T07:48:02.000Z</time>
      </trkpt>
      <trkpt lat="48.06403" lon="1.37881">
        <ele>128.835422</ele>
        <time>2021-09-08T07:48:09.000Z</time>
      </trkpt>
      <trkpt lat="48.06391" lon="1.37919">
        <ele>128.853013</ele>
        <time>2021-09-08T07:48:15.000Z</time>
      </trkpt>
      <trkpt lat="48.06375" lon="1.37973">
        <ele>128.868302</ele>
        <time>2021-09-08T07:48:23.000Z</time>
      </trkpt>
      <trkpt lat="48.06354" lon="1.3804">
        <ele>128.887617</ele>
        <time>2021-09-08T07:48:33.000Z</time>
      </trkpt>
      <trkpt lat="48.06331" lon="1.38119">
        <ele>128.910123</ele>
        <time>2021-09-08T07:48:44.000Z</time>
      </trkpt>
      <trkpt lat="48.06309" lon="1.3819">
        <ele>128.805907</ele>
        <time>2021-09-08T07:48:54.000Z</time>
      </trkpt>
      <trkpt lat="48.06289" lon="1.38255">
        <ele>128.64431</ele>
        <time>2021-09-08T07:49:03.000Z</time>
      </trkpt>
      <trkpt lat="48.06267" lon="1.38329">
        <ele>128.462402</ele>
        <time>2021-09-08T07:49:13.000Z</time>
      </trkpt>
      <trkpt lat="48.06246" lon="1.38398">
        <ele>128.314691</ele>
        <time>2021-09-08T07:49:23.000Z</time>
      </trkpt>
      <trkpt lat="48.06228" lon="1.3846">
        <ele>128.362061</ele>
        <time>2021-09-08T07:49:33.000Z</time>
      </trkpt>
      <trkpt lat="48.06217" lon="1.38496">
        <ele>128.388882</ele>
        <time>2021-09-08T07:49:39.000Z</time>
      </trkpt>
      <trkpt lat="48.06215" lon="1.38501">
        <ele>128.393068</ele>
        <time>2021-09-08T07:49:40.000Z</time>
      </trkpt>
      <trkpt lat="48.06198" lon="1.38558">
        <ele>128.436363</ele>
        <time>2021-09-08T07:49:50.000Z</time>
      </trkpt>
      <trkpt lat="48.06184" lon="1.38604">
        <ele>128.471653</ele>
        <time>2021-09-08T07:49:58.000Z</time>
      </trkpt>
      <trkpt lat="48.06182" lon="1.3861">
        <ele>128.475794</ele>
        <time>2021-09-08T07:49:59.000Z</time>
      </trkpt>
      <trkpt lat="48.06169" lon="1.38654">
        <ele>128.554358</ele>
        <time>2021-09-08T07:50:07.000Z</time>
      </trkpt>
      <trkpt lat="48.06154" lon="1.38702">
        <ele>128.708294</ele>
        <time>2021-09-08T07:50:15.000Z</time>
      </trkpt>
      <trkpt lat="48.06132" lon="1.38773">
        <ele>128.937415</ele>
        <time>2021-09-08T07:50:26.000Z</time>
      </trkpt>
      <trkpt lat="48.06128" lon="1.38787">
        <ele>128.981595</ele>
        <time>2021-09-08T07:50:28.000Z</time>
      </trkpt>
      <trkpt lat="48.06124" lon="1.38801">
        <ele>129.024699</ele>
        <time>2021-09-08T07:50:30.000Z</time>
      </trkpt>
      <trkpt lat="48.0612" lon="1.38813">
        <ele>129.065675</ele>
        <time>2021-09-08T07:50:32.000Z</time>
      </trkpt>
      <trkpt lat="48.06105" lon="1.38864">
        <ele>129.227518</ele>
        <time>2021-09-08T07:50:40.000Z</time>
      </trkpt>
      <trkpt lat="48.06093" lon="1.38905">
        <ele>129.245405</ele>
        <time>2021-09-08T07:50:46.000Z</time>
      </trkpt>
      <trkpt lat="48.06075" lon="1.38964">
        <ele>129.160564</ele>
        <time>2021-09-08T07:50:54.000Z</time>
      </trkpt>
      <trkpt lat="48.06059" lon="1.39017">
        <ele>129.084263</ele>
        <time>2021-09-08T07:51:01.000Z</time>
      </trkpt>
      <trkpt lat="48.0604" lon="1.39079">
        <ele>128.994734</ele>
        <time>2021-09-08T07:51:09.000Z</time>
      </trkpt>
      <trkpt lat="48.06019" lon="1.39145">
        <ele>128.919958</ele>
        <time>2021-09-08T07:51:18.000Z</time>
      </trkpt>
      <trkpt lat="48.06003" lon="1.39202">
        <ele>128.90086</ele>
        <time>2021-09-08T07:51:26.000Z</time>
      </trkpt>
      <trkpt lat="48.05985" lon="1.3926">
        <ele>128.881004</ele>
        <time>2021-09-08T07:51:34.000Z</time>
      </trkpt>
      <trkpt lat="48.05968" lon="1.39315">
        <ele>128.862085</ele>
        <time>2021-09-08T07:51:42.000Z</time>
      </trkpt>
      <trkpt lat="48.0595" lon="1.39374">
        <ele>128.853069</ele>
        <time>2021-09-08T07:51:51.000Z</time>
      </trkpt>
      <trkpt lat="48.05943" lon="1.39399">
        <ele>128.923295</ele>
        <time>2021-09-08T07:51:55.000Z</time>
      </trkpt>
      <trkpt lat="48.05935" lon="1.39425">
        <ele>128.995082</ele>
        <time>2021-09-08T07:51:59.000Z</time>
      </trkpt>
      <trkpt lat="48.0592" lon="1.39474">
        <ele>129.133876</ele>
        <time>2021-09-08T07:52:07.000Z</time>
      </trkpt>
      <trkpt lat="48.05904" lon="1.39527">
        <ele>129.28464</ele>
        <time>2021-09-08T07:52:16.000Z</time>
      </trkpt>
      <trkpt lat="48.05888" lon="1.3958">
        <ele>129.432192</ele>
        <time>2021-09-08T07:52:25.000Z</time>
      </trkpt>
      <trkpt lat="48.05886" lon="1.39586">
        <ele>129.449586</ele>
        <time>2021-09-08T07:52:26.000Z</time>
      </trkpt>
      <trkpt lat="48.05872" lon="1.39633">
        <ele>129.616116</ele>
        <time>2021-09-08T07:52:34.000Z</time>
      </trkpt>
      <trkpt lat="48.05856" lon="1.39685">
        <ele>129.871879</ele>
        <time>2021-09-08T07:52:43.000Z</time>
      </trkpt>
      <trkpt lat="48.05842" lon="1.39734">
        <ele>130.107221</ele>
        <time>2021-09-08T07:52:51.000Z</time>
      </trkpt>
      <trkpt lat="48.05823" lon="1.39796">
        <ele>130.411895</ele>
        <time>2021-09-08T07:53:01.000Z</time>
      </trkpt>
      <trkpt lat="48.05808" lon="1.39844">
        <ele>130.645636</ele>
        <time>2021-09-08T07:53:09.000Z</time>
      </trkpt>
      <trkpt lat="48.05797" lon="1.39879">
        <ele>130.845395</ele>
        <time>2021-09-08T07:53:15.000Z</time>
      </trkpt>
      <trkpt lat="48.05793" lon="1.39891">
        <ele>130.918977</ele>
        <time>2021-09-08T07:53:17.000Z</time>
      </trkpt>
      <trkpt lat="48.05777" lon="1.39945">
        <ele>131.256619</ele>
        <time>2021-09-08T07:53:26.000Z</time>
      </trkpt>
      <trkpt lat="48.05757" lon="1.40008">
        <ele>131.65253</ele>
        <time>2021-09-08T07:53:36.000Z</time>
      </trkpt>
      <trkpt lat="48.05737" lon="1.40074">
        <ele>132.066873</ele>
        <time>2021-09-08T07:53:46.000Z</time>
      </trkpt>
      <trkpt lat="48.05719" lon="1.40134">
        <ele>132.391425</ele>
        <time>2021-09-08T07:53:55.000Z</time>
      </trkpt>
      <trkpt lat="48.057" lon="1.40194">
        <ele>132.661726</ele>
        <time>2021-09-08T07:54:04.000Z</time>
      </trkpt>
      <trkpt lat="48.05682" lon="1.40256">
        <ele>132.933104</ele>
        <time>2021-09-08T07:54:13.000Z</time>
      </trkpt>
      <trkpt lat="48.05665" lon="1.40309">
        <ele>133.169454</ele>
        <time>2021-09-08T07:54:21.000Z</time>
      </trkpt>
      <trkpt lat="48.0565" lon="1.4036">
        <ele>133.424303</ele>
        <time>2021-09-08T07:54:29.000Z</time>
      </trkpt>
      <trkpt lat="48.05648" lon="1.40366">
        <ele>133.466333</ele>
        <time>2021-09-08T07:54:30.000Z</time>
      </trkpt>
      <trkpt lat="48.05643" lon="1.40388">
        <ele>133.617926</ele>
        <time>2021-09-08T07:54:34.000Z</time>
      </trkpt>
      <trkpt lat="48.05631" lon="1.40433">
        <ele>133.926529</ele>
        <time>2021-09-08T07:54:41.000Z</time>
      </trkpt>
      <trkpt lat="48.05617" lon="1.40477">
        <ele>134.244658</ele>
        <time>2021-09-08T07:54:48.000Z</time>
      </trkpt>
      <trkpt lat="48.05609" lon="1.405">
        <ele>134.409288</ele>
        <time>2021-09-08T07:54:53.000Z</time>
      </trkpt>
      <trkpt lat="48.05608" lon="1.40502">
        <ele>134.43134</ele>
        <time>2021-09-08T07:54:57.000Z</time>
      </trkpt>
      <trkpt lat="48.05607" lon="1.40508">
        <ele>134.471115</ele>
        <time>2021-09-08T07:55:06.000Z</time>
      </trkpt>
      <trkpt lat="48.05605" lon="1.40515">
        <ele>134.516624</ele>
        <time>2021-09-08T07:55:08.000Z</time>
      </trkpt>
      <trkpt lat="48.05595" lon="1.40546">
        <ele>134.73744</ele>
        <time>2021-09-08T07:55:15.000Z</time>
      </trkpt>
      <trkpt lat="48.05585" lon="1.40583">
        <ele>134.997069</ele>
        <time>2021-09-08T07:55:21.000Z</time>
      </trkpt>
      <trkpt lat="48.05565" lon="1.4065">
        <ele>135.229705</ele>
        <time>2021-09-08T07:55:30.000Z</time>
      </trkpt>
      <trkpt lat="48.05543" lon="1.40727">
        <ele>135.427659</ele>
        <time>2021-09-08T07:55:40.000Z</time>
      </trkpt>
      <trkpt lat="48.05527" lon="1.40781">
        <ele>135.566398</ele>
        <time>2021-09-08T07:55:47.000Z</time>
      </trkpt>
      <trkpt lat="48.05508" lon="1.40844">
        <ele>135.722134</ele>
        <time>2021-09-08T07:55:55.000Z</time>
      </trkpt>
      <trkpt lat="48.05487" lon="1.40902">
        <ele>135.668055</ele>
        <time>2021-09-08T07:56:03.000Z</time>
      </trkpt>
      <trkpt lat="48.05482" lon="1.40917">
        <ele>135.654444</ele>
        <time>2021-09-08T07:56:05.000Z</time>
      </trkpt>
      <trkpt lat="48.05472" lon="1.40956">
        <ele>135.620353</ele>
        <time>2021-09-08T07:56:10.000Z</time>
      </trkpt>
      <trkpt lat="48.0546" lon="1.4103">
        <ele>135.557907</ele>
        <time>2021-09-08T07:56:19.000Z</time>
      </trkpt>
      <trkpt lat="48.05448" lon="1.4111">
        <ele>135.485991</ele>
        <time>2021-09-08T07:56:29.000Z</time>
      </trkpt>
      <trkpt lat="48.05439" lon="1.41178">
        <ele>135.408188</ele>
        <time>2021-09-08T07:56:38.000Z</time>
      </trkpt>
      <trkpt lat="48.0543" lon="1.41246">
        <ele>135.329869</ele>
        <time>2021-09-08T07:56:48.000Z</time>
      </trkpt>
      <trkpt lat="48.0542" lon="1.41319">
        <ele>135.246779</ele>
        <time>2021-09-08T07:56:59.000Z</time>
      </trkpt>
      <trkpt lat="48.0541" lon="1.41395">
        <ele>135.131391</ele>
        <time>2021-09-08T07:57:10.000Z</time>
      </trkpt>
      <trkpt lat="48.05398" lon="1.41478">
        <ele>134.970965</ele>
        <time>2021-09-08T07:57:22.000Z</time>
      </trkpt>
      <trkpt lat="48.05388" lon="1.41549">
        <ele>134.833678</ele>
        <time>2021-09-08T07:57:32.000Z</time>
      </trkpt>
      <trkpt lat="48.0538" lon="1.41612">
        <ele>134.713004</ele>
        <time>2021-09-08T07:57:41.000Z</time>
      </trkpt>
      <trkpt lat="48.0537" lon="1.41683">
        <ele>134.583044</ele>
        <time>2021-09-08T07:57:51.000Z</time>
      </trkpt>
      <trkpt lat="48.05365" lon="1.41718">
        <ele>134.519384</ele>
        <time>2021-09-08T07:57:56.000Z</time>
      </trkpt>
      <trkpt lat="48.05363" lon="1.4173">
        <ele>134.495768</ele>
        <time>2021-09-08T07:57:58.000Z</time>
      </trkpt>
      <trkpt lat="48.05353" lon="1.41804">
        <ele>134.361211</ele>
        <time>2021-09-08T07:58:09.000Z</time>
      </trkpt>
      <trkpt lat="48.05344" lon="1.41864">
        <ele>134.251357</ele>
        <time>2021-09-08T07:58:18.000Z</time>
      </trkpt>
      <trkpt lat="48.05337" lon="1.41911">
        <ele>134.202227</ele>
        <time>2021-09-08T07:58:25.000Z</time>
      </trkpt>
      <trkpt lat="48.05326" lon="1.41989">
        <ele>134.168788</ele>
        <time>2021-09-08T07:58:36.000Z</time>
      </trkpt>
      <trkpt lat="48.0532" lon="1.42045">
        <ele>134.145508</ele>
        <time>2021-09-08T07:58:44.000Z</time>
      </trkpt>
      <trkpt lat="48.05314" lon="1.42093">
        <ele>134.125134</ele>
        <time>2021-09-08T07:58:51.000Z</time>
      </trkpt>
      <trkpt lat="48.05302" lon="1.42164">
        <ele>134.070228</ele>
        <time>2021-09-08T07:59:01.000Z</time>
      </trkpt>
      <trkpt lat="48.05301" lon="1.42179">
        <ele>134.039868</ele>
        <time>2021-09-08T07:59:03.000Z</time>
      </trkpt>
      <trkpt lat="48.05296" lon="1.42208">
        <ele>133.978649</ele>
        <time>2021-09-08T07:59:07.000Z</time>
      </trkpt>
      <trkpt lat="48.05286" lon="1.42278">
        <ele>133.835754</ele>
        <time>2021-09-08T07:59:16.000Z</time>
      </trkpt>
      <trkpt lat="48.05279" lon="1.42336">
        <ele>133.715522</ele>
        <time>2021-09-08T07:59:24.000Z</time>
      </trkpt>
      <trkpt lat="48.05272" lon="1.42391">
        <ele>133.604031</ele>
        <time>2021-09-08T07:59:32.000Z</time>
      </trkpt>
      <trkpt lat="48.05265" lon="1.42437">
        <ele>133.534956</ele>
        <time>2021-09-08T07:59:39.000Z</time>
      </trkpt>
      <trkpt lat="48.05258" lon="1.42491">
        <ele>133.480471</ele>
        <time>2021-09-08T07:59:47.000Z</time>
      </trkpt>
      <trkpt lat="48.05246" lon="1.42571">
        <ele>133.400568</ele>
        <time>2021-09-08T07:59:58.000Z</time>
      </trkpt>
      <trkpt lat="48.05238" lon="1.4263">
        <ele>133.340979</ele>
        <time>2021-09-08T08:00:06.000Z</time>
      </trkpt>
      <trkpt lat="48.05227" lon="1.42709">
        <ele>133.275928</ele>
        <time>2021-09-08T08:00:17.000Z</time>
      </trkpt>
      <trkpt lat="48.05218" lon="1.42777">
        <ele>133.236474</ele>
        <time>2021-09-08T08:00:27.000Z</time>
      </trkpt>
      <trkpt lat="48.05207" lon="1.42851">
        <ele>133.192927</ele>
        <time>2021-09-08T08:00:38.000Z</time>
      </trkpt>
      <trkpt lat="48.05197" lon="1.42921">
        <ele>133.152511</ele>
        <time>2021-09-08T08:00:48.000Z</time>
      </trkpt>
      <trkpt lat="48.05188" lon="1.42991">
        <ele>133.161828</ele>
        <time>2021-09-08T08:00:58.000Z</time>
      </trkpt>
      <trkpt lat="48.05175" lon="1.43074">
        <ele>133.194696</ele>
        <time>2021-09-08T08:01:10.000Z</time>
      </trkpt>
      <trkpt lat="48.05167" lon="1.43135">
        <ele>133.21858</ele>
        <time>2021-09-08T08:01:19.000Z</time>
      </trkpt>
      <trkpt lat="48.05158" lon="1.43194">
        <ele>133.241812</ele>
        <time>2021-09-08T08:01:28.000Z</time>
      </trkpt>
      <trkpt lat="48.0515" lon="1.43253">
        <ele>133.393475</ele>
        <time>2021-09-08T08:01:37.000Z</time>
      </trkpt>
      <trkpt lat="48.05142" lon="1.43307">
        <ele>133.551602</ele>
        <time>2021-09-08T08:01:45.000Z</time>
      </trkpt>
      <trkpt lat="48.05132" lon="1.43376">
        <ele>133.752533</ele>
        <time>2021-09-08T08:01:55.000Z</time>
      </trkpt>
      <trkpt lat="48.05122" lon="1.43449">
        <ele>133.967829</ele>
        <time>2021-09-08T08:02:06.000Z</time>
      </trkpt>
      <trkpt lat="48.05112" lon="1.43516">
        <ele>134.199826</ele>
        <time>2021-09-08T08:02:16.000Z</time>
      </trkpt>
      <trkpt lat="48.05106" lon="1.43555">
        <ele>134.341355</ele>
        <time>2021-09-08T08:02:22.000Z</time>
      </trkpt>
      <trkpt lat="48.05098" lon="1.43615">
        <ele>134.557638</ele>
        <time>2021-09-08T08:02:31.000Z</time>
      </trkpt>
      <trkpt lat="48.05091" lon="1.43664">
        <ele>134.734817</ele>
        <time>2021-09-08T08:02:38.000Z</time>
      </trkpt>
      <trkpt lat="48.05081" lon="1.43724">
        <ele>134.955482</ele>
        <time>2021-09-08T08:02:47.000Z</time>
      </trkpt>
      <trkpt lat="48.05072" lon="1.43791">
        <ele>135.149786</ele>
        <time>2021-09-08T08:02:57.000Z</time>
      </trkpt>
      <trkpt lat="48.05064" lon="1.43854">
        <ele>135.329578</ele>
        <time>2021-09-08T08:03:07.000Z</time>
      </trkpt>
      <trkpt lat="48.05056" lon="1.43911">
        <ele>135.491527</ele>
        <time>2021-09-08T08:03:16.000Z</time>
      </trkpt>
      <trkpt lat="48.05047" lon="1.43969">
        <ele>135.65611</ele>
        <time>2021-09-08T08:03:25.000Z</time>
      </trkpt>
      <trkpt lat="48.05038" lon="1.44032">
        <ele>135.815029</ele>
        <time>2021-09-08T08:03:35.000Z</time>
      </trkpt>
      <trkpt lat="48.05032" lon="1.44083">
        <ele>135.931028</ele>
        <time>2021-09-08T08:03:43.000Z</time>
      </trkpt>
      <trkpt lat="48.05025" lon="1.44131">
        <ele>136.043398</ele>
        <time>2021-09-08T08:03:51.000Z</time>
      </trkpt>
      <trkpt lat="48.05017" lon="1.44187">
        <ele>136.171531</ele>
        <time>2021-09-08T08:04:00.000Z</time>
      </trkpt>
      <trkpt lat="48.05009" lon="1.44239">
        <ele>136.292912</ele>
        <time>2021-09-08T08:04:08.000Z</time>
      </trkpt>
      <trkpt lat="48.05001" lon="1.44299">
        <ele>136.294644</ele>
        <time>2021-09-08T08:04:17.000Z</time>
      </trkpt>
      <trkpt lat="48.04991" lon="1.44365">
        <ele>136.244092</ele>
        <time>2021-09-08T08:04:27.000Z</time>
      </trkpt>
      <trkpt lat="48.0498" lon="1.44433">
        <ele>136.19151</ele>
        <time>2021-09-08T08:04:37.000Z</time>
      </trkpt>
      <trkpt lat="48.0497" lon="1.44501">
        <ele>136.139199</ele>
        <time>2021-09-08T08:04:47.000Z</time>
      </trkpt>
      <trkpt lat="48.04959" lon="1.44571">
        <ele>136.019609</ele>
        <time>2021-09-08T08:04:57.000Z</time>
      </trkpt>
      <trkpt lat="48.04948" lon="1.44645">
        <ele>135.873649</ele>
        <time>2021-09-08T08:05:07.000Z</time>
      </trkpt>
      <trkpt lat="48.04937" lon="1.44718">
        <ele>135.728389</ele>
        <time>2021-09-08T08:05:17.000Z</time>
      </trkpt>
      <trkpt lat="48.04926" lon="1.44784">
        <ele>135.59165</ele>
        <time>2021-09-08T08:05:26.000Z</time>
      </trkpt>
      <trkpt lat="48.04916" lon="1.4485">
        <ele>135.351263</ele>
        <time>2021-09-08T08:05:35.000Z</time>
      </trkpt>
      <trkpt lat="48.04908" lon="1.44907">
        <ele>135.142473</ele>
        <time>2021-09-08T08:05:43.000Z</time>
      </trkpt>
      <trkpt lat="48.04896" lon="1.44979">
        <ele>134.877853</ele>
        <time>2021-09-08T08:05:53.000Z</time>
      </trkpt>
      <trkpt lat="48.04885" lon="1.45052">
        <ele>134.618241</ele>
        <time>2021-09-08T08:06:03.000Z</time>
      </trkpt>
      <trkpt lat="48.04872" lon="1.45131">
        <ele>134.382913</ele>
        <time>2021-09-08T08:06:14.000Z</time>
      </trkpt>
      <trkpt lat="48.04861" lon="1.45203">
        <ele>134.169393</ele>
        <time>2021-09-08T08:06:24.000Z</time>
      </trkpt>
      <trkpt lat="48.04851" lon="1.45269">
        <ele>133.973877</ele>
        <time>2021-09-08T08:06:33.000Z</time>
      </trkpt>
      <trkpt lat="48.0484" lon="1.45343">
        <ele>133.807953</ele>
        <time>2021-09-08T08:06:43.000Z</time>
      </trkpt>
      <trkpt lat="48.04828" lon="1.45417">
        <ele>133.693013</ele>
        <time>2021-09-08T08:06:53.000Z</time>
      </trkpt>
      <trkpt lat="48.04818" lon="1.45481">
        <ele>133.591643</ele>
        <time>2021-09-08T08:07:02.000Z</time>
      </trkpt>
      <trkpt lat="48.04808" lon="1.45546">
        <ele>133.489985</ele>
        <time>2021-09-08T08:07:11.000Z</time>
      </trkpt>
      <trkpt lat="48.04797" lon="1.45617">
        <ele>133.418048</ele>
        <time>2021-09-08T08:07:21.000Z</time>
      </trkpt>
      <trkpt lat="48.04786" lon="1.45687">
        <ele>133.360834</ele>
        <time>2021-09-08T08:07:31.000Z</time>
      </trkpt>
      <trkpt lat="48.04777" lon="1.45744">
        <ele>133.314129</ele>
        <time>2021-09-08T08:07:39.000Z</time>
      </trkpt>
      <trkpt lat="48.04766" lon="1.45814">
        <ele>133.256239</ele>
        <time>2021-09-08T08:07:49.000Z</time>
      </trkpt>
      <trkpt lat="48.04755" lon="1.45886">
        <ele>133.279296</ele>
        <time>2021-09-08T08:07:59.000Z</time>
      </trkpt>
      <trkpt lat="48.04745" lon="1.45952">
        <ele>133.318635</ele>
        <time>2021-09-08T08:08:08.000Z</time>
      </trkpt>
      <trkpt lat="48.0474" lon="1.45983">
        <ele>133.337042</ele>
        <time>2021-09-08T08:08:12.000Z</time>
      </trkpt>
      <trkpt lat="48.04736" lon="1.46007">
        <ele>133.351066</ele>
        <time>2021-09-08T08:08:15.000Z</time>
      </trkpt>
      <trkpt lat="48.04724" lon="1.4608">
        <ele>133.394006</ele>
        <time>2021-09-08T08:08:24.000Z</time>
      </trkpt>
      <trkpt lat="48.04711" lon="1.46163">
        <ele>133.374199</ele>
        <time>2021-09-08T08:08:34.000Z</time>
      </trkpt>
      <trkpt lat="48.04698" lon="1.46247">
        <ele>133.344564</ele>
        <time>2021-09-08T08:08:44.000Z</time>
      </trkpt>
      <trkpt lat="48.04686" lon="1.46322">
        <ele>133.318089</ele>
        <time>2021-09-08T08:08:53.000Z</time>
      </trkpt>
      <trkpt lat="48.04675" lon="1.46402">
        <ele>133.266449</ele>
        <time>2021-09-08T08:09:03.000Z</time>
      </trkpt>
      <trkpt lat="48.04663" lon="1.46479">
        <ele>133.201877</ele>
        <time>2021-09-08T08:09:13.000Z</time>
      </trkpt>
      <trkpt lat="48.0465" lon="1.46562">
        <ele>133.133789</ele>
        <time>2021-09-08T08:09:24.000Z</time>
      </trkpt>
      <trkpt lat="48.04637" lon="1.46644">
        <ele>133.036024</ele>
        <time>2021-09-08T08:09:35.000Z</time>
      </trkpt>
      <trkpt lat="48.04624" lon="1.46729">
        <ele>132.883364</ele>
        <time>2021-09-08T08:09:46.000Z</time>
      </trkpt>
      <trkpt lat="48.0461" lon="1.46814">
        <ele>132.730472</ele>
        <time>2021-09-08T08:09:57.000Z</time>
      </trkpt>
      <trkpt lat="48.04597" lon="1.4689">
        <ele>132.570892</ele>
        <time>2021-09-08T08:10:07.000Z</time>
      </trkpt>
      <trkpt lat="48.04587" lon="1.4696">
        <ele>132.342887</ele>
        <time>2021-09-08T08:10:16.000Z</time>
      </trkpt>
      <trkpt lat="48.04575" lon="1.47033">
        <ele>132.104832</ele>
        <time>2021-09-08T08:10:25.000Z</time>
      </trkpt>
      <trkpt lat="48.04566" lon="1.47098">
        <ele>131.89387</ele>
        <time>2021-09-08T08:10:33.000Z</time>
      </trkpt>
      <trkpt lat="48.04555" lon="1.47177">
        <ele>131.670802</ele>
        <time>2021-09-08T08:10:43.000Z</time>
      </trkpt>
      <trkpt lat="48.04552" lon="1.47191">
        <ele>131.636931</ele>
        <time>2021-09-08T08:10:45.000Z</time>
      </trkpt>
      <trkpt lat="48.0455" lon="1.47211">
        <ele>131.589004</ele>
        <time>2021-09-08T08:10:48.000Z</time>
      </trkpt>
      <trkpt lat="48.04541" lon="1.47268">
        <ele>131.451576</ele>
        <time>2021-09-08T08:10:56.000Z</time>
      </trkpt>
      <trkpt lat="48.0454" lon="1.47275">
        <ele>131.434108</ele>
        <time>2021-09-08T08:10:57.000Z</time>
      </trkpt>
      <trkpt lat="48.04539" lon="1.4729">
        <ele>131.400163</ele>
        <time>2021-09-08T08:10:59.000Z</time>
      </trkpt>
      <trkpt lat="48.04536" lon="1.47303">
        <ele>131.368064</ele>
        <time>2021-09-08T08:11:01.000Z</time>
      </trkpt>
      <trkpt lat="48.04528" lon="1.47352">
        <ele>131.248259</ele>
        <time>2021-09-08T08:11:08.000Z</time>
      </trkpt>
      <trkpt lat="48.04516" lon="1.47426">
        <ele>131.088737</ele>
        <time>2021-09-08T08:11:18.000Z</time>
      </trkpt>
      <trkpt lat="48.04504" lon="1.47502">
        <ele>130.961341</ele>
        <time>2021-09-08T08:11:28.000Z</time>
      </trkpt>
      <trkpt lat="48.04491" lon="1.47587">
        <ele>130.819663</ele>
        <time>2021-09-08T08:11:39.000Z</time>
      </trkpt>
      <trkpt lat="48.04478" lon="1.47668">
        <ele>130.696203</ele>
        <time>2021-09-08T08:11:50.000Z</time>
      </trkpt>
      <trkpt lat="48.04476" lon="1.47683">
        <ele>130.703224</ele>
        <time>2021-09-08T08:11:52.000Z</time>
      </trkpt>
      <trkpt lat="48.04464" lon="1.47758">
        <ele>130.739059</ele>
        <time>2021-09-08T08:12:02.000Z</time>
      </trkpt>
      <trkpt lat="48.04451" lon="1.47841">
        <ele>130.778675</ele>
        <time>2021-09-08T08:12:13.000Z</time>
      </trkpt>
      <trkpt lat="48.04441" lon="1.47906">
        <ele>130.809838</ele>
        <time>2021-09-08T08:12:22.000Z</time>
      </trkpt>
      <trkpt lat="48.04429" lon="1.47985">
        <ele>130.910133</ele>
        <time>2021-09-08T08:12:33.000Z</time>
      </trkpt>
      <trkpt lat="48.04419" lon="1.48049">
        <ele>131.005388</ele>
        <time>2021-09-08T08:12:42.000Z</time>
      </trkpt>
      <trkpt lat="48.04409" lon="1.48115">
        <ele>131.104625</ele>
        <time>2021-09-08T08:12:51.000Z</time>
      </trkpt>
      <trkpt lat="48.04396" lon="1.48194">
        <ele>131.230569</ele>
        <time>2021-09-08T08:13:01.000Z</time>
      </trkpt>
      <trkpt lat="48.04386" lon="1.48262">
        <ele>131.39294</ele>
        <time>2021-09-08T08:13:10.000Z</time>
      </trkpt>
      <trkpt lat="48.04376" lon="1.48324">
        <ele>131.543875</ele>
        <time>2021-09-08T08:13:19.000Z</time>
      </trkpt>
      <trkpt lat="48.04366" lon="1.48386">
        <ele>131.694254</ele>
        <time>2021-09-08T08:13:28.000Z</time>
      </trkpt>
      <trkpt lat="48.04357" lon="1.48451">
        <ele>131.844883</ele>
        <time>2021-09-08T08:13:37.000Z</time>
      </trkpt>
      <trkpt lat="48.04346" lon="1.48517">
        <ele>131.884338</ele>
        <time>2021-09-08T08:13:46.000Z</time>
      </trkpt>
      <trkpt lat="48.04336" lon="1.48584">
        <ele>131.924567</ele>
        <time>2021-09-08T08:13:55.000Z</time>
      </trkpt>
      <trkpt lat="48.04323" lon="1.48666">
        <ele>131.973761</ele>
        <time>2021-09-08T08:14:06.000Z</time>
      </trkpt>
      <trkpt lat="48.0431" lon="1.48749">
        <ele>131.985171</ele>
        <time>2021-09-08T08:14:17.000Z</time>
      </trkpt>
      <trkpt lat="48.043" lon="1.48815">
        <ele>131.96007</ele>
        <time>2021-09-08T08:14:26.000Z</time>
      </trkpt>
      <trkpt lat="48.0429" lon="1.48875">
        <ele>131.937043</ele>
        <time>2021-09-08T08:14:34.000Z</time>
      </trkpt>
      <trkpt lat="48.04279" lon="1.48949">
        <ele>131.908663</ele>
        <time>2021-09-08T08:14:44.000Z</time>
      </trkpt>
      <trkpt lat="48.04268" lon="1.49016">
        <ele>131.996916</ele>
        <time>2021-09-08T08:14:53.000Z</time>
      </trkpt>
      <trkpt lat="48.04258" lon="1.4908">
        <ele>132.138263</ele>
        <time>2021-09-08T08:15:02.000Z</time>
      </trkpt>
      <trkpt lat="48.04249" lon="1.49135">
        <ele>132.261045</ele>
        <time>2021-09-08T08:15:10.000Z</time>
      </trkpt>
      <trkpt lat="48.04238" lon="1.49202">
        <ele>132.409161</ele>
        <time>2021-09-08T08:15:20.000Z</time>
      </trkpt>
      <trkpt lat="48.04235" lon="1.49222">
        <ele>132.451862</ele>
        <time>2021-09-08T08:15:23.000Z</time>
      </trkpt>
      <trkpt lat="48.04231" lon="1.49247">
        <ele>132.491198</ele>
        <time>2021-09-08T08:15:27.000Z</time>
      </trkpt>
      <trkpt lat="48.04221" lon="1.49307">
        <ele>132.546545</ele>
        <time>2021-09-08T08:15:36.000Z</time>
      </trkpt>
      <trkpt lat="48.04208" lon="1.4937">
        <ele>132.60469</ele>
        <time>2021-09-08T08:15:45.000Z</time>
      </trkpt>
      <trkpt lat="48.04195" lon="1.49427">
        <ele>132.659274</ele>
        <time>2021-09-08T08:15:53.000Z</time>
      </trkpt>
      <trkpt lat="48.04181" lon="1.49483">
        <ele>132.712399</ele>
        <time>2021-09-08T08:16:01.000Z</time>
      </trkpt>
      <trkpt lat="48.04165" lon="1.49546">
        <ele>132.638024</ele>
        <time>2021-09-08T08:16:10.000Z</time>
      </trkpt>
      <trkpt lat="48.04148" lon="1.49611">
        <ele>132.544329</ele>
        <time>2021-09-08T08:16:19.000Z</time>
      </trkpt>
      <trkpt lat="48.04133" lon="1.49669">
        <ele>132.460502</ele>
        <time>2021-09-08T08:16:27.000Z</time>
      </trkpt>
      <trkpt lat="48.04116" lon="1.49736">
        <ele>132.363061</ele>
        <time>2021-09-08T08:16:36.000Z</time>
      </trkpt>
      <trkpt lat="48.04102" lon="1.4979">
        <ele>132.243522</ele>
        <time>2021-09-08T08:16:43.000Z</time>
      </trkpt>
      <trkpt lat="48.04083" lon="1.49867">
        <ele>132.066532</ele>
        <time>2021-09-08T08:16:53.000Z</time>
      </trkpt>
      <trkpt lat="48.04081" lon="1.49874">
        <ele>132.048818</ele>
        <time>2021-09-08T08:16:54.000Z</time>
      </trkpt>
      <trkpt lat="48.04061" lon="1.4995">
        <ele>131.873556</ele>
        <time>2021-09-08T08:17:04.000Z</time>
      </trkpt>
      <trkpt lat="48.04059" lon="1.49958">
        <ele>131.856128</ele>
        <time>2021-09-08T08:17:05.000Z</time>
      </trkpt>
      <trkpt lat="48.04042" lon="1.50023">
        <ele>131.713107</ele>
        <time>2021-09-08T08:17:14.000Z</time>
      </trkpt>
      <trkpt lat="48.04028" lon="1.50081">
        <ele>131.596714</ele>
        <time>2021-09-08T08:17:22.000Z</time>
      </trkpt>
      <trkpt lat="48.04011" lon="1.50147">
        <ele>131.464303</ele>
        <time>2021-09-08T08:17:31.000Z</time>
      </trkpt>
      <trkpt lat="48.04" lon="1.5019">
        <ele>131.378148</ele>
        <time>2021-09-08T08:17:37.000Z</time>
      </trkpt>
      <trkpt lat="48.03997" lon="1.50204">
        <ele>131.349252</ele>
        <time>2021-09-08T08:17:39.000Z</time>
      </trkpt>
      <trkpt lat="48.03989" lon="1.50233">
        <ele>131.291932</ele>
        <time>2021-09-08T08:17:43.000Z</time>
      </trkpt>
      <trkpt lat="48.03986" lon="1.50247">
        <ele>131.265038</ele>
        <time>2021-09-08T08:17:45.000Z</time>
      </trkpt>
      <trkpt lat="48.03967" lon="1.50319">
        <ele>131.157787</ele>
        <time>2021-09-08T08:17:55.000Z</time>
      </trkpt>
      <trkpt lat="48.0395" lon="1.50385">
        <ele>131.06039</ele>
        <time>2021-09-08T08:18:04.000Z</time>
      </trkpt>
      <trkpt lat="48.03931" lon="1.50459">
        <ele>130.950031</ele>
        <time>2021-09-08T08:18:14.000Z</time>
      </trkpt>
      <trkpt lat="48.03911" lon="1.50538">
        <ele>130.897643</ele>
        <time>2021-09-08T08:18:25.000Z</time>
      </trkpt>
      <trkpt lat="48.03897" lon="1.50594">
        <ele>130.898471</ele>
        <time>2021-09-08T08:18:33.000Z</time>
      </trkpt>
      <trkpt lat="48.03879" lon="1.50663">
        <ele>130.899498</ele>
        <time>2021-09-08T08:18:43.000Z</time>
      </trkpt>
      <trkpt lat="48.03865" lon="1.5072">
        <ele>130.900334</ele>
        <time>2021-09-08T08:18:51.000Z</time>
      </trkpt>
      <trkpt lat="48.03852" lon="1.50771">
        <ele>130.918537</ele>
        <time>2021-09-08T08:18:58.000Z</time>
      </trkpt>
      <trkpt lat="48.03833" lon="1.50854">
        <ele>130.976935</ele>
        <time>2021-09-08T08:19:09.000Z</time>
      </trkpt>
      <trkpt lat="48.03815" lon="1.50921">
        <ele>131.025268</ele>
        <time>2021-09-08T08:19:18.000Z</time>
      </trkpt>
      <trkpt lat="48.038" lon="1.50983">
        <ele>131.069204</ele>
        <time>2021-09-08T08:19:26.000Z</time>
      </trkpt>
      <trkpt lat="48.03776" lon="1.51059">
        <ele>131.097679</ele>
        <time>2021-09-08T08:19:36.000Z</time>
      </trkpt>
      <trkpt lat="48.03762" lon="1.51111">
        <ele>131.111811</ele>
        <time>2021-09-08T08:19:43.000Z</time>
      </trkpt>
      <trkpt lat="48.03744" lon="1.51175">
        <ele>131.129455</ele>
        <time>2021-09-08T08:19:52.000Z</time>
      </trkpt>
      <trkpt lat="48.03727" lon="1.51236">
        <ele>131.146357</ele>
        <time>2021-09-08T08:20:01.000Z</time>
      </trkpt>
      <trkpt lat="48.03708" lon="1.51297">
        <ele>131.073057</ele>
        <time>2021-09-08T08:20:10.000Z</time>
      </trkpt>
      <trkpt lat="48.03693" lon="1.51353">
        <ele>130.992013</ele>
        <time>2021-09-08T08:20:18.000Z</time>
      </trkpt>
      <trkpt lat="48.03669" lon="1.51433">
        <ele>130.875553</ele>
        <time>2021-09-08T08:20:29.000Z</time>
      </trkpt>
      <trkpt lat="48.03646" lon="1.51512">
        <ele>130.769983</ele>
        <time>2021-09-08T08:20:39.000Z</time>
      </trkpt>
      <trkpt lat="48.03644" lon="1.5152">
        <ele>130.762383</ele>
        <time>2021-09-08T08:20:40.000Z</time>
      </trkpt>
      <trkpt lat="48.03624" lon="1.5159">
        <ele>130.695923</ele>
        <time>2021-09-08T08:20:49.000Z</time>
      </trkpt>
      <trkpt lat="48.03607" lon="1.51648">
        <ele>130.640388</ele>
        <time>2021-09-08T08:20:57.000Z</time>
      </trkpt>
      <trkpt lat="48.03592" lon="1.517">
        <ele>130.591196</ele>
        <time>2021-09-08T08:21:04.000Z</time>
      </trkpt>
      <trkpt lat="48.03571" lon="1.51774">
        <ele>130.503317</ele>
        <time>2021-09-08T08:21:14.000Z</time>
      </trkpt>
      <trkpt lat="48.03553" lon="1.51839">
        <ele>130.408096</ele>
        <time>2021-09-08T08:21:23.000Z</time>
      </trkpt>
      <trkpt lat="48.03537" lon="1.51895">
        <ele>130.325624</ele>
        <time>2021-09-08T08:21:31.000Z</time>
      </trkpt>
      <trkpt lat="48.0352" lon="1.5196">
        <ele>130.232</ele>
        <time>2021-09-08T08:21:40.000Z</time>
      </trkpt>
      <trkpt lat="48.03509" lon="1.52011">
        <ele>130.164526</ele>
        <time>2021-09-08T08:21:47.000Z</time>
      </trkpt>
      <trkpt lat="48.03495" lon="1.52067">
        <ele>130.095284</ele>
        <time>2021-09-08T08:21:55.000Z</time>
      </trkpt>
      <trkpt lat="48.03479" lon="1.52136">
        <ele>130.01003</ele>
        <time>2021-09-08T08:22:05.000Z</time>
      </trkpt>
      <trkpt lat="48.03465" lon="1.52194">
        <ele>129.939756</ele>
        <time>2021-09-08T08:22:13.000Z</time>
      </trkpt>
      <trkpt lat="48.03448" lon="1.52264">
        <ele>129.844387</ele>
        <time>2021-09-08T08:22:23.000Z</time>
      </trkpt>
      <trkpt lat="48.03434" lon="1.52327">
        <ele>129.741624</ele>
        <time>2021-09-08T08:22:32.000Z</time>
      </trkpt>
      <trkpt lat="48.03415" lon="1.52404">
        <ele>129.614441</ele>
        <time>2021-09-08T08:22:43.000Z</time>
      </trkpt>
      <trkpt lat="48.03397" lon="1.5248">
        <ele>129.490001</ele>
        <time>2021-09-08T08:22:54.000Z</time>
      </trkpt>
      <trkpt lat="48.03382" lon="1.52551">
        <ele>129.406212</ele>
        <time>2021-09-08T08:23:04.000Z</time>
      </trkpt>
      <trkpt lat="48.03369" lon="1.52615">
        <ele>129.340395</ele>
        <time>2021-09-08T08:23:13.000Z</time>
      </trkpt>
      <trkpt lat="48.03354" lon="1.5269">
        <ele>129.263138</ele>
        <time>2021-09-08T08:23:23.000Z</time>
      </trkpt>
      <trkpt lat="48.03343" lon="1.52747">
        <ele>129.205446</ele>
        <time>2021-09-08T08:23:30.000Z</time>
      </trkpt>
      <trkpt lat="48.03327" lon="1.52825">
        <ele>129.119081</ele>
        <time>2021-09-08T08:23:40.000Z</time>
      </trkpt>
      <trkpt lat="48.03323" lon="1.52841">
        <ele>129.101898</ele>
        <time>2021-09-08T08:23:42.000Z</time>
      </trkpt>
      <trkpt lat="48.0331" lon="1.5291">
        <ele>129.025761</ele>
        <time>2021-09-08T08:23:51.000Z</time>
      </trkpt>
      <trkpt lat="48.03293" lon="1.52992">
        <ele>128.934784</ele>
        <time>2021-09-08T08:24:02.000Z</time>
      </trkpt>
      <trkpt lat="48.03292" lon="1.52999">
        <ele>128.926965</ele>
        <time>2021-09-08T08:24:03.000Z</time>
      </trkpt>
      <trkpt lat="48.0328" lon="1.5306">
        <ele>128.89006</ele>
        <time>2021-09-08T08:24:11.000Z</time>
      </trkpt>
      <trkpt lat="48.03268" lon="1.5312">
        <ele>128.859432</ele>
        <time>2021-09-08T08:24:19.000Z</time>
      </trkpt>
      <trkpt lat="48.03254" lon="1.53189">
        <ele>128.824929</ele>
        <time>2021-09-08T08:24:28.000Z</time>
      </trkpt>
      <trkpt lat="48.0324" lon="1.53259">
        <ele>128.789908</ele>
        <time>2021-09-08T08:24:37.000Z</time>
      </trkpt>
      <trkpt lat="48.03224" lon="1.53336">
        <ele>128.761397</ele>
        <time>2021-09-08T08:24:47.000Z</time>
      </trkpt>
      <trkpt lat="48.03223" lon="1.53344">
        <ele>128.758722</ele>
        <time>2021-09-08T08:24:48.000Z</time>
      </trkpt>
      <trkpt lat="48.03209" lon="1.53418">
        <ele>128.733217</ele>
        <time>2021-09-08T08:24:58.000Z</time>
      </trkpt>
      <trkpt lat="48.03195" lon="1.53491">
        <ele>128.707757</ele>
        <time>2021-09-08T08:25:08.000Z</time>
      </trkpt>
      <trkpt lat="48.03181" lon="1.53559">
        <ele>128.672021</ele>
        <time>2021-09-08T08:25:17.000Z</time>
      </trkpt>
      <trkpt lat="48.03169" lon="1.53619">
        <ele>128.628087</ele>
        <time>2021-09-08T08:25:25.000Z</time>
      </trkpt>
      <trkpt lat="48.03157" lon="1.53682">
        <ele>128.58281</ele>
        <time>2021-09-08T08:25:33.000Z</time>
      </trkpt>
      <trkpt lat="48.03143" lon="1.53751">
        <ele>128.532695</ele>
        <time>2021-09-08T08:25:42.000Z</time>
      </trkpt>
      <trkpt lat="48.03127" lon="1.5383">
        <ele>128.443351</ele>
        <time>2021-09-08T08:25:52.000Z</time>
      </trkpt>
      <trkpt lat="48.03112" lon="1.53905">
        <ele>128.334566</ele>
        <time>2021-09-08T08:26:02.000Z</time>
      </trkpt>
      <trkpt lat="48.03099" lon="1.53974">
        <ele>128.235101</ele>
        <time>2021-09-08T08:26:11.000Z</time>
      </trkpt>
      <trkpt lat="48.03083" lon="1.54052">
        <ele>128.106472</ele>
        <time>2021-09-08T08:26:21.000Z</time>
      </trkpt>
      <trkpt lat="48.0307" lon="1.54116">
        <ele>127.919882</ele>
        <time>2021-09-08T08:26:29.000Z</time>
      </trkpt>
      <trkpt lat="48.03056" lon="1.54186">
        <ele>127.713532</ele>
        <time>2021-09-08T08:26:38.000Z</time>
      </trkpt>
      <trkpt lat="48.03041" lon="1.54263">
        <ele>127.486222</ele>
        <time>2021-09-08T08:26:48.000Z</time>
      </trkpt>
      <trkpt lat="48.03027" lon="1.54331">
        <ele>127.324933</ele>
        <time>2021-09-08T08:26:57.000Z</time>
      </trkpt>
      <trkpt lat="48.03013" lon="1.54404">
        <ele>127.200483</ele>
        <time>2021-09-08T08:27:07.000Z</time>
      </trkpt>
      <trkpt lat="48.03" lon="1.54469">
        <ele>127.088119</ele>
        <time>2021-09-08T08:27:16.000Z</time>
      </trkpt>
      <trkpt lat="48.02984" lon="1.54549">
        <ele>126.950496</ele>
        <time>2021-09-08T08:27:27.000Z</time>
      </trkpt>
      <trkpt lat="48.02982" lon="1.54557">
        <ele>126.93769</ele>
        <time>2021-09-08T08:27:28.000Z</time>
      </trkpt>
      <trkpt lat="48.02968" lon="1.54628">
        <ele>126.825733</ele>
        <time>2021-09-08T08:27:37.000Z</time>
      </trkpt>
      <trkpt lat="48.02956" lon="1.54691">
        <ele>126.726156</ele>
        <time>2021-09-08T08:27:45.000Z</time>
      </trkpt>
      <trkpt lat="48.02942" lon="1.54758">
        <ele>126.619745</ele>
        <time>2021-09-08T08:27:54.000Z</time>
      </trkpt>
      <trkpt lat="48.02929" lon="1.54827">
        <ele>126.558369</ele>
        <time>2021-09-08T08:28:03.000Z</time>
      </trkpt>
      <trkpt lat="48.02914" lon="1.54899">
        <ele>126.748349</ele>
        <time>2021-09-08T08:28:13.000Z</time>
      </trkpt>
      <trkpt lat="48.02905" lon="1.54944">
        <ele>126.864537</ele>
        <time>2021-09-08T08:28:20.000Z</time>
      </trkpt>
      <trkpt lat="48.02896" lon="1.54992">
        <ele>126.989784</ele>
        <time>2021-09-08T08:28:28.000Z</time>
      </trkpt>
      <trkpt lat="48.02891" lon="1.55016">
        <ele>127.052739</ele>
        <time>2021-09-08T08:28:32.000Z</time>
      </trkpt>
      <trkpt lat="48.02887" lon="1.55034">
        <ele>127.100187</ele>
        <time>2021-09-08T08:28:35.000Z</time>
      </trkpt>
      <trkpt lat="48.02875" lon="1.55099">
        <ele>127.314533</ele>
        <time>2021-09-08T08:28:46.000Z</time>
      </trkpt>
      <trkpt lat="48.02863" lon="1.55155">
        <ele>127.551657</ele>
        <time>2021-09-08T08:28:55.000Z</time>
      </trkpt>
      <trkpt lat="48.02852" lon="1.55213">
        <ele>127.800557</ele>
        <time>2021-09-08T08:29:04.000Z</time>
      </trkpt>
      <trkpt lat="48.02843" lon="1.55259">
        <ele>127.998068</ele>
        <time>2021-09-08T08:29:11.000Z</time>
      </trkpt>
      <trkpt lat="48.02829" lon="1.55325">
        <ele>128.281467</ele>
        <time>2021-09-08T08:29:21.000Z</time>
      </trkpt>
      <trkpt lat="48.02821" lon="1.55364">
        <ele>128.447321</ele>
        <time>2021-09-08T08:29:27.000Z</time>
      </trkpt>
      <trkpt lat="48.02819" lon="1.55378">
        <ele>128.503617</ele>
        <time>2021-09-08T08:29:29.000Z</time>
      </trkpt>
      <trkpt lat="48.02807" lon="1.55439">
        <ele>128.757955</ele>
        <time>2021-09-08T08:29:38.000Z</time>
      </trkpt>
      <trkpt lat="48.02793" lon="1.55506">
        <ele>129.036696</ele>
        <time>2021-09-08T08:29:48.000Z</time>
      </trkpt>
      <trkpt lat="48.02783" lon="1.55557">
        <ele>129.250524</ele>
        <time>2021-09-08T08:29:56.000Z</time>
      </trkpt>
      <trkpt lat="48.02772" lon="1.55614">
        <ele>129.399864</ele>
        <time>2021-09-08T08:30:05.000Z</time>
      </trkpt>
      <trkpt lat="48.0276" lon="1.55676">
        <ele>129.447658</ele>
        <time>2021-09-08T08:30:14.000Z</time>
      </trkpt>
      <trkpt lat="48.02749" lon="1.55732">
        <ele>129.491423</ele>
        <time>2021-09-08T08:30:21.000Z</time>
      </trkpt>
      <trkpt lat="48.02738" lon="1.55785">
        <ele>129.531899</ele>
        <time>2021-09-08T08:30:27.000Z</time>
      </trkpt>
      <trkpt lat="48.02737" lon="1.55794">
        <ele>129.538897</ele>
        <time>2021-09-08T08:30:28.000Z</time>
      </trkpt>
      <trkpt lat="48.02725" lon="1.55857">
        <ele>129.557595</ele>
        <time>2021-09-08T08:30:35.000Z</time>
      </trkpt>
      <trkpt lat="48.02709" lon="1.5593">
        <ele>129.404755</ele>
        <time>2021-09-08T08:30:43.000Z</time>
      </trkpt>
      <trkpt lat="48.02697" lon="1.55991">
        <ele>129.275546</ele>
        <time>2021-09-08T08:30:50.000Z</time>
      </trkpt>
      <trkpt lat="48.02681" lon="1.56057">
        <ele>129.136024</ele>
        <time>2021-09-08T08:30:58.000Z</time>
      </trkpt>
      <trkpt lat="48.02667" lon="1.56128">
        <ele>129.046412</ele>
        <time>2021-09-08T08:31:07.000Z</time>
      </trkpt>
      <trkpt lat="48.02652" lon="1.56203">
        <ele>129.065143</ele>
        <time>2021-09-08T08:31:18.000Z</time>
      </trkpt>
      <trkpt lat="48.02641" lon="1.56269">
        <ele>129.081269</ele>
        <time>2021-09-08T08:31:28.000Z</time>
      </trkpt>
      <trkpt lat="48.0263" lon="1.56336">
        <ele>129.097507</ele>
        <time>2021-09-08T08:31:38.000Z</time>
      </trkpt>
      <trkpt lat="48.02619" lon="1.56402">
        <ele>129.123598</ele>
        <time>2021-09-08T08:31:48.000Z</time>
      </trkpt>
      <trkpt lat="48.02611" lon="1.56458">
        <ele>129.151511</ele>
        <time>2021-09-08T08:31:56.000Z</time>
      </trkpt>
      <trkpt lat="48.02604" lon="1.56515">
        <ele>129.179768</ele>
        <time>2021-09-08T08:32:04.000Z</time>
      </trkpt>
      <trkpt lat="48.02595" lon="1.56588">
        <ele>129.215997</ele>
        <time>2021-09-08T08:32:14.000Z</time>
      </trkpt>
      <trkpt lat="48.02587" lon="1.56657">
        <ele>129.185882</ele>
        <time>2021-09-08T08:32:23.000Z</time>
      </trkpt>
      <trkpt lat="48.02578" lon="1.56727">
        <ele>129.07467</ele>
        <time>2021-09-08T08:32:32.000Z</time>
      </trkpt>
      <trkpt lat="48.02571" lon="1.56793">
        <ele>128.970672</ele>
        <time>2021-09-08T08:32:40.000Z</time>
      </trkpt>
      <trkpt lat="48.02563" lon="1.56877">
        <ele>128.837868</ele>
        <time>2021-09-08T08:32:50.000Z</time>
      </trkpt>
      <trkpt lat="48.02562" lon="1.56885">
        <ele>128.824445</ele>
        <time>2021-09-08T08:32:51.000Z</time>
      </trkpt>
      <trkpt lat="48.02554" lon="1.56969">
        <ele>128.667357</ele>
        <time>2021-09-08T08:33:01.000Z</time>
      </trkpt>
      <trkpt lat="48.02553" lon="1.56977">
        <ele>128.651968</ele>
        <time>2021-09-08T08:33:02.000Z</time>
      </trkpt>
      <trkpt lat="48.02544" lon="1.57058">
        <ele>128.497529</ele>
        <time>2021-09-08T08:33:12.000Z</time>
      </trkpt>
      <trkpt lat="48.02543" lon="1.57066">
        <ele>128.482287</ele>
        <time>2021-09-08T08:33:13.000Z</time>
      </trkpt>
      <trkpt lat="48.02536" lon="1.57127">
        <ele>128.365667</ele>
        <time>2021-09-08T08:33:21.000Z</time>
      </trkpt>
      <trkpt lat="48.02532" lon="1.5717">
        <ele>128.310476</ele>
        <time>2021-09-08T08:33:27.000Z</time>
      </trkpt>
      <trkpt lat="48.02526" lon="1.57224">
        <ele>128.323367</ele>
        <time>2021-09-08T08:33:35.000Z</time>
      </trkpt>
      <trkpt lat="48.02516" lon="1.57299">
        <ele>128.341045</ele>
        <time>2021-09-08T08:33:46.000Z</time>
      </trkpt>
      <trkpt lat="48.02504" lon="1.57359">
        <ele>128.35565</ele>
        <time>2021-09-08T08:33:55.000Z</time>
      </trkpt>
      <trkpt lat="48.02493" lon="1.57414">
        <ele>128.369009</ele>
        <time>2021-09-08T08:34:03.000Z</time>
      </trkpt>
      <trkpt lat="48.0248" lon="1.57472">
        <ele>128.376489</ele>
        <time>2021-09-08T08:34:11.000Z</time>
      </trkpt>
      <trkpt lat="48.02469" lon="1.57524">
        <ele>128.382463</ele>
        <time>2021-09-08T08:34:18.000Z</time>
      </trkpt>
      <trkpt lat="48.02452" lon="1.57606">
        <ele>128.392014</ele>
        <time>2021-09-08T08:34:29.000Z</time>
      </trkpt>
      <trkpt lat="48.02449" lon="1.57621">
        <ele>128.393748</ele>
        <time>2021-09-08T08:34:31.000Z</time>
      </trkpt>
      <trkpt lat="48.0244" lon="1.57659">
        <ele>128.39814</ele>
        <time>2021-09-08T08:34:36.000Z</time>
      </trkpt>
      <trkpt lat="48.02438" lon="1.57674">
        <ele>128.399892</ele>
        <time>2021-09-08T08:34:38.000Z</time>
      </trkpt>
      <trkpt lat="48.02427" lon="1.57728">
        <ele>128.416526</ele>
        <time>2021-09-08T08:34:45.000Z</time>
      </trkpt>
      <trkpt lat="48.02413" lon="1.57796">
        <ele>128.437823</ele>
        <time>2021-09-08T08:34:54.000Z</time>
      </trkpt>
      <trkpt lat="48.02398" lon="1.57862">
        <ele>128.458564</ele>
        <time>2021-09-08T08:35:03.000Z</time>
      </trkpt>
      <trkpt lat="48.02385" lon="1.5792">
        <ele>128.476563</ele>
        <time>2021-09-08T08:35:11.000Z</time>
      </trkpt>
      <trkpt lat="48.0237" lon="1.57994">
        <ele>128.521675</ele>
        <time>2021-09-08T08:35:21.000Z</time>
      </trkpt>
      <trkpt lat="48.02355" lon="1.5806">
        <ele>128.566205</ele>
        <time>2021-09-08T08:35:30.000Z</time>
      </trkpt>
      <trkpt lat="48.02339" lon="1.58135">
        <ele>128.615904</ele>
        <time>2021-09-08T08:35:40.000Z</time>
      </trkpt>
      <trkpt lat="48.02323" lon="1.5821">
        <ele>128.679652</ele>
        <time>2021-09-08T08:35:50.000Z</time>
      </trkpt>
      <trkpt lat="48.02306" lon="1.58291">
        <ele>128.782709</ele>
        <time>2021-09-08T08:36:01.000Z</time>
      </trkpt>
      <trkpt lat="48.02305" lon="1.58298">
        <ele>128.791689</ele>
        <time>2021-09-08T08:36:02.000Z</time>
      </trkpt>
      <trkpt lat="48.02293" lon="1.58356">
        <ele>128.865791</ele>
        <time>2021-09-08T08:36:10.000Z</time>
      </trkpt>
      <trkpt lat="48.02278" lon="1.58424">
        <ele>128.951398</ele>
        <time>2021-09-08T08:36:19.000Z</time>
      </trkpt>
      <trkpt lat="48.02262" lon="1.58498">
        <ele>128.984975</ele>
        <time>2021-09-08T08:36:29.000Z</time>
      </trkpt>
      <trkpt lat="48.0225" lon="1.58556">
        <ele>128.993494</ele>
        <time>2021-09-08T08:36:37.000Z</time>
      </trkpt>
      <trkpt lat="48.02246" lon="1.58571">
        <ele>128.995716</ele>
        <time>2021-09-08T08:36:39.000Z</time>
      </trkpt>
      <trkpt lat="48.02238" lon="1.58609">
        <ele>129.001232</ele>
        <time>2021-09-08T08:36:44.000Z</time>
      </trkpt>
      <trkpt lat="48.0222" lon="1.58689">
        <ele>129.012919</ele>
        <time>2021-09-08T08:36:54.000Z</time>
      </trkpt>
      <trkpt lat="48.02202" lon="1.58763">
        <ele>129.024811</ele>
        <time>2021-09-08T08:37:03.000Z</time>
      </trkpt>
      <trkpt lat="48.02185" lon="1.58838">
        <ele>129.036907</ele>
        <time>2021-09-08T08:37:12.000Z</time>
      </trkpt>
      <trkpt lat="48.02166" lon="1.58909">
        <ele>129.048496</ele>
        <time>2021-09-08T08:37:21.000Z</time>
      </trkpt>
      <trkpt lat="48.02147" lon="1.58976">
        <ele>129.05103</ele>
        <time>2021-09-08T08:37:30.000Z</time>
      </trkpt>
      <trkpt lat="48.0213" lon="1.59034">
        <ele>129.041053</ele>
        <time>2021-09-08T08:37:38.000Z</time>
      </trkpt>
      <trkpt lat="48.02112" lon="1.59096">
        <ele>129.03017</ele>
        <time>2021-09-08T08:37:47.000Z</time>
      </trkpt>
      <trkpt lat="48.02091" lon="1.59166">
        <ele>129.017865</ele>
        <time>2021-09-08T08:37:57.000Z</time>
      </trkpt>
      <trkpt lat="48.02069" lon="1.59239">
        <ele>128.968264</ele>
        <time>2021-09-08T08:38:07.000Z</time>
      </trkpt>
      <trkpt lat="48.02057" lon="1.59278">
        <ele>128.927429</ele>
        <time>2021-09-08T08:38:13.000Z</time>
      </trkpt>
      <trkpt lat="48.0204" lon="1.59333">
        <ele>128.870073</ele>
        <time>2021-09-08T08:38:22.000Z</time>
      </trkpt>
      <trkpt lat="48.02025" lon="1.59381">
        <ele>128.819293</ele>
        <time>2021-09-08T08:38:29.000Z</time>
      </trkpt>
      <trkpt lat="48.02004" lon="1.5945">
        <ele>128.729265</ele>
        <time>2021-09-08T08:38:38.000Z</time>
      </trkpt>
      <trkpt lat="48.01986" lon="1.59511">
        <ele>128.536326</ele>
        <time>2021-09-08T08:38:46.000Z</time>
      </trkpt>
      <trkpt lat="48.01964" lon="1.59584">
        <ele>128.305541</ele>
        <time>2021-09-08T08:38:56.000Z</time>
      </trkpt>
      <trkpt lat="48.01943" lon="1.59656">
        <ele>128.079135</ele>
        <time>2021-09-08T08:39:06.000Z</time>
      </trkpt>
      <trkpt lat="48.0192" lon="1.5973">
        <ele>127.848037</ele>
        <time>2021-09-08T08:39:16.000Z</time>
      </trkpt>
      <trkpt lat="48.01896" lon="1.5981">
        <ele>127.596527</ele>
        <time>2021-09-08T08:39:27.000Z</time>
      </trkpt>
      <trkpt lat="48.01879" lon="1.59867">
        <ele>127.418745</ele>
        <time>2021-09-08T08:39:35.000Z</time>
      </trkpt>
      <trkpt lat="48.01859" lon="1.59932">
        <ele>127.213786</ele>
        <time>2021-09-08T08:39:44.000Z</time>
      </trkpt>
      <trkpt lat="48.01836" lon="1.60007">
        <ele>127.012763</ele>
        <time>2021-09-08T08:39:54.000Z</time>
      </trkpt>
      <trkpt lat="48.01814" lon="1.60075">
        <ele>126.826128</ele>
        <time>2021-09-08T08:40:03.000Z</time>
      </trkpt>
      <trkpt lat="48.01792" lon="1.60143">
        <ele>126.64062</ele>
        <time>2021-09-08T08:40:12.000Z</time>
      </trkpt>
      <trkpt lat="48.01767" lon="1.60223">
        <ele>126.500491</ele>
        <time>2021-09-08T08:40:23.000Z</time>
      </trkpt>
      <trkpt lat="48.01747" lon="1.60291">
        <ele>126.422542</ele>
        <time>2021-09-08T08:40:33.000Z</time>
      </trkpt>
      <trkpt lat="48.01727" lon="1.60359">
        <ele>126.344879</ele>
        <time>2021-09-08T08:40:43.000Z</time>
      </trkpt>
      <trkpt lat="48.0171" lon="1.60412">
        <ele>126.283516</ele>
        <time>2021-09-08T08:40:51.000Z</time>
      </trkpt>
      <trkpt lat="48.01692" lon="1.6047">
        <ele>126.357052</ele>
        <time>2021-09-08T08:41:00.000Z</time>
      </trkpt>
      <trkpt lat="48.01677" lon="1.60523">
        <ele>126.441799</ele>
        <time>2021-09-08T08:41:08.000Z</time>
      </trkpt>
      <trkpt lat="48.01661" lon="1.60576">
        <ele>126.52726</ele>
        <time>2021-09-08T08:41:16.000Z</time>
      </trkpt>
      <trkpt lat="48.01657" lon="1.60589">
        <ele>126.547999</ele>
        <time>2021-09-08T08:41:18.000Z</time>
      </trkpt>
      <trkpt lat="48.01641" lon="1.60647">
        <ele>126.641308</ele>
        <time>2021-09-08T08:41:27.000Z</time>
      </trkpt>
      <trkpt lat="48.01628" lon="1.60695">
        <ele>126.709387</ele>
        <time>2021-09-08T08:41:34.000Z</time>
      </trkpt>
      <trkpt lat="48.01607" lon="1.60772">
        <ele>126.811153</ele>
        <time>2021-09-08T08:41:45.000Z</time>
      </trkpt>
      <trkpt lat="48.01585" lon="1.60852">
        <ele>126.916218</ele>
        <time>2021-09-08T08:41:56.000Z</time>
      </trkpt>
      <trkpt lat="48.01569" lon="1.60913">
        <ele>126.996801</ele>
        <time>2021-09-08T08:42:04.000Z</time>
      </trkpt>
      <trkpt lat="48.01551" lon="1.60981">
        <ele>127.046827</ele>
        <time>2021-09-08T08:42:13.000Z</time>
      </trkpt>
      <trkpt lat="48.0153" lon="1.61058">
        <ele>127.100918</ele>
        <time>2021-09-08T08:42:23.000Z</time>
      </trkpt>
      <trkpt lat="48.01524" lon="1.61081">
        <ele>127.117114</ele>
        <time>2021-09-08T08:42:26.000Z</time>
      </trkpt>
      <trkpt lat="48.01508" lon="1.6114">
        <ele>127.158906</ele>
        <time>2021-09-08T08:42:34.000Z</time>
      </trkpt>
      <trkpt lat="48.01492" lon="1.61208">
        <ele>127.187115</ele>
        <time>2021-09-08T08:42:44.000Z</time>
      </trkpt>
      <trkpt lat="48.01473" lon="1.61286">
        <ele>127.206462</ele>
        <time>2021-09-08T08:42:55.000Z</time>
      </trkpt>
      <trkpt lat="48.01462" lon="1.61336">
        <ele>127.218754</ele>
        <time>2021-09-08T08:43:02.000Z</time>
      </trkpt>
      <trkpt lat="48.01461" lon="1.61342">
        <ele>127.220294</ele>
        <time>2021-09-08T08:43:03.000Z</time>
      </trkpt>
      <trkpt lat="48.01453" lon="1.61374">
        <ele>127.227968</ele>
        <time>2021-09-08T08:43:08.000Z</time>
      </trkpt>
      <trkpt lat="48.01442" lon="1.6142">
        <ele>127.236785</ele>
        <time>2021-09-08T08:43:15.000Z</time>
      </trkpt>
      <trkpt lat="48.01432" lon="1.61467">
        <ele>127.140211</ele>
        <time>2021-09-08T08:43:22.000Z</time>
      </trkpt>
      <trkpt lat="48.01419" lon="1.61526">
        <ele>127.019191</ele>
        <time>2021-09-08T08:43:30.000Z</time>
      </trkpt>
      <trkpt lat="48.01402" lon="1.616">
        <ele>126.866038</ele>
        <time>2021-09-08T08:43:39.000Z</time>
      </trkpt>
      <trkpt lat="48.01386" lon="1.61667">
        <ele>126.727507</ele>
        <time>2021-09-08T08:43:47.000Z</time>
      </trkpt>
      <trkpt lat="48.01369" lon="1.61742">
        <ele>126.453693</ele>
        <time>2021-09-08T08:43:56.000Z</time>
      </trkpt>
      <trkpt lat="48.01352" lon="1.61816">
        <ele>126.169976</ele>
        <time>2021-09-08T08:44:05.000Z</time>
      </trkpt>
      <trkpt lat="48.01332" lon="1.61898">
        <ele>125.857991</ele>
        <time>2021-09-08T08:44:15.000Z</time>
      </trkpt>
      <trkpt lat="48.01319" lon="1.61956">
        <ele>125.641334</ele>
        <time>2021-09-08T08:44:22.000Z</time>
      </trkpt>
      <trkpt lat="48.013" lon="1.6204">
        <ele>125.342669</ele>
        <time>2021-09-08T08:44:32.000Z</time>
      </trkpt>
      <trkpt lat="48.01298" lon="1.62048">
        <ele>125.31227</ele>
        <time>2021-09-08T08:44:33.000Z</time>
      </trkpt>
      <trkpt lat="48.01283" lon="1.62113">
        <ele>125.080307</ele>
        <time>2021-09-08T08:44:41.000Z</time>
      </trkpt>
      <trkpt lat="48.01266" lon="1.62184">
        <ele>124.826015</ele>
        <time>2021-09-08T08:44:50.000Z</time>
      </trkpt>
      <trkpt lat="48.01248" lon="1.62263">
        <ele>124.560179</ele>
        <time>2021-09-08T08:45:00.000Z</time>
      </trkpt>
      <trkpt lat="48.01247" lon="1.62271">
        <ele>124.533956</ele>
        <time>2021-09-08T08:45:01.000Z</time>
      </trkpt>
      <trkpt lat="48.01229" lon="1.62349">
        <ele>124.269929</ele>
        <time>2021-09-08T08:45:11.000Z</time>
      </trkpt>
      <trkpt lat="48.01212" lon="1.62421">
        <ele>124.028039</ele>
        <time>2021-09-08T08:45:20.000Z</time>
      </trkpt>
      <trkpt lat="48.01195" lon="1.62498">
        <ele>123.814828</ele>
        <time>2021-09-08T08:45:30.000Z</time>
      </trkpt>
      <trkpt lat="48.01193" lon="1.62505">
        <ele>123.795679</ele>
        <time>2021-09-08T08:45:31.000Z</time>
      </trkpt>
      <trkpt lat="48.01174" lon="1.62586">
        <ele>123.580263</ele>
        <time>2021-09-08T08:45:42.000Z</time>
      </trkpt>
      <trkpt lat="48.01158" lon="1.62653">
        <ele>123.401512</ele>
        <time>2021-09-08T08:45:51.000Z</time>
      </trkpt>
      <trkpt lat="48.01141" lon="1.62727">
        <ele>123.233853</ele>
        <time>2021-09-08T08:46:01.000Z</time>
      </trkpt>
      <trkpt lat="48.01125" lon="1.62802">
        <ele>123.091698</ele>
        <time>2021-09-08T08:46:11.000Z</time>
      </trkpt>
      <trkpt lat="48.01108" lon="1.62873">
        <ele>122.955444</ele>
        <time>2021-09-08T08:46:21.000Z</time>
      </trkpt>
      <trkpt lat="48.01096" lon="1.6293">
        <ele>122.846182</ele>
        <time>2021-09-08T08:46:29.000Z</time>
      </trkpt>
      <trkpt lat="48.01083" lon="1.62989">
        <ele>122.862039</ele>
        <time>2021-09-08T08:46:37.000Z</time>
      </trkpt>
      <trkpt lat="48.01068" lon="1.63055">
        <ele>122.926857</ele>
        <time>2021-09-08T08:46:46.000Z</time>
      </trkpt>
      <trkpt lat="48.01056" lon="1.6312">
        <ele>122.989967</ele>
        <time>2021-09-08T08:46:55.000Z</time>
      </trkpt>
      <trkpt lat="48.01042" lon="1.63192">
        <ele>123.058836</ele>
        <time>2021-09-08T08:47:05.000Z</time>
      </trkpt>
      <trkpt lat="48.01032" lon="1.63261">
        <ele>123.220363</ele>
        <time>2021-09-08T08:47:15.000Z</time>
      </trkpt>
      <trkpt lat="48.01021" lon="1.63324">
        <ele>123.382124</ele>
        <time>2021-09-08T08:47:24.000Z</time>
      </trkpt>
      <trkpt lat="48.0101" lon="1.63389">
        <ele>123.549539</ele>
        <time>2021-09-08T08:47:33.000Z</time>
      </trkpt>
      <trkpt lat="48.00999" lon="1.6346">
        <ele>123.731516</ele>
        <time>2021-09-08T08:47:43.000Z</time>
      </trkpt>
      <trkpt lat="48.00987" lon="1.63517">
        <ele>123.73198</ele>
        <time>2021-09-08T08:47:51.000Z</time>
      </trkpt>
      <trkpt lat="48.00973" lon="1.63582">
        <ele>123.722742</ele>
        <time>2021-09-08T08:48:00.000Z</time>
      </trkpt>
      <trkpt lat="48.00961" lon="1.63643">
        <ele>123.714258</ele>
        <time>2021-09-08T08:48:08.000Z</time>
      </trkpt>
      <trkpt lat="48.00945" lon="1.63721">
        <ele>123.701461</ele>
        <time>2021-09-08T08:48:18.000Z</time>
      </trkpt>
      <trkpt lat="48.00943" lon="1.63729">
        <ele>123.681533</ele>
        <time>2021-09-08T08:48:19.000Z</time>
      </trkpt>
      <trkpt lat="48.00932" lon="1.63785">
        <ele>123.539829</ele>
        <time>2021-09-08T08:48:26.000Z</time>
      </trkpt>
      <trkpt lat="48.00919" lon="1.63849">
        <ele>123.377652</ele>
        <time>2021-09-08T08:48:34.000Z</time>
      </trkpt>
      <trkpt lat="48.00903" lon="1.63929">
        <ele>123.174411</ele>
        <time>2021-09-08T08:48:44.000Z</time>
      </trkpt>
      <trkpt lat="48.00887" lon="1.64009">
        <ele>122.958128</ele>
        <time>2021-09-08T08:48:54.000Z</time>
      </trkpt>
      <trkpt lat="48.00884" lon="1.64025">
        <ele>122.911224</ele>
        <time>2021-09-08T08:48:56.000Z</time>
      </trkpt>
      <trkpt lat="48.00873" lon="1.6408">
        <ele>122.746471</ele>
        <time>2021-09-08T08:49:03.000Z</time>
      </trkpt>
      <trkpt lat="48.00857" lon="1.6416">
        <ele>122.508091</ele>
        <time>2021-09-08T08:49:13.000Z</time>
      </trkpt>
      <trkpt lat="48.00856" lon="1.64168">
        <ele>122.483954</ele>
        <time>2021-09-08T08:49:14.000Z</time>
      </trkpt>
      <trkpt lat="48.00841" lon="1.6424">
        <ele>122.268882</ele>
        <time>2021-09-08T08:49:23.000Z</time>
      </trkpt>
      <trkpt lat="48.00827" lon="1.64312">
        <ele>122.045399</ele>
        <time>2021-09-08T08:49:32.000Z</time>
      </trkpt>
      <trkpt lat="48.00811" lon="1.64392">
        <ele>121.796529</ele>
        <time>2021-09-08T08:49:42.000Z</time>
      </trkpt>
      <trkpt lat="48.00808" lon="1.64408">
        <ele>121.746132</ele>
        <time>2021-09-08T08:49:44.000Z</time>
      </trkpt>
      <trkpt lat="48.00792" lon="1.64488">
        <ele>121.495989</ele>
        <time>2021-09-08T08:49:54.000Z</time>
      </trkpt>
      <trkpt lat="48.0079" lon="1.64496">
        <ele>121.472089</ele>
        <time>2021-09-08T08:49:55.000Z</time>
      </trkpt>
      <trkpt lat="48.00774" lon="1.64576">
        <ele>121.265516</ele>
        <time>2021-09-08T08:50:05.000Z</time>
      </trkpt>
      <trkpt lat="48.00773" lon="1.64584">
        <ele>121.245283</ele>
        <time>2021-09-08T08:50:06.000Z</time>
      </trkpt>
      <trkpt lat="48.00758" lon="1.64655">
        <ele>121.061255</ele>
        <time>2021-09-08T08:50:15.000Z</time>
      </trkpt>
      <trkpt lat="48.00744" lon="1.64727">
        <ele>120.875543</ele>
        <time>2021-09-08T08:50:24.000Z</time>
      </trkpt>
      <trkpt lat="48.00728" lon="1.64805">
        <ele>120.69575</ele>
        <time>2021-09-08T08:50:34.000Z</time>
      </trkpt>
      <trkpt lat="48.00725" lon="1.64821">
        <ele>120.66143</ele>
        <time>2021-09-08T08:50:36.000Z</time>
      </trkpt>
      <trkpt lat="48.00713" lon="1.64882">
        <ele>120.528652</ele>
        <time>2021-09-08T08:50:44.000Z</time>
      </trkpt>
      <trkpt lat="48.00703" lon="1.64933">
        <ele>120.418617</ele>
        <time>2021-09-08T08:50:51.000Z</time>
      </trkpt>
      <trkpt lat="48.00695" lon="1.64974">
        <ele>120.328548</ele>
        <time>2021-09-08T08:50:57.000Z</time>
      </trkpt>
      <trkpt lat="48.00684" lon="1.65021">
        <ele>120.232764</ele>
        <time>2021-09-08T08:51:04.000Z</time>
      </trkpt>
      <trkpt lat="48.00683" lon="1.65028">
        <ele>120.222911</ele>
        <time>2021-09-08T08:51:05.000Z</time>
      </trkpt>
      <trkpt lat="48.00677" lon="1.65061">
        <ele>120.170923</ele>
        <time>2021-09-08T08:51:10.000Z</time>
      </trkpt>
      <trkpt lat="48.00666" lon="1.65113">
        <ele>120.089292</ele>
        <time>2021-09-08T08:51:17.000Z</time>
      </trkpt>
      <trkpt lat="48.00653" lon="1.65182">
        <ele>119.981678</ele>
        <time>2021-09-08T08:51:26.000Z</time>
      </trkpt>
      <trkpt lat="48.00636" lon="1.65264">
        <ele>119.852966</ele>
        <time>2021-09-08T08:51:36.000Z</time>
      </trkpt>
      <trkpt lat="48.00634" lon="1.65272">
        <ele>119.843662</ele>
        <time>2021-09-08T08:51:37.000Z</time>
      </trkpt>
      <trkpt lat="48.00618" lon="1.65354">
        <ele>119.762695</ele>
        <time>2021-09-08T08:51:47.000Z</time>
      </trkpt>
      <trkpt lat="48.00616" lon="1.65362">
        <ele>119.754714</ele>
        <time>2021-09-08T08:51:48.000Z</time>
      </trkpt>
      <trkpt lat="48.006" lon="1.65445">
        <ele>119.673112</ele>
        <time>2021-09-08T08:51:58.000Z</time>
      </trkpt>
      <trkpt lat="48.00597" lon="1.65461">
        <ele>119.656968</ele>
        <time>2021-09-08T08:52:00.000Z</time>
      </trkpt>
      <trkpt lat="48.00582" lon="1.65536">
        <ele>119.584912</ele>
        <time>2021-09-08T08:52:09.000Z</time>
      </trkpt>
      <trkpt lat="48.00567" lon="1.65617">
        <ele>119.516893</ele>
        <time>2021-09-08T08:52:19.000Z</time>
      </trkpt>
      <trkpt lat="48.00566" lon="1.65625">
        <ele>119.510009</ele>
        <time>2021-09-08T08:52:20.000Z</time>
      </trkpt>
      <trkpt lat="48.00552" lon="1.65698">
        <ele>119.448136</ele>
        <time>2021-09-08T08:52:29.000Z</time>
      </trkpt>
      <trkpt lat="48.00539" lon="1.6578">
        <ele>119.379868</ele>
        <time>2021-09-08T08:52:39.000Z</time>
      </trkpt>
      <trkpt lat="48.00532" lon="1.65831">
        <ele>119.32319</ele>
        <time>2021-09-08T08:52:45.000Z</time>
      </trkpt>
      <trkpt lat="48.00522" lon="1.6591">
        <ele>119.23624</ele>
        <time>2021-09-08T08:52:54.000Z</time>
      </trkpt>
      <trkpt lat="48.00515" lon="1.65985">
        <ele>119.153073</ele>
        <time>2021-09-08T08:53:03.000Z</time>
      </trkpt>
      <trkpt lat="48.00508" lon="1.66067">
        <ele>119.06681</ele>
        <time>2021-09-08T08:53:13.000Z</time>
      </trkpt>
      <trkpt lat="48.00502" lon="1.66148">
        <ele>118.994931</ele>
        <time>2021-09-08T08:53:23.000Z</time>
      </trkpt>
      <trkpt lat="48.00498" lon="1.66209">
        <ele>118.941046</ele>
        <time>2021-09-08T08:53:31.000Z</time>
      </trkpt>
      <trkpt lat="48.00493" lon="1.6628">
        <ele>118.878432</ele>
        <time>2021-09-08T08:53:40.000Z</time>
      </trkpt>
      <trkpt lat="48.00486" lon="1.66367">
        <ele>118.840566</ele>
        <time>2021-09-08T08:53:51.000Z</time>
      </trkpt>
      <trkpt lat="48.00486" lon="1.66375">
        <ele>118.839642</ele>
        <time>2021-09-08T08:53:52.000Z</time>
      </trkpt>
      <trkpt lat="48.0048" lon="1.66448">
        <ele>118.831088</ele>
        <time>2021-09-08T08:54:01.000Z</time>
      </trkpt>
      <trkpt lat="48.00476" lon="1.66526">
        <ele>118.821937</ele>
        <time>2021-09-08T08:54:11.000Z</time>
      </trkpt>
      <trkpt lat="48.00471" lon="1.66593">
        <ele>118.825621</ele>
        <time>2021-09-08T08:54:20.000Z</time>
      </trkpt>
      <trkpt lat="48.00467" lon="1.66659">
        <ele>118.89178</ele>
        <time>2021-09-08T08:54:29.000Z</time>
      </trkpt>
      <trkpt lat="48.00461" lon="1.6674">
        <ele>118.973495</ele>
        <time>2021-09-08T08:54:40.000Z</time>
      </trkpt>
      <trkpt lat="48.00461" lon="1.66748">
        <ele>118.981019</ele>
        <time>2021-09-08T08:54:41.000Z</time>
      </trkpt>
      <trkpt lat="48.00455" lon="1.66831">
        <ele>119.064321</ele>
        <time>2021-09-08T08:54:52.000Z</time>
      </trkpt>
      <trkpt lat="48.00448" lon="1.66905">
        <ele>119.135248</ele>
        <time>2021-09-08T08:55:02.000Z</time>
      </trkpt>
      <trkpt lat="48.00442" lon="1.66966">
        <ele>119.191796</ele>
        <time>2021-09-08T08:55:10.000Z</time>
      </trkpt>
      <trkpt lat="48.00435" lon="1.67043">
        <ele>119.263516</ele>
        <time>2021-09-08T08:55:20.000Z</time>
      </trkpt>
      <trkpt lat="48.00429" lon="1.67106">
        <ele>119.321464</ele>
        <time>2021-09-08T08:55:28.000Z</time>
      </trkpt>
      <trkpt lat="48.00422" lon="1.67179">
        <ele>119.339695</ele>
        <time>2021-09-08T08:55:37.000Z</time>
      </trkpt>
      <trkpt lat="48.00416" lon="1.67246">
        <ele>119.348475</ele>
        <time>2021-09-08T08:55:45.000Z</time>
      </trkpt>
      <trkpt lat="48.00408" lon="1.67331">
        <ele>119.359692</ele>
        <time>2021-09-08T08:55:55.000Z</time>
      </trkpt>
      <trkpt lat="48.00407" lon="1.6734">
        <ele>119.360823</ele>
        <time>2021-09-08T08:55:56.000Z</time>
      </trkpt>
      <trkpt lat="48.004" lon="1.67417">
        <ele>119.398517</ele>
        <time>2021-09-08T08:56:05.000Z</time>
      </trkpt>
      <trkpt lat="48.00392" lon="1.67498">
        <ele>119.475315</ele>
        <time>2021-09-08T08:56:15.000Z</time>
      </trkpt>
      <trkpt lat="48.00385" lon="1.67569">
        <ele>119.542438</ele>
        <time>2021-09-08T08:56:24.000Z</time>
      </trkpt>
      <trkpt lat="48.00381" lon="1.67617">
        <ele>119.58742</ele>
        <time>2021-09-08T08:56:30.000Z</time>
      </trkpt>
      <trkpt lat="48.00373" lon="1.67697">
        <ele>119.660497</ele>
        <time>2021-09-08T08:56:40.000Z</time>
      </trkpt>
      <trkpt lat="48.00365" lon="1.67779">
        <ele>119.732826</ele>
        <time>2021-09-08T08:56:50.000Z</time>
      </trkpt>
      <trkpt lat="48.00357" lon="1.67862">
        <ele>119.805834</ele>
        <time>2021-09-08T08:57:00.000Z</time>
      </trkpt>
      <trkpt lat="48.00349" lon="1.67942">
        <ele>119.862561</ele>
        <time>2021-09-08T08:57:10.000Z</time>
      </trkpt>
      <trkpt lat="48.00343" lon="1.68014">
        <ele>119.889783</ele>
        <time>2021-09-08T08:57:19.000Z</time>
      </trkpt>
      <trkpt lat="48.00336" lon="1.68081">
        <ele>119.914857</ele>
        <time>2021-09-08T08:57:27.000Z</time>
      </trkpt>
      <trkpt lat="48.00329" lon="1.68155">
        <ele>119.942494</ele>
        <time>2021-09-08T08:57:36.000Z</time>
      </trkpt>
      <trkpt lat="48.00322" lon="1.68228">
        <ele>120.040934</ele>
        <time>2021-09-08T08:57:45.000Z</time>
      </trkpt>
      <trkpt lat="48.00317" lon="1.68282">
        <ele>120.142137</ele>
        <time>2021-09-08T08:57:52.000Z</time>
      </trkpt>
      <trkpt lat="48.00311" lon="1.68354">
        <ele>120.275753</ele>
        <time>2021-09-08T08:58:02.000Z</time>
      </trkpt>
      <trkpt lat="48.00306" lon="1.684">
        <ele>120.362722</ele>
        <time>2021-09-08T08:58:09.000Z</time>
      </trkpt>
      <trkpt lat="48.00301" lon="1.68458">
        <ele>120.511658</ele>
        <time>2021-09-08T08:58:18.000Z</time>
      </trkpt>
      <trkpt lat="48.00296" lon="1.68515">
        <ele>120.821034</ele>
        <time>2021-09-08T08:58:27.000Z</time>
      </trkpt>
      <trkpt lat="48.00289" lon="1.6859">
        <ele>121.235852</ele>
        <time>2021-09-08T08:58:39.000Z</time>
      </trkpt>
      <trkpt lat="48.00282" lon="1.68654">
        <ele>121.589388</ele>
        <time>2021-09-08T08:58:49.000Z</time>
      </trkpt>
      <trkpt lat="48.00277" lon="1.68701">
        <ele>121.852634</ele>
        <time>2021-09-08T08:58:56.000Z</time>
      </trkpt>
      <trkpt lat="48.00266" lon="1.68757">
        <ele>122.008935</ele>
        <time>2021-09-08T08:59:04.000Z</time>
      </trkpt>
      <trkpt lat="48.00252" lon="1.68824">
        <ele>122.148744</ele>
        <time>2021-09-08T08:59:13.000Z</time>
      </trkpt>
      <trkpt lat="48.00235" lon="1.68902">
        <ele>122.313417</ele>
        <time>2021-09-08T08:59:23.000Z</time>
      </trkpt>
      <trkpt lat="48.00217" lon="1.68982">
        <ele>122.445833</ele>
        <time>2021-09-08T08:59:33.000Z</time>
      </trkpt>
      <trkpt lat="48.002" lon="1.69062">
        <ele>122.401046</ele>
        <time>2021-09-08T08:59:43.000Z</time>
      </trkpt>
      <trkpt lat="48.00181" lon="1.69146">
        <ele>122.354308</ele>
        <time>2021-09-08T08:59:54.000Z</time>
      </trkpt>
      <trkpt lat="48.00179" lon="1.69154">
        <ele>122.349998</ele>
        <time>2021-09-08T08:59:55.000Z</time>
      </trkpt>
      <trkpt lat="48.00164" lon="1.69223">
        <ele>122.311901</ele>
        <time>2021-09-08T09:00:04.000Z</time>
      </trkpt>
      <trkpt lat="48.00151" lon="1.69283">
        <ele>122.286612</ele>
        <time>2021-09-08T09:00:12.000Z</time>
      </trkpt>
      <trkpt lat="48.00133" lon="1.69366">
        <ele>122.251973</ele>
        <time>2021-09-08T09:00:23.000Z</time>
      </trkpt>
      <trkpt lat="48.00121" lon="1.69417">
        <ele>122.230534</ele>
        <time>2021-09-08T09:00:30.000Z</time>
      </trkpt>
      <trkpt lat="48.00107" lon="1.69482">
        <ele>122.211274</ele>
        <time>2021-09-08T09:00:39.000Z</time>
      </trkpt>
      <trkpt lat="48.0009" lon="1.69562">
        <ele>122.472283</ele>
        <time>2021-09-08T09:00:50.000Z</time>
      </trkpt>
      <trkpt lat="48.00076" lon="1.69626">
        <ele>122.683252</ele>
        <time>2021-09-08T09:00:59.000Z</time>
      </trkpt>
      <trkpt lat="48.00064" lon="1.69676">
        <ele>122.84504</ele>
        <time>2021-09-08T09:01:06.000Z</time>
      </trkpt>
      <trkpt lat="48.00062" lon="1.6969">
        <ele>122.891768</ele>
        <time>2021-09-08T09:01:08.000Z</time>
      </trkpt>
      <trkpt lat="48.00056" lon="1.69719">
        <ele>122.985523</ele>
        <time>2021-09-08T09:01:12.000Z</time>
      </trkpt>
      <trkpt lat="48.00045" lon="1.69767">
        <ele>123.164775</ele>
        <time>2021-09-08T09:01:19.000Z</time>
      </trkpt>
      <trkpt lat="48.00028" lon="1.69828">
        <ele>123.414859</ele>
        <time>2021-09-08T09:01:28.000Z</time>
      </trkpt>
      <trkpt lat="48.00012" lon="1.69887">
        <ele>123.652166</ele>
        <time>2021-09-08T09:01:36.000Z</time>
      </trkpt>
      <trkpt lat="47.99999" lon="1.69936">
        <ele>123.849591</ele>
        <time>2021-09-08T09:01:43.000Z</time>
      </trkpt>
      <trkpt lat="47.99993" lon="1.69957">
        <ele>123.937459</ele>
        <time>2021-09-08T09:01:48.000Z</time>
      </trkpt>
      <trkpt lat="47.99985" lon="1.69981">
        <ele>124.037276</ele>
        <time>2021-09-08T09:01:54.000Z</time>
      </trkpt>
      <trkpt lat="47.9998" lon="1.69999">
        <ele>124.05573</ele>
        <time>2021-09-08T09:01:57.000Z</time>
      </trkpt>
      <trkpt lat="47.99975" lon="1.70012">
        <ele>124.062215</ele>
        <time>2021-09-08T09:01:59.000Z</time>
      </trkpt>
      <trkpt lat="47.99954" lon="1.70071">
        <ele>124.091447</ele>
        <time>2021-09-08T09:02:07.000Z</time>
      </trkpt>
      <trkpt lat="47.99936" lon="1.70119">
        <ele>124.114837</ele>
        <time>2021-09-08T09:02:13.000Z</time>
      </trkpt>
      <trkpt lat="47.9992" lon="1.70169">
        <ele>124.139104</ele>
        <time>2021-09-08T09:02:19.000Z</time>
      </trkpt>
      <trkpt lat="47.99902" lon="1.7022">
        <ele>124.164021</ele>
        <time>2021-09-08T09:02:25.000Z</time>
      </trkpt>
      <trkpt lat="47.99886" lon="1.70264">
        <ele>124.008278</ele>
        <time>2021-09-08T09:02:30.000Z</time>
      </trkpt>
      <trkpt lat="47.99877" lon="1.7029">
        <ele>123.908036</ele>
        <time>2021-09-08T09:02:33.000Z</time>
      </trkpt>
      <trkpt lat="47.99853" lon="1.7036">
        <ele>123.646598</ele>
        <time>2021-09-08T09:02:41.000Z</time>
      </trkpt>
      <trkpt lat="47.99827" lon="1.70437">
        <ele>123.357824</ele>
        <time>2021-09-08T09:02:50.000Z</time>
      </trkpt>
      <trkpt lat="47.99824" lon="1.70446">
        <ele>123.325443</ele>
        <time>2021-09-08T09:02:51.000Z</time>
      </trkpt>
      <trkpt lat="47.99797" lon="1.7052">
        <ele>123.08223</ele>
        <time>2021-09-08T09:03:00.000Z</time>
      </trkpt>
      <trkpt lat="47.9978" lon="1.70566">
        <ele>122.936078</ele>
        <time>2021-09-08T09:03:06.000Z</time>
      </trkpt>
      <trkpt lat="47.99757" lon="1.70635">
        <ele>122.722678</ele>
        <time>2021-09-08T09:03:15.000Z</time>
      </trkpt>
      <trkpt lat="47.9974" lon="1.70685">
        <ele>122.564547</ele>
        <time>2021-09-08T09:03:22.000Z</time>
      </trkpt>
      <trkpt lat="47.99716" lon="1.7075">
        <ele>122.636972</ele>
        <time>2021-09-08T09:03:31.000Z</time>
      </trkpt>
      <trkpt lat="47.99691" lon="1.70823">
        <ele>122.801188</ele>
        <time>2021-09-08T09:03:41.000Z</time>
      </trkpt>
      <trkpt lat="47.99665" lon="1.70899">
        <ele>122.970538</ele>
        <time>2021-09-08T09:03:51.000Z</time>
      </trkpt>
      <trkpt lat="47.99639" lon="1.70976">
        <ele>123.127085</ele>
        <time>2021-09-08T09:04:01.000Z</time>
      </trkpt>
      <trkpt lat="47.99636" lon="1.70984">
        <ele>123.140721</ele>
        <time>2021-09-08T09:04:02.000Z</time>
      </trkpt>
      <trkpt lat="47.99611" lon="1.71055">
        <ele>123.273073</ele>
        <time>2021-09-08T09:04:12.000Z</time>
      </trkpt>
      <trkpt lat="47.99589" lon="1.71115">
        <ele>123.385904</ele>
        <time>2021-09-08T09:04:21.000Z</time>
      </trkpt>
      <trkpt lat="47.99566" lon="1.71185">
        <ele>123.502851</ele>
        <time>2021-09-08T09:04:31.000Z</time>
      </trkpt>
      <trkpt lat="47.9954" lon="1.71259">
        <ele>123.547055</ele>
        <time>2021-09-08T09:04:42.000Z</time>
      </trkpt>
      <trkpt lat="47.99517" lon="1.71325">
        <ele>123.586349</ele>
        <time>2021-09-08T09:04:52.000Z</time>
      </trkpt>
      <trkpt lat="47.99498" lon="1.71378">
        <ele>123.617744</ele>
        <time>2021-09-08T09:05:00.000Z</time>
      </trkpt>
      <trkpt lat="47.99491" lon="1.71399">
        <ele>123.630217</ele>
        <time>2021-09-08T09:05:03.000Z</time>
      </trkpt>
      <trkpt lat="47.99474" lon="1.71447">
        <ele>123.651071</ele>
        <time>2021-09-08T09:05:10.000Z</time>
      </trkpt>
      <trkpt lat="47.99447" lon="1.71524">
        <ele>123.67871</ele>
        <time>2021-09-08T09:05:21.000Z</time>
      </trkpt>
      <trkpt lat="47.99431" lon="1.71571">
        <ele>123.695364</ele>
        <time>2021-09-08T09:05:28.000Z</time>
      </trkpt>
      <trkpt lat="47.99429" lon="1.71577">
        <ele>123.697726</ele>
        <time>2021-09-08T09:05:29.000Z</time>
      </trkpt>
      <trkpt lat="47.99417" lon="1.71608">
        <ele>123.708984</ele>
        <time>2021-09-08T09:05:34.000Z</time>
      </trkpt>
      <trkpt lat="47.99415" lon="1.71614">
        <ele>123.711091</ele>
        <time>2021-09-08T09:05:35.000Z</time>
      </trkpt>
      <trkpt lat="47.99405" lon="1.71646">
        <ele>123.722098</ele>
        <time>2021-09-08T09:05:41.000Z</time>
      </trkpt>
      <trkpt lat="47.99396" lon="1.71672">
        <ele>123.702732</ele>
        <time>2021-09-08T09:05:46.000Z</time>
      </trkpt>
      <trkpt lat="47.99394" lon="1.71678">
        <ele>123.696581</ele>
        <time>2021-09-08T09:05:47.000Z</time>
      </trkpt>
      <trkpt lat="47.99382" lon="1.71711">
        <ele>123.659828</ele>
        <time>2021-09-08T09:05:54.000Z</time>
      </trkpt>
      <trkpt lat="47.99371" lon="1.71745">
        <ele>123.622497</ele>
        <time>2021-09-08T09:06:01.000Z</time>
      </trkpt>
      <trkpt lat="47.99362" lon="1.71772">
        <ele>123.593098</ele>
        <time>2021-09-08T09:06:06.000Z</time>
      </trkpt>
      <trkpt lat="47.99349" lon="1.71807">
        <ele>123.553819</ele>
        <time>2021-09-08T09:06:12.000Z</time>
      </trkpt>
      <trkpt lat="47.99329" lon="1.71863">
        <ele>123.491905</ele>
        <time>2021-09-08T09:06:20.000Z</time>
      </trkpt>
      <trkpt lat="47.99309" lon="1.71922">
        <ele>123.359463</ele>
        <time>2021-09-08T09:06:28.000Z</time>
      </trkpt>
      <trkpt lat="47.99289" lon="1.71982">
        <ele>123.168787</ele>
        <time>2021-09-08T09:06:36.000Z</time>
      </trkpt>
      <trkpt lat="47.99269" lon="1.72038">
        <ele>122.985105</ele>
        <time>2021-09-08T09:06:44.000Z</time>
      </trkpt>
      <trkpt lat="47.99247" lon="1.72103">
        <ele>122.776718</ele>
        <time>2021-09-08T09:06:53.000Z</time>
      </trkpt>
      <trkpt lat="47.9922" lon="1.72178">
        <ele>122.598874</ele>
        <time>2021-09-08T09:07:04.000Z</time>
      </trkpt>
      <trkpt lat="47.99213" lon="1.72199">
        <ele>122.559497</ele>
        <time>2021-09-08T09:07:07.000Z</time>
      </trkpt>
      <trkpt lat="47.99191" lon="1.7226">
        <ele>122.443239</ele>
        <time>2021-09-08T09:07:16.000Z</time>
      </trkpt>
      <trkpt lat="47.99167" lon="1.72332">
        <ele>122.309263</ele>
        <time>2021-09-08T09:07:26.000Z</time>
      </trkpt>
      <trkpt lat="47.99142" lon="1.72404">
        <ele>122.264171</ele>
        <time>2021-09-08T09:07:36.000Z</time>
      </trkpt>
      <trkpt lat="47.99139" lon="1.72411">
        <ele>122.268731</ele>
        <time>2021-09-08T09:07:37.000Z</time>
      </trkpt>
      <trkpt lat="47.99115" lon="1.72481">
        <ele>122.314131</ele>
        <time>2021-09-08T09:07:47.000Z</time>
      </trkpt>
      <trkpt lat="47.99098" lon="1.7253">
        <ele>122.345846</ele>
        <time>2021-09-08T09:07:54.000Z</time>
      </trkpt>
      <trkpt lat="47.99082" lon="1.72579">
        <ele>122.377162</ele>
        <time>2021-09-08T09:08:01.000Z</time>
      </trkpt>
      <trkpt lat="47.99065" lon="1.72627">
        <ele>122.411732</ele>
        <time>2021-09-08T09:08:08.000Z</time>
      </trkpt>
      <trkpt lat="47.99046" lon="1.72681">
        <ele>122.457349</ele>
        <time>2021-09-08T09:08:16.000Z</time>
      </trkpt>
      <trkpt lat="47.9902" lon="1.72759">
        <ele>122.521475</ele>
        <time>2021-09-08T09:08:27.000Z</time>
      </trkpt>
      <trkpt lat="47.99002" lon="1.72814">
        <ele>122.567141</ele>
        <time>2021-09-08T09:08:35.000Z</time>
      </trkpt>
      <trkpt lat="47.98984" lon="1.72866">
        <ele>122.609334</ele>
        <time>2021-09-08T09:08:42.000Z</time>
      </trkpt>
      <trkpt lat="47.98979" lon="1.7288">
        <ele>122.620932</ele>
        <time>2021-09-08T09:08:44.000Z</time>
      </trkpt>
      <trkpt lat="47.98968" lon="1.72908">
        <ele>122.643877</ele>
        <time>2021-09-08T09:08:48.000Z</time>
      </trkpt>
      <trkpt lat="47.98941" lon="1.72967">
        <ele>122.694998</ele>
        <time>2021-09-08T09:08:57.000Z</time>
      </trkpt>
      <trkpt lat="47.98911" lon="1.73023">
        <ele>122.74663</ele>
        <time>2021-09-08T09:09:06.000Z</time>
      </trkpt>
      <trkpt lat="47.98876" lon="1.73077">
        <ele>122.807315</ele>
        <time>2021-09-08T09:09:15.000Z</time>
      </trkpt>
      <trkpt lat="47.98846" lon="1.73116">
        <ele>122.872387</ele>
        <time>2021-09-08T09:09:22.000Z</time>
      </trkpt>
      <trkpt lat="47.98811" lon="1.73154">
        <ele>122.943903</ele>
        <time>2021-09-08T09:09:30.000Z</time>
      </trkpt>
      <trkpt lat="47.98771" lon="1.73191">
        <ele>123.021887</ele>
        <time>2021-09-08T09:09:39.000Z</time>
      </trkpt>
      <trkpt lat="47.98733" lon="1.73218">
        <ele>123.094342</ele>
        <time>2021-09-08T09:09:47.000Z</time>
      </trkpt>
      <trkpt lat="47.9869" lon="1.73247">
        <ele>123.208813</ele>
        <time>2021-09-08T09:09:56.000Z</time>
      </trkpt>
      <trkpt lat="47.98639" lon="1.7328">
        <ele>123.346297</ele>
        <time>2021-09-08T09:10:07.000Z</time>
      </trkpt>
      <trkpt lat="47.98595" lon="1.73309">
        <ele>123.463396</ele>
        <time>2021-09-08T09:10:17.000Z</time>
      </trkpt>
      <trkpt lat="47.98561" lon="1.73332">
        <ele>123.564917</ele>
        <time>2021-09-08T09:10:25.000Z</time>
      </trkpt>
      <trkpt lat="47.98522" lon="1.73357">
        <ele>123.701219</ele>
        <time>2021-09-08T09:10:34.000Z</time>
      </trkpt>
      <trkpt lat="47.9849" lon="1.73377">
        <ele>123.812106</ele>
        <time>2021-09-08T09:10:41.000Z</time>
      </trkpt>
      <trkpt lat="47.98446" lon="1.73406">
        <ele>123.969542</ele>
        <time>2021-09-08T09:10:51.000Z</time>
      </trkpt>
      <trkpt lat="47.98404" lon="1.73433">
        <ele>124.108797</ele>
        <time>2021-09-08T09:11:00.000Z</time>
      </trkpt>
      <trkpt lat="47.98353" lon="1.73466">
        <ele>124.199356</ele>
        <time>2021-09-08T09:11:11.000Z</time>
      </trkpt>
      <trkpt lat="47.98301" lon="1.735">
        <ele>124.290256</ele>
        <time>2021-09-08T09:11:21.000Z</time>
      </trkpt>
      <trkpt lat="47.98261" lon="1.73528">
        <ele>124.362145</ele>
        <time>2021-09-08T09:11:29.000Z</time>
      </trkpt>
      <trkpt lat="47.98227" lon="1.73548">
        <ele>124.406923</ele>
        <time>2021-09-08T09:11:36.000Z</time>
      </trkpt>
      <trkpt lat="47.98187" lon="1.73575">
        <ele>124.442184</ele>
        <time>2021-09-08T09:11:45.000Z</time>
      </trkpt>
      <trkpt lat="47.98135" lon="1.73607">
        <ele>124.486739</ele>
        <time>2021-09-08T09:11:56.000Z</time>
      </trkpt>
      <trkpt lat="47.98131" lon="1.73611">
        <ele>124.490931</ele>
        <time>2021-09-08T09:11:57.000Z</time>
      </trkpt>
      <trkpt lat="47.98086" lon="1.73639">
        <ele>124.529607</ele>
        <time>2021-09-08T09:12:07.000Z</time>
      </trkpt>
      <trkpt lat="47.98038" lon="1.73675">
        <ele>124.595637</ele>
        <time>2021-09-08T09:12:18.000Z</time>
      </trkpt>
      <trkpt lat="47.98029" lon="1.73682">
        <ele>124.608386</ele>
        <time>2021-09-08T09:12:20.000Z</time>
      </trkpt>
      <trkpt lat="47.97989" lon="1.73718">
        <ele>124.669715</ele>
        <time>2021-09-08T09:12:30.000Z</time>
      </trkpt>
      <trkpt lat="47.97965" lon="1.73742">
        <ele>124.706567</ele>
        <time>2021-09-08T09:12:36.000Z</time>
      </trkpt>
      <trkpt lat="47.97941" lon="1.73768">
        <ele>124.745214</ele>
        <time>2021-09-08T09:12:42.000Z</time>
      </trkpt>
      <trkpt lat="47.97914" lon="1.73798">
        <ele>124.795474</ele>
        <time>2021-09-08T09:12:49.000Z</time>
      </trkpt>
      <trkpt lat="47.97889" lon="1.7383">
        <ele>124.852338</ele>
        <time>2021-09-08T09:12:56.000Z</time>
      </trkpt>
      <trkpt lat="47.97859" lon="1.73869">
        <ele>124.919417</ele>
        <time>2021-09-08T09:13:04.000Z</time>
      </trkpt>
      <trkpt lat="47.97833" lon="1.73909">
        <ele>124.984108</ele>
        <time>2021-09-08T09:13:12.000Z</time>
      </trkpt>
      <trkpt lat="47.9782" lon="1.73931">
        <ele>125.017046</ele>
        <time>2021-09-08T09:13:16.000Z</time>
      </trkpt>
      <trkpt lat="47.9781" lon="1.73948">
        <ele>125.043649</ele>
        <time>2021-09-08T09:13:19.000Z</time>
      </trkpt>
      <trkpt lat="47.9778" lon="1.74002">
        <ele>125.121324</ele>
        <time>2021-09-08T09:13:28.000Z</time>
      </trkpt>
      <trkpt lat="47.97755" lon="1.74055">
        <ele>125.190369</ele>
        <time>2021-09-08T09:13:36.000Z</time>
      </trkpt>
      <trkpt lat="47.97735" lon="1.74101">
        <ele>125.248505</ele>
        <time>2021-09-08T09:13:43.000Z</time>
      </trkpt>
      <trkpt lat="47.97715" lon="1.74151">
        <ele>125.310641</ele>
        <time>2021-09-08T09:13:51.000Z</time>
      </trkpt>
      <trkpt lat="47.97692" lon="1.74217">
        <ele>125.389402</ele>
        <time>2021-09-08T09:14:01.000Z</time>
      </trkpt>
      <trkpt lat="47.97671" lon="1.7429">
        <ele>125.470461</ele>
        <time>2021-09-08T09:14:11.000Z</time>
      </trkpt>
      <trkpt lat="47.97655" lon="1.74356">
        <ele>125.542366</ele>
        <time>2021-09-08T09:14:20.000Z</time>
      </trkpt>
      <trkpt lat="47.9764" lon="1.74429">
        <ele>125.620463</ele>
        <time>2021-09-08T09:14:30.000Z</time>
      </trkpt>
      <trkpt lat="47.97631" lon="1.74479">
        <ele>125.653685</ele>
        <time>2021-09-08T09:14:37.000Z</time>
      </trkpt>
      <trkpt lat="47.97622" lon="1.74552">
        <ele>125.683498</ele>
        <time>2021-09-08T09:14:47.000Z</time>
      </trkpt>
      <trkpt lat="47.97618" lon="1.74604">
        <ele>125.704875</ele>
        <time>2021-09-08T09:14:54.000Z</time>
      </trkpt>
      <trkpt lat="47.97615" lon="1.74651">
        <ele>125.723566</ele>
        <time>2021-09-08T09:15:00.000Z</time>
      </trkpt>
      <trkpt lat="47.97613" lon="1.74697">
        <ele>125.742306</ele>
        <time>2021-09-08T09:15:06.000Z</time>
      </trkpt>
      <trkpt lat="47.97613" lon="1.74775">
        <ele>125.695655</ele>
        <time>2021-09-08T09:15:16.000Z</time>
      </trkpt>
      <trkpt lat="47.97613" lon="1.74783">
        <ele>125.68864</ele>
        <time>2021-09-08T09:15:17.000Z</time>
      </trkpt>
      <trkpt lat="47.97615" lon="1.74825">
        <ele>125.652685</ele>
        <time>2021-09-08T09:15:22.000Z</time>
      </trkpt>
      <trkpt lat="47.9762" lon="1.749">
        <ele>125.587488</ele>
        <time>2021-09-08T09:15:31.000Z</time>
      </trkpt>
      <trkpt lat="47.97628" lon="1.74974">
        <ele>125.523259</ele>
        <time>2021-09-08T09:15:40.000Z</time>
      </trkpt>
      <trkpt lat="47.97638" lon="1.75039">
        <ele>125.446947</ele>
        <time>2021-09-08T09:15:48.000Z</time>
      </trkpt>
      <trkpt lat="47.97645" lon="1.75091">
        <ele>125.384335</ele>
        <time>2021-09-08T09:15:54.000Z</time>
      </trkpt>
      <trkpt lat="47.97653" lon="1.75154">
        <ele>125.310214</ele>
        <time>2021-09-08T09:16:01.000Z</time>
      </trkpt>
      <trkpt lat="47.97665" lon="1.7524">
        <ele>125.206914</ele>
        <time>2021-09-08T09:16:11.000Z</time>
      </trkpt>
      <trkpt lat="47.97666" lon="1.75249">
        <ele>125.197372</ele>
        <time>2021-09-08T09:16:12.000Z</time>
      </trkpt>
      <trkpt lat="47.97678" lon="1.75333">
        <ele>125.108019</ele>
        <time>2021-09-08T09:16:22.000Z</time>
      </trkpt>
      <trkpt lat="47.9769" lon="1.75416">
        <ele>125.021377</ele>
        <time>2021-09-08T09:16:32.000Z</time>
      </trkpt>
      <trkpt lat="47.97701" lon="1.75492">
        <ele>124.9412</ele>
        <time>2021-09-08T09:16:41.000Z</time>
      </trkpt>
      <trkpt lat="47.97712" lon="1.75569">
        <ele>124.923376</ele>
        <time>2021-09-08T09:16:50.000Z</time>
      </trkpt>
      <trkpt lat="47.97722" lon="1.75636">
        <ele>124.920613</ele>
        <time>2021-09-08T09:16:58.000Z</time>
      </trkpt>
      <trkpt lat="47.97729" lon="1.75688">
        <ele>124.918481</ele>
        <time>2021-09-08T09:17:05.000Z</time>
      </trkpt>
      <trkpt lat="47.97736" lon="1.7574">
        <ele>124.916371</ele>
        <time>2021-09-08T09:17:12.000Z</time>
      </trkpt>
      <trkpt lat="47.97745" lon="1.75801">
        <ele>124.935015</ele>
        <time>2021-09-08T09:17:20.000Z</time>
      </trkpt>
      <trkpt lat="47.97751" lon="1.75851">
        <ele>124.966113</ele>
        <time>2021-09-08T09:17:27.000Z</time>
      </trkpt>
      <trkpt lat="47.97756" lon="1.75911">
        <ele>125.003483</ele>
        <time>2021-09-08T09:17:35.000Z</time>
      </trkpt>
      <trkpt lat="47.97758" lon="1.75982">
        <ele>125.046701</ele>
        <time>2021-09-08T09:17:45.000Z</time>
      </trkpt>
      <trkpt lat="47.97756" lon="1.76039">
        <ele>125.076345</ele>
        <time>2021-09-08T09:17:53.000Z</time>
      </trkpt>
      <trkpt lat="47.9775" lon="1.76106">
        <ele>125.000052</ele>
        <time>2021-09-08T09:18:02.000Z</time>
      </trkpt>
      <trkpt lat="47.97743" lon="1.76159">
        <ele>124.939042</ele>
        <time>2021-09-08T09:18:09.000Z</time>
      </trkpt>
      <trkpt lat="47.97731" lon="1.76222">
        <ele>124.866317</ele>
        <time>2021-09-08T09:18:17.000Z</time>
      </trkpt>
      <trkpt lat="47.97716" lon="1.76282">
        <ele>124.794419</ele>
        <time>2021-09-08T09:18:25.000Z</time>
      </trkpt>
      <trkpt lat="47.97697" lon="1.76343">
        <ele>124.665989</ele>
        <time>2021-09-08T09:18:34.000Z</time>
      </trkpt>
      <trkpt lat="47.97676" lon="1.76396">
        <ele>124.536525</ele>
        <time>2021-09-08T09:18:42.000Z</time>
      </trkpt>
      <trkpt lat="47.97654" lon="1.76446">
        <ele>124.409313</ele>
        <time>2021-09-08T09:18:50.000Z</time>
      </trkpt>
      <trkpt lat="47.97632" lon="1.76488">
        <ele>124.299892</ele>
        <time>2021-09-08T09:18:57.000Z</time>
      </trkpt>
      <trkpt lat="47.97604" lon="1.76537">
        <ele>124.119275</ele>
        <time>2021-09-08T09:19:06.000Z</time>
      </trkpt>
      <trkpt lat="47.97577" lon="1.76585">
        <ele>123.877093</ele>
        <time>2021-09-08T09:19:14.000Z</time>
      </trkpt>
      <trkpt lat="47.97553" lon="1.76627">
        <ele>123.66169</ele>
        <time>2021-09-08T09:19:21.000Z</time>
      </trkpt>
      <trkpt lat="47.97526" lon="1.76675">
        <ele>123.413653</ele>
        <time>2021-09-08T09:19:29.000Z</time>
      </trkpt>
      <trkpt lat="47.97499" lon="1.76724">
        <ele>123.16487</ele>
        <time>2021-09-08T09:19:37.000Z</time>
      </trkpt>
      <trkpt lat="47.97472" lon="1.76771">
        <ele>122.936091</ele>
        <time>2021-09-08T09:19:45.000Z</time>
      </trkpt>
      <trkpt lat="47.97446" lon="1.76817">
        <ele>122.714186</ele>
        <time>2021-09-08T09:19:53.000Z</time>
      </trkpt>
      <trkpt lat="47.97409" lon="1.76883">
        <ele>122.393499</ele>
        <time>2021-09-08T09:20:04.000Z</time>
      </trkpt>
      <trkpt lat="47.97378" lon="1.76937">
        <ele>122.140527</ele>
        <time>2021-09-08T09:20:13.000Z</time>
      </trkpt>
      <trkpt lat="47.97347" lon="1.7699">
        <ele>121.96575</ele>
        <time>2021-09-08T09:20:22.000Z</time>
      </trkpt>
      <trkpt lat="47.97321" lon="1.77035">
        <ele>121.817273</ele>
        <time>2021-09-08T09:20:30.000Z</time>
      </trkpt>
      <trkpt lat="47.97296" lon="1.77081">
        <ele>121.66798</ele>
        <time>2021-09-08T09:20:38.000Z</time>
      </trkpt>
      <trkpt lat="47.9727" lon="1.77126">
        <ele>121.517956</ele>
        <time>2021-09-08T09:20:46.000Z</time>
      </trkpt>
      <trkpt lat="47.97246" lon="1.77167">
        <ele>121.413103</ele>
        <time>2021-09-08T09:20:53.000Z</time>
      </trkpt>
      <trkpt lat="47.97217" lon="1.77218">
        <ele>121.289112</ele>
        <time>2021-09-08T09:21:02.000Z</time>
      </trkpt>
      <trkpt lat="47.97186" lon="1.77275">
        <ele>121.152379</ele>
        <time>2021-09-08T09:21:12.000Z</time>
      </trkpt>
      <trkpt lat="47.97166" lon="1.77309">
        <ele>121.071295</ele>
        <time>2021-09-08T09:21:18.000Z</time>
      </trkpt>
      <trkpt lat="47.97163" lon="1.77314">
        <ele>121.058059</ele>
        <time>2021-09-08T09:21:19.000Z</time>
      </trkpt>
      <trkpt lat="47.97132" lon="1.77371">
        <ele>120.963895</ele>
        <time>2021-09-08T09:21:29.000Z</time>
      </trkpt>
      <trkpt lat="47.97111" lon="1.77408">
        <ele>120.922411</ele>
        <time>2021-09-08T09:21:36.000Z</time>
      </trkpt>
      <trkpt lat="47.97089" lon="1.77446">
        <ele>120.879389</ele>
        <time>2021-09-08T09:21:44.000Z</time>
      </trkpt>
      <trkpt lat="47.97058" lon="1.77501">
        <ele>120.819212</ele>
        <time>2021-09-08T09:21:54.000Z</time>
      </trkpt>
      <trkpt lat="47.97029" lon="1.77548">
        <ele>120.7653</ele>
        <time>2021-09-08T09:22:03.000Z</time>
      </trkpt>
      <trkpt lat="47.97007" lon="1.77576">
        <ele>120.73089</ele>
        <time>2021-09-08T09:22:09.000Z</time>
      </trkpt>
      <trkpt lat="47.97" lon="1.77582">
        <ele>120.720261</ele>
        <time>2021-09-08T09:22:11.000Z</time>
      </trkpt>
      <trkpt lat="47.96981" lon="1.77589">
        <ele>120.697221</ele>
        <time>2021-09-08T09:22:15.000Z</time>
      </trkpt>
      <trkpt lat="47.96977" lon="1.77593">
        <ele>120.691203</ele>
        <time>2021-09-08T09:22:16.000Z</time>
      </trkpt>
      <trkpt lat="47.96973" lon="1.77598">
        <ele>120.685124</ele>
        <time>2021-09-08T09:22:17.000Z</time>
      </trkpt>
      <trkpt lat="47.96969" lon="1.7761">
        <ele>120.673581</ele>
        <time>2021-09-08T09:22:19.000Z</time>
      </trkpt>
      <trkpt lat="47.96967" lon="1.77632">
        <ele>120.656132</ele>
        <time>2021-09-08T09:22:22.000Z</time>
      </trkpt>
      <trkpt lat="47.96965" lon="1.77645">
        <ele>120.644589</ele>
        <time>2021-09-08T09:22:24.000Z</time>
      </trkpt>
      <trkpt lat="47.96959" lon="1.77658">
        <ele>120.632698</ele>
        <time>2021-09-08T09:22:26.000Z</time>
      </trkpt>
      <trkpt lat="47.9695" lon="1.77676">
        <ele>120.614448</ele>
        <time>2021-09-08T09:22:29.000Z</time>
      </trkpt>
      <trkpt lat="47.96925" lon="1.77717">
        <ele>120.569967</ele>
        <time>2021-09-08T09:22:36.000Z</time>
      </trkpt>
      <trkpt lat="47.96899" lon="1.7776">
        <ele>120.525507</ele>
        <time>2021-09-08T09:22:43.000Z</time>
      </trkpt>
      <trkpt lat="47.96868" lon="1.77808">
        <ele>120.476575</ele>
        <time>2021-09-08T09:22:51.000Z</time>
      </trkpt>
      <trkpt lat="47.96836" lon="1.77856">
        <ele>120.427686</ele>
        <time>2021-09-08T09:22:59.000Z</time>
      </trkpt>
      <trkpt lat="47.96832" lon="1.77862">
        <ele>120.421736</ele>
        <time>2021-09-08T09:23:00.000Z</time>
      </trkpt>
      <trkpt lat="47.96817" lon="1.77885">
        <ele>120.397857</ele>
        <time>2021-09-08T09:23:04.000Z</time>
      </trkpt>
      <trkpt lat="47.96813" lon="1.77891">
        <ele>120.391793</ele>
        <time>2021-09-08T09:23:05.000Z</time>
      </trkpt>
      <trkpt lat="47.96783" lon="1.77938">
        <ele>120.370555</ele>
        <time>2021-09-08T09:23:13.000Z</time>
      </trkpt>
      <trkpt lat="47.96751" lon="1.77985">
        <ele>120.416757</ele>
        <time>2021-09-08T09:23:21.000Z</time>
      </trkpt>
      <trkpt lat="47.96728" lon="1.78018">
        <ele>120.448827</ele>
        <time>2021-09-08T09:23:27.000Z</time>
      </trkpt>
      <trkpt lat="47.96698" lon="1.78066">
        <ele>120.493955</ele>
        <time>2021-09-08T09:23:36.000Z</time>
      </trkpt>
      <trkpt lat="47.96678" lon="1.78096">
        <ele>120.523217</ele>
        <time>2021-09-08T09:23:42.000Z</time>
      </trkpt>
      <trkpt lat="47.96655" lon="1.78133">
        <ele>120.561445</ele>
        <time>2021-09-08T09:23:49.000Z</time>
      </trkpt>
      <trkpt lat="47.96627" lon="1.78173">
        <ele>120.611181</ele>
        <time>2021-09-08T09:23:57.000Z</time>
      </trkpt>
      <trkpt lat="47.96592" lon="1.78228">
        <ele>120.676525</ele>
        <time>2021-09-08T09:24:07.000Z</time>
      </trkpt>
      <trkpt lat="47.96562" lon="1.78273">
        <ele>120.730456</ele>
        <time>2021-09-08T09:24:15.000Z</time>
      </trkpt>
      <trkpt lat="47.96554" lon="1.78284">
        <ele>120.744291</ele>
        <time>2021-09-08T09:24:17.000Z</time>
      </trkpt>
      <trkpt lat="47.96539" lon="1.78305">
        <ele>120.77082</ele>
        <time>2021-09-08T09:24:21.000Z</time>
      </trkpt>
      <trkpt lat="47.96525" lon="1.78326">
        <ele>120.794208</ele>
        <time>2021-09-08T09:24:25.000Z</time>
      </trkpt>
      <trkpt lat="47.96512" lon="1.78343">
        <ele>120.813416</ele>
        <time>2021-09-08T09:24:28.000Z</time>
      </trkpt>
      <trkpt lat="47.96489" lon="1.78377">
        <ele>120.851792</ele>
        <time>2021-09-08T09:24:34.000Z</time>
      </trkpt>
      <trkpt lat="47.96454" lon="1.78428">
        <ele>120.9075</ele>
        <time>2021-09-08T09:24:43.000Z</time>
      </trkpt>
      <trkpt lat="47.96424" lon="1.78472">
        <ele>120.956416</ele>
        <time>2021-09-08T09:24:51.000Z</time>
      </trkpt>
      <trkpt lat="47.96393" lon="1.78516">
        <ele>121.012615</ele>
        <time>2021-09-08T09:24:59.000Z</time>
      </trkpt>
      <trkpt lat="47.96368" lon="1.78551">
        <ele>121.062857</ele>
        <time>2021-09-08T09:25:06.000Z</time>
      </trkpt>
      <trkpt lat="47.96346" lon="1.78585">
        <ele>121.108528</ele>
        <time>2021-09-08T09:25:13.000Z</time>
      </trkpt>
      <trkpt lat="47.96323" lon="1.78617">
        <ele>121.154227</ele>
        <time>2021-09-08T09:25:20.000Z</time>
      </trkpt>
      <trkpt lat="47.96297" lon="1.78653">
        <ele>121.205637</ele>
        <time>2021-09-08T09:25:28.000Z</time>
      </trkpt>
      <trkpt lat="47.96282" lon="1.78676">
        <ele>121.23717</ele>
        <time>2021-09-08T09:25:33.000Z</time>
      </trkpt>
      <trkpt lat="47.96276" lon="1.78685">
        <ele>121.268985</ele>
        <time>2021-09-08T09:25:35.000Z</time>
      </trkpt>
      <trkpt lat="47.96251" lon="1.78718">
        <ele>121.440541</ele>
        <time>2021-09-08T09:25:43.000Z</time>
      </trkpt>
      <trkpt lat="47.96222" lon="1.78762">
        <ele>121.657163</ele>
        <time>2021-09-08T09:25:53.000Z</time>
      </trkpt>
      <trkpt lat="47.96193" lon="1.78801">
        <ele>121.860591</ele>
        <time>2021-09-08T09:26:02.000Z</time>
      </trkpt>
      <trkpt lat="47.96161" lon="1.78837">
        <ele>122.066754</ele>
        <time>2021-09-08T09:26:10.000Z</time>
      </trkpt>
      <trkpt lat="47.96126" lon="1.78867">
        <ele>122.14498</ele>
        <time>2021-09-08T09:26:18.000Z</time>
      </trkpt>
      <trkpt lat="47.96089" lon="1.78895">
        <ele>122.080214</ele>
        <time>2021-09-08T09:26:26.000Z</time>
      </trkpt>
      <trkpt lat="47.96049" lon="1.78922">
        <ele>122.009992</ele>
        <time>2021-09-08T09:26:35.000Z</time>
      </trkpt>
      <trkpt lat="47.96009" lon="1.78949">
        <ele>121.941258</ele>
        <time>2021-09-08T09:26:43.000Z</time>
      </trkpt>
      <trkpt lat="47.95958" lon="1.78983">
        <ele>121.813089</ele>
        <time>2021-09-08T09:26:53.000Z</time>
      </trkpt>
      <trkpt lat="47.95913" lon="1.79013">
        <ele>121.656053</ele>
        <time>2021-09-08T09:27:02.000Z</time>
      </trkpt>
      <trkpt lat="47.9587" lon="1.79042">
        <ele>121.504469</ele>
        <time>2021-09-08T09:27:11.000Z</time>
      </trkpt>
      <trkpt lat="47.95831" lon="1.79077">
        <ele>121.357948</ele>
        <time>2021-09-08T09:27:20.000Z</time>
      </trkpt>
      <trkpt lat="47.95794" lon="1.79118">
        <ele>121.260763</ele>
        <time>2021-09-08T09:27:29.000Z</time>
      </trkpt>
      <trkpt lat="47.95766" lon="1.79157">
        <ele>121.194947</ele>
        <time>2021-09-08T09:27:37.000Z</time>
      </trkpt>
      <trkpt lat="47.95734" lon="1.79214">
        <ele>121.111099</ele>
        <time>2021-09-08T09:27:47.000Z</time>
      </trkpt>
      <trkpt lat="47.95706" lon="1.79269">
        <ele>121.033119</ele>
        <time>2021-09-08T09:27:56.000Z</time>
      </trkpt>
      <trkpt lat="47.95679" lon="1.79322">
        <ele>120.989745</ele>
        <time>2021-09-08T09:28:05.000Z</time>
      </trkpt>
      <trkpt lat="47.95648" lon="1.79386">
        <ele>120.954991</ele>
        <time>2021-09-08T09:28:16.000Z</time>
      </trkpt>
      <trkpt lat="47.9562" lon="1.79443">
        <ele>120.923832</ele>
        <time>2021-09-08T09:28:26.000Z</time>
      </trkpt>
      <trkpt lat="47.95594" lon="1.79494">
        <ele>120.895667</ele>
        <time>2021-09-08T09:28:35.000Z</time>
      </trkpt>
      <trkpt lat="47.95568" lon="1.79548">
        <ele>120.719116</ele>
        <time>2021-09-08T09:28:44.000Z</time>
      </trkpt>
      <trkpt lat="47.95537" lon="1.7961">
        <ele>120.495839</ele>
        <time>2021-09-08T09:28:54.000Z</time>
      </trkpt>
      <trkpt lat="47.95523" lon="1.79641">
        <ele>120.386424</ele>
        <time>2021-09-08T09:28:59.000Z</time>
      </trkpt>
      <trkpt lat="47.95514" lon="1.7966">
        <ele>120.320969</ele>
        <time>2021-09-08T09:29:02.000Z</time>
      </trkpt>
      <trkpt lat="47.9549" lon="1.7971">
        <ele>120.140248</ele>
        <time>2021-09-08T09:29:10.000Z</time>
      </trkpt>
      <trkpt lat="47.95463" lon="1.79768">
        <ele>119.843911</ele>
        <time>2021-09-08T09:29:19.000Z</time>
      </trkpt>
      <trkpt lat="47.9544" lon="1.79817">
        <ele>119.581876</ele>
        <time>2021-09-08T09:29:27.000Z</time>
      </trkpt>
      <trkpt lat="47.9541" lon="1.7988">
        <ele>119.244818</ele>
        <time>2021-09-08T09:29:37.000Z</time>
      </trkpt>
      <trkpt lat="47.95377" lon="1.7995">
        <ele>118.867271</ele>
        <time>2021-09-08T09:29:48.000Z</time>
      </trkpt>
      <trkpt lat="47.95352" lon="1.79998">
        <ele>118.602034</ele>
        <time>2021-09-08T09:29:56.000Z</time>
      </trkpt>
      <trkpt lat="47.95326" lon="1.80045">
        <ele>118.333765</ele>
        <time>2021-09-08T09:30:05.000Z</time>
      </trkpt>
      <trkpt lat="47.95292" lon="1.80104">
        <ele>117.988893</ele>
        <time>2021-09-08T09:30:15.000Z</time>
      </trkpt>
      <trkpt lat="47.95258" lon="1.80159">
        <ele>117.728276</ele>
        <time>2021-09-08T09:30:24.000Z</time>
      </trkpt>
      <trkpt lat="47.95221" lon="1.80219">
        <ele>117.635019</ele>
        <time>2021-09-08T09:30:34.000Z</time>
      </trkpt>
      <trkpt lat="47.9519" lon="1.80269">
        <ele>117.556558</ele>
        <time>2021-09-08T09:30:43.000Z</time>
      </trkpt>
      <trkpt lat="47.95157" lon="1.80321">
        <ele>117.474689</ele>
        <time>2021-09-08T09:30:54.000Z</time>
      </trkpt>
      <trkpt lat="47.9513" lon="1.80366">
        <ele>117.471498</ele>
        <time>2021-09-08T09:31:03.000Z</time>
      </trkpt>
      <trkpt lat="47.95093" lon="1.80425">
        <ele>117.536141</ele>
        <time>2021-09-08T09:31:15.000Z</time>
      </trkpt>
      <trkpt lat="47.9509" lon="1.8043">
        <ele>117.541328</ele>
        <time>2021-09-08T09:31:16.000Z</time>
      </trkpt>
      <trkpt lat="47.95066" lon="1.80471">
        <ele>117.584724</ele>
        <time>2021-09-08T09:31:24.000Z</time>
      </trkpt>
      <trkpt lat="47.95034" lon="1.80525">
        <ele>117.642116</ele>
        <time>2021-09-08T09:31:34.000Z</time>
      </trkpt>
      <trkpt lat="47.94997" lon="1.80588">
        <ele>117.68666</ele>
        <time>2021-09-08T09:31:45.000Z</time>
      </trkpt>
      <trkpt lat="47.94994" lon="1.80594">
        <ele>117.690045</ele>
        <time>2021-09-08T09:31:46.000Z</time>
      </trkpt>
      <trkpt lat="47.94957" lon="1.80657">
        <ele>117.72722</ele>
        <time>2021-09-08T09:31:57.000Z</time>
      </trkpt>
      <trkpt lat="47.94925" lon="1.8071">
        <ele>117.758855</ele>
        <time>2021-09-08T09:32:06.000Z</time>
      </trkpt>
      <trkpt lat="47.94912" lon="1.80733">
        <ele>117.77251</ele>
        <time>2021-09-08T09:32:10.000Z</time>
      </trkpt>
      <trkpt lat="47.94902" lon="1.80751">
        <ele>117.789801</ele>
        <time>2021-09-08T09:32:13.000Z</time>
      </trkpt>
      <trkpt lat="47.94872" lon="1.80799">
        <ele>117.860425</ele>
        <time>2021-09-08T09:32:22.000Z</time>
      </trkpt>
      <trkpt lat="47.94843" lon="1.80845">
        <ele>117.927225</ele>
        <time>2021-09-08T09:32:31.000Z</time>
      </trkpt>
      <trkpt lat="47.94812" lon="1.80895">
        <ele>118.00129</ele>
        <time>2021-09-08T09:32:41.000Z</time>
      </trkpt>
      <trkpt lat="47.94778" lon="1.80946">
        <ele>118.069652</ele>
        <time>2021-09-08T09:32:51.000Z</time>
      </trkpt>
      <trkpt lat="47.94746" lon="1.80994">
        <ele>118.090869</ele>
        <time>2021-09-08T09:33:00.000Z</time>
      </trkpt>
      <trkpt lat="47.94705" lon="1.81055">
        <ele>118.117809</ele>
        <time>2021-09-08T09:33:11.000Z</time>
      </trkpt>
      <trkpt lat="47.94698" lon="1.81066">
        <ele>118.122782</ele>
        <time>2021-09-08T09:33:13.000Z</time>
      </trkpt>
      <trkpt lat="47.94657" lon="1.81127">
        <ele>118.149699</ele>
        <time>2021-09-08T09:33:24.000Z</time>
      </trkpt>
      <trkpt lat="47.94624" lon="1.81177">
        <ele>118.101127</ele>
        <time>2021-09-08T09:33:33.000Z</time>
      </trkpt>
      <trkpt lat="47.94594" lon="1.81222">
        <ele>118.056287</ele>
        <time>2021-09-08T09:33:41.000Z</time>
      </trkpt>
      <trkpt lat="47.94561" lon="1.81273">
        <ele>118.005819</ele>
        <time>2021-09-08T09:33:50.000Z</time>
      </trkpt>
      <trkpt lat="47.9453" lon="1.81319">
        <ele>117.959029</ele>
        <time>2021-09-08T09:33:58.000Z</time>
      </trkpt>
      <trkpt lat="47.94499" lon="1.8135">
        <ele>117.844482</ele>
        <time>2021-09-08T09:34:05.000Z</time>
      </trkpt>
      <trkpt lat="47.94488" lon="1.81353">
        <ele>117.812758</ele>
        <time>2021-09-08T09:34:07.000Z</time>
      </trkpt>
      <trkpt lat="47.94479" lon="1.81351">
        <ele>117.782075</ele>
        <time>2021-09-08T09:34:09.000Z</time>
      </trkpt>
      <trkpt lat="47.94459" lon="1.81346">
        <ele>117.720407</ele>
        <time>2021-09-08T09:34:13.000Z</time>
      </trkpt>
      <trkpt lat="47.94454" lon="1.81348">
        <ele>117.704549</ele>
        <time>2021-09-08T09:34:14.000Z</time>
      </trkpt>
      <trkpt lat="47.9445" lon="1.81353">
        <ele>117.688225</ele>
        <time>2021-09-08T09:34:15.000Z</time>
      </trkpt>
      <trkpt lat="47.94445" lon="1.81368">
        <ele>117.655509</ele>
        <time>2021-09-08T09:34:17.000Z</time>
      </trkpt>
      <trkpt lat="47.94446" lon="1.81384">
        <ele>117.623484</ele>
        <time>2021-09-08T09:34:19.000Z</time>
      </trkpt>
      <trkpt lat="47.94448" lon="1.81399">
        <ele>117.591027</ele>
        <time>2021-09-08T09:34:21.000Z</time>
      </trkpt>
      <trkpt lat="47.9445" lon="1.81407">
        <ele>117.57481</ele>
        <time>2021-09-08T09:34:22.000Z</time>
      </trkpt>
      <trkpt lat="47.94449" lon="1.81422">
        <ele>117.543624</ele>
        <time>2021-09-08T09:34:24.000Z</time>
      </trkpt>
      <trkpt lat="47.94448" lon="1.81429">
        <ele>117.527874</ele>
        <time>2021-09-08T09:34:25.000Z</time>
      </trkpt>
      <trkpt lat="47.94446" lon="1.81436">
        <ele>117.513138</ele>
        <time>2021-09-08T09:34:26.000Z</time>
      </trkpt>
      <trkpt lat="47.94438" lon="1.81455">
        <ele>117.466779</ele>
        <time>2021-09-08T09:34:29.000Z</time>
      </trkpt>
      <trkpt lat="47.94434" lon="1.81461">
        <ele>117.450147</ele>
        <time>2021-09-08T09:34:30.000Z</time>
      </trkpt>
      <trkpt lat="47.9442" lon="1.81483">
        <ele>117.354849</ele>
        <time>2021-09-08T09:34:34.000Z</time>
      </trkpt>
      <trkpt lat="47.94412" lon="1.81494">
        <ele>117.279694</ele>
        <time>2021-09-08T09:34:36.000Z</time>
      </trkpt>
      <trkpt lat="47.94382" lon="1.81537">
        <ele>116.977304</ele>
        <time>2021-09-08T09:34:44.000Z</time>
      </trkpt>
      <trkpt lat="47.94362" lon="1.81566">
        <ele>116.775464</ele>
        <time>2021-09-08T09:34:50.000Z</time>
      </trkpt>
      <trkpt lat="47.9436" lon="1.81571">
        <ele>116.743082</ele>
        <time>2021-09-08T09:34:54.000Z</time>
      </trkpt>
      <trkpt lat="47.94356" lon="1.81578">
        <ele>116.699803</ele>
        <time>2021-09-08T09:34:58.000Z</time>
      </trkpt>
      <trkpt lat="47.94349" lon="1.81585">
        <ele>116.641198</ele>
        <time>2021-09-08T09:35:00.000Z</time>
      </trkpt>
      <trkpt lat="47.94341" lon="1.81591">
        <ele>116.575364</ele>
        <time>2021-09-08T09:35:02.000Z</time>
      </trkpt>
      <trkpt lat="47.94335" lon="1.81602">
        <ele>116.506819</ele>
        <time>2021-09-08T09:35:04.000Z</time>
      </trkpt>
      <trkpt lat="47.9433" lon="1.81615">
        <ele>116.434169</ele>
        <time>2021-09-08T09:35:06.000Z</time>
      </trkpt>
      <trkpt lat="47.94327" lon="1.81622">
        <ele>116.394895</ele>
        <time>2021-09-08T09:35:07.000Z</time>
      </trkpt>
      <trkpt lat="47.94314" lon="1.81651">
        <ele>116.227931</ele>
        <time>2021-09-08T09:35:11.000Z</time>
      </trkpt>
      <trkpt lat="47.94308" lon="1.81665">
        <ele>116.144024</ele>
        <time>2021-09-08T09:35:13.000Z</time>
      </trkpt>
      <trkpt lat="47.94296" lon="1.81682">
        <ele>116.065427</ele>
        <time>2021-09-08T09:35:16.000Z</time>
      </trkpt>
      <trkpt lat="47.94279" lon="1.81713">
        <ele>115.967699</ele>
        <time>2021-09-08T09:35:21.000Z</time>
      </trkpt>
      <trkpt lat="47.94255" lon="1.81756">
        <ele>115.830355</ele>
        <time>2021-09-08T09:35:28.000Z</time>
      </trkpt>
      <trkpt lat="47.9423" lon="1.81802">
        <ele>115.687018</ele>
        <time>2021-09-08T09:35:36.000Z</time>
      </trkpt>
      <trkpt lat="47.9421" lon="1.81839">
        <ele>115.570376</ele>
        <time>2021-09-08T09:35:43.000Z</time>
      </trkpt>
      <trkpt lat="47.94192" lon="1.81876">
        <ele>115.458372</ele>
        <time>2021-09-08T09:35:49.000Z</time>
      </trkpt>
      <trkpt lat="47.9419" lon="1.81883">
        <ele>115.45821</ele>
        <time>2021-09-08T09:35:50.000Z</time>
      </trkpt>
      <trkpt lat="47.94167" lon="1.8193">
        <ele>115.592773</ele>
        <time>2021-09-08T09:35:58.000Z</time>
      </trkpt>
      <trkpt lat="47.94161" lon="1.81943">
        <ele>115.626564</ele>
        <time>2021-09-08T09:36:00.000Z</time>
      </trkpt>
      <trkpt lat="47.94156" lon="1.81956">
        <ele>115.661889</ele>
        <time>2021-09-08T09:36:02.000Z</time>
      </trkpt>
      <trkpt lat="47.94138" lon="1.81988">
        <ele>115.759609</ele>
        <time>2021-09-08T09:36:08.000Z</time>
      </trkpt>
      <trkpt lat="47.94123" lon="1.82022">
        <ele>115.851954</ele>
        <time>2021-09-08T09:36:14.000Z</time>
      </trkpt>
      <trkpt lat="47.94121" lon="1.82028">
        <ele>115.868192</ele>
        <time>2021-09-08T09:36:15.000Z</time>
      </trkpt>
      <trkpt lat="47.94098" lon="1.82076">
        <ele>116.002311</ele>
        <time>2021-09-08T09:36:23.000Z</time>
      </trkpt>
      <trkpt lat="47.94081" lon="1.82109">
        <ele>116.097418</ele>
        <time>2021-09-08T09:36:29.000Z</time>
      </trkpt>
      <trkpt lat="47.94078" lon="1.82114">
        <ele>116.111317</ele>
        <time>2021-09-08T09:36:30.000Z</time>
      </trkpt>
      <trkpt lat="47.94071" lon="1.82121">
        <ele>116.139224</ele>
        <time>2021-09-08T09:36:32.000Z</time>
      </trkpt>
      <trkpt lat="47.94063" lon="1.82136">
        <ele>116.181861</ele>
        <time>2021-09-08T09:36:35.000Z</time>
      </trkpt>
      <trkpt lat="47.94061" lon="1.82142">
        <ele>116.196881</ele>
        <time>2021-09-08T09:36:36.000Z</time>
      </trkpt>
      <trkpt lat="47.94037" lon="1.82187">
        <ele>116.323131</ele>
        <time>2021-09-08T09:36:44.000Z</time>
      </trkpt>
      <trkpt lat="47.94026" lon="1.8221">
        <ele>116.385849</ele>
        <time>2021-09-08T09:36:48.000Z</time>
      </trkpt>
      <trkpt lat="47.94022" lon="1.82224">
        <ele>116.419029</ele>
        <time>2021-09-08T09:36:50.000Z</time>
      </trkpt>
      <trkpt lat="47.94017" lon="1.82237">
        <ele>116.451592</ele>
        <time>2021-09-08T09:36:52.000Z</time>
      </trkpt>
      <trkpt lat="47.94011" lon="1.82249">
        <ele>116.484657</ele>
        <time>2021-09-08T09:36:54.000Z</time>
      </trkpt>
      <trkpt lat="47.94007" lon="1.82254">
        <ele>116.501067</ele>
        <time>2021-09-08T09:36:55.000Z</time>
      </trkpt>
      <trkpt lat="47.93993" lon="1.82285">
        <ele>116.584619</ele>
        <time>2021-09-08T09:37:01.000Z</time>
      </trkpt>
      <trkpt lat="47.93976" lon="1.82315">
        <ele>116.673087</ele>
        <time>2021-09-08T09:37:08.000Z</time>
      </trkpt>
      <trkpt lat="47.93957" lon="1.82355">
        <ele>116.811459</ele>
        <time>2021-09-08T09:37:16.000Z</time>
      </trkpt>
      <trkpt lat="47.93938" lon="1.82394">
        <ele>116.94744</ele>
        <time>2021-09-08T09:37:23.000Z</time>
      </trkpt>
      <trkpt lat="47.93914" lon="1.82429">
        <ele>117.087159</ele>
        <time>2021-09-08T09:37:30.000Z</time>
      </trkpt>
      <trkpt lat="47.9391" lon="1.82433">
        <ele>117.106808</ele>
        <time>2021-09-08T09:37:31.000Z</time>
      </trkpt>
      <trkpt lat="47.93894" lon="1.8245">
        <ele>117.187663</ele>
        <time>2021-09-08T09:37:35.000Z</time>
      </trkpt>
      <trkpt lat="47.93861" lon="1.82483">
        <ele>117.356328</ele>
        <time>2021-09-08T09:37:43.000Z</time>
      </trkpt>
      <trkpt lat="47.93822" lon="1.82523">
        <ele>117.51068</ele>
        <time>2021-09-08T09:37:52.000Z</time>
      </trkpt>
      <trkpt lat="47.93786" lon="1.82557">
        <ele>117.637242</ele>
        <time>2021-09-08T09:38:00.000Z</time>
      </trkpt>
      <trkpt lat="47.93748" lon="1.82596">
        <ele>117.773095</ele>
        <time>2021-09-08T09:38:09.000Z</time>
      </trkpt>
      <trkpt lat="47.93736" lon="1.82608">
        <ele>117.815105</ele>
        <time>2021-09-08T09:38:12.000Z</time>
      </trkpt>
      <trkpt lat="47.93723" lon="1.82617">
        <ele>117.855473</ele>
        <time>2021-09-08T09:38:15.000Z</time>
      </trkpt>
      <trkpt lat="47.93719" lon="1.82619">
        <ele>117.868801</ele>
        <time>2021-09-08T09:38:16.000Z</time>
      </trkpt>
      <trkpt lat="47.93715" lon="1.82622">
        <ele>117.882171</ele>
        <time>2021-09-08T09:38:17.000Z</time>
      </trkpt>
      <trkpt lat="47.93708" lon="1.82631">
        <ele>117.909357</ele>
        <time>2021-09-08T09:38:19.000Z</time>
      </trkpt>
      <trkpt lat="47.93705" lon="1.82637">
        <ele>117.923203</ele>
        <time>2021-09-08T09:38:20.000Z</time>
      </trkpt>
      <trkpt lat="47.93702" lon="1.82641">
        <ele>117.936428</ele>
        <time>2021-09-08T09:38:21.000Z</time>
      </trkpt>
      <trkpt lat="47.93687" lon="1.82658">
        <ele>118.066674</ele>
        <time>2021-09-08T09:38:25.000Z</time>
      </trkpt>
      <trkpt lat="47.93675" lon="1.82669">
        <ele>118.163262</ele>
        <time>2021-09-08T09:38:28.000Z</time>
      </trkpt>
      <trkpt lat="47.93661" lon="1.82684">
        <ele>118.286928</ele>
        <time>2021-09-08T09:38:32.000Z</time>
      </trkpt>
      <trkpt lat="47.93635" lon="1.82714">
        <ele>118.521354</ele>
        <time>2021-09-08T09:38:40.000Z</time>
      </trkpt>
      <trkpt lat="47.93618" lon="1.82732">
        <ele>118.663808</ele>
        <time>2021-09-08T09:38:45.000Z</time>
      </trkpt>
      <trkpt lat="47.93609" lon="1.82744">
        <ele>118.748863</ele>
        <time>2021-09-08T09:38:48.000Z</time>
      </trkpt>
      <trkpt lat="47.93581" lon="1.82777">
        <ele>119.002439</ele>
        <time>2021-09-08T09:38:57.000Z</time>
      </trkpt>
      <trkpt lat="47.93547" lon="1.82821">
        <ele>119.307161</ele>
        <time>2021-09-08T09:39:08.000Z</time>
      </trkpt>
      <trkpt lat="47.93523" lon="1.82855">
        <ele>119.510538</ele>
        <time>2021-09-08T09:39:16.000Z</time>
      </trkpt>
      <trkpt lat="47.9352" lon="1.82859">
        <ele>119.535874</ele>
        <time>2021-09-08T09:39:17.000Z</time>
      </trkpt>
      <trkpt lat="47.93502" lon="1.82887">
        <ele>119.698307</ele>
        <time>2021-09-08T09:39:23.000Z</time>
      </trkpt>
      <trkpt lat="47.93495" lon="1.82896">
        <ele>119.754841</ele>
        <time>2021-09-08T09:39:25.000Z</time>
      </trkpt>
      <trkpt lat="47.93481" lon="1.82917">
        <ele>119.876376</ele>
        <time>2021-09-08T09:39:29.000Z</time>
      </trkpt>
      <trkpt lat="47.93461" lon="1.82949">
        <ele>120.055477</ele>
        <time>2021-09-08T09:39:35.000Z</time>
      </trkpt>
      <trkpt lat="47.93433" lon="1.82992">
        <ele>120.303834</ele>
        <time>2021-09-08T09:39:43.000Z</time>
      </trkpt>
      <trkpt lat="47.93405" lon="1.83037">
        <ele>120.478211</ele>
        <time>2021-09-08T09:39:51.000Z</time>
      </trkpt>
      <trkpt lat="47.93372" lon="1.83086">
        <ele>120.667907</ele>
        <time>2021-09-08T09:40:00.000Z</time>
      </trkpt>
      <trkpt lat="47.93346" lon="1.83123">
        <ele>120.814216</ele>
        <time>2021-09-08T09:40:07.000Z</time>
      </trkpt>
      <trkpt lat="47.9332" lon="1.83165">
        <ele>120.970056</ele>
        <time>2021-09-08T09:40:15.000Z</time>
      </trkpt>
      <trkpt lat="47.93297" lon="1.832">
        <ele>121.158798</ele>
        <time>2021-09-08T09:40:22.000Z</time>
      </trkpt>
      <trkpt lat="47.93293" lon="1.83204">
        <ele>121.199336</ele>
        <time>2021-09-08T09:40:23.000Z</time>
      </trkpt>
      <trkpt lat="47.93276" lon="1.83229">
        <ele>121.398626</ele>
        <time>2021-09-08T09:40:28.000Z</time>
      </trkpt>
      <trkpt lat="47.93274" lon="1.83234">
        <ele>121.434644</ele>
        <time>2021-09-08T09:40:29.000Z</time>
      </trkpt>
      <trkpt lat="47.93262" lon="1.83254">
        <ele>121.583639</ele>
        <time>2021-09-08T09:40:33.000Z</time>
      </trkpt>
      <trkpt lat="47.93259" lon="1.83259">
        <ele>121.622689</ele>
        <time>2021-09-08T09:40:34.000Z</time>
      </trkpt>
      <trkpt lat="47.93235" lon="1.83303">
        <ele>121.948044</ele>
        <time>2021-09-08T09:40:42.000Z</time>
      </trkpt>
      <trkpt lat="47.93217" lon="1.83333">
        <ele>122.176085</ele>
        <time>2021-09-08T09:40:49.000Z</time>
      </trkpt>
      <trkpt lat="47.93212" lon="1.83341">
        <ele>122.236354</ele>
        <time>2021-09-08T09:40:53.000Z</time>
      </trkpt>
      <trkpt lat="47.93211" lon="1.83341">
        <ele>122.244867</ele>
        <time>2021-09-08T09:40:54.000Z</time>
      </trkpt>
      <trkpt lat="47.9321" lon="1.83342">
        <ele>122.254068</ele>
        <time>2021-09-08T09:40:55.000Z</time>
      </trkpt>
      <trkpt lat="47.93206" lon="1.83349">
        <ele>122.305781</ele>
        <time>2021-09-08T09:40:58.000Z</time>
      </trkpt>
      <trkpt lat="47.93202" lon="1.83358">
        <ele>122.371035</ele>
        <time>2021-09-08T09:41:00.000Z</time>
      </trkpt>
      <trkpt lat="47.93193" lon="1.83372">
        <ele>122.482105</ele>
        <time>2021-09-08T09:41:03.000Z</time>
      </trkpt>
      <trkpt lat="47.93174" lon="1.83407">
        <ele>122.64326</ele>
        <time>2021-09-08T09:41:09.000Z</time>
      </trkpt>
      <trkpt lat="47.93147" lon="1.83457">
        <ele>122.786909</ele>
        <time>2021-09-08T09:41:17.000Z</time>
      </trkpt>
      <trkpt lat="47.93114" lon="1.83522">
        <ele>122.971685</ele>
        <time>2021-09-08T09:41:27.000Z</time>
      </trkpt>
      <trkpt lat="47.9309" lon="1.83568">
        <ele>123.10199</ele>
        <time>2021-09-08T09:41:34.000Z</time>
      </trkpt>
      <trkpt lat="47.93059" lon="1.83628">
        <ele>123.048151</ele>
        <time>2021-09-08T09:41:43.000Z</time>
      </trkpt>
      <trkpt lat="47.9304" lon="1.83662">
        <ele>122.895167</ele>
        <time>2021-09-08T09:41:48.000Z</time>
      </trkpt>
      <trkpt lat="47.9303" lon="1.83682">
        <ele>122.804113</ele>
        <time>2021-09-08T09:41:51.000Z</time>
      </trkpt>
      <trkpt lat="47.93001" lon="1.83736">
        <ele>122.56463</ele>
        <time>2021-09-08T09:41:59.000Z</time>
      </trkpt>
      <trkpt lat="47.92979" lon="1.83775">
        <ele>122.386775</ele>
        <time>2021-09-08T09:42:06.000Z</time>
      </trkpt>
      <trkpt lat="47.92957" lon="1.83815">
        <ele>122.181374</ele>
        <time>2021-09-08T09:42:14.000Z</time>
      </trkpt>
      <trkpt lat="47.92934" lon="1.83855">
        <ele>121.895174</ele>
        <time>2021-09-08T09:42:23.000Z</time>
      </trkpt>
      <trkpt lat="47.92919" lon="1.8388">
        <ele>121.71708</ele>
        <time>2021-09-08T09:42:29.000Z</time>
      </trkpt>
      <trkpt lat="47.929" lon="1.83914">
        <ele>121.476051</ele>
        <time>2021-09-08T09:42:37.000Z</time>
      </trkpt>
      <trkpt lat="47.92888" lon="1.83938">
        <ele>121.314463</ele>
        <time>2021-09-08T09:42:43.000Z</time>
      </trkpt>
      <trkpt lat="47.92877" lon="1.83956">
        <ele>121.18411</ele>
        <time>2021-09-08T09:42:49.000Z</time>
      </trkpt>
      <trkpt lat="47.92876" lon="1.83957">
        <ele>121.169438</ele>
        <time>2021-09-08T09:42:52.000Z</time>
      </trkpt>
      <trkpt lat="47.92874" lon="1.83964">
        <ele>121.129723</ele>
        <time>2021-09-08T09:43:08.000Z</time>
      </trkpt>
      <trkpt lat="47.92871" lon="1.83971">
        <ele>121.082145</ele>
        <time>2021-09-08T09:43:10.000Z</time>
      </trkpt>
      <trkpt lat="47.92856" lon="1.83997">
        <ele>120.898888</ele>
        <time>2021-09-08T09:43:16.000Z</time>
      </trkpt>
      <trkpt lat="47.92838" lon="1.84034">
        <ele>120.803956</ele>
        <time>2021-09-08T09:43:24.000Z</time>
      </trkpt>
      <trkpt lat="47.92819" lon="1.84068">
        <ele>120.820005</ele>
        <time>2021-09-08T09:43:32.000Z</time>
      </trkpt>
      <trkpt lat="47.92808" lon="1.84088">
        <ele>120.829031</ele>
        <time>2021-09-08T09:43:37.000Z</time>
      </trkpt>
      <trkpt lat="47.92803" lon="1.84098">
        <ele>120.833452</ele>
        <time>2021-09-08T09:43:43.000Z</time>
      </trkpt>
      <trkpt lat="47.92793" lon="1.84115">
        <ele>120.841645</ele>
        <time>2021-09-08T09:43:49.000Z</time>
      </trkpt>
      <trkpt lat="47.92782" lon="1.84136">
        <ele>120.851567</ele>
        <time>2021-09-08T09:43:56.000Z</time>
      </trkpt>
      <trkpt lat="47.9277" lon="1.8416">
        <ele>120.862077</ele>
        <time>2021-09-08T09:44:01.000Z</time>
      </trkpt>
      <trkpt lat="47.92751" lon="1.84198">
        <ele>120.879049</ele>
        <time>2021-09-08T09:44:07.000Z</time>
      </trkpt>
      <trkpt lat="47.92727" lon="1.84248">
        <ele>120.662349</ele>
        <time>2021-09-08T09:44:14.000Z</time>
      </trkpt>
      <trkpt lat="47.92698" lon="1.84299">
        <ele>120.116364</ele>
        <time>2021-09-08T09:44:21.000Z</time>
      </trkpt>
      <trkpt lat="47.9267" lon="1.84352">
        <ele>119.568192</ele>
        <time>2021-09-08T09:44:28.000Z</time>
      </trkpt>
      <trkpt lat="47.92638" lon="1.84414">
        <ele>118.93981</ele>
        <time>2021-09-08T09:44:36.000Z</time>
      </trkpt>
      <trkpt lat="47.9261" lon="1.84471">
        <ele>118.22525</ele>
        <time>2021-09-08T09:44:43.000Z</time>
      </trkpt>
      <trkpt lat="47.92579" lon="1.84527">
        <ele>117.401394</ele>
        <time>2021-09-08T09:44:50.000Z</time>
      </trkpt>
      <trkpt lat="47.92554" lon="1.84578">
        <ele>116.684943</ele>
        <time>2021-09-08T09:44:56.000Z</time>
      </trkpt>
      <trkpt lat="47.92538" lon="1.8461">
        <ele>116.234957</ele>
        <time>2021-09-08T09:45:00.000Z</time>
      </trkpt>
      <trkpt lat="47.92532" lon="1.84626">
        <ele>116.025089</ele>
        <time>2021-09-08T09:45:02.000Z</time>
      </trkpt>
      <trkpt lat="47.92508" lon="1.84668">
        <ele>115.449155</ele>
        <time>2021-09-08T09:45:08.000Z</time>
      </trkpt>
      <trkpt lat="47.92481" lon="1.84721">
        <ele>114.814977</ele>
        <time>2021-09-08T09:45:15.000Z</time>
      </trkpt>
      <trkpt lat="47.92477" lon="1.84728">
        <ele>114.729112</ele>
        <time>2021-09-08T09:45:16.000Z</time>
      </trkpt>
      <trkpt lat="47.9245" lon="1.84776">
        <ele>114.124966</ele>
        <time>2021-09-08T09:45:23.000Z</time>
      </trkpt>
      <trkpt lat="47.92418" lon="1.84835">
        <ele>113.403037</ele>
        <time>2021-09-08T09:45:32.000Z</time>
      </trkpt>
      <trkpt lat="47.92392" lon="1.84885">
        <ele>113.069141</ele>
        <time>2021-09-08T09:45:40.000Z</time>
      </trkpt>
      <trkpt lat="47.92385" lon="1.84895">
        <ele>113.048576</ele>
        <time>2021-09-08T09:45:42.000Z</time>
      </trkpt>
      <trkpt lat="47.92374" lon="1.84911">
        <ele>113.016775</ele>
        <time>2021-09-08T09:45:45.000Z</time>
      </trkpt>
      <trkpt lat="47.92353" lon="1.8496">
        <ele>112.932549</ele>
        <time>2021-09-08T09:45:52.000Z</time>
      </trkpt>
      <trkpt lat="47.92324" lon="1.8501">
        <ele>112.839614</ele>
        <time>2021-09-08T09:46:01.000Z</time>
      </trkpt>
      <trkpt lat="47.92298" lon="1.85058">
        <ele>112.751134</ele>
        <time>2021-09-08T09:46:10.000Z</time>
      </trkpt>
      <trkpt lat="47.92274" lon="1.851">
        <ele>112.905543</ele>
        <time>2021-09-08T09:46:18.000Z</time>
      </trkpt>
      <trkpt lat="47.92254" lon="1.85135">
        <ele>113.087048</ele>
        <time>2021-09-08T09:46:25.000Z</time>
      </trkpt>
      <trkpt lat="47.92229" lon="1.85182">
        <ele>113.326907</ele>
        <time>2021-09-08T09:46:34.000Z</time>
      </trkpt>
      <trkpt lat="47.92204" lon="1.85231">
        <ele>113.569029</ele>
        <time>2021-09-08T09:46:44.000Z</time>
      </trkpt>
      <trkpt lat="47.92181" lon="1.85273">
        <ele>113.779441</ele>
        <time>2021-09-08T09:46:53.000Z</time>
      </trkpt>
      <trkpt lat="47.92165" lon="1.85306">
        <ele>114.016924</ele>
        <time>2021-09-08T09:47:00.000Z</time>
      </trkpt>
      <trkpt lat="47.92155" lon="1.85328">
        <ele>114.171029</ele>
        <time>2021-09-08T09:47:06.000Z</time>
      </trkpt>
      <trkpt lat="47.92149" lon="1.85337">
        <ele>114.247265</ele>
        <time>2021-09-08T09:47:12.000Z</time>
      </trkpt>
      <trkpt lat="47.92143" lon="1.85344">
        <ele>114.316854</ele>
        <time>2021-09-08T09:47:17.000Z</time>
      </trkpt>
      <trkpt lat="47.92134" lon="1.85359">
        <ele>114.434604</ele>
        <time>2021-09-08T09:47:22.000Z</time>
      </trkpt>
      <trkpt lat="47.92122" lon="1.85383">
        <ele>114.611416</ele>
        <time>2021-09-08T09:47:28.000Z</time>
      </trkpt>
      <trkpt lat="47.92114" lon="1.85402">
        <ele>114.74786</ele>
        <time>2021-09-08T09:47:33.000Z</time>
      </trkpt>
      <trkpt lat="47.92106" lon="1.85417">
        <ele>114.857054</ele>
        <time>2021-09-08T09:47:36.000Z</time>
      </trkpt>
      <trkpt lat="47.92099" lon="1.8543">
        <ele>114.95825</ele>
        <time>2021-09-08T09:47:39.000Z</time>
      </trkpt>
      <trkpt lat="47.92085" lon="1.85458">
        <ele>115.160551</ele>
        <time>2021-09-08T09:47:44.000Z</time>
      </trkpt>
      <trkpt lat="47.92079" lon="1.8547">
        <ele>115.24794</ele>
        <time>2021-09-08T09:47:46.000Z</time>
      </trkpt>
      <trkpt lat="47.92064" lon="1.85499">
        <ele>115.325171</ele>
        <time>2021-09-08T09:47:51.000Z</time>
      </trkpt>
      <trkpt lat="47.92061" lon="1.85504">
        <ele>115.303751</ele>
        <time>2021-09-08T09:47:52.000Z</time>
      </trkpt>
      <trkpt lat="47.92044" lon="1.85536">
        <ele>115.166143</ele>
        <time>2021-09-08T09:47:58.000Z</time>
      </trkpt>
      <trkpt lat="47.9203" lon="1.85561">
        <ele>115.060226</ele>
        <time>2021-09-08T09:48:03.000Z</time>
      </trkpt>
      <trkpt lat="47.92017" lon="1.8559">
        <ele>114.942205</ele>
        <time>2021-09-08T09:48:09.000Z</time>
      </trkpt>
      <trkpt lat="47.92002" lon="1.85615">
        <ele>114.829278</ele>
        <time>2021-09-08T09:48:15.000Z</time>
      </trkpt>
      <trkpt lat="47.91992" lon="1.85637">
        <ele>114.740414</ele>
        <time>2021-09-08T09:48:21.000Z</time>
      </trkpt>
      <trkpt lat="47.91978" lon="1.85661">
        <ele>114.634805</ele>
        <time>2021-09-08T09:48:27.000Z</time>
      </trkpt>
      <trkpt lat="47.91966" lon="1.85684">
        <ele>114.534337</ele>
        <time>2021-09-08T09:48:33.000Z</time>
      </trkpt>
      <trkpt lat="47.91962" lon="1.85695">
        <ele>114.49346</ele>
        <time>2021-09-08T09:48:35.000Z</time>
      </trkpt>
      <trkpt lat="47.9195" lon="1.85716">
        <ele>114.485456</ele>
        <time>2021-09-08T09:48:39.000Z</time>
      </trkpt>
      <trkpt lat="47.91936" lon="1.85743">
        <ele>114.494123</ele>
        <time>2021-09-08T09:48:44.000Z</time>
      </trkpt>
      <trkpt lat="47.9193" lon="1.85754">
        <ele>114.497695</ele>
        <time>2021-09-08T09:48:46.000Z</time>
      </trkpt>
      <trkpt lat="47.91918" lon="1.85776">
        <ele>114.504714</ele>
        <time>2021-09-08T09:48:50.000Z</time>
      </trkpt>
      <trkpt lat="47.91908" lon="1.85792">
        <ele>114.509994</ele>
        <time>2021-09-08T09:48:53.000Z</time>
      </trkpt>
      <trkpt lat="47.91888" lon="1.85828">
        <ele>114.521607</ele>
        <time>2021-09-08T09:49:00.000Z</time>
      </trkpt>
      <trkpt lat="47.91873" lon="1.85858">
        <ele>114.530994</ele>
        <time>2021-09-08T09:49:06.000Z</time>
      </trkpt>
      <trkpt lat="47.91867" lon="1.85868">
        <ele>114.534245</ele>
        <time>2021-09-08T09:49:08.000Z</time>
      </trkpt>
      <trkpt lat="47.91838" lon="1.85922">
        <ele>114.650687</ele>
        <time>2021-09-08T09:49:19.000Z</time>
      </trkpt>
      <trkpt lat="47.91822" lon="1.85952">
        <ele>114.845634</ele>
        <time>2021-09-08T09:49:25.000Z</time>
      </trkpt>
      <trkpt lat="47.91802" lon="1.85993">
        <ele>115.105948</ele>
        <time>2021-09-08T09:49:33.000Z</time>
      </trkpt>
      <trkpt lat="47.91783" lon="1.86035">
        <ele>115.368131</ele>
        <time>2021-09-08T09:49:41.000Z</time>
      </trkpt>
      <trkpt lat="47.91762" lon="1.86082">
        <ele>115.658128</ele>
        <time>2021-09-08T09:49:50.000Z</time>
      </trkpt>
      <trkpt lat="47.91756" lon="1.86097">
        <ele>115.751211</ele>
        <time>2021-09-08T09:49:53.000Z</time>
      </trkpt>
      <trkpt lat="47.91747" lon="1.86118">
        <ele>115.878921</ele>
        <time>2021-09-08T09:49:57.000Z</time>
      </trkpt>
      <trkpt lat="47.9173" lon="1.8616">
        <ele>115.9556</ele>
        <time>2021-09-08T09:50:05.000Z</time>
      </trkpt>
      <trkpt lat="47.91726" lon="1.8617">
        <ele>115.964561</ele>
        <time>2021-09-08T09:50:07.000Z</time>
      </trkpt>
      <trkpt lat="47.91719" lon="1.86192">
        <ele>115.982739</ele>
        <time>2021-09-08T09:50:11.000Z</time>
      </trkpt>
      <trkpt lat="47.91717" lon="1.86198">
        <ele>115.987449</ele>
        <time>2021-09-08T09:50:12.000Z</time>
      </trkpt>
      <trkpt lat="47.917" lon="1.86245">
        <ele>116.028146</ele>
        <time>2021-09-08T09:50:20.000Z</time>
      </trkpt>
      <trkpt lat="47.91686" lon="1.86289">
        <ele>116.064384</ele>
        <time>2021-09-08T09:50:26.000Z</time>
      </trkpt>
      <trkpt lat="47.91667" lon="1.86344">
        <ele>116.111215</ele>
        <time>2021-09-08T09:50:33.000Z</time>
      </trkpt>
      <trkpt lat="47.91645" lon="1.86411">
        <ele>115.929587</ele>
        <time>2021-09-08T09:50:41.000Z</time>
      </trkpt>
      <trkpt lat="47.91626" lon="1.86464">
        <ele>115.701291</ele>
        <time>2021-09-08T09:50:48.000Z</time>
      </trkpt>
      <trkpt lat="47.91615" lon="1.865">
        <ele>115.550368</ele>
        <time>2021-09-08T09:50:54.000Z</time>
      </trkpt>
      <trkpt lat="47.91601" lon="1.86542">
        <ele>115.369287</ele>
        <time>2021-09-08T09:51:00.000Z</time>
      </trkpt>
      <trkpt lat="47.91598" lon="1.8655">
        <ele>115.33705</ele>
        <time>2021-09-08T09:51:01.000Z</time>
      </trkpt>
      <trkpt lat="47.91589" lon="1.86581">
        <ele>115.206881</ele>
        <time>2021-09-08T09:51:05.000Z</time>
      </trkpt>
      <trkpt lat="47.91571" lon="1.8664">
        <ele>114.969228</ele>
        <time>2021-09-08T09:51:13.000Z</time>
      </trkpt>
      <trkpt lat="47.91553" lon="1.86689">
        <ele>114.764525</ele>
        <time>2021-09-08T09:51:20.000Z</time>
      </trkpt>
      <trkpt lat="47.91535" lon="1.8674">
        <ele>114.558602</ele>
        <time>2021-09-08T09:51:27.000Z</time>
      </trkpt>
      <trkpt lat="47.91517" lon="1.8679">
        <ele>114.349625</ele>
        <time>2021-09-08T09:51:34.000Z</time>
      </trkpt>
      <trkpt lat="47.91497" lon="1.86845">
        <ele>114.137413</ele>
        <time>2021-09-08T09:51:42.000Z</time>
      </trkpt>
      <trkpt lat="47.9149" lon="1.86856">
        <ele>114.152551</ele>
        <time>2021-09-08T09:51:44.000Z</time>
      </trkpt>
      <trkpt lat="47.9148" lon="1.86873">
        <ele>114.175274</ele>
        <time>2021-09-08T09:51:47.000Z</time>
      </trkpt>
      <trkpt lat="47.91472" lon="1.86891">
        <ele>114.196515</ele>
        <time>2021-09-08T09:51:50.000Z</time>
      </trkpt>
      <trkpt lat="47.91468" lon="1.86904">
        <ele>114.21019</ele>
        <time>2021-09-08T09:51:52.000Z</time>
      </trkpt>
      <trkpt lat="47.91466" lon="1.86918">
        <ele>114.22448</ele>
        <time>2021-09-08T09:51:54.000Z</time>
      </trkpt>
      <trkpt lat="47.91464" lon="1.8694">
        <ele>114.246876</ele>
        <time>2021-09-08T09:51:57.000Z</time>
      </trkpt>
      <trkpt lat="47.91461" lon="1.86954">
        <ele>114.26161</ele>
        <time>2021-09-08T09:51:59.000Z</time>
      </trkpt>
      <trkpt lat="47.91454" lon="1.86982">
        <ele>114.291072</ele>
        <time>2021-09-08T09:52:03.000Z</time>
      </trkpt>
      <trkpt lat="47.91445" lon="1.87009">
        <ele>114.320826</ele>
        <time>2021-09-08T09:52:07.000Z</time>
      </trkpt>
      <trkpt lat="47.91438" lon="1.8703">
        <ele>114.343751</ele>
        <time>2021-09-08T09:52:10.000Z</time>
      </trkpt>
      <trkpt lat="47.91424" lon="1.87076">
        <ele>114.394194</ele>
        <time>2021-09-08T09:52:17.000Z</time>
      </trkpt>
      <trkpt lat="47.91409" lon="1.8712">
        <ele>114.435125</ele>
        <time>2021-09-08T09:52:24.000Z</time>
      </trkpt>
      <trkpt lat="47.91402" lon="1.87146">
        <ele>114.457425</ele>
        <time>2021-09-08T09:52:28.000Z</time>
      </trkpt>
      <trkpt lat="47.91398" lon="1.87159">
        <ele>114.469109</ele>
        <time>2021-09-08T09:52:30.000Z</time>
      </trkpt>
      <trkpt lat="47.91385" lon="1.87194">
        <ele>114.502087</ele>
        <time>2021-09-08T09:52:36.000Z</time>
      </trkpt>
      <trkpt lat="47.91377" lon="1.87218">
        <ele>114.523279</ele>
        <time>2021-09-08T09:52:40.000Z</time>
      </trkpt>
      <trkpt lat="47.91361" lon="1.87269">
        <ele>114.568839</ele>
        <time>2021-09-08T09:52:48.000Z</time>
      </trkpt>
      <trkpt lat="47.91348" lon="1.87311">
        <ele>114.605709</ele>
        <time>2021-09-08T09:52:55.000Z</time>
      </trkpt>
      <trkpt lat="47.9133" lon="1.87362">
        <ele>114.454792</ele>
        <time>2021-09-08T09:53:03.000Z</time>
      </trkpt>
      <trkpt lat="47.9131" lon="1.87411">
        <ele>114.236956</ele>
        <time>2021-09-08T09:53:11.000Z</time>
      </trkpt>
      <trkpt lat="47.91284" lon="1.87477">
        <ele>113.952103</ele>
        <time>2021-09-08T09:53:21.000Z</time>
      </trkpt>
      <trkpt lat="47.91267" lon="1.87526">
        <ele>113.744235</ele>
        <time>2021-09-08T09:53:28.000Z</time>
      </trkpt>
      <trkpt lat="47.91249" lon="1.8757">
        <ele>113.524408</ele>
        <time>2021-09-08T09:53:35.000Z</time>
      </trkpt>
      <trkpt lat="47.91242" lon="1.87583">
        <ele>113.42959</ele>
        <time>2021-09-08T09:53:40.000Z</time>
      </trkpt>
      <trkpt lat="47.91232" lon="1.87605">
        <ele>113.28988</ele>
        <time>2021-09-08T09:53:47.000Z</time>
      </trkpt>
      <trkpt lat="47.91215" lon="1.87642">
        <ele>113.041063</ele>
        <time>2021-09-08T09:53:54.000Z</time>
      </trkpt>
      <trkpt lat="47.91194" lon="1.87689">
        <ele>112.731534</ele>
        <time>2021-09-08T09:54:01.000Z</time>
      </trkpt>
      <trkpt lat="47.91165" lon="1.87753">
        <ele>112.305587</ele>
        <time>2021-09-08T09:54:10.000Z</time>
      </trkpt>
      <trkpt lat="47.91141" lon="1.87806">
        <ele>111.84762</ele>
        <time>2021-09-08T09:54:17.000Z</time>
      </trkpt>
      <trkpt lat="47.91131" lon="1.87829">
        <ele>111.623703</ele>
        <time>2021-09-08T09:54:20.000Z</time>
      </trkpt>
      <trkpt lat="47.91128" lon="1.87836">
        <ele>111.549988</ele>
        <time>2021-09-08T09:54:21.000Z</time>
      </trkpt>
      <trkpt lat="47.91108" lon="1.87887">
        <ele>111.054948</ele>
        <time>2021-09-08T09:54:27.000Z</time>
      </trkpt>
      <trkpt lat="47.91081" lon="1.87951">
        <ele>110.418198</ele>
        <time>2021-09-08T09:54:35.000Z</time>
      </trkpt>
      <trkpt lat="47.91065" lon="1.87988">
        <ele>110.03788</ele>
        <time>2021-09-08T09:54:40.000Z</time>
      </trkpt>
      <trkpt lat="47.91058" lon="1.88002">
        <ele>109.898887</ele>
        <time>2021-09-08T09:54:42.000Z</time>
      </trkpt>
      <trkpt lat="47.91052" lon="1.88015">
        <ele>109.822299</ele>
        <time>2021-09-08T09:54:44.000Z</time>
      </trkpt>
      <trkpt lat="47.91041" lon="1.88039">
        <ele>109.714124</ele>
        <time>2021-09-08T09:54:48.000Z</time>
      </trkpt>
      <trkpt lat="47.91032" lon="1.88066">
        <ele>109.599124</ele>
        <time>2021-09-08T09:54:53.000Z</time>
      </trkpt>
      <trkpt lat="47.91021" lon="1.88091">
        <ele>109.488114</ele>
        <time>2021-09-08T09:54:59.000Z</time>
      </trkpt>
      <trkpt lat="47.91017" lon="1.88094">
        <ele>109.462087</ele>
        <time>2021-09-08T09:55:02.000Z</time>
      </trkpt>
      <trkpt lat="47.91016" lon="1.88096">
        <ele>109.449801</ele>
        <time>2021-09-08T09:55:03.000Z</time>
      </trkpt>
      <trkpt lat="47.91011" lon="1.88103">
        <ele>109.413961</ele>
        <time>2021-09-08T09:55:06.000Z</time>
      </trkpt>
      <trkpt lat="47.91008" lon="1.88115">
        <ele>109.364563</ele>
        <time>2021-09-08T09:55:12.000Z</time>
      </trkpt>
      <trkpt lat="47.91004" lon="1.88127">
        <ele>109.314362</ele>
        <time>2021-09-08T09:55:16.000Z</time>
      </trkpt>
      <trkpt lat="47.90999" lon="1.88142">
        <ele>109.249273</ele>
        <time>2021-09-08T09:55:19.000Z</time>
      </trkpt>
      <trkpt lat="47.90994" lon="1.88154">
        <ele>109.198789</ele>
        <time>2021-09-08T09:55:21.000Z</time>
      </trkpt>
      <trkpt lat="47.90975" lon="1.88199">
        <ele>108.995452</ele>
        <time>2021-09-08T09:55:29.000Z</time>
      </trkpt>
      <trkpt lat="47.9096" lon="1.88237">
        <ele>108.882793</ele>
        <time>2021-09-08T09:55:37.000Z</time>
      </trkpt>
      <trkpt lat="47.90952" lon="1.88255">
        <ele>108.960654</ele>
        <time>2021-09-08T09:55:42.000Z</time>
      </trkpt>
      <trkpt lat="47.90947" lon="1.88261">
        <ele>108.991589</ele>
        <time>2021-09-08T09:55:47.000Z</time>
      </trkpt>
      <trkpt lat="47.90938" lon="1.88279">
        <ele>109.071283</ele>
        <time>2021-09-08T09:55:52.000Z</time>
      </trkpt>
      <trkpt lat="47.90924" lon="1.88309">
        <ele>109.198978</ele>
        <time>2021-09-08T09:55:58.000Z</time>
      </trkpt>
      <trkpt lat="47.9091" lon="1.88346">
        <ele>109.349924</ele>
        <time>2021-09-08T09:56:05.000Z</time>
      </trkpt>
      <trkpt lat="47.90896" lon="1.88386">
        <ele>109.508842</ele>
        <time>2021-09-08T09:56:13.000Z</time>
      </trkpt>
      <trkpt lat="47.90893" lon="1.88392">
        <ele>109.533727</ele>
        <time>2021-09-08T09:56:16.000Z</time>
      </trkpt>
      <trkpt lat="47.90892" lon="1.88395">
        <ele>109.546118</ele>
        <time>2021-09-08T09:56:17.000Z</time>
      </trkpt>
      <trkpt lat="47.90884" lon="1.88415">
        <ele>109.62734</ele>
        <time>2021-09-08T09:56:22.000Z</time>
      </trkpt>
      <trkpt lat="47.9087" lon="1.88449">
        <ele>109.769063</ele>
        <time>2021-09-08T09:56:29.000Z</time>
      </trkpt>
      <trkpt lat="47.90858" lon="1.8848">
        <ele>110.003452</ele>
        <time>2021-09-08T09:56:35.000Z</time>
      </trkpt>
      <trkpt lat="47.90847" lon="1.88506">
        <ele>110.23775</ele>
        <time>2021-09-08T09:56:40.000Z</time>
      </trkpt>
      <trkpt lat="47.90834" lon="1.88534">
        <ele>110.499896</ele>
        <time>2021-09-08T09:56:46.000Z</time>
      </trkpt>
      <trkpt lat="47.90821" lon="1.88563">
        <ele>110.766498</ele>
        <time>2021-09-08T09:56:52.000Z</time>
      </trkpt>
      <trkpt lat="47.90806" lon="1.88597">
        <ele>111.074467</ele>
        <time>2021-09-08T09:56:59.000Z</time>
      </trkpt>
      <trkpt lat="47.90789" lon="1.88632">
        <ele>111.410616</ele>
        <time>2021-09-08T09:57:07.000Z</time>
      </trkpt>
      <trkpt lat="47.90773" lon="1.88669">
        <ele>111.748495</ele>
        <time>2021-09-08T09:57:15.000Z</time>
      </trkpt>
      <trkpt lat="47.90761" lon="1.88694">
        <ele>111.898509</ele>
        <time>2021-09-08T09:57:21.000Z</time>
      </trkpt>
      <trkpt lat="47.90751" lon="1.88716">
        <ele>111.968312</ele>
        <time>2021-09-08T09:57:26.000Z</time>
      </trkpt>
      <trkpt lat="47.90746" lon="1.88728">
        <ele>112.005492</ele>
        <time>2021-09-08T09:57:28.000Z</time>
      </trkpt>
      <trkpt lat="47.90738" lon="1.88744">
        <ele>112.058337</ele>
        <time>2021-09-08T09:57:31.000Z</time>
      </trkpt>
      <trkpt lat="47.90721" lon="1.88782">
        <ele>112.178325</ele>
        <time>2021-09-08T09:57:37.000Z</time>
      </trkpt>
      <trkpt lat="47.90699" lon="1.88827">
        <ele>112.323646</ele>
        <time>2021-09-08T09:57:44.000Z</time>
      </trkpt>
      <trkpt lat="47.90685" lon="1.88855">
        <ele>112.413492</ele>
        <time>2021-09-08T09:57:48.000Z</time>
      </trkpt>
      <trkpt lat="47.90678" lon="1.8887">
        <ele>112.460224</ele>
        <time>2021-09-08T09:57:50.000Z</time>
      </trkpt>
      <trkpt lat="47.90669" lon="1.88892">
        <ele>112.529364</ele>
        <time>2021-09-08T09:57:53.000Z</time>
      </trkpt>
      <trkpt lat="47.90662" lon="1.88906">
        <ele>112.544336</ele>
        <time>2021-09-08T09:57:55.000Z</time>
      </trkpt>
      <trkpt lat="47.90646" lon="1.88941">
        <ele>112.466687</ele>
        <time>2021-09-08T09:58:00.000Z</time>
      </trkpt>
      <trkpt lat="47.90639" lon="1.88961">
        <ele>112.424695</ele>
        <time>2021-09-08T09:58:03.000Z</time>
      </trkpt>
      <trkpt lat="47.90634" lon="1.88976">
        <ele>112.393885</ele>
        <time>2021-09-08T09:58:06.000Z</time>
      </trkpt>
      <trkpt lat="47.90628" lon="1.88999">
        <ele>112.347494</ele>
        <time>2021-09-08T09:58:12.000Z</time>
      </trkpt>
      <trkpt lat="47.90619" lon="1.89012">
        <ele>112.314593</ele>
        <time>2021-09-08T09:58:15.000Z</time>
      </trkpt>
      <trkpt lat="47.90612" lon="1.89031">
        <ele>112.275392</ele>
        <time>2021-09-08T09:58:18.000Z</time>
      </trkpt>
      <trkpt lat="47.9061" lon="1.89037">
        <ele>112.26132</ele>
        <time>2021-09-08T09:58:19.000Z</time>
      </trkpt>
      <trkpt lat="47.90592" lon="1.89086">
        <ele>112.160018</ele>
        <time>2021-09-08T09:58:26.000Z</time>
      </trkpt>
      <trkpt lat="47.90572" lon="1.89136">
        <ele>112.078379</ele>
        <time>2021-09-08T09:58:33.000Z</time>
      </trkpt>
      <trkpt lat="47.90557" lon="1.89167">
        <ele>112.207997</ele>
        <time>2021-09-08T09:58:38.000Z</time>
      </trkpt>
      <trkpt lat="47.90555" lon="1.89175">
        <ele>112.233823</ele>
        <time>2021-09-08T09:58:41.000Z</time>
      </trkpt>
      <trkpt lat="47.90553" lon="1.89179">
        <ele>112.250449</ele>
        <time>2021-09-08T09:59:00.000Z</time>
      </trkpt>
      <trkpt lat="47.9055" lon="1.89186">
        <ele>112.278545</ele>
        <time>2021-09-08T09:59:02.000Z</time>
      </trkpt>
      <trkpt lat="47.90139" lon="1.89363">
        <ele>113.679008</ele>
        <time>2021-09-08T10:02:19.000Z</time>
      </trkpt>
      <trkpt lat="47.90139" lon="1.89366">
        <ele>113.676351</ele>
        <time>2021-09-08T10:02:22.000Z</time>
      </trkpt>
      <trkpt lat="47.90137" lon="1.8937">
        <ele>113.671913</ele>
        <time>2021-09-08T10:02:37.000Z</time>
      </trkpt>
      <trkpt lat="47.9014" lon="1.89387">
        <ele>113.655918</ele>
        <time>2021-09-08T10:02:41.000Z</time>
      </trkpt>
      <trkpt lat="47.90145" lon="1.89424">
        <ele>113.624461</ele>
        <time>2021-09-08T10:02:48.000Z</time>
      </trkpt>
      <trkpt lat="47.9015" lon="1.89471">
        <ele>113.482589</ele>
        <time>2021-09-08T10:02:56.000Z</time>
      </trkpt>
      <trkpt lat="47.90155" lon="1.89505">
        <ele>113.113422</ele>
        <time>2021-09-08T10:03:02.000Z</time>
      </trkpt>
      <trkpt lat="47.90158" lon="1.89537">
        <ele>112.770929</ele>
        <time>2021-09-08T10:03:08.000Z</time>
      </trkpt>
      <trkpt lat="47.9016" lon="1.8956">
        <ele>112.525482</ele>
        <time>2021-09-08T10:03:14.000Z</time>
      </trkpt>
      <trkpt lat="47.90164" lon="1.89591">
        <ele>112.19264</ele>
        <time>2021-09-08T10:03:22.000Z</time>
      </trkpt>
      <trkpt lat="47.9017" lon="1.89631">
        <ele>111.763427</ele>
        <time>2021-09-08T10:03:29.000Z</time>
      </trkpt>
      <trkpt lat="47.90174" lon="1.89679">
        <ele>111.246617</ele>
        <time>2021-09-08T10:03:37.000Z</time>
      </trkpt>
      <trkpt lat="47.90174" lon="1.89699">
        <ele>111.043019</ele>
        <time>2021-09-08T10:03:41.000Z</time>
      </trkpt>
      <trkpt lat="47.90172" lon="1.89719">
        <ele>110.826934</ele>
        <time>2021-09-08T10:03:46.000Z</time>
      </trkpt>
      <trkpt lat="47.90169" lon="1.89725">
        <ele>110.772351</ele>
        <time>2021-09-08T10:03:48.000Z</time>
      </trkpt>
      <trkpt lat="47.9017" lon="1.89733">
        <ele>110.81349</ele>
        <time>2021-09-08T10:03:50.000Z</time>
      </trkpt>
      <trkpt lat="47.90174" lon="1.89757">
        <ele>110.933527</ele>
        <time>2021-09-08T10:03:57.000Z</time>
      </trkpt>
      <trkpt lat="47.90174" lon="1.89767">
        <ele>110.982425</ele>
        <time>2021-09-08T10:04:00.000Z</time>
      </trkpt>
      <trkpt lat="47.90174" lon="1.89772">
        <ele>111.011189</ele>
        <time>2021-09-08T10:04:02.000Z</time>
      </trkpt>
      <trkpt lat="47.90178" lon="1.89791">
        <ele>111.106505</ele>
        <time>2021-09-08T10:04:08.000Z</time>
      </trkpt>
      <trkpt lat="47.9018" lon="1.89797">
        <ele>111.142613</ele>
        <time>2021-09-08T10:04:11.000Z</time>
      </trkpt>
      <trkpt lat="47.90183" lon="1.89802">
        <ele>111.172635</ele>
        <time>2021-09-08T10:04:13.000Z</time>
      </trkpt>
      <trkpt lat="47.90184" lon="1.89819">
        <ele>111.257914</ele>
        <time>2021-09-08T10:04:18.000Z</time>
      </trkpt>
      <trkpt lat="47.90186" lon="1.89828">
        <ele>111.304072</ele>
        <time>2021-09-08T10:04:22.000Z</time>
      </trkpt>
      <trkpt lat="47.90187" lon="1.89836">
        <ele>111.344113</ele>
        <time>2021-09-08T10:04:30.000Z</time>
      </trkpt>
      <trkpt lat="47.90187" lon="1.89844">
        <ele>111.388373</ele>
        <time>2021-09-08T10:04:32.000Z</time>
      </trkpt>
      <trkpt lat="47.90185" lon="1.89869">
        <ele>111.512564</ele>
        <time>2021-09-08T10:04:37.000Z</time>
      </trkpt>
      <trkpt lat="47.90182" lon="1.899">
        <ele>111.663753</ele>
        <time>2021-09-08T10:04:43.000Z</time>
      </trkpt>
      <trkpt lat="47.90178" lon="1.89938">
        <ele>111.853141</ele>
        <time>2021-09-08T10:04:50.000Z</time>
      </trkpt>
      <trkpt lat="47.90174" lon="1.89977">
        <ele>112.04994</ele>
        <time>2021-09-08T10:04:57.000Z</time>
      </trkpt>
      <trkpt lat="47.90167" lon="1.90022">
        <ele>113.151009</ele>
        <time>2021-09-08T10:05:05.000Z</time>
      </trkpt>
      <trkpt lat="47.90162" lon="1.90057">
        <ele>114.161371</ele>
        <time>2021-09-08T10:05:12.000Z</time>
      </trkpt>
      <trkpt lat="47.90157" lon="1.90087">
        <ele>115.014927</ele>
        <time>2021-09-08T10:05:19.000Z</time>
      </trkpt>
      <trkpt lat="47.90152" lon="1.90118">
        <ele>115.89265</ele>
        <time>2021-09-08T10:05:27.000Z</time>
      </trkpt>
      <trkpt lat="47.90149" lon="1.90135">
        <ele>116.394098</ele>
        <time>2021-09-08T10:05:32.000Z</time>
      </trkpt>
      <trkpt lat="47.90142" lon="1.90161">
        <ele>117.165587</ele>
        <time>2021-09-08T10:05:39.000Z</time>
      </trkpt>
      <trkpt lat="47.90134" lon="1.90175">
        <ele>117.677424</ele>
        <time>2021-09-08T10:05:45.000Z</time>
      </trkpt>
      <trkpt lat="47.90131" lon="1.90203">
        <ele>118.482864</ele>
        <time>2021-09-08T10:05:51.000Z</time>
      </trkpt>
      <trkpt lat="47.9013" lon="1.90228">
        <ele>119.159445</ele>
        <time>2021-09-08T10:05:57.000Z</time>
      </trkpt>
      <trkpt lat="47.90133" lon="1.90257">
        <ele>119.553267</ele>
        <time>2021-09-08T10:06:05.000Z</time>
      </trkpt>
      <trkpt lat="47.90133" lon="1.90277">
        <ele>119.553267</ele>
        <time>2021-09-08T10:06:11.000Z</time>
      </trkpt>
      <trkpt lat="47.90132" lon="1.90278">
        <ele>119.553267</ele>
        <time>2021-09-08T10:06:12.000Z</time>
      </trkpt>
      <trkpt lat="47.90131" lon="1.90285">
        <ele>119.553267</ele>
        <time>2021-09-08T10:06:18.000Z</time>
      </trkpt>
      <trkpt lat="47.90134" lon="1.90295">
        <ele>119.553267</ele>
        <time>2021-09-08T10:06:23.000Z</time>
      </trkpt>
      <trkpt lat="47.90135" lon="1.90301">
        <ele>119.553267</ele>
        <time>2021-09-08T10:06:25.000Z</time>
      </trkpt>
      <trkpt lat="47.90137" lon="1.90306">
        <ele>119.553267</ele>
        <time>2021-09-08T10:06:27.000Z</time>
      </trkpt>
      <trkpt lat="47.90138" lon="1.90328">
        <ele>119.553267</ele>
        <time>2021-09-08T10:06:32.000Z</time>
      </trkpt>
      <trkpt lat="47.90139" lon="1.90356">
        <ele>119.553267</ele>
        <time>2021-09-08T10:06:38.000Z</time>
      </trkpt>
      <trkpt lat="47.9014" lon="1.90378">
        <ele>119.553267</ele>
        <time>2021-09-08T10:06:44.000Z</time>
      </trkpt>
      <trkpt lat="47.9014" lon="1.90379">
        <ele>119.553267</ele>
        <time>2021-09-08T10:06:46.000Z</time>
      </trkpt>
      <trkpt lat="47.90137" lon="1.90383">
        <ele>119.553267</ele>
        <time>2021-09-08T10:06:55.000Z</time>
      </trkpt>
      <trkpt lat="47.90136" lon="1.90384">
        <ele>119.553267</ele>
        <time>2021-09-08T10:06:56.000Z</time>
      </trkpt>
      <trkpt lat="47.90134" lon="1.90387">
        <ele>119.553267</ele>
        <time>2021-09-08T10:07:01.000Z</time>
      </trkpt>
    </trkseg>
  </trk>
  <trk>
    <name><![CDATA[Étape 5 : Orléans - Cosne-sur-Loire]]></name>
    <extensions>
      <line xmlns="http://www.topografix.com/GPX/gpx_style/0/2">
        <color>FF00FF</color>
        <width>4</width>
      </line>
    </extensions>
    <trkseg>
      <trkpt lat="47.89902" lon="1.92051">
        <ele>104.592015</ele>
        <time>2021-09-09T05:52:47.000Z</time>
      </trkpt>
      <trkpt lat="47.89911" lon="1.92045">
        <ele>104.592015</ele>
        <time>2021-09-09T05:52:51.000Z</time>
      </trkpt>
      <trkpt lat="47.89914" lon="1.92044">
        <ele>104.592015</ele>
        <time>2021-09-09T05:52:53.000Z</time>
      </trkpt>
      <trkpt lat="47.89919" lon="1.92041">
        <ele>104.592015</ele>
        <time>2021-09-09T05:52:55.000Z</time>
      </trkpt>
      <trkpt lat="47.89933" lon="1.92036">
        <ele>104.592015</ele>
        <time>2021-09-09T05:53:00.000Z</time>
      </trkpt>
      <trkpt lat="47.89939" lon="1.92035">
        <ele>104.592015</ele>
        <time>2021-09-09T05:53:02.000Z</time>
      </trkpt>
      <trkpt lat="47.89941" lon="1.92034">
        <ele>104.592015</ele>
        <time>2021-09-09T05:53:03.000Z</time>
      </trkpt>
      <trkpt lat="47.89948" lon="1.92033">
        <ele>104.592015</ele>
        <time>2021-09-09T05:53:06.000Z</time>
      </trkpt>
      <trkpt lat="47.89949" lon="1.92035">
        <ele>104.592015</ele>
        <time>2021-09-09T05:53:07.000Z</time>
      </trkpt>
      <trkpt lat="47.89949" lon="1.92038">
        <ele>104.592015</ele>
        <time>2021-09-09T05:53:08.000Z</time>
      </trkpt>
      <trkpt lat="47.89947" lon="1.92044">
        <ele>104.592015</ele>
        <time>2021-09-09T05:53:10.000Z</time>
      </trkpt>
      <trkpt lat="47.89945" lon="1.92046">
        <ele>104.592015</ele>
        <time>2021-09-09T05:53:11.000Z</time>
      </trkpt>
      <trkpt lat="47.89929" lon="1.92052">
        <ele>104.592015</ele>
        <time>2021-09-09T05:53:18.000Z</time>
      </trkpt>
      <trkpt lat="47.89915" lon="1.92039">
        <ele>104.593469</ele>
        <time>2021-09-09T05:53:25.000Z</time>
      </trkpt>
      <trkpt lat="47.89908" lon="1.92032">
        <ele>104.598567</ele>
        <time>2021-09-09T05:53:29.000Z</time>
      </trkpt>
      <trkpt lat="47.89906" lon="1.92033">
        <ele>104.599684</ele>
        <time>2021-09-09T05:53:30.000Z</time>
      </trkpt>
      <trkpt lat="47.89896" lon="1.92036">
        <ele>104.606139</ele>
        <time>2021-09-09T05:53:36.000Z</time>
      </trkpt>
      <trkpt lat="47.89881" lon="1.92041">
        <ele>104.61592</ele>
        <time>2021-09-09T05:53:43.000Z</time>
      </trkpt>
      <trkpt lat="47.8986" lon="1.92047">
        <ele>104.629609</ele>
        <time>2021-09-09T05:53:52.000Z</time>
      </trkpt>
      <trkpt lat="47.89839" lon="1.92054">
        <ele>104.643104</ele>
        <time>2021-09-09T05:53:58.000Z</time>
      </trkpt>
      <trkpt lat="47.89808" lon="1.92064">
        <ele>104.663106</ele>
        <time>2021-09-09T05:54:06.000Z</time>
      </trkpt>
      <trkpt lat="47.89781" lon="1.92072">
        <ele>104.680633</ele>
        <time>2021-09-09T05:54:12.000Z</time>
      </trkpt>
      <trkpt lat="47.89729" lon="1.92088">
        <ele>104.753176</ele>
        <time>2021-09-09T05:54:22.000Z</time>
      </trkpt>
      <trkpt lat="47.89692" lon="1.921">
        <ele>104.887179</ele>
        <time>2021-09-09T05:54:29.000Z</time>
      </trkpt>
      <trkpt lat="47.89651" lon="1.92112">
        <ele>105.032939</ele>
        <time>2021-09-09T05:54:37.000Z</time>
      </trkpt>
      <trkpt lat="47.89615" lon="1.92124">
        <ele>105.162868</ele>
        <time>2021-09-09T05:54:45.000Z</time>
      </trkpt>
      <trkpt lat="47.89581" lon="1.92134">
        <ele>105.284534</ele>
        <time>2021-09-09T05:54:52.000Z</time>
      </trkpt>
      <trkpt lat="47.89544" lon="1.92146">
        <ele>105.31366</ele>
        <time>2021-09-09T05:55:00.000Z</time>
      </trkpt>
      <trkpt lat="47.89501" lon="1.9216">
        <ele>105.264362</ele>
        <time>2021-09-09T05:55:09.000Z</time>
      </trkpt>
      <trkpt lat="47.89459" lon="1.92172">
        <ele>105.217194</ele>
        <time>2021-09-09T05:55:17.000Z</time>
      </trkpt>
      <trkpt lat="47.8943" lon="1.92181">
        <ele>105.184525</ele>
        <time>2021-09-09T05:55:22.000Z</time>
      </trkpt>
      <trkpt lat="47.89393" lon="1.92193">
        <ele>105.141544</ele>
        <time>2021-09-09T05:55:29.000Z</time>
      </trkpt>
      <trkpt lat="47.89366" lon="1.92203">
        <ele>104.640297</ele>
        <time>2021-09-09T05:55:35.000Z</time>
      </trkpt>
      <trkpt lat="47.89352" lon="1.92212">
        <ele>104.322349</ele>
        <time>2021-09-09T05:55:39.000Z</time>
      </trkpt>
      <trkpt lat="47.89347" lon="1.92216">
        <ele>104.220501</ele>
        <time>2021-09-09T05:55:40.000Z</time>
      </trkpt>
      <trkpt lat="47.89342" lon="1.92225">
        <ele>104.048808</ele>
        <time>2021-09-09T05:55:42.000Z</time>
      </trkpt>
      <trkpt lat="47.89341" lon="1.92237">
        <ele>103.891358</ele>
        <time>2021-09-09T05:55:45.000Z</time>
      </trkpt>
      <trkpt lat="47.89342" lon="1.92239">
        <ele>103.863562</ele>
        <time>2021-09-09T05:55:46.000Z</time>
      </trkpt>
      <trkpt lat="47.89342" lon="1.92242">
        <ele>103.826736</ele>
        <time>2021-09-09T05:55:48.000Z</time>
      </trkpt>
      <trkpt lat="47.89341" lon="1.92243">
        <ele>103.798231</ele>
        <time>2021-09-09T05:55:49.000Z</time>
      </trkpt>
      <trkpt lat="47.89339" lon="1.92243">
        <ele>103.771687</ele>
        <time>2021-09-09T05:55:50.000Z</time>
      </trkpt>
      <trkpt lat="47.89339" lon="1.9224">
        <ele>103.732194</ele>
        <time>2021-09-09T05:55:52.000Z</time>
      </trkpt>
      <trkpt lat="47.89348" lon="1.92235">
        <ele>103.542804</ele>
        <time>2021-09-09T05:55:56.000Z</time>
      </trkpt>
      <trkpt lat="47.89368" lon="1.92225">
        <ele>103.120278</ele>
        <time>2021-09-09T05:56:01.000Z</time>
      </trkpt>
      <trkpt lat="47.89377" lon="1.9222">
        <ele>102.930888</ele>
        <time>2021-09-09T05:56:03.000Z</time>
      </trkpt>
      <trkpt lat="47.8939" lon="1.92214">
        <ele>102.657628</ele>
        <time>2021-09-09T05:56:06.000Z</time>
      </trkpt>
      <trkpt lat="47.89394" lon="1.92213">
        <ele>102.567617</ele>
        <time>2021-09-09T05:56:07.000Z</time>
      </trkpt>
      <trkpt lat="47.89422" lon="1.92204">
        <ele>101.984998</ele>
        <time>2021-09-09T05:56:13.000Z</time>
      </trkpt>
      <trkpt lat="47.89446" lon="1.92193">
        <ele>101.468487</ele>
        <time>2021-09-09T05:56:18.000Z</time>
      </trkpt>
      <trkpt lat="47.89465" lon="1.92188">
        <ele>101.101196</ele>
        <time>2021-09-09T05:56:22.000Z</time>
      </trkpt>
      <trkpt lat="47.89475" lon="1.92186">
        <ele>100.913489</ele>
        <time>2021-09-09T05:56:24.000Z</time>
      </trkpt>
      <trkpt lat="47.89484" lon="1.92182">
        <ele>100.74528</ele>
        <time>2021-09-09T05:56:26.000Z</time>
      </trkpt>
      <trkpt lat="47.89489" lon="1.92174">
        <ele>100.603357</ele>
        <time>2021-09-09T05:56:28.000Z</time>
      </trkpt>
      <trkpt lat="47.89494" lon="1.92168">
        <ele>100.485351</ele>
        <time>2021-09-09T05:56:31.000Z</time>
      </trkpt>
      <trkpt lat="47.89496" lon="1.92168">
        <ele>100.448809</ele>
        <time>2021-09-09T05:56:32.000Z</time>
      </trkpt>
      <trkpt lat="47.89506" lon="1.92184">
        <ele>100.175643</ele>
        <time>2021-09-09T05:56:37.000Z</time>
      </trkpt>
      <trkpt lat="47.89512" lon="1.92193">
        <ele>100.00462</ele>
        <time>2021-09-09T05:56:41.000Z</time>
      </trkpt>
      <trkpt lat="47.89518" lon="1.92216">
        <ele>99.693223</ele>
        <time>2021-09-09T05:56:45.000Z</time>
      </trkpt>
      <trkpt lat="47.8952" lon="1.92242">
        <ele>99.365461</ele>
        <time>2021-09-09T05:56:49.000Z</time>
      </trkpt>
      <trkpt lat="47.89521" lon="1.9226">
        <ele>99.135747</ele>
        <time>2021-09-09T05:56:53.000Z</time>
      </trkpt>
      <trkpt lat="47.89525" lon="1.923">
        <ele>98.613899</ele>
        <time>2021-09-09T05:57:00.000Z</time>
      </trkpt>
      <trkpt lat="47.89527" lon="1.9234">
        <ele>98.11055</ele>
        <time>2021-09-09T05:57:06.000Z</time>
      </trkpt>
      <trkpt lat="47.89528" lon="1.92392">
        <ele>97.945586</ele>
        <time>2021-09-09T05:57:13.000Z</time>
      </trkpt>
      <trkpt lat="47.89526" lon="1.92424">
        <ele>97.859027</ele>
        <time>2021-09-09T05:57:18.000Z</time>
      </trkpt>
      <trkpt lat="47.89524" lon="1.92434">
        <ele>97.831323</ele>
        <time>2021-09-09T05:57:22.000Z</time>
      </trkpt>
      <trkpt lat="47.89522" lon="1.9244">
        <ele>97.813394</ele>
        <time>2021-09-09T05:57:27.000Z</time>
      </trkpt>
      <trkpt lat="47.8952" lon="1.92445">
        <ele>97.796672</ele>
        <time>2021-09-09T05:57:30.000Z</time>
      </trkpt>
      <trkpt lat="47.89516" lon="1.92462">
        <ele>97.749902</ele>
        <time>2021-09-09T05:57:38.000Z</time>
      </trkpt>
      <trkpt lat="47.89511" lon="1.92472">
        <ele>97.71613</ele>
        <time>2021-09-09T05:57:44.000Z</time>
      </trkpt>
      <trkpt lat="47.89511" lon="1.92473">
        <ele>97.710888</ele>
        <time>2021-09-09T05:57:45.000Z</time>
      </trkpt>
      <trkpt lat="47.8951" lon="1.92481">
        <ele>97.689501</ele>
        <time>2021-09-09T05:57:48.000Z</time>
      </trkpt>
      <trkpt lat="47.89505" lon="1.92506">
        <ele>97.620095</ele>
        <time>2021-09-09T05:57:54.000Z</time>
      </trkpt>
      <trkpt lat="47.89502" lon="1.92538">
        <ele>97.533175</ele>
        <time>2021-09-09T05:58:01.000Z</time>
      </trkpt>
      <trkpt lat="47.89499" lon="1.92566">
        <ele>97.457553</ele>
        <time>2021-09-09T05:58:06.000Z</time>
      </trkpt>
      <trkpt lat="47.89496" lon="1.92589">
        <ele>97.393836</ele>
        <time>2021-09-09T05:58:10.000Z</time>
      </trkpt>
      <trkpt lat="47.89495" lon="1.92595">
        <ele>97.377839</ele>
        <time>2021-09-09T05:58:11.000Z</time>
      </trkpt>
      <trkpt lat="47.89495" lon="1.92601">
        <ele>97.361653</ele>
        <time>2021-09-09T05:58:12.000Z</time>
      </trkpt>
      <trkpt lat="47.89492" lon="1.92624">
        <ele>97.429311</ele>
        <time>2021-09-09T05:58:16.000Z</time>
      </trkpt>
      <trkpt lat="47.89487" lon="1.92667">
        <ele>97.573969</ele>
        <time>2021-09-09T05:58:23.000Z</time>
      </trkpt>
      <trkpt lat="47.89484" lon="1.92692">
        <ele>97.65971</ele>
        <time>2021-09-09T05:58:27.000Z</time>
      </trkpt>
      <trkpt lat="47.89484" lon="1.92705">
        <ele>97.700963</ele>
        <time>2021-09-09T05:58:29.000Z</time>
      </trkpt>
      <trkpt lat="47.89478" lon="1.9275">
        <ele>97.85281</ele>
        <time>2021-09-09T05:58:36.000Z</time>
      </trkpt>
      <trkpt lat="47.89473" lon="1.92788">
        <ele>97.981078</ele>
        <time>2021-09-09T05:58:43.000Z</time>
      </trkpt>
      <trkpt lat="47.89471" lon="1.92808">
        <ele>98.049312</ele>
        <time>2021-09-09T05:58:49.000Z</time>
      </trkpt>
      <trkpt lat="47.89469" lon="1.92823">
        <ele>98.10091</ele>
        <time>2021-09-09T05:58:54.000Z</time>
      </trkpt>
      <trkpt lat="47.89465" lon="1.92848">
        <ele>98.185108</ele>
        <time>2021-09-09T05:59:01.000Z</time>
      </trkpt>
      <trkpt lat="47.89464" lon="1.9287">
        <ele>98.266235</ele>
        <time>2021-09-09T05:59:08.000Z</time>
      </trkpt>
      <trkpt lat="47.89462" lon="1.9289">
        <ele>98.370076</ele>
        <time>2021-09-09T05:59:14.000Z</time>
      </trkpt>
      <trkpt lat="47.8946" lon="1.92909">
        <ele>98.472982</ele>
        <time>2021-09-09T05:59:20.000Z</time>
      </trkpt>
      <trkpt lat="47.89458" lon="1.92928">
        <ele>98.575367</ele>
        <time>2021-09-09T05:59:24.000Z</time>
      </trkpt>
      <trkpt lat="47.89453" lon="1.92975">
        <ele>98.826016</ele>
        <time>2021-09-09T05:59:31.000Z</time>
      </trkpt>
      <trkpt lat="47.89452" lon="1.92982">
        <ele>98.862721</ele>
        <time>2021-09-09T05:59:32.000Z</time>
      </trkpt>
      <trkpt lat="47.89448" lon="1.93026">
        <ele>99.096203</ele>
        <time>2021-09-09T05:59:38.000Z</time>
      </trkpt>
      <trkpt lat="47.89442" lon="1.93076">
        <ele>99.366899</ele>
        <time>2021-09-09T05:59:44.000Z</time>
      </trkpt>
      <trkpt lat="47.89433" lon="1.93157">
        <ele>99.733932</ele>
        <time>2021-09-09T05:59:53.000Z</time>
      </trkpt>
      <trkpt lat="47.89425" lon="1.93238">
        <ele>99.956282</ele>
        <time>2021-09-09T06:00:02.000Z</time>
      </trkpt>
      <trkpt lat="47.89425" lon="1.93247">
        <ele>99.98125</ele>
        <time>2021-09-09T06:00:03.000Z</time>
      </trkpt>
      <trkpt lat="47.89421" lon="1.93292">
        <ele>100.103383</ele>
        <time>2021-09-09T06:00:08.000Z</time>
      </trkpt>
      <trkpt lat="47.8942" lon="1.93317">
        <ele>100.172581</ele>
        <time>2021-09-09T06:00:11.000Z</time>
      </trkpt>
      <trkpt lat="47.89416" lon="1.93352">
        <ele>100.267756</ele>
        <time>2021-09-09T06:00:15.000Z</time>
      </trkpt>
      <trkpt lat="47.89414" lon="1.93369">
        <ele>100.317094</ele>
        <time>2021-09-09T06:00:17.000Z</time>
      </trkpt>
      <trkpt lat="47.8941" lon="1.93433">
        <ele>100.382358</ele>
        <time>2021-09-09T06:00:24.000Z</time>
      </trkpt>
      <trkpt lat="47.89408" lon="1.93476">
        <ele>100.368897</ele>
        <time>2021-09-09T06:00:29.000Z</time>
      </trkpt>
      <trkpt lat="47.89403" lon="1.93546">
        <ele>100.346767</ele>
        <time>2021-09-09T06:00:37.000Z</time>
      </trkpt>
      <trkpt lat="47.89402" lon="1.93581">
        <ele>100.335615</ele>
        <time>2021-09-09T06:00:41.000Z</time>
      </trkpt>
      <trkpt lat="47.89403" lon="1.936">
        <ele>100.329514</ele>
        <time>2021-09-09T06:00:43.000Z</time>
      </trkpt>
      <trkpt lat="47.89404" lon="1.9361">
        <ele>100.326523</ele>
        <time>2021-09-09T06:00:44.000Z</time>
      </trkpt>
      <trkpt lat="47.8941" lon="1.93634">
        <ele>100.318464</ele>
        <time>2021-09-09T06:00:47.000Z</time>
      </trkpt>
      <trkpt lat="47.89415" lon="1.93657">
        <ele>100.310687</ele>
        <time>2021-09-09T06:00:50.000Z</time>
      </trkpt>
      <trkpt lat="47.8942" lon="1.93691">
        <ele>100.279577</ele>
        <time>2021-09-09T06:00:54.000Z</time>
      </trkpt>
      <trkpt lat="47.89428" lon="1.93741">
        <ele>100.227086</ele>
        <time>2021-09-09T06:01:00.000Z</time>
      </trkpt>
      <trkpt lat="47.89432" lon="1.93758">
        <ele>100.209243</ele>
        <time>2021-09-09T06:01:02.000Z</time>
      </trkpt>
      <trkpt lat="47.89441" lon="1.9379">
        <ele>100.175141</ele>
        <time>2021-09-09T06:01:06.000Z</time>
      </trkpt>
      <trkpt lat="47.89447" lon="1.9381">
        <ele>100.152333</ele>
        <time>2021-09-09T06:01:09.000Z</time>
      </trkpt>
      <trkpt lat="47.89448" lon="1.93817">
        <ele>100.145233</ele>
        <time>2021-09-09T06:01:10.000Z</time>
      </trkpt>
      <trkpt lat="47.89448" lon="1.93824">
        <ele>100.138588</ele>
        <time>2021-09-09T06:01:11.000Z</time>
      </trkpt>
      <trkpt lat="47.89447" lon="1.93836">
        <ele>100.125709</ele>
        <time>2021-09-09T06:01:13.000Z</time>
      </trkpt>
      <trkpt lat="47.89446" lon="1.93842">
        <ele>100.119271</ele>
        <time>2021-09-09T06:01:14.000Z</time>
      </trkpt>
      <trkpt lat="47.89441" lon="1.93871">
        <ele>100.089971</ele>
        <time>2021-09-09T06:01:19.000Z</time>
      </trkpt>
      <trkpt lat="47.89438" lon="1.93881">
        <ele>100.07837</ele>
        <time>2021-09-09T06:01:21.000Z</time>
      </trkpt>
      <trkpt lat="47.89435" lon="1.93901">
        <ele>100.057724</ele>
        <time>2021-09-09T06:01:24.000Z</time>
      </trkpt>
      <trkpt lat="47.89434" lon="1.93925">
        <ele>100.039805</ele>
        <time>2021-09-09T06:01:27.000Z</time>
      </trkpt>
      <trkpt lat="47.89436" lon="1.93949">
        <ele>100.04179</ele>
        <time>2021-09-09T06:01:30.000Z</time>
      </trkpt>
      <trkpt lat="47.8944" lon="1.94012">
        <ele>100.046809</ele>
        <time>2021-09-09T06:01:37.000Z</time>
      </trkpt>
      <trkpt lat="47.89447" lon="1.94077">
        <ele>100.052105</ele>
        <time>2021-09-09T06:01:45.000Z</time>
      </trkpt>
      <trkpt lat="47.8945" lon="1.94092">
        <ele>100.053325</ele>
        <time>2021-09-09T06:01:47.000Z</time>
      </trkpt>
      <trkpt lat="47.89458" lon="1.94109">
        <ele>100.055004</ele>
        <time>2021-09-09T06:01:50.000Z</time>
      </trkpt>
      <trkpt lat="47.89474" lon="1.94135">
        <ele>100.057804</ele>
        <time>2021-09-09T06:01:55.000Z</time>
      </trkpt>
      <trkpt lat="47.89478" lon="1.94149">
        <ele>100.05902</ele>
        <time>2021-09-09T06:01:57.000Z</time>
      </trkpt>
      <trkpt lat="47.89481" lon="1.94163">
        <ele>100.060232</ele>
        <time>2021-09-09T06:01:59.000Z</time>
      </trkpt>
      <trkpt lat="47.89482" lon="1.94172">
        <ele>100.063428</ele>
        <time>2021-09-09T06:02:00.000Z</time>
      </trkpt>
      <trkpt lat="47.89482" lon="1.94179">
        <ele>100.085312</ele>
        <time>2021-09-09T06:02:01.000Z</time>
      </trkpt>
      <trkpt lat="47.89481" lon="1.94214">
        <ele>100.182117</ele>
        <time>2021-09-09T06:02:06.000Z</time>
      </trkpt>
      <trkpt lat="47.8948" lon="1.94272">
        <ele>100.346832</ele>
        <time>2021-09-09T06:02:14.000Z</time>
      </trkpt>
      <trkpt lat="47.89483" lon="1.94313">
        <ele>100.463315</ele>
        <time>2021-09-09T06:02:19.000Z</time>
      </trkpt>
      <trkpt lat="47.89491" lon="1.94368">
        <ele>100.623585</ele>
        <time>2021-09-09T06:02:25.000Z</time>
      </trkpt>
      <trkpt lat="47.89501" lon="1.94439">
        <ele>100.816745</ele>
        <time>2021-09-09T06:02:33.000Z</time>
      </trkpt>
      <trkpt lat="47.89508" lon="1.94493">
        <ele>100.755772</ele>
        <time>2021-09-09T06:02:39.000Z</time>
      </trkpt>
      <trkpt lat="47.89519" lon="1.94561">
        <ele>100.679384</ele>
        <time>2021-09-09T06:02:46.000Z</time>
      </trkpt>
      <trkpt lat="47.89534" lon="1.94645">
        <ele>100.584323</ele>
        <time>2021-09-09T06:02:54.000Z</time>
      </trkpt>
      <trkpt lat="47.89536" lon="1.94656">
        <ele>100.571965</ele>
        <time>2021-09-09T06:02:55.000Z</time>
      </trkpt>
      <trkpt lat="47.89551" lon="1.94731">
        <ele>100.523185</ele>
        <time>2021-09-09T06:03:02.000Z</time>
      </trkpt>
      <trkpt lat="47.89566" lon="1.94815">
        <ele>100.51578</ele>
        <time>2021-09-09T06:03:10.000Z</time>
      </trkpt>
      <trkpt lat="47.89568" lon="1.94826">
        <ele>100.514857</ele>
        <time>2021-09-09T06:03:11.000Z</time>
      </trkpt>
      <trkpt lat="47.89579" lon="1.94888">
        <ele>100.509298</ele>
        <time>2021-09-09T06:03:17.000Z</time>
      </trkpt>
      <trkpt lat="47.89585" lon="1.9494">
        <ele>100.504823</ele>
        <time>2021-09-09T06:03:22.000Z</time>
      </trkpt>
      <trkpt lat="47.89591" lon="1.95013">
        <ele>100.455453</ele>
        <time>2021-09-09T06:03:29.000Z</time>
      </trkpt>
      <trkpt lat="47.89597" lon="1.9509">
        <ele>100.391139</ele>
        <time>2021-09-09T06:03:36.000Z</time>
      </trkpt>
      <trkpt lat="47.89601" lon="1.95153">
        <ele>100.338415</ele>
        <time>2021-09-09T06:03:42.000Z</time>
      </trkpt>
      <trkpt lat="47.89601" lon="1.95239">
        <ele>100.293329</ele>
        <time>2021-09-09T06:03:50.000Z</time>
      </trkpt>
      <trkpt lat="47.89601" lon="1.9525">
        <ele>100.302997</ele>
        <time>2021-09-09T06:03:51.000Z</time>
      </trkpt>
      <trkpt lat="47.89597" lon="1.95319">
        <ele>100.366242</ele>
        <time>2021-09-09T06:03:58.000Z</time>
      </trkpt>
      <trkpt lat="47.89592" lon="1.95378">
        <ele>100.419769</ele>
        <time>2021-09-09T06:04:04.000Z</time>
      </trkpt>
      <trkpt lat="47.89589" lon="1.95445">
        <ele>100.480036</ele>
        <time>2021-09-09T06:04:11.000Z</time>
      </trkpt>
      <trkpt lat="47.89588" lon="1.95503">
        <ele>100.522871</ele>
        <time>2021-09-09T06:04:17.000Z</time>
      </trkpt>
      <trkpt lat="47.89587" lon="1.95575">
        <ele>100.53172</ele>
        <time>2021-09-09T06:04:25.000Z</time>
      </trkpt>
      <trkpt lat="47.89586" lon="1.95639">
        <ele>100.539598</ele>
        <time>2021-09-09T06:04:32.000Z</time>
      </trkpt>
      <trkpt lat="47.89585" lon="1.95721">
        <ele>100.549654</ele>
        <time>2021-09-09T06:04:40.000Z</time>
      </trkpt>
      <trkpt lat="47.89584" lon="1.95731">
        <ele>100.55092</ele>
        <time>2021-09-09T06:04:41.000Z</time>
      </trkpt>
      <trkpt lat="47.89582" lon="1.95771">
        <ele>100.547907</ele>
        <time>2021-09-09T06:04:45.000Z</time>
      </trkpt>
      <trkpt lat="47.89581" lon="1.95781">
        <ele>100.542868</ele>
        <time>2021-09-09T06:04:46.000Z</time>
      </trkpt>
      <trkpt lat="47.8957" lon="1.95852">
        <ele>100.505424</ele>
        <time>2021-09-09T06:04:53.000Z</time>
      </trkpt>
      <trkpt lat="47.89566" lon="1.95913">
        <ele>100.473984</ele>
        <time>2021-09-09T06:04:59.000Z</time>
      </trkpt>
      <trkpt lat="47.89567" lon="1.95971">
        <ele>100.444178</ele>
        <time>2021-09-09T06:05:05.000Z</time>
      </trkpt>
      <trkpt lat="47.89569" lon="1.96032">
        <ele>100.404924</ele>
        <time>2021-09-09T06:05:11.000Z</time>
      </trkpt>
      <trkpt lat="47.89572" lon="1.96095">
        <ele>100.303118</ele>
        <time>2021-09-09T06:05:17.000Z</time>
      </trkpt>
      <trkpt lat="47.89579" lon="1.96175">
        <ele>100.172385</ele>
        <time>2021-09-09T06:05:25.000Z</time>
      </trkpt>
      <trkpt lat="47.8958" lon="1.96185">
        <ele>100.155735</ele>
        <time>2021-09-09T06:05:26.000Z</time>
      </trkpt>
      <trkpt lat="47.89585" lon="1.96252">
        <ele>100.04757</ele>
        <time>2021-09-09T06:05:33.000Z</time>
      </trkpt>
      <trkpt lat="47.89581" lon="1.96305">
        <ele>99.935257</ele>
        <time>2021-09-09T06:05:39.000Z</time>
      </trkpt>
      <trkpt lat="47.89579" lon="1.96321">
        <ele>99.873012</ele>
        <time>2021-09-09T06:05:41.000Z</time>
      </trkpt>
      <trkpt lat="47.89575" lon="1.96345">
        <ele>99.785682</ele>
        <time>2021-09-09T06:05:44.000Z</time>
      </trkpt>
      <trkpt lat="47.89566" lon="1.96403">
        <ele>99.566477</ele>
        <time>2021-09-09T06:05:51.000Z</time>
      </trkpt>
      <trkpt lat="47.89556" lon="1.96458">
        <ele>99.36024</ele>
        <time>2021-09-09T06:05:57.000Z</time>
      </trkpt>
      <trkpt lat="47.89546" lon="1.96501">
        <ele>99.195894</ele>
        <time>2021-09-09T06:06:02.000Z</time>
      </trkpt>
      <trkpt lat="47.8954" lon="1.96517">
        <ele>99.130563</ele>
        <time>2021-09-09T06:06:04.000Z</time>
      </trkpt>
      <trkpt lat="47.89517" lon="1.96569">
        <ele>98.951246</ele>
        <time>2021-09-09T06:06:11.000Z</time>
      </trkpt>
      <trkpt lat="47.8949" lon="1.9663">
        <ele>98.810891</ele>
        <time>2021-09-09T06:06:19.000Z</time>
      </trkpt>
      <trkpt lat="47.89465" lon="1.96682">
        <ele>98.685954</ele>
        <time>2021-09-09T06:06:26.000Z</time>
      </trkpt>
      <trkpt lat="47.89443" lon="1.96731">
        <ele>98.57125</ele>
        <time>2021-09-09T06:06:33.000Z</time>
      </trkpt>
      <trkpt lat="47.89413" lon="1.96798">
        <ele>98.484195</ele>
        <time>2021-09-09T06:06:42.000Z</time>
      </trkpt>
      <trkpt lat="47.89392" lon="1.96843">
        <ele>98.479876</ele>
        <time>2021-09-09T06:06:48.000Z</time>
      </trkpt>
      <trkpt lat="47.8939" lon="1.96851">
        <ele>98.479224</ele>
        <time>2021-09-09T06:06:49.000Z</time>
      </trkpt>
      <trkpt lat="47.89392" lon="1.96867">
        <ele>98.477937</ele>
        <time>2021-09-09T06:06:51.000Z</time>
      </trkpt>
      <trkpt lat="47.89402" lon="1.96889">
        <ele>98.475787</ele>
        <time>2021-09-09T06:06:54.000Z</time>
      </trkpt>
      <trkpt lat="47.89408" lon="1.96906">
        <ele>98.474247</ele>
        <time>2021-09-09T06:06:56.000Z</time>
      </trkpt>
      <trkpt lat="47.89416" lon="1.96934">
        <ele>98.471821</ele>
        <time>2021-09-09T06:06:59.000Z</time>
      </trkpt>
      <trkpt lat="47.89437" lon="1.9701">
        <ele>98.470202</ele>
        <time>2021-09-09T06:07:07.000Z</time>
      </trkpt>
      <trkpt lat="47.89459" lon="1.97081">
        <ele>98.519177</ele>
        <time>2021-09-09T06:07:15.000Z</time>
      </trkpt>
      <trkpt lat="47.89464" lon="1.97099">
        <ele>98.532112</ele>
        <time>2021-09-09T06:07:17.000Z</time>
      </trkpt>
      <trkpt lat="47.89467" lon="1.97121">
        <ele>98.545963</ele>
        <time>2021-09-09T06:07:19.000Z</time>
      </trkpt>
      <trkpt lat="47.89465" lon="1.97143">
        <ele>98.559655</ele>
        <time>2021-09-09T06:07:21.000Z</time>
      </trkpt>
      <trkpt lat="47.89463" lon="1.97153">
        <ele>98.566408</ele>
        <time>2021-09-09T06:07:22.000Z</time>
      </trkpt>
      <trkpt lat="47.89459" lon="1.97162">
        <ele>98.573088</ele>
        <time>2021-09-09T06:07:23.000Z</time>
      </trkpt>
      <trkpt lat="47.89444" lon="1.97197">
        <ele>98.599497</ele>
        <time>2021-09-09T06:07:27.000Z</time>
      </trkpt>
      <trkpt lat="47.89415" lon="1.97268">
        <ele>98.654644</ele>
        <time>2021-09-09T06:07:35.000Z</time>
      </trkpt>
      <trkpt lat="47.89408" lon="1.97285">
        <ele>98.669891</ele>
        <time>2021-09-09T06:07:37.000Z</time>
      </trkpt>
      <trkpt lat="47.89377" lon="1.97352">
        <ele>98.729957</ele>
        <time>2021-09-09T06:07:45.000Z</time>
      </trkpt>
      <trkpt lat="47.89367" lon="1.97362">
        <ele>98.744091</ele>
        <time>2021-09-09T06:07:47.000Z</time>
      </trkpt>
      <trkpt lat="47.89354" lon="1.97371">
        <ele>98.759211</ele>
        <time>2021-09-09T06:07:49.000Z</time>
      </trkpt>
      <trkpt lat="47.89312" lon="1.97409">
        <ele>98.814042</ele>
        <time>2021-09-09T06:07:56.000Z</time>
      </trkpt>
      <trkpt lat="47.89274" lon="1.97457">
        <ele>98.923008</ele>
        <time>2021-09-09T06:08:03.000Z</time>
      </trkpt>
      <trkpt lat="47.89236" lon="1.97517">
        <ele>99.082987</ele>
        <time>2021-09-09T06:08:11.000Z</time>
      </trkpt>
      <trkpt lat="47.89197" lon="1.97561">
        <ele>99.220784</ele>
        <time>2021-09-09T06:08:18.000Z</time>
      </trkpt>
      <trkpt lat="47.89153" lon="1.97607">
        <ele>99.371432</ele>
        <time>2021-09-09T06:08:26.000Z</time>
      </trkpt>
      <trkpt lat="47.89148" lon="1.97613">
        <ele>99.387663</ele>
        <time>2021-09-09T06:08:27.000Z</time>
      </trkpt>
      <trkpt lat="47.89111" lon="1.9767">
        <ele>99.517718</ele>
        <time>2021-09-09T06:08:35.000Z</time>
      </trkpt>
      <trkpt lat="47.89076" lon="1.97731">
        <ele>99.648021</ele>
        <time>2021-09-09T06:08:43.000Z</time>
      </trkpt>
      <trkpt lat="47.89041" lon="1.97794">
        <ele>99.781385</ele>
        <time>2021-09-09T06:08:51.000Z</time>
      </trkpt>
      <trkpt lat="47.89033" lon="1.97809">
        <ele>99.807208</ele>
        <time>2021-09-09T06:08:53.000Z</time>
      </trkpt>
      <trkpt lat="47.88994" lon="1.97878">
        <ele>99.917779</ele>
        <time>2021-09-09T06:09:02.000Z</time>
      </trkpt>
      <trkpt lat="47.8899" lon="1.97886">
        <ele>99.929819</ele>
        <time>2021-09-09T06:09:03.000Z</time>
      </trkpt>
      <trkpt lat="47.88954" lon="1.97947">
        <ele>100.028906</ele>
        <time>2021-09-09T06:09:11.000Z</time>
      </trkpt>
      <trkpt lat="47.88949" lon="1.97954">
        <ele>100.041262</ele>
        <time>2021-09-09T06:09:12.000Z</time>
      </trkpt>
      <trkpt lat="47.88914" lon="1.98014">
        <ele>100.101375</ele>
        <time>2021-09-09T06:09:20.000Z</time>
      </trkpt>
      <trkpt lat="47.88877" lon="1.98085">
        <ele>100.035464</ele>
        <time>2021-09-09T06:09:29.000Z</time>
      </trkpt>
      <trkpt lat="47.88873" lon="1.98093">
        <ele>100.02836</ele>
        <time>2021-09-09T06:09:30.000Z</time>
      </trkpt>
      <trkpt lat="47.88852" lon="1.98157">
        <ele>99.976504</ele>
        <time>2021-09-09T06:09:37.000Z</time>
      </trkpt>
      <trkpt lat="47.88834" lon="1.98229">
        <ele>99.92001</ele>
        <time>2021-09-09T06:09:45.000Z</time>
      </trkpt>
      <trkpt lat="47.88826" lon="1.98295">
        <ele>99.779759</ele>
        <time>2021-09-09T06:09:52.000Z</time>
      </trkpt>
      <trkpt lat="47.88825" lon="1.98369">
        <ele>99.622887</ele>
        <time>2021-09-09T06:10:00.000Z</time>
      </trkpt>
      <trkpt lat="47.88831" lon="1.98427">
        <ele>99.499184</ele>
        <time>2021-09-09T06:10:06.000Z</time>
      </trkpt>
      <trkpt lat="47.88841" lon="1.98495">
        <ele>99.353426</ele>
        <time>2021-09-09T06:10:13.000Z</time>
      </trkpt>
      <trkpt lat="47.88857" lon="1.98562">
        <ele>99.365155</ele>
        <time>2021-09-09T06:10:20.000Z</time>
      </trkpt>
      <trkpt lat="47.88882" lon="1.98625">
        <ele>99.377253</ele>
        <time>2021-09-09T06:10:27.000Z</time>
      </trkpt>
      <trkpt lat="47.88897" lon="1.98662">
        <ele>99.384402</ele>
        <time>2021-09-09T06:10:31.000Z</time>
      </trkpt>
      <trkpt lat="47.88903" lon="1.98683">
        <ele>99.388076</ele>
        <time>2021-09-09T06:10:33.000Z</time>
      </trkpt>
      <trkpt lat="47.88905" lon="1.98694">
        <ele>99.38994</ele>
        <time>2021-09-09T06:10:34.000Z</time>
      </trkpt>
      <trkpt lat="47.88906" lon="1.98716">
        <ele>99.39363</ele>
        <time>2021-09-09T06:10:36.000Z</time>
      </trkpt>
      <trkpt lat="47.88905" lon="1.98727">
        <ele>99.395438</ele>
        <time>2021-09-09T06:10:37.000Z</time>
      </trkpt>
      <trkpt lat="47.88893" lon="1.98803">
        <ele>99.353252</ele>
        <time>2021-09-09T06:10:44.000Z</time>
      </trkpt>
      <trkpt lat="47.88892" lon="1.98814">
        <ele>99.345661</ele>
        <time>2021-09-09T06:10:45.000Z</time>
      </trkpt>
      <trkpt lat="47.88894" lon="1.98846">
        <ele>99.32286</ele>
        <time>2021-09-09T06:10:48.000Z</time>
      </trkpt>
      <trkpt lat="47.88909" lon="1.98919">
        <ele>99.27044</ele>
        <time>2021-09-09T06:10:55.000Z</time>
      </trkpt>
      <trkpt lat="47.88929" lon="1.98977">
        <ele>99.22533</ele>
        <time>2021-09-09T06:11:01.000Z</time>
      </trkpt>
      <trkpt lat="47.88959" lon="1.99041">
        <ele>99.204436</ele>
        <time>2021-09-09T06:11:08.000Z</time>
      </trkpt>
      <trkpt lat="47.8899" lon="1.99088">
        <ele>99.195701</ele>
        <time>2021-09-09T06:11:14.000Z</time>
      </trkpt>
      <trkpt lat="47.89029" lon="1.9915">
        <ele>99.184363</ele>
        <time>2021-09-09T06:11:22.000Z</time>
      </trkpt>
      <trkpt lat="47.89039" lon="1.99179">
        <ele>99.180106</ele>
        <time>2021-09-09T06:11:25.000Z</time>
      </trkpt>
      <trkpt lat="47.89043" lon="1.99199">
        <ele>99.177245</ele>
        <time>2021-09-09T06:11:27.000Z</time>
      </trkpt>
      <trkpt lat="47.89049" lon="1.99263">
        <ele>99.117542</ele>
        <time>2021-09-09T06:11:33.000Z</time>
      </trkpt>
      <trkpt lat="47.89053" lon="1.99334">
        <ele>99.046333</ele>
        <time>2021-09-09T06:11:40.000Z</time>
      </trkpt>
      <trkpt lat="47.89056" lon="1.99387">
        <ele>98.993779</ele>
        <time>2021-09-09T06:11:45.000Z</time>
      </trkpt>
      <trkpt lat="47.89051" lon="1.99407">
        <ele>98.973103</ele>
        <time>2021-09-09T06:11:47.000Z</time>
      </trkpt>
      <trkpt lat="47.89047" lon="1.99415">
        <ele>98.962949</ele>
        <time>2021-09-09T06:11:48.000Z</time>
      </trkpt>
      <trkpt lat="47.89016" lon="1.99455">
        <ele>98.901741</ele>
        <time>2021-09-09T06:11:54.000Z</time>
      </trkpt>
      <trkpt lat="47.88974" lon="1.99506">
        <ele>98.812454</ele>
        <time>2021-09-09T06:12:02.000Z</time>
      </trkpt>
      <trkpt lat="47.88927" lon="1.99561">
        <ele>98.71252</ele>
        <time>2021-09-09T06:12:11.000Z</time>
      </trkpt>
      <trkpt lat="47.88922" lon="1.99567">
        <ele>98.70177</ele>
        <time>2021-09-09T06:12:12.000Z</time>
      </trkpt>
      <trkpt lat="47.88875" lon="1.99626">
        <ele>98.622352</ele>
        <time>2021-09-09T06:12:21.000Z</time>
      </trkpt>
      <trkpt lat="47.8883" lon="1.99683">
        <ele>98.695381</ele>
        <time>2021-09-09T06:12:30.000Z</time>
      </trkpt>
      <trkpt lat="47.88784" lon="1.99737">
        <ele>98.766935</ele>
        <time>2021-09-09T06:12:39.000Z</time>
      </trkpt>
      <trkpt lat="47.88779" lon="1.99743">
        <ele>98.775007</ele>
        <time>2021-09-09T06:12:40.000Z</time>
      </trkpt>
      <trkpt lat="47.88735" lon="1.99802">
        <ele>98.856742</ele>
        <time>2021-09-09T06:12:49.000Z</time>
      </trkpt>
      <trkpt lat="47.88725" lon="1.99815">
        <ele>98.88424</ele>
        <time>2021-09-09T06:12:51.000Z</time>
      </trkpt>
      <trkpt lat="47.88692" lon="1.99875">
        <ele>98.994594</ele>
        <time>2021-09-09T06:12:59.000Z</time>
      </trkpt>
      <trkpt lat="47.88658" lon="1.99946">
        <ele>99.117247</ele>
        <time>2021-09-09T06:13:08.000Z</time>
      </trkpt>
      <trkpt lat="47.88626" lon="2.00019">
        <ele>99.23766</ele>
        <time>2021-09-09T06:13:17.000Z</time>
      </trkpt>
      <trkpt lat="47.88616" lon="2.00044">
        <ele>99.276145</ele>
        <time>2021-09-09T06:13:20.000Z</time>
      </trkpt>
      <trkpt lat="47.88586" lon="2.00119">
        <ele>99.3919</ele>
        <time>2021-09-09T06:13:29.000Z</time>
      </trkpt>
      <trkpt lat="47.88558" lon="2.00197">
        <ele>99.507487</ele>
        <time>2021-09-09T06:13:38.000Z</time>
      </trkpt>
      <trkpt lat="47.88556" lon="2.00206">
        <ele>99.520494</ele>
        <time>2021-09-09T06:13:39.000Z</time>
      </trkpt>
      <trkpt lat="47.88532" lon="2.00286">
        <ele>99.572348</ele>
        <time>2021-09-09T06:13:48.000Z</time>
      </trkpt>
      <trkpt lat="47.88526" lon="2.00305">
        <ele>99.57493</ele>
        <time>2021-09-09T06:13:50.000Z</time>
      </trkpt>
      <trkpt lat="47.88506" lon="2.00386">
        <ele>99.586147</ele>
        <time>2021-09-09T06:13:59.000Z</time>
      </trkpt>
      <trkpt lat="47.88487" lon="2.0047">
        <ele>99.597578</ele>
        <time>2021-09-09T06:14:08.000Z</time>
      </trkpt>
      <trkpt lat="47.88483" lon="2.00488">
        <ele>99.599742</ele>
        <time>2021-09-09T06:14:10.000Z</time>
      </trkpt>
      <trkpt lat="47.88464" lon="2.00569">
        <ele>99.555362</ele>
        <time>2021-09-09T06:14:19.000Z</time>
      </trkpt>
      <trkpt lat="47.88462" lon="2.00578">
        <ele>99.550474</ele>
        <time>2021-09-09T06:14:20.000Z</time>
      </trkpt>
      <trkpt lat="47.88446" lon="2.0065">
        <ele>99.510759</ele>
        <time>2021-09-09T06:14:28.000Z</time>
      </trkpt>
      <trkpt lat="47.88428" lon="2.00734">
        <ele>99.465455</ele>
        <time>2021-09-09T06:14:37.000Z</time>
      </trkpt>
      <trkpt lat="47.88426" lon="2.00743">
        <ele>99.461113</ele>
        <time>2021-09-09T06:14:38.000Z</time>
      </trkpt>
      <trkpt lat="47.88414" lon="2.00808">
        <ele>99.464691</ele>
        <time>2021-09-09T06:14:45.000Z</time>
      </trkpt>
      <trkpt lat="47.88403" lon="2.00874">
        <ele>99.468308</ele>
        <time>2021-09-09T06:14:52.000Z</time>
      </trkpt>
      <trkpt lat="47.88393" lon="2.0095">
        <ele>99.472444</ele>
        <time>2021-09-09T06:15:00.000Z</time>
      </trkpt>
      <trkpt lat="47.88376" lon="2.01013">
        <ele>99.496834</ele>
        <time>2021-09-09T06:15:07.000Z</time>
      </trkpt>
      <trkpt lat="47.88358" lon="2.01075">
        <ele>99.603215</ele>
        <time>2021-09-09T06:15:14.000Z</time>
      </trkpt>
      <trkpt lat="47.88355" lon="2.01084">
        <ele>99.618372</ele>
        <time>2021-09-09T06:15:15.000Z</time>
      </trkpt>
      <trkpt lat="47.88332" lon="2.01139">
        <ele>99.721057</ele>
        <time>2021-09-09T06:15:22.000Z</time>
      </trkpt>
      <trkpt lat="47.88309" lon="2.01196">
        <ele>99.826604</ele>
        <time>2021-09-09T06:15:29.000Z</time>
      </trkpt>
      <trkpt lat="47.88284" lon="2.01277">
        <ele>99.951268</ele>
        <time>2021-09-09T06:15:38.000Z</time>
      </trkpt>
      <trkpt lat="47.88281" lon="2.01287">
        <ele>99.963383</ele>
        <time>2021-09-09T06:15:39.000Z</time>
      </trkpt>
      <trkpt lat="47.88257" lon="2.01367">
        <ele>100.070678</ele>
        <time>2021-09-09T06:15:48.000Z</time>
      </trkpt>
      <trkpt lat="47.88251" lon="2.01385">
        <ele>100.094961</ele>
        <time>2021-09-09T06:15:50.000Z</time>
      </trkpt>
      <trkpt lat="47.8822" lon="2.01462">
        <ele>100.204455</ele>
        <time>2021-09-09T06:15:59.000Z</time>
      </trkpt>
      <trkpt lat="47.88187" lon="2.01537">
        <ele>100.272465</ele>
        <time>2021-09-09T06:16:08.000Z</time>
      </trkpt>
      <trkpt lat="47.88183" lon="2.01545">
        <ele>100.278781</ele>
        <time>2021-09-09T06:16:09.000Z</time>
      </trkpt>
      <trkpt lat="47.88149" lon="2.01618">
        <ele>100.337179</ele>
        <time>2021-09-09T06:16:18.000Z</time>
      </trkpt>
      <trkpt lat="47.88113" lon="2.01685">
        <ele>100.393961</ele>
        <time>2021-09-09T06:16:27.000Z</time>
      </trkpt>
      <trkpt lat="47.88081" lon="2.01745">
        <ele>100.437645</ele>
        <time>2021-09-09T06:16:35.000Z</time>
      </trkpt>
      <trkpt lat="47.88041" lon="2.0181">
        <ele>100.487858</ele>
        <time>2021-09-09T06:16:44.000Z</time>
      </trkpt>
      <trkpt lat="47.88" lon="2.01872">
        <ele>100.537105</ele>
        <time>2021-09-09T06:16:53.000Z</time>
      </trkpt>
      <trkpt lat="47.87995" lon="2.01879">
        <ele>100.542551</ele>
        <time>2021-09-09T06:16:54.000Z</time>
      </trkpt>
      <trkpt lat="47.87957" lon="2.01945">
        <ele>100.564428</ele>
        <time>2021-09-09T06:17:03.000Z</time>
      </trkpt>
      <trkpt lat="47.87932" lon="2.02014">
        <ele>100.578584</ele>
        <time>2021-09-09T06:17:11.000Z</time>
      </trkpt>
      <trkpt lat="47.87906" lon="2.02073">
        <ele>100.591035</ele>
        <time>2021-09-09T06:17:18.000Z</time>
      </trkpt>
      <trkpt lat="47.8787" lon="2.02142">
        <ele>100.563204</ele>
        <time>2021-09-09T06:17:27.000Z</time>
      </trkpt>
      <trkpt lat="47.87861" lon="2.02157">
        <ele>100.545691</ele>
        <time>2021-09-09T06:17:29.000Z</time>
      </trkpt>
      <trkpt lat="47.87831" lon="2.02206">
        <ele>100.48467</ele>
        <time>2021-09-09T06:17:36.000Z</time>
      </trkpt>
      <trkpt lat="47.87789" lon="2.02257">
        <ele>100.41134</ele>
        <time>2021-09-09T06:17:44.000Z</time>
      </trkpt>
      <trkpt lat="47.87743" lon="2.02312">
        <ele>100.359636</ele>
        <time>2021-09-09T06:17:53.000Z</time>
      </trkpt>
      <trkpt lat="47.87727" lon="2.0233">
        <ele>100.364605</ele>
        <time>2021-09-09T06:17:56.000Z</time>
      </trkpt>
      <trkpt lat="47.87691" lon="2.02355">
        <ele>100.374328</ele>
        <time>2021-09-09T06:18:02.000Z</time>
      </trkpt>
      <trkpt lat="47.87646" lon="2.02366">
        <ele>100.385506</ele>
        <time>2021-09-09T06:18:09.000Z</time>
      </trkpt>
      <trkpt lat="47.8759" lon="2.02385">
        <ele>100.401574</ele>
        <time>2021-09-09T06:18:18.000Z</time>
      </trkpt>
      <trkpt lat="47.87584" lon="2.02387">
        <ele>100.419064</ele>
        <time>2021-09-09T06:18:19.000Z</time>
      </trkpt>
      <trkpt lat="47.8753" lon="2.02409">
        <ele>100.57687</ele>
        <time>2021-09-09T06:18:28.000Z</time>
      </trkpt>
      <trkpt lat="47.87472" lon="2.02432">
        <ele>100.746474</ele>
        <time>2021-09-09T06:18:37.000Z</time>
      </trkpt>
      <trkpt lat="47.8746" lon="2.02437">
        <ele>100.783531</ele>
        <time>2021-09-09T06:18:39.000Z</time>
      </trkpt>
      <trkpt lat="47.87402" lon="2.02459">
        <ele>100.93531</ele>
        <time>2021-09-09T06:18:48.000Z</time>
      </trkpt>
      <trkpt lat="47.87396" lon="2.02462">
        <ele>100.947292</ele>
        <time>2021-09-09T06:18:49.000Z</time>
      </trkpt>
      <trkpt lat="47.87345" lon="2.02482">
        <ele>101.0405</ele>
        <time>2021-09-09T06:18:57.000Z</time>
      </trkpt>
      <trkpt lat="47.87288" lon="2.02504">
        <ele>101.145771</ele>
        <time>2021-09-09T06:19:06.000Z</time>
      </trkpt>
      <trkpt lat="47.8723" lon="2.02526">
        <ele>101.263583</ele>
        <time>2021-09-09T06:19:15.000Z</time>
      </trkpt>
      <trkpt lat="47.87224" lon="2.02529">
        <ele>101.28153</ele>
        <time>2021-09-09T06:19:16.000Z</time>
      </trkpt>
      <trkpt lat="47.87166" lon="2.02551">
        <ele>101.442923</ele>
        <time>2021-09-09T06:19:25.000Z</time>
      </trkpt>
      <trkpt lat="47.87108" lon="2.02572">
        <ele>101.605407</ele>
        <time>2021-09-09T06:19:34.000Z</time>
      </trkpt>
      <trkpt lat="47.87095" lon="2.02577">
        <ele>101.641597</ele>
        <time>2021-09-09T06:19:36.000Z</time>
      </trkpt>
      <trkpt lat="47.87043" lon="2.02597">
        <ele>101.744075</ele>
        <time>2021-09-09T06:19:44.000Z</time>
      </trkpt>
      <trkpt lat="47.86984" lon="2.02618">
        <ele>101.811285</ele>
        <time>2021-09-09T06:19:53.000Z</time>
      </trkpt>
      <trkpt lat="47.86971" lon="2.02623">
        <ele>101.825915</ele>
        <time>2021-09-09T06:19:55.000Z</time>
      </trkpt>
      <trkpt lat="47.86914" lon="2.02642">
        <ele>101.891246</ele>
        <time>2021-09-09T06:20:04.000Z</time>
      </trkpt>
      <trkpt lat="47.86908" lon="2.02644">
        <ele>101.898202</ele>
        <time>2021-09-09T06:20:05.000Z</time>
      </trkpt>
      <trkpt lat="47.86853" lon="2.02664">
        <ele>101.892216</ele>
        <time>2021-09-09T06:20:14.000Z</time>
      </trkpt>
      <trkpt lat="47.86797" lon="2.02688">
        <ele>101.860983</ele>
        <time>2021-09-09T06:20:23.000Z</time>
      </trkpt>
      <trkpt lat="47.86785" lon="2.02693">
        <ele>101.854147</ele>
        <time>2021-09-09T06:20:25.000Z</time>
      </trkpt>
      <trkpt lat="47.86736" lon="2.02714">
        <ele>101.82653</ele>
        <time>2021-09-09T06:20:33.000Z</time>
      </trkpt>
      <trkpt lat="47.86682" lon="2.02738">
        <ele>101.852151</ele>
        <time>2021-09-09T06:20:42.000Z</time>
      </trkpt>
      <trkpt lat="47.8667" lon="2.02744">
        <ele>101.863004</ele>
        <time>2021-09-09T06:20:44.000Z</time>
      </trkpt>
      <trkpt lat="47.86652" lon="2.02753">
        <ele>101.879379</ele>
        <time>2021-09-09T06:20:47.000Z</time>
      </trkpt>
      <trkpt lat="47.86634" lon="2.02758">
        <ele>101.895355</ele>
        <time>2021-09-09T06:20:50.000Z</time>
      </trkpt>
      <trkpt lat="47.86588" lon="2.02777">
        <ele>101.936989</ele>
        <time>2021-09-09T06:20:58.000Z</time>
      </trkpt>
      <trkpt lat="47.86535" lon="2.02799">
        <ele>101.979534</ele>
        <time>2021-09-09T06:21:07.000Z</time>
      </trkpt>
      <trkpt lat="47.86482" lon="2.02823">
        <ele>102.007128</ele>
        <time>2021-09-09T06:21:16.000Z</time>
      </trkpt>
      <trkpt lat="47.86476" lon="2.02825">
        <ele>102.010162</ele>
        <time>2021-09-09T06:21:17.000Z</time>
      </trkpt>
      <trkpt lat="47.86421" lon="2.0284">
        <ele>102.037766</ele>
        <time>2021-09-09T06:21:26.000Z</time>
      </trkpt>
      <trkpt lat="47.86366" lon="2.02853">
        <ele>102.061997</ele>
        <time>2021-09-09T06:21:35.000Z</time>
      </trkpt>
      <trkpt lat="47.86312" lon="2.02876">
        <ele>102.060651</ele>
        <time>2021-09-09T06:21:44.000Z</time>
      </trkpt>
      <trkpt lat="47.863" lon="2.02881">
        <ele>102.060349</ele>
        <time>2021-09-09T06:21:46.000Z</time>
      </trkpt>
      <trkpt lat="47.86247" lon="2.0291">
        <ele>102.058986</ele>
        <time>2021-09-09T06:21:55.000Z</time>
      </trkpt>
      <trkpt lat="47.86241" lon="2.02914">
        <ele>102.058833</ele>
        <time>2021-09-09T06:21:56.000Z</time>
      </trkpt>
      <trkpt lat="47.86195" lon="2.02937">
        <ele>102.065018</ele>
        <time>2021-09-09T06:22:04.000Z</time>
      </trkpt>
      <trkpt lat="47.86142" lon="2.02956">
        <ele>102.129521</ele>
        <time>2021-09-09T06:22:13.000Z</time>
      </trkpt>
      <trkpt lat="47.86088" lon="2.02976">
        <ele>102.194655</ele>
        <time>2021-09-09T06:22:22.000Z</time>
      </trkpt>
      <trkpt lat="47.86082" lon="2.02978">
        <ele>102.201753</ele>
        <time>2021-09-09T06:22:23.000Z</time>
      </trkpt>
      <trkpt lat="47.86028" lon="2.02998">
        <ele>102.267341</ele>
        <time>2021-09-09T06:22:32.000Z</time>
      </trkpt>
      <trkpt lat="47.85973" lon="2.03018">
        <ele>102.366467</ele>
        <time>2021-09-09T06:22:41.000Z</time>
      </trkpt>
      <trkpt lat="47.85962" lon="2.03022">
        <ele>102.387841</ele>
        <time>2021-09-09T06:22:43.000Z</time>
      </trkpt>
      <trkpt lat="47.85909" lon="2.03039">
        <ele>102.484635</ele>
        <time>2021-09-09T06:22:52.000Z</time>
      </trkpt>
      <trkpt lat="47.85897" lon="2.03043">
        <ele>102.506811</ele>
        <time>2021-09-09T06:22:54.000Z</time>
      </trkpt>
      <trkpt lat="47.85842" lon="2.03062">
        <ele>102.590805</ele>
        <time>2021-09-09T06:23:03.000Z</time>
      </trkpt>
      <trkpt lat="47.85836" lon="2.03065">
        <ele>102.591145</ele>
        <time>2021-09-09T06:23:04.000Z</time>
      </trkpt>
      <trkpt lat="47.85785" lon="2.03099">
        <ele>102.594176</ele>
        <time>2021-09-09T06:23:13.000Z</time>
      </trkpt>
      <trkpt lat="47.8574" lon="2.03137">
        <ele>102.596922</ele>
        <time>2021-09-09T06:23:21.000Z</time>
      </trkpt>
      <trkpt lat="47.85693" lon="2.03181">
        <ele>102.599944</ele>
        <time>2021-09-09T06:23:30.000Z</time>
      </trkpt>
      <trkpt lat="47.85648" lon="2.03214">
        <ele>102.599997</ele>
        <time>2021-09-09T06:23:38.000Z</time>
      </trkpt>
      <trkpt lat="47.85598" lon="2.03253">
        <ele>102.599997</ele>
        <time>2021-09-09T06:23:47.000Z</time>
      </trkpt>
      <trkpt lat="47.85555" lon="2.03289">
        <ele>102.599997</ele>
        <time>2021-09-09T06:23:55.000Z</time>
      </trkpt>
      <trkpt lat="47.85509" lon="2.03336">
        <ele>102.618064</ele>
        <time>2021-09-09T06:24:04.000Z</time>
      </trkpt>
      <trkpt lat="47.85504" lon="2.03342">
        <ele>102.621713</ele>
        <time>2021-09-09T06:24:05.000Z</time>
      </trkpt>
      <trkpt lat="47.85465" lon="2.03405">
        <ele>102.655721</ele>
        <time>2021-09-09T06:24:14.000Z</time>
      </trkpt>
      <trkpt lat="47.85435" lon="2.03466">
        <ele>102.685756</ele>
        <time>2021-09-09T06:24:22.000Z</time>
      </trkpt>
      <trkpt lat="47.85401" lon="2.03537">
        <ele>102.718349</ele>
        <time>2021-09-09T06:24:31.000Z</time>
      </trkpt>
      <trkpt lat="47.85383" lon="2.03587">
        <ele>102.738425</ele>
        <time>2021-09-09T06:24:37.000Z</time>
      </trkpt>
      <trkpt lat="47.85364" lon="2.03651">
        <ele>102.763185</ele>
        <time>2021-09-09T06:24:44.000Z</time>
      </trkpt>
      <trkpt lat="47.85338" lon="2.03731">
        <ele>102.794201</ele>
        <time>2021-09-09T06:24:53.000Z</time>
      </trkpt>
      <trkpt lat="47.85335" lon="2.0374">
        <ele>102.797528</ele>
        <time>2021-09-09T06:24:54.000Z</time>
      </trkpt>
      <trkpt lat="47.8531" lon="2.03819">
        <ele>102.758554</ele>
        <time>2021-09-09T06:25:03.000Z</time>
      </trkpt>
      <trkpt lat="47.85305" lon="2.03836">
        <ele>102.748493</ele>
        <time>2021-09-09T06:25:05.000Z</time>
      </trkpt>
      <trkpt lat="47.85283" lon="2.03918">
        <ele>102.702999</ele>
        <time>2021-09-09T06:25:14.000Z</time>
      </trkpt>
      <trkpt lat="47.85279" lon="2.03975">
        <ele>102.673228</ele>
        <time>2021-09-09T06:25:20.000Z</time>
      </trkpt>
      <trkpt lat="47.85277" lon="2.04062">
        <ele>102.611403</ele>
        <time>2021-09-09T06:25:29.000Z</time>
      </trkpt>
      <trkpt lat="47.85277" lon="2.04071">
        <ele>102.603992</ele>
        <time>2021-09-09T06:25:30.000Z</time>
      </trkpt>
      <trkpt lat="47.85276" lon="2.0416">
        <ele>102.535385</ele>
        <time>2021-09-09T06:25:39.000Z</time>
      </trkpt>
      <trkpt lat="47.85276" lon="2.04245">
        <ele>102.46874</ele>
        <time>2021-09-09T06:25:48.000Z</time>
      </trkpt>
      <trkpt lat="47.85276" lon="2.04264">
        <ele>102.454177</ele>
        <time>2021-09-09T06:25:50.000Z</time>
      </trkpt>
      <trkpt lat="47.85283" lon="2.04341">
        <ele>102.438054</ele>
        <time>2021-09-09T06:25:58.000Z</time>
      </trkpt>
      <trkpt lat="47.85294" lon="2.0442">
        <ele>102.422856</ele>
        <time>2021-09-09T06:26:06.000Z</time>
      </trkpt>
      <trkpt lat="47.85301" lon="2.04469">
        <ele>102.413356</ele>
        <time>2021-09-09T06:26:11.000Z</time>
      </trkpt>
      <trkpt lat="47.85314" lon="2.04556">
        <ele>102.420435</ele>
        <time>2021-09-09T06:26:20.000Z</time>
      </trkpt>
      <trkpt lat="47.85326" lon="2.04642">
        <ele>102.479668</ele>
        <time>2021-09-09T06:26:29.000Z</time>
      </trkpt>
      <trkpt lat="47.85336" lon="2.04719">
        <ele>102.532634</ele>
        <time>2021-09-09T06:26:37.000Z</time>
      </trkpt>
      <trkpt lat="47.85344" lon="2.04806">
        <ele>102.590946</ele>
        <time>2021-09-09T06:26:46.000Z</time>
      </trkpt>
      <trkpt lat="47.85345" lon="2.04816">
        <ele>102.596833</ele>
        <time>2021-09-09T06:26:47.000Z</time>
      </trkpt>
      <trkpt lat="47.85354" lon="2.04895">
        <ele>102.644293</ele>
        <time>2021-09-09T06:26:55.000Z</time>
      </trkpt>
      <trkpt lat="47.85368" lon="2.04962">
        <ele>102.68504</ele>
        <time>2021-09-09T06:27:02.000Z</time>
      </trkpt>
      <trkpt lat="47.85384" lon="2.05038">
        <ele>102.732253</ele>
        <time>2021-09-09T06:27:10.000Z</time>
      </trkpt>
      <trkpt lat="47.85388" lon="2.05057">
        <ele>102.741958</ele>
        <time>2021-09-09T06:27:12.000Z</time>
      </trkpt>
      <trkpt lat="47.85402" lon="2.05115">
        <ele>102.755646</ele>
        <time>2021-09-09T06:27:18.000Z</time>
      </trkpt>
      <trkpt lat="47.85427" lon="2.05189">
        <ele>102.773987</ele>
        <time>2021-09-09T06:27:26.000Z</time>
      </trkpt>
      <trkpt lat="47.85442" lon="2.05249">
        <ele>102.787993</ele>
        <time>2021-09-09T06:27:32.000Z</time>
      </trkpt>
      <trkpt lat="47.85446" lon="2.05311">
        <ele>102.798992</ele>
        <time>2021-09-09T06:27:38.000Z</time>
      </trkpt>
      <trkpt lat="47.8545" lon="2.05395">
        <ele>102.789002</ele>
        <time>2021-09-09T06:27:46.000Z</time>
      </trkpt>
      <trkpt lat="47.85451" lon="2.05426">
        <ele>102.785301</ele>
        <time>2021-09-09T06:27:49.000Z</time>
      </trkpt>
      <trkpt lat="47.85455" lon="2.05508">
        <ele>102.775579</ele>
        <time>2021-09-09T06:27:57.000Z</time>
      </trkpt>
      <trkpt lat="47.85458" lon="2.05538">
        <ele>102.771974</ele>
        <time>2021-09-09T06:28:00.000Z</time>
      </trkpt>
      <trkpt lat="47.85461" lon="2.0562">
        <ele>102.771491</ele>
        <time>2021-09-09T06:28:08.000Z</time>
      </trkpt>
      <trkpt lat="47.85465" lon="2.05702">
        <ele>102.776905</ele>
        <time>2021-09-09T06:28:16.000Z</time>
      </trkpt>
      <trkpt lat="47.85467" lon="2.05743">
        <ele>102.779606</ele>
        <time>2021-09-09T06:28:20.000Z</time>
      </trkpt>
      <trkpt lat="47.85472" lon="2.05824">
        <ele>102.784975</ele>
        <time>2021-09-09T06:28:28.000Z</time>
      </trkpt>
      <trkpt lat="47.85472" lon="2.05835">
        <ele>102.785649</ele>
        <time>2021-09-09T06:28:29.000Z</time>
      </trkpt>
      <trkpt lat="47.85477" lon="2.05915">
        <ele>102.810404</ele>
        <time>2021-09-09T06:28:37.000Z</time>
      </trkpt>
      <trkpt lat="47.85478" lon="2.05925">
        <ele>102.813459</ele>
        <time>2021-09-09T06:28:38.000Z</time>
      </trkpt>
      <trkpt lat="47.85489" lon="2.05991">
        <ele>102.83503</ele>
        <time>2021-09-09T06:28:45.000Z</time>
      </trkpt>
      <trkpt lat="47.85506" lon="2.06045">
        <ele>102.85392</ele>
        <time>2021-09-09T06:28:51.000Z</time>
      </trkpt>
      <trkpt lat="47.85535" lon="2.06114">
        <ele>102.888088</ele>
        <time>2021-09-09T06:28:59.000Z</time>
      </trkpt>
      <trkpt lat="47.85543" lon="2.06131">
        <ele>102.900418</ele>
        <time>2021-09-09T06:29:01.000Z</time>
      </trkpt>
      <trkpt lat="47.85575" lon="2.06198">
        <ele>102.949403</ele>
        <time>2021-09-09T06:29:09.000Z</time>
      </trkpt>
      <trkpt lat="47.85582" lon="2.06215">
        <ele>102.961636</ele>
        <time>2021-09-09T06:29:11.000Z</time>
      </trkpt>
      <trkpt lat="47.85602" lon="2.06268">
        <ele>102.998138</ele>
        <time>2021-09-09T06:29:17.000Z</time>
      </trkpt>
      <trkpt lat="47.85625" lon="2.06344">
        <ele>103.049051</ele>
        <time>2021-09-09T06:29:25.000Z</time>
      </trkpt>
      <trkpt lat="47.85631" lon="2.06363">
        <ele>103.062466</ele>
        <time>2021-09-09T06:29:27.000Z</time>
      </trkpt>
      <trkpt lat="47.85656" lon="2.0644">
        <ele>103.115971</ele>
        <time>2021-09-09T06:29:35.000Z</time>
      </trkpt>
      <trkpt lat="47.85662" lon="2.06459">
        <ele>103.129256</ele>
        <time>2021-09-09T06:29:37.000Z</time>
      </trkpt>
      <trkpt lat="47.85685" lon="2.06536">
        <ele>103.182387</ele>
        <time>2021-09-09T06:29:45.000Z</time>
      </trkpt>
      <trkpt lat="47.85688" lon="2.06546">
        <ele>103.189179</ele>
        <time>2021-09-09T06:29:46.000Z</time>
      </trkpt>
      <trkpt lat="47.8571" lon="2.06613">
        <ele>103.200114</ele>
        <time>2021-09-09T06:29:53.000Z</time>
      </trkpt>
      <trkpt lat="47.85739" lon="2.06685">
        <ele>103.200284</ele>
        <time>2021-09-09T06:30:01.000Z</time>
      </trkpt>
      <trkpt lat="47.85769" lon="2.06754">
        <ele>103.200451</ele>
        <time>2021-09-09T06:30:09.000Z</time>
      </trkpt>
      <trkpt lat="47.85798" lon="2.06823">
        <ele>103.235137</ele>
        <time>2021-09-09T06:30:17.000Z</time>
      </trkpt>
      <trkpt lat="47.85802" lon="2.06831">
        <ele>103.244757</ele>
        <time>2021-09-09T06:30:18.000Z</time>
      </trkpt>
      <trkpt lat="47.85833" lon="2.06901">
        <ele>103.323111</ele>
        <time>2021-09-09T06:30:26.000Z</time>
      </trkpt>
      <trkpt lat="47.85837" lon="2.06909">
        <ele>103.332751</ele>
        <time>2021-09-09T06:30:27.000Z</time>
      </trkpt>
      <trkpt lat="47.85867" lon="2.06952">
        <ele>103.390897</ele>
        <time>2021-09-09T06:30:33.000Z</time>
      </trkpt>
      <trkpt lat="47.8591" lon="2.07003">
        <ele>103.461766</ele>
        <time>2021-09-09T06:30:41.000Z</time>
      </trkpt>
      <trkpt lat="47.85914" lon="2.0701">
        <ele>103.467284</ele>
        <time>2021-09-09T06:30:42.000Z</time>
      </trkpt>
      <trkpt lat="47.85946" lon="2.07062">
        <ele>103.505627</ele>
        <time>2021-09-09T06:30:49.000Z</time>
      </trkpt>
      <trkpt lat="47.85963" lon="2.07108">
        <ele>103.534374</ele>
        <time>2021-09-09T06:30:54.000Z</time>
      </trkpt>
      <trkpt lat="47.85986" lon="2.07184">
        <ele>103.580402</ele>
        <time>2021-09-09T06:31:02.000Z</time>
      </trkpt>
      <trkpt lat="47.85989" lon="2.07193">
        <ele>103.58601</ele>
        <time>2021-09-09T06:31:03.000Z</time>
      </trkpt>
      <trkpt lat="47.8601" lon="2.07268">
        <ele>103.583082</ele>
        <time>2021-09-09T06:31:11.000Z</time>
      </trkpt>
      <trkpt lat="47.86017" lon="2.07297">
        <ele>103.573691</ele>
        <time>2021-09-09T06:31:14.000Z</time>
      </trkpt>
      <trkpt lat="47.86038" lon="2.07374">
        <ele>103.548322</ele>
        <time>2021-09-09T06:31:22.000Z</time>
      </trkpt>
      <trkpt lat="47.86046" lon="2.07403">
        <ele>103.538778</ele>
        <time>2021-09-09T06:31:25.000Z</time>
      </trkpt>
      <trkpt lat="47.86068" lon="2.07475">
        <ele>103.477936</ele>
        <time>2021-09-09T06:31:33.000Z</time>
      </trkpt>
      <trkpt lat="47.86078" lon="2.07506">
        <ele>103.353293</ele>
        <time>2021-09-09T06:31:37.000Z</time>
      </trkpt>
      <trkpt lat="47.86079" lon="2.07513">
        <ele>103.32549</ele>
        <time>2021-09-09T06:31:38.000Z</time>
      </trkpt>
      <trkpt lat="47.86088" lon="2.07548">
        <ele>103.193066</ele>
        <time>2021-09-09T06:31:42.000Z</time>
      </trkpt>
      <trkpt lat="47.86108" lon="2.076">
        <ele>102.976685</ele>
        <time>2021-09-09T06:31:47.000Z</time>
      </trkpt>
      <trkpt lat="47.86126" lon="2.07667">
        <ele>102.717942</ele>
        <time>2021-09-09T06:31:53.000Z</time>
      </trkpt>
      <trkpt lat="47.86143" lon="2.07724">
        <ele>102.502595</ele>
        <time>2021-09-09T06:31:59.000Z</time>
      </trkpt>
      <trkpt lat="47.86148" lon="2.07742">
        <ele>102.444305</ele>
        <time>2021-09-09T06:32:01.000Z</time>
      </trkpt>
      <trkpt lat="47.86147" lon="2.07751">
        <ele>102.417726</ele>
        <time>2021-09-09T06:32:02.000Z</time>
      </trkpt>
      <trkpt lat="47.86145" lon="2.07759">
        <ele>102.391546</ele>
        <time>2021-09-09T06:32:03.000Z</time>
      </trkpt>
      <trkpt lat="47.86141" lon="2.07765">
        <ele>102.367789</ele>
        <time>2021-09-09T06:32:04.000Z</time>
      </trkpt>
      <trkpt lat="47.86137" lon="2.07768">
        <ele>102.348145</ele>
        <time>2021-09-09T06:32:05.000Z</time>
      </trkpt>
      <trkpt lat="47.86126" lon="2.07778">
        <ele>102.292623</ele>
        <time>2021-09-09T06:32:08.000Z</time>
      </trkpt>
      <trkpt lat="47.86126" lon="2.07791">
        <ele>102.253783</ele>
        <time>2021-09-09T06:32:10.000Z</time>
      </trkpt>
      <trkpt lat="47.86128" lon="2.07798">
        <ele>102.230954</ele>
        <time>2021-09-09T06:32:11.000Z</time>
      </trkpt>
      <trkpt lat="47.8615" lon="2.07839">
        <ele>102.075739</ele>
        <time>2021-09-09T06:32:17.000Z</time>
      </trkpt>
      <trkpt lat="47.86174" lon="2.07882">
        <ele>101.90816</ele>
        <time>2021-09-09T06:32:23.000Z</time>
      </trkpt>
      <trkpt lat="47.86198" lon="2.07929">
        <ele>101.753363</ele>
        <time>2021-09-09T06:32:29.000Z</time>
      </trkpt>
      <trkpt lat="47.86203" lon="2.07936">
        <ele>101.752611</ele>
        <time>2021-09-09T06:32:30.000Z</time>
      </trkpt>
      <trkpt lat="47.8621" lon="2.07949">
        <ele>101.751186</ele>
        <time>2021-09-09T06:32:32.000Z</time>
      </trkpt>
      <trkpt lat="47.86218" lon="2.07963">
        <ele>101.749794</ele>
        <time>2021-09-09T06:32:34.000Z</time>
      </trkpt>
      <trkpt lat="47.86247" lon="2.08008">
        <ele>101.744759</ele>
        <time>2021-09-09T06:32:41.000Z</time>
      </trkpt>
      <trkpt lat="47.86255" lon="2.08023">
        <ele>101.743283</ele>
        <time>2021-09-09T06:32:43.000Z</time>
      </trkpt>
      <trkpt lat="47.8626" lon="2.0804">
        <ele>101.741792</ele>
        <time>2021-09-09T06:32:45.000Z</time>
      </trkpt>
      <trkpt lat="47.86262" lon="2.08048">
        <ele>101.741103</ele>
        <time>2021-09-09T06:32:46.000Z</time>
      </trkpt>
      <trkpt lat="47.86262" lon="2.08057">
        <ele>101.740402</ele>
        <time>2021-09-09T06:32:47.000Z</time>
      </trkpt>
      <trkpt lat="47.86262" lon="2.08094">
        <ele>101.737447</ele>
        <time>2021-09-09T06:32:51.000Z</time>
      </trkpt>
      <trkpt lat="47.86263" lon="2.08179">
        <ele>101.696301</ele>
        <time>2021-09-09T06:33:00.000Z</time>
      </trkpt>
      <trkpt lat="47.86267" lon="2.08237">
        <ele>101.607137</ele>
        <time>2021-09-09T06:33:07.000Z</time>
      </trkpt>
      <trkpt lat="47.8627" lon="2.08289">
        <ele>101.528471</ele>
        <time>2021-09-09T06:33:14.000Z</time>
      </trkpt>
      <trkpt lat="47.8627" lon="2.0831">
        <ele>101.495177</ele>
        <time>2021-09-09T06:33:17.000Z</time>
      </trkpt>
      <trkpt lat="47.86272" lon="2.08325">
        <ele>101.473006</ele>
        <time>2021-09-09T06:33:19.000Z</time>
      </trkpt>
      <trkpt lat="47.86279" lon="2.08335">
        <ele>101.450929</ele>
        <time>2021-09-09T06:33:21.000Z</time>
      </trkpt>
      <trkpt lat="47.86283" lon="2.08338">
        <ele>101.439427</ele>
        <time>2021-09-09T06:33:22.000Z</time>
      </trkpt>
      <trkpt lat="47.86288" lon="2.08341">
        <ele>101.428384</ele>
        <time>2021-09-09T06:33:23.000Z</time>
      </trkpt>
      <trkpt lat="47.86302" lon="2.08343">
        <ele>101.397558</ele>
        <time>2021-09-09T06:33:26.000Z</time>
      </trkpt>
      <trkpt lat="47.8631" lon="2.08345">
        <ele>101.37792</ele>
        <time>2021-09-09T06:33:28.000Z</time>
      </trkpt>
      <trkpt lat="47.86318" lon="2.08349">
        <ele>101.358273</ele>
        <time>2021-09-09T06:33:30.000Z</time>
      </trkpt>
      <trkpt lat="47.86322" lon="2.08352">
        <ele>101.348599</ele>
        <time>2021-09-09T06:33:31.000Z</time>
      </trkpt>
      <trkpt lat="47.86332" lon="2.0837">
        <ele>101.325838</ele>
        <time>2021-09-09T06:33:35.000Z</time>
      </trkpt>
      <trkpt lat="47.86338" lon="2.08401">
        <ele>101.329253</ele>
        <time>2021-09-09T06:33:41.000Z</time>
      </trkpt>
      <trkpt lat="47.86347" lon="2.08406">
        <ele>101.330692</ele>
        <time>2021-09-09T06:33:44.000Z</time>
      </trkpt>
      <trkpt lat="47.86359" lon="2.08406">
        <ele>101.332609</ele>
        <time>2021-09-09T06:33:49.000Z</time>
      </trkpt>
      <trkpt lat="47.86375" lon="2.08406">
        <ele>101.33508</ele>
        <time>2021-09-09T06:33:56.000Z</time>
      </trkpt>
      <trkpt lat="47.86392" lon="2.08407">
        <ele>101.337598</ele>
        <time>2021-09-09T06:34:04.000Z</time>
      </trkpt>
      <trkpt lat="47.86395" lon="2.08407">
        <ele>101.338123</ele>
        <time>2021-09-09T06:34:06.000Z</time>
      </trkpt>
      <trkpt lat="47.864" lon="2.08407">
        <ele>101.338929</ele>
        <time>2021-09-09T06:34:09.000Z</time>
      </trkpt>
      <trkpt lat="47.8641" lon="2.08407">
        <ele>101.340427</ele>
        <time>2021-09-09T06:34:15.000Z</time>
      </trkpt>
      <trkpt lat="47.86411" lon="2.08407">
        <ele>101.34066</ele>
        <time>2021-09-09T06:34:16.000Z</time>
      </trkpt>
      <trkpt lat="47.86422" lon="2.08405">
        <ele>101.34235</ele>
        <time>2021-09-09T06:34:21.000Z</time>
      </trkpt>
      <trkpt lat="47.86429" lon="2.08405">
        <ele>101.343386</ele>
        <time>2021-09-09T06:34:24.000Z</time>
      </trkpt>
      <trkpt lat="47.86434" lon="2.08404">
        <ele>101.344113</ele>
        <time>2021-09-09T06:34:26.000Z</time>
      </trkpt>
      <trkpt lat="47.86448" lon="2.08399">
        <ele>101.346389</ele>
        <time>2021-09-09T06:34:32.000Z</time>
      </trkpt>
      <trkpt lat="47.86462" lon="2.08394">
        <ele>101.348559</ele>
        <time>2021-09-09T06:34:38.000Z</time>
      </trkpt>
      <trkpt lat="47.86472" lon="2.08388">
        <ele>101.350321</ele>
        <time>2021-09-09T06:34:43.000Z</time>
      </trkpt>
      <trkpt lat="47.86481" lon="2.08387">
        <ele>101.351723</ele>
        <time>2021-09-09T06:34:48.000Z</time>
      </trkpt>
      <trkpt lat="47.86482" lon="2.08386">
        <ele>101.351811</ele>
        <time>2021-09-09T06:34:50.000Z</time>
      </trkpt>
      <trkpt lat="47.86487" lon="2.08385">
        <ele>101.352612</ele>
        <time>2021-09-09T06:35:44.000Z</time>
      </trkpt>
      <trkpt lat="47.86489" lon="2.08385">
        <ele>101.359063</ele>
        <time>2021-09-09T06:35:45.000Z</time>
      </trkpt>
      <trkpt lat="47.86502" lon="2.08394">
        <ele>101.444029</ele>
        <time>2021-09-09T06:35:50.000Z</time>
      </trkpt>
      <trkpt lat="47.86511" lon="2.08417">
        <ele>101.553279</ele>
        <time>2021-09-09T06:35:56.000Z</time>
      </trkpt>
      <trkpt lat="47.86516" lon="2.08426">
        <ele>101.600042</ele>
        <time>2021-09-09T06:35:59.000Z</time>
      </trkpt>
      <trkpt lat="47.8652" lon="2.0843">
        <ele>101.627508</ele>
        <time>2021-09-09T06:36:01.000Z</time>
      </trkpt>
      <trkpt lat="47.86527" lon="2.08447">
        <ele>101.713193</ele>
        <time>2021-09-09T06:36:06.000Z</time>
      </trkpt>
      <trkpt lat="47.8654" lon="2.08483">
        <ele>101.878428</ele>
        <time>2021-09-09T06:36:12.000Z</time>
      </trkpt>
      <trkpt lat="47.86547" lon="2.08501">
        <ele>101.964245</ele>
        <time>2021-09-09T06:36:15.000Z</time>
      </trkpt>
      <trkpt lat="47.86555" lon="2.08521">
        <ele>102.054903</ele>
        <time>2021-09-09T06:36:18.000Z</time>
      </trkpt>
      <trkpt lat="47.8658" lon="2.08577">
        <ele>102.331937</ele>
        <time>2021-09-09T06:36:26.000Z</time>
      </trkpt>
      <trkpt lat="47.86605" lon="2.08634">
        <ele>102.500972</ele>
        <time>2021-09-09T06:36:34.000Z</time>
      </trkpt>
      <trkpt lat="47.86613" lon="2.08649">
        <ele>102.525325</ele>
        <time>2021-09-09T06:36:36.000Z</time>
      </trkpt>
      <trkpt lat="47.86624" lon="2.08673">
        <ele>102.564684</ele>
        <time>2021-09-09T06:36:39.000Z</time>
      </trkpt>
      <trkpt lat="47.86656" lon="2.08742">
        <ele>102.676615</ele>
        <time>2021-09-09T06:36:47.000Z</time>
      </trkpt>
      <trkpt lat="47.86687" lon="2.08813">
        <ele>102.789436</ele>
        <time>2021-09-09T06:36:55.000Z</time>
      </trkpt>
      <trkpt lat="47.86715" lon="2.08884">
        <ele>102.864101</ele>
        <time>2021-09-09T06:37:03.000Z</time>
      </trkpt>
      <trkpt lat="47.86719" lon="2.08893">
        <ele>102.872636</ele>
        <time>2021-09-09T06:37:04.000Z</time>
      </trkpt>
      <trkpt lat="47.86747" lon="2.08971">
        <ele>102.946266</ele>
        <time>2021-09-09T06:37:13.000Z</time>
      </trkpt>
      <trkpt lat="47.86767" lon="2.0903">
        <ele>103.001226</ele>
        <time>2021-09-09T06:37:20.000Z</time>
      </trkpt>
      <trkpt lat="47.8679" lon="2.09108">
        <ele>103.087669</ele>
        <time>2021-09-09T06:37:28.000Z</time>
      </trkpt>
      <trkpt lat="47.86808" lon="2.09176">
        <ele>103.171236</ele>
        <time>2021-09-09T06:37:35.000Z</time>
      </trkpt>
      <trkpt lat="47.86816" lon="2.09217">
        <ele>103.219407</ele>
        <time>2021-09-09T06:37:39.000Z</time>
      </trkpt>
      <trkpt lat="47.86819" lon="2.09238">
        <ele>103.243117</ele>
        <time>2021-09-09T06:37:41.000Z</time>
      </trkpt>
      <trkpt lat="47.86831" lon="2.0932">
        <ele>103.337448</ele>
        <time>2021-09-09T06:37:49.000Z</time>
      </trkpt>
      <trkpt lat="47.86834" lon="2.0934">
        <ele>103.356856</ele>
        <time>2021-09-09T06:37:51.000Z</time>
      </trkpt>
      <trkpt lat="47.86848" lon="2.09411">
        <ele>103.425543</ele>
        <time>2021-09-09T06:37:58.000Z</time>
      </trkpt>
      <trkpt lat="47.86863" lon="2.09491">
        <ele>103.502856</ele>
        <time>2021-09-09T06:38:06.000Z</time>
      </trkpt>
      <trkpt lat="47.86878" lon="2.0957">
        <ele>103.579177</ele>
        <time>2021-09-09T06:38:14.000Z</time>
      </trkpt>
      <trkpt lat="47.8688" lon="2.09581">
        <ele>103.576111</ele>
        <time>2021-09-09T06:38:15.000Z</time>
      </trkpt>
      <trkpt lat="47.8689" lon="2.09661">
        <ele>103.539322</ele>
        <time>2021-09-09T06:38:23.000Z</time>
      </trkpt>
      <trkpt lat="47.86898" lon="2.09743">
        <ele>103.502205</ele>
        <time>2021-09-09T06:38:31.000Z</time>
      </trkpt>
      <trkpt lat="47.86899" lon="2.09754">
        <ele>103.497544</ele>
        <time>2021-09-09T06:38:32.000Z</time>
      </trkpt>
      <trkpt lat="47.86907" lon="2.09837">
        <ele>103.460412</ele>
        <time>2021-09-09T06:38:40.000Z</time>
      </trkpt>
      <trkpt lat="47.86909" lon="2.09858">
        <ele>103.471837</ele>
        <time>2021-09-09T06:38:42.000Z</time>
      </trkpt>
      <trkpt lat="47.86918" lon="2.0994">
        <ele>103.516479</ele>
        <time>2021-09-09T06:38:50.000Z</time>
      </trkpt>
      <trkpt lat="47.86919" lon="2.09949">
        <ele>103.521774</ele>
        <time>2021-09-09T06:38:51.000Z</time>
      </trkpt>
      <trkpt lat="47.86928" lon="2.10031">
        <ele>103.566213</ele>
        <time>2021-09-09T06:38:59.000Z</time>
      </trkpt>
      <trkpt lat="47.86929" lon="2.10042">
        <ele>103.572092</ele>
        <time>2021-09-09T06:39:00.000Z</time>
      </trkpt>
      <trkpt lat="47.86931" lon="2.10119">
        <ele>103.610134</ele>
        <time>2021-09-09T06:39:07.000Z</time>
      </trkpt>
      <trkpt lat="47.86923" lon="2.10203">
        <ele>103.637447</ele>
        <time>2021-09-09T06:39:15.000Z</time>
      </trkpt>
      <trkpt lat="47.86912" lon="2.10284">
        <ele>103.663853</ele>
        <time>2021-09-09T06:39:23.000Z</time>
      </trkpt>
      <trkpt lat="47.869" lon="2.10363">
        <ele>103.689947</ele>
        <time>2021-09-09T06:39:31.000Z</time>
      </trkpt>
      <trkpt lat="47.86898" lon="2.10373">
        <ele>103.687821</ele>
        <time>2021-09-09T06:39:32.000Z</time>
      </trkpt>
      <trkpt lat="47.86887" lon="2.10452">
        <ele>103.660657</ele>
        <time>2021-09-09T06:39:40.000Z</time>
      </trkpt>
      <trkpt lat="47.86881" lon="2.10491">
        <ele>103.646968</ele>
        <time>2021-09-09T06:39:44.000Z</time>
      </trkpt>
      <trkpt lat="47.86872" lon="2.10569">
        <ele>103.620151</ele>
        <time>2021-09-09T06:39:52.000Z</time>
      </trkpt>
      <trkpt lat="47.86862" lon="2.10649">
        <ele>103.601238</ele>
        <time>2021-09-09T06:40:00.000Z</time>
      </trkpt>
      <trkpt lat="47.86861" lon="2.10669">
        <ele>103.602423</ele>
        <time>2021-09-09T06:40:02.000Z</time>
      </trkpt>
      <trkpt lat="47.86857" lon="2.10752">
        <ele>103.607214</ele>
        <time>2021-09-09T06:40:10.000Z</time>
      </trkpt>
      <trkpt lat="47.86857" lon="2.10772">
        <ele>103.608378</ele>
        <time>2021-09-09T06:40:12.000Z</time>
      </trkpt>
      <trkpt lat="47.86854" lon="2.10854">
        <ele>103.613158</ele>
        <time>2021-09-09T06:40:20.000Z</time>
      </trkpt>
      <trkpt lat="47.86853" lon="2.10875">
        <ele>103.614363</ele>
        <time>2021-09-09T06:40:22.000Z</time>
      </trkpt>
      <trkpt lat="47.86851" lon="2.10956">
        <ele>103.657911</ele>
        <time>2021-09-09T06:40:30.000Z</time>
      </trkpt>
      <trkpt lat="47.8685" lon="2.10976">
        <ele>103.672025</ele>
        <time>2021-09-09T06:40:32.000Z</time>
      </trkpt>
      <trkpt lat="47.86846" lon="2.11045">
        <ele>103.720972</ele>
        <time>2021-09-09T06:40:39.000Z</time>
      </trkpt>
      <trkpt lat="47.86842" lon="2.11133">
        <ele>103.783408</ele>
        <time>2021-09-09T06:40:48.000Z</time>
      </trkpt>
      <trkpt lat="47.86841" lon="2.11143">
        <ele>103.790557</ele>
        <time>2021-09-09T06:40:49.000Z</time>
      </trkpt>
      <trkpt lat="47.86838" lon="2.11213">
        <ele>103.85053</ele>
        <time>2021-09-09T06:40:56.000Z</time>
      </trkpt>
      <trkpt lat="47.86835" lon="2.11268">
        <ele>103.902025</ele>
        <time>2021-09-09T06:41:02.000Z</time>
      </trkpt>
      <trkpt lat="47.86832" lon="2.11322">
        <ele>103.951695</ele>
        <time>2021-09-09T06:41:08.000Z</time>
      </trkpt>
      <trkpt lat="47.86828" lon="2.11389">
        <ele>104.014046</ele>
        <time>2021-09-09T06:41:15.000Z</time>
      </trkpt>
      <trkpt lat="47.86826" lon="2.11458">
        <ele>104.093189</ele>
        <time>2021-09-09T06:41:22.000Z</time>
      </trkpt>
      <trkpt lat="47.86827" lon="2.11468">
        <ele>104.107237</ele>
        <time>2021-09-09T06:41:23.000Z</time>
      </trkpt>
      <trkpt lat="47.86832" lon="2.11527">
        <ele>104.19271</ele>
        <time>2021-09-09T06:41:29.000Z</time>
      </trkpt>
      <trkpt lat="47.86838" lon="2.11596">
        <ele>104.294244</ele>
        <time>2021-09-09T06:41:36.000Z</time>
      </trkpt>
      <trkpt lat="47.86837" lon="2.11643">
        <ele>104.362307</ele>
        <time>2021-09-09T06:41:42.000Z</time>
      </trkpt>
      <trkpt lat="47.86839" lon="2.11652">
        <ele>104.375724</ele>
        <time>2021-09-09T06:41:44.000Z</time>
      </trkpt>
      <trkpt lat="47.86844" lon="2.11645">
        <ele>104.389644</ele>
        <time>2021-09-09T06:41:47.000Z</time>
      </trkpt>
      <trkpt lat="47.86846" lon="2.11634">
        <ele>104.407175</ele>
        <time>2021-09-09T06:41:49.000Z</time>
      </trkpt>
      <trkpt lat="47.86849" lon="2.11627">
        <ele>104.41881</ele>
        <time>2021-09-09T06:41:50.000Z</time>
      </trkpt>
      <trkpt lat="47.86873" lon="2.11591">
        <ele>104.337597</ele>
        <time>2021-09-09T06:41:56.000Z</time>
      </trkpt>
      <trkpt lat="47.86881" lon="2.11587">
        <ele>104.303988</ele>
        <time>2021-09-09T06:41:58.000Z</time>
      </trkpt>
      <trkpt lat="47.86885" lon="2.1159">
        <ele>104.285173</ele>
        <time>2021-09-09T06:41:59.000Z</time>
      </trkpt>
      <trkpt lat="47.86886" lon="2.11604">
        <ele>104.244897</ele>
        <time>2021-09-09T06:42:01.000Z</time>
      </trkpt>
      <trkpt lat="47.86885" lon="2.11612">
        <ele>104.221838</ele>
        <time>2021-09-09T06:42:02.000Z</time>
      </trkpt>
      <trkpt lat="47.86878" lon="2.11647">
        <ele>104.117657</ele>
        <time>2021-09-09T06:42:06.000Z</time>
      </trkpt>
      <trkpt lat="47.86873" lon="2.11675">
        <ele>104.03553</ele>
        <time>2021-09-09T06:42:09.000Z</time>
      </trkpt>
      <trkpt lat="47.86871" lon="2.11694">
        <ele>103.981101</ele>
        <time>2021-09-09T06:42:11.000Z</time>
      </trkpt>
      <trkpt lat="47.86861" lon="2.1175">
        <ele>103.814149</ele>
        <time>2021-09-09T06:42:17.000Z</time>
      </trkpt>
      <trkpt lat="47.86846" lon="2.11826">
        <ele>103.570134</ele>
        <time>2021-09-09T06:42:25.000Z</time>
      </trkpt>
      <trkpt lat="47.86844" lon="2.11836">
        <ele>103.536888</ele>
        <time>2021-09-09T06:42:26.000Z</time>
      </trkpt>
      <trkpt lat="47.86838" lon="2.11872">
        <ele>103.41001</ele>
        <time>2021-09-09T06:42:30.000Z</time>
      </trkpt>
      <trkpt lat="47.86828" lon="2.11935">
        <ele>103.185071</ele>
        <time>2021-09-09T06:42:37.000Z</time>
      </trkpt>
      <trkpt lat="47.86817" lon="2.12002">
        <ele>102.952323</ele>
        <time>2021-09-09T06:42:45.000Z</time>
      </trkpt>
      <trkpt lat="47.86814" lon="2.12035">
        <ele>102.837821</ele>
        <time>2021-09-09T06:42:49.000Z</time>
      </trkpt>
      <trkpt lat="47.86816" lon="2.12052">
        <ele>102.778633</ele>
        <time>2021-09-09T06:42:51.000Z</time>
      </trkpt>
      <trkpt lat="47.86817" lon="2.12061">
        <ele>102.7551</ele>
        <time>2021-09-09T06:42:52.000Z</time>
      </trkpt>
      <trkpt lat="47.86817" lon="2.12079">
        <ele>102.757125</ele>
        <time>2021-09-09T06:42:54.000Z</time>
      </trkpt>
      <trkpt lat="47.86816" lon="2.12089">
        <ele>102.758152</ele>
        <time>2021-09-09T06:42:55.000Z</time>
      </trkpt>
      <trkpt lat="47.86808" lon="2.12144">
        <ele>102.764275</ele>
        <time>2021-09-09T06:43:01.000Z</time>
      </trkpt>
      <trkpt lat="47.86795" lon="2.12207">
        <ele>102.771401</ele>
        <time>2021-09-09T06:43:08.000Z</time>
      </trkpt>
      <trkpt lat="47.86788" lon="2.1224">
        <ele>102.775166</ele>
        <time>2021-09-09T06:43:13.000Z</time>
      </trkpt>
      <trkpt lat="47.86784" lon="2.12269">
        <ele>102.778309</ele>
        <time>2021-09-09T06:43:17.000Z</time>
      </trkpt>
      <trkpt lat="47.86781" lon="2.12286">
        <ele>102.780258</ele>
        <time>2021-09-09T06:43:19.000Z</time>
      </trkpt>
      <trkpt lat="47.86778" lon="2.12312">
        <ele>102.783106</ele>
        <time>2021-09-09T06:43:22.000Z</time>
      </trkpt>
      <trkpt lat="47.86774" lon="2.12352">
        <ele>102.742271</ele>
        <time>2021-09-09T06:43:27.000Z</time>
      </trkpt>
      <trkpt lat="47.86773" lon="2.12358">
        <ele>102.733938</ele>
        <time>2021-09-09T06:43:28.000Z</time>
      </trkpt>
      <trkpt lat="47.86768" lon="2.1238">
        <ele>102.703654</ele>
        <time>2021-09-09T06:43:32.000Z</time>
      </trkpt>
      <trkpt lat="47.86768" lon="2.12386">
        <ele>102.695889</ele>
        <time>2021-09-09T06:43:33.000Z</time>
      </trkpt>
      <trkpt lat="47.86766" lon="2.12415">
        <ele>102.65944</ele>
        <time>2021-09-09T06:43:37.000Z</time>
      </trkpt>
      <trkpt lat="47.86767" lon="2.12428">
        <ele>102.64228</ele>
        <time>2021-09-09T06:43:40.000Z</time>
      </trkpt>
      <trkpt lat="47.86767" lon="2.12432">
        <ele>102.638017</ele>
        <time>2021-09-09T06:43:42.000Z</time>
      </trkpt>
      <trkpt lat="47.86766" lon="2.12436">
        <ele>102.631855</ele>
        <time>2021-09-09T06:43:44.000Z</time>
      </trkpt>
      <trkpt lat="47.86763" lon="2.12455">
        <ele>102.607076</ele>
        <time>2021-09-09T06:43:47.000Z</time>
      </trkpt>
      <trkpt lat="47.86754" lon="2.12513">
        <ele>102.531255</ele>
        <time>2021-09-09T06:43:54.000Z</time>
      </trkpt>
      <trkpt lat="47.86742" lon="2.12582">
        <ele>102.446933</ele>
        <time>2021-09-09T06:44:03.000Z</time>
      </trkpt>
      <trkpt lat="47.86739" lon="2.12598">
        <ele>102.579788</ele>
        <time>2021-09-09T06:44:07.000Z</time>
      </trkpt>
      <trkpt lat="47.86733" lon="2.12599">
        <ele>102.652473</ele>
        <time>2021-09-09T06:44:10.000Z</time>
      </trkpt>
      <trkpt lat="47.86725" lon="2.12594">
        <ele>102.755744</ele>
        <time>2021-09-09T06:44:15.000Z</time>
      </trkpt>
      <trkpt lat="47.86712" lon="2.12589">
        <ele>102.922768</ele>
        <time>2021-09-09T06:44:24.000Z</time>
      </trkpt>
      <trkpt lat="47.86709" lon="2.12589">
        <ele>102.959201</ele>
        <time>2021-09-09T06:44:27.000Z</time>
      </trkpt>
      <trkpt lat="47.86708" lon="2.12594">
        <ele>102.995152</ele>
        <time>2021-09-09T06:44:29.000Z</time>
      </trkpt>
      <trkpt lat="47.86707" lon="2.12613">
        <ele>103.154744</ele>
        <time>2021-09-09T06:44:34.000Z</time>
      </trkpt>
      <trkpt lat="47.86703" lon="2.12637">
        <ele>103.353898</ele>
        <time>2021-09-09T06:44:38.000Z</time>
      </trkpt>
      <trkpt lat="47.867" lon="2.12657">
        <ele>103.515111</ele>
        <time>2021-09-09T06:44:41.000Z</time>
      </trkpt>
      <trkpt lat="47.86695" lon="2.12697">
        <ele>103.847619</ele>
        <time>2021-09-09T06:44:48.000Z</time>
      </trkpt>
      <trkpt lat="47.8669" lon="2.12706">
        <ele>103.941249</ele>
        <time>2021-09-09T06:44:52.000Z</time>
      </trkpt>
      <trkpt lat="47.86678" lon="2.12731">
        <ele>104.186765</ele>
        <time>2021-09-09T06:44:57.000Z</time>
      </trkpt>
      <trkpt lat="47.86658" lon="2.12778">
        <ele>104.624234</ele>
        <time>2021-09-09T06:45:04.000Z</time>
      </trkpt>
      <trkpt lat="47.86628" lon="2.12832">
        <ele>104.858211</ele>
        <time>2021-09-09T06:45:12.000Z</time>
      </trkpt>
      <trkpt lat="47.86588" lon="2.12892">
        <ele>105.144598</ele>
        <time>2021-09-09T06:45:21.000Z</time>
      </trkpt>
      <trkpt lat="47.86583" lon="2.12899">
        <ele>105.17792</ele>
        <time>2021-09-09T06:45:22.000Z</time>
      </trkpt>
      <trkpt lat="47.86553" lon="2.12932">
        <ele>105.365567</ele>
        <time>2021-09-09T06:45:28.000Z</time>
      </trkpt>
      <trkpt lat="47.86508" lon="2.12985">
        <ele>105.57842</ele>
        <time>2021-09-09T06:45:37.000Z</time>
      </trkpt>
      <trkpt lat="47.86468" lon="2.13047">
        <ele>105.713164</ele>
        <time>2021-09-09T06:45:46.000Z</time>
      </trkpt>
      <trkpt lat="47.86428" lon="2.13112">
        <ele>105.850234</ele>
        <time>2021-09-09T06:45:55.000Z</time>
      </trkpt>
      <trkpt lat="47.8642" lon="2.13126">
        <ele>105.880062</ele>
        <time>2021-09-09T06:45:57.000Z</time>
      </trkpt>
      <trkpt lat="47.86408" lon="2.13148">
        <ele>105.925163</ele>
        <time>2021-09-09T06:46:00.000Z</time>
      </trkpt>
      <trkpt lat="47.86402" lon="2.13165">
        <ele>105.961088</ele>
        <time>2021-09-09T06:46:02.000Z</time>
      </trkpt>
      <trkpt lat="47.86396" lon="2.13182">
        <ele>105.999154</ele>
        <time>2021-09-09T06:46:04.000Z</time>
      </trkpt>
      <trkpt lat="47.86384" lon="2.13207">
        <ele>106.058834</ele>
        <time>2021-09-09T06:46:07.000Z</time>
      </trkpt>
      <trkpt lat="47.86359" lon="2.13255">
        <ele>106.179374</ele>
        <time>2021-09-09T06:46:13.000Z</time>
      </trkpt>
      <trkpt lat="47.86316" lon="2.13315">
        <ele>106.354637</ele>
        <time>2021-09-09T06:46:22.000Z</time>
      </trkpt>
      <trkpt lat="47.86271" lon="2.13367">
        <ele>106.499276</ele>
        <time>2021-09-09T06:46:31.000Z</time>
      </trkpt>
      <trkpt lat="47.86235" lon="2.13405">
        <ele>106.57945</ele>
        <time>2021-09-09T06:46:38.000Z</time>
      </trkpt>
      <trkpt lat="47.86188" lon="2.13456">
        <ele>106.685274</ele>
        <time>2021-09-09T06:46:47.000Z</time>
      </trkpt>
      <trkpt lat="47.86142" lon="2.13511">
        <ele>106.790553</ele>
        <time>2021-09-09T06:46:56.000Z</time>
      </trkpt>
      <trkpt lat="47.86097" lon="2.13564">
        <ele>106.824</ele>
        <time>2021-09-09T06:47:05.000Z</time>
      </trkpt>
      <trkpt lat="47.86087" lon="2.13576">
        <ele>106.831691</ele>
        <time>2021-09-09T06:47:07.000Z</time>
      </trkpt>
      <trkpt lat="47.86046" lon="2.13625">
        <ele>106.862053</ele>
        <time>2021-09-09T06:47:15.000Z</time>
      </trkpt>
      <trkpt lat="47.86001" lon="2.1368">
        <ele>106.897273</ele>
        <time>2021-09-09T06:47:24.000Z</time>
      </trkpt>
      <trkpt lat="47.85996" lon="2.13686">
        <ele>106.908073</ele>
        <time>2021-09-09T06:47:25.000Z</time>
      </trkpt>
      <trkpt lat="47.85953" lon="2.1374">
        <ele>107.00321</ele>
        <time>2021-09-09T06:47:34.000Z</time>
      </trkpt>
      <trkpt lat="47.85928" lon="2.1377">
        <ele>107.056124</ele>
        <time>2021-09-09T06:47:39.000Z</time>
      </trkpt>
      <trkpt lat="47.85918" lon="2.13782">
        <ele>107.077587</ele>
        <time>2021-09-09T06:47:41.000Z</time>
      </trkpt>
      <trkpt lat="47.85874" lon="2.13835">
        <ele>107.172155</ele>
        <time>2021-09-09T06:47:50.000Z</time>
      </trkpt>
      <trkpt lat="47.8583" lon="2.13889">
        <ele>107.233364</ele>
        <time>2021-09-09T06:47:59.000Z</time>
      </trkpt>
      <trkpt lat="47.85825" lon="2.13894">
        <ele>107.238697</ele>
        <time>2021-09-09T06:48:00.000Z</time>
      </trkpt>
      <trkpt lat="47.85792" lon="2.13936">
        <ele>107.276529</ele>
        <time>2021-09-09T06:48:07.000Z</time>
      </trkpt>
      <trkpt lat="47.85754" lon="2.1398">
        <ele>107.318629</ele>
        <time>2021-09-09T06:48:15.000Z</time>
      </trkpt>
      <trkpt lat="47.85725" lon="2.14017">
        <ele>107.351722</ele>
        <time>2021-09-09T06:48:22.000Z</time>
      </trkpt>
      <trkpt lat="47.85715" lon="2.14029">
        <ele>107.294217</ele>
        <time>2021-09-09T06:48:25.000Z</time>
      </trkpt>
      <trkpt lat="47.85711" lon="2.1403">
        <ele>107.274407</ele>
        <time>2021-09-09T06:48:26.000Z</time>
      </trkpt>
      <trkpt lat="47.85708" lon="2.14027">
        <ele>107.255068</ele>
        <time>2021-09-09T06:48:27.000Z</time>
      </trkpt>
      <trkpt lat="47.85703" lon="2.14016">
        <ele>107.209428</ele>
        <time>2021-09-09T06:48:29.000Z</time>
      </trkpt>
      <trkpt lat="47.85691" lon="2.13973">
        <ele>107.054515</ele>
        <time>2021-09-09T06:48:34.000Z</time>
      </trkpt>
      <trkpt lat="47.85674" lon="2.13915">
        <ele>106.841234</ele>
        <time>2021-09-09T06:48:40.000Z</time>
      </trkpt>
      <trkpt lat="47.85658" lon="2.13849">
        <ele>106.603757</ele>
        <time>2021-09-09T06:48:47.000Z</time>
      </trkpt>
      <trkpt lat="47.8565" lon="2.13814">
        <ele>106.478535</ele>
        <time>2021-09-09T06:48:51.000Z</time>
      </trkpt>
      <trkpt lat="47.85641" lon="2.13804">
        <ele>106.432768</ele>
        <time>2021-09-09T06:48:53.000Z</time>
      </trkpt>
      <trkpt lat="47.85631" lon="2.13809">
        <ele>106.395275</ele>
        <time>2021-09-09T06:48:55.000Z</time>
      </trkpt>
      <trkpt lat="47.856" lon="2.13847">
        <ele>106.259691</ele>
        <time>2021-09-09T06:49:01.000Z</time>
      </trkpt>
      <trkpt lat="47.85563" lon="2.13891">
        <ele>106.101821</ele>
        <time>2021-09-09T06:49:08.000Z</time>
      </trkpt>
      <trkpt lat="47.85519" lon="2.13945">
        <ele>105.906377</ele>
        <time>2021-09-09T06:49:17.000Z</time>
      </trkpt>
      <trkpt lat="47.85514" lon="2.13952">
        <ele>105.885247</ele>
        <time>2021-09-09T06:49:18.000Z</time>
      </trkpt>
      <trkpt lat="47.85486" lon="2.13999">
        <ele>105.772394</ele>
        <time>2021-09-09T06:49:25.000Z</time>
      </trkpt>
      <trkpt lat="47.85478" lon="2.14013">
        <ele>105.744332</ele>
        <time>2021-09-09T06:49:27.000Z</time>
      </trkpt>
      <trkpt lat="47.85462" lon="2.14038">
        <ele>105.68946</ele>
        <time>2021-09-09T06:49:31.000Z</time>
      </trkpt>
      <trkpt lat="47.85429" lon="2.14095">
        <ele>105.569646</ele>
        <time>2021-09-09T06:49:40.000Z</time>
      </trkpt>
      <trkpt lat="47.85401" lon="2.14143">
        <ele>105.469391</ele>
        <time>2021-09-09T06:49:47.000Z</time>
      </trkpt>
      <trkpt lat="47.85363" lon="2.14199">
        <ele>105.408108</ele>
        <time>2021-09-09T06:49:55.000Z</time>
      </trkpt>
      <trkpt lat="47.85324" lon="2.14255">
        <ele>105.389578</ele>
        <time>2021-09-09T06:50:03.000Z</time>
      </trkpt>
      <trkpt lat="47.85314" lon="2.14268">
        <ele>105.385134</ele>
        <time>2021-09-09T06:50:05.000Z</time>
      </trkpt>
      <trkpt lat="47.85271" lon="2.14325">
        <ele>105.365307</ele>
        <time>2021-09-09T06:50:14.000Z</time>
      </trkpt>
      <trkpt lat="47.85229" lon="2.14373">
        <ele>105.36295</ele>
        <time>2021-09-09T06:50:22.000Z</time>
      </trkpt>
      <trkpt lat="47.85191" lon="2.14418">
        <ele>105.371583</ele>
        <time>2021-09-09T06:50:30.000Z</time>
      </trkpt>
      <trkpt lat="47.85161" lon="2.14458">
        <ele>105.37877</ele>
        <time>2021-09-09T06:50:37.000Z</time>
      </trkpt>
      <trkpt lat="47.85123" lon="2.14512">
        <ele>105.388328</ele>
        <time>2021-09-09T06:50:45.000Z</time>
      </trkpt>
      <trkpt lat="47.85079" lon="2.14573">
        <ele>105.337644</ele>
        <time>2021-09-09T06:50:54.000Z</time>
      </trkpt>
      <trkpt lat="47.85075" lon="2.1458">
        <ele>105.331023</ele>
        <time>2021-09-09T06:50:55.000Z</time>
      </trkpt>
      <trkpt lat="47.85035" lon="2.14641">
        <ele>105.272419</ele>
        <time>2021-09-09T06:51:04.000Z</time>
      </trkpt>
      <trkpt lat="47.85006" lon="2.14689">
        <ele>105.228197</ele>
        <time>2021-09-09T06:51:11.000Z</time>
      </trkpt>
      <trkpt lat="47.85002" lon="2.14697">
        <ele>105.221753</ele>
        <time>2021-09-09T06:51:12.000Z</time>
      </trkpt>
      <trkpt lat="47.84993" lon="2.14721">
        <ele>105.199581</ele>
        <time>2021-09-09T06:51:15.000Z</time>
      </trkpt>
      <trkpt lat="47.8499" lon="2.14729">
        <ele>105.187277</ele>
        <time>2021-09-09T06:51:16.000Z</time>
      </trkpt>
      <trkpt lat="47.84975" lon="2.14801">
        <ele>105.086455</ele>
        <time>2021-09-09T06:51:24.000Z</time>
      </trkpt>
      <trkpt lat="47.84972" lon="2.14869">
        <ele>104.996928</ele>
        <time>2021-09-09T06:51:31.000Z</time>
      </trkpt>
      <trkpt lat="47.84974" lon="2.14946">
        <ele>104.893516</ele>
        <time>2021-09-09T06:51:39.000Z</time>
      </trkpt>
      <trkpt lat="47.84975" lon="2.15012">
        <ele>104.805241</ele>
        <time>2021-09-09T06:51:46.000Z</time>
      </trkpt>
      <trkpt lat="47.84971" lon="2.15099">
        <ele>104.688198</ele>
        <time>2021-09-09T06:51:55.000Z</time>
      </trkpt>
      <trkpt lat="47.84961" lon="2.15182">
        <ele>104.573876</ele>
        <time>2021-09-09T06:52:04.000Z</time>
      </trkpt>
      <trkpt lat="47.84962" lon="2.15201">
        <ele>104.548502</ele>
        <time>2021-09-09T06:52:06.000Z</time>
      </trkpt>
      <trkpt lat="47.84964" lon="2.1522">
        <ele>104.522968</ele>
        <time>2021-09-09T06:52:08.000Z</time>
      </trkpt>
      <trkpt lat="47.84966" lon="2.15228">
        <ele>104.51069</ele>
        <time>2021-09-09T06:52:09.000Z</time>
      </trkpt>
      <trkpt lat="47.84975" lon="2.15262">
        <ele>104.522858</ele>
        <time>2021-09-09T06:52:13.000Z</time>
      </trkpt>
      <trkpt lat="47.84985" lon="2.15317">
        <ele>104.622563</ele>
        <time>2021-09-09T06:52:19.000Z</time>
      </trkpt>
      <trkpt lat="47.85002" lon="2.15399">
        <ele>104.774025</ele>
        <time>2021-09-09T06:52:28.000Z</time>
      </trkpt>
      <trkpt lat="47.85004" lon="2.15408">
        <ele>104.790603</ele>
        <time>2021-09-09T06:52:29.000Z</time>
      </trkpt>
      <trkpt lat="47.8501" lon="2.15464">
        <ele>104.889936</ele>
        <time>2021-09-09T06:52:35.000Z</time>
      </trkpt>
      <trkpt lat="47.85013" lon="2.15497">
        <ele>104.949593</ele>
        <time>2021-09-09T06:52:40.000Z</time>
      </trkpt>
      <trkpt lat="47.8502" lon="2.15542">
        <ele>105.077349</ele>
        <time>2021-09-09T06:52:46.000Z</time>
      </trkpt>
      <trkpt lat="47.85028" lon="2.15618">
        <ele>105.306918</ele>
        <time>2021-09-09T06:52:55.000Z</time>
      </trkpt>
      <trkpt lat="47.85028" lon="2.15665">
        <ele>105.446338</ele>
        <time>2021-09-09T06:53:00.000Z</time>
      </trkpt>
      <trkpt lat="47.85021" lon="2.15751">
        <ele>105.705531</ele>
        <time>2021-09-09T06:53:09.000Z</time>
      </trkpt>
      <trkpt lat="47.85016" lon="2.15818">
        <ele>105.875192</ele>
        <time>2021-09-09T06:53:16.000Z</time>
      </trkpt>
      <trkpt lat="47.85007" lon="2.15897">
        <ele>106.065981</ele>
        <time>2021-09-09T06:53:24.000Z</time>
      </trkpt>
      <trkpt lat="47.84988" lon="2.15974">
        <ele>106.259856</ele>
        <time>2021-09-09T06:53:32.000Z</time>
      </trkpt>
      <trkpt lat="47.84986" lon="2.15983">
        <ele>106.28388</ele>
        <time>2021-09-09T06:53:33.000Z</time>
      </trkpt>
      <trkpt lat="47.84966" lon="2.16068">
        <ele>106.457916</ele>
        <time>2021-09-09T06:53:42.000Z</time>
      </trkpt>
      <trkpt lat="47.84962" lon="2.16086">
        <ele>106.486493</ele>
        <time>2021-09-09T06:53:44.000Z</time>
      </trkpt>
      <trkpt lat="47.84942" lon="2.16167">
        <ele>106.612014</ele>
        <time>2021-09-09T06:53:53.000Z</time>
      </trkpt>
      <trkpt lat="47.84939" lon="2.16176">
        <ele>106.626727</ele>
        <time>2021-09-09T06:53:54.000Z</time>
      </trkpt>
      <trkpt lat="47.84919" lon="2.1626">
        <ele>106.75763</ele>
        <time>2021-09-09T06:54:03.000Z</time>
      </trkpt>
      <trkpt lat="47.84916" lon="2.1627">
        <ele>106.772695</ele>
        <time>2021-09-09T06:54:04.000Z</time>
      </trkpt>
      <trkpt lat="47.84898" lon="2.16347">
        <ele>106.847238</ele>
        <time>2021-09-09T06:54:12.000Z</time>
      </trkpt>
      <trkpt lat="47.84885" lon="2.16415">
        <ele>106.906573</ele>
        <time>2021-09-09T06:54:19.000Z</time>
      </trkpt>
      <trkpt lat="47.84871" lon="2.16493">
        <ele>106.974234</ele>
        <time>2021-09-09T06:54:27.000Z</time>
      </trkpt>
      <trkpt lat="47.84866" lon="2.16523">
        <ele>106.999571</ele>
        <time>2021-09-09T06:54:30.000Z</time>
      </trkpt>
      <trkpt lat="47.84851" lon="2.16609">
        <ele>107.072678</ele>
        <time>2021-09-09T06:54:39.000Z</time>
      </trkpt>
      <trkpt lat="47.8485" lon="2.16619">
        <ele>107.080882</ele>
        <time>2021-09-09T06:54:40.000Z</time>
      </trkpt>
      <trkpt lat="47.84837" lon="2.16695">
        <ele>107.144946</ele>
        <time>2021-09-09T06:54:48.000Z</time>
      </trkpt>
      <trkpt lat="47.84826" lon="2.16762">
        <ele>107.201294</ele>
        <time>2021-09-09T06:54:55.000Z</time>
      </trkpt>
      <trkpt lat="47.84816" lon="2.1684">
        <ele>107.255453</ele>
        <time>2021-09-09T06:55:03.000Z</time>
      </trkpt>
      <trkpt lat="47.84809" lon="2.16926">
        <ele>107.305371</ele>
        <time>2021-09-09T06:55:12.000Z</time>
      </trkpt>
      <trkpt lat="47.84809" lon="2.16935">
        <ele>107.310608</ele>
        <time>2021-09-09T06:55:13.000Z</time>
      </trkpt>
      <trkpt lat="47.84808" lon="2.1697">
        <ele>107.330408</ele>
        <time>2021-09-09T06:55:17.000Z</time>
      </trkpt>
      <trkpt lat="47.84804" lon="2.17032">
        <ele>107.366432</ele>
        <time>2021-09-09T06:55:24.000Z</time>
      </trkpt>
      <trkpt lat="47.84802" lon="2.17109">
        <ele>107.386857</ele>
        <time>2021-09-09T06:55:32.000Z</time>
      </trkpt>
      <trkpt lat="47.84806" lon="2.17199">
        <ele>107.392198</ele>
        <time>2021-09-09T06:55:41.000Z</time>
      </trkpt>
      <trkpt lat="47.84812" lon="2.17288">
        <ele>107.397548</ele>
        <time>2021-09-09T06:55:50.000Z</time>
      </trkpt>
      <trkpt lat="47.84817" lon="2.17359">
        <ele>107.414066</ele>
        <time>2021-09-09T06:55:57.000Z</time>
      </trkpt>
      <trkpt lat="47.84822" lon="2.1744">
        <ele>107.452288</ele>
        <time>2021-09-09T06:56:05.000Z</time>
      </trkpt>
      <trkpt lat="47.84823" lon="2.1746">
        <ele>107.461945</ele>
        <time>2021-09-09T06:56:07.000Z</time>
      </trkpt>
      <trkpt lat="47.84819" lon="2.17542">
        <ele>107.50062</ele>
        <time>2021-09-09T06:56:15.000Z</time>
      </trkpt>
      <trkpt lat="47.84815" lon="2.17626">
        <ele>107.525872</ele>
        <time>2021-09-09T06:56:23.000Z</time>
      </trkpt>
      <trkpt lat="47.84809" lon="2.17709">
        <ele>107.523692</ele>
        <time>2021-09-09T06:56:31.000Z</time>
      </trkpt>
      <trkpt lat="47.84799" lon="2.1779">
        <ele>107.52155</ele>
        <time>2021-09-09T06:56:39.000Z</time>
      </trkpt>
      <trkpt lat="47.84797" lon="2.178">
        <ele>107.521281</ele>
        <time>2021-09-09T06:56:40.000Z</time>
      </trkpt>
      <trkpt lat="47.84785" lon="2.17847">
        <ele>107.519967</ele>
        <time>2021-09-09T06:56:45.000Z</time>
      </trkpt>
      <trkpt lat="47.8476" lon="2.17894">
        <ele>107.545432</ele>
        <time>2021-09-09T06:56:51.000Z</time>
      </trkpt>
      <trkpt lat="47.84746" lon="2.17913">
        <ele>107.561332</ele>
        <time>2021-09-09T06:56:54.000Z</time>
      </trkpt>
      <trkpt lat="47.84734" lon="2.17919">
        <ele>107.571761</ele>
        <time>2021-09-09T06:56:56.000Z</time>
      </trkpt>
      <trkpt lat="47.84721" lon="2.17916">
        <ele>107.582732</ele>
        <time>2021-09-09T06:56:58.000Z</time>
      </trkpt>
      <trkpt lat="47.84715" lon="2.17914">
        <ele>107.587903</ele>
        <time>2021-09-09T06:56:59.000Z</time>
      </trkpt>
      <trkpt lat="47.84702" lon="2.17909">
        <ele>107.598139</ele>
        <time>2021-09-09T06:57:01.000Z</time>
      </trkpt>
      <trkpt lat="47.84684" lon="2.17907">
        <ele>107.61358</ele>
        <time>2021-09-09T06:57:04.000Z</time>
      </trkpt>
      <trkpt lat="47.84671" lon="2.17909">
        <ele>107.624023</ele>
        <time>2021-09-09T06:57:06.000Z</time>
      </trkpt>
      <trkpt lat="47.84659" lon="2.17914">
        <ele>107.634488</ele>
        <time>2021-09-09T06:57:08.000Z</time>
      </trkpt>
      <trkpt lat="47.84653" lon="2.17917">
        <ele>107.639736</ele>
        <time>2021-09-09T06:57:09.000Z</time>
      </trkpt>
      <trkpt lat="47.84626" lon="2.17941">
        <ele>107.665496</ele>
        <time>2021-09-09T06:57:14.000Z</time>
      </trkpt>
      <trkpt lat="47.84621" lon="2.17948">
        <ele>107.67073</ele>
        <time>2021-09-09T06:57:15.000Z</time>
      </trkpt>
      <trkpt lat="47.84606" lon="2.17977">
        <ele>107.690895</ele>
        <time>2021-09-09T06:57:19.000Z</time>
      </trkpt>
      <trkpt lat="47.84596" lon="2.18019">
        <ele>107.715288</ele>
        <time>2021-09-09T06:57:24.000Z</time>
      </trkpt>
      <trkpt lat="47.84596" lon="2.18067">
        <ele>107.741282</ele>
        <time>2021-09-09T06:57:29.000Z</time>
      </trkpt>
      <trkpt lat="47.84605" lon="2.18134">
        <ele>107.778864</ele>
        <time>2021-09-09T06:57:36.000Z</time>
      </trkpt>
      <trkpt lat="47.84617" lon="2.18222">
        <ele>107.83021</ele>
        <time>2021-09-09T06:57:45.000Z</time>
      </trkpt>
      <trkpt lat="47.84618" lon="2.18232">
        <ele>107.836496</ele>
        <time>2021-09-09T06:57:46.000Z</time>
      </trkpt>
      <trkpt lat="47.84618" lon="2.18242">
        <ele>107.842961</ele>
        <time>2021-09-09T06:57:47.000Z</time>
      </trkpt>
      <trkpt lat="47.84616" lon="2.18272">
        <ele>107.862276</ele>
        <time>2021-09-09T06:57:50.000Z</time>
      </trkpt>
      <trkpt lat="47.84604" lon="2.1836">
        <ele>107.91869</ele>
        <time>2021-09-09T06:57:59.000Z</time>
      </trkpt>
      <trkpt lat="47.84603" lon="2.1837">
        <ele>107.925102</ele>
        <time>2021-09-09T06:58:00.000Z</time>
      </trkpt>
      <trkpt lat="47.84593" lon="2.18451">
        <ele>107.977104</ele>
        <time>2021-09-09T06:58:08.000Z</time>
      </trkpt>
      <trkpt lat="47.84586" lon="2.18531">
        <ele>107.980937</ele>
        <time>2021-09-09T06:58:16.000Z</time>
      </trkpt>
      <trkpt lat="47.84585" lon="2.18541">
        <ele>107.980599</ele>
        <time>2021-09-09T06:58:17.000Z</time>
      </trkpt>
      <trkpt lat="47.84585" lon="2.18623">
        <ele>107.977927</ele>
        <time>2021-09-09T06:58:25.000Z</time>
      </trkpt>
      <trkpt lat="47.84585" lon="2.18643">
        <ele>107.977269</ele>
        <time>2021-09-09T06:58:27.000Z</time>
      </trkpt>
      <trkpt lat="47.84581" lon="2.18725">
        <ele>107.974594</ele>
        <time>2021-09-09T06:58:35.000Z</time>
      </trkpt>
      <trkpt lat="47.8458" lon="2.18734">
        <ele>107.970739</ele>
        <time>2021-09-09T06:58:36.000Z</time>
      </trkpt>
      <trkpt lat="47.84575" lon="2.18815">
        <ele>107.927973</ele>
        <time>2021-09-09T06:58:44.000Z</time>
      </trkpt>
      <trkpt lat="47.84574" lon="2.18896">
        <ele>107.885581</ele>
        <time>2021-09-09T06:58:52.000Z</time>
      </trkpt>
      <trkpt lat="47.84575" lon="2.18916">
        <ele>107.875165</ele>
        <time>2021-09-09T06:58:54.000Z</time>
      </trkpt>
      <trkpt lat="47.8458" lon="2.19005">
        <ele>107.832508</ele>
        <time>2021-09-09T06:59:03.000Z</time>
      </trkpt>
      <trkpt lat="47.84585" lon="2.19086">
        <ele>107.823357</ele>
        <time>2021-09-09T06:59:11.000Z</time>
      </trkpt>
      <trkpt lat="47.84586" lon="2.19096">
        <ele>107.822196</ele>
        <time>2021-09-09T06:59:12.000Z</time>
      </trkpt>
      <trkpt lat="47.84591" lon="2.19166">
        <ele>107.814151</ele>
        <time>2021-09-09T06:59:19.000Z</time>
      </trkpt>
      <trkpt lat="47.84598" lon="2.19247">
        <ele>107.804915</ele>
        <time>2021-09-09T06:59:27.000Z</time>
      </trkpt>
      <trkpt lat="47.846" lon="2.19278">
        <ele>107.814708</ele>
        <time>2021-09-09T06:59:30.000Z</time>
      </trkpt>
      <trkpt lat="47.84609" lon="2.19357">
        <ele>107.869986</ele>
        <time>2021-09-09T06:59:38.000Z</time>
      </trkpt>
      <trkpt lat="47.84611" lon="2.19367">
        <ele>107.876826</ele>
        <time>2021-09-09T06:59:39.000Z</time>
      </trkpt>
      <trkpt lat="47.84626" lon="2.19443">
        <ele>107.931363</ele>
        <time>2021-09-09T06:59:47.000Z</time>
      </trkpt>
      <trkpt lat="47.84645" lon="2.19528">
        <ele>107.991599</ele>
        <time>2021-09-09T06:59:56.000Z</time>
      </trkpt>
      <trkpt lat="47.84648" lon="2.19547">
        <ele>108.003574</ele>
        <time>2021-09-09T06:59:58.000Z</time>
      </trkpt>
      <trkpt lat="47.84667" lon="2.19632">
        <ele>108.056991</ele>
        <time>2021-09-09T07:00:07.000Z</time>
      </trkpt>
      <trkpt lat="47.84684" lon="2.19716">
        <ele>108.109713</ele>
        <time>2021-09-09T07:00:16.000Z</time>
      </trkpt>
      <trkpt lat="47.84686" lon="2.19725">
        <ele>108.115467</ele>
        <time>2021-09-09T07:00:17.000Z</time>
      </trkpt>
      <trkpt lat="47.84704" lon="2.19809">
        <ele>108.194305</ele>
        <time>2021-09-09T07:00:26.000Z</time>
      </trkpt>
      <trkpt lat="47.84721" lon="2.19895">
        <ele>108.314708</ele>
        <time>2021-09-09T07:00:35.000Z</time>
      </trkpt>
      <trkpt lat="47.84723" lon="2.19904">
        <ele>108.328172</ele>
        <time>2021-09-09T07:00:36.000Z</time>
      </trkpt>
      <trkpt lat="47.84743" lon="2.19988">
        <ele>108.44712</ele>
        <time>2021-09-09T07:00:45.000Z</time>
      </trkpt>
      <trkpt lat="47.84754" lon="2.20055">
        <ele>108.516124</ele>
        <time>2021-09-09T07:00:52.000Z</time>
      </trkpt>
      <trkpt lat="47.84755" lon="2.20114">
        <ele>108.536515</ele>
        <time>2021-09-09T07:00:58.000Z</time>
      </trkpt>
      <trkpt lat="47.8475" lon="2.20182">
        <ele>108.559959</ele>
        <time>2021-09-09T07:01:05.000Z</time>
      </trkpt>
      <trkpt lat="47.84744" lon="2.20269">
        <ele>108.590079</ele>
        <time>2021-09-09T07:01:14.000Z</time>
      </trkpt>
      <trkpt lat="47.84735" lon="2.20336">
        <ele>108.608039</ele>
        <time>2021-09-09T07:01:21.000Z</time>
      </trkpt>
      <trkpt lat="47.84722" lon="2.204">
        <ele>108.621639</ele>
        <time>2021-09-09T07:01:28.000Z</time>
      </trkpt>
      <trkpt lat="47.84711" lon="2.20445">
        <ele>108.631476</ele>
        <time>2021-09-09T07:01:33.000Z</time>
      </trkpt>
      <trkpt lat="47.84709" lon="2.20454">
        <ele>108.633479</ele>
        <time>2021-09-09T07:01:34.000Z</time>
      </trkpt>
      <trkpt lat="47.8469" lon="2.20527">
        <ele>108.649411</ele>
        <time>2021-09-09T07:01:42.000Z</time>
      </trkpt>
      <trkpt lat="47.84682" lon="2.20595">
        <ele>108.536288</ele>
        <time>2021-09-09T07:01:49.000Z</time>
      </trkpt>
      <trkpt lat="47.84673" lon="2.2066">
        <ele>108.350671</ele>
        <time>2021-09-09T07:01:56.000Z</time>
      </trkpt>
      <trkpt lat="47.84659" lon="2.20712">
        <ele>108.196622</ele>
        <time>2021-09-09T07:02:02.000Z</time>
      </trkpt>
      <trkpt lat="47.84649" lon="2.20734">
        <ele>108.123642</ele>
        <time>2021-09-09T07:02:05.000Z</time>
      </trkpt>
      <trkpt lat="47.8465" lon="2.20747">
        <ele>108.087532</ele>
        <time>2021-09-09T07:02:07.000Z</time>
      </trkpt>
      <trkpt lat="47.8466" lon="2.20753">
        <ele>108.043232</ele>
        <time>2021-09-09T07:02:09.000Z</time>
      </trkpt>
      <trkpt lat="47.84666" lon="2.20756">
        <ele>108.01669</ele>
        <time>2021-09-09T07:02:10.000Z</time>
      </trkpt>
      <trkpt lat="47.84702" lon="2.20773">
        <ele>107.852102</ele>
        <time>2021-09-09T07:02:15.000Z</time>
      </trkpt>
      <trkpt lat="47.84758" lon="2.20797">
        <ele>107.576526</ele>
        <time>2021-09-09T07:02:22.000Z</time>
      </trkpt>
      <trkpt lat="47.84781" lon="2.20807">
        <ele>107.46178</ele>
        <time>2021-09-09T07:02:25.000Z</time>
      </trkpt>
      <trkpt lat="47.84831" lon="2.20828">
        <ele>107.21511</ele>
        <time>2021-09-09T07:02:32.000Z</time>
      </trkpt>
      <trkpt lat="47.84886" lon="2.20855">
        <ele>107.013207</ele>
        <time>2021-09-09T07:02:40.000Z</time>
      </trkpt>
      <trkpt lat="47.84892" lon="2.20859">
        <ele>107.000742</ele>
        <time>2021-09-09T07:02:41.000Z</time>
      </trkpt>
      <trkpt lat="47.84899" lon="2.20865">
        <ele>106.988011</ele>
        <time>2021-09-09T07:02:42.000Z</time>
      </trkpt>
      <trkpt lat="47.84917" lon="2.20885">
        <ele>106.949319</ele>
        <time>2021-09-09T07:02:45.000Z</time>
      </trkpt>
      <trkpt lat="47.84961" lon="2.20948">
        <ele>106.844557</ele>
        <time>2021-09-09T07:02:53.000Z</time>
      </trkpt>
      <trkpt lat="47.84974" lon="2.20965">
        <ele>106.815008</ele>
        <time>2021-09-09T07:02:55.000Z</time>
      </trkpt>
      <trkpt lat="47.84988" lon="2.20983">
        <ele>106.784117</ele>
        <time>2021-09-09T07:02:57.000Z</time>
      </trkpt>
      <trkpt lat="47.85016" lon="2.21024">
        <ele>106.732006</ele>
        <time>2021-09-09T07:03:02.000Z</time>
      </trkpt>
      <trkpt lat="47.85052" lon="2.21085">
        <ele>106.689025</ele>
        <time>2021-09-09T07:03:10.000Z</time>
      </trkpt>
      <trkpt lat="47.85089" lon="2.21147">
        <ele>106.644564</ele>
        <time>2021-09-09T07:03:18.000Z</time>
      </trkpt>
      <trkpt lat="47.85094" lon="2.21155">
        <ele>106.638813</ele>
        <time>2021-09-09T07:03:19.000Z</time>
      </trkpt>
      <trkpt lat="47.85128" lon="2.2122">
        <ele>106.600183</ele>
        <time>2021-09-09T07:03:27.000Z</time>
      </trkpt>
      <trkpt lat="47.85137" lon="2.21236">
        <ele>106.596545</ele>
        <time>2021-09-09T07:03:29.000Z</time>
      </trkpt>
      <trkpt lat="47.85169" lon="2.21302">
        <ele>106.581758</ele>
        <time>2021-09-09T07:03:37.000Z</time>
      </trkpt>
      <trkpt lat="47.85195" lon="2.21361">
        <ele>106.569137</ele>
        <time>2021-09-09T07:03:44.000Z</time>
      </trkpt>
      <trkpt lat="47.85227" lon="2.21437">
        <ele>106.549082</ele>
        <time>2021-09-09T07:03:53.000Z</time>
      </trkpt>
      <trkpt lat="47.85255" lon="2.21513">
        <ele>106.499342</ele>
        <time>2021-09-09T07:04:01.000Z</time>
      </trkpt>
      <trkpt lat="47.85262" lon="2.21532">
        <ele>106.486895</ele>
        <time>2021-09-09T07:04:03.000Z</time>
      </trkpt>
      <trkpt lat="47.85285" lon="2.21607">
        <ele>106.439313</ele>
        <time>2021-09-09T07:04:11.000Z</time>
      </trkpt>
      <trkpt lat="47.85288" lon="2.21616">
        <ele>106.433589</ele>
        <time>2021-09-09T07:04:12.000Z</time>
      </trkpt>
      <trkpt lat="47.85315" lon="2.21682">
        <ele>106.413101</ele>
        <time>2021-09-09T07:04:20.000Z</time>
      </trkpt>
      <trkpt lat="47.85347" lon="2.21749">
        <ele>106.467117</ele>
        <time>2021-09-09T07:04:28.000Z</time>
      </trkpt>
      <trkpt lat="47.85368" lon="2.21788">
        <ele>106.500073</ele>
        <time>2021-09-09T07:04:33.000Z</time>
      </trkpt>
      <trkpt lat="47.8538" lon="2.21809">
        <ele>106.517938</ele>
        <time>2021-09-09T07:04:36.000Z</time>
      </trkpt>
      <trkpt lat="47.85384" lon="2.21816">
        <ele>106.523848</ele>
        <time>2021-09-09T07:04:37.000Z</time>
      </trkpt>
      <trkpt lat="47.85388" lon="2.21823">
        <ele>106.529865</ele>
        <time>2021-09-09T07:04:38.000Z</time>
      </trkpt>
      <trkpt lat="47.85406" lon="2.2185">
        <ele>106.555224</ele>
        <time>2021-09-09T07:04:42.000Z</time>
      </trkpt>
      <trkpt lat="47.85443" lon="2.21915">
        <ele>106.581107</ele>
        <time>2021-09-09T07:04:51.000Z</time>
      </trkpt>
      <trkpt lat="47.8547" lon="2.21974">
        <ele>106.587381</ele>
        <time>2021-09-09T07:04:58.000Z</time>
      </trkpt>
      <trkpt lat="47.85481" lon="2.21999">
        <ele>106.590055</ele>
        <time>2021-09-09T07:05:01.000Z</time>
      </trkpt>
      <trkpt lat="47.85488" lon="2.22017">
        <ele>106.591846</ele>
        <time>2021-09-09T07:05:03.000Z</time>
      </trkpt>
      <trkpt lat="47.85513" lon="2.22076">
        <ele>106.598001</ele>
        <time>2021-09-09T07:05:10.000Z</time>
      </trkpt>
      <trkpt lat="47.85535" lon="2.22124">
        <ele>106.624418</ele>
        <time>2021-09-09T07:05:16.000Z</time>
      </trkpt>
      <trkpt lat="47.85566" lon="2.22183">
        <ele>106.676426</ele>
        <time>2021-09-09T07:05:24.000Z</time>
      </trkpt>
      <trkpt lat="47.85596" lon="2.22246">
        <ele>106.729926</ele>
        <time>2021-09-09T07:05:32.000Z</time>
      </trkpt>
      <trkpt lat="47.8561" lon="2.22298">
        <ele>106.769326</ele>
        <time>2021-09-09T07:05:38.000Z</time>
      </trkpt>
      <trkpt lat="47.85617" lon="2.22344">
        <ele>106.906336</ele>
        <time>2021-09-09T07:05:44.000Z</time>
      </trkpt>
      <trkpt lat="47.8562" lon="2.2236">
        <ele>106.990171</ele>
        <time>2021-09-09T07:05:48.000Z</time>
      </trkpt>
      <trkpt lat="47.85627" lon="2.22364">
        <ele>107.049344</ele>
        <time>2021-09-09T07:05:50.000Z</time>
      </trkpt>
      <trkpt lat="47.85631" lon="2.22364">
        <ele>107.084538</ele>
        <time>2021-09-09T07:05:51.000Z</time>
      </trkpt>
      <trkpt lat="47.85659" lon="2.22361">
        <ele>107.304808</ele>
        <time>2021-09-09T07:05:57.000Z</time>
      </trkpt>
      <trkpt lat="47.85669" lon="2.22359">
        <ele>107.382738</ele>
        <time>2021-09-09T07:05:59.000Z</time>
      </trkpt>
      <trkpt lat="47.8569" lon="2.22358">
        <ele>107.545586</ele>
        <time>2021-09-09T07:06:03.000Z</time>
      </trkpt>
      <trkpt lat="47.85733" lon="2.22354">
        <ele>107.880974</ele>
        <time>2021-09-09T07:06:11.000Z</time>
      </trkpt>
      <trkpt lat="47.85763" lon="2.2235">
        <ele>108.116334</ele>
        <time>2021-09-09T07:06:17.000Z</time>
      </trkpt>
      <trkpt lat="47.85807" lon="2.22346">
        <ele>108.501651</ele>
        <time>2021-09-09T07:06:25.000Z</time>
      </trkpt>
      <trkpt lat="47.85859" lon="2.2234">
        <ele>108.96861</ele>
        <time>2021-09-09T07:06:34.000Z</time>
      </trkpt>
      <trkpt lat="47.8591" lon="2.22335">
        <ele>109.423524</ele>
        <time>2021-09-09T07:06:42.000Z</time>
      </trkpt>
      <trkpt lat="47.85955" lon="2.2233">
        <ele>109.819414</ele>
        <time>2021-09-09T07:06:49.000Z</time>
      </trkpt>
      <trkpt lat="47.85987" lon="2.22326">
        <ele>109.972086</ele>
        <time>2021-09-09T07:06:54.000Z</time>
      </trkpt>
      <trkpt lat="47.85993" lon="2.22328">
        <ele>110.00063</ele>
        <time>2021-09-09T07:06:55.000Z</time>
      </trkpt>
      <trkpt lat="47.85997" lon="2.22335">
        <ele>110.028887</ele>
        <time>2021-09-09T07:06:56.000Z</time>
      </trkpt>
      <trkpt lat="47.85999" lon="2.22343">
        <ele>110.056429</ele>
        <time>2021-09-09T07:06:57.000Z</time>
      </trkpt>
      <trkpt lat="47.85998" lon="2.22352">
        <ele>110.085694</ele>
        <time>2021-09-09T07:06:58.000Z</time>
      </trkpt>
      <trkpt lat="47.85994" lon="2.22372">
        <ele>110.149062</ele>
        <time>2021-09-09T07:07:00.000Z</time>
      </trkpt>
      <trkpt lat="47.85994" lon="2.22382">
        <ele>110.182317</ele>
        <time>2021-09-09T07:07:01.000Z</time>
      </trkpt>
      <trkpt lat="47.85994" lon="2.22433">
        <ele>110.345534</ele>
        <time>2021-09-09T07:07:06.000Z</time>
      </trkpt>
      <trkpt lat="47.85996" lon="2.22505">
        <ele>110.574151</ele>
        <time>2021-09-09T07:07:13.000Z</time>
      </trkpt>
      <trkpt lat="47.85996" lon="2.22549">
        <ele>110.529081</ele>
        <time>2021-09-09T07:07:18.000Z</time>
      </trkpt>
      <trkpt lat="47.85996" lon="2.22555">
        <ele>110.491707</ele>
        <time>2021-09-09T07:07:19.000Z</time>
      </trkpt>
      <trkpt lat="47.85997" lon="2.22569">
        <ele>110.397004</ele>
        <time>2021-09-09T07:07:23.000Z</time>
      </trkpt>
      <trkpt lat="47.85996" lon="2.2259">
        <ele>110.248139</ele>
        <time>2021-09-09T07:07:30.000Z</time>
      </trkpt>
      <trkpt lat="47.85995" lon="2.22609">
        <ele>110.1196</ele>
        <time>2021-09-09T07:07:37.000Z</time>
      </trkpt>
      <trkpt lat="47.85994" lon="2.22626">
        <ele>110.00055</ele>
        <time>2021-09-09T07:07:43.000Z</time>
      </trkpt>
      <trkpt lat="47.85992" lon="2.22641">
        <ele>109.900396</ele>
        <time>2021-09-09T07:07:49.000Z</time>
      </trkpt>
      <trkpt lat="47.8599" lon="2.22654">
        <ele>109.804683</ele>
        <time>2021-09-09T07:07:55.000Z</time>
      </trkpt>
      <trkpt lat="47.85988" lon="2.22668">
        <ele>109.70944</ele>
        <time>2021-09-09T07:07:58.000Z</time>
      </trkpt>
      <trkpt lat="47.85986" lon="2.22696">
        <ele>109.517171</ele>
        <time>2021-09-09T07:08:02.000Z</time>
      </trkpt>
      <trkpt lat="47.85986" lon="2.22715">
        <ele>109.382543</ele>
        <time>2021-09-09T07:08:05.000Z</time>
      </trkpt>
      <trkpt lat="47.85985" lon="2.22723">
        <ele>109.326549</ele>
        <time>2021-09-09T07:08:06.000Z</time>
      </trkpt>
      <trkpt lat="47.85984" lon="2.22732">
        <ele>109.266761</ele>
        <time>2021-09-09T07:08:07.000Z</time>
      </trkpt>
      <trkpt lat="47.85983" lon="2.22751">
        <ele>109.13806</ele>
        <time>2021-09-09T07:08:09.000Z</time>
      </trkpt>
      <trkpt lat="47.85981" lon="2.22779">
        <ele>108.941698</ele>
        <time>2021-09-09T07:08:12.000Z</time>
      </trkpt>
      <trkpt lat="47.85981" lon="2.22788">
        <ele>108.881344</ele>
        <time>2021-09-09T07:08:13.000Z</time>
      </trkpt>
      <trkpt lat="47.85976" lon="2.22839">
        <ele>107.856582</ele>
        <time>2021-09-09T07:08:19.000Z</time>
      </trkpt>
      <trkpt lat="47.85974" lon="2.22851">
        <ele>107.583312</ele>
        <time>2021-09-09T07:08:21.000Z</time>
      </trkpt>
      <trkpt lat="47.85974" lon="2.22868">
        <ele>107.191012</ele>
        <time>2021-09-09T07:08:23.000Z</time>
      </trkpt>
      <trkpt lat="47.85974" lon="2.22877">
        <ele>106.983239</ele>
        <time>2021-09-09T07:08:24.000Z</time>
      </trkpt>
      <trkpt lat="47.85971" lon="2.22896">
        <ele>106.55288</ele>
        <time>2021-09-09T07:08:26.000Z</time>
      </trkpt>
      <trkpt lat="47.8597" lon="2.22905">
        <ele>106.337748</ele>
        <time>2021-09-09T07:08:27.000Z</time>
      </trkpt>
      <trkpt lat="47.85968" lon="2.22913">
        <ele>106.138827</ele>
        <time>2021-09-09T07:08:28.000Z</time>
      </trkpt>
      <trkpt lat="47.85965" lon="2.22931">
        <ele>105.713869</ele>
        <time>2021-09-09T07:08:30.000Z</time>
      </trkpt>
      <trkpt lat="47.85963" lon="2.2294">
        <ele>105.503182</ele>
        <time>2021-09-09T07:08:31.000Z</time>
      </trkpt>
      <trkpt lat="47.8596" lon="2.22957">
        <ele>105.101438</ele>
        <time>2021-09-09T07:08:33.000Z</time>
      </trkpt>
      <trkpt lat="47.85954" lon="2.22992">
        <ele>104.269759</ele>
        <time>2021-09-09T07:08:37.000Z</time>
      </trkpt>
      <trkpt lat="47.8595" lon="2.23006">
        <ele>103.926911</ele>
        <time>2021-09-09T07:08:39.000Z</time>
      </trkpt>
      <trkpt lat="47.85948" lon="2.23022">
        <ele>103.549268</ele>
        <time>2021-09-09T07:08:41.000Z</time>
      </trkpt>
      <trkpt lat="47.85946" lon="2.23041">
        <ele>103.109881</ele>
        <time>2021-09-09T07:08:43.000Z</time>
      </trkpt>
      <trkpt lat="47.85943" lon="2.23056">
        <ele>102.766713</ele>
        <time>2021-09-09T07:08:45.000Z</time>
      </trkpt>
      <trkpt lat="47.85932" lon="2.23108">
        <ele>101.255942</ele>
        <time>2021-09-09T07:08:51.000Z</time>
      </trkpt>
      <trkpt lat="47.85925" lon="2.2314">
        <ele>100.339356</ele>
        <time>2021-09-09T07:08:55.000Z</time>
      </trkpt>
      <trkpt lat="47.85923" lon="2.23151">
        <ele>100.022749</ele>
        <time>2021-09-09T07:08:56.000Z</time>
      </trkpt>
      <trkpt lat="47.85917" lon="2.23183">
        <ele>99.081424</ele>
        <time>2021-09-09T07:08:59.000Z</time>
      </trkpt>
      <trkpt lat="47.8591" lon="2.23223">
        <ele>97.932977</ele>
        <time>2021-09-09T07:09:03.000Z</time>
      </trkpt>
      <trkpt lat="47.85904" lon="2.23257">
        <ele>96.962735</ele>
        <time>2021-09-09T07:09:07.000Z</time>
      </trkpt>
      <trkpt lat="47.85894" lon="2.23292">
        <ele>95.89117</ele>
        <time>2021-09-09T07:09:12.000Z</time>
      </trkpt>
      <trkpt lat="47.85889" lon="2.23318">
        <ele>95.179362</ele>
        <time>2021-09-09T07:09:16.000Z</time>
      </trkpt>
      <trkpt lat="47.85884" lon="2.23358">
        <ele>94.358919</ele>
        <time>2021-09-09T07:09:21.000Z</time>
      </trkpt>
      <trkpt lat="47.85877" lon="2.23394">
        <ele>93.614376</ele>
        <time>2021-09-09T07:09:25.000Z</time>
      </trkpt>
      <trkpt lat="47.85869" lon="2.23437">
        <ele>92.716505</ele>
        <time>2021-09-09T07:09:30.000Z</time>
      </trkpt>
      <trkpt lat="47.85861" lon="2.23478">
        <ele>91.856776</ele>
        <time>2021-09-09T07:09:34.000Z</time>
      </trkpt>
      <trkpt lat="47.85856" lon="2.2351">
        <ele>91.193437</ele>
        <time>2021-09-09T07:09:38.000Z</time>
      </trkpt>
      <trkpt lat="47.85849" lon="2.23552">
        <ele>90.33859</ele>
        <time>2021-09-09T07:09:43.000Z</time>
      </trkpt>
      <trkpt lat="47.85843" lon="2.23579">
        <ele>89.944702</ele>
        <time>2021-09-09T07:09:47.000Z</time>
      </trkpt>
      <trkpt lat="47.85839" lon="2.23614">
        <ele>90.357584</ele>
        <time>2021-09-09T07:09:51.000Z</time>
      </trkpt>
      <trkpt lat="47.85829" lon="2.23641">
        <ele>90.711605</ele>
        <time>2021-09-09T07:09:55.000Z</time>
      </trkpt>
      <trkpt lat="47.85826" lon="2.2365">
        <ele>90.819138</ele>
        <time>2021-09-09T07:09:56.000Z</time>
      </trkpt>
      <trkpt lat="47.85823" lon="2.23666">
        <ele>91.018144</ele>
        <time>2021-09-09T07:09:58.000Z</time>
      </trkpt>
      <trkpt lat="47.85812" lon="2.23697">
        <ele>91.40798</ele>
        <time>2021-09-09T07:10:03.000Z</time>
      </trkpt>
      <trkpt lat="47.85801" lon="2.23741">
        <ele>91.950554</ele>
        <time>2021-09-09T07:10:08.000Z</time>
      </trkpt>
      <trkpt lat="47.85788" lon="2.23787">
        <ele>92.525975</ele>
        <time>2021-09-09T07:10:14.000Z</time>
      </trkpt>
      <trkpt lat="47.85783" lon="2.23807">
        <ele>92.771761</ele>
        <time>2021-09-09T07:10:19.000Z</time>
      </trkpt>
      <trkpt lat="47.85778" lon="2.2383">
        <ele>93.069657</ele>
        <time>2021-09-09T07:10:23.000Z</time>
      </trkpt>
      <trkpt lat="47.85777" lon="2.23847">
        <ele>93.305314</ele>
        <time>2021-09-09T07:10:25.000Z</time>
      </trkpt>
      <trkpt lat="47.85774" lon="2.23873">
        <ele>93.678896</ele>
        <time>2021-09-09T07:10:28.000Z</time>
      </trkpt>
      <trkpt lat="47.85776" lon="2.23909">
        <ele>94.1943</ele>
        <time>2021-09-09T07:10:32.000Z</time>
      </trkpt>
      <trkpt lat="47.85777" lon="2.23918">
        <ele>94.319684</ele>
        <time>2021-09-09T07:10:33.000Z</time>
      </trkpt>
      <trkpt lat="47.8578" lon="2.23945">
        <ele>94.701509</ele>
        <time>2021-09-09T07:10:36.000Z</time>
      </trkpt>
      <trkpt lat="47.85781" lon="2.23952">
        <ele>94.814</ele>
        <time>2021-09-09T07:10:37.000Z</time>
      </trkpt>
      <trkpt lat="47.85781" lon="2.23975">
        <ele>95.127569</ele>
        <time>2021-09-09T07:10:40.000Z</time>
      </trkpt>
      <trkpt lat="47.85778" lon="2.23988">
        <ele>95.326331</ele>
        <time>2021-09-09T07:10:42.000Z</time>
      </trkpt>
      <trkpt lat="47.85771" lon="2.24009">
        <ele>95.668137</ele>
        <time>2021-09-09T07:10:45.000Z</time>
      </trkpt>
      <trkpt lat="47.85769" lon="2.24017">
        <ele>95.778672</ele>
        <time>2021-09-09T07:10:46.000Z</time>
      </trkpt>
      <trkpt lat="47.85767" lon="2.24024">
        <ele>95.889073</ele>
        <time>2021-09-09T07:10:47.000Z</time>
      </trkpt>
      <trkpt lat="47.8576" lon="2.24041">
        <ele>96.173183</ele>
        <time>2021-09-09T07:10:50.000Z</time>
      </trkpt>
      <trkpt lat="47.85748" lon="2.24042">
        <ele>96.428149</ele>
        <time>2021-09-09T07:10:53.000Z</time>
      </trkpt>
      <trkpt lat="47.85733" lon="2.24044">
        <ele>96.736889</ele>
        <time>2021-09-09T07:10:57.000Z</time>
      </trkpt>
      <trkpt lat="47.85729" lon="2.24054">
        <ele>96.864384</ele>
        <time>2021-09-09T07:10:59.000Z</time>
      </trkpt>
      <trkpt lat="47.85727" lon="2.24061">
        <ele>96.942547</ele>
        <time>2021-09-09T07:11:00.000Z</time>
      </trkpt>
      <trkpt lat="47.8572" lon="2.24094">
        <ele>97.334598</ele>
        <time>2021-09-09T07:11:04.000Z</time>
      </trkpt>
      <trkpt lat="47.85714" lon="2.24119">
        <ele>97.619187</ele>
        <time>2021-09-09T07:11:07.000Z</time>
      </trkpt>
      <trkpt lat="47.85711" lon="2.24124">
        <ele>97.695851</ele>
        <time>2021-09-09T07:11:08.000Z</time>
      </trkpt>
      <trkpt lat="47.85708" lon="2.24126">
        <ele>97.755385</ele>
        <time>2021-09-09T07:11:09.000Z</time>
      </trkpt>
      <trkpt lat="47.85702" lon="2.24126">
        <ele>97.850956</ele>
        <time>2021-09-09T07:11:11.000Z</time>
      </trkpt>
      <trkpt lat="47.85696" lon="2.24127">
        <ele>97.956784</ele>
        <time>2021-09-09T07:11:13.000Z</time>
      </trkpt>
      <trkpt lat="47.85687" lon="2.24133">
        <ele>98.109799</ele>
        <time>2021-09-09T07:11:15.000Z</time>
      </trkpt>
      <trkpt lat="47.85659" lon="2.24165">
        <ele>98.697775</ele>
        <time>2021-09-09T07:11:21.000Z</time>
      </trkpt>
      <trkpt lat="47.85613" lon="2.24209">
        <ele>99.587731</ele>
        <time>2021-09-09T07:11:29.000Z</time>
      </trkpt>
      <trkpt lat="47.85564" lon="2.24259">
        <ele>100.154251</ele>
        <time>2021-09-09T07:11:38.000Z</time>
      </trkpt>
      <trkpt lat="47.8552" lon="2.243">
        <ele>100.593098</ele>
        <time>2021-09-09T07:11:46.000Z</time>
      </trkpt>
      <trkpt lat="47.85476" lon="2.24338">
        <ele>101.020095</ele>
        <time>2021-09-09T07:11:54.000Z</time>
      </trkpt>
      <trkpt lat="47.85448" lon="2.24357">
        <ele>101.28995</ele>
        <time>2021-09-09T07:11:59.000Z</time>
      </trkpt>
      <trkpt lat="47.85421" lon="2.24376">
        <ele>101.566107</ele>
        <time>2021-09-09T07:12:04.000Z</time>
      </trkpt>
      <trkpt lat="47.85394" lon="2.24394">
        <ele>101.836387</ele>
        <time>2021-09-09T07:12:09.000Z</time>
      </trkpt>
      <trkpt lat="47.85389" lon="2.24398">
        <ele>101.885889</ele>
        <time>2021-09-09T07:12:10.000Z</time>
      </trkpt>
      <trkpt lat="47.85379" lon="2.24406">
        <ele>101.995607</ele>
        <time>2021-09-09T07:12:12.000Z</time>
      </trkpt>
      <trkpt lat="47.85368" lon="2.24413">
        <ele>102.107014</ele>
        <time>2021-09-09T07:12:14.000Z</time>
      </trkpt>
      <trkpt lat="47.85357" lon="2.2442">
        <ele>102.214016</ele>
        <time>2021-09-09T07:12:16.000Z</time>
      </trkpt>
      <trkpt lat="47.85345" lon="2.24428">
        <ele>102.335717</ele>
        <time>2021-09-09T07:12:18.000Z</time>
      </trkpt>
      <trkpt lat="47.85303" lon="2.2446">
        <ele>102.77238</ele>
        <time>2021-09-09T07:12:25.000Z</time>
      </trkpt>
      <trkpt lat="47.85259" lon="2.24484">
        <ele>103.106497</ele>
        <time>2021-09-09T07:12:32.000Z</time>
      </trkpt>
      <trkpt lat="47.85236" lon="2.245">
        <ele>103.273927</ele>
        <time>2021-09-09T07:12:36.000Z</time>
      </trkpt>
      <trkpt lat="47.85218" lon="2.24511">
        <ele>103.398335</ele>
        <time>2021-09-09T07:12:39.000Z</time>
      </trkpt>
      <trkpt lat="47.85176" lon="2.24532">
        <ele>103.681279</ele>
        <time>2021-09-09T07:12:46.000Z</time>
      </trkpt>
      <trkpt lat="47.85154" lon="2.24543">
        <ele>103.826568</ele>
        <time>2021-09-09T07:12:50.000Z</time>
      </trkpt>
      <trkpt lat="47.85143" lon="2.24545">
        <ele>103.902257</ele>
        <time>2021-09-09T07:12:52.000Z</time>
      </trkpt>
      <trkpt lat="47.85106" lon="2.24552">
        <ele>104.094527</ele>
        <time>2021-09-09T07:12:58.000Z</time>
      </trkpt>
      <trkpt lat="47.85082" lon="2.24562">
        <ele>104.177793</ele>
        <time>2021-09-09T07:13:02.000Z</time>
      </trkpt>
      <trkpt lat="47.85077" lon="2.24565">
        <ele>104.19815</ele>
        <time>2021-09-09T07:13:03.000Z</time>
      </trkpt>
      <trkpt lat="47.8506" lon="2.2458">
        <ele>104.263135</ele>
        <time>2021-09-09T07:13:07.000Z</time>
      </trkpt>
      <trkpt lat="47.85045" lon="2.24594">
        <ele>104.323087</ele>
        <time>2021-09-09T07:13:12.000Z</time>
      </trkpt>
      <trkpt lat="47.85038" lon="2.24586">
        <ele>104.352502</ele>
        <time>2021-09-09T07:13:14.000Z</time>
      </trkpt>
      <trkpt lat="47.85035" lon="2.24581">
        <ele>104.369533</ele>
        <time>2021-09-09T07:13:15.000Z</time>
      </trkpt>
      <trkpt lat="47.8503" lon="2.24577">
        <ele>104.387446</ele>
        <time>2021-09-09T07:13:16.000Z</time>
      </trkpt>
      <trkpt lat="47.85014" lon="2.24566">
        <ele>104.447296</ele>
        <time>2021-09-09T07:13:19.000Z</time>
      </trkpt>
      <trkpt lat="47.85002" lon="2.24562">
        <ele>104.489294</ele>
        <time>2021-09-09T07:13:21.000Z</time>
      </trkpt>
      <trkpt lat="47.84983" lon="2.2456">
        <ele>104.555101</ele>
        <time>2021-09-09T07:13:24.000Z</time>
      </trkpt>
      <trkpt lat="47.84963" lon="2.24558">
        <ele>104.620432</ele>
        <time>2021-09-09T07:13:27.000Z</time>
      </trkpt>
      <trkpt lat="47.8495" lon="2.24559">
        <ele>104.635917</ele>
        <time>2021-09-09T07:13:29.000Z</time>
      </trkpt>
      <trkpt lat="47.84931" lon="2.24563">
        <ele>104.540653</ele>
        <time>2021-09-09T07:13:32.000Z</time>
      </trkpt>
      <trkpt lat="47.84918" lon="2.24565">
        <ele>104.475147</ele>
        <time>2021-09-09T07:13:34.000Z</time>
      </trkpt>
      <trkpt lat="47.84863" lon="2.24567">
        <ele>104.205579</ele>
        <time>2021-09-09T07:13:42.000Z</time>
      </trkpt>
      <trkpt lat="47.84828" lon="2.24564">
        <ele>104.036044</ele>
        <time>2021-09-09T07:13:47.000Z</time>
      </trkpt>
      <trkpt lat="47.84795" lon="2.24558">
        <ele>103.870805</ele>
        <time>2021-09-09T07:13:52.000Z</time>
      </trkpt>
      <trkpt lat="47.84757" lon="2.24553">
        <ele>103.781922</ele>
        <time>2021-09-09T07:13:58.000Z</time>
      </trkpt>
      <trkpt lat="47.84727" lon="2.2455">
        <ele>103.804061</ele>
        <time>2021-09-09T07:14:03.000Z</time>
      </trkpt>
      <trkpt lat="47.84716" lon="2.24551">
        <ele>103.812071</ele>
        <time>2021-09-09T07:14:05.000Z</time>
      </trkpt>
      <trkpt lat="47.84705" lon="2.24556">
        <ele>103.82017</ele>
        <time>2021-09-09T07:14:07.000Z</time>
      </trkpt>
      <trkpt lat="47.84701" lon="2.24559">
        <ele>103.82392</ele>
        <time>2021-09-09T07:14:08.000Z</time>
      </trkpt>
      <trkpt lat="47.84691" lon="2.24564">
        <ele>103.831224</ele>
        <time>2021-09-09T07:14:10.000Z</time>
      </trkpt>
      <trkpt lat="47.84681" lon="2.24568">
        <ele>103.839115</ele>
        <time>2021-09-09T07:14:12.000Z</time>
      </trkpt>
      <trkpt lat="47.84665" lon="2.24573">
        <ele>103.851087</ele>
        <time>2021-09-09T07:14:15.000Z</time>
      </trkpt>
      <trkpt lat="47.84659" lon="2.24572">
        <ele>103.855278</ele>
        <time>2021-09-09T07:14:17.000Z</time>
      </trkpt>
      <trkpt lat="47.84629" lon="2.24567">
        <ele>103.877608</ele>
        <time>2021-09-09T07:14:22.000Z</time>
      </trkpt>
      <trkpt lat="47.846" lon="2.24573">
        <ele>103.899257</ele>
        <time>2021-09-09T07:14:27.000Z</time>
      </trkpt>
      <trkpt lat="47.84561" lon="2.2458">
        <ele>104.332132</ele>
        <time>2021-09-09T07:14:33.000Z</time>
      </trkpt>
      <trkpt lat="47.84531" lon="2.24596">
        <ele>104.708563</ele>
        <time>2021-09-09T07:14:38.000Z</time>
      </trkpt>
      <trkpt lat="47.84515" lon="2.2461">
        <ele>104.930746</ele>
        <time>2021-09-09T07:14:41.000Z</time>
      </trkpt>
      <trkpt lat="47.84499" lon="2.24624">
        <ele>105.147854</ele>
        <time>2021-09-09T07:14:44.000Z</time>
      </trkpt>
      <trkpt lat="47.84494" lon="2.24629">
        <ele>105.219734</ele>
        <time>2021-09-09T07:14:45.000Z</time>
      </trkpt>
      <trkpt lat="47.84474" lon="2.24651">
        <ele>105.504282</ele>
        <time>2021-09-09T07:14:49.000Z</time>
      </trkpt>
      <trkpt lat="47.84438" lon="2.24687">
        <ele>106.0192</ele>
        <time>2021-09-09T07:14:56.000Z</time>
      </trkpt>
      <trkpt lat="47.84405" lon="2.24708">
        <ele>106.87338</ele>
        <time>2021-09-09T07:15:02.000Z</time>
      </trkpt>
      <trkpt lat="47.84393" lon="2.24712">
        <ele>107.167065</ele>
        <time>2021-09-09T07:15:04.000Z</time>
      </trkpt>
      <trkpt lat="47.84375" lon="2.24718">
        <ele>107.593001</ele>
        <time>2021-09-09T07:15:07.000Z</time>
      </trkpt>
      <trkpt lat="47.84344" lon="2.24743">
        <ele>108.428018</ele>
        <time>2021-09-09T07:15:13.000Z</time>
      </trkpt>
      <trkpt lat="47.8433" lon="2.24758">
        <ele>108.845799</ele>
        <time>2021-09-09T07:15:16.000Z</time>
      </trkpt>
      <trkpt lat="47.84319" lon="2.2477">
        <ele>109.157215</ele>
        <time>2021-09-09T07:15:18.000Z</time>
      </trkpt>
      <trkpt lat="47.84304" lon="2.24789">
        <ele>109.626579</ele>
        <time>2021-09-09T07:15:21.000Z</time>
      </trkpt>
      <trkpt lat="47.84296" lon="2.24803">
        <ele>109.926887</ele>
        <time>2021-09-09T07:15:23.000Z</time>
      </trkpt>
      <trkpt lat="47.84287" lon="2.24819">
        <ele>110.254543</ele>
        <time>2021-09-09T07:15:25.000Z</time>
      </trkpt>
      <trkpt lat="47.84275" lon="2.24846">
        <ele>110.571294</ele>
        <time>2021-09-09T07:15:28.000Z</time>
      </trkpt>
      <trkpt lat="47.84242" lon="2.24908">
        <ele>111.33346</ele>
        <time>2021-09-09T07:15:36.000Z</time>
      </trkpt>
      <trkpt lat="47.84198" lon="2.24966">
        <ele>112.17429</ele>
        <time>2021-09-09T07:15:45.000Z</time>
      </trkpt>
      <trkpt lat="47.84164" lon="2.25011">
        <ele>112.81074</ele>
        <time>2021-09-09T07:15:52.000Z</time>
      </trkpt>
      <trkpt lat="47.8414" lon="2.25063">
        <ele>113.00703</ele>
        <time>2021-09-09T07:15:59.000Z</time>
      </trkpt>
      <trkpt lat="47.84118" lon="2.25109">
        <ele>113.162262</ele>
        <time>2021-09-09T07:16:05.000Z</time>
      </trkpt>
      <trkpt lat="47.84096" lon="2.25143">
        <ele>113.29524</ele>
        <time>2021-09-09T07:16:10.000Z</time>
      </trkpt>
      <trkpt lat="47.84069" lon="2.25193">
        <ele>113.471378</ele>
        <time>2021-09-09T07:16:17.000Z</time>
      </trkpt>
      <trkpt lat="47.84049" lon="2.25235">
        <ele>113.53878</ele>
        <time>2021-09-09T07:16:23.000Z</time>
      </trkpt>
      <trkpt lat="47.84023" lon="2.25273">
        <ele>113.35902</ele>
        <time>2021-09-09T07:16:29.000Z</time>
      </trkpt>
      <trkpt lat="47.83988" lon="2.25311">
        <ele>113.14144</ele>
        <time>2021-09-09T07:16:36.000Z</time>
      </trkpt>
      <trkpt lat="47.83963" lon="2.25341">
        <ele>112.984185</ele>
        <time>2021-09-09T07:16:41.000Z</time>
      </trkpt>
      <trkpt lat="47.83959" lon="2.25348">
        <ele>112.95258</ele>
        <time>2021-09-09T07:16:42.000Z</time>
      </trkpt>
      <trkpt lat="47.83934" lon="2.25387">
        <ele>112.772441</ele>
        <time>2021-09-09T07:16:48.000Z</time>
      </trkpt>
      <trkpt lat="47.83899" lon="2.25451">
        <ele>112.611035</ele>
        <time>2021-09-09T07:16:57.000Z</time>
      </trkpt>
      <trkpt lat="47.83866" lon="2.25517">
        <ele>112.502804</ele>
        <time>2021-09-09T07:17:06.000Z</time>
      </trkpt>
      <trkpt lat="47.83834" lon="2.25584">
        <ele>112.395093</ele>
        <time>2021-09-09T07:17:15.000Z</time>
      </trkpt>
      <trkpt lat="47.83813" lon="2.25628">
        <ele>112.325681</ele>
        <time>2021-09-09T07:17:21.000Z</time>
      </trkpt>
      <trkpt lat="47.83792" lon="2.25673">
        <ele>112.266945</ele>
        <time>2021-09-09T07:17:27.000Z</time>
      </trkpt>
      <trkpt lat="47.83788" lon="2.2568">
        <ele>112.257196</ele>
        <time>2021-09-09T07:17:28.000Z</time>
      </trkpt>
      <trkpt lat="47.83767" lon="2.25727">
        <ele>112.196605</ele>
        <time>2021-09-09T07:17:34.000Z</time>
      </trkpt>
      <trkpt lat="47.8374" lon="2.25791">
        <ele>112.116041</ele>
        <time>2021-09-09T07:17:42.000Z</time>
      </trkpt>
      <trkpt lat="47.83737" lon="2.25798">
        <ele>112.106165</ele>
        <time>2021-09-09T07:17:43.000Z</time>
      </trkpt>
      <trkpt lat="47.83728" lon="2.25811">
        <ele>112.085952</ele>
        <time>2021-09-09T07:17:45.000Z</time>
      </trkpt>
      <trkpt lat="47.83722" lon="2.25816">
        <ele>112.075446</ele>
        <time>2021-09-09T07:17:46.000Z</time>
      </trkpt>
      <trkpt lat="47.83672" lon="2.25859">
        <ele>111.928968</ele>
        <time>2021-09-09T07:17:55.000Z</time>
      </trkpt>
      <trkpt lat="47.83628" lon="2.25892">
        <ele>111.780606</ele>
        <time>2021-09-09T07:18:03.000Z</time>
      </trkpt>
      <trkpt lat="47.83591" lon="2.2592">
        <ele>111.655118</ele>
        <time>2021-09-09T07:18:10.000Z</time>
      </trkpt>
      <trkpt lat="47.83554" lon="2.2595">
        <ele>111.52876</ele>
        <time>2021-09-09T07:18:17.000Z</time>
      </trkpt>
      <trkpt lat="47.8351" lon="2.25995">
        <ele>111.493565</ele>
        <time>2021-09-09T07:18:26.000Z</time>
      </trkpt>
      <trkpt lat="47.83501" lon="2.26006">
        <ele>111.490524</ele>
        <time>2021-09-09T07:18:28.000Z</time>
      </trkpt>
      <trkpt lat="47.83491" lon="2.26027">
        <ele>111.486074</ele>
        <time>2021-09-09T07:18:31.000Z</time>
      </trkpt>
      <trkpt lat="47.8348" lon="2.26057">
        <ele>111.480005</ele>
        <time>2021-09-09T07:18:35.000Z</time>
      </trkpt>
      <trkpt lat="47.8347" lon="2.26087">
        <ele>111.474285</ele>
        <time>2021-09-09T07:18:38.000Z</time>
      </trkpt>
      <trkpt lat="47.83465" lon="2.26095">
        <ele>111.472448</ele>
        <time>2021-09-09T07:18:39.000Z</time>
      </trkpt>
      <trkpt lat="47.8346" lon="2.26101">
        <ele>111.470624</ele>
        <time>2021-09-09T07:18:40.000Z</time>
      </trkpt>
      <trkpt lat="47.83442" lon="2.26117">
        <ele>111.46521</ele>
        <time>2021-09-09T07:18:43.000Z</time>
      </trkpt>
      <trkpt lat="47.83412" lon="2.26135">
        <ele>111.460201</ele>
        <time>2021-09-09T07:18:48.000Z</time>
      </trkpt>
      <trkpt lat="47.83372" lon="2.26157">
        <ele>111.468878</ele>
        <time>2021-09-09T07:18:55.000Z</time>
      </trkpt>
      <trkpt lat="47.83326" lon="2.26188">
        <ele>111.479185</ele>
        <time>2021-09-09T07:19:03.000Z</time>
      </trkpt>
      <trkpt lat="47.83278" lon="2.2623">
        <ele>111.490632</ele>
        <time>2021-09-09T07:19:12.000Z</time>
      </trkpt>
      <trkpt lat="47.83235" lon="2.26264">
        <ele>111.452141</ele>
        <time>2021-09-09T07:19:20.000Z</time>
      </trkpt>
      <trkpt lat="47.83189" lon="2.26291">
        <ele>111.364888</ele>
        <time>2021-09-09T07:19:28.000Z</time>
      </trkpt>
      <trkpt lat="47.83144" lon="2.2632">
        <ele>111.277596</ele>
        <time>2021-09-09T07:19:36.000Z</time>
      </trkpt>
      <trkpt lat="47.83105" lon="2.2635">
        <ele>111.198521</ele>
        <time>2021-09-09T07:19:43.000Z</time>
      </trkpt>
      <trkpt lat="47.83077" lon="2.26358">
        <ele>111.198853</ele>
        <time>2021-09-09T07:19:48.000Z</time>
      </trkpt>
      <trkpt lat="47.83067" lon="2.26368">
        <ele>111.215664</ele>
        <time>2021-09-09T07:19:51.000Z</time>
      </trkpt>
      <trkpt lat="47.83066" lon="2.26372">
        <ele>111.22057</ele>
        <time>2021-09-09T07:19:52.000Z</time>
      </trkpt>
      <trkpt lat="47.83065" lon="2.26394">
        <ele>111.24202</ele>
        <time>2021-09-09T07:19:56.000Z</time>
      </trkpt>
      <trkpt lat="47.8307" lon="2.2644">
        <ele>111.286757</ele>
        <time>2021-09-09T07:20:03.000Z</time>
      </trkpt>
      <trkpt lat="47.83073" lon="2.26471">
        <ele>111.316545</ele>
        <time>2021-09-09T07:20:07.000Z</time>
      </trkpt>
      <trkpt lat="47.83075" lon="2.26486">
        <ele>111.332024</ele>
        <time>2021-09-09T07:20:09.000Z</time>
      </trkpt>
      <trkpt lat="47.83085" lon="2.26544">
        <ele>111.389446</ele>
        <time>2021-09-09T07:20:16.000Z</time>
      </trkpt>
      <trkpt lat="47.83095" lon="2.26605">
        <ele>111.45453</ele>
        <time>2021-09-09T07:20:23.000Z</time>
      </trkpt>
      <trkpt lat="47.83095" lon="2.26614">
        <ele>111.466216</ele>
        <time>2021-09-09T07:20:24.000Z</time>
      </trkpt>
      <trkpt lat="47.83093" lon="2.26669">
        <ele>111.537493</ele>
        <time>2021-09-09T07:20:30.000Z</time>
      </trkpt>
      <trkpt lat="47.83091" lon="2.26725">
        <ele>111.608556</ele>
        <time>2021-09-09T07:20:36.000Z</time>
      </trkpt>
      <trkpt lat="47.83088" lon="2.26789">
        <ele>111.691213</ele>
        <time>2021-09-09T07:20:43.000Z</time>
      </trkpt>
      <trkpt lat="47.83081" lon="2.26852">
        <ele>111.773844</ele>
        <time>2021-09-09T07:20:50.000Z</time>
      </trkpt>
      <trkpt lat="47.83074" lon="2.26916">
        <ele>111.860289</ele>
        <time>2021-09-09T07:20:57.000Z</time>
      </trkpt>
      <trkpt lat="47.83073" lon="2.26925">
        <ele>111.872948</ele>
        <time>2021-09-09T07:20:58.000Z</time>
      </trkpt>
      <trkpt lat="47.83069" lon="2.26963">
        <ele>111.924548</ele>
        <time>2021-09-09T07:21:02.000Z</time>
      </trkpt>
      <trkpt lat="47.83069" lon="2.26982">
        <ele>111.950337</ele>
        <time>2021-09-09T07:21:04.000Z</time>
      </trkpt>
      <trkpt lat="47.83071" lon="2.27011">
        <ele>111.989207</ele>
        <time>2021-09-09T07:21:07.000Z</time>
      </trkpt>
      <trkpt lat="47.83075" lon="2.27029">
        <ele>112.015626</ele>
        <time>2021-09-09T07:21:09.000Z</time>
      </trkpt>
      <trkpt lat="47.83077" lon="2.27039">
        <ele>112.028641</ele>
        <time>2021-09-09T07:21:10.000Z</time>
      </trkpt>
      <trkpt lat="47.83088" lon="2.27084">
        <ele>112.094357</ele>
        <time>2021-09-09T07:21:15.000Z</time>
      </trkpt>
      <trkpt lat="47.83103" lon="2.27148">
        <ele>112.106398</ele>
        <time>2021-09-09T07:21:22.000Z</time>
      </trkpt>
      <trkpt lat="47.83107" lon="2.27205">
        <ele>112.04915</ele>
        <time>2021-09-09T07:21:28.000Z</time>
      </trkpt>
      <trkpt lat="47.83107" lon="2.27214">
        <ele>112.039776</ele>
        <time>2021-09-09T07:21:29.000Z</time>
      </trkpt>
      <trkpt lat="47.83101" lon="2.2725">
        <ele>112.002558</ele>
        <time>2021-09-09T07:21:33.000Z</time>
      </trkpt>
      <trkpt lat="47.83092" lon="2.27323">
        <ele>111.928137</ele>
        <time>2021-09-09T07:21:41.000Z</time>
      </trkpt>
      <trkpt lat="47.83092" lon="2.27361">
        <ele>111.890845</ele>
        <time>2021-09-09T07:21:45.000Z</time>
      </trkpt>
      <trkpt lat="47.83093" lon="2.27398">
        <ele>111.861015</ele>
        <time>2021-09-09T07:21:49.000Z</time>
      </trkpt>
      <trkpt lat="47.83093" lon="2.27407">
        <ele>111.855595</ele>
        <time>2021-09-09T07:21:50.000Z</time>
      </trkpt>
      <trkpt lat="47.83092" lon="2.27454">
        <ele>111.827629</ele>
        <time>2021-09-09T07:21:55.000Z</time>
      </trkpt>
      <trkpt lat="47.83091" lon="2.27492">
        <ele>111.804885</ele>
        <time>2021-09-09T07:21:59.000Z</time>
      </trkpt>
      <trkpt lat="47.8309" lon="2.27502">
        <ele>111.799209</ele>
        <time>2021-09-09T07:22:00.000Z</time>
      </trkpt>
      <trkpt lat="47.83081" lon="2.27566">
        <ele>111.759678</ele>
        <time>2021-09-09T07:22:07.000Z</time>
      </trkpt>
      <trkpt lat="47.83073" lon="2.27623">
        <ele>111.725268</ele>
        <time>2021-09-09T07:22:13.000Z</time>
      </trkpt>
      <trkpt lat="47.83073" lon="2.27633">
        <ele>111.719616</ele>
        <time>2021-09-09T07:22:14.000Z</time>
      </trkpt>
      <trkpt lat="47.83074" lon="2.27642">
        <ele>111.713921</ele>
        <time>2021-09-09T07:22:15.000Z</time>
      </trkpt>
      <trkpt lat="47.83079" lon="2.2768">
        <ele>111.71765</ele>
        <time>2021-09-09T07:22:19.000Z</time>
      </trkpt>
      <trkpt lat="47.83091" lon="2.27743">
        <ele>111.726781</ele>
        <time>2021-09-09T07:22:26.000Z</time>
      </trkpt>
      <trkpt lat="47.83105" lon="2.27816">
        <ele>111.737298</ele>
        <time>2021-09-09T07:22:34.000Z</time>
      </trkpt>
      <trkpt lat="47.83112" lon="2.27862">
        <ele>111.743847</ele>
        <time>2021-09-09T07:22:39.000Z</time>
      </trkpt>
      <trkpt lat="47.83116" lon="2.27879">
        <ele>111.746446</ele>
        <time>2021-09-09T07:22:41.000Z</time>
      </trkpt>
      <trkpt lat="47.83123" lon="2.27906">
        <ele>111.748966</ele>
        <time>2021-09-09T07:22:44.000Z</time>
      </trkpt>
      <trkpt lat="47.83125" lon="2.27926">
        <ele>111.745082</ele>
        <time>2021-09-09T07:22:46.000Z</time>
      </trkpt>
      <trkpt lat="47.83132" lon="2.28002">
        <ele>111.729686</ele>
        <time>2021-09-09T07:22:54.000Z</time>
      </trkpt>
      <trkpt lat="47.83138" lon="2.28068">
        <ele>111.716554</ele>
        <time>2021-09-09T07:23:01.000Z</time>
      </trkpt>
      <trkpt lat="47.8314" lon="2.28087">
        <ele>111.712759</ele>
        <time>2021-09-09T07:23:03.000Z</time>
      </trkpt>
      <trkpt lat="47.8314" lon="2.28116">
        <ele>111.707059</ele>
        <time>2021-09-09T07:23:06.000Z</time>
      </trkpt>
      <trkpt lat="47.83137" lon="2.28163">
        <ele>111.697689</ele>
        <time>2021-09-09T07:23:11.000Z</time>
      </trkpt>
      <trkpt lat="47.83133" lon="2.28211">
        <ele>111.524955</ele>
        <time>2021-09-09T07:23:17.000Z</time>
      </trkpt>
      <trkpt lat="47.83133" lon="2.28218">
        <ele>111.497244</ele>
        <time>2021-09-09T07:23:18.000Z</time>
      </trkpt>
      <trkpt lat="47.83135" lon="2.28231">
        <ele>111.445408</ele>
        <time>2021-09-09T07:23:20.000Z</time>
      </trkpt>
      <trkpt lat="47.83138" lon="2.28235">
        <ele>111.422389</ele>
        <time>2021-09-09T07:23:21.000Z</time>
      </trkpt>
      <trkpt lat="47.83141" lon="2.28239">
        <ele>111.397314</ele>
        <time>2021-09-09T07:23:22.000Z</time>
      </trkpt>
      <trkpt lat="47.83146" lon="2.28239">
        <ele>111.371326</ele>
        <time>2021-09-09T07:23:23.000Z</time>
      </trkpt>
      <trkpt lat="47.83155" lon="2.28224">
        <ele>111.288458</ele>
        <time>2021-09-09T07:23:26.000Z</time>
      </trkpt>
      <trkpt lat="47.83158" lon="2.28219">
        <ele>111.261117</ele>
        <time>2021-09-09T07:23:27.000Z</time>
      </trkpt>
      <trkpt lat="47.83163" lon="2.28221">
        <ele>111.231126</ele>
        <time>2021-09-09T07:23:29.000Z</time>
      </trkpt>
      <trkpt lat="47.83158" lon="2.28232">
        <ele>111.180153</ele>
        <time>2021-09-09T07:23:31.000Z</time>
      </trkpt>
      <trkpt lat="47.83154" lon="2.28237">
        <ele>111.148917</ele>
        <time>2021-09-09T07:23:32.000Z</time>
      </trkpt>
      <trkpt lat="47.83152" lon="2.28245">
        <ele>111.115871</ele>
        <time>2021-09-09T07:23:33.000Z</time>
      </trkpt>
      <trkpt lat="47.83143" lon="2.28305">
        <ele>110.874092</ele>
        <time>2021-09-09T07:23:40.000Z</time>
      </trkpt>
      <trkpt lat="47.8314" lon="2.28327">
        <ele>110.785001</ele>
        <time>2021-09-09T07:23:43.000Z</time>
      </trkpt>
      <trkpt lat="47.83138" lon="2.28341">
        <ele>110.728813</ele>
        <time>2021-09-09T07:23:45.000Z</time>
      </trkpt>
      <trkpt lat="47.83129" lon="2.28369">
        <ele>110.621299</ele>
        <time>2021-09-09T07:23:49.000Z</time>
      </trkpt>
      <trkpt lat="47.83124" lon="2.28382">
        <ele>110.594524</ele>
        <time>2021-09-09T07:23:51.000Z</time>
      </trkpt>
      <trkpt lat="47.83118" lon="2.28437">
        <ele>110.493182</ele>
        <time>2021-09-09T07:23:57.000Z</time>
      </trkpt>
      <trkpt lat="47.83108" lon="2.28495">
        <ele>110.384371</ele>
        <time>2021-09-09T07:24:03.000Z</time>
      </trkpt>
      <trkpt lat="47.83103" lon="2.28518">
        <ele>110.340351</ele>
        <time>2021-09-09T07:24:06.000Z</time>
      </trkpt>
      <trkpt lat="47.83104" lon="2.28525">
        <ele>110.32642</ele>
        <time>2021-09-09T07:24:07.000Z</time>
      </trkpt>
      <trkpt lat="47.83105" lon="2.28533">
        <ele>110.311633</ele>
        <time>2021-09-09T07:24:08.000Z</time>
      </trkpt>
      <trkpt lat="47.8311" lon="2.28558">
        <ele>110.264395</ele>
        <time>2021-09-09T07:24:11.000Z</time>
      </trkpt>
      <trkpt lat="47.8311" lon="2.28576">
        <ele>110.231193</ele>
        <time>2021-09-09T07:24:13.000Z</time>
      </trkpt>
      <trkpt lat="47.83108" lon="2.28594">
        <ele>110.19755</ele>
        <time>2021-09-09T07:24:15.000Z</time>
      </trkpt>
      <trkpt lat="47.83094" lon="2.28659">
        <ele>110.144257</ele>
        <time>2021-09-09T07:24:22.000Z</time>
      </trkpt>
      <trkpt lat="47.83077" lon="2.2871">
        <ele>110.139796</ele>
        <time>2021-09-09T07:24:28.000Z</time>
      </trkpt>
      <trkpt lat="47.83077" lon="2.28728">
        <ele>110.138358</ele>
        <time>2021-09-09T07:24:30.000Z</time>
      </trkpt>
      <trkpt lat="47.83078" lon="2.28737">
        <ele>110.137631</ele>
        <time>2021-09-09T07:24:31.000Z</time>
      </trkpt>
      <trkpt lat="47.83086" lon="2.28761">
        <ele>110.135547</ele>
        <time>2021-09-09T07:24:34.000Z</time>
      </trkpt>
      <trkpt lat="47.83092" lon="2.28776">
        <ele>110.134119</ele>
        <time>2021-09-09T07:24:36.000Z</time>
      </trkpt>
      <trkpt lat="47.83096" lon="2.28783">
        <ele>110.133375</ele>
        <time>2021-09-09T07:24:37.000Z</time>
      </trkpt>
      <trkpt lat="47.83105" lon="2.28798">
        <ele>110.131836</ele>
        <time>2021-09-09T07:24:39.000Z</time>
      </trkpt>
      <trkpt lat="47.83109" lon="2.28806">
        <ele>110.131056</ele>
        <time>2021-09-09T07:24:40.000Z</time>
      </trkpt>
      <trkpt lat="47.83111" lon="2.28815">
        <ele>110.130301</ele>
        <time>2021-09-09T07:24:41.000Z</time>
      </trkpt>
      <trkpt lat="47.83112" lon="2.28835">
        <ele>110.128745</ele>
        <time>2021-09-09T07:24:43.000Z</time>
      </trkpt>
      <trkpt lat="47.83105" lon="2.28883">
        <ele>110.1249</ele>
        <time>2021-09-09T07:24:48.000Z</time>
      </trkpt>
      <trkpt lat="47.8309" lon="2.28945">
        <ele>110.119756</ele>
        <time>2021-09-09T07:24:55.000Z</time>
      </trkpt>
      <trkpt lat="47.83069" lon="2.29016">
        <ele>110.113776</ele>
        <time>2021-09-09T07:25:03.000Z</time>
      </trkpt>
      <trkpt lat="47.83046" lon="2.29076">
        <ele>110.108405</ele>
        <time>2021-09-09T07:25:10.000Z</time>
      </trkpt>
      <trkpt lat="47.83021" lon="2.29133">
        <ele>110.160617</ele>
        <time>2021-09-09T07:25:17.000Z</time>
      </trkpt>
      <trkpt lat="47.82997" lon="2.2919">
        <ele>110.275631</ele>
        <time>2021-09-09T07:25:24.000Z</time>
      </trkpt>
      <trkpt lat="47.8297" lon="2.29244">
        <ele>110.391578</ele>
        <time>2021-09-09T07:25:31.000Z</time>
      </trkpt>
      <trkpt lat="47.82966" lon="2.2925">
        <ele>110.407983</ele>
        <time>2021-09-09T07:25:32.000Z</time>
      </trkpt>
      <trkpt lat="47.82956" lon="2.29262">
        <ele>110.440858</ele>
        <time>2021-09-09T07:25:34.000Z</time>
      </trkpt>
      <trkpt lat="47.82945" lon="2.29274">
        <ele>110.474242</ele>
        <time>2021-09-09T07:25:36.000Z</time>
      </trkpt>
      <trkpt lat="47.82921" lon="2.29318">
        <ele>110.573278</ele>
        <time>2021-09-09T07:25:42.000Z</time>
      </trkpt>
      <trkpt lat="47.82897" lon="2.29363">
        <ele>110.682871</ele>
        <time>2021-09-09T07:25:48.000Z</time>
      </trkpt>
      <trkpt lat="47.82858" lon="2.29422">
        <ele>110.841107</ele>
        <time>2021-09-09T07:25:57.000Z</time>
      </trkpt>
      <trkpt lat="47.82823" lon="2.29472">
        <ele>110.979171</ele>
        <time>2021-09-09T07:26:05.000Z</time>
      </trkpt>
      <trkpt lat="47.82794" lon="2.29517">
        <ele>111.083176</ele>
        <time>2021-09-09T07:26:12.000Z</time>
      </trkpt>
      <trkpt lat="47.82761" lon="2.29572">
        <ele>111.107281</ele>
        <time>2021-09-09T07:26:20.000Z</time>
      </trkpt>
      <trkpt lat="47.82732" lon="2.29622">
        <ele>111.129101</ele>
        <time>2021-09-09T07:26:27.000Z</time>
      </trkpt>
      <trkpt lat="47.82706" lon="2.29663">
        <ele>111.147655</ele>
        <time>2021-09-09T07:26:33.000Z</time>
      </trkpt>
      <trkpt lat="47.82665" lon="2.29711">
        <ele>111.138729</ele>
        <time>2021-09-09T07:26:41.000Z</time>
      </trkpt>
      <trkpt lat="47.82626" lon="2.29744">
        <ele>111.00951</ele>
        <time>2021-09-09T07:26:48.000Z</time>
      </trkpt>
      <trkpt lat="47.82572" lon="2.29775">
        <ele>110.845701</ele>
        <time>2021-09-09T07:26:57.000Z</time>
      </trkpt>
      <trkpt lat="47.82522" lon="2.29798">
        <ele>110.699244</ele>
        <time>2021-09-09T07:27:05.000Z</time>
      </trkpt>
      <trkpt lat="47.82478" lon="2.29808">
        <ele>110.597931</ele>
        <time>2021-09-09T07:27:12.000Z</time>
      </trkpt>
      <trkpt lat="47.82434" lon="2.29808">
        <ele>110.510273</ele>
        <time>2021-09-09T07:27:19.000Z</time>
      </trkpt>
      <trkpt lat="47.82384" lon="2.29797">
        <ele>110.411048</ele>
        <time>2021-09-09T07:27:27.000Z</time>
      </trkpt>
      <trkpt lat="47.82359" lon="2.29796">
        <ele>110.36154</ele>
        <time>2021-09-09T07:27:31.000Z</time>
      </trkpt>
      <trkpt lat="47.82347" lon="2.298">
        <ele>110.336818</ele>
        <time>2021-09-09T07:27:33.000Z</time>
      </trkpt>
      <trkpt lat="47.82306" lon="2.2982">
        <ele>110.273122</ele>
        <time>2021-09-09T07:27:40.000Z</time>
      </trkpt>
      <trkpt lat="47.8227" lon="2.29827">
        <ele>110.234462</ele>
        <time>2021-09-09T07:27:46.000Z</time>
      </trkpt>
      <trkpt lat="47.82252" lon="2.29829">
        <ele>110.21528</ele>
        <time>2021-09-09T07:27:49.000Z</time>
      </trkpt>
      <trkpt lat="47.8224" lon="2.29833">
        <ele>110.201991</ele>
        <time>2021-09-09T07:27:51.000Z</time>
      </trkpt>
      <trkpt lat="47.82193" lon="2.29853">
        <ele>110.148921</ele>
        <time>2021-09-09T07:27:59.000Z</time>
      </trkpt>
      <trkpt lat="47.82153" lon="2.29871">
        <ele>110.105793</ele>
        <time>2021-09-09T07:28:06.000Z</time>
      </trkpt>
      <trkpt lat="47.82143" lon="2.2988">
        <ele>110.102855</ele>
        <time>2021-09-09T07:28:08.000Z</time>
      </trkpt>
      <trkpt lat="47.82132" lon="2.29884">
        <ele>110.099916</ele>
        <time>2021-09-09T07:28:10.000Z</time>
      </trkpt>
      <trkpt lat="47.82097" lon="2.299">
        <ele>110.090745</ele>
        <time>2021-09-09T07:28:16.000Z</time>
      </trkpt>
      <trkpt lat="47.82045" lon="2.29926">
        <ele>110.076909</ele>
        <time>2021-09-09T07:28:25.000Z</time>
      </trkpt>
      <trkpt lat="47.81992" lon="2.29951">
        <ele>110.063025</ele>
        <time>2021-09-09T07:28:34.000Z</time>
      </trkpt>
      <trkpt lat="47.81947" lon="2.29973">
        <ele>110.017908</ele>
        <time>2021-09-09T07:28:42.000Z</time>
      </trkpt>
      <trkpt lat="47.81902" lon="2.29997">
        <ele>109.966897</ele>
        <time>2021-09-09T07:28:50.000Z</time>
      </trkpt>
      <trkpt lat="47.81851" lon="2.30026">
        <ele>109.907949</ele>
        <time>2021-09-09T07:28:59.000Z</time>
      </trkpt>
      <trkpt lat="47.81845" lon="2.30029">
        <ele>109.901416</ele>
        <time>2021-09-09T07:29:00.000Z</time>
      </trkpt>
      <trkpt lat="47.81804" lon="2.30043">
        <ele>109.88456</ele>
        <time>2021-09-09T07:29:07.000Z</time>
      </trkpt>
      <trkpt lat="47.81786" lon="2.30046">
        <ele>109.914809</ele>
        <time>2021-09-09T07:29:10.000Z</time>
      </trkpt>
      <trkpt lat="47.81767" lon="2.30047">
        <ele>109.944448</ele>
        <time>2021-09-09T07:29:13.000Z</time>
      </trkpt>
      <trkpt lat="47.81755" lon="2.30047">
        <ele>109.964735</ele>
        <time>2021-09-09T07:29:15.000Z</time>
      </trkpt>
      <trkpt lat="47.81743" lon="2.30043">
        <ele>109.984028</ele>
        <time>2021-09-09T07:29:17.000Z</time>
      </trkpt>
      <trkpt lat="47.81714" lon="2.30042">
        <ele>110.030719</ele>
        <time>2021-09-09T07:29:22.000Z</time>
      </trkpt>
      <trkpt lat="47.81672" lon="2.30039">
        <ele>110.098685</ele>
        <time>2021-09-09T07:29:29.000Z</time>
      </trkpt>
      <trkpt lat="47.81629" lon="2.30034">
        <ele>110.196521</ele>
        <time>2021-09-09T07:29:36.000Z</time>
      </trkpt>
      <trkpt lat="47.81613" lon="2.30034">
        <ele>110.288145</ele>
        <time>2021-09-09T07:29:39.000Z</time>
      </trkpt>
      <trkpt lat="47.81604" lon="2.3003">
        <ele>110.343209</ele>
        <time>2021-09-09T07:29:41.000Z</time>
      </trkpt>
      <trkpt lat="47.81601" lon="2.30014">
        <ele>110.407308</ele>
        <time>2021-09-09T07:29:44.000Z</time>
      </trkpt>
      <trkpt lat="47.81599" lon="2.30006">
        <ele>110.442576</ele>
        <time>2021-09-09T07:29:46.000Z</time>
      </trkpt>
      <trkpt lat="47.81593" lon="2.30001">
        <ele>110.481246</ele>
        <time>2021-09-09T07:29:48.000Z</time>
      </trkpt>
      <trkpt lat="47.81564" lon="2.29984">
        <ele>110.660754</ele>
        <time>2021-09-09T07:29:55.000Z</time>
      </trkpt>
      <trkpt lat="47.81549" lon="2.29973">
        <ele>110.757203</ele>
        <time>2021-09-09T07:29:59.000Z</time>
      </trkpt>
      <trkpt lat="47.81542" lon="2.29964">
        <ele>110.81102</ele>
        <time>2021-09-09T07:30:01.000Z</time>
      </trkpt>
      <trkpt lat="47.81533" lon="2.29959">
        <ele>110.86667</ele>
        <time>2021-09-09T07:30:03.000Z</time>
      </trkpt>
      <trkpt lat="47.81523" lon="2.29954">
        <ele>110.92825</ele>
        <time>2021-09-09T07:30:05.000Z</time>
      </trkpt>
      <trkpt lat="47.81487" lon="2.29934">
        <ele>111.155423</ele>
        <time>2021-09-09T07:30:12.000Z</time>
      </trkpt>
      <trkpt lat="47.81443" lon="2.29904">
        <ele>111.329485</ele>
        <time>2021-09-09T07:30:20.000Z</time>
      </trkpt>
      <trkpt lat="47.81403" lon="2.2988">
        <ele>111.465901</ele>
        <time>2021-09-09T07:30:27.000Z</time>
      </trkpt>
      <trkpt lat="47.81368" lon="2.29866">
        <ele>111.581169</ele>
        <time>2021-09-09T07:30:33.000Z</time>
      </trkpt>
      <trkpt lat="47.81321" lon="2.29849">
        <ele>111.736237</ele>
        <time>2021-09-09T07:30:41.000Z</time>
      </trkpt>
      <trkpt lat="47.81274" lon="2.29835">
        <ele>111.873686</ele>
        <time>2021-09-09T07:30:49.000Z</time>
      </trkpt>
      <trkpt lat="47.81227" lon="2.29818">
        <ele>112.009789</ele>
        <time>2021-09-09T07:30:57.000Z</time>
      </trkpt>
      <trkpt lat="47.81186" lon="2.29803">
        <ele>112.126723</ele>
        <time>2021-09-09T07:31:04.000Z</time>
      </trkpt>
      <trkpt lat="47.81139" lon="2.29786">
        <ele>112.26327</ele>
        <time>2021-09-09T07:31:12.000Z</time>
      </trkpt>
      <trkpt lat="47.81085" lon="2.29762">
        <ele>112.369071</ele>
        <time>2021-09-09T07:31:21.000Z</time>
      </trkpt>
      <trkpt lat="47.81044" lon="2.2975">
        <ele>112.445631</ele>
        <time>2021-09-09T07:31:28.000Z</time>
      </trkpt>
      <trkpt lat="47.81026" lon="2.29746">
        <ele>112.478147</ele>
        <time>2021-09-09T07:31:31.000Z</time>
      </trkpt>
      <trkpt lat="47.81015" lon="2.29738">
        <ele>112.499892</ele>
        <time>2021-09-09T07:31:33.000Z</time>
      </trkpt>
      <trkpt lat="47.81" lon="2.29715">
        <ele>112.538724</ele>
        <time>2021-09-09T07:31:36.000Z</time>
      </trkpt>
      <trkpt lat="47.8098" lon="2.29686">
        <ele>112.590365</ele>
        <time>2021-09-09T07:31:40.000Z</time>
      </trkpt>
      <trkpt lat="47.80935" lon="2.29639">
        <ele>112.636705</ele>
        <time>2021-09-09T07:31:48.000Z</time>
      </trkpt>
      <trkpt lat="47.8093" lon="2.29633">
        <ele>112.641519</ele>
        <time>2021-09-09T07:31:49.000Z</time>
      </trkpt>
      <trkpt lat="47.80918" lon="2.29625">
        <ele>112.65087</ele>
        <time>2021-09-09T07:31:51.000Z</time>
      </trkpt>
      <trkpt lat="47.80905" lon="2.29621">
        <ele>112.659868</ele>
        <time>2021-09-09T07:31:53.000Z</time>
      </trkpt>
      <trkpt lat="47.80874" lon="2.29617">
        <ele>112.682565</ele>
        <time>2021-09-09T07:31:58.000Z</time>
      </trkpt>
      <trkpt lat="47.80832" lon="2.29608">
        <ele>112.713039</ele>
        <time>2021-09-09T07:32:05.000Z</time>
      </trkpt>
      <trkpt lat="47.80792" lon="2.29593">
        <ele>112.739381</ele>
        <time>2021-09-09T07:32:12.000Z</time>
      </trkpt>
      <trkpt lat="47.80759" lon="2.29574">
        <ele>112.757318</ele>
        <time>2021-09-09T07:32:18.000Z</time>
      </trkpt>
      <trkpt lat="47.80755" lon="2.2957">
        <ele>112.760071</ele>
        <time>2021-09-09T07:32:19.000Z</time>
      </trkpt>
      <trkpt lat="47.80742" lon="2.29557">
        <ele>112.768099</ele>
        <time>2021-09-09T07:32:22.000Z</time>
      </trkpt>
      <trkpt lat="47.80721" lon="2.29538">
        <ele>112.780781</ele>
        <time>2021-09-09T07:32:27.000Z</time>
      </trkpt>
      <trkpt lat="47.80715" lon="2.2953">
        <ele>112.785047</ele>
        <time>2021-09-09T07:32:31.000Z</time>
      </trkpt>
      <trkpt lat="47.80709" lon="2.29519">
        <ele>112.790203</ele>
        <time>2021-09-09T07:32:37.000Z</time>
      </trkpt>
      <trkpt lat="47.80707" lon="2.29517">
        <ele>112.791352</ele>
        <time>2021-09-09T07:32:38.000Z</time>
      </trkpt>
      <trkpt lat="47.80696" lon="2.29506">
        <ele>112.798437</ele>
        <time>2021-09-09T07:32:43.000Z</time>
      </trkpt>
      <trkpt lat="47.80684" lon="2.29498">
        <ele>112.805331</ele>
        <time>2021-09-09T07:32:48.000Z</time>
      </trkpt>
      <trkpt lat="47.80672" lon="2.29487">
        <ele>112.812508</ele>
        <time>2021-09-09T07:32:53.000Z</time>
      </trkpt>
      <trkpt lat="47.80669" lon="2.29485">
        <ele>112.814094</ele>
        <time>2021-09-09T07:32:54.000Z</time>
      </trkpt>
      <trkpt lat="47.80667" lon="2.29487">
        <ele>112.815159</ele>
        <time>2021-09-09T07:32:56.000Z</time>
      </trkpt>
      <trkpt lat="47.80674" lon="2.29491">
        <ele>112.818686</ele>
        <time>2021-09-09T07:32:59.000Z</time>
      </trkpt>
      <trkpt lat="47.80701" lon="2.29514">
        <ele>112.775435</ele>
        <time>2021-09-09T07:33:07.000Z</time>
      </trkpt>
      <trkpt lat="47.80709" lon="2.29524">
        <ele>112.75024</ele>
        <time>2021-09-09T07:33:10.000Z</time>
      </trkpt>
      <trkpt lat="47.80709" lon="2.29528">
        <ele>112.743571</ele>
        <time>2021-09-09T07:33:11.000Z</time>
      </trkpt>
      <trkpt lat="47.80704" lon="2.2955">
        <ele>112.706097</ele>
        <time>2021-09-09T07:33:15.000Z</time>
      </trkpt>
      <trkpt lat="47.80703" lon="2.29556">
        <ele>112.695193</ele>
        <time>2021-09-09T07:33:16.000Z</time>
      </trkpt>
      <trkpt lat="47.80702" lon="2.29595">
        <ele>112.632798</ele>
        <time>2021-09-09T07:33:22.000Z</time>
      </trkpt>
      <trkpt lat="47.80703" lon="2.296">
        <ele>112.62315</ele>
        <time>2021-09-09T07:33:23.000Z</time>
      </trkpt>
      <trkpt lat="47.80708" lon="2.29612">
        <ele>112.600056</ele>
        <time>2021-09-09T07:33:25.000Z</time>
      </trkpt>
      <trkpt lat="47.80712" lon="2.29618">
        <ele>112.587195</ele>
        <time>2021-09-09T07:33:26.000Z</time>
      </trkpt>
      <trkpt lat="47.80717" lon="2.29622">
        <ele>112.573864</ele>
        <time>2021-09-09T07:33:27.000Z</time>
      </trkpt>
      <trkpt lat="47.80731" lon="2.29634">
        <ele>112.533314</ele>
        <time>2021-09-09T07:33:30.000Z</time>
      </trkpt>
      <trkpt lat="47.80747" lon="2.29649">
        <ele>112.489007</ele>
        <time>2021-09-09T07:33:33.000Z</time>
      </trkpt>
      <trkpt lat="47.80756" lon="2.29656">
        <ele>112.463544</ele>
        <time>2021-09-09T07:33:35.000Z</time>
      </trkpt>
      <trkpt lat="47.80766" lon="2.29663">
        <ele>112.437713</ele>
        <time>2021-09-09T07:33:38.000Z</time>
      </trkpt>
      <trkpt lat="47.80782" lon="2.29677">
        <ele>112.392088</ele>
        <time>2021-09-09T07:33:42.000Z</time>
      </trkpt>
      <trkpt lat="47.80786" lon="2.29682">
        <ele>112.379751</ele>
        <time>2021-09-09T07:33:43.000Z</time>
      </trkpt>
      <trkpt lat="47.80787" lon="2.2969">
        <ele>112.36837</ele>
        <time>2021-09-09T07:33:44.000Z</time>
      </trkpt>
      <trkpt lat="47.80782" lon="2.29704">
        <ele>112.345385</ele>
        <time>2021-09-09T07:33:46.000Z</time>
      </trkpt>
      <trkpt lat="47.80778" lon="2.2971">
        <ele>112.333233</ele>
        <time>2021-09-09T07:33:47.000Z</time>
      </trkpt>
      <trkpt lat="47.8075" lon="2.29735">
        <ele>112.264201</ele>
        <time>2021-09-09T07:33:52.000Z</time>
      </trkpt>
      <trkpt lat="47.80707" lon="2.29768">
        <ele>112.159528</ele>
        <time>2021-09-09T07:33:59.000Z</time>
      </trkpt>
      <trkpt lat="47.80656" lon="2.29797">
        <ele>112.043245</ele>
        <time>2021-09-09T07:34:07.000Z</time>
      </trkpt>
      <trkpt lat="47.80601" lon="2.29827">
        <ele>111.989177</ele>
        <time>2021-09-09T07:34:16.000Z</time>
      </trkpt>
      <trkpt lat="47.80548" lon="2.29859">
        <ele>111.969101</ele>
        <time>2021-09-09T07:34:25.000Z</time>
      </trkpt>
      <trkpt lat="47.80516" lon="2.29886">
        <ele>111.956012</ele>
        <time>2021-09-09T07:34:31.000Z</time>
      </trkpt>
      <trkpt lat="47.80491" lon="2.29914">
        <ele>111.945159</ele>
        <time>2021-09-09T07:34:36.000Z</time>
      </trkpt>
      <trkpt lat="47.80464" lon="2.29951">
        <ele>111.902447</ele>
        <time>2021-09-09T07:34:42.000Z</time>
      </trkpt>
      <trkpt lat="47.80438" lon="2.30002">
        <ele>111.828971</ele>
        <time>2021-09-09T07:34:49.000Z</time>
      </trkpt>
      <trkpt lat="47.80419" lon="2.30051">
        <ele>111.764921</ele>
        <time>2021-09-09T07:34:55.000Z</time>
      </trkpt>
      <trkpt lat="47.80393" lon="2.30118">
        <ele>111.676664</ele>
        <time>2021-09-09T07:35:04.000Z</time>
      </trkpt>
      <trkpt lat="47.8038" lon="2.3016">
        <ele>111.641173</ele>
        <time>2021-09-09T07:35:10.000Z</time>
      </trkpt>
      <trkpt lat="47.80374" lon="2.30171">
        <ele>111.649398</ele>
        <time>2021-09-09T07:35:12.000Z</time>
      </trkpt>
      <trkpt lat="47.80371" lon="2.30185">
        <ele>111.658341</ele>
        <time>2021-09-09T07:35:14.000Z</time>
      </trkpt>
      <trkpt lat="47.80367" lon="2.30202">
        <ele>111.668676</ele>
        <time>2021-09-09T07:35:16.000Z</time>
      </trkpt>
      <trkpt lat="47.80359" lon="2.30227">
        <ele>111.68527</ele>
        <time>2021-09-09T07:35:19.000Z</time>
      </trkpt>
      <trkpt lat="47.80329" lon="2.30304">
        <ele>111.737468</ele>
        <time>2021-09-09T07:35:28.000Z</time>
      </trkpt>
      <trkpt lat="47.80307" lon="2.30365">
        <ele>111.778447</ele>
        <time>2021-09-09T07:35:35.000Z</time>
      </trkpt>
      <trkpt lat="47.80278" lon="2.30441">
        <ele>111.795098</ele>
        <time>2021-09-09T07:35:44.000Z</time>
      </trkpt>
      <trkpt lat="47.80245" lon="2.30502">
        <ele>111.796957</ele>
        <time>2021-09-09T07:35:52.000Z</time>
      </trkpt>
      <trkpt lat="47.80209" lon="2.30555">
        <ele>111.798758</ele>
        <time>2021-09-09T07:36:00.000Z</time>
      </trkpt>
      <trkpt lat="47.80181" lon="2.30593">
        <ele>111.800025</ele>
        <time>2021-09-09T07:36:06.000Z</time>
      </trkpt>
      <trkpt lat="47.80139" lon="2.3065">
        <ele>111.800584</ele>
        <time>2021-09-09T07:36:15.000Z</time>
      </trkpt>
      <trkpt lat="47.80134" lon="2.30656">
        <ele>111.800646</ele>
        <time>2021-09-09T07:36:16.000Z</time>
      </trkpt>
      <trkpt lat="47.80095" lon="2.30702">
        <ele>111.801133</ele>
        <time>2021-09-09T07:36:24.000Z</time>
      </trkpt>
      <trkpt lat="47.80058" lon="2.30751">
        <ele>111.801616</ele>
        <time>2021-09-09T07:36:32.000Z</time>
      </trkpt>
      <trkpt lat="47.80018" lon="2.30808">
        <ele>111.843109</ele>
        <time>2021-09-09T07:36:41.000Z</time>
      </trkpt>
      <trkpt lat="47.80004" lon="2.30826">
        <ele>111.861959</ele>
        <time>2021-09-09T07:36:44.000Z</time>
      </trkpt>
      <trkpt lat="47.79989" lon="2.30842">
        <ele>111.880998</ele>
        <time>2021-09-09T07:36:47.000Z</time>
      </trkpt>
      <trkpt lat="47.7995" lon="2.30882">
        <ele>111.929762</ele>
        <time>2021-09-09T07:36:55.000Z</time>
      </trkpt>
      <trkpt lat="47.79918" lon="2.3092">
        <ele>111.97168</ele>
        <time>2021-09-09T07:37:02.000Z</time>
      </trkpt>
      <trkpt lat="47.79883" lon="2.30967">
        <ele>111.967767</ele>
        <time>2021-09-09T07:37:10.000Z</time>
      </trkpt>
      <trkpt lat="47.79858" lon="2.31007">
        <ele>111.948884</ele>
        <time>2021-09-09T07:37:16.000Z</time>
      </trkpt>
      <trkpt lat="47.79828" lon="2.31067">
        <ele>111.922524</ele>
        <time>2021-09-09T07:37:24.000Z</time>
      </trkpt>
      <trkpt lat="47.79799" lon="2.31119">
        <ele>111.899093</ele>
        <time>2021-09-09T07:37:31.000Z</time>
      </trkpt>
      <trkpt lat="47.79789" lon="2.31131">
        <ele>111.892166</ele>
        <time>2021-09-09T07:37:33.000Z</time>
      </trkpt>
      <trkpt lat="47.79782" lon="2.31134">
        <ele>111.884187</ele>
        <time>2021-09-09T07:37:34.000Z</time>
      </trkpt>
      <trkpt lat="47.79776" lon="2.31134">
        <ele>111.875434</ele>
        <time>2021-09-09T07:37:35.000Z</time>
      </trkpt>
      <trkpt lat="47.79756" lon="2.31131">
        <ele>111.849286</ele>
        <time>2021-09-09T07:37:38.000Z</time>
      </trkpt>
      <trkpt lat="47.79706" lon="2.31127">
        <ele>111.782939</ele>
        <time>2021-09-09T07:37:46.000Z</time>
      </trkpt>
      <trkpt lat="47.79657" lon="2.3113">
        <ele>111.71715</ele>
        <time>2021-09-09T07:37:54.000Z</time>
      </trkpt>
      <trkpt lat="47.79645" lon="2.31136">
        <ele>111.700693</ele>
        <time>2021-09-09T07:37:56.000Z</time>
      </trkpt>
      <trkpt lat="47.79634" lon="2.31145">
        <ele>111.684378</ele>
        <time>2021-09-09T07:37:58.000Z</time>
      </trkpt>
      <trkpt lat="47.79591" lon="2.31181">
        <ele>111.632639</ele>
        <time>2021-09-09T07:38:06.000Z</time>
      </trkpt>
      <trkpt lat="47.79575" lon="2.31193">
        <ele>111.618039</ele>
        <time>2021-09-09T07:38:09.000Z</time>
      </trkpt>
      <trkpt lat="47.79559" lon="2.31208">
        <ele>111.603011</ele>
        <time>2021-09-09T07:38:12.000Z</time>
      </trkpt>
      <trkpt lat="47.79527" lon="2.3124">
        <ele>111.572249</ele>
        <time>2021-09-09T07:38:18.000Z</time>
      </trkpt>
      <trkpt lat="47.79484" lon="2.3128">
        <ele>111.530955</ele>
        <time>2021-09-09T07:38:26.000Z</time>
      </trkpt>
      <trkpt lat="47.79438" lon="2.31315">
        <ele>111.549052</ele>
        <time>2021-09-09T07:38:34.000Z</time>
      </trkpt>
      <trkpt lat="47.79403" lon="2.31332">
        <ele>111.611193</ele>
        <time>2021-09-09T07:38:40.000Z</time>
      </trkpt>
      <trkpt lat="47.79361" lon="2.31344">
        <ele>111.683708</ele>
        <time>2021-09-09T07:38:47.000Z</time>
      </trkpt>
      <trkpt lat="47.79355" lon="2.31345">
        <ele>111.693971</ele>
        <time>2021-09-09T07:38:48.000Z</time>
      </trkpt>
      <trkpt lat="47.79331" lon="2.31339">
        <ele>111.734186</ele>
        <time>2021-09-09T07:38:52.000Z</time>
      </trkpt>
      <trkpt lat="47.79301" lon="2.31333">
        <ele>111.785389</ele>
        <time>2021-09-09T07:38:57.000Z</time>
      </trkpt>
      <trkpt lat="47.79289" lon="2.31335">
        <ele>111.806297</ele>
        <time>2021-09-09T07:38:59.000Z</time>
      </trkpt>
      <trkpt lat="47.79247" lon="2.3135">
        <ele>111.886483</ele>
        <time>2021-09-09T07:39:06.000Z</time>
      </trkpt>
      <trkpt lat="47.79237" lon="2.31358">
        <ele>111.909187</ele>
        <time>2021-09-09T07:39:08.000Z</time>
      </trkpt>
      <trkpt lat="47.79223" lon="2.31375">
        <ele>111.943402</ele>
        <time>2021-09-09T07:39:11.000Z</time>
      </trkpt>
      <trkpt lat="47.79219" lon="2.31382">
        <ele>111.954918</ele>
        <time>2021-09-09T07:39:12.000Z</time>
      </trkpt>
      <trkpt lat="47.79208" lon="2.31405">
        <ele>111.991174</ele>
        <time>2021-09-09T07:39:15.000Z</time>
      </trkpt>
      <trkpt lat="47.79186" lon="2.31472">
        <ele>112.086093</ele>
        <time>2021-09-09T07:39:23.000Z</time>
      </trkpt>
      <trkpt lat="47.79175" lon="2.31525">
        <ele>112.155896</ele>
        <time>2021-09-09T07:39:29.000Z</time>
      </trkpt>
      <trkpt lat="47.79164" lon="2.31588">
        <ele>112.21291</ele>
        <time>2021-09-09T07:39:36.000Z</time>
      </trkpt>
      <trkpt lat="47.79157" lon="2.31614">
        <ele>112.23768</ele>
        <time>2021-09-09T07:39:39.000Z</time>
      </trkpt>
      <trkpt lat="47.79154" lon="2.31632">
        <ele>112.254298</ele>
        <time>2021-09-09T07:39:41.000Z</time>
      </trkpt>
      <trkpt lat="47.79144" lon="2.31706">
        <ele>112.320205</ele>
        <time>2021-09-09T07:39:49.000Z</time>
      </trkpt>
      <trkpt lat="47.79141" lon="2.31734">
        <ele>112.345352</ele>
        <time>2021-09-09T07:39:52.000Z</time>
      </trkpt>
      <trkpt lat="47.79138" lon="2.31742">
        <ele>112.352759</ele>
        <time>2021-09-09T07:39:53.000Z</time>
      </trkpt>
      <trkpt lat="47.79122" lon="2.31774">
        <ele>112.388435</ele>
        <time>2021-09-09T07:39:57.000Z</time>
      </trkpt>
      <trkpt lat="47.79097" lon="2.31824">
        <ele>112.793458</ele>
        <time>2021-09-09T07:40:03.000Z</time>
      </trkpt>
      <trkpt lat="47.79086" lon="2.31856">
        <ele>113.02626</ele>
        <time>2021-09-09T07:40:08.000Z</time>
      </trkpt>
      <trkpt lat="47.79081" lon="2.31881">
        <ele>113.198835</ele>
        <time>2021-09-09T07:40:13.000Z</time>
      </trkpt>
      <trkpt lat="47.79082" lon="2.31922">
        <ele>113.467269</ele>
        <time>2021-09-09T07:40:19.000Z</time>
      </trkpt>
      <trkpt lat="47.79083" lon="2.31988">
        <ele>113.897457</ele>
        <time>2021-09-09T07:40:27.000Z</time>
      </trkpt>
      <trkpt lat="47.79085" lon="2.32066">
        <ele>114.262237</ele>
        <time>2021-09-09T07:40:36.000Z</time>
      </trkpt>
      <trkpt lat="47.79085" lon="2.32125">
        <ele>114.439846</ele>
        <time>2021-09-09T07:40:43.000Z</time>
      </trkpt>
      <trkpt lat="47.7908" lon="2.32187">
        <ele>114.631191</ele>
        <time>2021-09-09T07:40:50.000Z</time>
      </trkpt>
      <trkpt lat="47.79076" lon="2.32234">
        <ele>114.773634</ele>
        <time>2021-09-09T07:40:55.000Z</time>
      </trkpt>
      <trkpt lat="47.79076" lon="2.32243">
        <ele>114.801394</ele>
        <time>2021-09-09T07:40:56.000Z</time>
      </trkpt>
      <trkpt lat="47.79069" lon="2.32297">
        <ele>114.958533</ele>
        <time>2021-09-09T07:41:02.000Z</time>
      </trkpt>
      <trkpt lat="47.79059" lon="2.3237">
        <ele>115.085211</ele>
        <time>2021-09-09T07:41:10.000Z</time>
      </trkpt>
      <trkpt lat="47.79045" lon="2.32442">
        <ele>115.210366</ele>
        <time>2021-09-09T07:41:18.000Z</time>
      </trkpt>
      <trkpt lat="47.79028" lon="2.32522">
        <ele>115.353004</ele>
        <time>2021-09-09T07:41:27.000Z</time>
      </trkpt>
      <trkpt lat="47.79016" lon="2.32576">
        <ele>115.445926</ele>
        <time>2021-09-09T07:41:33.000Z</time>
      </trkpt>
      <trkpt lat="47.79002" lon="2.32651">
        <ele>115.57062</ele>
        <time>2021-09-09T07:41:41.000Z</time>
      </trkpt>
      <trkpt lat="47.78996" lon="2.32679">
        <ele>115.618284</ele>
        <time>2021-09-09T07:41:44.000Z</time>
      </trkpt>
      <trkpt lat="47.78989" lon="2.32707">
        <ele>115.666777</ele>
        <time>2021-09-09T07:41:47.000Z</time>
      </trkpt>
      <trkpt lat="47.78962" lon="2.32778">
        <ele>115.798028</ele>
        <time>2021-09-09T07:41:55.000Z</time>
      </trkpt>
      <trkpt lat="47.78933" lon="2.32847">
        <ele>115.913849</ele>
        <time>2021-09-09T07:42:03.000Z</time>
      </trkpt>
      <trkpt lat="47.78926" lon="2.32863">
        <ele>115.940723</ele>
        <time>2021-09-09T07:42:05.000Z</time>
      </trkpt>
      <trkpt lat="47.789" lon="2.32919">
        <ele>116.034382</ele>
        <time>2021-09-09T07:42:12.000Z</time>
      </trkpt>
      <trkpt lat="47.78868" lon="2.3299">
        <ele>116.151486</ele>
        <time>2021-09-09T07:42:21.000Z</time>
      </trkpt>
      <trkpt lat="47.78865" lon="2.32997">
        <ele>116.163954</ele>
        <time>2021-09-09T07:42:22.000Z</time>
      </trkpt>
      <trkpt lat="47.78841" lon="2.33052">
        <ele>116.246778</ele>
        <time>2021-09-09T07:42:29.000Z</time>
      </trkpt>
      <trkpt lat="47.78814" lon="2.33117">
        <ele>116.338779</ele>
        <time>2021-09-09T07:42:37.000Z</time>
      </trkpt>
      <trkpt lat="47.78783" lon="2.33191">
        <ele>116.442541</ele>
        <time>2021-09-09T07:42:46.000Z</time>
      </trkpt>
      <trkpt lat="47.78756" lon="2.33255">
        <ele>116.501074</ele>
        <time>2021-09-09T07:42:54.000Z</time>
      </trkpt>
      <trkpt lat="47.78731" lon="2.33323">
        <ele>116.382739</ele>
        <time>2021-09-09T07:43:02.000Z</time>
      </trkpt>
      <trkpt lat="47.78713" lon="2.33382">
        <ele>116.282504</ele>
        <time>2021-09-09T07:43:09.000Z</time>
      </trkpt>
      <trkpt lat="47.78705" lon="2.33411">
        <ele>116.234743</ele>
        <time>2021-09-09T07:43:13.000Z</time>
      </trkpt>
      <trkpt lat="47.78704" lon="2.33417">
        <ele>116.225737</ele>
        <time>2021-09-09T07:43:14.000Z</time>
      </trkpt>
      <trkpt lat="47.78705" lon="2.33422">
        <ele>116.217598</ele>
        <time>2021-09-09T07:43:15.000Z</time>
      </trkpt>
      <trkpt lat="47.78709" lon="2.3343">
        <ele>116.200322</ele>
        <time>2021-09-09T07:43:17.000Z</time>
      </trkpt>
      <trkpt lat="47.78717" lon="2.33434">
        <ele>116.181841</ele>
        <time>2021-09-09T07:43:19.000Z</time>
      </trkpt>
      <trkpt lat="47.78721" lon="2.33431">
        <ele>116.17199</ele>
        <time>2021-09-09T07:43:20.000Z</time>
      </trkpt>
      <trkpt lat="47.78725" lon="2.33427">
        <ele>116.161663</ele>
        <time>2021-09-09T07:43:21.000Z</time>
      </trkpt>
      <trkpt lat="47.78732" lon="2.33422">
        <ele>116.144366</ele>
        <time>2021-09-09T07:43:23.000Z</time>
      </trkpt>
      <trkpt lat="47.78732" lon="2.33433">
        <ele>116.12797</ele>
        <time>2021-09-09T07:43:25.000Z</time>
      </trkpt>
      <trkpt lat="47.78718" lon="2.33459">
        <ele>116.006801</ele>
        <time>2021-09-09T07:43:29.000Z</time>
      </trkpt>
      <trkpt lat="47.787" lon="2.335">
        <ele>115.762853</ele>
        <time>2021-09-09T07:43:34.000Z</time>
      </trkpt>
      <trkpt lat="47.78667" lon="2.33565">
        <ele>115.364361</ele>
        <time>2021-09-09T07:43:42.000Z</time>
      </trkpt>
      <trkpt lat="47.78636" lon="2.33621">
        <ele>115.007776</ele>
        <time>2021-09-09T07:43:49.000Z</time>
      </trkpt>
      <trkpt lat="47.78599" lon="2.33684">
        <ele>114.728073</ele>
        <time>2021-09-09T07:43:57.000Z</time>
      </trkpt>
      <trkpt lat="47.78572" lon="2.33728">
        <ele>114.633239</ele>
        <time>2021-09-09T07:44:03.000Z</time>
      </trkpt>
      <trkpt lat="47.78541" lon="2.33781">
        <ele>114.520649</ele>
        <time>2021-09-09T07:44:10.000Z</time>
      </trkpt>
      <trkpt lat="47.78517" lon="2.33826">
        <ele>114.427031</ele>
        <time>2021-09-09T07:44:16.000Z</time>
      </trkpt>
      <trkpt lat="47.78512" lon="2.33833">
        <ele>114.411551</ele>
        <time>2021-09-09T07:44:17.000Z</time>
      </trkpt>
      <trkpt lat="47.78503" lon="2.33847">
        <ele>114.381042</ele>
        <time>2021-09-09T07:44:19.000Z</time>
      </trkpt>
      <trkpt lat="47.78483" lon="2.33884">
        <ele>114.341489</ele>
        <time>2021-09-09T07:44:24.000Z</time>
      </trkpt>
      <trkpt lat="47.7848" lon="2.33892">
        <ele>114.335862</ele>
        <time>2021-09-09T07:44:25.000Z</time>
      </trkpt>
      <trkpt lat="47.78469" lon="2.33917">
        <ele>114.318516</ele>
        <time>2021-09-09T07:44:28.000Z</time>
      </trkpt>
      <trkpt lat="47.78461" lon="2.33932">
        <ele>114.306782</ele>
        <time>2021-09-09T07:44:30.000Z</time>
      </trkpt>
      <trkpt lat="47.78431" lon="2.33983">
        <ele>114.266844</ele>
        <time>2021-09-09T07:44:37.000Z</time>
      </trkpt>
      <trkpt lat="47.78393" lon="2.34044">
        <ele>114.217578</ele>
        <time>2021-09-09T07:44:46.000Z</time>
      </trkpt>
      <trkpt lat="47.78363" lon="2.34091">
        <ele>114.193421</ele>
        <time>2021-09-09T07:44:53.000Z</time>
      </trkpt>
      <trkpt lat="47.7833" lon="2.34134">
        <ele>114.176746</ele>
        <time>2021-09-09T07:45:00.000Z</time>
      </trkpt>
      <trkpt lat="47.78325" lon="2.3414">
        <ele>114.174427</ele>
        <time>2021-09-09T07:45:01.000Z</time>
      </trkpt>
      <trkpt lat="47.78284" lon="2.34197">
        <ele>114.152706</ele>
        <time>2021-09-09T07:45:10.000Z</time>
      </trkpt>
      <trkpt lat="47.78279" lon="2.34204">
        <ele>114.150307</ele>
        <time>2021-09-09T07:45:11.000Z</time>
      </trkpt>
      <trkpt lat="47.78242" lon="2.34251">
        <ele>114.11874</ele>
        <time>2021-09-09T07:45:19.000Z</time>
      </trkpt>
      <trkpt lat="47.78197" lon="2.34305">
        <ele>114.033395</ele>
        <time>2021-09-09T07:45:28.000Z</time>
      </trkpt>
      <trkpt lat="47.78155" lon="2.34351">
        <ele>113.957499</ele>
        <time>2021-09-09T07:45:36.000Z</time>
      </trkpt>
      <trkpt lat="47.78117" lon="2.34389">
        <ele>113.889429</ele>
        <time>2021-09-09T07:45:43.000Z</time>
      </trkpt>
      <trkpt lat="47.78075" lon="2.34431">
        <ele>113.856167</ele>
        <time>2021-09-09T07:45:51.000Z</time>
      </trkpt>
      <trkpt lat="47.78044" lon="2.34463">
        <ele>113.842491</ele>
        <time>2021-09-09T07:45:57.000Z</time>
      </trkpt>
      <trkpt lat="47.77996" lon="2.34511">
        <ele>113.8217</ele>
        <time>2021-09-09T07:46:06.000Z</time>
      </trkpt>
      <trkpt lat="47.77991" lon="2.34516">
        <ele>113.81936</ele>
        <time>2021-09-09T07:46:07.000Z</time>
      </trkpt>
      <trkpt lat="47.77944" lon="2.34563">
        <ele>113.824176</ele>
        <time>2021-09-09T07:46:16.000Z</time>
      </trkpt>
      <trkpt lat="47.77939" lon="2.34568">
        <ele>113.832015</ele>
        <time>2021-09-09T07:46:17.000Z</time>
      </trkpt>
      <trkpt lat="47.77898" lon="2.34609">
        <ele>113.894249</ele>
        <time>2021-09-09T07:46:25.000Z</time>
      </trkpt>
      <trkpt lat="47.77863" lon="2.34646">
        <ele>113.947833</ele>
        <time>2021-09-09T07:46:32.000Z</time>
      </trkpt>
      <trkpt lat="47.77832" lon="2.34686">
        <ele>114.000192</ele>
        <time>2021-09-09T07:46:39.000Z</time>
      </trkpt>
      <trkpt lat="47.7779" lon="2.3474">
        <ele>114.083376</ele>
        <time>2021-09-09T07:46:48.000Z</time>
      </trkpt>
      <trkpt lat="47.77753" lon="2.34789">
        <ele>114.168555</ele>
        <time>2021-09-09T07:46:56.000Z</time>
      </trkpt>
      <trkpt lat="47.77715" lon="2.34837">
        <ele>114.253617</ele>
        <time>2021-09-09T07:47:04.000Z</time>
      </trkpt>
      <trkpt lat="47.77674" lon="2.34892">
        <ele>114.34805</ele>
        <time>2021-09-09T07:47:13.000Z</time>
      </trkpt>
      <trkpt lat="47.77637" lon="2.34942">
        <ele>114.419964</ele>
        <time>2021-09-09T07:47:21.000Z</time>
      </trkpt>
      <trkpt lat="47.77604" lon="2.34985">
        <ele>114.482431</ele>
        <time>2021-09-09T07:47:28.000Z</time>
      </trkpt>
      <trkpt lat="47.77574" lon="2.35022">
        <ele>114.538445</ele>
        <time>2021-09-09T07:47:34.000Z</time>
      </trkpt>
      <trkpt lat="47.77533" lon="2.35083">
        <ele>114.611951</ele>
        <time>2021-09-09T07:47:43.000Z</time>
      </trkpt>
      <trkpt lat="47.77498" lon="2.35138">
        <ele>114.651697</ele>
        <time>2021-09-09T07:47:51.000Z</time>
      </trkpt>
      <trkpt lat="47.77463" lon="2.35188">
        <ele>114.689929</ele>
        <time>2021-09-09T07:47:59.000Z</time>
      </trkpt>
      <trkpt lat="47.77426" lon="2.3525">
        <ele>114.733629</ele>
        <time>2021-09-09T07:48:08.000Z</time>
      </trkpt>
      <trkpt lat="47.77415" lon="2.35274">
        <ele>114.721936</ele>
        <time>2021-09-09T07:48:11.000Z</time>
      </trkpt>
      <trkpt lat="47.7741" lon="2.35291">
        <ele>114.700712</ele>
        <time>2021-09-09T07:48:13.000Z</time>
      </trkpt>
      <trkpt lat="47.77395" lon="2.35346">
        <ele>114.634699</ele>
        <time>2021-09-09T07:48:19.000Z</time>
      </trkpt>
      <trkpt lat="47.77374" lon="2.35418">
        <ele>114.547488</ele>
        <time>2021-09-09T07:48:27.000Z</time>
      </trkpt>
      <trkpt lat="47.77352" lon="2.35494">
        <ele>114.454858</ele>
        <time>2021-09-09T07:48:35.000Z</time>
      </trkpt>
      <trkpt lat="47.77328" lon="2.35567">
        <ele>114.374558</ele>
        <time>2021-09-09T07:48:43.000Z</time>
      </trkpt>
      <trkpt lat="47.77325" lon="2.35576">
        <ele>114.364972</ele>
        <time>2021-09-09T07:48:44.000Z</time>
      </trkpt>
      <trkpt lat="47.773" lon="2.35653">
        <ele>114.282124</ele>
        <time>2021-09-09T07:48:53.000Z</time>
      </trkpt>
      <trkpt lat="47.77279" lon="2.35718">
        <ele>114.211742</ele>
        <time>2021-09-09T07:49:01.000Z</time>
      </trkpt>
      <trkpt lat="47.77262" lon="2.35788">
        <ele>114.182007</ele>
        <time>2021-09-09T07:49:09.000Z</time>
      </trkpt>
      <trkpt lat="47.7726" lon="2.35797">
        <ele>114.181939</ele>
        <time>2021-09-09T07:49:10.000Z</time>
      </trkpt>
      <trkpt lat="47.77255" lon="2.35834">
        <ele>114.181672</ele>
        <time>2021-09-09T07:49:14.000Z</time>
      </trkpt>
      <trkpt lat="47.77244" lon="2.35905">
        <ele>114.181153</ele>
        <time>2021-09-09T07:49:22.000Z</time>
      </trkpt>
      <trkpt lat="47.77239" lon="2.35941">
        <ele>114.180898</ele>
        <time>2021-09-09T07:49:26.000Z</time>
      </trkpt>
      <trkpt lat="47.77237" lon="2.35959">
        <ele>114.180767</ele>
        <time>2021-09-09T07:49:28.000Z</time>
      </trkpt>
      <trkpt lat="47.77233" lon="2.35986">
        <ele>114.180568</ele>
        <time>2021-09-09T07:49:31.000Z</time>
      </trkpt>
      <trkpt lat="47.77231" lon="2.36005">
        <ele>114.180436</ele>
        <time>2021-09-09T07:49:33.000Z</time>
      </trkpt>
      <trkpt lat="47.77225" lon="2.36048">
        <ele>114.269441</ele>
        <time>2021-09-09T07:49:38.000Z</time>
      </trkpt>
      <trkpt lat="47.77225" lon="2.36057">
        <ele>114.288952</ele>
        <time>2021-09-09T07:49:39.000Z</time>
      </trkpt>
      <trkpt lat="47.77219" lon="2.36112">
        <ele>114.408866</ele>
        <time>2021-09-09T07:49:45.000Z</time>
      </trkpt>
      <trkpt lat="47.77211" lon="2.36178">
        <ele>114.552486</ele>
        <time>2021-09-09T07:49:52.000Z</time>
      </trkpt>
      <trkpt lat="47.77204" lon="2.36235">
        <ele>114.674927</ele>
        <time>2021-09-09T07:49:58.000Z</time>
      </trkpt>
      <trkpt lat="47.77199" lon="2.36262">
        <ele>114.735278</ele>
        <time>2021-09-09T07:50:02.000Z</time>
      </trkpt>
      <trkpt lat="47.77197" lon="2.36277">
        <ele>114.769119</ele>
        <time>2021-09-09T07:50:06.000Z</time>
      </trkpt>
      <trkpt lat="47.7719" lon="2.36295">
        <ele>114.819631</ele>
        <time>2021-09-09T07:50:10.000Z</time>
      </trkpt>
      <trkpt lat="47.77188" lon="2.363">
        <ele>114.833975</ele>
        <time>2021-09-09T07:50:11.000Z</time>
      </trkpt>
      <trkpt lat="47.77188" lon="2.36319">
        <ele>114.879176</ele>
        <time>2021-09-09T07:50:14.000Z</time>
      </trkpt>
      <trkpt lat="47.77186" lon="2.36356">
        <ele>114.968655</ele>
        <time>2021-09-09T07:50:20.000Z</time>
      </trkpt>
      <trkpt lat="47.7718" lon="2.36376">
        <ele>115.021049</ele>
        <time>2021-09-09T07:50:24.000Z</time>
      </trkpt>
      <trkpt lat="47.77177" lon="2.3638">
        <ele>115.03553</ele>
        <time>2021-09-09T07:50:25.000Z</time>
      </trkpt>
      <trkpt lat="47.77174" lon="2.36384">
        <ele>115.048977</ele>
        <time>2021-09-09T07:50:26.000Z</time>
      </trkpt>
      <trkpt lat="47.77172" lon="2.36395">
        <ele>115.076752</ele>
        <time>2021-09-09T07:50:28.000Z</time>
      </trkpt>
      <trkpt lat="47.77169" lon="2.3642">
        <ele>115.137916</ele>
        <time>2021-09-09T07:50:31.000Z</time>
      </trkpt>
      <trkpt lat="47.77168" lon="2.36429">
        <ele>115.160671</ele>
        <time>2021-09-09T07:50:32.000Z</time>
      </trkpt>
      <trkpt lat="47.77166" lon="2.36449">
        <ele>115.209105</ele>
        <time>2021-09-09T07:50:34.000Z</time>
      </trkpt>
      <trkpt lat="47.77164" lon="2.36468">
        <ele>115.254139</ele>
        <time>2021-09-09T07:50:36.000Z</time>
      </trkpt>
      <trkpt lat="47.7715" lon="2.36516">
        <ele>115.380985</ele>
        <time>2021-09-09T07:50:41.000Z</time>
      </trkpt>
      <trkpt lat="47.77144" lon="2.36534">
        <ele>115.458918</ele>
        <time>2021-09-09T07:50:43.000Z</time>
      </trkpt>
      <trkpt lat="47.77136" lon="2.36549">
        <ele>115.548932</ele>
        <time>2021-09-09T07:50:45.000Z</time>
      </trkpt>
      <trkpt lat="47.77131" lon="2.36556">
        <ele>115.593855</ele>
        <time>2021-09-09T07:50:46.000Z</time>
      </trkpt>
      <trkpt lat="47.77124" lon="2.3657">
        <ele>115.676399</ele>
        <time>2021-09-09T07:50:48.000Z</time>
      </trkpt>
      <trkpt lat="47.77105" lon="2.36619">
        <ele>115.932201</ele>
        <time>2021-09-09T07:50:54.000Z</time>
      </trkpt>
      <trkpt lat="47.77096" lon="2.36642">
        <ele>116.053286</ele>
        <time>2021-09-09T07:50:57.000Z</time>
      </trkpt>
      <trkpt lat="47.77094" lon="2.3665">
        <ele>116.092802</ele>
        <time>2021-09-09T07:50:58.000Z</time>
      </trkpt>
      <trkpt lat="47.77085" lon="2.36672">
        <ele>116.210182</ele>
        <time>2021-09-09T07:51:01.000Z</time>
      </trkpt>
      <trkpt lat="47.77079" lon="2.36685">
        <ele>116.281912</ele>
        <time>2021-09-09T07:51:03.000Z</time>
      </trkpt>
      <trkpt lat="47.77076" lon="2.36699">
        <ele>116.35178</ele>
        <time>2021-09-09T07:51:05.000Z</time>
      </trkpt>
      <trkpt lat="47.77076" lon="2.36706">
        <ele>116.384502</ele>
        <time>2021-09-09T07:51:06.000Z</time>
      </trkpt>
      <trkpt lat="47.77076" lon="2.36722">
        <ele>116.455409</ele>
        <time>2021-09-09T07:51:08.000Z</time>
      </trkpt>
      <trkpt lat="47.77078" lon="2.36739">
        <ele>116.53275</ele>
        <time>2021-09-09T07:51:10.000Z</time>
      </trkpt>
      <trkpt lat="47.77081" lon="2.36754">
        <ele>116.606663</ele>
        <time>2021-09-09T07:51:12.000Z</time>
      </trkpt>
      <trkpt lat="47.77077" lon="2.36764">
        <ele>116.649135</ele>
        <time>2021-09-09T07:51:14.000Z</time>
      </trkpt>
      <trkpt lat="47.77071" lon="2.36766">
        <ele>116.680971</ele>
        <time>2021-09-09T07:51:16.000Z</time>
      </trkpt>
      <trkpt lat="47.77066" lon="2.36772">
        <ele>116.717035</ele>
        <time>2021-09-09T07:51:18.000Z</time>
      </trkpt>
      <trkpt lat="47.77069" lon="2.36789">
        <ele>116.779801</ele>
        <time>2021-09-09T07:51:21.000Z</time>
      </trkpt>
      <trkpt lat="47.77075" lon="2.36819">
        <ele>116.895048</ele>
        <time>2021-09-09T07:51:28.000Z</time>
      </trkpt>
      <trkpt lat="47.77082" lon="2.36838">
        <ele>116.97158</ele>
        <time>2021-09-09T07:51:33.000Z</time>
      </trkpt>
      <trkpt lat="47.77085" lon="2.36839">
        <ele>116.987268</ele>
        <time>2021-09-09T07:51:34.000Z</time>
      </trkpt>
      <trkpt lat="47.77093" lon="2.36839">
        <ele>117.028279</ele>
        <time>2021-09-09T07:51:36.000Z</time>
      </trkpt>
      <trkpt lat="47.77125" lon="2.36836">
        <ele>117.199905</ele>
        <time>2021-09-09T07:51:43.000Z</time>
      </trkpt>
      <trkpt lat="47.77149" lon="2.36831">
        <ele>117.330511</ele>
        <time>2021-09-09T07:51:49.000Z</time>
      </trkpt>
      <trkpt lat="47.77155" lon="2.36835">
        <ele>117.364293</ele>
        <time>2021-09-09T07:51:51.000Z</time>
      </trkpt>
      <trkpt lat="47.77156" lon="2.36839">
        <ele>117.381747</ele>
        <time>2021-09-09T07:51:52.000Z</time>
      </trkpt>
      <trkpt lat="47.7715" lon="2.36847">
        <ele>117.423726</ele>
        <time>2021-09-09T07:51:54.000Z</time>
      </trkpt>
      <trkpt lat="47.77146" lon="2.36849">
        <ele>117.447585</ele>
        <time>2021-09-09T07:51:55.000Z</time>
      </trkpt>
      <trkpt lat="47.77123" lon="2.36855">
        <ele>117.569817</ele>
        <time>2021-09-09T07:52:00.000Z</time>
      </trkpt>
      <trkpt lat="47.77102" lon="2.36863">
        <ele>117.669382</ele>
        <time>2021-09-09T07:52:05.000Z</time>
      </trkpt>
      <trkpt lat="47.77077" lon="2.3687">
        <ele>117.783569</ele>
        <time>2021-09-09T07:52:11.000Z</time>
      </trkpt>
      <trkpt lat="47.77069" lon="2.36873">
        <ele>117.822509</ele>
        <time>2021-09-09T07:52:13.000Z</time>
      </trkpt>
      <trkpt lat="47.77056" lon="2.36878">
        <ele>117.88213</ele>
        <time>2021-09-09T07:52:16.000Z</time>
      </trkpt>
      <trkpt lat="47.7703" lon="2.36887">
        <ele>118.002744</ele>
        <time>2021-09-09T07:52:22.000Z</time>
      </trkpt>
      <trkpt lat="47.77021" lon="2.36891">
        <ele>118.044959</ele>
        <time>2021-09-09T07:52:24.000Z</time>
      </trkpt>
      <trkpt lat="47.77007" lon="2.36897">
        <ele>118.110163</ele>
        <time>2021-09-09T07:52:27.000Z</time>
      </trkpt>
      <trkpt lat="47.76971" lon="2.36908">
        <ele>118.275328</ele>
        <time>2021-09-09T07:52:34.000Z</time>
      </trkpt>
      <trkpt lat="47.76931" lon="2.36922">
        <ele>118.449813</ele>
        <time>2021-09-09T07:52:41.000Z</time>
      </trkpt>
      <trkpt lat="47.76897" lon="2.36933">
        <ele>118.584026</ele>
        <time>2021-09-09T07:52:47.000Z</time>
      </trkpt>
      <trkpt lat="47.76869" lon="2.36942">
        <ele>118.696008</ele>
        <time>2021-09-09T07:52:52.000Z</time>
      </trkpt>
      <trkpt lat="47.76835" lon="2.36954">
        <ele>118.831966</ele>
        <time>2021-09-09T07:52:58.000Z</time>
      </trkpt>
      <trkpt lat="47.76807" lon="2.36964">
        <ele>118.944423</ele>
        <time>2021-09-09T07:53:03.000Z</time>
      </trkpt>
      <trkpt lat="47.76771" lon="2.36977">
        <ele>119.079615</ele>
        <time>2021-09-09T07:53:09.000Z</time>
      </trkpt>
      <trkpt lat="47.76735" lon="2.36991">
        <ele>118.945962</ele>
        <time>2021-09-09T07:53:15.000Z</time>
      </trkpt>
      <trkpt lat="47.76719" lon="2.36996">
        <ele>118.887335</ele>
        <time>2021-09-09T07:53:18.000Z</time>
      </trkpt>
      <trkpt lat="47.76714" lon="2.36999">
        <ele>118.870943</ele>
        <time>2021-09-09T07:53:19.000Z</time>
      </trkpt>
      <trkpt lat="47.76711" lon="2.37003">
        <ele>118.855679</ele>
        <time>2021-09-09T07:53:20.000Z</time>
      </trkpt>
      <trkpt lat="47.76711" lon="2.37009">
        <ele>118.840003</ele>
        <time>2021-09-09T07:53:21.000Z</time>
      </trkpt>
      <trkpt lat="47.76716" lon="2.37032">
        <ele>118.782587</ele>
        <time>2021-09-09T07:53:24.000Z</time>
      </trkpt>
      <trkpt lat="47.76718" lon="2.3704">
        <ele>118.761776</ele>
        <time>2021-09-09T07:53:25.000Z</time>
      </trkpt>
      <trkpt lat="47.76734" lon="2.37094">
        <ele>118.619141</ele>
        <time>2021-09-09T07:53:31.000Z</time>
      </trkpt>
      <trkpt lat="47.76749" lon="2.37167">
        <ele>118.439155</ele>
        <time>2021-09-09T07:53:38.000Z</time>
      </trkpt>
      <trkpt lat="47.76753" lon="2.37185">
        <ele>118.428669</ele>
        <time>2021-09-09T07:53:40.000Z</time>
      </trkpt>
      <trkpt lat="47.76757" lon="2.37201">
        <ele>118.419444</ele>
        <time>2021-09-09T07:53:42.000Z</time>
      </trkpt>
      <trkpt lat="47.76765" lon="2.37238">
        <ele>118.398101</ele>
        <time>2021-09-09T07:53:46.000Z</time>
      </trkpt>
      <trkpt lat="47.76769" lon="2.37255">
        <ele>118.387935</ele>
        <time>2021-09-09T07:53:48.000Z</time>
      </trkpt>
      <trkpt lat="47.76773" lon="2.3728">
        <ele>118.374178</ele>
        <time>2021-09-09T07:53:51.000Z</time>
      </trkpt>
      <trkpt lat="47.76778" lon="2.37295">
        <ele>118.365088</ele>
        <time>2021-09-09T07:53:53.000Z</time>
      </trkpt>
      <trkpt lat="47.76786" lon="2.37334">
        <ele>118.342367</ele>
        <time>2021-09-09T07:53:58.000Z</time>
      </trkpt>
      <trkpt lat="47.76793" lon="2.37366">
        <ele>118.324135</ele>
        <time>2021-09-09T07:54:02.000Z</time>
      </trkpt>
      <trkpt lat="47.76797" lon="2.37382">
        <ele>118.314799</ele>
        <time>2021-09-09T07:54:06.000Z</time>
      </trkpt>
      <trkpt lat="47.76798" lon="2.37383">
        <ele>118.314066</ele>
        <time>2021-09-09T07:54:08.000Z</time>
      </trkpt>
      <trkpt lat="47.76798" lon="2.37386">
        <ele>118.312466</ele>
        <time>2021-09-09T07:54:17.000Z</time>
      </trkpt>
      <trkpt lat="47.768" lon="2.37389">
        <ele>118.310644</ele>
        <time>2021-09-09T07:54:18.000Z</time>
      </trkpt>
      <trkpt lat="47.76809" lon="2.37406">
        <ele>118.298581</ele>
        <time>2021-09-09T07:54:22.000Z</time>
      </trkpt>
      <trkpt lat="47.7682" lon="2.37441">
        <ele>118.430874</ele>
        <time>2021-09-09T07:54:27.000Z</time>
      </trkpt>
      <trkpt lat="47.76836" lon="2.37486">
        <ele>118.671821</ele>
        <time>2021-09-09T07:54:33.000Z</time>
      </trkpt>
      <trkpt lat="47.7686" lon="2.37554">
        <ele>119.034577</ele>
        <time>2021-09-09T07:54:42.000Z</time>
      </trkpt>
      <trkpt lat="47.76878" lon="2.37607">
        <ele>119.314363</ele>
        <time>2021-09-09T07:54:50.000Z</time>
      </trkpt>
      <trkpt lat="47.76886" lon="2.37628">
        <ele>119.425367</ele>
        <time>2021-09-09T07:54:55.000Z</time>
      </trkpt>
      <trkpt lat="47.76889" lon="2.37633">
        <ele>119.461175</ele>
        <time>2021-09-09T07:55:00.000Z</time>
      </trkpt>
      <trkpt lat="47.76893" lon="2.37647">
        <ele>119.532283</ele>
        <time>2021-09-09T07:55:19.000Z</time>
      </trkpt>
      <trkpt lat="47.76895" lon="2.37657">
        <ele>119.573552</ele>
        <time>2021-09-09T07:55:21.000Z</time>
      </trkpt>
      <trkpt lat="47.76906" lon="2.37692">
        <ele>119.722514</ele>
        <time>2021-09-09T07:55:26.000Z</time>
      </trkpt>
      <trkpt lat="47.76921" lon="2.37733">
        <ele>119.901113</ele>
        <time>2021-09-09T07:55:31.000Z</time>
      </trkpt>
      <trkpt lat="47.76924" lon="2.37741">
        <ele>119.937541</ele>
        <time>2021-09-09T07:55:32.000Z</time>
      </trkpt>
      <trkpt lat="47.76941" lon="2.37796">
        <ele>120.166724</ele>
        <time>2021-09-09T07:55:38.000Z</time>
      </trkpt>
      <trkpt lat="47.7696" lon="2.37851">
        <ele>120.40169</ele>
        <time>2021-09-09T07:55:44.000Z</time>
      </trkpt>
      <trkpt lat="47.76976" lon="2.37902">
        <ele>120.570164</ele>
        <time>2021-09-09T07:55:50.000Z</time>
      </trkpt>
      <trkpt lat="47.76979" lon="2.37911">
        <ele>120.565281</ele>
        <time>2021-09-09T07:55:51.000Z</time>
      </trkpt>
      <trkpt lat="47.76993" lon="2.37955">
        <ele>120.540833</ele>
        <time>2021-09-09T07:55:56.000Z</time>
      </trkpt>
      <trkpt lat="47.77" lon="2.37971">
        <ele>120.531392</ele>
        <time>2021-09-09T07:55:58.000Z</time>
      </trkpt>
      <trkpt lat="47.77017" lon="2.38023">
        <ele>120.502614</ele>
        <time>2021-09-09T07:56:04.000Z</time>
      </trkpt>
      <trkpt lat="47.77031" lon="2.38066">
        <ele>120.47851</ele>
        <time>2021-09-09T07:56:09.000Z</time>
      </trkpt>
      <trkpt lat="47.77047" lon="2.38116">
        <ele>120.451078</ele>
        <time>2021-09-09T07:56:15.000Z</time>
      </trkpt>
      <trkpt lat="47.77063" lon="2.38162">
        <ele>120.400172</ele>
        <time>2021-09-09T07:56:21.000Z</time>
      </trkpt>
      <trkpt lat="47.77082" lon="2.38217">
        <ele>120.32239</ele>
        <time>2021-09-09T07:56:28.000Z</time>
      </trkpt>
      <trkpt lat="47.77091" lon="2.38249">
        <ele>120.278533</ele>
        <time>2021-09-09T07:56:32.000Z</time>
      </trkpt>
      <trkpt lat="47.77097" lon="2.38265">
        <ele>120.255807</ele>
        <time>2021-09-09T07:56:34.000Z</time>
      </trkpt>
      <trkpt lat="47.7711" lon="2.383">
        <ele>120.205723</ele>
        <time>2021-09-09T07:56:39.000Z</time>
      </trkpt>
      <trkpt lat="47.77116" lon="2.3831">
        <ele>120.189207</ele>
        <time>2021-09-09T07:56:41.000Z</time>
      </trkpt>
      <trkpt lat="47.77127" lon="2.38325">
        <ele>120.160642</ele>
        <time>2021-09-09T07:56:44.000Z</time>
      </trkpt>
      <trkpt lat="47.77131" lon="2.38331">
        <ele>120.150735</ele>
        <time>2021-09-09T07:56:45.000Z</time>
      </trkpt>
      <trkpt lat="47.77136" lon="2.38346">
        <ele>120.130416</ele>
        <time>2021-09-09T07:56:47.000Z</time>
      </trkpt>
      <trkpt lat="47.77137" lon="2.38354">
        <ele>120.120393</ele>
        <time>2021-09-09T07:56:48.000Z</time>
      </trkpt>
      <trkpt lat="47.77142" lon="2.38394">
        <ele>120.095206</ele>
        <time>2021-09-09T07:56:53.000Z</time>
      </trkpt>
      <trkpt lat="47.77143" lon="2.38403">
        <ele>120.091652</ele>
        <time>2021-09-09T07:56:54.000Z</time>
      </trkpt>
      <trkpt lat="47.77152" lon="2.38474">
        <ele>120.062587</ele>
        <time>2021-09-09T07:57:02.000Z</time>
      </trkpt>
      <trkpt lat="47.77156" lon="2.38529">
        <ele>120.040083</ele>
        <time>2021-09-09T07:57:08.000Z</time>
      </trkpt>
      <trkpt lat="47.77161" lon="2.38612">
        <ele>120.006894</ele>
        <time>2021-09-09T07:57:17.000Z</time>
      </trkpt>
      <trkpt lat="47.77164" lon="2.38685">
        <ele>119.966353</ele>
        <time>2021-09-09T07:57:25.000Z</time>
      </trkpt>
      <trkpt lat="47.7717" lon="2.38772">
        <ele>119.91429</ele>
        <time>2021-09-09T07:57:34.000Z</time>
      </trkpt>
      <trkpt lat="47.77176" lon="2.3886">
        <ele>119.861566</ele>
        <time>2021-09-09T07:57:43.000Z</time>
      </trkpt>
      <trkpt lat="47.77179" lon="2.38949">
        <ele>119.810846</ele>
        <time>2021-09-09T07:57:52.000Z</time>
      </trkpt>
      <trkpt lat="47.77178" lon="2.39025">
        <ele>119.768244</ele>
        <time>2021-09-09T07:58:00.000Z</time>
      </trkpt>
      <trkpt lat="47.77177" lon="2.39112">
        <ele>119.719654</ele>
        <time>2021-09-09T07:58:09.000Z</time>
      </trkpt>
      <trkpt lat="47.77176" lon="2.39122">
        <ele>119.714285</ele>
        <time>2021-09-09T07:58:10.000Z</time>
      </trkpt>
      <trkpt lat="47.77172" lon="2.39181">
        <ele>119.695661</ele>
        <time>2021-09-09T07:58:16.000Z</time>
      </trkpt>
      <trkpt lat="47.77161" lon="2.39248">
        <ele>119.711594</ele>
        <time>2021-09-09T07:58:23.000Z</time>
      </trkpt>
      <trkpt lat="47.77145" lon="2.3931">
        <ele>119.727113</ele>
        <time>2021-09-09T07:58:30.000Z</time>
      </trkpt>
      <trkpt lat="47.77135" lon="2.39346">
        <ele>119.735991</ele>
        <time>2021-09-09T07:58:34.000Z</time>
      </trkpt>
      <trkpt lat="47.7713" lon="2.39363">
        <ele>119.740434</ele>
        <time>2021-09-09T07:58:36.000Z</time>
      </trkpt>
      <trkpt lat="47.77101" lon="2.3944">
        <ele>119.781711</ele>
        <time>2021-09-09T07:58:45.000Z</time>
      </trkpt>
      <trkpt lat="47.77076" lon="2.39506">
        <ele>119.84951</ele>
        <time>2021-09-09T07:58:53.000Z</time>
      </trkpt>
      <trkpt lat="47.77058" lon="2.39578">
        <ele>119.918052</ele>
        <time>2021-09-09T07:59:01.000Z</time>
      </trkpt>
      <trkpt lat="47.7704" lon="2.3965">
        <ele>119.985905</ele>
        <time>2021-09-09T07:59:09.000Z</time>
      </trkpt>
      <trkpt lat="47.77033" lon="2.39674">
        <ele>120.012819</ele>
        <time>2021-09-09T07:59:12.000Z</time>
      </trkpt>
      <trkpt lat="47.77027" lon="2.39689">
        <ele>120.032055</ele>
        <time>2021-09-09T07:59:14.000Z</time>
      </trkpt>
      <trkpt lat="47.77003" lon="2.3975">
        <ele>120.109154</ele>
        <time>2021-09-09T07:59:22.000Z</time>
      </trkpt>
      <trkpt lat="47.77001" lon="2.39757">
        <ele>120.11803</ele>
        <time>2021-09-09T07:59:23.000Z</time>
      </trkpt>
      <trkpt lat="47.76984" lon="2.398">
        <ele>120.170968</ele>
        <time>2021-09-09T07:59:29.000Z</time>
      </trkpt>
      <trkpt lat="47.76969" lon="2.39846">
        <ele>120.226617</ele>
        <time>2021-09-09T07:59:36.000Z</time>
      </trkpt>
      <trkpt lat="47.76962" lon="2.39868">
        <ele>120.253528</ele>
        <time>2021-09-09T07:59:39.000Z</time>
      </trkpt>
      <trkpt lat="47.76957" lon="2.39884">
        <ele>120.27273</ele>
        <time>2021-09-09T07:59:41.000Z</time>
      </trkpt>
      <trkpt lat="47.76935" lon="2.39948">
        <ele>120.373991</ele>
        <time>2021-09-09T07:59:49.000Z</time>
      </trkpt>
      <trkpt lat="47.76925" lon="2.39978">
        <ele>120.423009</ele>
        <time>2021-09-09T07:59:53.000Z</time>
      </trkpt>
      <trkpt lat="47.7692" lon="2.39993">
        <ele>120.449019</ele>
        <time>2021-09-09T07:59:55.000Z</time>
      </trkpt>
      <trkpt lat="47.769" lon="2.40051">
        <ele>120.543364</ele>
        <time>2021-09-09T08:00:02.000Z</time>
      </trkpt>
      <trkpt lat="47.76874" lon="2.40126">
        <ele>120.667568</ele>
        <time>2021-09-09T08:00:11.000Z</time>
      </trkpt>
      <trkpt lat="47.76871" lon="2.40135">
        <ele>120.681557</ele>
        <time>2021-09-09T08:00:12.000Z</time>
      </trkpt>
      <trkpt lat="47.76855" lon="2.40186">
        <ele>120.761774</ele>
        <time>2021-09-09T08:00:18.000Z</time>
      </trkpt>
      <trkpt lat="47.76853" lon="2.40194">
        <ele>120.774636</ele>
        <time>2021-09-09T08:00:19.000Z</time>
      </trkpt>
      <trkpt lat="47.76845" lon="2.40228">
        <ele>120.82521</ele>
        <time>2021-09-09T08:00:23.000Z</time>
      </trkpt>
      <trkpt lat="47.76841" lon="2.40254">
        <ele>120.862503</ele>
        <time>2021-09-09T08:00:26.000Z</time>
      </trkpt>
      <trkpt lat="47.76827" lon="2.40323">
        <ele>120.965228</ele>
        <time>2021-09-09T08:00:34.000Z</time>
      </trkpt>
      <trkpt lat="47.76826" lon="2.40332">
        <ele>120.978491</ele>
        <time>2021-09-09T08:00:35.000Z</time>
      </trkpt>
      <trkpt lat="47.76819" lon="2.40377">
        <ele>121.043759</ele>
        <time>2021-09-09T08:00:40.000Z</time>
      </trkpt>
      <trkpt lat="47.76807" lon="2.40447">
        <ele>121.045788</ele>
        <time>2021-09-09T08:00:48.000Z</time>
      </trkpt>
      <trkpt lat="47.76795" lon="2.40518">
        <ele>121.036476</ele>
        <time>2021-09-09T08:00:56.000Z</time>
      </trkpt>
      <trkpt lat="47.76783" lon="2.40587">
        <ele>121.027347</ele>
        <time>2021-09-09T08:01:04.000Z</time>
      </trkpt>
      <trkpt lat="47.7678" lon="2.40612">
        <ele>121.024017</ele>
        <time>2021-09-09T08:01:07.000Z</time>
      </trkpt>
      <trkpt lat="47.76774" lon="2.40638">
        <ele>121.020568</ele>
        <time>2021-09-09T08:01:10.000Z</time>
      </trkpt>
      <trkpt lat="47.7676" lon="2.40716">
        <ele>120.998417</ele>
        <time>2021-09-09T08:01:19.000Z</time>
      </trkpt>
      <trkpt lat="47.76757" lon="2.40734">
        <ele>120.993065</ele>
        <time>2021-09-09T08:01:21.000Z</time>
      </trkpt>
      <trkpt lat="47.76747" lon="2.40797">
        <ele>120.974733</ele>
        <time>2021-09-09T08:01:28.000Z</time>
      </trkpt>
      <trkpt lat="47.76739" lon="2.4087">
        <ele>120.953944</ele>
        <time>2021-09-09T08:01:36.000Z</time>
      </trkpt>
      <trkpt lat="47.7673" lon="2.40945">
        <ele>120.952561</ele>
        <time>2021-09-09T08:01:44.000Z</time>
      </trkpt>
      <trkpt lat="47.76721" lon="2.41011">
        <ele>120.966538</ele>
        <time>2021-09-09T08:01:51.000Z</time>
      </trkpt>
      <trkpt lat="47.76708" lon="2.41093">
        <ele>120.984233</ele>
        <time>2021-09-09T08:02:00.000Z</time>
      </trkpt>
      <trkpt lat="47.76705" lon="2.41111">
        <ele>120.988082</ele>
        <time>2021-09-09T08:02:02.000Z</time>
      </trkpt>
      <trkpt lat="47.76694" lon="2.41182">
        <ele>120.989213</ele>
        <time>2021-09-09T08:02:10.000Z</time>
      </trkpt>
      <trkpt lat="47.76683" lon="2.41242">
        <ele>120.949122</ele>
        <time>2021-09-09T08:02:17.000Z</time>
      </trkpt>
      <trkpt lat="47.76668" lon="2.41328">
        <ele>120.891717</ele>
        <time>2021-09-09T08:02:27.000Z</time>
      </trkpt>
      <trkpt lat="47.7666" lon="2.41413">
        <ele>120.836232</ele>
        <time>2021-09-09T08:02:36.000Z</time>
      </trkpt>
      <trkpt lat="47.76655" lon="2.41476">
        <ele>120.795576</ele>
        <time>2021-09-09T08:02:43.000Z</time>
      </trkpt>
      <trkpt lat="47.76653" lon="2.415">
        <ele>120.779513</ele>
        <time>2021-09-09T08:02:46.000Z</time>
      </trkpt>
      <trkpt lat="47.76651" lon="2.41518">
        <ele>120.768109</ele>
        <time>2021-09-09T08:02:48.000Z</time>
      </trkpt>
      <trkpt lat="47.76646" lon="2.41601">
        <ele>120.713708</ele>
        <time>2021-09-09T08:02:57.000Z</time>
      </trkpt>
      <trkpt lat="47.76641" lon="2.41683">
        <ele>120.660606</ele>
        <time>2021-09-09T08:03:06.000Z</time>
      </trkpt>
      <trkpt lat="47.7664" lon="2.41692">
        <ele>120.654757</ele>
        <time>2021-09-09T08:03:07.000Z</time>
      </trkpt>
      <trkpt lat="47.76636" lon="2.41756">
        <ele>120.646908</ele>
        <time>2021-09-09T08:03:14.000Z</time>
      </trkpt>
      <trkpt lat="47.76623" lon="2.41816">
        <ele>120.639658</ele>
        <time>2021-09-09T08:03:21.000Z</time>
      </trkpt>
      <trkpt lat="47.76606" lon="2.41884">
        <ele>120.631398</ele>
        <time>2021-09-09T08:03:29.000Z</time>
      </trkpt>
      <trkpt lat="47.76595" lon="2.41957">
        <ele>120.627208</ele>
        <time>2021-09-09T08:03:37.000Z</time>
      </trkpt>
      <trkpt lat="47.76588" lon="2.42039">
        <ele>120.681991</ele>
        <time>2021-09-09T08:03:46.000Z</time>
      </trkpt>
      <trkpt lat="47.76584" lon="2.42066">
        <ele>120.699984</ele>
        <time>2021-09-09T08:03:49.000Z</time>
      </trkpt>
      <trkpt lat="47.76572" lon="2.42138">
        <ele>120.74909</ele>
        <time>2021-09-09T08:03:57.000Z</time>
      </trkpt>
      <trkpt lat="47.76558" lon="2.42219">
        <ele>120.802965</ele>
        <time>2021-09-09T08:04:06.000Z</time>
      </trkpt>
      <trkpt lat="47.76556" lon="2.42228">
        <ele>120.80722</ele>
        <time>2021-09-09T08:04:07.000Z</time>
      </trkpt>
      <trkpt lat="47.76543" lon="2.42299">
        <ele>120.840709</ele>
        <time>2021-09-09T08:04:15.000Z</time>
      </trkpt>
      <trkpt lat="47.76537" lon="2.42335">
        <ele>120.857466</ele>
        <time>2021-09-09T08:04:19.000Z</time>
      </trkpt>
      <trkpt lat="47.76536" lon="2.42363">
        <ele>120.869986</ele>
        <time>2021-09-09T08:04:22.000Z</time>
      </trkpt>
      <trkpt lat="47.76538" lon="2.42381">
        <ele>120.878466</ele>
        <time>2021-09-09T08:04:24.000Z</time>
      </trkpt>
      <trkpt lat="47.76542" lon="2.424">
        <ele>120.887121</ele>
        <time>2021-09-09T08:04:26.000Z</time>
      </trkpt>
      <trkpt lat="47.76544" lon="2.42409">
        <ele>120.891465</ele>
        <time>2021-09-09T08:04:27.000Z</time>
      </trkpt>
      <trkpt lat="47.76561" lon="2.42479">
        <ele>120.926671</ele>
        <time>2021-09-09T08:04:35.000Z</time>
      </trkpt>
      <trkpt lat="47.76578" lon="2.42548">
        <ele>120.971957</ele>
        <time>2021-09-09T08:04:43.000Z</time>
      </trkpt>
      <trkpt lat="47.76586" lon="2.42603">
        <ele>121.006099</ele>
        <time>2021-09-09T08:04:49.000Z</time>
      </trkpt>
      <trkpt lat="47.76585" lon="2.42658">
        <ele>121.039923</ele>
        <time>2021-09-09T08:04:55.000Z</time>
      </trkpt>
      <trkpt lat="47.76582" lon="2.42722">
        <ele>121.079023</ele>
        <time>2021-09-09T08:05:02.000Z</time>
      </trkpt>
      <trkpt lat="47.76578" lon="2.42782">
        <ele>121.14012</ele>
        <time>2021-09-09T08:05:09.000Z</time>
      </trkpt>
      <trkpt lat="47.76573" lon="2.42855">
        <ele>121.21903</ele>
        <time>2021-09-09T08:05:17.000Z</time>
      </trkpt>
      <trkpt lat="47.76571" lon="2.42938">
        <ele>121.308423</ele>
        <time>2021-09-09T08:05:26.000Z</time>
      </trkpt>
      <trkpt lat="47.76576" lon="2.43021">
        <ele>121.356396</ele>
        <time>2021-09-09T08:05:35.000Z</time>
      </trkpt>
      <trkpt lat="47.76579" lon="2.43103">
        <ele>121.292611</ele>
        <time>2021-09-09T08:05:44.000Z</time>
      </trkpt>
      <trkpt lat="47.76579" lon="2.43112">
        <ele>121.285612</ele>
        <time>2021-09-09T08:05:45.000Z</time>
      </trkpt>
      <trkpt lat="47.76578" lon="2.43193">
        <ele>121.222691</ele>
        <time>2021-09-09T08:05:54.000Z</time>
      </trkpt>
      <trkpt lat="47.76577" lon="2.43201">
        <ele>121.216065</ele>
        <time>2021-09-09T08:05:55.000Z</time>
      </trkpt>
      <trkpt lat="47.76575" lon="2.43263">
        <ele>121.167607</ele>
        <time>2021-09-09T08:06:02.000Z</time>
      </trkpt>
      <trkpt lat="47.7657" lon="2.43327">
        <ele>121.183387</ele>
        <time>2021-09-09T08:06:09.000Z</time>
      </trkpt>
      <trkpt lat="47.7656" lon="2.43398">
        <ele>121.203543</ele>
        <time>2021-09-09T08:06:17.000Z</time>
      </trkpt>
      <trkpt lat="47.76549" lon="2.43477">
        <ele>121.225849</ele>
        <time>2021-09-09T08:06:26.000Z</time>
      </trkpt>
      <trkpt lat="47.76546" lon="2.43494">
        <ele>121.230765</ele>
        <time>2021-09-09T08:06:28.000Z</time>
      </trkpt>
      <trkpt lat="47.76536" lon="2.43571">
        <ele>121.286527</ele>
        <time>2021-09-09T08:06:37.000Z</time>
      </trkpt>
      <trkpt lat="47.76528" lon="2.43642">
        <ele>121.361025</ele>
        <time>2021-09-09T08:06:45.000Z</time>
      </trkpt>
      <trkpt lat="47.76518" lon="2.43729">
        <ele>121.453349</ele>
        <time>2021-09-09T08:06:55.000Z</time>
      </trkpt>
      <trkpt lat="47.76517" lon="2.43737">
        <ele>121.462714</ele>
        <time>2021-09-09T08:06:56.000Z</time>
      </trkpt>
      <trkpt lat="47.76507" lon="2.43815">
        <ele>121.557951</ele>
        <time>2021-09-09T08:07:05.000Z</time>
      </trkpt>
      <trkpt lat="47.76497" lon="2.43882">
        <ele>121.666913</ele>
        <time>2021-09-09T08:07:13.000Z</time>
      </trkpt>
      <trkpt lat="47.76484" lon="2.43952">
        <ele>121.780793</ele>
        <time>2021-09-09T08:07:21.000Z</time>
      </trkpt>
      <trkpt lat="47.76469" lon="2.44028">
        <ele>121.905982</ele>
        <time>2021-09-09T08:07:30.000Z</time>
      </trkpt>
      <trkpt lat="47.76457" lon="2.44088">
        <ele>121.998097</ele>
        <time>2021-09-09T08:07:37.000Z</time>
      </trkpt>
      <trkpt lat="47.76438" lon="2.44165">
        <ele>122.111529</ele>
        <time>2021-09-09T08:07:46.000Z</time>
      </trkpt>
      <trkpt lat="47.76421" lon="2.44233">
        <ele>122.211522</ele>
        <time>2021-09-09T08:07:54.000Z</time>
      </trkpt>
      <trkpt lat="47.76402" lon="2.44301">
        <ele>122.314209</ele>
        <time>2021-09-09T08:08:02.000Z</time>
      </trkpt>
      <trkpt lat="47.76382" lon="2.44348">
        <ele>122.379063</ele>
        <time>2021-09-09T08:08:08.000Z</time>
      </trkpt>
      <trkpt lat="47.76367" lon="2.44386">
        <ele>122.430613</ele>
        <time>2021-09-09T08:08:13.000Z</time>
      </trkpt>
      <trkpt lat="47.76345" lon="2.44466">
        <ele>122.533648</ele>
        <time>2021-09-09T08:08:23.000Z</time>
      </trkpt>
      <trkpt lat="47.76325" lon="2.44542">
        <ele>122.628195</ele>
        <time>2021-09-09T08:08:32.000Z</time>
      </trkpt>
      <trkpt lat="47.76323" lon="2.4455">
        <ele>122.64058</ele>
        <time>2021-09-09T08:08:33.000Z</time>
      </trkpt>
      <trkpt lat="47.76303" lon="2.44605">
        <ele>122.730664</ele>
        <time>2021-09-09T08:08:40.000Z</time>
      </trkpt>
      <trkpt lat="47.76279" lon="2.44668">
        <ele>122.832979</ele>
        <time>2021-09-09T08:08:48.000Z</time>
      </trkpt>
      <trkpt lat="47.76253" lon="2.44737">
        <ele>122.946175</ele>
        <time>2021-09-09T08:08:57.000Z</time>
      </trkpt>
      <trkpt lat="47.76234" lon="2.44791">
        <ele>123.019084</ele>
        <time>2021-09-09T08:09:04.000Z</time>
      </trkpt>
      <trkpt lat="47.7621" lon="2.44852">
        <ele>123.05584</ele>
        <time>2021-09-09T08:09:12.000Z</time>
      </trkpt>
      <trkpt lat="47.76184" lon="2.44912">
        <ele>123.092651</ele>
        <time>2021-09-09T08:09:20.000Z</time>
      </trkpt>
      <trkpt lat="47.76163" lon="2.44965">
        <ele>123.124991</ele>
        <time>2021-09-09T08:09:27.000Z</time>
      </trkpt>
      <trkpt lat="47.76138" lon="2.45035">
        <ele>123.117462</ele>
        <time>2021-09-09T08:09:36.000Z</time>
      </trkpt>
      <trkpt lat="47.76115" lon="2.45106">
        <ele>123.034138</ele>
        <time>2021-09-09T08:09:45.000Z</time>
      </trkpt>
      <trkpt lat="47.76094" lon="2.45171">
        <ele>122.958429</ele>
        <time>2021-09-09T08:09:53.000Z</time>
      </trkpt>
      <trkpt lat="47.76063" lon="2.45247">
        <ele>122.867948</ele>
        <time>2021-09-09T08:10:03.000Z</time>
      </trkpt>
      <trkpt lat="47.7604" lon="2.45297">
        <ele>122.839527</ele>
        <time>2021-09-09T08:10:10.000Z</time>
      </trkpt>
      <trkpt lat="47.76014" lon="2.45347">
        <ele>122.81002</ele>
        <time>2021-09-09T08:10:17.000Z</time>
      </trkpt>
      <trkpt lat="47.75994" lon="2.4539">
        <ele>122.785167</ele>
        <time>2021-09-09T08:10:23.000Z</time>
      </trkpt>
      <trkpt lat="47.75977" lon="2.45426">
        <ele>122.764492</ele>
        <time>2021-09-09T08:10:28.000Z</time>
      </trkpt>
      <trkpt lat="47.75948" lon="2.45494">
        <ele>122.72489</ele>
        <time>2021-09-09T08:10:37.000Z</time>
      </trkpt>
      <trkpt lat="47.75933" lon="2.45533">
        <ele>122.701433</ele>
        <time>2021-09-09T08:10:42.000Z</time>
      </trkpt>
      <trkpt lat="47.75928" lon="2.45549">
        <ele>122.691924</ele>
        <time>2021-09-09T08:10:44.000Z</time>
      </trkpt>
      <trkpt lat="47.75908" lon="2.45604">
        <ele>122.659303</ele>
        <time>2021-09-09T08:10:51.000Z</time>
      </trkpt>
      <trkpt lat="47.75883" lon="2.45664">
        <ele>122.622091</ele>
        <time>2021-09-09T08:10:59.000Z</time>
      </trkpt>
      <trkpt lat="47.7586" lon="2.45716">
        <ele>122.632711</ele>
        <time>2021-09-09T08:11:06.000Z</time>
      </trkpt>
      <trkpt lat="47.7583" lon="2.45783">
        <ele>122.716823</ele>
        <time>2021-09-09T08:11:15.000Z</time>
      </trkpt>
      <trkpt lat="47.75805" lon="2.45841">
        <ele>122.790096</ele>
        <time>2021-09-09T08:11:23.000Z</time>
      </trkpt>
      <trkpt lat="47.75782" lon="2.45892">
        <ele>122.854753</ele>
        <time>2021-09-09T08:11:30.000Z</time>
      </trkpt>
      <trkpt lat="47.75756" lon="2.45951">
        <ele>122.907368</ele>
        <time>2021-09-09T08:11:38.000Z</time>
      </trkpt>
      <trkpt lat="47.75737" lon="2.45995">
        <ele>122.934559</ele>
        <time>2021-09-09T08:11:44.000Z</time>
      </trkpt>
      <trkpt lat="47.75709" lon="2.46059">
        <ele>122.974537</ele>
        <time>2021-09-09T08:11:53.000Z</time>
      </trkpt>
      <trkpt lat="47.75688" lon="2.46108">
        <ele>123.005238</ele>
        <time>2021-09-09T08:12:00.000Z</time>
      </trkpt>
      <trkpt lat="47.75668" lon="2.46159">
        <ele>122.998742</ele>
        <time>2021-09-09T08:12:07.000Z</time>
      </trkpt>
      <trkpt lat="47.75663" lon="2.46174">
        <ele>122.97508</ele>
        <time>2021-09-09T08:12:09.000Z</time>
      </trkpt>
      <trkpt lat="47.75652" lon="2.46202">
        <ele>122.928036</ele>
        <time>2021-09-09T08:12:13.000Z</time>
      </trkpt>
      <trkpt lat="47.75623" lon="2.46267">
        <ele>122.815627</ele>
        <time>2021-09-09T08:12:22.000Z</time>
      </trkpt>
      <trkpt lat="47.75593" lon="2.4633">
        <ele>122.704864</ele>
        <time>2021-09-09T08:12:31.000Z</time>
      </trkpt>
      <trkpt lat="47.75574" lon="2.46362">
        <ele>122.644182</ele>
        <time>2021-09-09T08:12:36.000Z</time>
      </trkpt>
      <trkpt lat="47.75552" lon="2.46401">
        <ele>122.674659</ele>
        <time>2021-09-09T08:12:42.000Z</time>
      </trkpt>
      <trkpt lat="47.75528" lon="2.4645">
        <ele>122.71508</ele>
        <time>2021-09-09T08:12:49.000Z</time>
      </trkpt>
      <trkpt lat="47.75505" lon="2.46501">
        <ele>122.755294</ele>
        <time>2021-09-09T08:12:56.000Z</time>
      </trkpt>
      <trkpt lat="47.75483" lon="2.46551">
        <ele>122.795129</ele>
        <time>2021-09-09T08:13:03.000Z</time>
      </trkpt>
      <trkpt lat="47.75461" lon="2.46601">
        <ele>122.861509</ele>
        <time>2021-09-09T08:13:10.000Z</time>
      </trkpt>
      <trkpt lat="47.75435" lon="2.46656">
        <ele>122.984724</ele>
        <time>2021-09-09T08:13:18.000Z</time>
      </trkpt>
      <trkpt lat="47.75414" lon="2.46706">
        <ele>123.092287</ele>
        <time>2021-09-09T08:13:25.000Z</time>
      </trkpt>
      <trkpt lat="47.75388" lon="2.46766">
        <ele>123.224034</ele>
        <time>2021-09-09T08:13:33.000Z</time>
      </trkpt>
      <trkpt lat="47.75361" lon="2.46828">
        <ele>123.344953</ele>
        <time>2021-09-09T08:13:41.000Z</time>
      </trkpt>
      <trkpt lat="47.75333" lon="2.46895">
        <ele>123.451934</ele>
        <time>2021-09-09T08:13:50.000Z</time>
      </trkpt>
      <trkpt lat="47.75304" lon="2.46963">
        <ele>123.559763</ele>
        <time>2021-09-09T08:13:59.000Z</time>
      </trkpt>
      <trkpt lat="47.75292" lon="2.46983">
        <ele>123.595024</ele>
        <time>2021-09-09T08:14:02.000Z</time>
      </trkpt>
      <trkpt lat="47.75284" lon="2.46994">
        <ele>123.61708</ele>
        <time>2021-09-09T08:14:04.000Z</time>
      </trkpt>
      <trkpt lat="47.75273" lon="2.47003">
        <ele>123.641024</ele>
        <time>2021-09-09T08:14:06.000Z</time>
      </trkpt>
      <trkpt lat="47.75261" lon="2.4701">
        <ele>123.667425</ele>
        <time>2021-09-09T08:14:08.000Z</time>
      </trkpt>
      <trkpt lat="47.75227" lon="2.47021">
        <ele>123.680976</ele>
        <time>2021-09-09T08:14:14.000Z</time>
      </trkpt>
      <trkpt lat="47.7519" lon="2.47041">
        <ele>123.696108</ele>
        <time>2021-09-09T08:14:21.000Z</time>
      </trkpt>
      <trkpt lat="47.75159" lon="2.47065">
        <ele>123.709809</ele>
        <time>2021-09-09T08:14:27.000Z</time>
      </trkpt>
      <trkpt lat="47.75122" lon="2.47091">
        <ele>123.725787</ele>
        <time>2021-09-09T08:14:34.000Z</time>
      </trkpt>
      <trkpt lat="47.75077" lon="2.47129">
        <ele>123.652209</ele>
        <time>2021-09-09T08:14:43.000Z</time>
      </trkpt>
      <trkpt lat="47.75042" lon="2.47166">
        <ele>123.48024</ele>
        <time>2021-09-09T08:14:51.000Z</time>
      </trkpt>
      <trkpt lat="47.75016" lon="2.47192">
        <ele>123.35409</ele>
        <time>2021-09-09T08:14:58.000Z</time>
      </trkpt>
      <trkpt lat="47.74989" lon="2.47217">
        <ele>123.228436</ele>
        <time>2021-09-09T08:15:05.000Z</time>
      </trkpt>
      <trkpt lat="47.7498" lon="2.47223">
        <ele>123.18817</ele>
        <time>2021-09-09T08:15:07.000Z</time>
      </trkpt>
      <trkpt lat="47.7497" lon="2.47221">
        <ele>123.149295</ele>
        <time>2021-09-09T08:15:09.000Z</time>
      </trkpt>
      <trkpt lat="47.74959" lon="2.47213">
        <ele>123.098548</ele>
        <time>2021-09-09T08:15:11.000Z</time>
      </trkpt>
      <trkpt lat="47.74952" lon="2.4721">
        <ele>123.068338</ele>
        <time>2021-09-09T08:15:12.000Z</time>
      </trkpt>
      <trkpt lat="47.74944" lon="2.4721">
        <ele>123.036024</ele>
        <time>2021-09-09T08:15:13.000Z</time>
      </trkpt>
      <trkpt lat="47.74928" lon="2.47215">
        <ele>122.957857</ele>
        <time>2021-09-09T08:15:15.000Z</time>
      </trkpt>
      <trkpt lat="47.74885" lon="2.47229">
        <ele>122.735496</ele>
        <time>2021-09-09T08:15:21.000Z</time>
      </trkpt>
      <trkpt lat="47.74841" lon="2.47243">
        <ele>122.506328</ele>
        <time>2021-09-09T08:15:28.000Z</time>
      </trkpt>
      <trkpt lat="47.74798" lon="2.47257">
        <ele>122.286793</ele>
        <time>2021-09-09T08:15:35.000Z</time>
      </trkpt>
      <trkpt lat="47.74793" lon="2.4726">
        <ele>122.257016</ele>
        <time>2021-09-09T08:15:36.000Z</time>
      </trkpt>
      <trkpt lat="47.74777" lon="2.47271">
        <ele>122.170153</ele>
        <time>2021-09-09T08:15:39.000Z</time>
      </trkpt>
      <trkpt lat="47.74736" lon="2.47302">
        <ele>121.911365</ele>
        <time>2021-09-09T08:15:47.000Z</time>
      </trkpt>
      <trkpt lat="47.747" lon="2.47328">
        <ele>121.674404</ele>
        <time>2021-09-09T08:15:54.000Z</time>
      </trkpt>
      <trkpt lat="47.74657" lon="2.47357">
        <ele>121.403955</ele>
        <time>2021-09-09T08:16:02.000Z</time>
      </trkpt>
      <trkpt lat="47.7464" lon="2.4737">
        <ele>121.289908</ele>
        <time>2021-09-09T08:16:06.000Z</time>
      </trkpt>
      <trkpt lat="47.74619" lon="2.47389">
        <ele>121.147446</ele>
        <time>2021-09-09T08:16:11.000Z</time>
      </trkpt>
      <trkpt lat="47.74595" lon="2.4741">
        <ele>121.047823</ele>
        <time>2021-09-09T08:16:16.000Z</time>
      </trkpt>
      <trkpt lat="47.74553" lon="2.47446">
        <ele>121.003144</ele>
        <time>2021-09-09T08:16:24.000Z</time>
      </trkpt>
      <trkpt lat="47.74538" lon="2.47458">
        <ele>120.987532</ele>
        <time>2021-09-09T08:16:27.000Z</time>
      </trkpt>
      <trkpt lat="47.74533" lon="2.47461">
        <ele>120.982386</ele>
        <time>2021-09-09T08:16:28.000Z</time>
      </trkpt>
      <trkpt lat="47.74508" lon="2.47479">
        <ele>120.956135</ele>
        <time>2021-09-09T08:16:33.000Z</time>
      </trkpt>
      <trkpt lat="47.74476" lon="2.47505">
        <ele>120.922592</ele>
        <time>2021-09-09T08:16:39.000Z</time>
      </trkpt>
      <trkpt lat="47.7445" lon="2.47525">
        <ele>120.895433</ele>
        <time>2021-09-09T08:16:44.000Z</time>
      </trkpt>
      <trkpt lat="47.74446" lon="2.47529">
        <ele>120.905115</ele>
        <time>2021-09-09T08:16:45.000Z</time>
      </trkpt>
      <trkpt lat="47.74436" lon="2.47537">
        <ele>120.956541</ele>
        <time>2021-09-09T08:16:47.000Z</time>
      </trkpt>
      <trkpt lat="47.74415" lon="2.47553">
        <ele>121.070298</ele>
        <time>2021-09-09T08:16:51.000Z</time>
      </trkpt>
      <trkpt lat="47.74392" lon="2.47573">
        <ele>121.201471</ele>
        <time>2021-09-09T08:16:56.000Z</time>
      </trkpt>
      <trkpt lat="47.74387" lon="2.47577">
        <ele>121.22654</ele>
        <time>2021-09-09T08:16:57.000Z</time>
      </trkpt>
      <trkpt lat="47.74371" lon="2.47591">
        <ele>121.314268</ele>
        <time>2021-09-09T08:17:00.000Z</time>
      </trkpt>
      <trkpt lat="47.74334" lon="2.47622">
        <ele>121.520555</ele>
        <time>2021-09-09T08:17:06.000Z</time>
      </trkpt>
      <trkpt lat="47.74291" lon="2.47658">
        <ele>121.75578</ele>
        <time>2021-09-09T08:17:14.000Z</time>
      </trkpt>
      <trkpt lat="47.74272" lon="2.47673">
        <ele>121.854405</ele>
        <time>2021-09-09T08:17:18.000Z</time>
      </trkpt>
      <trkpt lat="47.74246" lon="2.47693">
        <ele>121.989728</ele>
        <time>2021-09-09T08:17:23.000Z</time>
      </trkpt>
      <trkpt lat="47.74241" lon="2.47697">
        <ele>122.017001</ele>
        <time>2021-09-09T08:17:24.000Z</time>
      </trkpt>
      <trkpt lat="47.74218" lon="2.47715">
        <ele>122.135397</ele>
        <time>2021-09-09T08:17:28.000Z</time>
      </trkpt>
      <trkpt lat="47.74213" lon="2.4772">
        <ele>122.163551</ele>
        <time>2021-09-09T08:17:29.000Z</time>
      </trkpt>
      <trkpt lat="47.74205" lon="2.4773">
        <ele>122.213022</ele>
        <time>2021-09-09T08:17:31.000Z</time>
      </trkpt>
      <trkpt lat="47.74177" lon="2.4777">
        <ele>122.389553</ele>
        <time>2021-09-09T08:17:37.000Z</time>
      </trkpt>
      <trkpt lat="47.74154" lon="2.47802">
        <ele>122.535522</ele>
        <time>2021-09-09T08:17:42.000Z</time>
      </trkpt>
      <trkpt lat="47.74138" lon="2.47822">
        <ele>122.623251</ele>
        <time>2021-09-09T08:17:45.000Z</time>
      </trkpt>
      <trkpt lat="47.74134" lon="2.4783">
        <ele>122.649427</ele>
        <time>2021-09-09T08:17:46.000Z</time>
      </trkpt>
      <trkpt lat="47.74103" lon="2.47868">
        <ele>122.801125</ele>
        <time>2021-09-09T08:17:52.000Z</time>
      </trkpt>
      <trkpt lat="47.74086" lon="2.47878">
        <ele>122.871691</ele>
        <time>2021-09-09T08:17:55.000Z</time>
      </trkpt>
      <trkpt lat="47.74074" lon="2.47881">
        <ele>122.919141</ele>
        <time>2021-09-09T08:17:57.000Z</time>
      </trkpt>
      <trkpt lat="47.74034" lon="2.47898">
        <ele>123.07439</ele>
        <time>2021-09-09T08:18:04.000Z</time>
      </trkpt>
      <trkpt lat="47.74002" lon="2.47912">
        <ele>123.203121</ele>
        <time>2021-09-09T08:18:10.000Z</time>
      </trkpt>
      <trkpt lat="47.73968" lon="2.47929">
        <ele>123.581406</ele>
        <time>2021-09-09T08:18:16.000Z</time>
      </trkpt>
      <trkpt lat="47.73963" lon="2.47932">
        <ele>123.678723</ele>
        <time>2021-09-09T08:18:17.000Z</time>
      </trkpt>
      <trkpt lat="47.73948" lon="2.47942">
        <ele>123.952858</ele>
        <time>2021-09-09T08:18:20.000Z</time>
      </trkpt>
      <trkpt lat="47.73926" lon="2.47955">
        <ele>124.351125</ele>
        <time>2021-09-09T08:18:25.000Z</time>
      </trkpt>
      <trkpt lat="47.73918" lon="2.47962">
        <ele>124.510755</ele>
        <time>2021-09-09T08:18:27.000Z</time>
      </trkpt>
      <trkpt lat="47.73904" lon="2.47971">
        <ele>124.773878</ele>
        <time>2021-09-09T08:18:30.000Z</time>
      </trkpt>
      <trkpt lat="47.73899" lon="2.47975">
        <ele>124.876539</ele>
        <time>2021-09-09T08:18:31.000Z</time>
      </trkpt>
      <trkpt lat="47.73883" lon="2.47986">
        <ele>125.174474</ele>
        <time>2021-09-09T08:18:34.000Z</time>
      </trkpt>
      <trkpt lat="47.73858" lon="2.48003">
        <ele>125.6334</ele>
        <time>2021-09-09T08:18:38.000Z</time>
      </trkpt>
      <trkpt lat="47.73832" lon="2.48022">
        <ele>126.135067</ele>
        <time>2021-09-09T08:18:43.000Z</time>
      </trkpt>
      <trkpt lat="47.73805" lon="2.48041">
        <ele>127.023648</ele>
        <time>2021-09-09T08:18:48.000Z</time>
      </trkpt>
      <trkpt lat="47.7379" lon="2.48053">
        <ele>127.676372</ele>
        <time>2021-09-09T08:18:51.000Z</time>
      </trkpt>
      <trkpt lat="47.73779" lon="2.4806">
        <ele>128.127487</ele>
        <time>2021-09-09T08:18:53.000Z</time>
      </trkpt>
      <trkpt lat="47.73757" lon="2.48076">
        <ele>129.066</ele>
        <time>2021-09-09T08:18:57.000Z</time>
      </trkpt>
      <trkpt lat="47.73735" lon="2.48092">
        <ele>130.00914</ele>
        <time>2021-09-09T08:19:01.000Z</time>
      </trkpt>
      <trkpt lat="47.73715" lon="2.48106">
        <ele>130.847097</ele>
        <time>2021-09-09T08:19:05.000Z</time>
      </trkpt>
      <trkpt lat="47.73705" lon="2.48112">
        <ele>131.253248</ele>
        <time>2021-09-09T08:19:07.000Z</time>
      </trkpt>
      <trkpt lat="47.73697" lon="2.48117">
        <ele>131.593809</ele>
        <time>2021-09-09T08:19:09.000Z</time>
      </trkpt>
      <trkpt lat="47.73679" lon="2.48129">
        <ele>132.333084</ele>
        <time>2021-09-09T08:19:13.000Z</time>
      </trkpt>
      <trkpt lat="47.73667" lon="2.48139">
        <ele>132.84572</ele>
        <time>2021-09-09T08:19:16.000Z</time>
      </trkpt>
      <trkpt lat="47.73653" lon="2.48151">
        <ele>133.474663</ele>
        <time>2021-09-09T08:19:20.000Z</time>
      </trkpt>
      <trkpt lat="47.73648" lon="2.48154">
        <ele>133.649618</ele>
        <time>2021-09-09T08:19:21.000Z</time>
      </trkpt>
      <trkpt lat="47.7364" lon="2.48161">
        <ele>133.991688</ele>
        <time>2021-09-09T08:19:23.000Z</time>
      </trkpt>
      <trkpt lat="47.73633" lon="2.48165">
        <ele>134.250144</ele>
        <time>2021-09-09T08:19:24.000Z</time>
      </trkpt>
      <trkpt lat="47.73628" lon="2.48169">
        <ele>134.438743</ele>
        <time>2021-09-09T08:19:25.000Z</time>
      </trkpt>
      <trkpt lat="47.73618" lon="2.48177">
        <ele>134.841836</ele>
        <time>2021-09-09T08:19:27.000Z</time>
      </trkpt>
      <trkpt lat="47.73592" lon="2.48196">
        <ele>135.890197</ele>
        <time>2021-09-09T08:19:32.000Z</time>
      </trkpt>
      <trkpt lat="47.73581" lon="2.48205">
        <ele>136.319811</ele>
        <time>2021-09-09T08:19:34.000Z</time>
      </trkpt>
      <trkpt lat="47.73567" lon="2.48214">
        <ele>136.893516</ele>
        <time>2021-09-09T08:19:36.000Z</time>
      </trkpt>
      <trkpt lat="47.73535" lon="2.48241">
        <ele>138.189345</ele>
        <time>2021-09-09T08:19:41.000Z</time>
      </trkpt>
      <trkpt lat="47.73525" lon="2.48251">
        <ele>138.62962</ele>
        <time>2021-09-09T08:19:43.000Z</time>
      </trkpt>
      <trkpt lat="47.73508" lon="2.48262">
        <ele>139.295866</ele>
        <time>2021-09-09T08:19:45.000Z</time>
      </trkpt>
      <trkpt lat="47.73476" lon="2.48283">
        <ele>140.035742</ele>
        <time>2021-09-09T08:19:49.000Z</time>
      </trkpt>
      <trkpt lat="47.73468" lon="2.48288">
        <ele>140.18796</ele>
        <time>2021-09-09T08:19:50.000Z</time>
      </trkpt>
      <trkpt lat="47.73452" lon="2.483">
        <ele>140.48709</ele>
        <time>2021-09-09T08:19:52.000Z</time>
      </trkpt>
      <trkpt lat="47.73439" lon="2.4831">
        <ele>140.735285</ele>
        <time>2021-09-09T08:19:54.000Z</time>
      </trkpt>
      <trkpt lat="47.73405" lon="2.48343">
        <ele>141.412984</ele>
        <time>2021-09-09T08:20:00.000Z</time>
      </trkpt>
      <trkpt lat="47.73381" lon="2.48367">
        <ele>141.897814</ele>
        <time>2021-09-09T08:20:05.000Z</time>
      </trkpt>
      <trkpt lat="47.73366" lon="2.48385">
        <ele>142.225055</ele>
        <time>2021-09-09T08:20:09.000Z</time>
      </trkpt>
      <trkpt lat="47.73348" lon="2.48403">
        <ele>142.584457</ele>
        <time>2021-09-09T08:20:13.000Z</time>
      </trkpt>
      <trkpt lat="47.7333" lon="2.48421">
        <ele>143.417733</ele>
        <time>2021-09-09T08:20:17.000Z</time>
      </trkpt>
      <trkpt lat="47.73321" lon="2.4843">
        <ele>143.872736</ele>
        <time>2021-09-09T08:20:19.000Z</time>
      </trkpt>
      <trkpt lat="47.73313" lon="2.48439">
        <ele>144.287712</ele>
        <time>2021-09-09T08:20:21.000Z</time>
      </trkpt>
      <trkpt lat="47.73304" lon="2.48449">
        <ele>144.721198</ele>
        <time>2021-09-09T08:20:23.000Z</time>
      </trkpt>
      <trkpt lat="47.73295" lon="2.48458">
        <ele>145.184251</ele>
        <time>2021-09-09T08:20:25.000Z</time>
      </trkpt>
      <trkpt lat="47.73281" lon="2.48473">
        <ele>145.879743</ele>
        <time>2021-09-09T08:20:28.000Z</time>
      </trkpt>
      <trkpt lat="47.73266" lon="2.48486">
        <ele>146.592263</ele>
        <time>2021-09-09T08:20:31.000Z</time>
      </trkpt>
      <trkpt lat="47.73254" lon="2.48498">
        <ele>147.207411</ele>
        <time>2021-09-09T08:20:34.000Z</time>
      </trkpt>
      <trkpt lat="47.73235" lon="2.48514">
        <ele>148.078639</ele>
        <time>2021-09-09T08:20:38.000Z</time>
      </trkpt>
      <trkpt lat="47.73212" lon="2.48534">
        <ele>149.176433</ele>
        <time>2021-09-09T08:20:43.000Z</time>
      </trkpt>
      <trkpt lat="47.73178" lon="2.48559">
        <ele>149.634799</ele>
        <time>2021-09-09T08:20:49.000Z</time>
      </trkpt>
      <trkpt lat="47.7314" lon="2.48599">
        <ele>148.69646</ele>
        <time>2021-09-09T08:20:55.000Z</time>
      </trkpt>
      <trkpt lat="47.73097" lon="2.4865">
        <ele>147.571362</ele>
        <time>2021-09-09T08:21:01.000Z</time>
      </trkpt>
      <trkpt lat="47.73087" lon="2.4866">
        <ele>147.328611</ele>
        <time>2021-09-09T08:21:03.000Z</time>
      </trkpt>
      <trkpt lat="47.73064" lon="2.48682">
        <ele>146.775113</ele>
        <time>2021-09-09T08:21:08.000Z</time>
      </trkpt>
      <trkpt lat="47.73054" lon="2.48688">
        <ele>146.562957</ele>
        <time>2021-09-09T08:21:10.000Z</time>
      </trkpt>
      <trkpt lat="47.73044" lon="2.48696">
        <ele>146.331364</ele>
        <time>2021-09-09T08:21:12.000Z</time>
      </trkpt>
      <trkpt lat="47.73022" lon="2.48713">
        <ele>145.608988</ele>
        <time>2021-09-09T08:21:16.000Z</time>
      </trkpt>
      <trkpt lat="47.72996" lon="2.48732">
        <ele>144.777639</ele>
        <time>2021-09-09T08:21:21.000Z</time>
      </trkpt>
      <trkpt lat="47.72969" lon="2.48754">
        <ele>143.894837</ele>
        <time>2021-09-09T08:21:26.000Z</time>
      </trkpt>
      <trkpt lat="47.72964" lon="2.48759">
        <ele>143.709263</ele>
        <time>2021-09-09T08:21:27.000Z</time>
      </trkpt>
      <trkpt lat="47.72948" lon="2.48773">
        <ele>143.17592</ele>
        <time>2021-09-09T08:21:30.000Z</time>
      </trkpt>
      <trkpt lat="47.72933" lon="2.48787">
        <ele>142.659727</ele>
        <time>2021-09-09T08:21:33.000Z</time>
      </trkpt>
      <trkpt lat="47.72927" lon="2.48792">
        <ele>142.475759</ele>
        <time>2021-09-09T08:21:34.000Z</time>
      </trkpt>
      <trkpt lat="47.72894" lon="2.48816">
        <ele>141.424532</ele>
        <time>2021-09-09T08:21:40.000Z</time>
      </trkpt>
      <trkpt lat="47.72874" lon="2.48826">
        <ele>140.827684</ele>
        <time>2021-09-09T08:21:44.000Z</time>
      </trkpt>
      <trkpt lat="47.72869" lon="2.48828">
        <ele>140.70249</ele>
        <time>2021-09-09T08:21:45.000Z</time>
      </trkpt>
      <trkpt lat="47.72852" lon="2.48834">
        <ele>140.232589</ele>
        <time>2021-09-09T08:21:50.000Z</time>
      </trkpt>
      <trkpt lat="47.72838" lon="2.48846">
        <ele>139.777752</ele>
        <time>2021-09-09T08:21:55.000Z</time>
      </trkpt>
      <trkpt lat="47.72833" lon="2.48865">
        <ele>139.40727</ele>
        <time>2021-09-09T08:21:59.000Z</time>
      </trkpt>
      <trkpt lat="47.72827" lon="2.48902">
        <ele>138.717872</ele>
        <time>2021-09-09T08:22:06.000Z</time>
      </trkpt>
      <trkpt lat="47.72821" lon="2.48956">
        <ele>137.731446</ele>
        <time>2021-09-09T08:22:15.000Z</time>
      </trkpt>
      <trkpt lat="47.72817" lon="2.48994">
        <ele>137.03145</ele>
        <time>2021-09-09T08:22:21.000Z</time>
      </trkpt>
      <trkpt lat="47.72817" lon="2.49007">
        <ele>136.795527</ele>
        <time>2021-09-09T08:22:23.000Z</time>
      </trkpt>
      <trkpt lat="47.72817" lon="2.49013">
        <ele>136.679323</ele>
        <time>2021-09-09T08:22:24.000Z</time>
      </trkpt>
      <trkpt lat="47.72815" lon="2.49026">
        <ele>136.441408</ele>
        <time>2021-09-09T08:22:26.000Z</time>
      </trkpt>
      <trkpt lat="47.72814" lon="2.4904">
        <ele>136.281668</ele>
        <time>2021-09-09T08:22:28.000Z</time>
      </trkpt>
      <trkpt lat="47.72813" lon="2.49054">
        <ele>136.189354</ele>
        <time>2021-09-09T08:22:30.000Z</time>
      </trkpt>
      <trkpt lat="47.72812" lon="2.49069">
        <ele>136.092787</ele>
        <time>2021-09-09T08:22:32.000Z</time>
      </trkpt>
      <trkpt lat="47.72811" lon="2.49076">
        <ele>136.044565</ele>
        <time>2021-09-09T08:22:33.000Z</time>
      </trkpt>
      <trkpt lat="47.72803" lon="2.49144">
        <ele>135.594516</ele>
        <time>2021-09-09T08:22:42.000Z</time>
      </trkpt>
      <trkpt lat="47.72799" lon="2.49164">
        <ele>135.449389</ele>
        <time>2021-09-09T08:22:45.000Z</time>
      </trkpt>
      <trkpt lat="47.72791" lon="2.49185">
        <ele>135.29695</ele>
        <time>2021-09-09T08:22:48.000Z</time>
      </trkpt>
      <trkpt lat="47.72777" lon="2.49228">
        <ele>134.981764</ele>
        <time>2021-09-09T08:22:54.000Z</time>
      </trkpt>
      <trkpt lat="47.72756" lon="2.49295">
        <ele>134.555119</ele>
        <time>2021-09-09T08:23:03.000Z</time>
      </trkpt>
      <trkpt lat="47.72742" lon="2.4934">
        <ele>134.455319</ele>
        <time>2021-09-09T08:23:09.000Z</time>
      </trkpt>
      <trkpt lat="47.72723" lon="2.49399">
        <ele>134.324759</ele>
        <time>2021-09-09T08:23:17.000Z</time>
      </trkpt>
      <trkpt lat="47.72703" lon="2.49447">
        <ele>134.212058</ele>
        <time>2021-09-09T08:23:24.000Z</time>
      </trkpt>
      <trkpt lat="47.72697" lon="2.49458">
        <ele>134.184302</ele>
        <time>2021-09-09T08:23:26.000Z</time>
      </trkpt>
      <trkpt lat="47.72689" lon="2.49472">
        <ele>134.146387</ele>
        <time>2021-09-09T08:23:29.000Z</time>
      </trkpt>
      <trkpt lat="47.72686" lon="2.49478">
        <ele>134.132102</ele>
        <time>2021-09-09T08:23:30.000Z</time>
      </trkpt>
      <trkpt lat="47.72684" lon="2.49494">
        <ele>134.099741</ele>
        <time>2021-09-09T08:23:32.000Z</time>
      </trkpt>
      <trkpt lat="47.7268" lon="2.49519">
        <ele>134.048878</ele>
        <time>2021-09-09T08:23:35.000Z</time>
      </trkpt>
      <trkpt lat="47.72674" lon="2.49542">
        <ele>134.051856</ele>
        <time>2021-09-09T08:23:38.000Z</time>
      </trkpt>
      <trkpt lat="47.7265" lon="2.49618">
        <ele>134.076512</ele>
        <time>2021-09-09T08:23:48.000Z</time>
      </trkpt>
      <trkpt lat="47.72631" lon="2.49678">
        <ele>134.096442</ele>
        <time>2021-09-09T08:23:56.000Z</time>
      </trkpt>
      <trkpt lat="47.72613" lon="2.49734">
        <ele>134.114687</ele>
        <time>2021-09-09T08:24:03.000Z</time>
      </trkpt>
      <trkpt lat="47.72591" lon="2.49806">
        <ele>134.133095</ele>
        <time>2021-09-09T08:24:12.000Z</time>
      </trkpt>
      <trkpt lat="47.72565" lon="2.49886">
        <ele>134.149996</ele>
        <time>2021-09-09T08:24:22.000Z</time>
      </trkpt>
      <trkpt lat="47.72544" lon="2.4994">
        <ele>134.161993</ele>
        <time>2021-09-09T08:24:29.000Z</time>
      </trkpt>
      <trkpt lat="47.72522" lon="2.49994">
        <ele>134.174057</ele>
        <time>2021-09-09T08:24:36.000Z</time>
      </trkpt>
      <trkpt lat="47.72494" lon="2.50063">
        <ele>134.141158</ele>
        <time>2021-09-09T08:24:45.000Z</time>
      </trkpt>
      <trkpt lat="47.72465" lon="2.50134">
        <ele>134.103285</ele>
        <time>2021-09-09T08:24:54.000Z</time>
      </trkpt>
      <trkpt lat="47.72436" lon="2.50206">
        <ele>134.06471</ele>
        <time>2021-09-09T08:25:03.000Z</time>
      </trkpt>
      <trkpt lat="47.72429" lon="2.50222">
        <ele>134.056486</ele>
        <time>2021-09-09T08:25:05.000Z</time>
      </trkpt>
      <trkpt lat="47.72407" lon="2.50277">
        <ele>134.073725</ele>
        <time>2021-09-09T08:25:12.000Z</time>
      </trkpt>
      <trkpt lat="47.7239" lon="2.50317">
        <ele>134.090322</ele>
        <time>2021-09-09T08:25:17.000Z</time>
      </trkpt>
      <trkpt lat="47.72359" lon="2.5039">
        <ele>134.120743</ele>
        <time>2021-09-09T08:25:26.000Z</time>
      </trkpt>
      <trkpt lat="47.72331" lon="2.50453">
        <ele>134.147621</ele>
        <time>2021-09-09T08:25:34.000Z</time>
      </trkpt>
      <trkpt lat="47.72294" lon="2.50506">
        <ele>133.99255</ele>
        <time>2021-09-09T08:25:42.000Z</time>
      </trkpt>
      <trkpt lat="47.72256" lon="2.50543">
        <ele>133.851742</ele>
        <time>2021-09-09T08:25:49.000Z</time>
      </trkpt>
      <trkpt lat="47.72212" lon="2.50579">
        <ele>133.6973</ele>
        <time>2021-09-09T08:25:57.000Z</time>
      </trkpt>
      <trkpt lat="47.72162" lon="2.50615">
        <ele>133.569424</ele>
        <time>2021-09-09T08:26:06.000Z</time>
      </trkpt>
      <trkpt lat="47.72122" lon="2.50648">
        <ele>133.518145</ele>
        <time>2021-09-09T08:26:14.000Z</time>
      </trkpt>
      <trkpt lat="47.72096" lon="2.50677">
        <ele>133.481015</ele>
        <time>2021-09-09T08:26:20.000Z</time>
      </trkpt>
      <trkpt lat="47.72091" lon="2.50683">
        <ele>133.474624</ele>
        <time>2021-09-09T08:26:21.000Z</time>
      </trkpt>
      <trkpt lat="47.72062" lon="2.50727">
        <ele>133.427707</ele>
        <time>2021-09-09T08:26:28.000Z</time>
      </trkpt>
      <trkpt lat="47.72024" lon="2.50789">
        <ele>133.247808</ele>
        <time>2021-09-09T08:26:37.000Z</time>
      </trkpt>
      <trkpt lat="47.71991" lon="2.50844">
        <ele>132.961547</ele>
        <time>2021-09-09T08:26:45.000Z</time>
      </trkpt>
      <trkpt lat="47.71955" lon="2.509">
        <ele>132.660512</ele>
        <time>2021-09-09T08:26:53.000Z</time>
      </trkpt>
      <trkpt lat="47.71916" lon="2.50947">
        <ele>132.368051</ele>
        <time>2021-09-09T08:27:00.000Z</time>
      </trkpt>
      <trkpt lat="47.71875" lon="2.50991">
        <ele>131.993535</ele>
        <time>2021-09-09T08:27:06.000Z</time>
      </trkpt>
      <trkpt lat="47.71838" lon="2.51035">
        <ele>131.630021</ele>
        <time>2021-09-09T08:27:11.000Z</time>
      </trkpt>
      <trkpt lat="47.71788" lon="2.51089">
        <ele>131.162009</ele>
        <time>2021-09-09T08:27:18.000Z</time>
      </trkpt>
      <trkpt lat="47.71771" lon="2.51107">
        <ele>131.004402</ele>
        <time>2021-09-09T08:27:21.000Z</time>
      </trkpt>
      <trkpt lat="47.71743" lon="2.51141">
        <ele>130.676439</ele>
        <time>2021-09-09T08:27:26.000Z</time>
      </trkpt>
      <trkpt lat="47.717" lon="2.51193">
        <ele>130.172516</ele>
        <time>2021-09-09T08:27:33.000Z</time>
      </trkpt>
      <trkpt lat="47.71655" lon="2.51246">
        <ele>129.645949</ele>
        <time>2021-09-09T08:27:41.000Z</time>
      </trkpt>
      <trkpt lat="47.71611" lon="2.51296">
        <ele>129.181202</ele>
        <time>2021-09-09T08:27:49.000Z</time>
      </trkpt>
      <trkpt lat="47.71576" lon="2.51337">
        <ele>128.850096</ele>
        <time>2021-09-09T08:27:56.000Z</time>
      </trkpt>
      <trkpt lat="47.71534" lon="2.51387">
        <ele>128.446218</ele>
        <time>2021-09-09T08:28:05.000Z</time>
      </trkpt>
      <trkpt lat="47.71529" lon="2.51393">
        <ele>128.401799</ele>
        <time>2021-09-09T08:28:06.000Z</time>
      </trkpt>
      <trkpt lat="47.71487" lon="2.51442">
        <ele>128.0075</ele>
        <time>2021-09-09T08:28:15.000Z</time>
      </trkpt>
      <trkpt lat="47.71455" lon="2.5148">
        <ele>127.988946</ele>
        <time>2021-09-09T08:28:22.000Z</time>
      </trkpt>
      <trkpt lat="47.71422" lon="2.51518">
        <ele>127.970454</ele>
        <time>2021-09-09T08:28:29.000Z</time>
      </trkpt>
      <trkpt lat="47.71399" lon="2.51544">
        <ele>127.957124</ele>
        <time>2021-09-09T08:28:34.000Z</time>
      </trkpt>
      <trkpt lat="47.71394" lon="2.5155">
        <ele>127.954456</ele>
        <time>2021-09-09T08:28:35.000Z</time>
      </trkpt>
      <trkpt lat="47.71363" lon="2.51588">
        <ele>127.936109</ele>
        <time>2021-09-09T08:28:42.000Z</time>
      </trkpt>
      <trkpt lat="47.71327" lon="2.51632">
        <ele>128.038787</ele>
        <time>2021-09-09T08:28:50.000Z</time>
      </trkpt>
      <trkpt lat="47.71294" lon="2.51671">
        <ele>128.222004</ele>
        <time>2021-09-09T08:28:57.000Z</time>
      </trkpt>
      <trkpt lat="47.71269" lon="2.51705">
        <ele>128.37362</ele>
        <time>2021-09-09T08:29:03.000Z</time>
      </trkpt>
      <trkpt lat="47.71251" lon="2.5174">
        <ele>128.503327</ele>
        <time>2021-09-09T08:29:08.000Z</time>
      </trkpt>
      <trkpt lat="47.71248" lon="2.51748">
        <ele>128.53043</ele>
        <time>2021-09-09T08:29:09.000Z</time>
      </trkpt>
      <trkpt lat="47.71222" lon="2.51806">
        <ele>128.736742</ele>
        <time>2021-09-09T08:29:17.000Z</time>
      </trkpt>
      <trkpt lat="47.71208" lon="2.51833">
        <ele>128.835624</ele>
        <time>2021-09-09T08:29:21.000Z</time>
      </trkpt>
      <trkpt lat="47.71201" lon="2.51846">
        <ele>128.885902</ele>
        <time>2021-09-09T08:29:23.000Z</time>
      </trkpt>
      <trkpt lat="47.71198" lon="2.51854">
        <ele>128.911137</ele>
        <time>2021-09-09T08:29:24.000Z</time>
      </trkpt>
      <trkpt lat="47.71191" lon="2.51868">
        <ele>128.963366</ele>
        <time>2021-09-09T08:29:26.000Z</time>
      </trkpt>
      <trkpt lat="47.71184" lon="2.51883">
        <ele>129.01506</ele>
        <time>2021-09-09T08:29:28.000Z</time>
      </trkpt>
      <trkpt lat="47.71168" lon="2.5193">
        <ele>129.17075</ele>
        <time>2021-09-09T08:29:34.000Z</time>
      </trkpt>
      <trkpt lat="47.71148" lon="2.51983">
        <ele>129.346468</ele>
        <time>2021-09-09T08:29:41.000Z</time>
      </trkpt>
      <trkpt lat="47.71123" lon="2.52048">
        <ele>129.439527</ele>
        <time>2021-09-09T08:29:50.000Z</time>
      </trkpt>
      <trkpt lat="47.71093" lon="2.52118">
        <ele>129.216729</ele>
        <time>2021-09-09T08:30:00.000Z</time>
      </trkpt>
      <trkpt lat="47.71065" lon="2.52179">
        <ele>129.018264</ele>
        <time>2021-09-09T08:30:09.000Z</time>
      </trkpt>
      <trkpt lat="47.71036" lon="2.52239">
        <ele>128.820644</ele>
        <time>2021-09-09T08:30:18.000Z</time>
      </trkpt>
      <trkpt lat="47.71004" lon="2.5231">
        <ele>128.742328</ele>
        <time>2021-09-09T08:30:28.000Z</time>
      </trkpt>
      <trkpt lat="47.71001" lon="2.52317">
        <ele>128.737423</ele>
        <time>2021-09-09T08:30:29.000Z</time>
      </trkpt>
      <trkpt lat="47.70975" lon="2.52373">
        <ele>128.697651</ele>
        <time>2021-09-09T08:30:37.000Z</time>
      </trkpt>
      <trkpt lat="47.70942" lon="2.52443">
        <ele>128.64822</ele>
        <time>2021-09-09T08:30:47.000Z</time>
      </trkpt>
      <trkpt lat="47.70936" lon="2.52457">
        <ele>128.638517</ele>
        <time>2021-09-09T08:30:49.000Z</time>
      </trkpt>
      <trkpt lat="47.70909" lon="2.52523">
        <ele>128.595144</ele>
        <time>2021-09-09T08:30:58.000Z</time>
      </trkpt>
      <trkpt lat="47.70888" lon="2.52586">
        <ele>128.554546</ele>
        <time>2021-09-09T08:31:06.000Z</time>
      </trkpt>
      <trkpt lat="47.70864" lon="2.52658">
        <ele>128.508721</ele>
        <time>2021-09-09T08:31:15.000Z</time>
      </trkpt>
      <trkpt lat="47.70861" lon="2.52666">
        <ele>128.503494</ele>
        <time>2021-09-09T08:31:16.000Z</time>
      </trkpt>
      <trkpt lat="47.70845" lon="2.52712">
        <ele>128.465086</ele>
        <time>2021-09-09T08:31:22.000Z</time>
      </trkpt>
      <trkpt lat="47.70829" lon="2.52759">
        <ele>128.315286</ele>
        <time>2021-09-09T08:31:28.000Z</time>
      </trkpt>
      <trkpt lat="47.7081" lon="2.52815">
        <ele>128.141999</ele>
        <time>2021-09-09T08:31:35.000Z</time>
      </trkpt>
      <trkpt lat="47.7079" lon="2.52873">
        <ele>127.958998</ele>
        <time>2021-09-09T08:31:42.000Z</time>
      </trkpt>
      <trkpt lat="47.70765" lon="2.52951">
        <ele>127.728076</ele>
        <time>2021-09-09T08:31:51.000Z</time>
      </trkpt>
      <trkpt lat="47.70744" lon="2.53016">
        <ele>127.766359</ele>
        <time>2021-09-09T08:31:59.000Z</time>
      </trkpt>
      <trkpt lat="47.7073" lon="2.53048">
        <ele>127.786139</ele>
        <time>2021-09-09T08:32:03.000Z</time>
      </trkpt>
      <trkpt lat="47.70722" lon="2.53062">
        <ele>127.79583</ele>
        <time>2021-09-09T08:32:05.000Z</time>
      </trkpt>
      <trkpt lat="47.70695" lon="2.5311">
        <ele>127.828294</ele>
        <time>2021-09-09T08:32:12.000Z</time>
      </trkpt>
      <trkpt lat="47.70665" lon="2.53161">
        <ele>127.864261</ele>
        <time>2021-09-09T08:32:20.000Z</time>
      </trkpt>
      <trkpt lat="47.70636" lon="2.53209">
        <ele>128.269767</ele>
        <time>2021-09-09T08:32:28.000Z</time>
      </trkpt>
      <trkpt lat="47.70624" lon="2.5323">
        <ele>128.466205</ele>
        <time>2021-09-09T08:32:32.000Z</time>
      </trkpt>
      <trkpt lat="47.70614" lon="2.53246">
        <ele>128.606297</ele>
        <time>2021-09-09T08:32:35.000Z</time>
      </trkpt>
      <trkpt lat="47.70591" lon="2.53283">
        <ele>128.946872</ele>
        <time>2021-09-09T08:32:43.000Z</time>
      </trkpt>
      <trkpt lat="47.7058" lon="2.533">
        <ele>129.112335</ele>
        <time>2021-09-09T08:32:47.000Z</time>
      </trkpt>
      <trkpt lat="47.70574" lon="2.53309">
        <ele>129.196709</ele>
        <time>2021-09-09T08:32:49.000Z</time>
      </trkpt>
      <trkpt lat="47.70549" lon="2.53353">
        <ele>129.590908</ele>
        <time>2021-09-09T08:32:58.000Z</time>
      </trkpt>
      <trkpt lat="47.70521" lon="2.53399">
        <ele>129.995719</ele>
        <time>2021-09-09T08:33:07.000Z</time>
      </trkpt>
      <trkpt lat="47.70515" lon="2.53409">
        <ele>130.084529</ele>
        <time>2021-09-09T08:33:09.000Z</time>
      </trkpt>
      <trkpt lat="47.70502" lon="2.53429">
        <ele>130.266907</ele>
        <time>2021-09-09T08:33:13.000Z</time>
      </trkpt>
      <trkpt lat="47.70471" lon="2.53475">
        <ele>130.688761</ele>
        <time>2021-09-09T08:33:22.000Z</time>
      </trkpt>
      <trkpt lat="47.70463" lon="2.53483">
        <ele>130.783088</ele>
        <time>2021-09-09T08:33:24.000Z</time>
      </trkpt>
      <trkpt lat="47.70442" lon="2.53501">
        <ele>131.020588</ele>
        <time>2021-09-09T08:33:29.000Z</time>
      </trkpt>
      <trkpt lat="47.70429" lon="2.53513">
        <ele>131.164159</ele>
        <time>2021-09-09T08:33:32.000Z</time>
      </trkpt>
      <trkpt lat="47.70423" lon="2.53524">
        <ele>131.258625</ele>
        <time>2021-09-09T08:33:34.000Z</time>
      </trkpt>
      <trkpt lat="47.70413" lon="2.53542">
        <ele>131.407087</ele>
        <time>2021-09-09T08:33:37.000Z</time>
      </trkpt>
      <trkpt lat="47.70402" lon="2.53559">
        <ele>131.533405</ele>
        <time>2021-09-09T08:33:40.000Z</time>
      </trkpt>
      <trkpt lat="47.70381" lon="2.53596">
        <ele>131.791755</ele>
        <time>2021-09-09T08:33:46.000Z</time>
      </trkpt>
      <trkpt lat="47.70353" lon="2.53647">
        <ele>132.138913</ele>
        <time>2021-09-09T08:33:54.000Z</time>
      </trkpt>
      <trkpt lat="47.70333" lon="2.53684">
        <ele>132.393787</ele>
        <time>2021-09-09T08:34:00.000Z</time>
      </trkpt>
      <trkpt lat="47.70308" lon="2.53728">
        <ele>132.695843</ele>
        <time>2021-09-09T08:34:07.000Z</time>
      </trkpt>
      <trkpt lat="47.70278" lon="2.53765">
        <ele>132.739474</ele>
        <time>2021-09-09T08:34:14.000Z</time>
      </trkpt>
      <trkpt lat="47.70269" lon="2.53775">
        <ele>132.686691</ele>
        <time>2021-09-09T08:34:16.000Z</time>
      </trkpt>
      <trkpt lat="47.70256" lon="2.5379">
        <ele>132.612653</ele>
        <time>2021-09-09T08:34:19.000Z</time>
      </trkpt>
      <trkpt lat="47.70231" lon="2.53813">
        <ele>132.479446</ele>
        <time>2021-09-09T08:34:24.000Z</time>
      </trkpt>
      <trkpt lat="47.70208" lon="2.53838">
        <ele>132.349143</ele>
        <time>2021-09-09T08:34:29.000Z</time>
      </trkpt>
      <trkpt lat="47.70204" lon="2.53844">
        <ele>132.323982</ele>
        <time>2021-09-09T08:34:30.000Z</time>
      </trkpt>
      <trkpt lat="47.70201" lon="2.5385">
        <ele>132.299508</ele>
        <time>2021-09-09T08:34:31.000Z</time>
      </trkpt>
      <trkpt lat="47.70189" lon="2.53877">
        <ele>132.198548</ele>
        <time>2021-09-09T08:34:35.000Z</time>
      </trkpt>
      <trkpt lat="47.70179" lon="2.53896">
        <ele>132.127559</ele>
        <time>2021-09-09T08:34:39.000Z</time>
      </trkpt>
      <trkpt lat="47.70178" lon="2.53895">
        <ele>132.122512</ele>
        <time>2021-09-09T08:34:41.000Z</time>
      </trkpt>
      <trkpt lat="47.70181" lon="2.53894">
        <ele>132.106841</ele>
        <time>2021-09-09T08:35:22.000Z</time>
      </trkpt>
      <trkpt lat="47.70182" lon="2.53892">
        <ele>132.100572</ele>
        <time>2021-09-09T08:35:23.000Z</time>
      </trkpt>
      <trkpt lat="47.70183" lon="2.5389">
        <ele>132.094184</ele>
        <time>2021-09-09T08:35:24.000Z</time>
      </trkpt>
      <trkpt lat="47.70187" lon="2.53881">
        <ele>132.060015</ele>
        <time>2021-09-09T08:35:28.000Z</time>
      </trkpt>
      <trkpt lat="47.70198" lon="2.53861">
        <ele>132.011351</ele>
        <time>2021-09-09T08:35:34.000Z</time>
      </trkpt>
      <trkpt lat="47.70199" lon="2.53849">
        <ele>132.008165</ele>
        <time>2021-09-09T08:35:37.000Z</time>
      </trkpt>
      <trkpt lat="47.70197" lon="2.53846">
        <ele>132.007048</ele>
        <time>2021-09-09T08:35:38.000Z</time>
      </trkpt>
      <trkpt lat="47.70181" lon="2.53825">
        <ele>131.998646</ele>
        <time>2021-09-09T08:35:45.000Z</time>
      </trkpt>
      <trkpt lat="47.70166" lon="2.53809">
        <ele>131.991502</ele>
        <time>2021-09-09T08:35:52.000Z</time>
      </trkpt>
      <trkpt lat="47.70151" lon="2.53788">
        <ele>131.983217</ele>
        <time>2021-09-09T08:35:57.000Z</time>
      </trkpt>
      <trkpt lat="47.70128" lon="2.53753">
        <ele>131.970503</ele>
        <time>2021-09-09T08:36:03.000Z</time>
      </trkpt>
      <trkpt lat="47.70099" lon="2.53705">
        <ele>131.953371</ele>
        <time>2021-09-09T08:36:10.000Z</time>
      </trkpt>
      <trkpt lat="47.70071" lon="2.53667">
        <ele>131.897454</ele>
        <time>2021-09-09T08:36:16.000Z</time>
      </trkpt>
      <trkpt lat="47.70063" lon="2.5366">
        <ele>131.866976</ele>
        <time>2021-09-09T08:36:18.000Z</time>
      </trkpt>
      <trkpt lat="47.70059" lon="2.5366">
        <ele>131.851042</ele>
        <time>2021-09-09T08:36:19.000Z</time>
      </trkpt>
      <trkpt lat="47.70054" lon="2.53662">
        <ele>131.834505</ele>
        <time>2021-09-09T08:36:20.000Z</time>
      </trkpt>
      <trkpt lat="47.70034" lon="2.53673">
        <ele>131.7599</ele>
        <time>2021-09-09T08:36:24.000Z</time>
      </trkpt>
      <trkpt lat="47.69991" lon="2.53697">
        <ele>131.599981</ele>
        <time>2021-09-09T08:36:32.000Z</time>
      </trkpt>
      <trkpt lat="47.69948" lon="2.53719">
        <ele>131.444514</ele>
        <time>2021-09-09T08:36:40.000Z</time>
      </trkpt>
      <trkpt lat="47.69928" lon="2.5373">
        <ele>131.369993</ele>
        <time>2021-09-09T08:36:44.000Z</time>
      </trkpt>
      <trkpt lat="47.69918" lon="2.53736">
        <ele>131.331516</ele>
        <time>2021-09-09T08:36:46.000Z</time>
      </trkpt>
      <trkpt lat="47.69892" lon="2.53757">
        <ele>131.177457</ele>
        <time>2021-09-09T08:36:51.000Z</time>
      </trkpt>
      <trkpt lat="47.69883" lon="2.53769">
        <ele>131.107585</ele>
        <time>2021-09-09T08:36:53.000Z</time>
      </trkpt>
      <trkpt lat="47.69843" lon="2.5383">
        <ele>130.795274</ele>
        <time>2021-09-09T08:37:02.000Z</time>
      </trkpt>
      <trkpt lat="47.69839" lon="2.53836">
        <ele>130.763053</ele>
        <time>2021-09-09T08:37:03.000Z</time>
      </trkpt>
      <trkpt lat="47.69829" lon="2.53857">
        <ele>130.66656</ele>
        <time>2021-09-09T08:37:06.000Z</time>
      </trkpt>
      <trkpt lat="47.69825" lon="2.53873">
        <ele>130.601956</ele>
        <time>2021-09-09T08:37:08.000Z</time>
      </trkpt>
      <trkpt lat="47.69823" lon="2.53891">
        <ele>130.535704</ele>
        <time>2021-09-09T08:37:10.000Z</time>
      </trkpt>
      <trkpt lat="47.69825" lon="2.53909">
        <ele>130.466925</ele>
        <time>2021-09-09T08:37:12.000Z</time>
      </trkpt>
      <trkpt lat="47.69834" lon="2.53945">
        <ele>130.33371</ele>
        <time>2021-09-09T08:37:16.000Z</time>
      </trkpt>
      <trkpt lat="47.69835" lon="2.53954">
        <ele>130.377088</ele>
        <time>2021-09-09T08:37:17.000Z</time>
      </trkpt>
      <trkpt lat="47.69846" lon="2.53995">
        <ele>130.574274</ele>
        <time>2021-09-09T08:37:22.000Z</time>
      </trkpt>
      <trkpt lat="47.6985" lon="2.54001">
        <ele>130.611863</ele>
        <time>2021-09-09T08:37:23.000Z</time>
      </trkpt>
      <trkpt lat="47.69879" lon="2.54038">
        <ele>130.864923</ele>
        <time>2021-09-09T08:37:30.000Z</time>
      </trkpt>
      <trkpt lat="47.69891" lon="2.54052">
        <ele>130.965668</ele>
        <time>2021-09-09T08:37:33.000Z</time>
      </trkpt>
      <trkpt lat="47.69895" lon="2.54065">
        <ele>131.027427</ele>
        <time>2021-09-09T08:37:35.000Z</time>
      </trkpt>
      <trkpt lat="47.69892" lon="2.54099">
        <ele>131.180444</ele>
        <time>2021-09-09T08:37:40.000Z</time>
      </trkpt>
      <trkpt lat="47.69888" lon="2.54143">
        <ele>131.382575</ele>
        <time>2021-09-09T08:37:47.000Z</time>
      </trkpt>
      <trkpt lat="47.69886" lon="2.54168">
        <ele>131.493805</ele>
        <time>2021-09-09T08:37:51.000Z</time>
      </trkpt>
      <trkpt lat="47.69885" lon="2.54186">
        <ele>131.616074</ele>
        <time>2021-09-09T08:37:54.000Z</time>
      </trkpt>
      <trkpt lat="47.69884" lon="2.54192">
        <ele>131.675113</ele>
        <time>2021-09-09T08:37:55.000Z</time>
      </trkpt>
      <trkpt lat="47.69881" lon="2.54204">
        <ele>131.788568</ele>
        <time>2021-09-09T08:37:57.000Z</time>
      </trkpt>
      <trkpt lat="47.69877" lon="2.54217">
        <ele>131.908123</ele>
        <time>2021-09-09T08:37:59.000Z</time>
      </trkpt>
      <trkpt lat="47.69875" lon="2.54224">
        <ele>131.974815</ele>
        <time>2021-09-09T08:38:00.000Z</time>
      </trkpt>
      <trkpt lat="47.69868" lon="2.54244">
        <ele>132.170174</ele>
        <time>2021-09-09T08:38:03.000Z</time>
      </trkpt>
      <trkpt lat="47.69866" lon="2.5425">
        <ele>132.235871</ele>
        <time>2021-09-09T08:38:04.000Z</time>
      </trkpt>
      <trkpt lat="47.6985" lon="2.54295">
        <ele>132.674319</ele>
        <time>2021-09-09T08:38:11.000Z</time>
      </trkpt>
      <trkpt lat="47.69833" lon="2.54331">
        <ele>133.063523</ele>
        <time>2021-09-09T08:38:17.000Z</time>
      </trkpt>
      <trkpt lat="47.69825" lon="2.54352">
        <ele>133.268351</ele>
        <time>2021-09-09T08:38:20.000Z</time>
      </trkpt>
      <trkpt lat="47.69815" lon="2.54379">
        <ele>133.544922</ele>
        <time>2021-09-09T08:38:24.000Z</time>
      </trkpt>
      <trkpt lat="47.698" lon="2.54416">
        <ele>133.887466</ele>
        <time>2021-09-09T08:38:29.000Z</time>
      </trkpt>
      <trkpt lat="47.69794" lon="2.5443">
        <ele>133.962767</ele>
        <time>2021-09-09T08:38:31.000Z</time>
      </trkpt>
      <trkpt lat="47.69768" lon="2.54498">
        <ele>134.304532</ele>
        <time>2021-09-09T08:38:40.000Z</time>
      </trkpt>
      <trkpt lat="47.69742" lon="2.54565">
        <ele>134.64167</ele>
        <time>2021-09-09T08:38:49.000Z</time>
      </trkpt>
      <trkpt lat="47.6972" lon="2.54626">
        <ele>134.942685</ele>
        <time>2021-09-09T08:38:57.000Z</time>
      </trkpt>
      <trkpt lat="47.69693" lon="2.54698">
        <ele>135.125196</ele>
        <time>2021-09-09T08:39:06.000Z</time>
      </trkpt>
      <trkpt lat="47.69667" lon="2.5477">
        <ele>135.254018</ele>
        <time>2021-09-09T08:39:15.000Z</time>
      </trkpt>
      <trkpt lat="47.69639" lon="2.54841">
        <ele>135.381328</ele>
        <time>2021-09-09T08:39:24.000Z</time>
      </trkpt>
      <trkpt lat="47.69614" lon="2.54902">
        <ele>135.498222</ele>
        <time>2021-09-09T08:39:32.000Z</time>
      </trkpt>
      <trkpt lat="47.69585" lon="2.54977">
        <ele>135.645334</ele>
        <time>2021-09-09T08:39:42.000Z</time>
      </trkpt>
      <trkpt lat="47.69555" lon="2.5505">
        <ele>135.791886</ele>
        <time>2021-09-09T08:39:52.000Z</time>
      </trkpt>
      <trkpt lat="47.6953" lon="2.55108">
        <ele>135.902148</ele>
        <time>2021-09-09T08:40:00.000Z</time>
      </trkpt>
      <trkpt lat="47.69504" lon="2.55167">
        <ele>135.922817</ele>
        <time>2021-09-09T08:40:08.000Z</time>
      </trkpt>
      <trkpt lat="47.69476" lon="2.55228">
        <ele>135.944512</ele>
        <time>2021-09-09T08:40:16.000Z</time>
      </trkpt>
      <trkpt lat="47.69447" lon="2.55291">
        <ele>135.967037</ele>
        <time>2021-09-09T08:40:24.000Z</time>
      </trkpt>
      <trkpt lat="47.69423" lon="2.55338">
        <ele>135.884921</ele>
        <time>2021-09-09T08:40:30.000Z</time>
      </trkpt>
      <trkpt lat="47.69385" lon="2.55405">
        <ele>135.421214</ele>
        <time>2021-09-09T08:40:39.000Z</time>
      </trkpt>
      <trkpt lat="47.69381" lon="2.55412">
        <ele>135.371022</ele>
        <time>2021-09-09T08:40:40.000Z</time>
      </trkpt>
      <trkpt lat="47.69348" lon="2.55465">
        <ele>134.988665</ele>
        <time>2021-09-09T08:40:47.000Z</time>
      </trkpt>
      <trkpt lat="47.69328" lon="2.5551">
        <ele>134.702729</ele>
        <time>2021-09-09T08:40:52.000Z</time>
      </trkpt>
      <trkpt lat="47.69314" lon="2.55565">
        <ele>134.270802</ele>
        <time>2021-09-09T08:40:57.000Z</time>
      </trkpt>
      <trkpt lat="47.69295" lon="2.55639">
        <ele>133.567669</ele>
        <time>2021-09-09T08:41:03.000Z</time>
      </trkpt>
      <trkpt lat="47.6927" lon="2.55705">
        <ele>132.898949</ele>
        <time>2021-09-09T08:41:09.000Z</time>
      </trkpt>
      <trkpt lat="47.69237" lon="2.55773">
        <ele>132.162031</ele>
        <time>2021-09-09T08:41:16.000Z</time>
      </trkpt>
      <trkpt lat="47.69233" lon="2.55782">
        <ele>132.083925</ele>
        <time>2021-09-09T08:41:17.000Z</time>
      </trkpt>
      <trkpt lat="47.69203" lon="2.55844">
        <ele>131.568495</ele>
        <time>2021-09-09T08:41:24.000Z</time>
      </trkpt>
      <trkpt lat="47.69172" lon="2.55903">
        <ele>131.066147</ele>
        <time>2021-09-09T08:41:31.000Z</time>
      </trkpt>
      <trkpt lat="47.69138" lon="2.55966">
        <ele>130.519106</ele>
        <time>2021-09-09T08:41:39.000Z</time>
      </trkpt>
      <trkpt lat="47.6913" lon="2.55982">
        <ele>130.382508</ele>
        <time>2021-09-09T08:41:41.000Z</time>
      </trkpt>
      <trkpt lat="47.69117" lon="2.56018">
        <ele>130.114908</ele>
        <time>2021-09-09T08:41:45.000Z</time>
      </trkpt>
      <trkpt lat="47.69103" lon="2.56074">
        <ele>129.720701</ele>
        <time>2021-09-09T08:41:51.000Z</time>
      </trkpt>
      <trkpt lat="47.69086" lon="2.56151">
        <ele>129.189818</ele>
        <time>2021-09-09T08:41:59.000Z</time>
      </trkpt>
      <trkpt lat="47.69084" lon="2.56161">
        <ele>129.123651</ele>
        <time>2021-09-09T08:42:00.000Z</time>
      </trkpt>
      <trkpt lat="47.69061" lon="2.56223">
        <ele>128.660779</ele>
        <time>2021-09-09T08:42:07.000Z</time>
      </trkpt>
      <trkpt lat="47.69025" lon="2.56293">
        <ele>128.283494</ele>
        <time>2021-09-09T08:42:16.000Z</time>
      </trkpt>
      <trkpt lat="47.69021" lon="2.56301">
        <ele>128.242918</ele>
        <time>2021-09-09T08:42:17.000Z</time>
      </trkpt>
      <trkpt lat="47.68984" lon="2.56367">
        <ele>127.887584</ele>
        <time>2021-09-09T08:42:26.000Z</time>
      </trkpt>
      <trkpt lat="47.6898" lon="2.56375">
        <ele>127.84836</ele>
        <time>2021-09-09T08:42:27.000Z</time>
      </trkpt>
      <trkpt lat="47.68949" lon="2.56432">
        <ele>127.5455</ele>
        <time>2021-09-09T08:42:35.000Z</time>
      </trkpt>
      <trkpt lat="47.68911" lon="2.56498">
        <ele>127.36992</ele>
        <time>2021-09-09T08:42:44.000Z</time>
      </trkpt>
      <trkpt lat="47.68875" lon="2.56563">
        <ele>127.213492</ele>
        <time>2021-09-09T08:42:53.000Z</time>
      </trkpt>
      <trkpt lat="47.68839" lon="2.56625">
        <ele>127.061226</ele>
        <time>2021-09-09T08:43:02.000Z</time>
      </trkpt>
      <trkpt lat="47.68836" lon="2.56633">
        <ele>127.04456</ele>
        <time>2021-09-09T08:43:03.000Z</time>
      </trkpt>
      <trkpt lat="47.68812" lon="2.56697">
        <ele>126.9091</ele>
        <time>2021-09-09T08:43:11.000Z</time>
      </trkpt>
      <trkpt lat="47.68789" lon="2.56774">
        <ele>126.751897</ele>
        <time>2021-09-09T08:43:20.000Z</time>
      </trkpt>
      <trkpt lat="47.68781" lon="2.568">
        <ele>126.698911</ele>
        <time>2021-09-09T08:43:23.000Z</time>
      </trkpt>
      <trkpt lat="47.68757" lon="2.56878">
        <ele>126.54027</ele>
        <time>2021-09-09T08:43:32.000Z</time>
      </trkpt>
      <trkpt lat="47.68733" lon="2.56955">
        <ele>126.509092</ele>
        <time>2021-09-09T08:43:41.000Z</time>
      </trkpt>
      <trkpt lat="47.68731" lon="2.56963">
        <ele>126.50677</ele>
        <time>2021-09-09T08:43:42.000Z</time>
      </trkpt>
      <trkpt lat="47.68709" lon="2.57031">
        <ele>126.488426</ele>
        <time>2021-09-09T08:43:50.000Z</time>
      </trkpt>
      <trkpt lat="47.68688" lon="2.57109">
        <ele>126.467826</ele>
        <time>2021-09-09T08:43:59.000Z</time>
      </trkpt>
      <trkpt lat="47.68669" lon="2.57187">
        <ele>126.448012</ele>
        <time>2021-09-09T08:44:08.000Z</time>
      </trkpt>
      <trkpt lat="47.68667" lon="2.57196">
        <ele>126.445845</ele>
        <time>2021-09-09T08:44:09.000Z</time>
      </trkpt>
      <trkpt lat="47.68648" lon="2.57274">
        <ele>126.426425</ele>
        <time>2021-09-09T08:44:18.000Z</time>
      </trkpt>
      <trkpt lat="47.68646" lon="2.57283">
        <ele>126.424258</ele>
        <time>2021-09-09T08:44:19.000Z</time>
      </trkpt>
      <trkpt lat="47.68628" lon="2.5736">
        <ele>126.40504</ele>
        <time>2021-09-09T08:44:28.000Z</time>
      </trkpt>
      <trkpt lat="47.68626" lon="2.57369">
        <ele>126.40285</ele>
        <time>2021-09-09T08:44:29.000Z</time>
      </trkpt>
      <trkpt lat="47.6861" lon="2.57431">
        <ele>126.399997</ele>
        <time>2021-09-09T08:44:36.000Z</time>
      </trkpt>
      <trkpt lat="47.68594" lon="2.57502">
        <ele>126.399997</ele>
        <time>2021-09-09T08:44:44.000Z</time>
      </trkpt>
      <trkpt lat="47.68574" lon="2.57582">
        <ele>126.399997</ele>
        <time>2021-09-09T08:44:53.000Z</time>
      </trkpt>
      <trkpt lat="47.68557" lon="2.57653">
        <ele>126.412883</ele>
        <time>2021-09-09T08:45:01.000Z</time>
      </trkpt>
      <trkpt lat="47.68541" lon="2.57714">
        <ele>126.450368</ele>
        <time>2021-09-09T08:45:08.000Z</time>
      </trkpt>
      <trkpt lat="47.68518" lon="2.57773">
        <ele>126.488641</ele>
        <time>2021-09-09T08:45:15.000Z</time>
      </trkpt>
      <trkpt lat="47.68488" lon="2.57844">
        <ele>126.53632</ele>
        <time>2021-09-09T08:45:24.000Z</time>
      </trkpt>
      <trkpt lat="47.68484" lon="2.57851">
        <ele>126.541507</ele>
        <time>2021-09-09T08:45:25.000Z</time>
      </trkpt>
      <trkpt lat="47.68455" lon="2.57921">
        <ele>126.603005</ele>
        <time>2021-09-09T08:45:34.000Z</time>
      </trkpt>
      <trkpt lat="47.68448" lon="2.57937">
        <ele>126.617592</ele>
        <time>2021-09-09T08:45:36.000Z</time>
      </trkpt>
      <trkpt lat="47.68418" lon="2.58008">
        <ele>126.683169</ele>
        <time>2021-09-09T08:45:45.000Z</time>
      </trkpt>
      <trkpt lat="47.68405" lon="2.58039">
        <ele>126.712615</ele>
        <time>2021-09-09T08:45:49.000Z</time>
      </trkpt>
      <trkpt lat="47.68374" lon="2.58112">
        <ele>126.781053</ele>
        <time>2021-09-09T08:45:58.000Z</time>
      </trkpt>
      <trkpt lat="47.68371" lon="2.5812">
        <ele>126.788805</ele>
        <time>2021-09-09T08:45:59.000Z</time>
      </trkpt>
      <trkpt lat="47.6834" lon="2.58193">
        <ele>126.859279</ele>
        <time>2021-09-09T08:46:08.000Z</time>
      </trkpt>
      <trkpt lat="47.68312" lon="2.58258">
        <ele>126.922698</ele>
        <time>2021-09-09T08:46:16.000Z</time>
      </trkpt>
      <trkpt lat="47.68283" lon="2.58332">
        <ele>126.991167</ele>
        <time>2021-09-09T08:46:25.000Z</time>
      </trkpt>
      <trkpt lat="47.6828" lon="2.58341">
        <ele>126.997833</ele>
        <time>2021-09-09T08:46:26.000Z</time>
      </trkpt>
      <trkpt lat="47.68252" lon="2.58416">
        <ele>127.056953</ele>
        <time>2021-09-09T08:46:35.000Z</time>
      </trkpt>
      <trkpt lat="47.68243" lon="2.5844">
        <ele>127.076237</ele>
        <time>2021-09-09T08:46:38.000Z</time>
      </trkpt>
      <trkpt lat="47.68216" lon="2.58514">
        <ele>127.134122</ele>
        <time>2021-09-09T08:46:47.000Z</time>
      </trkpt>
      <trkpt lat="47.68213" lon="2.58522">
        <ele>127.140448</ele>
        <time>2021-09-09T08:46:48.000Z</time>
      </trkpt>
      <trkpt lat="47.68189" lon="2.58586">
        <ele>127.189064</ele>
        <time>2021-09-09T08:46:56.000Z</time>
      </trkpt>
      <trkpt lat="47.68162" lon="2.58659">
        <ele>127.241419</ele>
        <time>2021-09-09T08:47:05.000Z</time>
      </trkpt>
      <trkpt lat="47.68153" lon="2.58684">
        <ele>127.259427</ele>
        <time>2021-09-09T08:47:08.000Z</time>
      </trkpt>
      <trkpt lat="47.68128" lon="2.58752">
        <ele>127.308063</ele>
        <time>2021-09-09T08:47:16.000Z</time>
      </trkpt>
      <trkpt lat="47.68099" lon="2.5883">
        <ele>127.35465</ele>
        <time>2021-09-09T08:47:25.000Z</time>
      </trkpt>
      <trkpt lat="47.68081" lon="2.58895">
        <ele>127.384485</ele>
        <time>2021-09-09T08:47:32.000Z</time>
      </trkpt>
      <trkpt lat="47.68065" lon="2.58956">
        <ele>127.412634</ele>
        <time>2021-09-09T08:47:39.000Z</time>
      </trkpt>
      <trkpt lat="47.68047" lon="2.59033">
        <ele>127.447522</ele>
        <time>2021-09-09T08:47:48.000Z</time>
      </trkpt>
      <trkpt lat="47.6803" lon="2.5909">
        <ele>127.467572</ele>
        <time>2021-09-09T08:47:55.000Z</time>
      </trkpt>
      <trkpt lat="47.68015" lon="2.59141">
        <ele>127.485254</ele>
        <time>2021-09-09T08:48:01.000Z</time>
      </trkpt>
      <trkpt lat="47.68" lon="2.59191">
        <ele>127.502837</ele>
        <time>2021-09-09T08:48:07.000Z</time>
      </trkpt>
      <trkpt lat="47.67992" lon="2.59216">
        <ele>127.511619</ele>
        <time>2021-09-09T08:48:10.000Z</time>
      </trkpt>
      <trkpt lat="47.67986" lon="2.59232">
        <ele>127.517517</ele>
        <time>2021-09-09T08:48:12.000Z</time>
      </trkpt>
      <trkpt lat="47.67969" lon="2.59293">
        <ele>127.532106</ele>
        <time>2021-09-09T08:48:19.000Z</time>
      </trkpt>
      <trkpt lat="47.67952" lon="2.59356">
        <ele>127.525718</ele>
        <time>2021-09-09T08:48:26.000Z</time>
      </trkpt>
      <trkpt lat="47.67936" lon="2.59409">
        <ele>127.520268</ele>
        <time>2021-09-09T08:48:32.000Z</time>
      </trkpt>
      <trkpt lat="47.67915" lon="2.5948">
        <ele>127.512973</ele>
        <time>2021-09-09T08:48:40.000Z</time>
      </trkpt>
      <trkpt lat="47.67895" lon="2.59549">
        <ele>127.525772</ele>
        <time>2021-09-09T08:48:48.000Z</time>
      </trkpt>
      <trkpt lat="47.67874" lon="2.59619">
        <ele>127.574463</ele>
        <time>2021-09-09T08:48:56.000Z</time>
      </trkpt>
      <trkpt lat="47.67853" lon="2.59688">
        <ele>127.622645</ele>
        <time>2021-09-09T08:49:04.000Z</time>
      </trkpt>
      <trkpt lat="47.67832" lon="2.59765">
        <ele>127.676259</ele>
        <time>2021-09-09T08:49:13.000Z</time>
      </trkpt>
      <trkpt lat="47.67813" lon="2.59824">
        <ele>127.71056</ele>
        <time>2021-09-09T08:49:20.000Z</time>
      </trkpt>
      <trkpt lat="47.6781" lon="2.59831">
        <ele>127.715192</ele>
        <time>2021-09-09T08:49:21.000Z</time>
      </trkpt>
      <trkpt lat="47.67794" lon="2.59886">
        <ele>127.746324</ele>
        <time>2021-09-09T08:49:28.000Z</time>
      </trkpt>
      <trkpt lat="47.67793" lon="2.59895">
        <ele>127.750773</ele>
        <time>2021-09-09T08:49:29.000Z</time>
      </trkpt>
      <trkpt lat="47.67793" lon="2.59912">
        <ele>127.759716</ele>
        <time>2021-09-09T08:49:31.000Z</time>
      </trkpt>
      <trkpt lat="47.68116" lon="2.63033">
        <ele>127.193021</ele>
        <time>2021-09-09T09:22:51.000Z</time>
      </trkpt>
      <trkpt lat="47.68112" lon="2.63044">
        <ele>127.54272</ele>
        <time>2021-09-09T09:27:25.000Z</time>
      </trkpt>
      <trkpt lat="47.68109" lon="2.63047">
        <ele>127.680712</ele>
        <time>2021-09-09T09:27:27.000Z</time>
      </trkpt>
      <trkpt lat="47.68103" lon="2.63067">
        <ele>128.303729</ele>
        <time>2021-09-09T09:27:32.000Z</time>
      </trkpt>
      <trkpt lat="47.681" lon="2.63078">
        <ele>128.67047</ele>
        <time>2021-09-09T09:27:34.000Z</time>
      </trkpt>
      <trkpt lat="47.68094" lon="2.6309">
        <ele>129.09756</ele>
        <time>2021-09-09T09:27:36.000Z</time>
      </trkpt>
      <trkpt lat="47.68071" lon="2.63143">
        <ele>130.890124</ele>
        <time>2021-09-09T09:27:44.000Z</time>
      </trkpt>
      <trkpt lat="47.68064" lon="2.63165">
        <ele>131.569241</ele>
        <time>2021-09-09T09:27:47.000Z</time>
      </trkpt>
      <trkpt lat="47.68059" lon="2.63178">
        <ele>131.734289</ele>
        <time>2021-09-09T09:27:49.000Z</time>
      </trkpt>
      <trkpt lat="47.68043" lon="2.63223">
        <ele>131.445885</ele>
        <time>2021-09-09T09:27:55.000Z</time>
      </trkpt>
      <trkpt lat="47.68028" lon="2.63265">
        <ele>131.173705</ele>
        <time>2021-09-09T09:28:01.000Z</time>
      </trkpt>
      <trkpt lat="47.68013" lon="2.6331">
        <ele>130.886975</ele>
        <time>2021-09-09T09:28:08.000Z</time>
      </trkpt>
      <trkpt lat="47.68011" lon="2.63316">
        <ele>130.845989</ele>
        <time>2021-09-09T09:28:09.000Z</time>
      </trkpt>
      <trkpt lat="47.68001" lon="2.63343">
        <ele>130.676715</ele>
        <time>2021-09-09T09:28:13.000Z</time>
      </trkpt>
      <trkpt lat="47.67988" lon="2.63384">
        <ele>130.413885</ele>
        <time>2021-09-09T09:28:19.000Z</time>
      </trkpt>
      <trkpt lat="47.67973" lon="2.63424">
        <ele>130.282597</ele>
        <time>2021-09-09T09:28:25.000Z</time>
      </trkpt>
      <trkpt lat="47.67966" lon="2.63445">
        <ele>130.314268</ele>
        <time>2021-09-09T09:28:28.000Z</time>
      </trkpt>
      <trkpt lat="47.67958" lon="2.63466">
        <ele>130.346309</ele>
        <time>2021-09-09T09:28:31.000Z</time>
      </trkpt>
      <trkpt lat="47.6795" lon="2.63487">
        <ele>130.37808</ele>
        <time>2021-09-09T09:28:34.000Z</time>
      </trkpt>
      <trkpt lat="47.67942" lon="2.63509">
        <ele>130.410798</ele>
        <time>2021-09-09T09:28:37.000Z</time>
      </trkpt>
      <trkpt lat="47.67932" lon="2.6354">
        <ele>130.456941</ele>
        <time>2021-09-09T09:28:41.000Z</time>
      </trkpt>
      <trkpt lat="47.67927" lon="2.63556">
        <ele>130.480472</ele>
        <time>2021-09-09T09:28:43.000Z</time>
      </trkpt>
      <trkpt lat="47.67925" lon="2.63564">
        <ele>130.491914</ele>
        <time>2021-09-09T09:28:44.000Z</time>
      </trkpt>
      <trkpt lat="47.6792" lon="2.63579">
        <ele>130.513331</ele>
        <time>2021-09-09T09:28:46.000Z</time>
      </trkpt>
      <trkpt lat="47.67918" lon="2.63586">
        <ele>130.523662</ele>
        <time>2021-09-09T09:28:47.000Z</time>
      </trkpt>
      <trkpt lat="47.67913" lon="2.63601">
        <ele>130.546218</ele>
        <time>2021-09-09T09:28:49.000Z</time>
      </trkpt>
      <trkpt lat="47.67906" lon="2.63625">
        <ele>130.580556</ele>
        <time>2021-09-09T09:28:52.000Z</time>
      </trkpt>
      <trkpt lat="47.67904" lon="2.63632">
        <ele>130.591557</ele>
        <time>2021-09-09T09:28:53.000Z</time>
      </trkpt>
      <trkpt lat="47.67897" lon="2.63659">
        <ele>130.619425</ele>
        <time>2021-09-09T09:28:56.000Z</time>
      </trkpt>
      <trkpt lat="47.67885" lon="2.63712">
        <ele>130.648735</ele>
        <time>2021-09-09T09:29:02.000Z</time>
      </trkpt>
      <trkpt lat="47.67884" lon="2.63719">
        <ele>130.652958</ele>
        <time>2021-09-09T09:29:03.000Z</time>
      </trkpt>
      <trkpt lat="47.6788" lon="2.63734">
        <ele>130.66138</ele>
        <time>2021-09-09T09:29:05.000Z</time>
      </trkpt>
      <trkpt lat="47.67875" lon="2.63749">
        <ele>130.669833</ele>
        <time>2021-09-09T09:29:07.000Z</time>
      </trkpt>
      <trkpt lat="47.67871" lon="2.63764">
        <ele>130.678431</ele>
        <time>2021-09-09T09:29:09.000Z</time>
      </trkpt>
      <trkpt lat="47.67868" lon="2.6377">
        <ele>130.682324</ele>
        <time>2021-09-09T09:29:10.000Z</time>
      </trkpt>
      <trkpt lat="47.67865" lon="2.63774">
        <ele>130.685874</ele>
        <time>2021-09-09T09:29:11.000Z</time>
      </trkpt>
      <trkpt lat="47.6786" lon="2.63774">
        <ele>130.689551</ele>
        <time>2021-09-09T09:29:12.000Z</time>
      </trkpt>
      <trkpt lat="47.67855" lon="2.63772">
        <ele>130.693862</ele>
        <time>2021-09-09T09:29:13.000Z</time>
      </trkpt>
      <trkpt lat="47.67838" lon="2.63759">
        <ele>130.708729</ele>
        <time>2021-09-09T09:29:16.000Z</time>
      </trkpt>
      <trkpt lat="47.67798" lon="2.6373">
        <ele>130.743697</ele>
        <time>2021-09-09T09:29:23.000Z</time>
      </trkpt>
      <trkpt lat="47.6777" lon="2.63713">
        <ele>130.564922</ele>
        <time>2021-09-09T09:29:28.000Z</time>
      </trkpt>
      <trkpt lat="47.67735" lon="2.63691">
        <ele>130.148428</ele>
        <time>2021-09-09T09:29:34.000Z</time>
      </trkpt>
      <trkpt lat="47.67729" lon="2.63687">
        <ele>130.078056</ele>
        <time>2021-09-09T09:29:35.000Z</time>
      </trkpt>
      <trkpt lat="47.67705" lon="2.63673">
        <ele>129.791012</ele>
        <time>2021-09-09T09:29:39.000Z</time>
      </trkpt>
      <trkpt lat="47.67692" lon="2.63666">
        <ele>129.647204</ele>
        <time>2021-09-09T09:29:41.000Z</time>
      </trkpt>
      <trkpt lat="47.67655" lon="2.63645">
        <ele>129.210131</ele>
        <time>2021-09-09T09:29:47.000Z</time>
      </trkpt>
      <trkpt lat="47.67624" lon="2.63631">
        <ele>128.859371</ele>
        <time>2021-09-09T09:29:52.000Z</time>
      </trkpt>
      <trkpt lat="47.67619" lon="2.63627">
        <ele>128.790043</ele>
        <time>2021-09-09T09:29:53.000Z</time>
      </trkpt>
      <trkpt lat="47.67612" lon="2.63624">
        <ele>128.733249</ele>
        <time>2021-09-09T09:29:54.000Z</time>
      </trkpt>
      <trkpt lat="47.67587" lon="2.63613">
        <ele>128.506852</ele>
        <time>2021-09-09T09:29:58.000Z</time>
      </trkpt>
      <trkpt lat="47.67581" lon="2.63611">
        <ele>128.449753</ele>
        <time>2021-09-09T09:29:59.000Z</time>
      </trkpt>
      <trkpt lat="47.67569" lon="2.63605">
        <ele>128.338166</ele>
        <time>2021-09-09T09:30:01.000Z</time>
      </trkpt>
      <trkpt lat="47.67563" lon="2.63602">
        <ele>128.28456</ele>
        <time>2021-09-09T09:30:02.000Z</time>
      </trkpt>
      <trkpt lat="47.67528" lon="2.63582">
        <ele>127.961159</ele>
        <time>2021-09-09T09:30:08.000Z</time>
      </trkpt>
      <trkpt lat="47.67496" lon="2.63561">
        <ele>127.651822</ele>
        <time>2021-09-09T09:30:14.000Z</time>
      </trkpt>
      <trkpt lat="47.67469" lon="2.6354">
        <ele>127.389759</ele>
        <time>2021-09-09T09:30:19.000Z</time>
      </trkpt>
      <trkpt lat="47.67454" lon="2.63528">
        <ele>127.241332</ele>
        <time>2021-09-09T09:30:22.000Z</time>
      </trkpt>
      <trkpt lat="47.6745" lon="2.63523">
        <ele>127.212674</ele>
        <time>2021-09-09T09:30:23.000Z</time>
      </trkpt>
      <trkpt lat="47.67447" lon="2.63517">
        <ele>127.198479</ele>
        <time>2021-09-09T09:30:24.000Z</time>
      </trkpt>
      <trkpt lat="47.67441" lon="2.63509">
        <ele>127.171404</ele>
        <time>2021-09-09T09:30:26.000Z</time>
      </trkpt>
      <trkpt lat="47.67433" lon="2.63503">
        <ele>127.142432</ele>
        <time>2021-09-09T09:30:28.000Z</time>
      </trkpt>
      <trkpt lat="47.67425" lon="2.63496">
        <ele>127.113661</ele>
        <time>2021-09-09T09:30:30.000Z</time>
      </trkpt>
      <trkpt lat="47.6742" lon="2.63493">
        <ele>127.097901</ele>
        <time>2021-09-09T09:30:31.000Z</time>
      </trkpt>
      <trkpt lat="47.67416" lon="2.6349">
        <ele>127.081935</ele>
        <time>2021-09-09T09:30:32.000Z</time>
      </trkpt>
      <trkpt lat="47.67407" lon="2.63479">
        <ele>127.047831</ele>
        <time>2021-09-09T09:30:34.000Z</time>
      </trkpt>
      <trkpt lat="47.674" lon="2.63468">
        <ele>127.013203</ele>
        <time>2021-09-09T09:30:36.000Z</time>
      </trkpt>
      <trkpt lat="47.67389" lon="2.6346">
        <ele>126.977966</ele>
        <time>2021-09-09T09:30:38.000Z</time>
      </trkpt>
      <trkpt lat="47.67378" lon="2.63462">
        <ele>126.94302</ele>
        <time>2021-09-09T09:30:40.000Z</time>
      </trkpt>
      <trkpt lat="47.67374" lon="2.63466">
        <ele>126.925623</ele>
        <time>2021-09-09T09:30:41.000Z</time>
      </trkpt>
      <trkpt lat="47.6737" lon="2.63473">
        <ele>126.908403</ele>
        <time>2021-09-09T09:30:42.000Z</time>
      </trkpt>
      <trkpt lat="47.67368" lon="2.63488">
        <ele>126.874867</ele>
        <time>2021-09-09T09:30:44.000Z</time>
      </trkpt>
      <trkpt lat="47.67367" lon="2.63503">
        <ele>126.843548</ele>
        <time>2021-09-09T09:30:46.000Z</time>
      </trkpt>
      <trkpt lat="47.67364" lon="2.63524">
        <ele>126.798614</ele>
        <time>2021-09-09T09:30:49.000Z</time>
      </trkpt>
      <trkpt lat="47.67365" lon="2.63538">
        <ele>126.76841</ele>
        <time>2021-09-09T09:30:51.000Z</time>
      </trkpt>
      <trkpt lat="47.67369" lon="2.63552">
        <ele>126.736091</ele>
        <time>2021-09-09T09:30:53.000Z</time>
      </trkpt>
      <trkpt lat="47.67378" lon="2.63572">
        <ele>126.686658</ele>
        <time>2021-09-09T09:30:56.000Z</time>
      </trkpt>
      <trkpt lat="47.6738" lon="2.63587">
        <ele>126.649858</ele>
        <time>2021-09-09T09:30:58.000Z</time>
      </trkpt>
      <trkpt lat="47.67378" lon="2.63604">
        <ele>126.593681</ele>
        <time>2021-09-09T09:31:00.000Z</time>
      </trkpt>
      <trkpt lat="47.67375" lon="2.63612">
        <ele>126.565082</ele>
        <time>2021-09-09T09:31:01.000Z</time>
      </trkpt>
      <trkpt lat="47.67372" lon="2.63619">
        <ele>126.535838</ele>
        <time>2021-09-09T09:31:02.000Z</time>
      </trkpt>
      <trkpt lat="47.67354" lon="2.63643">
        <ele>126.418585</ele>
        <time>2021-09-09T09:31:06.000Z</time>
      </trkpt>
      <trkpt lat="47.6732" lon="2.63688">
        <ele>126.19816</ele>
        <time>2021-09-09T09:31:13.000Z</time>
      </trkpt>
      <trkpt lat="47.67309" lon="2.637">
        <ele>126.131797</ele>
        <time>2021-09-09T09:31:15.000Z</time>
      </trkpt>
      <trkpt lat="47.67295" lon="2.6372">
        <ele>126.035133</ele>
        <time>2021-09-09T09:31:18.000Z</time>
      </trkpt>
      <trkpt lat="47.67266" lon="2.63761">
        <ele>125.840327</ele>
        <time>2021-09-09T09:31:24.000Z</time>
      </trkpt>
      <trkpt lat="47.67255" lon="2.63773">
        <ele>125.776752</ele>
        <time>2021-09-09T09:31:26.000Z</time>
      </trkpt>
      <trkpt lat="47.6722" lon="2.6382">
        <ele>125.591037</ele>
        <time>2021-09-09T09:31:33.000Z</time>
      </trkpt>
      <trkpt lat="47.67205" lon="2.63839">
        <ele>125.511776</ele>
        <time>2021-09-09T09:31:36.000Z</time>
      </trkpt>
      <trkpt lat="47.67194" lon="2.63851">
        <ele>125.458678</ele>
        <time>2021-09-09T09:31:38.000Z</time>
      </trkpt>
      <trkpt lat="47.67179" lon="2.63873">
        <ele>125.378055</ele>
        <time>2021-09-09T09:31:41.000Z</time>
      </trkpt>
      <trkpt lat="47.6717" lon="2.63886">
        <ele>125.325487</ele>
        <time>2021-09-09T09:31:43.000Z</time>
      </trkpt>
      <trkpt lat="47.67138" lon="2.63935">
        <ele>125.14644</ele>
        <time>2021-09-09T09:31:50.000Z</time>
      </trkpt>
      <trkpt lat="47.67125" lon="2.63957">
        <ele>125.069494</ele>
        <time>2021-09-09T09:31:53.000Z</time>
      </trkpt>
      <trkpt lat="47.67092" lon="2.6401">
        <ele>124.945491</ele>
        <time>2021-09-09T09:32:00.000Z</time>
      </trkpt>
      <trkpt lat="47.6706" lon="2.64063">
        <ele>124.822026</ele>
        <time>2021-09-09T09:32:07.000Z</time>
      </trkpt>
      <trkpt lat="47.67022" lon="2.64133">
        <ele>124.668205</ele>
        <time>2021-09-09T09:32:16.000Z</time>
      </trkpt>
      <trkpt lat="47.66988" lon="2.64197">
        <ele>124.530395</ele>
        <time>2021-09-09T09:32:24.000Z</time>
      </trkpt>
      <trkpt lat="47.66984" lon="2.64205">
        <ele>124.513023</ele>
        <time>2021-09-09T09:32:25.000Z</time>
      </trkpt>
      <trkpt lat="47.66951" lon="2.64268">
        <ele>124.380656</ele>
        <time>2021-09-09T09:32:33.000Z</time>
      </trkpt>
      <trkpt lat="47.66924" lon="2.64323">
        <ele>124.266192</ele>
        <time>2021-09-09T09:32:40.000Z</time>
      </trkpt>
      <trkpt lat="47.66895" lon="2.64387">
        <ele>124.157494</ele>
        <time>2021-09-09T09:32:48.000Z</time>
      </trkpt>
      <trkpt lat="47.66864" lon="2.6446">
        <ele>124.114299</ele>
        <time>2021-09-09T09:32:57.000Z</time>
      </trkpt>
      <trkpt lat="47.6686" lon="2.64468">
        <ele>124.109459</ele>
        <time>2021-09-09T09:32:58.000Z</time>
      </trkpt>
      <trkpt lat="47.66833" lon="2.64532">
        <ele>124.071428</ele>
        <time>2021-09-09T09:33:06.000Z</time>
      </trkpt>
      <trkpt lat="47.66806" lon="2.64604">
        <ele>124.037186</ele>
        <time>2021-09-09T09:33:15.000Z</time>
      </trkpt>
      <trkpt lat="47.66778" lon="2.64675">
        <ele>124.131689</ele>
        <time>2021-09-09T09:33:24.000Z</time>
      </trkpt>
      <trkpt lat="47.66771" lon="2.64688">
        <ele>124.151268</ele>
        <time>2021-09-09T09:33:26.000Z</time>
      </trkpt>
      <trkpt lat="47.66763" lon="2.64697">
        <ele>124.16887</ele>
        <time>2021-09-09T09:33:28.000Z</time>
      </trkpt>
      <trkpt lat="47.66752" lon="2.64697">
        <ele>124.187442</ele>
        <time>2021-09-09T09:33:30.000Z</time>
      </trkpt>
      <trkpt lat="47.66746" lon="2.64695">
        <ele>124.196732</ele>
        <time>2021-09-09T09:33:31.000Z</time>
      </trkpt>
      <trkpt lat="47.66735" lon="2.64688">
        <ele>124.217697</ele>
        <time>2021-09-09T09:33:33.000Z</time>
      </trkpt>
      <trkpt lat="47.66718" lon="2.64678">
        <ele>124.248419</ele>
        <time>2021-09-09T09:33:36.000Z</time>
      </trkpt>
      <trkpt lat="47.66683" lon="2.64664">
        <ele>124.310253</ele>
        <time>2021-09-09T09:33:42.000Z</time>
      </trkpt>
      <trkpt lat="47.66641" lon="2.6466">
        <ele>124.366357</ele>
        <time>2021-09-09T09:33:49.000Z</time>
      </trkpt>
      <trkpt lat="47.66606" lon="2.64659">
        <ele>124.403043</ele>
        <time>2021-09-09T09:33:55.000Z</time>
      </trkpt>
      <trkpt lat="47.66594" lon="2.64659">
        <ele>124.41609</ele>
        <time>2021-09-09T09:33:57.000Z</time>
      </trkpt>
      <trkpt lat="47.66576" lon="2.64662">
        <ele>124.436075</ele>
        <time>2021-09-09T09:34:00.000Z</time>
      </trkpt>
      <trkpt lat="47.66569" lon="2.64664">
        <ele>124.442876</ele>
        <time>2021-09-09T09:34:01.000Z</time>
      </trkpt>
      <trkpt lat="47.66533" lon="2.64682">
        <ele>124.483397</ele>
        <time>2021-09-09T09:34:07.000Z</time>
      </trkpt>
      <trkpt lat="47.66521" lon="2.64686">
        <ele>124.49679</ele>
        <time>2021-09-09T09:34:09.000Z</time>
      </trkpt>
      <trkpt lat="47.66509" lon="2.64686">
        <ele>124.509946</ele>
        <time>2021-09-09T09:34:11.000Z</time>
      </trkpt>
      <trkpt lat="47.66497" lon="2.64683">
        <ele>124.522919</ele>
        <time>2021-09-09T09:34:13.000Z</time>
      </trkpt>
      <trkpt lat="47.6648" lon="2.64673">
        <ele>124.601214</ele>
        <time>2021-09-09T09:34:16.000Z</time>
      </trkpt>
      <trkpt lat="47.66437" lon="2.64637">
        <ele>124.917816</ele>
        <time>2021-09-09T09:34:24.000Z</time>
      </trkpt>
      <trkpt lat="47.66403" lon="2.64609">
        <ele>125.169036</ele>
        <time>2021-09-09T09:34:31.000Z</time>
      </trkpt>
      <trkpt lat="47.66384" lon="2.64596">
        <ele>125.305985</ele>
        <time>2021-09-09T09:34:35.000Z</time>
      </trkpt>
      <trkpt lat="47.66375" lon="2.64593">
        <ele>125.367088</ele>
        <time>2021-09-09T09:34:37.000Z</time>
      </trkpt>
      <trkpt lat="47.66345" lon="2.64591">
        <ele>125.560613</ele>
        <time>2021-09-09T09:34:44.000Z</time>
      </trkpt>
      <trkpt lat="47.6632" lon="2.64587">
        <ele>125.783689</ele>
        <time>2021-09-09T09:34:50.000Z</time>
      </trkpt>
      <trkpt lat="47.66316" lon="2.64586">
        <ele>125.874696</ele>
        <time>2021-09-09T09:34:51.000Z</time>
      </trkpt>
      <trkpt lat="47.66279" lon="2.64569">
        <ele>126.67422</ele>
        <time>2021-09-09T09:35:00.000Z</time>
      </trkpt>
      <trkpt lat="47.66257" lon="2.64569">
        <ele>127.140573</ele>
        <time>2021-09-09T09:35:06.000Z</time>
      </trkpt>
      <trkpt lat="47.6625" lon="2.64589">
        <ele>127.45972</ele>
        <time>2021-09-09T09:35:10.000Z</time>
      </trkpt>
      <trkpt lat="47.66237" lon="2.64636">
        <ele>128.169531</ele>
        <time>2021-09-09T09:35:19.000Z</time>
      </trkpt>
      <trkpt lat="47.66224" lon="2.64683">
        <ele>128.878288</ele>
        <time>2021-09-09T09:35:28.000Z</time>
      </trkpt>
      <trkpt lat="47.66222" lon="2.64695">
        <ele>129.04861</ele>
        <time>2021-09-09T09:35:30.000Z</time>
      </trkpt>
      <trkpt lat="47.66217" lon="2.64714">
        <ele>129.341977</ele>
        <time>2021-09-09T09:35:33.000Z</time>
      </trkpt>
      <trkpt lat="47.66206" lon="2.64764">
        <ele>129.797106</ele>
        <time>2021-09-09T09:35:40.000Z</time>
      </trkpt>
      <trkpt lat="47.66199" lon="2.64802">
        <ele>130.109125</ele>
        <time>2021-09-09T09:35:45.000Z</time>
      </trkpt>
      <trkpt lat="47.66198" lon="2.64809">
        <ele>130.167835</ele>
        <time>2021-09-09T09:35:46.000Z</time>
      </trkpt>
      <trkpt lat="47.66185" lon="2.64877">
        <ele>130.726078</ele>
        <time>2021-09-09T09:35:54.000Z</time>
      </trkpt>
      <trkpt lat="47.66182" lon="2.64932">
        <ele>131.164335</ele>
        <time>2021-09-09T09:36:00.000Z</time>
      </trkpt>
      <trkpt lat="47.66188" lon="2.64998">
        <ele>131.611616</ele>
        <time>2021-09-09T09:36:07.000Z</time>
      </trkpt>
      <trkpt lat="47.66185" lon="2.65053">
        <ele>131.804928</ele>
        <time>2021-09-09T09:36:13.000Z</time>
      </trkpt>
      <trkpt lat="47.66175" lon="2.65107">
        <ele>132.000825</ele>
        <time>2021-09-09T09:36:19.000Z</time>
      </trkpt>
      <trkpt lat="47.66158" lon="2.65185">
        <ele>132.28701</ele>
        <time>2021-09-09T09:36:28.000Z</time>
      </trkpt>
      <trkpt lat="47.66156" lon="2.65194">
        <ele>132.32102</ele>
        <time>2021-09-09T09:36:29.000Z</time>
      </trkpt>
      <trkpt lat="47.6614" lon="2.65253">
        <ele>132.551386</ele>
        <time>2021-09-09T09:36:35.000Z</time>
      </trkpt>
      <trkpt lat="47.66129" lon="2.65298">
        <ele>132.745043</ele>
        <time>2021-09-09T09:36:40.000Z</time>
      </trkpt>
      <trkpt lat="47.66118" lon="2.65347">
        <ele>132.954566</ele>
        <time>2021-09-09T09:36:47.000Z</time>
      </trkpt>
      <trkpt lat="47.66103" lon="2.65407">
        <ele>133.209578</ele>
        <time>2021-09-09T09:36:55.000Z</time>
      </trkpt>
      <trkpt lat="47.66086" lon="2.65464">
        <ele>133.462246</ele>
        <time>2021-09-09T09:37:02.000Z</time>
      </trkpt>
      <trkpt lat="47.66075" lon="2.655">
        <ele>133.578316</ele>
        <time>2021-09-09T09:37:06.000Z</time>
      </trkpt>
      <trkpt lat="47.66069" lon="2.6552">
        <ele>133.600832</ele>
        <time>2021-09-09T09:37:08.000Z</time>
      </trkpt>
      <trkpt lat="47.66042" lon="2.65581">
        <ele>133.678391</ele>
        <time>2021-09-09T09:37:15.000Z</time>
      </trkpt>
      <trkpt lat="47.66018" lon="2.65628">
        <ele>133.741951</ele>
        <time>2021-09-09T09:37:22.000Z</time>
      </trkpt>
      <trkpt lat="47.66002" lon="2.65664">
        <ele>133.787502</ele>
        <time>2021-09-09T09:37:28.000Z</time>
      </trkpt>
      <trkpt lat="47.65987" lon="2.65701">
        <ele>133.833807</ele>
        <time>2021-09-09T09:37:34.000Z</time>
      </trkpt>
      <trkpt lat="47.65969" lon="2.65744">
        <ele>133.992583</ele>
        <time>2021-09-09T09:37:41.000Z</time>
      </trkpt>
      <trkpt lat="47.65949" lon="2.65795">
        <ele>134.210593</ele>
        <time>2021-09-09T09:37:49.000Z</time>
      </trkpt>
      <trkpt lat="47.65947" lon="2.65801">
        <ele>134.236279</ele>
        <time>2021-09-09T09:37:50.000Z</time>
      </trkpt>
      <trkpt lat="47.65941" lon="2.65811">
        <ele>134.286238</ele>
        <time>2021-09-09T09:37:52.000Z</time>
      </trkpt>
      <trkpt lat="47.65935" lon="2.65822">
        <ele>134.339328</ele>
        <time>2021-09-09T09:37:54.000Z</time>
      </trkpt>
      <trkpt lat="47.65926" lon="2.65855">
        <ele>134.472421</ele>
        <time>2021-09-09T09:37:59.000Z</time>
      </trkpt>
      <trkpt lat="47.65916" lon="2.6591">
        <ele>134.68334</ele>
        <time>2021-09-09T09:38:06.000Z</time>
      </trkpt>
      <trkpt lat="47.65912" lon="2.65935">
        <ele>134.78077</ele>
        <time>2021-09-09T09:38:09.000Z</time>
      </trkpt>
      <trkpt lat="47.65905" lon="2.65961">
        <ele>134.843882</ele>
        <time>2021-09-09T09:38:12.000Z</time>
      </trkpt>
      <trkpt lat="47.65886" lon="2.66014">
        <ele>134.846101</ele>
        <time>2021-09-09T09:38:19.000Z</time>
      </trkpt>
      <trkpt lat="47.65867" lon="2.66056">
        <ele>134.847971</ele>
        <time>2021-09-09T09:38:25.000Z</time>
      </trkpt>
      <trkpt lat="47.65864" lon="2.66062">
        <ele>134.848287</ele>
        <time>2021-09-09T09:38:26.000Z</time>
      </trkpt>
      <trkpt lat="47.65855" lon="2.66075">
        <ele>134.848977</ele>
        <time>2021-09-09T09:38:28.000Z</time>
      </trkpt>
      <trkpt lat="47.65849" lon="2.66081">
        <ele>134.84934</ele>
        <time>2021-09-09T09:38:29.000Z</time>
      </trkpt>
      <trkpt lat="47.65814" lon="2.66115">
        <ele>134.851681</ele>
        <time>2021-09-09T09:38:35.000Z</time>
      </trkpt>
      <trkpt lat="47.65801" lon="2.6614">
        <ele>134.852826</ele>
        <time>2021-09-09T09:38:38.000Z</time>
      </trkpt>
      <trkpt lat="47.65785" lon="2.66186">
        <ele>134.995712</ele>
        <time>2021-09-09T09:38:44.000Z</time>
      </trkpt>
      <trkpt lat="47.65768" lon="2.66231">
        <ele>135.196354</ele>
        <time>2021-09-09T09:38:51.000Z</time>
      </trkpt>
      <trkpt lat="47.65743" lon="2.66294">
        <ele>135.476903</ele>
        <time>2021-09-09T09:39:01.000Z</time>
      </trkpt>
      <trkpt lat="47.65719" lon="2.66358">
        <ele>135.763936</ele>
        <time>2021-09-09T09:39:11.000Z</time>
      </trkpt>
      <trkpt lat="47.65698" lon="2.66408">
        <ele>135.798406</ele>
        <time>2021-09-09T09:39:19.000Z</time>
      </trkpt>
      <trkpt lat="47.6568" lon="2.66451">
        <ele>135.62281</ele>
        <time>2021-09-09T09:39:26.000Z</time>
      </trkpt>
      <trkpt lat="47.65678" lon="2.66466">
        <ele>135.570382</ele>
        <time>2021-09-09T09:39:28.000Z</time>
      </trkpt>
      <trkpt lat="47.65675" lon="2.66491">
        <ele>135.482569</ele>
        <time>2021-09-09T09:39:31.000Z</time>
      </trkpt>
      <trkpt lat="47.65666" lon="2.66541">
        <ele>135.305665</ele>
        <time>2021-09-09T09:39:36.000Z</time>
      </trkpt>
      <trkpt lat="47.65654" lon="2.66612">
        <ele>135.050814</ele>
        <time>2021-09-09T09:39:42.000Z</time>
      </trkpt>
      <trkpt lat="47.65641" lon="2.66679">
        <ele>134.559152</ele>
        <time>2021-09-09T09:39:47.000Z</time>
      </trkpt>
      <trkpt lat="47.65625" lon="2.66756">
        <ele>133.826352</ele>
        <time>2021-09-09T09:39:53.000Z</time>
      </trkpt>
      <trkpt lat="47.65617" lon="2.66776">
        <ele>133.614146</ele>
        <time>2021-09-09T09:39:55.000Z</time>
      </trkpt>
      <trkpt lat="47.65606" lon="2.66793">
        <ele>133.404293</ele>
        <time>2021-09-09T09:39:57.000Z</time>
      </trkpt>
      <trkpt lat="47.65571" lon="2.66853">
        <ele>132.685365</ele>
        <time>2021-09-09T09:40:04.000Z</time>
      </trkpt>
      <trkpt lat="47.65538" lon="2.66926">
        <ele>132.315697</ele>
        <time>2021-09-09T09:40:12.000Z</time>
      </trkpt>
      <trkpt lat="47.65511" lon="2.66986">
        <ele>132.081157</ele>
        <time>2021-09-09T09:40:19.000Z</time>
      </trkpt>
      <trkpt lat="47.6548" lon="2.6706">
        <ele>131.798399</ele>
        <time>2021-09-09T09:40:28.000Z</time>
      </trkpt>
      <trkpt lat="47.65451" lon="2.6713">
        <ele>131.626402</ele>
        <time>2021-09-09T09:40:37.000Z</time>
      </trkpt>
      <trkpt lat="47.65439" lon="2.67161">
        <ele>131.580633</ele>
        <time>2021-09-09T09:40:41.000Z</time>
      </trkpt>
      <trkpt lat="47.65435" lon="2.67168">
        <ele>131.568718</ele>
        <time>2021-09-09T09:40:42.000Z</time>
      </trkpt>
      <trkpt lat="47.65421" lon="2.67199">
        <ele>131.521504</ele>
        <time>2021-09-09T09:40:46.000Z</time>
      </trkpt>
      <trkpt lat="47.65415" lon="2.67214">
        <ele>131.500403</ele>
        <time>2021-09-09T09:40:48.000Z</time>
      </trkpt>
      <trkpt lat="47.65405" lon="2.67237">
        <ele>131.465413</ele>
        <time>2021-09-09T09:40:51.000Z</time>
      </trkpt>
      <trkpt lat="47.65398" lon="2.67252">
        <ele>131.441174</ele>
        <time>2021-09-09T09:40:53.000Z</time>
      </trkpt>
      <trkpt lat="47.6539" lon="2.67269">
        <ele>131.415128</ele>
        <time>2021-09-09T09:40:55.000Z</time>
      </trkpt>
      <trkpt lat="47.65378" lon="2.67295">
        <ele>131.376131</ele>
        <time>2021-09-09T09:40:58.000Z</time>
      </trkpt>
      <trkpt lat="47.65371" lon="2.67313">
        <ele>131.348726</ele>
        <time>2021-09-09T09:41:00.000Z</time>
      </trkpt>
      <trkpt lat="47.65355" lon="2.67357">
        <ele>131.216378</ele>
        <time>2021-09-09T09:41:05.000Z</time>
      </trkpt>
      <trkpt lat="47.65334" lon="2.67418">
        <ele>131.032104</ele>
        <time>2021-09-09T09:41:12.000Z</time>
      </trkpt>
      <trkpt lat="47.65308" lon="2.67484">
        <ele>130.825003</ele>
        <time>2021-09-09T09:41:20.000Z</time>
      </trkpt>
      <trkpt lat="47.65285" lon="2.6754">
        <ele>130.648404</ele>
        <time>2021-09-09T09:41:27.000Z</time>
      </trkpt>
      <trkpt lat="47.6527" lon="2.67579">
        <ele>130.606029</ele>
        <time>2021-09-09T09:41:32.000Z</time>
      </trkpt>
      <trkpt lat="47.65259" lon="2.67611">
        <ele>130.582743</ele>
        <time>2021-09-09T09:41:36.000Z</time>
      </trkpt>
      <trkpt lat="47.65256" lon="2.6762">
        <ele>130.576737</ele>
        <time>2021-09-09T09:41:37.000Z</time>
      </trkpt>
      <trkpt lat="47.65241" lon="2.67684">
        <ele>130.533476</ele>
        <time>2021-09-09T09:41:44.000Z</time>
      </trkpt>
      <trkpt lat="47.65223" lon="2.67755">
        <ele>130.485611</ele>
        <time>2021-09-09T09:41:52.000Z</time>
      </trkpt>
      <trkpt lat="47.65206" lon="2.67812">
        <ele>130.468544</ele>
        <time>2021-09-09T09:41:59.000Z</time>
      </trkpt>
      <trkpt lat="47.65187" lon="2.67868">
        <ele>130.493112</ele>
        <time>2021-09-09T09:42:06.000Z</time>
      </trkpt>
      <trkpt lat="47.65169" lon="2.67928">
        <ele>130.518647</ele>
        <time>2021-09-09T09:42:13.000Z</time>
      </trkpt>
      <trkpt lat="47.65149" lon="2.67991">
        <ele>130.546015</ele>
        <time>2021-09-09T09:42:21.000Z</time>
      </trkpt>
      <trkpt lat="47.65128" lon="2.68057">
        <ele>130.924361</ele>
        <time>2021-09-09T09:42:30.000Z</time>
      </trkpt>
      <trkpt lat="47.65109" lon="2.68102">
        <ele>131.659831</ele>
        <time>2021-09-09T09:42:37.000Z</time>
      </trkpt>
      <trkpt lat="47.65093" lon="2.68124">
        <ele>132.087601</ele>
        <time>2021-09-09T09:42:42.000Z</time>
      </trkpt>
      <trkpt lat="47.65077" lon="2.68132">
        <ele>132.448186</ele>
        <time>2021-09-09T09:42:47.000Z</time>
      </trkpt>
      <trkpt lat="47.65052" lon="2.68123">
        <ele>132.958754</ele>
        <time>2021-09-09T09:42:54.000Z</time>
      </trkpt>
      <trkpt lat="47.6503" lon="2.68119">
        <ele>133.419682</ele>
        <time>2021-09-09T09:43:01.000Z</time>
      </trkpt>
      <trkpt lat="47.6501" lon="2.68123">
        <ele>133.838923</ele>
        <time>2021-09-09T09:43:08.000Z</time>
      </trkpt>
      <trkpt lat="47.64993" lon="2.68131">
        <ele>134.193732</ele>
        <time>2021-09-09T09:43:15.000Z</time>
      </trkpt>
      <trkpt lat="47.64979" lon="2.68139">
        <ele>134.972685</ele>
        <time>2021-09-09T09:43:21.000Z</time>
      </trkpt>
      <trkpt lat="47.64965" lon="2.68148">
        <ele>135.85076</ele>
        <time>2021-09-09T09:43:27.000Z</time>
      </trkpt>
      <trkpt lat="47.6495" lon="2.68155">
        <ele>136.76404</ele>
        <time>2021-09-09T09:43:34.000Z</time>
      </trkpt>
      <trkpt lat="47.64932" lon="2.68163">
        <ele>137.837847</ele>
        <time>2021-09-09T09:43:42.000Z</time>
      </trkpt>
      <trkpt lat="47.64911" lon="2.68171">
        <ele>139.056125</ele>
        <time>2021-09-09T09:43:51.000Z</time>
      </trkpt>
      <trkpt lat="47.64893" lon="2.68181">
        <ele>140.160698</ele>
        <time>2021-09-09T09:44:00.000Z</time>
      </trkpt>
      <trkpt lat="47.64872" lon="2.68189">
        <ele>141.374096</ele>
        <time>2021-09-09T09:44:09.000Z</time>
      </trkpt>
      <trkpt lat="47.64852" lon="2.68202">
        <ele>142.63752</ele>
        <time>2021-09-09T09:44:18.000Z</time>
      </trkpt>
      <trkpt lat="47.64833" lon="2.68223">
        <ele>143.960554</ele>
        <time>2021-09-09T09:44:27.000Z</time>
      </trkpt>
      <trkpt lat="47.64821" lon="2.6823">
        <ele>144.583387</ele>
        <time>2021-09-09T09:44:32.000Z</time>
      </trkpt>
      <trkpt lat="47.64817" lon="2.68231">
        <ele>144.730986</ele>
        <time>2021-09-09T09:44:34.000Z</time>
      </trkpt>
      <trkpt lat="47.64812" lon="2.68229">
        <ele>144.901181</ele>
        <time>2021-09-09T09:44:36.000Z</time>
      </trkpt>
      <trkpt lat="47.64806" lon="2.68228">
        <ele>145.087369</ele>
        <time>2021-09-09T09:44:38.000Z</time>
      </trkpt>
      <trkpt lat="47.64801" lon="2.6823">
        <ele>145.254928</ele>
        <time>2021-09-09T09:44:40.000Z</time>
      </trkpt>
      <trkpt lat="47.64786" lon="2.68219">
        <ele>145.777299</ele>
        <time>2021-09-09T09:44:45.000Z</time>
      </trkpt>
      <trkpt lat="47.64772" lon="2.68218">
        <ele>146.238079</ele>
        <time>2021-09-09T09:44:49.000Z</time>
      </trkpt>
      <trkpt lat="47.6477" lon="2.68223">
        <ele>146.357734</ele>
        <time>2021-09-09T09:44:50.000Z</time>
      </trkpt>
      <trkpt lat="47.64767" lon="2.68244">
        <ele>146.828632</ele>
        <time>2021-09-09T09:44:54.000Z</time>
      </trkpt>
      <trkpt lat="47.64765" lon="2.68271">
        <ele>147.410394</ele>
        <time>2021-09-09T09:44:59.000Z</time>
      </trkpt>
      <trkpt lat="47.64758" lon="2.68322">
        <ele>148.519348</ele>
        <time>2021-09-09T09:45:07.000Z</time>
      </trkpt>
      <trkpt lat="47.64752" lon="2.68357">
        <ele>149.319012</ele>
        <time>2021-09-09T09:45:13.000Z</time>
      </trkpt>
      <trkpt lat="47.64749" lon="2.68383">
        <ele>149.883867</ele>
        <time>2021-09-09T09:45:18.000Z</time>
      </trkpt>
      <trkpt lat="47.6475" lon="2.68406">
        <ele>150.244932</ele>
        <time>2021-09-09T09:45:23.000Z</time>
      </trkpt>
      <trkpt lat="47.64749" lon="2.68444">
        <ele>150.392562</ele>
        <time>2021-09-09T09:45:29.000Z</time>
      </trkpt>
      <trkpt lat="47.64749" lon="2.6846">
        <ele>150.454366</ele>
        <time>2021-09-09T09:45:31.000Z</time>
      </trkpt>
      <trkpt lat="47.64748" lon="2.68474">
        <ele>150.510943</ele>
        <time>2021-09-09T09:45:33.000Z</time>
      </trkpt>
      <trkpt lat="47.6475" lon="2.68492">
        <ele>150.580842</ele>
        <time>2021-09-09T09:45:36.000Z</time>
      </trkpt>
      <trkpt lat="47.6475" lon="2.68499">
        <ele>150.606045</ele>
        <time>2021-09-09T09:45:37.000Z</time>
      </trkpt>
      <trkpt lat="47.6475" lon="2.68505">
        <ele>150.633072</ele>
        <time>2021-09-09T09:45:38.000Z</time>
      </trkpt>
      <trkpt lat="47.64742" lon="2.68534">
        <ele>150.753518</ele>
        <time>2021-09-09T09:45:42.000Z</time>
      </trkpt>
      <trkpt lat="47.64727" lon="2.68581">
        <ele>150.953771</ele>
        <time>2021-09-09T09:45:49.000Z</time>
      </trkpt>
      <trkpt lat="47.64725" lon="2.68588">
        <ele>150.982209</ele>
        <time>2021-09-09T09:45:50.000Z</time>
      </trkpt>
      <trkpt lat="47.64714" lon="2.68616">
        <ele>151.10769</ele>
        <time>2021-09-09T09:45:54.000Z</time>
      </trkpt>
      <trkpt lat="47.64712" lon="2.68624">
        <ele>151.141025</ele>
        <time>2021-09-09T09:45:55.000Z</time>
      </trkpt>
      <trkpt lat="47.64701" lon="2.68656">
        <ele>151.241822</ele>
        <time>2021-09-09T09:45:59.000Z</time>
      </trkpt>
      <trkpt lat="47.6469" lon="2.68679">
        <ele>151.202674</ele>
        <time>2021-09-09T09:46:02.000Z</time>
      </trkpt>
      <trkpt lat="47.64681" lon="2.68692">
        <ele>151.177782</ele>
        <time>2021-09-09T09:46:04.000Z</time>
      </trkpt>
      <trkpt lat="47.64677" lon="2.68698">
        <ele>151.16525</ele>
        <time>2021-09-09T09:46:05.000Z</time>
      </trkpt>
      <trkpt lat="47.64662" lon="2.68723">
        <ele>151.11952</ele>
        <time>2021-09-09T09:46:09.000Z</time>
      </trkpt>
      <trkpt lat="47.64648" lon="2.68746">
        <ele>151.075453</ele>
        <time>2021-09-09T09:46:13.000Z</time>
      </trkpt>
      <trkpt lat="47.64626" lon="2.68781">
        <ele>151.00928</ele>
        <time>2021-09-09T09:46:19.000Z</time>
      </trkpt>
      <trkpt lat="47.64602" lon="2.68814">
        <ele>150.941316</ele>
        <time>2021-09-09T09:46:25.000Z</time>
      </trkpt>
      <trkpt lat="47.64575" lon="2.68845">
        <ele>150.884801</ele>
        <time>2021-09-09T09:46:31.000Z</time>
      </trkpt>
      <trkpt lat="47.64548" lon="2.68876">
        <ele>150.923273</ele>
        <time>2021-09-09T09:46:37.000Z</time>
      </trkpt>
      <trkpt lat="47.64543" lon="2.68881">
        <ele>150.929753</ele>
        <time>2021-09-09T09:46:38.000Z</time>
      </trkpt>
      <trkpt lat="47.64521" lon="2.68898">
        <ele>150.956507</ele>
        <time>2021-09-09T09:46:42.000Z</time>
      </trkpt>
      <trkpt lat="47.6448" lon="2.68927">
        <ele>151.007402</ele>
        <time>2021-09-09T09:46:49.000Z</time>
      </trkpt>
      <trkpt lat="47.64463" lon="2.68941">
        <ele>151.028054</ele>
        <time>2021-09-09T09:46:52.000Z</time>
      </trkpt>
      <trkpt lat="47.64458" lon="2.68946">
        <ele>151.034883</ele>
        <time>2021-09-09T09:46:53.000Z</time>
      </trkpt>
      <trkpt lat="47.64445" lon="2.6896">
        <ele>151.052875</ele>
        <time>2021-09-09T09:46:56.000Z</time>
      </trkpt>
      <trkpt lat="47.64441" lon="2.68965">
        <ele>151.058335</ele>
        <time>2021-09-09T09:46:57.000Z</time>
      </trkpt>
      <trkpt lat="47.64421" lon="2.68988">
        <ele>151.201885</ele>
        <time>2021-09-09T09:47:03.000Z</time>
      </trkpt>
      <trkpt lat="47.64404" lon="2.69009">
        <ele>151.551805</ele>
        <time>2021-09-09T09:47:09.000Z</time>
      </trkpt>
      <trkpt lat="47.6439" lon="2.6903">
        <ele>151.863339</ele>
        <time>2021-09-09T09:47:14.000Z</time>
      </trkpt>
      <trkpt lat="47.64373" lon="2.69058">
        <ele>152.278778</ele>
        <time>2021-09-09T09:47:21.000Z</time>
      </trkpt>
      <trkpt lat="47.64361" lon="2.69077">
        <ele>152.558148</ele>
        <time>2021-09-09T09:47:25.000Z</time>
      </trkpt>
      <trkpt lat="47.64355" lon="2.69088">
        <ele>152.712701</ele>
        <time>2021-09-09T09:47:27.000Z</time>
      </trkpt>
      <trkpt lat="47.64341" lon="2.69111">
        <ele>153.044425</ele>
        <time>2021-09-09T09:47:31.000Z</time>
      </trkpt>
      <trkpt lat="47.64326" lon="2.69143">
        <ele>153.465927</ele>
        <time>2021-09-09T09:47:36.000Z</time>
      </trkpt>
      <trkpt lat="47.64307" lon="2.69198">
        <ele>154.071047</ele>
        <time>2021-09-09T09:47:44.000Z</time>
      </trkpt>
      <trkpt lat="47.64284" lon="2.69265">
        <ele>154.599099</ele>
        <time>2021-09-09T09:47:54.000Z</time>
      </trkpt>
      <trkpt lat="47.64261" lon="2.69332">
        <ele>155.119989</ele>
        <time>2021-09-09T09:48:04.000Z</time>
      </trkpt>
      <trkpt lat="47.64236" lon="2.69382">
        <ele>155.55888</ele>
        <time>2021-09-09T09:48:12.000Z</time>
      </trkpt>
      <trkpt lat="47.64198" lon="2.69435">
        <ele>155.880305</ele>
        <time>2021-09-09T09:48:21.000Z</time>
      </trkpt>
      <trkpt lat="47.64161" lon="2.69486">
        <ele>155.985684</ele>
        <time>2021-09-09T09:48:30.000Z</time>
      </trkpt>
      <trkpt lat="47.64131" lon="2.69528">
        <ele>156.071434</ele>
        <time>2021-09-09T09:48:37.000Z</time>
      </trkpt>
      <trkpt lat="47.64091" lon="2.69583">
        <ele>156.184411</ele>
        <time>2021-09-09T09:48:46.000Z</time>
      </trkpt>
      <trkpt lat="47.6406" lon="2.6963">
        <ele>156.280464</ele>
        <time>2021-09-09T09:48:54.000Z</time>
      </trkpt>
      <trkpt lat="47.64042" lon="2.6967">
        <ele>156.349646</ele>
        <time>2021-09-09T09:49:00.000Z</time>
      </trkpt>
      <trkpt lat="47.6404" lon="2.69678">
        <ele>156.361579</ele>
        <time>2021-09-09T09:49:01.000Z</time>
      </trkpt>
      <trkpt lat="47.64035" lon="2.69693">
        <ele>156.386076</ele>
        <time>2021-09-09T09:49:03.000Z</time>
      </trkpt>
      <trkpt lat="47.64027" lon="2.69708">
        <ele>156.412505</ele>
        <time>2021-09-09T09:49:05.000Z</time>
      </trkpt>
      <trkpt lat="47.64023" lon="2.69715">
        <ele>156.426369</ele>
        <time>2021-09-09T09:49:06.000Z</time>
      </trkpt>
      <trkpt lat="47.64018" lon="2.69721">
        <ele>156.44018</ele>
        <time>2021-09-09T09:49:07.000Z</time>
      </trkpt>
      <trkpt lat="47.64002" lon="2.69733">
        <ele>156.479615</ele>
        <time>2021-09-09T09:49:10.000Z</time>
      </trkpt>
      <trkpt lat="47.63991" lon="2.69738">
        <ele>156.504179</ele>
        <time>2021-09-09T09:49:12.000Z</time>
      </trkpt>
      <trkpt lat="47.6398" lon="2.69738">
        <ele>156.528049</ele>
        <time>2021-09-09T09:49:14.000Z</time>
      </trkpt>
      <trkpt lat="47.63974" lon="2.69736">
        <ele>156.539945</ele>
        <time>2021-09-09T09:49:15.000Z</time>
      </trkpt>
      <trkpt lat="47.63964" lon="2.69731">
        <ele>156.562622</ele>
        <time>2021-09-09T09:49:17.000Z</time>
      </trkpt>
      <trkpt lat="47.63952" lon="2.69719">
        <ele>156.667181</ele>
        <time>2021-09-09T09:49:20.000Z</time>
      </trkpt>
      <trkpt lat="47.63918" lon="2.69688">
        <ele>157.55174</ele>
        <time>2021-09-09T09:49:29.000Z</time>
      </trkpt>
      <trkpt lat="47.63897" lon="2.69673">
        <ele>158.079142</ele>
        <time>2021-09-09T09:49:35.000Z</time>
      </trkpt>
      <trkpt lat="47.63879" lon="2.69672">
        <ele>158.48282</ele>
        <time>2021-09-09T09:49:40.000Z</time>
      </trkpt>
      <trkpt lat="47.63847" lon="2.69676">
        <ele>159.200082</ele>
        <time>2021-09-09T09:49:49.000Z</time>
      </trkpt>
      <trkpt lat="47.6382" lon="2.69682">
        <ele>159.803088</ele>
        <time>2021-09-09T09:49:57.000Z</time>
      </trkpt>
      <trkpt lat="47.63796" lon="2.69684">
        <ele>160.345457</ele>
        <time>2021-09-09T09:50:05.000Z</time>
      </trkpt>
      <trkpt lat="47.63778" lon="2.69685">
        <ele>160.859388</ele>
        <time>2021-09-09T09:50:11.000Z</time>
      </trkpt>
      <trkpt lat="47.63756" lon="2.69682">
        <ele>161.665922</ele>
        <time>2021-09-09T09:50:18.000Z</time>
      </trkpt>
      <trkpt lat="47.63733" lon="2.6968">
        <ele>162.542356</ele>
        <time>2021-09-09T09:50:26.000Z</time>
      </trkpt>
      <trkpt lat="47.63707" lon="2.6968">
        <ele>163.539058</ele>
        <time>2021-09-09T09:50:35.000Z</time>
      </trkpt>
      <trkpt lat="47.63675" lon="2.69678">
        <ele>164.737304</ele>
        <time>2021-09-09T09:50:45.000Z</time>
      </trkpt>
      <trkpt lat="47.63646" lon="2.69678">
        <ele>165.843962</ele>
        <time>2021-09-09T09:50:53.000Z</time>
      </trkpt>
      <trkpt lat="47.63617" lon="2.69676">
        <ele>166.932202</ele>
        <time>2021-09-09T09:51:01.000Z</time>
      </trkpt>
      <trkpt lat="47.63578" lon="2.69674">
        <ele>167.939725</ele>
        <time>2021-09-09T09:51:11.000Z</time>
      </trkpt>
      <trkpt lat="47.63542" lon="2.69672">
        <ele>168.664757</ele>
        <time>2021-09-09T09:51:20.000Z</time>
      </trkpt>
      <trkpt lat="47.63503" lon="2.69667">
        <ele>169.423948</ele>
        <time>2021-09-09T09:51:29.000Z</time>
      </trkpt>
      <trkpt lat="47.63464" lon="2.69652">
        <ele>170.224806</ele>
        <time>2021-09-09T09:51:38.000Z</time>
      </trkpt>
      <trkpt lat="47.6342" lon="2.69633">
        <ele>171.023329</ele>
        <time>2021-09-09T09:51:48.000Z</time>
      </trkpt>
      <trkpt lat="47.63387" lon="2.6962">
        <ele>171.249653</ele>
        <time>2021-09-09T09:51:55.000Z</time>
      </trkpt>
      <trkpt lat="47.63341" lon="2.69601">
        <ele>171.568465</ele>
        <time>2021-09-09T09:52:04.000Z</time>
      </trkpt>
      <trkpt lat="47.63309" lon="2.69591">
        <ele>171.786465</ele>
        <time>2021-09-09T09:52:10.000Z</time>
      </trkpt>
      <trkpt lat="47.63304" lon="2.69591">
        <ele>171.824112</ele>
        <time>2021-09-09T09:52:11.000Z</time>
      </trkpt>
      <trkpt lat="47.63292" lon="2.6959">
        <ele>171.903412</ele>
        <time>2021-09-09T09:52:13.000Z</time>
      </trkpt>
      <trkpt lat="47.63274" lon="2.69592">
        <ele>172.022645</ele>
        <time>2021-09-09T09:52:16.000Z</time>
      </trkpt>
      <trkpt lat="47.63227" lon="2.69599">
        <ele>172.246017</ele>
        <time>2021-09-09T09:52:24.000Z</time>
      </trkpt>
      <trkpt lat="47.63177" lon="2.69606">
        <ele>172.385793</ele>
        <time>2021-09-09T09:52:32.000Z</time>
      </trkpt>
      <trkpt lat="47.63153" lon="2.69614">
        <ele>172.455474</ele>
        <time>2021-09-09T09:52:36.000Z</time>
      </trkpt>
      <trkpt lat="47.63147" lon="2.69618">
        <ele>172.472379</ele>
        <time>2021-09-09T09:52:37.000Z</time>
      </trkpt>
      <trkpt lat="47.6312" lon="2.69646">
        <ele>172.564006</ele>
        <time>2021-09-09T09:52:42.000Z</time>
      </trkpt>
      <trkpt lat="47.63089" lon="2.69699">
        <ele>172.684231</ele>
        <time>2021-09-09T09:52:49.000Z</time>
      </trkpt>
      <trkpt lat="47.6305" lon="2.69763">
        <ele>172.733566</ele>
        <time>2021-09-09T09:52:58.000Z</time>
      </trkpt>
      <trkpt lat="47.63046" lon="2.6977">
        <ele>172.738749</ele>
        <time>2021-09-09T09:52:59.000Z</time>
      </trkpt>
      <trkpt lat="47.63026" lon="2.69803">
        <ele>172.764483</ele>
        <time>2021-09-09T09:53:04.000Z</time>
      </trkpt>
      <trkpt lat="47.62991" lon="2.69854">
        <ele>172.806562</ele>
        <time>2021-09-09T09:53:12.000Z</time>
      </trkpt>
      <trkpt lat="47.62955" lon="2.69886">
        <ele>172.814005</ele>
        <time>2021-09-09T09:53:19.000Z</time>
      </trkpt>
      <trkpt lat="47.62934" lon="2.69905">
        <ele>172.776589</ele>
        <time>2021-09-09T09:53:23.000Z</time>
      </trkpt>
      <trkpt lat="47.62924" lon="2.69917">
        <ele>172.758071</ele>
        <time>2021-09-09T09:53:25.000Z</time>
      </trkpt>
      <trkpt lat="47.62911" lon="2.69935">
        <ele>172.731067</ele>
        <time>2021-09-09T09:53:28.000Z</time>
      </trkpt>
      <trkpt lat="47.62868" lon="2.69986">
        <ele>172.649156</ele>
        <time>2021-09-09T09:53:36.000Z</time>
      </trkpt>
      <trkpt lat="47.62827" lon="2.70024">
        <ele>172.575783</ele>
        <time>2021-09-09T09:53:43.000Z</time>
      </trkpt>
      <trkpt lat="47.62783" lon="2.70056">
        <ele>172.383702</ele>
        <time>2021-09-09T09:53:50.000Z</time>
      </trkpt>
      <trkpt lat="47.62739" lon="2.70087">
        <ele>172.166614</ele>
        <time>2021-09-09T09:53:57.000Z</time>
      </trkpt>
      <trkpt lat="47.62701" lon="2.70114">
        <ele>171.978928</ele>
        <time>2021-09-09T09:54:03.000Z</time>
      </trkpt>
      <trkpt lat="47.62653" lon="2.70152">
        <ele>171.736874</ele>
        <time>2021-09-09T09:54:11.000Z</time>
      </trkpt>
      <trkpt lat="47.62612" lon="2.70195">
        <ele>171.487145</ele>
        <time>2021-09-09T09:54:19.000Z</time>
      </trkpt>
      <trkpt lat="47.62593" lon="2.70214">
        <ele>171.368643</ele>
        <time>2021-09-09T09:54:23.000Z</time>
      </trkpt>
      <trkpt lat="47.62571" lon="2.70231">
        <ele>171.24741</ele>
        <time>2021-09-09T09:54:27.000Z</time>
      </trkpt>
      <trkpt lat="47.62525" lon="2.70269">
        <ele>170.981842</ele>
        <time>2021-09-09T09:54:35.000Z</time>
      </trkpt>
      <trkpt lat="47.62513" lon="2.7028">
        <ele>170.914387</ele>
        <time>2021-09-09T09:54:37.000Z</time>
      </trkpt>
      <trkpt lat="47.62493" lon="2.70308">
        <ele>170.666968</ele>
        <time>2021-09-09T09:54:41.000Z</time>
      </trkpt>
      <trkpt lat="47.62457" lon="2.70378">
        <ele>170.006744</ele>
        <time>2021-09-09T09:54:49.000Z</time>
      </trkpt>
      <trkpt lat="47.62423" lon="2.70453">
        <ele>169.333225</ele>
        <time>2021-09-09T09:54:57.000Z</time>
      </trkpt>
      <trkpt lat="47.62404" lon="2.70514">
        <ele>168.824476</ele>
        <time>2021-09-09T09:55:03.000Z</time>
      </trkpt>
      <trkpt lat="47.62399" lon="2.70523">
        <ele>168.742445</ele>
        <time>2021-09-09T09:55:04.000Z</time>
      </trkpt>
      <trkpt lat="47.62386" lon="2.70549">
        <ele>168.501692</ele>
        <time>2021-09-09T09:55:07.000Z</time>
      </trkpt>
      <trkpt lat="47.62373" lon="2.70561">
        <ele>168.341845</ele>
        <time>2021-09-09T09:55:09.000Z</time>
      </trkpt>
      <trkpt lat="47.62366" lon="2.70564">
        <ele>168.265905</ele>
        <time>2021-09-09T09:55:10.000Z</time>
      </trkpt>
      <trkpt lat="47.62346" lon="2.70571">
        <ele>168.040321</ele>
        <time>2021-09-09T09:55:13.000Z</time>
      </trkpt>
      <trkpt lat="47.62333" lon="2.70577">
        <ele>167.891744</ele>
        <time>2021-09-09T09:55:15.000Z</time>
      </trkpt>
      <trkpt lat="47.6232" lon="2.70585">
        <ele>167.74359</ele>
        <time>2021-09-09T09:55:17.000Z</time>
      </trkpt>
      <trkpt lat="47.62295" lon="2.70602">
        <ele>167.449954</ele>
        <time>2021-09-09T09:55:21.000Z</time>
      </trkpt>
      <trkpt lat="47.6226" lon="2.7062">
        <ele>167.04502</ele>
        <time>2021-09-09T09:55:27.000Z</time>
      </trkpt>
      <trkpt lat="47.62218" lon="2.70641">
        <ele>166.811802</ele>
        <time>2021-09-09T09:55:34.000Z</time>
      </trkpt>
      <trkpt lat="47.62171" lon="2.70661">
        <ele>166.648021</ele>
        <time>2021-09-09T09:55:42.000Z</time>
      </trkpt>
      <trkpt lat="47.62139" lon="2.70678">
        <ele>166.536825</ele>
        <time>2021-09-09T09:55:48.000Z</time>
      </trkpt>
      <trkpt lat="47.62123" lon="2.70698">
        <ele>166.467502</ele>
        <time>2021-09-09T09:55:53.000Z</time>
      </trkpt>
      <trkpt lat="47.62113" lon="2.70711">
        <ele>166.423865</ele>
        <time>2021-09-09T09:55:57.000Z</time>
      </trkpt>
      <trkpt lat="47.6211" lon="2.70715">
        <ele>166.409626</ele>
        <time>2021-09-09T09:55:58.000Z</time>
      </trkpt>
      <trkpt lat="47.62081" lon="2.70742">
        <ele>166.412883</ele>
        <time>2021-09-09T09:56:05.000Z</time>
      </trkpt>
      <trkpt lat="47.62046" lon="2.7077">
        <ele>166.866502</ele>
        <time>2021-09-09T09:56:13.000Z</time>
      </trkpt>
      <trkpt lat="47.62025" lon="2.70788">
        <ele>167.149729</ele>
        <time>2021-09-09T09:56:19.000Z</time>
      </trkpt>
      <trkpt lat="47.6199" lon="2.70814">
        <ele>167.602177</ele>
        <time>2021-09-09T09:56:28.000Z</time>
      </trkpt>
      <trkpt lat="47.61948" lon="2.70844">
        <ele>168.133659</ele>
        <time>2021-09-09T09:56:39.000Z</time>
      </trkpt>
      <trkpt lat="47.61908" lon="2.70872">
        <ele>168.615347</ele>
        <time>2021-09-09T09:56:49.000Z</time>
      </trkpt>
      <trkpt lat="47.61865" lon="2.70903">
        <ele>169.10343</ele>
        <time>2021-09-09T09:56:59.000Z</time>
      </trkpt>
      <trkpt lat="47.61826" lon="2.70933">
        <ele>169.55628</ele>
        <time>2021-09-09T09:57:08.000Z</time>
      </trkpt>
      <trkpt lat="47.61789" lon="2.70965">
        <ele>169.993194</ele>
        <time>2021-09-09T09:57:17.000Z</time>
      </trkpt>
      <trkpt lat="47.61754" lon="2.71004">
        <ele>170.40239</ele>
        <time>2021-09-09T09:57:26.000Z</time>
      </trkpt>
      <trkpt lat="47.61721" lon="2.71031">
        <ele>170.721986</ele>
        <time>2021-09-09T09:57:34.000Z</time>
      </trkpt>
      <trkpt lat="47.61671" lon="2.71067">
        <ele>171.197826</ele>
        <time>2021-09-09T09:57:46.000Z</time>
      </trkpt>
      <trkpt lat="47.61636" lon="2.71091">
        <ele>171.520916</ele>
        <time>2021-09-09T09:57:54.000Z</time>
      </trkpt>
      <trkpt lat="47.61601" lon="2.71121">
        <ele>171.764768</ele>
        <time>2021-09-09T09:58:02.000Z</time>
      </trkpt>
      <trkpt lat="47.61576" lon="2.71145">
        <ele>171.786677</ele>
        <time>2021-09-09T09:58:08.000Z</time>
      </trkpt>
      <trkpt lat="47.61571" lon="2.71149">
        <ele>171.790695</ele>
        <time>2021-09-09T09:58:09.000Z</time>
      </trkpt>
      <trkpt lat="47.61566" lon="2.71154">
        <ele>171.794739</ele>
        <time>2021-09-09T09:58:10.000Z</time>
      </trkpt>
      <trkpt lat="47.61547" lon="2.71171">
        <ele>171.811218</ele>
        <time>2021-09-09T09:58:14.000Z</time>
      </trkpt>
      <trkpt lat="47.61529" lon="2.71189">
        <ele>171.827095</ele>
        <time>2021-09-09T09:58:18.000Z</time>
      </trkpt>
      <trkpt lat="47.61525" lon="2.71194">
        <ele>171.830997</ele>
        <time>2021-09-09T09:58:19.000Z</time>
      </trkpt>
      <trkpt lat="47.61491" lon="2.71223">
        <ele>171.859544</ele>
        <time>2021-09-09T09:58:26.000Z</time>
      </trkpt>
      <trkpt lat="47.61454" lon="2.71254">
        <ele>171.90613</ele>
        <time>2021-09-09T09:58:34.000Z</time>
      </trkpt>
      <trkpt lat="47.61428" lon="2.71278">
        <ele>172.034223</ele>
        <time>2021-09-09T09:58:40.000Z</time>
      </trkpt>
      <trkpt lat="47.61377" lon="2.71324">
        <ele>172.276449</ele>
        <time>2021-09-09T09:58:51.000Z</time>
      </trkpt>
      <trkpt lat="47.61371" lon="2.71328">
        <ele>172.299923</ele>
        <time>2021-09-09T09:58:52.000Z</time>
      </trkpt>
      <trkpt lat="47.6132" lon="2.71364">
        <ele>172.530937</ele>
        <time>2021-09-09T09:59:02.000Z</time>
      </trkpt>
      <trkpt lat="47.61315" lon="2.71368">
        <ele>172.555182</ele>
        <time>2021-09-09T09:59:03.000Z</time>
      </trkpt>
      <trkpt lat="47.61282" lon="2.71385">
        <ele>172.700382</ele>
        <time>2021-09-09T09:59:09.000Z</time>
      </trkpt>
      <trkpt lat="47.61236" lon="2.71411">
        <ele>172.913778</ele>
        <time>2021-09-09T09:59:18.000Z</time>
      </trkpt>
      <trkpt lat="47.61194" lon="2.7143">
        <ele>173.100446</ele>
        <time>2021-09-09T09:59:26.000Z</time>
      </trkpt>
      <trkpt lat="47.61152" lon="2.71455">
        <ele>173.296179</ele>
        <time>2021-09-09T09:59:34.000Z</time>
      </trkpt>
      <trkpt lat="47.61109" lon="2.71485">
        <ele>173.423178</ele>
        <time>2021-09-09T09:59:42.000Z</time>
      </trkpt>
      <trkpt lat="47.61098" lon="2.71493">
        <ele>173.438394</ele>
        <time>2021-09-09T09:59:44.000Z</time>
      </trkpt>
      <trkpt lat="47.61082" lon="2.71508">
        <ele>173.462225</ele>
        <time>2021-09-09T09:59:47.000Z</time>
      </trkpt>
      <trkpt lat="47.61048" lon="2.71536">
        <ele>173.510523</ele>
        <time>2021-09-09T09:59:53.000Z</time>
      </trkpt>
      <trkpt lat="47.60996" lon="2.71574">
        <ele>173.583583</ele>
        <time>2021-09-09T10:00:02.000Z</time>
      </trkpt>
      <trkpt lat="47.60961" lon="2.71591">
        <ele>173.612141</ele>
        <time>2021-09-09T10:00:08.000Z</time>
      </trkpt>
      <trkpt lat="47.60921" lon="2.71608">
        <ele>173.592931</ele>
        <time>2021-09-09T10:00:15.000Z</time>
      </trkpt>
      <trkpt lat="47.60876" lon="2.7163">
        <ele>173.570813</ele>
        <time>2021-09-09T10:00:23.000Z</time>
      </trkpt>
      <trkpt lat="47.60833" lon="2.71667">
        <ele>173.548116</ele>
        <time>2021-09-09T10:00:31.000Z</time>
      </trkpt>
      <trkpt lat="47.60809" lon="2.71701">
        <ele>173.52542</ele>
        <time>2021-09-09T10:00:36.000Z</time>
      </trkpt>
      <trkpt lat="47.60779" lon="2.71744">
        <ele>173.366122</ele>
        <time>2021-09-09T10:00:42.000Z</time>
      </trkpt>
      <trkpt lat="47.60775" lon="2.71752">
        <ele>173.339841</ele>
        <time>2021-09-09T10:00:43.000Z</time>
      </trkpt>
      <trkpt lat="47.60759" lon="2.71796">
        <ele>173.211907</ele>
        <time>2021-09-09T10:00:48.000Z</time>
      </trkpt>
      <trkpt lat="47.60735" lon="2.71865">
        <ele>173.01215</ele>
        <time>2021-09-09T10:00:56.000Z</time>
      </trkpt>
      <trkpt lat="47.60704" lon="2.71937">
        <ele>172.738757</ele>
        <time>2021-09-09T10:01:05.000Z</time>
      </trkpt>
      <trkpt lat="47.60667" lon="2.72003">
        <ele>172.312062</ele>
        <time>2021-09-09T10:01:14.000Z</time>
      </trkpt>
      <trkpt lat="47.60636" lon="2.72047">
        <ele>171.990431</ele>
        <time>2021-09-09T10:01:21.000Z</time>
      </trkpt>
      <trkpt lat="47.606" lon="2.72085">
        <ele>171.660778</ele>
        <time>2021-09-09T10:01:28.000Z</time>
      </trkpt>
      <trkpt lat="47.60561" lon="2.72128">
        <ele>171.143116</ele>
        <time>2021-09-09T10:01:35.000Z</time>
      </trkpt>
      <trkpt lat="47.60547" lon="2.72153">
        <ele>170.855221</ele>
        <time>2021-09-09T10:01:38.000Z</time>
      </trkpt>
      <trkpt lat="47.6054" lon="2.72173">
        <ele>170.650621</ele>
        <time>2021-09-09T10:01:40.000Z</time>
      </trkpt>
      <trkpt lat="47.60535" lon="2.72209">
        <ele>170.3259</ele>
        <time>2021-09-09T10:01:43.000Z</time>
      </trkpt>
      <trkpt lat="47.60535" lon="2.72221">
        <ele>170.218796</ele>
        <time>2021-09-09T10:01:44.000Z</time>
      </trkpt>
      <trkpt lat="47.60533" lon="2.72272">
        <ele>169.774021</ele>
        <time>2021-09-09T10:01:48.000Z</time>
      </trkpt>
      <trkpt lat="47.60531" lon="2.72284">
        <ele>169.662886</ele>
        <time>2021-09-09T10:01:49.000Z</time>
      </trkpt>
      <trkpt lat="47.60528" lon="2.72296">
        <ele>169.550789</ele>
        <time>2021-09-09T10:01:50.000Z</time>
      </trkpt>
      <trkpt lat="47.60519" lon="2.72316">
        <ele>169.334967</ele>
        <time>2021-09-09T10:01:52.000Z</time>
      </trkpt>
      <trkpt lat="47.60495" lon="2.72364">
        <ele>169.139313</ele>
        <time>2021-09-09T10:01:57.000Z</time>
      </trkpt>
      <trkpt lat="47.60481" lon="2.72409">
        <ele>169.127085</ele>
        <time>2021-09-09T10:02:02.000Z</time>
      </trkpt>
      <trkpt lat="47.60471" lon="2.72436">
        <ele>169.119648</ele>
        <time>2021-09-09T10:02:07.000Z</time>
      </trkpt>
      <trkpt lat="47.60456" lon="2.72467">
        <ele>169.110305</ele>
        <time>2021-09-09T10:02:15.000Z</time>
      </trkpt>
      <trkpt lat="47.60441" lon="2.72494">
        <ele>169.101917</ele>
        <time>2021-09-09T10:02:21.000Z</time>
      </trkpt>
      <trkpt lat="47.6043" lon="2.72515">
        <ele>169.095471</ele>
        <time>2021-09-09T10:02:25.000Z</time>
      </trkpt>
      <trkpt lat="47.60401" lon="2.72566">
        <ele>169.228692</ele>
        <time>2021-09-09T10:02:34.000Z</time>
      </trkpt>
      <trkpt lat="47.60377" lon="2.72609">
        <ele>169.654508</ele>
        <time>2021-09-09T10:02:42.000Z</time>
      </trkpt>
      <trkpt lat="47.60352" lon="2.72648">
        <ele>170.05981</ele>
        <time>2021-09-09T10:02:51.000Z</time>
      </trkpt>
      <trkpt lat="47.60324" lon="2.72696">
        <ele>170.547644</ele>
        <time>2021-09-09T10:03:03.000Z</time>
      </trkpt>
      <trkpt lat="47.60302" lon="2.72722">
        <ele>170.863455</ele>
        <time>2021-09-09T10:03:11.000Z</time>
      </trkpt>
      <trkpt lat="47.60291" lon="2.72731">
        <ele>171.004745</ele>
        <time>2021-09-09T10:03:15.000Z</time>
      </trkpt>
      <trkpt lat="47.60266" lon="2.72749">
        <ele>171.470226</ele>
        <time>2021-09-09T10:03:23.000Z</time>
      </trkpt>
      <trkpt lat="47.60255" lon="2.72756">
        <ele>171.703982</ele>
        <time>2021-09-09T10:03:27.000Z</time>
      </trkpt>
      <trkpt lat="47.6024" lon="2.72765">
        <ele>172.012468</ele>
        <time>2021-09-09T10:03:32.000Z</time>
      </trkpt>
      <trkpt lat="47.60217" lon="2.7278">
        <ele>172.505317</ele>
        <time>2021-09-09T10:03:38.000Z</time>
      </trkpt>
      <trkpt lat="47.60205" lon="2.72787">
        <ele>172.742571</ele>
        <time>2021-09-09T10:03:42.000Z</time>
      </trkpt>
      <trkpt lat="47.60185" lon="2.7279">
        <ele>173.129947</ele>
        <time>2021-09-09T10:03:47.000Z</time>
      </trkpt>
      <trkpt lat="47.60164" lon="2.72782">
        <ele>173.55235</ele>
        <time>2021-09-09T10:03:52.000Z</time>
      </trkpt>
      <trkpt lat="47.60126" lon="2.72763">
        <ele>174.321514</ele>
        <time>2021-09-09T10:04:00.000Z</time>
      </trkpt>
      <trkpt lat="47.60121" lon="2.72762">
        <ele>174.419336</ele>
        <time>2021-09-09T10:04:01.000Z</time>
      </trkpt>
      <trkpt lat="47.60111" lon="2.72763">
        <ele>174.611616</ele>
        <time>2021-09-09T10:04:03.000Z</time>
      </trkpt>
      <trkpt lat="47.60107" lon="2.72765">
        <ele>174.68079</ele>
        <time>2021-09-09T10:04:04.000Z</time>
      </trkpt>
      <trkpt lat="47.60103" lon="2.72769">
        <ele>174.750006</ele>
        <time>2021-09-09T10:04:05.000Z</time>
      </trkpt>
      <trkpt lat="47.60097" lon="2.72779">
        <ele>174.884995</ele>
        <time>2021-09-09T10:04:07.000Z</time>
      </trkpt>
      <trkpt lat="47.60096" lon="2.72793">
        <ele>175.020849</ele>
        <time>2021-09-09T10:04:09.000Z</time>
      </trkpt>
      <trkpt lat="47.60096" lon="2.728">
        <ele>175.093084</ele>
        <time>2021-09-09T10:04:10.000Z</time>
      </trkpt>
      <trkpt lat="47.60096" lon="2.72815">
        <ele>175.23068</ele>
        <time>2021-09-09T10:04:12.000Z</time>
      </trkpt>
      <trkpt lat="47.60098" lon="2.72851">
        <ele>175.587046</ele>
        <time>2021-09-09T10:04:17.000Z</time>
      </trkpt>
      <trkpt lat="47.60099" lon="2.72873">
        <ele>175.798563</ele>
        <time>2021-09-09T10:04:20.000Z</time>
      </trkpt>
      <trkpt lat="47.601" lon="2.72888">
        <ele>175.946072</ele>
        <time>2021-09-09T10:04:22.000Z</time>
      </trkpt>
      <trkpt lat="47.60107" lon="2.72948">
        <ele>176.53903</ele>
        <time>2021-09-09T10:04:30.000Z</time>
      </trkpt>
      <trkpt lat="47.60112" lon="2.7299">
        <ele>176.95894</ele>
        <time>2021-09-09T10:04:36.000Z</time>
      </trkpt>
      <trkpt lat="47.60116" lon="2.73026">
        <ele>177.25505</ele>
        <time>2021-09-09T10:04:41.000Z</time>
      </trkpt>
      <trkpt lat="47.60115" lon="2.73037">
        <ele>177.306265</ele>
        <time>2021-09-09T10:04:43.000Z</time>
      </trkpt>
      <trkpt lat="47.60115" lon="2.73053">
        <ele>177.379362</ele>
        <time>2021-09-09T10:04:48.000Z</time>
      </trkpt>
      <trkpt lat="47.60116" lon="2.73048">
        <ele>177.408174</ele>
        <time>2021-09-09T10:04:51.000Z</time>
      </trkpt>
      <trkpt lat="47.60116" lon="2.73024">
        <ele>177.5147</ele>
        <time>2021-09-09T10:04:55.000Z</time>
      </trkpt>
      <trkpt lat="47.60114" lon="2.73002">
        <ele>177.615728</ele>
        <time>2021-09-09T10:04:58.000Z</time>
      </trkpt>
      <trkpt lat="47.60113" lon="2.72986">
        <ele>177.688924</ele>
        <time>2021-09-09T10:05:00.000Z</time>
      </trkpt>
      <trkpt lat="47.60108" lon="2.72956">
        <ele>177.827179</ele>
        <time>2021-09-09T10:05:04.000Z</time>
      </trkpt>
      <trkpt lat="47.601" lon="2.72892">
        <ele>178.121942</ele>
        <time>2021-09-09T10:05:11.000Z</time>
      </trkpt>
      <trkpt lat="47.60097" lon="2.72837">
        <ele>178.375077</ele>
        <time>2021-09-09T10:05:17.000Z</time>
      </trkpt>
      <trkpt lat="47.60096" lon="2.72828">
        <ele>178.413562</ele>
        <time>2021-09-09T10:05:18.000Z</time>
      </trkpt>
      <trkpt lat="47.6009" lon="2.72813">
        <ele>178.457714</ele>
        <time>2021-09-09T10:05:20.000Z</time>
      </trkpt>
      <trkpt lat="47.6008" lon="2.7281">
        <ele>178.497869</ele>
        <time>2021-09-09T10:05:22.000Z</time>
      </trkpt>
      <trkpt lat="47.60072" lon="2.72821">
        <ele>178.540431</ele>
        <time>2021-09-09T10:05:24.000Z</time>
      </trkpt>
      <trkpt lat="47.60068" lon="2.72827">
        <ele>178.56189</ele>
        <time>2021-09-09T10:05:25.000Z</time>
      </trkpt>
      <trkpt lat="47.6004" lon="2.72876">
        <ele>178.733424</ele>
        <time>2021-09-09T10:05:33.000Z</time>
      </trkpt>
      <trkpt lat="47.60036" lon="2.72881">
        <ele>178.753226</ele>
        <time>2021-09-09T10:05:34.000Z</time>
      </trkpt>
      <trkpt lat="47.60027" lon="2.72899">
        <ele>178.813718</ele>
        <time>2021-09-09T10:05:37.000Z</time>
      </trkpt>
      <trkpt lat="47.6001" lon="2.72929">
        <ele>178.915759</ele>
        <time>2021-09-09T10:05:42.000Z</time>
      </trkpt>
      <trkpt lat="47.59991" lon="2.72968">
        <ele>179.04421</ele>
        <time>2021-09-09T10:05:48.000Z</time>
      </trkpt>
      <trkpt lat="47.59967" lon="2.73003">
        <ele>179.176358</ele>
        <time>2021-09-09T10:05:54.000Z</time>
      </trkpt>
      <trkpt lat="47.59957" lon="2.73011">
        <ele>179.219617</ele>
        <time>2021-09-09T10:05:56.000Z</time>
      </trkpt>
      <trkpt lat="47.59941" lon="2.73019">
        <ele>179.285065</ele>
        <time>2021-09-09T10:05:59.000Z</time>
      </trkpt>
      <trkpt lat="47.59898" lon="2.73034">
        <ele>179.456325</ele>
        <time>2021-09-09T10:06:07.000Z</time>
      </trkpt>
      <trkpt lat="47.59855" lon="2.7305">
        <ele>179.628885</ele>
        <time>2021-09-09T10:06:15.000Z</time>
      </trkpt>
      <trkpt lat="47.59805" lon="2.7307">
        <ele>179.821062</ele>
        <time>2021-09-09T10:06:24.000Z</time>
      </trkpt>
      <trkpt lat="47.59776" lon="2.73097">
        <ele>179.85477</ele>
        <time>2021-09-09T10:06:30.000Z</time>
      </trkpt>
      <trkpt lat="47.59752" lon="2.73143">
        <ele>179.892614</ele>
        <time>2021-09-09T10:06:37.000Z</time>
      </trkpt>
      <trkpt lat="47.59726" lon="2.7321">
        <ele>179.944199</ele>
        <time>2021-09-09T10:06:46.000Z</time>
      </trkpt>
      <trkpt lat="47.59705" lon="2.73264">
        <ele>179.985204</ele>
        <time>2021-09-09T10:06:53.000Z</time>
      </trkpt>
      <trkpt lat="47.59682" lon="2.73311">
        <ele>179.773082</ele>
        <time>2021-09-09T10:06:59.000Z</time>
      </trkpt>
      <trkpt lat="47.59645" lon="2.73367">
        <ele>179.388724</ele>
        <time>2021-09-09T10:07:07.000Z</time>
      </trkpt>
      <trkpt lat="47.59611" lon="2.7342">
        <ele>179.029051</ele>
        <time>2021-09-09T10:07:14.000Z</time>
      </trkpt>
      <trkpt lat="47.59607" lon="2.73429">
        <ele>178.978174</ele>
        <time>2021-09-09T10:07:15.000Z</time>
      </trkpt>
      <trkpt lat="47.596" lon="2.73447">
        <ele>178.875012</ele>
        <time>2021-09-09T10:07:17.000Z</time>
      </trkpt>
      <trkpt lat="47.59585" lon="2.73496">
        <ele>178.614618</ele>
        <time>2021-09-09T10:07:22.000Z</time>
      </trkpt>
      <trkpt lat="47.59575" lon="2.73556">
        <ele>178.320365</ele>
        <time>2021-09-09T10:07:28.000Z</time>
      </trkpt>
      <trkpt lat="47.59573" lon="2.73597">
        <ele>178.13029</ele>
        <time>2021-09-09T10:07:32.000Z</time>
      </trkpt>
      <trkpt lat="47.5957" lon="2.73616">
        <ele>178.038834</ele>
        <time>2021-09-09T10:07:34.000Z</time>
      </trkpt>
      <trkpt lat="47.5956" lon="2.7366">
        <ele>177.816992</ele>
        <time>2021-09-09T10:07:39.000Z</time>
      </trkpt>
      <trkpt lat="47.59548" lon="2.73707">
        <ele>177.577637</ele>
        <time>2021-09-09T10:07:44.000Z</time>
      </trkpt>
      <trkpt lat="47.59537" lon="2.7375">
        <ele>177.196426</ele>
        <time>2021-09-09T10:07:48.000Z</time>
      </trkpt>
      <trkpt lat="47.59533" lon="2.7376">
        <ele>176.984883</ele>
        <time>2021-09-09T10:07:49.000Z</time>
      </trkpt>
      <trkpt lat="47.59527" lon="2.73769">
        <ele>176.758051</ele>
        <time>2021-09-09T10:07:50.000Z</time>
      </trkpt>
      <trkpt lat="47.59512" lon="2.73789">
        <ele>176.23794</ele>
        <time>2021-09-09T10:07:52.000Z</time>
      </trkpt>
      <trkpt lat="47.59489" lon="2.73823">
        <ele>175.369317</ele>
        <time>2021-09-09T10:07:55.000Z</time>
      </trkpt>
      <trkpt lat="47.59482" lon="2.73837">
        <ele>175.062378</ele>
        <time>2021-09-09T10:07:56.000Z</time>
      </trkpt>
      <trkpt lat="47.59466" lon="2.73883">
        <ele>174.151631</ele>
        <time>2021-09-09T10:07:59.000Z</time>
      </trkpt>
      <trkpt lat="47.59462" lon="2.73899">
        <ele>173.855575</ele>
        <time>2021-09-09T10:08:00.000Z</time>
      </trkpt>
      <trkpt lat="47.5946" lon="2.73915">
        <ele>173.562534</ele>
        <time>2021-09-09T10:08:01.000Z</time>
      </trkpt>
      <trkpt lat="47.59456" lon="2.73962">
        <ele>172.719967</ele>
        <time>2021-09-09T10:08:04.000Z</time>
      </trkpt>
      <trkpt lat="47.59451" lon="2.74037">
        <ele>171.076746</ele>
        <time>2021-09-09T10:08:09.000Z</time>
      </trkpt>
      <trkpt lat="47.5945" lon="2.74066">
        <ele>170.426035</ele>
        <time>2021-09-09T10:08:11.000Z</time>
      </trkpt>
      <trkpt lat="47.59445" lon="2.74108">
        <ele>169.493042</ele>
        <time>2021-09-09T10:08:14.000Z</time>
      </trkpt>
      <trkpt lat="47.59442" lon="2.74121">
        <ele>169.185555</ele>
        <time>2021-09-09T10:08:15.000Z</time>
      </trkpt>
      <trkpt lat="47.59434" lon="2.74146">
        <ele>168.583483</ele>
        <time>2021-09-09T10:08:17.000Z</time>
      </trkpt>
      <trkpt lat="47.59429" lon="2.74157">
        <ele>168.272668</ele>
        <time>2021-09-09T10:08:18.000Z</time>
      </trkpt>
      <trkpt lat="47.59422" lon="2.74169">
        <ele>167.946331</ele>
        <time>2021-09-09T10:08:19.000Z</time>
      </trkpt>
      <trkpt lat="47.59399" lon="2.74201">
        <ele>166.917388</ele>
        <time>2021-09-09T10:08:22.000Z</time>
      </trkpt>
      <trkpt lat="47.59372" lon="2.74243">
        <ele>165.502004</ele>
        <time>2021-09-09T10:08:26.000Z</time>
      </trkpt>
      <trkpt lat="47.59337" lon="2.74302">
        <ele>163.627319</ele>
        <time>2021-09-09T10:08:32.000Z</time>
      </trkpt>
      <trkpt lat="47.59324" lon="2.74331">
        <ele>162.80546</ele>
        <time>2021-09-09T10:08:35.000Z</time>
      </trkpt>
      <trkpt lat="47.59318" lon="2.74351">
        <ele>162.274864</ele>
        <time>2021-09-09T10:08:37.000Z</time>
      </trkpt>
      <trkpt lat="47.59303" lon="2.74397">
        <ele>161.048644</ele>
        <time>2021-09-09T10:08:42.000Z</time>
      </trkpt>
      <trkpt lat="47.59292" lon="2.74433">
        <ele>160.120876</ele>
        <time>2021-09-09T10:08:46.000Z</time>
      </trkpt>
      <trkpt lat="47.59274" lon="2.74484">
        <ele>158.792328</ele>
        <time>2021-09-09T10:08:52.000Z</time>
      </trkpt>
      <trkpt lat="47.59248" lon="2.74535">
        <ele>157.310801</ele>
        <time>2021-09-09T10:08:59.000Z</time>
      </trkpt>
      <trkpt lat="47.59224" lon="2.74568">
        <ele>156.179344</ele>
        <time>2021-09-09T10:09:04.000Z</time>
      </trkpt>
      <trkpt lat="47.59186" lon="2.74618">
        <ele>154.447004</ele>
        <time>2021-09-09T10:09:11.000Z</time>
      </trkpt>
      <trkpt lat="47.59154" lon="2.74646">
        <ele>153.11189</ele>
        <time>2021-09-09T10:09:16.000Z</time>
      </trkpt>
      <trkpt lat="47.59112" lon="2.74682">
        <ele>151.32024</ele>
        <time>2021-09-09T10:09:23.000Z</time>
      </trkpt>
      <trkpt lat="47.59089" lon="2.7471">
        <ele>150.255615</ele>
        <time>2021-09-09T10:09:28.000Z</time>
      </trkpt>
      <trkpt lat="47.59082" lon="2.74724">
        <ele>149.823648</ele>
        <time>2021-09-09T10:09:32.000Z</time>
      </trkpt>
      <trkpt lat="47.59089" lon="2.7474">
        <ele>149.358311</ele>
        <time>2021-09-09T10:09:36.000Z</time>
      </trkpt>
      <trkpt lat="47.591" lon="2.74764">
        <ele>148.641267</ele>
        <time>2021-09-09T10:09:41.000Z</time>
      </trkpt>
      <trkpt lat="47.59103" lon="2.74769">
        <ele>148.481561</ele>
        <time>2021-09-09T10:09:42.000Z</time>
      </trkpt>
      <trkpt lat="47.59122" lon="2.74803">
        <ele>147.47922</ele>
        <time>2021-09-09T10:09:48.000Z</time>
      </trkpt>
      <trkpt lat="47.59133" lon="2.74821">
        <ele>147.031912</ele>
        <time>2021-09-09T10:09:51.000Z</time>
      </trkpt>
      <trkpt lat="47.59144" lon="2.7484">
        <ele>146.570425</ele>
        <time>2021-09-09T10:09:54.000Z</time>
      </trkpt>
      <trkpt lat="47.59165" lon="2.74876">
        <ele>145.68741</ele>
        <time>2021-09-09T10:10:00.000Z</time>
      </trkpt>
      <trkpt lat="47.59191" lon="2.74924">
        <ele>144.545073</ele>
        <time>2021-09-09T10:10:08.000Z</time>
      </trkpt>
      <trkpt lat="47.59198" lon="2.74941">
        <ele>144.174472</ele>
        <time>2021-09-09T10:10:11.000Z</time>
      </trkpt>
      <trkpt lat="47.59205" lon="2.74955">
        <ele>143.854365</ele>
        <time>2021-09-09T10:10:14.000Z</time>
      </trkpt>
      <trkpt lat="47.59224" lon="2.7499">
        <ele>143.028774</ele>
        <time>2021-09-09T10:10:21.000Z</time>
      </trkpt>
      <trkpt lat="47.59227" lon="2.74995">
        <ele>142.904609</ele>
        <time>2021-09-09T10:10:22.000Z</time>
      </trkpt>
      <trkpt lat="47.59231" lon="2.75007">
        <ele>142.605025</ele>
        <time>2021-09-09T10:10:24.000Z</time>
      </trkpt>
      <trkpt lat="47.59235" lon="2.7502">
        <ele>142.246303</ele>
        <time>2021-09-09T10:10:26.000Z</time>
      </trkpt>
      <trkpt lat="47.59248" lon="2.75079">
        <ele>140.699145</ele>
        <time>2021-09-09T10:10:34.000Z</time>
      </trkpt>
      <trkpt lat="47.59257" lon="2.75121">
        <ele>139.575049</ele>
        <time>2021-09-09T10:10:41.000Z</time>
      </trkpt>
      <trkpt lat="47.59271" lon="2.75158">
        <ele>138.520199</ele>
        <time>2021-09-09T10:10:48.000Z</time>
      </trkpt>
      <trkpt lat="47.59287" lon="2.75195">
        <ele>137.397167</ele>
        <time>2021-09-09T10:10:56.000Z</time>
      </trkpt>
      <trkpt lat="47.59298" lon="2.75223">
        <ele>136.591734</ele>
        <time>2021-09-09T10:11:02.000Z</time>
      </trkpt>
      <trkpt lat="47.59301" lon="2.75246">
        <ele>136.022787</ele>
        <time>2021-09-09T10:11:08.000Z</time>
      </trkpt>
      <trkpt lat="47.59307" lon="2.75259">
        <ele>135.762096</ele>
        <time>2021-09-09T10:11:13.000Z</time>
      </trkpt>
      <trkpt lat="47.59314" lon="2.7527">
        <ele>135.528464</ele>
        <time>2021-09-09T10:11:17.000Z</time>
      </trkpt>
      <trkpt lat="47.59314" lon="2.75272">
        <ele>135.494336</ele>
        <time>2021-09-09T10:11:18.000Z</time>
      </trkpt>
      <trkpt lat="47.59314" lon="2.75273">
        <ele>135.467947</ele>
        <time>2021-09-09T10:11:21.000Z</time>
      </trkpt>
      <trkpt lat="47.59306" lon="2.75254">
        <ele>135.096049</ele>
        <time>2021-09-09T10:18:40.000Z</time>
      </trkpt>
      <trkpt lat="47.59311" lon="2.75261">
        <ele>134.937835</ele>
        <time>2021-09-09T10:18:42.000Z</time>
      </trkpt>
      <trkpt lat="47.59305" lon="2.75255">
        <ele>134.773979</ele>
        <time>2021-09-09T10:18:45.000Z</time>
      </trkpt>
      <trkpt lat="47.59299" lon="2.75264">
        <ele>134.565551</ele>
        <time>2021-09-09T10:18:51.000Z</time>
      </trkpt>
      <trkpt lat="47.59284" lon="2.75284">
        <ele>134.074385</ele>
        <time>2021-09-09T10:18:56.000Z</time>
      </trkpt>
      <trkpt lat="47.59256" lon="2.7532">
        <ele>133.184844</ele>
        <time>2021-09-09T10:19:03.000Z</time>
      </trkpt>
      <trkpt lat="47.5923" lon="2.75354">
        <ele>132.332265</ele>
        <time>2021-09-09T10:19:10.000Z</time>
      </trkpt>
      <trkpt lat="47.59212" lon="2.7538">
        <ele>131.720819</ele>
        <time>2021-09-09T10:19:16.000Z</time>
      </trkpt>
      <trkpt lat="47.59203" lon="2.75393">
        <ele>132.015959</ele>
        <time>2021-09-09T10:19:20.000Z</time>
      </trkpt>
      <trkpt lat="47.59191" lon="2.75408">
        <ele>132.43197</ele>
        <time>2021-09-09T10:19:25.000Z</time>
      </trkpt>
      <trkpt lat="47.59173" lon="2.75431">
        <ele>133.089015</ele>
        <time>2021-09-09T10:19:32.000Z</time>
      </trkpt>
      <trkpt lat="47.59156" lon="2.7544">
        <ele>133.571515</ele>
        <time>2021-09-09T10:19:38.000Z</time>
      </trkpt>
      <trkpt lat="47.5914" lon="2.7544">
        <ele>134.003303</ele>
        <time>2021-09-09T10:19:44.000Z</time>
      </trkpt>
      <trkpt lat="47.59117" lon="2.75434">
        <ele>134.65885</ele>
        <time>2021-09-09T10:19:53.000Z</time>
      </trkpt>
      <trkpt lat="47.59099" lon="2.7543">
        <ele>135.140833</ele>
        <time>2021-09-09T10:19:59.000Z</time>
      </trkpt>
      <trkpt lat="47.5908" lon="2.75425">
        <ele>135.677892</ele>
        <time>2021-09-09T10:20:06.000Z</time>
      </trkpt>
      <trkpt lat="47.59053" lon="2.75418">
        <ele>136.423933</ele>
        <time>2021-09-09T10:20:15.000Z</time>
      </trkpt>
      <trkpt lat="47.59033" lon="2.75418">
        <ele>137.271245</ele>
        <time>2021-09-09T10:20:22.000Z</time>
      </trkpt>
      <trkpt lat="47.5902" lon="2.75432">
        <ele>138.117871</ele>
        <time>2021-09-09T10:20:28.000Z</time>
      </trkpt>
      <trkpt lat="47.59015" lon="2.75453">
        <ele>138.852772</ele>
        <time>2021-09-09T10:20:34.000Z</time>
      </trkpt>
      <trkpt lat="47.59016" lon="2.75478">
        <ele>139.718155</ele>
        <time>2021-09-09T10:20:42.000Z</time>
      </trkpt>
      <trkpt lat="47.59024" lon="2.75519">
        <ele>141.158241</ele>
        <time>2021-09-09T10:20:54.000Z</time>
      </trkpt>
      <trkpt lat="47.59029" lon="2.75543">
        <ele>142.029403</ele>
        <time>2021-09-09T10:21:01.000Z</time>
      </trkpt>
      <trkpt lat="47.59033" lon="2.75571">
        <ele>143.010243</ele>
        <time>2021-09-09T10:21:08.000Z</time>
      </trkpt>
      <trkpt lat="47.5903" lon="2.75598">
        <ele>143.913024</ele>
        <time>2021-09-09T10:21:14.000Z</time>
      </trkpt>
      <trkpt lat="47.59021" lon="2.75619">
        <ele>144.763956</ele>
        <time>2021-09-09T10:21:20.000Z</time>
      </trkpt>
      <trkpt lat="47.5901" lon="2.75633">
        <ele>145.493579</ele>
        <time>2021-09-09T10:21:25.000Z</time>
      </trkpt>
      <trkpt lat="47.58998" lon="2.75643">
        <ele>146.270039</ele>
        <time>2021-09-09T10:21:30.000Z</time>
      </trkpt>
      <trkpt lat="47.58998" lon="2.75643">
        <ele>146.270039</ele>
        <time>2021-09-09T10:21:31.000Z</time>
      </trkpt>
      <trkpt lat="47.58991" lon="2.75649">
        <ele>146.736737</ele>
        <time>2021-09-09T10:21:32.000Z</time>
      </trkpt>
      <trkpt lat="47.58971" lon="2.75664">
        <ele>148.035108</ele>
        <time>2021-09-09T10:21:40.000Z</time>
      </trkpt>
      <trkpt lat="47.58953" lon="2.75677">
        <ele>149.181914</ele>
        <time>2021-09-09T10:21:48.000Z</time>
      </trkpt>
      <trkpt lat="47.58927" lon="2.75695">
        <ele>150.814486</ele>
        <time>2021-09-09T10:21:57.000Z</time>
      </trkpt>
      <trkpt lat="47.58908" lon="2.75708">
        <ele>152.061213</ele>
        <time>2021-09-09T10:22:05.000Z</time>
      </trkpt>
      <trkpt lat="47.58891" lon="2.7572">
        <ele>153.132382</ele>
        <time>2021-09-09T10:22:12.000Z</time>
      </trkpt>
      <trkpt lat="47.58869" lon="2.75736">
        <ele>154.528875</ele>
        <time>2021-09-09T10:22:21.000Z</time>
      </trkpt>
      <trkpt lat="47.5885" lon="2.75751">
        <ele>155.751761</ele>
        <time>2021-09-09T10:22:29.000Z</time>
      </trkpt>
      <trkpt lat="47.58833" lon="2.75763">
        <ele>156.619781</ele>
        <time>2021-09-09T10:22:36.000Z</time>
      </trkpt>
      <trkpt lat="47.58812" lon="2.75779">
        <ele>157.571205</ele>
        <time>2021-09-09T10:22:44.000Z</time>
      </trkpt>
      <trkpt lat="47.5879" lon="2.75795">
        <ele>158.540536</ele>
        <time>2021-09-09T10:22:52.000Z</time>
      </trkpt>
      <trkpt lat="47.58769" lon="2.75809">
        <ele>159.44779</ele>
        <time>2021-09-09T10:22:59.000Z</time>
      </trkpt>
      <trkpt lat="47.58742" lon="2.75829">
        <ele>160.678564</ele>
        <time>2021-09-09T10:23:08.000Z</time>
      </trkpt>
      <trkpt lat="47.58711" lon="2.75852">
        <ele>162.052581</ele>
        <time>2021-09-09T10:23:17.000Z</time>
      </trkpt>
      <trkpt lat="47.58685" lon="2.7587">
        <ele>163.1807</ele>
        <time>2021-09-09T10:23:24.000Z</time>
      </trkpt>
      <trkpt lat="47.58654" lon="2.75894">
        <ele>163.758412</ele>
        <time>2021-09-09T10:23:32.000Z</time>
      </trkpt>
      <trkpt lat="47.58612" lon="2.75925">
        <ele>164.492841</ele>
        <time>2021-09-09T10:23:42.000Z</time>
      </trkpt>
      <trkpt lat="47.58571" lon="2.75954">
        <ele>165.199901</ele>
        <time>2021-09-09T10:23:51.000Z</time>
      </trkpt>
      <trkpt lat="47.5853" lon="2.75983">
        <ele>165.904158</ele>
        <time>2021-09-09T10:24:00.000Z</time>
      </trkpt>
      <trkpt lat="47.58491" lon="2.76011">
        <ele>166.489381</ele>
        <time>2021-09-09T10:24:08.000Z</time>
      </trkpt>
      <trkpt lat="47.58448" lon="2.76044">
        <ele>167.137255</ele>
        <time>2021-09-09T10:24:17.000Z</time>
      </trkpt>
      <trkpt lat="47.58405" lon="2.76077">
        <ele>167.774827</ele>
        <time>2021-09-09T10:24:26.000Z</time>
      </trkpt>
      <trkpt lat="47.58372" lon="2.76102">
        <ele>168.263324</ele>
        <time>2021-09-09T10:24:33.000Z</time>
      </trkpt>
      <trkpt lat="47.58334" lon="2.76132">
        <ele>168.724958</ele>
        <time>2021-09-09T10:24:41.000Z</time>
      </trkpt>
      <trkpt lat="47.58292" lon="2.76171">
        <ele>169.211427</ele>
        <time>2021-09-09T10:24:50.000Z</time>
      </trkpt>
      <trkpt lat="47.58258" lon="2.76214">
        <ele>169.636355</ele>
        <time>2021-09-09T10:24:58.000Z</time>
      </trkpt>
      <trkpt lat="47.58231" lon="2.76252">
        <ele>170.00817</ele>
        <time>2021-09-09T10:25:05.000Z</time>
      </trkpt>
      <trkpt lat="47.58203" lon="2.76291">
        <ele>170.35154</ele>
        <time>2021-09-09T10:25:12.000Z</time>
      </trkpt>
      <trkpt lat="47.58169" lon="2.76339">
        <ele>170.753734</ele>
        <time>2021-09-09T10:25:21.000Z</time>
      </trkpt>
      <trkpt lat="47.58139" lon="2.76382">
        <ele>171.109749</ele>
        <time>2021-09-09T10:25:29.000Z</time>
      </trkpt>
      <trkpt lat="47.5811" lon="2.7642">
        <ele>171.438557</ele>
        <time>2021-09-09T10:25:36.000Z</time>
      </trkpt>
      <trkpt lat="47.58076" lon="2.76454">
        <ele>171.73006</ele>
        <time>2021-09-09T10:25:43.000Z</time>
      </trkpt>
      <trkpt lat="47.58041" lon="2.7647">
        <ele>171.832291</ele>
        <time>2021-09-09T10:25:49.000Z</time>
      </trkpt>
      <trkpt lat="47.57997" lon="2.76479">
        <ele>171.956575</ele>
        <time>2021-09-09T10:25:57.000Z</time>
      </trkpt>
      <trkpt lat="47.57948" lon="2.76489">
        <ele>172.095154</ele>
        <time>2021-09-09T10:26:06.000Z</time>
      </trkpt>
      <trkpt lat="47.57899" lon="2.76499">
        <ele>172.232609</ele>
        <time>2021-09-09T10:26:14.000Z</time>
      </trkpt>
      <trkpt lat="47.57839" lon="2.76511">
        <ele>172.390503</ele>
        <time>2021-09-09T10:26:23.000Z</time>
      </trkpt>
      <trkpt lat="47.57783" lon="2.76522">
        <ele>172.536859</ele>
        <time>2021-09-09T10:26:32.000Z</time>
      </trkpt>
      <trkpt lat="47.5774" lon="2.76531">
        <ele>172.651631</ele>
        <time>2021-09-09T10:26:40.000Z</time>
      </trkpt>
      <trkpt lat="47.57689" lon="2.76541">
        <ele>173.036423</ele>
        <time>2021-09-09T10:26:50.000Z</time>
      </trkpt>
      <trkpt lat="47.57639" lon="2.76551">
        <ele>173.462574</ele>
        <time>2021-09-09T10:27:00.000Z</time>
      </trkpt>
      <trkpt lat="47.57596" lon="2.7656">
        <ele>173.832311</ele>
        <time>2021-09-09T10:27:09.000Z</time>
      </trkpt>
      <trkpt lat="47.57567" lon="2.76566">
        <ele>174.080836</ele>
        <time>2021-09-09T10:27:15.000Z</time>
      </trkpt>
      <trkpt lat="47.57527" lon="2.76574">
        <ele>174.398274</ele>
        <time>2021-09-09T10:27:23.000Z</time>
      </trkpt>
      <trkpt lat="47.5748" lon="2.76583">
        <ele>174.759913</ele>
        <time>2021-09-09T10:27:32.000Z</time>
      </trkpt>
      <trkpt lat="47.5743" lon="2.76593">
        <ele>175.146142</ele>
        <time>2021-09-09T10:27:41.000Z</time>
      </trkpt>
      <trkpt lat="47.57371" lon="2.76605">
        <ele>175.57593</ele>
        <time>2021-09-09T10:27:51.000Z</time>
      </trkpt>
      <trkpt lat="47.57318" lon="2.76618">
        <ele>175.707593</ele>
        <time>2021-09-09T10:28:00.000Z</time>
      </trkpt>
      <trkpt lat="47.57271" lon="2.76627">
        <ele>175.823943</ele>
        <time>2021-09-09T10:28:08.000Z</time>
      </trkpt>
      <trkpt lat="47.57213" lon="2.76639">
        <ele>175.968051</ele>
        <time>2021-09-09T10:28:18.000Z</time>
      </trkpt>
      <trkpt lat="47.57177" lon="2.76667">
        <ele>176.146869</ele>
        <time>2021-09-09T10:28:25.000Z</time>
      </trkpt>
      <trkpt lat="47.57142" lon="2.76695">
        <ele>176.365593</ele>
        <time>2021-09-09T10:28:32.000Z</time>
      </trkpt>
      <trkpt lat="47.5711" lon="2.76723">
        <ele>176.573165</ele>
        <time>2021-09-09T10:28:39.000Z</time>
      </trkpt>
      <trkpt lat="47.57077" lon="2.76754">
        <ele>176.786651</ele>
        <time>2021-09-09T10:28:47.000Z</time>
      </trkpt>
      <trkpt lat="47.5705" lon="2.7678">
        <ele>176.967736</ele>
        <time>2021-09-09T10:28:54.000Z</time>
      </trkpt>
      <trkpt lat="47.57028" lon="2.768">
        <ele>177.245689</ele>
        <time>2021-09-09T10:29:00.000Z</time>
      </trkpt>
      <trkpt lat="47.56993" lon="2.76833">
        <ele>177.749897</ele>
        <time>2021-09-09T10:29:10.000Z</time>
      </trkpt>
      <trkpt lat="47.56971" lon="2.76854">
        <ele>178.0802</ele>
        <time>2021-09-09T10:29:17.000Z</time>
      </trkpt>
      <trkpt lat="47.56948" lon="2.76876">
        <ele>178.414542</ele>
        <time>2021-09-09T10:29:24.000Z</time>
      </trkpt>
      <trkpt lat="47.5692" lon="2.76907">
        <ele>178.849794</ele>
        <time>2021-09-09T10:29:33.000Z</time>
      </trkpt>
      <trkpt lat="47.56897" lon="2.76941">
        <ele>179.249609</ele>
        <time>2021-09-09T10:29:41.000Z</time>
      </trkpt>
      <trkpt lat="47.56874" lon="2.76995">
        <ele>179.534236</ele>
        <time>2021-09-09T10:29:50.000Z</time>
      </trkpt>
      <trkpt lat="47.56851" lon="2.7705">
        <ele>179.825579</ele>
        <time>2021-09-09T10:29:58.000Z</time>
      </trkpt>
      <trkpt lat="47.56824" lon="2.77113">
        <ele>180.160531</ele>
        <time>2021-09-09T10:30:06.000Z</time>
      </trkpt>
      <trkpt lat="47.56795" lon="2.7718">
        <ele>180.419348</ele>
        <time>2021-09-09T10:30:14.000Z</time>
      </trkpt>
      <trkpt lat="47.56764" lon="2.77228">
        <ele>180.363502</ele>
        <time>2021-09-09T10:30:21.000Z</time>
      </trkpt>
      <trkpt lat="47.56724" lon="2.77292">
        <ele>180.291028</ele>
        <time>2021-09-09T10:30:30.000Z</time>
      </trkpt>
      <trkpt lat="47.56686" lon="2.7735">
        <ele>180.223572</ele>
        <time>2021-09-09T10:30:38.000Z</time>
      </trkpt>
      <trkpt lat="47.56681" lon="2.77357">
        <ele>180.215136</ele>
        <time>2021-09-09T10:30:39.000Z</time>
      </trkpt>
      <trkpt lat="47.56641" lon="2.7742">
        <ele>180.285471</ele>
        <time>2021-09-09T10:30:48.000Z</time>
      </trkpt>
      <trkpt lat="47.56605" lon="2.77475">
        <ele>180.3531</ele>
        <time>2021-09-09T10:30:57.000Z</time>
      </trkpt>
      <trkpt lat="47.56569" lon="2.77532">
        <ele>180.421846</ele>
        <time>2021-09-09T10:31:07.000Z</time>
      </trkpt>
      <trkpt lat="47.56538" lon="2.77581">
        <ele>180.45141</ele>
        <time>2021-09-09T10:31:16.000Z</time>
      </trkpt>
      <trkpt lat="47.56514" lon="2.77626">
        <ele>180.457978</ele>
        <time>2021-09-09T10:31:23.000Z</time>
      </trkpt>
      <trkpt lat="47.56484" lon="2.77684">
        <ele>180.466371</ele>
        <time>2021-09-09T10:31:32.000Z</time>
      </trkpt>
      <trkpt lat="47.5646" lon="2.77732">
        <ele>180.473234</ele>
        <time>2021-09-09T10:31:39.000Z</time>
      </trkpt>
      <trkpt lat="47.56432" lon="2.77786">
        <ele>180.290393</ele>
        <time>2021-09-09T10:31:46.000Z</time>
      </trkpt>
      <trkpt lat="47.56402" lon="2.77844">
        <ele>179.841396</ele>
        <time>2021-09-09T10:31:53.000Z</time>
      </trkpt>
      <trkpt lat="47.56368" lon="2.77909">
        <ele>179.335284</ele>
        <time>2021-09-09T10:32:00.000Z</time>
      </trkpt>
      <trkpt lat="47.56332" lon="2.77975">
        <ele>178.819598</ele>
        <time>2021-09-09T10:32:07.000Z</time>
      </trkpt>
      <trkpt lat="47.56297" lon="2.78041">
        <ele>178.539098</ele>
        <time>2021-09-09T10:32:14.000Z</time>
      </trkpt>
      <trkpt lat="47.56287" lon="2.78059">
        <ele>178.464183</ele>
        <time>2021-09-09T10:32:16.000Z</time>
      </trkpt>
      <trkpt lat="47.56253" lon="2.78123">
        <ele>178.190864</ele>
        <time>2021-09-09T10:32:24.000Z</time>
      </trkpt>
      <trkpt lat="47.56249" lon="2.78131">
        <ele>178.159348</ele>
        <time>2021-09-09T10:32:25.000Z</time>
      </trkpt>
      <trkpt lat="47.56216" lon="2.78192">
        <ele>177.947743</ele>
        <time>2021-09-09T10:32:34.000Z</time>
      </trkpt>
      <trkpt lat="47.56186" lon="2.78249">
        <ele>177.952468</ele>
        <time>2021-09-09T10:32:43.000Z</time>
      </trkpt>
      <trkpt lat="47.56159" lon="2.78298">
        <ele>177.956602</ele>
        <time>2021-09-09T10:32:51.000Z</time>
      </trkpt>
      <trkpt lat="47.56135" lon="2.78342">
        <ele>177.960356</ele>
        <time>2021-09-09T10:32:58.000Z</time>
      </trkpt>
      <trkpt lat="47.56113" lon="2.78384">
        <ele>177.963863</ele>
        <time>2021-09-09T10:33:05.000Z</time>
      </trkpt>
      <trkpt lat="47.56091" lon="2.78427">
        <ele>177.764557</ele>
        <time>2021-09-09T10:33:12.000Z</time>
      </trkpt>
      <trkpt lat="47.56066" lon="2.78472">
        <ele>177.518173</ele>
        <time>2021-09-09T10:33:19.000Z</time>
      </trkpt>
      <trkpt lat="47.56059" lon="2.78486">
        <ele>177.445619</ele>
        <time>2021-09-09T10:33:21.000Z</time>
      </trkpt>
      <trkpt lat="47.56052" lon="2.78499">
        <ele>177.373399</ele>
        <time>2021-09-09T10:33:23.000Z</time>
      </trkpt>
      <trkpt lat="47.56028" lon="2.78546">
        <ele>177.121047</ele>
        <time>2021-09-09T10:33:30.000Z</time>
      </trkpt>
      <trkpt lat="47.55999" lon="2.78598">
        <ele>176.834342</ele>
        <time>2021-09-09T10:33:38.000Z</time>
      </trkpt>
      <trkpt lat="47.55977" lon="2.78641">
        <ele>176.397038</ele>
        <time>2021-09-09T10:33:44.000Z</time>
      </trkpt>
      <trkpt lat="47.5595" lon="2.78699">
        <ele>175.820165</ele>
        <time>2021-09-09T10:33:51.000Z</time>
      </trkpt>
      <trkpt lat="47.55923" lon="2.78762">
        <ele>175.204448</ele>
        <time>2021-09-09T10:33:58.000Z</time>
      </trkpt>
      <trkpt lat="47.55894" lon="2.78841">
        <ele>174.397095</ele>
        <time>2021-09-09T10:34:06.000Z</time>
      </trkpt>
      <trkpt lat="47.55866" lon="2.78921">
        <ele>173.364783</ele>
        <time>2021-09-09T10:34:14.000Z</time>
      </trkpt>
      <trkpt lat="47.5584" lon="2.78991">
        <ele>172.449715</ele>
        <time>2021-09-09T10:34:21.000Z</time>
      </trkpt>
      <trkpt lat="47.55837" lon="2.79002">
        <ele>172.317151</ele>
        <time>2021-09-09T10:34:22.000Z</time>
      </trkpt>
      <trkpt lat="47.55811" lon="2.79073">
        <ele>171.340688</ele>
        <time>2021-09-09T10:34:29.000Z</time>
      </trkpt>
      <trkpt lat="47.5579" lon="2.79121">
        <ele>170.539676</ele>
        <time>2021-09-09T10:34:34.000Z</time>
      </trkpt>
      <trkpt lat="47.55784" lon="2.7913">
        <ele>170.376246</ele>
        <time>2021-09-09T10:34:35.000Z</time>
      </trkpt>
      <trkpt lat="47.55751" lon="2.79167">
        <ele>169.514955</ele>
        <time>2021-09-09T10:34:40.000Z</time>
      </trkpt>
      <trkpt lat="47.55718" lon="2.79187">
        <ele>168.788041</ele>
        <time>2021-09-09T10:34:44.000Z</time>
      </trkpt>
      <trkpt lat="47.55676" lon="2.79201">
        <ele>167.891997</ele>
        <time>2021-09-09T10:34:49.000Z</time>
      </trkpt>
      <trkpt lat="47.55635" lon="2.79217">
        <ele>167.389017</ele>
        <time>2021-09-09T10:34:55.000Z</time>
      </trkpt>
      <trkpt lat="47.55604" lon="2.79238">
        <ele>166.99265</ele>
        <time>2021-09-09T10:35:01.000Z</time>
      </trkpt>
      <trkpt lat="47.55579" lon="2.79266">
        <ele>166.631257</ele>
        <time>2021-09-09T10:35:07.000Z</time>
      </trkpt>
      <trkpt lat="47.55576" lon="2.79272">
        <ele>166.571912</ele>
        <time>2021-09-09T10:35:08.000Z</time>
      </trkpt>
      <trkpt lat="47.55555" lon="2.79311">
        <ele>166.182694</ele>
        <time>2021-09-09T10:35:15.000Z</time>
      </trkpt>
      <trkpt lat="47.55541" lon="2.79357">
        <ele>165.795162</ele>
        <time>2021-09-09T10:35:22.000Z</time>
      </trkpt>
      <trkpt lat="47.55527" lon="2.79406">
        <ele>165.923252</ele>
        <time>2021-09-09T10:35:30.000Z</time>
      </trkpt>
      <trkpt lat="47.5551" lon="2.79464">
        <ele>166.081182</ele>
        <time>2021-09-09T10:35:40.000Z</time>
      </trkpt>
      <trkpt lat="47.55496" lon="2.79511">
        <ele>166.210069</ele>
        <time>2021-09-09T10:35:48.000Z</time>
      </trkpt>
      <trkpt lat="47.55483" lon="2.79559">
        <ele>166.338376</ele>
        <time>2021-09-09T10:35:56.000Z</time>
      </trkpt>
      <trkpt lat="47.55467" lon="2.79616">
        <ele>166.477126</ele>
        <time>2021-09-09T10:36:05.000Z</time>
      </trkpt>
      <trkpt lat="47.5545" lon="2.79671">
        <ele>166.565291</ele>
        <time>2021-09-09T10:36:14.000Z</time>
      </trkpt>
      <trkpt lat="47.55433" lon="2.79708">
        <ele>166.629703</ele>
        <time>2021-09-09T10:36:21.000Z</time>
      </trkpt>
      <trkpt lat="47.55402" lon="2.79755">
        <ele>166.724491</ele>
        <time>2021-09-09T10:36:28.000Z</time>
      </trkpt>
      <trkpt lat="47.55367" lon="2.79803">
        <ele>166.825814</ele>
        <time>2021-09-09T10:36:35.000Z</time>
      </trkpt>
      <trkpt lat="47.5533" lon="2.79854">
        <ele>166.585283</ele>
        <time>2021-09-09T10:36:42.000Z</time>
      </trkpt>
      <trkpt lat="47.55288" lon="2.7991">
        <ele>166.253184</ele>
        <time>2021-09-09T10:36:49.000Z</time>
      </trkpt>
      <trkpt lat="47.55282" lon="2.79918">
        <ele>166.205007</ele>
        <time>2021-09-09T10:36:50.000Z</time>
      </trkpt>
      <trkpt lat="47.55243" lon="2.79972">
        <ele>165.886225</ele>
        <time>2021-09-09T10:36:57.000Z</time>
      </trkpt>
      <trkpt lat="47.55214" lon="2.80011">
        <ele>165.872731</ele>
        <time>2021-09-09T10:37:03.000Z</time>
      </trkpt>
      <trkpt lat="47.55186" lon="2.8005">
        <ele>166.05005</ele>
        <time>2021-09-09T10:37:10.000Z</time>
      </trkpt>
      <trkpt lat="47.55156" lon="2.8009">
        <ele>166.235272</ele>
        <time>2021-09-09T10:37:18.000Z</time>
      </trkpt>
      <trkpt lat="47.5512" lon="2.80139">
        <ele>166.456409</ele>
        <time>2021-09-09T10:37:28.000Z</time>
      </trkpt>
      <trkpt lat="47.5508" lon="2.80192">
        <ele>166.746844</ele>
        <time>2021-09-09T10:37:39.000Z</time>
      </trkpt>
      <trkpt lat="47.55048" lon="2.80235">
        <ele>167.038811</ele>
        <time>2021-09-09T10:37:48.000Z</time>
      </trkpt>
      <trkpt lat="47.5502" lon="2.80274">
        <ele>167.296769</ele>
        <time>2021-09-09T10:37:56.000Z</time>
      </trkpt>
      <trkpt lat="47.5499" lon="2.80315">
        <ele>167.574544</ele>
        <time>2021-09-09T10:38:05.000Z</time>
      </trkpt>
      <trkpt lat="47.54955" lon="2.80362">
        <ele>167.760842</ele>
        <time>2021-09-09T10:38:14.000Z</time>
      </trkpt>
      <trkpt lat="47.54928" lon="2.80398">
        <ele>167.615646</ele>
        <time>2021-09-09T10:38:20.000Z</time>
      </trkpt>
      <trkpt lat="47.54894" lon="2.80444">
        <ele>167.432787</ele>
        <time>2021-09-09T10:38:27.000Z</time>
      </trkpt>
      <trkpt lat="47.54853" lon="2.805">
        <ele>167.211013</ele>
        <time>2021-09-09T10:38:35.000Z</time>
      </trkpt>
      <trkpt lat="47.54848" lon="2.80507">
        <ele>167.183874</ele>
        <time>2021-09-09T10:38:36.000Z</time>
      </trkpt>
      <trkpt lat="47.54805" lon="2.80565">
        <ele>166.492425</ele>
        <time>2021-09-09T10:38:45.000Z</time>
      </trkpt>
      <trkpt lat="47.54801" lon="2.80571">
        <ele>166.392</ele>
        <time>2021-09-09T10:38:46.000Z</time>
      </trkpt>
      <trkpt lat="47.54762" lon="2.80623">
        <ele>165.51213</ele>
        <time>2021-09-09T10:38:54.000Z</time>
      </trkpt>
      <trkpt lat="47.54721" lon="2.80679">
        <ele>164.565504</ele>
        <time>2021-09-09T10:39:02.000Z</time>
      </trkpt>
      <trkpt lat="47.54716" lon="2.80687">
        <ele>164.439009</ele>
        <time>2021-09-09T10:39:03.000Z</time>
      </trkpt>
      <trkpt lat="47.54671" lon="2.80747">
        <ele>163.228563</ele>
        <time>2021-09-09T10:39:11.000Z</time>
      </trkpt>
      <trkpt lat="47.5463" lon="2.80804">
        <ele>162.01187</ele>
        <time>2021-09-09T10:39:18.000Z</time>
      </trkpt>
      <trkpt lat="47.54617" lon="2.80821">
        <ele>161.65201</ele>
        <time>2021-09-09T10:39:20.000Z</time>
      </trkpt>
      <trkpt lat="47.54589" lon="2.80867">
        <ele>160.734174</ele>
        <time>2021-09-09T10:39:25.000Z</time>
      </trkpt>
      <trkpt lat="47.5458" lon="2.80888">
        <ele>160.370969</ele>
        <time>2021-09-09T10:39:27.000Z</time>
      </trkpt>
      <trkpt lat="47.5457" lon="2.80919">
        <ele>160.039007</ele>
        <time>2021-09-09T10:39:30.000Z</time>
      </trkpt>
      <trkpt lat="47.5456" lon="2.80956">
        <ele>159.825412</ele>
        <time>2021-09-09T10:39:34.000Z</time>
      </trkpt>
      <trkpt lat="47.54558" lon="2.80964">
        <ele>159.777585</ele>
        <time>2021-09-09T10:39:35.000Z</time>
      </trkpt>
      <trkpt lat="47.54556" lon="2.80972">
        <ele>159.732584</ele>
        <time>2021-09-09T10:39:36.000Z</time>
      </trkpt>
      <trkpt lat="47.54552" lon="2.80988">
        <ele>159.643603</ele>
        <time>2021-09-09T10:39:38.000Z</time>
      </trkpt>
      <trkpt lat="47.54549" lon="2.81002">
        <ele>159.559523</ele>
        <time>2021-09-09T10:39:40.000Z</time>
      </trkpt>
      <trkpt lat="47.54544" lon="2.81021">
        <ele>159.449198</ele>
        <time>2021-09-09T10:39:43.000Z</time>
      </trkpt>
      <trkpt lat="47.54536" lon="2.81055">
        <ele>159.252481</ele>
        <time>2021-09-09T10:39:49.000Z</time>
      </trkpt>
      <trkpt lat="47.54527" lon="2.81091">
        <ele>159.044816</ele>
        <time>2021-09-09T10:39:56.000Z</time>
      </trkpt>
      <trkpt lat="47.54518" lon="2.81128">
        <ele>158.831144</ele>
        <time>2021-09-09T10:40:03.000Z</time>
      </trkpt>
      <trkpt lat="47.54512" lon="2.81151">
        <ele>158.698726</ele>
        <time>2021-09-09T10:40:07.000Z</time>
      </trkpt>
      <trkpt lat="47.54508" lon="2.81168">
        <ele>158.730144</ele>
        <time>2021-09-09T10:40:10.000Z</time>
      </trkpt>
      <trkpt lat="47.54499" lon="2.81208">
        <ele>158.804366</ele>
        <time>2021-09-09T10:40:17.000Z</time>
      </trkpt>
      <trkpt lat="47.54486" lon="2.81253">
        <ele>158.892017</ele>
        <time>2021-09-09T10:40:25.000Z</time>
      </trkpt>
      <trkpt lat="47.54484" lon="2.81259">
        <ele>158.903398</ele>
        <time>2021-09-09T10:40:26.000Z</time>
      </trkpt>
      <trkpt lat="47.54478" lon="2.81275">
        <ele>158.935845</ele>
        <time>2021-09-09T10:40:29.000Z</time>
      </trkpt>
      <trkpt lat="47.54474" lon="2.81286">
        <ele>158.957344</ele>
        <time>2021-09-09T10:40:31.000Z</time>
      </trkpt>
      <trkpt lat="47.54467" lon="2.81303">
        <ele>158.993719</ele>
        <time>2021-09-09T10:40:35.000Z</time>
      </trkpt>
      <trkpt lat="47.54463" lon="2.81312">
        <ele>159.012246</ele>
        <time>2021-09-09T10:40:39.000Z</time>
      </trkpt>
      <trkpt lat="47.5446" lon="2.81319">
        <ele>159.026807</ele>
        <time>2021-09-09T10:40:43.000Z</time>
      </trkpt>
      <trkpt lat="47.54459" lon="2.8132">
        <ele>159.030483</ele>
        <time>2021-09-09T10:40:44.000Z</time>
      </trkpt>
      <trkpt lat="47.54459" lon="2.81332">
        <ele>159.050885</ele>
        <time>2021-09-09T10:40:47.000Z</time>
      </trkpt>
      <trkpt lat="47.54459" lon="2.81332">
        <ele>159.050885</ele>
        <time>2021-09-09T10:40:49.000Z</time>
      </trkpt>
      <trkpt lat="47.54455" lon="2.81328">
        <ele>159.062868</ele>
        <time>2021-09-09T10:43:16.000Z</time>
      </trkpt>
      <trkpt lat="47.54453" lon="2.81333">
        <ele>159.072601</ele>
        <time>2021-09-09T10:43:18.000Z</time>
      </trkpt>
      <trkpt lat="47.54445" lon="2.81346">
        <ele>159.103894</ele>
        <time>2021-09-09T10:43:23.000Z</time>
      </trkpt>
      <trkpt lat="47.54432" lon="2.8137">
        <ele>159.15813</ele>
        <time>2021-09-09T10:43:30.000Z</time>
      </trkpt>
      <trkpt lat="47.54428" lon="2.81378">
        <ele>159.151776</ele>
        <time>2021-09-09T10:43:32.000Z</time>
      </trkpt>
      <trkpt lat="47.54419" lon="2.81392">
        <ele>159.020491</ele>
        <time>2021-09-09T10:43:35.000Z</time>
      </trkpt>
      <trkpt lat="47.54392" lon="2.81437">
        <ele>158.624345</ele>
        <time>2021-09-09T10:43:43.000Z</time>
      </trkpt>
      <trkpt lat="47.54373" lon="2.8147">
        <ele>158.339096</ele>
        <time>2021-09-09T10:43:48.000Z</time>
      </trkpt>
      <trkpt lat="47.54369" lon="2.81477">
        <ele>158.279284</ele>
        <time>2021-09-09T10:43:49.000Z</time>
      </trkpt>
      <trkpt lat="47.54348" lon="2.81512">
        <ele>157.967269</ele>
        <time>2021-09-09T10:43:54.000Z</time>
      </trkpt>
      <trkpt lat="47.5432" lon="2.8156">
        <ele>157.545942</ele>
        <time>2021-09-09T10:44:01.000Z</time>
      </trkpt>
      <trkpt lat="47.54313" lon="2.81572">
        <ele>157.441535</ele>
        <time>2021-09-09T10:44:03.000Z</time>
      </trkpt>
      <trkpt lat="47.54304" lon="2.81588">
        <ele>157.333571</ele>
        <time>2021-09-09T10:44:06.000Z</time>
      </trkpt>
      <trkpt lat="47.54291" lon="2.8161">
        <ele>157.205785</ele>
        <time>2021-09-09T10:44:10.000Z</time>
      </trkpt>
      <trkpt lat="47.54288" lon="2.81615">
        <ele>157.175681</ele>
        <time>2021-09-09T10:44:11.000Z</time>
      </trkpt>
      <trkpt lat="47.54276" lon="2.81634">
        <ele>157.058809</ele>
        <time>2021-09-09T10:44:15.000Z</time>
      </trkpt>
      <trkpt lat="47.5427" lon="2.81644">
        <ele>156.999545</ele>
        <time>2021-09-09T10:44:17.000Z</time>
      </trkpt>
      <trkpt lat="47.54245" lon="2.81675">
        <ele>156.787209</ele>
        <time>2021-09-09T10:44:24.000Z</time>
      </trkpt>
      <trkpt lat="47.54225" lon="2.817">
        <ele>156.610631</ele>
        <time>2021-09-09T10:44:30.000Z</time>
      </trkpt>
      <trkpt lat="47.54207" lon="2.8172">
        <ele>156.461448</ele>
        <time>2021-09-09T10:44:35.000Z</time>
      </trkpt>
      <trkpt lat="47.54178" lon="2.81754">
        <ele>156.219013</ele>
        <time>2021-09-09T10:44:43.000Z</time>
      </trkpt>
      <trkpt lat="47.5416" lon="2.81775">
        <ele>156.356407</ele>
        <time>2021-09-09T10:44:48.000Z</time>
      </trkpt>
      <trkpt lat="47.54157" lon="2.8178">
        <ele>156.38631</ele>
        <time>2021-09-09T10:44:49.000Z</time>
      </trkpt>
      <trkpt lat="47.54138" lon="2.81805">
        <ele>156.544681</ele>
        <time>2021-09-09T10:44:54.000Z</time>
      </trkpt>
      <trkpt lat="47.54117" lon="2.8183">
        <ele>156.707397</ele>
        <time>2021-09-09T10:44:59.000Z</time>
      </trkpt>
      <trkpt lat="47.54113" lon="2.81835">
        <ele>156.740992</ele>
        <time>2021-09-09T10:45:00.000Z</time>
      </trkpt>
      <trkpt lat="47.54085" lon="2.81871">
        <ele>156.967864</ele>
        <time>2021-09-09T10:45:08.000Z</time>
      </trkpt>
      <trkpt lat="47.54068" lon="2.81893">
        <ele>157.106138</ele>
        <time>2021-09-09T10:45:11.000Z</time>
      </trkpt>
      <trkpt lat="47.54055" lon="2.81909">
        <ele>157.21358</ele>
        <time>2021-09-09T10:45:14.000Z</time>
      </trkpt>
      <trkpt lat="47.54023" lon="2.81951">
        <ele>157.388247</ele>
        <time>2021-09-09T10:45:21.000Z</time>
      </trkpt>
      <trkpt lat="47.53983" lon="2.82004">
        <ele>157.521909</ele>
        <time>2021-09-09T10:45:30.000Z</time>
      </trkpt>
      <trkpt lat="47.53947" lon="2.8205">
        <ele>157.639795</ele>
        <time>2021-09-09T10:45:38.000Z</time>
      </trkpt>
      <trkpt lat="47.53914" lon="2.82094">
        <ele>157.749792</ele>
        <time>2021-09-09T10:45:45.000Z</time>
      </trkpt>
      <trkpt lat="47.53881" lon="2.82137">
        <ele>157.795255</ele>
        <time>2021-09-09T10:45:52.000Z</time>
      </trkpt>
      <trkpt lat="47.53849" lon="2.82178">
        <ele>157.820891</ele>
        <time>2021-09-09T10:45:59.000Z</time>
      </trkpt>
      <trkpt lat="47.53812" lon="2.82227">
        <ele>157.851224</ele>
        <time>2021-09-09T10:46:07.000Z</time>
      </trkpt>
      <trkpt lat="47.53768" lon="2.82283">
        <ele>157.858059</ele>
        <time>2021-09-09T10:46:16.000Z</time>
      </trkpt>
      <trkpt lat="47.53764" lon="2.8229">
        <ele>157.815447</ele>
        <time>2021-09-09T10:46:17.000Z</time>
      </trkpt>
      <trkpt lat="47.53729" lon="2.82334">
        <ele>157.508351</ele>
        <time>2021-09-09T10:46:24.000Z</time>
      </trkpt>
      <trkpt lat="47.53687" lon="2.82388">
        <ele>157.130562</ele>
        <time>2021-09-09T10:46:32.000Z</time>
      </trkpt>
      <trkpt lat="47.53653" lon="2.8243">
        <ele>156.828825</ele>
        <time>2021-09-09T10:46:38.000Z</time>
      </trkpt>
      <trkpt lat="47.53613" lon="2.82482">
        <ele>156.392195</ele>
        <time>2021-09-09T10:46:45.000Z</time>
      </trkpt>
      <trkpt lat="47.5358" lon="2.82526">
        <ele>155.969748</ele>
        <time>2021-09-09T10:46:51.000Z</time>
      </trkpt>
      <trkpt lat="47.53537" lon="2.82582">
        <ele>155.425082</ele>
        <time>2021-09-09T10:46:59.000Z</time>
      </trkpt>
      <trkpt lat="47.53493" lon="2.82638">
        <ele>154.858381</ele>
        <time>2021-09-09T10:47:07.000Z</time>
      </trkpt>
      <trkpt lat="47.53488" lon="2.82645">
        <ele>154.768883</ele>
        <time>2021-09-09T10:47:08.000Z</time>
      </trkpt>
      <trkpt lat="47.53445" lon="2.827">
        <ele>154.06721</ele>
        <time>2021-09-09T10:47:16.000Z</time>
      </trkpt>
      <trkpt lat="47.53439" lon="2.82707">
        <ele>153.979181</ele>
        <time>2021-09-09T10:47:17.000Z</time>
      </trkpt>
      <trkpt lat="47.53402" lon="2.82756">
        <ele>153.366078</ele>
        <time>2021-09-09T10:47:24.000Z</time>
      </trkpt>
      <trkpt lat="47.53359" lon="2.82811">
        <ele>152.67358</ele>
        <time>2021-09-09T10:47:32.000Z</time>
      </trkpt>
      <trkpt lat="47.53354" lon="2.82817">
        <ele>152.584616</ele>
        <time>2021-09-09T10:47:33.000Z</time>
      </trkpt>
      <trkpt lat="47.53312" lon="2.82871">
        <ele>151.886011</ele>
        <time>2021-09-09T10:47:41.000Z</time>
      </trkpt>
      <trkpt lat="47.53307" lon="2.82878">
        <ele>151.798566</ele>
        <time>2021-09-09T10:47:42.000Z</time>
      </trkpt>
      <trkpt lat="47.53277" lon="2.82916">
        <ele>151.293813</ele>
        <time>2021-09-09T10:47:48.000Z</time>
      </trkpt>
      <trkpt lat="47.5324" lon="2.82964">
        <ele>150.674095</ele>
        <time>2021-09-09T10:47:56.000Z</time>
      </trkpt>
      <trkpt lat="47.53205" lon="2.83009">
        <ele>150.120085</ele>
        <time>2021-09-09T10:48:04.000Z</time>
      </trkpt>
      <trkpt lat="47.5317" lon="2.83054">
        <ele>149.586831</ele>
        <time>2021-09-09T10:48:12.000Z</time>
      </trkpt>
      <trkpt lat="47.53145" lon="2.83086">
        <ele>149.197375</ele>
        <time>2021-09-09T10:48:18.000Z</time>
      </trkpt>
      <trkpt lat="47.53116" lon="2.83123">
        <ele>148.760956</ele>
        <time>2021-09-09T10:48:25.000Z</time>
      </trkpt>
      <trkpt lat="47.53083" lon="2.83165">
        <ele>148.285748</ele>
        <time>2021-09-09T10:48:33.000Z</time>
      </trkpt>
      <trkpt lat="47.53054" lon="2.83202">
        <ele>147.940549</ele>
        <time>2021-09-09T10:48:40.000Z</time>
      </trkpt>
      <trkpt lat="47.53037" lon="2.83225">
        <ele>147.725458</ele>
        <time>2021-09-09T10:48:44.000Z</time>
      </trkpt>
      <trkpt lat="47.53027" lon="2.83237">
        <ele>147.612207</ele>
        <time>2021-09-09T10:48:46.000Z</time>
      </trkpt>
      <trkpt lat="47.52995" lon="2.83278">
        <ele>147.227037</ele>
        <time>2021-09-09T10:48:53.000Z</time>
      </trkpt>
      <trkpt lat="47.52967" lon="2.83314">
        <ele>146.886996</ele>
        <time>2021-09-09T10:48:59.000Z</time>
      </trkpt>
      <trkpt lat="47.52937" lon="2.83353">
        <ele>146.492518</ele>
        <time>2021-09-09T10:49:05.000Z</time>
      </trkpt>
      <trkpt lat="47.529" lon="2.83401">
        <ele>145.99175</ele>
        <time>2021-09-09T10:49:12.000Z</time>
      </trkpt>
      <trkpt lat="47.52866" lon="2.83444">
        <ele>145.53348</ele>
        <time>2021-09-09T10:49:18.000Z</time>
      </trkpt>
      <trkpt lat="47.52823" lon="2.835">
        <ele>144.95215</ele>
        <time>2021-09-09T10:49:25.000Z</time>
      </trkpt>
      <trkpt lat="47.52817" lon="2.83508">
        <ele>144.891885</ele>
        <time>2021-09-09T10:49:26.000Z</time>
      </trkpt>
      <trkpt lat="47.52776" lon="2.83561">
        <ele>144.581903</ele>
        <time>2021-09-09T10:49:33.000Z</time>
      </trkpt>
      <trkpt lat="47.5277" lon="2.83568">
        <ele>144.541028</ele>
        <time>2021-09-09T10:49:34.000Z</time>
      </trkpt>
      <trkpt lat="47.52732" lon="2.83613">
        <ele>144.261563</ele>
        <time>2021-09-09T10:49:41.000Z</time>
      </trkpt>
      <trkpt lat="47.52704" lon="2.83646">
        <ele>144.0589</ele>
        <time>2021-09-09T10:49:47.000Z</time>
      </trkpt>
      <trkpt lat="47.52677" lon="2.83677">
        <ele>143.912678</ele>
        <time>2021-09-09T10:49:54.000Z</time>
      </trkpt>
      <trkpt lat="47.52665" lon="2.83688">
        <ele>143.941281</ele>
        <time>2021-09-09T10:49:57.000Z</time>
      </trkpt>
      <trkpt lat="47.52652" lon="2.83697">
        <ele>143.969099</ele>
        <time>2021-09-09T10:50:00.000Z</time>
      </trkpt>
      <trkpt lat="47.5262" lon="2.8372">
        <ele>144.040959</ele>
        <time>2021-09-09T10:50:08.000Z</time>
      </trkpt>
      <trkpt lat="47.52592" lon="2.83739">
        <ele>144.101703</ele>
        <time>2021-09-09T10:50:15.000Z</time>
      </trkpt>
      <trkpt lat="47.52555" lon="2.83765">
        <ele>144.184373</ele>
        <time>2021-09-09T10:50:25.000Z</time>
      </trkpt>
      <trkpt lat="47.52523" lon="2.83788">
        <ele>144.257432</ele>
        <time>2021-09-09T10:50:34.000Z</time>
      </trkpt>
      <trkpt lat="47.52493" lon="2.83809">
        <ele>144.353953</ele>
        <time>2021-09-09T10:50:42.000Z</time>
      </trkpt>
      <trkpt lat="47.52461" lon="2.83832">
        <ele>144.461161</ele>
        <time>2021-09-09T10:50:50.000Z</time>
      </trkpt>
      <trkpt lat="47.52428" lon="2.83855">
        <ele>144.568369</ele>
        <time>2021-09-09T10:50:57.000Z</time>
      </trkpt>
      <trkpt lat="47.52375" lon="2.83892">
        <ele>144.743415</ele>
        <time>2021-09-09T10:51:07.000Z</time>
      </trkpt>
      <trkpt lat="47.52325" lon="2.83927">
        <ele>144.738676</ele>
        <time>2021-09-09T10:51:16.000Z</time>
      </trkpt>
      <trkpt lat="47.5232" lon="2.83931">
        <ele>144.728622</ele>
        <time>2021-09-09T10:51:17.000Z</time>
      </trkpt>
      <trkpt lat="47.52275" lon="2.83962">
        <ele>144.645925</ele>
        <time>2021-09-09T10:51:25.000Z</time>
      </trkpt>
      <trkpt lat="47.52231" lon="2.83993">
        <ele>144.562474</ele>
        <time>2021-09-09T10:51:33.000Z</time>
      </trkpt>
      <trkpt lat="47.52185" lon="2.84025">
        <ele>144.436048</ele>
        <time>2021-09-09T10:51:41.000Z</time>
      </trkpt>
      <trkpt lat="47.52151" lon="2.84048">
        <ele>144.248838</ele>
        <time>2021-09-09T10:51:47.000Z</time>
      </trkpt>
      <trkpt lat="47.52102" lon="2.84083">
        <ele>143.974095</ele>
        <time>2021-09-09T10:51:56.000Z</time>
      </trkpt>
      <trkpt lat="47.52097" lon="2.84087">
        <ele>143.942544</ele>
        <time>2021-09-09T10:51:57.000Z</time>
      </trkpt>
      <trkpt lat="47.5205" lon="2.84119">
        <ele>143.678567</ele>
        <time>2021-09-09T10:52:05.000Z</time>
      </trkpt>
      <trkpt lat="47.52006" lon="2.84149">
        <ele>143.27186</ele>
        <time>2021-09-09T10:52:12.000Z</time>
      </trkpt>
      <trkpt lat="47.51968" lon="2.84176">
        <ele>142.810607</ele>
        <time>2021-09-09T10:52:18.000Z</time>
      </trkpt>
      <trkpt lat="47.5192" lon="2.84209">
        <ele>142.249228</ele>
        <time>2021-09-09T10:52:25.000Z</time>
      </trkpt>
      <trkpt lat="47.51868" lon="2.84245">
        <ele>141.627622</ele>
        <time>2021-09-09T10:52:33.000Z</time>
      </trkpt>
      <trkpt lat="47.51862" lon="2.8425">
        <ele>141.535123</ele>
        <time>2021-09-09T10:52:34.000Z</time>
      </trkpt>
      <trkpt lat="47.51836" lon="2.84268">
        <ele>141.156771</ele>
        <time>2021-09-09T10:52:38.000Z</time>
      </trkpt>
      <trkpt lat="47.5183" lon="2.84272">
        <ele>141.062688</ele>
        <time>2021-09-09T10:52:39.000Z</time>
      </trkpt>
      <trkpt lat="47.5181" lon="2.84286">
        <ele>140.773669</ele>
        <time>2021-09-09T10:52:42.000Z</time>
      </trkpt>
      <trkpt lat="47.51757" lon="2.84323">
        <ele>139.996323</ele>
        <time>2021-09-09T10:52:50.000Z</time>
      </trkpt>
      <trkpt lat="47.51704" lon="2.8436">
        <ele>139.224003</ele>
        <time>2021-09-09T10:52:58.000Z</time>
      </trkpt>
      <trkpt lat="47.51697" lon="2.84365">
        <ele>139.149543</ele>
        <time>2021-09-09T10:52:59.000Z</time>
      </trkpt>
      <trkpt lat="47.51648" lon="2.844">
        <ele>138.590047</ele>
        <time>2021-09-09T10:53:07.000Z</time>
      </trkpt>
      <trkpt lat="47.51597" lon="2.84437">
        <ele>137.996255</ele>
        <time>2021-09-09T10:53:16.000Z</time>
      </trkpt>
      <trkpt lat="47.51551" lon="2.8447">
        <ele>137.466723</ele>
        <time>2021-09-09T10:53:24.000Z</time>
      </trkpt>
      <trkpt lat="47.515" lon="2.84506">
        <ele>137.056606</ele>
        <time>2021-09-09T10:53:33.000Z</time>
      </trkpt>
      <trkpt lat="47.51495" lon="2.8451">
        <ele>137.015734</ele>
        <time>2021-09-09T10:53:34.000Z</time>
      </trkpt>
      <trkpt lat="47.51457" lon="2.84537">
        <ele>136.724861</ele>
        <time>2021-09-09T10:53:41.000Z</time>
      </trkpt>
      <trkpt lat="47.51435" lon="2.84553">
        <ele>136.556808</ele>
        <time>2021-09-09T10:53:45.000Z</time>
      </trkpt>
      <trkpt lat="47.51389" lon="2.84586">
        <ele>136.202032</ele>
        <time>2021-09-09T10:53:53.000Z</time>
      </trkpt>
      <trkpt lat="47.51345" lon="2.84617">
        <ele>135.890713</ele>
        <time>2021-09-09T10:54:01.000Z</time>
      </trkpt>
      <trkpt lat="47.51318" lon="2.84637">
        <ele>135.706399</ele>
        <time>2021-09-09T10:54:06.000Z</time>
      </trkpt>
      <trkpt lat="47.51297" lon="2.84653">
        <ele>135.55968</ele>
        <time>2021-09-09T10:54:10.000Z</time>
      </trkpt>
      <trkpt lat="47.51286" lon="2.84661">
        <ele>135.48688</ele>
        <time>2021-09-09T10:54:12.000Z</time>
      </trkpt>
      <trkpt lat="47.5125" lon="2.84688">
        <ele>135.234379</ele>
        <time>2021-09-09T10:54:19.000Z</time>
      </trkpt>
      <trkpt lat="47.51209" lon="2.8472">
        <ele>134.98748</ele>
        <time>2021-09-09T10:54:27.000Z</time>
      </trkpt>
      <trkpt lat="47.51168" lon="2.84751">
        <ele>134.823161</ele>
        <time>2021-09-09T10:54:35.000Z</time>
      </trkpt>
      <trkpt lat="47.51127" lon="2.84782">
        <ele>134.662334</ele>
        <time>2021-09-09T10:54:43.000Z</time>
      </trkpt>
      <trkpt lat="47.51093" lon="2.84809">
        <ele>134.523862</ele>
        <time>2021-09-09T10:54:50.000Z</time>
      </trkpt>
      <trkpt lat="47.51058" lon="2.84835">
        <ele>134.389889</ele>
        <time>2021-09-09T10:54:57.000Z</time>
      </trkpt>
      <trkpt lat="47.51023" lon="2.84863">
        <ele>134.268814</ele>
        <time>2021-09-09T10:55:04.000Z</time>
      </trkpt>
      <trkpt lat="47.50983" lon="2.84896">
        <ele>134.12818</ele>
        <time>2021-09-09T10:55:12.000Z</time>
      </trkpt>
      <trkpt lat="47.5095" lon="2.84931">
        <ele>134.006514</ele>
        <time>2021-09-09T10:55:19.000Z</time>
      </trkpt>
      <trkpt lat="47.50923" lon="2.8496">
        <ele>133.905443</ele>
        <time>2021-09-09T10:55:26.000Z</time>
      </trkpt>
      <trkpt lat="47.50919" lon="2.84964">
        <ele>133.890464</ele>
        <time>2021-09-09T10:55:27.000Z</time>
      </trkpt>
      <trkpt lat="47.50915" lon="2.84969">
        <ele>133.874269</ele>
        <time>2021-09-09T10:55:28.000Z</time>
      </trkpt>
      <trkpt lat="47.50896" lon="2.84988">
        <ele>133.977663</ele>
        <time>2021-09-09T10:55:32.000Z</time>
      </trkpt>
      <trkpt lat="47.50859" lon="2.85029">
        <ele>134.276844</ele>
        <time>2021-09-09T10:55:40.000Z</time>
      </trkpt>
      <trkpt lat="47.50836" lon="2.85057">
        <ele>134.470008</ele>
        <time>2021-09-09T10:55:45.000Z</time>
      </trkpt>
      <trkpt lat="47.50807" lon="2.85098">
        <ele>134.72808</ele>
        <time>2021-09-09T10:55:52.000Z</time>
      </trkpt>
      <trkpt lat="47.50799" lon="2.8511">
        <ele>134.804581</ele>
        <time>2021-09-09T10:55:54.000Z</time>
      </trkpt>
      <trkpt lat="47.5079" lon="2.85121">
        <ele>134.877398</ele>
        <time>2021-09-09T10:55:56.000Z</time>
      </trkpt>
      <trkpt lat="47.50786" lon="2.85127">
        <ele>134.914878</ele>
        <time>2021-09-09T10:55:57.000Z</time>
      </trkpt>
      <trkpt lat="47.50758" lon="2.85165">
        <ele>135.337161</ele>
        <time>2021-09-09T10:56:04.000Z</time>
      </trkpt>
      <trkpt lat="47.50737" lon="2.85192">
        <ele>135.737624</ele>
        <time>2021-09-09T10:56:10.000Z</time>
      </trkpt>
      <trkpt lat="47.50725" lon="2.85208">
        <ele>135.980849</ele>
        <time>2021-09-09T10:56:15.000Z</time>
      </trkpt>
      <trkpt lat="47.50726" lon="2.85223">
        <ele>136.132073</ele>
        <time>2021-09-09T10:56:21.000Z</time>
      </trkpt>
      <trkpt lat="47.50727" lon="2.85225">
        <ele>136.154193</ele>
        <time>2021-09-09T10:56:22.000Z</time>
      </trkpt>
      <trkpt lat="47.50729" lon="2.85232">
        <ele>136.230463</ele>
        <time>2021-09-09T10:56:25.000Z</time>
      </trkpt>
      <trkpt lat="47.50733" lon="2.85249">
        <ele>136.411732</ele>
        <time>2021-09-09T10:56:31.000Z</time>
      </trkpt>
      <trkpt lat="47.50734" lon="2.85255">
        <ele>136.468267</ele>
        <time>2021-09-09T10:56:34.000Z</time>
      </trkpt>
      <trkpt lat="47.50736" lon="2.8526">
        <ele>136.520566</ele>
        <time>2021-09-09T10:56:36.000Z</time>
      </trkpt>
      <trkpt lat="47.50736" lon="2.85262">
        <ele>136.541752</ele>
        <time>2021-09-09T10:56:37.000Z</time>
      </trkpt>
      <trkpt lat="47.50733" lon="2.85268">
        <ele>136.619989</ele>
        <time>2021-09-09T10:56:40.000Z</time>
      </trkpt>
      <trkpt lat="47.50733" lon="2.85268">
        <ele>136.619989</ele>
        <time>2021-09-09T10:56:41.000Z</time>
      </trkpt>
      <trkpt lat="47.50738" lon="2.85269">
        <ele>136.690834</ele>
        <time>2021-09-09T10:57:10.000Z</time>
      </trkpt>
      <trkpt lat="47.50739" lon="2.85273">
        <ele>136.732718</ele>
        <time>2021-09-09T10:57:12.000Z</time>
      </trkpt>
      <trkpt lat="47.50743" lon="2.85293">
        <ele>136.942624</ele>
        <time>2021-09-09T10:57:17.000Z</time>
      </trkpt>
      <trkpt lat="47.5075" lon="2.85327">
        <ele>137.302111</ele>
        <time>2021-09-09T10:57:22.000Z</time>
      </trkpt>
      <trkpt lat="47.50751" lon="2.85336">
        <ele>137.387369</ele>
        <time>2021-09-09T10:57:23.000Z</time>
      </trkpt>
      <trkpt lat="47.50754" lon="2.85373">
        <ele>137.655046</ele>
        <time>2021-09-09T10:57:27.000Z</time>
      </trkpt>
      <trkpt lat="47.50763" lon="2.85428">
        <ele>137.562838</ele>
        <time>2021-09-09T10:57:32.000Z</time>
      </trkpt>
      <trkpt lat="47.50776" lon="2.85491">
        <ele>137.455595</ele>
        <time>2021-09-09T10:57:38.000Z</time>
      </trkpt>
      <trkpt lat="47.50789" lon="2.8554">
        <ele>137.369232</ele>
        <time>2021-09-09T10:57:43.000Z</time>
      </trkpt>
      <trkpt lat="47.508" lon="2.85578">
        <ele>137.300575</ele>
        <time>2021-09-09T10:57:47.000Z</time>
      </trkpt>
      <trkpt lat="47.50803" lon="2.85588">
        <ele>137.283836</ele>
        <time>2021-09-09T10:57:48.000Z</time>
      </trkpt>
      <trkpt lat="47.50816" lon="2.85633">
        <ele>137.268847</ele>
        <time>2021-09-09T10:57:53.000Z</time>
      </trkpt>
      <trkpt lat="47.50819" lon="2.85642">
        <ele>137.286688</ele>
        <time>2021-09-09T10:57:54.000Z</time>
      </trkpt>
      <trkpt lat="47.50821" lon="2.85652">
        <ele>137.305299</ele>
        <time>2021-09-09T10:57:55.000Z</time>
      </trkpt>
      <trkpt lat="47.5083" lon="2.85681">
        <ele>137.361401</ele>
        <time>2021-09-09T10:57:58.000Z</time>
      </trkpt>
      <trkpt lat="47.50846" lon="2.85738">
        <ele>137.474043</ele>
        <time>2021-09-09T10:58:04.000Z</time>
      </trkpt>
      <trkpt lat="47.50866" lon="2.85809">
        <ele>137.612489</ele>
        <time>2021-09-09T10:58:12.000Z</time>
      </trkpt>
      <trkpt lat="47.50889" lon="2.85887">
        <ele>137.626933</ele>
        <time>2021-09-09T10:58:21.000Z</time>
      </trkpt>
      <trkpt lat="47.5091" lon="2.8596">
        <ele>137.388683</ele>
        <time>2021-09-09T10:58:29.000Z</time>
      </trkpt>
      <trkpt lat="47.50928" lon="2.86026">
        <ele>137.171038</ele>
        <time>2021-09-09T10:58:36.000Z</time>
      </trkpt>
      <trkpt lat="47.50944" lon="2.86088">
        <ele>136.969334</ele>
        <time>2021-09-09T10:58:43.000Z</time>
      </trkpt>
      <trkpt lat="47.50958" lon="2.86139">
        <ele>136.78236</ele>
        <time>2021-09-09T10:58:49.000Z</time>
      </trkpt>
      <trkpt lat="47.50974" lon="2.86204">
        <ele>136.529088</ele>
        <time>2021-09-09T10:58:57.000Z</time>
      </trkpt>
      <trkpt lat="47.50988" lon="2.86276">
        <ele>136.254082</ele>
        <time>2021-09-09T10:59:06.000Z</time>
      </trkpt>
      <trkpt lat="47.50998" lon="2.8634">
        <ele>136.013809</ele>
        <time>2021-09-09T10:59:13.000Z</time>
      </trkpt>
      <trkpt lat="47.51015" lon="2.86414">
        <ele>135.92561</ele>
        <time>2021-09-09T10:59:21.000Z</time>
      </trkpt>
      <trkpt lat="47.51036" lon="2.86489">
        <ele>135.916811</ele>
        <time>2021-09-09T10:59:29.000Z</time>
      </trkpt>
      <trkpt lat="47.51041" lon="2.86508">
        <ele>135.914603</ele>
        <time>2021-09-09T10:59:31.000Z</time>
      </trkpt>
      <trkpt lat="47.51059" lon="2.86573">
        <ele>135.907047</ele>
        <time>2021-09-09T10:59:38.000Z</time>
      </trkpt>
      <trkpt lat="47.51071" lon="2.8664">
        <ele>135.94541</ele>
        <time>2021-09-09T10:59:45.000Z</time>
      </trkpt>
      <trkpt lat="47.51079" lon="2.86718">
        <ele>136.052555</ele>
        <time>2021-09-09T10:59:53.000Z</time>
      </trkpt>
      <trkpt lat="47.51075" lon="2.86769">
        <ele>136.1229</ele>
        <time>2021-09-09T10:59:59.000Z</time>
      </trkpt>
      <trkpt lat="47.51073" lon="2.86776">
        <ele>136.133092</ele>
        <time>2021-09-09T11:00:00.000Z</time>
      </trkpt>
      <trkpt lat="47.51068" lon="2.86801">
        <ele>136.170029</ele>
        <time>2021-09-09T11:00:04.000Z</time>
      </trkpt>
      <trkpt lat="47.51063" lon="2.86825">
        <ele>136.203786</ele>
        <time>2021-09-09T11:00:09.000Z</time>
      </trkpt>
      <trkpt lat="47.51066" lon="2.86832">
        <ele>136.215823</ele>
        <time>2021-09-09T11:00:11.000Z</time>
      </trkpt>
      <trkpt lat="47.5107" lon="2.86836">
        <ele>136.224635</ele>
        <time>2021-09-09T11:00:12.000Z</time>
      </trkpt>
      <trkpt lat="47.51074" lon="2.86849">
        <ele>136.245333</ele>
        <time>2021-09-09T11:00:15.000Z</time>
      </trkpt>
      <trkpt lat="47.51069" lon="2.86856">
        <ele>136.259956</ele>
        <time>2021-09-09T11:00:18.000Z</time>
      </trkpt>
      <trkpt lat="47.51066" lon="2.8686">
        <ele>136.267209</ele>
        <time>2021-09-09T11:00:19.000Z</time>
      </trkpt>
      <trkpt lat="47.51057" lon="2.86865">
        <ele>136.254081</ele>
        <time>2021-09-09T11:00:21.000Z</time>
      </trkpt>
      <trkpt lat="47.51052" lon="2.86866">
        <ele>136.247285</ele>
        <time>2021-09-09T11:00:22.000Z</time>
      </trkpt>
      <trkpt lat="47.51043" lon="2.86861">
        <ele>136.23348</ele>
        <time>2021-09-09T11:00:25.000Z</time>
      </trkpt>
      <trkpt lat="47.51039" lon="2.86855">
        <ele>136.225346</ele>
        <time>2021-09-09T11:00:26.000Z</time>
      </trkpt>
      <trkpt lat="47.51032" lon="2.86842">
        <ele>136.208446</ele>
        <time>2021-09-09T11:00:28.000Z</time>
      </trkpt>
      <trkpt lat="47.50995" lon="2.86808">
        <ele>136.146661</ele>
        <time>2021-09-09T11:00:35.000Z</time>
      </trkpt>
      <trkpt lat="47.5099" lon="2.86804">
        <ele>136.137916</ele>
        <time>2021-09-09T11:00:36.000Z</time>
      </trkpt>
      <trkpt lat="47.50941" lon="2.86783">
        <ele>136.065365</ele>
        <time>2021-09-09T11:00:44.000Z</time>
      </trkpt>
      <trkpt lat="47.50904" lon="2.86777">
        <ele>136.011945</ele>
        <time>2021-09-09T11:00:50.000Z</time>
      </trkpt>
      <trkpt lat="47.50866" lon="2.86771">
        <ele>136.023548</ele>
        <time>2021-09-09T11:00:56.000Z</time>
      </trkpt>
      <trkpt lat="47.50854" lon="2.86769">
        <ele>136.027959</ele>
        <time>2021-09-09T11:00:58.000Z</time>
      </trkpt>
      <trkpt lat="47.50841" lon="2.86771">
        <ele>136.032406</ele>
        <time>2021-09-09T11:01:00.000Z</time>
      </trkpt>
      <trkpt lat="47.50835" lon="2.86772">
        <ele>136.034542</ele>
        <time>2021-09-09T11:01:01.000Z</time>
      </trkpt>
      <trkpt lat="47.50829" lon="2.86773">
        <ele>136.036856</ele>
        <time>2021-09-09T11:01:02.000Z</time>
      </trkpt>
      <trkpt lat="47.50817" lon="2.86775">
        <ele>136.041162</ele>
        <time>2021-09-09T11:01:04.000Z</time>
      </trkpt>
      <trkpt lat="47.50789" lon="2.8678">
        <ele>136.051438</ele>
        <time>2021-09-09T11:01:09.000Z</time>
      </trkpt>
      <trkpt lat="47.50755" lon="2.86785">
        <ele>136.063558</ele>
        <time>2021-09-09T11:01:15.000Z</time>
      </trkpt>
      <trkpt lat="47.50724" lon="2.8679">
        <ele>136.074884</ele>
        <time>2021-09-09T11:01:21.000Z</time>
      </trkpt>
      <trkpt lat="47.50686" lon="2.86795">
        <ele>136.037346</ele>
        <time>2021-09-09T11:01:27.000Z</time>
      </trkpt>
      <trkpt lat="47.5066" lon="2.86798">
        <ele>136.011377</ele>
        <time>2021-09-09T11:01:31.000Z</time>
      </trkpt>
      <trkpt lat="47.50647" lon="2.86802">
        <ele>135.998792</ele>
        <time>2021-09-09T11:01:33.000Z</time>
      </trkpt>
      <trkpt lat="47.50636" lon="2.86808">
        <ele>135.986775</ele>
        <time>2021-09-09T11:01:35.000Z</time>
      </trkpt>
      <trkpt lat="47.50626" lon="2.86821">
        <ele>135.973997</ele>
        <time>2021-09-09T11:01:37.000Z</time>
      </trkpt>
      <trkpt lat="47.506" lon="2.86851">
        <ele>135.941344</ele>
        <time>2021-09-09T11:01:42.000Z</time>
      </trkpt>
      <trkpt lat="47.50574" lon="2.86878">
        <ele>135.909561</ele>
        <time>2021-09-09T11:01:47.000Z</time>
      </trkpt>
      <trkpt lat="47.5054" lon="2.86912">
        <ele>135.804016</ele>
        <time>2021-09-09T11:01:53.000Z</time>
      </trkpt>
      <trkpt lat="47.50531" lon="2.86922">
        <ele>135.765248</ele>
        <time>2021-09-09T11:01:55.000Z</time>
      </trkpt>
      <trkpt lat="47.50516" lon="2.86916">
        <ele>135.71313</ele>
        <time>2021-09-09T11:01:56.000Z</time>
      </trkpt>
      <trkpt lat="47.50514" lon="2.86922">
        <ele>135.699037</ele>
        <time>2021-09-09T11:01:57.000Z</time>
      </trkpt>
      <trkpt lat="47.50503" lon="2.86942">
        <ele>135.63902</ele>
        <time>2021-09-09T11:02:00.000Z</time>
      </trkpt>
      <trkpt lat="47.50485" lon="2.86969">
        <ele>135.553705</ele>
        <time>2021-09-09T11:02:04.000Z</time>
      </trkpt>
      <trkpt lat="47.50476" lon="2.86981">
        <ele>135.514146</ele>
        <time>2021-09-09T11:02:06.000Z</time>
      </trkpt>
      <trkpt lat="47.50472" lon="2.86987">
        <ele>135.494684</ele>
        <time>2021-09-09T11:02:07.000Z</time>
      </trkpt>
      <trkpt lat="47.50461" lon="2.87013">
        <ele>135.425681</ele>
        <time>2021-09-09T11:02:10.000Z</time>
      </trkpt>
      <trkpt lat="47.50458" lon="2.87022">
        <ele>135.40379</ele>
        <time>2021-09-09T11:02:11.000Z</time>
      </trkpt>
      <trkpt lat="47.5045" lon="2.87046">
        <ele>135.341343</ele>
        <time>2021-09-09T11:02:14.000Z</time>
      </trkpt>
      <trkpt lat="47.50429" lon="2.87106">
        <ele>135.368125</ele>
        <time>2021-09-09T11:02:21.000Z</time>
      </trkpt>
      <trkpt lat="47.50405" lon="2.87173">
        <ele>135.485471</ele>
        <time>2021-09-09T11:02:29.000Z</time>
      </trkpt>
      <trkpt lat="47.50402" lon="2.87181">
        <ele>135.500096</ele>
        <time>2021-09-09T11:02:30.000Z</time>
      </trkpt>
      <trkpt lat="47.50392" lon="2.87215">
        <ele>135.559126</ele>
        <time>2021-09-09T11:02:34.000Z</time>
      </trkpt>
      <trkpt lat="47.50376" lon="2.8729">
        <ele>135.682436</ele>
        <time>2021-09-09T11:02:42.000Z</time>
      </trkpt>
      <trkpt lat="47.50358" lon="2.87375">
        <ele>135.929726</ele>
        <time>2021-09-09T11:02:51.000Z</time>
      </trkpt>
      <trkpt lat="47.50344" lon="2.87449">
        <ele>136.169806</ele>
        <time>2021-09-09T11:02:59.000Z</time>
      </trkpt>
      <trkpt lat="47.50331" lon="2.87534">
        <ele>136.441233</ele>
        <time>2021-09-09T11:03:08.000Z</time>
      </trkpt>
      <trkpt lat="47.50319" lon="2.87616">
        <ele>136.621523</ele>
        <time>2021-09-09T11:03:17.000Z</time>
      </trkpt>
      <trkpt lat="47.50318" lon="2.87625">
        <ele>136.636149</ele>
        <time>2021-09-09T11:03:18.000Z</time>
      </trkpt>
      <trkpt lat="47.5031" lon="2.87682">
        <ele>136.725617</ele>
        <time>2021-09-09T11:03:24.000Z</time>
      </trkpt>
      <trkpt lat="47.50299" lon="2.87757">
        <ele>136.845298</ele>
        <time>2021-09-09T11:03:32.000Z</time>
      </trkpt>
      <trkpt lat="47.50287" lon="2.87831">
        <ele>136.950854</ele>
        <time>2021-09-09T11:03:40.000Z</time>
      </trkpt>
      <trkpt lat="47.50277" lon="2.87885">
        <ele>136.910833</ele>
        <time>2021-09-09T11:03:46.000Z</time>
      </trkpt>
      <trkpt lat="47.50263" lon="2.87941">
        <ele>136.867799</ele>
        <time>2021-09-09T11:03:53.000Z</time>
      </trkpt>
      <trkpt lat="47.50248" lon="2.8797">
        <ele>136.842012</ele>
        <time>2021-09-09T11:03:57.000Z</time>
      </trkpt>
      <trkpt lat="47.5024" lon="2.87983">
        <ele>136.82896</ele>
        <time>2021-09-09T11:03:59.000Z</time>
      </trkpt>
      <trkpt lat="47.50221" lon="2.88015">
        <ele>136.798102</ele>
        <time>2021-09-09T11:04:04.000Z</time>
      </trkpt>
      <trkpt lat="47.50193" lon="2.8805">
        <ele>136.729102</ele>
        <time>2021-09-09T11:04:10.000Z</time>
      </trkpt>
      <trkpt lat="47.50168" lon="2.8808">
        <ele>136.491297</ele>
        <time>2021-09-09T11:04:15.000Z</time>
      </trkpt>
      <trkpt lat="47.50149" lon="2.88114">
        <ele>136.266556</ele>
        <time>2021-09-09T11:04:20.000Z</time>
      </trkpt>
      <trkpt lat="47.50145" lon="2.88121">
        <ele>136.219816</ele>
        <time>2021-09-09T11:04:21.000Z</time>
      </trkpt>
      <trkpt lat="47.50124" lon="2.88163">
        <ele>135.953538</ele>
        <time>2021-09-09T11:04:27.000Z</time>
      </trkpt>
      <trkpt lat="47.50101" lon="2.88215">
        <ele>135.637114</ele>
        <time>2021-09-09T11:04:34.000Z</time>
      </trkpt>
      <trkpt lat="47.50088" lon="2.88243">
        <ele>135.460095</ele>
        <time>2021-09-09T11:04:38.000Z</time>
      </trkpt>
      <trkpt lat="47.50078" lon="2.88253">
        <ele>135.336524</ele>
        <time>2021-09-09T11:04:40.000Z</time>
      </trkpt>
      <trkpt lat="47.50064" lon="2.88267">
        <ele>135.0655</ele>
        <time>2021-09-09T11:04:43.000Z</time>
      </trkpt>
      <trkpt lat="47.5006" lon="2.88272">
        <ele>134.985092</ele>
        <time>2021-09-09T11:04:44.000Z</time>
      </trkpt>
      <trkpt lat="47.50051" lon="2.88281">
        <ele>134.807174</ele>
        <time>2021-09-09T11:04:46.000Z</time>
      </trkpt>
      <trkpt lat="47.50041" lon="2.88291">
        <ele>134.621656</ele>
        <time>2021-09-09T11:04:48.000Z</time>
      </trkpt>
      <trkpt lat="47.50031" lon="2.88301">
        <ele>134.43864</ele>
        <time>2021-09-09T11:04:50.000Z</time>
      </trkpt>
      <trkpt lat="47.50021" lon="2.88311">
        <ele>134.247421</ele>
        <time>2021-09-09T11:04:52.000Z</time>
      </trkpt>
      <trkpt lat="47.50008" lon="2.88325">
        <ele>133.993498</ele>
        <time>2021-09-09T11:04:55.000Z</time>
      </trkpt>
      <trkpt lat="47.50004" lon="2.88329">
        <ele>133.909289</ele>
        <time>2021-09-09T11:04:56.000Z</time>
      </trkpt>
      <trkpt lat="47.4999" lon="2.88343">
        <ele>133.645262</ele>
        <time>2021-09-09T11:04:59.000Z</time>
      </trkpt>
      <trkpt lat="47.4998" lon="2.88353">
        <ele>133.464145</ele>
        <time>2021-09-09T11:05:01.000Z</time>
      </trkpt>
      <trkpt lat="47.49966" lon="2.88367">
        <ele>133.18932</ele>
        <time>2021-09-09T11:05:04.000Z</time>
      </trkpt>
      <trkpt lat="47.49958" lon="2.88382">
        <ele>132.989579</ele>
        <time>2021-09-09T11:05:06.000Z</time>
      </trkpt>
      <trkpt lat="47.49955" lon="2.88401">
        <ele>132.774263</ele>
        <time>2021-09-09T11:05:08.000Z</time>
      </trkpt>
      <trkpt lat="47.49956" lon="2.8841">
        <ele>132.680109</ele>
        <time>2021-09-09T11:05:09.000Z</time>
      </trkpt>
      <trkpt lat="47.49959" lon="2.88418">
        <ele>132.584633</ele>
        <time>2021-09-09T11:05:10.000Z</time>
      </trkpt>
      <trkpt lat="47.49969" lon="2.88435">
        <ele>132.485736</ele>
        <time>2021-09-09T11:05:13.000Z</time>
      </trkpt>
      <trkpt lat="47.49976" lon="2.88446">
        <ele>132.42562</ele>
        <time>2021-09-09T11:05:15.000Z</time>
      </trkpt>
      <trkpt lat="47.49978" lon="2.88459">
        <ele>132.369028</ele>
        <time>2021-09-09T11:05:16.000Z</time>
      </trkpt>
      <trkpt lat="47.49977" lon="2.88463">
        <ele>132.350773</ele>
        <time>2021-09-09T11:05:17.000Z</time>
      </trkpt>
      <trkpt lat="47.49968" lon="2.88474">
        <ele>132.280716</ele>
        <time>2021-09-09T11:05:19.000Z</time>
      </trkpt>
      <trkpt lat="47.49961" lon="2.88482">
        <ele>132.22685</ele>
        <time>2021-09-09T11:05:21.000Z</time>
      </trkpt>
      <trkpt lat="47.49952" lon="2.88492">
        <ele>132.159979</ele>
        <time>2021-09-09T11:05:23.000Z</time>
      </trkpt>
      <trkpt lat="47.49948" lon="2.88498">
        <ele>132.126177</ele>
        <time>2021-09-09T11:05:24.000Z</time>
      </trkpt>
      <trkpt lat="47.4994" lon="2.88507">
        <ele>132.064474</ele>
        <time>2021-09-09T11:05:26.000Z</time>
      </trkpt>
      <trkpt lat="47.49919" lon="2.88533">
        <ele>131.895727</ele>
        <time>2021-09-09T11:05:31.000Z</time>
      </trkpt>
      <trkpt lat="47.49893" lon="2.88556">
        <ele>131.712135</ele>
        <time>2021-09-09T11:05:36.000Z</time>
      </trkpt>
      <trkpt lat="47.4985" lon="2.8859">
        <ele>131.540072</ele>
        <time>2021-09-09T11:05:44.000Z</time>
      </trkpt>
      <trkpt lat="47.49802" lon="2.88628">
        <ele>131.86929</ele>
        <time>2021-09-09T11:05:53.000Z</time>
      </trkpt>
      <trkpt lat="47.49797" lon="2.88632">
        <ele>131.906727</ele>
        <time>2021-09-09T11:05:54.000Z</time>
      </trkpt>
      <trkpt lat="47.49755" lon="2.88665">
        <ele>132.187716</ele>
        <time>2021-09-09T11:06:02.000Z</time>
      </trkpt>
      <trkpt lat="47.49714" lon="2.88697">
        <ele>132.466348</ele>
        <time>2021-09-09T11:06:10.000Z</time>
      </trkpt>
      <trkpt lat="47.49673" lon="2.88729">
        <ele>132.690907</ele>
        <time>2021-09-09T11:06:18.000Z</time>
      </trkpt>
      <trkpt lat="47.49634" lon="2.8876">
        <ele>132.878219</ele>
        <time>2021-09-09T11:06:26.000Z</time>
      </trkpt>
      <trkpt lat="47.496" lon="2.88787">
        <ele>133.039906</ele>
        <time>2021-09-09T11:06:33.000Z</time>
      </trkpt>
      <trkpt lat="47.49559" lon="2.88819">
        <ele>133.235018</ele>
        <time>2021-09-09T11:06:41.000Z</time>
      </trkpt>
      <trkpt lat="47.49549" lon="2.88827">
        <ele>133.283511</ele>
        <time>2021-09-09T11:06:43.000Z</time>
      </trkpt>
      <trkpt lat="47.49539" lon="2.88835">
        <ele>133.336898</ele>
        <time>2021-09-09T11:06:45.000Z</time>
      </trkpt>
      <trkpt lat="47.49544" lon="2.88857">
        <ele>133.455252</ele>
        <time>2021-09-09T11:06:48.000Z</time>
      </trkpt>
      <trkpt lat="47.49543" lon="2.88877">
        <ele>133.556531</ele>
        <time>2021-09-09T11:06:50.000Z</time>
      </trkpt>
      <trkpt lat="47.49541" lon="2.88884">
        <ele>133.596512</ele>
        <time>2021-09-09T11:06:51.000Z</time>
      </trkpt>
      <trkpt lat="47.49534" lon="2.88895">
        <ele>133.67052</ele>
        <time>2021-09-09T11:06:53.000Z</time>
      </trkpt>
      <trkpt lat="47.49527" lon="2.88906">
        <ele>133.7454</ele>
        <time>2021-09-09T11:06:55.000Z</time>
      </trkpt>
      <trkpt lat="47.49523" lon="2.88911">
        <ele>133.7834</ele>
        <time>2021-09-09T11:06:56.000Z</time>
      </trkpt>
      <trkpt lat="47.49515" lon="2.88922">
        <ele>133.862185</ele>
        <time>2021-09-09T11:06:58.000Z</time>
      </trkpt>
      <trkpt lat="47.49511" lon="2.88927">
        <ele>133.901408</ele>
        <time>2021-09-09T11:06:59.000Z</time>
      </trkpt>
      <trkpt lat="47.49507" lon="2.88932">
        <ele>133.94063</ele>
        <time>2021-09-09T11:07:00.000Z</time>
      </trkpt>
      <trkpt lat="47.49503" lon="2.88949">
        <ele>134.030546</ele>
        <time>2021-09-09T11:07:02.000Z</time>
      </trkpt>
      <trkpt lat="47.49501" lon="2.88973">
        <ele>134.151331</ele>
        <time>2021-09-09T11:07:05.000Z</time>
      </trkpt>
      <trkpt lat="47.49501" lon="2.88978">
        <ele>134.179448</ele>
        <time>2021-09-09T11:07:07.000Z</time>
      </trkpt>
      <trkpt lat="47.49492" lon="2.88983">
        <ele>134.242865</ele>
        <time>2021-09-09T11:07:09.000Z</time>
      </trkpt>
      <trkpt lat="47.49479" lon="2.8899">
        <ele>134.350232</ele>
        <time>2021-09-09T11:07:12.000Z</time>
      </trkpt>
      <trkpt lat="47.49443" lon="2.89006">
        <ele>134.626436</ele>
        <time>2021-09-09T11:07:19.000Z</time>
      </trkpt>
      <trkpt lat="47.49396" lon="2.89021">
        <ele>135.041073</ele>
        <time>2021-09-09T11:07:28.000Z</time>
      </trkpt>
      <trkpt lat="47.49356" lon="2.89042">
        <ele>135.410549</ele>
        <time>2021-09-09T11:07:36.000Z</time>
      </trkpt>
      <trkpt lat="47.49316" lon="2.89069">
        <ele>135.798419</ele>
        <time>2021-09-09T11:07:44.000Z</time>
      </trkpt>
      <trkpt lat="47.4928" lon="2.89092">
        <ele>136.141088</ele>
        <time>2021-09-09T11:07:51.000Z</time>
      </trkpt>
      <trkpt lat="47.49275" lon="2.89096">
        <ele>136.189961</ele>
        <time>2021-09-09T11:07:52.000Z</time>
      </trkpt>
      <trkpt lat="47.49262" lon="2.89108">
        <ele>136.246424</ele>
        <time>2021-09-09T11:07:55.000Z</time>
      </trkpt>
      <trkpt lat="47.49236" lon="2.89136">
        <ele>136.31389</ele>
        <time>2021-09-09T11:08:01.000Z</time>
      </trkpt>
      <trkpt lat="47.49215" lon="2.89157">
        <ele>136.366819</ele>
        <time>2021-09-09T11:08:06.000Z</time>
      </trkpt>
      <trkpt lat="47.49193" lon="2.8918">
        <ele>136.423718</ele>
        <time>2021-09-09T11:08:11.000Z</time>
      </trkpt>
      <trkpt lat="47.49189" lon="2.89185">
        <ele>136.435129</ele>
        <time>2021-09-09T11:08:12.000Z</time>
      </trkpt>
      <trkpt lat="47.49172" lon="2.89202">
        <ele>136.478079</ele>
        <time>2021-09-09T11:08:16.000Z</time>
      </trkpt>
      <trkpt lat="47.4914" lon="2.89236">
        <ele>136.561017</ele>
        <time>2021-09-09T11:08:23.000Z</time>
      </trkpt>
      <trkpt lat="47.49135" lon="2.89241">
        <ele>136.573107</ele>
        <time>2021-09-09T11:08:24.000Z</time>
      </trkpt>
      <trkpt lat="47.49113" lon="2.89254">
        <ele>136.609189</ele>
        <time>2021-09-09T11:08:28.000Z</time>
      </trkpt>
      <trkpt lat="47.49067" lon="2.89268">
        <ele>136.647667</ele>
        <time>2021-09-09T11:08:36.000Z</time>
      </trkpt>
      <trkpt lat="47.49016" lon="2.89278">
        <ele>136.690116</ele>
        <time>2021-09-09T11:08:45.000Z</time>
      </trkpt>
      <trkpt lat="47.48977" lon="2.89282">
        <ele>136.722044</ele>
        <time>2021-09-09T11:08:52.000Z</time>
      </trkpt>
      <trkpt lat="47.4894" lon="2.89275">
        <ele>136.758491</ele>
        <time>2021-09-09T11:08:59.000Z</time>
      </trkpt>
      <trkpt lat="47.48903" lon="2.89271">
        <ele>136.82694</ele>
        <time>2021-09-09T11:09:06.000Z</time>
      </trkpt>
      <trkpt lat="47.48869" lon="2.89274">
        <ele>136.887517</ele>
        <time>2021-09-09T11:09:12.000Z</time>
      </trkpt>
      <trkpt lat="47.48826" lon="2.89287">
        <ele>136.968073</ele>
        <time>2021-09-09T11:09:20.000Z</time>
      </trkpt>
      <trkpt lat="47.48784" lon="2.8931">
        <ele>137.049292</ele>
        <time>2021-09-09T11:09:28.000Z</time>
      </trkpt>
      <trkpt lat="47.48748" lon="2.89335">
        <ele>137.012564</ele>
        <time>2021-09-09T11:09:35.000Z</time>
      </trkpt>
      <trkpt lat="47.48718" lon="2.89362">
        <ele>136.928045</ele>
        <time>2021-09-09T11:09:41.000Z</time>
      </trkpt>
      <trkpt lat="47.487" lon="2.89384">
        <ele>136.870675</ele>
        <time>2021-09-09T11:09:45.000Z</time>
      </trkpt>
      <trkpt lat="47.48691" lon="2.89395">
        <ele>136.84306</ele>
        <time>2021-09-09T11:09:47.000Z</time>
      </trkpt>
      <trkpt lat="47.48658" lon="2.89434">
        <ele>136.741855</ele>
        <time>2021-09-09T11:09:54.000Z</time>
      </trkpt>
      <trkpt lat="47.4862" lon="2.89478">
        <ele>136.650175</ele>
        <time>2021-09-09T11:10:02.000Z</time>
      </trkpt>
      <trkpt lat="47.48588" lon="2.89519">
        <ele>136.698237</ele>
        <time>2021-09-09T11:10:09.000Z</time>
      </trkpt>
      <trkpt lat="47.48578" lon="2.89527">
        <ele>136.712102</ele>
        <time>2021-09-09T11:10:11.000Z</time>
      </trkpt>
      <trkpt lat="47.48555" lon="2.8954">
        <ele>136.739411</ele>
        <time>2021-09-09T11:10:15.000Z</time>
      </trkpt>
      <trkpt lat="47.4851" lon="2.89566">
        <ele>136.794992</ele>
        <time>2021-09-09T11:10:23.000Z</time>
      </trkpt>
      <trkpt lat="47.48476" lon="2.89585">
        <ele>136.836277</ele>
        <time>2021-09-09T11:10:29.000Z</time>
      </trkpt>
      <trkpt lat="47.48459" lon="2.89595">
        <ele>136.850384</ele>
        <time>2021-09-09T11:10:32.000Z</time>
      </trkpt>
      <trkpt lat="47.48443" lon="2.89605">
        <ele>136.855734</ele>
        <time>2021-09-09T11:10:35.000Z</time>
      </trkpt>
      <trkpt lat="47.48404" lon="2.89627">
        <ele>136.868534</ele>
        <time>2021-09-09T11:10:42.000Z</time>
      </trkpt>
      <trkpt lat="47.48376" lon="2.89639">
        <ele>136.877209</ele>
        <time>2021-09-09T11:10:47.000Z</time>
      </trkpt>
      <trkpt lat="47.48363" lon="2.89641">
        <ele>136.881262</ele>
        <time>2021-09-09T11:10:50.000Z</time>
      </trkpt>
      <trkpt lat="47.48354" lon="2.89641">
        <ele>136.883875</ele>
        <time>2021-09-09T11:10:51.000Z</time>
      </trkpt>
      <trkpt lat="47.48351" lon="2.89644">
        <ele>136.885224</ele>
        <time>2021-09-09T11:10:52.000Z</time>
      </trkpt>
      <trkpt lat="47.48342" lon="2.8965">
        <ele>136.888142</ele>
        <time>2021-09-09T11:10:54.000Z</time>
      </trkpt>
      <trkpt lat="47.48315" lon="2.89653">
        <ele>136.896279</ele>
        <time>2021-09-09T11:10:59.000Z</time>
      </trkpt>
      <trkpt lat="47.48303" lon="2.89651">
        <ele>136.899945</ele>
        <time>2021-09-09T11:11:01.000Z</time>
      </trkpt>
      <trkpt lat="47.48286" lon="2.89649">
        <ele>136.904339</ele>
        <time>2021-09-09T11:11:04.000Z</time>
      </trkpt>
      <trkpt lat="47.48249" lon="2.89625">
        <ele>136.912848</ele>
        <time>2021-09-09T11:11:11.000Z</time>
      </trkpt>
      <trkpt lat="47.48244" lon="2.89622">
        <ele>136.914087</ele>
        <time>2021-09-09T11:11:12.000Z</time>
      </trkpt>
      <trkpt lat="47.48228" lon="2.89612">
        <ele>136.917646</ele>
        <time>2021-09-09T11:11:15.000Z</time>
      </trkpt>
      <trkpt lat="47.48192" lon="2.89588">
        <ele>136.925898</ele>
        <time>2021-09-09T11:11:22.000Z</time>
      </trkpt>
      <trkpt lat="47.48154" lon="2.89574">
        <ele>136.934193</ele>
        <time>2021-09-09T11:11:29.000Z</time>
      </trkpt>
      <trkpt lat="47.48128" lon="2.89566">
        <ele>136.939672</ele>
        <time>2021-09-09T11:11:34.000Z</time>
      </trkpt>
      <trkpt lat="47.48118" lon="2.89564">
        <ele>136.946274</ele>
        <time>2021-09-09T11:11:36.000Z</time>
      </trkpt>
      <trkpt lat="47.48113" lon="2.89563">
        <ele>136.951315</ele>
        <time>2021-09-09T11:11:37.000Z</time>
      </trkpt>
      <trkpt lat="47.48101" lon="2.89564">
        <ele>136.961542</ele>
        <time>2021-09-09T11:11:39.000Z</time>
      </trkpt>
      <trkpt lat="47.48091" lon="2.89568">
        <ele>136.970915</ele>
        <time>2021-09-09T11:11:41.000Z</time>
      </trkpt>
      <trkpt lat="47.48059" lon="2.89583">
        <ele>137.001076</ele>
        <time>2021-09-09T11:11:47.000Z</time>
      </trkpt>
      <trkpt lat="47.48054" lon="2.89586">
        <ele>137.006132</ele>
        <time>2021-09-09T11:11:48.000Z</time>
      </trkpt>
      <trkpt lat="47.48021" lon="2.89604">
        <ele>137.037503</ele>
        <time>2021-09-09T11:11:54.000Z</time>
      </trkpt>
      <trkpt lat="47.47981" lon="2.89625">
        <ele>137.075357</ele>
        <time>2021-09-09T11:12:01.000Z</time>
      </trkpt>
      <trkpt lat="47.47947" lon="2.89641">
        <ele>137.124624</ele>
        <time>2021-09-09T11:12:07.000Z</time>
      </trkpt>
      <trkpt lat="47.47926" lon="2.8965">
        <ele>137.200187</ele>
        <time>2021-09-09T11:12:12.000Z</time>
      </trkpt>
      <trkpt lat="47.47904" lon="2.89659">
        <ele>137.27934</ele>
        <time>2021-09-09T11:12:18.000Z</time>
      </trkpt>
      <trkpt lat="47.479" lon="2.89661">
        <ele>137.293246</ele>
        <time>2021-09-09T11:12:19.000Z</time>
      </trkpt>
      <trkpt lat="47.47892" lon="2.89664">
        <ele>137.323188</ele>
        <time>2021-09-09T11:12:21.000Z</time>
      </trkpt>
      <trkpt lat="47.47882" lon="2.89667">
        <ele>137.356326</ele>
        <time>2021-09-09T11:12:23.000Z</time>
      </trkpt>
      <trkpt lat="47.47848" lon="2.89679">
        <ele>137.47828</ele>
        <time>2021-09-09T11:12:30.000Z</time>
      </trkpt>
      <trkpt lat="47.47843" lon="2.89681">
        <ele>137.495774</ele>
        <time>2021-09-09T11:12:31.000Z</time>
      </trkpt>
      <trkpt lat="47.47818" lon="2.8969">
        <ele>137.584535</ele>
        <time>2021-09-09T11:12:36.000Z</time>
      </trkpt>
      <trkpt lat="47.47785" lon="2.89711">
        <ele>137.7112</ele>
        <time>2021-09-09T11:12:43.000Z</time>
      </trkpt>
      <trkpt lat="47.47776" lon="2.89718">
        <ele>137.728814</ele>
        <time>2021-09-09T11:12:45.000Z</time>
      </trkpt>
      <trkpt lat="47.47758" lon="2.89735">
        <ele>137.742819</ele>
        <time>2021-09-09T11:12:49.000Z</time>
      </trkpt>
      <trkpt lat="47.47726" lon="2.89767">
        <ele>137.768247</ele>
        <time>2021-09-09T11:12:56.000Z</time>
      </trkpt>
      <trkpt lat="47.47712" lon="2.89781">
        <ele>137.779641</ele>
        <time>2021-09-09T11:12:59.000Z</time>
      </trkpt>
      <trkpt lat="47.47698" lon="2.89795">
        <ele>137.790716</ele>
        <time>2021-09-09T11:13:02.000Z</time>
      </trkpt>
      <trkpt lat="47.47674" lon="2.89818">
        <ele>137.809861</ele>
        <time>2021-09-09T11:13:07.000Z</time>
      </trkpt>
      <trkpt lat="47.47664" lon="2.89827">
        <ele>137.817263</ele>
        <time>2021-09-09T11:13:09.000Z</time>
      </trkpt>
      <trkpt lat="47.47656" lon="2.89836">
        <ele>137.824105</ele>
        <time>2021-09-09T11:13:11.000Z</time>
      </trkpt>
      <trkpt lat="47.47626" lon="2.89866">
        <ele>137.848045</ele>
        <time>2021-09-09T11:13:17.000Z</time>
      </trkpt>
      <trkpt lat="47.47591" lon="2.899">
        <ele>137.876648</ele>
        <time>2021-09-09T11:13:24.000Z</time>
      </trkpt>
      <trkpt lat="47.47552" lon="2.89939">
        <ele>137.908125</ele>
        <time>2021-09-09T11:13:32.000Z</time>
      </trkpt>
      <trkpt lat="47.47547" lon="2.89943">
        <ele>137.911925</ele>
        <time>2021-09-09T11:13:33.000Z</time>
      </trkpt>
      <trkpt lat="47.47519" lon="2.89971">
        <ele>137.934449</ele>
        <time>2021-09-09T11:13:39.000Z</time>
      </trkpt>
      <trkpt lat="47.47486" lon="2.90003">
        <ele>137.961125</ele>
        <time>2021-09-09T11:13:46.000Z</time>
      </trkpt>
      <trkpt lat="47.47455" lon="2.90035">
        <ele>138.020892</ele>
        <time>2021-09-09T11:13:53.000Z</time>
      </trkpt>
      <trkpt lat="47.47414" lon="2.90074">
        <ele>138.104645</ele>
        <time>2021-09-09T11:14:02.000Z</time>
      </trkpt>
      <trkpt lat="47.47382" lon="2.90106">
        <ele>138.17117</ele>
        <time>2021-09-09T11:14:09.000Z</time>
      </trkpt>
      <trkpt lat="47.47346" lon="2.90142">
        <ele>138.245448</ele>
        <time>2021-09-09T11:14:17.000Z</time>
      </trkpt>
      <trkpt lat="47.47318" lon="2.90169">
        <ele>138.311871</ele>
        <time>2021-09-09T11:14:23.000Z</time>
      </trkpt>
      <trkpt lat="47.47285" lon="2.90202">
        <ele>138.398705</ele>
        <time>2021-09-09T11:14:30.000Z</time>
      </trkpt>
      <trkpt lat="47.47251" lon="2.90235">
        <ele>138.48615</ele>
        <time>2021-09-09T11:14:37.000Z</time>
      </trkpt>
      <trkpt lat="47.47212" lon="2.90273">
        <ele>138.589858</ele>
        <time>2021-09-09T11:14:45.000Z</time>
      </trkpt>
      <trkpt lat="47.47178" lon="2.90306">
        <ele>138.663699</ele>
        <time>2021-09-09T11:14:52.000Z</time>
      </trkpt>
      <trkpt lat="47.4714" lon="2.90343">
        <ele>138.624072</ele>
        <time>2021-09-09T11:15:00.000Z</time>
      </trkpt>
      <trkpt lat="47.47105" lon="2.90377">
        <ele>138.587722</ele>
        <time>2021-09-09T11:15:07.000Z</time>
      </trkpt>
      <trkpt lat="47.47073" lon="2.90412">
        <ele>138.552799</ele>
        <time>2021-09-09T11:15:14.000Z</time>
      </trkpt>
      <trkpt lat="47.47042" lon="2.90448">
        <ele>138.518134</ele>
        <time>2021-09-09T11:15:21.000Z</time>
      </trkpt>
      <trkpt lat="47.47004" lon="2.90493">
        <ele>138.495133</ele>
        <time>2021-09-09T11:15:29.000Z</time>
      </trkpt>
      <trkpt lat="47.46969" lon="2.90533">
        <ele>138.477706</ele>
        <time>2021-09-09T11:15:36.000Z</time>
      </trkpt>
      <trkpt lat="47.46937" lon="2.90554">
        <ele>138.463593</ele>
        <time>2021-09-09T11:15:42.000Z</time>
      </trkpt>
      <trkpt lat="47.46898" lon="2.90579">
        <ele>138.446852</ele>
        <time>2021-09-09T11:15:49.000Z</time>
      </trkpt>
      <trkpt lat="47.4685" lon="2.90611">
        <ele>138.515042</ele>
        <time>2021-09-09T11:15:58.000Z</time>
      </trkpt>
      <trkpt lat="47.46833" lon="2.90621">
        <ele>138.552807</ele>
        <time>2021-09-09T11:16:01.000Z</time>
      </trkpt>
      <trkpt lat="47.46818" lon="2.90632">
        <ele>138.588937</ele>
        <time>2021-09-09T11:16:04.000Z</time>
      </trkpt>
      <trkpt lat="47.46786" lon="2.90653">
        <ele>138.6658</ele>
        <time>2021-09-09T11:16:10.000Z</time>
      </trkpt>
      <trkpt lat="47.46751" lon="2.90664">
        <ele>138.741399</ele>
        <time>2021-09-09T11:16:16.000Z</time>
      </trkpt>
      <trkpt lat="47.46733" lon="2.90668">
        <ele>138.780172</ele>
        <time>2021-09-09T11:16:19.000Z</time>
      </trkpt>
      <trkpt lat="47.46721" lon="2.9067">
        <ele>138.806162</ele>
        <time>2021-09-09T11:16:21.000Z</time>
      </trkpt>
      <trkpt lat="47.46679" lon="2.90678">
        <ele>138.816088</ele>
        <time>2021-09-09T11:16:28.000Z</time>
      </trkpt>
      <trkpt lat="47.46639" lon="2.90686">
        <ele>138.80367</ele>
        <time>2021-09-09T11:16:35.000Z</time>
      </trkpt>
      <trkpt lat="47.4661" lon="2.90692">
        <ele>138.794938</ele>
        <time>2021-09-09T11:16:40.000Z</time>
      </trkpt>
      <trkpt lat="47.46604" lon="2.90693">
        <ele>138.793234</ele>
        <time>2021-09-09T11:16:41.000Z</time>
      </trkpt>
      <trkpt lat="47.46583" lon="2.90702">
        <ele>138.786471</ele>
        <time>2021-09-09T11:16:45.000Z</time>
      </trkpt>
      <trkpt lat="47.46578" lon="2.90706">
        <ele>138.78484</ele>
        <time>2021-09-09T11:16:46.000Z</time>
      </trkpt>
      <trkpt lat="47.46541" lon="2.90744">
        <ele>138.771492</ele>
        <time>2021-09-09T11:16:54.000Z</time>
      </trkpt>
      <trkpt lat="47.46507" lon="2.90779">
        <ele>138.763527</ele>
        <time>2021-09-09T11:17:01.000Z</time>
      </trkpt>
      <trkpt lat="47.46472" lon="2.90815">
        <ele>138.755348</ele>
        <time>2021-09-09T11:17:08.000Z</time>
      </trkpt>
      <trkpt lat="47.46447" lon="2.90841">
        <ele>138.749637</ele>
        <time>2021-09-09T11:17:13.000Z</time>
      </trkpt>
      <trkpt lat="47.46438" lon="2.90851">
        <ele>138.74736</ele>
        <time>2021-09-09T11:17:15.000Z</time>
      </trkpt>
      <trkpt lat="47.46423" lon="2.90866">
        <ele>138.743902</ele>
        <time>2021-09-09T11:17:18.000Z</time>
      </trkpt>
      <trkpt lat="47.46413" lon="2.90876">
        <ele>138.741616</ele>
        <time>2021-09-09T11:17:20.000Z</time>
      </trkpt>
      <trkpt lat="47.46397" lon="2.90891">
        <ele>138.738112</ele>
        <time>2021-09-09T11:17:23.000Z</time>
      </trkpt>
      <trkpt lat="47.46367" lon="2.90922">
        <ele>138.808888</ele>
        <time>2021-09-09T11:17:29.000Z</time>
      </trkpt>
      <trkpt lat="47.46336" lon="2.90953">
        <ele>138.887094</ele>
        <time>2021-09-09T11:17:35.000Z</time>
      </trkpt>
      <trkpt lat="47.4631" lon="2.9098">
        <ele>138.955648</ele>
        <time>2021-09-09T11:17:40.000Z</time>
      </trkpt>
      <trkpt lat="47.46294" lon="2.90996">
        <ele>138.996457</ele>
        <time>2021-09-09T11:17:43.000Z</time>
      </trkpt>
      <trkpt lat="47.46283" lon="2.91006">
        <ele>139.023097</ele>
        <time>2021-09-09T11:17:45.000Z</time>
      </trkpt>
      <trkpt lat="47.46264" lon="2.91026">
        <ele>139.073114</ele>
        <time>2021-09-09T11:17:49.000Z</time>
      </trkpt>
      <trkpt lat="47.46255" lon="2.91036">
        <ele>139.096745</ele>
        <time>2021-09-09T11:17:51.000Z</time>
      </trkpt>
      <trkpt lat="47.46227" lon="2.91066">
        <ele>139.148735</ele>
        <time>2021-09-09T11:17:57.000Z</time>
      </trkpt>
      <trkpt lat="47.46189" lon="2.91107">
        <ele>139.207136</ele>
        <time>2021-09-09T11:18:05.000Z</time>
      </trkpt>
      <trkpt lat="47.4615" lon="2.91147">
        <ele>139.265612</ele>
        <time>2021-09-09T11:18:13.000Z</time>
      </trkpt>
      <trkpt lat="47.46115" lon="2.91182">
        <ele>139.317664</ele>
        <time>2021-09-09T11:18:20.000Z</time>
      </trkpt>
      <trkpt lat="47.46084" lon="2.91213">
        <ele>139.327505</ele>
        <time>2021-09-09T11:18:26.000Z</time>
      </trkpt>
      <trkpt lat="47.46079" lon="2.91218">
        <ele>139.323039</ele>
        <time>2021-09-09T11:18:27.000Z</time>
      </trkpt>
      <trkpt lat="47.46044" lon="2.91252">
        <ele>139.291989</ele>
        <time>2021-09-09T11:18:34.000Z</time>
      </trkpt>
      <trkpt lat="47.45999" lon="2.91295">
        <ele>139.25306</ele>
        <time>2021-09-09T11:18:43.000Z</time>
      </trkpt>
      <trkpt lat="47.45966" lon="2.91319">
        <ele>139.226037</ele>
        <time>2021-09-09T11:18:49.000Z</time>
      </trkpt>
      <trkpt lat="47.45922" lon="2.91345">
        <ele>139.265568</ele>
        <time>2021-09-09T11:18:57.000Z</time>
      </trkpt>
      <trkpt lat="47.45884" lon="2.91364">
        <ele>139.357871</ele>
        <time>2021-09-09T11:19:04.000Z</time>
      </trkpt>
      <trkpt lat="47.45844" lon="2.91384">
        <ele>139.458566</ele>
        <time>2021-09-09T11:19:12.000Z</time>
      </trkpt>
      <trkpt lat="47.45809" lon="2.91401">
        <ele>139.543688</ele>
        <time>2021-09-09T11:19:19.000Z</time>
      </trkpt>
      <trkpt lat="47.45768" lon="2.91422">
        <ele>139.635469</ele>
        <time>2021-09-09T11:19:27.000Z</time>
      </trkpt>
      <trkpt lat="47.45732" lon="2.91436">
        <ele>139.670962</ele>
        <time>2021-09-09T11:19:34.000Z</time>
      </trkpt>
      <trkpt lat="47.457" lon="2.91446">
        <ele>139.701883</ele>
        <time>2021-09-09T11:19:40.000Z</time>
      </trkpt>
      <trkpt lat="47.45647" lon="2.91464">
        <ele>139.754098</ele>
        <time>2021-09-09T11:19:50.000Z</time>
      </trkpt>
      <trkpt lat="47.45641" lon="2.91466">
        <ele>139.759456</ele>
        <time>2021-09-09T11:19:51.000Z</time>
      </trkpt>
      <trkpt lat="47.45592" lon="2.91482">
        <ele>139.798864</ele>
        <time>2021-09-09T11:20:00.000Z</time>
      </trkpt>
      <trkpt lat="47.4557" lon="2.9149">
        <ele>139.795392</ele>
        <time>2021-09-09T11:20:08.000Z</time>
      </trkpt>
      <trkpt lat="47.45513" lon="2.91509">
        <ele>139.78648</ele>
        <time>2021-09-09T11:20:14.000Z</time>
      </trkpt>
      <trkpt lat="47.45502" lon="2.91512">
        <ele>139.784703</ele>
        <time>2021-09-09T11:20:16.000Z</time>
      </trkpt>
      <trkpt lat="47.45463" lon="2.91526">
        <ele>139.778478</ele>
        <time>2021-09-09T11:20:23.000Z</time>
      </trkpt>
      <trkpt lat="47.45423" lon="2.91539">
        <ele>139.772196</ele>
        <time>2021-09-09T11:20:30.000Z</time>
      </trkpt>
      <trkpt lat="47.45385" lon="2.91551">
        <ele>139.756505</ele>
        <time>2021-09-09T11:20:37.000Z</time>
      </trkpt>
      <trkpt lat="47.45335" lon="2.91568">
        <ele>139.735859</ele>
        <time>2021-09-09T11:20:46.000Z</time>
      </trkpt>
      <trkpt lat="47.45292" lon="2.91582">
        <ele>139.71782</ele>
        <time>2021-09-09T11:20:54.000Z</time>
      </trkpt>
      <trkpt lat="47.45259" lon="2.91593">
        <ele>139.704319</ele>
        <time>2021-09-09T11:21:00.000Z</time>
      </trkpt>
      <trkpt lat="47.4521" lon="2.9161">
        <ele>139.678162</ele>
        <time>2021-09-09T11:21:09.000Z</time>
      </trkpt>
      <trkpt lat="47.45165" lon="2.91625">
        <ele>139.652468</ele>
        <time>2021-09-09T11:21:17.000Z</time>
      </trkpt>
      <trkpt lat="47.45125" lon="2.91638">
        <ele>139.629842</ele>
        <time>2021-09-09T11:21:24.000Z</time>
      </trkpt>
      <trkpt lat="47.45092" lon="2.91649">
        <ele>139.610564</ele>
        <time>2021-09-09T11:21:30.000Z</time>
      </trkpt>
      <trkpt lat="47.45037" lon="2.91668">
        <ele>139.60007</ele>
        <time>2021-09-09T11:21:40.000Z</time>
      </trkpt>
      <trkpt lat="47.44999" lon="2.91681">
        <ele>139.600147</ele>
        <time>2021-09-09T11:21:47.000Z</time>
      </trkpt>
      <trkpt lat="47.44956" lon="2.91696">
        <ele>139.600234</ele>
        <time>2021-09-09T11:21:55.000Z</time>
      </trkpt>
      <trkpt lat="47.44907" lon="2.91712">
        <ele>139.600334</ele>
        <time>2021-09-09T11:22:04.000Z</time>
      </trkpt>
      <trkpt lat="47.44856" lon="2.91729">
        <ele>139.596079</ele>
        <time>2021-09-09T11:22:13.000Z</time>
      </trkpt>
      <trkpt lat="47.44816" lon="2.91743">
        <ele>139.592006</ele>
        <time>2021-09-09T11:22:20.000Z</time>
      </trkpt>
      <trkpt lat="47.44764" lon="2.9176">
        <ele>139.586708</ele>
        <time>2021-09-09T11:22:29.000Z</time>
      </trkpt>
      <trkpt lat="47.44718" lon="2.9177">
        <ele>139.585342</ele>
        <time>2021-09-09T11:22:37.000Z</time>
      </trkpt>
      <trkpt lat="47.44677" lon="2.91777">
        <ele>139.614575</ele>
        <time>2021-09-09T11:22:44.000Z</time>
      </trkpt>
      <trkpt lat="47.44636" lon="2.91783">
        <ele>139.644168</ele>
        <time>2021-09-09T11:22:51.000Z</time>
      </trkpt>
      <trkpt lat="47.44594" lon="2.9179">
        <ele>139.674256</ele>
        <time>2021-09-09T11:22:58.000Z</time>
      </trkpt>
      <trkpt lat="47.44547" lon="2.91797">
        <ele>139.707933</ele>
        <time>2021-09-09T11:23:06.000Z</time>
      </trkpt>
      <trkpt lat="47.44508" lon="2.91803">
        <ele>139.746096</ele>
        <time>2021-09-09T11:23:13.000Z</time>
      </trkpt>
      <trkpt lat="47.44469" lon="2.91809">
        <ele>139.78571</ele>
        <time>2021-09-09T11:23:20.000Z</time>
      </trkpt>
      <trkpt lat="47.44424" lon="2.91817">
        <ele>139.830447</ele>
        <time>2021-09-09T11:23:28.000Z</time>
      </trkpt>
      <trkpt lat="47.44379" lon="2.91825">
        <ele>139.876158</ele>
        <time>2021-09-09T11:23:36.000Z</time>
      </trkpt>
      <trkpt lat="47.44334" lon="2.91832">
        <ele>139.910741</ele>
        <time>2021-09-09T11:23:44.000Z</time>
      </trkpt>
      <trkpt lat="47.44282" lon="2.91841">
        <ele>139.943659</ele>
        <time>2021-09-09T11:23:53.000Z</time>
      </trkpt>
      <trkpt lat="47.44237" lon="2.91845">
        <ele>139.972081</ele>
        <time>2021-09-09T11:24:01.000Z</time>
      </trkpt>
      <trkpt lat="47.44194" lon="2.91847">
        <ele>139.999247</ele>
        <time>2021-09-09T11:24:09.000Z</time>
      </trkpt>
      <trkpt lat="47.4415" lon="2.91848">
        <ele>140.042025</ele>
        <time>2021-09-09T11:24:17.000Z</time>
      </trkpt>
      <trkpt lat="47.44112" lon="2.91848">
        <ele>140.082129</ele>
        <time>2021-09-09T11:24:24.000Z</time>
      </trkpt>
      <trkpt lat="47.44079" lon="2.91849">
        <ele>140.11714</ele>
        <time>2021-09-09T11:24:30.000Z</time>
      </trkpt>
      <trkpt lat="47.44036" lon="2.9185">
        <ele>140.163187</ele>
        <time>2021-09-09T11:24:38.000Z</time>
      </trkpt>
      <trkpt lat="47.43987" lon="2.91851">
        <ele>140.219344</ele>
        <time>2021-09-09T11:24:47.000Z</time>
      </trkpt>
      <trkpt lat="47.43937" lon="2.91852">
        <ele>140.286805</ele>
        <time>2021-09-09T11:24:56.000Z</time>
      </trkpt>
      <trkpt lat="47.43887" lon="2.91853">
        <ele>140.353592</ele>
        <time>2021-09-09T11:25:05.000Z</time>
      </trkpt>
      <trkpt lat="47.43837" lon="2.91853">
        <ele>140.419446</ele>
        <time>2021-09-09T11:25:14.000Z</time>
      </trkpt>
      <trkpt lat="47.43804" lon="2.91853">
        <ele>140.456045</ele>
        <time>2021-09-09T11:25:20.000Z</time>
      </trkpt>
      <trkpt lat="47.4375" lon="2.91854">
        <ele>140.506233</ele>
        <time>2021-09-09T11:25:29.000Z</time>
      </trkpt>
      <trkpt lat="47.43711" lon="2.91854">
        <ele>140.543121</ele>
        <time>2021-09-09T11:25:36.000Z</time>
      </trkpt>
      <trkpt lat="47.43673" lon="2.91852">
        <ele>140.579368</ele>
        <time>2021-09-09T11:25:43.000Z</time>
      </trkpt>
      <trkpt lat="47.43627" lon="2.91848">
        <ele>140.618778</ele>
        <time>2021-09-09T11:25:51.000Z</time>
      </trkpt>
      <trkpt lat="47.43578" lon="2.91842">
        <ele>140.654052</ele>
        <time>2021-09-09T11:25:59.000Z</time>
      </trkpt>
      <trkpt lat="47.43524" lon="2.91834">
        <ele>140.693558</ele>
        <time>2021-09-09T11:26:08.000Z</time>
      </trkpt>
      <trkpt lat="47.43482" lon="2.9183">
        <ele>140.724375</ele>
        <time>2021-09-09T11:26:15.000Z</time>
      </trkpt>
      <trkpt lat="47.43427" lon="2.91833">
        <ele>140.814228</ele>
        <time>2021-09-09T11:26:24.000Z</time>
      </trkpt>
      <trkpt lat="47.43373" lon="2.91835">
        <ele>140.923588</ele>
        <time>2021-09-09T11:26:33.000Z</time>
      </trkpt>
      <trkpt lat="47.43367" lon="2.91836">
        <ele>140.935517</ele>
        <time>2021-09-09T11:26:34.000Z</time>
      </trkpt>
      <trkpt lat="47.43319" lon="2.91831">
        <ele>141.032733</ele>
        <time>2021-09-09T11:26:42.000Z</time>
      </trkpt>
      <trkpt lat="47.43266" lon="2.91811">
        <ele>141.157293</ele>
        <time>2021-09-09T11:26:51.000Z</time>
      </trkpt>
      <trkpt lat="47.43232" lon="2.91799">
        <ele>141.247875</ele>
        <time>2021-09-09T11:26:57.000Z</time>
      </trkpt>
      <trkpt lat="47.43187" lon="2.91783">
        <ele>141.368609</ele>
        <time>2021-09-09T11:27:05.000Z</time>
      </trkpt>
      <trkpt lat="47.43159" lon="2.91772">
        <ele>141.443335</ele>
        <time>2021-09-09T11:27:10.000Z</time>
      </trkpt>
      <trkpt lat="47.43148" lon="2.91764">
        <ele>141.473831</ele>
        <time>2021-09-09T11:27:12.000Z</time>
      </trkpt>
      <trkpt lat="47.43109" lon="2.91727">
        <ele>141.596123</ele>
        <time>2021-09-09T11:27:20.000Z</time>
      </trkpt>
      <trkpt lat="47.43075" lon="2.91694">
        <ele>141.7049</ele>
        <time>2021-09-09T11:27:27.000Z</time>
      </trkpt>
      <trkpt lat="47.4304" lon="2.9166">
        <ele>141.816056</ele>
        <time>2021-09-09T11:27:34.000Z</time>
      </trkpt>
      <trkpt lat="47.43" lon="2.9162">
        <ele>141.943752</ele>
        <time>2021-09-09T11:27:42.000Z</time>
      </trkpt>
      <trkpt lat="47.42959" lon="2.9158">
        <ele>142.072966</ele>
        <time>2021-09-09T11:27:50.000Z</time>
      </trkpt>
      <trkpt lat="47.42919" lon="2.9154">
        <ele>142.195345</ele>
        <time>2021-09-09T11:27:58.000Z</time>
      </trkpt>
      <trkpt lat="47.42889" lon="2.91511">
        <ele>142.283972</ele>
        <time>2021-09-09T11:28:04.000Z</time>
      </trkpt>
      <trkpt lat="47.42855" lon="2.91477">
        <ele>142.388356</ele>
        <time>2021-09-09T11:28:11.000Z</time>
      </trkpt>
      <trkpt lat="47.42821" lon="2.91444">
        <ele>142.490223</ele>
        <time>2021-09-09T11:28:18.000Z</time>
      </trkpt>
      <trkpt lat="47.42782" lon="2.91405">
        <ele>142.612321</ele>
        <time>2021-09-09T11:28:27.000Z</time>
      </trkpt>
      <trkpt lat="47.42737" lon="2.91362">
        <ele>142.750912</ele>
        <time>2021-09-09T11:28:37.000Z</time>
      </trkpt>
      <trkpt lat="47.42696" lon="2.91325">
        <ele>142.875609</ele>
        <time>2021-09-09T11:28:46.000Z</time>
      </trkpt>
      <trkpt lat="47.42667" lon="2.91307">
        <ele>142.957422</ele>
        <time>2021-09-09T11:28:52.000Z</time>
      </trkpt>
      <trkpt lat="47.42627" lon="2.91282">
        <ele>142.989132</ele>
        <time>2021-09-09T11:29:00.000Z</time>
      </trkpt>
      <trkpt lat="47.42582" lon="2.91254">
        <ele>143.018619</ele>
        <time>2021-09-09T11:29:09.000Z</time>
      </trkpt>
      <trkpt lat="47.42537" lon="2.91228">
        <ele>143.04714</ele>
        <time>2021-09-09T11:29:18.000Z</time>
      </trkpt>
      <trkpt lat="47.42497" lon="2.91203">
        <ele>143.07382</ele>
        <time>2021-09-09T11:29:26.000Z</time>
      </trkpt>
      <trkpt lat="47.42454" lon="2.91177">
        <ele>143.109631</ele>
        <time>2021-09-09T11:29:34.000Z</time>
      </trkpt>
      <trkpt lat="47.42416" lon="2.91154">
        <ele>143.14143</ele>
        <time>2021-09-09T11:29:41.000Z</time>
      </trkpt>
      <trkpt lat="47.42381" lon="2.91132">
        <ele>143.171763</ele>
        <time>2021-09-09T11:29:48.000Z</time>
      </trkpt>
      <trkpt lat="47.42346" lon="2.9111">
        <ele>143.201367</ele>
        <time>2021-09-09T11:29:55.000Z</time>
      </trkpt>
      <trkpt lat="47.42311" lon="2.91088">
        <ele>143.259469</ele>
        <time>2021-09-09T11:30:02.000Z</time>
      </trkpt>
      <trkpt lat="47.42279" lon="2.91067">
        <ele>143.328424</ele>
        <time>2021-09-09T11:30:08.000Z</time>
      </trkpt>
      <trkpt lat="47.42238" lon="2.91037">
        <ele>143.421392</ele>
        <time>2021-09-09T11:30:16.000Z</time>
      </trkpt>
      <trkpt lat="47.42203" lon="2.91007">
        <ele>143.501513</ele>
        <time>2021-09-09T11:30:23.000Z</time>
      </trkpt>
      <trkpt lat="47.42165" lon="2.90967">
        <ele>143.60657</ele>
        <time>2021-09-09T11:30:32.000Z</time>
      </trkpt>
      <trkpt lat="47.42131" lon="2.90932">
        <ele>143.72511</ele>
        <time>2021-09-09T11:30:40.000Z</time>
      </trkpt>
      <trkpt lat="47.42099" lon="2.90902">
        <ele>143.835639</ele>
        <time>2021-09-09T11:30:47.000Z</time>
      </trkpt>
      <trkpt lat="47.42057" lon="2.90869">
        <ele>143.974499</ele>
        <time>2021-09-09T11:30:55.000Z</time>
      </trkpt>
      <trkpt lat="47.42019" lon="2.9084">
        <ele>144.096566</ele>
        <time>2021-09-09T11:31:02.000Z</time>
      </trkpt>
      <trkpt lat="47.41968" lon="2.90805">
        <ele>144.165675</ele>
        <time>2021-09-09T11:31:11.000Z</time>
      </trkpt>
      <trkpt lat="47.41912" lon="2.90776">
        <ele>144.23753</ele>
        <time>2021-09-09T11:31:20.000Z</time>
      </trkpt>
      <trkpt lat="47.41906" lon="2.90773">
        <ele>144.245286</ele>
        <time>2021-09-09T11:31:21.000Z</time>
      </trkpt>
      <trkpt lat="47.41876" lon="2.90758">
        <ele>144.285099</ele>
        <time>2021-09-09T11:31:26.000Z</time>
      </trkpt>
      <trkpt lat="47.41826" lon="2.90734">
        <ele>144.272713</ele>
        <time>2021-09-09T11:31:34.000Z</time>
      </trkpt>
      <trkpt lat="47.41808" lon="2.90726">
        <ele>144.24442</ele>
        <time>2021-09-09T11:31:38.000Z</time>
      </trkpt>
      <trkpt lat="47.41797" lon="2.9072">
        <ele>144.226293</ele>
        <time>2021-09-09T11:31:43.000Z</time>
      </trkpt>
      <trkpt lat="47.41789" lon="2.90711">
        <ele>144.210719</ele>
        <time>2021-09-09T11:31:46.000Z</time>
      </trkpt>
      <trkpt lat="47.41783" lon="2.90716">
        <ele>144.199377</ele>
        <time>2021-09-09T11:31:48.000Z</time>
      </trkpt>
      <trkpt lat="47.41771" lon="2.9072">
        <ele>144.181022</ele>
        <time>2021-09-09T11:31:50.000Z</time>
      </trkpt>
      <trkpt lat="47.41761" lon="2.90712">
        <ele>144.162399</ele>
        <time>2021-09-09T11:31:52.000Z</time>
      </trkpt>
      <trkpt lat="47.41743" lon="2.90709">
        <ele>144.135229</ele>
        <time>2021-09-09T11:31:55.000Z</time>
      </trkpt>
      <trkpt lat="47.41695" lon="2.90701">
        <ele>144.059641</ele>
        <time>2021-09-09T11:32:03.000Z</time>
      </trkpt>
      <trkpt lat="47.41637" lon="2.9069">
        <ele>143.918443</ele>
        <time>2021-09-09T11:32:12.000Z</time>
      </trkpt>
      <trkpt lat="47.41631" lon="2.90689">
        <ele>143.901213</ele>
        <time>2021-09-09T11:32:13.000Z</time>
      </trkpt>
      <trkpt lat="47.41586" lon="2.9068">
        <ele>143.778336</ele>
        <time>2021-09-09T11:32:20.000Z</time>
      </trkpt>
      <trkpt lat="47.41527" lon="2.90668">
        <ele>143.617701</ele>
        <time>2021-09-09T11:32:29.000Z</time>
      </trkpt>
      <trkpt lat="47.41521" lon="2.90667">
        <ele>143.600178</ele>
        <time>2021-09-09T11:32:30.000Z</time>
      </trkpt>
      <trkpt lat="47.41466" lon="2.90656">
        <ele>143.464518</ele>
        <time>2021-09-09T11:32:39.000Z</time>
      </trkpt>
      <trkpt lat="47.41411" lon="2.90646">
        <ele>143.337196</ele>
        <time>2021-09-09T11:32:48.000Z</time>
      </trkpt>
      <trkpt lat="47.41356" lon="2.90635">
        <ele>143.209166</ele>
        <time>2021-09-09T11:32:57.000Z</time>
      </trkpt>
      <trkpt lat="47.4135" lon="2.90633">
        <ele>143.194942</ele>
        <time>2021-09-09T11:32:58.000Z</time>
      </trkpt>
      <trkpt lat="47.41296" lon="2.90623">
        <ele>143.127693</ele>
        <time>2021-09-09T11:33:07.000Z</time>
      </trkpt>
      <trkpt lat="47.41254" lon="2.90614">
        <ele>143.117838</ele>
        <time>2021-09-09T11:33:14.000Z</time>
      </trkpt>
      <trkpt lat="47.41217" lon="2.90607">
        <ele>143.109184</ele>
        <time>2021-09-09T11:33:20.000Z</time>
      </trkpt>
      <trkpt lat="47.41211" lon="2.90606">
        <ele>143.107747</ele>
        <time>2021-09-09T11:33:21.000Z</time>
      </trkpt>
      <trkpt lat="47.41199" lon="2.90604">
        <ele>143.104809</ele>
        <time>2021-09-09T11:33:23.000Z</time>
      </trkpt>
      <trkpt lat="47.41186" lon="2.90609">
        <ele>143.101767</ele>
        <time>2021-09-09T11:33:25.000Z</time>
      </trkpt>
      <trkpt lat="47.41147" lon="2.90601">
        <ele>143.092653</ele>
        <time>2021-09-09T11:33:31.000Z</time>
      </trkpt>
      <trkpt lat="47.41141" lon="2.906">
        <ele>143.123795</ele>
        <time>2021-09-09T11:33:32.000Z</time>
      </trkpt>
      <trkpt lat="47.4113" lon="2.90598">
        <ele>143.199358</ele>
        <time>2021-09-09T11:33:34.000Z</time>
      </trkpt>
      <trkpt lat="47.41125" lon="2.90597">
        <ele>143.232908</ele>
        <time>2021-09-09T11:33:35.000Z</time>
      </trkpt>
      <trkpt lat="47.41118" lon="2.90596">
        <ele>143.275572</ele>
        <time>2021-09-09T11:33:37.000Z</time>
      </trkpt>
      <trkpt lat="47.41111" lon="2.90595">
        <ele>143.319406</ele>
        <time>2021-09-09T11:33:38.000Z</time>
      </trkpt>
      <trkpt lat="47.41112" lon="2.90606">
        <ele>143.364462</ele>
        <time>2021-09-09T11:33:42.000Z</time>
      </trkpt>
      <trkpt lat="47.41112" lon="2.9061">
        <ele>143.386096</ele>
        <time>2021-09-09T11:33:43.000Z</time>
      </trkpt>
      <trkpt lat="47.41112" lon="2.90631">
        <ele>143.474884</ele>
        <time>2021-09-09T11:33:46.000Z</time>
      </trkpt>
      <trkpt lat="47.41114" lon="2.90685">
        <ele>143.716869</ele>
        <time>2021-09-09T11:33:53.000Z</time>
      </trkpt>
      <trkpt lat="47.41115" lon="2.9075">
        <ele>144.00298</ele>
        <time>2021-09-09T11:34:01.000Z</time>
      </trkpt>
      <trkpt lat="47.41117" lon="2.9083">
        <ele>144.252795</ele>
        <time>2021-09-09T11:34:10.000Z</time>
      </trkpt>
      <trkpt lat="47.41118" lon="2.90891">
        <ele>144.214961</ele>
        <time>2021-09-09T11:34:16.000Z</time>
      </trkpt>
      <trkpt lat="47.4112" lon="2.90965">
        <ele>144.170008</ele>
        <time>2021-09-09T11:34:22.000Z</time>
      </trkpt>
      <trkpt lat="47.41122" lon="2.91056">
        <ele>144.11388</ele>
        <time>2021-09-09T11:34:29.000Z</time>
      </trkpt>
      <trkpt lat="47.41122" lon="2.91082">
        <ele>144.098163</ele>
        <time>2021-09-09T11:34:31.000Z</time>
      </trkpt>
      <trkpt lat="47.41124" lon="2.91167">
        <ele>144.04836</ele>
        <time>2021-09-09T11:34:38.000Z</time>
      </trkpt>
      <trkpt lat="47.41126" lon="2.91256">
        <ele>143.995979</ele>
        <time>2021-09-09T11:34:46.000Z</time>
      </trkpt>
      <trkpt lat="47.41127" lon="2.9134">
        <ele>143.947054</ele>
        <time>2021-09-09T11:34:54.000Z</time>
      </trkpt>
      <trkpt lat="47.41129" lon="2.91421">
        <ele>143.913528</ele>
        <time>2021-09-09T11:35:02.000Z</time>
      </trkpt>
      <trkpt lat="47.41131" lon="2.91504">
        <ele>143.879529</ele>
        <time>2021-09-09T11:35:10.000Z</time>
      </trkpt>
      <trkpt lat="47.41131" lon="2.91526">
        <ele>143.870854</ele>
        <time>2021-09-09T11:35:12.000Z</time>
      </trkpt>
      <trkpt lat="47.41132" lon="2.91568">
        <ele>143.853549</ele>
        <time>2021-09-09T11:35:16.000Z</time>
      </trkpt>
      <trkpt lat="47.41134" lon="2.91648">
        <ele>143.997582</ele>
        <time>2021-09-09T11:35:24.000Z</time>
      </trkpt>
      <trkpt lat="47.41135" lon="2.91709">
        <ele>144.233695</ele>
        <time>2021-09-09T11:35:31.000Z</time>
      </trkpt>
      <trkpt lat="47.41136" lon="2.91771">
        <ele>144.470922</ele>
        <time>2021-09-09T11:35:39.000Z</time>
      </trkpt>
      <trkpt lat="47.41136" lon="2.918">
        <ele>144.582812</ele>
        <time>2021-09-09T11:35:43.000Z</time>
      </trkpt>
      <trkpt lat="47.41137" lon="2.91829">
        <ele>144.697032</ele>
        <time>2021-09-09T11:35:47.000Z</time>
      </trkpt>
      <trkpt lat="47.41138" lon="2.9186">
        <ele>144.815107</ele>
        <time>2021-09-09T11:35:51.000Z</time>
      </trkpt>
      <trkpt lat="47.41138" lon="2.91883">
        <ele>144.896371</ele>
        <time>2021-09-09T11:35:54.000Z</time>
      </trkpt>
      <trkpt lat="47.41139" lon="2.91932">
        <ele>145.050391</ele>
        <time>2021-09-09T11:36:00.000Z</time>
      </trkpt>
      <trkpt lat="47.41141" lon="2.91988">
        <ele>145.227158</ele>
        <time>2021-09-09T11:36:07.000Z</time>
      </trkpt>
      <trkpt lat="47.41142" lon="2.92044">
        <ele>145.404225</ele>
        <time>2021-09-09T11:36:14.000Z</time>
      </trkpt>
      <trkpt lat="47.41142" lon="2.92068">
        <ele>145.48092</ele>
        <time>2021-09-09T11:36:17.000Z</time>
      </trkpt>
      <trkpt lat="47.41143" lon="2.92093">
        <ele>145.560152</ele>
        <time>2021-09-09T11:36:20.000Z</time>
      </trkpt>
      <trkpt lat="47.41145" lon="2.92172">
        <ele>145.701218</ele>
        <time>2021-09-09T11:36:29.000Z</time>
      </trkpt>
      <trkpt lat="47.41145" lon="2.92196">
        <ele>145.701218</ele>
        <time>2021-09-09T11:36:32.000Z</time>
      </trkpt>
      <trkpt lat="47.41145" lon="2.92202">
        <ele>145.701218</ele>
        <time>2021-09-09T11:36:33.000Z</time>
      </trkpt>
      <trkpt lat="47.41145" lon="2.92205">
        <ele>145.701218</ele>
        <time>2021-09-09T11:36:34.000Z</time>
      </trkpt>
      <trkpt lat="47.41138" lon="2.92225">
        <ele>145.701218</ele>
        <time>2021-09-09T11:36:36.000Z</time>
      </trkpt>
      <trkpt lat="47.41148" lon="2.92228">
        <ele>145.701218</ele>
        <time>2021-09-09T11:36:38.000Z</time>
      </trkpt>
      <trkpt lat="47.41149" lon="2.92228">
        <ele>145.701218</ele>
        <time>2021-09-09T11:36:39.000Z</time>
      </trkpt>
      <trkpt lat="47.41189" lon="2.92223">
        <ele>145.701218</ele>
        <time>2021-09-09T11:36:46.000Z</time>
      </trkpt>
      <trkpt lat="47.4121" lon="2.92225">
        <ele>145.701218</ele>
        <time>2021-09-09T11:36:50.000Z</time>
      </trkpt>
      <trkpt lat="47.4123" lon="2.92227">
        <ele>145.701218</ele>
        <time>2021-09-09T11:36:54.000Z</time>
      </trkpt>
      <trkpt lat="47.41236" lon="2.92225">
        <ele>145.701218</ele>
        <time>2021-09-09T11:36:58.000Z</time>
      </trkpt>
      <trkpt lat="47.41236" lon="2.92225">
        <ele>145.701218</ele>
        <time>2021-09-09T11:36:59.000Z</time>
      </trkpt>
    </trkseg>
  </trk>
  <trk>
    <name><![CDATA[Étape 6 : Cosne-sur-Loire - Decize]]></name>
    <extensions>
      <line xmlns="http://www.topografix.com/GPX/gpx_style/0/2">
        <color>000088</color>
        <width>4</width>
      </line>
    </extensions>
    <trkseg>
      <trkpt lat="47.40904" lon="2.91771">
        <ele>143.025707</ele>
        <time>2021-09-10T06:20:36.000Z</time>
      </trkpt>
      <trkpt lat="47.40925" lon="2.91772">
        <ele>143.025707</ele>
        <time>2021-09-10T06:20:41.000Z</time>
      </trkpt>
      <trkpt lat="47.40941" lon="2.91773">
        <ele>143.025707</ele>
        <time>2021-09-10T06:20:45.000Z</time>
      </trkpt>
      <trkpt lat="47.40956" lon="2.91773">
        <ele>143.025707</ele>
        <time>2021-09-10T06:20:50.000Z</time>
      </trkpt>
      <trkpt lat="47.40977" lon="2.91774">
        <ele>143.025707</ele>
        <time>2021-09-10T06:20:54.000Z</time>
      </trkpt>
      <trkpt lat="47.40991" lon="2.91775">
        <ele>143.025707</ele>
        <time>2021-09-10T06:20:57.000Z</time>
      </trkpt>
      <trkpt lat="47.41019" lon="2.91776">
        <ele>142.891878</ele>
        <time>2021-09-10T06:21:03.000Z</time>
      </trkpt>
      <trkpt lat="47.41044" lon="2.91776">
        <ele>142.755286</ele>
        <time>2021-09-10T06:21:10.000Z</time>
      </trkpt>
      <trkpt lat="47.41065" lon="2.91777">
        <ele>142.639462</ele>
        <time>2021-09-10T06:21:14.000Z</time>
      </trkpt>
      <trkpt lat="47.41073" lon="2.91777">
        <ele>142.595205</ele>
        <time>2021-09-10T06:21:16.000Z</time>
      </trkpt>
      <trkpt lat="47.41082" lon="2.91778">
        <ele>142.54658</ele>
        <time>2021-09-10T06:21:18.000Z</time>
      </trkpt>
      <trkpt lat="47.41096" lon="2.91778">
        <ele>142.468469</ele>
        <time>2021-09-10T06:21:21.000Z</time>
      </trkpt>
      <trkpt lat="47.41101" lon="2.91776">
        <ele>142.439913</ele>
        <time>2021-09-10T06:21:22.000Z</time>
      </trkpt>
      <trkpt lat="47.41111" lon="2.91773">
        <ele>142.38616</ele>
        <time>2021-09-10T06:21:24.000Z</time>
      </trkpt>
      <trkpt lat="47.41116" lon="2.91763">
        <ele>142.339875</ele>
        <time>2021-09-10T06:21:25.000Z</time>
      </trkpt>
      <trkpt lat="47.41117" lon="2.91756">
        <ele>142.314391</ele>
        <time>2021-09-10T06:21:26.000Z</time>
      </trkpt>
      <trkpt lat="47.4112" lon="2.91738">
        <ele>142.24515</ele>
        <time>2021-09-10T06:21:29.000Z</time>
      </trkpt>
      <trkpt lat="47.41128" lon="2.91712">
        <ele>142.137555</ele>
        <time>2021-09-10T06:21:36.000Z</time>
      </trkpt>
      <trkpt lat="47.41131" lon="2.9171">
        <ele>142.121666</ele>
        <time>2021-09-10T06:21:40.000Z</time>
      </trkpt>
      <trkpt lat="47.41135" lon="2.91708">
        <ele>142.099741</ele>
        <time>2021-09-10T06:21:46.000Z</time>
      </trkpt>
      <trkpt lat="47.41135" lon="2.91703">
        <ele>142.08413</ele>
        <time>2021-09-10T06:21:47.000Z</time>
      </trkpt>
      <trkpt lat="47.41135" lon="2.91693">
        <ele>142.046781</ele>
        <time>2021-09-10T06:21:49.000Z</time>
      </trkpt>
      <trkpt lat="47.41134" lon="2.91657">
        <ele>142.189406</ele>
        <time>2021-09-10T06:21:55.000Z</time>
      </trkpt>
      <trkpt lat="47.41133" lon="2.916">
        <ele>142.427355</ele>
        <time>2021-09-10T06:22:03.000Z</time>
      </trkpt>
      <trkpt lat="47.41131" lon="2.9153">
        <ele>142.714625</ele>
        <time>2021-09-10T06:22:11.000Z</time>
      </trkpt>
      <trkpt lat="47.41131" lon="2.91497">
        <ele>142.852255</ele>
        <time>2021-09-10T06:22:16.000Z</time>
      </trkpt>
      <trkpt lat="47.4113" lon="2.91484">
        <ele>142.906979</ele>
        <time>2021-09-10T06:22:18.000Z</time>
      </trkpt>
      <trkpt lat="47.4113" lon="2.91477">
        <ele>142.934333</ele>
        <time>2021-09-10T06:22:19.000Z</time>
      </trkpt>
      <trkpt lat="47.4113" lon="2.91456">
        <ele>143.022228</ele>
        <time>2021-09-10T06:22:22.000Z</time>
      </trkpt>
      <trkpt lat="47.41129" lon="2.91434">
        <ele>143.113003</ele>
        <time>2021-09-10T06:22:26.000Z</time>
      </trkpt>
      <trkpt lat="47.41129" lon="2.91421">
        <ele>143.176222</ele>
        <time>2021-09-10T06:22:27.000Z</time>
      </trkpt>
      <trkpt lat="47.41128" lon="2.91376">
        <ele>143.422864</ele>
        <time>2021-09-10T06:22:33.000Z</time>
      </trkpt>
      <trkpt lat="47.41128" lon="2.91352">
        <ele>143.554667</ele>
        <time>2021-09-10T06:22:36.000Z</time>
      </trkpt>
      <trkpt lat="47.41127" lon="2.91326">
        <ele>143.694119</ele>
        <time>2021-09-10T06:22:39.000Z</time>
      </trkpt>
      <trkpt lat="47.41125" lon="2.91229">
        <ele>144.224061</ele>
        <time>2021-09-10T06:22:50.000Z</time>
      </trkpt>
      <trkpt lat="47.41125" lon="2.9122">
        <ele>144.272739</ele>
        <time>2021-09-10T06:22:51.000Z</time>
      </trkpt>
      <trkpt lat="47.41123" lon="2.91147">
        <ele>144.70966</ele>
        <time>2021-09-10T06:22:59.000Z</time>
      </trkpt>
      <trkpt lat="47.41122" lon="2.91064">
        <ele>145.393913</ele>
        <time>2021-09-10T06:23:08.000Z</time>
      </trkpt>
      <trkpt lat="47.4112" lon="2.90992">
        <ele>145.992537</ele>
        <time>2021-09-10T06:23:17.000Z</time>
      </trkpt>
      <trkpt lat="47.41119" lon="2.90919">
        <ele>146.594451</ele>
        <time>2021-09-10T06:23:25.000Z</time>
      </trkpt>
      <trkpt lat="47.41118" lon="2.90866">
        <ele>146.986784</ele>
        <time>2021-09-10T06:23:32.000Z</time>
      </trkpt>
      <trkpt lat="47.41118" lon="2.9086">
        <ele>147.034852</ele>
        <time>2021-09-10T06:23:33.000Z</time>
      </trkpt>
      <trkpt lat="47.41117" lon="2.90846">
        <ele>147.128232</ele>
        <time>2021-09-10T06:23:35.000Z</time>
      </trkpt>
      <trkpt lat="47.41117" lon="2.90839">
        <ele>147.179117</ele>
        <time>2021-09-10T06:23:36.000Z</time>
      </trkpt>
      <trkpt lat="47.41116" lon="2.90782">
        <ele>147.575644</ele>
        <time>2021-09-10T06:23:43.000Z</time>
      </trkpt>
      <trkpt lat="47.41114" lon="2.90721">
        <ele>147.997231</ele>
        <time>2021-09-10T06:23:51.000Z</time>
      </trkpt>
      <trkpt lat="47.41114" lon="2.90714">
        <ele>148.049508</ele>
        <time>2021-09-10T06:23:52.000Z</time>
      </trkpt>
      <trkpt lat="47.41113" lon="2.90673">
        <ele>148.332433</ele>
        <time>2021-09-10T06:23:57.000Z</time>
      </trkpt>
      <trkpt lat="47.41112" lon="2.90616">
        <ele>148.634357</ele>
        <time>2021-09-10T06:24:04.000Z</time>
      </trkpt>
      <trkpt lat="47.41111" lon="2.90596">
        <ele>148.631764</ele>
        <time>2021-09-10T06:24:07.000Z</time>
      </trkpt>
      <trkpt lat="47.41107" lon="2.90594">
        <ele>148.630954</ele>
        <time>2021-09-10T06:24:08.000Z</time>
      </trkpt>
      <trkpt lat="47.41103" lon="2.90593">
        <ele>148.630109</ele>
        <time>2021-09-10T06:24:09.000Z</time>
      </trkpt>
      <trkpt lat="47.41097" lon="2.90592">
        <ele>148.629074</ele>
        <time>2021-09-10T06:24:10.000Z</time>
      </trkpt>
      <trkpt lat="47.4106" lon="2.90585">
        <ele>148.622141</ele>
        <time>2021-09-10T06:24:16.000Z</time>
      </trkpt>
      <trkpt lat="47.41003" lon="2.90574">
        <ele>148.611309</ele>
        <time>2021-09-10T06:24:25.000Z</time>
      </trkpt>
      <trkpt lat="47.4099" lon="2.90571">
        <ele>148.608878</ele>
        <time>2021-09-10T06:24:27.000Z</time>
      </trkpt>
      <trkpt lat="47.40932" lon="2.9056">
        <ele>148.575793</ele>
        <time>2021-09-10T06:24:36.000Z</time>
      </trkpt>
      <trkpt lat="47.4092" lon="2.90558">
        <ele>148.56148</ele>
        <time>2021-09-10T06:24:38.000Z</time>
      </trkpt>
      <trkpt lat="47.40901" lon="2.90555">
        <ele>148.540289</ele>
        <time>2021-09-10T06:24:41.000Z</time>
      </trkpt>
      <trkpt lat="47.40857" lon="2.90547">
        <ele>148.491147</ele>
        <time>2021-09-10T06:24:48.000Z</time>
      </trkpt>
      <trkpt lat="47.40802" lon="2.90538">
        <ele>148.429395</ele>
        <time>2021-09-10T06:24:57.000Z</time>
      </trkpt>
      <trkpt lat="47.40754" lon="2.90529">
        <ele>148.395387</ele>
        <time>2021-09-10T06:25:05.000Z</time>
      </trkpt>
      <trkpt lat="47.40699" lon="2.9052">
        <ele>148.381956</ele>
        <time>2021-09-10T06:25:14.000Z</time>
      </trkpt>
      <trkpt lat="47.4065" lon="2.90511">
        <ele>148.37006</ele>
        <time>2021-09-10T06:25:22.000Z</time>
      </trkpt>
      <trkpt lat="47.406" lon="2.90502">
        <ele>148.357873</ele>
        <time>2021-09-10T06:25:30.000Z</time>
      </trkpt>
      <trkpt lat="47.40557" lon="2.90495">
        <ele>148.318948</ele>
        <time>2021-09-10T06:25:37.000Z</time>
      </trkpt>
      <trkpt lat="47.40538" lon="2.90492">
        <ele>148.301773</ele>
        <time>2021-09-10T06:25:40.000Z</time>
      </trkpt>
      <trkpt lat="47.40526" lon="2.9049">
        <ele>148.290572</ele>
        <time>2021-09-10T06:25:42.000Z</time>
      </trkpt>
      <trkpt lat="47.40469" lon="2.9048">
        <ele>148.23879</ele>
        <time>2021-09-10T06:25:51.000Z</time>
      </trkpt>
      <trkpt lat="47.40412" lon="2.9047">
        <ele>148.180207</ele>
        <time>2021-09-10T06:26:00.000Z</time>
      </trkpt>
      <trkpt lat="47.40355" lon="2.90459">
        <ele>148.088163</ele>
        <time>2021-09-10T06:26:09.000Z</time>
      </trkpt>
      <trkpt lat="47.40305" lon="2.90444">
        <ele>148.007224</ele>
        <time>2021-09-10T06:26:17.000Z</time>
      </trkpt>
      <trkpt lat="47.40259" lon="2.9042">
        <ele>147.927692</ele>
        <time>2021-09-10T06:26:25.000Z</time>
      </trkpt>
      <trkpt lat="47.40223" lon="2.90401">
        <ele>147.839123</ele>
        <time>2021-09-10T06:26:31.000Z</time>
      </trkpt>
      <trkpt lat="47.40218" lon="2.90397">
        <ele>147.821413</ele>
        <time>2021-09-10T06:26:32.000Z</time>
      </trkpt>
      <trkpt lat="47.40158" lon="2.90366">
        <ele>147.643906</ele>
        <time>2021-09-10T06:26:42.000Z</time>
      </trkpt>
      <trkpt lat="47.40123" lon="2.90346">
        <ele>147.537691</ele>
        <time>2021-09-10T06:26:48.000Z</time>
      </trkpt>
      <trkpt lat="47.4008" lon="2.90306">
        <ele>147.39733</ele>
        <time>2021-09-10T06:26:56.000Z</time>
      </trkpt>
      <trkpt lat="47.40047" lon="2.90265">
        <ele>147.341488</ele>
        <time>2021-09-10T06:27:03.000Z</time>
      </trkpt>
      <trkpt lat="47.40028" lon="2.90241">
        <ele>147.309666</ele>
        <time>2021-09-10T06:27:07.000Z</time>
      </trkpt>
      <trkpt lat="47.40018" lon="2.9023">
        <ele>147.293908</ele>
        <time>2021-09-10T06:27:09.000Z</time>
      </trkpt>
      <trkpt lat="47.39989" lon="2.90194">
        <ele>147.245868</ele>
        <time>2021-09-10T06:27:15.000Z</time>
      </trkpt>
      <trkpt lat="47.39955" lon="2.90153">
        <ele>147.189916</ele>
        <time>2021-09-10T06:27:22.000Z</time>
      </trkpt>
      <trkpt lat="47.3995" lon="2.90147">
        <ele>147.181862</ele>
        <time>2021-09-10T06:27:23.000Z</time>
      </trkpt>
      <trkpt lat="47.39913" lon="2.901">
        <ele>147.198644</ele>
        <time>2021-09-10T06:27:31.000Z</time>
      </trkpt>
      <trkpt lat="47.39875" lon="2.90051">
        <ele>147.236295</ele>
        <time>2021-09-10T06:27:39.000Z</time>
      </trkpt>
      <trkpt lat="47.39867" lon="2.9004">
        <ele>147.245024</ele>
        <time>2021-09-10T06:27:41.000Z</time>
      </trkpt>
      <trkpt lat="47.39849" lon="2.90018">
        <ele>147.262697</ele>
        <time>2021-09-10T06:27:45.000Z</time>
      </trkpt>
      <trkpt lat="47.39812" lon="2.8997">
        <ele>147.299437</ele>
        <time>2021-09-10T06:27:53.000Z</time>
      </trkpt>
      <trkpt lat="47.3978" lon="2.89929">
        <ele>147.40185</ele>
        <time>2021-09-10T06:28:00.000Z</time>
      </trkpt>
      <trkpt lat="47.39756" lon="2.89899">
        <ele>147.487039</ele>
        <time>2021-09-10T06:28:05.000Z</time>
      </trkpt>
      <trkpt lat="47.39747" lon="2.89887">
        <ele>147.521568</ele>
        <time>2021-09-10T06:28:07.000Z</time>
      </trkpt>
      <trkpt lat="47.39719" lon="2.89853">
        <ele>147.620197</ele>
        <time>2021-09-10T06:28:13.000Z</time>
      </trkpt>
      <trkpt lat="47.39682" lon="2.89806">
        <ele>147.75446</ele>
        <time>2021-09-10T06:28:21.000Z</time>
      </trkpt>
      <trkpt lat="47.3965" lon="2.89766">
        <ele>147.827722</ele>
        <time>2021-09-10T06:28:28.000Z</time>
      </trkpt>
      <trkpt lat="47.39619" lon="2.89726">
        <ele>147.875906</ele>
        <time>2021-09-10T06:28:35.000Z</time>
      </trkpt>
      <trkpt lat="47.39586" lon="2.89685">
        <ele>147.927024</ele>
        <time>2021-09-10T06:28:42.000Z</time>
      </trkpt>
      <trkpt lat="47.39581" lon="2.89679">
        <ele>147.934158</ele>
        <time>2021-09-10T06:28:43.000Z</time>
      </trkpt>
      <trkpt lat="47.39559" lon="2.89651">
        <ele>147.968924</ele>
        <time>2021-09-10T06:28:48.000Z</time>
      </trkpt>
      <trkpt lat="47.39521" lon="2.89603">
        <ele>148.036141</ele>
        <time>2021-09-10T06:28:56.000Z</time>
      </trkpt>
      <trkpt lat="47.39479" lon="2.8955">
        <ele>148.131329</ele>
        <time>2021-09-10T06:29:05.000Z</time>
      </trkpt>
      <trkpt lat="47.39471" lon="2.89538">
        <ele>148.151369</ele>
        <time>2021-09-10T06:29:07.000Z</time>
      </trkpt>
      <trkpt lat="47.39457" lon="2.89521">
        <ele>148.181804</ele>
        <time>2021-09-10T06:29:10.000Z</time>
      </trkpt>
      <trkpt lat="47.39426" lon="2.89481">
        <ele>148.253013</ele>
        <time>2021-09-10T06:29:17.000Z</time>
      </trkpt>
      <trkpt lat="47.39393" lon="2.89439">
        <ele>148.317115</ele>
        <time>2021-09-10T06:29:24.000Z</time>
      </trkpt>
      <trkpt lat="47.39365" lon="2.89393">
        <ele>148.310872</ele>
        <time>2021-09-10T06:29:31.000Z</time>
      </trkpt>
      <trkpt lat="47.39362" lon="2.89387">
        <ele>148.310068</ele>
        <time>2021-09-10T06:29:32.000Z</time>
      </trkpt>
      <trkpt lat="47.39348" lon="2.89363">
        <ele>148.306942</ele>
        <time>2021-09-10T06:29:36.000Z</time>
      </trkpt>
      <trkpt lat="47.39335" lon="2.8934">
        <ele>148.303911</ele>
        <time>2021-09-10T06:29:40.000Z</time>
      </trkpt>
      <trkpt lat="47.39325" lon="2.89323">
        <ele>148.301668</ele>
        <time>2021-09-10T06:29:43.000Z</time>
      </trkpt>
      <trkpt lat="47.39305" lon="2.89286">
        <ele>148.296866</ele>
        <time>2021-09-10T06:29:49.000Z</time>
      </trkpt>
      <trkpt lat="47.39294" lon="2.89266">
        <ele>148.294314</ele>
        <time>2021-09-10T06:29:52.000Z</time>
      </trkpt>
      <trkpt lat="47.39287" lon="2.89254">
        <ele>148.292707</ele>
        <time>2021-09-10T06:29:54.000Z</time>
      </trkpt>
      <trkpt lat="47.39267" lon="2.89217">
        <ele>148.243184</ele>
        <time>2021-09-10T06:30:00.000Z</time>
      </trkpt>
      <trkpt lat="47.39264" lon="2.89211">
        <ele>148.232403</ele>
        <time>2021-09-10T06:30:01.000Z</time>
      </trkpt>
      <trkpt lat="47.39242" lon="2.89174">
        <ele>148.160529</ele>
        <time>2021-09-10T06:30:08.000Z</time>
      </trkpt>
      <trkpt lat="47.39239" lon="2.8917">
        <ele>148.151429</ele>
        <time>2021-09-10T06:30:09.000Z</time>
      </trkpt>
      <trkpt lat="47.39231" lon="2.89156">
        <ele>148.125207</ele>
        <time>2021-09-10T06:30:12.000Z</time>
      </trkpt>
      <trkpt lat="47.39226" lon="2.89141">
        <ele>148.099627</ele>
        <time>2021-09-10T06:30:15.000Z</time>
      </trkpt>
      <trkpt lat="47.39224" lon="2.89125">
        <ele>148.076963</ele>
        <time>2021-09-10T06:30:17.000Z</time>
      </trkpt>
      <trkpt lat="47.3923" lon="2.8909">
        <ele>148.02358</ele>
        <time>2021-09-10T06:30:21.000Z</time>
      </trkpt>
      <trkpt lat="47.39237" lon="2.89052">
        <ele>147.96556</ele>
        <time>2021-09-10T06:30:25.000Z</time>
      </trkpt>
      <trkpt lat="47.3924" lon="2.89035">
        <ele>147.939233</ele>
        <time>2021-09-10T06:30:27.000Z</time>
      </trkpt>
      <trkpt lat="47.39241" lon="2.89026">
        <ele>147.926112</ele>
        <time>2021-09-10T06:30:28.000Z</time>
      </trkpt>
      <trkpt lat="47.39243" lon="2.88994">
        <ele>147.84908</ele>
        <time>2021-09-10T06:30:32.000Z</time>
      </trkpt>
      <trkpt lat="47.39242" lon="2.88988">
        <ele>147.828009</ele>
        <time>2021-09-10T06:30:33.000Z</time>
      </trkpt>
      <trkpt lat="47.39238" lon="2.88971">
        <ele>147.76174</ele>
        <time>2021-09-10T06:30:36.000Z</time>
      </trkpt>
      <trkpt lat="47.39228" lon="2.88953">
        <ele>147.68075</ele>
        <time>2021-09-10T06:30:40.000Z</time>
      </trkpt>
      <trkpt lat="47.39221" lon="2.88945">
        <ele>147.636049</ele>
        <time>2021-09-10T06:30:42.000Z</time>
      </trkpt>
      <trkpt lat="47.39209" lon="2.88937">
        <ele>147.564254</ele>
        <time>2021-09-10T06:30:45.000Z</time>
      </trkpt>
      <trkpt lat="47.39199" lon="2.88934">
        <ele>147.512187</ele>
        <time>2021-09-10T06:30:47.000Z</time>
      </trkpt>
      <trkpt lat="47.39178" lon="2.88926">
        <ele>147.402569</ele>
        <time>2021-09-10T06:30:51.000Z</time>
      </trkpt>
      <trkpt lat="47.39173" lon="2.88924">
        <ele>147.372442</ele>
        <time>2021-09-10T06:30:52.000Z</time>
      </trkpt>
      <trkpt lat="47.39162" lon="2.88919">
        <ele>147.313133</ele>
        <time>2021-09-10T06:30:54.000Z</time>
      </trkpt>
      <trkpt lat="47.39152" lon="2.88913">
        <ele>147.257543</ele>
        <time>2021-09-10T06:30:56.000Z</time>
      </trkpt>
      <trkpt lat="47.39129" lon="2.88898">
        <ele>147.128583</ele>
        <time>2021-09-10T06:31:01.000Z</time>
      </trkpt>
      <trkpt lat="47.39125" lon="2.88895">
        <ele>147.103891</ele>
        <time>2021-09-10T06:31:02.000Z</time>
      </trkpt>
      <trkpt lat="47.39115" lon="2.88886">
        <ele>147.040941</ele>
        <time>2021-09-10T06:31:05.000Z</time>
      </trkpt>
      <trkpt lat="47.39112" lon="2.88884">
        <ele>147.023432</ele>
        <time>2021-09-10T06:31:06.000Z</time>
      </trkpt>
      <trkpt lat="47.39109" lon="2.88882">
        <ele>147.008436</ele>
        <time>2021-09-10T06:31:08.000Z</time>
      </trkpt>
      <trkpt lat="47.39104" lon="2.88875">
        <ele>146.972846</ele>
        <time>2021-09-10T06:31:11.000Z</time>
      </trkpt>
      <trkpt lat="47.3909" lon="2.88856">
        <ele>147.054435</ele>
        <time>2021-09-10T06:31:17.000Z</time>
      </trkpt>
      <trkpt lat="47.39059" lon="2.88833">
        <ele>147.239129</ele>
        <time>2021-09-10T06:31:26.000Z</time>
      </trkpt>
      <trkpt lat="47.39049" lon="2.88822">
        <ele>147.302762</ele>
        <time>2021-09-10T06:31:29.000Z</time>
      </trkpt>
      <trkpt lat="47.39046" lon="2.88812">
        <ele>147.340611</ele>
        <time>2021-09-10T06:31:31.000Z</time>
      </trkpt>
      <trkpt lat="47.39048" lon="2.88797">
        <ele>147.39404</ele>
        <time>2021-09-10T06:31:35.000Z</time>
      </trkpt>
      <trkpt lat="47.39049" lon="2.88795">
        <ele>147.405136</ele>
        <time>2021-09-10T06:31:37.000Z</time>
      </trkpt>
      <trkpt lat="47.39049" lon="2.88788">
        <ele>147.42905</ele>
        <time>2021-09-10T06:31:39.000Z</time>
      </trkpt>
      <trkpt lat="47.3904" lon="2.88781">
        <ele>147.483513</ele>
        <time>2021-09-10T06:31:42.000Z</time>
      </trkpt>
      <trkpt lat="47.39039" lon="2.8878">
        <ele>147.488257</ele>
        <time>2021-09-10T06:31:43.000Z</time>
      </trkpt>
      <trkpt lat="47.39038" lon="2.88779">
        <ele>147.492368</ele>
        <time>2021-09-10T06:31:44.000Z</time>
      </trkpt>
      <trkpt lat="47.39037" lon="2.88779">
        <ele>147.497922</ele>
        <time>2021-09-10T06:31:47.000Z</time>
      </trkpt>
      <trkpt lat="47.39035" lon="2.88777">
        <ele>147.511856</ele>
        <time>2021-09-10T06:32:45.000Z</time>
      </trkpt>
      <trkpt lat="47.39032" lon="2.88774">
        <ele>147.529261</ele>
        <time>2021-09-10T06:32:47.000Z</time>
      </trkpt>
      <trkpt lat="47.3902" lon="2.88765">
        <ele>147.601763</ele>
        <time>2021-09-10T06:32:52.000Z</time>
      </trkpt>
      <trkpt lat="47.39002" lon="2.8875">
        <ele>147.707973</ele>
        <time>2021-09-10T06:32:59.000Z</time>
      </trkpt>
      <trkpt lat="47.38987" lon="2.88738">
        <ele>147.799786</ele>
        <time>2021-09-10T06:33:05.000Z</time>
      </trkpt>
      <trkpt lat="47.38977" lon="2.8873">
        <ele>147.858946</ele>
        <time>2021-09-10T06:33:10.000Z</time>
      </trkpt>
      <trkpt lat="47.38962" lon="2.8872">
        <ele>147.908424</ele>
        <time>2021-09-10T06:33:16.000Z</time>
      </trkpt>
      <trkpt lat="47.38947" lon="2.8871">
        <ele>147.894854</ele>
        <time>2021-09-10T06:33:21.000Z</time>
      </trkpt>
      <trkpt lat="47.38934" lon="2.88702">
        <ele>147.88279</ele>
        <time>2021-09-10T06:33:26.000Z</time>
      </trkpt>
      <trkpt lat="47.3892" lon="2.88693">
        <ele>147.869929</ele>
        <time>2021-09-10T06:33:32.000Z</time>
      </trkpt>
      <trkpt lat="47.38906" lon="2.88685">
        <ele>147.857545</ele>
        <time>2021-09-10T06:33:37.000Z</time>
      </trkpt>
      <trkpt lat="47.38882" lon="2.88672">
        <ele>147.836164</ele>
        <time>2021-09-10T06:33:44.000Z</time>
      </trkpt>
      <trkpt lat="47.38858" lon="2.88659">
        <ele>147.815735</ele>
        <time>2021-09-10T06:33:50.000Z</time>
      </trkpt>
      <trkpt lat="47.38841" lon="2.8865">
        <ele>147.800516</ele>
        <time>2021-09-10T06:33:55.000Z</time>
      </trkpt>
      <trkpt lat="47.38822" lon="2.8864">
        <ele>147.783703</ele>
        <time>2021-09-10T06:34:02.000Z</time>
      </trkpt>
      <trkpt lat="47.388" lon="2.88629">
        <ele>147.76479</ele>
        <time>2021-09-10T06:34:08.000Z</time>
      </trkpt>
      <trkpt lat="47.38773" lon="2.88614">
        <ele>148.085133</ele>
        <time>2021-09-10T06:34:15.000Z</time>
      </trkpt>
      <trkpt lat="47.38755" lon="2.88605">
        <ele>148.2939</ele>
        <time>2021-09-10T06:34:20.000Z</time>
      </trkpt>
      <trkpt lat="47.38734" lon="2.88592">
        <ele>148.545195</ele>
        <time>2021-09-10T06:34:27.000Z</time>
      </trkpt>
      <trkpt lat="47.38718" lon="2.88584">
        <ele>148.735733</ele>
        <time>2021-09-10T06:34:32.000Z</time>
      </trkpt>
      <trkpt lat="47.38705" lon="2.88568">
        <ele>148.919184</ele>
        <time>2021-09-10T06:34:37.000Z</time>
      </trkpt>
      <trkpt lat="47.38687" lon="2.88552">
        <ele>149.155623</ele>
        <time>2021-09-10T06:34:41.000Z</time>
      </trkpt>
      <trkpt lat="47.38683" lon="2.8855">
        <ele>149.203547</ele>
        <time>2021-09-10T06:34:42.000Z</time>
      </trkpt>
      <trkpt lat="47.38654" lon="2.88536">
        <ele>149.53796</ele>
        <time>2021-09-10T06:34:48.000Z</time>
      </trkpt>
      <trkpt lat="47.38639" lon="2.88529">
        <ele>149.718992</ele>
        <time>2021-09-10T06:34:51.000Z</time>
      </trkpt>
      <trkpt lat="47.38629" lon="2.88524">
        <ele>149.81504</ele>
        <time>2021-09-10T06:34:53.000Z</time>
      </trkpt>
      <trkpt lat="47.38619" lon="2.88519">
        <ele>149.900678</ele>
        <time>2021-09-10T06:34:55.000Z</time>
      </trkpt>
      <trkpt lat="47.38598" lon="2.88509">
        <ele>150.077875</ele>
        <time>2021-09-10T06:34:59.000Z</time>
      </trkpt>
      <trkpt lat="47.38583" lon="2.88499">
        <ele>150.210163</ele>
        <time>2021-09-10T06:35:02.000Z</time>
      </trkpt>
      <trkpt lat="47.38574" lon="2.88489">
        <ele>150.301376</ele>
        <time>2021-09-10T06:35:04.000Z</time>
      </trkpt>
      <trkpt lat="47.3855" lon="2.88462">
        <ele>150.547877</ele>
        <time>2021-09-10T06:35:09.000Z</time>
      </trkpt>
      <trkpt lat="47.38514" lon="2.88428">
        <ele>150.896393</ele>
        <time>2021-09-10T06:35:16.000Z</time>
      </trkpt>
      <trkpt lat="47.38498" lon="2.88414">
        <ele>151.044359</ele>
        <time>2021-09-10T06:35:19.000Z</time>
      </trkpt>
      <trkpt lat="47.38483" lon="2.884">
        <ele>151.191057</ele>
        <time>2021-09-10T06:35:22.000Z</time>
      </trkpt>
      <trkpt lat="47.38473" lon="2.88391">
        <ele>151.17967</ele>
        <time>2021-09-10T06:35:24.000Z</time>
      </trkpt>
      <trkpt lat="47.38452" lon="2.88369">
        <ele>151.050475</ele>
        <time>2021-09-10T06:35:28.000Z</time>
      </trkpt>
      <trkpt lat="47.38448" lon="2.88363">
        <ele>151.017291</ele>
        <time>2021-09-10T06:35:29.000Z</time>
      </trkpt>
      <trkpt lat="47.38435" lon="2.88341">
        <ele>150.912135</ele>
        <time>2021-09-10T06:35:32.000Z</time>
      </trkpt>
      <trkpt lat="47.38428" lon="2.88323">
        <ele>150.841984</ele>
        <time>2021-09-10T06:35:34.000Z</time>
      </trkpt>
      <trkpt lat="47.38418" lon="2.88296">
        <ele>150.732727</ele>
        <time>2021-09-10T06:35:37.000Z</time>
      </trkpt>
      <trkpt lat="47.38412" lon="2.88278">
        <ele>150.660403</ele>
        <time>2021-09-10T06:35:39.000Z</time>
      </trkpt>
      <trkpt lat="47.38402" lon="2.88252">
        <ele>150.55816</ele>
        <time>2021-09-10T06:35:42.000Z</time>
      </trkpt>
      <trkpt lat="47.38395" lon="2.88242">
        <ele>150.50625</ele>
        <time>2021-09-10T06:35:44.000Z</time>
      </trkpt>
      <trkpt lat="47.3839" lon="2.88239">
        <ele>150.478647</ele>
        <time>2021-09-10T06:35:45.000Z</time>
      </trkpt>
      <trkpt lat="47.38359" lon="2.88215">
        <ele>150.293884</ele>
        <time>2021-09-10T06:35:51.000Z</time>
      </trkpt>
      <trkpt lat="47.38335" lon="2.88197">
        <ele>150.532823</ele>
        <time>2021-09-10T06:35:56.000Z</time>
      </trkpt>
      <trkpt lat="47.3832" lon="2.88186">
        <ele>150.695848</ele>
        <time>2021-09-10T06:36:01.000Z</time>
      </trkpt>
      <trkpt lat="47.38307" lon="2.8818">
        <ele>150.838029</ele>
        <time>2021-09-10T06:36:07.000Z</time>
      </trkpt>
      <trkpt lat="47.3829" lon="2.88172">
        <ele>151.016603</ele>
        <time>2021-09-10T06:36:15.000Z</time>
      </trkpt>
      <trkpt lat="47.38276" lon="2.88166">
        <ele>151.155685</ele>
        <time>2021-09-10T06:36:21.000Z</time>
      </trkpt>
      <trkpt lat="47.38263" lon="2.88161">
        <ele>151.288514</ele>
        <time>2021-09-10T06:36:27.000Z</time>
      </trkpt>
      <trkpt lat="47.38247" lon="2.88159">
        <ele>151.44922</ele>
        <time>2021-09-10T06:36:33.000Z</time>
      </trkpt>
      <trkpt lat="47.3823" lon="2.88157">
        <ele>151.620277</ele>
        <time>2021-09-10T06:36:39.000Z</time>
      </trkpt>
      <trkpt lat="47.38222" lon="2.88155">
        <ele>151.70337</ele>
        <time>2021-09-10T06:36:40.000Z</time>
      </trkpt>
      <trkpt lat="47.38213" lon="2.88154">
        <ele>151.790418</ele>
        <time>2021-09-10T06:36:42.000Z</time>
      </trkpt>
      <trkpt lat="47.38198" lon="2.88152">
        <ele>151.937316</ele>
        <time>2021-09-10T06:36:45.000Z</time>
      </trkpt>
      <trkpt lat="47.38172" lon="2.88148">
        <ele>151.987996</ele>
        <time>2021-09-10T06:36:50.000Z</time>
      </trkpt>
      <trkpt lat="47.38167" lon="2.88149">
        <ele>151.95131</ele>
        <time>2021-09-10T06:36:51.000Z</time>
      </trkpt>
      <trkpt lat="47.38163" lon="2.88157">
        <ele>151.904082</ele>
        <time>2021-09-10T06:36:52.000Z</time>
      </trkpt>
      <trkpt lat="47.3816" lon="2.88174">
        <ele>151.82108</ele>
        <time>2021-09-10T06:36:54.000Z</time>
      </trkpt>
      <trkpt lat="47.38157" lon="2.88192">
        <ele>151.734468</ele>
        <time>2021-09-10T06:36:56.000Z</time>
      </trkpt>
      <trkpt lat="47.38156" lon="2.88205">
        <ele>151.67502</ele>
        <time>2021-09-10T06:36:58.000Z</time>
      </trkpt>
      <trkpt lat="47.38146" lon="2.88207">
        <ele>151.605022</ele>
        <time>2021-09-10T06:37:01.000Z</time>
      </trkpt>
      <trkpt lat="47.38141" lon="2.88208">
        <ele>151.570999</ele>
        <time>2021-09-10T06:37:02.000Z</time>
      </trkpt>
      <trkpt lat="47.38129" lon="2.88204">
        <ele>151.490542</ele>
        <time>2021-09-10T06:37:04.000Z</time>
      </trkpt>
      <trkpt lat="47.38096" lon="2.88184">
        <ele>151.241462</ele>
        <time>2021-09-10T06:37:10.000Z</time>
      </trkpt>
      <trkpt lat="47.38058" lon="2.8816">
        <ele>150.957045</ele>
        <time>2021-09-10T06:37:17.000Z</time>
      </trkpt>
      <trkpt lat="47.38037" lon="2.88146">
        <ele>150.816697</ele>
        <time>2021-09-10T06:37:21.000Z</time>
      </trkpt>
      <trkpt lat="47.38022" lon="2.88137">
        <ele>150.765186</ele>
        <time>2021-09-10T06:37:24.000Z</time>
      </trkpt>
      <trkpt lat="47.38009" lon="2.88129">
        <ele>150.722164</ele>
        <time>2021-09-10T06:37:27.000Z</time>
      </trkpt>
      <trkpt lat="47.38003" lon="2.88125">
        <ele>150.702847</ele>
        <time>2021-09-10T06:37:29.000Z</time>
      </trkpt>
      <trkpt lat="47.37994" lon="2.88133">
        <ele>150.670382</ele>
        <time>2021-09-10T06:37:32.000Z</time>
      </trkpt>
      <trkpt lat="47.37987" lon="2.88136">
        <ele>150.645513</ele>
        <time>2021-09-10T06:37:34.000Z</time>
      </trkpt>
      <trkpt lat="47.37982" lon="2.88137">
        <ele>150.631745</ele>
        <time>2021-09-10T06:37:35.000Z</time>
      </trkpt>
      <trkpt lat="47.37968" lon="2.88132">
        <ele>150.58623</ele>
        <time>2021-09-10T06:37:38.000Z</time>
      </trkpt>
      <trkpt lat="47.3796" lon="2.8813">
        <ele>150.56075</ele>
        <time>2021-09-10T06:37:40.000Z</time>
      </trkpt>
      <trkpt lat="47.37954" lon="2.88131">
        <ele>150.542578</ele>
        <time>2021-09-10T06:37:41.000Z</time>
      </trkpt>
      <trkpt lat="47.37952" lon="2.8814">
        <ele>150.520763</ele>
        <time>2021-09-10T06:37:43.000Z</time>
      </trkpt>
      <trkpt lat="47.37947" lon="2.88161">
        <ele>150.474897</ele>
        <time>2021-09-10T06:37:47.000Z</time>
      </trkpt>
      <trkpt lat="47.37944" lon="2.88168">
        <ele>150.457245</ele>
        <time>2021-09-10T06:37:48.000Z</time>
      </trkpt>
      <trkpt lat="47.37934" lon="2.88163">
        <ele>150.42688</ele>
        <time>2021-09-10T06:37:50.000Z</time>
      </trkpt>
      <trkpt lat="47.37922" lon="2.88158">
        <ele>150.387963</ele>
        <time>2021-09-10T06:37:52.000Z</time>
      </trkpt>
      <trkpt lat="47.37908" lon="2.88151">
        <ele>150.341937</ele>
        <time>2021-09-10T06:37:54.000Z</time>
      </trkpt>
      <trkpt lat="47.3786" lon="2.88134">
        <ele>150.103302</ele>
        <time>2021-09-10T06:38:01.000Z</time>
      </trkpt>
      <trkpt lat="47.37824" lon="2.88122">
        <ele>149.872432</ele>
        <time>2021-09-10T06:38:07.000Z</time>
      </trkpt>
      <trkpt lat="47.37788" lon="2.88104">
        <ele>149.635986</ele>
        <time>2021-09-10T06:38:13.000Z</time>
      </trkpt>
      <trkpt lat="47.37753" lon="2.88082">
        <ele>149.403857</ele>
        <time>2021-09-10T06:38:19.000Z</time>
      </trkpt>
      <trkpt lat="47.37737" lon="2.8807">
        <ele>149.290927</ele>
        <time>2021-09-10T06:38:22.000Z</time>
      </trkpt>
      <trkpt lat="47.37725" lon="2.88062">
        <ele>149.214124</ele>
        <time>2021-09-10T06:38:24.000Z</time>
      </trkpt>
      <trkpt lat="47.37685" lon="2.88034">
        <ele>148.821474</ele>
        <time>2021-09-10T06:38:31.000Z</time>
      </trkpt>
      <trkpt lat="47.37649" lon="2.88008">
        <ele>148.451518</ele>
        <time>2021-09-10T06:38:37.000Z</time>
      </trkpt>
      <trkpt lat="47.37621" lon="2.87989">
        <ele>148.163246</ele>
        <time>2021-09-10T06:38:42.000Z</time>
      </trkpt>
      <trkpt lat="47.37593" lon="2.87956">
        <ele>147.825994</ele>
        <time>2021-09-10T06:38:48.000Z</time>
      </trkpt>
      <trkpt lat="47.37578" lon="2.87938">
        <ele>147.648703</ele>
        <time>2021-09-10T06:38:51.000Z</time>
      </trkpt>
      <trkpt lat="47.37566" lon="2.87925">
        <ele>147.514472</ele>
        <time>2021-09-10T06:38:53.000Z</time>
      </trkpt>
      <trkpt lat="47.37533" lon="2.87902">
        <ele>147.389283</ele>
        <time>2021-09-10T06:38:58.000Z</time>
      </trkpt>
      <trkpt lat="47.37487" lon="2.8788">
        <ele>147.254332</ele>
        <time>2021-09-10T06:39:05.000Z</time>
      </trkpt>
      <trkpt lat="47.37444" lon="2.8786">
        <ele>147.127236</ele>
        <time>2021-09-10T06:39:12.000Z</time>
      </trkpt>
      <trkpt lat="47.37407" lon="2.87847">
        <ele>147.020817</ele>
        <time>2021-09-10T06:39:18.000Z</time>
      </trkpt>
      <trkpt lat="47.37401" lon="2.87846">
        <ele>147.005654</ele>
        <time>2021-09-10T06:39:19.000Z</time>
      </trkpt>
      <trkpt lat="47.37391" lon="2.87843">
        <ele>146.984441</ele>
        <time>2021-09-10T06:39:21.000Z</time>
      </trkpt>
      <trkpt lat="47.37374" lon="2.87839">
        <ele>147.050731</ele>
        <time>2021-09-10T06:39:24.000Z</time>
      </trkpt>
      <trkpt lat="47.37331" lon="2.87827">
        <ele>147.218239</ele>
        <time>2021-09-10T06:39:31.000Z</time>
      </trkpt>
      <trkpt lat="47.37301" lon="2.8782">
        <ele>147.334153</ele>
        <time>2021-09-10T06:39:36.000Z</time>
      </trkpt>
      <trkpt lat="47.37271" lon="2.87812">
        <ele>147.450488</ele>
        <time>2021-09-10T06:39:41.000Z</time>
      </trkpt>
      <trkpt lat="47.37237" lon="2.87801">
        <ele>147.584219</ele>
        <time>2021-09-10T06:39:47.000Z</time>
      </trkpt>
      <trkpt lat="47.37209" lon="2.87789">
        <ele>147.679061</ele>
        <time>2021-09-10T06:39:52.000Z</time>
      </trkpt>
      <trkpt lat="47.3718" lon="2.87776">
        <ele>147.730995</ele>
        <time>2021-09-10T06:39:57.000Z</time>
      </trkpt>
      <trkpt lat="47.37156" lon="2.87767">
        <ele>147.774149</ele>
        <time>2021-09-10T06:40:01.000Z</time>
      </trkpt>
      <trkpt lat="47.37144" lon="2.87763">
        <ele>147.795701</ele>
        <time>2021-09-10T06:40:03.000Z</time>
      </trkpt>
      <trkpt lat="47.37138" lon="2.87761">
        <ele>147.806452</ele>
        <time>2021-09-10T06:40:04.000Z</time>
      </trkpt>
      <trkpt lat="47.371" lon="2.87755">
        <ele>147.871</ele>
        <time>2021-09-10T06:40:10.000Z</time>
      </trkpt>
      <trkpt lat="47.37062" lon="2.87752">
        <ele>147.937649</ele>
        <time>2021-09-10T06:40:16.000Z</time>
      </trkpt>
      <trkpt lat="47.37025" lon="2.87748">
        <ele>148.072139</ele>
        <time>2021-09-10T06:40:22.000Z</time>
      </trkpt>
      <trkpt lat="47.36989" lon="2.8774">
        <ele>148.315013</ele>
        <time>2021-09-10T06:40:28.000Z</time>
      </trkpt>
      <trkpt lat="47.36959" lon="2.87731">
        <ele>148.515843</ele>
        <time>2021-09-10T06:40:33.000Z</time>
      </trkpt>
      <trkpt lat="47.36934" lon="2.87723">
        <ele>148.687481</ele>
        <time>2021-09-10T06:40:38.000Z</time>
      </trkpt>
      <trkpt lat="47.36918" lon="2.87717">
        <ele>148.798464</ele>
        <time>2021-09-10T06:40:42.000Z</time>
      </trkpt>
      <trkpt lat="47.36913" lon="2.87714">
        <ele>148.829994</ele>
        <time>2021-09-10T06:40:43.000Z</time>
      </trkpt>
      <trkpt lat="47.36902" lon="2.87709">
        <ele>148.908361</ele>
        <time>2021-09-10T06:40:45.000Z</time>
      </trkpt>
      <trkpt lat="47.36896" lon="2.87706">
        <ele>148.953024</ele>
        <time>2021-09-10T06:40:46.000Z</time>
      </trkpt>
      <trkpt lat="47.36859" lon="2.87688">
        <ele>149.172768</ele>
        <time>2021-09-10T06:40:51.000Z</time>
      </trkpt>
      <trkpt lat="47.36818" lon="2.87669">
        <ele>149.168883</ele>
        <time>2021-09-10T06:40:57.000Z</time>
      </trkpt>
      <trkpt lat="47.3678" lon="2.87651">
        <ele>149.165301</ele>
        <time>2021-09-10T06:41:03.000Z</time>
      </trkpt>
      <trkpt lat="47.3675" lon="2.87636">
        <ele>149.162385</ele>
        <time>2021-09-10T06:41:08.000Z</time>
      </trkpt>
      <trkpt lat="47.36723" lon="2.87623">
        <ele>149.15984</ele>
        <time>2021-09-10T06:41:12.000Z</time>
      </trkpt>
      <trkpt lat="47.36685" lon="2.87597">
        <ele>149.057664</ele>
        <time>2021-09-10T06:41:18.000Z</time>
      </trkpt>
      <trkpt lat="47.36675" lon="2.87587">
        <ele>148.934811</ele>
        <time>2021-09-10T06:41:20.000Z</time>
      </trkpt>
      <trkpt lat="47.36664" lon="2.87577">
        <ele>148.815107</ele>
        <time>2021-09-10T06:41:22.000Z</time>
      </trkpt>
      <trkpt lat="47.36659" lon="2.87572">
        <ele>148.757768</ele>
        <time>2021-09-10T06:41:23.000Z</time>
      </trkpt>
      <trkpt lat="47.36639" lon="2.87553">
        <ele>148.528874</ele>
        <time>2021-09-10T06:41:27.000Z</time>
      </trkpt>
      <trkpt lat="47.36622" lon="2.87537">
        <ele>148.332682</ele>
        <time>2021-09-10T06:41:30.000Z</time>
      </trkpt>
      <trkpt lat="47.36611" lon="2.87527">
        <ele>148.207233</ele>
        <time>2021-09-10T06:41:32.000Z</time>
      </trkpt>
      <trkpt lat="47.36596" lon="2.87514">
        <ele>148.032626</ele>
        <time>2021-09-10T06:41:35.000Z</time>
      </trkpt>
      <trkpt lat="47.36587" lon="2.87506">
        <ele>147.93183</ele>
        <time>2021-09-10T06:41:37.000Z</time>
      </trkpt>
      <trkpt lat="47.36582" lon="2.87501">
        <ele>147.876351</ele>
        <time>2021-09-10T06:41:38.000Z</time>
      </trkpt>
      <trkpt lat="47.36576" lon="2.87496">
        <ele>147.808375</ele>
        <time>2021-09-10T06:41:39.000Z</time>
      </trkpt>
      <trkpt lat="47.36555" lon="2.87477">
        <ele>147.572795</ele>
        <time>2021-09-10T06:41:43.000Z</time>
      </trkpt>
      <trkpt lat="47.36543" lon="2.87469">
        <ele>147.444325</ele>
        <time>2021-09-10T06:41:45.000Z</time>
      </trkpt>
      <trkpt lat="47.36525" lon="2.87457">
        <ele>147.320235</ele>
        <time>2021-09-10T06:41:48.000Z</time>
      </trkpt>
      <trkpt lat="47.36518" lon="2.87453">
        <ele>147.282759</ele>
        <time>2021-09-10T06:41:49.000Z</time>
      </trkpt>
      <trkpt lat="47.36512" lon="2.87449">
        <ele>147.245137</ele>
        <time>2021-09-10T06:41:50.000Z</time>
      </trkpt>
      <trkpt lat="47.36486" lon="2.87433">
        <ele>147.085535</ele>
        <time>2021-09-10T06:41:54.000Z</time>
      </trkpt>
      <trkpt lat="47.36454" lon="2.87412">
        <ele>146.892388</ele>
        <time>2021-09-10T06:41:59.000Z</time>
      </trkpt>
      <trkpt lat="47.36427" lon="2.87394">
        <ele>146.724503</ele>
        <time>2021-09-10T06:42:04.000Z</time>
      </trkpt>
      <trkpt lat="47.36391" lon="2.8737">
        <ele>146.502819</ele>
        <time>2021-09-10T06:42:10.000Z</time>
      </trkpt>
      <trkpt lat="47.36359" lon="2.87352">
        <ele>146.338975</ele>
        <time>2021-09-10T06:42:15.000Z</time>
      </trkpt>
      <trkpt lat="47.36333" lon="2.87339">
        <ele>146.222359</ele>
        <time>2021-09-10T06:42:19.000Z</time>
      </trkpt>
      <trkpt lat="47.36327" lon="2.87337">
        <ele>146.19588</ele>
        <time>2021-09-10T06:42:20.000Z</time>
      </trkpt>
      <trkpt lat="47.36309" lon="2.87328">
        <ele>146.115581</ele>
        <time>2021-09-10T06:42:23.000Z</time>
      </trkpt>
      <trkpt lat="47.36298" lon="2.87323">
        <ele>146.064687</ele>
        <time>2021-09-10T06:42:25.000Z</time>
      </trkpt>
      <trkpt lat="47.36263" lon="2.87294">
        <ele>145.893692</ele>
        <time>2021-09-10T06:42:31.000Z</time>
      </trkpt>
      <trkpt lat="47.36248" lon="2.87282">
        <ele>145.820858</ele>
        <time>2021-09-10T06:42:34.000Z</time>
      </trkpt>
      <trkpt lat="47.36215" lon="2.87253">
        <ele>145.656442</ele>
        <time>2021-09-10T06:42:40.000Z</time>
      </trkpt>
      <trkpt lat="47.3621" lon="2.87249">
        <ele>145.6455</ele>
        <time>2021-09-10T06:42:41.000Z</time>
      </trkpt>
      <trkpt lat="47.36194" lon="2.87236">
        <ele>145.637546</ele>
        <time>2021-09-10T06:42:44.000Z</time>
      </trkpt>
      <trkpt lat="47.36177" lon="2.87223">
        <ele>145.629094</ele>
        <time>2021-09-10T06:42:47.000Z</time>
      </trkpt>
      <trkpt lat="47.36147" lon="2.87206">
        <ele>145.614843</ele>
        <time>2021-09-10T06:42:52.000Z</time>
      </trkpt>
      <trkpt lat="47.36121" lon="2.87191">
        <ele>145.602367</ele>
        <time>2021-09-10T06:42:56.000Z</time>
      </trkpt>
      <trkpt lat="47.36096" lon="2.87179">
        <ele>145.590713</ele>
        <time>2021-09-10T06:43:00.000Z</time>
      </trkpt>
      <trkpt lat="47.36071" lon="2.87168">
        <ele>145.579299</ele>
        <time>2021-09-10T06:43:04.000Z</time>
      </trkpt>
      <trkpt lat="47.36058" lon="2.87161">
        <ele>145.573242</ele>
        <time>2021-09-10T06:43:06.000Z</time>
      </trkpt>
      <trkpt lat="47.36047" lon="2.87154">
        <ele>145.567633</ele>
        <time>2021-09-10T06:43:08.000Z</time>
      </trkpt>
      <trkpt lat="47.36016" lon="2.87137">
        <ele>145.481932</ele>
        <time>2021-09-10T06:43:13.000Z</time>
      </trkpt>
      <trkpt lat="47.35992" lon="2.87123">
        <ele>145.412149</ele>
        <time>2021-09-10T06:43:17.000Z</time>
      </trkpt>
      <trkpt lat="47.35954" lon="2.87103">
        <ele>145.302588</ele>
        <time>2021-09-10T06:43:23.000Z</time>
      </trkpt>
      <trkpt lat="47.35916" lon="2.87083">
        <ele>145.194982</ele>
        <time>2021-09-10T06:43:29.000Z</time>
      </trkpt>
      <trkpt lat="47.35886" lon="2.87066">
        <ele>145.107648</ele>
        <time>2021-09-10T06:43:34.000Z</time>
      </trkpt>
      <trkpt lat="47.35855" lon="2.8705">
        <ele>144.979832</ele>
        <time>2021-09-10T06:43:39.000Z</time>
      </trkpt>
      <trkpt lat="47.35829" lon="2.87026">
        <ele>144.844905</ele>
        <time>2021-09-10T06:43:44.000Z</time>
      </trkpt>
      <trkpt lat="47.35801" lon="2.87001">
        <ele>144.704335</ele>
        <time>2021-09-10T06:43:49.000Z</time>
      </trkpt>
      <trkpt lat="47.3579" lon="2.86991">
        <ele>144.647473</ele>
        <time>2021-09-10T06:43:51.000Z</time>
      </trkpt>
      <trkpt lat="47.3578" lon="2.8698">
        <ele>144.594537</ele>
        <time>2021-09-10T06:43:53.000Z</time>
      </trkpt>
      <trkpt lat="47.3577" lon="2.8697">
        <ele>144.540185</ele>
        <time>2021-09-10T06:43:55.000Z</time>
      </trkpt>
      <trkpt lat="47.35759" lon="2.86959">
        <ele>144.481973</ele>
        <time>2021-09-10T06:43:57.000Z</time>
      </trkpt>
      <trkpt lat="47.35732" lon="2.86932">
        <ele>144.340219</ele>
        <time>2021-09-10T06:44:02.000Z</time>
      </trkpt>
      <trkpt lat="47.35707" lon="2.86907">
        <ele>144.271856</ele>
        <time>2021-09-10T06:44:07.000Z</time>
      </trkpt>
      <trkpt lat="47.35689" lon="2.86888">
        <ele>144.243759</ele>
        <time>2021-09-10T06:44:11.000Z</time>
      </trkpt>
      <trkpt lat="47.35684" lon="2.86884">
        <ele>144.237309</ele>
        <time>2021-09-10T06:44:12.000Z</time>
      </trkpt>
      <trkpt lat="47.35663" lon="2.86863">
        <ele>144.205864</ele>
        <time>2021-09-10T06:44:16.000Z</time>
      </trkpt>
      <trkpt lat="47.35633" lon="2.86834">
        <ele>144.161364</ele>
        <time>2021-09-10T06:44:21.000Z</time>
      </trkpt>
      <trkpt lat="47.35606" lon="2.86813">
        <ele>144.122467</ele>
        <time>2021-09-10T06:44:26.000Z</time>
      </trkpt>
      <trkpt lat="47.35601" lon="2.86809">
        <ele>144.115742</ele>
        <time>2021-09-10T06:44:27.000Z</time>
      </trkpt>
      <trkpt lat="47.35583" lon="2.86796">
        <ele>144.091077</ele>
        <time>2021-09-10T06:44:30.000Z</time>
      </trkpt>
      <trkpt lat="47.35554" lon="2.86777">
        <ele>144.201114</ele>
        <time>2021-09-10T06:44:35.000Z</time>
      </trkpt>
      <trkpt lat="47.35523" lon="2.86761">
        <ele>144.43101</ele>
        <time>2021-09-10T06:44:40.000Z</time>
      </trkpt>
      <trkpt lat="47.35486" lon="2.86742">
        <ele>144.704438</ele>
        <time>2021-09-10T06:44:46.000Z</time>
      </trkpt>
      <trkpt lat="47.35455" lon="2.86725">
        <ele>144.938126</ele>
        <time>2021-09-10T06:44:51.000Z</time>
      </trkpt>
      <trkpt lat="47.35431" lon="2.8671">
        <ele>145.121292</ele>
        <time>2021-09-10T06:44:55.000Z</time>
      </trkpt>
      <trkpt lat="47.35407" lon="2.8669">
        <ele>145.31516</ele>
        <time>2021-09-10T06:44:59.000Z</time>
      </trkpt>
      <trkpt lat="47.35384" lon="2.86654">
        <ele>145.334321</ele>
        <time>2021-09-10T06:45:04.000Z</time>
      </trkpt>
      <trkpt lat="47.35357" lon="2.86611">
        <ele>145.328722</ele>
        <time>2021-09-10T06:45:10.000Z</time>
      </trkpt>
      <trkpt lat="47.35335" lon="2.86569">
        <ele>145.323697</ele>
        <time>2021-09-10T06:45:16.000Z</time>
      </trkpt>
      <trkpt lat="47.35324" lon="2.86549">
        <ele>145.321193</ele>
        <time>2021-09-10T06:45:19.000Z</time>
      </trkpt>
      <trkpt lat="47.35303" lon="2.86517">
        <ele>145.317049</ele>
        <time>2021-09-10T06:45:24.000Z</time>
      </trkpt>
      <trkpt lat="47.35274" lon="2.86474">
        <ele>145.404148</ele>
        <time>2021-09-10T06:45:30.000Z</time>
      </trkpt>
      <trkpt lat="47.35266" lon="2.86462">
        <ele>145.482152</ele>
        <time>2021-09-10T06:45:32.000Z</time>
      </trkpt>
      <trkpt lat="47.35254" lon="2.86446">
        <ele>145.584879</ele>
        <time>2021-09-10T06:45:34.000Z</time>
      </trkpt>
      <trkpt lat="47.3522" lon="2.86403">
        <ele>145.868652</ele>
        <time>2021-09-10T06:45:40.000Z</time>
      </trkpt>
      <trkpt lat="47.35203" lon="2.86383">
        <ele>146.012175</ele>
        <time>2021-09-10T06:45:45.000Z</time>
      </trkpt>
      <trkpt lat="47.35188" lon="2.86367">
        <ele>146.132597</ele>
        <time>2021-09-10T06:45:50.000Z</time>
      </trkpt>
      <trkpt lat="47.35165" lon="2.86351">
        <ele>146.295309</ele>
        <time>2021-09-10T06:45:54.000Z</time>
      </trkpt>
      <trkpt lat="47.35126" lon="2.86316">
        <ele>146.495446</ele>
        <time>2021-09-10T06:46:00.000Z</time>
      </trkpt>
      <trkpt lat="47.35081" lon="2.86289">
        <ele>146.565841</ele>
        <time>2021-09-10T06:46:07.000Z</time>
      </trkpt>
      <trkpt lat="47.35026" lon="2.86258">
        <ele>146.650378</ele>
        <time>2021-09-10T06:46:16.000Z</time>
      </trkpt>
      <trkpt lat="47.35014" lon="2.86251">
        <ele>146.668358</ele>
        <time>2021-09-10T06:46:18.000Z</time>
      </trkpt>
      <trkpt lat="47.34991" lon="2.86238">
        <ele>146.703737</ele>
        <time>2021-09-10T06:46:22.000Z</time>
      </trkpt>
      <trkpt lat="47.34945" lon="2.86212">
        <ele>146.743879</ele>
        <time>2021-09-10T06:46:30.000Z</time>
      </trkpt>
      <trkpt lat="47.34905" lon="2.86189">
        <ele>146.764296</ele>
        <time>2021-09-10T06:46:37.000Z</time>
      </trkpt>
      <trkpt lat="47.34859" lon="2.86163">
        <ele>146.787715</ele>
        <time>2021-09-10T06:46:45.000Z</time>
      </trkpt>
      <trkpt lat="47.34807" lon="2.86134">
        <ele>146.813833</ele>
        <time>2021-09-10T06:46:54.000Z</time>
      </trkpt>
      <trkpt lat="47.34773" lon="2.86115">
        <ele>146.811057</ele>
        <time>2021-09-10T06:47:00.000Z</time>
      </trkpt>
      <trkpt lat="47.34721" lon="2.86085">
        <ele>146.806722</ele>
        <time>2021-09-10T06:47:09.000Z</time>
      </trkpt>
      <trkpt lat="47.34669" lon="2.86055">
        <ele>146.802384</ele>
        <time>2021-09-10T06:47:18.000Z</time>
      </trkpt>
      <trkpt lat="47.34663" lon="2.86052">
        <ele>146.801905</ele>
        <time>2021-09-10T06:47:19.000Z</time>
      </trkpt>
      <trkpt lat="47.34617" lon="2.86026">
        <ele>146.823008</ele>
        <time>2021-09-10T06:47:27.000Z</time>
      </trkpt>
      <trkpt lat="47.34571" lon="2.86">
        <ele>146.869593</ele>
        <time>2021-09-10T06:47:35.000Z</time>
      </trkpt>
      <trkpt lat="47.34521" lon="2.85979">
        <ele>146.91792</ele>
        <time>2021-09-10T06:47:43.000Z</time>
      </trkpt>
      <trkpt lat="47.34478" lon="2.85966">
        <ele>146.959696</ele>
        <time>2021-09-10T06:47:50.000Z</time>
      </trkpt>
      <trkpt lat="47.34427" lon="2.85956">
        <ele>147.116057</ele>
        <time>2021-09-10T06:47:58.000Z</time>
      </trkpt>
      <trkpt lat="47.34389" lon="2.85949">
        <ele>147.253549</ele>
        <time>2021-09-10T06:48:04.000Z</time>
      </trkpt>
      <trkpt lat="47.34377" lon="2.85945">
        <ele>147.30052</ele>
        <time>2021-09-10T06:48:06.000Z</time>
      </trkpt>
      <trkpt lat="47.34344" lon="2.85944">
        <ele>147.419126</ele>
        <time>2021-09-10T06:48:11.000Z</time>
      </trkpt>
      <trkpt lat="47.34291" lon="2.85939">
        <ele>147.608585</ele>
        <time>2021-09-10T06:48:19.000Z</time>
      </trkpt>
      <trkpt lat="47.34246" lon="2.85934">
        <ele>147.771368</ele>
        <time>2021-09-10T06:48:26.000Z</time>
      </trkpt>
      <trkpt lat="47.34202" lon="2.8593">
        <ele>147.930211</ele>
        <time>2021-09-10T06:48:33.000Z</time>
      </trkpt>
      <trkpt lat="47.34159" lon="2.85926">
        <ele>148.087609</ele>
        <time>2021-09-10T06:48:40.000Z</time>
      </trkpt>
      <trkpt lat="47.34104" lon="2.8592">
        <ele>148.311536</ele>
        <time>2021-09-10T06:48:49.000Z</time>
      </trkpt>
      <trkpt lat="47.34098" lon="2.8592">
        <ele>148.35821</ele>
        <time>2021-09-10T06:48:50.000Z</time>
      </trkpt>
      <trkpt lat="47.34073" lon="2.85917">
        <ele>148.545699</ele>
        <time>2021-09-10T06:48:54.000Z</time>
      </trkpt>
      <trkpt lat="47.34061" lon="2.85921">
        <ele>148.63705</ele>
        <time>2021-09-10T06:48:56.000Z</time>
      </trkpt>
      <trkpt lat="47.34037" lon="2.85932">
        <ele>148.830216</ele>
        <time>2021-09-10T06:49:00.000Z</time>
      </trkpt>
      <trkpt lat="47.34031" lon="2.85933">
        <ele>148.877832</ele>
        <time>2021-09-10T06:49:01.000Z</time>
      </trkpt>
      <trkpt lat="47.34013" lon="2.85937">
        <ele>149.013628</ele>
        <time>2021-09-10T06:49:04.000Z</time>
      </trkpt>
      <trkpt lat="47.34006" lon="2.85943">
        <ele>149.080348</ele>
        <time>2021-09-10T06:49:06.000Z</time>
      </trkpt>
      <trkpt lat="47.33996" lon="2.85944">
        <ele>149.15314</ele>
        <time>2021-09-10T06:49:08.000Z</time>
      </trkpt>
      <trkpt lat="47.33987" lon="2.85943">
        <ele>149.219761</ele>
        <time>2021-09-10T06:49:10.000Z</time>
      </trkpt>
      <trkpt lat="47.33954" lon="2.85939">
        <ele>149.478806</ele>
        <time>2021-09-10T06:49:18.000Z</time>
      </trkpt>
      <trkpt lat="47.3393" lon="2.85937">
        <ele>149.646712</ele>
        <time>2021-09-10T06:49:24.000Z</time>
      </trkpt>
      <trkpt lat="47.33904" lon="2.85935">
        <ele>149.705466</ele>
        <time>2021-09-10T06:49:29.000Z</time>
      </trkpt>
      <trkpt lat="47.33899" lon="2.85934">
        <ele>149.716848</ele>
        <time>2021-09-10T06:49:30.000Z</time>
      </trkpt>
      <trkpt lat="47.3389" lon="2.85934">
        <ele>149.738901</ele>
        <time>2021-09-10T06:49:32.000Z</time>
      </trkpt>
      <trkpt lat="47.33877" lon="2.85933">
        <ele>149.768398</ele>
        <time>2021-09-10T06:49:35.000Z</time>
      </trkpt>
      <trkpt lat="47.33871" lon="2.85932">
        <ele>149.783725</ele>
        <time>2021-09-10T06:49:39.000Z</time>
      </trkpt>
      <trkpt lat="47.33869" lon="2.85932">
        <ele>149.786509</ele>
        <time>2021-09-10T06:49:51.000Z</time>
      </trkpt>
      <trkpt lat="47.33864" lon="2.85935">
        <ele>149.800568</ele>
        <time>2021-09-10T06:49:53.000Z</time>
      </trkpt>
      <trkpt lat="47.33845" lon="2.85937">
        <ele>149.842689</ele>
        <time>2021-09-10T06:49:57.000Z</time>
      </trkpt>
      <trkpt lat="47.33835" lon="2.85936">
        <ele>149.867523</ele>
        <time>2021-09-10T06:49:59.000Z</time>
      </trkpt>
      <trkpt lat="47.33817" lon="2.85935">
        <ele>149.909532</ele>
        <time>2021-09-10T06:50:02.000Z</time>
      </trkpt>
      <trkpt lat="47.33783" lon="2.85955">
        <ele>149.993229</ele>
        <time>2021-09-10T06:50:07.000Z</time>
      </trkpt>
      <trkpt lat="47.33756" lon="2.85972">
        <ele>150.041301</ele>
        <time>2021-09-10T06:50:12.000Z</time>
      </trkpt>
      <trkpt lat="47.33746" lon="2.85983">
        <ele>149.969082</ele>
        <time>2021-09-10T06:50:13.000Z</time>
      </trkpt>
      <trkpt lat="47.33745" lon="2.8599">
        <ele>149.936158</ele>
        <time>2021-09-10T06:50:14.000Z</time>
      </trkpt>
      <trkpt lat="47.33743" lon="2.86006">
        <ele>149.869396</ele>
        <time>2021-09-10T06:50:16.000Z</time>
      </trkpt>
      <trkpt lat="47.33738" lon="2.86058">
        <ele>149.652785</ele>
        <time>2021-09-10T06:50:22.000Z</time>
      </trkpt>
      <trkpt lat="47.33737" lon="2.86067">
        <ele>149.614194</ele>
        <time>2021-09-10T06:50:23.000Z</time>
      </trkpt>
      <trkpt lat="47.33735" lon="2.86093">
        <ele>149.504198</ele>
        <time>2021-09-10T06:50:27.000Z</time>
      </trkpt>
      <trkpt lat="47.33729" lon="2.86153">
        <ele>149.253945</ele>
        <time>2021-09-10T06:50:33.000Z</time>
      </trkpt>
      <trkpt lat="47.33725" lon="2.86204">
        <ele>149.038982</ele>
        <time>2021-09-10T06:50:39.000Z</time>
      </trkpt>
      <trkpt lat="47.33719" lon="2.86262">
        <ele>148.932148</ele>
        <time>2021-09-10T06:50:46.000Z</time>
      </trkpt>
      <trkpt lat="47.33712" lon="2.86313">
        <ele>148.904526</ele>
        <time>2021-09-10T06:50:52.000Z</time>
      </trkpt>
      <trkpt lat="47.33708" lon="2.86354">
        <ele>148.882103</ele>
        <time>2021-09-10T06:50:58.000Z</time>
      </trkpt>
      <trkpt lat="47.337" lon="2.86422">
        <ele>148.845211</ele>
        <time>2021-09-10T06:51:05.000Z</time>
      </trkpt>
      <trkpt lat="47.33696" lon="2.86481">
        <ele>148.813526</ele>
        <time>2021-09-10T06:51:12.000Z</time>
      </trkpt>
      <trkpt lat="47.33695" lon="2.86494">
        <ele>148.806185</ele>
        <time>2021-09-10T06:51:14.000Z</time>
      </trkpt>
      <trkpt lat="47.33693" lon="2.86499">
        <ele>148.802451</ele>
        <time>2021-09-10T06:51:15.000Z</time>
      </trkpt>
      <trkpt lat="47.33678" lon="2.86498">
        <ele>148.788486</ele>
        <time>2021-09-10T06:51:18.000Z</time>
      </trkpt>
      <trkpt lat="47.3366" lon="2.86498">
        <ele>148.772</ele>
        <time>2021-09-10T06:51:22.000Z</time>
      </trkpt>
      <trkpt lat="47.33648" lon="2.86499">
        <ele>148.760756</ele>
        <time>2021-09-10T06:51:23.000Z</time>
      </trkpt>
      <trkpt lat="47.33631" lon="2.86492">
        <ele>148.743897</ele>
        <time>2021-09-10T06:51:26.000Z</time>
      </trkpt>
      <trkpt lat="47.33614" lon="2.86485">
        <ele>148.727259</ele>
        <time>2021-09-10T06:51:29.000Z</time>
      </trkpt>
      <trkpt lat="47.33597" lon="2.86478">
        <ele>148.711106</ele>
        <time>2021-09-10T06:51:32.000Z</time>
      </trkpt>
      <trkpt lat="47.33592" lon="2.86477">
        <ele>148.70594</ele>
        <time>2021-09-10T06:51:34.000Z</time>
      </trkpt>
      <trkpt lat="47.33577" lon="2.8646">
        <ele>148.688064</ele>
        <time>2021-09-10T06:51:36.000Z</time>
      </trkpt>
      <trkpt lat="47.33573" lon="2.86452">
        <ele>148.682074</ele>
        <time>2021-09-10T06:51:37.000Z</time>
      </trkpt>
      <trkpt lat="47.33552" lon="2.86406">
        <ele>148.646551</ele>
        <time>2021-09-10T06:51:43.000Z</time>
      </trkpt>
      <trkpt lat="47.33534" lon="2.86365">
        <ele>148.558189</ele>
        <time>2021-09-10T06:51:48.000Z</time>
      </trkpt>
      <trkpt lat="47.33531" lon="2.86356">
        <ele>148.538389</ele>
        <time>2021-09-10T06:51:49.000Z</time>
      </trkpt>
      <trkpt lat="47.33527" lon="2.86348">
        <ele>148.517909</ele>
        <time>2021-09-10T06:51:50.000Z</time>
      </trkpt>
      <trkpt lat="47.33517" lon="2.86322">
        <ele>148.45629</ele>
        <time>2021-09-10T06:51:53.000Z</time>
      </trkpt>
      <trkpt lat="47.33511" lon="2.86315">
        <ele>148.431936</ele>
        <time>2021-09-10T06:51:54.000Z</time>
      </trkpt>
      <trkpt lat="47.33499" lon="2.86305">
        <ele>148.390957</ele>
        <time>2021-09-10T06:51:56.000Z</time>
      </trkpt>
      <trkpt lat="47.33466" lon="2.86283">
        <ele>148.283993</ele>
        <time>2021-09-10T06:52:02.000Z</time>
      </trkpt>
      <trkpt lat="47.33429" lon="2.86265">
        <ele>148.165839</ele>
        <time>2021-09-10T06:52:07.000Z</time>
      </trkpt>
      <trkpt lat="47.33388" lon="2.86259">
        <ele>148.145985</ele>
        <time>2021-09-10T06:52:13.000Z</time>
      </trkpt>
      <trkpt lat="47.33349" lon="2.86258">
        <ele>148.235262</ele>
        <time>2021-09-10T06:52:19.000Z</time>
      </trkpt>
      <trkpt lat="47.33316" lon="2.86264">
        <ele>148.312669</ele>
        <time>2021-09-10T06:52:24.000Z</time>
      </trkpt>
      <trkpt lat="47.33268" lon="2.86274">
        <ele>148.423287</ele>
        <time>2021-09-10T06:52:31.000Z</time>
      </trkpt>
      <trkpt lat="47.33219" lon="2.86295">
        <ele>148.507653</ele>
        <time>2021-09-10T06:52:39.000Z</time>
      </trkpt>
      <trkpt lat="47.33182" lon="2.86306">
        <ele>148.481683</ele>
        <time>2021-09-10T06:52:45.000Z</time>
      </trkpt>
      <trkpt lat="47.33144" lon="2.86311">
        <ele>148.455867</ele>
        <time>2021-09-10T06:52:51.000Z</time>
      </trkpt>
      <trkpt lat="47.33132" lon="2.8631">
        <ele>148.447259</ele>
        <time>2021-09-10T06:52:53.000Z</time>
      </trkpt>
      <trkpt lat="47.33113" lon="2.86308">
        <ele>148.434176</ele>
        <time>2021-09-10T06:52:56.000Z</time>
      </trkpt>
      <trkpt lat="47.331" lon="2.86307">
        <ele>148.425499</ele>
        <time>2021-09-10T06:52:58.000Z</time>
      </trkpt>
      <trkpt lat="47.33081" lon="2.86308">
        <ele>148.412636</ele>
        <time>2021-09-10T06:53:01.000Z</time>
      </trkpt>
      <trkpt lat="47.33025" lon="2.86313">
        <ele>148.367106</ele>
        <time>2021-09-10T06:53:10.000Z</time>
      </trkpt>
      <trkpt lat="47.32975" lon="2.86318">
        <ele>148.320823</ele>
        <time>2021-09-10T06:53:18.000Z</time>
      </trkpt>
      <trkpt lat="47.32951" lon="2.86322">
        <ele>148.298274</ele>
        <time>2021-09-10T06:53:22.000Z</time>
      </trkpt>
      <trkpt lat="47.32946" lon="2.86323">
        <ele>148.293014</ele>
        <time>2021-09-10T06:53:23.000Z</time>
      </trkpt>
      <trkpt lat="47.32901" lon="2.86332">
        <ele>148.25054</ele>
        <time>2021-09-10T06:53:31.000Z</time>
      </trkpt>
      <trkpt lat="47.32847" lon="2.86331">
        <ele>148.268222</ele>
        <time>2021-09-10T06:53:40.000Z</time>
      </trkpt>
      <trkpt lat="47.32835" lon="2.86328">
        <ele>148.289466</ele>
        <time>2021-09-10T06:53:42.000Z</time>
      </trkpt>
      <trkpt lat="47.32817" lon="2.86323">
        <ele>148.320978</ele>
        <time>2021-09-10T06:53:45.000Z</time>
      </trkpt>
      <trkpt lat="47.32807" lon="2.86311">
        <ele>148.34356</ele>
        <time>2021-09-10T06:53:47.000Z</time>
      </trkpt>
      <trkpt lat="47.32798" lon="2.86298">
        <ele>148.365234</ele>
        <time>2021-09-10T06:53:49.000Z</time>
      </trkpt>
      <trkpt lat="47.32772" lon="2.8626">
        <ele>148.429425</ele>
        <time>2021-09-10T06:53:55.000Z</time>
      </trkpt>
      <trkpt lat="47.32768" lon="2.86254">
        <ele>148.4396</ele>
        <time>2021-09-10T06:53:56.000Z</time>
      </trkpt>
      <trkpt lat="47.32761" lon="2.86253">
        <ele>148.450515</ele>
        <time>2021-09-10T06:53:57.000Z</time>
      </trkpt>
      <trkpt lat="47.32757" lon="2.86258">
        <ele>148.460536</ele>
        <time>2021-09-10T06:53:58.000Z</time>
      </trkpt>
      <trkpt lat="47.32752" lon="2.86264">
        <ele>148.472025</ele>
        <time>2021-09-10T06:53:59.000Z</time>
      </trkpt>
      <trkpt lat="47.32736" lon="2.86283">
        <ele>148.507967</ele>
        <time>2021-09-10T06:54:02.000Z</time>
      </trkpt>
      <trkpt lat="47.32704" lon="2.8632">
        <ele>148.556044</ele>
        <time>2021-09-10T06:54:08.000Z</time>
      </trkpt>
      <trkpt lat="47.32701" lon="2.86324">
        <ele>148.559705</ele>
        <time>2021-09-10T06:54:09.000Z</time>
      </trkpt>
      <trkpt lat="47.32697" lon="2.86328">
        <ele>148.56337</ele>
        <time>2021-09-10T06:54:10.000Z</time>
      </trkpt>
      <trkpt lat="47.3269" lon="2.86338">
        <ele>148.571241</ele>
        <time>2021-09-10T06:54:12.000Z</time>
      </trkpt>
      <trkpt lat="47.32685" lon="2.86344">
        <ele>148.576183</ele>
        <time>2021-09-10T06:54:13.000Z</time>
      </trkpt>
      <trkpt lat="47.3268" lon="2.86352">
        <ele>148.581796</ele>
        <time>2021-09-10T06:54:14.000Z</time>
      </trkpt>
      <trkpt lat="47.32667" lon="2.86377">
        <ele>148.599319</ele>
        <time>2021-09-10T06:54:17.000Z</time>
      </trkpt>
      <trkpt lat="47.32631" lon="2.86444">
        <ele>148.645819</ele>
        <time>2021-09-10T06:54:25.000Z</time>
      </trkpt>
      <trkpt lat="47.32597" lon="2.86507">
        <ele>148.674337</ele>
        <time>2021-09-10T06:54:33.000Z</time>
      </trkpt>
      <trkpt lat="47.32577" lon="2.86545">
        <ele>148.646878</ele>
        <time>2021-09-10T06:54:38.000Z</time>
      </trkpt>
      <trkpt lat="47.32565" lon="2.86554">
        <ele>148.635474</ele>
        <time>2021-09-10T06:54:40.000Z</time>
      </trkpt>
      <trkpt lat="47.32524" lon="2.86583">
        <ele>148.598412</ele>
        <time>2021-09-10T06:54:47.000Z</time>
      </trkpt>
      <trkpt lat="47.32473" lon="2.8662">
        <ele>148.550963</ele>
        <time>2021-09-10T06:54:56.000Z</time>
      </trkpt>
      <trkpt lat="47.32421" lon="2.86658">
        <ele>148.460377</ele>
        <time>2021-09-10T06:55:05.000Z</time>
      </trkpt>
      <trkpt lat="47.32409" lon="2.86666">
        <ele>148.435114</ele>
        <time>2021-09-10T06:55:07.000Z</time>
      </trkpt>
      <trkpt lat="47.32362" lon="2.86697">
        <ele>148.332</ele>
        <time>2021-09-10T06:55:15.000Z</time>
      </trkpt>
      <trkpt lat="47.32308" lon="2.86722">
        <ele>148.219226</ele>
        <time>2021-09-10T06:55:24.000Z</time>
      </trkpt>
      <trkpt lat="47.32302" lon="2.86725">
        <ele>148.20688</ele>
        <time>2021-09-10T06:55:25.000Z</time>
      </trkpt>
      <trkpt lat="47.32256" lon="2.86746">
        <ele>148.202449</ele>
        <time>2021-09-10T06:55:33.000Z</time>
      </trkpt>
      <trkpt lat="47.32222" lon="2.86762">
        <ele>148.23362</ele>
        <time>2021-09-10T06:55:39.000Z</time>
      </trkpt>
      <trkpt lat="47.3221" lon="2.86764">
        <ele>148.243921</ele>
        <time>2021-09-10T06:55:41.000Z</time>
      </trkpt>
      <trkpt lat="47.32205" lon="2.86769">
        <ele>148.2496</ele>
        <time>2021-09-10T06:55:42.000Z</time>
      </trkpt>
      <trkpt lat="47.32196" lon="2.86781">
        <ele>148.259865</ele>
        <time>2021-09-10T06:55:44.000Z</time>
      </trkpt>
      <trkpt lat="47.32169" lon="2.86799">
        <ele>148.285557</ele>
        <time>2021-09-10T06:55:49.000Z</time>
      </trkpt>
      <trkpt lat="47.32124" lon="2.86827">
        <ele>148.328049</ele>
        <time>2021-09-10T06:55:57.000Z</time>
      </trkpt>
      <trkpt lat="47.32086" lon="2.86854">
        <ele>148.324193</ele>
        <time>2021-09-10T06:56:04.000Z</time>
      </trkpt>
      <trkpt lat="47.32038" lon="2.86889">
        <ele>148.314289</ele>
        <time>2021-09-10T06:56:12.000Z</time>
      </trkpt>
      <trkpt lat="47.31997" lon="2.86924">
        <ele>148.305626</ele>
        <time>2021-09-10T06:56:19.000Z</time>
      </trkpt>
      <trkpt lat="47.31956" lon="2.86971">
        <ele>148.289899</ele>
        <time>2021-09-10T06:56:27.000Z</time>
      </trkpt>
      <trkpt lat="47.31932" lon="2.87">
        <ele>148.267484</ele>
        <time>2021-09-10T06:56:32.000Z</time>
      </trkpt>
      <trkpt lat="47.31922" lon="2.87012">
        <ele>148.258831</ele>
        <time>2021-09-10T06:56:34.000Z</time>
      </trkpt>
      <trkpt lat="47.3191" lon="2.87019">
        <ele>148.249119</ele>
        <time>2021-09-10T06:56:36.000Z</time>
      </trkpt>
      <trkpt lat="47.31892" lon="2.87027">
        <ele>148.235959</ele>
        <time>2021-09-10T06:56:39.000Z</time>
      </trkpt>
      <trkpt lat="47.31862" lon="2.8704">
        <ele>148.2131</ele>
        <time>2021-09-10T06:56:44.000Z</time>
      </trkpt>
      <trkpt lat="47.31851" lon="2.8705">
        <ele>148.204451</ele>
        <time>2021-09-10T06:56:46.000Z</time>
      </trkpt>
      <trkpt lat="47.31816" lon="2.87088">
        <ele>148.172984</ele>
        <time>2021-09-10T06:56:53.000Z</time>
      </trkpt>
      <trkpt lat="47.3178" lon="2.87129">
        <ele>148.149408</ele>
        <time>2021-09-10T06:57:00.000Z</time>
      </trkpt>
      <trkpt lat="47.31753" lon="2.8718">
        <ele>148.1278</ele>
        <time>2021-09-10T06:57:07.000Z</time>
      </trkpt>
      <trkpt lat="47.31723" lon="2.87237">
        <ele>148.103832</ele>
        <time>2021-09-10T06:57:15.000Z</time>
      </trkpt>
      <trkpt lat="47.3172" lon="2.87243">
        <ele>148.101056</ele>
        <time>2021-09-10T06:57:16.000Z</time>
      </trkpt>
      <trkpt lat="47.31709" lon="2.87264">
        <ele>148.092291</ele>
        <time>2021-09-10T06:57:19.000Z</time>
      </trkpt>
      <trkpt lat="47.3168" lon="2.87316">
        <ele>148.036149</ele>
        <time>2021-09-10T06:57:27.000Z</time>
      </trkpt>
      <trkpt lat="47.31661" lon="2.87349">
        <ele>147.979256</ele>
        <time>2021-09-10T06:57:32.000Z</time>
      </trkpt>
      <trkpt lat="47.31639" lon="2.87412">
        <ele>147.883354</ele>
        <time>2021-09-10T06:57:40.000Z</time>
      </trkpt>
      <trkpt lat="47.31626" lon="2.87448">
        <ele>147.828684</ele>
        <time>2021-09-10T06:57:45.000Z</time>
      </trkpt>
      <trkpt lat="47.31609" lon="2.87483">
        <ele>147.770576</ele>
        <time>2021-09-10T06:57:50.000Z</time>
      </trkpt>
      <trkpt lat="47.31592" lon="2.87523">
        <ele>147.688231</ele>
        <time>2021-09-10T06:57:55.000Z</time>
      </trkpt>
      <trkpt lat="47.31585" lon="2.8754">
        <ele>147.633978</ele>
        <time>2021-09-10T06:57:57.000Z</time>
      </trkpt>
      <trkpt lat="47.31571" lon="2.87579">
        <ele>147.50935</ele>
        <time>2021-09-10T06:58:02.000Z</time>
      </trkpt>
      <trkpt lat="47.31556" lon="2.87619">
        <ele>147.379331</ele>
        <time>2021-09-10T06:58:07.000Z</time>
      </trkpt>
      <trkpt lat="47.31553" lon="2.87628">
        <ele>147.352427</ele>
        <time>2021-09-10T06:58:08.000Z</time>
      </trkpt>
      <trkpt lat="47.31546" lon="2.87644">
        <ele>147.299807</ele>
        <time>2021-09-10T06:58:10.000Z</time>
      </trkpt>
      <trkpt lat="47.31542" lon="2.87651">
        <ele>147.272785</ele>
        <time>2021-09-10T06:58:11.000Z</time>
      </trkpt>
      <trkpt lat="47.31511" lon="2.87687">
        <ele>147.107576</ele>
        <time>2021-09-10T06:58:17.000Z</time>
      </trkpt>
      <trkpt lat="47.31482" lon="2.87738">
        <ele>147.025079</ele>
        <time>2021-09-10T06:58:24.000Z</time>
      </trkpt>
      <trkpt lat="47.31449" lon="2.87805">
        <ele>147.224835</ele>
        <time>2021-09-10T06:58:33.000Z</time>
      </trkpt>
      <trkpt lat="47.31427" lon="2.87851">
        <ele>147.358098</ele>
        <time>2021-09-10T06:58:39.000Z</time>
      </trkpt>
      <trkpt lat="47.31407" lon="2.87914">
        <ele>147.525358</ele>
        <time>2021-09-10T06:58:46.000Z</time>
      </trkpt>
      <trkpt lat="47.31388" lon="2.87977">
        <ele>147.67316</ele>
        <time>2021-09-10T06:58:53.000Z</time>
      </trkpt>
      <trkpt lat="47.3137" lon="2.88028">
        <ele>147.774482</ele>
        <time>2021-09-10T06:58:59.000Z</time>
      </trkpt>
      <trkpt lat="47.31354" lon="2.88067">
        <ele>147.857151</ele>
        <time>2021-09-10T06:59:04.000Z</time>
      </trkpt>
      <trkpt lat="47.31348" lon="2.8808">
        <ele>147.886353</ele>
        <time>2021-09-10T06:59:06.000Z</time>
      </trkpt>
      <trkpt lat="47.31342" lon="2.88094">
        <ele>147.915098</ele>
        <time>2021-09-10T06:59:08.000Z</time>
      </trkpt>
      <trkpt lat="47.31339" lon="2.88102">
        <ele>147.931634</ele>
        <time>2021-09-10T06:59:09.000Z</time>
      </trkpt>
      <trkpt lat="47.31326" lon="2.88133">
        <ele>147.998212</ele>
        <time>2021-09-10T06:59:13.000Z</time>
      </trkpt>
      <trkpt lat="47.31305" lon="2.88179">
        <ele>148.09073</ele>
        <time>2021-09-10T06:59:19.000Z</time>
      </trkpt>
      <trkpt lat="47.31294" lon="2.88201">
        <ele>148.084662</ele>
        <time>2021-09-10T06:59:22.000Z</time>
      </trkpt>
      <trkpt lat="47.3129" lon="2.88208">
        <ele>148.082753</ele>
        <time>2021-09-10T06:59:23.000Z</time>
      </trkpt>
      <trkpt lat="47.31262" lon="2.88266">
        <ele>148.067406</ele>
        <time>2021-09-10T06:59:30.000Z</time>
      </trkpt>
      <trkpt lat="47.31242" lon="2.88316">
        <ele>148.054611</ele>
        <time>2021-09-10T06:59:36.000Z</time>
      </trkpt>
      <trkpt lat="47.31216" lon="2.88382">
        <ele>148.037958</ele>
        <time>2021-09-10T06:59:44.000Z</time>
      </trkpt>
      <trkpt lat="47.31189" lon="2.88448">
        <ele>148.137581</ele>
        <time>2021-09-10T06:59:52.000Z</time>
      </trkpt>
      <trkpt lat="47.31177" lon="2.88469">
        <ele>148.187191</ele>
        <time>2021-09-10T06:59:55.000Z</time>
      </trkpt>
      <trkpt lat="47.3117" lon="2.88483">
        <ele>148.217807</ele>
        <time>2021-09-10T06:59:57.000Z</time>
      </trkpt>
      <trkpt lat="47.31156" lon="2.88484">
        <ele>148.256778</ele>
        <time>2021-09-10T06:59:59.000Z</time>
      </trkpt>
      <trkpt lat="47.31151" lon="2.88482">
        <ele>148.27155</ele>
        <time>2021-09-10T07:00:00.000Z</time>
      </trkpt>
      <trkpt lat="47.3114" lon="2.88479">
        <ele>148.300043</ele>
        <time>2021-09-10T07:00:02.000Z</time>
      </trkpt>
      <trkpt lat="47.31128" lon="2.88485">
        <ele>148.333147</ele>
        <time>2021-09-10T07:00:04.000Z</time>
      </trkpt>
      <trkpt lat="47.31127" lon="2.88502">
        <ele>148.363385</ele>
        <time>2021-09-10T07:00:06.000Z</time>
      </trkpt>
      <trkpt lat="47.31126" lon="2.8852">
        <ele>148.396362</ele>
        <time>2021-09-10T07:00:08.000Z</time>
      </trkpt>
      <trkpt lat="47.31119" lon="2.88603">
        <ele>148.497351</ele>
        <time>2021-09-10T07:00:17.000Z</time>
      </trkpt>
      <trkpt lat="47.31118" lon="2.88612">
        <ele>148.487495</ele>
        <time>2021-09-10T07:00:18.000Z</time>
      </trkpt>
      <trkpt lat="47.31111" lon="2.88697">
        <ele>148.398191</ele>
        <time>2021-09-10T07:00:27.000Z</time>
      </trkpt>
      <trkpt lat="47.31105" lon="2.88771">
        <ele>148.321155</ele>
        <time>2021-09-10T07:00:35.000Z</time>
      </trkpt>
      <trkpt lat="47.31097" lon="2.88837">
        <ele>148.251404</ele>
        <time>2021-09-10T07:00:42.000Z</time>
      </trkpt>
      <trkpt lat="47.31087" lon="2.88889">
        <ele>148.233024</ele>
        <time>2021-09-10T07:00:48.000Z</time>
      </trkpt>
      <trkpt lat="47.31073" lon="2.88956">
        <ele>148.221656</ele>
        <time>2021-09-10T07:00:56.000Z</time>
      </trkpt>
      <trkpt lat="47.31071" lon="2.88965">
        <ele>148.220207</ele>
        <time>2021-09-10T07:00:57.000Z</time>
      </trkpt>
      <trkpt lat="47.31066" lon="2.8899">
        <ele>148.215976</ele>
        <time>2021-09-10T07:01:00.000Z</time>
      </trkpt>
      <trkpt lat="47.31058" lon="2.89013">
        <ele>148.211709</ele>
        <time>2021-09-10T07:01:03.000Z</time>
      </trkpt>
      <trkpt lat="47.31049" lon="2.89035">
        <ele>148.207505</ele>
        <time>2021-09-10T07:01:06.000Z</time>
      </trkpt>
      <trkpt lat="47.31046" lon="2.89042">
        <ele>148.20613</ele>
        <time>2021-09-10T07:01:07.000Z</time>
      </trkpt>
      <trkpt lat="47.31037" lon="2.89062">
        <ele>148.202223</ele>
        <time>2021-09-10T07:01:10.000Z</time>
      </trkpt>
      <trkpt lat="47.31021" lon="2.89099">
        <ele>148.223883</ele>
        <time>2021-09-10T07:01:15.000Z</time>
      </trkpt>
      <trkpt lat="47.31006" lon="2.89137">
        <ele>148.326561</ele>
        <time>2021-09-10T07:01:20.000Z</time>
      </trkpt>
      <trkpt lat="47.30977" lon="2.89201">
        <ele>148.506158</ele>
        <time>2021-09-10T07:01:28.000Z</time>
      </trkpt>
      <trkpt lat="47.30956" lon="2.89247">
        <ele>148.638301</ele>
        <time>2021-09-10T07:01:34.000Z</time>
      </trkpt>
      <trkpt lat="47.30945" lon="2.8927">
        <ele>148.702044</ele>
        <time>2021-09-10T07:01:37.000Z</time>
      </trkpt>
      <trkpt lat="47.30935" lon="2.89292">
        <ele>148.766588</ele>
        <time>2021-09-10T07:01:40.000Z</time>
      </trkpt>
      <trkpt lat="47.30925" lon="2.89312">
        <ele>148.820228</ele>
        <time>2021-09-10T07:01:43.000Z</time>
      </trkpt>
      <trkpt lat="47.30918" lon="2.89325">
        <ele>148.822876</ele>
        <time>2021-09-10T07:01:45.000Z</time>
      </trkpt>
      <trkpt lat="47.30915" lon="2.89332">
        <ele>148.824152</ele>
        <time>2021-09-10T07:01:46.000Z</time>
      </trkpt>
      <trkpt lat="47.30909" lon="2.89345">
        <ele>148.8268</ele>
        <time>2021-09-10T07:01:48.000Z</time>
      </trkpt>
      <trkpt lat="47.30898" lon="2.89363">
        <ele>148.830723</ele>
        <time>2021-09-10T07:01:51.000Z</time>
      </trkpt>
      <trkpt lat="47.30895" lon="2.89368">
        <ele>148.831937</ele>
        <time>2021-09-10T07:01:52.000Z</time>
      </trkpt>
      <trkpt lat="47.30881" lon="2.89387">
        <ele>148.836509</ele>
        <time>2021-09-10T07:01:55.000Z</time>
      </trkpt>
      <trkpt lat="47.30855" lon="2.89422">
        <ele>148.84497</ele>
        <time>2021-09-10T07:02:00.000Z</time>
      </trkpt>
      <trkpt lat="47.3083" lon="2.89456">
        <ele>148.853224</ele>
        <time>2021-09-10T07:02:05.000Z</time>
      </trkpt>
      <trkpt lat="47.30825" lon="2.89463">
        <ele>148.854771</ele>
        <time>2021-09-10T07:02:06.000Z</time>
      </trkpt>
      <trkpt lat="47.30802" lon="2.89495">
        <ele>148.862448</ele>
        <time>2021-09-10T07:02:11.000Z</time>
      </trkpt>
      <trkpt lat="47.30799" lon="2.89502">
        <ele>148.868063</ele>
        <time>2021-09-10T07:02:12.000Z</time>
      </trkpt>
      <trkpt lat="47.30789" lon="2.89522">
        <ele>148.899337</ele>
        <time>2021-09-10T07:02:15.000Z</time>
      </trkpt>
      <trkpt lat="47.30772" lon="2.8956">
        <ele>148.957113</ele>
        <time>2021-09-10T07:02:20.000Z</time>
      </trkpt>
      <trkpt lat="47.30769" lon="2.89567">
        <ele>148.968669</ele>
        <time>2021-09-10T07:02:21.000Z</time>
      </trkpt>
      <trkpt lat="47.30755" lon="2.89596">
        <ele>149.013619</ele>
        <time>2021-09-10T07:02:25.000Z</time>
      </trkpt>
      <trkpt lat="47.3074" lon="2.89635">
        <ele>149.071535</ele>
        <time>2021-09-10T07:02:30.000Z</time>
      </trkpt>
      <trkpt lat="47.30736" lon="2.89651">
        <ele>149.093802</ele>
        <time>2021-09-10T07:02:32.000Z</time>
      </trkpt>
      <trkpt lat="47.30732" lon="2.89665">
        <ele>149.112729</ele>
        <time>2021-09-10T07:02:34.000Z</time>
      </trkpt>
      <trkpt lat="47.3073" lon="2.89673">
        <ele>149.123224</ele>
        <time>2021-09-10T07:02:35.000Z</time>
      </trkpt>
      <trkpt lat="47.3072" lon="2.89706">
        <ele>149.17003</ele>
        <time>2021-09-10T07:02:39.000Z</time>
      </trkpt>
      <trkpt lat="47.3071" lon="2.89728">
        <ele>149.203775</ele>
        <time>2021-09-10T07:02:42.000Z</time>
      </trkpt>
      <trkpt lat="47.30703" lon="2.89743">
        <ele>149.270888</ele>
        <time>2021-09-10T07:02:44.000Z</time>
      </trkpt>
      <trkpt lat="47.30681" lon="2.89792">
        <ele>149.485819</ele>
        <time>2021-09-10T07:02:50.000Z</time>
      </trkpt>
      <trkpt lat="47.30672" lon="2.89814">
        <ele>149.581643</ele>
        <time>2021-09-10T07:02:53.000Z</time>
      </trkpt>
      <trkpt lat="47.30669" lon="2.89821">
        <ele>149.610364</ele>
        <time>2021-09-10T07:02:54.000Z</time>
      </trkpt>
      <trkpt lat="47.30663" lon="2.89833">
        <ele>149.662359</ele>
        <time>2021-09-10T07:02:56.000Z</time>
      </trkpt>
      <trkpt lat="47.3066" lon="2.89839">
        <ele>149.69168</ele>
        <time>2021-09-10T07:02:57.000Z</time>
      </trkpt>
      <trkpt lat="47.3064" lon="2.89885">
        <ele>149.892383</ele>
        <time>2021-09-10T07:03:03.000Z</time>
      </trkpt>
      <trkpt lat="47.30632" lon="2.89901">
        <ele>149.962831</ele>
        <time>2021-09-10T07:03:05.000Z</time>
      </trkpt>
      <trkpt lat="47.30621" lon="2.89923">
        <ele>150.060783</ele>
        <time>2021-09-10T07:03:07.000Z</time>
      </trkpt>
      <trkpt lat="47.306" lon="2.89968">
        <ele>150.216956</ele>
        <time>2021-09-10T07:03:12.000Z</time>
      </trkpt>
      <trkpt lat="47.30596" lon="2.89976">
        <ele>150.235912</ele>
        <time>2021-09-10T07:03:13.000Z</time>
      </trkpt>
      <trkpt lat="47.30592" lon="2.89985">
        <ele>150.255171</ele>
        <time>2021-09-10T07:03:14.000Z</time>
      </trkpt>
      <trkpt lat="47.30577" lon="2.90018">
        <ele>150.327658</ele>
        <time>2021-09-10T07:03:18.000Z</time>
      </trkpt>
      <trkpt lat="47.30544" lon="2.9009">
        <ele>150.486889</ele>
        <time>2021-09-10T07:03:27.000Z</time>
      </trkpt>
      <trkpt lat="47.30516" lon="2.90151">
        <ele>150.621553</ele>
        <time>2021-09-10T07:03:35.000Z</time>
      </trkpt>
      <trkpt lat="47.30485" lon="2.9022">
        <ele>150.831457</ele>
        <time>2021-09-10T07:03:44.000Z</time>
      </trkpt>
      <trkpt lat="47.30478" lon="2.90236">
        <ele>150.882585</ele>
        <time>2021-09-10T07:03:46.000Z</time>
      </trkpt>
      <trkpt lat="47.30468" lon="2.9025">
        <ele>150.937372</ele>
        <time>2021-09-10T07:03:48.000Z</time>
      </trkpt>
      <trkpt lat="47.30456" lon="2.90254">
        <ele>150.988704</ele>
        <time>2021-09-10T07:03:50.000Z</time>
      </trkpt>
      <trkpt lat="47.30437" lon="2.9026">
        <ele>151.06433</ele>
        <time>2021-09-10T07:03:53.000Z</time>
      </trkpt>
      <trkpt lat="47.30428" lon="2.90266">
        <ele>151.106883</ele>
        <time>2021-09-10T07:03:55.000Z</time>
      </trkpt>
      <trkpt lat="47.30428" lon="2.9028">
        <ele>151.1458</ele>
        <time>2021-09-10T07:03:56.000Z</time>
      </trkpt>
      <trkpt lat="47.3043" lon="2.90286">
        <ele>151.16385</ele>
        <time>2021-09-10T07:03:57.000Z</time>
      </trkpt>
      <trkpt lat="47.30435" lon="2.90298">
        <ele>151.20039</ele>
        <time>2021-09-10T07:03:59.000Z</time>
      </trkpt>
      <trkpt lat="47.30437" lon="2.90304">
        <ele>151.220228</ele>
        <time>2021-09-10T07:04:00.000Z</time>
      </trkpt>
      <trkpt lat="47.30441" lon="2.90312">
        <ele>151.247757</ele>
        <time>2021-09-10T07:04:01.000Z</time>
      </trkpt>
      <trkpt lat="47.30449" lon="2.90333">
        <ele>151.312706</ele>
        <time>2021-09-10T07:04:03.000Z</time>
      </trkpt>
      <trkpt lat="47.30472" lon="2.90387">
        <ele>151.285763</ele>
        <time>2021-09-10T07:04:09.000Z</time>
      </trkpt>
      <trkpt lat="47.30501" lon="2.90458">
        <ele>151.08927</ele>
        <time>2021-09-10T07:04:17.000Z</time>
      </trkpt>
      <trkpt lat="47.30504" lon="2.90466">
        <ele>151.065138</ele>
        <time>2021-09-10T07:04:18.000Z</time>
      </trkpt>
      <trkpt lat="47.30525" lon="2.90518">
        <ele>150.922267</ele>
        <time>2021-09-10T07:04:24.000Z</time>
      </trkpt>
      <trkpt lat="47.30532" lon="2.90534">
        <ele>150.876166</ele>
        <time>2021-09-10T07:04:26.000Z</time>
      </trkpt>
      <trkpt lat="47.30554" lon="2.90589">
        <ele>150.725728</ele>
        <time>2021-09-10T07:04:33.000Z</time>
      </trkpt>
      <trkpt lat="47.30582" lon="2.90655">
        <ele>150.55204</ele>
        <time>2021-09-10T07:04:41.000Z</time>
      </trkpt>
      <trkpt lat="47.30605" lon="2.90713">
        <ele>150.399515</ele>
        <time>2021-09-10T07:04:48.000Z</time>
      </trkpt>
      <trkpt lat="47.30632" lon="2.90777">
        <ele>150.230458</ele>
        <time>2021-09-10T07:04:56.000Z</time>
      </trkpt>
      <trkpt lat="47.30658" lon="2.90841">
        <ele>150.125281</ele>
        <time>2021-09-10T07:05:04.000Z</time>
      </trkpt>
      <trkpt lat="47.30679" lon="2.90892">
        <ele>150.085265</ele>
        <time>2021-09-10T07:05:10.000Z</time>
      </trkpt>
      <trkpt lat="47.30698" lon="2.90939">
        <ele>150.048377</ele>
        <time>2021-09-10T07:05:16.000Z</time>
      </trkpt>
      <trkpt lat="47.30705" lon="2.90954">
        <ele>150.036322</ele>
        <time>2021-09-10T07:05:18.000Z</time>
      </trkpt>
      <trkpt lat="47.3071" lon="2.90968">
        <ele>150.024992</ele>
        <time>2021-09-10T07:05:20.000Z</time>
      </trkpt>
      <trkpt lat="47.30718" lon="2.90988">
        <ele>150.009868</ele>
        <time>2021-09-10T07:05:22.000Z</time>
      </trkpt>
      <trkpt lat="47.30711" lon="2.91029">
        <ele>149.98111</ele>
        <time>2021-09-10T07:05:28.000Z</time>
      </trkpt>
      <trkpt lat="47.30701" lon="2.91071">
        <ele>150.035503</ele>
        <time>2021-09-10T07:05:34.000Z</time>
      </trkpt>
      <trkpt lat="47.3067" lon="2.91127">
        <ele>150.17278</ele>
        <time>2021-09-10T07:05:41.000Z</time>
      </trkpt>
      <trkpt lat="47.30643" lon="2.91161">
        <ele>150.270658</ele>
        <time>2021-09-10T07:05:47.000Z</time>
      </trkpt>
      <trkpt lat="47.30622" lon="2.91177">
        <ele>150.33789</ele>
        <time>2021-09-10T07:05:51.000Z</time>
      </trkpt>
      <trkpt lat="47.30617" lon="2.91181">
        <ele>150.353967</ele>
        <time>2021-09-10T07:05:52.000Z</time>
      </trkpt>
      <trkpt lat="47.30592" lon="2.912">
        <ele>150.432167</ele>
        <time>2021-09-10T07:05:57.000Z</time>
      </trkpt>
      <trkpt lat="47.30577" lon="2.91211">
        <ele>150.479175</ele>
        <time>2021-09-10T07:06:00.000Z</time>
      </trkpt>
      <trkpt lat="47.30567" lon="2.91219">
        <ele>150.501854</ele>
        <time>2021-09-10T07:06:02.000Z</time>
      </trkpt>
      <trkpt lat="47.30539" lon="2.9124">
        <ele>150.563424</ele>
        <time>2021-09-10T07:06:07.000Z</time>
      </trkpt>
      <trkpt lat="47.30527" lon="2.91248">
        <ele>150.589249</ele>
        <time>2021-09-10T07:06:09.000Z</time>
      </trkpt>
      <trkpt lat="47.30511" lon="2.91262">
        <ele>150.627152</ele>
        <time>2021-09-10T07:06:12.000Z</time>
      </trkpt>
      <trkpt lat="47.305" lon="2.91272">
        <ele>150.652328</ele>
        <time>2021-09-10T07:06:14.000Z</time>
      </trkpt>
      <trkpt lat="47.30484" lon="2.91289">
        <ele>150.691411</ele>
        <time>2021-09-10T07:06:17.000Z</time>
      </trkpt>
      <trkpt lat="47.30473" lon="2.91299">
        <ele>150.716826</ele>
        <time>2021-09-10T07:06:19.000Z</time>
      </trkpt>
      <trkpt lat="47.30458" lon="2.91314">
        <ele>150.753435</ele>
        <time>2021-09-10T07:06:22.000Z</time>
      </trkpt>
      <trkpt lat="47.30428" lon="2.91347">
        <ele>150.826432</ele>
        <time>2021-09-10T07:06:28.000Z</time>
      </trkpt>
      <trkpt lat="47.30404" lon="2.91375">
        <ele>150.926836</ele>
        <time>2021-09-10T07:06:33.000Z</time>
      </trkpt>
      <trkpt lat="47.30395" lon="2.91386">
        <ele>150.966719</ele>
        <time>2021-09-10T07:06:35.000Z</time>
      </trkpt>
      <trkpt lat="47.30387" lon="2.91395">
        <ele>151.001627</ele>
        <time>2021-09-10T07:06:37.000Z</time>
      </trkpt>
      <trkpt lat="47.30379" lon="2.91405">
        <ele>151.038331</ele>
        <time>2021-09-10T07:06:39.000Z</time>
      </trkpt>
      <trkpt lat="47.30374" lon="2.91411">
        <ele>151.058892</ele>
        <time>2021-09-10T07:06:40.000Z</time>
      </trkpt>
      <trkpt lat="47.30369" lon="2.91416">
        <ele>151.080011</ele>
        <time>2021-09-10T07:06:41.000Z</time>
      </trkpt>
      <trkpt lat="47.3036" lon="2.91428">
        <ele>151.122784</ele>
        <time>2021-09-10T07:06:43.000Z</time>
      </trkpt>
      <trkpt lat="47.30355" lon="2.91434">
        <ele>151.144728</ele>
        <time>2021-09-10T07:06:44.000Z</time>
      </trkpt>
      <trkpt lat="47.30331" lon="2.91462">
        <ele>151.249741</ele>
        <time>2021-09-10T07:06:49.000Z</time>
      </trkpt>
      <trkpt lat="47.30326" lon="2.91467">
        <ele>151.27086</ele>
        <time>2021-09-10T07:06:50.000Z</time>
      </trkpt>
      <trkpt lat="47.30307" lon="2.9149">
        <ele>151.355044</ele>
        <time>2021-09-10T07:06:54.000Z</time>
      </trkpt>
      <trkpt lat="47.30267" lon="2.91542">
        <ele>151.62058</ele>
        <time>2021-09-10T07:07:02.000Z</time>
      </trkpt>
      <trkpt lat="47.30247" lon="2.91568">
        <ele>151.797011</ele>
        <time>2021-09-10T07:07:06.000Z</time>
      </trkpt>
      <trkpt lat="47.30238" lon="2.9158">
        <ele>151.882354</ele>
        <time>2021-09-10T07:07:08.000Z</time>
      </trkpt>
      <trkpt lat="47.30215" lon="2.9161">
        <ele>152.090826</ele>
        <time>2021-09-10T07:07:13.000Z</time>
      </trkpt>
      <trkpt lat="47.30191" lon="2.91641">
        <ele>152.303432</ele>
        <time>2021-09-10T07:07:18.000Z</time>
      </trkpt>
      <trkpt lat="47.30186" lon="2.91648">
        <ele>152.345852</ele>
        <time>2021-09-10T07:07:19.000Z</time>
      </trkpt>
      <trkpt lat="47.30158" lon="2.91684">
        <ele>152.597855</ele>
        <time>2021-09-10T07:07:25.000Z</time>
      </trkpt>
      <trkpt lat="47.30154" lon="2.9169">
        <ele>152.638866</ele>
        <time>2021-09-10T07:07:26.000Z</time>
      </trkpt>
      <trkpt lat="47.30139" lon="2.91707">
        <ele>152.836851</ele>
        <time>2021-09-10T07:07:29.000Z</time>
      </trkpt>
      <trkpt lat="47.30133" lon="2.91712">
        <ele>152.910299</ele>
        <time>2021-09-10T07:07:30.000Z</time>
      </trkpt>
      <trkpt lat="47.30117" lon="2.9173">
        <ele>153.1347</ele>
        <time>2021-09-10T07:07:33.000Z</time>
      </trkpt>
      <trkpt lat="47.30087" lon="2.91762">
        <ele>153.546548</ele>
        <time>2021-09-10T07:07:39.000Z</time>
      </trkpt>
      <trkpt lat="47.30078" lon="2.91772">
        <ele>153.674975</ele>
        <time>2021-09-10T07:07:41.000Z</time>
      </trkpt>
      <trkpt lat="47.30059" lon="2.91791">
        <ele>153.934165</ele>
        <time>2021-09-10T07:07:45.000Z</time>
      </trkpt>
      <trkpt lat="47.3003" lon="2.91821">
        <ele>154.329885</ele>
        <time>2021-09-10T07:07:51.000Z</time>
      </trkpt>
      <trkpt lat="47.3002" lon="2.91831">
        <ele>154.46284</ele>
        <time>2021-09-10T07:07:53.000Z</time>
      </trkpt>
      <trkpt lat="47.30011" lon="2.91842">
        <ele>154.598063</ele>
        <time>2021-09-10T07:07:55.000Z</time>
      </trkpt>
      <trkpt lat="47.30002" lon="2.91851">
        <ele>154.708128</ele>
        <time>2021-09-10T07:07:57.000Z</time>
      </trkpt>
      <trkpt lat="47.29991" lon="2.91862">
        <ele>154.812662</ele>
        <time>2021-09-10T07:07:59.000Z</time>
      </trkpt>
      <trkpt lat="47.29971" lon="2.91882">
        <ele>155.015455</ele>
        <time>2021-09-10T07:08:03.000Z</time>
      </trkpt>
      <trkpt lat="47.29967" lon="2.91887">
        <ele>155.05946</ele>
        <time>2021-09-10T07:08:04.000Z</time>
      </trkpt>
      <trkpt lat="47.29952" lon="2.91902">
        <ele>155.204028</ele>
        <time>2021-09-10T07:08:07.000Z</time>
      </trkpt>
      <trkpt lat="47.29941" lon="2.91914">
        <ele>155.317498</ele>
        <time>2021-09-10T07:08:09.000Z</time>
      </trkpt>
      <trkpt lat="47.29909" lon="2.91947">
        <ele>155.640711</ele>
        <time>2021-09-10T07:08:15.000Z</time>
      </trkpt>
      <trkpt lat="47.29904" lon="2.91952">
        <ele>155.689008</ele>
        <time>2021-09-10T07:08:16.000Z</time>
      </trkpt>
      <trkpt lat="47.29883" lon="2.91974">
        <ele>155.900737</ele>
        <time>2021-09-10T07:08:20.000Z</time>
      </trkpt>
      <trkpt lat="47.29845" lon="2.92014">
        <ele>156.267574</ele>
        <time>2021-09-10T07:08:27.000Z</time>
      </trkpt>
      <trkpt lat="47.29822" lon="2.92041">
        <ele>156.484903</ele>
        <time>2021-09-10T07:08:32.000Z</time>
      </trkpt>
      <trkpt lat="47.29804" lon="2.92066">
        <ele>156.664168</ele>
        <time>2021-09-10T07:08:36.000Z</time>
      </trkpt>
      <trkpt lat="47.29793" lon="2.92087">
        <ele>156.800165</ele>
        <time>2021-09-10T07:08:39.000Z</time>
      </trkpt>
      <trkpt lat="47.29785" lon="2.92101">
        <ele>156.890398</ele>
        <time>2021-09-10T07:08:41.000Z</time>
      </trkpt>
      <trkpt lat="47.2977" lon="2.9213">
        <ele>157.070473</ele>
        <time>2021-09-10T07:08:45.000Z</time>
      </trkpt>
      <trkpt lat="47.29763" lon="2.92143">
        <ele>157.154088</ele>
        <time>2021-09-10T07:08:47.000Z</time>
      </trkpt>
      <trkpt lat="47.29751" lon="2.92166">
        <ele>157.29502</ele>
        <time>2021-09-10T07:08:50.000Z</time>
      </trkpt>
      <trkpt lat="47.29742" lon="2.92182">
        <ele>157.397198</ele>
        <time>2021-09-10T07:08:52.000Z</time>
      </trkpt>
      <trkpt lat="47.29729" lon="2.92206">
        <ele>157.552423</ele>
        <time>2021-09-10T07:08:55.000Z</time>
      </trkpt>
      <trkpt lat="47.29717" lon="2.92229">
        <ele>157.705045</ele>
        <time>2021-09-10T07:08:58.000Z</time>
      </trkpt>
      <trkpt lat="47.29703" lon="2.92251">
        <ele>157.857954</ele>
        <time>2021-09-10T07:09:01.000Z</time>
      </trkpt>
      <trkpt lat="47.29693" lon="2.92264">
        <ele>157.955503</ele>
        <time>2021-09-10T07:09:03.000Z</time>
      </trkpt>
      <trkpt lat="47.29659" lon="2.92306">
        <ele>158.293018</ele>
        <time>2021-09-10T07:09:10.000Z</time>
      </trkpt>
      <trkpt lat="47.29649" lon="2.92318">
        <ele>158.386616</ele>
        <time>2021-09-10T07:09:12.000Z</time>
      </trkpt>
      <trkpt lat="47.2964" lon="2.9233">
        <ele>158.48112</ele>
        <time>2021-09-10T07:09:14.000Z</time>
      </trkpt>
      <trkpt lat="47.29601" lon="2.92377">
        <ele>158.835471</ele>
        <time>2021-09-10T07:09:22.000Z</time>
      </trkpt>
      <trkpt lat="47.29571" lon="2.92414">
        <ele>158.930119</ele>
        <time>2021-09-10T07:09:28.000Z</time>
      </trkpt>
      <trkpt lat="47.29543" lon="2.92454">
        <ele>159.027663</ele>
        <time>2021-09-10T07:09:34.000Z</time>
      </trkpt>
      <trkpt lat="47.29507" lon="2.92507">
        <ele>159.150092</ele>
        <time>2021-09-10T07:09:42.000Z</time>
      </trkpt>
      <trkpt lat="47.29468" lon="2.92533">
        <ele>159.256344</ele>
        <time>2021-09-10T07:09:49.000Z</time>
      </trkpt>
      <trkpt lat="47.29434" lon="2.92572">
        <ele>158.99034</ele>
        <time>2021-09-10T07:09:56.000Z</time>
      </trkpt>
      <trkpt lat="47.2939" lon="2.92625">
        <ele>158.602709</ele>
        <time>2021-09-10T07:10:05.000Z</time>
      </trkpt>
      <trkpt lat="47.29386" lon="2.92631">
        <ele>158.560655</ele>
        <time>2021-09-10T07:10:06.000Z</time>
      </trkpt>
      <trkpt lat="47.29353" lon="2.92672">
        <ele>158.265152</ele>
        <time>2021-09-10T07:10:13.000Z</time>
      </trkpt>
      <trkpt lat="47.29309" lon="2.92725">
        <ele>157.855163</ele>
        <time>2021-09-10T07:10:22.000Z</time>
      </trkpt>
      <trkpt lat="47.29295" lon="2.92743">
        <ele>157.70759</ele>
        <time>2021-09-10T07:10:25.000Z</time>
      </trkpt>
      <trkpt lat="47.29252" lon="2.92796">
        <ele>157.272161</ele>
        <time>2021-09-10T07:10:34.000Z</time>
      </trkpt>
      <trkpt lat="47.29248" lon="2.92802">
        <ele>157.222741</ele>
        <time>2021-09-10T07:10:35.000Z</time>
      </trkpt>
      <trkpt lat="47.29205" lon="2.92854">
        <ele>156.786256</ele>
        <time>2021-09-10T07:10:44.000Z</time>
      </trkpt>
      <trkpt lat="47.29194" lon="2.92862">
        <ele>156.691239</ele>
        <time>2021-09-10T07:10:46.000Z</time>
      </trkpt>
      <trkpt lat="47.29151" lon="2.92897">
        <ele>156.095649</ele>
        <time>2021-09-10T07:10:54.000Z</time>
      </trkpt>
      <trkpt lat="47.29119" lon="2.92923">
        <ele>155.621566</ele>
        <time>2021-09-10T07:11:00.000Z</time>
      </trkpt>
      <trkpt lat="47.2908" lon="2.92954">
        <ele>155.040127</ele>
        <time>2021-09-10T07:11:07.000Z</time>
      </trkpt>
      <trkpt lat="47.29034" lon="2.92991">
        <ele>154.359199</ele>
        <time>2021-09-10T07:11:15.000Z</time>
      </trkpt>
      <trkpt lat="47.29015" lon="2.93016">
        <ele>154.195691</ele>
        <time>2021-09-10T07:11:19.000Z</time>
      </trkpt>
      <trkpt lat="47.29005" lon="2.9303">
        <ele>154.147605</ele>
        <time>2021-09-10T07:11:21.000Z</time>
      </trkpt>
      <trkpt lat="47.28978" lon="2.93071">
        <ele>154.006899</ele>
        <time>2021-09-10T07:11:27.000Z</time>
      </trkpt>
      <trkpt lat="47.28942" lon="2.93127">
        <ele>153.816699</ele>
        <time>2021-09-10T07:11:35.000Z</time>
      </trkpt>
      <trkpt lat="47.28911" lon="2.93176">
        <ele>153.65089</ele>
        <time>2021-09-10T07:11:42.000Z</time>
      </trkpt>
      <trkpt lat="47.28884" lon="2.93228">
        <ele>153.633673</ele>
        <time>2021-09-10T07:11:49.000Z</time>
      </trkpt>
      <trkpt lat="47.28852" lon="2.93297">
        <ele>153.670178</ele>
        <time>2021-09-10T07:11:58.000Z</time>
      </trkpt>
      <trkpt lat="47.28822" lon="2.93342">
        <ele>153.69801</ele>
        <time>2021-09-10T07:12:05.000Z</time>
      </trkpt>
      <trkpt lat="47.28791" lon="2.93388">
        <ele>153.726058</ele>
        <time>2021-09-10T07:12:12.000Z</time>
      </trkpt>
      <trkpt lat="47.28748" lon="2.93439">
        <ele>153.829439</ele>
        <time>2021-09-10T07:12:21.000Z</time>
      </trkpt>
      <trkpt lat="47.28743" lon="2.93445">
        <ele>153.840991</ele>
        <time>2021-09-10T07:12:22.000Z</time>
      </trkpt>
      <trkpt lat="47.28724" lon="2.93468">
        <ele>153.888372</ele>
        <time>2021-09-10T07:12:26.000Z</time>
      </trkpt>
      <trkpt lat="47.28709" lon="2.93485">
        <ele>153.923886</ele>
        <time>2021-09-10T07:12:29.000Z</time>
      </trkpt>
      <trkpt lat="47.28678" lon="2.93513">
        <ele>153.995666</ele>
        <time>2021-09-10T07:12:35.000Z</time>
      </trkpt>
      <trkpt lat="47.28636" lon="2.9355">
        <ele>154.09688</ele>
        <time>2021-09-10T07:12:43.000Z</time>
      </trkpt>
      <trkpt lat="47.2861" lon="2.93574">
        <ele>154.192118</ele>
        <time>2021-09-10T07:12:48.000Z</time>
      </trkpt>
      <trkpt lat="47.28569" lon="2.93616">
        <ele>154.343067</ele>
        <time>2021-09-10T07:12:56.000Z</time>
      </trkpt>
      <trkpt lat="47.28538" lon="2.93662">
        <ele>154.476087</ele>
        <time>2021-09-10T07:13:03.000Z</time>
      </trkpt>
      <trkpt lat="47.28502" lon="2.93724">
        <ele>154.628664</ele>
        <time>2021-09-10T07:13:12.000Z</time>
      </trkpt>
      <trkpt lat="47.28477" lon="2.93766">
        <ele>154.659246</ele>
        <time>2021-09-10T07:13:18.000Z</time>
      </trkpt>
      <trkpt lat="47.28453" lon="2.93807">
        <ele>154.689183</ele>
        <time>2021-09-10T07:13:24.000Z</time>
      </trkpt>
      <trkpt lat="47.28444" lon="2.93818">
        <ele>154.69908</ele>
        <time>2021-09-10T07:13:26.000Z</time>
      </trkpt>
      <trkpt lat="47.28427" lon="2.9383">
        <ele>154.714497</ele>
        <time>2021-09-10T07:13:29.000Z</time>
      </trkpt>
      <trkpt lat="47.2838" lon="2.93861">
        <ele>154.756883</ele>
        <time>2021-09-10T07:13:37.000Z</time>
      </trkpt>
      <trkpt lat="47.28328" lon="2.93895">
        <ele>154.694109</ele>
        <time>2021-09-10T07:13:46.000Z</time>
      </trkpt>
      <trkpt lat="47.28289" lon="2.9392">
        <ele>154.615677</ele>
        <time>2021-09-10T07:13:53.000Z</time>
      </trkpt>
      <trkpt lat="47.28249" lon="2.93942">
        <ele>154.536774</ele>
        <time>2021-09-10T07:14:00.000Z</time>
      </trkpt>
      <trkpt lat="47.28203" lon="2.93969">
        <ele>154.445682</ele>
        <time>2021-09-10T07:14:08.000Z</time>
      </trkpt>
      <trkpt lat="47.28163" lon="2.93991">
        <ele>154.414314</ele>
        <time>2021-09-10T07:14:15.000Z</time>
      </trkpt>
      <trkpt lat="47.2812" lon="2.94026">
        <ele>154.384171</ele>
        <time>2021-09-10T07:14:23.000Z</time>
      </trkpt>
      <trkpt lat="47.28074" lon="2.94065">
        <ele>154.350415</ele>
        <time>2021-09-10T07:14:32.000Z</time>
      </trkpt>
      <trkpt lat="47.2804" lon="2.94081">
        <ele>154.327972</ele>
        <time>2021-09-10T07:14:38.000Z</time>
      </trkpt>
      <trkpt lat="47.28003" lon="2.94092">
        <ele>154.482523</ele>
        <time>2021-09-10T07:14:44.000Z</time>
      </trkpt>
      <trkpt lat="47.27962" lon="2.94128">
        <ele>154.693083</ele>
        <time>2021-09-10T07:14:52.000Z</time>
      </trkpt>
      <trkpt lat="47.27927" lon="2.9416">
        <ele>154.878747</ele>
        <time>2021-09-10T07:14:59.000Z</time>
      </trkpt>
      <trkpt lat="47.27891" lon="2.94192">
        <ele>155.063716</ele>
        <time>2021-09-10T07:15:06.000Z</time>
      </trkpt>
      <trkpt lat="47.27881" lon="2.94201">
        <ele>155.116513</ele>
        <time>2021-09-10T07:15:08.000Z</time>
      </trkpt>
      <trkpt lat="47.27871" lon="2.9421">
        <ele>155.166537</ele>
        <time>2021-09-10T07:15:10.000Z</time>
      </trkpt>
      <trkpt lat="47.27824" lon="2.94251">
        <ele>155.385723</ele>
        <time>2021-09-10T07:15:19.000Z</time>
      </trkpt>
      <trkpt lat="47.27775" lon="2.94284">
        <ele>155.608096</ele>
        <time>2021-09-10T07:15:28.000Z</time>
      </trkpt>
      <trkpt lat="47.27769" lon="2.94287">
        <ele>155.631709</ele>
        <time>2021-09-10T07:15:29.000Z</time>
      </trkpt>
      <trkpt lat="47.27737" lon="2.94308">
        <ele>155.773872</ele>
        <time>2021-09-10T07:15:35.000Z</time>
      </trkpt>
      <trkpt lat="47.27726" lon="2.94316">
        <ele>155.82255</ele>
        <time>2021-09-10T07:15:37.000Z</time>
      </trkpt>
      <trkpt lat="47.27704" lon="2.9433">
        <ele>155.874466</ele>
        <time>2021-09-10T07:15:41.000Z</time>
      </trkpt>
      <trkpt lat="47.27661" lon="2.94361">
        <ele>155.921083</ele>
        <time>2021-09-10T07:15:49.000Z</time>
      </trkpt>
      <trkpt lat="47.27632" lon="2.94393">
        <ele>155.955823</ele>
        <time>2021-09-10T07:15:55.000Z</time>
      </trkpt>
      <trkpt lat="47.27594" lon="2.94449">
        <ele>156.008157</ele>
        <time>2021-09-10T07:16:04.000Z</time>
      </trkpt>
      <trkpt lat="47.27555" lon="2.94505">
        <ele>156.0568</ele>
        <time>2021-09-10T07:16:13.000Z</time>
      </trkpt>
      <trkpt lat="47.27551" lon="2.94511">
        <ele>156.061825</ele>
        <time>2021-09-10T07:16:14.000Z</time>
      </trkpt>
      <trkpt lat="47.27513" lon="2.9457">
        <ele>156.107525</ele>
        <time>2021-09-10T07:16:23.000Z</time>
      </trkpt>
      <trkpt lat="47.27475" lon="2.9463">
        <ele>156.154089</ele>
        <time>2021-09-10T07:16:32.000Z</time>
      </trkpt>
      <trkpt lat="47.27471" lon="2.94637">
        <ele>156.159097</ele>
        <time>2021-09-10T07:16:33.000Z</time>
      </trkpt>
      <trkpt lat="47.27459" lon="2.94657">
        <ele>156.174287</ele>
        <time>2021-09-10T07:16:36.000Z</time>
      </trkpt>
      <trkpt lat="47.27436" lon="2.947">
        <ele>156.206353</ele>
        <time>2021-09-10T07:16:42.000Z</time>
      </trkpt>
      <trkpt lat="47.27418" lon="2.94736">
        <ele>156.232688</ele>
        <time>2021-09-10T07:16:47.000Z</time>
      </trkpt>
      <trkpt lat="47.27388" lon="2.9479">
        <ele>156.273641</ele>
        <time>2021-09-10T07:16:55.000Z</time>
      </trkpt>
      <trkpt lat="47.2738" lon="2.94803">
        <ele>156.283601</ele>
        <time>2021-09-10T07:16:57.000Z</time>
      </trkpt>
      <trkpt lat="47.2737" lon="2.94823">
        <ele>156.298468</ele>
        <time>2021-09-10T07:17:00.000Z</time>
      </trkpt>
      <trkpt lat="47.2735" lon="2.94867">
        <ele>156.329711</ele>
        <time>2021-09-10T07:17:06.000Z</time>
      </trkpt>
      <trkpt lat="47.2733" lon="2.94901">
        <ele>156.322924</ele>
        <time>2021-09-10T07:17:11.000Z</time>
      </trkpt>
      <trkpt lat="47.27326" lon="2.94907">
        <ele>156.317445</ele>
        <time>2021-09-10T07:17:12.000Z</time>
      </trkpt>
      <trkpt lat="47.27309" lon="2.94933">
        <ele>156.296239</ele>
        <time>2021-09-10T07:17:16.000Z</time>
      </trkpt>
      <trkpt lat="47.27278" lon="2.94963">
        <ele>156.264045</ele>
        <time>2021-09-10T07:17:22.000Z</time>
      </trkpt>
      <trkpt lat="47.27262" lon="2.9498">
        <ele>156.246585</ele>
        <time>2021-09-10T07:17:26.000Z</time>
      </trkpt>
      <trkpt lat="47.27258" lon="2.94984">
        <ele>156.242653</ele>
        <time>2021-09-10T07:17:27.000Z</time>
      </trkpt>
      <trkpt lat="47.27237" lon="2.95001">
        <ele>156.221311</ele>
        <time>2021-09-10T07:17:32.000Z</time>
      </trkpt>
      <trkpt lat="47.27232" lon="2.95005">
        <ele>156.216469</ele>
        <time>2021-09-10T07:17:33.000Z</time>
      </trkpt>
      <trkpt lat="47.27199" lon="2.9503">
        <ele>156.183386</ele>
        <time>2021-09-10T07:17:40.000Z</time>
      </trkpt>
      <trkpt lat="47.27179" lon="2.95044">
        <ele>156.184731</ele>
        <time>2021-09-10T07:17:44.000Z</time>
      </trkpt>
      <trkpt lat="47.27175" lon="2.95046">
        <ele>156.185432</ele>
        <time>2021-09-10T07:17:45.000Z</time>
      </trkpt>
      <trkpt lat="47.2718" lon="2.95057">
        <ele>156.186876</ele>
        <time>2021-09-10T07:17:47.000Z</time>
      </trkpt>
      <trkpt lat="47.27184" lon="2.95062">
        <ele>156.187706</ele>
        <time>2021-09-10T07:17:48.000Z</time>
      </trkpt>
      <trkpt lat="47.27207" lon="2.95086">
        <ele>156.192396</ele>
        <time>2021-09-10T07:17:53.000Z</time>
      </trkpt>
      <trkpt lat="47.27243" lon="2.95125">
        <ele>156.199617</ele>
        <time>2021-09-10T07:18:00.000Z</time>
      </trkpt>
      <trkpt lat="47.27281" lon="2.95167">
        <ele>156.207483</ele>
        <time>2021-09-10T07:18:08.000Z</time>
      </trkpt>
      <trkpt lat="47.27293" lon="2.95184">
        <ele>156.210246</ele>
        <time>2021-09-10T07:18:11.000Z</time>
      </trkpt>
      <trkpt lat="47.27296" lon="2.9519">
        <ele>156.210199</ele>
        <time>2021-09-10T07:18:12.000Z</time>
      </trkpt>
      <trkpt lat="47.27297" lon="2.95199">
        <ele>156.206177</ele>
        <time>2021-09-10T07:18:13.000Z</time>
      </trkpt>
      <trkpt lat="47.27295" lon="2.95215">
        <ele>156.198282</ele>
        <time>2021-09-10T07:18:15.000Z</time>
      </trkpt>
      <trkpt lat="47.27291" lon="2.95233">
        <ele>156.18936</ele>
        <time>2021-09-10T07:18:17.000Z</time>
      </trkpt>
      <trkpt lat="47.27286" lon="2.9525">
        <ele>156.18062</ele>
        <time>2021-09-10T07:18:19.000Z</time>
      </trkpt>
      <trkpt lat="47.27276" lon="2.95301">
        <ele>156.155273</ele>
        <time>2021-09-10T07:18:25.000Z</time>
      </trkpt>
      <trkpt lat="47.27272" lon="2.95374">
        <ele>156.120707</ele>
        <time>2021-09-10T07:18:33.000Z</time>
      </trkpt>
      <trkpt lat="47.2728" lon="2.95437">
        <ele>156.090367</ele>
        <time>2021-09-10T07:18:40.000Z</time>
      </trkpt>
      <trkpt lat="47.27295" lon="2.95508">
        <ele>156.098245</ele>
        <time>2021-09-10T07:18:48.000Z</time>
      </trkpt>
      <trkpt lat="47.27314" lon="2.95584">
        <ele>156.114483</ele>
        <time>2021-09-10T07:18:57.000Z</time>
      </trkpt>
      <trkpt lat="47.2732" lon="2.9561">
        <ele>156.119917</ele>
        <time>2021-09-10T07:19:00.000Z</time>
      </trkpt>
      <trkpt lat="47.27325" lon="2.95626">
        <ele>156.123551</ele>
        <time>2021-09-10T07:19:02.000Z</time>
      </trkpt>
      <trkpt lat="47.27324" lon="2.95645">
        <ele>156.127231</ele>
        <time>2021-09-10T07:19:04.000Z</time>
      </trkpt>
      <trkpt lat="47.27321" lon="2.95652">
        <ele>156.128951</ele>
        <time>2021-09-10T07:19:05.000Z</time>
      </trkpt>
      <trkpt lat="47.27318" lon="2.95659">
        <ele>156.130691</ele>
        <time>2021-09-10T07:19:06.000Z</time>
      </trkpt>
      <trkpt lat="47.2731" lon="2.95672">
        <ele>156.134177</ele>
        <time>2021-09-10T07:19:08.000Z</time>
      </trkpt>
      <trkpt lat="47.27278" lon="2.95716">
        <ele>156.214927</ele>
        <time>2021-09-10T07:19:15.000Z</time>
      </trkpt>
      <trkpt lat="47.27246" lon="2.9576">
        <ele>156.328127</ele>
        <time>2021-09-10T07:19:22.000Z</time>
      </trkpt>
      <trkpt lat="47.27205" lon="2.95817">
        <ele>156.477044</ele>
        <time>2021-09-10T07:19:31.000Z</time>
      </trkpt>
      <trkpt lat="47.2717" lon="2.95868">
        <ele>156.606551</ele>
        <time>2021-09-10T07:19:39.000Z</time>
      </trkpt>
      <trkpt lat="47.27138" lon="2.95914">
        <ele>156.724267</ele>
        <time>2021-09-10T07:19:46.000Z</time>
      </trkpt>
      <trkpt lat="47.27103" lon="2.95963">
        <ele>156.853075</ele>
        <time>2021-09-10T07:19:54.000Z</time>
      </trkpt>
      <trkpt lat="47.27063" lon="2.96018">
        <ele>156.996758</ele>
        <time>2021-09-10T07:20:03.000Z</time>
      </trkpt>
      <trkpt lat="47.27028" lon="2.96066">
        <ele>157.115956</ele>
        <time>2021-09-10T07:20:11.000Z</time>
      </trkpt>
      <trkpt lat="47.26992" lon="2.96116">
        <ele>157.220807</ele>
        <time>2021-09-10T07:20:19.000Z</time>
      </trkpt>
      <trkpt lat="47.26955" lon="2.96167">
        <ele>157.327367</ele>
        <time>2021-09-10T07:20:27.000Z</time>
      </trkpt>
      <trkpt lat="47.26913" lon="2.96224">
        <ele>157.448901</ele>
        <time>2021-09-10T07:20:36.000Z</time>
      </trkpt>
      <trkpt lat="47.26908" lon="2.96231">
        <ele>157.462613</ele>
        <time>2021-09-10T07:20:37.000Z</time>
      </trkpt>
      <trkpt lat="47.2687" lon="2.96284">
        <ele>157.479592</ele>
        <time>2021-09-10T07:20:45.000Z</time>
      </trkpt>
      <trkpt lat="47.26841" lon="2.96323">
        <ele>157.489916</ele>
        <time>2021-09-10T07:20:51.000Z</time>
      </trkpt>
      <trkpt lat="47.26812" lon="2.96363">
        <ele>157.50028</ele>
        <time>2021-09-10T07:20:57.000Z</time>
      </trkpt>
      <trkpt lat="47.2677" lon="2.96421">
        <ele>157.517017</ele>
        <time>2021-09-10T07:21:06.000Z</time>
      </trkpt>
      <trkpt lat="47.26765" lon="2.96428">
        <ele>157.520004</ele>
        <time>2021-09-10T07:21:07.000Z</time>
      </trkpt>
      <trkpt lat="47.26727" lon="2.96479">
        <ele>157.542917</ele>
        <time>2021-09-10T07:21:15.000Z</time>
      </trkpt>
      <trkpt lat="47.26684" lon="2.96537">
        <ele>157.568862</ele>
        <time>2021-09-10T07:21:24.000Z</time>
      </trkpt>
      <trkpt lat="47.26642" lon="2.96593">
        <ele>157.593314</ele>
        <time>2021-09-10T07:21:33.000Z</time>
      </trkpt>
      <trkpt lat="47.26638" lon="2.966">
        <ele>157.585604</ele>
        <time>2021-09-10T07:21:34.000Z</time>
      </trkpt>
      <trkpt lat="47.26594" lon="2.96659">
        <ele>157.514282</ele>
        <time>2021-09-10T07:21:43.000Z</time>
      </trkpt>
      <trkpt lat="47.26556" lon="2.96711">
        <ele>157.451301</ele>
        <time>2021-09-10T07:21:51.000Z</time>
      </trkpt>
      <trkpt lat="47.26523" lon="2.96755">
        <ele>157.397981</ele>
        <time>2021-09-10T07:21:58.000Z</time>
      </trkpt>
      <trkpt lat="47.26481" lon="2.96812">
        <ele>157.350922</ele>
        <time>2021-09-10T07:22:07.000Z</time>
      </trkpt>
      <trkpt lat="47.26449" lon="2.96856">
        <ele>157.321775</ele>
        <time>2021-09-10T07:22:14.000Z</time>
      </trkpt>
      <trkpt lat="47.26408" lon="2.96901">
        <ele>157.287643</ele>
        <time>2021-09-10T07:22:22.000Z</time>
      </trkpt>
      <trkpt lat="47.2636" lon="2.96949">
        <ele>157.262012</ele>
        <time>2021-09-10T07:22:31.000Z</time>
      </trkpt>
      <trkpt lat="47.26319" lon="2.96991">
        <ele>157.278027</ele>
        <time>2021-09-10T07:22:39.000Z</time>
      </trkpt>
      <trkpt lat="47.26284" lon="2.97026">
        <ele>157.291535</ele>
        <time>2021-09-10T07:22:46.000Z</time>
      </trkpt>
      <trkpt lat="47.26244" lon="2.97067">
        <ele>157.306936</ele>
        <time>2021-09-10T07:22:54.000Z</time>
      </trkpt>
      <trkpt lat="47.26198" lon="2.97112">
        <ele>157.330377</ele>
        <time>2021-09-10T07:23:03.000Z</time>
      </trkpt>
      <trkpt lat="47.2616" lon="2.97142">
        <ele>157.353167</ele>
        <time>2021-09-10T07:23:10.000Z</time>
      </trkpt>
      <trkpt lat="47.26155" lon="2.97146">
        <ele>157.356334</ele>
        <time>2021-09-10T07:23:11.000Z</time>
      </trkpt>
      <trkpt lat="47.26116" lon="2.97176">
        <ele>157.379193</ele>
        <time>2021-09-10T07:23:18.000Z</time>
      </trkpt>
      <trkpt lat="47.26064" lon="2.97212">
        <ele>157.409357</ele>
        <time>2021-09-10T07:23:27.000Z</time>
      </trkpt>
      <trkpt lat="47.26059" lon="2.97215">
        <ele>157.415339</ele>
        <time>2021-09-10T07:23:28.000Z</time>
      </trkpt>
      <trkpt lat="47.26008" lon="2.97248">
        <ele>157.472545</ele>
        <time>2021-09-10T07:23:37.000Z</time>
      </trkpt>
      <trkpt lat="47.25964" lon="2.97277">
        <ele>157.522631</ele>
        <time>2021-09-10T07:23:45.000Z</time>
      </trkpt>
      <trkpt lat="47.25913" lon="2.97307">
        <ele>157.579344</ele>
        <time>2021-09-10T07:23:54.000Z</time>
      </trkpt>
      <trkpt lat="47.25862" lon="2.97334">
        <ele>157.619938</ele>
        <time>2021-09-10T07:24:03.000Z</time>
      </trkpt>
      <trkpt lat="47.25807" lon="2.97358">
        <ele>157.655473</ele>
        <time>2021-09-10T07:24:12.000Z</time>
      </trkpt>
      <trkpt lat="47.2576" lon="2.97378">
        <ele>157.686271</ele>
        <time>2021-09-10T07:24:20.000Z</time>
      </trkpt>
      <trkpt lat="47.25706" lon="2.97398">
        <ele>157.718592</ele>
        <time>2021-09-10T07:24:29.000Z</time>
      </trkpt>
      <trkpt lat="47.25652" lon="2.97418">
        <ele>157.747045</ele>
        <time>2021-09-10T07:24:38.000Z</time>
      </trkpt>
      <trkpt lat="47.25599" lon="2.97438">
        <ele>157.775019</ele>
        <time>2021-09-10T07:24:47.000Z</time>
      </trkpt>
      <trkpt lat="47.25593" lon="2.97439">
        <ele>157.7782</ele>
        <time>2021-09-10T07:24:48.000Z</time>
      </trkpt>
      <trkpt lat="47.25544" lon="2.97451">
        <ele>157.811686</ele>
        <time>2021-09-10T07:24:56.000Z</time>
      </trkpt>
      <trkpt lat="47.25502" lon="2.9746">
        <ele>157.895429</ele>
        <time>2021-09-10T07:25:03.000Z</time>
      </trkpt>
      <trkpt lat="47.25454" lon="2.9747">
        <ele>157.99131</ele>
        <time>2021-09-10T07:25:11.000Z</time>
      </trkpt>
      <trkpt lat="47.25411" lon="2.97478">
        <ele>158.075948</ele>
        <time>2021-09-10T07:25:18.000Z</time>
      </trkpt>
      <trkpt lat="47.25374" lon="2.97482">
        <ele>158.148299</ele>
        <time>2021-09-10T07:25:24.000Z</time>
      </trkpt>
      <trkpt lat="47.25361" lon="2.97483">
        <ele>158.195724</ele>
        <time>2021-09-10T07:25:26.000Z</time>
      </trkpt>
      <trkpt lat="47.25305" lon="2.97484">
        <ele>158.428992</ele>
        <time>2021-09-10T07:25:35.000Z</time>
      </trkpt>
      <trkpt lat="47.25249" lon="2.97485">
        <ele>158.658953</ele>
        <time>2021-09-10T07:25:44.000Z</time>
      </trkpt>
      <trkpt lat="47.25243" lon="2.97486">
        <ele>158.684185</ele>
        <time>2021-09-10T07:25:45.000Z</time>
      </trkpt>
      <trkpt lat="47.25194" lon="2.97487">
        <ele>158.887679</ele>
        <time>2021-09-10T07:25:53.000Z</time>
      </trkpt>
      <trkpt lat="47.25138" lon="2.97488">
        <ele>158.998371</ele>
        <time>2021-09-10T07:26:02.000Z</time>
      </trkpt>
      <trkpt lat="47.25095" lon="2.97483">
        <ele>159.078503</ele>
        <time>2021-09-10T07:26:09.000Z</time>
      </trkpt>
      <trkpt lat="47.25041" lon="2.97478">
        <ele>159.182496</ele>
        <time>2021-09-10T07:26:18.000Z</time>
      </trkpt>
      <trkpt lat="47.24986" lon="2.97472">
        <ele>159.283137</ele>
        <time>2021-09-10T07:26:27.000Z</time>
      </trkpt>
      <trkpt lat="47.2498" lon="2.97472">
        <ele>159.293579</ele>
        <time>2021-09-10T07:26:28.000Z</time>
      </trkpt>
      <trkpt lat="47.24931" lon="2.97467">
        <ele>159.3803</ele>
        <time>2021-09-10T07:26:36.000Z</time>
      </trkpt>
      <trkpt lat="47.24899" lon="2.97465">
        <ele>159.435803</ele>
        <time>2021-09-10T07:26:41.000Z</time>
      </trkpt>
      <trkpt lat="47.24844" lon="2.97461">
        <ele>159.533894</ele>
        <time>2021-09-10T07:26:50.000Z</time>
      </trkpt>
      <trkpt lat="47.24838" lon="2.97461">
        <ele>159.544851</ele>
        <time>2021-09-10T07:26:51.000Z</time>
      </trkpt>
      <trkpt lat="47.24778" lon="2.97457">
        <ele>159.674343</ele>
        <time>2021-09-10T07:27:01.000Z</time>
      </trkpt>
      <trkpt lat="47.24773" lon="2.97456">
        <ele>159.687238</ele>
        <time>2021-09-10T07:27:02.000Z</time>
      </trkpt>
      <trkpt lat="47.24725" lon="2.97453">
        <ele>159.793729</ele>
        <time>2021-09-10T07:27:10.000Z</time>
      </trkpt>
      <trkpt lat="47.24683" lon="2.9745">
        <ele>159.885771</ele>
        <time>2021-09-10T07:27:17.000Z</time>
      </trkpt>
      <trkpt lat="47.24647" lon="2.97448">
        <ele>159.956638</ele>
        <time>2021-09-10T07:27:23.000Z</time>
      </trkpt>
      <trkpt lat="47.24602" lon="2.97448">
        <ele>159.984038</ele>
        <time>2021-09-10T07:27:30.000Z</time>
      </trkpt>
      <trkpt lat="47.24552" lon="2.97455">
        <ele>160.014878</ele>
        <time>2021-09-10T07:27:38.000Z</time>
      </trkpt>
      <trkpt lat="47.24503" lon="2.97463">
        <ele>160.045638</ele>
        <time>2021-09-10T07:27:46.000Z</time>
      </trkpt>
      <trkpt lat="47.24459" lon="2.97467">
        <ele>160.058811</ele>
        <time>2021-09-10T07:27:53.000Z</time>
      </trkpt>
      <trkpt lat="47.24424" lon="2.97458">
        <ele>160.048278</ele>
        <time>2021-09-10T07:27:59.000Z</time>
      </trkpt>
      <trkpt lat="47.24377" lon="2.9744">
        <ele>160.034067</ele>
        <time>2021-09-10T07:28:07.000Z</time>
      </trkpt>
      <trkpt lat="47.24343" lon="2.97427">
        <ele>160.023636</ele>
        <time>2021-09-10T07:28:13.000Z</time>
      </trkpt>
      <trkpt lat="47.24296" lon="2.97408">
        <ele>160.006415</ele>
        <time>2021-09-10T07:28:21.000Z</time>
      </trkpt>
      <trkpt lat="47.24255" lon="2.97392">
        <ele>159.956634</ele>
        <time>2021-09-10T07:28:28.000Z</time>
      </trkpt>
      <trkpt lat="47.24202" lon="2.97371">
        <ele>159.893725</ele>
        <time>2021-09-10T07:28:37.000Z</time>
      </trkpt>
      <trkpt lat="47.24156" lon="2.97352">
        <ele>159.837692</ele>
        <time>2021-09-10T07:28:45.000Z</time>
      </trkpt>
      <trkpt lat="47.24108" lon="2.97333">
        <ele>159.809344</ele>
        <time>2021-09-10T07:28:53.000Z</time>
      </trkpt>
      <trkpt lat="47.24056" lon="2.9731">
        <ele>159.834594</ele>
        <time>2021-09-10T07:29:02.000Z</time>
      </trkpt>
      <trkpt lat="47.24004" lon="2.97289">
        <ele>159.859686</ele>
        <time>2021-09-10T07:29:11.000Z</time>
      </trkpt>
      <trkpt lat="47.23961" lon="2.97285">
        <ele>159.879495</ele>
        <time>2021-09-10T07:29:18.000Z</time>
      </trkpt>
      <trkpt lat="47.23912" lon="2.97288">
        <ele>159.957103</ele>
        <time>2021-09-10T07:29:26.000Z</time>
      </trkpt>
      <trkpt lat="47.23856" lon="2.97291">
        <ele>160.062634</ele>
        <time>2021-09-10T07:29:35.000Z</time>
      </trkpt>
      <trkpt lat="47.23818" lon="2.97293">
        <ele>160.133234</ele>
        <time>2021-09-10T07:29:41.000Z</time>
      </trkpt>
      <trkpt lat="47.23806" lon="2.97294">
        <ele>160.156333</ele>
        <time>2021-09-10T07:29:43.000Z</time>
      </trkpt>
      <trkpt lat="47.23749" lon="2.97297">
        <ele>160.301468</ele>
        <time>2021-09-10T07:29:52.000Z</time>
      </trkpt>
      <trkpt lat="47.23743" lon="2.97297">
        <ele>160.323214</ele>
        <time>2021-09-10T07:29:53.000Z</time>
      </trkpt>
      <trkpt lat="47.237" lon="2.97299">
        <ele>160.479808</ele>
        <time>2021-09-10T07:30:00.000Z</time>
      </trkpt>
      <trkpt lat="47.2365" lon="2.97301">
        <ele>160.659235</ele>
        <time>2021-09-10T07:30:08.000Z</time>
      </trkpt>
      <trkpt lat="47.23596" lon="2.97303">
        <ele>160.85643</ele>
        <time>2021-09-10T07:30:17.000Z</time>
      </trkpt>
      <trkpt lat="47.2354" lon="2.97305">
        <ele>161.123754</ele>
        <time>2021-09-10T07:30:26.000Z</time>
      </trkpt>
      <trkpt lat="47.23497" lon="2.97307">
        <ele>161.33872</ele>
        <time>2021-09-10T07:30:33.000Z</time>
      </trkpt>
      <trkpt lat="47.23453" lon="2.97309">
        <ele>161.554178</ele>
        <time>2021-09-10T07:30:40.000Z</time>
      </trkpt>
      <trkpt lat="47.23409" lon="2.97312">
        <ele>161.772007</ele>
        <time>2021-09-10T07:30:47.000Z</time>
      </trkpt>
      <trkpt lat="47.23364" lon="2.97316">
        <ele>162.020729</ele>
        <time>2021-09-10T07:30:54.000Z</time>
      </trkpt>
      <trkpt lat="47.2332" lon="2.9732">
        <ele>162.268336</ele>
        <time>2021-09-10T07:31:01.000Z</time>
      </trkpt>
      <trkpt lat="47.23282" lon="2.97331">
        <ele>162.48569</ele>
        <time>2021-09-10T07:31:07.000Z</time>
      </trkpt>
      <trkpt lat="47.23246" lon="2.97341">
        <ele>162.690012</ele>
        <time>2021-09-10T07:31:13.000Z</time>
      </trkpt>
      <trkpt lat="47.23234" lon="2.97345">
        <ele>162.760068</ele>
        <time>2021-09-10T07:31:15.000Z</time>
      </trkpt>
      <trkpt lat="47.23221" lon="2.97349">
        <ele>162.892445</ele>
        <time>2021-09-10T07:31:17.000Z</time>
      </trkpt>
      <trkpt lat="47.23184" lon="2.9736">
        <ele>163.29567</ele>
        <time>2021-09-10T07:31:23.000Z</time>
      </trkpt>
      <trkpt lat="47.23178" lon="2.97362">
        <ele>163.366631</ele>
        <time>2021-09-10T07:31:24.000Z</time>
      </trkpt>
      <trkpt lat="47.23143" lon="2.97375">
        <ele>163.755472</ele>
        <time>2021-09-10T07:31:30.000Z</time>
      </trkpt>
      <trkpt lat="47.23136" lon="2.97377">
        <ele>163.823797</ele>
        <time>2021-09-10T07:31:31.000Z</time>
      </trkpt>
      <trkpt lat="47.23119" lon="2.97383">
        <ele>164.0177</ele>
        <time>2021-09-10T07:31:34.000Z</time>
      </trkpt>
      <trkpt lat="47.23107" lon="2.97388">
        <ele>164.14985</ele>
        <time>2021-09-10T07:31:36.000Z</time>
      </trkpt>
      <trkpt lat="47.2309" lon="2.97394">
        <ele>164.335968</ele>
        <time>2021-09-10T07:31:39.000Z</time>
      </trkpt>
      <trkpt lat="47.23066" lon="2.97403">
        <ele>164.601481</ele>
        <time>2021-09-10T07:31:43.000Z</time>
      </trkpt>
      <trkpt lat="47.23029" lon="2.97414">
        <ele>164.787222</ele>
        <time>2021-09-10T07:31:49.000Z</time>
      </trkpt>
      <trkpt lat="47.23023" lon="2.97416">
        <ele>164.808662</ele>
        <time>2021-09-10T07:31:50.000Z</time>
      </trkpt>
      <trkpt lat="47.23005" lon="2.97418">
        <ele>164.872566</ele>
        <time>2021-09-10T07:31:53.000Z</time>
      </trkpt>
      <trkpt lat="47.22976" lon="2.97414">
        <ele>164.9756</ele>
        <time>2021-09-10T07:31:58.000Z</time>
      </trkpt>
      <trkpt lat="47.2294" lon="2.97405">
        <ele>165.103359</ele>
        <time>2021-09-10T07:32:04.000Z</time>
      </trkpt>
      <trkpt lat="47.22906" lon="2.97397">
        <ele>165.224049</ele>
        <time>2021-09-10T07:32:10.000Z</time>
      </trkpt>
      <trkpt lat="47.22868" lon="2.97392">
        <ele>165.291425</ele>
        <time>2021-09-10T07:32:16.000Z</time>
      </trkpt>
      <trkpt lat="47.22831" lon="2.97385">
        <ele>165.223343</ele>
        <time>2021-09-10T07:32:22.000Z</time>
      </trkpt>
      <trkpt lat="47.22787" lon="2.97378">
        <ele>165.140905</ele>
        <time>2021-09-10T07:32:29.000Z</time>
      </trkpt>
      <trkpt lat="47.22749" lon="2.97384">
        <ele>165.071323</ele>
        <time>2021-09-10T07:32:35.000Z</time>
      </trkpt>
      <trkpt lat="47.22705" lon="2.974">
        <ele>164.98779</ele>
        <time>2021-09-10T07:32:42.000Z</time>
      </trkpt>
      <trkpt lat="47.22699" lon="2.97402">
        <ele>164.999643</ele>
        <time>2021-09-10T07:32:43.000Z</time>
      </trkpt>
      <trkpt lat="47.22687" lon="2.97406">
        <ele>165.054871</ele>
        <time>2021-09-10T07:32:45.000Z</time>
      </trkpt>
      <trkpt lat="47.22681" lon="2.97406">
        <ele>165.080568</ele>
        <time>2021-09-10T07:32:46.000Z</time>
      </trkpt>
      <trkpt lat="47.22638" lon="2.97407">
        <ele>165.267702</ele>
        <time>2021-09-10T07:32:53.000Z</time>
      </trkpt>
      <trkpt lat="47.22603" lon="2.97407">
        <ele>165.420858</ele>
        <time>2021-09-10T07:32:59.000Z</time>
      </trkpt>
      <trkpt lat="47.22566" lon="2.97406">
        <ele>165.580975</ele>
        <time>2021-09-10T07:33:05.000Z</time>
      </trkpt>
      <trkpt lat="47.22522" lon="2.97406">
        <ele>165.769874</ele>
        <time>2021-09-10T07:33:12.000Z</time>
      </trkpt>
      <trkpt lat="47.22484" lon="2.97414">
        <ele>165.858043</ele>
        <time>2021-09-10T07:33:18.000Z</time>
      </trkpt>
      <trkpt lat="47.2244" lon="2.97424">
        <ele>165.963388</ele>
        <time>2021-09-10T07:33:25.000Z</time>
      </trkpt>
      <trkpt lat="47.22385" lon="2.97438">
        <ele>166.093208</ele>
        <time>2021-09-10T07:33:34.000Z</time>
      </trkpt>
      <trkpt lat="47.22332" lon="2.9745">
        <ele>166.237242</ele>
        <time>2021-09-10T07:33:43.000Z</time>
      </trkpt>
      <trkpt lat="47.22289" lon="2.97458">
        <ele>166.393116</ele>
        <time>2021-09-10T07:33:50.000Z</time>
      </trkpt>
      <trkpt lat="47.2224" lon="2.97465">
        <ele>166.569</ele>
        <time>2021-09-10T07:33:58.000Z</time>
      </trkpt>
      <trkpt lat="47.22204" lon="2.97471">
        <ele>166.702205</ele>
        <time>2021-09-10T07:34:04.000Z</time>
      </trkpt>
      <trkpt lat="47.22162" lon="2.97477">
        <ele>166.843298</ele>
        <time>2021-09-10T07:34:11.000Z</time>
      </trkpt>
      <trkpt lat="47.22129" lon="2.9748">
        <ele>166.896581</ele>
        <time>2021-09-10T07:34:17.000Z</time>
      </trkpt>
      <trkpt lat="47.2208" lon="2.97485">
        <ele>166.977481</ele>
        <time>2021-09-10T07:34:25.000Z</time>
      </trkpt>
      <trkpt lat="47.22037" lon="2.97489">
        <ele>167.049175</ele>
        <time>2021-09-10T07:34:32.000Z</time>
      </trkpt>
      <trkpt lat="47.21992" lon="2.97493">
        <ele>167.122023</ele>
        <time>2021-09-10T07:34:39.000Z</time>
      </trkpt>
      <trkpt lat="47.21955" lon="2.97497">
        <ele>167.163474</ele>
        <time>2021-09-10T07:34:45.000Z</time>
      </trkpt>
      <trkpt lat="47.21943" lon="2.97501">
        <ele>167.176193</ele>
        <time>2021-09-10T07:34:47.000Z</time>
      </trkpt>
      <trkpt lat="47.21926" lon="2.97509">
        <ele>167.195365</ele>
        <time>2021-09-10T07:34:50.000Z</time>
      </trkpt>
      <trkpt lat="47.21921" lon="2.97513">
        <ele>167.201504</ele>
        <time>2021-09-10T07:34:51.000Z</time>
      </trkpt>
      <trkpt lat="47.21896" lon="2.97537">
        <ele>167.232157</ele>
        <time>2021-09-10T07:34:56.000Z</time>
      </trkpt>
      <trkpt lat="47.21848" lon="2.97581">
        <ele>167.290653</ele>
        <time>2021-09-10T07:35:05.000Z</time>
      </trkpt>
      <trkpt lat="47.21811" lon="2.97615">
        <ele>167.338373</ele>
        <time>2021-09-10T07:35:12.000Z</time>
      </trkpt>
      <trkpt lat="47.2178" lon="2.97644">
        <ele>167.381018</ele>
        <time>2021-09-10T07:35:18.000Z</time>
      </trkpt>
      <trkpt lat="47.21737" lon="2.97683">
        <ele>167.439043</ele>
        <time>2021-09-10T07:35:26.000Z</time>
      </trkpt>
      <trkpt lat="47.21705" lon="2.97713">
        <ele>167.483222</ele>
        <time>2021-09-10T07:35:32.000Z</time>
      </trkpt>
      <trkpt lat="47.21699" lon="2.97718">
        <ele>167.490543</ele>
        <time>2021-09-10T07:35:33.000Z</time>
      </trkpt>
      <trkpt lat="47.21677" lon="2.97738">
        <ele>167.520584</ele>
        <time>2021-09-10T07:35:37.000Z</time>
      </trkpt>
      <trkpt lat="47.21655" lon="2.97758">
        <ele>167.461319</ele>
        <time>2021-09-10T07:35:41.000Z</time>
      </trkpt>
      <trkpt lat="47.21644" lon="2.97768">
        <ele>167.424031</ele>
        <time>2021-09-10T07:35:43.000Z</time>
      </trkpt>
      <trkpt lat="47.21606" lon="2.97802">
        <ele>167.29407</ele>
        <time>2021-09-10T07:35:50.000Z</time>
      </trkpt>
      <trkpt lat="47.21564" lon="2.97842">
        <ele>167.148953</ele>
        <time>2021-09-10T07:35:58.000Z</time>
      </trkpt>
      <trkpt lat="47.21528" lon="2.9788">
        <ele>167.022126</ele>
        <time>2021-09-10T07:36:05.000Z</time>
      </trkpt>
      <trkpt lat="47.21495" lon="2.97921">
        <ele>166.723247</ele>
        <time>2021-09-10T07:36:12.000Z</time>
      </trkpt>
      <trkpt lat="47.2146" lon="2.97962">
        <ele>166.390445</ele>
        <time>2021-09-10T07:36:19.000Z</time>
      </trkpt>
      <trkpt lat="47.21428" lon="2.98002">
        <ele>166.071273</ele>
        <time>2021-09-10T07:36:26.000Z</time>
      </trkpt>
      <trkpt lat="47.21384" lon="2.98053">
        <ele>165.650473</ele>
        <time>2021-09-10T07:36:35.000Z</time>
      </trkpt>
      <trkpt lat="47.21374" lon="2.98064">
        <ele>165.578427</ele>
        <time>2021-09-10T07:36:37.000Z</time>
      </trkpt>
      <trkpt lat="47.21336" lon="2.98107">
        <ele>165.28757</ele>
        <time>2021-09-10T07:36:45.000Z</time>
      </trkpt>
      <trkpt lat="47.21292" lon="2.98156">
        <ele>164.951803</ele>
        <time>2021-09-10T07:36:54.000Z</time>
      </trkpt>
      <trkpt lat="47.21287" lon="2.98162">
        <ele>164.914442</ele>
        <time>2021-09-10T07:36:55.000Z</time>
      </trkpt>
      <trkpt lat="47.21248" lon="2.98207">
        <ele>164.611644</ele>
        <time>2021-09-10T07:37:03.000Z</time>
      </trkpt>
      <trkpt lat="47.21213" lon="2.98245">
        <ele>164.411525</ele>
        <time>2021-09-10T07:37:10.000Z</time>
      </trkpt>
      <trkpt lat="47.21168" lon="2.98295">
        <ele>164.172296</ele>
        <time>2021-09-10T07:37:19.000Z</time>
      </trkpt>
      <trkpt lat="47.21162" lon="2.983">
        <ele>164.145439</ele>
        <time>2021-09-10T07:37:20.000Z</time>
      </trkpt>
      <trkpt lat="47.21114" lon="2.98351">
        <ele>163.891816</ele>
        <time>2021-09-10T07:37:29.000Z</time>
      </trkpt>
      <trkpt lat="47.21081" lon="2.98386">
        <ele>163.837505</ele>
        <time>2021-09-10T07:37:35.000Z</time>
      </trkpt>
      <trkpt lat="47.21066" lon="2.98402">
        <ele>163.878362</ele>
        <time>2021-09-10T07:37:38.000Z</time>
      </trkpt>
      <trkpt lat="47.21055" lon="2.98412">
        <ele>163.905563</ele>
        <time>2021-09-10T07:37:40.000Z</time>
      </trkpt>
      <trkpt lat="47.21038" lon="2.98427">
        <ele>163.946411</ele>
        <time>2021-09-10T07:37:43.000Z</time>
      </trkpt>
      <trkpt lat="47.21027" lon="2.98437">
        <ele>163.974336</ele>
        <time>2021-09-10T07:37:45.000Z</time>
      </trkpt>
      <trkpt lat="47.20996" lon="2.98469">
        <ele>164.055453</ele>
        <time>2021-09-10T07:37:51.000Z</time>
      </trkpt>
      <trkpt lat="47.20966" lon="2.98503">
        <ele>164.134706</ele>
        <time>2021-09-10T07:37:57.000Z</time>
      </trkpt>
      <trkpt lat="47.20929" lon="2.98541">
        <ele>164.209461</ele>
        <time>2021-09-10T07:38:04.000Z</time>
      </trkpt>
      <trkpt lat="47.20892" lon="2.98575">
        <ele>164.264972</ele>
        <time>2021-09-10T07:38:11.000Z</time>
      </trkpt>
      <trkpt lat="47.20859" lon="2.98604">
        <ele>164.312822</ele>
        <time>2021-09-10T07:38:17.000Z</time>
      </trkpt>
      <trkpt lat="47.20821" lon="2.98638">
        <ele>164.36844</ele>
        <time>2021-09-10T07:38:24.000Z</time>
      </trkpt>
      <trkpt lat="47.2079" lon="2.98668">
        <ele>164.418543</ele>
        <time>2021-09-10T07:38:30.000Z</time>
      </trkpt>
      <trkpt lat="47.20785" lon="2.98674">
        <ele>164.429144</ele>
        <time>2021-09-10T07:38:31.000Z</time>
      </trkpt>
      <trkpt lat="47.2077" lon="2.98691">
        <ele>164.460603</ele>
        <time>2021-09-10T07:38:34.000Z</time>
      </trkpt>
      <trkpt lat="47.20741" lon="2.98726">
        <ele>164.523188</ele>
        <time>2021-09-10T07:38:40.000Z</time>
      </trkpt>
      <trkpt lat="47.20715" lon="2.98763">
        <ele>164.58491</ele>
        <time>2021-09-10T07:38:46.000Z</time>
      </trkpt>
      <trkpt lat="47.2071" lon="2.9877">
        <ele>164.595189</ele>
        <time>2021-09-10T07:38:47.000Z</time>
      </trkpt>
      <trkpt lat="47.20697" lon="2.98789">
        <ele>164.626147</ele>
        <time>2021-09-10T07:38:50.000Z</time>
      </trkpt>
      <trkpt lat="47.20688" lon="2.98801">
        <ele>164.646826</ele>
        <time>2021-09-10T07:38:52.000Z</time>
      </trkpt>
      <trkpt lat="47.20679" lon="2.98814">
        <ele>164.668183</ele>
        <time>2021-09-10T07:38:54.000Z</time>
      </trkpt>
      <trkpt lat="47.2065" lon="2.98848">
        <ele>164.61121</ele>
        <time>2021-09-10T07:39:00.000Z</time>
      </trkpt>
      <trkpt lat="47.20639" lon="2.98859">
        <ele>164.523676</ele>
        <time>2021-09-10T07:39:02.000Z</time>
      </trkpt>
      <trkpt lat="47.20629" lon="2.98869">
        <ele>164.438063</ele>
        <time>2021-09-10T07:39:04.000Z</time>
      </trkpt>
      <trkpt lat="47.20592" lon="2.98907">
        <ele>164.129282</ele>
        <time>2021-09-10T07:39:11.000Z</time>
      </trkpt>
      <trkpt lat="47.2057" lon="2.98926">
        <ele>163.959288</ele>
        <time>2021-09-10T07:39:15.000Z</time>
      </trkpt>
      <trkpt lat="47.20565" lon="2.9893">
        <ele>163.915462</ele>
        <time>2021-09-10T07:39:16.000Z</time>
      </trkpt>
      <trkpt lat="47.20532" lon="2.9896">
        <ele>163.648714</ele>
        <time>2021-09-10T07:39:22.000Z</time>
      </trkpt>
      <trkpt lat="47.2052" lon="2.98969">
        <ele>163.560233</ele>
        <time>2021-09-10T07:39:24.000Z</time>
      </trkpt>
      <trkpt lat="47.20504" lon="2.98983">
        <ele>163.430279</ele>
        <time>2021-09-10T07:39:27.000Z</time>
      </trkpt>
      <trkpt lat="47.20498" lon="2.98988">
        <ele>163.387783</ele>
        <time>2021-09-10T07:39:28.000Z</time>
      </trkpt>
      <trkpt lat="47.20475" lon="2.99005">
        <ele>163.220361</ele>
        <time>2021-09-10T07:39:32.000Z</time>
      </trkpt>
      <trkpt lat="47.20439" lon="2.99019">
        <ele>162.976283</ele>
        <time>2021-09-10T07:39:38.000Z</time>
      </trkpt>
      <trkpt lat="47.20404" lon="2.9903">
        <ele>162.742588</ele>
        <time>2021-09-10T07:39:44.000Z</time>
      </trkpt>
      <trkpt lat="47.20364" lon="2.99047">
        <ele>162.471289</ele>
        <time>2021-09-10T07:39:51.000Z</time>
      </trkpt>
      <trkpt lat="47.20336" lon="2.99062">
        <ele>162.305617</ele>
        <time>2021-09-10T07:39:56.000Z</time>
      </trkpt>
      <trkpt lat="47.20297" lon="2.99082">
        <ele>162.318174</ele>
        <time>2021-09-10T07:40:03.000Z</time>
      </trkpt>
      <trkpt lat="47.20268" lon="2.99097">
        <ele>162.327348</ele>
        <time>2021-09-10T07:40:08.000Z</time>
      </trkpt>
      <trkpt lat="47.20246" lon="2.9911">
        <ele>162.334711</ele>
        <time>2021-09-10T07:40:12.000Z</time>
      </trkpt>
      <trkpt lat="47.20234" lon="2.99116">
        <ele>162.338421</ele>
        <time>2021-09-10T07:40:14.000Z</time>
      </trkpt>
      <trkpt lat="47.2019" lon="2.99141">
        <ele>162.352819</ele>
        <time>2021-09-10T07:40:22.000Z</time>
      </trkpt>
      <trkpt lat="47.20153" lon="2.99162">
        <ele>162.298906</ele>
        <time>2021-09-10T07:40:29.000Z</time>
      </trkpt>
      <trkpt lat="47.20116" lon="2.99184">
        <ele>162.17195</ele>
        <time>2021-09-10T07:40:36.000Z</time>
      </trkpt>
      <trkpt lat="47.20077" lon="2.99205">
        <ele>162.042024</ele>
        <time>2021-09-10T07:40:43.000Z</time>
      </trkpt>
      <trkpt lat="47.20029" lon="2.99235">
        <ele>161.875539</ele>
        <time>2021-09-10T07:40:52.000Z</time>
      </trkpt>
      <trkpt lat="47.1998" lon="2.99265">
        <ele>161.696497</ele>
        <time>2021-09-10T07:41:01.000Z</time>
      </trkpt>
      <trkpt lat="47.19931" lon="2.99295">
        <ele>161.505459</ele>
        <time>2021-09-10T07:41:10.000Z</time>
      </trkpt>
      <trkpt lat="47.19925" lon="2.99297">
        <ele>161.483477</ele>
        <time>2021-09-10T07:41:11.000Z</time>
      </trkpt>
      <trkpt lat="47.19914" lon="2.99303">
        <ele>161.440693</ele>
        <time>2021-09-10T07:41:13.000Z</time>
      </trkpt>
      <trkpt lat="47.1988" lon="2.9932">
        <ele>161.310542</ele>
        <time>2021-09-10T07:41:19.000Z</time>
      </trkpt>
      <trkpt lat="47.19851" lon="2.99334">
        <ele>161.202711</ele>
        <time>2021-09-10T07:41:24.000Z</time>
      </trkpt>
      <trkpt lat="47.19809" lon="2.99356">
        <ele>161.227066</ele>
        <time>2021-09-10T07:41:31.000Z</time>
      </trkpt>
      <trkpt lat="47.19803" lon="2.99359">
        <ele>161.24836</ele>
        <time>2021-09-10T07:41:32.000Z</time>
      </trkpt>
      <trkpt lat="47.1979" lon="2.99365">
        <ele>161.288332</ele>
        <time>2021-09-10T07:41:34.000Z</time>
      </trkpt>
      <trkpt lat="47.19778" lon="2.99371">
        <ele>161.328666</ele>
        <time>2021-09-10T07:41:36.000Z</time>
      </trkpt>
      <trkpt lat="47.19766" lon="2.99377">
        <ele>161.367555</ele>
        <time>2021-09-10T07:41:38.000Z</time>
      </trkpt>
      <trkpt lat="47.19743" lon="2.9939">
        <ele>161.443853</ele>
        <time>2021-09-10T07:41:42.000Z</time>
      </trkpt>
      <trkpt lat="47.19731" lon="2.99396">
        <ele>161.482294</ele>
        <time>2021-09-10T07:41:44.000Z</time>
      </trkpt>
      <trkpt lat="47.1968" lon="2.99425">
        <ele>161.653063</ele>
        <time>2021-09-10T07:41:53.000Z</time>
      </trkpt>
      <trkpt lat="47.19629" lon="2.99454">
        <ele>161.715257</ele>
        <time>2021-09-10T07:42:02.000Z</time>
      </trkpt>
      <trkpt lat="47.19624" lon="2.99457">
        <ele>161.71781</ele>
        <time>2021-09-10T07:42:03.000Z</time>
      </trkpt>
      <trkpt lat="47.19572" lon="2.99486">
        <ele>161.740972</ele>
        <time>2021-09-10T07:42:12.000Z</time>
      </trkpt>
      <trkpt lat="47.19522" lon="2.99514">
        <ele>161.763174</ele>
        <time>2021-09-10T07:42:21.000Z</time>
      </trkpt>
      <trkpt lat="47.19475" lon="2.99539">
        <ele>161.771797</ele>
        <time>2021-09-10T07:42:29.000Z</time>
      </trkpt>
      <trkpt lat="47.19446" lon="2.99547">
        <ele>161.76908</ele>
        <time>2021-09-10T07:42:34.000Z</time>
      </trkpt>
      <trkpt lat="47.19419" lon="2.99552">
        <ele>161.766653</ele>
        <time>2021-09-10T07:42:39.000Z</time>
      </trkpt>
      <trkpt lat="47.19414" lon="2.99555">
        <ele>161.766136</ele>
        <time>2021-09-10T07:42:40.000Z</time>
      </trkpt>
      <trkpt lat="47.19397" lon="2.99562">
        <ele>161.764527</ele>
        <time>2021-09-10T07:42:43.000Z</time>
      </trkpt>
      <trkpt lat="47.19385" lon="2.99567">
        <ele>161.763399</ele>
        <time>2021-09-10T07:42:45.000Z</time>
      </trkpt>
      <trkpt lat="47.19349" lon="2.99582">
        <ele>161.760004</ele>
        <time>2021-09-10T07:42:51.000Z</time>
      </trkpt>
      <trkpt lat="47.19313" lon="2.99592">
        <ele>161.768511</ele>
        <time>2021-09-10T07:42:57.000Z</time>
      </trkpt>
      <trkpt lat="47.19261" lon="2.99606">
        <ele>161.823659</ele>
        <time>2021-09-10T07:43:06.000Z</time>
      </trkpt>
      <trkpt lat="47.19219" lon="2.9962">
        <ele>161.867588</ele>
        <time>2021-09-10T07:43:13.000Z</time>
      </trkpt>
      <trkpt lat="47.19179" lon="2.99639">
        <ele>161.911621</ele>
        <time>2021-09-10T07:43:20.000Z</time>
      </trkpt>
      <trkpt lat="47.19173" lon="2.99643">
        <ele>161.917593</ele>
        <time>2021-09-10T07:43:21.000Z</time>
      </trkpt>
      <trkpt lat="47.19132" lon="2.99666">
        <ele>161.927274</ele>
        <time>2021-09-10T07:43:28.000Z</time>
      </trkpt>
      <trkpt lat="47.19085" lon="2.99693">
        <ele>161.885265</ele>
        <time>2021-09-10T07:43:36.000Z</time>
      </trkpt>
      <trkpt lat="47.19075" lon="2.99704">
        <ele>161.875474</ele>
        <time>2021-09-10T07:43:38.000Z</time>
      </trkpt>
      <trkpt lat="47.19066" lon="2.99714">
        <ele>161.865583</ele>
        <time>2021-09-10T07:43:40.000Z</time>
      </trkpt>
      <trkpt lat="47.19056" lon="2.99725">
        <ele>161.85556</ele>
        <time>2021-09-10T07:43:42.000Z</time>
      </trkpt>
      <trkpt lat="47.19042" lon="2.99742">
        <ele>161.84041</ele>
        <time>2021-09-10T07:43:45.000Z</time>
      </trkpt>
      <trkpt lat="47.19028" lon="2.99761">
        <ele>161.825026</ele>
        <time>2021-09-10T07:43:48.000Z</time>
      </trkpt>
      <trkpt lat="47.18996" lon="2.99803">
        <ele>161.810149</ele>
        <time>2021-09-10T07:43:55.000Z</time>
      </trkpt>
      <trkpt lat="47.18969" lon="2.9984">
        <ele>161.900225</ele>
        <time>2021-09-10T07:44:01.000Z</time>
      </trkpt>
      <trkpt lat="47.18948" lon="2.99871">
        <ele>161.972784</ele>
        <time>2021-09-10T07:44:06.000Z</time>
      </trkpt>
      <trkpt lat="47.18922" lon="2.99901">
        <ele>162.053067</ele>
        <time>2021-09-10T07:44:12.000Z</time>
      </trkpt>
      <trkpt lat="47.18918" lon="2.99904">
        <ele>162.064501</ele>
        <time>2021-09-10T07:44:13.000Z</time>
      </trkpt>
      <trkpt lat="47.18896" lon="2.99914">
        <ele>162.118678</ele>
        <time>2021-09-10T07:44:18.000Z</time>
      </trkpt>
      <trkpt lat="47.1889" lon="2.99907">
        <ele>162.139359</ele>
        <time>2021-09-10T07:44:20.000Z</time>
      </trkpt>
      <trkpt lat="47.18886" lon="2.99903">
        <ele>162.149062</ele>
        <time>2021-09-10T07:44:21.000Z</time>
      </trkpt>
      <trkpt lat="47.18879" lon="2.99896">
        <ele>162.17014</ele>
        <time>2021-09-10T07:44:23.000Z</time>
      </trkpt>
      <trkpt lat="47.18876" lon="2.99897">
        <ele>162.178313</ele>
        <time>2021-09-10T07:44:24.000Z</time>
      </trkpt>
      <trkpt lat="47.18873" lon="2.99902">
        <ele>162.189604</ele>
        <time>2021-09-10T07:44:25.000Z</time>
      </trkpt>
      <trkpt lat="47.18866" lon="2.99913">
        <ele>162.21439</ele>
        <time>2021-09-10T07:44:27.000Z</time>
      </trkpt>
      <trkpt lat="47.18858" lon="2.99924">
        <ele>162.228764</ele>
        <time>2021-09-10T07:44:29.000Z</time>
      </trkpt>
      <trkpt lat="47.18844" lon="2.99937">
        <ele>162.208906</ele>
        <time>2021-09-10T07:44:32.000Z</time>
      </trkpt>
      <trkpt lat="47.1884" lon="2.99941">
        <ele>162.202343</ele>
        <time>2021-09-10T07:44:33.000Z</time>
      </trkpt>
      <trkpt lat="47.18804" lon="2.99968">
        <ele>162.154355</ele>
        <time>2021-09-10T07:44:40.000Z</time>
      </trkpt>
      <trkpt lat="47.18755" lon="2.99999">
        <ele>162.090493</ele>
        <time>2021-09-10T07:44:49.000Z</time>
      </trkpt>
      <trkpt lat="47.18705" lon="3.00031">
        <ele>162.025191</ele>
        <time>2021-09-10T07:44:58.000Z</time>
      </trkpt>
      <trkpt lat="47.18655" lon="3.00063">
        <ele>161.966335</ele>
        <time>2021-09-10T07:45:07.000Z</time>
      </trkpt>
      <trkpt lat="47.18621" lon="3.00085">
        <ele>161.926884</ele>
        <time>2021-09-10T07:45:13.000Z</time>
      </trkpt>
      <trkpt lat="47.18569" lon="3.00119">
        <ele>161.86667</ele>
        <time>2021-09-10T07:45:22.000Z</time>
      </trkpt>
      <trkpt lat="47.18563" lon="3.00122">
        <ele>161.859875</ele>
        <time>2021-09-10T07:45:23.000Z</time>
      </trkpt>
      <trkpt lat="47.18517" lon="3.00152">
        <ele>161.805283</ele>
        <time>2021-09-10T07:45:31.000Z</time>
      </trkpt>
      <trkpt lat="47.18472" lon="3.00181">
        <ele>161.75014</ele>
        <time>2021-09-10T07:45:39.000Z</time>
      </trkpt>
      <trkpt lat="47.18426" lon="3.0021">
        <ele>161.694731</ele>
        <time>2021-09-10T07:45:47.000Z</time>
      </trkpt>
      <trkpt lat="47.18381" lon="3.00239">
        <ele>161.640323</ele>
        <time>2021-09-10T07:45:55.000Z</time>
      </trkpt>
      <trkpt lat="47.18378" lon="3.00241">
        <ele>161.636075</ele>
        <time>2021-09-10T07:45:57.000Z</time>
      </trkpt>
      <trkpt lat="47.18355" lon="3.00252">
        <ele>161.640777</ele>
        <time>2021-09-10T07:46:00.000Z</time>
      </trkpt>
      <trkpt lat="47.18349" lon="3.00254">
        <ele>161.647224</ele>
        <time>2021-09-10T07:46:01.000Z</time>
      </trkpt>
      <trkpt lat="47.18329" lon="3.00261">
        <ele>161.668383</ele>
        <time>2021-09-10T07:46:04.000Z</time>
      </trkpt>
      <trkpt lat="47.18323" lon="3.00262">
        <ele>161.675481</ele>
        <time>2021-09-10T07:46:05.000Z</time>
      </trkpt>
      <trkpt lat="47.18303" lon="3.00258">
        <ele>161.695984</ele>
        <time>2021-09-10T07:46:08.000Z</time>
      </trkpt>
      <trkpt lat="47.18279" lon="3.00252">
        <ele>161.722238</ele>
        <time>2021-09-10T07:46:12.000Z</time>
      </trkpt>
      <trkpt lat="47.18247" lon="3.00243">
        <ele>161.756135</ele>
        <time>2021-09-10T07:46:17.000Z</time>
      </trkpt>
      <trkpt lat="47.18223" lon="3.0024">
        <ele>161.782277</ele>
        <time>2021-09-10T07:46:21.000Z</time>
      </trkpt>
      <trkpt lat="47.18217" lon="3.0024">
        <ele>161.788952</ele>
        <time>2021-09-10T07:46:22.000Z</time>
      </trkpt>
      <trkpt lat="47.18204" lon="3.00243">
        <ele>161.802764</ele>
        <time>2021-09-10T07:46:24.000Z</time>
      </trkpt>
      <trkpt lat="47.18189" lon="3.00246">
        <ele>161.834977</ele>
        <time>2021-09-10T07:46:26.000Z</time>
      </trkpt>
      <trkpt lat="47.18183" lon="3.00249">
        <ele>161.888316</ele>
        <time>2021-09-10T07:46:27.000Z</time>
      </trkpt>
      <trkpt lat="47.1814" lon="3.00268">
        <ele>162.27185</ele>
        <time>2021-09-10T07:46:34.000Z</time>
      </trkpt>
      <trkpt lat="47.1811" lon="3.00274">
        <ele>162.520761</ele>
        <time>2021-09-10T07:46:39.000Z</time>
      </trkpt>
      <trkpt lat="47.18094" lon="3.00277">
        <ele>162.653587</ele>
        <time>2021-09-10T07:46:42.000Z</time>
      </trkpt>
      <trkpt lat="47.18085" lon="3.00278">
        <ele>162.737299</ele>
        <time>2021-09-10T07:46:44.000Z</time>
      </trkpt>
      <trkpt lat="47.18079" lon="3.00279">
        <ele>162.781273</ele>
        <time>2021-09-10T07:46:45.000Z</time>
      </trkpt>
      <trkpt lat="47.18059" lon="3.00283">
        <ele>162.952935</ele>
        <time>2021-09-10T07:46:49.000Z</time>
      </trkpt>
      <trkpt lat="47.18015" lon="3.0029">
        <ele>163.322583</ele>
        <time>2021-09-10T07:46:56.000Z</time>
      </trkpt>
      <trkpt lat="47.18003" lon="3.00293">
        <ele>163.35353</ele>
        <time>2021-09-10T07:46:58.000Z</time>
      </trkpt>
      <trkpt lat="47.17991" lon="3.00301">
        <ele>163.382654</ele>
        <time>2021-09-10T07:47:00.000Z</time>
      </trkpt>
      <trkpt lat="47.17986" lon="3.00306">
        <ele>163.396816</ele>
        <time>2021-09-10T07:47:01.000Z</time>
      </trkpt>
      <trkpt lat="47.17947" lon="3.0034">
        <ele>163.497345</ele>
        <time>2021-09-10T07:47:08.000Z</time>
      </trkpt>
      <trkpt lat="47.17914" lon="3.00367">
        <ele>163.582258</ele>
        <time>2021-09-10T07:47:14.000Z</time>
      </trkpt>
      <trkpt lat="47.17886" lon="3.0039">
        <ele>163.654093</ele>
        <time>2021-09-10T07:47:19.000Z</time>
      </trkpt>
      <trkpt lat="47.17859" lon="3.00411">
        <ele>163.722639</ele>
        <time>2021-09-10T07:47:24.000Z</time>
      </trkpt>
      <trkpt lat="47.17809" lon="3.0045">
        <ele>163.543524</ele>
        <time>2021-09-10T07:47:33.000Z</time>
      </trkpt>
      <trkpt lat="47.17761" lon="3.00488">
        <ele>163.352764</ele>
        <time>2021-09-10T07:47:42.000Z</time>
      </trkpt>
      <trkpt lat="47.17755" lon="3.00492">
        <ele>163.329829</ele>
        <time>2021-09-10T07:47:43.000Z</time>
      </trkpt>
      <trkpt lat="47.17712" lon="3.00527">
        <ele>163.157928</ele>
        <time>2021-09-10T07:47:51.000Z</time>
      </trkpt>
      <trkpt lat="47.17664" lon="3.00569">
        <ele>162.868645</ele>
        <time>2021-09-10T07:48:00.000Z</time>
      </trkpt>
      <trkpt lat="47.17637" lon="3.00608">
        <ele>162.648441</ele>
        <time>2021-09-10T07:48:06.000Z</time>
      </trkpt>
      <trkpt lat="47.17604" lon="3.00659">
        <ele>162.365966</ele>
        <time>2021-09-10T07:48:14.000Z</time>
      </trkpt>
      <trkpt lat="47.17574" lon="3.00705">
        <ele>162.11688</ele>
        <time>2021-09-10T07:48:21.000Z</time>
      </trkpt>
      <trkpt lat="47.17545" lon="3.00749">
        <ele>162.138009</ele>
        <time>2021-09-10T07:48:28.000Z</time>
      </trkpt>
      <trkpt lat="47.1754" lon="3.00755">
        <ele>162.154724</ele>
        <time>2021-09-10T07:48:29.000Z</time>
      </trkpt>
      <trkpt lat="47.17531" lon="3.00765">
        <ele>162.187716</ele>
        <time>2021-09-10T07:48:31.000Z</time>
      </trkpt>
      <trkpt lat="47.17525" lon="3.00769">
        <ele>162.204726</ele>
        <time>2021-09-10T07:48:32.000Z</time>
      </trkpt>
      <trkpt lat="47.17482" lon="3.00796">
        <ele>162.337292</ele>
        <time>2021-09-10T07:48:40.000Z</time>
      </trkpt>
      <trkpt lat="47.17466" lon="3.00805">
        <ele>162.383051</ele>
        <time>2021-09-10T07:48:44.000Z</time>
      </trkpt>
      <trkpt lat="47.17462" lon="3.00807">
        <ele>162.394033</ele>
        <time>2021-09-10T07:48:48.000Z</time>
      </trkpt>
      <trkpt lat="47.1746" lon="3.00808">
        <ele>162.401158</ele>
        <time>2021-09-10T07:48:53.000Z</time>
      </trkpt>
      <trkpt lat="47.1746" lon="3.00811">
        <ele>162.407746</ele>
        <time>2021-09-10T07:48:55.000Z</time>
      </trkpt>
      <trkpt lat="47.17459" lon="3.00835">
        <ele>162.452701</ele>
        <time>2021-09-10T07:48:59.000Z</time>
      </trkpt>
      <trkpt lat="47.17453" lon="3.00839">
        <ele>162.469045</ele>
        <time>2021-09-10T07:49:01.000Z</time>
      </trkpt>
      <trkpt lat="47.17449" lon="3.00839">
        <ele>162.480268</ele>
        <time>2021-09-10T07:49:02.000Z</time>
      </trkpt>
      <trkpt lat="47.17446" lon="3.0084">
        <ele>162.490661</ele>
        <time>2021-09-10T07:49:03.000Z</time>
      </trkpt>
      <trkpt lat="47.17427" lon="3.00843">
        <ele>162.543643</ele>
        <time>2021-09-10T07:49:07.000Z</time>
      </trkpt>
      <trkpt lat="47.17381" lon="3.00851">
        <ele>162.740837</ele>
        <time>2021-09-10T07:49:15.000Z</time>
      </trkpt>
      <trkpt lat="47.17326" lon="3.0086">
        <ele>162.984071</ele>
        <time>2021-09-10T07:49:24.000Z</time>
      </trkpt>
      <trkpt lat="47.17283" lon="3.00867">
        <ele>163.173525</ele>
        <time>2021-09-10T07:49:31.000Z</time>
      </trkpt>
      <trkpt lat="47.17229" lon="3.00876">
        <ele>163.392564</ele>
        <time>2021-09-10T07:49:40.000Z</time>
      </trkpt>
      <trkpt lat="47.1718" lon="3.00884">
        <ele>163.55172</ele>
        <time>2021-09-10T07:49:48.000Z</time>
      </trkpt>
      <trkpt lat="47.17126" lon="3.00893">
        <ele>163.730905</ele>
        <time>2021-09-10T07:49:57.000Z</time>
      </trkpt>
      <trkpt lat="47.17114" lon="3.00895">
        <ele>163.771686</ele>
        <time>2021-09-10T07:49:59.000Z</time>
      </trkpt>
      <trkpt lat="47.17064" lon="3.00904">
        <ele>163.933848</ele>
        <time>2021-09-10T07:50:07.000Z</time>
      </trkpt>
      <trkpt lat="47.1701" lon="3.00913">
        <ele>164.104612</ele>
        <time>2021-09-10T07:50:16.000Z</time>
      </trkpt>
      <trkpt lat="47.16956" lon="3.00922">
        <ele>164.271306</ele>
        <time>2021-09-10T07:50:25.000Z</time>
      </trkpt>
      <trkpt lat="47.1691" lon="3.00929">
        <ele>164.41825</ele>
        <time>2021-09-10T07:50:33.000Z</time>
      </trkpt>
      <trkpt lat="47.16857" lon="3.00938">
        <ele>164.56707</ele>
        <time>2021-09-10T07:50:42.000Z</time>
      </trkpt>
      <trkpt lat="47.16821" lon="3.00944">
        <ele>164.658087</ele>
        <time>2021-09-10T07:50:48.000Z</time>
      </trkpt>
      <trkpt lat="47.16779" lon="3.00952">
        <ele>164.767226</ele>
        <time>2021-09-10T07:50:55.000Z</time>
      </trkpt>
      <trkpt lat="47.16724" lon="3.00962">
        <ele>164.908956</ele>
        <time>2021-09-10T07:51:04.000Z</time>
      </trkpt>
      <trkpt lat="47.16668" lon="3.00971">
        <ele>164.984765</ele>
        <time>2021-09-10T07:51:13.000Z</time>
      </trkpt>
      <trkpt lat="47.16655" lon="3.00973">
        <ele>164.996138</ele>
        <time>2021-09-10T07:51:15.000Z</time>
      </trkpt>
      <trkpt lat="47.16618" lon="3.00978">
        <ele>165.030336</ele>
        <time>2021-09-10T07:51:21.000Z</time>
      </trkpt>
      <trkpt lat="47.16567" lon="3.00986">
        <ele>165.076363</ele>
        <time>2021-09-10T07:51:29.000Z</time>
      </trkpt>
      <trkpt lat="47.16511" lon="3.00997">
        <ele>165.108601</ele>
        <time>2021-09-10T07:51:38.000Z</time>
      </trkpt>
      <trkpt lat="47.16499" lon="3.01">
        <ele>165.107381</ele>
        <time>2021-09-10T07:51:40.000Z</time>
      </trkpt>
      <trkpt lat="47.16443" lon="3.01015">
        <ele>165.101835</ele>
        <time>2021-09-10T07:51:49.000Z</time>
      </trkpt>
      <trkpt lat="47.16437" lon="3.01017">
        <ele>165.10122</ele>
        <time>2021-09-10T07:51:50.000Z</time>
      </trkpt>
      <trkpt lat="47.16388" lon="3.0103">
        <ele>165.096399</ele>
        <time>2021-09-10T07:51:58.000Z</time>
      </trkpt>
      <trkpt lat="47.16333" lon="3.01036">
        <ele>165.116121</ele>
        <time>2021-09-10T07:52:07.000Z</time>
      </trkpt>
      <trkpt lat="47.16277" lon="3.01042">
        <ele>165.18332</ele>
        <time>2021-09-10T07:52:16.000Z</time>
      </trkpt>
      <trkpt lat="47.16222" lon="3.01047">
        <ele>165.24908</ele>
        <time>2021-09-10T07:52:25.000Z</time>
      </trkpt>
      <trkpt lat="47.16168" lon="3.01052">
        <ele>165.310664</ele>
        <time>2021-09-10T07:52:34.000Z</time>
      </trkpt>
      <trkpt lat="47.16113" lon="3.01062">
        <ele>165.339202</ele>
        <time>2021-09-10T07:52:43.000Z</time>
      </trkpt>
      <trkpt lat="47.16059" lon="3.01073">
        <ele>165.367047</ele>
        <time>2021-09-10T07:52:52.000Z</time>
      </trkpt>
      <trkpt lat="47.16004" lon="3.01084">
        <ele>165.39505</ele>
        <time>2021-09-10T07:53:01.000Z</time>
      </trkpt>
      <trkpt lat="47.15998" lon="3.01086">
        <ele>165.398146</ele>
        <time>2021-09-10T07:53:02.000Z</time>
      </trkpt>
      <trkpt lat="47.15945" lon="3.01097">
        <ele>165.45941</ele>
        <time>2021-09-10T07:53:11.000Z</time>
      </trkpt>
      <trkpt lat="47.15908" lon="3.01103">
        <ele>165.502439</ele>
        <time>2021-09-10T07:53:17.000Z</time>
      </trkpt>
      <trkpt lat="47.15855" lon="3.01115">
        <ele>165.566171</ele>
        <time>2021-09-10T07:53:26.000Z</time>
      </trkpt>
      <trkpt lat="47.15843" lon="3.01119">
        <ele>165.580181</ele>
        <time>2021-09-10T07:53:28.000Z</time>
      </trkpt>
      <trkpt lat="47.15786" lon="3.0114">
        <ele>165.606568</ele>
        <time>2021-09-10T07:53:38.000Z</time>
      </trkpt>
      <trkpt lat="47.15749" lon="3.0115">
        <ele>165.600254</ele>
        <time>2021-09-10T07:53:44.000Z</time>
      </trkpt>
      <trkpt lat="47.15699" lon="3.01168">
        <ele>165.591368</ele>
        <time>2021-09-10T07:53:52.000Z</time>
      </trkpt>
      <trkpt lat="47.15651" lon="3.01184">
        <ele>165.58289</ele>
        <time>2021-09-10T07:54:00.000Z</time>
      </trkpt>
      <trkpt lat="47.15602" lon="3.01195">
        <ele>165.481302</ele>
        <time>2021-09-10T07:54:09.000Z</time>
      </trkpt>
      <trkpt lat="47.15565" lon="3.01192">
        <ele>165.391478</ele>
        <time>2021-09-10T07:54:15.000Z</time>
      </trkpt>
      <trkpt lat="47.15511" lon="3.01194">
        <ele>165.258122</ele>
        <time>2021-09-10T07:54:24.000Z</time>
      </trkpt>
      <trkpt lat="47.15471" lon="3.01216">
        <ele>165.152782</ele>
        <time>2021-09-10T07:54:31.000Z</time>
      </trkpt>
      <trkpt lat="47.15428" lon="3.01249">
        <ele>165.093626</ele>
        <time>2021-09-10T07:54:39.000Z</time>
      </trkpt>
      <trkpt lat="47.15379" lon="3.01288">
        <ele>165.036287</ele>
        <time>2021-09-10T07:54:48.000Z</time>
      </trkpt>
      <trkpt lat="47.15328" lon="3.0132">
        <ele>164.979021</ele>
        <time>2021-09-10T07:54:57.000Z</time>
      </trkpt>
      <trkpt lat="47.15322" lon="3.01322">
        <ele>164.972714</ele>
        <time>2021-09-10T07:54:58.000Z</time>
      </trkpt>
      <trkpt lat="47.15279" lon="3.0133">
        <ele>164.90514</ele>
        <time>2021-09-10T07:55:05.000Z</time>
      </trkpt>
      <trkpt lat="47.15229" lon="3.01325">
        <ele>164.805876</ele>
        <time>2021-09-10T07:55:13.000Z</time>
      </trkpt>
      <trkpt lat="47.15174" lon="3.01313">
        <ele>164.697169</ele>
        <time>2021-09-10T07:55:22.000Z</time>
      </trkpt>
      <trkpt lat="47.15168" lon="3.01312">
        <ele>164.685424</ele>
        <time>2021-09-10T07:55:23.000Z</time>
      </trkpt>
      <trkpt lat="47.15126" lon="3.01311">
        <ele>164.601798</ele>
        <time>2021-09-10T07:55:30.000Z</time>
      </trkpt>
      <trkpt lat="47.15078" lon="3.01324">
        <ele>164.587569</ele>
        <time>2021-09-10T07:55:38.000Z</time>
      </trkpt>
      <trkpt lat="47.15022" lon="3.01342">
        <ele>164.576176</ele>
        <time>2021-09-10T07:55:47.000Z</time>
      </trkpt>
      <trkpt lat="47.14973" lon="3.01357">
        <ele>164.566114</ele>
        <time>2021-09-10T07:55:55.000Z</time>
      </trkpt>
      <trkpt lat="47.14919" lon="3.01374">
        <ele>164.59857</ele>
        <time>2021-09-10T07:56:04.000Z</time>
      </trkpt>
      <trkpt lat="47.14865" lon="3.0139">
        <ele>164.671427</ele>
        <time>2021-09-10T07:56:13.000Z</time>
      </trkpt>
      <trkpt lat="47.14853" lon="3.01394">
        <ele>164.687888</ele>
        <time>2021-09-10T07:56:15.000Z</time>
      </trkpt>
      <trkpt lat="47.14799" lon="3.01411">
        <ele>164.760596</ele>
        <time>2021-09-10T07:56:24.000Z</time>
      </trkpt>
      <trkpt lat="47.14787" lon="3.01415">
        <ele>164.776799</ele>
        <time>2021-09-10T07:56:26.000Z</time>
      </trkpt>
      <trkpt lat="47.14732" lon="3.01432">
        <ele>164.810671</ele>
        <time>2021-09-10T07:56:35.000Z</time>
      </trkpt>
      <trkpt lat="47.14726" lon="3.01434">
        <ele>164.81257</ele>
        <time>2021-09-10T07:56:36.000Z</time>
      </trkpt>
      <trkpt lat="47.14673" lon="3.0145">
        <ele>164.829736</ele>
        <time>2021-09-10T07:56:45.000Z</time>
      </trkpt>
      <trkpt lat="47.14625" lon="3.01465">
        <ele>164.845131</ele>
        <time>2021-09-10T07:56:53.000Z</time>
      </trkpt>
      <trkpt lat="47.14576" lon="3.01477">
        <ele>164.842475</ele>
        <time>2021-09-10T07:57:01.000Z</time>
      </trkpt>
      <trkpt lat="47.14529" lon="3.01477">
        <ele>164.811448</ele>
        <time>2021-09-10T07:57:09.000Z</time>
      </trkpt>
      <trkpt lat="47.1447" lon="3.01473">
        <ele>164.773054</ele>
        <time>2021-09-10T07:57:19.000Z</time>
      </trkpt>
      <trkpt lat="47.14412" lon="3.0147">
        <ele>164.731772</ele>
        <time>2021-09-10T07:57:29.000Z</time>
      </trkpt>
      <trkpt lat="47.14352" lon="3.01464">
        <ele>164.639445</ele>
        <time>2021-09-10T07:57:39.000Z</time>
      </trkpt>
      <trkpt lat="47.14346" lon="3.01463">
        <ele>164.630473</ele>
        <time>2021-09-10T07:57:40.000Z</time>
      </trkpt>
      <trkpt lat="47.14299" lon="3.01458">
        <ele>164.557435</ele>
        <time>2021-09-10T07:57:48.000Z</time>
      </trkpt>
      <trkpt lat="47.14245" lon="3.01452">
        <ele>164.473872</ele>
        <time>2021-09-10T07:57:57.000Z</time>
      </trkpt>
      <trkpt lat="47.14227" lon="3.0145">
        <ele>164.469637</ele>
        <time>2021-09-10T07:58:00.000Z</time>
      </trkpt>
      <trkpt lat="47.1418" lon="3.01444">
        <ele>164.521835</ele>
        <time>2021-09-10T07:58:08.000Z</time>
      </trkpt>
      <trkpt lat="47.14145" lon="3.01448">
        <ele>164.560332</ele>
        <time>2021-09-10T07:58:14.000Z</time>
      </trkpt>
      <trkpt lat="47.14106" lon="3.01462">
        <ele>164.604384</ele>
        <time>2021-09-10T07:58:21.000Z</time>
      </trkpt>
      <trkpt lat="47.14061" lon="3.0148">
        <ele>164.655497</ele>
        <time>2021-09-10T07:58:29.000Z</time>
      </trkpt>
      <trkpt lat="47.14021" lon="3.01497">
        <ele>164.769191</ele>
        <time>2021-09-10T07:58:36.000Z</time>
      </trkpt>
      <trkpt lat="47.13987" lon="3.01511">
        <ele>164.86807</ele>
        <time>2021-09-10T07:58:42.000Z</time>
      </trkpt>
      <trkpt lat="47.13947" lon="3.01527">
        <ele>164.984348</ele>
        <time>2021-09-10T07:58:49.000Z</time>
      </trkpt>
      <trkpt lat="47.13895" lon="3.01549">
        <ele>165.134246</ele>
        <time>2021-09-10T07:58:58.000Z</time>
      </trkpt>
      <trkpt lat="47.13849" lon="3.01568">
        <ele>165.171123</ele>
        <time>2021-09-10T07:59:06.000Z</time>
      </trkpt>
      <trkpt lat="47.13802" lon="3.01588">
        <ele>165.185805</ele>
        <time>2021-09-10T07:59:14.000Z</time>
      </trkpt>
      <trkpt lat="47.13754" lon="3.01607">
        <ele>165.200643</ele>
        <time>2021-09-10T07:59:22.000Z</time>
      </trkpt>
      <trkpt lat="47.13706" lon="3.01626">
        <ele>165.213253</ele>
        <time>2021-09-10T07:59:30.000Z</time>
      </trkpt>
      <trkpt lat="47.13659" lon="3.01644">
        <ele>165.211354</ele>
        <time>2021-09-10T07:59:38.000Z</time>
      </trkpt>
      <trkpt lat="47.13606" lon="3.0167">
        <ele>165.209209</ele>
        <time>2021-09-10T07:59:47.000Z</time>
      </trkpt>
      <trkpt lat="47.136" lon="3.01673">
        <ele>165.208966</ele>
        <time>2021-09-10T07:59:48.000Z</time>
      </trkpt>
      <trkpt lat="47.1356" lon="3.01713">
        <ele>165.207081</ele>
        <time>2021-09-10T07:59:56.000Z</time>
      </trkpt>
      <trkpt lat="47.13512" lon="3.01756">
        <ele>165.269365</ele>
        <time>2021-09-10T08:00:05.000Z</time>
      </trkpt>
      <trkpt lat="47.13476" lon="3.01788">
        <ele>165.332771</ele>
        <time>2021-09-10T08:00:12.000Z</time>
      </trkpt>
      <trkpt lat="47.13438" lon="3.01821">
        <ele>165.397253</ele>
        <time>2021-09-10T08:00:19.000Z</time>
      </trkpt>
      <trkpt lat="47.13397" lon="3.01857">
        <ele>165.46829</ele>
        <time>2021-09-10T08:00:27.000Z</time>
      </trkpt>
      <trkpt lat="47.13351" lon="3.01898">
        <ele>165.542191</ele>
        <time>2021-09-10T08:00:36.000Z</time>
      </trkpt>
      <trkpt lat="47.13304" lon="3.0194">
        <ele>165.615855</ele>
        <time>2021-09-10T08:00:45.000Z</time>
      </trkpt>
      <trkpt lat="47.13257" lon="3.01981">
        <ele>165.689154</ele>
        <time>2021-09-10T08:00:54.000Z</time>
      </trkpt>
      <trkpt lat="47.13247" lon="3.01991">
        <ele>165.705568</ele>
        <time>2021-09-10T08:00:56.000Z</time>
      </trkpt>
      <trkpt lat="47.132" lon="3.02034">
        <ele>165.821922</ele>
        <time>2021-09-10T08:01:05.000Z</time>
      </trkpt>
      <trkpt lat="47.13169" lon="3.02061">
        <ele>165.901933</ele>
        <time>2021-09-10T08:01:11.000Z</time>
      </trkpt>
      <trkpt lat="47.13135" lon="3.02093">
        <ele>165.991829</ele>
        <time>2021-09-10T08:01:18.000Z</time>
      </trkpt>
      <trkpt lat="47.13088" lon="3.02135">
        <ele>166.112801</ele>
        <time>2021-09-10T08:01:27.000Z</time>
      </trkpt>
      <trkpt lat="47.13065" lon="3.02156">
        <ele>166.167526</ele>
        <time>2021-09-10T08:01:32.000Z</time>
      </trkpt>
      <trkpt lat="47.1306" lon="3.0216">
        <ele>166.177551</ele>
        <time>2021-09-10T08:01:33.000Z</time>
      </trkpt>
      <trkpt lat="47.13033" lon="3.02185">
        <ele>166.240055</ele>
        <time>2021-09-10T08:01:39.000Z</time>
      </trkpt>
      <trkpt lat="47.13015" lon="3.02201">
        <ele>166.282821</ele>
        <time>2021-09-10T08:01:43.000Z</time>
      </trkpt>
      <trkpt lat="47.13006" lon="3.0221">
        <ele>166.30368</ele>
        <time>2021-09-10T08:01:45.000Z</time>
      </trkpt>
      <trkpt lat="47.12997" lon="3.02218">
        <ele>166.324062</ele>
        <time>2021-09-10T08:01:47.000Z</time>
      </trkpt>
      <trkpt lat="47.12983" lon="3.0223">
        <ele>166.35654</ele>
        <time>2021-09-10T08:01:50.000Z</time>
      </trkpt>
      <trkpt lat="47.12973" lon="3.0224">
        <ele>166.379876</ele>
        <time>2021-09-10T08:01:52.000Z</time>
      </trkpt>
      <trkpt lat="47.12959" lon="3.02252">
        <ele>166.412759</ele>
        <time>2021-09-10T08:01:55.000Z</time>
      </trkpt>
      <trkpt lat="47.12927" lon="3.02275">
        <ele>166.472595</ele>
        <time>2021-09-10T08:02:01.000Z</time>
      </trkpt>
      <trkpt lat="47.12892" lon="3.02285">
        <ele>166.489338</ele>
        <time>2021-09-10T08:02:07.000Z</time>
      </trkpt>
      <trkpt lat="47.1284" lon="3.02293">
        <ele>166.513932</ele>
        <time>2021-09-10T08:02:16.000Z</time>
      </trkpt>
      <trkpt lat="47.12798" lon="3.02299">
        <ele>166.533494</ele>
        <time>2021-09-10T08:02:23.000Z</time>
      </trkpt>
      <trkpt lat="47.12756" lon="3.02305">
        <ele>166.553293</ele>
        <time>2021-09-10T08:02:30.000Z</time>
      </trkpt>
      <trkpt lat="47.12709" lon="3.02312">
        <ele>166.388876</ele>
        <time>2021-09-10T08:02:38.000Z</time>
      </trkpt>
      <trkpt lat="47.12661" lon="3.02319">
        <ele>166.21938</ele>
        <time>2021-09-10T08:02:46.000Z</time>
      </trkpt>
      <trkpt lat="47.12607" lon="3.02327">
        <ele>166.029336</ele>
        <time>2021-09-10T08:02:55.000Z</time>
      </trkpt>
      <trkpt lat="47.1256" lon="3.02335">
        <ele>165.891491</ele>
        <time>2021-09-10T08:03:03.000Z</time>
      </trkpt>
      <trkpt lat="47.12513" lon="3.02343">
        <ele>165.808863</ele>
        <time>2021-09-10T08:03:11.000Z</time>
      </trkpt>
      <trkpt lat="47.12465" lon="3.02351">
        <ele>165.723257</ele>
        <time>2021-09-10T08:03:19.000Z</time>
      </trkpt>
      <trkpt lat="47.12411" lon="3.0236">
        <ele>165.628318</ele>
        <time>2021-09-10T08:03:28.000Z</time>
      </trkpt>
      <trkpt lat="47.12363" lon="3.02368">
        <ele>165.558697</ele>
        <time>2021-09-10T08:03:36.000Z</time>
      </trkpt>
      <trkpt lat="47.12316" lon="3.02376">
        <ele>165.49412</ele>
        <time>2021-09-10T08:03:44.000Z</time>
      </trkpt>
      <trkpt lat="47.12262" lon="3.02384">
        <ele>165.420812</ele>
        <time>2021-09-10T08:03:53.000Z</time>
      </trkpt>
      <trkpt lat="47.12244" lon="3.02387">
        <ele>165.39629</ele>
        <time>2021-09-10T08:03:56.000Z</time>
      </trkpt>
      <trkpt lat="47.1219" lon="3.02395">
        <ele>165.368662</ele>
        <time>2021-09-10T08:04:05.000Z</time>
      </trkpt>
      <trkpt lat="47.12137" lon="3.02403">
        <ele>165.379727</ele>
        <time>2021-09-10T08:04:14.000Z</time>
      </trkpt>
      <trkpt lat="47.12099" lon="3.02409">
        <ele>165.387508</ele>
        <time>2021-09-10T08:04:20.000Z</time>
      </trkpt>
      <trkpt lat="47.1205" lon="3.02416">
        <ele>165.397758</ele>
        <time>2021-09-10T08:04:28.000Z</time>
      </trkpt>
      <trkpt lat="47.11991" lon="3.02425">
        <ele>165.388676</ele>
        <time>2021-09-10T08:04:38.000Z</time>
      </trkpt>
      <trkpt lat="47.11945" lon="3.02432">
        <ele>165.37786</ele>
        <time>2021-09-10T08:04:46.000Z</time>
      </trkpt>
      <trkpt lat="47.11893" lon="3.0244">
        <ele>165.365738</ele>
        <time>2021-09-10T08:04:55.000Z</time>
      </trkpt>
      <trkpt lat="47.11835" lon="3.02448">
        <ele>165.334056</ele>
        <time>2021-09-10T08:05:05.000Z</time>
      </trkpt>
      <trkpt lat="47.11782" lon="3.02456">
        <ele>165.284743</ele>
        <time>2021-09-10T08:05:14.000Z</time>
      </trkpt>
      <trkpt lat="47.11729" lon="3.02459">
        <ele>165.235097</ele>
        <time>2021-09-10T08:05:23.000Z</time>
      </trkpt>
      <trkpt lat="47.11677" lon="3.02461">
        <ele>165.187897</ele>
        <time>2021-09-10T08:05:32.000Z</time>
      </trkpt>
      <trkpt lat="47.11623" lon="3.02464">
        <ele>165.156639</ele>
        <time>2021-09-10T08:05:41.000Z</time>
      </trkpt>
      <trkpt lat="47.11565" lon="3.02466">
        <ele>165.12265</ele>
        <time>2021-09-10T08:05:51.000Z</time>
      </trkpt>
      <trkpt lat="47.11506" lon="3.02469">
        <ele>165.088719</ele>
        <time>2021-09-10T08:06:01.000Z</time>
      </trkpt>
      <trkpt lat="47.115" lon="3.02469">
        <ele>165.086436</ele>
        <time>2021-09-10T08:06:02.000Z</time>
      </trkpt>
      <trkpt lat="47.11465" lon="3.02471">
        <ele>165.096056</ele>
        <time>2021-09-10T08:06:08.000Z</time>
      </trkpt>
      <trkpt lat="47.11418" lon="3.02473">
        <ele>165.109259</ele>
        <time>2021-09-10T08:06:16.000Z</time>
      </trkpt>
      <trkpt lat="47.11371" lon="3.02475">
        <ele>165.122214</ele>
        <time>2021-09-10T08:06:24.000Z</time>
      </trkpt>
      <trkpt lat="47.11313" lon="3.02478">
        <ele>165.133262</ele>
        <time>2021-09-10T08:06:34.000Z</time>
      </trkpt>
      <trkpt lat="47.11266" lon="3.0248">
        <ele>165.119842</ele>
        <time>2021-09-10T08:06:42.000Z</time>
      </trkpt>
      <trkpt lat="47.11217" lon="3.02482">
        <ele>165.106024</ele>
        <time>2021-09-10T08:06:50.000Z</time>
      </trkpt>
      <trkpt lat="47.11159" lon="3.02484">
        <ele>165.089372</ele>
        <time>2021-09-10T08:07:00.000Z</time>
      </trkpt>
      <trkpt lat="47.11147" lon="3.02485">
        <ele>165.085996</ele>
        <time>2021-09-10T08:07:02.000Z</time>
      </trkpt>
      <trkpt lat="47.11093" lon="3.02487">
        <ele>165.107746</ele>
        <time>2021-09-10T08:07:11.000Z</time>
      </trkpt>
      <trkpt lat="47.11081" lon="3.02487">
        <ele>165.113325</ele>
        <time>2021-09-10T08:07:13.000Z</time>
      </trkpt>
      <trkpt lat="47.11028" lon="3.02489">
        <ele>165.138125</ele>
        <time>2021-09-10T08:07:22.000Z</time>
      </trkpt>
      <trkpt lat="47.10975" lon="3.02491">
        <ele>165.163066</ele>
        <time>2021-09-10T08:07:31.000Z</time>
      </trkpt>
      <trkpt lat="47.10952" lon="3.02492">
        <ele>165.245524</ele>
        <time>2021-09-10T08:07:35.000Z</time>
      </trkpt>
      <trkpt lat="47.10946" lon="3.02492">
        <ele>165.287209</ele>
        <time>2021-09-10T08:07:36.000Z</time>
      </trkpt>
      <trkpt lat="47.10936" lon="3.02492">
        <ele>165.367604</ele>
        <time>2021-09-10T08:07:38.000Z</time>
      </trkpt>
      <trkpt lat="47.10919" lon="3.02493">
        <ele>165.490429</ele>
        <time>2021-09-10T08:07:41.000Z</time>
      </trkpt>
      <trkpt lat="47.10903" lon="3.02493">
        <ele>165.611022</ele>
        <time>2021-09-10T08:07:44.000Z</time>
      </trkpt>
      <trkpt lat="47.10887" lon="3.02494">
        <ele>165.730127</ele>
        <time>2021-09-10T08:07:47.000Z</time>
      </trkpt>
      <trkpt lat="47.10859" lon="3.02495">
        <ele>165.940042</ele>
        <time>2021-09-10T08:07:53.000Z</time>
      </trkpt>
      <trkpt lat="47.10845" lon="3.02496">
        <ele>166.039048</ele>
        <time>2021-09-10T08:07:57.000Z</time>
      </trkpt>
      <trkpt lat="47.10844" lon="3.02496">
        <ele>166.046507</ele>
        <time>2021-09-10T08:07:58.000Z</time>
      </trkpt>
      <trkpt lat="47.10844" lon="3.02496">
        <ele>166.051716</ele>
        <time>2021-09-10T08:08:01.000Z</time>
      </trkpt>
      <trkpt lat="47.10842" lon="3.02496">
        <ele>166.062878</ele>
        <time>2021-09-10T08:10:31.000Z</time>
      </trkpt>
      <trkpt lat="47.10841" lon="3.02496">
        <ele>166.070337</ele>
        <time>2021-09-10T08:10:32.000Z</time>
      </trkpt>
      <trkpt lat="47.10839" lon="3.02496">
        <ele>166.082988</ele>
        <time>2021-09-10T08:10:36.000Z</time>
      </trkpt>
      <trkpt lat="47.10837" lon="3.02496">
        <ele>166.101599</ele>
        <time>2021-09-10T08:11:15.000Z</time>
      </trkpt>
      <trkpt lat="47.10828" lon="3.02496">
        <ele>166.170092</ele>
        <time>2021-09-10T08:11:20.000Z</time>
      </trkpt>
      <trkpt lat="47.10814" lon="3.02497">
        <ele>166.272088</ele>
        <time>2021-09-10T08:11:27.000Z</time>
      </trkpt>
      <trkpt lat="47.10813" lon="3.02497">
        <ele>166.280289</ele>
        <time>2021-09-10T08:11:30.000Z</time>
      </trkpt>
      <trkpt lat="47.10808" lon="3.02497">
        <ele>166.318255</ele>
        <time>2021-09-10T08:11:38.000Z</time>
      </trkpt>
      <trkpt lat="47.10789" lon="3.02498">
        <ele>166.459737</ele>
        <time>2021-09-10T08:11:45.000Z</time>
      </trkpt>
      <trkpt lat="47.10765" lon="3.02499">
        <ele>166.561721</ele>
        <time>2021-09-10T08:11:50.000Z</time>
      </trkpt>
      <trkpt lat="47.10725" lon="3.02501">
        <ele>166.689933</ele>
        <time>2021-09-10T08:11:57.000Z</time>
      </trkpt>
      <trkpt lat="47.1069" lon="3.02503">
        <ele>166.798252</ele>
        <time>2021-09-10T08:12:03.000Z</time>
      </trkpt>
      <trkpt lat="47.10684" lon="3.02504">
        <ele>166.817199</ele>
        <time>2021-09-10T08:12:04.000Z</time>
      </trkpt>
      <trkpt lat="47.10641" lon="3.02505">
        <ele>166.955139</ele>
        <time>2021-09-10T08:12:11.000Z</time>
      </trkpt>
      <trkpt lat="47.10598" lon="3.02504">
        <ele>167.084628</ele>
        <time>2021-09-10T08:12:18.000Z</time>
      </trkpt>
      <trkpt lat="47.10558" lon="3.02504">
        <ele>167.177039</ele>
        <time>2021-09-10T08:12:25.000Z</time>
      </trkpt>
      <trkpt lat="47.10552" lon="3.02504">
        <ele>167.189557</ele>
        <time>2021-09-10T08:12:26.000Z</time>
      </trkpt>
      <trkpt lat="47.10525" lon="3.02503">
        <ele>167.25124</ele>
        <time>2021-09-10T08:12:31.000Z</time>
      </trkpt>
      <trkpt lat="47.10489" lon="3.02503">
        <ele>167.334317</ele>
        <time>2021-09-10T08:12:38.000Z</time>
      </trkpt>
      <trkpt lat="47.10458" lon="3.02503">
        <ele>167.403963</ele>
        <time>2021-09-10T08:12:44.000Z</time>
      </trkpt>
      <trkpt lat="47.10427" lon="3.02503">
        <ele>167.47543</ele>
        <time>2021-09-10T08:12:50.000Z</time>
      </trkpt>
      <trkpt lat="47.10421" lon="3.02503">
        <ele>167.488459</ele>
        <time>2021-09-10T08:12:51.000Z</time>
      </trkpt>
      <trkpt lat="47.10397" lon="3.02503">
        <ele>167.540618</ele>
        <time>2021-09-10T08:12:55.000Z</time>
      </trkpt>
      <trkpt lat="47.10385" lon="3.02503">
        <ele>167.567243</ele>
        <time>2021-09-10T08:12:57.000Z</time>
      </trkpt>
      <trkpt lat="47.10361" lon="3.02503">
        <ele>167.619838</ele>
        <time>2021-09-10T08:13:01.000Z</time>
      </trkpt>
      <trkpt lat="47.1031" lon="3.02504">
        <ele>167.730484</ele>
        <time>2021-09-10T08:13:09.000Z</time>
      </trkpt>
      <trkpt lat="47.10259" lon="3.02504">
        <ele>167.841786</ele>
        <time>2021-09-10T08:13:17.000Z</time>
      </trkpt>
      <trkpt lat="47.102" lon="3.02504">
        <ele>167.861936</ele>
        <time>2021-09-10T08:13:26.000Z</time>
      </trkpt>
      <trkpt lat="47.10143" lon="3.02504">
        <ele>167.841721</ele>
        <time>2021-09-10T08:13:35.000Z</time>
      </trkpt>
      <trkpt lat="47.10137" lon="3.02504">
        <ele>167.839608</ele>
        <time>2021-09-10T08:13:36.000Z</time>
      </trkpt>
      <trkpt lat="47.10086" lon="3.02505">
        <ele>167.821787</ele>
        <time>2021-09-10T08:13:44.000Z</time>
      </trkpt>
      <trkpt lat="47.10028" lon="3.02505">
        <ele>167.810993</ele>
        <time>2021-09-10T08:13:53.000Z</time>
      </trkpt>
      <trkpt lat="47.10016" lon="3.02505">
        <ele>167.810023</ele>
        <time>2021-09-10T08:13:55.000Z</time>
      </trkpt>
      <trkpt lat="47.09965" lon="3.02505">
        <ele>167.806169</ele>
        <time>2021-09-10T08:14:03.000Z</time>
      </trkpt>
      <trkpt lat="47.09907" lon="3.02505">
        <ele>167.801806</ele>
        <time>2021-09-10T08:14:12.000Z</time>
      </trkpt>
      <trkpt lat="47.0985" lon="3.02506">
        <ele>167.755183</ele>
        <time>2021-09-10T08:14:21.000Z</time>
      </trkpt>
      <trkpt lat="47.09795" lon="3.02506">
        <ele>167.678693</ele>
        <time>2021-09-10T08:14:30.000Z</time>
      </trkpt>
      <trkpt lat="47.09788" lon="3.02506">
        <ele>167.670209</ele>
        <time>2021-09-10T08:14:31.000Z</time>
      </trkpt>
      <trkpt lat="47.09733" lon="3.02506">
        <ele>167.595087</ele>
        <time>2021-09-10T08:14:40.000Z</time>
      </trkpt>
      <trkpt lat="47.09715" lon="3.02506">
        <ele>167.569499</ele>
        <time>2021-09-10T08:14:43.000Z</time>
      </trkpt>
      <trkpt lat="47.0966" lon="3.02506">
        <ele>167.461144</ele>
        <time>2021-09-10T08:14:52.000Z</time>
      </trkpt>
      <trkpt lat="47.09647" lon="3.02507">
        <ele>167.434974</ele>
        <time>2021-09-10T08:14:54.000Z</time>
      </trkpt>
      <trkpt lat="47.09593" lon="3.02507">
        <ele>167.319018</ele>
        <time>2021-09-10T08:15:03.000Z</time>
      </trkpt>
      <trkpt lat="47.09538" lon="3.02507">
        <ele>167.202423</ele>
        <time>2021-09-10T08:15:12.000Z</time>
      </trkpt>
      <trkpt lat="47.09532" lon="3.02507">
        <ele>167.189232</ele>
        <time>2021-09-10T08:15:13.000Z</time>
      </trkpt>
      <trkpt lat="47.09483" lon="3.02507">
        <ele>167.101045</ele>
        <time>2021-09-10T08:15:21.000Z</time>
      </trkpt>
      <trkpt lat="47.09434" lon="3.02507">
        <ele>167.016842</ele>
        <time>2021-09-10T08:15:29.000Z</time>
      </trkpt>
      <trkpt lat="47.09379" lon="3.02508">
        <ele>166.923703</ele>
        <time>2021-09-10T08:15:38.000Z</time>
      </trkpt>
      <trkpt lat="47.09373" lon="3.02508">
        <ele>166.91322</ele>
        <time>2021-09-10T08:15:39.000Z</time>
      </trkpt>
      <trkpt lat="47.09319" lon="3.02508">
        <ele>166.879057</ele>
        <time>2021-09-10T08:15:48.000Z</time>
      </trkpt>
      <trkpt lat="47.09308" lon="3.02508">
        <ele>166.887295</ele>
        <time>2021-09-10T08:15:50.000Z</time>
      </trkpt>
      <trkpt lat="47.09258" lon="3.02508">
        <ele>166.922204</ele>
        <time>2021-09-10T08:15:59.000Z</time>
      </trkpt>
      <trkpt lat="47.09215" lon="3.02508">
        <ele>166.951876</ele>
        <time>2021-09-10T08:16:06.000Z</time>
      </trkpt>
      <trkpt lat="47.09159" lon="3.02503">
        <ele>166.983054</ele>
        <time>2021-09-10T08:16:15.000Z</time>
      </trkpt>
      <trkpt lat="47.09107" lon="3.02491">
        <ele>166.928687</ele>
        <time>2021-09-10T08:16:24.000Z</time>
      </trkpt>
      <trkpt lat="47.0906" lon="3.02478">
        <ele>166.879454</ele>
        <time>2021-09-10T08:16:32.000Z</time>
      </trkpt>
      <trkpt lat="47.09019" lon="3.02467">
        <ele>166.836504</ele>
        <time>2021-09-10T08:16:39.000Z</time>
      </trkpt>
      <trkpt lat="47.08961" lon="3.02453">
        <ele>166.821535</ele>
        <time>2021-09-10T08:16:49.000Z</time>
      </trkpt>
      <trkpt lat="47.08902" lon="3.02438">
        <ele>166.864287</ele>
        <time>2021-09-10T08:16:59.000Z</time>
      </trkpt>
      <trkpt lat="47.08861" lon="3.02429">
        <ele>166.893925</ele>
        <time>2021-09-10T08:17:06.000Z</time>
      </trkpt>
      <trkpt lat="47.08814" lon="3.02414">
        <ele>166.9287</ele>
        <time>2021-09-10T08:17:14.000Z</time>
      </trkpt>
      <trkpt lat="47.08767" lon="3.02395">
        <ele>166.948589</ele>
        <time>2021-09-10T08:17:22.000Z</time>
      </trkpt>
      <trkpt lat="47.08715" lon="3.02373">
        <ele>166.969329</ele>
        <time>2021-09-10T08:17:31.000Z</time>
      </trkpt>
      <trkpt lat="47.08703" lon="3.02368">
        <ele>166.973908</ele>
        <time>2021-09-10T08:17:33.000Z</time>
      </trkpt>
      <trkpt lat="47.08651" lon="3.02345">
        <ele>166.994365</ele>
        <time>2021-09-10T08:17:42.000Z</time>
      </trkpt>
      <trkpt lat="47.08645" lon="3.02343">
        <ele>166.996694</ele>
        <time>2021-09-10T08:17:43.000Z</time>
      </trkpt>
      <trkpt lat="47.08599" lon="3.02323">
        <ele>167.015596</ele>
        <time>2021-09-10T08:17:51.000Z</time>
      </trkpt>
      <trkpt lat="47.08561" lon="3.02296">
        <ele>167.032018</ele>
        <time>2021-09-10T08:17:58.000Z</time>
      </trkpt>
      <trkpt lat="47.0852" lon="3.0226">
        <ele>167.050849</ele>
        <time>2021-09-10T08:18:06.000Z</time>
      </trkpt>
      <trkpt lat="47.08474" lon="3.02215">
        <ele>167.079548</ele>
        <time>2021-09-10T08:18:15.000Z</time>
      </trkpt>
      <trkpt lat="47.0843" lon="3.02167">
        <ele>167.175852</ele>
        <time>2021-09-10T08:18:24.000Z</time>
      </trkpt>
      <trkpt lat="47.08426" lon="3.02162">
        <ele>167.186545</ele>
        <time>2021-09-10T08:18:25.000Z</time>
      </trkpt>
      <trkpt lat="47.08382" lon="3.02114">
        <ele>167.283713</ele>
        <time>2021-09-10T08:18:34.000Z</time>
      </trkpt>
      <trkpt lat="47.0834" lon="3.02062">
        <ele>167.382249</ele>
        <time>2021-09-10T08:18:43.000Z</time>
      </trkpt>
      <trkpt lat="47.0833" lon="3.0205">
        <ele>167.402094</ele>
        <time>2021-09-10T08:18:45.000Z</time>
      </trkpt>
      <trkpt lat="47.08297" lon="3.02009">
        <ele>167.464408</ele>
        <time>2021-09-10T08:18:52.000Z</time>
      </trkpt>
      <trkpt lat="47.08257" lon="3.01955">
        <ele>167.543227</ele>
        <time>2021-09-10T08:19:01.000Z</time>
      </trkpt>
      <trkpt lat="47.08248" lon="3.01944">
        <ele>167.560262</ele>
        <time>2021-09-10T08:19:03.000Z</time>
      </trkpt>
      <trkpt lat="47.08205" lon="3.01887">
        <ele>167.644626</ele>
        <time>2021-09-10T08:19:13.000Z</time>
      </trkpt>
      <trkpt lat="47.08163" lon="3.01835">
        <ele>167.765793</ele>
        <time>2021-09-10T08:19:22.000Z</time>
      </trkpt>
      <trkpt lat="47.08129" lon="3.01801">
        <ele>167.860714</ele>
        <time>2021-09-10T08:19:29.000Z</time>
      </trkpt>
      <trkpt lat="47.08081" lon="3.01756">
        <ele>167.991245</ele>
        <time>2021-09-10T08:19:39.000Z</time>
      </trkpt>
      <trkpt lat="47.08071" lon="3.01747">
        <ele>168.017036</ele>
        <time>2021-09-10T08:19:41.000Z</time>
      </trkpt>
      <trkpt lat="47.08032" lon="3.0171">
        <ele>168.074179</ele>
        <time>2021-09-10T08:19:49.000Z</time>
      </trkpt>
      <trkpt lat="47.0799" lon="3.01671">
        <ele>168.094418</ele>
        <time>2021-09-10T08:19:57.000Z</time>
      </trkpt>
      <trkpt lat="47.07954" lon="3.01651">
        <ele>168.11004</ele>
        <time>2021-09-10T08:20:03.000Z</time>
      </trkpt>
      <trkpt lat="47.07903" lon="3.01624">
        <ele>168.13237</ele>
        <time>2021-09-10T08:20:12.000Z</time>
      </trkpt>
      <trkpt lat="47.07848" lon="3.01593">
        <ele>168.143535</ele>
        <time>2021-09-10T08:20:22.000Z</time>
      </trkpt>
      <trkpt lat="47.07842" lon="3.0159">
        <ele>168.144368</ele>
        <time>2021-09-10T08:20:23.000Z</time>
      </trkpt>
      <trkpt lat="47.07797" lon="3.01564">
        <ele>168.151161</ele>
        <time>2021-09-10T08:20:31.000Z</time>
      </trkpt>
      <trkpt lat="47.07763" lon="3.01545">
        <ele>168.156241</ele>
        <time>2021-09-10T08:20:37.000Z</time>
      </trkpt>
      <trkpt lat="47.07747" lon="3.01536">
        <ele>168.158565</ele>
        <time>2021-09-10T08:20:40.000Z</time>
      </trkpt>
      <trkpt lat="47.0772" lon="3.01519">
        <ele>168.156506</ele>
        <time>2021-09-10T08:20:45.000Z</time>
      </trkpt>
      <trkpt lat="47.07669" lon="3.01487">
        <ele>168.097929</ele>
        <time>2021-09-10T08:20:54.000Z</time>
      </trkpt>
      <trkpt lat="47.0762" lon="3.01456">
        <ele>168.040496</ele>
        <time>2021-09-10T08:21:03.000Z</time>
      </trkpt>
      <trkpt lat="47.07608" lon="3.01449">
        <ele>168.027597</ele>
        <time>2021-09-10T08:21:05.000Z</time>
      </trkpt>
      <trkpt lat="47.07564" lon="3.01421">
        <ele>167.97699</ele>
        <time>2021-09-10T08:21:13.000Z</time>
      </trkpt>
      <trkpt lat="47.07521" lon="3.01394">
        <ele>167.956849</ele>
        <time>2021-09-10T08:21:21.000Z</time>
      </trkpt>
      <trkpt lat="47.07489" lon="3.01374">
        <ele>167.944678</ele>
        <time>2021-09-10T08:21:27.000Z</time>
      </trkpt>
      <trkpt lat="47.07472" lon="3.01363">
        <ele>167.93856</ele>
        <time>2021-09-10T08:21:30.000Z</time>
      </trkpt>
      <trkpt lat="47.07456" lon="3.01353">
        <ele>167.932465</ele>
        <time>2021-09-10T08:21:33.000Z</time>
      </trkpt>
      <trkpt lat="47.07418" lon="3.01329">
        <ele>167.918006</ele>
        <time>2021-09-10T08:21:40.000Z</time>
      </trkpt>
      <trkpt lat="47.07368" lon="3.01298">
        <ele>167.908222</ele>
        <time>2021-09-10T08:21:49.000Z</time>
      </trkpt>
      <trkpt lat="47.07357" lon="3.01291">
        <ele>167.907806</ele>
        <time>2021-09-10T08:21:51.000Z</time>
      </trkpt>
      <trkpt lat="47.07307" lon="3.01259">
        <ele>167.905938</ele>
        <time>2021-09-10T08:22:00.000Z</time>
      </trkpt>
      <trkpt lat="47.07296" lon="3.01252">
        <ele>167.905526</ele>
        <time>2021-09-10T08:22:02.000Z</time>
      </trkpt>
      <trkpt lat="47.07261" lon="3.0123">
        <ele>167.904211</ele>
        <time>2021-09-10T08:22:09.000Z</time>
      </trkpt>
      <trkpt lat="47.07244" lon="3.01218">
        <ele>167.903573</ele>
        <time>2021-09-10T08:22:13.000Z</time>
      </trkpt>
      <trkpt lat="47.07235" lon="3.01206">
        <ele>167.903148</ele>
        <time>2021-09-10T08:22:16.000Z</time>
      </trkpt>
      <trkpt lat="47.07222" lon="3.0121">
        <ele>167.909881</ele>
        <time>2021-09-10T08:22:18.000Z</time>
      </trkpt>
      <trkpt lat="47.07217" lon="3.01213">
        <ele>167.91367</ele>
        <time>2021-09-10T08:22:19.000Z</time>
      </trkpt>
      <trkpt lat="47.07185" lon="3.01233">
        <ele>167.938467</ele>
        <time>2021-09-10T08:22:25.000Z</time>
      </trkpt>
      <trkpt lat="47.07135" lon="3.01264">
        <ele>167.977177</ele>
        <time>2021-09-10T08:22:34.000Z</time>
      </trkpt>
      <trkpt lat="47.07102" lon="3.01284">
        <ele>168.003281</ele>
        <time>2021-09-10T08:22:40.000Z</time>
      </trkpt>
      <trkpt lat="47.07055" lon="3.01313">
        <ele>168.077198</ele>
        <time>2021-09-10T08:22:49.000Z</time>
      </trkpt>
      <trkpt lat="47.07025" lon="3.01327">
        <ele>168.206568</ele>
        <time>2021-09-10T08:22:55.000Z</time>
      </trkpt>
      <trkpt lat="47.07014" lon="3.01329">
        <ele>168.250248</ele>
        <time>2021-09-10T08:22:57.000Z</time>
      </trkpt>
      <trkpt lat="47.06987" lon="3.01335">
        <ele>168.365148</ele>
        <time>2021-09-10T08:23:02.000Z</time>
      </trkpt>
      <trkpt lat="47.06939" lon="3.01354">
        <ele>168.567874</ele>
        <time>2021-09-10T08:23:10.000Z</time>
      </trkpt>
      <trkpt lat="47.06901" lon="3.01371">
        <ele>168.732837</ele>
        <time>2021-09-10T08:23:16.000Z</time>
      </trkpt>
      <trkpt lat="47.06878" lon="3.01386">
        <ele>168.931861</ele>
        <time>2021-09-10T08:23:21.000Z</time>
      </trkpt>
      <trkpt lat="47.06858" lon="3.01397">
        <ele>169.157749</ele>
        <time>2021-09-10T08:23:27.000Z</time>
      </trkpt>
      <trkpt lat="47.06845" lon="3.01405">
        <ele>169.312681</ele>
        <time>2021-09-10T08:23:32.000Z</time>
      </trkpt>
      <trkpt lat="47.06827" lon="3.01413">
        <ele>169.509684</ele>
        <time>2021-09-10T08:23:39.000Z</time>
      </trkpt>
      <trkpt lat="47.06814" lon="3.01422">
        <ele>169.662576</ele>
        <time>2021-09-10T08:23:43.000Z</time>
      </trkpt>
      <trkpt lat="47.06787" lon="3.01448">
        <ele>170.000391</ele>
        <time>2021-09-10T08:23:50.000Z</time>
      </trkpt>
      <trkpt lat="47.06774" lon="3.0146">
        <ele>170.161068</ele>
        <time>2021-09-10T08:23:53.000Z</time>
      </trkpt>
      <trkpt lat="47.0676" lon="3.01473">
        <ele>170.329248</ele>
        <time>2021-09-10T08:23:56.000Z</time>
      </trkpt>
      <trkpt lat="47.06756" lon="3.01477">
        <ele>170.384635</ele>
        <time>2021-09-10T08:23:57.000Z</time>
      </trkpt>
      <trkpt lat="47.06738" lon="3.01491">
        <ele>170.597246</ele>
        <time>2021-09-10T08:24:01.000Z</time>
      </trkpt>
      <trkpt lat="47.06708" lon="3.0151">
        <ele>170.758614</ele>
        <time>2021-09-10T08:24:07.000Z</time>
      </trkpt>
      <trkpt lat="47.06678" lon="3.01529">
        <ele>170.878274</ele>
        <time>2021-09-10T08:24:13.000Z</time>
      </trkpt>
      <trkpt lat="47.06641" lon="3.01552">
        <ele>171.023874</ele>
        <time>2021-09-10T08:24:20.000Z</time>
      </trkpt>
      <trkpt lat="47.06606" lon="3.01575">
        <ele>171.162418</ele>
        <time>2021-09-10T08:24:26.000Z</time>
      </trkpt>
      <trkpt lat="47.06565" lon="3.01601">
        <ele>171.321722</ele>
        <time>2021-09-10T08:24:33.000Z</time>
      </trkpt>
      <trkpt lat="47.06527" lon="3.01632">
        <ele>171.438263</ele>
        <time>2021-09-10T08:24:40.000Z</time>
      </trkpt>
      <trkpt lat="47.06487" lon="3.01655">
        <ele>171.556078</ele>
        <time>2021-09-10T08:24:47.000Z</time>
      </trkpt>
      <trkpt lat="47.06469" lon="3.01663">
        <ele>171.606305</ele>
        <time>2021-09-10T08:24:50.000Z</time>
      </trkpt>
      <trkpt lat="47.06457" lon="3.01671">
        <ele>171.64078</ele>
        <time>2021-09-10T08:24:52.000Z</time>
      </trkpt>
      <trkpt lat="47.06451" lon="3.01675">
        <ele>171.658373</ele>
        <time>2021-09-10T08:24:53.000Z</time>
      </trkpt>
      <trkpt lat="47.06427" lon="3.01689">
        <ele>171.727466</ele>
        <time>2021-09-10T08:24:57.000Z</time>
      </trkpt>
      <trkpt lat="47.06387" lon="3.01715">
        <ele>171.827412</ele>
        <time>2021-09-10T08:25:04.000Z</time>
      </trkpt>
      <trkpt lat="47.06345" lon="3.01741">
        <ele>171.904391</ele>
        <time>2021-09-10T08:25:12.000Z</time>
      </trkpt>
      <trkpt lat="47.06302" lon="3.01768">
        <ele>171.980824</ele>
        <time>2021-09-10T08:25:20.000Z</time>
      </trkpt>
      <trkpt lat="47.06273" lon="3.01787">
        <ele>172.034196</ele>
        <time>2021-09-10T08:25:26.000Z</time>
      </trkpt>
      <trkpt lat="47.06236" lon="3.0181">
        <ele>172.100649</ele>
        <time>2021-09-10T08:25:34.000Z</time>
      </trkpt>
      <trkpt lat="47.06232" lon="3.01812">
        <ele>172.108406</ele>
        <time>2021-09-10T08:25:35.000Z</time>
      </trkpt>
      <trkpt lat="47.06218" lon="3.01821">
        <ele>172.132878</ele>
        <time>2021-09-10T08:25:38.000Z</time>
      </trkpt>
      <trkpt lat="47.06209" lon="3.01827">
        <ele>172.149833</ele>
        <time>2021-09-10T08:25:40.000Z</time>
      </trkpt>
      <trkpt lat="47.06199" lon="3.01832">
        <ele>172.166592</ele>
        <time>2021-09-10T08:25:42.000Z</time>
      </trkpt>
      <trkpt lat="47.06194" lon="3.01835">
        <ele>172.175244</ele>
        <time>2021-09-10T08:25:43.000Z</time>
      </trkpt>
      <trkpt lat="47.06166" lon="3.01853">
        <ele>172.22622</ele>
        <time>2021-09-10T08:25:49.000Z</time>
      </trkpt>
      <trkpt lat="47.06136" lon="3.01872">
        <ele>172.281216</ele>
        <time>2021-09-10T08:25:56.000Z</time>
      </trkpt>
      <trkpt lat="47.06097" lon="3.01898">
        <ele>172.352164</ele>
        <time>2021-09-10T08:26:04.000Z</time>
      </trkpt>
      <trkpt lat="47.06087" lon="3.01904">
        <ele>172.37</ele>
        <time>2021-09-10T08:26:06.000Z</time>
      </trkpt>
      <trkpt lat="47.06078" lon="3.0191">
        <ele>172.38565</ele>
        <time>2021-09-10T08:26:08.000Z</time>
      </trkpt>
      <trkpt lat="47.06074" lon="3.01913">
        <ele>172.393847</ele>
        <time>2021-09-10T08:26:09.000Z</time>
      </trkpt>
      <trkpt lat="47.06055" lon="3.01925">
        <ele>172.447645</ele>
        <time>2021-09-10T08:26:13.000Z</time>
      </trkpt>
      <trkpt lat="47.06051" lon="3.01928">
        <ele>172.460565</ele>
        <time>2021-09-10T08:26:14.000Z</time>
      </trkpt>
      <trkpt lat="47.06047" lon="3.01931">
        <ele>172.472984</ele>
        <time>2021-09-10T08:26:15.000Z</time>
      </trkpt>
      <trkpt lat="47.06029" lon="3.01943">
        <ele>172.527452</ele>
        <time>2021-09-10T08:26:19.000Z</time>
      </trkpt>
      <trkpt lat="47.0602" lon="3.01949">
        <ele>172.554927</ele>
        <time>2021-09-10T08:26:21.000Z</time>
      </trkpt>
      <trkpt lat="47.06006" lon="3.01957">
        <ele>172.594916</ele>
        <time>2021-09-10T08:26:24.000Z</time>
      </trkpt>
      <trkpt lat="47.0596" lon="3.01988">
        <ele>172.736179</ele>
        <time>2021-09-10T08:26:34.000Z</time>
      </trkpt>
      <trkpt lat="47.05939" lon="3.02002">
        <ele>172.799067</ele>
        <time>2021-09-10T08:26:39.000Z</time>
      </trkpt>
      <trkpt lat="47.05934" lon="3.02004">
        <ele>172.811194</ele>
        <time>2021-09-10T08:26:40.000Z</time>
      </trkpt>
      <trkpt lat="47.0593" lon="3.02006">
        <ele>172.823264</ele>
        <time>2021-09-10T08:26:41.000Z</time>
      </trkpt>
      <trkpt lat="47.05923" lon="3.02009">
        <ele>172.84456</ele>
        <time>2021-09-10T08:26:43.000Z</time>
      </trkpt>
      <trkpt lat="47.05919" lon="3.02011">
        <ele>172.85663</ele>
        <time>2021-09-10T08:26:44.000Z</time>
      </trkpt>
      <trkpt lat="47.05892" lon="3.02022">
        <ele>172.988283</ele>
        <time>2021-09-10T08:26:50.000Z</time>
      </trkpt>
      <trkpt lat="47.05874" lon="3.02029">
        <ele>173.111498</ele>
        <time>2021-09-10T08:26:54.000Z</time>
      </trkpt>
      <trkpt lat="47.05865" lon="3.02032">
        <ele>173.167025</ele>
        <time>2021-09-10T08:26:56.000Z</time>
      </trkpt>
      <trkpt lat="47.05847" lon="3.02039">
        <ele>173.292743</ele>
        <time>2021-09-10T08:27:00.000Z</time>
      </trkpt>
      <trkpt lat="47.05837" lon="3.02043">
        <ele>173.356541</ele>
        <time>2021-09-10T08:27:02.000Z</time>
      </trkpt>
      <trkpt lat="47.05818" lon="3.02049">
        <ele>173.486027</ele>
        <time>2021-09-10T08:27:06.000Z</time>
      </trkpt>
      <trkpt lat="47.05808" lon="3.02053">
        <ele>173.549825</ele>
        <time>2021-09-10T08:27:08.000Z</time>
      </trkpt>
      <trkpt lat="47.05775" lon="3.02064">
        <ele>173.769616</ele>
        <time>2021-09-10T08:27:15.000Z</time>
      </trkpt>
      <trkpt lat="47.05736" lon="3.02077">
        <ele>174.028588</ele>
        <time>2021-09-10T08:27:23.000Z</time>
      </trkpt>
      <trkpt lat="47.05731" lon="3.02078">
        <ele>174.05659</ele>
        <time>2021-09-10T08:27:24.000Z</time>
      </trkpt>
      <trkpt lat="47.05721" lon="3.02082">
        <ele>174.101688</ele>
        <time>2021-09-10T08:27:27.000Z</time>
      </trkpt>
      <trkpt lat="47.05709" lon="3.02085">
        <ele>174.154843</ele>
        <time>2021-09-10T08:27:32.000Z</time>
      </trkpt>
      <trkpt lat="47.05701" lon="3.02092">
        <ele>174.197003</ele>
        <time>2021-09-10T08:27:37.000Z</time>
      </trkpt>
      <trkpt lat="47.05697" lon="3.02096">
        <ele>174.219516</ele>
        <time>2021-09-10T08:27:40.000Z</time>
      </trkpt>
      <trkpt lat="47.05695" lon="3.02088">
        <ele>174.244164</ele>
        <time>2021-09-10T08:27:42.000Z</time>
      </trkpt>
      <trkpt lat="47.05694" lon="3.02084">
        <ele>174.257882</ele>
        <time>2021-09-10T08:27:44.000Z</time>
      </trkpt>
      <trkpt lat="47.05697" lon="3.02096">
        <ele>174.29605</ele>
        <time>2021-09-10T08:27:46.000Z</time>
      </trkpt>
      <trkpt lat="47.05699" lon="3.02094">
        <ele>174.308095</ele>
        <time>2021-09-10T08:28:50.000Z</time>
      </trkpt>
      <trkpt lat="47.057" lon="3.02094">
        <ele>174.311107</ele>
        <time>2021-09-10T08:28:51.000Z</time>
      </trkpt>
      <trkpt lat="47.05693" lon="3.02073">
        <ele>174.37961</ele>
        <time>2021-09-10T08:28:56.000Z</time>
      </trkpt>
      <trkpt lat="47.05689" lon="3.02047">
        <ele>174.457229</ele>
        <time>2021-09-10T08:29:01.000Z</time>
      </trkpt>
      <trkpt lat="47.05683" lon="3.02013">
        <ele>174.562818</ele>
        <time>2021-09-10T08:29:06.000Z</time>
      </trkpt>
      <trkpt lat="47.05679" lon="3.0199">
        <ele>174.632143</ele>
        <time>2021-09-10T08:29:09.000Z</time>
      </trkpt>
      <trkpt lat="47.05671" lon="3.0198">
        <ele>174.67939</ele>
        <time>2021-09-10T08:29:11.000Z</time>
      </trkpt>
      <trkpt lat="47.05661" lon="3.01985">
        <ele>174.72522</ele>
        <time>2021-09-10T08:29:13.000Z</time>
      </trkpt>
      <trkpt lat="47.05656" lon="3.01987">
        <ele>174.750217</ele>
        <time>2021-09-10T08:29:14.000Z</time>
      </trkpt>
      <trkpt lat="47.05651" lon="3.01991">
        <ele>174.773356</ele>
        <time>2021-09-10T08:29:15.000Z</time>
      </trkpt>
      <trkpt lat="47.05638" lon="3.02007">
        <ele>174.823189</ele>
        <time>2021-09-10T08:29:18.000Z</time>
      </trkpt>
      <trkpt lat="47.05603" lon="3.0205">
        <ele>174.508565</ele>
        <time>2021-09-10T08:29:26.000Z</time>
      </trkpt>
      <trkpt lat="47.05583" lon="3.02072">
        <ele>174.329166</ele>
        <time>2021-09-10T08:29:31.000Z</time>
      </trkpt>
      <trkpt lat="47.05579" lon="3.02076">
        <ele>174.293119</ele>
        <time>2021-09-10T08:29:32.000Z</time>
      </trkpt>
      <trkpt lat="47.05569" lon="3.02082">
        <ele>174.222158</ele>
        <time>2021-09-10T08:29:34.000Z</time>
      </trkpt>
      <trkpt lat="47.05548" lon="3.0209">
        <ele>174.067666</ele>
        <time>2021-09-10T08:29:38.000Z</time>
      </trkpt>
      <trkpt lat="47.05506" lon="3.02106">
        <ele>173.761743</ele>
        <time>2021-09-10T08:29:46.000Z</time>
      </trkpt>
      <trkpt lat="47.05463" lon="3.02123">
        <ele>173.537436</ele>
        <time>2021-09-10T08:29:54.000Z</time>
      </trkpt>
      <trkpt lat="47.05423" lon="3.02149">
        <ele>173.446998</ele>
        <time>2021-09-10T08:30:02.000Z</time>
      </trkpt>
      <trkpt lat="47.0539" lon="3.02183">
        <ele>173.363283</ele>
        <time>2021-09-10T08:30:09.000Z</time>
      </trkpt>
      <trkpt lat="47.05358" lon="3.02234">
        <ele>173.263368</ele>
        <time>2021-09-10T08:30:17.000Z</time>
      </trkpt>
      <trkpt lat="47.05332" lon="3.02293">
        <ele>173.20073</ele>
        <time>2021-09-10T08:30:25.000Z</time>
      </trkpt>
      <trkpt lat="47.05304" lon="3.02364">
        <ele>173.2026</ele>
        <time>2021-09-10T08:30:34.000Z</time>
      </trkpt>
      <trkpt lat="47.05283" lon="3.0242">
        <ele>173.204072</ele>
        <time>2021-09-10T08:30:41.000Z</time>
      </trkpt>
      <trkpt lat="47.05256" lon="3.02478">
        <ele>173.205666</ele>
        <time>2021-09-10T08:30:49.000Z</time>
      </trkpt>
      <trkpt lat="47.05226" lon="3.02518">
        <ele>173.334777</ele>
        <time>2021-09-10T08:30:56.000Z</time>
      </trkpt>
      <trkpt lat="47.05189" lon="3.02553">
        <ele>173.567237</ele>
        <time>2021-09-10T08:31:04.000Z</time>
      </trkpt>
      <trkpt lat="47.05154" lon="3.02574">
        <ele>173.763919</ele>
        <time>2021-09-10T08:31:11.000Z</time>
      </trkpt>
      <trkpt lat="47.05115" lon="3.02599">
        <ele>173.986461</ele>
        <time>2021-09-10T08:31:19.000Z</time>
      </trkpt>
      <trkpt lat="47.05085" lon="3.02618">
        <ele>174.153665</ele>
        <time>2021-09-10T08:31:25.000Z</time>
      </trkpt>
      <trkpt lat="47.0508" lon="3.02621">
        <ele>174.172957</ele>
        <time>2021-09-10T08:31:26.000Z</time>
      </trkpt>
      <trkpt lat="47.05034" lon="3.02651">
        <ele>174.352132</ele>
        <time>2021-09-10T08:31:35.000Z</time>
      </trkpt>
      <trkpt lat="47.04995" lon="3.02679">
        <ele>174.50464</ele>
        <time>2021-09-10T08:31:42.000Z</time>
      </trkpt>
      <trkpt lat="47.04952" lon="3.0271">
        <ele>174.675668</ele>
        <time>2021-09-10T08:31:50.000Z</time>
      </trkpt>
      <trkpt lat="47.04914" lon="3.02738">
        <ele>174.819871</ele>
        <time>2021-09-10T08:31:57.000Z</time>
      </trkpt>
      <trkpt lat="47.04874" lon="3.02763">
        <ele>174.94503</ele>
        <time>2021-09-10T08:32:04.000Z</time>
      </trkpt>
      <trkpt lat="47.04828" lon="3.02786">
        <ele>175.085384</ele>
        <time>2021-09-10T08:32:12.000Z</time>
      </trkpt>
      <trkpt lat="47.04781" lon="3.02803">
        <ele>175.225137</ele>
        <time>2021-09-10T08:32:20.000Z</time>
      </trkpt>
      <trkpt lat="47.04739" lon="3.02816">
        <ele>175.313091</ele>
        <time>2021-09-10T08:32:27.000Z</time>
      </trkpt>
      <trkpt lat="47.04694" lon="3.02831">
        <ele>175.339521</ele>
        <time>2021-09-10T08:32:35.000Z</time>
      </trkpt>
      <trkpt lat="47.04646" lon="3.02846">
        <ele>175.367231</ele>
        <time>2021-09-10T08:32:43.000Z</time>
      </trkpt>
      <trkpt lat="47.04605" lon="3.02859">
        <ele>175.391513</ele>
        <time>2021-09-10T08:32:50.000Z</time>
      </trkpt>
      <trkpt lat="47.04576" lon="3.02869">
        <ele>175.392268</ele>
        <time>2021-09-10T08:32:55.000Z</time>
      </trkpt>
      <trkpt lat="47.04532" lon="3.02881">
        <ele>175.162706</ele>
        <time>2021-09-10T08:33:02.000Z</time>
      </trkpt>
      <trkpt lat="47.04486" lon="3.02891">
        <ele>174.924607</ele>
        <time>2021-09-10T08:33:08.000Z</time>
      </trkpt>
      <trkpt lat="47.04447" lon="3.029">
        <ele>174.716477</ele>
        <time>2021-09-10T08:33:13.000Z</time>
      </trkpt>
      <trkpt lat="47.04407" lon="3.02911">
        <ele>174.509049</ele>
        <time>2021-09-10T08:33:18.000Z</time>
      </trkpt>
      <trkpt lat="47.04379" lon="3.02925">
        <ele>174.428611</ele>
        <time>2021-09-10T08:33:22.000Z</time>
      </trkpt>
      <trkpt lat="47.04339" lon="3.02949">
        <ele>174.337297</ele>
        <time>2021-09-10T08:33:28.000Z</time>
      </trkpt>
      <trkpt lat="47.04295" lon="3.02977">
        <ele>174.235686</ele>
        <time>2021-09-10T08:33:35.000Z</time>
      </trkpt>
      <trkpt lat="47.04243" lon="3.03009">
        <ele>174.116242</ele>
        <time>2021-09-10T08:33:44.000Z</time>
      </trkpt>
      <trkpt lat="47.04238" lon="3.03013">
        <ele>174.103252</ele>
        <time>2021-09-10T08:33:45.000Z</time>
      </trkpt>
      <trkpt lat="47.04215" lon="3.03027">
        <ele>174.010821</ele>
        <time>2021-09-10T08:33:49.000Z</time>
      </trkpt>
      <trkpt lat="47.04177" lon="3.0306">
        <ele>173.834298</ele>
        <time>2021-09-10T08:33:56.000Z</time>
      </trkpt>
      <trkpt lat="47.04138" lon="3.03098">
        <ele>173.649924</ele>
        <time>2021-09-10T08:34:03.000Z</time>
      </trkpt>
      <trkpt lat="47.0411" lon="3.03124">
        <ele>173.518094</ele>
        <time>2021-09-10T08:34:08.000Z</time>
      </trkpt>
      <trkpt lat="47.04074" lon="3.03154">
        <ele>173.420707</ele>
        <time>2021-09-10T08:34:14.000Z</time>
      </trkpt>
      <trkpt lat="47.04039" lon="3.03165">
        <ele>173.5787</ele>
        <time>2021-09-10T08:34:19.000Z</time>
      </trkpt>
      <trkpt lat="47.03993" lon="3.0318">
        <ele>173.790479</ele>
        <time>2021-09-10T08:34:26.000Z</time>
      </trkpt>
      <trkpt lat="47.03961" lon="3.0319">
        <ele>173.93571</ele>
        <time>2021-09-10T08:34:32.000Z</time>
      </trkpt>
      <trkpt lat="47.03925" lon="3.03192">
        <ele>174.094835</ele>
        <time>2021-09-10T08:34:40.000Z</time>
      </trkpt>
      <trkpt lat="47.03882" lon="3.0319">
        <ele>174.433499</ele>
        <time>2021-09-10T08:34:50.000Z</time>
      </trkpt>
      <trkpt lat="47.0383" lon="3.03187">
        <ele>175.011674</ele>
        <time>2021-09-10T08:35:02.000Z</time>
      </trkpt>
      <trkpt lat="47.03773" lon="3.03181">
        <ele>175.638767</ele>
        <time>2021-09-10T08:35:14.000Z</time>
      </trkpt>
      <trkpt lat="47.03733" lon="3.03177">
        <ele>176.088579</ele>
        <time>2021-09-10T08:35:22.000Z</time>
      </trkpt>
      <trkpt lat="47.03728" lon="3.03176">
        <ele>176.145102</ele>
        <time>2021-09-10T08:35:23.000Z</time>
      </trkpt>
      <trkpt lat="47.0368" lon="3.03164">
        <ele>176.506302</ele>
        <time>2021-09-10T08:35:32.000Z</time>
      </trkpt>
      <trkpt lat="47.0364" lon="3.03148">
        <ele>176.809354</ele>
        <time>2021-09-10T08:35:39.000Z</time>
      </trkpt>
      <trkpt lat="47.03589" lon="3.03114">
        <ele>177.21778</ele>
        <time>2021-09-10T08:35:48.000Z</time>
      </trkpt>
      <trkpt lat="47.03547" lon="3.03079">
        <ele>177.601207</ele>
        <time>2021-09-10T08:35:56.000Z</time>
      </trkpt>
      <trkpt lat="47.03507" lon="3.03047">
        <ele>178.052444</ele>
        <time>2021-09-10T08:36:04.000Z</time>
      </trkpt>
      <trkpt lat="47.03469" lon="3.0302">
        <ele>178.47852</ele>
        <time>2021-09-10T08:36:12.000Z</time>
      </trkpt>
      <trkpt lat="47.03433" lon="3.03001">
        <ele>178.857603</ele>
        <time>2021-09-10T08:36:19.000Z</time>
      </trkpt>
      <trkpt lat="47.0339" lon="3.02985">
        <ele>179.286189</ele>
        <time>2021-09-10T08:36:27.000Z</time>
      </trkpt>
      <trkpt lat="47.0335" lon="3.02976">
        <ele>179.41708</ele>
        <time>2021-09-10T08:36:34.000Z</time>
      </trkpt>
      <trkpt lat="47.03302" lon="3.02975">
        <ele>179.575205</ele>
        <time>2021-09-10T08:36:42.000Z</time>
      </trkpt>
      <trkpt lat="47.03247" lon="3.02977">
        <ele>179.755263</ele>
        <time>2021-09-10T08:36:50.000Z</time>
      </trkpt>
      <trkpt lat="47.03209" lon="3.02979">
        <ele>179.882002</ele>
        <time>2021-09-10T08:36:56.000Z</time>
      </trkpt>
      <trkpt lat="47.03178" lon="3.02981">
        <ele>180.016432</ele>
        <time>2021-09-10T08:37:02.000Z</time>
      </trkpt>
      <trkpt lat="47.03172" lon="3.02981">
        <ele>180.039262</ele>
        <time>2021-09-10T08:37:03.000Z</time>
      </trkpt>
      <trkpt lat="47.0314" lon="3.02984">
        <ele>180.177475</ele>
        <time>2021-09-10T08:37:09.000Z</time>
      </trkpt>
      <trkpt lat="47.03102" lon="3.02986">
        <ele>180.336843</ele>
        <time>2021-09-10T08:37:16.000Z</time>
      </trkpt>
      <trkpt lat="47.03069" lon="3.02989">
        <ele>180.4776</ele>
        <time>2021-09-10T08:37:22.000Z</time>
      </trkpt>
      <trkpt lat="47.03024" lon="3.02992">
        <ele>180.629663</ele>
        <time>2021-09-10T08:37:30.000Z</time>
      </trkpt>
      <trkpt lat="47.03014" lon="3.02992">
        <ele>180.632964</ele>
        <time>2021-09-10T08:37:32.000Z</time>
      </trkpt>
      <trkpt lat="47.02998" lon="3.02993">
        <ele>180.637776</ele>
        <time>2021-09-10T08:37:35.000Z</time>
      </trkpt>
      <trkpt lat="47.02982" lon="3.02995">
        <ele>180.642772</ele>
        <time>2021-09-10T08:37:38.000Z</time>
      </trkpt>
      <trkpt lat="47.02965" lon="3.02996">
        <ele>180.648016</ele>
        <time>2021-09-10T08:37:41.000Z</time>
      </trkpt>
      <trkpt lat="47.02923" lon="3.02999">
        <ele>180.660815</ele>
        <time>2021-09-10T08:37:48.000Z</time>
      </trkpt>
      <trkpt lat="47.0288" lon="3.03002">
        <ele>180.674078</ele>
        <time>2021-09-10T08:37:56.000Z</time>
      </trkpt>
      <trkpt lat="47.02859" lon="3.03002">
        <ele>180.680609</ele>
        <time>2021-09-10T08:38:00.000Z</time>
      </trkpt>
      <trkpt lat="47.02849" lon="3.02998">
        <ele>180.634135</ele>
        <time>2021-09-10T08:38:02.000Z</time>
      </trkpt>
      <trkpt lat="47.02839" lon="3.02988">
        <ele>180.524834</ele>
        <time>2021-09-10T08:38:05.000Z</time>
      </trkpt>
      <trkpt lat="47.02834" lon="3.0299">
        <ele>180.473795</ele>
        <time>2021-09-10T08:38:06.000Z</time>
      </trkpt>
      <trkpt lat="47.0283" lon="3.02996">
        <ele>180.427704</ele>
        <time>2021-09-10T08:38:07.000Z</time>
      </trkpt>
      <trkpt lat="47.02822" lon="3.03008">
        <ele>180.316573</ele>
        <time>2021-09-10T08:38:09.000Z</time>
      </trkpt>
      <trkpt lat="47.02793" lon="3.03049">
        <ele>179.947456</ele>
        <time>2021-09-10T08:38:15.000Z</time>
      </trkpt>
      <trkpt lat="47.02773" lon="3.03077">
        <ele>179.690258</ele>
        <time>2021-09-10T08:38:19.000Z</time>
      </trkpt>
      <trkpt lat="47.02762" lon="3.03075">
        <ele>179.588617</ele>
        <time>2021-09-10T08:38:20.000Z</time>
      </trkpt>
      <trkpt lat="47.0276" lon="3.03075">
        <ele>179.569186</ele>
        <time>2021-09-10T08:38:21.000Z</time>
      </trkpt>
      <trkpt lat="47.02752" lon="3.03074">
        <ele>179.493052</ele>
        <time>2021-09-10T08:38:22.000Z</time>
      </trkpt>
      <trkpt lat="47.02747" lon="3.03067">
        <ele>179.433286</ele>
        <time>2021-09-10T08:38:23.000Z</time>
      </trkpt>
      <trkpt lat="47.02736" lon="3.03052">
        <ele>179.292359</ele>
        <time>2021-09-10T08:38:26.000Z</time>
      </trkpt>
      <trkpt lat="47.02734" lon="3.03049">
        <ele>179.267883</ele>
        <time>2021-09-10T08:38:27.000Z</time>
      </trkpt>
      <trkpt lat="47.02734" lon="3.03049">
        <ele>179.264132</ele>
        <time>2021-09-10T08:38:28.000Z</time>
      </trkpt>
      <trkpt lat="47.0274" lon="3.03057">
        <ele>179.185182</ele>
        <time>2021-09-10T08:38:31.000Z</time>
      </trkpt>
      <trkpt lat="47.02751" lon="3.03073">
        <ele>179.042717</ele>
        <time>2021-09-10T08:38:35.000Z</time>
      </trkpt>
      <trkpt lat="47.02754" lon="3.03077">
        <ele>179.027068</ele>
        <time>2021-09-10T08:38:36.000Z</time>
      </trkpt>
      <trkpt lat="47.02755" lon="3.03087">
        <ele>179.064629</ele>
        <time>2021-09-10T08:38:37.000Z</time>
      </trkpt>
      <trkpt lat="47.02754" lon="3.03102">
        <ele>179.119306</ele>
        <time>2021-09-10T08:38:39.000Z</time>
      </trkpt>
      <trkpt lat="47.02748" lon="3.03115">
        <ele>179.176683</ele>
        <time>2021-09-10T08:38:41.000Z</time>
      </trkpt>
      <trkpt lat="47.02744" lon="3.03121">
        <ele>179.20509</ele>
        <time>2021-09-10T08:38:42.000Z</time>
      </trkpt>
      <trkpt lat="47.02722" lon="3.03154">
        <ele>179.372401</ele>
        <time>2021-09-10T08:38:48.000Z</time>
      </trkpt>
      <trkpt lat="47.02719" lon="3.03158">
        <ele>179.397613</ele>
        <time>2021-09-10T08:38:49.000Z</time>
      </trkpt>
      <trkpt lat="47.02708" lon="3.03168">
        <ele>179.467118</ele>
        <time>2021-09-10T08:38:52.000Z</time>
      </trkpt>
      <trkpt lat="47.02697" lon="3.03175">
        <ele>179.528911</ele>
        <time>2021-09-10T08:38:55.000Z</time>
      </trkpt>
      <trkpt lat="47.02667" lon="3.03182">
        <ele>179.69041</ele>
        <time>2021-09-10T08:39:03.000Z</time>
      </trkpt>
      <trkpt lat="47.02638" lon="3.03176">
        <ele>179.845352</ele>
        <time>2021-09-10T08:39:11.000Z</time>
      </trkpt>
      <trkpt lat="47.02604" lon="3.03166">
        <ele>180.039113</ele>
        <time>2021-09-10T08:39:21.000Z</time>
      </trkpt>
      <trkpt lat="47.02575" lon="3.03157">
        <ele>180.218436</ele>
        <time>2021-09-10T08:39:29.000Z</time>
      </trkpt>
      <trkpt lat="47.02548" lon="3.03148">
        <ele>180.384359</ele>
        <time>2021-09-10T08:39:36.000Z</time>
      </trkpt>
      <trkpt lat="47.02522" lon="3.0314">
        <ele>180.540653</ele>
        <time>2021-09-10T08:39:42.000Z</time>
      </trkpt>
      <trkpt lat="47.0248" lon="3.03134">
        <ele>180.794239</ele>
        <time>2021-09-10T08:39:50.000Z</time>
      </trkpt>
      <trkpt lat="47.02478" lon="3.03134">
        <ele>180.807443</ele>
        <time>2021-09-10T08:39:51.000Z</time>
      </trkpt>
      <trkpt lat="47.02462" lon="3.03136">
        <ele>180.900946</ele>
        <time>2021-09-10T08:39:53.000Z</time>
      </trkpt>
      <trkpt lat="47.02462" lon="3.03151">
        <ele>180.961802</ele>
        <time>2021-09-10T08:39:54.000Z</time>
      </trkpt>
      <trkpt lat="47.02458" lon="3.03175">
        <ele>181.045032</ele>
        <time>2021-09-10T08:39:57.000Z</time>
      </trkpt>
      <trkpt lat="47.02458" lon="3.03229">
        <ele>180.620381</ele>
        <time>2021-09-10T08:40:02.000Z</time>
      </trkpt>
      <trkpt lat="47.02461" lon="3.03312">
        <ele>179.978323</ele>
        <time>2021-09-10T08:40:09.000Z</time>
      </trkpt>
      <trkpt lat="47.02461" lon="3.03322">
        <ele>179.896438</ele>
        <time>2021-09-10T08:40:10.000Z</time>
      </trkpt>
      <trkpt lat="47.02461" lon="3.03387">
        <ele>179.390743</ele>
        <time>2021-09-10T08:40:16.000Z</time>
      </trkpt>
      <trkpt lat="47.0246" lon="3.03468">
        <ele>178.701221</ele>
        <time>2021-09-10T08:40:22.000Z</time>
      </trkpt>
      <trkpt lat="47.02459" lon="3.03549">
        <ele>177.902097</ele>
        <time>2021-09-10T08:40:28.000Z</time>
      </trkpt>
      <trkpt lat="47.02458" lon="3.03613">
        <ele>177.274581</ele>
        <time>2021-09-10T08:40:33.000Z</time>
      </trkpt>
      <trkpt lat="47.02458" lon="3.03699">
        <ele>176.435359</ele>
        <time>2021-09-10T08:40:40.000Z</time>
      </trkpt>
      <trkpt lat="47.02457" lon="3.03734">
        <ele>176.139364</ele>
        <time>2021-09-10T08:40:43.000Z</time>
      </trkpt>
      <trkpt lat="47.02457" lon="3.03815">
        <ele>175.461698</ele>
        <time>2021-09-10T08:40:50.000Z</time>
      </trkpt>
      <trkpt lat="47.02456" lon="3.0386">
        <ele>175.084384</ele>
        <time>2021-09-10T08:40:54.000Z</time>
      </trkpt>
      <trkpt lat="47.02455" lon="3.03946">
        <ele>174.362335</ele>
        <time>2021-09-10T08:41:02.000Z</time>
      </trkpt>
      <trkpt lat="47.02455" lon="3.04021">
        <ele>173.926487</ele>
        <time>2021-09-10T08:41:09.000Z</time>
      </trkpt>
      <trkpt lat="47.02454" lon="3.04104">
        <ele>173.512814</ele>
        <time>2021-09-10T08:41:17.000Z</time>
      </trkpt>
      <trkpt lat="47.02453" lon="3.04182">
        <ele>173.122616</ele>
        <time>2021-09-10T08:41:25.000Z</time>
      </trkpt>
      <trkpt lat="47.02447" lon="3.0426">
        <ele>172.69269</ele>
        <time>2021-09-10T08:41:33.000Z</time>
      </trkpt>
      <trkpt lat="47.02436" lon="3.04339">
        <ele>172.203232</ele>
        <time>2021-09-10T08:41:41.000Z</time>
      </trkpt>
      <trkpt lat="47.02435" lon="3.04349">
        <ele>172.142061</ele>
        <time>2021-09-10T08:41:42.000Z</time>
      </trkpt>
      <trkpt lat="47.02417" lon="3.04425">
        <ele>171.654226</ele>
        <time>2021-09-10T08:41:50.000Z</time>
      </trkpt>
      <trkpt lat="47.02412" lon="3.04444">
        <ele>171.531399</ele>
        <time>2021-09-10T08:41:52.000Z</time>
      </trkpt>
      <trkpt lat="47.0239" lon="3.04517">
        <ele>171.107438</ele>
        <time>2021-09-10T08:42:00.000Z</time>
      </trkpt>
      <trkpt lat="47.02384" lon="3.04534">
        <ele>171.018882</ele>
        <time>2021-09-10T08:42:02.000Z</time>
      </trkpt>
      <trkpt lat="47.02354" lon="3.04608">
        <ele>170.633398</ele>
        <time>2021-09-10T08:42:11.000Z</time>
      </trkpt>
      <trkpt lat="47.02328" lon="3.04672">
        <ele>170.297233</ele>
        <time>2021-09-10T08:42:19.000Z</time>
      </trkpt>
      <trkpt lat="47.02298" lon="3.04742">
        <ele>170.007766</ele>
        <time>2021-09-10T08:42:28.000Z</time>
      </trkpt>
      <trkpt lat="47.02268" lon="3.04812">
        <ele>169.822348</ele>
        <time>2021-09-10T08:42:37.000Z</time>
      </trkpt>
      <trkpt lat="47.02239" lon="3.0488">
        <ele>169.642162</ele>
        <time>2021-09-10T08:42:46.000Z</time>
      </trkpt>
      <trkpt lat="47.0223" lon="3.04903">
        <ele>169.580909</ele>
        <time>2021-09-10T08:42:49.000Z</time>
      </trkpt>
      <trkpt lat="47.02204" lon="3.04966">
        <ele>169.441035</ele>
        <time>2021-09-10T08:42:57.000Z</time>
      </trkpt>
      <trkpt lat="47.02178" lon="3.05027">
        <ele>169.330268</ele>
        <time>2021-09-10T08:43:05.000Z</time>
      </trkpt>
      <trkpt lat="47.0215" lon="3.05097">
        <ele>169.204489</ele>
        <time>2021-09-10T08:43:14.000Z</time>
      </trkpt>
      <trkpt lat="47.0212" lon="3.05169">
        <ele>169.082009</ele>
        <time>2021-09-10T08:43:23.000Z</time>
      </trkpt>
      <trkpt lat="47.02096" lon="3.05228">
        <ele>169.01278</ele>
        <time>2021-09-10T08:43:31.000Z</time>
      </trkpt>
      <trkpt lat="47.02077" lon="3.05274">
        <ele>168.958839</ele>
        <time>2021-09-10T08:43:37.000Z</time>
      </trkpt>
      <trkpt lat="47.02048" lon="3.05343">
        <ele>168.877103</ele>
        <time>2021-09-10T08:43:46.000Z</time>
      </trkpt>
      <trkpt lat="47.02019" lon="3.05413">
        <ele>168.811241</ele>
        <time>2021-09-10T08:43:55.000Z</time>
      </trkpt>
      <trkpt lat="47.02016" lon="3.0542">
        <ele>168.806736</ele>
        <time>2021-09-10T08:43:56.000Z</time>
      </trkpt>
      <trkpt lat="47.01994" lon="3.05472">
        <ele>168.775945</ele>
        <time>2021-09-10T08:44:03.000Z</time>
      </trkpt>
      <trkpt lat="47.01965" lon="3.05542">
        <ele>168.734767</ele>
        <time>2021-09-10T08:44:12.000Z</time>
      </trkpt>
      <trkpt lat="47.01936" lon="3.05611">
        <ele>168.694548</ele>
        <time>2021-09-10T08:44:21.000Z</time>
      </trkpt>
      <trkpt lat="47.0192" lon="3.0565">
        <ele>168.706526</ele>
        <time>2021-09-10T08:44:26.000Z</time>
      </trkpt>
      <trkpt lat="47.0189" lon="3.05722">
        <ele>168.72854</ele>
        <time>2021-09-10T08:44:35.000Z</time>
      </trkpt>
      <trkpt lat="47.01883" lon="3.05738">
        <ele>168.733343</ele>
        <time>2021-09-10T08:44:37.000Z</time>
      </trkpt>
      <trkpt lat="47.01854" lon="3.05809">
        <ele>168.75484</ele>
        <time>2021-09-10T08:44:46.000Z</time>
      </trkpt>
      <trkpt lat="47.01824" lon="3.05879">
        <ele>168.748408</ele>
        <time>2021-09-10T08:44:55.000Z</time>
      </trkpt>
      <trkpt lat="47.01801" lon="3.05934">
        <ele>168.729911</ele>
        <time>2021-09-10T08:45:02.000Z</time>
      </trkpt>
      <trkpt lat="47.01772" lon="3.06005">
        <ele>168.705907</ele>
        <time>2021-09-10T08:45:11.000Z</time>
      </trkpt>
      <trkpt lat="47.01746" lon="3.06068">
        <ele>168.707991</ele>
        <time>2021-09-10T08:45:19.000Z</time>
      </trkpt>
      <trkpt lat="47.01723" lon="3.06122">
        <ele>168.864915</ele>
        <time>2021-09-10T08:45:26.000Z</time>
      </trkpt>
      <trkpt lat="47.01696" lon="3.06185">
        <ele>169.046333</ele>
        <time>2021-09-10T08:45:34.000Z</time>
      </trkpt>
      <trkpt lat="47.01665" lon="3.06259">
        <ele>169.258731</ele>
        <time>2021-09-10T08:45:43.000Z</time>
      </trkpt>
      <trkpt lat="47.01635" lon="3.06333">
        <ele>169.443207</ele>
        <time>2021-09-10T08:45:52.000Z</time>
      </trkpt>
      <trkpt lat="47.01631" lon="3.06341">
        <ele>169.462114</ele>
        <time>2021-09-10T08:45:53.000Z</time>
      </trkpt>
      <trkpt lat="47.01605" lon="3.06405">
        <ele>169.609442</ele>
        <time>2021-09-10T08:46:01.000Z</time>
      </trkpt>
      <trkpt lat="47.01575" lon="3.06476">
        <ele>169.773713</ele>
        <time>2021-09-10T08:46:10.000Z</time>
      </trkpt>
      <trkpt lat="47.01551" lon="3.06529">
        <ele>169.964516</ele>
        <time>2021-09-10T08:46:17.000Z</time>
      </trkpt>
      <trkpt lat="47.01547" lon="3.06536">
        <ele>170.006917</ele>
        <time>2021-09-10T08:46:18.000Z</time>
      </trkpt>
      <trkpt lat="47.01542" lon="3.06541">
        <ele>170.047684</ele>
        <time>2021-09-10T08:46:19.000Z</time>
      </trkpt>
      <trkpt lat="47.01523" lon="3.06557">
        <ele>170.20324</ele>
        <time>2021-09-10T08:46:23.000Z</time>
      </trkpt>
      <trkpt lat="47.01498" lon="3.06574">
        <ele>170.392832</ele>
        <time>2021-09-10T08:46:29.000Z</time>
      </trkpt>
      <trkpt lat="47.01463" lon="3.06594">
        <ele>170.650656</ele>
        <time>2021-09-10T08:46:38.000Z</time>
      </trkpt>
      <trkpt lat="47.01438" lon="3.06608">
        <ele>170.83368</ele>
        <time>2021-09-10T08:46:45.000Z</time>
      </trkpt>
      <trkpt lat="47.01413" lon="3.06622">
        <ele>171.019664</ele>
        <time>2021-09-10T08:46:51.000Z</time>
      </trkpt>
      <trkpt lat="47.01381" lon="3.06642">
        <ele>171.058261</ele>
        <time>2021-09-10T08:46:57.000Z</time>
      </trkpt>
      <trkpt lat="47.01349" lon="3.06659">
        <ele>171.000419</ele>
        <time>2021-09-10T08:47:03.000Z</time>
      </trkpt>
      <trkpt lat="47.01345" lon="3.06661">
        <ele>170.99295</ele>
        <time>2021-09-10T08:47:08.000Z</time>
      </trkpt>
      <trkpt lat="47.01326" lon="3.06657">
        <ele>170.959949</ele>
        <time>2021-09-10T08:47:12.000Z</time>
      </trkpt>
      <trkpt lat="47.01321" lon="3.06653">
        <ele>170.951147</ele>
        <time>2021-09-10T08:47:13.000Z</time>
      </trkpt>
      <trkpt lat="47.0131" lon="3.06658">
        <ele>170.930892</ele>
        <time>2021-09-10T08:47:15.000Z</time>
      </trkpt>
      <trkpt lat="47.01307" lon="3.06672">
        <ele>170.913796</ele>
        <time>2021-09-10T08:47:17.000Z</time>
      </trkpt>
      <trkpt lat="47.01309" lon="3.0668">
        <ele>170.904446</ele>
        <time>2021-09-10T08:47:18.000Z</time>
      </trkpt>
      <trkpt lat="47.01301" lon="3.06727">
        <ele>170.84752</ele>
        <time>2021-09-10T08:47:24.000Z</time>
      </trkpt>
      <trkpt lat="47.01287" lon="3.068">
        <ele>170.889492</ele>
        <time>2021-09-10T08:47:33.000Z</time>
      </trkpt>
      <trkpt lat="47.01274" lon="3.06865">
        <ele>171.112051</ele>
        <time>2021-09-10T08:47:41.000Z</time>
      </trkpt>
      <trkpt lat="47.01267" lon="3.06903">
        <ele>171.240005</ele>
        <time>2021-09-10T08:47:46.000Z</time>
      </trkpt>
      <trkpt lat="47.01264" lon="3.06916">
        <ele>171.285736</ele>
        <time>2021-09-10T08:47:48.000Z</time>
      </trkpt>
      <trkpt lat="47.01263" lon="3.06923">
        <ele>171.308093</ele>
        <time>2021-09-10T08:47:49.000Z</time>
      </trkpt>
      <trkpt lat="47.01258" lon="3.06948">
        <ele>171.392153</ele>
        <time>2021-09-10T08:47:53.000Z</time>
      </trkpt>
      <trkpt lat="47.01257" lon="3.06954">
        <ele>171.412618</ele>
        <time>2021-09-10T08:47:54.000Z</time>
      </trkpt>
      <trkpt lat="47.0125" lon="3.06991">
        <ele>171.538998</ele>
        <time>2021-09-10T08:48:00.000Z</time>
      </trkpt>
      <trkpt lat="47.0124" lon="3.07036">
        <ele>171.794872</ele>
        <time>2021-09-10T08:48:08.000Z</time>
      </trkpt>
      <trkpt lat="47.01233" lon="3.07068">
        <ele>172.218743</ele>
        <time>2021-09-10T08:48:15.000Z</time>
      </trkpt>
      <trkpt lat="47.01233" lon="3.07074">
        <ele>172.293541</ele>
        <time>2021-09-10T08:48:17.000Z</time>
      </trkpt>
      <trkpt lat="47.01233" lon="3.07075">
        <ele>172.313854</ele>
        <time>2021-09-10T08:48:19.000Z</time>
      </trkpt>
      <trkpt lat="47.01232" lon="3.07081">
        <ele>172.388651</ele>
        <time>2021-09-10T08:48:58.000Z</time>
      </trkpt>
      <trkpt lat="47.01232" lon="3.07088">
        <ele>172.474699</ele>
        <time>2021-09-10T08:49:00.000Z</time>
      </trkpt>
      <trkpt lat="47.01232" lon="3.07117">
        <ele>172.84007</ele>
        <time>2021-09-10T08:49:06.000Z</time>
      </trkpt>
      <trkpt lat="47.01233" lon="3.07151">
        <ele>173.268664</ele>
        <time>2021-09-10T08:49:12.000Z</time>
      </trkpt>
      <trkpt lat="47.01233" lon="3.07191">
        <ele>173.774365</ele>
        <time>2021-09-10T08:49:20.000Z</time>
      </trkpt>
      <trkpt lat="47.01233" lon="3.07216">
        <ele>174.092959</ele>
        <time>2021-09-10T08:49:26.000Z</time>
      </trkpt>
      <trkpt lat="47.01233" lon="3.07233">
        <ele>174.312945</ele>
        <time>2021-09-10T08:49:30.000Z</time>
      </trkpt>
      <trkpt lat="47.01233" lon="3.07258">
        <ele>174.621426</ele>
        <time>2021-09-10T08:49:36.000Z</time>
      </trkpt>
      <trkpt lat="47.01233" lon="3.0726">
        <ele>174.653032</ele>
        <time>2021-09-10T08:49:37.000Z</time>
      </trkpt>
      <trkpt lat="47.01233" lon="3.0727">
        <ele>174.783249</ele>
        <time>2021-09-10T08:49:40.000Z</time>
      </trkpt>
      <trkpt lat="47.01233" lon="3.073">
        <ele>175.087289</ele>
        <time>2021-09-10T08:49:46.000Z</time>
      </trkpt>
      <trkpt lat="47.01233" lon="3.07331">
        <ele>175.323095</ele>
        <time>2021-09-10T08:49:52.000Z</time>
      </trkpt>
      <trkpt lat="47.01233" lon="3.07358">
        <ele>175.532448</ele>
        <time>2021-09-10T08:49:57.000Z</time>
      </trkpt>
      <trkpt lat="47.01233" lon="3.07383">
        <ele>175.72064</ele>
        <time>2021-09-10T08:50:01.000Z</time>
      </trkpt>
      <trkpt lat="47.01234" lon="3.07421">
        <ele>176.008594</ele>
        <time>2021-09-10T08:50:07.000Z</time>
      </trkpt>
      <trkpt lat="47.01234" lon="3.07453">
        <ele>176.24743</ele>
        <time>2021-09-10T08:50:12.000Z</time>
      </trkpt>
      <trkpt lat="47.01234" lon="3.07459">
        <ele>176.294289</ele>
        <time>2021-09-10T08:50:13.000Z</time>
      </trkpt>
      <trkpt lat="47.01234" lon="3.0749">
        <ele>176.529338</ele>
        <time>2021-09-10T08:50:18.000Z</time>
      </trkpt>
      <trkpt lat="47.01234" lon="3.07497">
        <ele>176.576952</ele>
        <time>2021-09-10T08:50:19.000Z</time>
      </trkpt>
      <trkpt lat="47.01234" lon="3.07526">
        <ele>176.795384</ele>
        <time>2021-09-10T08:50:24.000Z</time>
      </trkpt>
      <trkpt lat="47.01234" lon="3.07555">
        <ele>176.986478</ele>
        <time>2021-09-10T08:50:29.000Z</time>
      </trkpt>
      <trkpt lat="47.01234" lon="3.07562">
        <ele>176.987164</ele>
        <time>2021-09-10T08:50:30.000Z</time>
      </trkpt>
      <trkpt lat="47.01234" lon="3.07569">
        <ele>176.98782</ele>
        <time>2021-09-10T08:50:31.000Z</time>
      </trkpt>
      <trkpt lat="47.01234" lon="3.07595">
        <ele>176.990425</ele>
        <time>2021-09-10T08:50:35.000Z</time>
      </trkpt>
      <trkpt lat="47.01234" lon="3.07622">
        <ele>176.993159</ele>
        <time>2021-09-10T08:50:40.000Z</time>
      </trkpt>
      <trkpt lat="47.01234" lon="3.07656">
        <ele>176.996459</ele>
        <time>2021-09-10T08:50:46.000Z</time>
      </trkpt>
      <trkpt lat="47.01234" lon="3.07703">
        <ele>177.001212</ele>
        <time>2021-09-10T08:50:53.000Z</time>
      </trkpt>
      <trkpt lat="47.01234" lon="3.07725">
        <ele>177.003319</ele>
        <time>2021-09-10T08:50:56.000Z</time>
      </trkpt>
      <trkpt lat="47.01234" lon="3.07746">
        <ele>177.005447</ele>
        <time>2021-09-10T08:50:59.000Z</time>
      </trkpt>
      <trkpt lat="47.01234" lon="3.0778">
        <ele>177.008817</ele>
        <time>2021-09-10T08:51:05.000Z</time>
      </trkpt>
      <trkpt lat="47.01234" lon="3.07784">
        <ele>177.009234</ele>
        <time>2021-09-10T08:51:07.000Z</time>
      </trkpt>
      <trkpt lat="47.01234" lon="3.07789">
        <ele>177.009712</ele>
        <time>2021-09-10T08:51:10.000Z</time>
      </trkpt>
      <trkpt lat="47.01234" lon="3.07807">
        <ele>177.011501</ele>
        <time>2021-09-10T08:51:14.000Z</time>
      </trkpt>
      <trkpt lat="47.01234" lon="3.07814">
        <ele>177.012157</ele>
        <time>2021-09-10T08:51:18.000Z</time>
      </trkpt>
      <trkpt lat="47.01229" lon="3.07834">
        <ele>177.038788</ele>
        <time>2021-09-10T08:51:24.000Z</time>
      </trkpt>
      <trkpt lat="47.01225" lon="3.07851">
        <ele>177.062139</ele>
        <time>2021-09-10T08:51:28.000Z</time>
      </trkpt>
      <trkpt lat="47.01239" lon="3.07876">
        <ele>177.102961</ele>
        <time>2021-09-10T08:51:33.000Z</time>
      </trkpt>
      <trkpt lat="47.01246" lon="3.07922">
        <ele>177.162963</ele>
        <time>2021-09-10T08:51:40.000Z</time>
      </trkpt>
      <trkpt lat="47.01255" lon="3.07981">
        <ele>177.240536</ele>
        <time>2021-09-10T08:51:49.000Z</time>
      </trkpt>
      <trkpt lat="47.01262" lon="3.08035">
        <ele>177.310314</ele>
        <time>2021-09-10T08:51:58.000Z</time>
      </trkpt>
      <trkpt lat="47.01267" lon="3.08076">
        <ele>177.496</ele>
        <time>2021-09-10T08:52:05.000Z</time>
      </trkpt>
      <trkpt lat="47.01273" lon="3.0812">
        <ele>178.045057</ele>
        <time>2021-09-10T08:52:13.000Z</time>
      </trkpt>
      <trkpt lat="47.01278" lon="3.0816">
        <ele>178.550398</ele>
        <time>2021-09-10T08:52:21.000Z</time>
      </trkpt>
      <trkpt lat="47.01283" lon="3.082">
        <ele>179.045195</ele>
        <time>2021-09-10T08:52:29.000Z</time>
      </trkpt>
      <trkpt lat="47.01289" lon="3.08239">
        <ele>179.537082</ele>
        <time>2021-09-10T08:52:37.000Z</time>
      </trkpt>
      <trkpt lat="47.01294" lon="3.08278">
        <ele>180.031191</ele>
        <time>2021-09-10T08:52:44.000Z</time>
      </trkpt>
      <trkpt lat="47.013" lon="3.08326">
        <ele>180.60397</ele>
        <time>2021-09-10T08:52:51.000Z</time>
      </trkpt>
      <trkpt lat="47.01308" lon="3.08389">
        <ele>180.720815</ele>
        <time>2021-09-10T08:52:59.000Z</time>
      </trkpt>
      <trkpt lat="47.01315" lon="3.0844">
        <ele>180.815458</ele>
        <time>2021-09-10T08:53:05.000Z</time>
      </trkpt>
      <trkpt lat="47.01324" lon="3.08517">
        <ele>180.957139</ele>
        <time>2021-09-10T08:53:13.000Z</time>
      </trkpt>
      <trkpt lat="47.0133" lon="3.08591">
        <ele>181.047656</ele>
        <time>2021-09-10T08:53:20.000Z</time>
      </trkpt>
      <trkpt lat="47.01324" lon="3.08652">
        <ele>180.787701</ele>
        <time>2021-09-10T08:53:26.000Z</time>
      </trkpt>
      <trkpt lat="47.01312" lon="3.08708">
        <ele>180.536102</ele>
        <time>2021-09-10T08:53:32.000Z</time>
      </trkpt>
      <trkpt lat="47.01307" lon="3.08727">
        <ele>180.451441</ele>
        <time>2021-09-10T08:53:34.000Z</time>
      </trkpt>
      <trkpt lat="47.01295" lon="3.0874">
        <ele>180.358702</ele>
        <time>2021-09-10T08:53:36.000Z</time>
      </trkpt>
      <trkpt lat="47.01266" lon="3.08794">
        <ele>180.069732</ele>
        <time>2021-09-10T08:53:43.000Z</time>
      </trkpt>
      <trkpt lat="47.01237" lon="3.0883">
        <ele>179.822053</ele>
        <time>2021-09-10T08:53:49.000Z</time>
      </trkpt>
      <trkpt lat="47.01209" lon="3.08861">
        <ele>179.581485</ele>
        <time>2021-09-10T08:53:55.000Z</time>
      </trkpt>
      <trkpt lat="47.01163" lon="3.08914">
        <ele>179.18522</ele>
        <time>2021-09-10T08:54:05.000Z</time>
      </trkpt>
      <trkpt lat="47.0113" lon="3.08952">
        <ele>178.898783</ele>
        <time>2021-09-10T08:54:12.000Z</time>
      </trkpt>
      <trkpt lat="47.01084" lon="3.09005">
        <ele>178.693893</ele>
        <time>2021-09-10T08:54:22.000Z</time>
      </trkpt>
      <trkpt lat="47.01041" lon="3.09053">
        <ele>178.629574</ele>
        <time>2021-09-10T08:54:31.000Z</time>
      </trkpt>
      <trkpt lat="47.01005" lon="3.09094">
        <ele>178.574554</ele>
        <time>2021-09-10T08:54:39.000Z</time>
      </trkpt>
      <trkpt lat="47.00962" lon="3.09143">
        <ele>178.52778</ele>
        <time>2021-09-10T08:54:49.000Z</time>
      </trkpt>
      <trkpt lat="47.00918" lon="3.09191">
        <ele>178.573655</ele>
        <time>2021-09-10T08:54:59.000Z</time>
      </trkpt>
      <trkpt lat="47.00878" lon="3.09235">
        <ele>178.614863</ele>
        <time>2021-09-10T08:55:08.000Z</time>
      </trkpt>
      <trkpt lat="47.00854" lon="3.09263">
        <ele>178.640723</ele>
        <time>2021-09-10T08:55:14.000Z</time>
      </trkpt>
      <trkpt lat="47.00821" lon="3.09302">
        <ele>178.650003</ele>
        <time>2021-09-10T08:55:22.000Z</time>
      </trkpt>
      <trkpt lat="47.00791" lon="3.09335">
        <ele>178.549497</ele>
        <time>2021-09-10T08:55:29.000Z</time>
      </trkpt>
      <trkpt lat="47.00756" lon="3.09375">
        <ele>178.428154</ele>
        <time>2021-09-10T08:55:37.000Z</time>
      </trkpt>
      <trkpt lat="47.0072" lon="3.09411">
        <ele>178.310161</ele>
        <time>2021-09-10T08:55:45.000Z</time>
      </trkpt>
      <trkpt lat="47.00689" lon="3.09434">
        <ele>178.215659</ele>
        <time>2021-09-10T08:55:51.000Z</time>
      </trkpt>
      <trkpt lat="47.00668" lon="3.09446">
        <ele>178.105643</ele>
        <time>2021-09-10T08:55:55.000Z</time>
      </trkpt>
      <trkpt lat="47.00657" lon="3.09452">
        <ele>178.023362</ele>
        <time>2021-09-10T08:55:57.000Z</time>
      </trkpt>
      <trkpt lat="47.00637" lon="3.09464">
        <ele>177.861245</ele>
        <time>2021-09-10T08:56:01.000Z</time>
      </trkpt>
      <trkpt lat="47.00627" lon="3.0947">
        <ele>177.777397</ele>
        <time>2021-09-10T08:56:03.000Z</time>
      </trkpt>
      <trkpt lat="47.00606" lon="3.09482">
        <ele>177.616156</ele>
        <time>2021-09-10T08:56:07.000Z</time>
      </trkpt>
      <trkpt lat="47.00583" lon="3.09494">
        <ele>177.430379</ele>
        <time>2021-09-10T08:56:12.000Z</time>
      </trkpt>
      <trkpt lat="47.00572" lon="3.09491">
        <ele>177.349774</ele>
        <time>2021-09-10T08:56:14.000Z</time>
      </trkpt>
      <trkpt lat="47.00562" lon="3.09486">
        <ele>177.272739</ele>
        <time>2021-09-10T08:56:16.000Z</time>
      </trkpt>
      <trkpt lat="47.00557" lon="3.09486">
        <ele>177.236235</ele>
        <time>2021-09-10T08:56:17.000Z</time>
      </trkpt>
      <trkpt lat="47.00548" lon="3.09485">
        <ele>177.164077</ele>
        <time>2021-09-10T08:56:19.000Z</time>
      </trkpt>
      <trkpt lat="47.00538" lon="3.09484">
        <ele>177.089829</ele>
        <time>2021-09-10T08:56:21.000Z</time>
      </trkpt>
      <trkpt lat="47.00532" lon="3.09486">
        <ele>177.049117</ele>
        <time>2021-09-10T08:56:22.000Z</time>
      </trkpt>
      <trkpt lat="47.00526" lon="3.09495">
        <ele>176.980625</ele>
        <time>2021-09-10T08:56:24.000Z</time>
      </trkpt>
      <trkpt lat="47.00515" lon="3.09517">
        <ele>176.84761</ele>
        <time>2021-09-10T08:56:28.000Z</time>
      </trkpt>
      <trkpt lat="47.00513" lon="3.09523">
        <ele>176.852521</ele>
        <time>2021-09-10T08:56:29.000Z</time>
      </trkpt>
      <trkpt lat="47.00513" lon="3.09531">
        <ele>176.85854</ele>
        <time>2021-09-10T08:56:30.000Z</time>
      </trkpt>
      <trkpt lat="47.00509" lon="3.09545">
        <ele>176.870976</ele>
        <time>2021-09-10T08:56:32.000Z</time>
      </trkpt>
      <trkpt lat="47.00505" lon="3.0955">
        <ele>176.877447</ele>
        <time>2021-09-10T08:56:33.000Z</time>
      </trkpt>
      <trkpt lat="47.0047" lon="3.09584">
        <ele>176.925779</ele>
        <time>2021-09-10T08:56:40.000Z</time>
      </trkpt>
      <trkpt lat="47.00421" lon="3.09631">
        <ele>176.995197</ele>
        <time>2021-09-10T08:56:50.000Z</time>
      </trkpt>
      <trkpt lat="47.00393" lon="3.09658">
        <ele>177.033738</ele>
        <time>2021-09-10T08:56:56.000Z</time>
      </trkpt>
      <trkpt lat="47.00357" lon="3.09693">
        <ele>177.184449</ele>
        <time>2021-09-10T08:57:04.000Z</time>
      </trkpt>
      <trkpt lat="47.00308" lon="3.09741">
        <ele>177.50116</ele>
        <time>2021-09-10T08:57:15.000Z</time>
      </trkpt>
      <trkpt lat="47.00278" lon="3.0977">
        <ele>177.6969</ele>
        <time>2021-09-10T08:57:22.000Z</time>
      </trkpt>
      <trkpt lat="47.00248" lon="3.09803">
        <ele>177.89705</ele>
        <time>2021-09-10T08:57:29.000Z</time>
      </trkpt>
      <trkpt lat="47.00215" lon="3.09843">
        <ele>178.177385</ele>
        <time>2021-09-10T08:57:37.000Z</time>
      </trkpt>
      <trkpt lat="47.00191" lon="3.09876">
        <ele>178.450854</ele>
        <time>2021-09-10T08:57:43.000Z</time>
      </trkpt>
      <trkpt lat="47.00155" lon="3.09933">
        <ele>178.887698</ele>
        <time>2021-09-10T08:57:53.000Z</time>
      </trkpt>
      <trkpt lat="47.00149" lon="3.09944">
        <ele>178.969502</ele>
        <time>2021-09-10T08:57:55.000Z</time>
      </trkpt>
      <trkpt lat="47.00142" lon="3.09955">
        <ele>179.056014</ele>
        <time>2021-09-10T08:57:57.000Z</time>
      </trkpt>
      <trkpt lat="47.00138" lon="3.09961">
        <ele>179.099001</ele>
        <time>2021-09-10T08:57:58.000Z</time>
      </trkpt>
      <trkpt lat="47.0011" lon="3.10018">
        <ele>179.491611</ele>
        <time>2021-09-10T08:58:07.000Z</time>
      </trkpt>
      <trkpt lat="47.00106" lon="3.10022">
        <ele>179.537954</ele>
        <time>2021-09-10T08:58:08.000Z</time>
      </trkpt>
      <trkpt lat="47.00095" lon="3.10039">
        <ele>179.677906</ele>
        <time>2021-09-10T08:58:11.000Z</time>
      </trkpt>
      <trkpt lat="47.00089" lon="3.10052">
        <ele>179.772698</ele>
        <time>2021-09-10T08:58:13.000Z</time>
      </trkpt>
      <trkpt lat="47.00087" lon="3.10067">
        <ele>179.863499</ele>
        <time>2021-09-10T08:58:15.000Z</time>
      </trkpt>
      <trkpt lat="47.00085" lon="3.10074">
        <ele>179.913033</ele>
        <time>2021-09-10T08:58:16.000Z</time>
      </trkpt>
      <trkpt lat="47.00075" lon="3.10102">
        <ele>180.102794</ele>
        <time>2021-09-10T08:58:20.000Z</time>
      </trkpt>
      <trkpt lat="47.00051" lon="3.10169">
        <ele>180.569186</ele>
        <time>2021-09-10T08:58:30.000Z</time>
      </trkpt>
      <trkpt lat="47.00034" lon="3.10224">
        <ele>180.930417</ele>
        <time>2021-09-10T08:58:38.000Z</time>
      </trkpt>
      <trkpt lat="47.00018" lon="3.1028">
        <ele>181.185053</ele>
        <time>2021-09-10T08:58:46.000Z</time>
      </trkpt>
      <trkpt lat="47" lon="3.10341">
        <ele>181.332966</ele>
        <time>2021-09-10T08:58:54.000Z</time>
      </trkpt>
      <trkpt lat="46.99982" lon="3.10404">
        <ele>181.485014</ele>
        <time>2021-09-10T08:59:02.000Z</time>
      </trkpt>
      <trkpt lat="46.99964" lon="3.10469">
        <ele>181.642352</ele>
        <time>2021-09-10T08:59:10.000Z</time>
      </trkpt>
      <trkpt lat="46.99946" lon="3.1053">
        <ele>181.667847</ele>
        <time>2021-09-10T08:59:17.000Z</time>
      </trkpt>
      <trkpt lat="46.99927" lon="3.10597">
        <ele>181.598295</ele>
        <time>2021-09-10T08:59:25.000Z</time>
      </trkpt>
      <trkpt lat="46.99905" lon="3.10658">
        <ele>181.532053</ele>
        <time>2021-09-10T08:59:33.000Z</time>
      </trkpt>
      <trkpt lat="46.99891" lon="3.10694">
        <ele>181.492665</ele>
        <time>2021-09-10T08:59:38.000Z</time>
      </trkpt>
      <trkpt lat="46.99883" lon="3.10704">
        <ele>181.477698</ele>
        <time>2021-09-10T08:59:40.000Z</time>
      </trkpt>
      <trkpt lat="46.99873" lon="3.10708">
        <ele>181.463612</ele>
        <time>2021-09-10T08:59:42.000Z</time>
      </trkpt>
      <trkpt lat="46.99868" lon="3.10708">
        <ele>181.45629</ele>
        <time>2021-09-10T08:59:43.000Z</time>
      </trkpt>
      <trkpt lat="46.99864" lon="3.10715">
        <ele>181.447484</ele>
        <time>2021-09-10T08:59:44.000Z</time>
      </trkpt>
      <trkpt lat="46.9986" lon="3.10725">
        <ele>181.431807</ele>
        <time>2021-09-10T08:59:46.000Z</time>
      </trkpt>
      <trkpt lat="46.99859" lon="3.10739">
        <ele>181.415029</ele>
        <time>2021-09-10T08:59:48.000Z</time>
      </trkpt>
      <trkpt lat="46.99862" lon="3.10745">
        <ele>181.40591</ele>
        <time>2021-09-10T08:59:49.000Z</time>
      </trkpt>
      <trkpt lat="46.99864" lon="3.10761">
        <ele>181.385302</ele>
        <time>2021-09-10T08:59:51.000Z</time>
      </trkpt>
      <trkpt lat="46.99861" lon="3.10776">
        <ele>181.366754</ele>
        <time>2021-09-10T08:59:53.000Z</time>
      </trkpt>
      <trkpt lat="46.99847" lon="3.10808">
        <ele>181.319107</ele>
        <time>2021-09-10T08:59:58.000Z</time>
      </trkpt>
      <trkpt lat="46.99825" lon="3.10855">
        <ele>181.247794</ele>
        <time>2021-09-10T09:00:05.000Z</time>
      </trkpt>
      <trkpt lat="46.99797" lon="3.10902">
        <ele>181.170464</ele>
        <time>2021-09-10T09:00:12.000Z</time>
      </trkpt>
      <trkpt lat="46.99757" lon="3.10961">
        <ele>181.084303</ele>
        <time>2021-09-10T09:00:21.000Z</time>
      </trkpt>
      <trkpt lat="46.99752" lon="3.10966">
        <ele>181.076125</ele>
        <time>2021-09-10T09:00:22.000Z</time>
      </trkpt>
      <trkpt lat="46.99709" lon="3.11017">
        <ele>181.00408</ele>
        <time>2021-09-10T09:00:31.000Z</time>
      </trkpt>
      <trkpt lat="46.99675" lon="3.11055">
        <ele>180.9489</ele>
        <time>2021-09-10T09:00:38.000Z</time>
      </trkpt>
      <trkpt lat="46.99636" lon="3.11104">
        <ele>180.908687</ele>
        <time>2021-09-10T09:00:47.000Z</time>
      </trkpt>
      <trkpt lat="46.99607" lon="3.11145">
        <ele>181.007576</ele>
        <time>2021-09-10T09:00:55.000Z</time>
      </trkpt>
      <trkpt lat="46.99579" lon="3.11197">
        <ele>181.117607</ele>
        <time>2021-09-10T09:01:04.000Z</time>
      </trkpt>
      <trkpt lat="46.99563" lon="3.11233">
        <ele>181.188856</ele>
        <time>2021-09-10T09:01:10.000Z</time>
      </trkpt>
      <trkpt lat="46.99559" lon="3.11236">
        <ele>181.200099</ele>
        <time>2021-09-10T09:01:11.000Z</time>
      </trkpt>
      <trkpt lat="46.99551" lon="3.11244">
        <ele>181.223279</ele>
        <time>2021-09-10T09:01:13.000Z</time>
      </trkpt>
      <trkpt lat="46.99548" lon="3.11255">
        <ele>181.242993</ele>
        <time>2021-09-10T09:01:15.000Z</time>
      </trkpt>
      <trkpt lat="46.99542" lon="3.11278">
        <ele>181.283041</ele>
        <time>2021-09-10T09:01:20.000Z</time>
      </trkpt>
      <trkpt lat="46.99537" lon="3.11291">
        <ele>181.30856</ele>
        <time>2021-09-10T09:01:23.000Z</time>
      </trkpt>
      <trkpt lat="46.99536" lon="3.11298">
        <ele>181.319549</ele>
        <time>2021-09-10T09:01:24.000Z</time>
      </trkpt>
      <trkpt lat="46.99536" lon="3.11305">
        <ele>181.328712</ele>
        <time>2021-09-10T09:01:25.000Z</time>
      </trkpt>
      <trkpt lat="46.99537" lon="3.11318">
        <ele>181.323962</ele>
        <time>2021-09-10T09:01:27.000Z</time>
      </trkpt>
      <trkpt lat="46.99536" lon="3.11326">
        <ele>181.321112</ele>
        <time>2021-09-10T09:01:28.000Z</time>
      </trkpt>
      <trkpt lat="46.99528" lon="3.11364">
        <ele>181.30757</ele>
        <time>2021-09-10T09:01:33.000Z</time>
      </trkpt>
      <trkpt lat="46.99527" lon="3.11372">
        <ele>181.304707</ele>
        <time>2021-09-10T09:01:34.000Z</time>
      </trkpt>
      <trkpt lat="46.9952" lon="3.11422">
        <ele>181.287256</ele>
        <time>2021-09-10T09:01:40.000Z</time>
      </trkpt>
      <trkpt lat="46.99518" lon="3.11455">
        <ele>181.275754</ele>
        <time>2021-09-10T09:01:44.000Z</time>
      </trkpt>
      <trkpt lat="46.99518" lon="3.11464">
        <ele>181.272799</ele>
        <time>2021-09-10T09:01:45.000Z</time>
      </trkpt>
      <trkpt lat="46.99518" lon="3.11538">
        <ele>181.247379</ele>
        <time>2021-09-10T09:01:54.000Z</time>
      </trkpt>
      <trkpt lat="46.99525" lon="3.11617">
        <ele>181.343626</ele>
        <time>2021-09-10T09:02:04.000Z</time>
      </trkpt>
      <trkpt lat="46.99536" lon="3.11677">
        <ele>181.463334</ele>
        <time>2021-09-10T09:02:12.000Z</time>
      </trkpt>
      <trkpt lat="46.99556" lon="3.1175">
        <ele>181.617545</ele>
        <time>2021-09-10T09:02:22.000Z</time>
      </trkpt>
      <trkpt lat="46.99577" lon="3.11816">
        <ele>181.763017</ele>
        <time>2021-09-10T09:02:31.000Z</time>
      </trkpt>
      <trkpt lat="46.99596" lon="3.11877">
        <ele>181.986289</ele>
        <time>2021-09-10T09:02:40.000Z</time>
      </trkpt>
      <trkpt lat="46.99611" lon="3.11924">
        <ele>182.156374</ele>
        <time>2021-09-10T09:02:47.000Z</time>
      </trkpt>
      <trkpt lat="46.99624" lon="3.11973">
        <ele>182.331742</ele>
        <time>2021-09-10T09:02:54.000Z</time>
      </trkpt>
      <trkpt lat="46.99635" lon="3.12029">
        <ele>182.522315</ele>
        <time>2021-09-10T09:03:01.000Z</time>
      </trkpt>
      <trkpt lat="46.99636" lon="3.1207">
        <ele>182.693495</ele>
        <time>2021-09-10T09:03:06.000Z</time>
      </trkpt>
      <trkpt lat="46.99632" lon="3.12133">
        <ele>183.09629</ele>
        <time>2021-09-10T09:03:14.000Z</time>
      </trkpt>
      <trkpt lat="46.99627" lon="3.12186">
        <ele>183.433983</ele>
        <time>2021-09-10T09:03:22.000Z</time>
      </trkpt>
      <trkpt lat="46.99621" lon="3.12225">
        <ele>183.689109</ele>
        <time>2021-09-10T09:03:29.000Z</time>
      </trkpt>
      <trkpt lat="46.99611" lon="3.12246">
        <ele>183.852492</ele>
        <time>2021-09-10T09:03:34.000Z</time>
      </trkpt>
      <trkpt lat="46.99595" lon="3.1226">
        <ele>184.026947</ele>
        <time>2021-09-10T09:03:40.000Z</time>
      </trkpt>
      <trkpt lat="46.99595" lon="3.12264">
        <ele>184.050478</ele>
        <time>2021-09-10T09:03:42.000Z</time>
      </trkpt>
      <trkpt lat="46.99594" lon="3.12269">
        <ele>184.086772</ele>
        <time>2021-09-10T09:03:44.000Z</time>
      </trkpt>
      <trkpt lat="46.99593" lon="3.12285">
        <ele>184.185865</ele>
        <time>2021-09-10T09:03:48.000Z</time>
      </trkpt>
      <trkpt lat="46.99594" lon="3.12289">
        <ele>184.215759</ele>
        <time>2021-09-10T09:03:49.000Z</time>
      </trkpt>
      <trkpt lat="46.99608" lon="3.1231">
        <ele>184.672488</ele>
        <time>2021-09-10T09:03:55.000Z</time>
      </trkpt>
      <trkpt lat="46.99613" lon="3.12334">
        <ele>185.287553</ele>
        <time>2021-09-10T09:04:00.000Z</time>
      </trkpt>
      <trkpt lat="46.99611" lon="3.12372">
        <ele>186.24616</ele>
        <time>2021-09-10T09:04:07.000Z</time>
      </trkpt>
      <trkpt lat="46.99609" lon="3.12411">
        <ele>187.18936</ele>
        <time>2021-09-10T09:04:14.000Z</time>
      </trkpt>
      <trkpt lat="46.99606" lon="3.12439">
        <ele>187.892154</ele>
        <time>2021-09-10T09:04:20.000Z</time>
      </trkpt>
      <trkpt lat="46.99596" lon="3.1243">
        <ele>188.294182</ele>
        <time>2021-09-10T09:04:25.000Z</time>
      </trkpt>
      <trkpt lat="46.99601" lon="3.12448">
        <ele>188.767534</ele>
        <time>2021-09-10T09:04:27.000Z</time>
      </trkpt>
      <trkpt lat="46.99599" lon="3.1243">
        <ele>189.211381</ele>
        <time>2021-09-10T09:10:16.000Z</time>
      </trkpt>
      <trkpt lat="46.99601" lon="3.12443">
        <ele>189.541664</ele>
        <time>2021-09-10T09:10:18.000Z</time>
      </trkpt>
      <trkpt lat="46.99606" lon="3.1243">
        <ele>189.903142</ele>
        <time>2021-09-10T09:10:21.000Z</time>
      </trkpt>
      <trkpt lat="46.99608" lon="3.1243">
        <ele>189.964516</ele>
        <time>2021-09-10T09:10:22.000Z</time>
      </trkpt>
      <trkpt lat="46.9961" lon="3.12431">
        <ele>190.069589</ele>
        <time>2021-09-10T09:10:25.000Z</time>
      </trkpt>
      <trkpt lat="46.99608" lon="3.12444">
        <ele>190.419109</ele>
        <time>2021-09-10T09:10:28.000Z</time>
      </trkpt>
      <trkpt lat="46.99616" lon="3.12455">
        <ele>190.786459</ele>
        <time>2021-09-10T09:10:32.000Z</time>
      </trkpt>
      <trkpt lat="46.99616" lon="3.12459">
        <ele>190.829903</ele>
        <time>2021-09-10T09:10:33.000Z</time>
      </trkpt>
      <trkpt lat="46.99616" lon="3.12465">
        <ele>190.871175</ele>
        <time>2021-09-10T09:10:35.000Z</time>
      </trkpt>
      <trkpt lat="46.99616" lon="3.12486">
        <ele>191.045199</ele>
        <time>2021-09-10T09:10:38.000Z</time>
      </trkpt>
      <trkpt lat="46.99616" lon="3.12513">
        <ele>191.262915</ele>
        <time>2021-09-10T09:10:43.000Z</time>
      </trkpt>
      <trkpt lat="46.99618" lon="3.12552">
        <ele>191.580857</ele>
        <time>2021-09-10T09:10:49.000Z</time>
      </trkpt>
      <trkpt lat="46.9962" lon="3.12585">
        <ele>191.847456</ele>
        <time>2021-09-10T09:10:54.000Z</time>
      </trkpt>
      <trkpt lat="46.99621" lon="3.12598">
        <ele>191.952279</ele>
        <time>2021-09-10T09:10:56.000Z</time>
      </trkpt>
      <trkpt lat="46.99624" lon="3.12645">
        <ele>192.331551</ele>
        <time>2021-09-10T09:11:03.000Z</time>
      </trkpt>
      <trkpt lat="46.99627" lon="3.12708">
        <ele>192.847002</ele>
        <time>2021-09-10T09:11:12.000Z</time>
      </trkpt>
      <trkpt lat="46.9963" lon="3.12765">
        <ele>193.129023</ele>
        <time>2021-09-10T09:11:20.000Z</time>
      </trkpt>
      <trkpt lat="46.99632" lon="3.12821">
        <ele>193.369991</ele>
        <time>2021-09-10T09:11:28.000Z</time>
      </trkpt>
      <trkpt lat="46.99627" lon="3.12878">
        <ele>193.616978</ele>
        <time>2021-09-10T09:11:36.000Z</time>
      </trkpt>
      <trkpt lat="46.99618" lon="3.12935">
        <ele>193.869323</ele>
        <time>2021-09-10T09:11:44.000Z</time>
      </trkpt>
      <trkpt lat="46.99605" lon="3.12986">
        <ele>194.063384</ele>
        <time>2021-09-10T09:11:51.000Z</time>
      </trkpt>
      <trkpt lat="46.9959" lon="3.13032">
        <ele>194.095601</ele>
        <time>2021-09-10T09:11:58.000Z</time>
      </trkpt>
      <trkpt lat="46.99576" lon="3.13077">
        <ele>194.127045</ele>
        <time>2021-09-10T09:12:05.000Z</time>
      </trkpt>
      <trkpt lat="46.9956" lon="3.1313">
        <ele>194.164078</ele>
        <time>2021-09-10T09:12:12.000Z</time>
      </trkpt>
      <trkpt lat="46.99539" lon="3.13194">
        <ele>194.209069</ele>
        <time>2021-09-10T09:12:20.000Z</time>
      </trkpt>
      <trkpt lat="46.99516" lon="3.13269">
        <ele>194.312877</ele>
        <time>2021-09-10T09:12:29.000Z</time>
      </trkpt>
      <trkpt lat="46.9949" lon="3.13346">
        <ele>194.445149</ele>
        <time>2021-09-10T09:12:39.000Z</time>
      </trkpt>
      <trkpt lat="46.99467" lon="3.1342">
        <ele>194.570454</ele>
        <time>2021-09-10T09:12:49.000Z</time>
      </trkpt>
      <trkpt lat="46.99453" lon="3.13468">
        <ele>194.651169</ele>
        <time>2021-09-10T09:12:56.000Z</time>
      </trkpt>
      <trkpt lat="46.9944" lon="3.13516">
        <ele>194.732313</ele>
        <time>2021-09-10T09:13:03.000Z</time>
      </trkpt>
      <trkpt lat="46.99421" lon="3.13572">
        <ele>194.831709</ele>
        <time>2021-09-10T09:13:11.000Z</time>
      </trkpt>
      <trkpt lat="46.99411" lon="3.13606">
        <ele>194.888698</ele>
        <time>2021-09-10T09:13:16.000Z</time>
      </trkpt>
      <trkpt lat="46.9941" lon="3.13609">
        <ele>194.894146</ele>
        <time>2021-09-10T09:13:17.000Z</time>
      </trkpt>
      <trkpt lat="46.99406" lon="3.13619">
        <ele>194.912092</ele>
        <time>2021-09-10T09:13:18.000Z</time>
      </trkpt>
      <trkpt lat="46.99406" lon="3.13634">
        <ele>194.936332</ele>
        <time>2021-09-10T09:13:20.000Z</time>
      </trkpt>
      <trkpt lat="46.99404" lon="3.13642">
        <ele>194.948995</ele>
        <time>2021-09-10T09:13:21.000Z</time>
      </trkpt>
      <trkpt lat="46.99389" lon="3.13697">
        <ele>195.043424</ele>
        <time>2021-09-10T09:13:28.000Z</time>
      </trkpt>
      <trkpt lat="46.9937" lon="3.13771">
        <ele>195.096438</ele>
        <time>2021-09-10T09:13:37.000Z</time>
      </trkpt>
      <trkpt lat="46.99356" lon="3.13818">
        <ele>195.131266</ele>
        <time>2021-09-10T09:13:43.000Z</time>
      </trkpt>
      <trkpt lat="46.99351" lon="3.13834">
        <ele>195.142744</ele>
        <time>2021-09-10T09:13:45.000Z</time>
      </trkpt>
      <trkpt lat="46.99331" lon="3.139">
        <ele>195.190794</ele>
        <time>2021-09-10T09:13:53.000Z</time>
      </trkpt>
      <trkpt lat="46.99309" lon="3.13963">
        <ele>195.290337</ele>
        <time>2021-09-10T09:14:01.000Z</time>
      </trkpt>
      <trkpt lat="46.99293" lon="3.14011">
        <ele>195.434517</ele>
        <time>2021-09-10T09:14:08.000Z</time>
      </trkpt>
      <trkpt lat="46.99278" lon="3.14054">
        <ele>195.560361</ele>
        <time>2021-09-10T09:14:15.000Z</time>
      </trkpt>
      <trkpt lat="46.99271" lon="3.1407">
        <ele>195.611354</ele>
        <time>2021-09-10T09:14:18.000Z</time>
      </trkpt>
      <trkpt lat="46.99261" lon="3.14091">
        <ele>195.678984</ele>
        <time>2021-09-10T09:14:22.000Z</time>
      </trkpt>
      <trkpt lat="46.99258" lon="3.14096">
        <ele>195.695773</ele>
        <time>2021-09-10T09:14:23.000Z</time>
      </trkpt>
      <trkpt lat="46.99231" lon="3.1414">
        <ele>195.85393</ele>
        <time>2021-09-10T09:14:32.000Z</time>
      </trkpt>
      <trkpt lat="46.99225" lon="3.1415">
        <ele>195.890521</ele>
        <time>2021-09-10T09:14:34.000Z</time>
      </trkpt>
      <trkpt lat="46.99212" lon="3.14171">
        <ele>195.901107</ele>
        <time>2021-09-10T09:14:38.000Z</time>
      </trkpt>
      <trkpt lat="46.99199" lon="3.142">
        <ele>195.861844</ele>
        <time>2021-09-10T09:14:43.000Z</time>
      </trkpt>
      <trkpt lat="46.99194" lon="3.14213">
        <ele>195.845068</ele>
        <time>2021-09-10T09:14:45.000Z</time>
      </trkpt>
      <trkpt lat="46.99183" lon="3.14232">
        <ele>195.816869</ele>
        <time>2021-09-10T09:14:48.000Z</time>
      </trkpt>
      <trkpt lat="46.99188" lon="3.1425">
        <ele>195.79496</ele>
        <time>2021-09-10T09:14:50.000Z</time>
      </trkpt>
      <trkpt lat="46.99198" lon="3.14269">
        <ele>195.767884</ele>
        <time>2021-09-10T09:14:53.000Z</time>
      </trkpt>
      <trkpt lat="46.99203" lon="3.14284">
        <ele>195.749587</ele>
        <time>2021-09-10T09:14:55.000Z</time>
      </trkpt>
      <trkpt lat="46.99204" lon="3.14293">
        <ele>195.73901</ele>
        <time>2021-09-10T09:14:56.000Z</time>
      </trkpt>
      <trkpt lat="46.99208" lon="3.14327">
        <ele>195.700683</ele>
        <time>2021-09-10T09:15:00.000Z</time>
      </trkpt>
      <trkpt lat="46.99214" lon="3.14394">
        <ele>195.624158</ele>
        <time>2021-09-10T09:15:08.000Z</time>
      </trkpt>
      <trkpt lat="46.99221" lon="3.14459">
        <ele>195.315305</ele>
        <time>2021-09-10T09:15:16.000Z</time>
      </trkpt>
      <trkpt lat="46.99226" lon="3.14521">
        <ele>195.015352</ele>
        <time>2021-09-10T09:15:24.000Z</time>
      </trkpt>
      <trkpt lat="46.99227" lon="3.14566">
        <ele>194.803684</ele>
        <time>2021-09-10T09:15:30.000Z</time>
      </trkpt>
      <trkpt lat="46.99229" lon="3.14587">
        <ele>194.70136</ele>
        <time>2021-09-10T09:15:33.000Z</time>
      </trkpt>
      <trkpt lat="46.99231" lon="3.14609">
        <ele>194.596197</ele>
        <time>2021-09-10T09:15:36.000Z</time>
      </trkpt>
      <trkpt lat="46.99232" lon="3.14631">
        <ele>194.487635</ele>
        <time>2021-09-10T09:15:39.000Z</time>
      </trkpt>
      <trkpt lat="46.99237" lon="3.14662">
        <ele>194.339354</ele>
        <time>2021-09-10T09:15:43.000Z</time>
      </trkpt>
      <trkpt lat="46.9924" lon="3.14706">
        <ele>194.146218</ele>
        <time>2021-09-10T09:15:49.000Z</time>
      </trkpt>
      <trkpt lat="46.99246" lon="3.14768">
        <ele>193.876611</ele>
        <time>2021-09-10T09:15:57.000Z</time>
      </trkpt>
      <trkpt lat="46.99251" lon="3.14817">
        <ele>193.661578</ele>
        <time>2021-09-10T09:16:04.000Z</time>
      </trkpt>
      <trkpt lat="46.9925" lon="3.14847">
        <ele>193.532502</ele>
        <time>2021-09-10T09:16:08.000Z</time>
      </trkpt>
      <trkpt lat="46.99246" lon="3.14863">
        <ele>193.460558</ele>
        <time>2021-09-10T09:16:10.000Z</time>
      </trkpt>
      <trkpt lat="46.99241" lon="3.14877">
        <ele>193.390282</ele>
        <time>2021-09-10T09:16:12.000Z</time>
      </trkpt>
      <trkpt lat="46.99233" lon="3.14889">
        <ele>193.318942</ele>
        <time>2021-09-10T09:16:14.000Z</time>
      </trkpt>
      <trkpt lat="46.99229" lon="3.14895">
        <ele>193.283489</ele>
        <time>2021-09-10T09:16:16.000Z</time>
      </trkpt>
      <trkpt lat="46.99215" lon="3.14919">
        <ele>193.153277</ele>
        <time>2021-09-10T09:16:19.000Z</time>
      </trkpt>
      <trkpt lat="46.99178" lon="3.14948">
        <ele>192.907488</ele>
        <time>2021-09-10T09:16:26.000Z</time>
      </trkpt>
      <trkpt lat="46.99173" lon="3.14952">
        <ele>192.876024</ele>
        <time>2021-09-10T09:16:27.000Z</time>
      </trkpt>
      <trkpt lat="46.99137" lon="3.14981">
        <ele>192.6403</ele>
        <time>2021-09-10T09:16:35.000Z</time>
      </trkpt>
      <trkpt lat="46.99081" lon="3.14974">
        <ele>192.316736</ele>
        <time>2021-09-10T09:16:41.000Z</time>
      </trkpt>
      <trkpt lat="46.99046" lon="3.14994">
        <ele>192.088124</ele>
        <time>2021-09-10T09:16:49.000Z</time>
      </trkpt>
      <trkpt lat="46.99032" lon="3.15001">
        <ele>191.987327</ele>
        <time>2021-09-10T09:16:52.000Z</time>
      </trkpt>
      <trkpt lat="46.99017" lon="3.15009">
        <ele>191.879408</ele>
        <time>2021-09-10T09:16:55.000Z</time>
      </trkpt>
      <trkpt lat="46.98981" lon="3.15027">
        <ele>191.624439</ele>
        <time>2021-09-10T09:17:02.000Z</time>
      </trkpt>
      <trkpt lat="46.98955" lon="3.1504">
        <ele>191.43848</ele>
        <time>2021-09-10T09:17:08.000Z</time>
      </trkpt>
      <trkpt lat="46.98934" lon="3.15042">
        <ele>191.295982</ele>
        <time>2021-09-10T09:17:13.000Z</time>
      </trkpt>
      <trkpt lat="46.98927" lon="3.15031">
        <ele>191.228738</ele>
        <time>2021-09-10T09:17:16.000Z</time>
      </trkpt>
      <trkpt lat="46.98923" lon="3.15031">
        <ele>191.200427</ele>
        <time>2021-09-10T09:17:17.000Z</time>
      </trkpt>
      <trkpt lat="46.9892" lon="3.15033">
        <ele>191.177816</ele>
        <time>2021-09-10T09:17:18.000Z</time>
      </trkpt>
      <trkpt lat="46.98911" lon="3.15046">
        <ele>191.090343</ele>
        <time>2021-09-10T09:17:20.000Z</time>
      </trkpt>
      <trkpt lat="46.98902" lon="3.15049">
        <ele>191.027458</ele>
        <time>2021-09-10T09:17:22.000Z</time>
      </trkpt>
      <trkpt lat="46.98883" lon="3.15057">
        <ele>190.905374</ele>
        <time>2021-09-10T09:17:26.000Z</time>
      </trkpt>
      <trkpt lat="46.98879" lon="3.15059">
        <ele>190.877531</ele>
        <time>2021-09-10T09:17:27.000Z</time>
      </trkpt>
      <trkpt lat="46.9887" lon="3.15062">
        <ele>190.821627</ele>
        <time>2021-09-10T09:17:29.000Z</time>
      </trkpt>
      <trkpt lat="46.98856" lon="3.15068">
        <ele>190.7346</ele>
        <time>2021-09-10T09:17:32.000Z</time>
      </trkpt>
      <trkpt lat="46.98852" lon="3.1507">
        <ele>190.705468</ele>
        <time>2021-09-10T09:17:33.000Z</time>
      </trkpt>
      <trkpt lat="46.98834" lon="3.15077">
        <ele>190.593882</ele>
        <time>2021-09-10T09:17:37.000Z</time>
      </trkpt>
      <trkpt lat="46.98812" lon="3.15086">
        <ele>190.455543</ele>
        <time>2021-09-10T09:17:42.000Z</time>
      </trkpt>
      <trkpt lat="46.98808" lon="3.15088">
        <ele>190.426063</ele>
        <time>2021-09-10T09:17:43.000Z</time>
      </trkpt>
      <trkpt lat="46.98788" lon="3.15095">
        <ele>190.304306</ele>
        <time>2021-09-10T09:17:47.000Z</time>
      </trkpt>
      <trkpt lat="46.98751" lon="3.15108">
        <ele>190.067422</ele>
        <time>2021-09-10T09:17:55.000Z</time>
      </trkpt>
      <trkpt lat="46.98704" lon="3.15127">
        <ele>189.810423</ele>
        <time>2021-09-10T09:18:04.000Z</time>
      </trkpt>
      <trkpt lat="46.98677" lon="3.15139">
        <ele>189.707189</ele>
        <time>2021-09-10T09:18:10.000Z</time>
      </trkpt>
      <trkpt lat="46.98654" lon="3.15148">
        <ele>189.618712</ele>
        <time>2021-09-10T09:18:17.000Z</time>
      </trkpt>
      <trkpt lat="46.98636" lon="3.15159">
        <ele>189.546497</ele>
        <time>2021-09-10T09:18:24.000Z</time>
      </trkpt>
      <trkpt lat="46.98618" lon="3.1517">
        <ele>189.47289</ele>
        <time>2021-09-10T09:18:30.000Z</time>
      </trkpt>
      <trkpt lat="46.98603" lon="3.1519">
        <ele>189.399088</ele>
        <time>2021-09-10T09:18:35.000Z</time>
      </trkpt>
      <trkpt lat="46.98601" lon="3.15196">
        <ele>189.381405</ele>
        <time>2021-09-10T09:18:36.000Z</time>
      </trkpt>
      <trkpt lat="46.98599" lon="3.15203">
        <ele>189.364179</ele>
        <time>2021-09-10T09:18:37.000Z</time>
      </trkpt>
      <trkpt lat="46.98597" lon="3.15218">
        <ele>189.324914</ele>
        <time>2021-09-10T09:18:39.000Z</time>
      </trkpt>
      <trkpt lat="46.98596" lon="3.15225">
        <ele>189.305889</ele>
        <time>2021-09-10T09:18:40.000Z</time>
      </trkpt>
      <trkpt lat="46.98592" lon="3.15249">
        <ele>189.244242</ele>
        <time>2021-09-10T09:18:43.000Z</time>
      </trkpt>
      <trkpt lat="46.98588" lon="3.15265">
        <ele>189.174458</ele>
        <time>2021-09-10T09:18:45.000Z</time>
      </trkpt>
      <trkpt lat="46.98573" lon="3.15287">
        <ele>188.73671</ele>
        <time>2021-09-10T09:18:48.000Z</time>
      </trkpt>
      <trkpt lat="46.98559" lon="3.15297">
        <ele>188.414426</ele>
        <time>2021-09-10T09:18:50.000Z</time>
      </trkpt>
      <trkpt lat="46.98545" lon="3.15308">
        <ele>188.090287</ele>
        <time>2021-09-10T09:18:52.000Z</time>
      </trkpt>
      <trkpt lat="46.98493" lon="3.15345">
        <ele>186.883451</ele>
        <time>2021-09-10T09:19:00.000Z</time>
      </trkpt>
      <trkpt lat="46.98457" lon="3.15366">
        <ele>186.072132</ele>
        <time>2021-09-10T09:19:06.000Z</time>
      </trkpt>
      <trkpt lat="46.98419" lon="3.15385">
        <ele>185.128949</ele>
        <time>2021-09-10T09:19:13.000Z</time>
      </trkpt>
      <trkpt lat="46.98403" lon="3.15393">
        <ele>184.593768</ele>
        <time>2021-09-10T09:19:18.000Z</time>
      </trkpt>
      <trkpt lat="46.98401" lon="3.15393">
        <ele>184.522132</ele>
        <time>2021-09-10T09:19:19.000Z</time>
      </trkpt>
      <trkpt lat="46.98395" lon="3.15393">
        <ele>184.320484</ele>
        <time>2021-09-10T09:19:21.000Z</time>
      </trkpt>
      <trkpt lat="46.98385" lon="3.15395">
        <ele>184.027774</ele>
        <time>2021-09-10T09:19:23.000Z</time>
      </trkpt>
      <trkpt lat="46.98383" lon="3.15402">
        <ele>183.853853</ele>
        <time>2021-09-10T09:19:24.000Z</time>
      </trkpt>
      <trkpt lat="46.98383" lon="3.15405">
        <ele>183.783245</ele>
        <time>2021-09-10T09:19:25.000Z</time>
      </trkpt>
      <trkpt lat="46.98386" lon="3.15418">
        <ele>183.494664</ele>
        <time>2021-09-10T09:19:27.000Z</time>
      </trkpt>
      <trkpt lat="46.98387" lon="3.15425">
        <ele>183.343565</ele>
        <time>2021-09-10T09:19:28.000Z</time>
      </trkpt>
      <trkpt lat="46.98392" lon="3.15443">
        <ele>182.914652</ele>
        <time>2021-09-10T09:19:31.000Z</time>
      </trkpt>
      <trkpt lat="46.98398" lon="3.15469">
        <ele>182.334468</ele>
        <time>2021-09-10T09:19:36.000Z</time>
      </trkpt>
      <trkpt lat="46.98403" lon="3.15487">
        <ele>181.918091</ele>
        <time>2021-09-10T09:19:39.000Z</time>
      </trkpt>
      <trkpt lat="46.98404" lon="3.15493">
        <ele>181.786454</ele>
        <time>2021-09-10T09:19:40.000Z</time>
      </trkpt>
      <trkpt lat="46.98412" lon="3.15524">
        <ele>181.077301</ele>
        <time>2021-09-10T09:19:45.000Z</time>
      </trkpt>
      <trkpt lat="46.98419" lon="3.15553">
        <ele>180.41972</ele>
        <time>2021-09-10T09:19:49.000Z</time>
      </trkpt>
      <trkpt lat="46.98429" lon="3.15589">
        <ele>179.787484</ele>
        <time>2021-09-10T09:19:55.000Z</time>
      </trkpt>
      <trkpt lat="46.9844" lon="3.1563">
        <ele>179.704963</ele>
        <time>2021-09-10T09:20:02.000Z</time>
      </trkpt>
      <trkpt lat="46.98447" lon="3.15653">
        <ele>179.656741</ele>
        <time>2021-09-10T09:20:06.000Z</time>
      </trkpt>
      <trkpt lat="46.98453" lon="3.15667">
        <ele>179.62435</ele>
        <time>2021-09-10T09:20:09.000Z</time>
      </trkpt>
      <trkpt lat="46.98463" lon="3.15677">
        <ele>179.591747</ele>
        <time>2021-09-10T09:20:13.000Z</time>
      </trkpt>
      <trkpt lat="46.98474" lon="3.15673">
        <ele>179.559639</ele>
        <time>2021-09-10T09:20:18.000Z</time>
      </trkpt>
      <trkpt lat="46.98486" lon="3.15666">
        <ele>179.524991</ele>
        <time>2021-09-10T09:20:23.000Z</time>
      </trkpt>
      <trkpt lat="46.9849" lon="3.15666">
        <ele>179.514674</ele>
        <time>2021-09-10T09:20:24.000Z</time>
      </trkpt>
      <trkpt lat="46.98493" lon="3.15674">
        <ele>179.496821</ele>
        <time>2021-09-10T09:20:26.000Z</time>
      </trkpt>
      <trkpt lat="46.98494" lon="3.15676">
        <ele>179.491245</ele>
        <time>2021-09-10T09:20:27.000Z</time>
      </trkpt>
      <trkpt lat="46.98499" lon="3.15692">
        <ele>179.458484</ele>
        <time>2021-09-10T09:20:32.000Z</time>
      </trkpt>
      <trkpt lat="46.98507" lon="3.15719">
        <ele>179.402733</ele>
        <time>2021-09-10T09:20:41.000Z</time>
      </trkpt>
      <trkpt lat="46.98512" lon="3.15746">
        <ele>179.348826</ele>
        <time>2021-09-10T09:20:49.000Z</time>
      </trkpt>
      <trkpt lat="46.98501" lon="3.15768">
        <ele>179.345688</ele>
        <time>2021-09-10T09:20:56.000Z</time>
      </trkpt>
      <trkpt lat="46.9849" lon="3.15783">
        <ele>179.510709</ele>
        <time>2021-09-10T09:21:03.000Z</time>
      </trkpt>
      <trkpt lat="46.98488" lon="3.1579">
        <ele>179.568768</ele>
        <time>2021-09-10T09:21:05.000Z</time>
      </trkpt>
      <trkpt lat="46.98489" lon="3.15797">
        <ele>179.621304</ele>
        <time>2021-09-10T09:21:07.000Z</time>
      </trkpt>
      <trkpt lat="46.98497" lon="3.1581">
        <ele>179.747131</ele>
        <time>2021-09-10T09:21:12.000Z</time>
      </trkpt>
      <trkpt lat="46.98506" lon="3.15827">
        <ele>179.910927</ele>
        <time>2021-09-10T09:21:18.000Z</time>
      </trkpt>
      <trkpt lat="46.98507" lon="3.15828">
        <ele>179.921461</ele>
        <time>2021-09-10T09:21:19.000Z</time>
      </trkpt>
      <trkpt lat="46.98508" lon="3.1583">
        <ele>179.942672</ele>
        <time>2021-09-10T09:21:25.000Z</time>
      </trkpt>
      <trkpt lat="46.98496" lon="3.15828">
        <ele>180.077997</ele>
        <time>2021-09-10T09:24:07.000Z</time>
      </trkpt>
      <trkpt lat="46.98494" lon="3.15822">
        <ele>180.124792</ele>
        <time>2021-09-10T09:24:09.000Z</time>
      </trkpt>
      <trkpt lat="46.98493" lon="3.15804">
        <ele>180.260178</ele>
        <time>2021-09-10T09:24:15.000Z</time>
      </trkpt>
      <trkpt lat="46.9849" lon="3.15799">
        <ele>180.313679</ele>
        <time>2021-09-10T09:24:20.000Z</time>
      </trkpt>
      <trkpt lat="46.98479" lon="3.15798">
        <ele>180.431284</ele>
        <time>2021-09-10T09:24:25.000Z</time>
      </trkpt>
      <trkpt lat="46.98479" lon="3.15795">
        <ele>180.45221</ele>
        <time>2021-09-10T09:24:27.000Z</time>
      </trkpt>
      <trkpt lat="46.98478" lon="3.15792">
        <ele>180.480656</ele>
        <time>2021-09-10T09:24:30.000Z</time>
      </trkpt>
      <trkpt lat="46.98464" lon="3.15806">
        <ele>180.665055</ele>
        <time>2021-09-10T09:24:35.000Z</time>
      </trkpt>
      <trkpt lat="46.98443" lon="3.15823">
        <ele>180.936498</ele>
        <time>2021-09-10T09:24:42.000Z</time>
      </trkpt>
      <trkpt lat="46.98415" lon="3.15845">
        <ele>181.276285</ele>
        <time>2021-09-10T09:24:51.000Z</time>
      </trkpt>
      <trkpt lat="46.98398" lon="3.15858">
        <ele>181.201874</ele>
        <time>2021-09-10T09:24:57.000Z</time>
      </trkpt>
      <trkpt lat="46.98377" lon="3.15875">
        <ele>181.105009</ele>
        <time>2021-09-10T09:25:03.000Z</time>
      </trkpt>
      <trkpt lat="46.98349" lon="3.15897">
        <ele>180.973099</ele>
        <time>2021-09-10T09:25:11.000Z</time>
      </trkpt>
      <trkpt lat="46.98321" lon="3.15919">
        <ele>180.844836</ele>
        <time>2021-09-10T09:25:19.000Z</time>
      </trkpt>
      <trkpt lat="46.98285" lon="3.15948">
        <ele>180.678499</ele>
        <time>2021-09-10T09:25:28.000Z</time>
      </trkpt>
      <trkpt lat="46.98259" lon="3.15968">
        <ele>180.560821</ele>
        <time>2021-09-10T09:25:35.000Z</time>
      </trkpt>
      <trkpt lat="46.98233" lon="3.15989">
        <ele>180.411927</ele>
        <time>2021-09-10T09:25:42.000Z</time>
      </trkpt>
      <trkpt lat="46.98225" lon="3.15995">
        <ele>180.366208</ele>
        <time>2021-09-10T09:25:44.000Z</time>
      </trkpt>
      <trkpt lat="46.98218" lon="3.16">
        <ele>180.324459</ele>
        <time>2021-09-10T09:25:46.000Z</time>
      </trkpt>
      <trkpt lat="46.98211" lon="3.16006">
        <ele>180.28271</ele>
        <time>2021-09-10T09:25:48.000Z</time>
      </trkpt>
      <trkpt lat="46.98193" lon="3.16022">
        <ele>180.176201</ele>
        <time>2021-09-10T09:25:53.000Z</time>
      </trkpt>
      <trkpt lat="46.98189" lon="3.16025">
        <ele>180.15657</ele>
        <time>2021-09-10T09:25:54.000Z</time>
      </trkpt>
      <trkpt lat="46.98192" lon="3.16034">
        <ele>180.12148</ele>
        <time>2021-09-10T09:25:55.000Z</time>
      </trkpt>
      <trkpt lat="46.98195" lon="3.16045">
        <ele>180.079493</ele>
        <time>2021-09-10T09:25:57.000Z</time>
      </trkpt>
      <trkpt lat="46.98205" lon="3.16083">
        <ele>179.936754</ele>
        <time>2021-09-10T09:26:02.000Z</time>
      </trkpt>
      <trkpt lat="46.98205" lon="3.16099">
        <ele>179.880601</ele>
        <time>2021-09-10T09:26:04.000Z</time>
      </trkpt>
      <trkpt lat="46.98204" lon="3.16115">
        <ele>179.826496</ele>
        <time>2021-09-10T09:26:06.000Z</time>
      </trkpt>
      <trkpt lat="46.98197" lon="3.16166">
        <ele>179.646208</ele>
        <time>2021-09-10T09:26:13.000Z</time>
      </trkpt>
      <trkpt lat="46.98188" lon="3.16225">
        <ele>179.258478</ele>
        <time>2021-09-10T09:26:20.000Z</time>
      </trkpt>
      <trkpt lat="46.9818" lon="3.16276">
        <ele>178.915608</ele>
        <time>2021-09-10T09:26:26.000Z</time>
      </trkpt>
      <trkpt lat="46.98171" lon="3.1634">
        <ele>178.492993</ele>
        <time>2021-09-10T09:26:34.000Z</time>
      </trkpt>
      <trkpt lat="46.98164" lon="3.16391">
        <ele>178.147917</ele>
        <time>2021-09-10T09:26:41.000Z</time>
      </trkpt>
      <trkpt lat="46.98155" lon="3.16451">
        <ele>177.909334</ele>
        <time>2021-09-10T09:26:50.000Z</time>
      </trkpt>
      <trkpt lat="46.98149" lon="3.16468">
        <ele>177.913183</ele>
        <time>2021-09-10T09:26:53.000Z</time>
      </trkpt>
      <trkpt lat="46.98147" lon="3.16468">
        <ele>177.913637</ele>
        <time>2021-09-10T09:26:54.000Z</time>
      </trkpt>
      <trkpt lat="46.98146" lon="3.16469">
        <ele>177.913899</ele>
        <time>2021-09-10T09:26:55.000Z</time>
      </trkpt>
      <trkpt lat="46.98143" lon="3.16471">
        <ele>177.915025</ele>
        <time>2021-09-10T09:27:06.000Z</time>
      </trkpt>
      <trkpt lat="46.9813" lon="3.16478">
        <ele>177.919183</ele>
        <time>2021-09-10T09:27:10.000Z</time>
      </trkpt>
      <trkpt lat="46.98103" lon="3.16493">
        <ele>177.928023</ele>
        <time>2021-09-10T09:27:17.000Z</time>
      </trkpt>
      <trkpt lat="46.98093" lon="3.16498">
        <ele>177.931119</ele>
        <time>2021-09-10T09:27:21.000Z</time>
      </trkpt>
      <trkpt lat="46.9808" lon="3.16506">
        <ele>177.935305</ele>
        <time>2021-09-10T09:27:28.000Z</time>
      </trkpt>
      <trkpt lat="46.98064" lon="3.16514">
        <ele>177.940462</ele>
        <time>2021-09-10T09:27:33.000Z</time>
      </trkpt>
      <trkpt lat="46.98046" lon="3.16524">
        <ele>177.946277</ele>
        <time>2021-09-10T09:27:38.000Z</time>
      </trkpt>
      <trkpt lat="46.98014" lon="3.16541">
        <ele>177.956618</ele>
        <time>2021-09-10T09:27:46.000Z</time>
      </trkpt>
      <trkpt lat="46.97992" lon="3.16553">
        <ele>177.809296</ele>
        <time>2021-09-10T09:27:52.000Z</time>
      </trkpt>
      <trkpt lat="46.97959" lon="3.16571">
        <ele>177.475553</ele>
        <time>2021-09-10T09:28:01.000Z</time>
      </trkpt>
      <trkpt lat="46.9793" lon="3.16586">
        <ele>177.19297</ele>
        <time>2021-09-10T09:28:08.000Z</time>
      </trkpt>
      <trkpt lat="46.97922" lon="3.1659">
        <ele>177.111112</ele>
        <time>2021-09-10T09:28:10.000Z</time>
      </trkpt>
      <trkpt lat="46.97906" lon="3.16599">
        <ele>176.950879</ele>
        <time>2021-09-10T09:28:14.000Z</time>
      </trkpt>
      <trkpt lat="46.9788" lon="3.16613">
        <ele>176.700952</ele>
        <time>2021-09-10T09:28:21.000Z</time>
      </trkpt>
      <trkpt lat="46.97857" lon="3.16625">
        <ele>176.471924</ele>
        <time>2021-09-10T09:28:28.000Z</time>
      </trkpt>
      <trkpt lat="46.97846" lon="3.16631">
        <ele>176.361111</ele>
        <time>2021-09-10T09:28:32.000Z</time>
      </trkpt>
      <trkpt lat="46.97827" lon="3.16642">
        <ele>176.114457</ele>
        <time>2021-09-10T09:28:40.000Z</time>
      </trkpt>
      <trkpt lat="46.97821" lon="3.16645">
        <ele>176.025378</ele>
        <time>2021-09-10T09:28:45.000Z</time>
      </trkpt>
      <trkpt lat="46.97817" lon="3.16647">
        <ele>175.971995</ele>
        <time>2021-09-10T09:28:51.000Z</time>
      </trkpt>
      <trkpt lat="46.97818" lon="3.16646">
        <ele>175.957254</ele>
        <time>2021-09-10T09:30:00.000Z</time>
      </trkpt>
      <trkpt lat="46.97821" lon="3.16645">
        <ele>175.923193</ele>
        <time>2021-09-10T09:30:03.000Z</time>
      </trkpt>
      <trkpt lat="46.97821" lon="3.16645">
        <ele>175.913997</ele>
        <time>2021-09-10T09:30:06.000Z</time>
      </trkpt>
      <trkpt lat="46.97823" lon="3.16644">
        <ele>175.885832</ele>
        <time>2021-09-10T10:51:12.000Z</time>
      </trkpt>
      <trkpt lat="46.97818" lon="3.16647">
        <ele>175.803957</ele>
        <time>2021-09-10T10:52:03.000Z</time>
      </trkpt>
      <trkpt lat="46.97814" lon="3.16648">
        <ele>175.74926</ele>
        <time>2021-09-10T10:52:05.000Z</time>
      </trkpt>
      <trkpt lat="46.97796" lon="3.16658">
        <ele>175.481696</ele>
        <time>2021-09-10T10:52:11.000Z</time>
      </trkpt>
      <trkpt lat="46.97768" lon="3.16673">
        <ele>175.072981</ele>
        <time>2021-09-10T10:52:17.000Z</time>
      </trkpt>
      <trkpt lat="46.97735" lon="3.16691">
        <ele>174.579444</ele>
        <time>2021-09-10T10:52:24.000Z</time>
      </trkpt>
      <trkpt lat="46.97706" lon="3.16706">
        <ele>174.148459</ele>
        <time>2021-09-10T10:52:30.000Z</time>
      </trkpt>
      <trkpt lat="46.97678" lon="3.16722">
        <ele>173.806489</ele>
        <time>2021-09-10T10:52:36.000Z</time>
      </trkpt>
      <trkpt lat="46.97666" lon="3.16731">
        <ele>173.895741</ele>
        <time>2021-09-10T10:52:40.000Z</time>
      </trkpt>
      <trkpt lat="46.97663" lon="3.16734">
        <ele>173.922055</ele>
        <time>2021-09-10T10:52:41.000Z</time>
      </trkpt>
      <trkpt lat="46.97649" lon="3.16762">
        <ele>174.080187</ele>
        <time>2021-09-10T10:52:45.000Z</time>
      </trkpt>
      <trkpt lat="46.97636" lon="3.16789">
        <ele>174.230301</ele>
        <time>2021-09-10T10:52:50.000Z</time>
      </trkpt>
      <trkpt lat="46.97618" lon="3.16832">
        <ele>174.463007</ele>
        <time>2021-09-10T10:52:55.000Z</time>
      </trkpt>
      <trkpt lat="46.97615" lon="3.16839">
        <ele>174.499966</ele>
        <time>2021-09-10T10:52:56.000Z</time>
      </trkpt>
      <trkpt lat="46.97598" lon="3.16877">
        <ele>174.706648</ele>
        <time>2021-09-10T10:53:03.000Z</time>
      </trkpt>
      <trkpt lat="46.97579" lon="3.16916">
        <ele>174.924195</ele>
        <time>2021-09-10T10:53:10.000Z</time>
      </trkpt>
      <trkpt lat="46.97574" lon="3.16928">
        <ele>174.984935</ele>
        <time>2021-09-10T10:53:12.000Z</time>
      </trkpt>
      <trkpt lat="46.9757" lon="3.16939">
        <ele>174.997615</ele>
        <time>2021-09-10T10:53:14.000Z</time>
      </trkpt>
      <trkpt lat="46.97568" lon="3.16945">
        <ele>175.004212</ele>
        <time>2021-09-10T10:53:15.000Z</time>
      </trkpt>
      <trkpt lat="46.97566" lon="3.1695">
        <ele>175.010228</ele>
        <time>2021-09-10T10:53:17.000Z</time>
      </trkpt>
      <trkpt lat="46.97549" lon="3.16952">
        <ele>175.03389</ele>
        <time>2021-09-10T10:53:19.000Z</time>
      </trkpt>
      <trkpt lat="46.97525" lon="3.16965">
        <ele>175.071507</ele>
        <time>2021-09-10T10:53:23.000Z</time>
      </trkpt>
      <trkpt lat="46.97519" lon="3.16968">
        <ele>175.081598</ele>
        <time>2021-09-10T10:53:24.000Z</time>
      </trkpt>
      <trkpt lat="46.97483" lon="3.16989">
        <ele>175.137832</ele>
        <time>2021-09-10T10:53:30.000Z</time>
      </trkpt>
      <trkpt lat="46.97434" lon="3.17018">
        <ele>175.214986</ele>
        <time>2021-09-10T10:53:38.000Z</time>
      </trkpt>
      <trkpt lat="46.97428" lon="3.17021">
        <ele>175.224909</ele>
        <time>2021-09-10T10:53:39.000Z</time>
      </trkpt>
      <trkpt lat="46.97415" lon="3.17028">
        <ele>175.244232</ele>
        <time>2021-09-10T10:53:41.000Z</time>
      </trkpt>
      <trkpt lat="46.97391" lon="3.17041">
        <ele>175.199318</ele>
        <time>2021-09-10T10:53:45.000Z</time>
      </trkpt>
      <trkpt lat="46.9738" lon="3.17047">
        <ele>175.175443</ele>
        <time>2021-09-10T10:53:47.000Z</time>
      </trkpt>
      <trkpt lat="46.97375" lon="3.17049">
        <ele>175.164368</ele>
        <time>2021-09-10T10:53:48.000Z</time>
      </trkpt>
      <trkpt lat="46.97365" lon="3.17055">
        <ele>175.142842</ele>
        <time>2021-09-10T10:53:50.000Z</time>
      </trkpt>
      <trkpt lat="46.97356" lon="3.1706">
        <ele>175.123042</ele>
        <time>2021-09-10T10:53:52.000Z</time>
      </trkpt>
      <trkpt lat="46.97347" lon="3.17065">
        <ele>175.10305</ele>
        <time>2021-09-10T10:53:54.000Z</time>
      </trkpt>
      <trkpt lat="46.97339" lon="3.17069">
        <ele>175.085455</ele>
        <time>2021-09-10T10:53:56.000Z</time>
      </trkpt>
      <trkpt lat="46.97335" lon="3.17071">
        <ele>175.077209</ele>
        <time>2021-09-10T10:53:57.000Z</time>
      </trkpt>
      <trkpt lat="46.97325" lon="3.17076">
        <ele>175.056114</ele>
        <time>2021-09-10T10:53:59.000Z</time>
      </trkpt>
      <trkpt lat="46.97319" lon="3.17079">
        <ele>175.042834</ele>
        <time>2021-09-10T10:54:00.000Z</time>
      </trkpt>
      <trkpt lat="46.97297" lon="3.17091">
        <ele>174.993933</ele>
        <time>2021-09-10T10:54:04.000Z</time>
      </trkpt>
      <trkpt lat="46.97272" lon="3.17104">
        <ele>174.940477</ele>
        <time>2021-09-10T10:54:08.000Z</time>
      </trkpt>
      <trkpt lat="46.9726" lon="3.17111">
        <ele>174.913965</ele>
        <time>2021-09-10T10:54:10.000Z</time>
      </trkpt>
      <trkpt lat="46.97244" lon="3.1712">
        <ele>174.873167</ele>
        <time>2021-09-10T10:54:13.000Z</time>
      </trkpt>
      <trkpt lat="46.97234" lon="3.17125">
        <ele>174.768034</ele>
        <time>2021-09-10T10:54:15.000Z</time>
      </trkpt>
      <trkpt lat="46.97223" lon="3.17131">
        <ele>174.640443</ele>
        <time>2021-09-10T10:54:17.000Z</time>
      </trkpt>
      <trkpt lat="46.97204" lon="3.17141">
        <ele>174.43042</ele>
        <time>2021-09-10T10:54:20.000Z</time>
      </trkpt>
      <trkpt lat="46.9719" lon="3.17148">
        <ele>174.270253</ele>
        <time>2021-09-10T10:54:22.000Z</time>
      </trkpt>
      <trkpt lat="46.97164" lon="3.17162">
        <ele>173.981508</ele>
        <time>2021-09-10T10:54:26.000Z</time>
      </trkpt>
      <trkpt lat="46.97158" lon="3.17165">
        <ele>173.917834</ele>
        <time>2021-09-10T10:54:27.000Z</time>
      </trkpt>
      <trkpt lat="46.9714" lon="3.17175">
        <ele>173.716697</ele>
        <time>2021-09-10T10:54:30.000Z</time>
      </trkpt>
      <trkpt lat="46.97127" lon="3.17182">
        <ele>173.569855</ele>
        <time>2021-09-10T10:54:32.000Z</time>
      </trkpt>
      <trkpt lat="46.97114" lon="3.17189">
        <ele>173.422273</ele>
        <time>2021-09-10T10:54:34.000Z</time>
      </trkpt>
      <trkpt lat="46.97088" lon="3.17203">
        <ele>173.131306</ele>
        <time>2021-09-10T10:54:38.000Z</time>
      </trkpt>
      <trkpt lat="46.97081" lon="3.17206">
        <ele>173.054304</ele>
        <time>2021-09-10T10:54:39.000Z</time>
      </trkpt>
      <trkpt lat="46.97064" lon="3.17216">
        <ele>172.794852</ele>
        <time>2021-09-10T10:54:42.000Z</time>
      </trkpt>
      <trkpt lat="46.97044" lon="3.17226">
        <ele>172.458923</ele>
        <time>2021-09-10T10:54:45.000Z</time>
      </trkpt>
      <trkpt lat="46.97038" lon="3.17229">
        <ele>172.356697</ele>
        <time>2021-09-10T10:54:46.000Z</time>
      </trkpt>
      <trkpt lat="46.97032" lon="3.17233">
        <ele>172.259289</ele>
        <time>2021-09-10T10:54:47.000Z</time>
      </trkpt>
      <trkpt lat="46.97011" lon="3.17244">
        <ele>171.91336</ele>
        <time>2021-09-10T10:54:51.000Z</time>
      </trkpt>
      <trkpt lat="46.97006" lon="3.17246">
        <ele>171.827803</ele>
        <time>2021-09-10T10:54:52.000Z</time>
      </trkpt>
      <trkpt lat="46.96996" lon="3.17252">
        <ele>171.651505</ele>
        <time>2021-09-10T10:54:54.000Z</time>
      </trkpt>
      <trkpt lat="46.9699" lon="3.17255">
        <ele>171.550763</ele>
        <time>2021-09-10T10:54:55.000Z</time>
      </trkpt>
      <trkpt lat="46.96959" lon="3.17272">
        <ele>171.028536</ele>
        <time>2021-09-10T10:55:00.000Z</time>
      </trkpt>
      <trkpt lat="46.96946" lon="3.17278">
        <ele>170.820385</ele>
        <time>2021-09-10T10:55:02.000Z</time>
      </trkpt>
      <trkpt lat="46.9693" lon="3.17287">
        <ele>170.545195</ele>
        <time>2021-09-10T10:55:05.000Z</time>
      </trkpt>
      <trkpt lat="46.96903" lon="3.17301">
        <ele>170.121148</ele>
        <time>2021-09-10T10:55:10.000Z</time>
      </trkpt>
      <trkpt lat="46.96856" lon="3.17326">
        <ele>169.63575</ele>
        <time>2021-09-10T10:55:18.000Z</time>
      </trkpt>
      <trkpt lat="46.96838" lon="3.17336">
        <ele>169.452208</ele>
        <time>2021-09-10T10:55:21.000Z</time>
      </trkpt>
      <trkpt lat="46.96832" lon="3.17339">
        <ele>169.394175</ele>
        <time>2021-09-10T10:55:22.000Z</time>
      </trkpt>
      <trkpt lat="46.96801" lon="3.17356">
        <ele>169.075</ele>
        <time>2021-09-10T10:55:27.000Z</time>
      </trkpt>
      <trkpt lat="46.96778" lon="3.17368">
        <ele>168.839498</ele>
        <time>2021-09-10T10:55:31.000Z</time>
      </trkpt>
      <trkpt lat="46.9676" lon="3.17378">
        <ele>168.657979</ele>
        <time>2021-09-10T10:55:34.000Z</time>
      </trkpt>
      <trkpt lat="46.96755" lon="3.1738">
        <ele>168.605118</ele>
        <time>2021-09-10T10:55:35.000Z</time>
      </trkpt>
      <trkpt lat="46.96743" lon="3.17386">
        <ele>168.487705</ele>
        <time>2021-09-10T10:55:37.000Z</time>
      </trkpt>
      <trkpt lat="46.96737" lon="3.1739">
        <ele>168.423663</ele>
        <time>2021-09-10T10:55:38.000Z</time>
      </trkpt>
      <trkpt lat="46.9673" lon="3.17393">
        <ele>168.379848</ele>
        <time>2021-09-10T10:55:39.000Z</time>
      </trkpt>
      <trkpt lat="46.96718" lon="3.174">
        <ele>168.29777</ele>
        <time>2021-09-10T10:55:41.000Z</time>
      </trkpt>
      <trkpt lat="46.96712" lon="3.17403">
        <ele>168.260089</ele>
        <time>2021-09-10T10:55:42.000Z</time>
      </trkpt>
      <trkpt lat="46.96707" lon="3.17406">
        <ele>168.224307</ele>
        <time>2021-09-10T10:55:43.000Z</time>
      </trkpt>
      <trkpt lat="46.9669" lon="3.17415">
        <ele>168.114334</ele>
        <time>2021-09-10T10:55:46.000Z</time>
      </trkpt>
      <trkpt lat="46.96679" lon="3.1742">
        <ele>168.04423</ele>
        <time>2021-09-10T10:55:48.000Z</time>
      </trkpt>
      <trkpt lat="46.96662" lon="3.1743">
        <ele>167.931628</ele>
        <time>2021-09-10T10:55:51.000Z</time>
      </trkpt>
      <trkpt lat="46.96652" lon="3.17435">
        <ele>167.865468</ele>
        <time>2021-09-10T10:55:53.000Z</time>
      </trkpt>
      <trkpt lat="46.9664" lon="3.17442">
        <ele>167.782075</ele>
        <time>2021-09-10T10:55:55.000Z</time>
      </trkpt>
      <trkpt lat="46.96618" lon="3.17453">
        <ele>167.640993</ele>
        <time>2021-09-10T10:55:59.000Z</time>
      </trkpt>
      <trkpt lat="46.966" lon="3.17463">
        <ele>167.519189</ele>
        <time>2021-09-10T10:56:02.000Z</time>
      </trkpt>
      <trkpt lat="46.96575" lon="3.17476">
        <ele>167.350358</ele>
        <time>2021-09-10T10:56:06.000Z</time>
      </trkpt>
      <trkpt lat="46.9655" lon="3.1749">
        <ele>167.415261</ele>
        <time>2021-09-10T10:56:10.000Z</time>
      </trkpt>
      <trkpt lat="46.96543" lon="3.17493">
        <ele>167.453608</ele>
        <time>2021-09-10T10:56:11.000Z</time>
      </trkpt>
      <trkpt lat="46.9653" lon="3.175">
        <ele>167.529042</ele>
        <time>2021-09-10T10:56:13.000Z</time>
      </trkpt>
      <trkpt lat="46.96523" lon="3.17504">
        <ele>167.565119</ele>
        <time>2021-09-10T10:56:14.000Z</time>
      </trkpt>
      <trkpt lat="46.96518" lon="3.17507">
        <ele>167.597159</ele>
        <time>2021-09-10T10:56:15.000Z</time>
      </trkpt>
      <trkpt lat="46.965" lon="3.17516">
        <ele>167.700597</ele>
        <time>2021-09-10T10:56:18.000Z</time>
      </trkpt>
      <trkpt lat="46.96475" lon="3.17529">
        <ele>167.839481</ele>
        <time>2021-09-10T10:56:22.000Z</time>
      </trkpt>
      <trkpt lat="46.96447" lon="3.17544">
        <ele>168.000818</ele>
        <time>2021-09-10T10:56:27.000Z</time>
      </trkpt>
      <trkpt lat="46.96438" lon="3.17549">
        <ele>168.05279</ele>
        <time>2021-09-10T10:56:29.000Z</time>
      </trkpt>
      <trkpt lat="46.96424" lon="3.17556">
        <ele>168.13062</ele>
        <time>2021-09-10T10:56:32.000Z</time>
      </trkpt>
      <trkpt lat="46.96401" lon="3.17569">
        <ele>168.265594</ele>
        <time>2021-09-10T10:56:38.000Z</time>
      </trkpt>
      <trkpt lat="46.96379" lon="3.1758">
        <ele>168.496548</ele>
        <time>2021-09-10T10:56:43.000Z</time>
      </trkpt>
      <trkpt lat="46.96351" lon="3.17597">
        <ele>168.822966</ele>
        <time>2021-09-10T10:56:49.000Z</time>
      </trkpt>
      <trkpt lat="46.96315" lon="3.17617">
        <ele>169.221707</ele>
        <time>2021-09-10T10:56:56.000Z</time>
      </trkpt>
      <trkpt lat="46.9631" lon="3.1762">
        <ele>169.281597</ele>
        <time>2021-09-10T10:56:57.000Z</time>
      </trkpt>
      <trkpt lat="46.96295" lon="3.17629">
        <ele>169.452452</ele>
        <time>2021-09-10T10:57:00.000Z</time>
      </trkpt>
      <trkpt lat="46.96275" lon="3.17642">
        <ele>169.683867</ele>
        <time>2021-09-10T10:57:04.000Z</time>
      </trkpt>
      <trkpt lat="46.9627" lon="3.17644">
        <ele>169.735123</ele>
        <time>2021-09-10T10:57:05.000Z</time>
      </trkpt>
      <trkpt lat="46.96266" lon="3.17647">
        <ele>169.784435</ele>
        <time>2021-09-10T10:57:06.000Z</time>
      </trkpt>
      <trkpt lat="46.96247" lon="3.17659">
        <ele>170.000707</ele>
        <time>2021-09-10T10:57:10.000Z</time>
      </trkpt>
      <trkpt lat="46.96219" lon="3.17685">
        <ele>170.267457</ele>
        <time>2021-09-10T10:57:16.000Z</time>
      </trkpt>
      <trkpt lat="46.96187" lon="3.17718">
        <ele>170.490862</ele>
        <time>2021-09-10T10:57:23.000Z</time>
      </trkpt>
      <trkpt lat="46.96182" lon="3.17723">
        <ele>170.524042</ele>
        <time>2021-09-10T10:57:24.000Z</time>
      </trkpt>
      <trkpt lat="46.96167" lon="3.1774">
        <ele>170.628029</ele>
        <time>2021-09-10T10:57:27.000Z</time>
      </trkpt>
      <trkpt lat="46.96159" lon="3.17751">
        <ele>170.690484</ele>
        <time>2021-09-10T10:57:29.000Z</time>
      </trkpt>
      <trkpt lat="46.96156" lon="3.17755">
        <ele>170.716466</ele>
        <time>2021-09-10T10:57:30.000Z</time>
      </trkpt>
      <trkpt lat="46.96142" lon="3.17772">
        <ele>170.813789</ele>
        <time>2021-09-10T10:57:33.000Z</time>
      </trkpt>
      <trkpt lat="46.96135" lon="3.17781">
        <ele>170.869391</ele>
        <time>2021-09-10T10:57:35.000Z</time>
      </trkpt>
      <trkpt lat="46.96125" lon="3.17794">
        <ele>170.946657</ele>
        <time>2021-09-10T10:57:38.000Z</time>
      </trkpt>
      <trkpt lat="46.96121" lon="3.17799">
        <ele>170.974923</ele>
        <time>2021-09-10T10:57:39.000Z</time>
      </trkpt>
      <trkpt lat="46.96101" lon="3.17831">
        <ele>171.139961</ele>
        <time>2021-09-10T10:57:44.000Z</time>
      </trkpt>
      <trkpt lat="46.96097" lon="3.17838">
        <ele>171.177919</ele>
        <time>2021-09-10T10:57:45.000Z</time>
      </trkpt>
      <trkpt lat="46.96076" lon="3.17877">
        <ele>171.303805</ele>
        <time>2021-09-10T10:57:50.000Z</time>
      </trkpt>
      <trkpt lat="46.96072" lon="3.17885">
        <ele>171.327915</ele>
        <time>2021-09-10T10:57:51.000Z</time>
      </trkpt>
      <trkpt lat="46.96065" lon="3.17899">
        <ele>171.373862</ele>
        <time>2021-09-10T10:57:53.000Z</time>
      </trkpt>
      <trkpt lat="46.96061" lon="3.17906">
        <ele>171.394855</ele>
        <time>2021-09-10T10:57:54.000Z</time>
      </trkpt>
      <trkpt lat="46.96054" lon="3.17921">
        <ele>171.44117</ele>
        <time>2021-09-10T10:57:56.000Z</time>
      </trkpt>
      <trkpt lat="46.96051" lon="3.1793">
        <ele>171.465515</ele>
        <time>2021-09-10T10:57:57.000Z</time>
      </trkpt>
      <trkpt lat="46.96048" lon="3.17938">
        <ele>171.488795</ele>
        <time>2021-09-10T10:57:58.000Z</time>
      </trkpt>
      <trkpt lat="46.9604" lon="3.17964">
        <ele>171.559538</ele>
        <time>2021-09-10T10:58:01.000Z</time>
      </trkpt>
      <trkpt lat="46.96034" lon="3.1798">
        <ele>171.606776</ele>
        <time>2021-09-10T10:58:03.000Z</time>
      </trkpt>
      <trkpt lat="46.96027" lon="3.18004">
        <ele>171.67287</ele>
        <time>2021-09-10T10:58:06.000Z</time>
      </trkpt>
      <trkpt lat="46.96024" lon="3.18012">
        <ele>171.695536</ele>
        <time>2021-09-10T10:58:07.000Z</time>
      </trkpt>
      <trkpt lat="46.96019" lon="3.18028">
        <ele>171.73919</ele>
        <time>2021-09-10T10:58:09.000Z</time>
      </trkpt>
      <trkpt lat="46.96016" lon="3.18035">
        <ele>171.760791</ele>
        <time>2021-09-10T10:58:10.000Z</time>
      </trkpt>
      <trkpt lat="46.96014" lon="3.18043">
        <ele>171.782005</ele>
        <time>2021-09-10T10:58:11.000Z</time>
      </trkpt>
      <trkpt lat="46.96007" lon="3.18061">
        <ele>171.831754</ele>
        <time>2021-09-10T10:58:13.000Z</time>
      </trkpt>
      <trkpt lat="46.96004" lon="3.18067">
        <ele>171.86911</ele>
        <time>2021-09-10T10:58:14.000Z</time>
      </trkpt>
      <trkpt lat="46.95991" lon="3.18089">
        <ele>172.120817</ele>
        <time>2021-09-10T10:58:17.000Z</time>
      </trkpt>
      <trkpt lat="46.95984" lon="3.18105">
        <ele>172.286416</ele>
        <time>2021-09-10T10:58:19.000Z</time>
      </trkpt>
      <trkpt lat="46.95976" lon="3.18127">
        <ele>172.503837</ele>
        <time>2021-09-10T10:58:23.000Z</time>
      </trkpt>
      <trkpt lat="46.95972" lon="3.18139">
        <ele>172.625401</ele>
        <time>2021-09-10T10:58:24.000Z</time>
      </trkpt>
      <trkpt lat="46.95963" lon="3.18159">
        <ele>172.834628</ele>
        <time>2021-09-10T10:58:28.000Z</time>
      </trkpt>
      <trkpt lat="46.95963" lon="3.18159">
        <ele>172.834628</ele>
        <time>2021-09-10T10:58:30.000Z</time>
      </trkpt>
      <trkpt lat="46.95949" lon="3.18188">
        <ele>173.150295</ele>
        <time>2021-09-10T10:58:33.000Z</time>
      </trkpt>
      <trkpt lat="46.95944" lon="3.18219">
        <ele>173.432482</ele>
        <time>2021-09-10T10:58:37.000Z</time>
      </trkpt>
      <trkpt lat="46.95945" lon="3.18227">
        <ele>173.502367</ele>
        <time>2021-09-10T10:58:39.000Z</time>
      </trkpt>
      <trkpt lat="46.95949" lon="3.1825">
        <ele>173.713326</ele>
        <time>2021-09-10T10:58:41.000Z</time>
      </trkpt>
      <trkpt lat="46.95955" lon="3.18264">
        <ele>173.85673</ele>
        <time>2021-09-10T10:58:43.000Z</time>
      </trkpt>
      <trkpt lat="46.95969" lon="3.18279">
        <ele>174.080923</ele>
        <time>2021-09-10T10:58:46.000Z</time>
      </trkpt>
      <trkpt lat="46.95974" lon="3.18283">
        <ele>174.157874</ele>
        <time>2021-09-10T10:58:47.000Z</time>
      </trkpt>
      <trkpt lat="46.96007" lon="3.18307">
        <ele>174.615626</ele>
        <time>2021-09-10T10:58:53.000Z</time>
      </trkpt>
      <trkpt lat="46.96028" lon="3.18325">
        <ele>174.920927</ele>
        <time>2021-09-10T10:58:57.000Z</time>
      </trkpt>
      <trkpt lat="46.96038" lon="3.18335">
        <ele>175.077133</ele>
        <time>2021-09-10T10:58:59.000Z</time>
      </trkpt>
      <trkpt lat="46.96048" lon="3.18343">
        <ele>175.223644</ele>
        <time>2021-09-10T10:59:01.000Z</time>
      </trkpt>
      <trkpt lat="46.96053" lon="3.18346">
        <ele>175.29033</ele>
        <time>2021-09-10T10:59:02.000Z</time>
      </trkpt>
      <trkpt lat="46.96087" lon="3.18368">
        <ele>175.758669</ele>
        <time>2021-09-10T10:59:08.000Z</time>
      </trkpt>
      <trkpt lat="46.96099" lon="3.18377">
        <ele>175.929068</ele>
        <time>2021-09-10T10:59:10.000Z</time>
      </trkpt>
      <trkpt lat="46.96106" lon="3.18382">
        <ele>176.019351</ele>
        <time>2021-09-10T10:59:11.000Z</time>
      </trkpt>
      <trkpt lat="46.96112" lon="3.18387">
        <ele>176.113383</ele>
        <time>2021-09-10T10:59:12.000Z</time>
      </trkpt>
      <trkpt lat="46.96124" lon="3.18396">
        <ele>176.279648</ele>
        <time>2021-09-10T10:59:14.000Z</time>
      </trkpt>
      <trkpt lat="46.96133" lon="3.18402">
        <ele>176.407921</ele>
        <time>2021-09-10T10:59:16.000Z</time>
      </trkpt>
      <trkpt lat="46.96143" lon="3.1841">
        <ele>176.530308</ele>
        <time>2021-09-10T10:59:18.000Z</time>
      </trkpt>
      <trkpt lat="46.96164" lon="3.18425">
        <ele>176.786643</ele>
        <time>2021-09-10T10:59:22.000Z</time>
      </trkpt>
      <trkpt lat="46.96169" lon="3.18429">
        <ele>176.850897</ele>
        <time>2021-09-10T10:59:23.000Z</time>
      </trkpt>
      <trkpt lat="46.96174" lon="3.18433">
        <ele>176.910208</ele>
        <time>2021-09-10T10:59:24.000Z</time>
      </trkpt>
      <trkpt lat="46.96187" lon="3.18442">
        <ele>177.06671</ele>
        <time>2021-09-10T10:59:27.000Z</time>
      </trkpt>
      <trkpt lat="46.9619" lon="3.18445">
        <ele>177.114815</ele>
        <time>2021-09-10T10:59:28.000Z</time>
      </trkpt>
      <trkpt lat="46.96203" lon="3.18454">
        <ele>177.272978</ele>
        <time>2021-09-10T10:59:31.000Z</time>
      </trkpt>
      <trkpt lat="46.96212" lon="3.18461">
        <ele>177.384358</ele>
        <time>2021-09-10T10:59:33.000Z</time>
      </trkpt>
      <trkpt lat="46.9623" lon="3.18475">
        <ele>177.60781</ele>
        <time>2021-09-10T10:59:37.000Z</time>
      </trkpt>
      <trkpt lat="46.96235" lon="3.18479">
        <ele>177.664822</ele>
        <time>2021-09-10T10:59:38.000Z</time>
      </trkpt>
      <trkpt lat="46.96253" lon="3.18494">
        <ele>177.896946</ele>
        <time>2021-09-10T10:59:42.000Z</time>
      </trkpt>
      <trkpt lat="46.96262" lon="3.18503">
        <ele>178.017793</ele>
        <time>2021-09-10T10:59:44.000Z</time>
      </trkpt>
      <trkpt lat="46.96276" lon="3.18517">
        <ele>178.203572</ele>
        <time>2021-09-10T10:59:47.000Z</time>
      </trkpt>
      <trkpt lat="46.96285" lon="3.18527">
        <ele>178.327548</ele>
        <time>2021-09-10T10:59:49.000Z</time>
      </trkpt>
      <trkpt lat="46.96295" lon="3.18541">
        <ele>178.398423</ele>
        <time>2021-09-10T10:59:52.000Z</time>
      </trkpt>
      <trkpt lat="46.96298" lon="3.18545">
        <ele>178.391084</ele>
        <time>2021-09-10T10:59:53.000Z</time>
      </trkpt>
      <trkpt lat="46.96301" lon="3.1855">
        <ele>178.383745</ele>
        <time>2021-09-10T10:59:54.000Z</time>
      </trkpt>
      <trkpt lat="46.96313" lon="3.18566">
        <ele>178.357462</ele>
        <time>2021-09-10T10:59:58.000Z</time>
      </trkpt>
      <trkpt lat="46.96321" lon="3.18582">
        <ele>178.334297</ele>
        <time>2021-09-10T11:00:02.000Z</time>
      </trkpt>
      <trkpt lat="46.96333" lon="3.18603">
        <ele>178.303943</ele>
        <time>2021-09-10T11:00:07.000Z</time>
      </trkpt>
      <trkpt lat="46.96346" lon="3.18632">
        <ele>178.265607</ele>
        <time>2021-09-10T11:00:14.000Z</time>
      </trkpt>
      <trkpt lat="46.96353" lon="3.18653">
        <ele>178.238818</ele>
        <time>2021-09-10T11:00:18.000Z</time>
      </trkpt>
      <trkpt lat="46.96356" lon="3.18666">
        <ele>178.223261</ele>
        <time>2021-09-10T11:00:20.000Z</time>
      </trkpt>
      <trkpt lat="46.96363" lon="3.18693">
        <ele>178.189847</ele>
        <time>2021-09-10T11:00:24.000Z</time>
      </trkpt>
      <trkpt lat="46.96367" lon="3.18707">
        <ele>178.173222</ele>
        <time>2021-09-10T11:00:26.000Z</time>
      </trkpt>
      <trkpt lat="46.96369" lon="3.18714">
        <ele>178.165362</ele>
        <time>2021-09-10T11:00:27.000Z</time>
      </trkpt>
      <trkpt lat="46.96376" lon="3.18742">
        <ele>178.131361</ele>
        <time>2021-09-10T11:00:30.000Z</time>
      </trkpt>
      <trkpt lat="46.9638" lon="3.18774">
        <ele>177.808581</ele>
        <time>2021-09-10T11:00:35.000Z</time>
      </trkpt>
      <trkpt lat="46.96381" lon="3.1879">
        <ele>177.489165</ele>
        <time>2021-09-10T11:00:37.000Z</time>
      </trkpt>
      <trkpt lat="46.96382" lon="3.18813">
        <ele>177.024999</ele>
        <time>2021-09-10T11:00:40.000Z</time>
      </trkpt>
      <trkpt lat="46.96382" lon="3.18843">
        <ele>176.437959</ele>
        <time>2021-09-10T11:00:44.000Z</time>
      </trkpt>
      <trkpt lat="46.96381" lon="3.18857">
        <ele>176.1497</ele>
        <time>2021-09-10T11:00:46.000Z</time>
      </trkpt>
      <trkpt lat="46.96378" lon="3.18894">
        <ele>175.416932</ele>
        <time>2021-09-10T11:00:51.000Z</time>
      </trkpt>
      <trkpt lat="46.96378" lon="3.18902">
        <ele>175.252261</ele>
        <time>2021-09-10T11:00:52.000Z</time>
      </trkpt>
      <trkpt lat="46.96374" lon="3.18923">
        <ele>174.809524</ele>
        <time>2021-09-10T11:00:55.000Z</time>
      </trkpt>
      <trkpt lat="46.9637" lon="3.18943">
        <ele>174.39446</ele>
        <time>2021-09-10T11:00:58.000Z</time>
      </trkpt>
      <trkpt lat="46.96369" lon="3.1895">
        <ele>174.253455</ele>
        <time>2021-09-10T11:00:59.000Z</time>
      </trkpt>
      <trkpt lat="46.96361" lon="3.18984">
        <ele>173.543842</ele>
        <time>2021-09-10T11:01:04.000Z</time>
      </trkpt>
      <trkpt lat="46.9636" lon="3.1899">
        <ele>173.415337</ele>
        <time>2021-09-10T11:01:05.000Z</time>
      </trkpt>
      <trkpt lat="46.96358" lon="3.18996">
        <ele>173.287747</ele>
        <time>2021-09-10T11:01:06.000Z</time>
      </trkpt>
      <trkpt lat="46.96354" lon="3.19013">
        <ele>172.92961</ele>
        <time>2021-09-10T11:01:09.000Z</time>
      </trkpt>
      <trkpt lat="46.96346" lon="3.19048">
        <ele>172.367363</ele>
        <time>2021-09-10T11:01:14.000Z</time>
      </trkpt>
      <trkpt lat="46.96336" lon="3.19088">
        <ele>171.748266</ele>
        <time>2021-09-10T11:01:19.000Z</time>
      </trkpt>
      <trkpt lat="46.96324" lon="3.19138">
        <ele>170.97732</ele>
        <time>2021-09-10T11:01:26.000Z</time>
      </trkpt>
      <trkpt lat="46.96321" lon="3.1915">
        <ele>170.784724</ele>
        <time>2021-09-10T11:01:28.000Z</time>
      </trkpt>
      <trkpt lat="46.96318" lon="3.19163">
        <ele>170.588015</ele>
        <time>2021-09-10T11:01:30.000Z</time>
      </trkpt>
      <trkpt lat="46.96311" lon="3.19189">
        <ele>170.18151</ele>
        <time>2021-09-10T11:01:34.000Z</time>
      </trkpt>
      <trkpt lat="46.96308" lon="3.19203">
        <ele>169.968906</ele>
        <time>2021-09-10T11:01:36.000Z</time>
      </trkpt>
      <trkpt lat="46.96299" lon="3.19238">
        <ele>169.425729</ele>
        <time>2021-09-10T11:01:41.000Z</time>
      </trkpt>
      <trkpt lat="46.96294" lon="3.19259">
        <ele>169.09718</ele>
        <time>2021-09-10T11:01:44.000Z</time>
      </trkpt>
      <trkpt lat="46.96292" lon="3.19267">
        <ele>169.004678</ele>
        <time>2021-09-10T11:01:45.000Z</time>
      </trkpt>
      <trkpt lat="46.96282" lon="3.19302">
        <ele>168.996995</ele>
        <time>2021-09-10T11:01:50.000Z</time>
      </trkpt>
      <trkpt lat="46.96278" lon="3.19314">
        <ele>168.994484</ele>
        <time>2021-09-10T11:01:52.000Z</time>
      </trkpt>
      <trkpt lat="46.96274" lon="3.19325">
        <ele>168.992087</ele>
        <time>2021-09-10T11:01:54.000Z</time>
      </trkpt>
      <trkpt lat="46.96269" lon="3.19338">
        <ele>168.98915</ele>
        <time>2021-09-10T11:01:56.000Z</time>
      </trkpt>
      <trkpt lat="46.96264" lon="3.19352">
        <ele>168.986003</ele>
        <time>2021-09-10T11:01:58.000Z</time>
      </trkpt>
      <trkpt lat="46.96261" lon="3.1936">
        <ele>168.984298</ele>
        <time>2021-09-10T11:01:59.000Z</time>
      </trkpt>
      <trkpt lat="46.96242" lon="3.19404">
        <ele>168.974183</ele>
        <time>2021-09-10T11:02:05.000Z</time>
      </trkpt>
      <trkpt lat="46.96222" lon="3.19447">
        <ele>168.963847</ele>
        <time>2021-09-10T11:02:11.000Z</time>
      </trkpt>
      <trkpt lat="46.96207" lon="3.19477">
        <ele>168.956677</ele>
        <time>2021-09-10T11:02:15.000Z</time>
      </trkpt>
      <trkpt lat="46.962" lon="3.19491">
        <ele>168.961387</ele>
        <time>2021-09-10T11:02:17.000Z</time>
      </trkpt>
      <trkpt lat="46.96182" lon="3.19527">
        <ele>169.204118</ele>
        <time>2021-09-10T11:02:22.000Z</time>
      </trkpt>
      <trkpt lat="46.96175" lon="3.19541">
        <ele>169.298863</ele>
        <time>2021-09-10T11:02:24.000Z</time>
      </trkpt>
      <trkpt lat="46.96156" lon="3.19575">
        <ele>169.53893</ele>
        <time>2021-09-10T11:02:29.000Z</time>
      </trkpt>
      <trkpt lat="46.96131" lon="3.19613">
        <ele>169.822307</ele>
        <time>2021-09-10T11:02:35.000Z</time>
      </trkpt>
      <trkpt lat="46.96104" lon="3.19648">
        <ele>170.116806</ele>
        <time>2021-09-10T11:02:41.000Z</time>
      </trkpt>
      <trkpt lat="46.96079" lon="3.19675">
        <ele>170.359008</ele>
        <time>2021-09-10T11:02:46.000Z</time>
      </trkpt>
      <trkpt lat="46.9605" lon="3.19704">
        <ele>170.928505</ele>
        <time>2021-09-10T11:02:52.000Z</time>
      </trkpt>
      <trkpt lat="46.96046" lon="3.19708">
        <ele>171.022803</ele>
        <time>2021-09-10T11:02:53.000Z</time>
      </trkpt>
      <trkpt lat="46.96004" lon="3.19739">
        <ele>171.823777</ele>
        <time>2021-09-10T11:03:01.000Z</time>
      </trkpt>
      <trkpt lat="46.95972" lon="3.19761">
        <ele>172.429104</ele>
        <time>2021-09-10T11:03:07.000Z</time>
      </trkpt>
      <trkpt lat="46.95967" lon="3.19764">
        <ele>172.5227</ele>
        <time>2021-09-10T11:03:08.000Z</time>
      </trkpt>
      <trkpt lat="46.95955" lon="3.19772">
        <ele>172.759645</ele>
        <time>2021-09-10T11:03:11.000Z</time>
      </trkpt>
      <trkpt lat="46.95935" lon="3.19784">
        <ele>173.129484</ele>
        <time>2021-09-10T11:03:17.000Z</time>
      </trkpt>
      <trkpt lat="46.95916" lon="3.19793">
        <ele>173.473567</ele>
        <time>2021-09-10T11:03:22.000Z</time>
      </trkpt>
      <trkpt lat="46.95885" lon="3.19808">
        <ele>173.815368</ele>
        <time>2021-09-10T11:03:27.000Z</time>
      </trkpt>
      <trkpt lat="46.95851" lon="3.19827">
        <ele>174.198832</ele>
        <time>2021-09-10T11:03:31.000Z</time>
      </trkpt>
      <trkpt lat="46.95807" lon="3.19854">
        <ele>174.687503</ele>
        <time>2021-09-10T11:03:38.000Z</time>
      </trkpt>
      <trkpt lat="46.95801" lon="3.19858">
        <ele>174.753888</ele>
        <time>2021-09-10T11:03:39.000Z</time>
      </trkpt>
      <trkpt lat="46.95782" lon="3.19868">
        <ele>174.968338</ele>
        <time>2021-09-10T11:03:42.000Z</time>
      </trkpt>
      <trkpt lat="46.9577" lon="3.19874">
        <ele>175.099494</ele>
        <time>2021-09-10T11:03:45.000Z</time>
      </trkpt>
      <trkpt lat="46.95752" lon="3.19883">
        <ele>175.290877</ele>
        <time>2021-09-10T11:03:47.000Z</time>
      </trkpt>
      <trkpt lat="46.95699" lon="3.19898">
        <ele>175.609596</ele>
        <time>2021-09-10T11:03:56.000Z</time>
      </trkpt>
      <trkpt lat="46.95656" lon="3.1991">
        <ele>175.842193</ele>
        <time>2021-09-10T11:04:03.000Z</time>
      </trkpt>
      <trkpt lat="46.95625" lon="3.19919">
        <ele>176.011546</ele>
        <time>2021-09-10T11:04:08.000Z</time>
      </trkpt>
      <trkpt lat="46.95619" lon="3.19921">
        <ele>176.042907</ele>
        <time>2021-09-10T11:04:09.000Z</time>
      </trkpt>
      <trkpt lat="46.956" lon="3.19926">
        <ele>176.14575</ele>
        <time>2021-09-10T11:04:12.000Z</time>
      </trkpt>
      <trkpt lat="46.95594" lon="3.19928">
        <ele>176.179266</ele>
        <time>2021-09-10T11:04:13.000Z</time>
      </trkpt>
      <trkpt lat="46.95563" lon="3.19936">
        <ele>176.329188</ele>
        <time>2021-09-10T11:04:18.000Z</time>
      </trkpt>
      <trkpt lat="46.95532" lon="3.19945">
        <ele>176.417576</ele>
        <time>2021-09-10T11:04:23.000Z</time>
      </trkpt>
      <trkpt lat="46.95495" lon="3.19955">
        <ele>176.521758</ele>
        <time>2021-09-10T11:04:29.000Z</time>
      </trkpt>
      <trkpt lat="46.95483" lon="3.19959">
        <ele>176.556658</ele>
        <time>2021-09-10T11:04:31.000Z</time>
      </trkpt>
      <trkpt lat="46.95471" lon="3.19962">
        <ele>176.591869</ele>
        <time>2021-09-10T11:04:33.000Z</time>
      </trkpt>
      <trkpt lat="46.95437" lon="3.19972">
        <ele>176.688862</ele>
        <time>2021-09-10T11:04:39.000Z</time>
      </trkpt>
      <trkpt lat="46.95403" lon="3.19981">
        <ele>176.786444</ele>
        <time>2021-09-10T11:04:45.000Z</time>
      </trkpt>
      <trkpt lat="46.95386" lon="3.19986">
        <ele>176.771823</ele>
        <time>2021-09-10T11:04:48.000Z</time>
      </trkpt>
      <trkpt lat="46.95376" lon="3.19989">
        <ele>176.708743</ele>
        <time>2021-09-10T11:04:50.000Z</time>
      </trkpt>
      <trkpt lat="46.95365" lon="3.19992">
        <ele>176.644571</ele>
        <time>2021-09-10T11:04:52.000Z</time>
      </trkpt>
      <trkpt lat="46.95333" lon="3.20001">
        <ele>176.451242</ele>
        <time>2021-09-10T11:04:57.000Z</time>
      </trkpt>
      <trkpt lat="46.95322" lon="3.20004">
        <ele>176.380484</ele>
        <time>2021-09-10T11:04:59.000Z</time>
      </trkpt>
      <trkpt lat="46.9531" lon="3.20007">
        <ele>176.311407</ele>
        <time>2021-09-10T11:05:01.000Z</time>
      </trkpt>
      <trkpt lat="46.95268" lon="3.20018">
        <ele>176.057864</ele>
        <time>2021-09-10T11:05:08.000Z</time>
      </trkpt>
      <trkpt lat="46.95238" lon="3.20027">
        <ele>175.875665</ele>
        <time>2021-09-10T11:05:14.000Z</time>
      </trkpt>
      <trkpt lat="46.95191" lon="3.20041">
        <ele>175.648844</ele>
        <time>2021-09-10T11:05:21.000Z</time>
      </trkpt>
      <trkpt lat="46.95179" lon="3.20046">
        <ele>175.604716</ele>
        <time>2021-09-10T11:05:23.000Z</time>
      </trkpt>
      <trkpt lat="46.95167" lon="3.20052">
        <ele>175.558208</ele>
        <time>2021-09-10T11:05:25.000Z</time>
      </trkpt>
      <trkpt lat="46.95142" lon="3.20064">
        <ele>175.463308</ele>
        <time>2021-09-10T11:05:29.000Z</time>
      </trkpt>
      <trkpt lat="46.95131" lon="3.2007">
        <ele>175.419834</ele>
        <time>2021-09-10T11:05:31.000Z</time>
      </trkpt>
      <trkpt lat="46.95109" lon="3.20081">
        <ele>175.335272</ele>
        <time>2021-09-10T11:05:35.000Z</time>
      </trkpt>
      <trkpt lat="46.9508" lon="3.20096">
        <ele>175.222346</ele>
        <time>2021-09-10T11:05:40.000Z</time>
      </trkpt>
      <trkpt lat="46.95074" lon="3.20099">
        <ele>175.199284</ele>
        <time>2021-09-10T11:05:41.000Z</time>
      </trkpt>
      <trkpt lat="46.95045" lon="3.20114">
        <ele>175.089636</ele>
        <time>2021-09-10T11:05:46.000Z</time>
      </trkpt>
      <trkpt lat="46.95034" lon="3.2012">
        <ele>175.094547</ele>
        <time>2021-09-10T11:05:48.000Z</time>
      </trkpt>
      <trkpt lat="46.95023" lon="3.20126">
        <ele>175.099341</ele>
        <time>2021-09-10T11:05:50.000Z</time>
      </trkpt>
      <trkpt lat="46.95" lon="3.20138">
        <ele>175.109578</ele>
        <time>2021-09-10T11:05:54.000Z</time>
      </trkpt>
      <trkpt lat="46.94984" lon="3.20147">
        <ele>175.116739</ele>
        <time>2021-09-10T11:05:57.000Z</time>
      </trkpt>
      <trkpt lat="46.94979" lon="3.20149">
        <ele>175.119057</ele>
        <time>2021-09-10T11:05:58.000Z</time>
      </trkpt>
      <trkpt lat="46.94974" lon="3.20152">
        <ele>175.121029</ele>
        <time>2021-09-10T11:05:59.000Z</time>
      </trkpt>
      <trkpt lat="46.94957" lon="3.20161">
        <ele>175.129038</ele>
        <time>2021-09-10T11:06:02.000Z</time>
      </trkpt>
      <trkpt lat="46.9494" lon="3.2017">
        <ele>175.136554</ele>
        <time>2021-09-10T11:06:05.000Z</time>
      </trkpt>
      <trkpt lat="46.94923" lon="3.20179">
        <ele>175.144158</ele>
        <time>2021-09-10T11:06:08.000Z</time>
      </trkpt>
      <trkpt lat="46.9491" lon="3.20186">
        <ele>175.149782</ele>
        <time>2021-09-10T11:06:10.000Z</time>
      </trkpt>
      <trkpt lat="46.94894" lon="3.20194">
        <ele>175.157103</ele>
        <time>2021-09-10T11:06:13.000Z</time>
      </trkpt>
      <trkpt lat="46.94882" lon="3.202">
        <ele>175.162192</ele>
        <time>2021-09-10T11:06:15.000Z</time>
      </trkpt>
      <trkpt lat="46.94871" lon="3.20206">
        <ele>175.197773</ele>
        <time>2021-09-10T11:06:17.000Z</time>
      </trkpt>
      <trkpt lat="46.94852" lon="3.20216">
        <ele>175.33699</ele>
        <time>2021-09-10T11:06:21.000Z</time>
      </trkpt>
      <trkpt lat="46.94829" lon="3.2023">
        <ele>175.498715</ele>
        <time>2021-09-10T11:06:25.000Z</time>
      </trkpt>
      <trkpt lat="46.94808" lon="3.20244">
        <ele>175.651855</ele>
        <time>2021-09-10T11:06:29.000Z</time>
      </trkpt>
      <trkpt lat="46.94803" lon="3.20248">
        <ele>175.689689</ele>
        <time>2021-09-10T11:06:30.000Z</time>
      </trkpt>
      <trkpt lat="46.9478" lon="3.20259">
        <ele>175.848193</ele>
        <time>2021-09-10T11:06:34.000Z</time>
      </trkpt>
      <trkpt lat="46.9477" lon="3.20264">
        <ele>175.921049</ele>
        <time>2021-09-10T11:06:36.000Z</time>
      </trkpt>
      <trkpt lat="46.94758" lon="3.20266">
        <ele>175.998038</ele>
        <time>2021-09-10T11:06:38.000Z</time>
      </trkpt>
      <trkpt lat="46.94723" lon="3.20271">
        <ele>176.234094</ele>
        <time>2021-09-10T11:06:44.000Z</time>
      </trkpt>
      <trkpt lat="46.94717" lon="3.20272">
        <ele>176.272759</ele>
        <time>2021-09-10T11:06:45.000Z</time>
      </trkpt>
      <trkpt lat="46.94699" lon="3.20274">
        <ele>176.422408</ele>
        <time>2021-09-10T11:06:48.000Z</time>
      </trkpt>
      <trkpt lat="46.94681" lon="3.20273">
        <ele>176.620802</ele>
        <time>2021-09-10T11:06:51.000Z</time>
      </trkpt>
      <trkpt lat="46.94669" lon="3.20272">
        <ele>176.759439</ele>
        <time>2021-09-10T11:06:53.000Z</time>
      </trkpt>
      <trkpt lat="46.94663" lon="3.20271">
        <ele>176.828925</ele>
        <time>2021-09-10T11:06:54.000Z</time>
      </trkpt>
      <trkpt lat="46.94627" lon="3.2026">
        <ele>177.240015</ele>
        <time>2021-09-10T11:07:00.000Z</time>
      </trkpt>
      <trkpt lat="46.94621" lon="3.20258">
        <ele>177.30721</ele>
        <time>2021-09-10T11:07:01.000Z</time>
      </trkpt>
      <trkpt lat="46.94597" lon="3.20251">
        <ele>177.588667</ele>
        <time>2021-09-10T11:07:05.000Z</time>
      </trkpt>
      <trkpt lat="46.94568" lon="3.20237">
        <ele>177.940727</ele>
        <time>2021-09-10T11:07:10.000Z</time>
      </trkpt>
      <trkpt lat="46.94545" lon="3.20224">
        <ele>178.210563</ele>
        <time>2021-09-10T11:07:14.000Z</time>
      </trkpt>
      <trkpt lat="46.94511" lon="3.20204">
        <ele>178.610618</ele>
        <time>2021-09-10T11:07:20.000Z</time>
      </trkpt>
      <trkpt lat="46.94478" lon="3.20183">
        <ele>179.001148</ele>
        <time>2021-09-10T11:07:26.000Z</time>
      </trkpt>
      <trkpt lat="46.94454" lon="3.20168">
        <ele>179.273</ele>
        <time>2021-09-10T11:07:30.000Z</time>
      </trkpt>
      <trkpt lat="46.94413" lon="3.20144">
        <ele>179.746281</ele>
        <time>2021-09-10T11:07:37.000Z</time>
      </trkpt>
      <trkpt lat="46.94372" lon="3.20125">
        <ele>180.20317</ele>
        <time>2021-09-10T11:07:44.000Z</time>
      </trkpt>
      <trkpt lat="46.94348" lon="3.20116">
        <ele>180.412298</ele>
        <time>2021-09-10T11:07:48.000Z</time>
      </trkpt>
      <trkpt lat="46.94311" lon="3.20115">
        <ele>180.679177</ele>
        <time>2021-09-10T11:07:54.000Z</time>
      </trkpt>
      <trkpt lat="46.94294" lon="3.20114">
        <ele>180.805786</ele>
        <time>2021-09-10T11:07:57.000Z</time>
      </trkpt>
      <trkpt lat="46.94288" lon="3.20114">
        <ele>180.846782</ele>
        <time>2021-09-10T11:07:58.000Z</time>
      </trkpt>
      <trkpt lat="46.94282" lon="3.20115">
        <ele>180.890003</ele>
        <time>2021-09-10T11:07:59.000Z</time>
      </trkpt>
      <trkpt lat="46.94251" lon="3.20118">
        <ele>181.1135</ele>
        <time>2021-09-10T11:08:04.000Z</time>
      </trkpt>
      <trkpt lat="46.94245" lon="3.20119">
        <ele>181.16034</ele>
        <time>2021-09-10T11:08:05.000Z</time>
      </trkpt>
      <trkpt lat="46.94232" lon="3.2012">
        <ele>181.251435</ele>
        <time>2021-09-10T11:08:07.000Z</time>
      </trkpt>
      <trkpt lat="46.94203" lon="3.20129">
        <ele>181.464228</ele>
        <time>2021-09-10T11:08:12.000Z</time>
      </trkpt>
      <trkpt lat="46.94167" lon="3.2014">
        <ele>181.639382</ele>
        <time>2021-09-10T11:08:18.000Z</time>
      </trkpt>
      <trkpt lat="46.94144" lon="3.20147">
        <ele>181.692715</ele>
        <time>2021-09-10T11:08:22.000Z</time>
      </trkpt>
      <trkpt lat="46.9412" lon="3.20154">
        <ele>181.745832</ele>
        <time>2021-09-10T11:08:26.000Z</time>
      </trkpt>
      <trkpt lat="46.94088" lon="3.20163">
        <ele>181.818398</ele>
        <time>2021-09-10T11:08:31.000Z</time>
      </trkpt>
      <trkpt lat="46.94075" lon="3.20167">
        <ele>181.848224</ele>
        <time>2021-09-10T11:08:33.000Z</time>
      </trkpt>
      <trkpt lat="46.94063" lon="3.20171">
        <ele>181.87424</ele>
        <time>2021-09-10T11:08:35.000Z</time>
      </trkpt>
      <trkpt lat="46.94026" lon="3.20182">
        <ele>181.958081</ele>
        <time>2021-09-10T11:08:41.000Z</time>
      </trkpt>
      <trkpt lat="46.94002" lon="3.20193">
        <ele>181.980346</ele>
        <time>2021-09-10T11:08:45.000Z</time>
      </trkpt>
      <trkpt lat="46.93978" lon="3.20208">
        <ele>181.916868</ele>
        <time>2021-09-10T11:08:49.000Z</time>
      </trkpt>
      <trkpt lat="46.93957" lon="3.20222">
        <ele>181.856935</ele>
        <time>2021-09-10T11:08:53.000Z</time>
      </trkpt>
      <trkpt lat="46.93923" lon="3.20249">
        <ele>181.76135</ele>
        <time>2021-09-10T11:08:59.000Z</time>
      </trkpt>
      <trkpt lat="46.93892" lon="3.20279">
        <ele>181.666246</ele>
        <time>2021-09-10T11:09:05.000Z</time>
      </trkpt>
      <trkpt lat="46.93876" lon="3.20293">
        <ele>181.620508</ele>
        <time>2021-09-10T11:09:08.000Z</time>
      </trkpt>
      <trkpt lat="46.93866" lon="3.20303">
        <ele>181.590134</ele>
        <time>2021-09-10T11:09:10.000Z</time>
      </trkpt>
      <trkpt lat="46.93851" lon="3.20318">
        <ele>181.540517</ele>
        <time>2021-09-10T11:09:13.000Z</time>
      </trkpt>
      <trkpt lat="46.93847" lon="3.20323">
        <ele>181.505937</ele>
        <time>2021-09-10T11:09:14.000Z</time>
      </trkpt>
      <trkpt lat="46.93842" lon="3.20329">
        <ele>181.470114</ele>
        <time>2021-09-10T11:09:15.000Z</time>
      </trkpt>
      <trkpt lat="46.93827" lon="3.20346">
        <ele>181.348486</ele>
        <time>2021-09-10T11:09:18.000Z</time>
      </trkpt>
      <trkpt lat="46.93799" lon="3.2038">
        <ele>181.119345</ele>
        <time>2021-09-10T11:09:24.000Z</time>
      </trkpt>
      <trkpt lat="46.93785" lon="3.20396">
        <ele>181.011078</ele>
        <time>2021-09-10T11:09:27.000Z</time>
      </trkpt>
      <trkpt lat="46.93776" lon="3.20406">
        <ele>180.940941</ele>
        <time>2021-09-10T11:09:29.000Z</time>
      </trkpt>
      <trkpt lat="46.93768" lon="3.20416">
        <ele>180.87178</ele>
        <time>2021-09-10T11:09:31.000Z</time>
      </trkpt>
      <trkpt lat="46.93759" lon="3.20426">
        <ele>180.803908</ele>
        <time>2021-09-10T11:09:33.000Z</time>
      </trkpt>
      <trkpt lat="46.9375" lon="3.20437">
        <ele>180.73022</ele>
        <time>2021-09-10T11:09:35.000Z</time>
      </trkpt>
      <trkpt lat="46.93741" lon="3.20447">
        <ele>180.658308</ele>
        <time>2021-09-10T11:09:37.000Z</time>
      </trkpt>
      <trkpt lat="46.93729" lon="3.20467">
        <ele>180.545552</ele>
        <time>2021-09-10T11:09:40.000Z</time>
      </trkpt>
      <trkpt lat="46.93718" lon="3.20487">
        <ele>180.438134</ele>
        <time>2021-09-10T11:09:43.000Z</time>
      </trkpt>
      <trkpt lat="46.93714" lon="3.20494">
        <ele>180.397147</ele>
        <time>2021-09-10T11:09:44.000Z</time>
      </trkpt>
      <trkpt lat="46.93711" lon="3.20501">
        <ele>180.355357</ele>
        <time>2021-09-10T11:09:45.000Z</time>
      </trkpt>
      <trkpt lat="46.93704" lon="3.20514">
        <ele>180.27378</ele>
        <time>2021-09-10T11:09:47.000Z</time>
      </trkpt>
      <trkpt lat="46.93691" lon="3.2054">
        <ele>180.11896</ele>
        <time>2021-09-10T11:09:51.000Z</time>
      </trkpt>
      <trkpt lat="46.93688" lon="3.20548">
        <ele>180.076929</ele>
        <time>2021-09-10T11:09:52.000Z</time>
      </trkpt>
      <trkpt lat="46.93683" lon="3.20564">
        <ele>179.990316</ele>
        <time>2021-09-10T11:09:54.000Z</time>
      </trkpt>
      <trkpt lat="46.93678" lon="3.20579">
        <ele>179.911285</ele>
        <time>2021-09-10T11:09:56.000Z</time>
      </trkpt>
      <trkpt lat="46.93676" lon="3.20587">
        <ele>179.872207</ele>
        <time>2021-09-10T11:09:57.000Z</time>
      </trkpt>
      <trkpt lat="46.93673" lon="3.20604">
        <ele>179.787328</ele>
        <time>2021-09-10T11:09:59.000Z</time>
      </trkpt>
      <trkpt lat="46.93669" lon="3.2062">
        <ele>179.70311</ele>
        <time>2021-09-10T11:10:01.000Z</time>
      </trkpt>
      <trkpt lat="46.93658" lon="3.20675">
        <ele>179.429042</ele>
        <time>2021-09-10T11:10:07.000Z</time>
      </trkpt>
      <trkpt lat="46.93657" lon="3.20684">
        <ele>179.386011</ele>
        <time>2021-09-10T11:10:08.000Z</time>
      </trkpt>
      <trkpt lat="46.93653" lon="3.20702">
        <ele>179.296325</ele>
        <time>2021-09-10T11:10:10.000Z</time>
      </trkpt>
      <trkpt lat="46.93651" lon="3.2071">
        <ele>179.254216</ele>
        <time>2021-09-10T11:10:11.000Z</time>
      </trkpt>
      <trkpt lat="46.9365" lon="3.20718">
        <ele>179.21415</ele>
        <time>2021-09-10T11:10:12.000Z</time>
      </trkpt>
      <trkpt lat="46.93646" lon="3.20735">
        <ele>179.145726</ele>
        <time>2021-09-10T11:10:14.000Z</time>
      </trkpt>
      <trkpt lat="46.93644" lon="3.20744">
        <ele>179.13007</ele>
        <time>2021-09-10T11:10:15.000Z</time>
      </trkpt>
      <trkpt lat="46.93643" lon="3.20752">
        <ele>179.114072</ele>
        <time>2021-09-10T11:10:16.000Z</time>
      </trkpt>
      <trkpt lat="46.93635" lon="3.20789">
        <ele>179.046452</ele>
        <time>2021-09-10T11:10:20.000Z</time>
      </trkpt>
      <trkpt lat="46.93623" lon="3.20852">
        <ele>178.927554</ele>
        <time>2021-09-10T11:10:27.000Z</time>
      </trkpt>
      <trkpt lat="46.93619" lon="3.20869">
        <ele>178.896316</ele>
        <time>2021-09-10T11:10:29.000Z</time>
      </trkpt>
      <trkpt lat="46.93616" lon="3.20886">
        <ele>178.865176</ele>
        <time>2021-09-10T11:10:31.000Z</time>
      </trkpt>
      <trkpt lat="46.93609" lon="3.20919">
        <ele>178.803142</ele>
        <time>2021-09-10T11:10:35.000Z</time>
      </trkpt>
      <trkpt lat="46.93606" lon="3.20935">
        <ele>178.773864</ele>
        <time>2021-09-10T11:10:37.000Z</time>
      </trkpt>
      <trkpt lat="46.93596" lon="3.20983">
        <ele>178.673282</ele>
        <time>2021-09-10T11:10:43.000Z</time>
      </trkpt>
      <trkpt lat="46.93587" lon="3.21024">
        <ele>178.29371</ele>
        <time>2021-09-10T11:10:48.000Z</time>
      </trkpt>
      <trkpt lat="46.9358" lon="3.21058">
        <ele>177.98183</ele>
        <time>2021-09-10T11:10:52.000Z</time>
      </trkpt>
      <trkpt lat="46.93577" lon="3.21073">
        <ele>177.838881</ele>
        <time>2021-09-10T11:10:54.000Z</time>
      </trkpt>
      <trkpt lat="46.93571" lon="3.21097">
        <ele>177.61528</ele>
        <time>2021-09-10T11:10:57.000Z</time>
      </trkpt>
      <trkpt lat="46.93568" lon="3.21113">
        <ele>177.467705</ele>
        <time>2021-09-10T11:10:59.000Z</time>
      </trkpt>
      <trkpt lat="46.93559" lon="3.21154">
        <ele>177.085199</ele>
        <time>2021-09-10T11:11:04.000Z</time>
      </trkpt>
      <trkpt lat="46.9355" lon="3.21195">
        <ele>176.700998</ele>
        <time>2021-09-10T11:11:09.000Z</time>
      </trkpt>
      <trkpt lat="46.93549" lon="3.21203">
        <ele>176.625746</ele>
        <time>2021-09-10T11:11:10.000Z</time>
      </trkpt>
      <trkpt lat="46.93545" lon="3.2122">
        <ele>176.471528</ele>
        <time>2021-09-10T11:11:12.000Z</time>
      </trkpt>
      <trkpt lat="46.93539" lon="3.21245">
        <ele>176.319758</ele>
        <time>2021-09-10T11:11:15.000Z</time>
      </trkpt>
      <trkpt lat="46.93537" lon="3.21253">
        <ele>176.300721</ele>
        <time>2021-09-10T11:11:16.000Z</time>
      </trkpt>
      <trkpt lat="46.93526" lon="3.21295">
        <ele>176.205228</ele>
        <time>2021-09-10T11:11:21.000Z</time>
      </trkpt>
      <trkpt lat="46.93514" lon="3.21344">
        <ele>176.095537</ele>
        <time>2021-09-10T11:11:27.000Z</time>
      </trkpt>
      <trkpt lat="46.93504" lon="3.21382">
        <ele>176.009216</ele>
        <time>2021-09-10T11:11:32.000Z</time>
      </trkpt>
      <trkpt lat="46.93501" lon="3.21397">
        <ele>175.975874</ele>
        <time>2021-09-10T11:11:34.000Z</time>
      </trkpt>
      <trkpt lat="46.93493" lon="3.21429">
        <ele>175.902445</ele>
        <time>2021-09-10T11:11:38.000Z</time>
      </trkpt>
      <trkpt lat="46.93489" lon="3.21445">
        <ele>175.866383</ele>
        <time>2021-09-10T11:11:40.000Z</time>
      </trkpt>
      <trkpt lat="46.93476" lon="3.21494">
        <ele>175.792101</ele>
        <time>2021-09-10T11:11:46.000Z</time>
      </trkpt>
      <trkpt lat="46.93472" lon="3.2151">
        <ele>175.799979</ele>
        <time>2021-09-10T11:11:48.000Z</time>
      </trkpt>
      <trkpt lat="46.93466" lon="3.21537">
        <ele>175.812375</ele>
        <time>2021-09-10T11:11:51.000Z</time>
      </trkpt>
      <trkpt lat="46.93462" lon="3.21552">
        <ele>175.819667</ele>
        <time>2021-09-10T11:11:53.000Z</time>
      </trkpt>
      <trkpt lat="46.9346" lon="3.21559">
        <ele>175.823154</ele>
        <time>2021-09-10T11:11:54.000Z</time>
      </trkpt>
      <trkpt lat="46.93453" lon="3.21585">
        <ele>175.835214</ele>
        <time>2021-09-10T11:11:57.000Z</time>
      </trkpt>
      <trkpt lat="46.93451" lon="3.21594">
        <ele>175.839332</ele>
        <time>2021-09-10T11:11:58.000Z</time>
      </trkpt>
      <trkpt lat="46.93447" lon="3.2161">
        <ele>175.847126</ele>
        <time>2021-09-10T11:12:00.000Z</time>
      </trkpt>
      <trkpt lat="46.93442" lon="3.21632">
        <ele>175.857674</ele>
        <time>2021-09-10T11:12:03.000Z</time>
      </trkpt>
      <trkpt lat="46.93431" lon="3.21674">
        <ele>175.877297</ele>
        <time>2021-09-10T11:12:08.000Z</time>
      </trkpt>
      <trkpt lat="46.93419" lon="3.21724">
        <ele>175.900744</ele>
        <time>2021-09-10T11:12:14.000Z</time>
      </trkpt>
      <trkpt lat="46.93399" lon="3.21801">
        <ele>176.170972</ele>
        <time>2021-09-10T11:12:23.000Z</time>
      </trkpt>
      <trkpt lat="46.93393" lon="3.21824">
        <ele>176.25856</ele>
        <time>2021-09-10T11:12:26.000Z</time>
      </trkpt>
      <trkpt lat="46.93385" lon="3.21846">
        <ele>176.343632</ele>
        <time>2021-09-10T11:12:29.000Z</time>
      </trkpt>
      <trkpt lat="46.93376" lon="3.21876">
        <ele>176.456335</ele>
        <time>2021-09-10T11:12:33.000Z</time>
      </trkpt>
      <trkpt lat="46.93374" lon="3.21882">
        <ele>176.479983</ele>
        <time>2021-09-10T11:12:34.000Z</time>
      </trkpt>
      <trkpt lat="46.93372" lon="3.21888">
        <ele>176.504161</ele>
        <time>2021-09-10T11:12:35.000Z</time>
      </trkpt>
      <trkpt lat="46.93364" lon="3.21919">
        <ele>176.618777</ele>
        <time>2021-09-10T11:12:39.000Z</time>
      </trkpt>
      <trkpt lat="46.93354" lon="3.21951">
        <ele>176.738802</ele>
        <time>2021-09-10T11:12:43.000Z</time>
      </trkpt>
      <trkpt lat="46.93348" lon="3.21967">
        <ele>176.800551</ele>
        <time>2021-09-10T11:12:45.000Z</time>
      </trkpt>
      <trkpt lat="46.93331" lon="3.22012">
        <ele>176.905407</ele>
        <time>2021-09-10T11:12:51.000Z</time>
      </trkpt>
      <trkpt lat="46.93323" lon="3.22033">
        <ele>176.952609</ele>
        <time>2021-09-10T11:12:54.000Z</time>
      </trkpt>
      <trkpt lat="46.9332" lon="3.2204">
        <ele>176.968263</ele>
        <time>2021-09-10T11:12:55.000Z</time>
      </trkpt>
      <trkpt lat="46.93315" lon="3.22055">
        <ele>177.001279</ele>
        <time>2021-09-10T11:12:57.000Z</time>
      </trkpt>
      <trkpt lat="46.93307" lon="3.22077">
        <ele>177.04882</ele>
        <time>2021-09-10T11:13:00.000Z</time>
      </trkpt>
      <trkpt lat="46.9328" lon="3.22145">
        <ele>177.202333</ele>
        <time>2021-09-10T11:13:09.000Z</time>
      </trkpt>
      <trkpt lat="46.93277" lon="3.22152">
        <ele>177.218242</ele>
        <time>2021-09-10T11:13:10.000Z</time>
      </trkpt>
      <trkpt lat="46.93271" lon="3.22165">
        <ele>177.248474</ele>
        <time>2021-09-10T11:13:12.000Z</time>
      </trkpt>
      <trkpt lat="46.93266" lon="3.22179">
        <ele>177.279019</ele>
        <time>2021-09-10T11:13:14.000Z</time>
      </trkpt>
      <trkpt lat="46.9326" lon="3.22193">
        <ele>177.310235</ele>
        <time>2021-09-10T11:13:16.000Z</time>
      </trkpt>
      <trkpt lat="46.93257" lon="3.222">
        <ele>177.325385</ele>
        <time>2021-09-10T11:13:17.000Z</time>
      </trkpt>
      <trkpt lat="46.93255" lon="3.22206">
        <ele>177.339385</ele>
        <time>2021-09-10T11:13:18.000Z</time>
      </trkpt>
      <trkpt lat="46.93249" lon="3.22219">
        <ele>177.365663</ele>
        <time>2021-09-10T11:13:20.000Z</time>
      </trkpt>
      <trkpt lat="46.93247" lon="3.22226">
        <ele>177.378652</ele>
        <time>2021-09-10T11:13:21.000Z</time>
      </trkpt>
      <trkpt lat="46.93244" lon="3.22233">
        <ele>177.392502</ele>
        <time>2021-09-10T11:13:22.000Z</time>
      </trkpt>
      <trkpt lat="46.93236" lon="3.22253">
        <ele>177.434651</ele>
        <time>2021-09-10T11:13:25.000Z</time>
      </trkpt>
      <trkpt lat="46.93233" lon="3.2226">
        <ele>177.448801</ele>
        <time>2021-09-10T11:13:26.000Z</time>
      </trkpt>
      <trkpt lat="46.93226" lon="3.22273">
        <ele>177.47749</ele>
        <time>2021-09-10T11:13:28.000Z</time>
      </trkpt>
      <trkpt lat="46.93222" lon="3.22279">
        <ele>177.491462</ele>
        <time>2021-09-10T11:13:29.000Z</time>
      </trkpt>
      <trkpt lat="46.93207" lon="3.22303">
        <ele>177.548127</ele>
        <time>2021-09-10T11:13:33.000Z</time>
      </trkpt>
      <trkpt lat="46.93199" lon="3.22314">
        <ele>177.576396</ele>
        <time>2021-09-10T11:13:35.000Z</time>
      </trkpt>
      <trkpt lat="46.93178" lon="3.22342">
        <ele>177.648588</ele>
        <time>2021-09-10T11:13:40.000Z</time>
      </trkpt>
      <trkpt lat="46.93174" lon="3.22347">
        <ele>177.662979</ele>
        <time>2021-09-10T11:13:41.000Z</time>
      </trkpt>
      <trkpt lat="46.93162" lon="3.22362">
        <ele>177.701471</ele>
        <time>2021-09-10T11:13:44.000Z</time>
      </trkpt>
      <trkpt lat="46.93158" lon="3.22366">
        <ele>177.71508</ele>
        <time>2021-09-10T11:13:45.000Z</time>
      </trkpt>
      <trkpt lat="46.93154" lon="3.2237">
        <ele>177.72838</ele>
        <time>2021-09-10T11:13:46.000Z</time>
      </trkpt>
      <trkpt lat="46.93144" lon="3.2238">
        <ele>177.757047</ele>
        <time>2021-09-10T11:13:48.000Z</time>
      </trkpt>
      <trkpt lat="46.93139" lon="3.22385">
        <ele>177.772301</ele>
        <time>2021-09-10T11:13:49.000Z</time>
      </trkpt>
      <trkpt lat="46.93124" lon="3.22399">
        <ele>177.875012</ele>
        <time>2021-09-10T11:13:52.000Z</time>
      </trkpt>
      <trkpt lat="46.93113" lon="3.22408">
        <ele>177.961567</ele>
        <time>2021-09-10T11:13:54.000Z</time>
      </trkpt>
      <trkpt lat="46.93086" lon="3.22427">
        <ele>178.155482</ele>
        <time>2021-09-10T11:13:59.000Z</time>
      </trkpt>
      <trkpt lat="46.93081" lon="3.2243">
        <ele>178.192061</ele>
        <time>2021-09-10T11:14:00.000Z</time>
      </trkpt>
      <trkpt lat="46.93053" lon="3.22444">
        <ele>178.382291</ele>
        <time>2021-09-10T11:14:05.000Z</time>
      </trkpt>
      <trkpt lat="46.93047" lon="3.22447">
        <ele>178.42255</ele>
        <time>2021-09-10T11:14:06.000Z</time>
      </trkpt>
      <trkpt lat="46.93026" lon="3.22458">
        <ele>178.568372</ele>
        <time>2021-09-10T11:14:10.000Z</time>
      </trkpt>
      <trkpt lat="46.93015" lon="3.22464">
        <ele>178.645355</ele>
        <time>2021-09-10T11:14:12.000Z</time>
      </trkpt>
      <trkpt lat="46.93004" lon="3.22471">
        <ele>178.725874</ele>
        <time>2021-09-10T11:14:14.000Z</time>
      </trkpt>
      <trkpt lat="46.92977" lon="3.22486">
        <ele>178.916418</ele>
        <time>2021-09-10T11:14:19.000Z</time>
      </trkpt>
      <trkpt lat="46.92972" lon="3.22488">
        <ele>178.94869</ele>
        <time>2021-09-10T11:14:20.000Z</time>
      </trkpt>
      <trkpt lat="46.92962" lon="3.22494">
        <ele>179.015224</ele>
        <time>2021-09-10T11:14:22.000Z</time>
      </trkpt>
      <trkpt lat="46.92951" lon="3.225">
        <ele>179.082869</ele>
        <time>2021-09-10T11:14:24.000Z</time>
      </trkpt>
      <trkpt lat="46.92934" lon="3.2251">
        <ele>179.187514</ele>
        <time>2021-09-10T11:14:27.000Z</time>
      </trkpt>
      <trkpt lat="46.92928" lon="3.22513">
        <ele>179.223159</ele>
        <time>2021-09-10T11:14:28.000Z</time>
      </trkpt>
      <trkpt lat="46.92916" lon="3.2252">
        <ele>179.297695</ele>
        <time>2021-09-10T11:14:30.000Z</time>
      </trkpt>
      <trkpt lat="46.92894" lon="3.22533">
        <ele>179.430646</ele>
        <time>2021-09-10T11:14:34.000Z</time>
      </trkpt>
      <trkpt lat="46.9289" lon="3.22536">
        <ele>179.457005</ele>
        <time>2021-09-10T11:14:35.000Z</time>
      </trkpt>
      <trkpt lat="46.92886" lon="3.2254">
        <ele>179.485948</ele>
        <time>2021-09-10T11:14:36.000Z</time>
      </trkpt>
      <trkpt lat="46.92875" lon="3.22548">
        <ele>179.557272</ele>
        <time>2021-09-10T11:14:38.000Z</time>
      </trkpt>
      <trkpt lat="46.9285" lon="3.2257">
        <ele>179.722826</ele>
        <time>2021-09-10T11:14:43.000Z</time>
      </trkpt>
      <trkpt lat="46.92818" lon="3.22605">
        <ele>179.956696</ele>
        <time>2021-09-10T11:14:50.000Z</time>
      </trkpt>
      <trkpt lat="46.92789" lon="3.22647">
        <ele>179.959355</ele>
        <time>2021-09-10T11:14:57.000Z</time>
      </trkpt>
      <trkpt lat="46.92785" lon="3.22653">
        <ele>179.95369</ele>
        <time>2021-09-10T11:14:58.000Z</time>
      </trkpt>
      <trkpt lat="46.92778" lon="3.22666">
        <ele>179.942522</ele>
        <time>2021-09-10T11:15:00.000Z</time>
      </trkpt>
      <trkpt lat="46.92775" lon="3.22672">
        <ele>179.936619</ele>
        <time>2021-09-10T11:15:01.000Z</time>
      </trkpt>
      <trkpt lat="46.92771" lon="3.22679">
        <ele>179.930425</ele>
        <time>2021-09-10T11:15:02.000Z</time>
      </trkpt>
      <trkpt lat="46.92753" lon="3.22715">
        <ele>179.899186</ele>
        <time>2021-09-10T11:15:07.000Z</time>
      </trkpt>
      <trkpt lat="46.92734" lon="3.2276">
        <ele>179.862383</ele>
        <time>2021-09-10T11:15:13.000Z</time>
      </trkpt>
      <trkpt lat="46.92727" lon="3.22784">
        <ele>179.844476</ele>
        <time>2021-09-10T11:15:16.000Z</time>
      </trkpt>
      <trkpt lat="46.92723" lon="3.22799">
        <ele>179.832792</ele>
        <time>2021-09-10T11:15:18.000Z</time>
      </trkpt>
      <trkpt lat="46.9271" lon="3.22855">
        <ele>179.720716</ele>
        <time>2021-09-10T11:15:25.000Z</time>
      </trkpt>
      <trkpt lat="46.92707" lon="3.22872">
        <ele>179.661588</ele>
        <time>2021-09-10T11:15:27.000Z</time>
      </trkpt>
      <trkpt lat="46.92703" lon="3.22888">
        <ele>179.60343</ele>
        <time>2021-09-10T11:15:29.000Z</time>
      </trkpt>
      <trkpt lat="46.92694" lon="3.2293">
        <ele>179.456345</ele>
        <time>2021-09-10T11:15:34.000Z</time>
      </trkpt>
      <trkpt lat="46.92693" lon="3.22937">
        <ele>179.428779</ele>
        <time>2021-09-10T11:15:35.000Z</time>
      </trkpt>
      <trkpt lat="46.92687" lon="3.22962">
        <ele>179.342261</ele>
        <time>2021-09-10T11:15:38.000Z</time>
      </trkpt>
      <trkpt lat="46.92684" lon="3.22977">
        <ele>179.289716</ele>
        <time>2021-09-10T11:15:40.000Z</time>
      </trkpt>
      <trkpt lat="46.92681" lon="3.22992">
        <ele>179.234906</ele>
        <time>2021-09-10T11:15:42.000Z</time>
      </trkpt>
      <trkpt lat="46.92674" lon="3.23026">
        <ele>179.113623</ele>
        <time>2021-09-10T11:15:46.000Z</time>
      </trkpt>
      <trkpt lat="46.92667" lon="3.2306">
        <ele>178.992487</ele>
        <time>2021-09-10T11:15:50.000Z</time>
      </trkpt>
      <trkpt lat="46.92661" lon="3.23086">
        <ele>178.912925</ele>
        <time>2021-09-10T11:15:53.000Z</time>
      </trkpt>
      <trkpt lat="46.92658" lon="3.23101">
        <ele>178.893828</ele>
        <time>2021-09-10T11:15:55.000Z</time>
      </trkpt>
      <trkpt lat="46.92656" lon="3.23109">
        <ele>178.883855</ele>
        <time>2021-09-10T11:15:56.000Z</time>
      </trkpt>
      <trkpt lat="46.92654" lon="3.23118">
        <ele>178.873542</ele>
        <time>2021-09-10T11:15:58.000Z</time>
      </trkpt>
      <trkpt lat="46.92649" lon="3.23142">
        <ele>178.842714</ele>
        <time>2021-09-10T11:16:00.000Z</time>
      </trkpt>
      <trkpt lat="46.92646" lon="3.23159">
        <ele>178.82225</ele>
        <time>2021-09-10T11:16:02.000Z</time>
      </trkpt>
      <trkpt lat="46.92643" lon="3.23176">
        <ele>178.801508</ele>
        <time>2021-09-10T11:16:05.000Z</time>
      </trkpt>
      <trkpt lat="46.92627" lon="3.23254">
        <ele>178.70454</ele>
        <time>2021-09-10T11:16:13.000Z</time>
      </trkpt>
      <trkpt lat="46.92624" lon="3.2327">
        <ele>178.683847</ele>
        <time>2021-09-10T11:16:15.000Z</time>
      </trkpt>
      <trkpt lat="46.92621" lon="3.23286">
        <ele>178.66428</ele>
        <time>2021-09-10T11:16:18.000Z</time>
      </trkpt>
      <trkpt lat="46.92618" lon="3.23301">
        <ele>178.645905</ele>
        <time>2021-09-10T11:16:19.000Z</time>
      </trkpt>
      <trkpt lat="46.9261" lon="3.23341">
        <ele>178.599606</ele>
        <time>2021-09-10T11:16:24.000Z</time>
      </trkpt>
      <trkpt lat="46.92607" lon="3.23356">
        <ele>178.587619</ele>
        <time>2021-09-10T11:16:26.000Z</time>
      </trkpt>
      <trkpt lat="46.92601" lon="3.23385">
        <ele>178.564045</ele>
        <time>2021-09-10T11:16:30.000Z</time>
      </trkpt>
      <trkpt lat="46.926" lon="3.23391">
        <ele>178.559503</ele>
        <time>2021-09-10T11:16:31.000Z</time>
      </trkpt>
      <trkpt lat="46.92594" lon="3.23418">
        <ele>178.537748</ele>
        <time>2021-09-10T11:16:35.000Z</time>
      </trkpt>
      <trkpt lat="46.92583" lon="3.23454">
        <ele>178.508083</ele>
        <time>2021-09-10T11:16:40.000Z</time>
      </trkpt>
      <trkpt lat="46.92581" lon="3.23461">
        <ele>178.502145</ele>
        <time>2021-09-10T11:16:41.000Z</time>
      </trkpt>
      <trkpt lat="46.92576" lon="3.23476">
        <ele>178.489418</ele>
        <time>2021-09-10T11:16:43.000Z</time>
      </trkpt>
      <trkpt lat="46.92573" lon="3.23491">
        <ele>178.477147</ele>
        <time>2021-09-10T11:16:45.000Z</time>
      </trkpt>
      <trkpt lat="46.92572" lon="3.235">
        <ele>178.470398</ele>
        <time>2021-09-10T11:16:46.000Z</time>
      </trkpt>
      <trkpt lat="46.92568" lon="3.23523">
        <ele>178.451798</ele>
        <time>2021-09-10T11:16:49.000Z</time>
      </trkpt>
      <trkpt lat="46.92565" lon="3.23531">
        <ele>178.445159</ele>
        <time>2021-09-10T11:16:50.000Z</time>
      </trkpt>
      <trkpt lat="46.92551" lon="3.23569">
        <ele>178.411549</ele>
        <time>2021-09-10T11:16:55.000Z</time>
      </trkpt>
      <trkpt lat="46.92547" lon="3.23576">
        <ele>178.404834</ele>
        <time>2021-09-10T11:16:56.000Z</time>
      </trkpt>
      <trkpt lat="46.92532" lon="3.23605">
        <ele>178.378561</ele>
        <time>2021-09-10T11:17:00.000Z</time>
      </trkpt>
      <trkpt lat="46.92528" lon="3.23612">
        <ele>178.372271</ele>
        <time>2021-09-10T11:17:01.000Z</time>
      </trkpt>
      <trkpt lat="46.92514" lon="3.23639">
        <ele>178.347517</ele>
        <time>2021-09-10T11:17:05.000Z</time>
      </trkpt>
      <trkpt lat="46.92511" lon="3.23645">
        <ele>178.341521</ele>
        <time>2021-09-10T11:17:06.000Z</time>
      </trkpt>
      <trkpt lat="46.92502" lon="3.23658">
        <ele>178.328615</ele>
        <time>2021-09-10T11:17:08.000Z</time>
      </trkpt>
      <trkpt lat="46.92489" lon="3.23677">
        <ele>178.309458</ele>
        <time>2021-09-10T11:17:11.000Z</time>
      </trkpt>
      <trkpt lat="46.92471" lon="3.23699">
        <ele>178.284341</ele>
        <time>2021-09-10T11:17:15.000Z</time>
      </trkpt>
      <trkpt lat="46.92467" lon="3.23704">
        <ele>178.278343</ele>
        <time>2021-09-10T11:17:16.000Z</time>
      </trkpt>
      <trkpt lat="46.92443" lon="3.23731">
        <ele>178.246153</ele>
        <time>2021-09-10T11:17:21.000Z</time>
      </trkpt>
      <trkpt lat="46.92437" lon="3.23735">
        <ele>178.239853</ele>
        <time>2021-09-10T11:17:22.000Z</time>
      </trkpt>
      <trkpt lat="46.92405" lon="3.23761">
        <ele>178.237295</ele>
        <time>2021-09-10T11:17:28.000Z</time>
      </trkpt>
      <trkpt lat="46.92371" lon="3.23783">
        <ele>178.318482</ele>
        <time>2021-09-10T11:17:34.000Z</time>
      </trkpt>
      <trkpt lat="46.9236" lon="3.2379">
        <ele>178.344729</ele>
        <time>2021-09-10T11:17:36.000Z</time>
      </trkpt>
      <trkpt lat="46.92349" lon="3.23797">
        <ele>178.372141</ele>
        <time>2021-09-10T11:17:38.000Z</time>
      </trkpt>
      <trkpt lat="46.92344" lon="3.23801">
        <ele>178.384919</ele>
        <time>2021-09-10T11:17:39.000Z</time>
      </trkpt>
      <trkpt lat="46.92334" lon="3.23808">
        <ele>178.408489</ele>
        <time>2021-09-10T11:17:41.000Z</time>
      </trkpt>
      <trkpt lat="46.92307" lon="3.23827">
        <ele>178.475493</ele>
        <time>2021-09-10T11:17:46.000Z</time>
      </trkpt>
      <trkpt lat="46.92274" lon="3.23851">
        <ele>178.556334</ele>
        <time>2021-09-10T11:17:52.000Z</time>
      </trkpt>
      <trkpt lat="46.92248" lon="3.23869">
        <ele>178.630105</ele>
        <time>2021-09-10T11:17:57.000Z</time>
      </trkpt>
      <trkpt lat="46.92222" lon="3.23888">
        <ele>178.761797</ele>
        <time>2021-09-10T11:18:02.000Z</time>
      </trkpt>
      <trkpt lat="46.92206" lon="3.23899">
        <ele>178.83998</ele>
        <time>2021-09-10T11:18:05.000Z</time>
      </trkpt>
      <trkpt lat="46.92178" lon="3.23919">
        <ele>178.979718</ele>
        <time>2021-09-10T11:18:10.000Z</time>
      </trkpt>
      <trkpt lat="46.92163" lon="3.2393">
        <ele>179.05589</ele>
        <time>2021-09-10T11:18:13.000Z</time>
      </trkpt>
      <trkpt lat="46.92147" lon="3.23941">
        <ele>179.132868</ele>
        <time>2021-09-10T11:18:16.000Z</time>
      </trkpt>
      <trkpt lat="46.92142" lon="3.23944">
        <ele>179.15875</ele>
        <time>2021-09-10T11:18:17.000Z</time>
      </trkpt>
      <trkpt lat="46.92121" lon="3.23959">
        <ele>179.263086</ele>
        <time>2021-09-10T11:18:21.000Z</time>
      </trkpt>
      <trkpt lat="46.92104" lon="3.2397">
        <ele>179.345153</ele>
        <time>2021-09-10T11:18:24.000Z</time>
      </trkpt>
      <trkpt lat="46.92078" lon="3.23986">
        <ele>179.466019</ele>
        <time>2021-09-10T11:18:29.000Z</time>
      </trkpt>
      <trkpt lat="46.92072" lon="3.2399">
        <ele>179.492159</ele>
        <time>2021-09-10T11:18:30.000Z</time>
      </trkpt>
      <trkpt lat="46.9206" lon="3.23997">
        <ele>179.543034</ele>
        <time>2021-09-10T11:18:32.000Z</time>
      </trkpt>
      <trkpt lat="46.92054" lon="3.24">
        <ele>179.567844</ele>
        <time>2021-09-10T11:18:33.000Z</time>
      </trkpt>
      <trkpt lat="46.92026" lon="3.24014">
        <ele>179.685667</ele>
        <time>2021-09-10T11:18:38.000Z</time>
      </trkpt>
      <trkpt lat="46.91997" lon="3.24027">
        <ele>179.803948</ele>
        <time>2021-09-10T11:18:43.000Z</time>
      </trkpt>
      <trkpt lat="46.91991" lon="3.2403">
        <ele>179.828863</ele>
        <time>2021-09-10T11:18:44.000Z</time>
      </trkpt>
      <trkpt lat="46.91975" lon="3.24038">
        <ele>179.895733</ele>
        <time>2021-09-10T11:18:47.000Z</time>
      </trkpt>
      <trkpt lat="46.91953" lon="3.24049">
        <ele>179.988267</ele>
        <time>2021-09-10T11:18:51.000Z</time>
      </trkpt>
      <trkpt lat="46.91935" lon="3.24057">
        <ele>180.060511</ele>
        <time>2021-09-10T11:18:54.000Z</time>
      </trkpt>
      <trkpt lat="46.9191" lon="3.24069">
        <ele>180.105158</ele>
        <time>2021-09-10T11:18:58.000Z</time>
      </trkpt>
      <trkpt lat="46.91887" lon="3.2408">
        <ele>180.05851</ele>
        <time>2021-09-10T11:19:02.000Z</time>
      </trkpt>
      <trkpt lat="46.91882" lon="3.24083">
        <ele>180.047198</ele>
        <time>2021-09-10T11:19:03.000Z</time>
      </trkpt>
      <trkpt lat="46.91859" lon="3.24094">
        <ele>180.00195</ele>
        <time>2021-09-10T11:19:07.000Z</time>
      </trkpt>
      <trkpt lat="46.91853" lon="3.24097">
        <ele>179.990232</ele>
        <time>2021-09-10T11:19:08.000Z</time>
      </trkpt>
      <trkpt lat="46.91842" lon="3.24102">
        <ele>179.966573</ele>
        <time>2021-09-10T11:19:10.000Z</time>
      </trkpt>
      <trkpt lat="46.9183" lon="3.24108">
        <ele>179.94255</ele>
        <time>2021-09-10T11:19:12.000Z</time>
      </trkpt>
      <trkpt lat="46.91817" lon="3.24114">
        <ele>179.917716</ele>
        <time>2021-09-10T11:19:14.000Z</time>
      </trkpt>
      <trkpt lat="46.91807" lon="3.24119">
        <ele>179.895903</ele>
        <time>2021-09-10T11:19:16.000Z</time>
      </trkpt>
      <trkpt lat="46.91801" lon="3.24122">
        <ele>179.884185</ele>
        <time>2021-09-10T11:19:17.000Z</time>
      </trkpt>
      <trkpt lat="46.91789" lon="3.24128">
        <ele>179.859939</ele>
        <time>2021-09-10T11:19:19.000Z</time>
      </trkpt>
      <trkpt lat="46.91759" lon="3.24142">
        <ele>179.799423</ele>
        <time>2021-09-10T11:19:24.000Z</time>
      </trkpt>
      <trkpt lat="46.91723" lon="3.24161">
        <ele>179.620022</ele>
        <time>2021-09-10T11:19:30.000Z</time>
      </trkpt>
      <trkpt lat="46.91718" lon="3.24164">
        <ele>179.586829</ele>
        <time>2021-09-10T11:19:31.000Z</time>
      </trkpt>
      <trkpt lat="46.91701" lon="3.24172">
        <ele>179.483576</ele>
        <time>2021-09-10T11:19:34.000Z</time>
      </trkpt>
      <trkpt lat="46.91677" lon="3.24184">
        <ele>179.33869</ele>
        <time>2021-09-10T11:19:38.000Z</time>
      </trkpt>
      <trkpt lat="46.91666" lon="3.2419">
        <ele>179.269855</ele>
        <time>2021-09-10T11:19:40.000Z</time>
      </trkpt>
      <trkpt lat="46.91654" lon="3.24196">
        <ele>179.198024</ele>
        <time>2021-09-10T11:19:42.000Z</time>
      </trkpt>
      <trkpt lat="46.91615" lon="3.24216">
        <ele>178.956555</ele>
        <time>2021-09-10T11:19:49.000Z</time>
      </trkpt>
      <trkpt lat="46.9161" lon="3.24219">
        <ele>178.923362</ele>
        <time>2021-09-10T11:19:50.000Z</time>
      </trkpt>
      <trkpt lat="46.91594" lon="3.24228">
        <ele>178.824461</ele>
        <time>2021-09-10T11:19:53.000Z</time>
      </trkpt>
      <trkpt lat="46.91555" lon="3.24255">
        <ele>178.667651</ele>
        <time>2021-09-10T11:20:00.000Z</time>
      </trkpt>
      <trkpt lat="46.91534" lon="3.24271">
        <ele>178.610395</ele>
        <time>2021-09-10T11:20:04.000Z</time>
      </trkpt>
      <trkpt lat="46.91529" lon="3.24275">
        <ele>178.595573</ele>
        <time>2021-09-10T11:20:05.000Z</time>
      </trkpt>
      <trkpt lat="46.91518" lon="3.24283">
        <ele>178.565688</ele>
        <time>2021-09-10T11:20:07.000Z</time>
      </trkpt>
      <trkpt lat="46.91508" lon="3.24292">
        <ele>178.537285</ele>
        <time>2021-09-10T11:20:09.000Z</time>
      </trkpt>
      <trkpt lat="46.91483" lon="3.24312">
        <ele>178.466683</ele>
        <time>2021-09-10T11:20:14.000Z</time>
      </trkpt>
      <trkpt lat="46.91478" lon="3.24317">
        <ele>178.45207</ele>
        <time>2021-09-10T11:20:15.000Z</time>
      </trkpt>
      <trkpt lat="46.91469" lon="3.24327">
        <ele>178.424479</ele>
        <time>2021-09-10T11:20:17.000Z</time>
      </trkpt>
      <trkpt lat="46.91459" lon="3.24338">
        <ele>178.393913</ele>
        <time>2021-09-10T11:20:19.000Z</time>
      </trkpt>
      <trkpt lat="46.91446" lon="3.24353">
        <ele>178.352327</ele>
        <time>2021-09-10T11:20:22.000Z</time>
      </trkpt>
      <trkpt lat="46.91441" lon="3.24358">
        <ele>178.33913</ele>
        <time>2021-09-10T11:20:23.000Z</time>
      </trkpt>
      <trkpt lat="46.91437" lon="3.24362">
        <ele>178.325831</ele>
        <time>2021-09-10T11:20:24.000Z</time>
      </trkpt>
      <trkpt lat="46.91429" lon="3.24372">
        <ele>178.300024</ele>
        <time>2021-09-10T11:20:26.000Z</time>
      </trkpt>
      <trkpt lat="46.91424" lon="3.24377">
        <ele>178.303672</ele>
        <time>2021-09-10T11:20:27.000Z</time>
      </trkpt>
      <trkpt lat="46.91411" lon="3.24392">
        <ele>178.348506</ele>
        <time>2021-09-10T11:20:30.000Z</time>
      </trkpt>
      <trkpt lat="46.91406" lon="3.24397">
        <ele>178.363843</ele>
        <time>2021-09-10T11:20:31.000Z</time>
      </trkpt>
      <trkpt lat="46.91392" lon="3.24413">
        <ele>178.410911</ele>
        <time>2021-09-10T11:20:34.000Z</time>
      </trkpt>
      <trkpt lat="46.91387" lon="3.24418">
        <ele>178.426248</ele>
        <time>2021-09-10T11:20:35.000Z</time>
      </trkpt>
      <trkpt lat="46.91379" lon="3.24428">
        <ele>178.455746</ele>
        <time>2021-09-10T11:20:37.000Z</time>
      </trkpt>
      <trkpt lat="46.91374" lon="3.24433">
        <ele>178.469807</ele>
        <time>2021-09-10T11:20:38.000Z</time>
      </trkpt>
      <trkpt lat="46.91364" lon="3.24444">
        <ele>178.502605</ele>
        <time>2021-09-10T11:20:40.000Z</time>
      </trkpt>
      <trkpt lat="46.91355" lon="3.24454">
        <ele>178.534874</ele>
        <time>2021-09-10T11:20:42.000Z</time>
      </trkpt>
      <trkpt lat="46.9135" lon="3.2446">
        <ele>178.551807</ele>
        <time>2021-09-10T11:20:43.000Z</time>
      </trkpt>
      <trkpt lat="46.9134" lon="3.24471">
        <ele>178.584825</ele>
        <time>2021-09-10T11:20:45.000Z</time>
      </trkpt>
      <trkpt lat="46.91331" lon="3.24481">
        <ele>178.613684</ele>
        <time>2021-09-10T11:20:47.000Z</time>
      </trkpt>
      <trkpt lat="46.91319" lon="3.24495">
        <ele>178.654151</ele>
        <time>2021-09-10T11:20:50.000Z</time>
      </trkpt>
      <trkpt lat="46.91315" lon="3.24499">
        <ele>178.668421</ele>
        <time>2021-09-10T11:20:51.000Z</time>
      </trkpt>
      <trkpt lat="46.91306" lon="3.24509">
        <ele>178.697071</ele>
        <time>2021-09-10T11:20:53.000Z</time>
      </trkpt>
      <trkpt lat="46.91297" lon="3.24519">
        <ele>178.726887</ele>
        <time>2021-09-10T11:20:55.000Z</time>
      </trkpt>
      <trkpt lat="46.91282" lon="3.24536">
        <ele>178.784362</ele>
        <time>2021-09-10T11:20:58.000Z</time>
      </trkpt>
      <trkpt lat="46.91273" lon="3.24546">
        <ele>178.844604</ele>
        <time>2021-09-10T11:21:00.000Z</time>
      </trkpt>
      <trkpt lat="46.91265" lon="3.24557">
        <ele>178.904846</ele>
        <time>2021-09-10T11:21:02.000Z</time>
      </trkpt>
      <trkpt lat="46.9126" lon="3.24562">
        <ele>178.937348</ele>
        <time>2021-09-10T11:21:03.000Z</time>
      </trkpt>
      <trkpt lat="46.91251" lon="3.24573">
        <ele>178.998703</ele>
        <time>2021-09-10T11:21:05.000Z</time>
      </trkpt>
      <trkpt lat="46.91246" lon="3.24579">
        <ele>179.030327</ele>
        <time>2021-09-10T11:21:06.000Z</time>
      </trkpt>
      <trkpt lat="46.91238" lon="3.24589">
        <ele>179.090155</ele>
        <time>2021-09-10T11:21:08.000Z</time>
      </trkpt>
      <trkpt lat="46.91229" lon="3.24599">
        <ele>179.14975</ele>
        <time>2021-09-10T11:21:10.000Z</time>
      </trkpt>
      <trkpt lat="46.9122" lon="3.2461">
        <ele>179.214339</ele>
        <time>2021-09-10T11:21:12.000Z</time>
      </trkpt>
      <trkpt lat="46.91206" lon="3.24627">
        <ele>179.31143</ele>
        <time>2021-09-10T11:21:15.000Z</time>
      </trkpt>
      <trkpt lat="46.91201" lon="3.24633">
        <ele>179.343285</ele>
        <time>2021-09-10T11:21:16.000Z</time>
      </trkpt>
      <trkpt lat="46.91182" lon="3.24656">
        <ele>179.479813</ele>
        <time>2021-09-10T11:21:20.000Z</time>
      </trkpt>
      <trkpt lat="46.91177" lon="3.24662">
        <ele>179.513195</ele>
        <time>2021-09-10T11:21:21.000Z</time>
      </trkpt>
      <trkpt lat="46.91167" lon="3.24674">
        <ele>179.581626</ele>
        <time>2021-09-10T11:21:23.000Z</time>
      </trkpt>
      <trkpt lat="46.91162" lon="3.2468">
        <ele>179.616912</ele>
        <time>2021-09-10T11:21:24.000Z</time>
      </trkpt>
      <trkpt lat="46.91151" lon="3.24691">
        <ele>179.685947</ele>
        <time>2021-09-10T11:21:26.000Z</time>
      </trkpt>
      <trkpt lat="46.91141" lon="3.24702">
        <ele>179.761116</ele>
        <time>2021-09-10T11:21:28.000Z</time>
      </trkpt>
      <trkpt lat="46.91118" lon="3.24728">
        <ele>179.989142</ele>
        <time>2021-09-10T11:21:33.000Z</time>
      </trkpt>
      <trkpt lat="46.91113" lon="3.24733">
        <ele>180.030288</ele>
        <time>2021-09-10T11:21:34.000Z</time>
      </trkpt>
      <trkpt lat="46.91109" lon="3.24738">
        <ele>180.075459</ele>
        <time>2021-09-10T11:21:35.000Z</time>
      </trkpt>
      <trkpt lat="46.91094" lon="3.24754">
        <ele>180.21715</ele>
        <time>2021-09-10T11:21:38.000Z</time>
      </trkpt>
      <trkpt lat="46.9108" lon="3.2477">
        <ele>180.353591</ele>
        <time>2021-09-10T11:21:41.000Z</time>
      </trkpt>
      <trkpt lat="46.91075" lon="3.24775">
        <ele>180.396907</ele>
        <time>2021-09-10T11:21:42.000Z</time>
      </trkpt>
      <trkpt lat="46.91052" lon="3.248">
        <ele>180.615955</ele>
        <time>2021-09-10T11:21:47.000Z</time>
      </trkpt>
      <trkpt lat="46.91025" lon="3.24832">
        <ele>180.884009</ele>
        <time>2021-09-10T11:21:54.000Z</time>
      </trkpt>
      <trkpt lat="46.9101" lon="3.2485">
        <ele>181.032658</ele>
        <time>2021-09-10T11:22:00.000Z</time>
      </trkpt>
      <trkpt lat="46.90998" lon="3.24858">
        <ele>181.129573</ele>
        <time>2021-09-10T11:22:05.000Z</time>
      </trkpt>
      <trkpt lat="46.9098" lon="3.24872">
        <ele>181.247436</ele>
        <time>2021-09-10T11:22:10.000Z</time>
      </trkpt>
      <trkpt lat="46.90976" lon="3.24875">
        <ele>181.272401</ele>
        <time>2021-09-10T11:22:11.000Z</time>
      </trkpt>
      <trkpt lat="46.90967" lon="3.24883">
        <ele>181.332029</ele>
        <time>2021-09-10T11:22:13.000Z</time>
      </trkpt>
      <trkpt lat="46.90963" lon="3.24886">
        <ele>181.360799</ele>
        <time>2021-09-10T11:22:14.000Z</time>
      </trkpt>
      <trkpt lat="46.90958" lon="3.2489">
        <ele>181.390961</ele>
        <time>2021-09-10T11:22:15.000Z</time>
      </trkpt>
      <trkpt lat="46.90949" lon="3.24897">
        <ele>181.452169</ele>
        <time>2021-09-10T11:22:17.000Z</time>
      </trkpt>
      <trkpt lat="46.90938" lon="3.24904">
        <ele>181.517714</ele>
        <time>2021-09-10T11:22:19.000Z</time>
      </trkpt>
      <trkpt lat="46.90906" lon="3.2492">
        <ele>181.713882</ele>
        <time>2021-09-10T11:22:25.000Z</time>
      </trkpt>
      <trkpt lat="46.90879" lon="3.24935">
        <ele>181.883713</ele>
        <time>2021-09-10T11:22:30.000Z</time>
      </trkpt>
      <trkpt lat="46.90873" lon="3.24938">
        <ele>181.918479</ele>
        <time>2021-09-10T11:22:31.000Z</time>
      </trkpt>
      <trkpt lat="46.90862" lon="3.24941">
        <ele>181.985827</ele>
        <time>2021-09-10T11:22:33.000Z</time>
      </trkpt>
      <trkpt lat="46.90856" lon="3.24942">
        <ele>182.019184</ele>
        <time>2021-09-10T11:22:34.000Z</time>
      </trkpt>
      <trkpt lat="46.90829" lon="3.24948">
        <ele>182.155267</ele>
        <time>2021-09-10T11:22:39.000Z</time>
      </trkpt>
      <trkpt lat="46.90818" lon="3.24951">
        <ele>182.160608</ele>
        <time>2021-09-10T11:22:41.000Z</time>
      </trkpt>
      <trkpt lat="46.90806" lon="3.24953">
        <ele>182.166251</ele>
        <time>2021-09-10T11:22:43.000Z</time>
      </trkpt>
      <trkpt lat="46.90766" lon="3.24952">
        <ele>182.184839</ele>
        <time>2021-09-10T11:22:50.000Z</time>
      </trkpt>
      <trkpt lat="46.90736" lon="3.24949">
        <ele>182.19863</ele>
        <time>2021-09-10T11:22:55.000Z</time>
      </trkpt>
      <trkpt lat="46.90731" lon="3.24948">
        <ele>182.201334</ele>
        <time>2021-09-10T11:22:56.000Z</time>
      </trkpt>
      <trkpt lat="46.90701" lon="3.2494">
        <ele>182.215136</ele>
        <time>2021-09-10T11:23:01.000Z</time>
      </trkpt>
      <trkpt lat="46.90691" lon="3.24936">
        <ele>182.220272</ele>
        <time>2021-09-10T11:23:03.000Z</time>
      </trkpt>
      <trkpt lat="46.90665" lon="3.24922">
        <ele>182.232977</ele>
        <time>2021-09-10T11:23:08.000Z</time>
      </trkpt>
      <trkpt lat="46.90643" lon="3.24909">
        <ele>182.238636</ele>
        <time>2021-09-10T11:23:12.000Z</time>
      </trkpt>
      <trkpt lat="46.90626" lon="3.24897">
        <ele>182.240281</ele>
        <time>2021-09-10T11:23:15.000Z</time>
      </trkpt>
      <trkpt lat="46.90621" lon="3.24893">
        <ele>182.240785</ele>
        <time>2021-09-10T11:23:16.000Z</time>
      </trkpt>
      <trkpt lat="46.90597" lon="3.24871">
        <ele>182.243233</ele>
        <time>2021-09-10T11:23:21.000Z</time>
      </trkpt>
      <trkpt lat="46.9058" lon="3.24855">
        <ele>182.245047</ele>
        <time>2021-09-10T11:23:25.000Z</time>
      </trkpt>
      <trkpt lat="46.90554" lon="3.24833">
        <ele>182.247644</ele>
        <time>2021-09-10T11:23:30.000Z</time>
      </trkpt>
      <trkpt lat="46.90531" lon="3.24813">
        <ele>182.249943</ele>
        <time>2021-09-10T11:23:34.000Z</time>
      </trkpt>
      <trkpt lat="46.90507" lon="3.24793">
        <ele>182.252431</ele>
        <time>2021-09-10T11:23:39.000Z</time>
      </trkpt>
      <trkpt lat="46.90471" lon="3.24762">
        <ele>182.341634</ele>
        <time>2021-09-10T11:23:46.000Z</time>
      </trkpt>
      <trkpt lat="46.90434" lon="3.24731">
        <ele>182.454429</ele>
        <time>2021-09-10T11:23:53.000Z</time>
      </trkpt>
      <trkpt lat="46.90398" lon="3.24701">
        <ele>182.562345</ele>
        <time>2021-09-10T11:24:00.000Z</time>
      </trkpt>
      <trkpt lat="46.90374" lon="3.2468">
        <ele>182.636156</ele>
        <time>2021-09-10T11:24:05.000Z</time>
      </trkpt>
      <trkpt lat="46.90349" lon="3.24659">
        <ele>182.711457</ele>
        <time>2021-09-10T11:24:10.000Z</time>
      </trkpt>
      <trkpt lat="46.90318" lon="3.24633">
        <ele>182.863964</ele>
        <time>2021-09-10T11:24:16.000Z</time>
      </trkpt>
      <trkpt lat="46.90277" lon="3.24613">
        <ele>183.059499</ele>
        <time>2021-09-10T11:24:23.000Z</time>
      </trkpt>
      <trkpt lat="46.9026" lon="3.24606">
        <ele>183.141072</ele>
        <time>2021-09-10T11:24:26.000Z</time>
      </trkpt>
      <trkpt lat="46.90228" lon="3.24595">
        <ele>183.289055</ele>
        <time>2021-09-10T11:24:32.000Z</time>
      </trkpt>
      <trkpt lat="46.90187" lon="3.24584">
        <ele>183.478472</ele>
        <time>2021-09-10T11:24:39.000Z</time>
      </trkpt>
      <trkpt lat="46.90154" lon="3.24579">
        <ele>183.53084</ele>
        <time>2021-09-10T11:24:45.000Z</time>
      </trkpt>
      <trkpt lat="46.90127" lon="3.24575">
        <ele>183.517284</ele>
        <time>2021-09-10T11:24:50.000Z</time>
      </trkpt>
      <trkpt lat="46.90122" lon="3.24575">
        <ele>183.514712</ele>
        <time>2021-09-10T11:24:51.000Z</time>
      </trkpt>
      <trkpt lat="46.90088" lon="3.24575">
        <ele>183.497741</ele>
        <time>2021-09-10T11:24:57.000Z</time>
      </trkpt>
      <trkpt lat="46.90065" lon="3.24575">
        <ele>183.486807</ele>
        <time>2021-09-10T11:25:01.000Z</time>
      </trkpt>
      <trkpt lat="46.90036" lon="3.24575">
        <ele>183.472459</ele>
        <time>2021-09-10T11:25:06.000Z</time>
      </trkpt>
      <trkpt lat="46.90015" lon="3.24576">
        <ele>183.461772</ele>
        <time>2021-09-10T11:25:10.000Z</time>
      </trkpt>
      <trkpt lat="46.89993" lon="3.24576">
        <ele>183.45014</ele>
        <time>2021-09-10T11:25:14.000Z</time>
      </trkpt>
      <trkpt lat="46.8996" lon="3.24576">
        <ele>183.360919</ele>
        <time>2021-09-10T11:25:20.000Z</time>
      </trkpt>
      <trkpt lat="46.89933" lon="3.24576">
        <ele>183.290286</ele>
        <time>2021-09-10T11:25:25.000Z</time>
      </trkpt>
      <trkpt lat="46.89928" lon="3.24576">
        <ele>183.276743</ele>
        <time>2021-09-10T11:25:26.000Z</time>
      </trkpt>
      <trkpt lat="46.89906" lon="3.24576">
        <ele>183.219121</ele>
        <time>2021-09-10T11:25:30.000Z</time>
      </trkpt>
      <trkpt lat="46.89874" lon="3.24576">
        <ele>183.13229</ele>
        <time>2021-09-10T11:25:36.000Z</time>
      </trkpt>
      <trkpt lat="46.89843" lon="3.24576">
        <ele>183.051566</ele>
        <time>2021-09-10T11:25:41.000Z</time>
      </trkpt>
      <trkpt lat="46.89838" lon="3.24576">
        <ele>183.036962</ele>
        <time>2021-09-10T11:25:42.000Z</time>
      </trkpt>
      <trkpt lat="46.89821" lon="3.24576">
        <ele>182.993148</ele>
        <time>2021-09-10T11:25:45.000Z</time>
      </trkpt>
      <trkpt lat="46.89777" lon="3.24576">
        <ele>182.825121</ele>
        <time>2021-09-10T11:25:53.000Z</time>
      </trkpt>
      <trkpt lat="46.89746" lon="3.24576">
        <ele>182.705831</ele>
        <time>2021-09-10T11:25:59.000Z</time>
      </trkpt>
      <trkpt lat="46.89725" lon="3.24576">
        <ele>182.621021</ele>
        <time>2021-09-10T11:26:04.000Z</time>
      </trkpt>
      <trkpt lat="46.89698" lon="3.24578">
        <ele>182.512762</ele>
        <time>2021-09-10T11:26:10.000Z</time>
      </trkpt>
      <trkpt lat="46.8969" lon="3.24586">
        <ele>182.47518</ele>
        <time>2021-09-10T11:26:13.000Z</time>
      </trkpt>
      <trkpt lat="46.89681" lon="3.24588">
        <ele>182.44043</ele>
        <time>2021-09-10T11:26:14.000Z</time>
      </trkpt>
      <trkpt lat="46.89658" lon="3.24589">
        <ele>182.34878</ele>
        <time>2021-09-10T11:26:18.000Z</time>
      </trkpt>
      <trkpt lat="46.89615" lon="3.24575">
        <ele>182.289532</ele>
        <time>2021-09-10T11:26:26.000Z</time>
      </trkpt>
      <trkpt lat="46.89589" lon="3.24576">
        <ele>182.322731</ele>
        <time>2021-09-10T11:26:31.000Z</time>
      </trkpt>
      <trkpt lat="46.89579" lon="3.24576">
        <ele>182.336499</ele>
        <time>2021-09-10T11:26:33.000Z</time>
      </trkpt>
      <trkpt lat="46.89573" lon="3.24576">
        <ele>182.343448</ele>
        <time>2021-09-10T11:26:34.000Z</time>
      </trkpt>
      <trkpt lat="46.89556" lon="3.24576">
        <ele>182.365451</ele>
        <time>2021-09-10T11:26:37.000Z</time>
      </trkpt>
      <trkpt lat="46.89523" lon="3.24576">
        <ele>182.408172</ele>
        <time>2021-09-10T11:26:43.000Z</time>
      </trkpt>
      <trkpt lat="46.89495" lon="3.24577">
        <ele>182.444073</ele>
        <time>2021-09-10T11:26:48.000Z</time>
      </trkpt>
      <trkpt lat="46.89466" lon="3.24577">
        <ele>182.481261</ele>
        <time>2021-09-10T11:26:53.000Z</time>
      </trkpt>
      <trkpt lat="46.89449" lon="3.24577">
        <ele>182.491226</ele>
        <time>2021-09-10T11:26:56.000Z</time>
      </trkpt>
      <trkpt lat="46.89438" lon="3.24577">
        <ele>182.489613</ele>
        <time>2021-09-10T11:26:58.000Z</time>
      </trkpt>
      <trkpt lat="46.894" lon="3.24578">
        <ele>182.48398</ele>
        <time>2021-09-10T11:27:05.000Z</time>
      </trkpt>
      <trkpt lat="46.8938" lon="3.24579">
        <ele>182.481016</ele>
        <time>2021-09-10T11:27:09.000Z</time>
      </trkpt>
      <trkpt lat="46.8937" lon="3.24579">
        <ele>182.479608</ele>
        <time>2021-09-10T11:27:11.000Z</time>
      </trkpt>
      <trkpt lat="46.89358" lon="3.24579">
        <ele>182.477877</ele>
        <time>2021-09-10T11:27:13.000Z</time>
      </trkpt>
      <trkpt lat="46.89322" lon="3.2458">
        <ele>182.472625</ele>
        <time>2021-09-10T11:27:19.000Z</time>
      </trkpt>
      <trkpt lat="46.89291" lon="3.24581">
        <ele>182.468018</ele>
        <time>2021-09-10T11:27:25.000Z</time>
      </trkpt>
      <trkpt lat="46.89259" lon="3.24582">
        <ele>182.454195</ele>
        <time>2021-09-10T11:27:31.000Z</time>
      </trkpt>
      <trkpt lat="46.89254" lon="3.24583">
        <ele>182.451293</ele>
        <time>2021-09-10T11:27:32.000Z</time>
      </trkpt>
      <trkpt lat="46.89245" lon="3.24583">
        <ele>182.445298</ele>
        <time>2021-09-10T11:27:34.000Z</time>
      </trkpt>
      <trkpt lat="46.8923" lon="3.24583">
        <ele>182.435959</ele>
        <time>2021-09-10T11:27:37.000Z</time>
      </trkpt>
      <trkpt lat="46.89207" lon="3.24584">
        <ele>182.421825</ele>
        <time>2021-09-10T11:27:42.000Z</time>
      </trkpt>
      <trkpt lat="46.89203" lon="3.24584">
        <ele>182.418796</ele>
        <time>2021-09-10T11:27:43.000Z</time>
      </trkpt>
      <trkpt lat="46.89177" lon="3.24585">
        <ele>182.402326</ele>
        <time>2021-09-10T11:27:48.000Z</time>
      </trkpt>
      <trkpt lat="46.89141" lon="3.24586">
        <ele>182.379926</ele>
        <time>2021-09-10T11:27:55.000Z</time>
      </trkpt>
      <trkpt lat="46.89112" lon="3.24587">
        <ele>182.36169</ele>
        <time>2021-09-10T11:28:00.000Z</time>
      </trkpt>
      <trkpt lat="46.89078" lon="3.24588">
        <ele>182.372683</ele>
        <time>2021-09-10T11:28:06.000Z</time>
      </trkpt>
      <trkpt lat="46.89039" lon="3.24589">
        <ele>182.411559</ele>
        <time>2021-09-10T11:28:13.000Z</time>
      </trkpt>
      <trkpt lat="46.89004" lon="3.24592">
        <ele>182.446285</ele>
        <time>2021-09-10T11:28:19.000Z</time>
      </trkpt>
      <trkpt lat="46.88964" lon="3.24614">
        <ele>182.488455</ele>
        <time>2021-09-10T11:28:26.000Z</time>
      </trkpt>
      <trkpt lat="46.88947" lon="3.24624">
        <ele>182.506807</ele>
        <time>2021-09-10T11:28:29.000Z</time>
      </trkpt>
      <trkpt lat="46.88931" lon="3.24639">
        <ele>182.525756</ele>
        <time>2021-09-10T11:28:32.000Z</time>
      </trkpt>
      <trkpt lat="46.88899" lon="3.24679">
        <ele>182.54578</ele>
        <time>2021-09-10T11:28:39.000Z</time>
      </trkpt>
      <trkpt lat="46.88885" lon="3.24715">
        <ele>182.556488</ele>
        <time>2021-09-10T11:28:44.000Z</time>
      </trkpt>
      <trkpt lat="46.8888" lon="3.24729">
        <ele>182.560545</ele>
        <time>2021-09-10T11:28:46.000Z</time>
      </trkpt>
      <trkpt lat="46.88868" lon="3.24767">
        <ele>182.571691</ele>
        <time>2021-09-10T11:28:52.000Z</time>
      </trkpt>
      <trkpt lat="46.88865" lon="3.24771">
        <ele>182.573251</ele>
        <time>2021-09-10T11:28:53.000Z</time>
      </trkpt>
      <trkpt lat="46.88859" lon="3.24787">
        <ele>182.578095</ele>
        <time>2021-09-10T11:28:55.000Z</time>
      </trkpt>
      <trkpt lat="46.88857" lon="3.24794">
        <ele>182.579962</ele>
        <time>2021-09-10T11:28:56.000Z</time>
      </trkpt>
      <trkpt lat="46.88855" lon="3.24802">
        <ele>182.582175</ele>
        <time>2021-09-10T11:28:57.000Z</time>
      </trkpt>
      <trkpt lat="46.88851" lon="3.24826">
        <ele>182.588886</ele>
        <time>2021-09-10T11:29:00.000Z</time>
      </trkpt>
      <trkpt lat="46.88838" lon="3.24896">
        <ele>182.635744</ele>
        <time>2021-09-10T11:29:08.000Z</time>
      </trkpt>
      <trkpt lat="46.88821" lon="3.2496">
        <ele>182.728079</ele>
        <time>2021-09-10T11:29:16.000Z</time>
      </trkpt>
      <trkpt lat="46.88819" lon="3.24968">
        <ele>182.739417</ele>
        <time>2021-09-10T11:29:17.000Z</time>
      </trkpt>
      <trkpt lat="46.88809" lon="3.24999">
        <ele>182.784241</ele>
        <time>2021-09-10T11:29:21.000Z</time>
      </trkpt>
      <trkpt lat="46.88791" lon="3.2505">
        <ele>182.862067</ele>
        <time>2021-09-10T11:29:28.000Z</time>
      </trkpt>
      <trkpt lat="46.8877" lon="3.25107">
        <ele>182.94772</ele>
        <time>2021-09-10T11:29:36.000Z</time>
      </trkpt>
      <trkpt lat="46.88759" lon="3.25133">
        <ele>183.012093</ele>
        <time>2021-09-10T11:29:41.000Z</time>
      </trkpt>
      <trkpt lat="46.8875" lon="3.25152">
        <ele>183.064049</ele>
        <time>2021-09-10T11:29:46.000Z</time>
      </trkpt>
      <trkpt lat="46.88743" lon="3.25161">
        <ele>183.094873</ele>
        <time>2021-09-10T11:29:49.000Z</time>
      </trkpt>
      <trkpt lat="46.88734" lon="3.25169">
        <ele>183.127795</ele>
        <time>2021-09-10T11:29:51.000Z</time>
      </trkpt>
      <trkpt lat="46.8871" lon="3.25201">
        <ele>183.232924</ele>
        <time>2021-09-10T11:29:56.000Z</time>
      </trkpt>
      <trkpt lat="46.88683" lon="3.2523">
        <ele>183.343493</ele>
        <time>2021-09-10T11:30:01.000Z</time>
      </trkpt>
      <trkpt lat="46.88648" lon="3.25259">
        <ele>183.474667</ele>
        <time>2021-09-10T11:30:07.000Z</time>
      </trkpt>
      <trkpt lat="46.88642" lon="3.25264">
        <ele>183.496436</ele>
        <time>2021-09-10T11:30:08.000Z</time>
      </trkpt>
      <trkpt lat="46.8863" lon="3.25274">
        <ele>183.545423</ele>
        <time>2021-09-10T11:30:10.000Z</time>
      </trkpt>
      <trkpt lat="46.88602" lon="3.25298">
        <ele>183.759801</ele>
        <time>2021-09-10T11:30:15.000Z</time>
      </trkpt>
      <trkpt lat="46.88569" lon="3.25326">
        <ele>184.014606</ele>
        <time>2021-09-10T11:30:21.000Z</time>
      </trkpt>
      <trkpt lat="46.88542" lon="3.25348">
        <ele>184.218221</ele>
        <time>2021-09-10T11:30:26.000Z</time>
      </trkpt>
      <trkpt lat="46.88511" lon="3.25374">
        <ele>184.454128</ele>
        <time>2021-09-10T11:30:32.000Z</time>
      </trkpt>
      <trkpt lat="46.88496" lon="3.25387">
        <ele>184.569229</ele>
        <time>2021-09-10T11:30:35.000Z</time>
      </trkpt>
      <trkpt lat="46.88486" lon="3.25395">
        <ele>184.64718</ele>
        <time>2021-09-10T11:30:37.000Z</time>
      </trkpt>
      <trkpt lat="46.88459" lon="3.25416">
        <ele>184.817851</ele>
        <time>2021-09-10T11:30:42.000Z</time>
      </trkpt>
      <trkpt lat="46.88426" lon="3.25445">
        <ele>185.000393</ele>
        <time>2021-09-10T11:30:48.000Z</time>
      </trkpt>
      <trkpt lat="46.88397" lon="3.25479">
        <ele>185.176183</ele>
        <time>2021-09-10T11:30:54.000Z</time>
      </trkpt>
      <trkpt lat="46.88365" lon="3.25516">
        <ele>185.375154</ele>
        <time>2021-09-10T11:31:01.000Z</time>
      </trkpt>
      <trkpt lat="46.88338" lon="3.2555">
        <ele>185.545342</ele>
        <time>2021-09-10T11:31:07.000Z</time>
      </trkpt>
      <trkpt lat="46.88325" lon="3.25567">
        <ele>185.578736</ele>
        <time>2021-09-10T11:31:10.000Z</time>
      </trkpt>
      <trkpt lat="46.88315" lon="3.25579">
        <ele>185.55993</ele>
        <time>2021-09-10T11:31:12.000Z</time>
      </trkpt>
      <trkpt lat="46.88297" lon="3.25601">
        <ele>185.523666</ele>
        <time>2021-09-10T11:31:16.000Z</time>
      </trkpt>
      <trkpt lat="46.88293" lon="3.25606">
        <ele>185.51561</ele>
        <time>2021-09-10T11:31:17.000Z</time>
      </trkpt>
      <trkpt lat="46.88275" lon="3.25629">
        <ele>185.479711</ele>
        <time>2021-09-10T11:31:21.000Z</time>
      </trkpt>
      <trkpt lat="46.88271" lon="3.25635">
        <ele>185.470375</ele>
        <time>2021-09-10T11:31:22.000Z</time>
      </trkpt>
      <trkpt lat="46.88266" lon="3.25641">
        <ele>185.460539</ele>
        <time>2021-09-10T11:31:23.000Z</time>
      </trkpt>
      <trkpt lat="46.88251" lon="3.25659">
        <ele>185.431464</ele>
        <time>2021-09-10T11:31:26.000Z</time>
      </trkpt>
      <trkpt lat="46.88229" lon="3.25688">
        <ele>185.386937</ele>
        <time>2021-09-10T11:31:31.000Z</time>
      </trkpt>
      <trkpt lat="46.88212" lon="3.25711">
        <ele>185.352131</ele>
        <time>2021-09-10T11:31:35.000Z</time>
      </trkpt>
      <trkpt lat="46.88181" lon="3.25752">
        <ele>185.409611</ele>
        <time>2021-09-10T11:31:42.000Z</time>
      </trkpt>
      <trkpt lat="46.88177" lon="3.25758">
        <ele>185.438408</ele>
        <time>2021-09-10T11:31:43.000Z</time>
      </trkpt>
      <trkpt lat="46.88165" lon="3.25774">
        <ele>185.515566</ele>
        <time>2021-09-10T11:31:46.000Z</time>
      </trkpt>
      <trkpt lat="46.88157" lon="3.25784">
        <ele>185.56586</ele>
        <time>2021-09-10T11:31:48.000Z</time>
      </trkpt>
      <trkpt lat="46.88145" lon="3.258">
        <ele>185.64438</ele>
        <time>2021-09-10T11:31:51.000Z</time>
      </trkpt>
      <trkpt lat="46.88141" lon="3.25805">
        <ele>185.668165</ele>
        <time>2021-09-10T11:31:52.000Z</time>
      </trkpt>
      <trkpt lat="46.88134" lon="3.25815">
        <ele>185.715734</ele>
        <time>2021-09-10T11:31:54.000Z</time>
      </trkpt>
      <trkpt lat="46.88126" lon="3.25825">
        <ele>185.762732</ele>
        <time>2021-09-10T11:31:56.000Z</time>
      </trkpt>
      <trkpt lat="46.88118" lon="3.25835">
        <ele>185.81417</ele>
        <time>2021-09-10T11:31:58.000Z</time>
      </trkpt>
      <trkpt lat="46.8811" lon="3.25846">
        <ele>185.867324</ele>
        <time>2021-09-10T11:32:00.000Z</time>
      </trkpt>
      <trkpt lat="46.88101" lon="3.25858">
        <ele>185.922632</ele>
        <time>2021-09-10T11:32:02.000Z</time>
      </trkpt>
      <trkpt lat="46.88097" lon="3.25863">
        <ele>185.949934</ele>
        <time>2021-09-10T11:32:03.000Z</time>
      </trkpt>
      <trkpt lat="46.88073" lon="3.25895">
        <ele>186.104249</ele>
        <time>2021-09-10T11:32:09.000Z</time>
      </trkpt>
      <trkpt lat="46.88047" lon="3.25932">
        <ele>186.179928</ele>
        <time>2021-09-10T11:32:17.000Z</time>
      </trkpt>
      <trkpt lat="46.88037" lon="3.25947">
        <ele>186.183507</ele>
        <time>2021-09-10T11:32:22.000Z</time>
      </trkpt>
      <trkpt lat="46.88036" lon="3.25948">
        <ele>186.183822</ele>
        <time>2021-09-10T11:32:25.000Z</time>
      </trkpt>
      <trkpt lat="46.88025" lon="3.25966">
        <ele>186.18796</ele>
        <time>2021-09-10T11:32:55.000Z</time>
      </trkpt>
      <trkpt lat="46.88011" lon="3.25987">
        <ele>186.192882</ele>
        <time>2021-09-10T11:33:00.000Z</time>
      </trkpt>
      <trkpt lat="46.87984" lon="3.26027">
        <ele>186.202382</ele>
        <time>2021-09-10T11:33:07.000Z</time>
      </trkpt>
      <trkpt lat="46.87959" lon="3.26063">
        <ele>186.211173</ele>
        <time>2021-09-10T11:33:13.000Z</time>
      </trkpt>
      <trkpt lat="46.87939" lon="3.26094">
        <ele>186.218361</ele>
        <time>2021-09-10T11:33:18.000Z</time>
      </trkpt>
      <trkpt lat="46.87936" lon="3.26099">
        <ele>186.202858</ele>
        <time>2021-09-10T11:33:19.000Z</time>
      </trkpt>
      <trkpt lat="46.87917" lon="3.26128">
        <ele>185.830448</ele>
        <time>2021-09-10T11:33:24.000Z</time>
      </trkpt>
      <trkpt lat="46.87897" lon="3.26159">
        <ele>185.443607</ele>
        <time>2021-09-10T11:33:29.000Z</time>
      </trkpt>
      <trkpt lat="46.87883" lon="3.26182">
        <ele>185.1621</ele>
        <time>2021-09-10T11:33:33.000Z</time>
      </trkpt>
      <trkpt lat="46.87875" lon="3.26194">
        <ele>185.010681</ele>
        <time>2021-09-10T11:33:35.000Z</time>
      </trkpt>
      <trkpt lat="46.87868" lon="3.26205">
        <ele>184.866068</ele>
        <time>2021-09-10T11:33:37.000Z</time>
      </trkpt>
      <trkpt lat="46.87851" lon="3.26233">
        <ele>184.522362</ele>
        <time>2021-09-10T11:33:42.000Z</time>
      </trkpt>
      <trkpt lat="46.87844" lon="3.26242">
        <ele>184.399317</ele>
        <time>2021-09-10T11:33:46.000Z</time>
      </trkpt>
      <trkpt lat="46.87839" lon="3.26251">
        <ele>184.289442</ele>
        <time>2021-09-10T11:41:22.000Z</time>
      </trkpt>
      <trkpt lat="46.87837" lon="3.26254">
        <ele>184.248565</ele>
        <time>2021-09-10T11:41:24.000Z</time>
      </trkpt>
      <trkpt lat="46.87828" lon="3.26268">
        <ele>184.074899</ele>
        <time>2021-09-10T11:41:29.000Z</time>
      </trkpt>
      <trkpt lat="46.87822" lon="3.26278">
        <ele>183.952528</ele>
        <time>2021-09-10T11:41:31.000Z</time>
      </trkpt>
      <trkpt lat="46.87812" lon="3.26294">
        <ele>183.776809</ele>
        <time>2021-09-10T11:41:34.000Z</time>
      </trkpt>
      <trkpt lat="46.87811" lon="3.26296">
        <ele>183.762816</ele>
        <time>2021-09-10T11:41:36.000Z</time>
      </trkpt>
      <trkpt lat="46.8781" lon="3.26297">
        <ele>183.759953</ele>
        <time>2021-09-10T11:41:38.000Z</time>
      </trkpt>
      <trkpt lat="46.87813" lon="3.26292">
        <ele>183.733341</ele>
        <time>2021-09-10T11:41:40.000Z</time>
      </trkpt>
      <trkpt lat="46.87814" lon="3.26291">
        <ele>183.728677</ele>
        <time>2021-09-10T11:41:43.000Z</time>
      </trkpt>
      <trkpt lat="46.87811" lon="3.26295">
        <ele>183.708217</ele>
        <time>2021-09-10T11:43:35.000Z</time>
      </trkpt>
      <trkpt lat="46.8781" lon="3.26297">
        <ele>183.697828</ele>
        <time>2021-09-10T11:43:36.000Z</time>
      </trkpt>
      <trkpt lat="46.87803" lon="3.26308">
        <ele>183.630298</ele>
        <time>2021-09-10T11:43:40.000Z</time>
      </trkpt>
      <trkpt lat="46.87801" lon="3.26311">
        <ele>183.613758</ele>
        <time>2021-09-10T11:43:41.000Z</time>
      </trkpt>
      <trkpt lat="46.87795" lon="3.26321">
        <ele>183.5563</ele>
        <time>2021-09-10T11:43:44.000Z</time>
      </trkpt>
      <trkpt lat="46.87779" lon="3.26346">
        <ele>183.409793</ele>
        <time>2021-09-10T11:43:49.000Z</time>
      </trkpt>
      <trkpt lat="46.87764" lon="3.2637">
        <ele>183.26689</ele>
        <time>2021-09-10T11:43:53.000Z</time>
      </trkpt>
      <trkpt lat="46.8776" lon="3.26376">
        <ele>183.229892</ele>
        <time>2021-09-10T11:43:54.000Z</time>
      </trkpt>
      <trkpt lat="46.87752" lon="3.26389">
        <ele>183.157697</ele>
        <time>2021-09-10T11:43:56.000Z</time>
      </trkpt>
      <trkpt lat="46.87745" lon="3.26401">
        <ele>183.088048</ele>
        <time>2021-09-10T11:43:58.000Z</time>
      </trkpt>
      <trkpt lat="46.87729" lon="3.26425">
        <ele>182.943342</ele>
        <time>2021-09-10T11:44:02.000Z</time>
      </trkpt>
      <trkpt lat="46.87721" lon="3.26437">
        <ele>182.87295</ele>
        <time>2021-09-10T11:44:04.000Z</time>
      </trkpt>
      <trkpt lat="46.87689" lon="3.26488">
        <ele>182.741754</ele>
        <time>2021-09-10T11:44:12.000Z</time>
      </trkpt>
      <trkpt lat="46.87667" lon="3.26524">
        <ele>182.929839</ele>
        <time>2021-09-10T11:44:18.000Z</time>
      </trkpt>
      <trkpt lat="46.87647" lon="3.26554">
        <ele>183.092024</ele>
        <time>2021-09-10T11:44:23.000Z</time>
      </trkpt>
      <trkpt lat="46.87621" lon="3.26595">
        <ele>183.30859</ele>
        <time>2021-09-10T11:44:30.000Z</time>
      </trkpt>
      <trkpt lat="46.87617" lon="3.26602">
        <ele>183.341275</ele>
        <time>2021-09-10T11:44:31.000Z</time>
      </trkpt>
      <trkpt lat="46.87602" lon="3.26626">
        <ele>183.470491</ele>
        <time>2021-09-10T11:44:35.000Z</time>
      </trkpt>
      <trkpt lat="46.87595" lon="3.26637">
        <ele>183.529363</ele>
        <time>2021-09-10T11:44:37.000Z</time>
      </trkpt>
      <trkpt lat="46.87583" lon="3.26656">
        <ele>183.627133</ele>
        <time>2021-09-10T11:44:40.000Z</time>
      </trkpt>
      <trkpt lat="46.87575" lon="3.26668">
        <ele>183.690447</ele>
        <time>2021-09-10T11:44:42.000Z</time>
      </trkpt>
      <trkpt lat="46.87563" lon="3.26688">
        <ele>183.761512</ele>
        <time>2021-09-10T11:44:45.000Z</time>
      </trkpt>
      <trkpt lat="46.87536" lon="3.2673">
        <ele>183.918491</ele>
        <time>2021-09-10T11:44:52.000Z</time>
      </trkpt>
      <trkpt lat="46.87533" lon="3.26736">
        <ele>183.939551</ele>
        <time>2021-09-10T11:44:53.000Z</time>
      </trkpt>
      <trkpt lat="46.87525" lon="3.26748">
        <ele>183.984143</ele>
        <time>2021-09-10T11:44:55.000Z</time>
      </trkpt>
      <trkpt lat="46.87518" lon="3.2676">
        <ele>184.027867</ele>
        <time>2021-09-10T11:44:57.000Z</time>
      </trkpt>
      <trkpt lat="46.87495" lon="3.26795">
        <ele>184.160108</ele>
        <time>2021-09-10T11:45:03.000Z</time>
      </trkpt>
      <trkpt lat="46.87472" lon="3.26831">
        <ele>184.291879</ele>
        <time>2021-09-10T11:45:09.000Z</time>
      </trkpt>
      <trkpt lat="46.87469" lon="3.26836">
        <ele>184.309997</ele>
        <time>2021-09-10T11:45:10.000Z</time>
      </trkpt>
      <trkpt lat="46.8746" lon="3.26851">
        <ele>184.365488</ele>
        <time>2021-09-10T11:45:13.000Z</time>
      </trkpt>
      <trkpt lat="46.87436" lon="3.26889">
        <ele>184.364068</ele>
        <time>2021-09-10T11:45:20.000Z</time>
      </trkpt>
      <trkpt lat="46.87414" lon="3.26924">
        <ele>184.324658</ele>
        <time>2021-09-10T11:45:26.000Z</time>
      </trkpt>
      <trkpt lat="46.87398" lon="3.26948">
        <ele>184.297231</ele>
        <time>2021-09-10T11:45:30.000Z</time>
      </trkpt>
      <trkpt lat="46.87387" lon="3.26967">
        <ele>184.276823</ele>
        <time>2021-09-10T11:45:33.000Z</time>
      </trkpt>
      <trkpt lat="46.87369" lon="3.26995">
        <ele>184.245185</ele>
        <time>2021-09-10T11:45:38.000Z</time>
      </trkpt>
      <trkpt lat="46.87365" lon="3.27">
        <ele>184.238776</ele>
        <time>2021-09-10T11:45:39.000Z</time>
      </trkpt>
      <trkpt lat="46.87344" lon="3.27035">
        <ele>184.200118</ele>
        <time>2021-09-10T11:45:45.000Z</time>
      </trkpt>
      <trkpt lat="46.87321" lon="3.27069">
        <ele>184.023492</ele>
        <time>2021-09-10T11:45:52.000Z</time>
      </trkpt>
      <trkpt lat="46.87308" lon="3.27094">
        <ele>183.813215</ele>
        <time>2021-09-10T11:45:58.000Z</time>
      </trkpt>
      <trkpt lat="46.87305" lon="3.27098">
        <ele>183.773305</ele>
        <time>2021-09-10T11:45:59.000Z</time>
      </trkpt>
      <trkpt lat="46.87298" lon="3.27107">
        <ele>183.6806</ele>
        <time>2021-09-10T11:46:01.000Z</time>
      </trkpt>
      <trkpt lat="46.87294" lon="3.27112">
        <ele>183.632253</ele>
        <time>2021-09-10T11:46:02.000Z</time>
      </trkpt>
      <trkpt lat="46.87291" lon="3.27117">
        <ele>183.582268</ele>
        <time>2021-09-10T11:46:03.000Z</time>
      </trkpt>
      <trkpt lat="46.87284" lon="3.27127">
        <ele>183.487208</ele>
        <time>2021-09-10T11:46:05.000Z</time>
      </trkpt>
      <trkpt lat="46.8728" lon="3.27132">
        <ele>183.441214</ele>
        <time>2021-09-10T11:46:06.000Z</time>
      </trkpt>
      <trkpt lat="46.87273" lon="3.27143">
        <ele>183.336793</ele>
        <time>2021-09-10T11:46:08.000Z</time>
      </trkpt>
      <trkpt lat="46.87261" lon="3.2716">
        <ele>183.172057</ele>
        <time>2021-09-10T11:46:11.000Z</time>
      </trkpt>
      <trkpt lat="46.87233" lon="3.27202">
        <ele>182.777748</ele>
        <time>2021-09-10T11:46:18.000Z</time>
      </trkpt>
      <trkpt lat="46.87218" lon="3.27226">
        <ele>182.559812</ele>
        <time>2021-09-10T11:46:22.000Z</time>
      </trkpt>
      <trkpt lat="46.87214" lon="3.27232">
        <ele>182.503675</ele>
        <time>2021-09-10T11:46:23.000Z</time>
      </trkpt>
      <trkpt lat="46.87187" lon="3.27273">
        <ele>182.298844</ele>
        <time>2021-09-10T11:46:30.000Z</time>
      </trkpt>
      <trkpt lat="46.87176" lon="3.2729">
        <ele>182.240851</ele>
        <time>2021-09-10T11:46:33.000Z</time>
      </trkpt>
      <trkpt lat="46.87168" lon="3.27302">
        <ele>182.197479</ele>
        <time>2021-09-10T11:46:35.000Z</time>
      </trkpt>
      <trkpt lat="46.8714" lon="3.27345">
        <ele>182.043759</ele>
        <time>2021-09-10T11:46:42.000Z</time>
      </trkpt>
      <trkpt lat="46.87127" lon="3.2736">
        <ele>181.979581</ele>
        <time>2021-09-10T11:46:45.000Z</time>
      </trkpt>
      <trkpt lat="46.87118" lon="3.2737">
        <ele>181.937667</ele>
        <time>2021-09-10T11:46:47.000Z</time>
      </trkpt>
      <trkpt lat="46.87096" lon="3.27395">
        <ele>181.832787</ele>
        <time>2021-09-10T11:46:52.000Z</time>
      </trkpt>
      <trkpt lat="46.87092" lon="3.274">
        <ele>181.811136</ele>
        <time>2021-09-10T11:46:53.000Z</time>
      </trkpt>
      <trkpt lat="46.87056" lon="3.27433">
        <ele>181.820931</ele>
        <time>2021-09-10T11:47:00.000Z</time>
      </trkpt>
      <trkpt lat="46.87021" lon="3.27454">
        <ele>181.981213</ele>
        <time>2021-09-10T11:47:07.000Z</time>
      </trkpt>
      <trkpt lat="46.86998" lon="3.27469">
        <ele>182.085683</ele>
        <time>2021-09-10T11:47:13.000Z</time>
      </trkpt>
      <trkpt lat="46.86994" lon="3.27471">
        <ele>182.10241</ele>
        <time>2021-09-10T11:47:14.000Z</time>
      </trkpt>
      <trkpt lat="46.86971" lon="3.27487">
        <ele>182.212216</ele>
        <time>2021-09-10T11:47:20.000Z</time>
      </trkpt>
      <trkpt lat="46.86939" lon="3.27509">
        <ele>182.359125</ele>
        <time>2021-09-10T11:47:27.000Z</time>
      </trkpt>
      <trkpt lat="46.86903" lon="3.27539">
        <ele>182.525285</ele>
        <time>2021-09-10T11:47:35.000Z</time>
      </trkpt>
      <trkpt lat="46.86871" lon="3.27574">
        <ele>182.667507</ele>
        <time>2021-09-10T11:47:43.000Z</time>
      </trkpt>
      <trkpt lat="46.86844" lon="3.27617">
        <ele>182.807108</ele>
        <time>2021-09-10T11:47:51.000Z</time>
      </trkpt>
      <trkpt lat="46.86817" lon="3.27662">
        <ele>182.950039</ele>
        <time>2021-09-10T11:47:59.000Z</time>
      </trkpt>
      <trkpt lat="46.86793" lon="3.27712">
        <ele>183.094895</ele>
        <time>2021-09-10T11:48:07.000Z</time>
      </trkpt>
      <trkpt lat="46.86777" lon="3.27748">
        <ele>183.275914</ele>
        <time>2021-09-10T11:48:13.000Z</time>
      </trkpt>
      <trkpt lat="46.86759" lon="3.27788">
        <ele>183.50003</ele>
        <time>2021-09-10T11:48:19.000Z</time>
      </trkpt>
      <trkpt lat="46.86745" lon="3.27822">
        <ele>183.691933</ele>
        <time>2021-09-10T11:48:24.000Z</time>
      </trkpt>
      <trkpt lat="46.86729" lon="3.27858">
        <ele>183.891311</ele>
        <time>2021-09-10T11:48:29.000Z</time>
      </trkpt>
      <trkpt lat="46.86709" lon="3.27906">
        <ele>184.158556</ele>
        <time>2021-09-10T11:48:36.000Z</time>
      </trkpt>
      <trkpt lat="46.86694" lon="3.2794">
        <ele>184.348461</ele>
        <time>2021-09-10T11:48:41.000Z</time>
      </trkpt>
      <trkpt lat="46.8668" lon="3.27973">
        <ele>184.608401</ele>
        <time>2021-09-10T11:48:46.000Z</time>
      </trkpt>
      <trkpt lat="46.86662" lon="3.28015">
        <ele>184.938588</ele>
        <time>2021-09-10T11:48:52.000Z</time>
      </trkpt>
      <trkpt lat="46.86648" lon="3.28039">
        <ele>185.149322</ele>
        <time>2021-09-10T11:48:56.000Z</time>
      </trkpt>
      <trkpt lat="46.86639" lon="3.28059">
        <ele>185.310289</ele>
        <time>2021-09-10T11:48:59.000Z</time>
      </trkpt>
      <trkpt lat="46.8662" lon="3.28097">
        <ele>185.629641</ele>
        <time>2021-09-10T11:49:05.000Z</time>
      </trkpt>
      <trkpt lat="46.86613" lon="3.2811">
        <ele>185.737405</ele>
        <time>2021-09-10T11:49:07.000Z</time>
      </trkpt>
      <trkpt lat="46.86602" lon="3.28129">
        <ele>185.900239</ele>
        <time>2021-09-10T11:49:10.000Z</time>
      </trkpt>
      <trkpt lat="46.86586" lon="3.28171">
        <ele>186.133341</ele>
        <time>2021-09-10T11:49:16.000Z</time>
      </trkpt>
      <trkpt lat="46.86572" lon="3.28212">
        <ele>186.159339</ele>
        <time>2021-09-10T11:49:22.000Z</time>
      </trkpt>
      <trkpt lat="46.86569" lon="3.28219">
        <ele>186.163614</ele>
        <time>2021-09-10T11:49:23.000Z</time>
      </trkpt>
      <trkpt lat="46.86559" lon="3.2825">
        <ele>186.183107</ele>
        <time>2021-09-10T11:49:27.000Z</time>
      </trkpt>
      <trkpt lat="46.86544" lon="3.28303">
        <ele>186.215535</ele>
        <time>2021-09-10T11:49:34.000Z</time>
      </trkpt>
      <trkpt lat="46.86536" lon="3.28332">
        <ele>186.23341</ele>
        <time>2021-09-10T11:49:38.000Z</time>
      </trkpt>
      <trkpt lat="46.86523" lon="3.28377">
        <ele>186.260975</ele>
        <time>2021-09-10T11:49:44.000Z</time>
      </trkpt>
      <trkpt lat="46.86512" lon="3.28412">
        <ele>186.27281</ele>
        <time>2021-09-10T11:49:49.000Z</time>
      </trkpt>
      <trkpt lat="46.86499" lon="3.28454">
        <ele>186.271425</ele>
        <time>2021-09-10T11:49:55.000Z</time>
      </trkpt>
      <trkpt lat="46.86477" lon="3.28494">
        <ele>186.269936</ele>
        <time>2021-09-10T11:50:01.000Z</time>
      </trkpt>
      <trkpt lat="46.86455" lon="3.2853">
        <ele>186.268512</ele>
        <time>2021-09-10T11:50:07.000Z</time>
      </trkpt>
      <trkpt lat="46.86451" lon="3.28536">
        <ele>186.268282</ele>
        <time>2021-09-10T11:50:08.000Z</time>
      </trkpt>
      <trkpt lat="46.86441" lon="3.28552">
        <ele>186.267619</ele>
        <time>2021-09-10T11:50:11.000Z</time>
      </trkpt>
      <trkpt lat="46.86416" lon="3.28585">
        <ele>186.266168</ele>
        <time>2021-09-10T11:50:17.000Z</time>
      </trkpt>
      <trkpt lat="46.86411" lon="3.2859">
        <ele>186.265937</ele>
        <time>2021-09-10T11:50:18.000Z</time>
      </trkpt>
      <trkpt lat="46.86404" lon="3.286">
        <ele>186.259435</ele>
        <time>2021-09-10T11:50:20.000Z</time>
      </trkpt>
      <trkpt lat="46.86396" lon="3.28609">
        <ele>186.208274</ele>
        <time>2021-09-10T11:50:22.000Z</time>
      </trkpt>
      <trkpt lat="46.86384" lon="3.28623">
        <ele>186.128516</ele>
        <time>2021-09-10T11:50:25.000Z</time>
      </trkpt>
      <trkpt lat="46.86377" lon="3.28633">
        <ele>186.078935</ele>
        <time>2021-09-10T11:50:27.000Z</time>
      </trkpt>
      <trkpt lat="46.86363" lon="3.28651">
        <ele>185.980006</ele>
        <time>2021-09-10T11:50:31.000Z</time>
      </trkpt>
      <trkpt lat="46.86355" lon="3.28661">
        <ele>185.923486</ele>
        <time>2021-09-10T11:50:33.000Z</time>
      </trkpt>
      <trkpt lat="46.86328" lon="3.28696">
        <ele>185.738647</ele>
        <time>2021-09-10T11:50:40.000Z</time>
      </trkpt>
      <trkpt lat="46.86316" lon="3.2871">
        <ele>185.659442</ele>
        <time>2021-09-10T11:50:43.000Z</time>
      </trkpt>
      <trkpt lat="46.86309" lon="3.2872">
        <ele>185.609236</ele>
        <time>2021-09-10T11:50:45.000Z</time>
      </trkpt>
      <trkpt lat="46.86301" lon="3.28729">
        <ele>185.557783</ele>
        <time>2021-09-10T11:50:47.000Z</time>
      </trkpt>
      <trkpt lat="46.86285" lon="3.2875">
        <ele>185.444977</ele>
        <time>2021-09-10T11:50:51.000Z</time>
      </trkpt>
      <trkpt lat="46.86265" lon="3.28769">
        <ele>185.347478</ele>
        <time>2021-09-10T11:50:55.000Z</time>
      </trkpt>
      <trkpt lat="46.86261" lon="3.28773">
        <ele>185.381767</ele>
        <time>2021-09-10T11:50:56.000Z</time>
      </trkpt>
      <trkpt lat="46.86231" lon="3.28797">
        <ele>185.608616</ele>
        <time>2021-09-10T11:51:02.000Z</time>
      </trkpt>
      <trkpt lat="46.8622" lon="3.28806">
        <ele>185.688883</ele>
        <time>2021-09-10T11:51:04.000Z</time>
      </trkpt>
      <trkpt lat="46.86207" lon="3.28819">
        <ele>185.795899</ele>
        <time>2021-09-10T11:51:07.000Z</time>
      </trkpt>
      <trkpt lat="46.86197" lon="3.28827">
        <ele>185.869547</ele>
        <time>2021-09-10T11:51:09.000Z</time>
      </trkpt>
      <trkpt lat="46.86187" lon="3.28836">
        <ele>185.945931</ele>
        <time>2021-09-10T11:51:11.000Z</time>
      </trkpt>
      <trkpt lat="46.86163" lon="3.28858">
        <ele>186.137609</ele>
        <time>2021-09-10T11:51:16.000Z</time>
      </trkpt>
      <trkpt lat="46.86158" lon="3.28863">
        <ele>186.173391</ele>
        <time>2021-09-10T11:51:17.000Z</time>
      </trkpt>
      <trkpt lat="46.86154" lon="3.28867">
        <ele>186.208849</ele>
        <time>2021-09-10T11:51:18.000Z</time>
      </trkpt>
      <trkpt lat="46.86145" lon="3.28875">
        <ele>186.277435</ele>
        <time>2021-09-10T11:51:20.000Z</time>
      </trkpt>
      <trkpt lat="46.86124" lon="3.28894">
        <ele>186.445716</ele>
        <time>2021-09-10T11:51:25.000Z</time>
      </trkpt>
      <trkpt lat="46.86107" lon="3.28909">
        <ele>186.563736</ele>
        <time>2021-09-10T11:51:29.000Z</time>
      </trkpt>
      <trkpt lat="46.86102" lon="3.28914">
        <ele>186.595915</ele>
        <time>2021-09-10T11:51:30.000Z</time>
      </trkpt>
      <trkpt lat="46.86066" lon="3.28944">
        <ele>186.805339</ele>
        <time>2021-09-10T11:51:37.000Z</time>
      </trkpt>
      <trkpt lat="46.86052" lon="3.28955">
        <ele>186.886324</ele>
        <time>2021-09-10T11:51:40.000Z</time>
      </trkpt>
      <trkpt lat="46.86048" lon="3.28958">
        <ele>186.91183</ele>
        <time>2021-09-10T11:51:41.000Z</time>
      </trkpt>
      <trkpt lat="46.86043" lon="3.28962">
        <ele>186.937505</ele>
        <time>2021-09-10T11:51:42.000Z</time>
      </trkpt>
      <trkpt lat="46.86034" lon="3.28969">
        <ele>186.989913</ele>
        <time>2021-09-10T11:51:44.000Z</time>
      </trkpt>
      <trkpt lat="46.8603" lon="3.28972">
        <ele>187.011456</ele>
        <time>2021-09-10T11:51:45.000Z</time>
      </trkpt>
      <trkpt lat="46.86027" lon="3.28976">
        <ele>187.034229</ele>
        <time>2021-09-10T11:51:46.000Z</time>
      </trkpt>
      <trkpt lat="46.86016" lon="3.28984">
        <ele>187.09579</ele>
        <time>2021-09-10T11:51:48.000Z</time>
      </trkpt>
      <trkpt lat="46.86001" lon="3.28997">
        <ele>187.186073</ele>
        <time>2021-09-10T11:51:51.000Z</time>
      </trkpt>
      <trkpt lat="46.85993" lon="3.29004">
        <ele>187.233044</ele>
        <time>2021-09-10T11:51:53.000Z</time>
      </trkpt>
      <trkpt lat="46.8599" lon="3.29007">
        <ele>187.252401</ele>
        <time>2021-09-10T11:51:54.000Z</time>
      </trkpt>
      <trkpt lat="46.85975" lon="3.29021">
        <ele>187.33913</ele>
        <time>2021-09-10T11:51:57.000Z</time>
      </trkpt>
      <trkpt lat="46.8594" lon="3.29051">
        <ele>187.407647</ele>
        <time>2021-09-10T11:52:04.000Z</time>
      </trkpt>
      <trkpt lat="46.85926" lon="3.2906">
        <ele>187.38081</ele>
        <time>2021-09-10T11:52:07.000Z</time>
      </trkpt>
      <trkpt lat="46.85917" lon="3.29065">
        <ele>187.363761</ele>
        <time>2021-09-10T11:52:09.000Z</time>
      </trkpt>
      <trkpt lat="46.85896" lon="3.29078">
        <ele>187.325412</ele>
        <time>2021-09-10T11:52:13.000Z</time>
      </trkpt>
      <trkpt lat="46.85891" lon="3.29081">
        <ele>187.316197</ele>
        <time>2021-09-10T11:52:14.000Z</time>
      </trkpt>
      <trkpt lat="46.85857" lon="3.29095">
        <ele>187.252954</ele>
        <time>2021-09-10T11:52:21.000Z</time>
      </trkpt>
      <trkpt lat="46.85826" lon="3.29108">
        <ele>187.197774</ele>
        <time>2021-09-10T11:52:27.000Z</time>
      </trkpt>
      <trkpt lat="46.85796" lon="3.29123">
        <ele>187.14231</ele>
        <time>2021-09-10T11:52:33.000Z</time>
      </trkpt>
      <trkpt lat="46.85778" lon="3.29131">
        <ele>187.143423</ele>
        <time>2021-09-10T11:52:38.000Z</time>
      </trkpt>
      <trkpt lat="46.85759" lon="3.2914">
        <ele>187.165862</ele>
        <time>2021-09-10T11:52:45.000Z</time>
      </trkpt>
      <trkpt lat="46.85747" lon="3.29147">
        <ele>187.180065</ele>
        <time>2021-09-10T11:52:49.000Z</time>
      </trkpt>
      <trkpt lat="46.85726" lon="3.29158">
        <ele>187.204667</ele>
        <time>2021-09-10T11:52:53.000Z</time>
      </trkpt>
      <trkpt lat="46.85703" lon="3.2917">
        <ele>187.231789</ele>
        <time>2021-09-10T11:52:57.000Z</time>
      </trkpt>
      <trkpt lat="46.85699" lon="3.29175">
        <ele>187.237623</ele>
        <time>2021-09-10T11:52:58.000Z</time>
      </trkpt>
      <trkpt lat="46.85669" lon="3.29203">
        <ele>187.278124</ele>
        <time>2021-09-10T11:53:04.000Z</time>
      </trkpt>
      <trkpt lat="46.85654" lon="3.29221">
        <ele>187.299049</ele>
        <time>2021-09-10T11:53:07.000Z</time>
      </trkpt>
      <trkpt lat="46.85645" lon="3.29232">
        <ele>187.312265</ele>
        <time>2021-09-10T11:53:09.000Z</time>
      </trkpt>
      <trkpt lat="46.8562" lon="3.29266">
        <ele>187.404418</ele>
        <time>2021-09-10T11:53:15.000Z</time>
      </trkpt>
      <trkpt lat="46.85595" lon="3.29299">
        <ele>187.540306</ele>
        <time>2021-09-10T11:53:21.000Z</time>
      </trkpt>
      <trkpt lat="46.85574" lon="3.29327">
        <ele>187.658819</ele>
        <time>2021-09-10T11:53:26.000Z</time>
      </trkpt>
      <trkpt lat="46.8557" lon="3.29333">
        <ele>187.680519</ele>
        <time>2021-09-10T11:53:27.000Z</time>
      </trkpt>
      <trkpt lat="46.85567" lon="3.29337">
        <ele>187.700549</ele>
        <time>2021-09-10T11:53:28.000Z</time>
      </trkpt>
      <trkpt lat="46.85551" lon="3.29359">
        <ele>187.789511</ele>
        <time>2021-09-10T11:53:32.000Z</time>
      </trkpt>
      <trkpt lat="46.85539" lon="3.29375">
        <ele>187.855596</ele>
        <time>2021-09-10T11:53:35.000Z</time>
      </trkpt>
      <trkpt lat="46.85531" lon="3.29385">
        <ele>187.89782</ele>
        <time>2021-09-10T11:53:37.000Z</time>
      </trkpt>
      <trkpt lat="46.85527" lon="3.2939">
        <ele>187.919217</ele>
        <time>2021-09-10T11:53:38.000Z</time>
      </trkpt>
      <trkpt lat="46.8551" lon="3.29412">
        <ele>188.012693</ele>
        <time>2021-09-10T11:53:42.000Z</time>
      </trkpt>
      <trkpt lat="46.8548" lon="3.29452">
        <ele>188.189348</ele>
        <time>2021-09-10T11:53:49.000Z</time>
      </trkpt>
      <trkpt lat="46.85456" lon="3.29485">
        <ele>188.338904</ele>
        <time>2021-09-10T11:53:55.000Z</time>
      </trkpt>
      <trkpt lat="46.85435" lon="3.29512">
        <ele>188.462754</ele>
        <time>2021-09-10T11:54:00.000Z</time>
      </trkpt>
      <trkpt lat="46.85431" lon="3.29518">
        <ele>188.489869</ele>
        <time>2021-09-10T11:54:01.000Z</time>
      </trkpt>
      <trkpt lat="46.85422" lon="3.2953">
        <ele>188.544387</ele>
        <time>2021-09-10T11:54:03.000Z</time>
      </trkpt>
      <trkpt lat="46.85414" lon="3.29541">
        <ele>188.592788</ele>
        <time>2021-09-10T11:54:05.000Z</time>
      </trkpt>
      <trkpt lat="46.85402" lon="3.29558">
        <ele>188.667106</ele>
        <time>2021-09-10T11:54:08.000Z</time>
      </trkpt>
      <trkpt lat="46.8539" lon="3.29575">
        <ele>188.742171</ele>
        <time>2021-09-10T11:54:11.000Z</time>
      </trkpt>
      <trkpt lat="46.85366" lon="3.29609">
        <ele>188.932761</ele>
        <time>2021-09-10T11:54:17.000Z</time>
      </trkpt>
      <trkpt lat="46.85358" lon="3.2962">
        <ele>189.115931</ele>
        <time>2021-09-10T11:54:19.000Z</time>
      </trkpt>
      <trkpt lat="46.85345" lon="3.29638">
        <ele>189.398775</ele>
        <time>2021-09-10T11:54:22.000Z</time>
      </trkpt>
      <trkpt lat="46.85325" lon="3.29666">
        <ele>189.848254</ele>
        <time>2021-09-10T11:54:27.000Z</time>
      </trkpt>
      <trkpt lat="46.853" lon="3.29701">
        <ele>190.405474</ele>
        <time>2021-09-10T11:54:33.000Z</time>
      </trkpt>
      <trkpt lat="46.85275" lon="3.29735">
        <ele>190.955391</ele>
        <time>2021-09-10T11:54:39.000Z</time>
      </trkpt>
      <trkpt lat="46.85247" lon="3.29776">
        <ele>191.585343</ele>
        <time>2021-09-10T11:54:46.000Z</time>
      </trkpt>
      <trkpt lat="46.85222" lon="3.29818">
        <ele>191.864834</ele>
        <time>2021-09-10T11:54:53.000Z</time>
      </trkpt>
      <trkpt lat="46.85202" lon="3.29859">
        <ele>191.979343</ele>
        <time>2021-09-10T11:54:59.000Z</time>
      </trkpt>
      <trkpt lat="46.85183" lon="3.2991">
        <ele>192.111426</ele>
        <time>2021-09-10T11:55:06.000Z</time>
      </trkpt>
      <trkpt lat="46.85163" lon="3.29965">
        <ele>192.253924</ele>
        <time>2021-09-10T11:55:14.000Z</time>
      </trkpt>
      <trkpt lat="46.85144" lon="3.30018">
        <ele>192.347965</ele>
        <time>2021-09-10T11:55:21.000Z</time>
      </trkpt>
      <trkpt lat="46.85125" lon="3.30068">
        <ele>192.120773</ele>
        <time>2021-09-10T11:55:28.000Z</time>
      </trkpt>
      <trkpt lat="46.85109" lon="3.30111">
        <ele>191.924435</ele>
        <time>2021-09-10T11:55:34.000Z</time>
      </trkpt>
      <trkpt lat="46.85104" lon="3.30126">
        <ele>191.859081</ele>
        <time>2021-09-10T11:55:36.000Z</time>
      </trkpt>
      <trkpt lat="46.85094" lon="3.30153">
        <ele>191.733353</ele>
        <time>2021-09-10T11:55:40.000Z</time>
      </trkpt>
      <trkpt lat="46.85081" lon="3.30189">
        <ele>191.573827</ele>
        <time>2021-09-10T11:55:45.000Z</time>
      </trkpt>
      <trkpt lat="46.85062" lon="3.30238">
        <ele>191.348244</ele>
        <time>2021-09-10T11:55:52.000Z</time>
      </trkpt>
      <trkpt lat="46.85046" lon="3.30282">
        <ele>190.83571</ele>
        <time>2021-09-10T11:55:58.000Z</time>
      </trkpt>
      <trkpt lat="46.85041" lon="3.30297">
        <ele>190.648413</ele>
        <time>2021-09-10T11:56:00.000Z</time>
      </trkpt>
      <trkpt lat="46.85016" lon="3.30363">
        <ele>189.810442</ele>
        <time>2021-09-10T11:56:09.000Z</time>
      </trkpt>
      <trkpt lat="46.85" lon="3.30407">
        <ele>189.256848</ele>
        <time>2021-09-10T11:56:15.000Z</time>
      </trkpt>
      <trkpt lat="46.84985" lon="3.30451">
        <ele>188.706963</ele>
        <time>2021-09-10T11:56:21.000Z</time>
      </trkpt>
      <trkpt lat="46.84972" lon="3.30487">
        <ele>188.27083</ele>
        <time>2021-09-10T11:56:26.000Z</time>
      </trkpt>
      <trkpt lat="46.84959" lon="3.30523">
        <ele>187.84117</ele>
        <time>2021-09-10T11:56:31.000Z</time>
      </trkpt>
      <trkpt lat="46.8494" lon="3.30576">
        <ele>187.212923</ele>
        <time>2021-09-10T11:56:38.000Z</time>
      </trkpt>
      <trkpt lat="46.84937" lon="3.30584">
        <ele>187.128618</ele>
        <time>2021-09-10T11:56:39.000Z</time>
      </trkpt>
      <trkpt lat="46.84929" lon="3.30607">
        <ele>186.856181</ele>
        <time>2021-09-10T11:56:42.000Z</time>
      </trkpt>
      <trkpt lat="46.8491" lon="3.3066">
        <ele>186.228639</ele>
        <time>2021-09-10T11:56:49.000Z</time>
      </trkpt>
      <trkpt lat="46.84891" lon="3.30713">
        <ele>185.613354</ele>
        <time>2021-09-10T11:56:56.000Z</time>
      </trkpt>
      <trkpt lat="46.84878" lon="3.30751">
        <ele>185.269674</ele>
        <time>2021-09-10T11:57:01.000Z</time>
      </trkpt>
      <trkpt lat="46.8487" lon="3.30773">
        <ele>185.064377</ele>
        <time>2021-09-10T11:57:04.000Z</time>
      </trkpt>
      <trkpt lat="46.84865" lon="3.30789">
        <ele>184.919064</ele>
        <time>2021-09-10T11:57:06.000Z</time>
      </trkpt>
      <trkpt lat="46.84857" lon="3.30811">
        <ele>184.713219</ele>
        <time>2021-09-10T11:57:09.000Z</time>
      </trkpt>
      <trkpt lat="46.84852" lon="3.30826">
        <ele>184.576111</ele>
        <time>2021-09-10T11:57:11.000Z</time>
      </trkpt>
      <trkpt lat="46.84835" lon="3.30874">
        <ele>184.134885</ele>
        <time>2021-09-10T11:57:17.000Z</time>
      </trkpt>
      <trkpt lat="46.84816" lon="3.30929">
        <ele>183.62401</ele>
        <time>2021-09-10T11:57:24.000Z</time>
      </trkpt>
      <trkpt lat="46.84797" lon="3.30982">
        <ele>183.475692</ele>
        <time>2021-09-10T11:57:31.000Z</time>
      </trkpt>
      <trkpt lat="46.84784" lon="3.31011">
        <ele>183.458038</ele>
        <time>2021-09-10T11:57:35.000Z</time>
      </trkpt>
      <trkpt lat="46.84781" lon="3.31018">
        <ele>183.453561</ele>
        <time>2021-09-10T11:57:36.000Z</time>
      </trkpt>
      <trkpt lat="46.84766" lon="3.31052">
        <ele>183.432455</ele>
        <time>2021-09-10T11:57:41.000Z</time>
      </trkpt>
      <trkpt lat="46.84763" lon="3.31059">
        <ele>183.42819</ele>
        <time>2021-09-10T11:57:42.000Z</time>
      </trkpt>
      <trkpt lat="46.84746" lon="3.31101">
        <ele>183.403014</ele>
        <time>2021-09-10T11:57:48.000Z</time>
      </trkpt>
      <trkpt lat="46.84741" lon="3.31113">
        <ele>183.395985</ele>
        <time>2021-09-10T11:57:50.000Z</time>
      </trkpt>
      <trkpt lat="46.84734" lon="3.31129">
        <ele>183.386092</ele>
        <time>2021-09-10T11:57:53.000Z</time>
      </trkpt>
      <trkpt lat="46.84724" lon="3.31151">
        <ele>183.372155</ele>
        <time>2021-09-10T11:57:58.000Z</time>
      </trkpt>
      <trkpt lat="46.84719" lon="3.31161">
        <ele>183.366189</ele>
        <time>2021-09-10T11:58:00.000Z</time>
      </trkpt>
      <trkpt lat="46.84713" lon="3.31173">
        <ele>183.410331</ele>
        <time>2021-09-10T11:58:02.000Z</time>
      </trkpt>
      <trkpt lat="46.84702" lon="3.31195">
        <ele>183.581856</ele>
        <time>2021-09-10T11:58:05.000Z</time>
      </trkpt>
      <trkpt lat="46.84698" lon="3.31202">
        <ele>183.636778</ele>
        <time>2021-09-10T11:58:06.000Z</time>
      </trkpt>
      <trkpt lat="46.84682" lon="3.31232">
        <ele>183.871413</ele>
        <time>2021-09-10T11:58:10.000Z</time>
      </trkpt>
      <trkpt lat="46.84674" lon="3.31246">
        <ele>183.982791</ele>
        <time>2021-09-10T11:58:12.000Z</time>
      </trkpt>
      <trkpt lat="46.84667" lon="3.3126">
        <ele>184.093687</ele>
        <time>2021-09-10T11:58:14.000Z</time>
      </trkpt>
      <trkpt lat="46.84652" lon="3.31286">
        <ele>184.307239</ele>
        <time>2021-09-10T11:58:18.000Z</time>
      </trkpt>
      <trkpt lat="46.84625" lon="3.31336">
        <ele>184.700987</ele>
        <time>2021-09-10T11:58:25.000Z</time>
      </trkpt>
      <trkpt lat="46.84607" lon="3.31368">
        <ele>184.958724</ele>
        <time>2021-09-10T11:58:30.000Z</time>
      </trkpt>
      <trkpt lat="46.84585" lon="3.31408">
        <ele>185.273096</ele>
        <time>2021-09-10T11:58:36.000Z</time>
      </trkpt>
      <trkpt lat="46.84581" lon="3.31414">
        <ele>185.323859</ele>
        <time>2021-09-10T11:58:37.000Z</time>
      </trkpt>
      <trkpt lat="46.84567" lon="3.31441">
        <ele>185.530325</ele>
        <time>2021-09-10T11:58:41.000Z</time>
      </trkpt>
      <trkpt lat="46.84563" lon="3.31447">
        <ele>185.577971</ele>
        <time>2021-09-10T11:58:42.000Z</time>
      </trkpt>
      <trkpt lat="46.84553" lon="3.31465">
        <ele>185.720987</ele>
        <time>2021-09-10T11:58:45.000Z</time>
      </trkpt>
      <trkpt lat="46.84532" lon="3.31503">
        <ele>186.023866</ele>
        <time>2021-09-10T11:58:51.000Z</time>
      </trkpt>
      <trkpt lat="46.84515" lon="3.31534">
        <ele>186.269921</ele>
        <time>2021-09-10T11:58:56.000Z</time>
      </trkpt>
      <trkpt lat="46.84508" lon="3.31547">
        <ele>186.369842</ele>
        <time>2021-09-10T11:58:58.000Z</time>
      </trkpt>
      <trkpt lat="46.84497" lon="3.31567">
        <ele>186.528022</ele>
        <time>2021-09-10T11:59:01.000Z</time>
      </trkpt>
      <trkpt lat="46.8449" lon="3.31581">
        <ele>186.595615</ele>
        <time>2021-09-10T11:59:03.000Z</time>
      </trkpt>
      <trkpt lat="46.84483" lon="3.31593">
        <ele>186.567201</ele>
        <time>2021-09-10T11:59:05.000Z</time>
      </trkpt>
      <trkpt lat="46.84469" lon="3.3162">
        <ele>186.502991</ele>
        <time>2021-09-10T11:59:09.000Z</time>
      </trkpt>
      <trkpt lat="46.84445" lon="3.31662">
        <ele>186.402995</ele>
        <time>2021-09-10T11:59:15.000Z</time>
      </trkpt>
      <trkpt lat="46.84424" lon="3.317">
        <ele>186.312513</ele>
        <time>2021-09-10T11:59:21.000Z</time>
      </trkpt>
      <trkpt lat="46.84417" lon="3.31713">
        <ele>186.281886</ele>
        <time>2021-09-10T11:59:23.000Z</time>
      </trkpt>
      <trkpt lat="46.8441" lon="3.31725">
        <ele>186.251573</ele>
        <time>2021-09-10T11:59:25.000Z</time>
      </trkpt>
      <trkpt lat="46.84406" lon="3.31732">
        <ele>186.235658</ele>
        <time>2021-09-10T11:59:26.000Z</time>
      </trkpt>
      <trkpt lat="46.84391" lon="3.31756">
        <ele>186.175393</ele>
        <time>2021-09-10T11:59:30.000Z</time>
      </trkpt>
      <trkpt lat="46.84387" lon="3.31761">
        <ele>186.161965</ele>
        <time>2021-09-10T11:59:31.000Z</time>
      </trkpt>
      <trkpt lat="46.84375" lon="3.31781">
        <ele>186.122733</ele>
        <time>2021-09-10T11:59:34.000Z</time>
      </trkpt>
      <trkpt lat="46.84367" lon="3.31794">
        <ele>186.155552</ele>
        <time>2021-09-10T11:59:36.000Z</time>
      </trkpt>
      <trkpt lat="46.84341" lon="3.3183">
        <ele>186.248695</ele>
        <time>2021-09-10T11:59:42.000Z</time>
      </trkpt>
      <trkpt lat="46.84337" lon="3.31836">
        <ele>186.263741</ele>
        <time>2021-09-10T11:59:43.000Z</time>
      </trkpt>
      <trkpt lat="46.84321" lon="3.31857">
        <ele>186.32078</ele>
        <time>2021-09-10T11:59:47.000Z</time>
      </trkpt>
      <trkpt lat="46.84317" lon="3.31863">
        <ele>186.335634</ele>
        <time>2021-09-10T11:59:48.000Z</time>
      </trkpt>
      <trkpt lat="46.843" lon="3.31886">
        <ele>186.396397</ele>
        <time>2021-09-10T11:59:52.000Z</time>
      </trkpt>
      <trkpt lat="46.84286" lon="3.31901">
        <ele>186.441053</ele>
        <time>2021-09-10T11:59:55.000Z</time>
      </trkpt>
      <trkpt lat="46.84273" lon="3.31915">
        <ele>186.483694</ele>
        <time>2021-09-10T11:59:58.000Z</time>
      </trkpt>
      <trkpt lat="46.8426" lon="3.31928">
        <ele>186.525599</ele>
        <time>2021-09-10T12:00:01.000Z</time>
      </trkpt>
      <trkpt lat="46.8425" lon="3.31935">
        <ele>186.553838</ele>
        <time>2021-09-10T12:00:03.000Z</time>
      </trkpt>
      <trkpt lat="46.84246" lon="3.31939">
        <ele>186.566741</ele>
        <time>2021-09-10T12:00:04.000Z</time>
      </trkpt>
      <trkpt lat="46.84232" lon="3.31949">
        <ele>186.685519</ele>
        <time>2021-09-10T12:00:07.000Z</time>
      </trkpt>
      <trkpt lat="46.84227" lon="3.31952">
        <ele>186.766384</ele>
        <time>2021-09-10T12:00:08.000Z</time>
      </trkpt>
      <trkpt lat="46.84207" lon="3.31967">
        <ele>187.090689</ele>
        <time>2021-09-10T12:00:12.000Z</time>
      </trkpt>
      <trkpt lat="46.84202" lon="3.31971">
        <ele>187.174576</ele>
        <time>2021-09-10T12:00:13.000Z</time>
      </trkpt>
      <trkpt lat="46.84176" lon="3.3199">
        <ele>187.595742</ele>
        <time>2021-09-10T12:00:18.000Z</time>
      </trkpt>
      <trkpt lat="46.84139" lon="3.32016">
        <ele>188.178195</ele>
        <time>2021-09-10T12:00:25.000Z</time>
      </trkpt>
      <trkpt lat="46.84121" lon="3.3203">
        <ele>188.476554</ele>
        <time>2021-09-10T12:00:29.000Z</time>
      </trkpt>
      <trkpt lat="46.84116" lon="3.32034">
        <ele>188.560441</ele>
        <time>2021-09-10T12:00:30.000Z</time>
      </trkpt>
      <trkpt lat="46.84095" lon="3.32049">
        <ele>188.890389</ele>
        <time>2021-09-10T12:00:34.000Z</time>
      </trkpt>
      <trkpt lat="46.84076" lon="3.32064">
        <ele>189.206497</ele>
        <time>2021-09-10T12:00:38.000Z</time>
      </trkpt>
      <trkpt lat="46.84046" lon="3.32087">
        <ele>189.649543</ele>
        <time>2021-09-10T12:00:44.000Z</time>
      </trkpt>
      <trkpt lat="46.84016" lon="3.32111">
        <ele>190.100535</ele>
        <time>2021-09-10T12:00:50.000Z</time>
      </trkpt>
      <trkpt lat="46.83986" lon="3.32133">
        <ele>190.550369</ele>
        <time>2021-09-10T12:00:56.000Z</time>
      </trkpt>
      <trkpt lat="46.83958" lon="3.32148">
        <ele>190.933859</ele>
        <time>2021-09-10T12:01:01.000Z</time>
      </trkpt>
      <trkpt lat="46.83953" lon="3.32151">
        <ele>191.006046</ele>
        <time>2021-09-10T12:01:02.000Z</time>
      </trkpt>
      <trkpt lat="46.83927" lon="3.32166">
        <ele>191.380856</ele>
        <time>2021-09-10T12:01:08.000Z</time>
      </trkpt>
      <trkpt lat="46.83902" lon="3.32181">
        <ele>191.505955</ele>
        <time>2021-09-10T12:01:14.000Z</time>
      </trkpt>
      <trkpt lat="46.83868" lon="3.32204">
        <ele>191.365784</ele>
        <time>2021-09-10T12:01:22.000Z</time>
      </trkpt>
      <trkpt lat="46.83828" lon="3.32227">
        <ele>191.203061</ele>
        <time>2021-09-10T12:01:31.000Z</time>
      </trkpt>
      <trkpt lat="46.83815" lon="3.32233">
        <ele>191.150341</ele>
        <time>2021-09-10T12:01:34.000Z</time>
      </trkpt>
      <trkpt lat="46.83806" lon="3.32236">
        <ele>191.117734</ele>
        <time>2021-09-10T12:01:36.000Z</time>
      </trkpt>
      <trkpt lat="46.83791" lon="3.32241">
        <ele>191.057262</ele>
        <time>2021-09-10T12:01:40.000Z</time>
      </trkpt>
      <trkpt lat="46.83773" lon="3.32244">
        <ele>190.99164</ele>
        <time>2021-09-10T12:01:45.000Z</time>
      </trkpt>
      <trkpt lat="46.83767" lon="3.32245">
        <ele>190.966481</ele>
        <time>2021-09-10T12:01:48.000Z</time>
      </trkpt>
      <trkpt lat="46.83765" lon="3.32245">
        <ele>190.96116</ele>
        <time>2021-09-10T12:01:49.000Z</time>
      </trkpt>
      <trkpt lat="46.83759" lon="3.32246">
        <ele>190.937127</ele>
        <time>2021-09-10T12:01:54.000Z</time>
      </trkpt>
      <trkpt lat="46.83751" lon="3.32248">
        <ele>190.906617</ele>
        <time>2021-09-10T12:02:01.000Z</time>
      </trkpt>
      <trkpt lat="46.83751" lon="3.32248">
        <ele>190.904332</ele>
        <time>2021-09-10T12:02:03.000Z</time>
      </trkpt>
      <trkpt lat="46.83748" lon="3.32248">
        <ele>190.896321</ele>
        <time>2021-09-10T12:02:05.000Z</time>
      </trkpt>
      <trkpt lat="46.83744" lon="3.32249">
        <ele>190.881049</ele>
        <time>2021-09-10T12:02:08.000Z</time>
      </trkpt>
      <trkpt lat="46.83743" lon="3.32249">
        <ele>190.876046</ele>
        <time>2021-09-10T12:02:09.000Z</time>
      </trkpt>
      <trkpt lat="46.83742" lon="3.3225">
        <ele>190.871713</ele>
        <time>2021-09-10T12:02:10.000Z</time>
      </trkpt>
      <trkpt lat="46.83738" lon="3.3225">
        <ele>190.856354</ele>
        <time>2021-09-10T12:02:14.000Z</time>
      </trkpt>
      <trkpt lat="46.8373" lon="3.32251">
        <ele>190.825834</ele>
        <time>2021-09-10T12:02:19.000Z</time>
      </trkpt>
      <trkpt lat="46.83729" lon="3.32251">
        <ele>190.819579</ele>
        <time>2021-09-10T12:02:20.000Z</time>
      </trkpt>
      <trkpt lat="46.83717" lon="3.32251">
        <ele>190.772659</ele>
        <time>2021-09-10T12:02:28.000Z</time>
      </trkpt>
      <trkpt lat="46.83708" lon="3.32252">
        <ele>190.73825</ele>
        <time>2021-09-10T12:02:36.000Z</time>
      </trkpt>
      <trkpt lat="46.83699" lon="3.32252">
        <ele>190.703834</ele>
        <time>2021-09-10T12:02:41.000Z</time>
      </trkpt>
      <trkpt lat="46.83694" lon="3.32252">
        <ele>190.683491</ele>
        <time>2021-09-10T12:02:43.000Z</time>
      </trkpt>
      <trkpt lat="46.83688" lon="3.32253">
        <ele>190.661184</ele>
        <time>2021-09-10T12:02:45.000Z</time>
      </trkpt>
      <trkpt lat="46.83671" lon="3.32254">
        <ele>190.593091</ele>
        <time>2021-09-10T12:02:51.000Z</time>
      </trkpt>
      <trkpt lat="46.83653" lon="3.32255">
        <ele>190.523448</ele>
        <time>2021-09-10T12:02:58.000Z</time>
      </trkpt>
      <trkpt lat="46.83643" lon="3.32255">
        <ele>190.485921</ele>
        <time>2021-09-10T12:03:01.000Z</time>
      </trkpt>
      <trkpt lat="46.83639" lon="3.32255">
        <ele>190.468722</ele>
        <time>2021-09-10T12:03:02.000Z</time>
      </trkpt>
      <trkpt lat="46.83607" lon="3.32255">
        <ele>190.343242</ele>
        <time>2021-09-10T12:03:08.000Z</time>
      </trkpt>
      <trkpt lat="46.83575" lon="3.3226">
        <ele>190.217352</ele>
        <time>2021-09-10T12:03:14.000Z</time>
      </trkpt>
      <trkpt lat="46.83555" lon="3.32267">
        <ele>190.232633</ele>
        <time>2021-09-10T12:03:18.000Z</time>
      </trkpt>
      <trkpt lat="46.83528" lon="3.3228">
        <ele>190.396552</ele>
        <time>2021-09-10T12:03:23.000Z</time>
      </trkpt>
      <trkpt lat="46.83496" lon="3.32299">
        <ele>190.597415</ele>
        <time>2021-09-10T12:03:29.000Z</time>
      </trkpt>
      <trkpt lat="46.83466" lon="3.32325">
        <ele>190.803488</ele>
        <time>2021-09-10T12:03:35.000Z</time>
      </trkpt>
      <trkpt lat="46.83434" lon="3.3236">
        <ele>191.03243</ele>
        <time>2021-09-10T12:03:42.000Z</time>
      </trkpt>
      <trkpt lat="46.83399" lon="3.32403">
        <ele>191.329473</ele>
        <time>2021-09-10T12:03:50.000Z</time>
      </trkpt>
      <trkpt lat="46.83376" lon="3.32438">
        <ele>191.588979</ele>
        <time>2021-09-10T12:03:56.000Z</time>
      </trkpt>
      <trkpt lat="46.83359" lon="3.32468">
        <ele>191.803317</ele>
        <time>2021-09-10T12:04:01.000Z</time>
      </trkpt>
      <trkpt lat="46.83335" lon="3.32522">
        <ele>192.149345</ele>
        <time>2021-09-10T12:04:08.000Z</time>
      </trkpt>
      <trkpt lat="46.83315" lon="3.32578">
        <ele>192.492271</ele>
        <time>2021-09-10T12:04:15.000Z</time>
      </trkpt>
      <trkpt lat="46.83303" lon="3.32619">
        <ele>192.658919</ele>
        <time>2021-09-10T12:04:20.000Z</time>
      </trkpt>
      <trkpt lat="46.83293" lon="3.32652">
        <ele>192.689394</ele>
        <time>2021-09-10T12:04:24.000Z</time>
      </trkpt>
      <trkpt lat="46.8329" lon="3.32661">
        <ele>192.697208</ele>
        <time>2021-09-10T12:04:25.000Z</time>
      </trkpt>
      <trkpt lat="46.83276" lon="3.32709">
        <ele>192.741018</ele>
        <time>2021-09-10T12:04:31.000Z</time>
      </trkpt>
      <trkpt lat="46.83263" lon="3.32749">
        <ele>192.777719</ele>
        <time>2021-09-10T12:04:36.000Z</time>
      </trkpt>
      <trkpt lat="46.83253" lon="3.32771">
        <ele>192.79967</ele>
        <time>2021-09-10T12:04:39.000Z</time>
      </trkpt>
      <trkpt lat="46.83245" lon="3.32786">
        <ele>192.81531</ele>
        <time>2021-09-10T12:04:41.000Z</time>
      </trkpt>
      <trkpt lat="46.83224" lon="3.32831">
        <ele>192.860788</ele>
        <time>2021-09-10T12:04:47.000Z</time>
      </trkpt>
      <trkpt lat="46.83208" lon="3.32866">
        <ele>192.854827</ele>
        <time>2021-09-10T12:04:52.000Z</time>
      </trkpt>
      <trkpt lat="46.83204" lon="3.32873">
        <ele>192.852852</ele>
        <time>2021-09-10T12:04:53.000Z</time>
      </trkpt>
      <trkpt lat="46.83198" lon="3.32886">
        <ele>192.848759</ele>
        <time>2021-09-10T12:04:55.000Z</time>
      </trkpt>
      <trkpt lat="46.83177" lon="3.32931">
        <ele>192.835361</ele>
        <time>2021-09-10T12:05:02.000Z</time>
      </trkpt>
      <trkpt lat="46.83162" lon="3.32963">
        <ele>192.825689</ele>
        <time>2021-09-10T12:05:07.000Z</time>
      </trkpt>
      <trkpt lat="46.83155" lon="3.32977">
        <ele>192.821556</ele>
        <time>2021-09-10T12:05:09.000Z</time>
      </trkpt>
      <trkpt lat="46.83145" lon="3.32998">
        <ele>192.815345</ele>
        <time>2021-09-10T12:05:12.000Z</time>
      </trkpt>
      <trkpt lat="46.83128" lon="3.33035">
        <ele>192.804166</ele>
        <time>2021-09-10T12:05:18.000Z</time>
      </trkpt>
      <trkpt lat="46.83125" lon="3.33041">
        <ele>192.802212</ele>
        <time>2021-09-10T12:05:19.000Z</time>
      </trkpt>
      <trkpt lat="46.83112" lon="3.33068">
        <ele>192.595201</ele>
        <time>2021-09-10T12:05:23.000Z</time>
      </trkpt>
      <trkpt lat="46.83095" lon="3.3311">
        <ele>192.09822</ele>
        <time>2021-09-10T12:05:29.000Z</time>
      </trkpt>
      <trkpt lat="46.83078" lon="3.33156">
        <ele>191.576411</ele>
        <time>2021-09-10T12:05:35.000Z</time>
      </trkpt>
      <trkpt lat="46.8307" lon="3.33187">
        <ele>191.239681</ele>
        <time>2021-09-10T12:05:39.000Z</time>
      </trkpt>
      <trkpt lat="46.83068" lon="3.33195">
        <ele>191.15562</ele>
        <time>2021-09-10T12:05:40.000Z</time>
      </trkpt>
      <trkpt lat="46.83057" lon="3.33254">
        <ele>190.543881</ele>
        <time>2021-09-10T12:05:47.000Z</time>
      </trkpt>
      <trkpt lat="46.83051" lon="3.33294">
        <ele>190.130862</ele>
        <time>2021-09-10T12:05:52.000Z</time>
      </trkpt>
      <trkpt lat="46.8305" lon="3.33302">
        <ele>190.0434</ele>
        <time>2021-09-10T12:05:53.000Z</time>
      </trkpt>
      <trkpt lat="46.83043" lon="3.33362">
        <ele>189.397543</ele>
        <time>2021-09-10T12:06:00.000Z</time>
      </trkpt>
      <trkpt lat="46.83038" lon="3.33418">
        <ele>188.802228</ele>
        <time>2021-09-10T12:06:06.000Z</time>
      </trkpt>
      <trkpt lat="46.83025" lon="3.3348">
        <ele>188.112177</ele>
        <time>2021-09-10T12:06:13.000Z</time>
      </trkpt>
      <trkpt lat="46.83018" lon="3.33505">
        <ele>187.825645</ele>
        <time>2021-09-10T12:06:16.000Z</time>
      </trkpt>
      <trkpt lat="46.83013" lon="3.33521">
        <ele>187.631937</ele>
        <time>2021-09-10T12:06:18.000Z</time>
      </trkpt>
      <trkpt lat="46.83003" lon="3.33552">
        <ele>187.32531</ele>
        <time>2021-09-10T12:06:22.000Z</time>
      </trkpt>
      <trkpt lat="46.83001" lon="3.33559">
        <ele>187.286429</ele>
        <time>2021-09-10T12:06:23.000Z</time>
      </trkpt>
      <trkpt lat="46.82982" lon="3.33611">
        <ele>187.006987</ele>
        <time>2021-09-10T12:06:30.000Z</time>
      </trkpt>
      <trkpt lat="46.82961" lon="3.3365">
        <ele>186.765219</ele>
        <time>2021-09-10T12:06:36.000Z</time>
      </trkpt>
      <trkpt lat="46.82945" lon="3.33673">
        <ele>186.60587</ele>
        <time>2021-09-10T12:06:40.000Z</time>
      </trkpt>
      <trkpt lat="46.82916" lon="3.33702">
        <ele>186.360931</ele>
        <time>2021-09-10T12:06:46.000Z</time>
      </trkpt>
      <trkpt lat="46.82886" lon="3.33729">
        <ele>186.113812</ele>
        <time>2021-09-10T12:06:52.000Z</time>
      </trkpt>
      <trkpt lat="46.82843" lon="3.33754">
        <ele>186.315304</ele>
        <time>2021-09-10T12:07:00.000Z</time>
      </trkpt>
      <trkpt lat="46.82812" lon="3.33777">
        <ele>186.480487</ele>
        <time>2021-09-10T12:07:06.000Z</time>
      </trkpt>
      <trkpt lat="46.82768" lon="3.33804">
        <ele>186.706306</ele>
        <time>2021-09-10T12:07:14.000Z</time>
      </trkpt>
      <trkpt lat="46.82732" lon="3.33833">
        <ele>186.902392</ele>
        <time>2021-09-10T12:07:21.000Z</time>
      </trkpt>
      <trkpt lat="46.82696" lon="3.33865">
        <ele>187.399279</ele>
        <time>2021-09-10T12:07:28.000Z</time>
      </trkpt>
      <trkpt lat="46.82691" lon="3.33869">
        <ele>187.485586</ele>
        <time>2021-09-10T12:07:29.000Z</time>
      </trkpt>
      <trkpt lat="46.82667" lon="3.33892">
        <ele>187.904573</ele>
        <time>2021-09-10T12:07:34.000Z</time>
      </trkpt>
      <trkpt lat="46.82658" lon="3.33901">
        <ele>188.071183</ele>
        <time>2021-09-10T12:07:36.000Z</time>
      </trkpt>
      <trkpt lat="46.82643" lon="3.33914">
        <ele>188.317969</ele>
        <time>2021-09-10T12:07:39.000Z</time>
      </trkpt>
      <trkpt lat="46.82611" lon="3.33947">
        <ele>188.896945</ele>
        <time>2021-09-10T12:07:46.000Z</time>
      </trkpt>
      <trkpt lat="46.82582" lon="3.33975">
        <ele>189.399813</ele>
        <time>2021-09-10T12:07:52.000Z</time>
      </trkpt>
      <trkpt lat="46.82577" lon="3.3398">
        <ele>189.485985</ele>
        <time>2021-09-10T12:07:53.000Z</time>
      </trkpt>
      <trkpt lat="46.82553" lon="3.34003">
        <ele>189.822721</ele>
        <time>2021-09-10T12:07:58.000Z</time>
      </trkpt>
      <trkpt lat="46.82524" lon="3.34032">
        <ele>190.2056</ele>
        <time>2021-09-10T12:08:04.000Z</time>
      </trkpt>
      <trkpt lat="46.82504" lon="3.34051">
        <ele>190.460853</ele>
        <time>2021-09-10T12:08:08.000Z</time>
      </trkpt>
      <trkpt lat="46.82499" lon="3.34056">
        <ele>190.524666</ele>
        <time>2021-09-10T12:08:09.000Z</time>
      </trkpt>
      <trkpt lat="46.82464" lon="3.3409">
        <ele>190.983157</ele>
        <time>2021-09-10T12:08:16.000Z</time>
      </trkpt>
      <trkpt lat="46.82454" lon="3.341">
        <ele>191.114716</ele>
        <time>2021-09-10T12:08:18.000Z</time>
      </trkpt>
      <trkpt lat="46.8244" lon="3.34114">
        <ele>191.300913</ele>
        <time>2021-09-10T12:08:21.000Z</time>
      </trkpt>
      <trkpt lat="46.824" lon="3.34153">
        <ele>191.566646</ele>
        <time>2021-09-10T12:08:29.000Z</time>
      </trkpt>
      <trkpt lat="46.8237" lon="3.34183">
        <ele>191.616688</ele>
        <time>2021-09-10T12:08:35.000Z</time>
      </trkpt>
      <trkpt lat="46.8233" lon="3.34222">
        <ele>191.682964</ele>
        <time>2021-09-10T12:08:43.000Z</time>
      </trkpt>
      <trkpt lat="46.82296" lon="3.34255">
        <ele>191.737939</ele>
        <time>2021-09-10T12:08:50.000Z</time>
      </trkpt>
      <trkpt lat="46.82261" lon="3.34288">
        <ele>191.656641</ele>
        <time>2021-09-10T12:08:57.000Z</time>
      </trkpt>
      <trkpt lat="46.82222" lon="3.34325">
        <ele>191.240858</ele>
        <time>2021-09-10T12:09:05.000Z</time>
      </trkpt>
      <trkpt lat="46.82189" lon="3.34357">
        <ele>190.884388</ele>
        <time>2021-09-10T12:09:12.000Z</time>
      </trkpt>
      <trkpt lat="46.82161" lon="3.34386">
        <ele>190.571516</ele>
        <time>2021-09-10T12:09:18.000Z</time>
      </trkpt>
      <trkpt lat="46.82125" lon="3.34427">
        <ele>190.161424</ele>
        <time>2021-09-10T12:09:26.000Z</time>
      </trkpt>
      <trkpt lat="46.82098" lon="3.34462">
        <ele>189.797589</ele>
        <time>2021-09-10T12:09:33.000Z</time>
      </trkpt>
      <trkpt lat="46.82076" lon="3.34494">
        <ele>189.481585</ele>
        <time>2021-09-10T12:09:39.000Z</time>
      </trkpt>
      <trkpt lat="46.82055" lon="3.34536">
        <ele>189.116984</ele>
        <time>2021-09-10T12:09:46.000Z</time>
      </trkpt>
      <trkpt lat="46.82028" lon="3.34588">
        <ele>188.666837</ele>
        <time>2021-09-10T12:09:54.000Z</time>
      </trkpt>
      <trkpt lat="46.82003" lon="3.34645">
        <ele>188.232532</ele>
        <time>2021-09-10T12:10:02.000Z</time>
      </trkpt>
      <trkpt lat="46.81989" lon="3.34677">
        <ele>188.040427</ele>
        <time>2021-09-10T12:10:07.000Z</time>
      </trkpt>
      <trkpt lat="46.8197" lon="3.34719">
        <ele>187.790824</ele>
        <time>2021-09-10T12:10:13.000Z</time>
      </trkpt>
      <trkpt lat="46.81954" lon="3.34755">
        <ele>187.574573</ele>
        <time>2021-09-10T12:10:18.000Z</time>
      </trkpt>
      <trkpt lat="46.81951" lon="3.34764">
        <ele>187.526845</ele>
        <time>2021-09-10T12:10:19.000Z</time>
      </trkpt>
      <trkpt lat="46.81938" lon="3.34815">
        <ele>187.252227</ele>
        <time>2021-09-10T12:10:25.000Z</time>
      </trkpt>
      <trkpt lat="46.81937" lon="3.34824">
        <ele>187.209057</ele>
        <time>2021-09-10T12:10:26.000Z</time>
      </trkpt>
      <trkpt lat="46.81935" lon="3.34859">
        <ele>187.035048</ele>
        <time>2021-09-10T12:10:30.000Z</time>
      </trkpt>
      <trkpt lat="46.81935" lon="3.34868">
        <ele>187.010899</ele>
        <time>2021-09-10T12:10:31.000Z</time>
      </trkpt>
      <trkpt lat="46.81937" lon="3.34904">
        <ele>186.964225</ele>
        <time>2021-09-10T12:10:35.000Z</time>
      </trkpt>
      <trkpt lat="46.8194" lon="3.3492">
        <ele>186.942462</ele>
        <time>2021-09-10T12:10:37.000Z</time>
      </trkpt>
      <trkpt lat="46.81946" lon="3.34945">
        <ele>186.908796</ele>
        <time>2021-09-10T12:10:40.000Z</time>
      </trkpt>
      <trkpt lat="46.8195" lon="3.34961">
        <ele>186.887205</ele>
        <time>2021-09-10T12:10:42.000Z</time>
      </trkpt>
      <trkpt lat="46.81957" lon="3.34978">
        <ele>186.862778</ele>
        <time>2021-09-10T12:10:44.000Z</time>
      </trkpt>
      <trkpt lat="46.81982" lon="3.35042">
        <ele>186.767549</ele>
        <time>2021-09-10T12:10:52.000Z</time>
      </trkpt>
      <trkpt lat="46.82001" lon="3.35088">
        <ele>186.698734</ele>
        <time>2021-09-10T12:10:58.000Z</time>
      </trkpt>
      <trkpt lat="46.8203" lon="3.35159">
        <ele>186.36931</ele>
        <time>2021-09-10T12:11:07.000Z</time>
      </trkpt>
      <trkpt lat="46.82053" lon="3.35225">
        <ele>186.037161</ele>
        <time>2021-09-10T12:11:15.000Z</time>
      </trkpt>
      <trkpt lat="46.82064" lon="3.35285">
        <ele>185.755955</ele>
        <time>2021-09-10T12:11:22.000Z</time>
      </trkpt>
      <trkpt lat="46.82066" lon="3.35348">
        <ele>185.45208</ele>
        <time>2021-09-10T12:11:29.000Z</time>
      </trkpt>
      <trkpt lat="46.82061" lon="3.35404">
        <ele>185.018972</ele>
        <time>2021-09-10T12:11:35.000Z</time>
      </trkpt>
      <trkpt lat="46.82047" lon="3.35453">
        <ele>184.603673</ele>
        <time>2021-09-10T12:11:41.000Z</time>
      </trkpt>
      <trkpt lat="46.82026" lon="3.35509">
        <ele>184.10733</ele>
        <time>2021-09-10T12:11:48.000Z</time>
      </trkpt>
      <trkpt lat="46.82001" lon="3.35554">
        <ele>183.660331</ele>
        <time>2021-09-10T12:11:54.000Z</time>
      </trkpt>
      <trkpt lat="46.81974" lon="3.35603">
        <ele>183.508917</ele>
        <time>2021-09-10T12:12:00.000Z</time>
      </trkpt>
      <trkpt lat="46.81946" lon="3.35658">
        <ele>183.590565</ele>
        <time>2021-09-10T12:12:07.000Z</time>
      </trkpt>
      <trkpt lat="46.81932" lon="3.35691">
        <ele>183.637193</ele>
        <time>2021-09-10T12:12:12.000Z</time>
      </trkpt>
      <trkpt lat="46.81925" lon="3.35706">
        <ele>183.65883</ele>
        <time>2021-09-10T12:12:16.000Z</time>
      </trkpt>
      <trkpt lat="46.81914" lon="3.35722">
        <ele>183.686095</ele>
        <time>2021-09-10T12:12:21.000Z</time>
      </trkpt>
      <trkpt lat="46.81897" lon="3.35749">
        <ele>183.729118</ele>
        <time>2021-09-10T12:12:25.000Z</time>
      </trkpt>
      <trkpt lat="46.81873" lon="3.3579">
        <ele>183.76769</ele>
        <time>2021-09-10T12:12:31.000Z</time>
      </trkpt>
      <trkpt lat="46.81838" lon="3.35852">
        <ele>183.700352</ele>
        <time>2021-09-10T12:12:40.000Z</time>
      </trkpt>
      <trkpt lat="46.81822" lon="3.35883">
        <ele>183.666749</ele>
        <time>2021-09-10T12:12:45.000Z</time>
      </trkpt>
      <trkpt lat="46.81818" lon="3.35889">
        <ele>183.660112</ele>
        <time>2021-09-10T12:12:46.000Z</time>
      </trkpt>
      <trkpt lat="46.81799" lon="3.35925">
        <ele>183.62124</ele>
        <time>2021-09-10T12:12:52.000Z</time>
      </trkpt>
      <trkpt lat="46.81782" lon="3.35956">
        <ele>183.587826</ele>
        <time>2021-09-10T12:12:57.000Z</time>
      </trkpt>
      <trkpt lat="46.81755" lon="3.36005">
        <ele>183.571465</ele>
        <time>2021-09-10T12:13:05.000Z</time>
      </trkpt>
      <trkpt lat="46.81733" lon="3.36046">
        <ele>183.601376</ele>
        <time>2021-09-10T12:13:12.000Z</time>
      </trkpt>
      <trkpt lat="46.81718" lon="3.36074">
        <ele>183.621953</ele>
        <time>2021-09-10T12:13:17.000Z</time>
      </trkpt>
      <trkpt lat="46.81712" lon="3.36084">
        <ele>183.629849</ele>
        <time>2021-09-10T12:13:19.000Z</time>
      </trkpt>
      <trkpt lat="46.81694" lon="3.36118">
        <ele>183.654924</ele>
        <time>2021-09-10T12:13:25.000Z</time>
      </trkpt>
      <trkpt lat="46.81668" lon="3.36167">
        <ele>183.690674</ele>
        <time>2021-09-10T12:13:33.000Z</time>
      </trkpt>
      <trkpt lat="46.81655" lon="3.36191">
        <ele>183.708335</ele>
        <time>2021-09-10T12:13:37.000Z</time>
      </trkpt>
      <trkpt lat="46.81645" lon="3.36208">
        <ele>183.773801</ele>
        <time>2021-09-10T12:13:40.000Z</time>
      </trkpt>
      <trkpt lat="46.81626" lon="3.36244">
        <ele>183.910417</ele>
        <time>2021-09-10T12:13:46.000Z</time>
      </trkpt>
      <trkpt lat="46.81602" lon="3.36288">
        <ele>184.081177</ele>
        <time>2021-09-10T12:13:53.000Z</time>
      </trkpt>
      <trkpt lat="46.81575" lon="3.36337">
        <ele>184.27062</ele>
        <time>2021-09-10T12:14:01.000Z</time>
      </trkpt>
      <trkpt lat="46.81555" lon="3.36374">
        <ele>184.410966</ele>
        <time>2021-09-10T12:14:07.000Z</time>
      </trkpt>
      <trkpt lat="46.81529" lon="3.36422">
        <ele>184.643728</ele>
        <time>2021-09-10T12:14:15.000Z</time>
      </trkpt>
      <trkpt lat="46.81506" lon="3.36465">
        <ele>184.894009</ele>
        <time>2021-09-10T12:14:22.000Z</time>
      </trkpt>
      <trkpt lat="46.81488" lon="3.36495">
        <ele>185.075671</ele>
        <time>2021-09-10T12:14:28.000Z</time>
      </trkpt>
      <trkpt lat="46.81474" lon="3.36516">
        <ele>185.210426</ele>
        <time>2021-09-10T12:14:34.000Z</time>
      </trkpt>
      <trkpt lat="46.81463" lon="3.36534">
        <ele>185.31899</ele>
        <time>2021-09-10T12:14:40.000Z</time>
      </trkpt>
      <trkpt lat="46.81451" lon="3.36551">
        <ele>185.430116</ele>
        <time>2021-09-10T12:14:47.000Z</time>
      </trkpt>
      <trkpt lat="46.8144" lon="3.36567">
        <ele>185.533657</ele>
        <time>2021-09-10T12:14:52.000Z</time>
      </trkpt>
      <trkpt lat="46.81431" lon="3.36588">
        <ele>185.646673</ele>
        <time>2021-09-10T12:14:57.000Z</time>
      </trkpt>
      <trkpt lat="46.81423" lon="3.36619">
        <ele>185.80331</ele>
        <time>2021-09-10T12:15:03.000Z</time>
      </trkpt>
      <trkpt lat="46.81407" lon="3.36648">
        <ele>185.980724</ele>
        <time>2021-09-10T12:15:09.000Z</time>
      </trkpt>
      <trkpt lat="46.81401" lon="3.36658">
        <ele>186.0425</ele>
        <time>2021-09-10T12:15:11.000Z</time>
      </trkpt>
      <trkpt lat="46.81392" lon="3.36675">
        <ele>186.146232</ele>
        <time>2021-09-10T12:15:15.000Z</time>
      </trkpt>
      <trkpt lat="46.8139" lon="3.36679">
        <ele>186.169609</ele>
        <time>2021-09-10T12:15:19.000Z</time>
      </trkpt>
      <trkpt lat="46.81386" lon="3.36686">
        <ele>186.213995</ele>
        <time>2021-09-10T12:17:26.000Z</time>
      </trkpt>
      <trkpt lat="46.81383" lon="3.36691">
        <ele>186.245288</ele>
        <time>2021-09-10T12:17:28.000Z</time>
      </trkpt>
      <trkpt lat="46.81375" lon="3.36706">
        <ele>186.339109</ele>
        <time>2021-09-10T12:17:32.000Z</time>
      </trkpt>
      <trkpt lat="46.81357" lon="3.3674">
        <ele>186.543079</ele>
        <time>2021-09-10T12:17:39.000Z</time>
      </trkpt>
      <trkpt lat="46.81344" lon="3.36763">
        <ele>186.686397</ele>
        <time>2021-09-10T12:17:44.000Z</time>
      </trkpt>
      <trkpt lat="46.81327" lon="3.36795">
        <ele>186.882332</ele>
        <time>2021-09-10T12:17:50.000Z</time>
      </trkpt>
      <trkpt lat="46.81306" lon="3.36833">
        <ele>186.943348</ele>
        <time>2021-09-10T12:17:57.000Z</time>
      </trkpt>
      <trkpt lat="46.81294" lon="3.36856">
        <ele>186.933869</ele>
        <time>2021-09-10T12:18:01.000Z</time>
      </trkpt>
      <trkpt lat="46.81288" lon="3.36868">
        <ele>186.928822</ele>
        <time>2021-09-10T12:18:03.000Z</time>
      </trkpt>
      <trkpt lat="46.81268" lon="3.36911">
        <ele>186.912143</ele>
        <time>2021-09-10T12:18:10.000Z</time>
      </trkpt>
      <trkpt lat="46.81257" lon="3.36936">
        <ele>186.90228</ele>
        <time>2021-09-10T12:18:16.000Z</time>
      </trkpt>
      <trkpt lat="46.81251" lon="3.36948">
        <ele>186.897506</ele>
        <time>2021-09-10T12:18:21.000Z</time>
      </trkpt>
      <trkpt lat="46.81244" lon="3.36966">
        <ele>186.890804</ele>
        <time>2021-09-10T12:18:25.000Z</time>
      </trkpt>
      <trkpt lat="46.81241" lon="3.36972">
        <ele>186.888452</ele>
        <time>2021-09-10T12:18:26.000Z</time>
      </trkpt>
      <trkpt lat="46.81234" lon="3.36984">
        <ele>186.883229</ele>
        <time>2021-09-10T12:18:28.000Z</time>
      </trkpt>
      <trkpt lat="46.8123" lon="3.3699">
        <ele>186.880393</ele>
        <time>2021-09-10T12:18:29.000Z</time>
      </trkpt>
      <trkpt lat="46.81219" lon="3.36999">
        <ele>186.874503</ele>
        <time>2021-09-10T12:18:31.000Z</time>
      </trkpt>
      <trkpt lat="46.81206" lon="3.37018">
        <ele>186.839448</ele>
        <time>2021-09-10T12:18:34.000Z</time>
      </trkpt>
      <trkpt lat="46.81184" lon="3.37058">
        <ele>186.647814</ele>
        <time>2021-09-10T12:18:40.000Z</time>
      </trkpt>
      <trkpt lat="46.81155" lon="3.37111">
        <ele>186.399576</ele>
        <time>2021-09-10T12:18:48.000Z</time>
      </trkpt>
      <trkpt lat="46.81128" lon="3.37159">
        <ele>186.174921</ele>
        <time>2021-09-10T12:18:55.000Z</time>
      </trkpt>
      <trkpt lat="46.81098" lon="3.37214">
        <ele>185.917295</ele>
        <time>2021-09-10T12:19:03.000Z</time>
      </trkpt>
      <trkpt lat="46.81087" lon="3.37234">
        <ele>185.818664</ele>
        <time>2021-09-10T12:19:06.000Z</time>
      </trkpt>
      <trkpt lat="46.81077" lon="3.37253">
        <ele>185.723546</ele>
        <time>2021-09-10T12:19:09.000Z</time>
      </trkpt>
      <trkpt lat="46.81063" lon="3.37279">
        <ele>185.598241</ele>
        <time>2021-09-10T12:19:13.000Z</time>
      </trkpt>
      <trkpt lat="46.81053" lon="3.37297">
        <ele>185.506056</ele>
        <time>2021-09-10T12:19:17.000Z</time>
      </trkpt>
      <trkpt lat="46.81042" lon="3.37318">
        <ele>185.404819</ele>
        <time>2021-09-10T12:19:23.000Z</time>
      </trkpt>
      <trkpt lat="46.81032" lon="3.37335">
        <ele>185.317741</ele>
        <time>2021-09-10T12:19:27.000Z</time>
      </trkpt>
      <trkpt lat="46.81016" lon="3.37367">
        <ele>185.163894</ele>
        <time>2021-09-10T12:19:32.000Z</time>
      </trkpt>
      <trkpt lat="46.81" lon="3.374">
        <ele>185.00752</ele>
        <time>2021-09-10T12:19:37.000Z</time>
      </trkpt>
      <trkpt lat="46.80994" lon="3.37415">
        <ele>184.93985</ele>
        <time>2021-09-10T12:19:39.000Z</time>
      </trkpt>
      <trkpt lat="46.80987" lon="3.37441">
        <ele>184.850251</ele>
        <time>2021-09-10T12:19:42.000Z</time>
      </trkpt>
      <trkpt lat="46.80982" lon="3.37468">
        <ele>184.777467</ele>
        <time>2021-09-10T12:19:45.000Z</time>
      </trkpt>
      <trkpt lat="46.80982" lon="3.37487">
        <ele>184.729008</ele>
        <time>2021-09-10T12:19:47.000Z</time>
      </trkpt>
      <trkpt lat="46.80987" lon="3.37522">
        <ele>184.637725</ele>
        <time>2021-09-10T12:19:51.000Z</time>
      </trkpt>
      <trkpt lat="46.8099" lon="3.3753">
        <ele>184.615197</ele>
        <time>2021-09-10T12:19:52.000Z</time>
      </trkpt>
      <trkpt lat="46.81008" lon="3.37571">
        <ele>184.487828</ele>
        <time>2021-09-10T12:19:58.000Z</time>
      </trkpt>
      <trkpt lat="46.81026" lon="3.37602">
        <ele>184.385418</ele>
        <time>2021-09-10T12:20:03.000Z</time>
      </trkpt>
      <trkpt lat="46.81029" lon="3.37607">
        <ele>184.368314</ele>
        <time>2021-09-10T12:20:04.000Z</time>
      </trkpt>
      <trkpt lat="46.81047" lon="3.37636">
        <ele>184.266322</ele>
        <time>2021-09-10T12:20:10.000Z</time>
      </trkpt>
      <trkpt lat="46.81053" lon="3.37644">
        <ele>184.237479</ele>
        <time>2021-09-10T12:20:12.000Z</time>
      </trkpt>
      <trkpt lat="46.81057" lon="3.37652">
        <ele>184.214339</ele>
        <time>2021-09-10T12:20:14.000Z</time>
      </trkpt>
      <trkpt lat="46.81076" lon="3.37681">
        <ele>184.324763</ele>
        <time>2021-09-10T12:20:20.000Z</time>
      </trkpt>
      <trkpt lat="46.81089" lon="3.37701">
        <ele>184.402612</ele>
        <time>2021-09-10T12:20:25.000Z</time>
      </trkpt>
      <trkpt lat="46.81108" lon="3.37726">
        <ele>184.50583</ele>
        <time>2021-09-10T12:20:31.000Z</time>
      </trkpt>
      <trkpt lat="46.81112" lon="3.37728">
        <ele>184.523085</ele>
        <time>2021-09-10T12:20:32.000Z</time>
      </trkpt>
      <trkpt lat="46.81125" lon="3.37735">
        <ele>184.576102</ele>
        <time>2021-09-10T12:20:35.000Z</time>
      </trkpt>
      <trkpt lat="46.81137" lon="3.3775">
        <ele>184.638794</ele>
        <time>2021-09-10T12:20:38.000Z</time>
      </trkpt>
      <trkpt lat="46.81144" lon="3.3776">
        <ele>184.681239</ele>
        <time>2021-09-10T12:20:40.000Z</time>
      </trkpt>
      <trkpt lat="46.81173" lon="3.37797">
        <ele>184.835479</ele>
        <time>2021-09-10T12:20:47.000Z</time>
      </trkpt>
      <trkpt lat="46.8121" lon="3.3785">
        <ele>184.831807</ele>
        <time>2021-09-10T12:20:56.000Z</time>
      </trkpt>
      <trkpt lat="46.81236" lon="3.37887">
        <ele>184.680144</ele>
        <time>2021-09-10T12:21:03.000Z</time>
      </trkpt>
      <trkpt lat="46.81265" lon="3.37935">
        <ele>184.498811</ele>
        <time>2021-09-10T12:21:11.000Z</time>
      </trkpt>
      <trkpt lat="46.81284" lon="3.37975">
        <ele>184.3599</ele>
        <time>2021-09-10T12:21:17.000Z</time>
      </trkpt>
      <trkpt lat="46.81302" lon="3.38018">
        <ele>184.215865</ele>
        <time>2021-09-10T12:21:23.000Z</time>
      </trkpt>
      <trkpt lat="46.81317" lon="3.38071">
        <ele>183.765406</ele>
        <time>2021-09-10T12:21:30.000Z</time>
      </trkpt>
      <trkpt lat="46.81327" lon="3.38119">
        <ele>183.324746</ele>
        <time>2021-09-10T12:21:36.000Z</time>
      </trkpt>
      <trkpt lat="46.81338" lon="3.38175">
        <ele>182.817178</ele>
        <time>2021-09-10T12:21:43.000Z</time>
      </trkpt>
      <trkpt lat="46.81347" lon="3.38224">
        <ele>182.36582</ele>
        <time>2021-09-10T12:21:49.000Z</time>
      </trkpt>
      <trkpt lat="46.81356" lon="3.38274">
        <ele>181.909382</ele>
        <time>2021-09-10T12:21:55.000Z</time>
      </trkpt>
      <trkpt lat="46.81364" lon="3.38314">
        <ele>181.894797</ele>
        <time>2021-09-10T12:22:00.000Z</time>
      </trkpt>
      <trkpt lat="46.81377" lon="3.38374">
        <ele>181.910093</ele>
        <time>2021-09-10T12:22:07.000Z</time>
      </trkpt>
      <trkpt lat="46.81396" lon="3.38436">
        <ele>181.927065</ele>
        <time>2021-09-10T12:22:15.000Z</time>
      </trkpt>
      <trkpt lat="46.81415" lon="3.38488">
        <ele>181.94128</ele>
        <time>2021-09-10T12:22:22.000Z</time>
      </trkpt>
      <trkpt lat="46.81438" lon="3.38548">
        <ele>181.950424</ele>
        <time>2021-09-10T12:22:30.000Z</time>
      </trkpt>
      <trkpt lat="46.81457" lon="3.38595">
        <ele>181.951362</ele>
        <time>2021-09-10T12:22:36.000Z</time>
      </trkpt>
      <trkpt lat="46.81482" lon="3.3866">
        <ele>181.952646</ele>
        <time>2021-09-10T12:22:44.000Z</time>
      </trkpt>
      <trkpt lat="46.815" lon="3.38708">
        <ele>181.953594</ele>
        <time>2021-09-10T12:22:50.000Z</time>
      </trkpt>
      <trkpt lat="46.81515" lon="3.38757">
        <ele>181.9621</ele>
        <time>2021-09-10T12:22:56.000Z</time>
      </trkpt>
      <trkpt lat="46.81526" lon="3.38817">
        <ele>182.014389</ele>
        <time>2021-09-10T12:23:03.000Z</time>
      </trkpt>
      <trkpt lat="46.81535" lon="3.38868">
        <ele>182.058317</ele>
        <time>2021-09-10T12:23:09.000Z</time>
      </trkpt>
      <trkpt lat="46.81541" lon="3.38932">
        <ele>182.113081</ele>
        <time>2021-09-10T12:23:16.000Z</time>
      </trkpt>
      <trkpt lat="46.81546" lon="3.38985">
        <ele>182.157905</ele>
        <time>2021-09-10T12:23:22.000Z</time>
      </trkpt>
      <trkpt lat="46.81547" lon="3.39003">
        <ele>182.173224</ele>
        <time>2021-09-10T12:23:24.000Z</time>
      </trkpt>
      <trkpt lat="46.81549" lon="3.3902">
        <ele>182.20447</ele>
        <time>2021-09-10T12:23:26.000Z</time>
      </trkpt>
      <trkpt lat="46.81555" lon="3.39085">
        <ele>182.339244</ele>
        <time>2021-09-10T12:23:33.000Z</time>
      </trkpt>
      <trkpt lat="46.81559" lon="3.39135">
        <ele>182.441295</ele>
        <time>2021-09-10T12:23:39.000Z</time>
      </trkpt>
      <trkpt lat="46.81564" lon="3.39196">
        <ele>182.566511</ele>
        <time>2021-09-10T12:23:46.000Z</time>
      </trkpt>
      <trkpt lat="46.8157" lon="3.39257">
        <ele>182.690717</ele>
        <time>2021-09-10T12:23:53.000Z</time>
      </trkpt>
      <trkpt lat="46.81575" lon="3.39315">
        <ele>183.165426</ele>
        <time>2021-09-10T12:24:00.000Z</time>
      </trkpt>
      <trkpt lat="46.81581" lon="3.39363">
        <ele>183.624221</ele>
        <time>2021-09-10T12:24:06.000Z</time>
      </trkpt>
      <trkpt lat="46.81583" lon="3.39378">
        <ele>183.762416</ele>
        <time>2021-09-10T12:24:08.000Z</time>
      </trkpt>
      <trkpt lat="46.81585" lon="3.39396">
        <ele>183.933413</ele>
        <time>2021-09-10T12:24:11.000Z</time>
      </trkpt>
      <trkpt lat="46.81587" lon="3.39421">
        <ele>184.167053</ele>
        <time>2021-09-10T12:24:17.000Z</time>
      </trkpt>
      <trkpt lat="46.81589" lon="3.39442">
        <ele>184.366053</ele>
        <time>2021-09-10T12:24:24.000Z</time>
      </trkpt>
      <trkpt lat="46.81592" lon="3.39466">
        <ele>184.592515</ele>
        <time>2021-09-10T12:24:28.000Z</time>
      </trkpt>
      <trkpt lat="46.81595" lon="3.39512">
        <ele>185.019689</ele>
        <time>2021-09-10T12:24:33.000Z</time>
      </trkpt>
      <trkpt lat="46.816" lon="3.39583">
        <ele>185.026147</ele>
        <time>2021-09-10T12:24:40.000Z</time>
      </trkpt>
      <trkpt lat="46.81604" lon="3.39637">
        <ele>184.902841</ele>
        <time>2021-09-10T12:24:46.000Z</time>
      </trkpt>
      <trkpt lat="46.81608" lon="3.3969">
        <ele>184.779762</ele>
        <time>2021-09-10T12:24:52.000Z</time>
      </trkpt>
      <trkpt lat="46.81609" lon="3.397">
        <ele>184.757714</ele>
        <time>2021-09-10T12:24:53.000Z</time>
      </trkpt>
      <trkpt lat="46.81613" lon="3.39738">
        <ele>184.669662</ele>
        <time>2021-09-10T12:24:57.000Z</time>
      </trkpt>
      <trkpt lat="46.81618" lon="3.39802">
        <ele>184.446629</ele>
        <time>2021-09-10T12:25:04.000Z</time>
      </trkpt>
      <trkpt lat="46.81622" lon="3.39836">
        <ele>184.193643</ele>
        <time>2021-09-10T12:25:08.000Z</time>
      </trkpt>
      <trkpt lat="46.81622" lon="3.39844">
        <ele>184.132161</ele>
        <time>2021-09-10T12:25:09.000Z</time>
      </trkpt>
      <trkpt lat="46.81627" lon="3.39897">
        <ele>183.73794</ele>
        <time>2021-09-10T12:25:15.000Z</time>
      </trkpt>
      <trkpt lat="46.81628" lon="3.39905">
        <ele>183.674841</ele>
        <time>2021-09-10T12:25:16.000Z</time>
      </trkpt>
      <trkpt lat="46.81636" lon="3.39976">
        <ele>183.140959</ele>
        <time>2021-09-10T12:25:24.000Z</time>
      </trkpt>
      <trkpt lat="46.81648" lon="3.4003">
        <ele>182.717836</ele>
        <time>2021-09-10T12:25:30.000Z</time>
      </trkpt>
      <trkpt lat="46.81656" lon="3.40056">
        <ele>182.584171</ele>
        <time>2021-09-10T12:25:33.000Z</time>
      </trkpt>
      <trkpt lat="46.81662" lon="3.40073">
        <ele>182.560691</ele>
        <time>2021-09-10T12:25:35.000Z</time>
      </trkpt>
      <trkpt lat="46.81665" lon="3.40081">
        <ele>182.549104</ele>
        <time>2021-09-10T12:25:36.000Z</time>
      </trkpt>
      <trkpt lat="46.81684" lon="3.40135">
        <ele>182.472149</ele>
        <time>2021-09-10T12:25:43.000Z</time>
      </trkpt>
      <trkpt lat="46.8171" lon="3.40183">
        <ele>182.395549</ele>
        <time>2021-09-10T12:25:50.000Z</time>
      </trkpt>
      <trkpt lat="46.81733" lon="3.40219">
        <ele>182.332476</ele>
        <time>2021-09-10T12:25:56.000Z</time>
      </trkpt>
      <trkpt lat="46.81758" lon="3.40252">
        <ele>182.27046</ele>
        <time>2021-09-10T12:26:02.000Z</time>
      </trkpt>
      <trkpt lat="46.81784" lon="3.40277">
        <ele>182.523749</ele>
        <time>2021-09-10T12:26:07.000Z</time>
      </trkpt>
      <trkpt lat="46.8182" lon="3.40309">
        <ele>182.890472</ele>
        <time>2021-09-10T12:26:14.000Z</time>
      </trkpt>
      <trkpt lat="46.81852" lon="3.40336">
        <ele>183.206472</ele>
        <time>2021-09-10T12:26:20.000Z</time>
      </trkpt>
      <trkpt lat="46.81894" lon="3.40372">
        <ele>183.627656</ele>
        <time>2021-09-10T12:26:28.000Z</time>
      </trkpt>
      <trkpt lat="46.8193" lon="3.40402">
        <ele>184.017656</ele>
        <time>2021-09-10T12:26:35.000Z</time>
      </trkpt>
      <trkpt lat="46.81971" lon="3.40442">
        <ele>184.518201</ele>
        <time>2021-09-10T12:26:43.000Z</time>
      </trkpt>
      <trkpt lat="46.82006" lon="3.4049">
        <ele>185.019114</ele>
        <time>2021-09-10T12:26:51.000Z</time>
      </trkpt>
      <trkpt lat="46.82032" lon="3.4054">
        <ele>185.459009</ele>
        <time>2021-09-10T12:26:58.000Z</time>
      </trkpt>
      <trkpt lat="46.82053" lon="3.40596">
        <ele>185.853663</ele>
        <time>2021-09-10T12:27:05.000Z</time>
      </trkpt>
      <trkpt lat="46.8207" lon="3.40664">
        <ele>186.241693</ele>
        <time>2021-09-10T12:27:13.000Z</time>
      </trkpt>
      <trkpt lat="46.82077" lon="3.40716">
        <ele>186.529835</ele>
        <time>2021-09-10T12:27:19.000Z</time>
      </trkpt>
      <trkpt lat="46.82079" lon="3.40743">
        <ele>186.672519</ele>
        <time>2021-09-10T12:27:22.000Z</time>
      </trkpt>
      <trkpt lat="46.82079" lon="3.40767">
        <ele>186.805243</ele>
        <time>2021-09-10T12:27:25.000Z</time>
      </trkpt>
      <trkpt lat="46.82077" lon="3.40832">
        <ele>187.221344</ele>
        <time>2021-09-10T12:27:32.000Z</time>
      </trkpt>
      <trkpt lat="46.8207" lon="3.40905">
        <ele>187.970999</ele>
        <time>2021-09-10T12:27:40.000Z</time>
      </trkpt>
      <trkpt lat="46.82063" lon="3.40986">
        <ele>188.813623</ele>
        <time>2021-09-10T12:27:49.000Z</time>
      </trkpt>
      <trkpt lat="46.82059" lon="3.41037">
        <ele>189.339177</ele>
        <time>2021-09-10T12:27:55.000Z</time>
      </trkpt>
      <trkpt lat="46.82053" lon="3.41106">
        <ele>190.223499</ele>
        <time>2021-09-10T12:28:03.000Z</time>
      </trkpt>
      <trkpt lat="46.82049" lon="3.41148">
        <ele>190.912937</ele>
        <time>2021-09-10T12:28:08.000Z</time>
      </trkpt>
      <trkpt lat="46.82048" lon="3.41161">
        <ele>191.143297</ele>
        <time>2021-09-10T12:28:10.000Z</time>
      </trkpt>
      <trkpt lat="46.82045" lon="3.41201">
        <ele>191.795984</ele>
        <time>2021-09-10T12:28:15.000Z</time>
      </trkpt>
      <trkpt lat="46.8204" lon="3.41258">
        <ele>192.747302</ele>
        <time>2021-09-10T12:28:22.000Z</time>
      </trkpt>
      <trkpt lat="46.82034" lon="3.41319">
        <ele>193.774069</ele>
        <time>2021-09-10T12:28:29.000Z</time>
      </trkpt>
      <trkpt lat="46.82027" lon="3.41394">
        <ele>195.191987</ele>
        <time>2021-09-10T12:28:38.000Z</time>
      </trkpt>
      <trkpt lat="46.82024" lon="3.41428">
        <ele>195.855369</ele>
        <time>2021-09-10T12:28:42.000Z</time>
      </trkpt>
      <trkpt lat="46.82022" lon="3.41445">
        <ele>196.184171</ele>
        <time>2021-09-10T12:28:44.000Z</time>
      </trkpt>
      <trkpt lat="46.82021" lon="3.41453">
        <ele>196.343548</ele>
        <time>2021-09-10T12:28:45.000Z</time>
      </trkpt>
      <trkpt lat="46.82019" lon="3.41476">
        <ele>196.806266</ele>
        <time>2021-09-10T12:28:48.000Z</time>
      </trkpt>
      <trkpt lat="46.82018" lon="3.41491">
        <ele>197.097631</ele>
        <time>2021-09-10T12:28:50.000Z</time>
      </trkpt>
      <trkpt lat="46.82015" lon="3.41515">
        <ele>197.571909</ele>
        <time>2021-09-10T12:28:53.000Z</time>
      </trkpt>
      <trkpt lat="46.82008" lon="3.41571">
        <ele>198.679125</ele>
        <time>2021-09-10T12:29:00.000Z</time>
      </trkpt>
      <trkpt lat="46.81996" lon="3.41628">
        <ele>199.723746</ele>
        <time>2021-09-10T12:29:07.000Z</time>
      </trkpt>
      <trkpt lat="46.81984" lon="3.41673">
        <ele>200.459597</ele>
        <time>2021-09-10T12:29:13.000Z</time>
      </trkpt>
      <trkpt lat="46.81975" lon="3.41709">
        <ele>201.054388</ele>
        <time>2021-09-10T12:29:18.000Z</time>
      </trkpt>
      <trkpt lat="46.81973" lon="3.41717">
        <ele>201.183103</ele>
        <time>2021-09-10T12:29:19.000Z</time>
      </trkpt>
      <trkpt lat="46.81964" lon="3.41755">
        <ele>201.80313</ele>
        <time>2021-09-10T12:29:24.000Z</time>
      </trkpt>
      <trkpt lat="46.81959" lon="3.41787">
        <ele>202.314098</ele>
        <time>2021-09-10T12:29:28.000Z</time>
      </trkpt>
      <trkpt lat="46.81957" lon="3.41804">
        <ele>202.575703</ele>
        <time>2021-09-10T12:29:30.000Z</time>
      </trkpt>
      <trkpt lat="46.81954" lon="3.41854">
        <ele>203.274824</ele>
        <time>2021-09-10T12:29:36.000Z</time>
      </trkpt>
      <trkpt lat="46.81954" lon="3.41862">
        <ele>203.201866</ele>
        <time>2021-09-10T12:29:37.000Z</time>
      </trkpt>
      <trkpt lat="46.81955" lon="3.41877">
        <ele>203.056941</ele>
        <time>2021-09-10T12:29:39.000Z</time>
      </trkpt>
      <trkpt lat="46.81956" lon="3.41926">
        <ele>202.595535</ele>
        <time>2021-09-10T12:29:45.000Z</time>
      </trkpt>
      <trkpt lat="46.81957" lon="3.41949">
        <ele>202.374758</ele>
        <time>2021-09-10T12:29:48.000Z</time>
      </trkpt>
      <trkpt lat="46.81959" lon="3.41966">
        <ele>202.216848</ele>
        <time>2021-09-10T12:29:50.000Z</time>
      </trkpt>
      <trkpt lat="46.81959" lon="3.41974">
        <ele>202.141589</ele>
        <time>2021-09-10T12:29:51.000Z</time>
      </trkpt>
      <trkpt lat="46.8196" lon="3.41989">
        <ele>201.992793</ele>
        <time>2021-09-10T12:29:53.000Z</time>
      </trkpt>
      <trkpt lat="46.81963" lon="3.42004">
        <ele>201.853964</ele>
        <time>2021-09-10T12:29:55.000Z</time>
      </trkpt>
      <trkpt lat="46.81969" lon="3.42039">
        <ele>201.507286</ele>
        <time>2021-09-10T12:30:00.000Z</time>
      </trkpt>
      <trkpt lat="46.81971" lon="3.42047">
        <ele>201.430935</ele>
        <time>2021-09-10T12:30:01.000Z</time>
      </trkpt>
      <trkpt lat="46.81978" lon="3.4208">
        <ele>201.098532</ele>
        <time>2021-09-10T12:30:05.000Z</time>
      </trkpt>
      <trkpt lat="46.81984" lon="3.42105">
        <ele>200.856625</ele>
        <time>2021-09-10T12:30:08.000Z</time>
      </trkpt>
      <trkpt lat="46.81987" lon="3.4212">
        <ele>200.620984</ele>
        <time>2021-09-10T12:30:10.000Z</time>
      </trkpt>
      <trkpt lat="46.81989" lon="3.42128">
        <ele>200.491769</ele>
        <time>2021-09-10T12:30:11.000Z</time>
      </trkpt>
      <trkpt lat="46.81998" lon="3.42169">
        <ele>199.804913</ele>
        <time>2021-09-10T12:30:16.000Z</time>
      </trkpt>
      <trkpt lat="46.82" lon="3.42177">
        <ele>199.662104</ele>
        <time>2021-09-10T12:30:17.000Z</time>
      </trkpt>
      <trkpt lat="46.82006" lon="3.42209">
        <ele>199.132822</ele>
        <time>2021-09-10T12:30:21.000Z</time>
      </trkpt>
      <trkpt lat="46.82011" lon="3.42259">
        <ele>198.33495</ele>
        <time>2021-09-10T12:30:27.000Z</time>
      </trkpt>
      <trkpt lat="46.82011" lon="3.42293">
        <ele>197.77734</ele>
        <time>2021-09-10T12:30:31.000Z</time>
      </trkpt>
      <trkpt lat="46.82011" lon="3.42302">
        <ele>197.644457</ele>
        <time>2021-09-10T12:30:32.000Z</time>
      </trkpt>
      <trkpt lat="46.82009" lon="3.42351">
        <ele>196.863086</ele>
        <time>2021-09-10T12:30:38.000Z</time>
      </trkpt>
      <trkpt lat="46.82002" lon="3.42381">
        <ele>196.483874</ele>
        <time>2021-09-10T12:30:43.000Z</time>
      </trkpt>
      <trkpt lat="46.81994" lon="3.42409">
        <ele>196.237538</ele>
        <time>2021-09-10T12:30:49.000Z</time>
      </trkpt>
      <trkpt lat="46.81982" lon="3.42435">
        <ele>195.987228</ele>
        <time>2021-09-10T12:30:56.000Z</time>
      </trkpt>
      <trkpt lat="46.81971" lon="3.42459">
        <ele>195.750906</ele>
        <time>2021-09-10T12:31:01.000Z</time>
      </trkpt>
      <trkpt lat="46.81955" lon="3.42483">
        <ele>195.483091</ele>
        <time>2021-09-10T12:31:05.000Z</time>
      </trkpt>
      <trkpt lat="46.81951" lon="3.42489">
        <ele>195.41245</ele>
        <time>2021-09-10T12:31:06.000Z</time>
      </trkpt>
      <trkpt lat="46.81946" lon="3.42496">
        <ele>195.338433</ele>
        <time>2021-09-10T12:31:07.000Z</time>
      </trkpt>
      <trkpt lat="46.81933" lon="3.42514">
        <ele>195.12679</ele>
        <time>2021-09-10T12:31:10.000Z</time>
      </trkpt>
      <trkpt lat="46.81907" lon="3.42554">
        <ele>194.681419</ele>
        <time>2021-09-10T12:31:17.000Z</time>
      </trkpt>
      <trkpt lat="46.81889" lon="3.42585">
        <ele>194.539247</ele>
        <time>2021-09-10T12:31:22.000Z</time>
      </trkpt>
      <trkpt lat="46.81885" lon="3.42591">
        <ele>194.555474</ele>
        <time>2021-09-10T12:31:23.000Z</time>
      </trkpt>
      <trkpt lat="46.81876" lon="3.42609">
        <ele>194.600445</ele>
        <time>2021-09-10T12:31:26.000Z</time>
      </trkpt>
      <trkpt lat="46.81867" lon="3.42628">
        <ele>194.647055</ele>
        <time>2021-09-10T12:31:29.000Z</time>
      </trkpt>
      <trkpt lat="46.81851" lon="3.4267">
        <ele>194.742534</ele>
        <time>2021-09-10T12:31:35.000Z</time>
      </trkpt>
      <trkpt lat="46.81839" lon="3.42711">
        <ele>194.831742</ele>
        <time>2021-09-10T12:31:41.000Z</time>
      </trkpt>
      <trkpt lat="46.81835" lon="3.42726">
        <ele>194.86375</ele>
        <time>2021-09-10T12:31:43.000Z</time>
      </trkpt>
      <trkpt lat="46.8183" lon="3.42749">
        <ele>194.911994</ele>
        <time>2021-09-10T12:31:46.000Z</time>
      </trkpt>
      <trkpt lat="46.81821" lon="3.42799">
        <ele>195.014103</ele>
        <time>2021-09-10T12:31:52.000Z</time>
      </trkpt>
      <trkpt lat="46.81813" lon="3.42858">
        <ele>195.85389</ele>
        <time>2021-09-10T12:31:59.000Z</time>
      </trkpt>
      <trkpt lat="46.8181" lon="3.42874">
        <ele>196.11214</ele>
        <time>2021-09-10T12:32:01.000Z</time>
      </trkpt>
      <trkpt lat="46.81808" lon="3.4289">
        <ele>196.360491</ele>
        <time>2021-09-10T12:32:03.000Z</time>
      </trkpt>
      <trkpt lat="46.81807" lon="3.42898">
        <ele>196.48714</ele>
        <time>2021-09-10T12:32:04.000Z</time>
      </trkpt>
      <trkpt lat="46.81799" lon="3.42956">
        <ele>197.396054</ele>
        <time>2021-09-10T12:32:11.000Z</time>
      </trkpt>
      <trkpt lat="46.8179" lon="3.43024">
        <ele>198.46107</ele>
        <time>2021-09-10T12:32:19.000Z</time>
      </trkpt>
      <trkpt lat="46.81789" lon="3.43032">
        <ele>198.584712</ele>
        <time>2021-09-10T12:32:20.000Z</time>
      </trkpt>
      <trkpt lat="46.81783" lon="3.43072">
        <ele>199.115392</ele>
        <time>2021-09-10T12:32:25.000Z</time>
      </trkpt>
      <trkpt lat="46.81774" lon="3.43139">
        <ele>199.499843</ele>
        <time>2021-09-10T12:32:33.000Z</time>
      </trkpt>
      <trkpt lat="46.81768" lon="3.43187">
        <ele>199.777632</ele>
        <time>2021-09-10T12:32:39.000Z</time>
      </trkpt>
      <trkpt lat="46.81759" lon="3.43252">
        <ele>200.157468</ele>
        <time>2021-09-10T12:32:47.000Z</time>
      </trkpt>
      <trkpt lat="46.81754" lon="3.43307">
        <ele>200.470318</ele>
        <time>2021-09-10T12:32:54.000Z</time>
      </trkpt>
      <trkpt lat="46.81755" lon="3.43334">
        <ele>200.38611</ele>
        <time>2021-09-10T12:32:57.000Z</time>
      </trkpt>
      <trkpt lat="46.81756" lon="3.43349">
        <ele>200.181466</ele>
        <time>2021-09-10T12:32:59.000Z</time>
      </trkpt>
      <trkpt lat="46.8176" lon="3.43378">
        <ele>199.805825</ele>
        <time>2021-09-10T12:33:04.000Z</time>
      </trkpt>
      <trkpt lat="46.81761" lon="3.43401">
        <ele>199.507568</ele>
        <time>2021-09-10T12:33:11.000Z</time>
      </trkpt>
      <trkpt lat="46.81762" lon="3.43421">
        <ele>199.259171</ele>
        <time>2021-09-10T12:33:17.000Z</time>
      </trkpt>
      <trkpt lat="46.81768" lon="3.43448">
        <ele>198.886336</ele>
        <time>2021-09-10T12:33:22.000Z</time>
      </trkpt>
      <trkpt lat="46.81772" lon="3.43471">
        <ele>198.590102</ele>
        <time>2021-09-10T12:33:25.000Z</time>
      </trkpt>
      <trkpt lat="46.81774" lon="3.43487">
        <ele>198.366672</ele>
        <time>2021-09-10T12:33:27.000Z</time>
      </trkpt>
      <trkpt lat="46.81777" lon="3.43505">
        <ele>198.128158</ele>
        <time>2021-09-10T12:33:29.000Z</time>
      </trkpt>
      <trkpt lat="46.81776" lon="3.43535">
        <ele>197.74717</ele>
        <time>2021-09-10T12:33:32.000Z</time>
      </trkpt>
      <trkpt lat="46.81785" lon="3.43584">
        <ele>197.065482</ele>
        <time>2021-09-10T12:33:38.000Z</time>
      </trkpt>
      <trkpt lat="46.81795" lon="3.43637">
        <ele>195.979763</ele>
        <time>2021-09-10T12:33:44.000Z</time>
      </trkpt>
      <trkpt lat="46.81807" lon="3.43703">
        <ele>194.650646</ele>
        <time>2021-09-10T12:33:52.000Z</time>
      </trkpt>
      <trkpt lat="46.81812" lon="3.43732">
        <ele>194.066348</ele>
        <time>2021-09-10T12:33:56.000Z</time>
      </trkpt>
      <trkpt lat="46.81815" lon="3.43748">
        <ele>193.760321</ele>
        <time>2021-09-10T12:33:58.000Z</time>
      </trkpt>
      <trkpt lat="46.81822" lon="3.43786">
        <ele>192.990758</ele>
        <time>2021-09-10T12:34:04.000Z</time>
      </trkpt>
      <trkpt lat="46.81823" lon="3.43793">
        <ele>192.852349</ele>
        <time>2021-09-10T12:34:05.000Z</time>
      </trkpt>
      <trkpt lat="46.8183" lon="3.4383">
        <ele>192.100416</ele>
        <time>2021-09-10T12:34:10.000Z</time>
      </trkpt>
      <trkpt lat="46.81832" lon="3.43837">
        <ele>191.944847</ele>
        <time>2021-09-10T12:34:11.000Z</time>
      </trkpt>
      <trkpt lat="46.8184" lon="3.43881">
        <ele>191.005227</ele>
        <time>2021-09-10T12:34:17.000Z</time>
      </trkpt>
      <trkpt lat="46.81843" lon="3.439">
        <ele>190.594865</ele>
        <time>2021-09-10T12:34:20.000Z</time>
      </trkpt>
      <trkpt lat="46.81846" lon="3.43915">
        <ele>190.280991</ele>
        <time>2021-09-10T12:34:22.000Z</time>
      </trkpt>
      <trkpt lat="46.81856" lon="3.43968">
        <ele>189.138802</ele>
        <time>2021-09-10T12:34:29.000Z</time>
      </trkpt>
      <trkpt lat="46.81863" lon="3.44005">
        <ele>188.334901</ele>
        <time>2021-09-10T12:34:34.000Z</time>
      </trkpt>
      <trkpt lat="46.81864" lon="3.44012">
        <ele>188.184371</ele>
        <time>2021-09-10T12:34:35.000Z</time>
      </trkpt>
      <trkpt lat="46.81872" lon="3.44053">
        <ele>187.309608</ele>
        <time>2021-09-10T12:34:41.000Z</time>
      </trkpt>
      <trkpt lat="46.81874" lon="3.44067">
        <ele>187.019357</ele>
        <time>2021-09-10T12:34:43.000Z</time>
      </trkpt>
      <trkpt lat="46.81877" lon="3.44081">
        <ele>186.703481</ele>
        <time>2021-09-10T12:34:45.000Z</time>
      </trkpt>
      <trkpt lat="46.81878" lon="3.44089">
        <ele>186.601253</ele>
        <time>2021-09-10T12:34:46.000Z</time>
      </trkpt>
      <trkpt lat="46.81889" lon="3.44147">
        <ele>186.601253</ele>
        <time>2021-09-10T12:34:53.000Z</time>
      </trkpt>
      <trkpt lat="46.81898" lon="3.44198">
        <ele>186.601253</ele>
        <time>2021-09-10T12:34:59.000Z</time>
      </trkpt>
      <trkpt lat="46.819" lon="3.44206">
        <ele>186.601253</ele>
        <time>2021-09-10T12:35:00.000Z</time>
      </trkpt>
      <trkpt lat="46.81903" lon="3.44221">
        <ele>186.601253</ele>
        <time>2021-09-10T12:35:02.000Z</time>
      </trkpt>
      <trkpt lat="46.81906" lon="3.44236">
        <ele>186.601253</ele>
        <time>2021-09-10T12:35:04.000Z</time>
      </trkpt>
      <trkpt lat="46.8191" lon="3.44258">
        <ele>186.601253</ele>
        <time>2021-09-10T12:35:07.000Z</time>
      </trkpt>
      <trkpt lat="46.81914" lon="3.4428">
        <ele>186.601253</ele>
        <time>2021-09-10T12:35:10.000Z</time>
      </trkpt>
      <trkpt lat="46.81918" lon="3.44303">
        <ele>186.601253</ele>
        <time>2021-09-10T12:35:13.000Z</time>
      </trkpt>
      <trkpt lat="46.81921" lon="3.4432">
        <ele>186.601253</ele>
        <time>2021-09-10T12:35:15.000Z</time>
      </trkpt>
      <trkpt lat="46.81924" lon="3.44336">
        <ele>186.601253</ele>
        <time>2021-09-10T12:35:17.000Z</time>
      </trkpt>
      <trkpt lat="46.81927" lon="3.44351">
        <ele>186.601253</ele>
        <time>2021-09-10T12:35:19.000Z</time>
      </trkpt>
      <trkpt lat="46.8193" lon="3.44366">
        <ele>186.601253</ele>
        <time>2021-09-10T12:35:21.000Z</time>
      </trkpt>
      <trkpt lat="46.81935" lon="3.44395">
        <ele>186.601253</ele>
        <time>2021-09-10T12:35:25.000Z</time>
      </trkpt>
      <trkpt lat="46.81937" lon="3.44408">
        <ele>186.601253</ele>
        <time>2021-09-10T12:35:27.000Z</time>
      </trkpt>
      <trkpt lat="46.81939" lon="3.44415">
        <ele>186.601253</ele>
        <time>2021-09-10T12:35:28.000Z</time>
      </trkpt>
      <trkpt lat="46.81943" lon="3.4444">
        <ele>186.601253</ele>
        <time>2021-09-10T12:35:32.000Z</time>
      </trkpt>
      <trkpt lat="46.81945" lon="3.44448">
        <ele>186.601253</ele>
        <time>2021-09-10T12:35:33.000Z</time>
      </trkpt>
    </trkseg>
  </trk>
  <trk>
    <name><![CDATA[Étape 7 : Decize - Charolles]]></name>
    <extensions>
      <line xmlns="http://www.topografix.com/GPX/gpx_style/0/2">
        <color>008800</color>
        <width>4</width>
      </line>
    </extensions>
    <trkseg>
      <trkpt lat="46.82722" lon="3.4572">
        <ele>196.520912</ele>
        <time>2021-09-11T05:16:00.000Z</time>
      </trkpt>
      <trkpt lat="46.82727" lon="3.45719">
        <ele>196.520912</ele>
        <time>2021-09-11T05:16:03.000Z</time>
      </trkpt>
      <trkpt lat="46.82727" lon="3.45719">
        <ele>196.520912</ele>
        <time>2021-09-11T05:16:05.000Z</time>
      </trkpt>
      <trkpt lat="46.82726" lon="3.45719">
        <ele>196.520912</ele>
        <time>2021-09-11T05:16:06.000Z</time>
      </trkpt>
      <trkpt lat="46.8272" lon="3.45721">
        <ele>196.520912</ele>
        <time>2021-09-11T05:16:10.000Z</time>
      </trkpt>
      <trkpt lat="46.82705" lon="3.45726">
        <ele>196.520912</ele>
        <time>2021-09-11T05:16:16.000Z</time>
      </trkpt>
      <trkpt lat="46.82685" lon="3.4573">
        <ele>196.520912</ele>
        <time>2021-09-11T05:16:23.000Z</time>
      </trkpt>
      <trkpt lat="46.82669" lon="3.4573">
        <ele>196.520912</ele>
        <time>2021-09-11T05:16:27.000Z</time>
      </trkpt>
      <trkpt lat="46.82656" lon="3.45728">
        <ele>196.520912</ele>
        <time>2021-09-11T05:16:31.000Z</time>
      </trkpt>
      <trkpt lat="46.8263" lon="3.45723">
        <ele>196.39694</ele>
        <time>2021-09-11T05:16:37.000Z</time>
      </trkpt>
      <trkpt lat="46.82586" lon="3.45709">
        <ele>196.00156</ele>
        <time>2021-09-11T05:16:44.000Z</time>
      </trkpt>
      <trkpt lat="46.82562" lon="3.45702">
        <ele>195.791472</ele>
        <time>2021-09-11T05:16:50.000Z</time>
      </trkpt>
      <trkpt lat="46.82541" lon="3.45696">
        <ele>195.595681</ele>
        <time>2021-09-11T05:16:53.000Z</time>
      </trkpt>
      <trkpt lat="46.82508" lon="3.45686">
        <ele>195.299343</ele>
        <time>2021-09-11T05:16:59.000Z</time>
      </trkpt>
      <trkpt lat="46.82496" lon="3.45683">
        <ele>195.197066</ele>
        <time>2021-09-11T05:17:01.000Z</time>
      </trkpt>
      <trkpt lat="46.82496" lon="3.45683">
        <ele>195.197066</ele>
        <time>2021-09-11T05:17:02.000Z</time>
      </trkpt>
      <trkpt lat="46.82468" lon="3.45675">
        <ele>194.945582</ele>
        <time>2021-09-11T05:17:05.000Z</time>
      </trkpt>
      <trkpt lat="46.82454" lon="3.45671">
        <ele>194.856954</ele>
        <time>2021-09-11T05:17:08.000Z</time>
      </trkpt>
      <trkpt lat="46.82426" lon="3.45663">
        <ele>194.699084</ele>
        <time>2021-09-11T05:17:13.000Z</time>
      </trkpt>
      <trkpt lat="46.82384" lon="3.45651">
        <ele>194.452961</ele>
        <time>2021-09-11T05:17:21.000Z</time>
      </trkpt>
      <trkpt lat="46.82366" lon="3.45645">
        <ele>194.35093</ele>
        <time>2021-09-11T05:17:24.000Z</time>
      </trkpt>
      <trkpt lat="46.82345" lon="3.45638">
        <ele>194.22556</ele>
        <time>2021-09-11T05:17:27.000Z</time>
      </trkpt>
      <trkpt lat="46.8234" lon="3.45637">
        <ele>194.195294</ele>
        <time>2021-09-11T05:17:29.000Z</time>
      </trkpt>
      <trkpt lat="46.82329" lon="3.45619">
        <ele>194.101704</ele>
        <time>2021-09-11T05:17:30.000Z</time>
      </trkpt>
      <trkpt lat="46.8233" lon="3.45611">
        <ele>194.07269</ele>
        <time>2021-09-11T05:17:31.000Z</time>
      </trkpt>
      <trkpt lat="46.82331" lon="3.45603">
        <ele>194.040126</ele>
        <time>2021-09-11T05:17:33.000Z</time>
      </trkpt>
      <trkpt lat="46.82339" lon="3.45544">
        <ele>193.918298</ele>
        <time>2021-09-11T05:17:40.000Z</time>
      </trkpt>
      <trkpt lat="46.82341" lon="3.45528">
        <ele>193.922076</ele>
        <time>2021-09-11T05:17:41.000Z</time>
      </trkpt>
      <trkpt lat="46.82342" lon="3.45507">
        <ele>193.92721</ele>
        <time>2021-09-11T05:17:45.000Z</time>
      </trkpt>
      <trkpt lat="46.82337" lon="3.45488">
        <ele>193.93183</ele>
        <time>2021-09-11T05:17:47.000Z</time>
      </trkpt>
      <trkpt lat="46.82331" lon="3.45481">
        <ele>193.934824</ele>
        <time>2021-09-11T05:17:49.000Z</time>
      </trkpt>
      <trkpt lat="46.8232" lon="3.45464">
        <ele>193.940202</ele>
        <time>2021-09-11T05:17:53.000Z</time>
      </trkpt>
      <trkpt lat="46.82306" lon="3.45463">
        <ele>193.944851</ele>
        <time>2021-09-11T05:17:57.000Z</time>
      </trkpt>
      <trkpt lat="46.82288" lon="3.45457">
        <ele>193.951453</ele>
        <time>2021-09-11T05:18:02.000Z</time>
      </trkpt>
      <trkpt lat="46.8228" lon="3.45455">
        <ele>193.9542</ele>
        <time>2021-09-11T05:18:04.000Z</time>
      </trkpt>
      <trkpt lat="46.82265" lon="3.45451">
        <ele>193.959558</ele>
        <time>2021-09-11T05:18:08.000Z</time>
      </trkpt>
      <trkpt lat="46.82261" lon="3.4545">
        <ele>193.960968</ele>
        <time>2021-09-11T05:18:09.000Z</time>
      </trkpt>
      <trkpt lat="46.82241" lon="3.45444">
        <ele>193.96777</ele>
        <time>2021-09-11T05:18:14.000Z</time>
      </trkpt>
      <trkpt lat="46.82225" lon="3.4544">
        <ele>193.97369</ele>
        <time>2021-09-11T05:18:18.000Z</time>
      </trkpt>
      <trkpt lat="46.82217" lon="3.45438">
        <ele>193.989501</ele>
        <time>2021-09-11T05:18:20.000Z</time>
      </trkpt>
      <trkpt lat="46.822" lon="3.45433">
        <ele>194.030385</ele>
        <time>2021-09-11T05:18:25.000Z</time>
      </trkpt>
      <trkpt lat="46.82186" lon="3.45429">
        <ele>194.063166</ele>
        <time>2021-09-11T05:18:30.000Z</time>
      </trkpt>
      <trkpt lat="46.82185" lon="3.45429">
        <ele>194.06627</ele>
        <time>2021-09-11T05:18:33.000Z</time>
      </trkpt>
      <trkpt lat="46.82185" lon="3.45429">
        <ele>194.066764</ele>
        <time>2021-09-11T05:19:18.000Z</time>
      </trkpt>
      <trkpt lat="46.82179" lon="3.45427">
        <ele>194.080325</ele>
        <time>2021-09-11T05:19:20.000Z</time>
      </trkpt>
      <trkpt lat="46.82164" lon="3.45423">
        <ele>194.117417</ele>
        <time>2021-09-11T05:19:24.000Z</time>
      </trkpt>
      <trkpt lat="46.82121" lon="3.45411">
        <ele>194.21944</ele>
        <time>2021-09-11T05:19:32.000Z</time>
      </trkpt>
      <trkpt lat="46.82061" lon="3.45394">
        <ele>194.361414</ele>
        <time>2021-09-11T05:19:42.000Z</time>
      </trkpt>
      <trkpt lat="46.82018" lon="3.45382">
        <ele>194.297427</ele>
        <time>2021-09-11T05:19:49.000Z</time>
      </trkpt>
      <trkpt lat="46.81982" lon="3.45372">
        <ele>194.177502</ele>
        <time>2021-09-11T05:19:55.000Z</time>
      </trkpt>
      <trkpt lat="46.81971" lon="3.45369">
        <ele>194.141173</ele>
        <time>2021-09-11T05:19:57.000Z</time>
      </trkpt>
      <trkpt lat="46.81957" lon="3.45373">
        <ele>194.095701</ele>
        <time>2021-09-11T05:19:59.000Z</time>
      </trkpt>
      <trkpt lat="46.81954" lon="3.45389">
        <ele>194.057652</ele>
        <time>2021-09-11T05:20:01.000Z</time>
      </trkpt>
      <trkpt lat="46.81953" lon="3.45398">
        <ele>194.037869</ele>
        <time>2021-09-11T05:20:02.000Z</time>
      </trkpt>
      <trkpt lat="46.81952" lon="3.45407">
        <ele>194.01823</ele>
        <time>2021-09-11T05:20:03.000Z</time>
      </trkpt>
      <trkpt lat="46.81947" lon="3.45434">
        <ele>193.955198</ele>
        <time>2021-09-11T05:20:06.000Z</time>
      </trkpt>
      <trkpt lat="46.8194" lon="3.45485">
        <ele>193.840184</ele>
        <time>2021-09-11T05:20:12.000Z</time>
      </trkpt>
      <trkpt lat="46.81934" lon="3.45521">
        <ele>193.688084</ele>
        <time>2021-09-11T05:20:17.000Z</time>
      </trkpt>
      <trkpt lat="46.81933" lon="3.45527">
        <ele>193.655306</ele>
        <time>2021-09-11T05:20:18.000Z</time>
      </trkpt>
      <trkpt lat="46.81929" lon="3.45555">
        <ele>193.510808</ele>
        <time>2021-09-11T05:20:23.000Z</time>
      </trkpt>
      <trkpt lat="46.81928" lon="3.4556">
        <ele>193.482208</ele>
        <time>2021-09-11T05:20:24.000Z</time>
      </trkpt>
      <trkpt lat="46.81919" lon="3.45567">
        <ele>193.406619</ele>
        <time>2021-09-11T05:20:26.000Z</time>
      </trkpt>
      <trkpt lat="46.81897" lon="3.45563">
        <ele>193.237266</ele>
        <time>2021-09-11T05:20:30.000Z</time>
      </trkpt>
      <trkpt lat="46.81885" lon="3.45562">
        <ele>193.150035</ele>
        <time>2021-09-11T05:20:32.000Z</time>
      </trkpt>
      <trkpt lat="46.81874" lon="3.4557">
        <ele>193.062351</ele>
        <time>2021-09-11T05:20:34.000Z</time>
      </trkpt>
      <trkpt lat="46.8187" lon="3.45586">
        <ele>192.971705</ele>
        <time>2021-09-11T05:20:36.000Z</time>
      </trkpt>
      <trkpt lat="46.8187" lon="3.45595">
        <ele>192.926421</ele>
        <time>2021-09-11T05:20:37.000Z</time>
      </trkpt>
      <trkpt lat="46.8187" lon="3.45638">
        <ele>192.704636</ele>
        <time>2021-09-11T05:20:42.000Z</time>
      </trkpt>
      <trkpt lat="46.81869" lon="3.45684">
        <ele>192.469394</ele>
        <time>2021-09-11T05:20:47.000Z</time>
      </trkpt>
      <trkpt lat="46.81859" lon="3.45751">
        <ele>192.298631</ele>
        <time>2021-09-11T05:20:54.000Z</time>
      </trkpt>
      <trkpt lat="46.81846" lon="3.45807">
        <ele>192.156408</ele>
        <time>2021-09-11T05:21:00.000Z</time>
      </trkpt>
      <trkpt lat="46.81844" lon="3.45816">
        <ele>192.133049</ele>
        <time>2021-09-11T05:21:01.000Z</time>
      </trkpt>
      <trkpt lat="46.8183" lon="3.4586">
        <ele>192.017158</ele>
        <time>2021-09-11T05:21:06.000Z</time>
      </trkpt>
      <trkpt lat="46.81812" lon="3.45913">
        <ele>191.874904</ele>
        <time>2021-09-11T05:21:12.000Z</time>
      </trkpt>
      <trkpt lat="46.81784" lon="3.45969">
        <ele>192.050193</ele>
        <time>2021-09-11T05:21:19.000Z</time>
      </trkpt>
      <trkpt lat="46.81753" lon="3.46019">
        <ele>192.355151</ele>
        <time>2021-09-11T05:21:26.000Z</time>
      </trkpt>
      <trkpt lat="46.81729" lon="3.46051">
        <ele>192.568831</ele>
        <time>2021-09-11T05:21:31.000Z</time>
      </trkpt>
      <trkpt lat="46.81724" lon="3.46058">
        <ele>192.611094</ele>
        <time>2021-09-11T05:21:32.000Z</time>
      </trkpt>
      <trkpt lat="46.81706" lon="3.46082">
        <ele>192.776074</ele>
        <time>2021-09-11T05:21:36.000Z</time>
      </trkpt>
      <trkpt lat="46.81697" lon="3.46095">
        <ele>192.860908</ele>
        <time>2021-09-11T05:21:38.000Z</time>
      </trkpt>
      <trkpt lat="46.81668" lon="3.46134">
        <ele>193.215161</ele>
        <time>2021-09-11T05:21:44.000Z</time>
      </trkpt>
      <trkpt lat="46.81639" lon="3.46173">
        <ele>193.714108</ele>
        <time>2021-09-11T05:21:50.000Z</time>
      </trkpt>
      <trkpt lat="46.81635" lon="3.4618">
        <ele>193.798016</ele>
        <time>2021-09-11T05:21:51.000Z</time>
      </trkpt>
      <trkpt lat="46.8162" lon="3.46199">
        <ele>194.053127</ele>
        <time>2021-09-11T05:21:54.000Z</time>
      </trkpt>
      <trkpt lat="46.81593" lon="3.4624">
        <ele>194.547095</ele>
        <time>2021-09-11T05:22:00.000Z</time>
      </trkpt>
      <trkpt lat="46.81589" lon="3.46247">
        <ele>194.6284</ele>
        <time>2021-09-11T05:22:01.000Z</time>
      </trkpt>
      <trkpt lat="46.81563" lon="3.46289">
        <ele>195.117736</ele>
        <time>2021-09-11T05:22:07.000Z</time>
      </trkpt>
      <trkpt lat="46.8155" lon="3.46309">
        <ele>195.339913</ele>
        <time>2021-09-11T05:22:10.000Z</time>
      </trkpt>
      <trkpt lat="46.81538" lon="3.46329">
        <ele>195.507396</ele>
        <time>2021-09-11T05:22:13.000Z</time>
      </trkpt>
      <trkpt lat="46.8153" lon="3.46342">
        <ele>195.612279</ele>
        <time>2021-09-11T05:22:15.000Z</time>
      </trkpt>
      <trkpt lat="46.81517" lon="3.46363">
        <ele>195.780815</ele>
        <time>2021-09-11T05:22:18.000Z</time>
      </trkpt>
      <trkpt lat="46.81501" lon="3.46391">
        <ele>196.007229</ele>
        <time>2021-09-11T05:22:22.000Z</time>
      </trkpt>
      <trkpt lat="46.81493" lon="3.46406">
        <ele>196.121454</ele>
        <time>2021-09-11T05:22:24.000Z</time>
      </trkpt>
      <trkpt lat="46.8147" lon="3.46449">
        <ele>196.454019</ele>
        <time>2021-09-11T05:22:30.000Z</time>
      </trkpt>
      <trkpt lat="46.81451" lon="3.46486">
        <ele>196.736592</ele>
        <time>2021-09-11T05:22:35.000Z</time>
      </trkpt>
      <trkpt lat="46.81426" lon="3.46542">
        <ele>196.870411</ele>
        <time>2021-09-11T05:22:42.000Z</time>
      </trkpt>
      <trkpt lat="46.81407" lon="3.46592">
        <ele>196.816881</ele>
        <time>2021-09-11T05:22:48.000Z</time>
      </trkpt>
      <trkpt lat="46.81402" lon="3.46608">
        <ele>196.800402</ele>
        <time>2021-09-11T05:22:50.000Z</time>
      </trkpt>
      <trkpt lat="46.81387" lon="3.46659">
        <ele>196.748526</ele>
        <time>2021-09-11T05:22:56.000Z</time>
      </trkpt>
      <trkpt lat="46.81384" lon="3.46668">
        <ele>196.739888</ele>
        <time>2021-09-11T05:22:57.000Z</time>
      </trkpt>
      <trkpt lat="46.81376" lon="3.46703">
        <ele>196.705343</ele>
        <time>2021-09-11T05:23:01.000Z</time>
      </trkpt>
      <trkpt lat="46.81361" lon="3.46764">
        <ele>196.597499</ele>
        <time>2021-09-11T05:23:08.000Z</time>
      </trkpt>
      <trkpt lat="46.81348" lon="3.46808">
        <ele>196.434105</ele>
        <time>2021-09-11T05:23:14.000Z</time>
      </trkpt>
      <trkpt lat="46.81348" lon="3.46839">
        <ele>196.325445</ele>
        <time>2021-09-11T05:23:20.000Z</time>
      </trkpt>
      <trkpt lat="46.81344" lon="3.46855">
        <ele>196.265984</ele>
        <time>2021-09-11T05:23:22.000Z</time>
      </trkpt>
      <trkpt lat="46.81337" lon="3.46877">
        <ele>196.1854</ele>
        <time>2021-09-11T05:23:25.000Z</time>
      </trkpt>
      <trkpt lat="46.81328" lon="3.46913">
        <ele>196.051567</ele>
        <time>2021-09-11T05:23:29.000Z</time>
      </trkpt>
      <trkpt lat="46.81316" lon="3.4696">
        <ele>195.877447</ele>
        <time>2021-09-11T05:23:34.000Z</time>
      </trkpt>
      <trkpt lat="46.81306" lon="3.47008">
        <ele>195.687837</ele>
        <time>2021-09-11T05:23:39.000Z</time>
      </trkpt>
      <trkpt lat="46.81296" lon="3.47055">
        <ele>195.463707</ele>
        <time>2021-09-11T05:23:44.000Z</time>
      </trkpt>
      <trkpt lat="46.81281" lon="3.47109">
        <ele>195.198011</ele>
        <time>2021-09-11T05:23:50.000Z</time>
      </trkpt>
      <trkpt lat="46.81262" lon="3.47172">
        <ele>194.883095</ele>
        <time>2021-09-11T05:23:57.000Z</time>
      </trkpt>
      <trkpt lat="46.8126" lon="3.4718">
        <ele>194.841912</ele>
        <time>2021-09-11T05:23:58.000Z</time>
      </trkpt>
      <trkpt lat="46.81244" lon="3.47212">
        <ele>194.663015</ele>
        <time>2021-09-11T05:24:02.000Z</time>
      </trkpt>
      <trkpt lat="46.81232" lon="3.47231">
        <ele>194.539522</ele>
        <time>2021-09-11T05:24:05.000Z</time>
      </trkpt>
      <trkpt lat="46.81228" lon="3.47237">
        <ele>194.48636</ele>
        <time>2021-09-11T05:24:06.000Z</time>
      </trkpt>
      <trkpt lat="46.81225" lon="3.47243">
        <ele>194.431018</ele>
        <time>2021-09-11T05:24:07.000Z</time>
      </trkpt>
      <trkpt lat="46.81215" lon="3.47262">
        <ele>194.262728</ele>
        <time>2021-09-11T05:24:10.000Z</time>
      </trkpt>
      <trkpt lat="46.81198" lon="3.47307">
        <ele>193.913542</ele>
        <time>2021-09-11T05:24:16.000Z</time>
      </trkpt>
      <trkpt lat="46.81165" lon="3.47378">
        <ele>193.316796</ele>
        <time>2021-09-11T05:24:26.000Z</time>
      </trkpt>
      <trkpt lat="46.81152" lon="3.47407">
        <ele>193.081334</ele>
        <time>2021-09-11T05:24:30.000Z</time>
      </trkpt>
      <trkpt lat="46.81146" lon="3.47422">
        <ele>192.958778</ele>
        <time>2021-09-11T05:24:32.000Z</time>
      </trkpt>
      <trkpt lat="46.81132" lon="3.47451">
        <ele>192.681564</ele>
        <time>2021-09-11T05:24:36.000Z</time>
      </trkpt>
      <trkpt lat="46.81126" lon="3.47466">
        <ele>192.395589</ele>
        <time>2021-09-11T05:24:38.000Z</time>
      </trkpt>
      <trkpt lat="46.81108" lon="3.47511">
        <ele>191.551551</ele>
        <time>2021-09-11T05:24:44.000Z</time>
      </trkpt>
      <trkpt lat="46.81088" lon="3.47577">
        <ele>190.373563</ele>
        <time>2021-09-11T05:24:52.000Z</time>
      </trkpt>
      <trkpt lat="46.81079" lon="3.47609">
        <ele>189.807789</ele>
        <time>2021-09-11T05:24:56.000Z</time>
      </trkpt>
      <trkpt lat="46.81077" lon="3.47617">
        <ele>189.669247</ele>
        <time>2021-09-11T05:24:57.000Z</time>
      </trkpt>
      <trkpt lat="46.81071" lon="3.47649">
        <ele>189.137414</ele>
        <time>2021-09-11T05:25:01.000Z</time>
      </trkpt>
      <trkpt lat="46.81069" lon="3.47664">
        <ele>188.881543</ele>
        <time>2021-09-11T05:25:03.000Z</time>
      </trkpt>
      <trkpt lat="46.81063" lon="3.47705">
        <ele>187.866352</ele>
        <time>2021-09-11T05:25:08.000Z</time>
      </trkpt>
      <trkpt lat="46.81061" lon="3.47722">
        <ele>187.232564</ele>
        <time>2021-09-11T05:25:10.000Z</time>
      </trkpt>
      <trkpt lat="46.81058" lon="3.47747">
        <ele>186.242383</ele>
        <time>2021-09-11T05:25:13.000Z</time>
      </trkpt>
      <trkpt lat="46.81055" lon="3.47775">
        <ele>185.197204</ele>
        <time>2021-09-11T05:25:16.000Z</time>
      </trkpt>
      <trkpt lat="46.81049" lon="3.4782">
        <ele>183.470954</ele>
        <time>2021-09-11T05:25:21.000Z</time>
      </trkpt>
      <trkpt lat="46.81047" lon="3.4786">
        <ele>181.933161</ele>
        <time>2021-09-11T05:25:26.000Z</time>
      </trkpt>
      <trkpt lat="46.81043" lon="3.47919">
        <ele>179.700486</ele>
        <time>2021-09-11T05:25:33.000Z</time>
      </trkpt>
      <trkpt lat="46.81045" lon="3.47959">
        <ele>178.299717</ele>
        <time>2021-09-11T05:25:38.000Z</time>
      </trkpt>
      <trkpt lat="46.81046" lon="3.47982">
        <ele>177.660448</ele>
        <time>2021-09-11T05:25:41.000Z</time>
      </trkpt>
      <trkpt lat="46.81047" lon="3.47991">
        <ele>177.425595</ele>
        <time>2021-09-11T05:25:42.000Z</time>
      </trkpt>
      <trkpt lat="46.81048" lon="3.48">
        <ele>177.177671</ele>
        <time>2021-09-11T05:25:43.000Z</time>
      </trkpt>
      <trkpt lat="46.81051" lon="3.48029">
        <ele>176.401404</ele>
        <time>2021-09-11T05:25:46.000Z</time>
      </trkpt>
      <trkpt lat="46.81058" lon="3.48088">
        <ele>174.766712</ele>
        <time>2021-09-11T05:25:53.000Z</time>
      </trkpt>
      <trkpt lat="46.81065" lon="3.48144">
        <ele>173.235405</ele>
        <time>2021-09-11T05:26:00.000Z</time>
      </trkpt>
      <trkpt lat="46.81066" lon="3.48152">
        <ele>173.024581</ele>
        <time>2021-09-11T05:26:01.000Z</time>
      </trkpt>
      <trkpt lat="46.81068" lon="3.48167">
        <ele>172.606294</ele>
        <time>2021-09-11T05:26:03.000Z</time>
      </trkpt>
      <trkpt lat="46.81069" lon="3.48175">
        <ele>172.393515</ele>
        <time>2021-09-11T05:26:04.000Z</time>
      </trkpt>
      <trkpt lat="46.81074" lon="3.48216">
        <ele>171.384457</ele>
        <time>2021-09-11T05:26:09.000Z</time>
      </trkpt>
      <trkpt lat="46.81077" lon="3.48233">
        <ele>171.16973</ele>
        <time>2021-09-11T05:26:11.000Z</time>
      </trkpt>
      <trkpt lat="46.81081" lon="3.48269">
        <ele>170.73192</ele>
        <time>2021-09-11T05:26:15.000Z</time>
      </trkpt>
      <trkpt lat="46.81082" lon="3.48278">
        <ele>170.620975</ele>
        <time>2021-09-11T05:26:16.000Z</time>
      </trkpt>
      <trkpt lat="46.81086" lon="3.48331">
        <ele>169.973711</ele>
        <time>2021-09-11T05:26:22.000Z</time>
      </trkpt>
      <trkpt lat="46.81094" lon="3.48393">
        <ele>169.203688</ele>
        <time>2021-09-11T05:26:29.000Z</time>
      </trkpt>
      <trkpt lat="46.81094" lon="3.48461">
        <ele>168.379705</ele>
        <time>2021-09-11T05:26:36.000Z</time>
      </trkpt>
      <trkpt lat="46.81089" lon="3.48523">
        <ele>168.404659</ele>
        <time>2021-09-11T05:26:43.000Z</time>
      </trkpt>
      <trkpt lat="46.81084" lon="3.48577">
        <ele>168.532042</ele>
        <time>2021-09-11T05:26:49.000Z</time>
      </trkpt>
      <trkpt lat="46.81083" lon="3.48587">
        <ele>168.555414</ele>
        <time>2021-09-11T05:26:50.000Z</time>
      </trkpt>
      <trkpt lat="46.81076" lon="3.48624">
        <ele>168.644633</ele>
        <time>2021-09-11T05:26:54.000Z</time>
      </trkpt>
      <trkpt lat="46.81062" lon="3.48676">
        <ele>168.774724</ele>
        <time>2021-09-11T05:27:00.000Z</time>
      </trkpt>
      <trkpt lat="46.81051" lon="3.4871">
        <ele>168.860557</ele>
        <time>2021-09-11T05:27:04.000Z</time>
      </trkpt>
      <trkpt lat="46.81045" lon="3.48726">
        <ele>169.012444</ele>
        <time>2021-09-11T05:27:06.000Z</time>
      </trkpt>
      <trkpt lat="46.81035" lon="3.48749">
        <ele>169.539562</ele>
        <time>2021-09-11T05:27:09.000Z</time>
      </trkpt>
      <trkpt lat="46.81026" lon="3.48773">
        <ele>170.081431</ele>
        <time>2021-09-11T05:27:12.000Z</time>
      </trkpt>
      <trkpt lat="46.81016" lon="3.48796">
        <ele>170.62984</ele>
        <time>2021-09-11T05:27:15.000Z</time>
      </trkpt>
      <trkpt lat="46.81009" lon="3.48812">
        <ele>170.986222</ele>
        <time>2021-09-11T05:27:17.000Z</time>
      </trkpt>
      <trkpt lat="46.8098" lon="3.48881">
        <ele>172.595568</ele>
        <time>2021-09-11T05:27:26.000Z</time>
      </trkpt>
      <trkpt lat="46.80973" lon="3.48897">
        <ele>172.95363</ele>
        <time>2021-09-11T05:27:28.000Z</time>
      </trkpt>
      <trkpt lat="46.80957" lon="3.48935">
        <ele>173.850213</ele>
        <time>2021-09-11T05:27:33.000Z</time>
      </trkpt>
      <trkpt lat="46.80947" lon="3.48958">
        <ele>174.331213</ele>
        <time>2021-09-11T05:27:36.000Z</time>
      </trkpt>
      <trkpt lat="46.80941" lon="3.48973">
        <ele>174.636764</ele>
        <time>2021-09-11T05:27:38.000Z</time>
      </trkpt>
      <trkpt lat="46.80938" lon="3.48981">
        <ele>174.784606</ele>
        <time>2021-09-11T05:27:39.000Z</time>
      </trkpt>
      <trkpt lat="46.80928" lon="3.49003">
        <ele>175.229438</ele>
        <time>2021-09-11T05:27:42.000Z</time>
      </trkpt>
      <trkpt lat="46.80906" lon="3.49055">
        <ele>176.271017</ele>
        <time>2021-09-11T05:27:49.000Z</time>
      </trkpt>
      <trkpt lat="46.80882" lon="3.49094">
        <ele>177.173518</ele>
        <time>2021-09-11T05:27:56.000Z</time>
      </trkpt>
      <trkpt lat="46.80874" lon="3.49106">
        <ele>177.457564</ele>
        <time>2021-09-11T05:27:57.000Z</time>
      </trkpt>
      <trkpt lat="46.80858" lon="3.49129">
        <ele>178.005168</ele>
        <time>2021-09-11T05:28:01.000Z</time>
      </trkpt>
      <trkpt lat="46.80845" lon="3.49145">
        <ele>178.431363</ele>
        <time>2021-09-11T05:28:04.000Z</time>
      </trkpt>
      <trkpt lat="46.80834" lon="3.49164">
        <ele>178.831437</ele>
        <time>2021-09-11T05:28:07.000Z</time>
      </trkpt>
      <trkpt lat="46.80824" lon="3.49174">
        <ele>179.098014</ele>
        <time>2021-09-11T05:28:09.000Z</time>
      </trkpt>
      <trkpt lat="46.80815" lon="3.49185">
        <ele>179.370964</ele>
        <time>2021-09-11T05:28:11.000Z</time>
      </trkpt>
      <trkpt lat="46.80775" lon="3.49226">
        <ele>180.452376</ele>
        <time>2021-09-11T05:28:19.000Z</time>
      </trkpt>
      <trkpt lat="46.80754" lon="3.49242">
        <ele>180.998699</ele>
        <time>2021-09-11T05:28:23.000Z</time>
      </trkpt>
      <trkpt lat="46.80748" lon="3.49246">
        <ele>181.133933</ele>
        <time>2021-09-11T05:28:24.000Z</time>
      </trkpt>
      <trkpt lat="46.8072" lon="3.4926">
        <ele>181.808232</ele>
        <time>2021-09-11T05:28:29.000Z</time>
      </trkpt>
      <trkpt lat="46.80714" lon="3.49261">
        <ele>181.941408</ele>
        <time>2021-09-11T05:28:30.000Z</time>
      </trkpt>
      <trkpt lat="46.80691" lon="3.49264">
        <ele>182.469038</ele>
        <time>2021-09-11T05:28:34.000Z</time>
      </trkpt>
      <trkpt lat="46.80679" lon="3.49264">
        <ele>182.723223</ele>
        <time>2021-09-11T05:28:36.000Z</time>
      </trkpt>
      <trkpt lat="46.80668" lon="3.49263">
        <ele>182.958877</ele>
        <time>2021-09-11T05:28:38.000Z</time>
      </trkpt>
      <trkpt lat="46.80645" lon="3.49257">
        <ele>183.444196</ele>
        <time>2021-09-11T05:28:42.000Z</time>
      </trkpt>
      <trkpt lat="46.80629" lon="3.4925">
        <ele>183.810002</ele>
        <time>2021-09-11T05:28:45.000Z</time>
      </trkpt>
      <trkpt lat="46.80618" lon="3.49245">
        <ele>184.050759</ele>
        <time>2021-09-11T05:28:47.000Z</time>
      </trkpt>
      <trkpt lat="46.80613" lon="3.49241">
        <ele>184.173858</ele>
        <time>2021-09-11T05:28:48.000Z</time>
      </trkpt>
      <trkpt lat="46.80592" lon="3.49225">
        <ele>184.672649</ele>
        <time>2021-09-11T05:28:52.000Z</time>
      </trkpt>
      <trkpt lat="46.80587" lon="3.4922">
        <ele>184.799318</ele>
        <time>2021-09-11T05:28:53.000Z</time>
      </trkpt>
      <trkpt lat="46.8056" lon="3.49187">
        <ele>185.55212</ele>
        <time>2021-09-11T05:28:59.000Z</time>
      </trkpt>
      <trkpt lat="46.80538" lon="3.49148">
        <ele>186.278025</ele>
        <time>2021-09-11T05:29:05.000Z</time>
      </trkpt>
      <trkpt lat="46.80535" lon="3.49142">
        <ele>186.389569</ele>
        <time>2021-09-11T05:29:06.000Z</time>
      </trkpt>
      <trkpt lat="46.80523" lon="3.49125">
        <ele>186.795351</ele>
        <time>2021-09-11T05:29:09.000Z</time>
      </trkpt>
      <trkpt lat="46.80495" lon="3.49088">
        <ele>187.732973</ele>
        <time>2021-09-11T05:29:16.000Z</time>
      </trkpt>
      <trkpt lat="46.80475" lon="3.49065">
        <ele>188.360734</ele>
        <time>2021-09-11T05:29:21.000Z</time>
      </trkpt>
      <trkpt lat="46.80455" lon="3.49049">
        <ele>188.91074</ele>
        <time>2021-09-11T05:29:25.000Z</time>
      </trkpt>
      <trkpt lat="46.80451" lon="3.49046">
        <ele>189.033676</ele>
        <time>2021-09-11T05:29:26.000Z</time>
      </trkpt>
      <trkpt lat="46.80431" lon="3.49033">
        <ele>189.570066</ele>
        <time>2021-09-11T05:29:30.000Z</time>
      </trkpt>
      <trkpt lat="46.80413" lon="3.49024">
        <ele>190.03206</ele>
        <time>2021-09-11T05:29:34.000Z</time>
      </trkpt>
      <trkpt lat="46.80391" lon="3.49015">
        <ele>190.604625</ele>
        <time>2021-09-11T05:29:38.000Z</time>
      </trkpt>
      <trkpt lat="46.80356" lon="3.49006">
        <ele>191.46083</ele>
        <time>2021-09-11T05:29:44.000Z</time>
      </trkpt>
      <trkpt lat="46.80331" lon="3.49006">
        <ele>192.059784</ele>
        <time>2021-09-11T05:29:48.000Z</time>
      </trkpt>
      <trkpt lat="46.80325" lon="3.49006">
        <ele>192.210929</ele>
        <time>2021-09-11T05:29:49.000Z</time>
      </trkpt>
      <trkpt lat="46.80306" lon="3.4901">
        <ele>192.66559</ele>
        <time>2021-09-11T05:29:52.000Z</time>
      </trkpt>
      <trkpt lat="46.80287" lon="3.49015">
        <ele>193.119602</ele>
        <time>2021-09-11T05:29:55.000Z</time>
      </trkpt>
      <trkpt lat="46.80252" lon="3.49029">
        <ele>194.000344</ele>
        <time>2021-09-11T05:30:01.000Z</time>
      </trkpt>
      <trkpt lat="46.80235" lon="3.49038">
        <ele>194.434283</ele>
        <time>2021-09-11T05:30:04.000Z</time>
      </trkpt>
      <trkpt lat="46.80219" lon="3.49049">
        <ele>194.862176</ele>
        <time>2021-09-11T05:30:07.000Z</time>
      </trkpt>
      <trkpt lat="46.80203" lon="3.49061">
        <ele>195.224057</ele>
        <time>2021-09-11T05:30:10.000Z</time>
      </trkpt>
      <trkpt lat="46.80197" lon="3.49065">
        <ele>195.29935</ele>
        <time>2021-09-11T05:30:12.000Z</time>
      </trkpt>
      <trkpt lat="46.80164" lon="3.49101">
        <ele>195.817156</ele>
        <time>2021-09-11T05:30:19.000Z</time>
      </trkpt>
      <trkpt lat="46.80161" lon="3.49106">
        <ele>195.872048</ele>
        <time>2021-09-11T05:30:20.000Z</time>
      </trkpt>
      <trkpt lat="46.80155" lon="3.49115">
        <ele>195.987977</ele>
        <time>2021-09-11T05:30:22.000Z</time>
      </trkpt>
      <trkpt lat="46.80148" lon="3.49126">
        <ele>196.113489</ele>
        <time>2021-09-11T05:30:24.000Z</time>
      </trkpt>
      <trkpt lat="46.80123" lon="3.49167">
        <ele>196.591688</ele>
        <time>2021-09-11T05:30:31.000Z</time>
      </trkpt>
      <trkpt lat="46.80101" lon="3.49204">
        <ele>197.009735</ele>
        <time>2021-09-11T05:30:37.000Z</time>
      </trkpt>
      <trkpt lat="46.80087" lon="3.49226">
        <ele>197.279714</ele>
        <time>2021-09-11T05:30:41.000Z</time>
      </trkpt>
      <trkpt lat="46.80075" lon="3.49241">
        <ele>197.446278</ele>
        <time>2021-09-11T05:30:44.000Z</time>
      </trkpt>
      <trkpt lat="46.80061" lon="3.49256">
        <ele>197.577914</ele>
        <time>2021-09-11T05:30:49.000Z</time>
      </trkpt>
      <trkpt lat="46.80054" lon="3.49261">
        <ele>197.639229</ele>
        <time>2021-09-11T05:30:50.000Z</time>
      </trkpt>
      <trkpt lat="46.8005" lon="3.49264">
        <ele>197.670557</ele>
        <time>2021-09-11T05:30:51.000Z</time>
      </trkpt>
      <trkpt lat="46.80035" lon="3.49272">
        <ele>197.789218</ele>
        <time>2021-09-11T05:30:55.000Z</time>
      </trkpt>
      <trkpt lat="46.80022" lon="3.4928">
        <ele>197.901361</ele>
        <time>2021-09-11T05:31:00.000Z</time>
      </trkpt>
      <trkpt lat="46.80021" lon="3.49295">
        <ele>197.975263</ele>
        <time>2021-09-11T05:31:03.000Z</time>
      </trkpt>
      <trkpt lat="46.80019" lon="3.49306">
        <ele>198.036947</ele>
        <time>2021-09-11T05:31:04.000Z</time>
      </trkpt>
      <trkpt lat="46.80017" lon="3.49321">
        <ele>198.113471</ele>
        <time>2021-09-11T05:31:06.000Z</time>
      </trkpt>
      <trkpt lat="46.80016" lon="3.49329">
        <ele>198.156823</ele>
        <time>2021-09-11T05:31:07.000Z</time>
      </trkpt>
      <trkpt lat="46.80006" lon="3.49376">
        <ele>198.405967</ele>
        <time>2021-09-11T05:31:12.000Z</time>
      </trkpt>
      <trkpt lat="46.79993" lon="3.49419">
        <ele>198.645611</ele>
        <time>2021-09-11T05:31:16.000Z</time>
      </trkpt>
      <trkpt lat="46.79972" lon="3.49472">
        <ele>198.623783</ele>
        <time>2021-09-11T05:31:22.000Z</time>
      </trkpt>
      <trkpt lat="46.79945" lon="3.49536">
        <ele>198.357177</ele>
        <time>2021-09-11T05:31:29.000Z</time>
      </trkpt>
      <trkpt lat="46.79917" lon="3.49603">
        <ele>198.076212</ele>
        <time>2021-09-11T05:31:36.000Z</time>
      </trkpt>
      <trkpt lat="46.79885" lon="3.49675">
        <ele>197.793443</ele>
        <time>2021-09-11T05:31:45.000Z</time>
      </trkpt>
      <trkpt lat="46.79853" lon="3.49743">
        <ele>197.601616</ele>
        <time>2021-09-11T05:31:54.000Z</time>
      </trkpt>
      <trkpt lat="46.79823" lon="3.49805">
        <ele>197.424577</ele>
        <time>2021-09-11T05:32:02.000Z</time>
      </trkpt>
      <trkpt lat="46.79789" lon="3.49875">
        <ele>197.22387</ele>
        <time>2021-09-11T05:32:11.000Z</time>
      </trkpt>
      <trkpt lat="46.79785" lon="3.49883">
        <ele>197.200229</ele>
        <time>2021-09-11T05:32:12.000Z</time>
      </trkpt>
      <trkpt lat="46.79759" lon="3.49936">
        <ele>197.035353</ele>
        <time>2021-09-11T05:32:19.000Z</time>
      </trkpt>
      <trkpt lat="46.79732" lon="3.49993">
        <ele>196.856844</ele>
        <time>2021-09-11T05:32:28.000Z</time>
      </trkpt>
      <trkpt lat="46.79707" lon="3.50044">
        <ele>196.698066</ele>
        <time>2021-09-11T05:32:35.000Z</time>
      </trkpt>
      <trkpt lat="46.79678" lon="3.50104">
        <ele>196.287634</ele>
        <time>2021-09-11T05:32:42.000Z</time>
      </trkpt>
      <trkpt lat="46.79657" lon="3.50149">
        <ele>195.327972</ele>
        <time>2021-09-11T05:32:48.000Z</time>
      </trkpt>
      <trkpt lat="46.79622" lon="3.50222">
        <ele>193.786152</ele>
        <time>2021-09-11T05:32:58.000Z</time>
      </trkpt>
      <trkpt lat="46.7959" lon="3.50288">
        <ele>192.363929</ele>
        <time>2021-09-11T05:33:07.000Z</time>
      </trkpt>
      <trkpt lat="46.79566" lon="3.50339">
        <ele>191.070706</ele>
        <time>2021-09-11T05:33:14.000Z</time>
      </trkpt>
      <trkpt lat="46.79549" lon="3.50375">
        <ele>190.070372</ele>
        <time>2021-09-11T05:33:19.000Z</time>
      </trkpt>
      <trkpt lat="46.79542" lon="3.5039">
        <ele>189.664548</ele>
        <time>2021-09-11T05:33:21.000Z</time>
      </trkpt>
      <trkpt lat="46.79528" lon="3.50419">
        <ele>188.851068</ele>
        <time>2021-09-11T05:33:25.000Z</time>
      </trkpt>
      <trkpt lat="46.79525" lon="3.50426">
        <ele>188.651005</ele>
        <time>2021-09-11T05:33:26.000Z</time>
      </trkpt>
      <trkpt lat="46.79501" lon="3.50475">
        <ele>187.275038</ele>
        <time>2021-09-11T05:33:33.000Z</time>
      </trkpt>
      <trkpt lat="46.7948" lon="3.50519">
        <ele>186.06706</ele>
        <time>2021-09-11T05:33:39.000Z</time>
      </trkpt>
      <trkpt lat="46.7946" lon="3.50562">
        <ele>184.9149</ele>
        <time>2021-09-11T05:33:46.000Z</time>
      </trkpt>
      <trkpt lat="46.79453" lon="3.50577">
        <ele>184.522619</ele>
        <time>2021-09-11T05:33:47.000Z</time>
      </trkpt>
      <trkpt lat="46.79439" lon="3.50606">
        <ele>183.748837</ele>
        <time>2021-09-11T05:33:51.000Z</time>
      </trkpt>
      <trkpt lat="46.79411" lon="3.50665">
        <ele>182.199427</ele>
        <time>2021-09-11T05:33:59.000Z</time>
      </trkpt>
      <trkpt lat="46.79385" lon="3.50718">
        <ele>180.786159</ele>
        <time>2021-09-11T05:34:06.000Z</time>
      </trkpt>
      <trkpt lat="46.7936" lon="3.50772">
        <ele>180.261014</ele>
        <time>2021-09-11T05:34:13.000Z</time>
      </trkpt>
      <trkpt lat="46.79342" lon="3.50809">
        <ele>180.272604</ele>
        <time>2021-09-11T05:34:18.000Z</time>
      </trkpt>
      <trkpt lat="46.79314" lon="3.50866">
        <ele>180.290105</ele>
        <time>2021-09-11T05:34:25.000Z</time>
      </trkpt>
      <trkpt lat="46.79291" lon="3.50914">
        <ele>180.304922</ele>
        <time>2021-09-11T05:34:31.000Z</time>
      </trkpt>
      <trkpt lat="46.7926" lon="3.50979">
        <ele>180.47069</ele>
        <time>2021-09-11T05:34:39.000Z</time>
      </trkpt>
      <trkpt lat="46.79249" lon="3.51002">
        <ele>180.612419</ele>
        <time>2021-09-11T05:34:42.000Z</time>
      </trkpt>
      <trkpt lat="46.79214" lon="3.51073">
        <ele>181.041283</ele>
        <time>2021-09-11T05:34:51.000Z</time>
      </trkpt>
      <trkpt lat="46.79179" lon="3.51141">
        <ele>181.462352</ele>
        <time>2021-09-11T05:35:00.000Z</time>
      </trkpt>
      <trkpt lat="46.79152" lon="3.51177">
        <ele>181.757249</ele>
        <time>2021-09-11T05:35:06.000Z</time>
      </trkpt>
      <trkpt lat="46.79117" lon="3.51212">
        <ele>182.141196</ele>
        <time>2021-09-11T05:35:13.000Z</time>
      </trkpt>
      <trkpt lat="46.79097" lon="3.51234">
        <ele>182.366562</ele>
        <time>2021-09-11T05:35:17.000Z</time>
      </trkpt>
      <trkpt lat="46.79084" lon="3.51253">
        <ele>182.535458</ele>
        <time>2021-09-11T05:35:20.000Z</time>
      </trkpt>
      <trkpt lat="46.7905" lon="3.51306">
        <ele>182.989669</ele>
        <time>2021-09-11T05:35:28.000Z</time>
      </trkpt>
      <trkpt lat="46.79018" lon="3.51361">
        <ele>183.497836</ele>
        <time>2021-09-11T05:35:36.000Z</time>
      </trkpt>
      <trkpt lat="46.78989" lon="3.51417">
        <ele>184.090635</ele>
        <time>2021-09-11T05:35:44.000Z</time>
      </trkpt>
      <trkpt lat="46.7896" lon="3.51481">
        <ele>184.737298</ele>
        <time>2021-09-11T05:35:53.000Z</time>
      </trkpt>
      <trkpt lat="46.78931" lon="3.51555">
        <ele>185.449153</ele>
        <time>2021-09-11T05:36:03.000Z</time>
      </trkpt>
      <trkpt lat="46.78912" lon="3.51606">
        <ele>185.95894</ele>
        <time>2021-09-11T05:36:10.000Z</time>
      </trkpt>
      <trkpt lat="46.78889" lon="3.51666">
        <ele>186.55115</ele>
        <time>2021-09-11T05:36:18.000Z</time>
      </trkpt>
      <trkpt lat="46.78878" lon="3.51696">
        <ele>186.846569</ele>
        <time>2021-09-11T05:36:22.000Z</time>
      </trkpt>
      <trkpt lat="46.78873" lon="3.51711">
        <ele>186.995041</ele>
        <time>2021-09-11T05:36:24.000Z</time>
      </trkpt>
      <trkpt lat="46.78861" lon="3.51741">
        <ele>187.29397</ele>
        <time>2021-09-11T05:36:33.000Z</time>
      </trkpt>
      <trkpt lat="46.78836" lon="3.51808">
        <ele>187.878105</ele>
        <time>2021-09-11T05:36:39.000Z</time>
      </trkpt>
      <trkpt lat="46.7881" lon="3.51877">
        <ele>188.313493</ele>
        <time>2021-09-11T05:36:47.000Z</time>
      </trkpt>
      <trkpt lat="46.78807" lon="3.51885">
        <ele>188.362559</ele>
        <time>2021-09-11T05:36:48.000Z</time>
      </trkpt>
      <trkpt lat="46.78784" lon="3.51945">
        <ele>188.746167</ele>
        <time>2021-09-11T05:36:56.000Z</time>
      </trkpt>
      <trkpt lat="46.7876" lon="3.52009">
        <ele>189.144904</ele>
        <time>2021-09-11T05:37:03.000Z</time>
      </trkpt>
      <trkpt lat="46.78744" lon="3.52061">
        <ele>189.617429</ele>
        <time>2021-09-11T05:37:09.000Z</time>
      </trkpt>
      <trkpt lat="46.78739" lon="3.5209">
        <ele>189.880442</ele>
        <time>2021-09-11T05:37:13.000Z</time>
      </trkpt>
      <trkpt lat="46.78738" lon="3.52099">
        <ele>189.966539</ele>
        <time>2021-09-11T05:37:14.000Z</time>
      </trkpt>
      <trkpt lat="46.78737" lon="3.5217">
        <ele>190.582584</ele>
        <time>2021-09-11T05:37:20.000Z</time>
      </trkpt>
      <trkpt lat="46.78735" lon="3.52238">
        <ele>191.17701</ele>
        <time>2021-09-11T05:37:27.000Z</time>
      </trkpt>
      <trkpt lat="46.78734" lon="3.52257">
        <ele>191.339004</ele>
        <time>2021-09-11T05:37:35.000Z</time>
      </trkpt>
      <trkpt lat="46.78716" lon="3.52336">
        <ele>191.889104</ele>
        <time>2021-09-11T05:37:38.000Z</time>
      </trkpt>
      <trkpt lat="46.78707" lon="3.5237">
        <ele>192.115314</ele>
        <time>2021-09-11T05:37:43.000Z</time>
      </trkpt>
      <trkpt lat="46.78687" lon="3.52448">
        <ele>192.622735</ele>
        <time>2021-09-11T05:37:51.000Z</time>
      </trkpt>
      <trkpt lat="46.78684" lon="3.52457">
        <ele>192.680401</ele>
        <time>2021-09-11T05:37:53.000Z</time>
      </trkpt>
      <trkpt lat="46.78664" lon="3.52536">
        <ele>193.156072</ele>
        <time>2021-09-11T05:38:01.000Z</time>
      </trkpt>
      <trkpt lat="46.78648" lon="3.52596">
        <ele>193.421963</ele>
        <time>2021-09-11T05:38:08.000Z</time>
      </trkpt>
      <trkpt lat="46.78632" lon="3.52658">
        <ele>193.695436</ele>
        <time>2021-09-11T05:38:15.000Z</time>
      </trkpt>
      <trkpt lat="46.7861" lon="3.5274">
        <ele>194.052255</ele>
        <time>2021-09-11T05:38:24.000Z</time>
      </trkpt>
      <trkpt lat="46.78585" lon="3.52819">
        <ele>194.348427</ele>
        <time>2021-09-11T05:38:33.000Z</time>
      </trkpt>
      <trkpt lat="46.78569" lon="3.52862">
        <ele>194.497131</ele>
        <time>2021-09-11T05:38:39.000Z</time>
      </trkpt>
      <trkpt lat="46.78539" lon="3.52923">
        <ele>194.728737</ele>
        <time>2021-09-11T05:38:46.000Z</time>
      </trkpt>
      <trkpt lat="46.78512" lon="3.5297">
        <ele>194.91754</ele>
        <time>2021-09-11T05:38:53.000Z</time>
      </trkpt>
      <trkpt lat="46.7849" lon="3.53011">
        <ele>195.018857</ele>
        <time>2021-09-11T05:38:59.000Z</time>
      </trkpt>
      <trkpt lat="46.7846" lon="3.53065">
        <ele>195.118801</ele>
        <time>2021-09-11T05:39:07.000Z</time>
      </trkpt>
      <trkpt lat="46.78428" lon="3.53121">
        <ele>195.222893</ele>
        <time>2021-09-11T05:39:15.000Z</time>
      </trkpt>
      <trkpt lat="46.78405" lon="3.53163">
        <ele>195.29966</ele>
        <time>2021-09-11T05:39:21.000Z</time>
      </trkpt>
      <trkpt lat="46.78379" lon="3.53211">
        <ele>195.34719</ele>
        <time>2021-09-11T05:39:28.000Z</time>
      </trkpt>
      <trkpt lat="46.78353" lon="3.53257">
        <ele>195.353916</ele>
        <time>2021-09-11T05:39:35.000Z</time>
      </trkpt>
      <trkpt lat="46.78331" lon="3.53297">
        <ele>195.359606</ele>
        <time>2021-09-11T05:39:41.000Z</time>
      </trkpt>
      <trkpt lat="46.78296" lon="3.53359">
        <ele>195.368602</ele>
        <time>2021-09-11T05:39:50.000Z</time>
      </trkpt>
      <trkpt lat="46.78269" lon="3.53408">
        <ele>195.324324</ele>
        <time>2021-09-11T05:39:57.000Z</time>
      </trkpt>
      <trkpt lat="46.78243" lon="3.53455">
        <ele>195.188518</ele>
        <time>2021-09-11T05:40:04.000Z</time>
      </trkpt>
      <trkpt lat="46.78215" lon="3.53505">
        <ele>195.045352</ele>
        <time>2021-09-11T05:40:11.000Z</time>
      </trkpt>
      <trkpt lat="46.78187" lon="3.53556">
        <ele>194.899606</ele>
        <time>2021-09-11T05:40:18.000Z</time>
      </trkpt>
      <trkpt lat="46.78158" lon="3.53607">
        <ele>194.793577</ele>
        <time>2021-09-11T05:40:25.000Z</time>
      </trkpt>
      <trkpt lat="46.7813" lon="3.53658">
        <ele>194.813686</ele>
        <time>2021-09-11T05:40:32.000Z</time>
      </trkpt>
      <trkpt lat="46.78098" lon="3.53715">
        <ele>194.836361</ele>
        <time>2021-09-11T05:40:40.000Z</time>
      </trkpt>
      <trkpt lat="46.78062" lon="3.5378">
        <ele>194.862063</ele>
        <time>2021-09-11T05:40:49.000Z</time>
      </trkpt>
      <trkpt lat="46.78054" lon="3.53795">
        <ele>194.867885</ele>
        <time>2021-09-11T05:40:51.000Z</time>
      </trkpt>
      <trkpt lat="46.78017" lon="3.5386">
        <ele>195.013326</ele>
        <time>2021-09-11T05:41:00.000Z</time>
      </trkpt>
      <trkpt lat="46.78001" lon="3.53889">
        <ele>195.081016</ele>
        <time>2021-09-11T05:41:04.000Z</time>
      </trkpt>
      <trkpt lat="46.77965" lon="3.53955">
        <ele>195.2344</ele>
        <time>2021-09-11T05:41:13.000Z</time>
      </trkpt>
      <trkpt lat="46.77952" lon="3.53977">
        <ele>195.286543</ele>
        <time>2021-09-11T05:41:16.000Z</time>
      </trkpt>
      <trkpt lat="46.77915" lon="3.54043">
        <ele>195.423293</ele>
        <time>2021-09-11T05:41:25.000Z</time>
      </trkpt>
      <trkpt lat="46.77884" lon="3.541">
        <ele>195.531827</ele>
        <time>2021-09-11T05:41:33.000Z</time>
      </trkpt>
      <trkpt lat="46.77848" lon="3.54164">
        <ele>195.652968</ele>
        <time>2021-09-11T05:41:42.000Z</time>
      </trkpt>
      <trkpt lat="46.7784" lon="3.54178">
        <ele>195.679394</ele>
        <time>2021-09-11T05:41:44.000Z</time>
      </trkpt>
      <trkpt lat="46.77806" lon="3.54239">
        <ele>195.835223</ele>
        <time>2021-09-11T05:41:53.000Z</time>
      </trkpt>
      <trkpt lat="46.77803" lon="3.54246">
        <ele>195.855187</ele>
        <time>2021-09-11T05:41:54.000Z</time>
      </trkpt>
      <trkpt lat="46.77773" lon="3.54299">
        <ele>196.016044</ele>
        <time>2021-09-11T05:42:02.000Z</time>
      </trkpt>
      <trkpt lat="46.77745" lon="3.5435">
        <ele>196.172394</ele>
        <time>2021-09-11T05:42:10.000Z</time>
      </trkpt>
      <trkpt lat="46.77712" lon="3.54409">
        <ele>196.350765</ele>
        <time>2021-09-11T05:42:19.000Z</time>
      </trkpt>
      <trkpt lat="46.77699" lon="3.54435">
        <ele>196.400275</ele>
        <time>2021-09-11T05:42:23.000Z</time>
      </trkpt>
      <trkpt lat="46.77691" lon="3.54447">
        <ele>196.424816</ele>
        <time>2021-09-11T05:42:25.000Z</time>
      </trkpt>
      <trkpt lat="46.77666" lon="3.54492">
        <ele>196.511505</ele>
        <time>2021-09-11T05:42:32.000Z</time>
      </trkpt>
      <trkpt lat="46.77636" lon="3.54545">
        <ele>196.612381</ele>
        <time>2021-09-11T05:42:40.000Z</time>
      </trkpt>
      <trkpt lat="46.77607" lon="3.54597">
        <ele>196.711955</ele>
        <time>2021-09-11T05:42:48.000Z</time>
      </trkpt>
      <trkpt lat="46.77579" lon="3.54649">
        <ele>196.785392</ele>
        <time>2021-09-11T05:42:56.000Z</time>
      </trkpt>
      <trkpt lat="46.77547" lon="3.547">
        <ele>196.85034</ele>
        <time>2021-09-11T05:43:04.000Z</time>
      </trkpt>
      <trkpt lat="46.77517" lon="3.54743">
        <ele>196.907432</ele>
        <time>2021-09-11T05:43:11.000Z</time>
      </trkpt>
      <trkpt lat="46.77477" lon="3.54794">
        <ele>196.979572</ele>
        <time>2021-09-11T05:43:20.000Z</time>
      </trkpt>
      <trkpt lat="46.77441" lon="3.54836">
        <ele>197.065928</ele>
        <time>2021-09-11T05:43:28.000Z</time>
      </trkpt>
      <trkpt lat="46.77409" lon="3.54872">
        <ele>197.144657</ele>
        <time>2021-09-11T05:43:35.000Z</time>
      </trkpt>
      <trkpt lat="46.77371" lon="3.54916">
        <ele>197.238783</ele>
        <time>2021-09-11T05:43:43.000Z</time>
      </trkpt>
      <trkpt lat="46.77338" lon="3.54952">
        <ele>197.318841</ele>
        <time>2021-09-11T05:43:50.000Z</time>
      </trkpt>
      <trkpt lat="46.77296" lon="3.55002">
        <ele>197.421551</ele>
        <time>2021-09-11T05:43:59.000Z</time>
      </trkpt>
      <trkpt lat="46.77252" lon="3.55051">
        <ele>197.525904</ele>
        <time>2021-09-11T05:44:08.000Z</time>
      </trkpt>
      <trkpt lat="46.77223" lon="3.55084">
        <ele>197.595543</ele>
        <time>2021-09-11T05:44:14.000Z</time>
      </trkpt>
      <trkpt lat="46.77194" lon="3.55117">
        <ele>197.666292</ele>
        <time>2021-09-11T05:44:20.000Z</time>
      </trkpt>
      <trkpt lat="46.77155" lon="3.55162">
        <ele>197.763056</ele>
        <time>2021-09-11T05:44:28.000Z</time>
      </trkpt>
      <trkpt lat="46.77111" lon="3.55213">
        <ele>197.873002</ele>
        <time>2021-09-11T05:44:37.000Z</time>
      </trkpt>
      <trkpt lat="46.77072" lon="3.55258">
        <ele>197.97087</ele>
        <time>2021-09-11T05:44:45.000Z</time>
      </trkpt>
      <trkpt lat="46.77043" lon="3.5529">
        <ele>198.041237</ele>
        <time>2021-09-11T05:44:51.000Z</time>
      </trkpt>
      <trkpt lat="46.77009" lon="3.55329">
        <ele>198.108136</ele>
        <time>2021-09-11T05:44:58.000Z</time>
      </trkpt>
      <trkpt lat="46.76972" lon="3.55372">
        <ele>198.182394</ele>
        <time>2021-09-11T05:45:06.000Z</time>
      </trkpt>
      <trkpt lat="46.76929" lon="3.55422">
        <ele>198.267173</ele>
        <time>2021-09-11T05:45:15.000Z</time>
      </trkpt>
      <trkpt lat="46.76901" lon="3.55454">
        <ele>198.32089</ele>
        <time>2021-09-11T05:45:21.000Z</time>
      </trkpt>
      <trkpt lat="46.76861" lon="3.55499">
        <ele>198.384886</ele>
        <time>2021-09-11T05:45:29.000Z</time>
      </trkpt>
      <trkpt lat="46.76817" lon="3.5555">
        <ele>198.456659</ele>
        <time>2021-09-11T05:45:38.000Z</time>
      </trkpt>
      <trkpt lat="46.76771" lon="3.55602">
        <ele>198.530757</ele>
        <time>2021-09-11T05:45:47.000Z</time>
      </trkpt>
      <trkpt lat="46.7673" lon="3.55648">
        <ele>198.548099</ele>
        <time>2021-09-11T05:45:55.000Z</time>
      </trkpt>
      <trkpt lat="46.76684" lon="3.55701">
        <ele>198.555781</ele>
        <time>2021-09-11T05:46:04.000Z</time>
      </trkpt>
      <trkpt lat="46.76638" lon="3.55754">
        <ele>198.563488</ele>
        <time>2021-09-11T05:46:13.000Z</time>
      </trkpt>
      <trkpt lat="46.76599" lon="3.55799">
        <ele>198.55409</ele>
        <time>2021-09-11T05:46:21.000Z</time>
      </trkpt>
      <trkpt lat="46.76553" lon="3.55851">
        <ele>198.531155</ele>
        <time>2021-09-11T05:46:30.000Z</time>
      </trkpt>
      <trkpt lat="46.76548" lon="3.55856">
        <ele>198.528648</ele>
        <time>2021-09-11T05:46:31.000Z</time>
      </trkpt>
      <trkpt lat="46.76502" lon="3.55909">
        <ele>198.505578</ele>
        <time>2021-09-11T05:46:40.000Z</time>
      </trkpt>
      <trkpt lat="46.76457" lon="3.5596">
        <ele>198.52608</ele>
        <time>2021-09-11T05:46:49.000Z</time>
      </trkpt>
      <trkpt lat="46.76442" lon="3.55977">
        <ele>198.545037</ele>
        <time>2021-09-11T05:46:52.000Z</time>
      </trkpt>
      <trkpt lat="46.76397" lon="3.56028">
        <ele>198.602462</ele>
        <time>2021-09-11T05:47:01.000Z</time>
      </trkpt>
      <trkpt lat="46.76388" lon="3.56039">
        <ele>198.615211</ele>
        <time>2021-09-11T05:47:03.000Z</time>
      </trkpt>
      <trkpt lat="46.76344" lon="3.56089">
        <ele>198.671856</ele>
        <time>2021-09-11T05:47:12.000Z</time>
      </trkpt>
      <trkpt lat="46.76299" lon="3.56139">
        <ele>198.751794</ele>
        <time>2021-09-11T05:47:21.000Z</time>
      </trkpt>
      <trkpt lat="46.76295" lon="3.56145">
        <ele>198.760628</ele>
        <time>2021-09-11T05:47:22.000Z</time>
      </trkpt>
      <trkpt lat="46.7625" lon="3.56196">
        <ele>198.844074</ele>
        <time>2021-09-11T05:47:31.000Z</time>
      </trkpt>
      <trkpt lat="46.76245" lon="3.56201">
        <ele>198.853326</ele>
        <time>2021-09-11T05:47:32.000Z</time>
      </trkpt>
      <trkpt lat="46.7621" lon="3.5624">
        <ele>198.918003</ele>
        <time>2021-09-11T05:47:39.000Z</time>
      </trkpt>
      <trkpt lat="46.76165" lon="3.56291">
        <ele>198.992045</ele>
        <time>2021-09-11T05:47:48.000Z</time>
      </trkpt>
      <trkpt lat="46.7612" lon="3.56343">
        <ele>199.061999</ele>
        <time>2021-09-11T05:47:57.000Z</time>
      </trkpt>
      <trkpt lat="46.76076" lon="3.56395">
        <ele>199.131321</ele>
        <time>2021-09-11T05:48:06.000Z</time>
      </trkpt>
      <trkpt lat="46.76035" lon="3.5644">
        <ele>199.202106</ele>
        <time>2021-09-11T05:48:14.000Z</time>
      </trkpt>
      <trkpt lat="46.75996" lon="3.56484">
        <ele>199.281296</ele>
        <time>2021-09-11T05:48:22.000Z</time>
      </trkpt>
      <trkpt lat="46.75952" lon="3.56535">
        <ele>199.371176</ele>
        <time>2021-09-11T05:48:31.000Z</time>
      </trkpt>
      <trkpt lat="46.75947" lon="3.56541">
        <ele>199.381019</ele>
        <time>2021-09-11T05:48:32.000Z</time>
      </trkpt>
      <trkpt lat="46.75903" lon="3.5659">
        <ele>199.430117</ele>
        <time>2021-09-11T05:48:41.000Z</time>
      </trkpt>
      <trkpt lat="46.75898" lon="3.56596">
        <ele>199.420794</ele>
        <time>2021-09-11T05:48:42.000Z</time>
      </trkpt>
      <trkpt lat="46.75859" lon="3.56641">
        <ele>199.346826</ele>
        <time>2021-09-11T05:48:50.000Z</time>
      </trkpt>
      <trkpt lat="46.75825" lon="3.56679">
        <ele>199.282984</ele>
        <time>2021-09-11T05:48:57.000Z</time>
      </trkpt>
      <trkpt lat="46.75781" lon="3.5673">
        <ele>199.200469</ele>
        <time>2021-09-11T05:49:06.000Z</time>
      </trkpt>
      <trkpt lat="46.75772" lon="3.56741">
        <ele>199.182899</ele>
        <time>2021-09-11T05:49:08.000Z</time>
      </trkpt>
      <trkpt lat="46.75767" lon="3.56746">
        <ele>199.187445</ele>
        <time>2021-09-11T05:49:09.000Z</time>
      </trkpt>
      <trkpt lat="46.75744" lon="3.56773">
        <ele>199.211058</ele>
        <time>2021-09-11T05:49:14.000Z</time>
      </trkpt>
      <trkpt lat="46.7571" lon="3.56809">
        <ele>199.244149</ele>
        <time>2021-09-11T05:49:21.000Z</time>
      </trkpt>
      <trkpt lat="46.75676" lon="3.56848">
        <ele>199.278404</ele>
        <time>2021-09-11T05:49:28.000Z</time>
      </trkpt>
      <trkpt lat="46.75642" lon="3.56886">
        <ele>199.312364</ele>
        <time>2021-09-11T05:49:35.000Z</time>
      </trkpt>
      <trkpt lat="46.75603" lon="3.5693">
        <ele>199.382408</ele>
        <time>2021-09-11T05:49:43.000Z</time>
      </trkpt>
      <trkpt lat="46.75565" lon="3.56974">
        <ele>199.468613</ele>
        <time>2021-09-11T05:49:51.000Z</time>
      </trkpt>
      <trkpt lat="46.75522" lon="3.57025">
        <ele>199.564778</ele>
        <time>2021-09-11T05:50:00.000Z</time>
      </trkpt>
      <trkpt lat="46.75513" lon="3.57035">
        <ele>199.585096</ele>
        <time>2021-09-11T05:50:02.000Z</time>
      </trkpt>
      <trkpt lat="46.75478" lon="3.57071">
        <ele>199.686004</ele>
        <time>2021-09-11T05:50:09.000Z</time>
      </trkpt>
      <trkpt lat="46.75435" lon="3.57123">
        <ele>199.91973</ele>
        <time>2021-09-11T05:50:18.000Z</time>
      </trkpt>
      <trkpt lat="46.75399" lon="3.57173">
        <ele>200.126095</ele>
        <time>2021-09-11T05:50:26.000Z</time>
      </trkpt>
      <trkpt lat="46.75363" lon="3.57236">
        <ele>200.361756</ele>
        <time>2021-09-11T05:50:35.000Z</time>
      </trkpt>
      <trkpt lat="46.7534" lon="3.5728">
        <ele>200.523045</ele>
        <time>2021-09-11T05:50:41.000Z</time>
      </trkpt>
      <trkpt lat="46.75304" lon="3.57345">
        <ele>200.76495</ele>
        <time>2021-09-11T05:50:50.000Z</time>
      </trkpt>
      <trkpt lat="46.75275" lon="3.57393">
        <ele>200.951301</ele>
        <time>2021-09-11T05:50:57.000Z</time>
      </trkpt>
      <trkpt lat="46.75264" lon="3.57415">
        <ele>201.031434</ele>
        <time>2021-09-11T05:51:00.000Z</time>
      </trkpt>
      <trkpt lat="46.75255" lon="3.57427">
        <ele>201.083407</ele>
        <time>2021-09-11T05:51:02.000Z</time>
      </trkpt>
      <trkpt lat="46.75251" lon="3.57434">
        <ele>201.110536</ele>
        <time>2021-09-11T05:51:03.000Z</time>
      </trkpt>
      <trkpt lat="46.75236" lon="3.57465">
        <ele>201.172626</ele>
        <time>2021-09-11T05:51:07.000Z</time>
      </trkpt>
      <trkpt lat="46.75203" lon="3.57529">
        <ele>201.233367</ele>
        <time>2021-09-11T05:51:16.000Z</time>
      </trkpt>
      <trkpt lat="46.7518" lon="3.57569">
        <ele>201.272932</ele>
        <time>2021-09-11T05:51:22.000Z</time>
      </trkpt>
      <trkpt lat="46.75172" lon="3.57583">
        <ele>201.286489</ele>
        <time>2021-09-11T05:51:24.000Z</time>
      </trkpt>
      <trkpt lat="46.75157" lon="3.57611">
        <ele>201.313756</ele>
        <time>2021-09-11T05:51:28.000Z</time>
      </trkpt>
      <trkpt lat="46.75123" lon="3.57674">
        <ele>201.376556</ele>
        <time>2021-09-11T05:51:37.000Z</time>
      </trkpt>
      <trkpt lat="46.75119" lon="3.57681">
        <ele>201.383632</ele>
        <time>2021-09-11T05:51:38.000Z</time>
      </trkpt>
      <trkpt lat="46.75101" lon="3.57715">
        <ele>201.418077</ele>
        <time>2021-09-11T05:51:43.000Z</time>
      </trkpt>
      <trkpt lat="46.75072" lon="3.5777">
        <ele>201.474031</ele>
        <time>2021-09-11T05:51:51.000Z</time>
      </trkpt>
      <trkpt lat="46.75041" lon="3.57825">
        <ele>201.531274</ele>
        <time>2021-09-11T05:51:59.000Z</time>
      </trkpt>
      <trkpt lat="46.75007" lon="3.57888">
        <ele>201.618977</ele>
        <time>2021-09-11T05:52:08.000Z</time>
      </trkpt>
      <trkpt lat="46.7498" lon="3.57936">
        <ele>201.708759</ele>
        <time>2021-09-11T05:52:15.000Z</time>
      </trkpt>
      <trkpt lat="46.74951" lon="3.5799">
        <ele>201.808161</ele>
        <time>2021-09-11T05:52:23.000Z</time>
      </trkpt>
      <trkpt lat="46.74918" lon="3.58048">
        <ele>201.917207</ele>
        <time>2021-09-11T05:52:32.000Z</time>
      </trkpt>
      <trkpt lat="46.74894" lon="3.58092">
        <ele>201.941765</ele>
        <time>2021-09-11T05:52:39.000Z</time>
      </trkpt>
      <trkpt lat="46.7487" lon="3.58137">
        <ele>201.934314</ele>
        <time>2021-09-11T05:52:46.000Z</time>
      </trkpt>
      <trkpt lat="46.74844" lon="3.58182">
        <ele>201.926654</ele>
        <time>2021-09-11T05:52:53.000Z</time>
      </trkpt>
      <trkpt lat="46.74819" lon="3.58231">
        <ele>201.918622</ele>
        <time>2021-09-11T05:53:00.000Z</time>
      </trkpt>
      <trkpt lat="46.74787" lon="3.58287">
        <ele>201.880325</ele>
        <time>2021-09-11T05:53:08.000Z</time>
      </trkpt>
      <trkpt lat="46.7476" lon="3.58336">
        <ele>201.795935</ele>
        <time>2021-09-11T05:53:15.000Z</time>
      </trkpt>
      <trkpt lat="46.74737" lon="3.58378">
        <ele>201.72188</ele>
        <time>2021-09-11T05:53:21.000Z</time>
      </trkpt>
      <trkpt lat="46.7471" lon="3.58428">
        <ele>201.63677</ele>
        <time>2021-09-11T05:53:28.000Z</time>
      </trkpt>
      <trkpt lat="46.74678" lon="3.58485">
        <ele>201.559552</ele>
        <time>2021-09-11T05:53:36.000Z</time>
      </trkpt>
      <trkpt lat="46.74651" lon="3.58533">
        <ele>201.569684</ele>
        <time>2021-09-11T05:53:43.000Z</time>
      </trkpt>
      <trkpt lat="46.74629" lon="3.58573">
        <ele>201.578123</ele>
        <time>2021-09-11T05:53:49.000Z</time>
      </trkpt>
      <trkpt lat="46.74606" lon="3.58616">
        <ele>201.587012</ele>
        <time>2021-09-11T05:53:55.000Z</time>
      </trkpt>
      <trkpt lat="46.74576" lon="3.58671">
        <ele>201.598368</ele>
        <time>2021-09-11T05:54:03.000Z</time>
      </trkpt>
      <trkpt lat="46.74545" lon="3.58728">
        <ele>201.622056</ele>
        <time>2021-09-11T05:54:11.000Z</time>
      </trkpt>
      <trkpt lat="46.74538" lon="3.58742">
        <ele>201.628329</ele>
        <time>2021-09-11T05:54:13.000Z</time>
      </trkpt>
      <trkpt lat="46.74526" lon="3.58762">
        <ele>201.637591</ele>
        <time>2021-09-11T05:54:16.000Z</time>
      </trkpt>
      <trkpt lat="46.745" lon="3.58811">
        <ele>201.659497</ele>
        <time>2021-09-11T05:54:23.000Z</time>
      </trkpt>
      <trkpt lat="46.74472" lon="3.5886">
        <ele>201.681746</ele>
        <time>2021-09-11T05:54:30.000Z</time>
      </trkpt>
      <trkpt lat="46.74438" lon="3.58923">
        <ele>201.676796</ele>
        <time>2021-09-11T05:54:39.000Z</time>
      </trkpt>
      <trkpt lat="46.74413" lon="3.5897">
        <ele>201.658153</ele>
        <time>2021-09-11T05:54:46.000Z</time>
      </trkpt>
      <trkpt lat="46.74385" lon="3.59019">
        <ele>201.638704</ele>
        <time>2021-09-11T05:54:53.000Z</time>
      </trkpt>
      <trkpt lat="46.74362" lon="3.59061">
        <ele>201.622122</ele>
        <time>2021-09-11T05:54:59.000Z</time>
      </trkpt>
      <trkpt lat="46.74328" lon="3.59124">
        <ele>201.571775</ele>
        <time>2021-09-11T05:55:08.000Z</time>
      </trkpt>
      <trkpt lat="46.74301" lon="3.59172">
        <ele>201.517522</ele>
        <time>2021-09-11T05:55:15.000Z</time>
      </trkpt>
      <trkpt lat="46.74271" lon="3.59227">
        <ele>201.456026</ele>
        <time>2021-09-11T05:55:23.000Z</time>
      </trkpt>
      <trkpt lat="46.74239" lon="3.59284">
        <ele>201.391753</ele>
        <time>2021-09-11T05:55:31.000Z</time>
      </trkpt>
      <trkpt lat="46.74205" lon="3.59347">
        <ele>201.350714</ele>
        <time>2021-09-11T05:55:40.000Z</time>
      </trkpt>
      <trkpt lat="46.74169" lon="3.59411">
        <ele>201.313262</ele>
        <time>2021-09-11T05:55:49.000Z</time>
      </trkpt>
      <trkpt lat="46.74137" lon="3.5947">
        <ele>201.279173</ele>
        <time>2021-09-11T05:55:57.000Z</time>
      </trkpt>
      <trkpt lat="46.74102" lon="3.59536">
        <ele>201.2833</ele>
        <time>2021-09-11T05:56:06.000Z</time>
      </trkpt>
      <trkpt lat="46.74069" lon="3.59594">
        <ele>201.315359</ele>
        <time>2021-09-11T05:56:14.000Z</time>
      </trkpt>
      <trkpt lat="46.74035" lon="3.5966">
        <ele>201.350109</ele>
        <time>2021-09-11T05:56:23.000Z</time>
      </trkpt>
      <trkpt lat="46.74008" lon="3.59709">
        <ele>201.382082</ele>
        <time>2021-09-11T05:56:30.000Z</time>
      </trkpt>
      <trkpt lat="46.73977" lon="3.59766">
        <ele>201.472813</ele>
        <time>2021-09-11T05:56:38.000Z</time>
      </trkpt>
      <trkpt lat="46.73942" lon="3.59828">
        <ele>201.572484</ele>
        <time>2021-09-11T05:56:47.000Z</time>
      </trkpt>
      <trkpt lat="46.7391" lon="3.59886">
        <ele>201.664657</ele>
        <time>2021-09-11T05:56:55.000Z</time>
      </trkpt>
      <trkpt lat="46.7389" lon="3.59923">
        <ele>201.724658</ele>
        <time>2021-09-11T05:57:00.000Z</time>
      </trkpt>
      <trkpt lat="46.73878" lon="3.59944">
        <ele>201.760731</ele>
        <time>2021-09-11T05:57:03.000Z</time>
      </trkpt>
      <trkpt lat="46.73843" lon="3.60008">
        <ele>201.868179</ele>
        <time>2021-09-11T05:57:12.000Z</time>
      </trkpt>
      <trkpt lat="46.73808" lon="3.60073">
        <ele>201.97579</ele>
        <time>2021-09-11T05:57:21.000Z</time>
      </trkpt>
      <trkpt lat="46.73772" lon="3.60138">
        <ele>202.078925</ele>
        <time>2021-09-11T05:57:30.000Z</time>
      </trkpt>
      <trkpt lat="46.73768" lon="3.60145">
        <ele>202.089398</ele>
        <time>2021-09-11T05:57:31.000Z</time>
      </trkpt>
      <trkpt lat="46.73735" lon="3.60209">
        <ele>202.181002</ele>
        <time>2021-09-11T05:57:40.000Z</time>
      </trkpt>
      <trkpt lat="46.73705" lon="3.60266">
        <ele>202.262996</ele>
        <time>2021-09-11T05:57:48.000Z</time>
      </trkpt>
      <trkpt lat="46.73671" lon="3.60323">
        <ele>202.34844</ele>
        <time>2021-09-11T05:57:56.000Z</time>
      </trkpt>
      <trkpt lat="46.73644" lon="3.60373">
        <ele>202.423236</ele>
        <time>2021-09-11T05:58:03.000Z</time>
      </trkpt>
      <trkpt lat="46.7361" lon="3.60437">
        <ele>202.517287</ele>
        <time>2021-09-11T05:58:12.000Z</time>
      </trkpt>
      <trkpt lat="46.73606" lon="3.60444">
        <ele>202.527372</ele>
        <time>2021-09-11T05:58:13.000Z</time>
      </trkpt>
      <trkpt lat="46.73582" lon="3.60494">
        <ele>202.598088</ele>
        <time>2021-09-11T05:58:20.000Z</time>
      </trkpt>
      <trkpt lat="46.73552" lon="3.60549">
        <ele>202.696292</ele>
        <time>2021-09-11T05:58:28.000Z</time>
      </trkpt>
      <trkpt lat="46.73517" lon="3.60612">
        <ele>202.837231</ele>
        <time>2021-09-11T05:58:37.000Z</time>
      </trkpt>
      <trkpt lat="46.73513" lon="3.60619">
        <ele>202.85318</ele>
        <time>2021-09-11T05:58:38.000Z</time>
      </trkpt>
      <trkpt lat="46.73493" lon="3.60655">
        <ele>202.933877</ele>
        <time>2021-09-11T05:58:47.000Z</time>
      </trkpt>
      <trkpt lat="46.73457" lon="3.6072">
        <ele>203.079273</ele>
        <time>2021-09-11T05:58:54.000Z</time>
      </trkpt>
      <trkpt lat="46.73422" lon="3.60782">
        <ele>203.217166</ele>
        <time>2021-09-11T05:59:02.000Z</time>
      </trkpt>
      <trkpt lat="46.73403" lon="3.60816">
        <ele>203.29189</ele>
        <time>2021-09-11T05:59:09.000Z</time>
      </trkpt>
      <trkpt lat="46.73369" lon="3.60878">
        <ele>203.428022</ele>
        <time>2021-09-11T05:59:17.000Z</time>
      </trkpt>
      <trkpt lat="46.73366" lon="3.60883">
        <ele>203.440357</ele>
        <time>2021-09-11T05:59:21.000Z</time>
      </trkpt>
      <trkpt lat="46.73359" lon="3.60894">
        <ele>203.464897</ele>
        <time>2021-09-11T05:59:26.000Z</time>
      </trkpt>
      <trkpt lat="46.73312" lon="3.60978">
        <ele>203.578128</ele>
        <time>2021-09-11T05:59:34.000Z</time>
      </trkpt>
      <trkpt lat="46.73286" lon="3.61015">
        <ele>203.600889</ele>
        <time>2021-09-11T05:59:39.000Z</time>
      </trkpt>
      <trkpt lat="46.73277" lon="3.61026">
        <ele>203.608401</ele>
        <time>2021-09-11T05:59:42.000Z</time>
      </trkpt>
      <trkpt lat="46.73273" lon="3.6103">
        <ele>203.612012</ele>
        <time>2021-09-11T05:59:43.000Z</time>
      </trkpt>
      <trkpt lat="46.73254" lon="3.61049">
        <ele>203.626146</ele>
        <time>2021-09-11T05:59:47.000Z</time>
      </trkpt>
      <trkpt lat="46.73227" lon="3.61077">
        <ele>203.647656</ele>
        <time>2021-09-11T05:59:52.000Z</time>
      </trkpt>
      <trkpt lat="46.73218" lon="3.61087">
        <ele>203.65493</ele>
        <time>2021-09-11T05:59:55.000Z</time>
      </trkpt>
      <trkpt lat="46.73212" lon="3.61093">
        <ele>203.65924</ele>
        <time>2021-09-11T05:59:57.000Z</time>
      </trkpt>
      <trkpt lat="46.73197" lon="3.61148">
        <ele>203.684847</ele>
        <time>2021-09-11T06:00:04.000Z</time>
      </trkpt>
      <trkpt lat="46.73195" lon="3.61156">
        <ele>203.688498</ele>
        <time>2021-09-11T06:00:08.000Z</time>
      </trkpt>
      <trkpt lat="46.73163" lon="3.61261">
        <ele>203.737721</ele>
        <time>2021-09-11T06:00:17.000Z</time>
      </trkpt>
      <trkpt lat="46.7313" lon="3.61328">
        <ele>203.772645</ele>
        <time>2021-09-11T06:00:24.000Z</time>
      </trkpt>
      <trkpt lat="46.73105" lon="3.61377">
        <ele>203.876281</ele>
        <time>2021-09-11T06:00:31.000Z</time>
      </trkpt>
      <trkpt lat="46.73073" lon="3.6144">
        <ele>204.042944</ele>
        <time>2021-09-11T06:00:40.000Z</time>
      </trkpt>
      <trkpt lat="46.73037" lon="3.61509">
        <ele>204.228098</ele>
        <time>2021-09-11T06:00:50.000Z</time>
      </trkpt>
      <trkpt lat="46.73034" lon="3.61516">
        <ele>204.245362</ele>
        <time>2021-09-11T06:00:51.000Z</time>
      </trkpt>
      <trkpt lat="46.73005" lon="3.61573">
        <ele>204.416439</ele>
        <time>2021-09-11T06:00:59.000Z</time>
      </trkpt>
      <trkpt lat="46.72975" lon="3.61628">
        <ele>204.613566</ele>
        <time>2021-09-11T06:01:07.000Z</time>
      </trkpt>
      <trkpt lat="46.7295" lon="3.61667">
        <ele>204.764576</ele>
        <time>2021-09-11T06:01:13.000Z</time>
      </trkpt>
      <trkpt lat="46.7292" lon="3.61708">
        <ele>204.931437</ele>
        <time>2021-09-11T06:01:20.000Z</time>
      </trkpt>
      <trkpt lat="46.72895" lon="3.61743">
        <ele>205.074698</ele>
        <time>2021-09-11T06:01:26.000Z</time>
      </trkpt>
      <trkpt lat="46.7289" lon="3.61749">
        <ele>205.097892</ele>
        <time>2021-09-11T06:01:27.000Z</time>
      </trkpt>
      <trkpt lat="46.72854" lon="3.61791">
        <ele>205.281858</ele>
        <time>2021-09-11T06:01:35.000Z</time>
      </trkpt>
      <trkpt lat="46.72827" lon="3.61821">
        <ele>205.415695</ele>
        <time>2021-09-11T06:01:41.000Z</time>
      </trkpt>
      <trkpt lat="46.72794" lon="3.6186">
        <ele>205.582634</ele>
        <time>2021-09-11T06:01:49.000Z</time>
      </trkpt>
      <trkpt lat="46.72764" lon="3.61894">
        <ele>205.733022</ele>
        <time>2021-09-11T06:01:56.000Z</time>
      </trkpt>
      <trkpt lat="46.72726" lon="3.61938">
        <ele>205.769368</ele>
        <time>2021-09-11T06:02:04.000Z</time>
      </trkpt>
      <trkpt lat="46.72707" lon="3.61959">
        <ele>205.758498</ele>
        <time>2021-09-11T06:02:08.000Z</time>
      </trkpt>
      <trkpt lat="46.72698" lon="3.61969">
        <ele>205.753231</ele>
        <time>2021-09-11T06:02:10.000Z</time>
      </trkpt>
      <trkpt lat="46.72662" lon="3.62011">
        <ele>205.731794</ele>
        <time>2021-09-11T06:02:18.000Z</time>
      </trkpt>
      <trkpt lat="46.72629" lon="3.62049">
        <ele>205.711864</ele>
        <time>2021-09-11T06:02:25.000Z</time>
      </trkpt>
      <trkpt lat="46.72594" lon="3.6209">
        <ele>205.642919</ele>
        <time>2021-09-11T06:02:32.000Z</time>
      </trkpt>
      <trkpt lat="46.72551" lon="3.62141">
        <ele>205.500944</ele>
        <time>2021-09-11T06:02:41.000Z</time>
      </trkpt>
      <trkpt lat="46.72512" lon="3.62187">
        <ele>205.373785</ele>
        <time>2021-09-11T06:02:49.000Z</time>
      </trkpt>
      <trkpt lat="46.72475" lon="3.62232">
        <ele>205.252077</ele>
        <time>2021-09-11T06:02:57.000Z</time>
      </trkpt>
      <trkpt lat="46.72443" lon="3.6227">
        <ele>205.191466</ele>
        <time>2021-09-11T06:03:04.000Z</time>
      </trkpt>
      <trkpt lat="46.72399" lon="3.62323">
        <ele>205.11539</ele>
        <time>2021-09-11T06:03:13.000Z</time>
      </trkpt>
      <trkpt lat="46.72389" lon="3.62334">
        <ele>205.098191</ele>
        <time>2021-09-11T06:03:15.000Z</time>
      </trkpt>
      <trkpt lat="46.72351" lon="3.6238">
        <ele>205.031709</ele>
        <time>2021-09-11T06:03:23.000Z</time>
      </trkpt>
      <trkpt lat="46.72307" lon="3.62433">
        <ele>205.017814</ele>
        <time>2021-09-11T06:03:32.000Z</time>
      </trkpt>
      <trkpt lat="46.72302" lon="3.62439">
        <ele>205.02108</ele>
        <time>2021-09-11T06:03:33.000Z</time>
      </trkpt>
      <trkpt lat="46.72257" lon="3.62492">
        <ele>205.051068</ele>
        <time>2021-09-11T06:03:42.000Z</time>
      </trkpt>
      <trkpt lat="46.72212" lon="3.62546">
        <ele>205.081079</ele>
        <time>2021-09-11T06:03:51.000Z</time>
      </trkpt>
      <trkpt lat="46.72166" lon="3.626">
        <ele>205.141834</ele>
        <time>2021-09-11T06:04:00.000Z</time>
      </trkpt>
      <trkpt lat="46.72121" lon="3.62654">
        <ele>205.221707</ele>
        <time>2021-09-11T06:04:09.000Z</time>
      </trkpt>
      <trkpt lat="46.72076" lon="3.62708">
        <ele>205.302411</ele>
        <time>2021-09-11T06:04:18.000Z</time>
      </trkpt>
      <trkpt lat="46.72071" lon="3.62714">
        <ele>205.311479</ele>
        <time>2021-09-11T06:04:19.000Z</time>
      </trkpt>
      <trkpt lat="46.72029" lon="3.62765">
        <ele>205.343548</ele>
        <time>2021-09-11T06:04:27.000Z</time>
      </trkpt>
      <trkpt lat="46.72024" lon="3.62772">
        <ele>205.344267</ele>
        <time>2021-09-11T06:04:28.000Z</time>
      </trkpt>
      <trkpt lat="46.71979" lon="3.62827">
        <ele>205.350471</ele>
        <time>2021-09-11T06:04:37.000Z</time>
      </trkpt>
      <trkpt lat="46.71936" lon="3.6288">
        <ele>205.35644</ele>
        <time>2021-09-11T06:04:46.000Z</time>
      </trkpt>
      <trkpt lat="46.71898" lon="3.62927">
        <ele>205.356188</ele>
        <time>2021-09-11T06:04:54.000Z</time>
      </trkpt>
      <trkpt lat="46.71858" lon="3.62977">
        <ele>205.350542</ele>
        <time>2021-09-11T06:05:02.000Z</time>
      </trkpt>
      <trkpt lat="46.71824" lon="3.63019">
        <ele>205.345645</ele>
        <time>2021-09-11T06:05:09.000Z</time>
      </trkpt>
      <trkpt lat="46.71793" lon="3.63054">
        <ele>205.34143</ele>
        <time>2021-09-11T06:05:15.000Z</time>
      </trkpt>
      <trkpt lat="46.71758" lon="3.63082">
        <ele>205.344324</ele>
        <time>2021-09-11T06:05:21.000Z</time>
      </trkpt>
      <trkpt lat="46.71727" lon="3.63094">
        <ele>205.35146</ele>
        <time>2021-09-11T06:05:26.000Z</time>
      </trkpt>
      <trkpt lat="46.71685" lon="3.63102">
        <ele>205.360948</ele>
        <time>2021-09-11T06:05:33.000Z</time>
      </trkpt>
      <trkpt lat="46.71638" lon="3.63111">
        <ele>205.37144</ele>
        <time>2021-09-11T06:05:41.000Z</time>
      </trkpt>
      <trkpt lat="46.71596" lon="3.63121">
        <ele>205.394955</ele>
        <time>2021-09-11T06:05:48.000Z</time>
      </trkpt>
      <trkpt lat="46.71561" lon="3.6313">
        <ele>205.474742</ele>
        <time>2021-09-11T06:05:54.000Z</time>
      </trkpt>
      <trkpt lat="46.71537" lon="3.63135">
        <ele>205.530489</ele>
        <time>2021-09-11T06:05:59.000Z</time>
      </trkpt>
      <trkpt lat="46.71532" lon="3.63137">
        <ele>205.541445</ele>
        <time>2021-09-11T06:06:00.000Z</time>
      </trkpt>
      <trkpt lat="46.71518" lon="3.6314">
        <ele>205.572089</ele>
        <time>2021-09-11T06:06:03.000Z</time>
      </trkpt>
      <trkpt lat="46.7151" lon="3.63142">
        <ele>205.591727</ele>
        <time>2021-09-11T06:06:05.000Z</time>
      </trkpt>
      <trkpt lat="46.71497" lon="3.63145">
        <ele>205.619848</ele>
        <time>2021-09-11T06:06:08.000Z</time>
      </trkpt>
      <trkpt lat="46.71484" lon="3.63148">
        <ele>205.650689</ele>
        <time>2021-09-11T06:06:11.000Z</time>
      </trkpt>
      <trkpt lat="46.71475" lon="3.6315">
        <ele>205.670574</ele>
        <time>2021-09-11T06:06:13.000Z</time>
      </trkpt>
      <trkpt lat="46.71462" lon="3.63153">
        <ele>205.700722</ele>
        <time>2021-09-11T06:06:16.000Z</time>
      </trkpt>
      <trkpt lat="46.71448" lon="3.63157">
        <ele>205.732726</ele>
        <time>2021-09-11T06:06:19.000Z</time>
      </trkpt>
      <trkpt lat="46.71439" lon="3.63159">
        <ele>205.754441</ele>
        <time>2021-09-11T06:06:21.000Z</time>
      </trkpt>
      <trkpt lat="46.71434" lon="3.6316">
        <ele>205.765621</ele>
        <time>2021-09-11T06:06:22.000Z</time>
      </trkpt>
      <trkpt lat="46.71405" lon="3.63167">
        <ele>205.841495</ele>
        <time>2021-09-11T06:06:28.000Z</time>
      </trkpt>
      <trkpt lat="46.714" lon="3.63168">
        <ele>205.8557</ele>
        <time>2021-09-11T06:06:29.000Z</time>
      </trkpt>
      <trkpt lat="46.71385" lon="3.63172">
        <ele>205.897107</ele>
        <time>2021-09-11T06:06:32.000Z</time>
      </trkpt>
      <trkpt lat="46.7137" lon="3.63175">
        <ele>205.937431</ele>
        <time>2021-09-11T06:06:35.000Z</time>
      </trkpt>
      <trkpt lat="46.7136" lon="3.63178">
        <ele>205.964966</ele>
        <time>2021-09-11T06:06:37.000Z</time>
      </trkpt>
      <trkpt lat="46.71347" lon="3.63181">
        <ele>206.003334</ele>
        <time>2021-09-11T06:06:40.000Z</time>
      </trkpt>
      <trkpt lat="46.71342" lon="3.63182">
        <ele>206.016394</ele>
        <time>2021-09-11T06:06:41.000Z</time>
      </trkpt>
      <trkpt lat="46.71319" lon="3.63188">
        <ele>206.080611</ele>
        <time>2021-09-11T06:06:46.000Z</time>
      </trkpt>
      <trkpt lat="46.71309" lon="3.6319">
        <ele>206.107303</ele>
        <time>2021-09-11T06:06:48.000Z</time>
      </trkpt>
      <trkpt lat="46.71291" lon="3.63194">
        <ele>206.159032</ele>
        <time>2021-09-11T06:06:52.000Z</time>
      </trkpt>
      <trkpt lat="46.71253" lon="3.63203">
        <ele>206.264115</ele>
        <time>2021-09-11T06:06:59.000Z</time>
      </trkpt>
      <trkpt lat="46.71195" lon="3.63217">
        <ele>206.465824</ele>
        <time>2021-09-11T06:07:08.000Z</time>
      </trkpt>
      <trkpt lat="46.71136" lon="3.63231">
        <ele>206.676874</ele>
        <time>2021-09-11T06:07:17.000Z</time>
      </trkpt>
      <trkpt lat="46.71129" lon="3.63233">
        <ele>206.700371</ele>
        <time>2021-09-11T06:07:18.000Z</time>
      </trkpt>
      <trkpt lat="46.7107" lon="3.63247">
        <ele>206.909507</ele>
        <time>2021-09-11T06:07:27.000Z</time>
      </trkpt>
      <trkpt lat="46.71063" lon="3.63249">
        <ele>206.901537</ele>
        <time>2021-09-11T06:07:28.000Z</time>
      </trkpt>
      <trkpt lat="46.7101" lon="3.63262">
        <ele>206.836245</ele>
        <time>2021-09-11T06:07:36.000Z</time>
      </trkpt>
      <trkpt lat="46.70996" lon="3.63265">
        <ele>206.819324</ele>
        <time>2021-09-11T06:07:38.000Z</time>
      </trkpt>
      <trkpt lat="46.70937" lon="3.63279">
        <ele>206.746553</ele>
        <time>2021-09-11T06:07:47.000Z</time>
      </trkpt>
      <trkpt lat="46.7093" lon="3.63281">
        <ele>206.738464</ele>
        <time>2021-09-11T06:07:48.000Z</time>
      </trkpt>
      <trkpt lat="46.7087" lon="3.63295">
        <ele>206.655997</ele>
        <time>2021-09-11T06:07:57.000Z</time>
      </trkpt>
      <trkpt lat="46.70864" lon="3.63297">
        <ele>206.644626</ele>
        <time>2021-09-11T06:07:58.000Z</time>
      </trkpt>
      <trkpt lat="46.7081" lon="3.6331">
        <ele>206.556054</ele>
        <time>2021-09-11T06:08:06.000Z</time>
      </trkpt>
      <trkpt lat="46.70803" lon="3.63311">
        <ele>206.545184</ele>
        <time>2021-09-11T06:08:07.000Z</time>
      </trkpt>
      <trkpt lat="46.70757" lon="3.63322">
        <ele>206.468821</ele>
        <time>2021-09-11T06:08:14.000Z</time>
      </trkpt>
      <trkpt lat="46.70706" lon="3.63334">
        <ele>206.407589</ele>
        <time>2021-09-11T06:08:22.000Z</time>
      </trkpt>
      <trkpt lat="46.70648" lon="3.63348">
        <ele>206.454226</ele>
        <time>2021-09-11T06:08:31.000Z</time>
      </trkpt>
      <trkpt lat="46.70642" lon="3.6335">
        <ele>206.459492</ele>
        <time>2021-09-11T06:08:32.000Z</time>
      </trkpt>
      <trkpt lat="46.70584" lon="3.63364">
        <ele>206.506611</ele>
        <time>2021-09-11T06:08:41.000Z</time>
      </trkpt>
      <trkpt lat="46.70577" lon="3.63365">
        <ele>206.511711</ele>
        <time>2021-09-11T06:08:42.000Z</time>
      </trkpt>
      <trkpt lat="46.7052" lon="3.63379">
        <ele>206.548327</ele>
        <time>2021-09-11T06:08:51.000Z</time>
      </trkpt>
      <trkpt lat="46.70514" lon="3.6338">
        <ele>206.549955</ele>
        <time>2021-09-11T06:08:52.000Z</time>
      </trkpt>
      <trkpt lat="46.7047" lon="3.63391">
        <ele>206.561769</ele>
        <time>2021-09-11T06:08:59.000Z</time>
      </trkpt>
      <trkpt lat="46.70412" lon="3.63405">
        <ele>206.577191</ele>
        <time>2021-09-11T06:09:08.000Z</time>
      </trkpt>
      <trkpt lat="46.70355" lon="3.63418">
        <ele>206.594329</ele>
        <time>2021-09-11T06:09:17.000Z</time>
      </trkpt>
      <trkpt lat="46.70342" lon="3.63421">
        <ele>206.602624</ele>
        <time>2021-09-11T06:09:19.000Z</time>
      </trkpt>
      <trkpt lat="46.70292" lon="3.63433">
        <ele>206.634596</ele>
        <time>2021-09-11T06:09:27.000Z</time>
      </trkpt>
      <trkpt lat="46.70242" lon="3.63445">
        <ele>206.666561</ele>
        <time>2021-09-11T06:09:35.000Z</time>
      </trkpt>
      <trkpt lat="46.70186" lon="3.63459">
        <ele>206.702041</ele>
        <time>2021-09-11T06:09:44.000Z</time>
      </trkpt>
      <trkpt lat="46.7018" lon="3.6346">
        <ele>206.703527</ele>
        <time>2021-09-11T06:09:45.000Z</time>
      </trkpt>
      <trkpt lat="46.70168" lon="3.63463">
        <ele>206.699161</ele>
        <time>2021-09-11T06:09:53.000Z</time>
      </trkpt>
      <trkpt lat="46.70112" lon="3.63476">
        <ele>206.679473</ele>
        <time>2021-09-11T06:09:57.000Z</time>
      </trkpt>
      <trkpt lat="46.70076" lon="3.63485">
        <ele>206.666701</ele>
        <time>2021-09-11T06:10:02.000Z</time>
      </trkpt>
      <trkpt lat="46.70023" lon="3.63498">
        <ele>206.647689</ele>
        <time>2021-09-11T06:10:11.000Z</time>
      </trkpt>
      <trkpt lat="46.69964" lon="3.63511">
        <ele>206.637617</ele>
        <time>2021-09-11T06:10:21.000Z</time>
      </trkpt>
      <trkpt lat="46.69958" lon="3.63513">
        <ele>206.637055</ele>
        <time>2021-09-11T06:10:22.000Z</time>
      </trkpt>
      <trkpt lat="46.69952" lon="3.63514">
        <ele>206.636512</ele>
        <time>2021-09-11T06:10:23.000Z</time>
      </trkpt>
      <trkpt lat="46.69916" lon="3.63523">
        <ele>206.633177</ele>
        <time>2021-09-11T06:10:29.000Z</time>
      </trkpt>
      <trkpt lat="46.69873" lon="3.63533">
        <ele>206.629234</ele>
        <time>2021-09-11T06:10:36.000Z</time>
      </trkpt>
      <trkpt lat="46.69823" lon="3.63544">
        <ele>206.628338</ele>
        <time>2021-09-11T06:10:44.000Z</time>
      </trkpt>
      <trkpt lat="46.69768" lon="3.63557">
        <ele>206.67194</ele>
        <time>2021-09-11T06:10:53.000Z</time>
      </trkpt>
      <trkpt lat="46.69724" lon="3.63567">
        <ele>206.706819</ele>
        <time>2021-09-11T06:11:00.000Z</time>
      </trkpt>
      <trkpt lat="46.69667" lon="3.6358">
        <ele>206.751365</ele>
        <time>2021-09-11T06:11:09.000Z</time>
      </trkpt>
      <trkpt lat="46.6961" lon="3.63594">
        <ele>206.869639</ele>
        <time>2021-09-11T06:11:18.000Z</time>
      </trkpt>
      <trkpt lat="46.69598" lon="3.63596">
        <ele>206.902551</ele>
        <time>2021-09-11T06:11:20.000Z</time>
      </trkpt>
      <trkpt lat="46.69542" lon="3.63609">
        <ele>207.051024</ele>
        <time>2021-09-11T06:11:29.000Z</time>
      </trkpt>
      <trkpt lat="46.69536" lon="3.63611">
        <ele>207.06725</ele>
        <time>2021-09-11T06:11:30.000Z</time>
      </trkpt>
      <trkpt lat="46.69481" lon="3.63624">
        <ele>207.21279</ele>
        <time>2021-09-11T06:11:39.000Z</time>
      </trkpt>
      <trkpt lat="46.69469" lon="3.63626">
        <ele>207.241664</ele>
        <time>2021-09-11T06:11:41.000Z</time>
      </trkpt>
      <trkpt lat="46.69416" lon="3.63639">
        <ele>207.332285</ele>
        <time>2021-09-11T06:11:50.000Z</time>
      </trkpt>
      <trkpt lat="46.6941" lon="3.6364">
        <ele>207.342613</ele>
        <time>2021-09-11T06:11:51.000Z</time>
      </trkpt>
      <trkpt lat="46.69355" lon="3.63653">
        <ele>207.435289</ele>
        <time>2021-09-11T06:12:00.000Z</time>
      </trkpt>
      <trkpt lat="46.69349" lon="3.63655">
        <ele>207.445451</ele>
        <time>2021-09-11T06:12:01.000Z</time>
      </trkpt>
      <trkpt lat="46.69295" lon="3.63667">
        <ele>207.536641</ele>
        <time>2021-09-11T06:12:10.000Z</time>
      </trkpt>
      <trkpt lat="46.69289" lon="3.63669">
        <ele>207.523244</ele>
        <time>2021-09-11T06:12:11.000Z</time>
      </trkpt>
      <trkpt lat="46.69235" lon="3.63682">
        <ele>207.391357</ele>
        <time>2021-09-11T06:12:20.000Z</time>
      </trkpt>
      <trkpt lat="46.69223" lon="3.63685">
        <ele>207.362307</ele>
        <time>2021-09-11T06:12:22.000Z</time>
      </trkpt>
      <trkpt lat="46.69168" lon="3.63698">
        <ele>207.231127</ele>
        <time>2021-09-11T06:12:31.000Z</time>
      </trkpt>
      <trkpt lat="46.69162" lon="3.63699">
        <ele>207.216851</ele>
        <time>2021-09-11T06:12:32.000Z</time>
      </trkpt>
      <trkpt lat="46.69108" lon="3.63712">
        <ele>207.083807</ele>
        <time>2021-09-11T06:12:41.000Z</time>
      </trkpt>
      <trkpt lat="46.69102" lon="3.63714">
        <ele>207.067554</ele>
        <time>2021-09-11T06:12:42.000Z</time>
      </trkpt>
      <trkpt lat="46.69047" lon="3.63727">
        <ele>206.922896</ele>
        <time>2021-09-11T06:12:51.000Z</time>
      </trkpt>
      <trkpt lat="46.69035" lon="3.6373">
        <ele>206.891128</ele>
        <time>2021-09-11T06:12:53.000Z</time>
      </trkpt>
      <trkpt lat="46.6898" lon="3.63743">
        <ele>206.746726</ele>
        <time>2021-09-11T06:13:02.000Z</time>
      </trkpt>
      <trkpt lat="46.68924" lon="3.63756">
        <ele>206.609878</ele>
        <time>2021-09-11T06:13:11.000Z</time>
      </trkpt>
      <trkpt lat="46.68918" lon="3.63758">
        <ele>206.597584</ele>
        <time>2021-09-11T06:13:12.000Z</time>
      </trkpt>
      <trkpt lat="46.68863" lon="3.63771">
        <ele>206.48683</ele>
        <time>2021-09-11T06:13:21.000Z</time>
      </trkpt>
      <trkpt lat="46.68857" lon="3.63772">
        <ele>206.474535</ele>
        <time>2021-09-11T06:13:22.000Z</time>
      </trkpt>
      <trkpt lat="46.68801" lon="3.63786">
        <ele>206.36195</ele>
        <time>2021-09-11T06:13:31.000Z</time>
      </trkpt>
      <trkpt lat="46.68751" lon="3.63798">
        <ele>206.315724</ele>
        <time>2021-09-11T06:13:39.000Z</time>
      </trkpt>
      <trkpt lat="46.68696" lon="3.63811">
        <ele>206.476479</ele>
        <time>2021-09-11T06:13:48.000Z</time>
      </trkpt>
      <trkpt lat="46.6869" lon="3.63812">
        <ele>206.494379</ele>
        <time>2021-09-11T06:13:49.000Z</time>
      </trkpt>
      <trkpt lat="46.68633" lon="3.63826">
        <ele>206.656227</ele>
        <time>2021-09-11T06:13:58.000Z</time>
      </trkpt>
      <trkpt lat="46.68589" lon="3.63836">
        <ele>206.783182</ele>
        <time>2021-09-11T06:14:05.000Z</time>
      </trkpt>
      <trkpt lat="46.68535" lon="3.63849">
        <ele>206.969403</ele>
        <time>2021-09-11T06:14:14.000Z</time>
      </trkpt>
      <trkpt lat="46.68516" lon="3.63853">
        <ele>207.034211</ele>
        <time>2021-09-11T06:14:17.000Z</time>
      </trkpt>
      <trkpt lat="46.6846" lon="3.63867">
        <ele>207.228294</ele>
        <time>2021-09-11T06:14:26.000Z</time>
      </trkpt>
      <trkpt lat="46.68454" lon="3.63868">
        <ele>207.249084</ele>
        <time>2021-09-11T06:14:27.000Z</time>
      </trkpt>
      <trkpt lat="46.68406" lon="3.63879">
        <ele>207.415285</ele>
        <time>2021-09-11T06:14:35.000Z</time>
      </trkpt>
      <trkpt lat="46.68364" lon="3.63889">
        <ele>207.541872</ele>
        <time>2021-09-11T06:14:42.000Z</time>
      </trkpt>
      <trkpt lat="46.68358" lon="3.63891">
        <ele>207.559901</ele>
        <time>2021-09-11T06:14:43.000Z</time>
      </trkpt>
      <trkpt lat="46.68315" lon="3.63901">
        <ele>207.689184</ele>
        <time>2021-09-11T06:14:50.000Z</time>
      </trkpt>
      <trkpt lat="46.68309" lon="3.63902">
        <ele>207.707505</ele>
        <time>2021-09-11T06:14:51.000Z</time>
      </trkpt>
      <trkpt lat="46.68284" lon="3.63908">
        <ele>207.78069</ele>
        <time>2021-09-11T06:14:55.000Z</time>
      </trkpt>
      <trkpt lat="46.68235" lon="3.6392">
        <ele>207.927417</ele>
        <time>2021-09-11T06:15:03.000Z</time>
      </trkpt>
      <trkpt lat="46.6818" lon="3.63933">
        <ele>208.006702</ele>
        <time>2021-09-11T06:15:12.000Z</time>
      </trkpt>
      <trkpt lat="46.68174" lon="3.63934">
        <ele>208.014386</ele>
        <time>2021-09-11T06:15:13.000Z</time>
      </trkpt>
      <trkpt lat="46.68126" lon="3.63945">
        <ele>208.074768</ele>
        <time>2021-09-11T06:15:21.000Z</time>
      </trkpt>
      <trkpt lat="46.68072" lon="3.63958">
        <ele>208.14398</ele>
        <time>2021-09-11T06:15:30.000Z</time>
      </trkpt>
      <trkpt lat="46.68059" lon="3.63961">
        <ele>208.159226</ele>
        <time>2021-09-11T06:15:32.000Z</time>
      </trkpt>
      <trkpt lat="46.68005" lon="3.63974">
        <ele>208.24053</ele>
        <time>2021-09-11T06:15:41.000Z</time>
      </trkpt>
      <trkpt lat="46.67999" lon="3.63975">
        <ele>208.250008</ele>
        <time>2021-09-11T06:15:42.000Z</time>
      </trkpt>
      <trkpt lat="46.67945" lon="3.63987">
        <ele>208.332204</ele>
        <time>2021-09-11T06:15:51.000Z</time>
      </trkpt>
      <trkpt lat="46.67897" lon="3.63996">
        <ele>208.406017</ele>
        <time>2021-09-11T06:15:59.000Z</time>
      </trkpt>
      <trkpt lat="46.67847" lon="3.63994">
        <ele>208.453681</ele>
        <time>2021-09-11T06:16:07.000Z</time>
      </trkpt>
      <trkpt lat="46.67799" lon="3.63989">
        <ele>208.478358</ele>
        <time>2021-09-11T06:16:15.000Z</time>
      </trkpt>
      <trkpt lat="46.67745" lon="3.63983">
        <ele>208.506004</ele>
        <time>2021-09-11T06:16:24.000Z</time>
      </trkpt>
      <trkpt lat="46.67739" lon="3.63982">
        <ele>208.509228</ele>
        <time>2021-09-11T06:16:25.000Z</time>
      </trkpt>
      <trkpt lat="46.67684" lon="3.63977">
        <ele>208.562903</ele>
        <time>2021-09-11T06:16:34.000Z</time>
      </trkpt>
      <trkpt lat="46.67678" lon="3.63976">
        <ele>208.580947</ele>
        <time>2021-09-11T06:16:35.000Z</time>
      </trkpt>
      <trkpt lat="46.67619" lon="3.6397">
        <ele>208.759937</ele>
        <time>2021-09-11T06:16:45.000Z</time>
      </trkpt>
      <trkpt lat="46.67572" lon="3.63965">
        <ele>208.90013</ele>
        <time>2021-09-11T06:16:53.000Z</time>
      </trkpt>
      <trkpt lat="46.67513" lon="3.63957">
        <ele>209.077164</ele>
        <time>2021-09-11T06:17:03.000Z</time>
      </trkpt>
      <trkpt lat="46.67468" lon="3.6395">
        <ele>209.190718</ele>
        <time>2021-09-11T06:17:11.000Z</time>
      </trkpt>
      <trkpt lat="46.67425" lon="3.63944">
        <ele>209.300739</ele>
        <time>2021-09-11T06:17:19.000Z</time>
      </trkpt>
      <trkpt lat="46.67381" lon="3.63938">
        <ele>209.411246</ele>
        <time>2021-09-11T06:17:27.000Z</time>
      </trkpt>
      <trkpt lat="46.67337" lon="3.63932">
        <ele>209.524046</ele>
        <time>2021-09-11T06:17:35.000Z</time>
      </trkpt>
      <trkpt lat="46.67309" lon="3.63928">
        <ele>209.582728</ele>
        <time>2021-09-11T06:17:40.000Z</time>
      </trkpt>
      <trkpt lat="46.67298" lon="3.63927">
        <ele>209.607051</ele>
        <time>2021-09-11T06:17:42.000Z</time>
      </trkpt>
      <trkpt lat="46.67243" lon="3.63919">
        <ele>209.723326</ele>
        <time>2021-09-11T06:17:51.000Z</time>
      </trkpt>
      <trkpt lat="46.67192" lon="3.63912">
        <ele>209.833189</ele>
        <time>2021-09-11T06:17:59.000Z</time>
      </trkpt>
      <trkpt lat="46.67134" lon="3.63904">
        <ele>209.907184</ele>
        <time>2021-09-11T06:18:08.000Z</time>
      </trkpt>
      <trkpt lat="46.67127" lon="3.63903">
        <ele>209.907104</ele>
        <time>2021-09-11T06:18:09.000Z</time>
      </trkpt>
      <trkpt lat="46.67069" lon="3.63892">
        <ele>209.90639</ele>
        <time>2021-09-11T06:18:18.000Z</time>
      </trkpt>
      <trkpt lat="46.67024" lon="3.63882">
        <ele>209.90585</ele>
        <time>2021-09-11T06:18:25.000Z</time>
      </trkpt>
      <trkpt lat="46.66968" lon="3.6387">
        <ele>209.910708</ele>
        <time>2021-09-11T06:18:34.000Z</time>
      </trkpt>
      <trkpt lat="46.66912" lon="3.63858">
        <ele>209.939319</ele>
        <time>2021-09-11T06:18:43.000Z</time>
      </trkpt>
      <trkpt lat="46.66899" lon="3.63855">
        <ele>209.945586</ele>
        <time>2021-09-11T06:18:45.000Z</time>
      </trkpt>
      <trkpt lat="46.66844" lon="3.63843">
        <ele>209.973385</ele>
        <time>2021-09-11T06:18:54.000Z</time>
      </trkpt>
      <trkpt lat="46.66838" lon="3.63842">
        <ele>209.976467</ele>
        <time>2021-09-11T06:18:55.000Z</time>
      </trkpt>
      <trkpt lat="46.66796" lon="3.63833">
        <ele>209.995413</ele>
        <time>2021-09-11T06:19:02.000Z</time>
      </trkpt>
      <trkpt lat="46.66747" lon="3.63822">
        <ele>209.997412</ele>
        <time>2021-09-11T06:19:10.000Z</time>
      </trkpt>
      <trkpt lat="46.66705" lon="3.63813">
        <ele>209.999164</ele>
        <time>2021-09-11T06:19:17.000Z</time>
      </trkpt>
      <trkpt lat="46.66656" lon="3.63802">
        <ele>210.001196</ele>
        <time>2021-09-11T06:19:25.000Z</time>
      </trkpt>
      <trkpt lat="46.66601" lon="3.6379">
        <ele>209.960771</ele>
        <time>2021-09-11T06:19:34.000Z</time>
      </trkpt>
      <trkpt lat="46.66547" lon="3.63778">
        <ele>209.855611</ele>
        <time>2021-09-11T06:19:43.000Z</time>
      </trkpt>
      <trkpt lat="46.66541" lon="3.63777">
        <ele>209.843865</ele>
        <time>2021-09-11T06:19:44.000Z</time>
      </trkpt>
      <trkpt lat="46.66493" lon="3.63771">
        <ele>209.752301</ele>
        <time>2021-09-11T06:19:52.000Z</time>
      </trkpt>
      <trkpt lat="46.66445" lon="3.6377">
        <ele>209.660496</ele>
        <time>2021-09-11T06:20:00.000Z</time>
      </trkpt>
      <trkpt lat="46.66396" lon="3.63782">
        <ele>209.6992</ele>
        <time>2021-09-11T06:20:08.000Z</time>
      </trkpt>
      <trkpt lat="46.66343" lon="3.63805">
        <ele>209.743778</ele>
        <time>2021-09-11T06:20:17.000Z</time>
      </trkpt>
      <trkpt lat="46.66294" lon="3.63837">
        <ele>209.788013</ele>
        <time>2021-09-11T06:20:26.000Z</time>
      </trkpt>
      <trkpt lat="46.66255" lon="3.63867">
        <ele>209.830002</ele>
        <time>2021-09-11T06:20:33.000Z</time>
      </trkpt>
      <trkpt lat="46.66212" lon="3.63903">
        <ele>209.883793</ele>
        <time>2021-09-11T06:20:41.000Z</time>
      </trkpt>
      <trkpt lat="46.66164" lon="3.63945">
        <ele>209.944199</ele>
        <time>2021-09-11T06:20:50.000Z</time>
      </trkpt>
      <trkpt lat="46.66153" lon="3.63954">
        <ele>209.957792</ele>
        <time>2021-09-11T06:20:52.000Z</time>
      </trkpt>
      <trkpt lat="46.66107" lon="3.63995">
        <ele>209.995454</ele>
        <time>2021-09-11T06:21:01.000Z</time>
      </trkpt>
      <trkpt lat="46.66059" lon="3.64037">
        <ele>209.976612</ele>
        <time>2021-09-11T06:21:10.000Z</time>
      </trkpt>
      <trkpt lat="46.66048" lon="3.64046">
        <ele>209.972477</ele>
        <time>2021-09-11T06:21:12.000Z</time>
      </trkpt>
      <trkpt lat="46.66006" lon="3.64083">
        <ele>209.956031</ele>
        <time>2021-09-11T06:21:20.000Z</time>
      </trkpt>
      <trkpt lat="46.65955" lon="3.64128">
        <ele>209.922452</ele>
        <time>2021-09-11T06:21:30.000Z</time>
      </trkpt>
      <trkpt lat="46.65903" lon="3.64171">
        <ele>209.835385</ele>
        <time>2021-09-11T06:21:40.000Z</time>
      </trkpt>
      <trkpt lat="46.65893" lon="3.6418">
        <ele>209.817987</ele>
        <time>2021-09-11T06:21:42.000Z</time>
      </trkpt>
      <trkpt lat="46.65847" lon="3.64219">
        <ele>209.741117</ele>
        <time>2021-09-11T06:21:51.000Z</time>
      </trkpt>
      <trkpt lat="46.65797" lon="3.64262">
        <ele>209.608015</ele>
        <time>2021-09-11T06:22:01.000Z</time>
      </trkpt>
      <trkpt lat="46.6575" lon="3.64302">
        <ele>209.362198</ele>
        <time>2021-09-11T06:22:10.000Z</time>
      </trkpt>
      <trkpt lat="46.65719" lon="3.64329">
        <ele>209.19861</ele>
        <time>2021-09-11T06:22:16.000Z</time>
      </trkpt>
      <trkpt lat="46.65683" lon="3.6436">
        <ele>209.008584</ele>
        <time>2021-09-11T06:22:23.000Z</time>
      </trkpt>
      <trkpt lat="46.65647" lon="3.64391">
        <ele>208.727256</ele>
        <time>2021-09-11T06:22:30.000Z</time>
      </trkpt>
      <trkpt lat="46.65606" lon="3.64427">
        <ele>208.036947</ele>
        <time>2021-09-11T06:22:38.000Z</time>
      </trkpt>
      <trkpt lat="46.65558" lon="3.64469">
        <ele>207.228793</ele>
        <time>2021-09-11T06:22:47.000Z</time>
      </trkpt>
      <trkpt lat="46.65553" lon="3.64473">
        <ele>207.137914</ele>
        <time>2021-09-11T06:22:48.000Z</time>
      </trkpt>
      <trkpt lat="46.6551" lon="3.64511">
        <ele>206.413059</ele>
        <time>2021-09-11T06:22:56.000Z</time>
      </trkpt>
      <trkpt lat="46.65479" lon="3.64545">
        <ele>206.088515</ele>
        <time>2021-09-11T06:23:02.000Z</time>
      </trkpt>
      <trkpt lat="46.65469" lon="3.64556">
        <ele>206.009109</ele>
        <time>2021-09-11T06:23:04.000Z</time>
      </trkpt>
      <trkpt lat="46.65424" lon="3.64608">
        <ele>205.650031</ele>
        <time>2021-09-11T06:23:13.000Z</time>
      </trkpt>
      <trkpt lat="46.65375" lon="3.64648">
        <ele>205.301423</ele>
        <time>2021-09-11T06:23:22.000Z</time>
      </trkpt>
      <trkpt lat="46.65369" lon="3.64653">
        <ele>205.26283</ele>
        <time>2021-09-11T06:23:23.000Z</time>
      </trkpt>
      <trkpt lat="46.65353" lon="3.64665">
        <ele>205.148742</ele>
        <time>2021-09-11T06:23:26.000Z</time>
      </trkpt>
      <trkpt lat="46.65331" lon="3.64682">
        <ele>205.189232</ele>
        <time>2021-09-11T06:23:30.000Z</time>
      </trkpt>
      <trkpt lat="46.65297" lon="3.64703">
        <ele>205.262134</ele>
        <time>2021-09-11T06:23:36.000Z</time>
      </trkpt>
      <trkpt lat="46.6525" lon="3.64727">
        <ele>205.360402</ele>
        <time>2021-09-11T06:23:44.000Z</time>
      </trkpt>
      <trkpt lat="46.65196" lon="3.64747">
        <ele>205.471247</ele>
        <time>2021-09-11T06:23:53.000Z</time>
      </trkpt>
      <trkpt lat="46.6519" lon="3.64749">
        <ele>205.483702</ele>
        <time>2021-09-11T06:23:54.000Z</time>
      </trkpt>
      <trkpt lat="46.65136" lon="3.64764">
        <ele>205.917819</ele>
        <time>2021-09-11T06:24:03.000Z</time>
      </trkpt>
      <trkpt lat="46.6513" lon="3.64765">
        <ele>205.969499</ele>
        <time>2021-09-11T06:24:04.000Z</time>
      </trkpt>
      <trkpt lat="46.65071" lon="3.6478">
        <ele>206.496539</ele>
        <time>2021-09-11T06:24:14.000Z</time>
      </trkpt>
      <trkpt lat="46.65065" lon="3.64781">
        <ele>206.549087</ele>
        <time>2021-09-11T06:24:15.000Z</time>
      </trkpt>
      <trkpt lat="46.65012" lon="3.64795">
        <ele>207.024966</ele>
        <time>2021-09-11T06:24:24.000Z</time>
      </trkpt>
      <trkpt lat="46.64969" lon="3.64807">
        <ele>207.31785</ele>
        <time>2021-09-11T06:24:31.000Z</time>
      </trkpt>
      <trkpt lat="46.64915" lon="3.64825">
        <ele>207.667913</ele>
        <time>2021-09-11T06:24:40.000Z</time>
      </trkpt>
      <trkpt lat="46.64868" lon="3.64852">
        <ele>207.989134</ele>
        <time>2021-09-11T06:24:48.000Z</time>
      </trkpt>
      <trkpt lat="46.64816" lon="3.64882">
        <ele>208.144077</ele>
        <time>2021-09-11T06:24:57.000Z</time>
      </trkpt>
      <trkpt lat="46.64805" lon="3.64889">
        <ele>208.091776</ele>
        <time>2021-09-11T06:24:59.000Z</time>
      </trkpt>
      <trkpt lat="46.64758" lon="3.64917">
        <ele>207.8796</ele>
        <time>2021-09-11T06:25:07.000Z</time>
      </trkpt>
      <trkpt lat="46.64723" lon="3.64938">
        <ele>207.722477</ele>
        <time>2021-09-11T06:25:13.000Z</time>
      </trkpt>
      <trkpt lat="46.64687" lon="3.64959">
        <ele>207.562217</ele>
        <time>2021-09-11T06:25:19.000Z</time>
      </trkpt>
      <trkpt lat="46.64631" lon="3.64993">
        <ele>207.234386</ele>
        <time>2021-09-11T06:25:28.000Z</time>
      </trkpt>
      <trkpt lat="46.6458" lon="3.65024">
        <ele>206.892257</ele>
        <time>2021-09-11T06:25:36.000Z</time>
      </trkpt>
      <trkpt lat="46.64567" lon="3.65031">
        <ele>206.807049</ele>
        <time>2021-09-11T06:25:38.000Z</time>
      </trkpt>
      <trkpt lat="46.64515" lon="3.6506">
        <ele>206.468113</ele>
        <time>2021-09-11T06:25:46.000Z</time>
      </trkpt>
      <trkpt lat="46.6447" lon="3.65085">
        <ele>206.407004</ele>
        <time>2021-09-11T06:25:53.000Z</time>
      </trkpt>
      <trkpt lat="46.64422" lon="3.65118">
        <ele>206.45904</ele>
        <time>2021-09-11T06:26:01.000Z</time>
      </trkpt>
      <trkpt lat="46.64389" lon="3.65154">
        <ele>206.498927</ele>
        <time>2021-09-11T06:26:07.000Z</time>
      </trkpt>
      <trkpt lat="46.64359" lon="3.65204">
        <ele>206.543333</ele>
        <time>2021-09-11T06:26:14.000Z</time>
      </trkpt>
      <trkpt lat="46.64333" lon="3.65266">
        <ele>206.748016</ele>
        <time>2021-09-11T06:26:22.000Z</time>
      </trkpt>
      <trkpt lat="46.64312" lon="3.65322">
        <ele>206.946576</ele>
        <time>2021-09-11T06:26:29.000Z</time>
      </trkpt>
      <trkpt lat="46.64289" lon="3.65383">
        <ele>207.169191</ele>
        <time>2021-09-11T06:26:37.000Z</time>
      </trkpt>
      <trkpt lat="46.64259" lon="3.6544">
        <ele>207.382716</ele>
        <time>2021-09-11T06:26:45.000Z</time>
      </trkpt>
      <trkpt lat="46.64227" lon="3.65485">
        <ele>207.457111</ele>
        <time>2021-09-11T06:26:52.000Z</time>
      </trkpt>
      <trkpt lat="46.6419" lon="3.65536">
        <ele>207.539398</ele>
        <time>2021-09-11T06:27:00.000Z</time>
      </trkpt>
      <trkpt lat="46.6415" lon="3.65591">
        <ele>207.630166</ele>
        <time>2021-09-11T06:27:09.000Z</time>
      </trkpt>
      <trkpt lat="46.64145" lon="3.65597">
        <ele>207.640609</ele>
        <time>2021-09-11T06:27:10.000Z</time>
      </trkpt>
      <trkpt lat="46.64105" lon="3.65651">
        <ele>207.767784</ele>
        <time>2021-09-11T06:27:19.000Z</time>
      </trkpt>
      <trkpt lat="46.641" lon="3.65656">
        <ele>207.783971</ele>
        <time>2021-09-11T06:27:20.000Z</time>
      </trkpt>
      <trkpt lat="46.64054" lon="3.65712">
        <ele>207.945523</ele>
        <time>2021-09-11T06:27:30.000Z</time>
      </trkpt>
      <trkpt lat="46.64045" lon="3.65723">
        <ele>207.97849</ele>
        <time>2021-09-11T06:27:32.000Z</time>
      </trkpt>
      <trkpt lat="46.64" lon="3.65769">
        <ele>208.127475</ele>
        <time>2021-09-11T06:27:41.000Z</time>
      </trkpt>
      <trkpt lat="46.63995" lon="3.65774">
        <ele>208.143956</ele>
        <time>2021-09-11T06:27:42.000Z</time>
      </trkpt>
      <trkpt lat="46.63948" lon="3.65818">
        <ele>208.268092</ele>
        <time>2021-09-11T06:27:51.000Z</time>
      </trkpt>
      <trkpt lat="46.639" lon="3.65859">
        <ele>208.392663</ele>
        <time>2021-09-11T06:28:00.000Z</time>
      </trkpt>
      <trkpt lat="46.63894" lon="3.65864">
        <ele>208.4065</ele>
        <time>2021-09-11T06:28:01.000Z</time>
      </trkpt>
      <trkpt lat="46.63844" lon="3.65905">
        <ele>208.534593</ele>
        <time>2021-09-11T06:28:10.000Z</time>
      </trkpt>
      <trkpt lat="46.63792" lon="3.65948">
        <ele>208.648045</ele>
        <time>2021-09-11T06:28:19.000Z</time>
      </trkpt>
      <trkpt lat="46.63746" lon="3.65999">
        <ele>208.756068</ele>
        <time>2021-09-11T06:28:28.000Z</time>
      </trkpt>
      <trkpt lat="46.63708" lon="3.66045">
        <ele>208.849001</ele>
        <time>2021-09-11T06:28:36.000Z</time>
      </trkpt>
      <trkpt lat="46.63667" lon="3.66104">
        <ele>208.917377</ele>
        <time>2021-09-11T06:28:45.000Z</time>
      </trkpt>
      <trkpt lat="46.63658" lon="3.66117">
        <ele>208.927544</ele>
        <time>2021-09-11T06:28:47.000Z</time>
      </trkpt>
      <trkpt lat="46.63619" lon="3.66179">
        <ele>208.973478</ele>
        <time>2021-09-11T06:28:56.000Z</time>
      </trkpt>
      <trkpt lat="46.6358" lon="3.66241">
        <ele>209.019183</ele>
        <time>2021-09-11T06:29:05.000Z</time>
      </trkpt>
      <trkpt lat="46.63575" lon="3.66247">
        <ele>209.024208</ele>
        <time>2021-09-11T06:29:06.000Z</time>
      </trkpt>
      <trkpt lat="46.63542" lon="3.66301">
        <ele>209.068893</ele>
        <time>2021-09-11T06:29:14.000Z</time>
      </trkpt>
      <trkpt lat="46.63513" lon="3.66347">
        <ele>209.10921</ele>
        <time>2021-09-11T06:29:21.000Z</time>
      </trkpt>
      <trkpt lat="46.63474" lon="3.66409">
        <ele>209.16296</ele>
        <time>2021-09-11T06:29:30.000Z</time>
      </trkpt>
      <trkpt lat="46.63434" lon="3.66471">
        <ele>209.214662</ele>
        <time>2021-09-11T06:29:39.000Z</time>
      </trkpt>
      <trkpt lat="46.63403" lon="3.66517">
        <ele>209.250106</ele>
        <time>2021-09-11T06:29:46.000Z</time>
      </trkpt>
      <trkpt lat="46.63398" lon="3.66522">
        <ele>209.255061</ele>
        <time>2021-09-11T06:29:47.000Z</time>
      </trkpt>
      <trkpt lat="46.6337" lon="3.66551">
        <ele>209.282977</ele>
        <time>2021-09-11T06:29:53.000Z</time>
      </trkpt>
      <trkpt lat="46.63337" lon="3.66582">
        <ele>209.314312</ele>
        <time>2021-09-11T06:30:00.000Z</time>
      </trkpt>
      <trkpt lat="46.63321" lon="3.66593">
        <ele>209.328037</ele>
        <time>2021-09-11T06:30:03.000Z</time>
      </trkpt>
      <trkpt lat="46.63305" lon="3.66604">
        <ele>209.342209</ele>
        <time>2021-09-11T06:30:06.000Z</time>
      </trkpt>
      <trkpt lat="46.63274" lon="3.66608">
        <ele>209.419374</ele>
        <time>2021-09-11T06:30:11.000Z</time>
      </trkpt>
      <trkpt lat="46.63216" lon="3.66616">
        <ele>209.57001</ele>
        <time>2021-09-11T06:30:20.000Z</time>
      </trkpt>
      <trkpt lat="46.63204" lon="3.66617">
        <ele>209.603342</ele>
        <time>2021-09-11T06:30:22.000Z</time>
      </trkpt>
      <trkpt lat="46.63146" lon="3.66623">
        <ele>209.752296</ele>
        <time>2021-09-11T06:30:31.000Z</time>
      </trkpt>
      <trkpt lat="46.6314" lon="3.66624">
        <ele>209.768444</ele>
        <time>2021-09-11T06:30:32.000Z</time>
      </trkpt>
      <trkpt lat="46.6311" lon="3.66627">
        <ele>209.814234</ele>
        <time>2021-09-11T06:30:37.000Z</time>
      </trkpt>
      <trkpt lat="46.63099" lon="3.66629">
        <ele>209.816636</ele>
        <time>2021-09-11T06:30:39.000Z</time>
      </trkpt>
      <trkpt lat="46.63094" lon="3.66629">
        <ele>209.817727</ele>
        <time>2021-09-11T06:30:40.000Z</time>
      </trkpt>
      <trkpt lat="46.63087" lon="3.6663">
        <ele>209.819394</ele>
        <time>2021-09-11T06:30:42.000Z</time>
      </trkpt>
      <trkpt lat="46.63084" lon="3.66647">
        <ele>209.822112</ele>
        <time>2021-09-11T06:30:44.000Z</time>
      </trkpt>
      <trkpt lat="46.63084" lon="3.66655">
        <ele>209.82327</ele>
        <time>2021-09-11T06:30:45.000Z</time>
      </trkpt>
      <trkpt lat="46.63083" lon="3.66705">
        <ele>209.830847</ele>
        <time>2021-09-11T06:30:51.000Z</time>
      </trkpt>
      <trkpt lat="46.63081" lon="3.66758">
        <ele>209.838987</ele>
        <time>2021-09-11T06:30:57.000Z</time>
      </trkpt>
      <trkpt lat="46.63081" lon="3.66767">
        <ele>209.840267</ele>
        <time>2021-09-11T06:30:58.000Z</time>
      </trkpt>
      <trkpt lat="46.63071" lon="3.66776">
        <ele>209.842928</ele>
        <time>2021-09-11T06:30:59.000Z</time>
      </trkpt>
      <trkpt lat="46.63058" lon="3.6678">
        <ele>209.84578</ele>
        <time>2021-09-11T06:31:01.000Z</time>
      </trkpt>
      <trkpt lat="46.63006" lon="3.66802">
        <ele>209.808817</ele>
        <time>2021-09-11T06:31:09.000Z</time>
      </trkpt>
      <trkpt lat="46.6295" lon="3.66827">
        <ele>209.725931</ele>
        <time>2021-09-11T06:31:18.000Z</time>
      </trkpt>
      <trkpt lat="46.62943" lon="3.6683">
        <ele>209.717061</ele>
        <time>2021-09-11T06:31:19.000Z</time>
      </trkpt>
      <trkpt lat="46.62889" lon="3.66854">
        <ele>209.637364</ele>
        <time>2021-09-11T06:31:28.000Z</time>
      </trkpt>
      <trkpt lat="46.62836" lon="3.66877">
        <ele>209.62376</ele>
        <time>2021-09-11T06:31:37.000Z</time>
      </trkpt>
      <trkpt lat="46.6279" lon="3.66897">
        <ele>209.663238</ele>
        <time>2021-09-11T06:31:45.000Z</time>
      </trkpt>
      <trkpt lat="46.62738" lon="3.66919">
        <ele>209.708012</ele>
        <time>2021-09-11T06:31:54.000Z</time>
      </trkpt>
      <trkpt lat="46.6272" lon="3.66926">
        <ele>209.722953</ele>
        <time>2021-09-11T06:31:57.000Z</time>
      </trkpt>
      <trkpt lat="46.62668" lon="3.66947">
        <ele>209.784718</ele>
        <time>2021-09-11T06:32:06.000Z</time>
      </trkpt>
      <trkpt lat="46.62662" lon="3.66949">
        <ele>209.79417</ele>
        <time>2021-09-11T06:32:07.000Z</time>
      </trkpt>
      <trkpt lat="46.62621" lon="3.66956">
        <ele>209.859041</ele>
        <time>2021-09-11T06:32:14.000Z</time>
      </trkpt>
      <trkpt lat="46.62572" lon="3.66962">
        <ele>209.935253</ele>
        <time>2021-09-11T06:32:22.000Z</time>
      </trkpt>
      <trkpt lat="46.62523" lon="3.66968">
        <ele>210.010818</ele>
        <time>2021-09-11T06:32:30.000Z</time>
      </trkpt>
      <trkpt lat="46.62475" lon="3.66973">
        <ele>210.037767</ele>
        <time>2021-09-11T06:32:38.000Z</time>
      </trkpt>
      <trkpt lat="46.62421" lon="3.6698">
        <ele>210.051329</ele>
        <time>2021-09-11T06:32:47.000Z</time>
      </trkpt>
      <trkpt lat="46.62365" lon="3.66986">
        <ele>210.065266</ele>
        <time>2021-09-11T06:32:56.000Z</time>
      </trkpt>
      <trkpt lat="46.62311" lon="3.66992">
        <ele>210.120148</ele>
        <time>2021-09-11T06:33:05.000Z</time>
      </trkpt>
      <trkpt lat="46.62293" lon="3.66994">
        <ele>210.15971</ele>
        <time>2021-09-11T06:33:08.000Z</time>
      </trkpt>
      <trkpt lat="46.62237" lon="3.66995">
        <ele>210.278411</ele>
        <time>2021-09-11T06:33:17.000Z</time>
      </trkpt>
      <trkpt lat="46.62178" lon="3.6699">
        <ele>210.406571</ele>
        <time>2021-09-11T06:33:27.000Z</time>
      </trkpt>
      <trkpt lat="46.62122" lon="3.66981">
        <ele>210.581828</ele>
        <time>2021-09-11T06:33:37.000Z</time>
      </trkpt>
      <trkpt lat="46.62077" lon="3.66979">
        <ele>210.752732</ele>
        <time>2021-09-11T06:33:45.000Z</time>
      </trkpt>
      <trkpt lat="46.62025" lon="3.66983">
        <ele>210.95398</ele>
        <time>2021-09-11T06:33:54.000Z</time>
      </trkpt>
      <trkpt lat="46.61974" lon="3.66992">
        <ele>211.150817</ele>
        <time>2021-09-11T06:34:03.000Z</time>
      </trkpt>
      <trkpt lat="46.61925" lon="3.67">
        <ele>211.10115</ele>
        <time>2021-09-11T06:34:11.000Z</time>
      </trkpt>
      <trkpt lat="46.6187" lon="3.6701">
        <ele>211.044158</ele>
        <time>2021-09-11T06:34:20.000Z</time>
      </trkpt>
      <trkpt lat="46.61815" lon="3.67019">
        <ele>210.987369</ele>
        <time>2021-09-11T06:34:29.000Z</time>
      </trkpt>
      <trkpt lat="46.61767" lon="3.67027">
        <ele>210.903573</ele>
        <time>2021-09-11T06:34:37.000Z</time>
      </trkpt>
      <trkpt lat="46.61712" lon="3.67037">
        <ele>210.782491</ele>
        <time>2021-09-11T06:34:46.000Z</time>
      </trkpt>
      <trkpt lat="46.61658" lon="3.67046">
        <ele>210.663597</ele>
        <time>2021-09-11T06:34:55.000Z</time>
      </trkpt>
      <trkpt lat="46.61602" lon="3.67055">
        <ele>210.537471</ele>
        <time>2021-09-11T06:35:04.000Z</time>
      </trkpt>
      <trkpt lat="46.61544" lon="3.67065">
        <ele>210.398138</ele>
        <time>2021-09-11T06:35:13.000Z</time>
      </trkpt>
      <trkpt lat="46.61486" lon="3.67075">
        <ele>210.260246</ele>
        <time>2021-09-11T06:35:22.000Z</time>
      </trkpt>
      <trkpt lat="46.61443" lon="3.67082">
        <ele>210.156941</ele>
        <time>2021-09-11T06:35:29.000Z</time>
      </trkpt>
      <trkpt lat="46.61389" lon="3.67091">
        <ele>210.054509</ele>
        <time>2021-09-11T06:35:38.000Z</time>
      </trkpt>
      <trkpt lat="46.61354" lon="3.67097">
        <ele>209.989459</ele>
        <time>2021-09-11T06:35:44.000Z</time>
      </trkpt>
      <trkpt lat="46.61311" lon="3.67105">
        <ele>209.91156</ele>
        <time>2021-09-11T06:35:51.000Z</time>
      </trkpt>
      <trkpt lat="46.61262" lon="3.6711">
        <ele>209.821896</ele>
        <time>2021-09-11T06:35:59.000Z</time>
      </trkpt>
      <trkpt lat="46.61218" lon="3.67108">
        <ele>209.838762</ele>
        <time>2021-09-11T06:36:06.000Z</time>
      </trkpt>
      <trkpt lat="46.61167" lon="3.67099">
        <ele>209.866008</ele>
        <time>2021-09-11T06:36:14.000Z</time>
      </trkpt>
      <trkpt lat="46.61113" lon="3.67089">
        <ele>209.895309</ele>
        <time>2021-09-11T06:36:23.000Z</time>
      </trkpt>
      <trkpt lat="46.61071" lon="3.67082">
        <ele>209.933373</ele>
        <time>2021-09-11T06:36:30.000Z</time>
      </trkpt>
      <trkpt lat="46.61029" lon="3.67074">
        <ele>210.023475</ele>
        <time>2021-09-11T06:36:37.000Z</time>
      </trkpt>
      <trkpt lat="46.60982" lon="3.67066">
        <ele>210.125888</ele>
        <time>2021-09-11T06:36:45.000Z</time>
      </trkpt>
      <trkpt lat="46.60934" lon="3.67057">
        <ele>210.229597</ele>
        <time>2021-09-11T06:36:53.000Z</time>
      </trkpt>
      <trkpt lat="46.60879" lon="3.67047">
        <ele>210.356866</ele>
        <time>2021-09-11T06:37:02.000Z</time>
      </trkpt>
      <trkpt lat="46.60867" lon="3.67045">
        <ele>210.388105</ele>
        <time>2021-09-11T06:37:04.000Z</time>
      </trkpt>
      <trkpt lat="46.60813" lon="3.67034">
        <ele>210.528267</ele>
        <time>2021-09-11T06:37:13.000Z</time>
      </trkpt>
      <trkpt lat="46.60807" lon="3.67033">
        <ele>210.543771</ele>
        <time>2021-09-11T06:37:14.000Z</time>
      </trkpt>
      <trkpt lat="46.60759" lon="3.67024">
        <ele>210.668705</ele>
        <time>2021-09-11T06:37:22.000Z</time>
      </trkpt>
      <trkpt lat="46.607" lon="3.67013">
        <ele>210.854215</ele>
        <time>2021-09-11T06:37:32.000Z</time>
      </trkpt>
      <trkpt lat="46.60654" lon="3.67004">
        <ele>211.037633</ele>
        <time>2021-09-11T06:37:40.000Z</time>
      </trkpt>
      <trkpt lat="46.60613" lon="3.66995">
        <ele>211.202684</ele>
        <time>2021-09-11T06:37:47.000Z</time>
      </trkpt>
      <trkpt lat="46.60555" lon="3.66984">
        <ele>211.433914</ele>
        <time>2021-09-11T06:37:57.000Z</time>
      </trkpt>
      <trkpt lat="46.60515" lon="3.66979">
        <ele>211.601433</ele>
        <time>2021-09-11T06:38:04.000Z</time>
      </trkpt>
      <trkpt lat="46.60509" lon="3.66978">
        <ele>211.627208</ele>
        <time>2021-09-11T06:38:05.000Z</time>
      </trkpt>
      <trkpt lat="46.60486" lon="3.66975">
        <ele>211.725594</ele>
        <time>2021-09-11T06:38:09.000Z</time>
      </trkpt>
      <trkpt lat="46.60441" lon="3.66974">
        <ele>211.921543</ele>
        <time>2021-09-11T06:38:17.000Z</time>
      </trkpt>
      <trkpt lat="46.60396" lon="3.66973">
        <ele>212.11191</ele>
        <time>2021-09-11T06:38:25.000Z</time>
      </trkpt>
      <trkpt lat="46.60386" lon="3.66973">
        <ele>212.155973</ele>
        <time>2021-09-11T06:38:27.000Z</time>
      </trkpt>
      <trkpt lat="46.60381" lon="3.66973">
        <ele>212.177362</ele>
        <time>2021-09-11T06:38:29.000Z</time>
      </trkpt>
      <trkpt lat="46.60365" lon="3.66957">
        <ele>212.262718</ele>
        <time>2021-09-11T06:38:31.000Z</time>
      </trkpt>
      <trkpt lat="46.60362" lon="3.66969">
        <ele>212.3035</ele>
        <time>2021-09-11T06:38:32.000Z</time>
      </trkpt>
      <trkpt lat="46.60359" lon="3.66973">
        <ele>212.320663</ele>
        <time>2021-09-11T06:38:33.000Z</time>
      </trkpt>
      <trkpt lat="46.6035" lon="3.66985">
        <ele>212.373648</ele>
        <time>2021-09-11T06:38:35.000Z</time>
      </trkpt>
      <trkpt lat="46.60311" lon="3.67024">
        <ele>212.588127</ele>
        <time>2021-09-11T06:38:44.000Z</time>
      </trkpt>
      <trkpt lat="46.60306" lon="3.67029">
        <ele>212.615323</ele>
        <time>2021-09-11T06:38:45.000Z</time>
      </trkpt>
      <trkpt lat="46.60284" lon="3.67056">
        <ele>212.745072</ele>
        <time>2021-09-11T06:38:49.000Z</time>
      </trkpt>
      <trkpt lat="46.6028" lon="3.67063">
        <ele>212.77136</ele>
        <time>2021-09-11T06:38:51.000Z</time>
      </trkpt>
      <trkpt lat="46.60262" lon="3.67094">
        <ele>212.89737</ele>
        <time>2021-09-11T06:38:56.000Z</time>
      </trkpt>
      <trkpt lat="46.60254" lon="3.67114">
        <ele>212.968052</ele>
        <time>2021-09-11T06:38:58.000Z</time>
      </trkpt>
      <trkpt lat="46.60251" lon="3.67121">
        <ele>212.991536</ele>
        <time>2021-09-11T06:39:00.000Z</time>
      </trkpt>
      <trkpt lat="46.60244" lon="3.6714">
        <ele>213.054297</ele>
        <time>2021-09-11T06:39:02.000Z</time>
      </trkpt>
      <trkpt lat="46.60239" lon="3.67154">
        <ele>213.080862</ele>
        <time>2021-09-11T06:39:04.000Z</time>
      </trkpt>
      <trkpt lat="46.60223" lon="3.672">
        <ele>213.16751</ele>
        <time>2021-09-11T06:39:11.000Z</time>
      </trkpt>
      <trkpt lat="46.60219" lon="3.67213">
        <ele>213.19186</ele>
        <time>2021-09-11T06:39:13.000Z</time>
      </trkpt>
      <trkpt lat="46.60215" lon="3.67226">
        <ele>213.215747</ele>
        <time>2021-09-11T06:39:15.000Z</time>
      </trkpt>
      <trkpt lat="46.60213" lon="3.67232">
        <ele>213.227768</ele>
        <time>2021-09-11T06:39:16.000Z</time>
      </trkpt>
      <trkpt lat="46.60202" lon="3.67263">
        <ele>213.286206</ele>
        <time>2021-09-11T06:39:21.000Z</time>
      </trkpt>
      <trkpt lat="46.60199" lon="3.67268">
        <ele>213.297895</ele>
        <time>2021-09-11T06:39:22.000Z</time>
      </trkpt>
      <trkpt lat="46.60194" lon="3.67269">
        <ele>213.309764</ele>
        <time>2021-09-11T06:39:23.000Z</time>
      </trkpt>
      <trkpt lat="46.6019" lon="3.67266">
        <ele>213.322002</ele>
        <time>2021-09-11T06:39:24.000Z</time>
      </trkpt>
      <trkpt lat="46.60181" lon="3.6726">
        <ele>213.346168</ele>
        <time>2021-09-11T06:39:26.000Z</time>
      </trkpt>
      <trkpt lat="46.60158" lon="3.67249">
        <ele>213.40564</ele>
        <time>2021-09-11T06:39:31.000Z</time>
      </trkpt>
      <trkpt lat="46.60154" lon="3.67245">
        <ele>213.417161</ele>
        <time>2021-09-11T06:39:32.000Z</time>
      </trkpt>
      <trkpt lat="46.60148" lon="3.67236">
        <ele>213.439558</ele>
        <time>2021-09-11T06:39:34.000Z</time>
      </trkpt>
      <trkpt lat="46.60145" lon="3.67232">
        <ele>213.449553</ele>
        <time>2021-09-11T06:39:35.000Z</time>
      </trkpt>
      <trkpt lat="46.60125" lon="3.67238">
        <ele>213.494427</ele>
        <time>2021-09-11T06:39:38.000Z</time>
      </trkpt>
      <trkpt lat="46.60108" lon="3.67235">
        <ele>213.51705</ele>
        <time>2021-09-11T06:39:41.000Z</time>
      </trkpt>
      <trkpt lat="46.60074" lon="3.67228">
        <ele>213.562568</ele>
        <time>2021-09-11T06:39:47.000Z</time>
      </trkpt>
      <trkpt lat="46.60068" lon="3.67227">
        <ele>213.570014</ele>
        <time>2021-09-11T06:39:48.000Z</time>
      </trkpt>
      <trkpt lat="46.60027" lon="3.6722">
        <ele>213.625171</ele>
        <time>2021-09-11T06:39:55.000Z</time>
      </trkpt>
      <trkpt lat="46.59984" lon="3.67219">
        <ele>213.681667</ele>
        <time>2021-09-11T06:40:02.000Z</time>
      </trkpt>
      <trkpt lat="46.59935" lon="3.67224">
        <ele>213.669033</ele>
        <time>2021-09-11T06:40:10.000Z</time>
      </trkpt>
      <trkpt lat="46.59884" lon="3.67234">
        <ele>213.47233</ele>
        <time>2021-09-11T06:40:18.000Z</time>
      </trkpt>
      <trkpt lat="46.59835" lon="3.67247">
        <ele>213.279508</ele>
        <time>2021-09-11T06:40:26.000Z</time>
      </trkpt>
      <trkpt lat="46.59787" lon="3.67265">
        <ele>213.090295</ele>
        <time>2021-09-11T06:40:34.000Z</time>
      </trkpt>
      <trkpt lat="46.59735" lon="3.67287">
        <ele>213.106906</ele>
        <time>2021-09-11T06:40:43.000Z</time>
      </trkpt>
      <trkpt lat="46.59729" lon="3.67289">
        <ele>213.117801</ele>
        <time>2021-09-11T06:40:44.000Z</time>
      </trkpt>
      <trkpt lat="46.59676" lon="3.67312">
        <ele>213.217613</ele>
        <time>2021-09-11T06:40:53.000Z</time>
      </trkpt>
      <trkpt lat="46.59629" lon="3.67332">
        <ele>213.305633</ele>
        <time>2021-09-11T06:41:01.000Z</time>
      </trkpt>
      <trkpt lat="46.59574" lon="3.67355">
        <ele>213.399389</ele>
        <time>2021-09-11T06:41:10.000Z</time>
      </trkpt>
      <trkpt lat="46.59517" lon="3.6738">
        <ele>213.487822</ele>
        <time>2021-09-11T06:41:19.000Z</time>
      </trkpt>
      <trkpt lat="46.59462" lon="3.67405">
        <ele>213.573576</ele>
        <time>2021-09-11T06:41:28.000Z</time>
      </trkpt>
      <trkpt lat="46.59418" lon="3.67423">
        <ele>213.652195</ele>
        <time>2021-09-11T06:41:35.000Z</time>
      </trkpt>
      <trkpt lat="46.59359" lon="3.67444">
        <ele>213.799812</ele>
        <time>2021-09-11T06:41:44.000Z</time>
      </trkpt>
      <trkpt lat="46.59326" lon="3.67449">
        <ele>213.881866</ele>
        <time>2021-09-11T06:41:49.000Z</time>
      </trkpt>
      <trkpt lat="46.59313" lon="3.67449">
        <ele>213.915047</ele>
        <time>2021-09-11T06:41:51.000Z</time>
      </trkpt>
      <trkpt lat="46.59265" lon="3.67441">
        <ele>214.031466</ele>
        <time>2021-09-11T06:41:58.000Z</time>
      </trkpt>
      <trkpt lat="46.59213" lon="3.6743">
        <ele>214.181036</ele>
        <time>2021-09-11T06:42:06.000Z</time>
      </trkpt>
      <trkpt lat="46.59207" lon="3.6743">
        <ele>214.200756</ele>
        <time>2021-09-11T06:42:07.000Z</time>
      </trkpt>
      <trkpt lat="46.59181" lon="3.67436">
        <ele>214.277379</ele>
        <time>2021-09-11T06:42:11.000Z</time>
      </trkpt>
      <trkpt lat="46.59132" lon="3.67466">
        <ele>214.436583</ele>
        <time>2021-09-11T06:42:19.000Z</time>
      </trkpt>
      <trkpt lat="46.59084" lon="3.67495">
        <ele>214.593111</ele>
        <time>2021-09-11T06:42:27.000Z</time>
      </trkpt>
      <trkpt lat="46.59029" lon="3.67527">
        <ele>214.763475</ele>
        <time>2021-09-11T06:42:36.000Z</time>
      </trkpt>
      <trkpt lat="46.59023" lon="3.67531">
        <ele>214.781861</ele>
        <time>2021-09-11T06:42:37.000Z</time>
      </trkpt>
      <trkpt lat="46.58987" lon="3.67551">
        <ele>214.891387</ele>
        <time>2021-09-11T06:42:43.000Z</time>
      </trkpt>
      <trkpt lat="46.58946" lon="3.67564">
        <ele>215.012582</ele>
        <time>2021-09-11T06:42:50.000Z</time>
      </trkpt>
      <trkpt lat="46.58911" lon="3.67567">
        <ele>215.114212</ele>
        <time>2021-09-11T06:42:56.000Z</time>
      </trkpt>
      <trkpt lat="46.58864" lon="3.67571">
        <ele>215.119195</ele>
        <time>2021-09-11T06:43:04.000Z</time>
      </trkpt>
      <trkpt lat="46.58823" lon="3.67575">
        <ele>215.117334</ele>
        <time>2021-09-11T06:43:11.000Z</time>
      </trkpt>
      <trkpt lat="46.58793" lon="3.67576">
        <ele>215.115998</ele>
        <time>2021-09-11T06:43:16.000Z</time>
      </trkpt>
      <trkpt lat="46.58774" lon="3.67578">
        <ele>215.115145</ele>
        <time>2021-09-11T06:43:19.000Z</time>
      </trkpt>
      <trkpt lat="46.58732" lon="3.67581">
        <ele>215.113238</ele>
        <time>2021-09-11T06:43:26.000Z</time>
      </trkpt>
      <trkpt lat="46.58703" lon="3.67593">
        <ele>214.960474</ele>
        <time>2021-09-11T06:43:31.000Z</time>
      </trkpt>
      <trkpt lat="46.58666" lon="3.67619">
        <ele>214.731953</ele>
        <time>2021-09-11T06:43:37.000Z</time>
      </trkpt>
      <trkpt lat="46.5863" lon="3.67646">
        <ele>214.501961</ele>
        <time>2021-09-11T06:43:43.000Z</time>
      </trkpt>
      <trkpt lat="46.58584" lon="3.67681">
        <ele>214.20852</ele>
        <time>2021-09-11T06:43:51.000Z</time>
      </trkpt>
      <trkpt lat="46.58546" lon="3.6771">
        <ele>214.034787</ele>
        <time>2021-09-11T06:43:58.000Z</time>
      </trkpt>
      <trkpt lat="46.58513" lon="3.67736">
        <ele>213.931643</ele>
        <time>2021-09-11T06:44:04.000Z</time>
      </trkpt>
      <trkpt lat="46.58467" lon="3.67771">
        <ele>213.78894</ele>
        <time>2021-09-11T06:44:12.000Z</time>
      </trkpt>
      <trkpt lat="46.58418" lon="3.67808">
        <ele>213.638594</ele>
        <time>2021-09-11T06:44:20.000Z</time>
      </trkpt>
      <trkpt lat="46.584" lon="3.67822">
        <ele>213.600281</ele>
        <time>2021-09-11T06:44:23.000Z</time>
      </trkpt>
      <trkpt lat="46.58352" lon="3.67858">
        <ele>213.565139</ele>
        <time>2021-09-11T06:44:31.000Z</time>
      </trkpt>
      <trkpt lat="46.58346" lon="3.67863">
        <ele>213.56082</ele>
        <time>2021-09-11T06:44:32.000Z</time>
      </trkpt>
      <trkpt lat="46.58298" lon="3.67899">
        <ele>213.525678</ele>
        <time>2021-09-11T06:44:40.000Z</time>
      </trkpt>
      <trkpt lat="46.58281" lon="3.67913">
        <ele>213.512583</ele>
        <time>2021-09-11T06:44:43.000Z</time>
      </trkpt>
      <trkpt lat="46.58234" lon="3.67949">
        <ele>213.482914</ele>
        <time>2021-09-11T06:44:51.000Z</time>
      </trkpt>
      <trkpt lat="46.58181" lon="3.67989">
        <ele>213.460769</ele>
        <time>2021-09-11T06:45:00.000Z</time>
      </trkpt>
      <trkpt lat="46.58169" lon="3.67998">
        <ele>213.45587</ele>
        <time>2021-09-11T06:45:02.000Z</time>
      </trkpt>
      <trkpt lat="46.58115" lon="3.68039">
        <ele>213.433481</ele>
        <time>2021-09-11T06:45:11.000Z</time>
      </trkpt>
      <trkpt lat="46.58109" lon="3.68044">
        <ele>213.430958</ele>
        <time>2021-09-11T06:45:12.000Z</time>
      </trkpt>
      <trkpt lat="46.58061" lon="3.6808">
        <ele>213.384237</ele>
        <time>2021-09-11T06:45:20.000Z</time>
      </trkpt>
      <trkpt lat="46.58043" lon="3.68094">
        <ele>213.359262</ele>
        <time>2021-09-11T06:45:23.000Z</time>
      </trkpt>
      <trkpt lat="46.57995" lon="3.68131">
        <ele>213.292883</ele>
        <time>2021-09-11T06:45:31.000Z</time>
      </trkpt>
      <trkpt lat="46.57972" lon="3.68149">
        <ele>213.260317</ele>
        <time>2021-09-11T06:45:35.000Z</time>
      </trkpt>
      <trkpt lat="46.5792" lon="3.68188">
        <ele>213.203968</ele>
        <time>2021-09-11T06:45:44.000Z</time>
      </trkpt>
      <trkpt lat="46.57915" lon="3.68192">
        <ele>213.204719</ele>
        <time>2021-09-11T06:45:45.000Z</time>
      </trkpt>
      <trkpt lat="46.57864" lon="3.68231">
        <ele>213.21161</ele>
        <time>2021-09-11T06:45:54.000Z</time>
      </trkpt>
      <trkpt lat="46.57824" lon="3.68261">
        <ele>213.217082</ele>
        <time>2021-09-11T06:46:01.000Z</time>
      </trkpt>
      <trkpt lat="46.57773" lon="3.683">
        <ele>213.224107</ele>
        <time>2021-09-11T06:46:10.000Z</time>
      </trkpt>
      <trkpt lat="46.57733" lon="3.68331">
        <ele>213.296343</ele>
        <time>2021-09-11T06:46:17.000Z</time>
      </trkpt>
      <trkpt lat="46.57687" lon="3.68366">
        <ele>213.384275</ele>
        <time>2021-09-11T06:46:25.000Z</time>
      </trkpt>
      <trkpt lat="46.57636" lon="3.68405">
        <ele>213.483331</ele>
        <time>2021-09-11T06:46:34.000Z</time>
      </trkpt>
      <trkpt lat="46.5763" lon="3.68409">
        <ele>213.494306</ele>
        <time>2021-09-11T06:46:35.000Z</time>
      </trkpt>
      <trkpt lat="46.57582" lon="3.68439">
        <ele>213.591282</ele>
        <time>2021-09-11T06:46:43.000Z</time>
      </trkpt>
      <trkpt lat="46.5753" lon="3.68454">
        <ele>213.696088</ele>
        <time>2021-09-11T06:46:51.000Z</time>
      </trkpt>
      <trkpt lat="46.57476" lon="3.68449">
        <ele>213.801612</ele>
        <time>2021-09-11T06:46:59.000Z</time>
      </trkpt>
      <trkpt lat="46.57424" lon="3.68429">
        <ele>213.946277</ele>
        <time>2021-09-11T06:47:07.000Z</time>
      </trkpt>
      <trkpt lat="46.57384" lon="3.68413">
        <ele>214.163999</ele>
        <time>2021-09-11T06:47:14.000Z</time>
      </trkpt>
      <trkpt lat="46.57348" lon="3.68408">
        <ele>214.358096</ele>
        <time>2021-09-11T06:47:21.000Z</time>
      </trkpt>
      <trkpt lat="46.57307" lon="3.68414">
        <ele>214.574327</ele>
        <time>2021-09-11T06:47:29.000Z</time>
      </trkpt>
      <trkpt lat="46.57269" lon="3.68422">
        <ele>214.774439</ele>
        <time>2021-09-11T06:47:36.000Z</time>
      </trkpt>
      <trkpt lat="46.57222" lon="3.68433">
        <ele>214.9953</ele>
        <time>2021-09-11T06:47:44.000Z</time>
      </trkpt>
      <trkpt lat="46.57169" lon="3.68445">
        <ele>215.238764</ele>
        <time>2021-09-11T06:47:53.000Z</time>
      </trkpt>
      <trkpt lat="46.57114" lon="3.68458">
        <ele>215.487197</ele>
        <time>2021-09-11T06:48:02.000Z</time>
      </trkpt>
      <trkpt lat="46.57071" lon="3.68468">
        <ele>215.659121</ele>
        <time>2021-09-11T06:48:09.000Z</time>
      </trkpt>
      <trkpt lat="46.57022" lon="3.68479">
        <ele>215.762358</ele>
        <time>2021-09-11T06:48:17.000Z</time>
      </trkpt>
      <trkpt lat="46.56963" lon="3.68493">
        <ele>215.88748</ele>
        <time>2021-09-11T06:48:27.000Z</time>
      </trkpt>
      <trkpt lat="46.56914" lon="3.68505">
        <ele>215.990603</ele>
        <time>2021-09-11T06:48:35.000Z</time>
      </trkpt>
      <trkpt lat="46.56858" lon="3.68518">
        <ele>216.112253</ele>
        <time>2021-09-11T06:48:44.000Z</time>
      </trkpt>
      <trkpt lat="46.56808" lon="3.6853">
        <ele>216.222696</ele>
        <time>2021-09-11T06:48:52.000Z</time>
      </trkpt>
      <trkpt lat="46.5675" lon="3.68544">
        <ele>216.35064</ele>
        <time>2021-09-11T06:49:01.000Z</time>
      </trkpt>
      <trkpt lat="46.56705" lon="3.68554">
        <ele>216.458962</ele>
        <time>2021-09-11T06:49:08.000Z</time>
      </trkpt>
      <trkpt lat="46.56648" lon="3.68567">
        <ele>216.608687</ele>
        <time>2021-09-11T06:49:17.000Z</time>
      </trkpt>
      <trkpt lat="46.56635" lon="3.6857">
        <ele>216.641552</ele>
        <time>2021-09-11T06:49:19.000Z</time>
      </trkpt>
      <trkpt lat="46.56578" lon="3.68584">
        <ele>216.792955</ele>
        <time>2021-09-11T06:49:28.000Z</time>
      </trkpt>
      <trkpt lat="46.56527" lon="3.68596">
        <ele>216.885745</ele>
        <time>2021-09-11T06:49:36.000Z</time>
      </trkpt>
      <trkpt lat="46.56475" lon="3.68608">
        <ele>216.9235</ele>
        <time>2021-09-11T06:49:44.000Z</time>
      </trkpt>
      <trkpt lat="46.56424" lon="3.68622">
        <ele>216.961125</ele>
        <time>2021-09-11T06:49:52.000Z</time>
      </trkpt>
      <trkpt lat="46.56372" lon="3.68643">
        <ele>216.9996</ele>
        <time>2021-09-11T06:50:00.000Z</time>
      </trkpt>
      <trkpt lat="46.56319" lon="3.68666">
        <ele>216.843664</ele>
        <time>2021-09-11T06:50:08.000Z</time>
      </trkpt>
      <trkpt lat="46.56306" lon="3.68673">
        <ele>216.803639</ele>
        <time>2021-09-11T06:50:10.000Z</time>
      </trkpt>
      <trkpt lat="46.5625" lon="3.68704">
        <ele>216.633772</ele>
        <time>2021-09-11T06:50:19.000Z</time>
      </trkpt>
      <trkpt lat="46.56195" lon="3.68734">
        <ele>216.463947</ele>
        <time>2021-09-11T06:50:28.000Z</time>
      </trkpt>
      <trkpt lat="46.56158" lon="3.68754">
        <ele>216.335411</ele>
        <time>2021-09-11T06:50:34.000Z</time>
      </trkpt>
      <trkpt lat="46.56103" lon="3.68784">
        <ele>216.14462</ele>
        <time>2021-09-11T06:50:43.000Z</time>
      </trkpt>
      <trkpt lat="46.56097" lon="3.68787">
        <ele>216.123868</ele>
        <time>2021-09-11T06:50:44.000Z</time>
      </trkpt>
      <trkpt lat="46.56062" lon="3.68807">
        <ele>216.003236</ele>
        <time>2021-09-11T06:50:50.000Z</time>
      </trkpt>
      <trkpt lat="46.56021" lon="3.68829">
        <ele>215.916146</ele>
        <time>2021-09-11T06:50:57.000Z</time>
      </trkpt>
      <trkpt lat="46.55972" lon="3.68856">
        <ele>215.952025</ele>
        <time>2021-09-11T06:51:06.000Z</time>
      </trkpt>
      <trkpt lat="46.55921" lon="3.68884">
        <ele>215.988542</ele>
        <time>2021-09-11T06:51:15.000Z</time>
      </trkpt>
      <trkpt lat="46.55877" lon="3.68908">
        <ele>216.020924</ele>
        <time>2021-09-11T06:51:23.000Z</time>
      </trkpt>
      <trkpt lat="46.55842" lon="3.68927">
        <ele>215.798437</ele>
        <time>2021-09-11T06:51:29.000Z</time>
      </trkpt>
      <trkpt lat="46.55802" lon="3.68949">
        <ele>215.40205</ele>
        <time>2021-09-11T06:51:36.000Z</time>
      </trkpt>
      <trkpt lat="46.55767" lon="3.68968">
        <ele>215.060188</ele>
        <time>2021-09-11T06:51:42.000Z</time>
      </trkpt>
      <trkpt lat="46.55721" lon="3.68993">
        <ele>214.611851</ele>
        <time>2021-09-11T06:51:50.000Z</time>
      </trkpt>
      <trkpt lat="46.55686" lon="3.69011">
        <ele>214.360019</ele>
        <time>2021-09-11T06:51:56.000Z</time>
      </trkpt>
      <trkpt lat="46.55663" lon="3.69024">
        <ele>214.320088</ele>
        <time>2021-09-11T06:52:00.000Z</time>
      </trkpt>
      <trkpt lat="46.55652" lon="3.6903">
        <ele>214.299972</ele>
        <time>2021-09-11T06:52:02.000Z</time>
      </trkpt>
      <trkpt lat="46.55604" lon="3.69056">
        <ele>214.217345</ele>
        <time>2021-09-11T06:52:10.000Z</time>
      </trkpt>
      <trkpt lat="46.55549" lon="3.69086">
        <ele>214.124263</ele>
        <time>2021-09-11T06:52:19.000Z</time>
      </trkpt>
      <trkpt lat="46.55544" lon="3.69089">
        <ele>214.11411</ele>
        <time>2021-09-11T06:52:20.000Z</time>
      </trkpt>
      <trkpt lat="46.55502" lon="3.69111">
        <ele>214.132934</ele>
        <time>2021-09-11T06:52:27.000Z</time>
      </trkpt>
      <trkpt lat="46.53386" lon="3.74558">
        <ele>220.974656</ele>
        <time>2021-09-11T07:13:26.000Z</time>
      </trkpt>
      <trkpt lat="46.53379" lon="3.74579">
        <ele>221.093569</ele>
        <time>2021-09-11T07:13:29.000Z</time>
      </trkpt>
      <trkpt lat="46.53375" lon="3.74595">
        <ele>221.18087</ele>
        <time>2021-09-11T07:13:31.000Z</time>
      </trkpt>
      <trkpt lat="46.53353" lon="3.74654">
        <ele>221.521371</ele>
        <time>2021-09-11T07:13:39.000Z</time>
      </trkpt>
      <trkpt lat="46.53335" lon="3.74699">
        <ele>221.784128</ele>
        <time>2021-09-11T07:13:45.000Z</time>
      </trkpt>
      <trkpt lat="46.53316" lon="3.7475">
        <ele>222.078894</ele>
        <time>2021-09-11T07:13:52.000Z</time>
      </trkpt>
      <trkpt lat="46.53295" lon="3.74803">
        <ele>222.531765</ele>
        <time>2021-09-11T07:13:59.000Z</time>
      </trkpt>
      <trkpt lat="46.53271" lon="3.74863">
        <ele>223.146063</ele>
        <time>2021-09-11T07:14:07.000Z</time>
      </trkpt>
      <trkpt lat="46.53251" lon="3.74914">
        <ele>223.661143</ele>
        <time>2021-09-11T07:14:14.000Z</time>
      </trkpt>
      <trkpt lat="46.53242" lon="3.74939">
        <ele>223.91537</ele>
        <time>2021-09-11T07:14:18.000Z</time>
      </trkpt>
      <trkpt lat="46.53238" lon="3.7495">
        <ele>224.020327</ele>
        <time>2021-09-11T07:14:20.000Z</time>
      </trkpt>
      <trkpt lat="46.53226" lon="3.74978">
        <ele>224.308051</ele>
        <time>2021-09-11T07:14:26.000Z</time>
      </trkpt>
      <trkpt lat="46.53215" lon="3.75007">
        <ele>224.657482</ele>
        <time>2021-09-11T07:14:32.000Z</time>
      </trkpt>
      <trkpt lat="46.53213" lon="3.75013">
        <ele>224.747201</ele>
        <time>2021-09-11T07:14:33.000Z</time>
      </trkpt>
      <trkpt lat="46.53203" lon="3.75039">
        <ele>225.158543</ele>
        <time>2021-09-11T07:14:37.000Z</time>
      </trkpt>
      <trkpt lat="46.53184" lon="3.75087">
        <ele>225.911264</ele>
        <time>2021-09-11T07:14:43.000Z</time>
      </trkpt>
      <trkpt lat="46.53169" lon="3.75128">
        <ele>226.553151</ele>
        <time>2021-09-11T07:14:49.000Z</time>
      </trkpt>
      <trkpt lat="46.53159" lon="3.75152">
        <ele>226.922298</ele>
        <time>2021-09-11T07:14:53.000Z</time>
      </trkpt>
      <trkpt lat="46.53155" lon="3.75162">
        <ele>227.090933</ele>
        <time>2021-09-11T07:14:55.000Z</time>
      </trkpt>
      <trkpt lat="46.53149" lon="3.75178">
        <ele>227.334393</ele>
        <time>2021-09-11T07:14:58.000Z</time>
      </trkpt>
      <trkpt lat="46.53143" lon="3.75193">
        <ele>227.574491</ele>
        <time>2021-09-11T07:15:01.000Z</time>
      </trkpt>
      <trkpt lat="46.53127" lon="3.75234">
        <ele>228.238653</ele>
        <time>2021-09-11T07:15:09.000Z</time>
      </trkpt>
      <trkpt lat="46.53108" lon="3.75283">
        <ele>229.099917</ele>
        <time>2021-09-11T07:15:19.000Z</time>
      </trkpt>
      <trkpt lat="46.53095" lon="3.75318">
        <ele>229.724544</ele>
        <time>2021-09-11T07:15:27.000Z</time>
      </trkpt>
      <trkpt lat="46.53079" lon="3.75359">
        <ele>230.451492</ele>
        <time>2021-09-11T07:15:35.000Z</time>
      </trkpt>
      <trkpt lat="46.5307" lon="3.75381">
        <ele>230.830104</ele>
        <time>2021-09-11T07:15:39.000Z</time>
      </trkpt>
      <trkpt lat="46.53064" lon="3.75396">
        <ele>231.109332</ele>
        <time>2021-09-11T07:15:42.000Z</time>
      </trkpt>
      <trkpt lat="46.5306" lon="3.75408">
        <ele>231.315915</ele>
        <time>2021-09-11T07:15:44.000Z</time>
      </trkpt>
      <trkpt lat="46.53053" lon="3.75427">
        <ele>231.643493</ele>
        <time>2021-09-11T07:15:47.000Z</time>
      </trkpt>
      <trkpt lat="46.53032" lon="3.75479">
        <ele>232.212722</ele>
        <time>2021-09-11T07:15:55.000Z</time>
      </trkpt>
      <trkpt lat="46.53013" lon="3.75529">
        <ele>232.403165</ele>
        <time>2021-09-11T07:16:02.000Z</time>
      </trkpt>
      <trkpt lat="46.52988" lon="3.75592">
        <ele>232.650065</ele>
        <time>2021-09-11T07:16:10.000Z</time>
      </trkpt>
      <trkpt lat="46.52963" lon="3.75656">
        <ele>232.898626</ele>
        <time>2021-09-11T07:16:17.000Z</time>
      </trkpt>
      <trkpt lat="46.52934" lon="3.75733">
        <ele>232.80319</ele>
        <time>2021-09-11T07:16:25.000Z</time>
      </trkpt>
      <trkpt lat="46.52923" lon="3.75761">
        <ele>232.701029</ele>
        <time>2021-09-11T07:16:28.000Z</time>
      </trkpt>
      <trkpt lat="46.52895" lon="3.75833">
        <ele>232.439628</ele>
        <time>2021-09-11T07:16:36.000Z</time>
      </trkpt>
      <trkpt lat="46.52891" lon="3.75842">
        <ele>232.407751</ele>
        <time>2021-09-11T07:16:37.000Z</time>
      </trkpt>
      <trkpt lat="46.5287" lon="3.75896">
        <ele>232.212059</ele>
        <time>2021-09-11T07:16:43.000Z</time>
      </trkpt>
      <trkpt lat="46.5284" lon="3.75974">
        <ele>231.924333</ele>
        <time>2021-09-11T07:16:51.000Z</time>
      </trkpt>
      <trkpt lat="46.52836" lon="3.75984">
        <ele>231.888245</ele>
        <time>2021-09-11T07:16:52.000Z</time>
      </trkpt>
      <trkpt lat="46.52807" lon="3.76061">
        <ele>231.603444</ele>
        <time>2021-09-11T07:17:00.000Z</time>
      </trkpt>
      <trkpt lat="46.52783" lon="3.76124">
        <ele>231.370227</ele>
        <time>2021-09-11T07:17:07.000Z</time>
      </trkpt>
      <trkpt lat="46.52755" lon="3.76197">
        <ele>231.604555</ele>
        <time>2021-09-11T07:17:16.000Z</time>
      </trkpt>
      <trkpt lat="46.52752" lon="3.76205">
        <ele>231.64031</ele>
        <time>2021-09-11T07:17:17.000Z</time>
      </trkpt>
      <trkpt lat="46.52728" lon="3.76267">
        <ele>231.926189</ele>
        <time>2021-09-11T07:17:26.000Z</time>
      </trkpt>
      <trkpt lat="46.52709" lon="3.76317">
        <ele>232.158899</ele>
        <time>2021-09-11T07:17:35.000Z</time>
      </trkpt>
      <trkpt lat="46.52686" lon="3.76375">
        <ele>232.506484</ele>
        <time>2021-09-11T07:17:45.000Z</time>
      </trkpt>
      <trkpt lat="46.52666" lon="3.7643">
        <ele>233.172004</ele>
        <time>2021-09-11T07:17:54.000Z</time>
      </trkpt>
      <trkpt lat="46.52656" lon="3.76455">
        <ele>233.489595</ele>
        <time>2021-09-11T07:18:00.000Z</time>
      </trkpt>
      <trkpt lat="46.5264" lon="3.76494">
        <ele>233.967978</ele>
        <time>2021-09-11T07:18:08.000Z</time>
      </trkpt>
      <trkpt lat="46.52623" lon="3.76537">
        <ele>234.498308</ele>
        <time>2021-09-11T07:18:17.000Z</time>
      </trkpt>
      <trkpt lat="46.52605" lon="3.76583">
        <ele>235.061418</ele>
        <time>2021-09-11T07:18:25.000Z</time>
      </trkpt>
      <trkpt lat="46.52587" lon="3.7663">
        <ele>235.316322</ele>
        <time>2021-09-11T07:18:32.000Z</time>
      </trkpt>
      <trkpt lat="46.52567" lon="3.76681">
        <ele>235.509124</ele>
        <time>2021-09-11T07:18:39.000Z</time>
      </trkpt>
      <trkpt lat="46.52549" lon="3.76725">
        <ele>235.67314</ele>
        <time>2021-09-11T07:18:45.000Z</time>
      </trkpt>
      <trkpt lat="46.52528" lon="3.76778">
        <ele>235.870787</ele>
        <time>2021-09-11T07:18:52.000Z</time>
      </trkpt>
      <trkpt lat="46.52522" lon="3.76793">
        <ele>235.927796</ele>
        <time>2021-09-11T07:18:54.000Z</time>
      </trkpt>
      <trkpt lat="46.5251" lon="3.76824">
        <ele>236.029892</ele>
        <time>2021-09-11T07:18:58.000Z</time>
      </trkpt>
      <trkpt lat="46.52484" lon="3.76891">
        <ele>236.080778</ele>
        <time>2021-09-11T07:19:06.000Z</time>
      </trkpt>
      <trkpt lat="46.52455" lon="3.76966">
        <ele>236.138687</ele>
        <time>2021-09-11T07:19:15.000Z</time>
      </trkpt>
      <trkpt lat="46.52428" lon="3.77034">
        <ele>236.190317</ele>
        <time>2021-09-11T07:19:23.000Z</time>
      </trkpt>
      <trkpt lat="46.52399" lon="3.77111">
        <ele>236.198169</ele>
        <time>2021-09-11T07:19:32.000Z</time>
      </trkpt>
      <trkpt lat="46.52395" lon="3.77119">
        <ele>236.197918</ele>
        <time>2021-09-11T07:19:33.000Z</time>
      </trkpt>
      <trkpt lat="46.52368" lon="3.77189">
        <ele>236.195931</ele>
        <time>2021-09-11T07:19:41.000Z</time>
      </trkpt>
      <trkpt lat="46.52355" lon="3.77223">
        <ele>236.19494</ele>
        <time>2021-09-11T07:19:45.000Z</time>
      </trkpt>
      <trkpt lat="46.52329" lon="3.7729">
        <ele>236.127008</ele>
        <time>2021-09-11T07:19:53.000Z</time>
      </trkpt>
      <trkpt lat="46.52303" lon="3.77356">
        <ele>235.854419</ele>
        <time>2021-09-11T07:20:01.000Z</time>
      </trkpt>
      <trkpt lat="46.52277" lon="3.77425">
        <ele>235.567789</ele>
        <time>2021-09-11T07:20:09.000Z</time>
      </trkpt>
      <trkpt lat="46.52248" lon="3.77498">
        <ele>235.265975</ele>
        <time>2021-09-11T07:20:17.000Z</time>
      </trkpt>
      <trkpt lat="46.52244" lon="3.77508">
        <ele>235.172341</ele>
        <time>2021-09-11T07:20:18.000Z</time>
      </trkpt>
      <trkpt lat="46.52215" lon="3.77582">
        <ele>234.210304</ele>
        <time>2021-09-11T07:20:25.000Z</time>
      </trkpt>
      <trkpt lat="46.52211" lon="3.77593">
        <ele>234.067054</ele>
        <time>2021-09-11T07:20:26.000Z</time>
      </trkpt>
      <trkpt lat="46.52181" lon="3.77665">
        <ele>233.12334</ele>
        <time>2021-09-11T07:20:32.000Z</time>
      </trkpt>
      <trkpt lat="46.52176" lon="3.77677">
        <ele>232.965269</ele>
        <time>2021-09-11T07:20:33.000Z</time>
      </trkpt>
      <trkpt lat="46.52147" lon="3.77749">
        <ele>232.080726</ele>
        <time>2021-09-11T07:20:39.000Z</time>
      </trkpt>
      <trkpt lat="46.52138" lon="3.77771">
        <ele>231.83919</ele>
        <time>2021-09-11T07:20:41.000Z</time>
      </trkpt>
      <trkpt lat="46.52108" lon="3.77846">
        <ele>231.036382</ele>
        <time>2021-09-11T07:20:48.000Z</time>
      </trkpt>
      <trkpt lat="46.52104" lon="3.77857">
        <ele>230.925149</ele>
        <time>2021-09-11T07:20:49.000Z</time>
      </trkpt>
      <trkpt lat="46.52076" lon="3.77925">
        <ele>230.190781</ele>
        <time>2021-09-11T07:20:56.000Z</time>
      </trkpt>
      <trkpt lat="46.52064" lon="3.77954">
        <ele>229.886458</ele>
        <time>2021-09-11T07:20:59.000Z</time>
      </trkpt>
      <trkpt lat="46.52034" lon="3.78029">
        <ele>229.438712</ele>
        <time>2021-09-11T07:21:07.000Z</time>
      </trkpt>
      <trkpt lat="46.52004" lon="3.78102">
        <ele>228.996958</ele>
        <time>2021-09-11T07:21:15.000Z</time>
      </trkpt>
      <trkpt lat="46.51983" lon="3.78156">
        <ele>228.675478</ele>
        <time>2021-09-11T07:21:21.000Z</time>
      </trkpt>
      <trkpt lat="46.51979" lon="3.78165">
        <ele>228.621973</ele>
        <time>2021-09-11T07:21:22.000Z</time>
      </trkpt>
      <trkpt lat="46.51975" lon="3.78174">
        <ele>228.568467</ele>
        <time>2021-09-11T07:21:23.000Z</time>
      </trkpt>
      <trkpt lat="46.51961" lon="3.78209">
        <ele>228.387671</ele>
        <time>2021-09-11T07:21:27.000Z</time>
      </trkpt>
      <trkpt lat="46.51933" lon="3.7828">
        <ele>228.042038</ele>
        <time>2021-09-11T07:21:35.000Z</time>
      </trkpt>
      <trkpt lat="46.51906" lon="3.78346">
        <ele>227.719155</ele>
        <time>2021-09-11T07:21:42.000Z</time>
      </trkpt>
      <trkpt lat="46.51877" lon="3.78416">
        <ele>227.414568</ele>
        <time>2021-09-11T07:21:50.000Z</time>
      </trkpt>
      <trkpt lat="46.51874" lon="3.78424">
        <ele>227.400841</ele>
        <time>2021-09-11T07:21:51.000Z</time>
      </trkpt>
      <trkpt lat="46.51845" lon="3.78495">
        <ele>227.283601</ele>
        <time>2021-09-11T07:22:00.000Z</time>
      </trkpt>
      <trkpt lat="46.51842" lon="3.78503">
        <ele>227.271046</ele>
        <time>2021-09-11T07:22:01.000Z</time>
      </trkpt>
      <trkpt lat="46.51817" lon="3.78564">
        <ele>227.170591</ele>
        <time>2021-09-11T07:22:09.000Z</time>
      </trkpt>
      <trkpt lat="46.5179" lon="3.78632">
        <ele>227.059268</ele>
        <time>2021-09-11T07:22:18.000Z</time>
      </trkpt>
      <trkpt lat="46.51761" lon="3.78703">
        <ele>226.972066</ele>
        <time>2021-09-11T07:22:27.000Z</time>
      </trkpt>
      <trkpt lat="46.51732" lon="3.78775">
        <ele>226.881869</ele>
        <time>2021-09-11T07:22:36.000Z</time>
      </trkpt>
      <trkpt lat="46.51702" lon="3.78848">
        <ele>226.791671</ele>
        <time>2021-09-11T07:22:45.000Z</time>
      </trkpt>
      <trkpt lat="46.51678" lon="3.78905">
        <ele>226.700038</ele>
        <time>2021-09-11T07:22:52.000Z</time>
      </trkpt>
      <trkpt lat="46.51648" lon="3.78979">
        <ele>226.577761</ele>
        <time>2021-09-11T07:23:01.000Z</time>
      </trkpt>
      <trkpt lat="46.5162" lon="3.79048">
        <ele>226.462685</ele>
        <time>2021-09-11T07:23:09.000Z</time>
      </trkpt>
      <trkpt lat="46.51602" lon="3.79092">
        <ele>226.400888</ele>
        <time>2021-09-11T07:23:14.000Z</time>
      </trkpt>
      <trkpt lat="46.51595" lon="3.79109">
        <ele>226.384584</ele>
        <time>2021-09-11T07:23:16.000Z</time>
      </trkpt>
      <trkpt lat="46.51568" lon="3.79177">
        <ele>226.321681</ele>
        <time>2021-09-11T07:23:24.000Z</time>
      </trkpt>
      <trkpt lat="46.51542" lon="3.79242">
        <ele>226.261296</ele>
        <time>2021-09-11T07:23:32.000Z</time>
      </trkpt>
      <trkpt lat="46.51519" lon="3.79298">
        <ele>226.208662</ele>
        <time>2021-09-11T07:23:39.000Z</time>
      </trkpt>
      <trkpt lat="46.51491" lon="3.79366">
        <ele>226.312939</ele>
        <time>2021-09-11T07:23:47.000Z</time>
      </trkpt>
      <trkpt lat="46.51481" lon="3.79392">
        <ele>226.358776</ele>
        <time>2021-09-11T07:23:50.000Z</time>
      </trkpt>
      <trkpt lat="46.51453" lon="3.79462">
        <ele>226.481105</ele>
        <time>2021-09-11T07:23:58.000Z</time>
      </trkpt>
      <trkpt lat="46.51449" lon="3.79471">
        <ele>226.495543</ele>
        <time>2021-09-11T07:23:59.000Z</time>
      </trkpt>
      <trkpt lat="46.51424" lon="3.79534">
        <ele>226.615024</ele>
        <time>2021-09-11T07:24:07.000Z</time>
      </trkpt>
      <trkpt lat="46.514" lon="3.79593">
        <ele>226.809039</ele>
        <time>2021-09-11T07:24:15.000Z</time>
      </trkpt>
      <trkpt lat="46.51376" lon="3.79651">
        <ele>227.003302</ele>
        <time>2021-09-11T07:24:23.000Z</time>
      </trkpt>
      <trkpt lat="46.51361" lon="3.79689">
        <ele>227.126985</ele>
        <time>2021-09-11T07:24:28.000Z</time>
      </trkpt>
      <trkpt lat="46.5134" lon="3.7974">
        <ele>227.297862</ele>
        <time>2021-09-11T07:24:35.000Z</time>
      </trkpt>
      <trkpt lat="46.5132" lon="3.7979">
        <ele>227.488202</ele>
        <time>2021-09-11T07:24:42.000Z</time>
      </trkpt>
      <trkpt lat="46.51294" lon="3.79854">
        <ele>227.748988</ele>
        <time>2021-09-11T07:24:51.000Z</time>
      </trkpt>
      <trkpt lat="46.51267" lon="3.79922">
        <ele>228.022799</ele>
        <time>2021-09-11T07:25:00.000Z</time>
      </trkpt>
      <trkpt lat="46.51252" lon="3.79958">
        <ele>228.169377</ele>
        <time>2021-09-11T07:25:05.000Z</time>
      </trkpt>
      <trkpt lat="46.51248" lon="3.79973">
        <ele>228.22474</ele>
        <time>2021-09-11T07:25:07.000Z</time>
      </trkpt>
      <trkpt lat="46.5124" lon="3.80019">
        <ele>228.482234</ele>
        <time>2021-09-11T07:25:14.000Z</time>
      </trkpt>
      <trkpt lat="46.51242" lon="3.80074">
        <ele>228.796408</ele>
        <time>2021-09-11T07:25:23.000Z</time>
      </trkpt>
      <trkpt lat="46.5125" lon="3.80132">
        <ele>229.14184</ele>
        <time>2021-09-11T07:25:32.000Z</time>
      </trkpt>
      <trkpt lat="46.51258" lon="3.80184">
        <ele>229.453159</ele>
        <time>2021-09-11T07:25:39.000Z</time>
      </trkpt>
      <trkpt lat="46.51259" lon="3.80192">
        <ele>229.499521</ele>
        <time>2021-09-11T07:25:40.000Z</time>
      </trkpt>
      <trkpt lat="46.51261" lon="3.80227">
        <ele>229.700725</ele>
        <time>2021-09-11T07:25:44.000Z</time>
      </trkpt>
      <trkpt lat="46.51257" lon="3.80276">
        <ele>229.695624</ele>
        <time>2021-09-11T07:25:49.000Z</time>
      </trkpt>
      <trkpt lat="46.51251" lon="3.80295">
        <ele>229.653972</ele>
        <time>2021-09-11T07:25:51.000Z</time>
      </trkpt>
      <trkpt lat="46.51239" lon="3.80323">
        <ele>229.585997</ele>
        <time>2021-09-11T07:25:54.000Z</time>
      </trkpt>
      <trkpt lat="46.51212" lon="3.80368">
        <ele>229.465263</ele>
        <time>2021-09-11T07:25:59.000Z</time>
      </trkpt>
      <trkpt lat="46.5117" lon="3.80424">
        <ele>229.296359</ele>
        <time>2021-09-11T07:26:06.000Z</time>
      </trkpt>
      <trkpt lat="46.5113" lon="3.80477">
        <ele>229.170495</ele>
        <time>2021-09-11T07:26:13.000Z</time>
      </trkpt>
      <trkpt lat="46.51087" lon="3.80533">
        <ele>229.053385</ele>
        <time>2021-09-11T07:26:21.000Z</time>
      </trkpt>
      <trkpt lat="46.51077" lon="3.80547">
        <ele>229.025252</ele>
        <time>2021-09-11T07:26:23.000Z</time>
      </trkpt>
      <trkpt lat="46.51036" lon="3.80598">
        <ele>228.916945</ele>
        <time>2021-09-11T07:26:31.000Z</time>
      </trkpt>
      <trkpt lat="46.50991" lon="3.80655">
        <ele>228.794942</ele>
        <time>2021-09-11T07:26:40.000Z</time>
      </trkpt>
      <trkpt lat="46.50964" lon="3.80695">
        <ele>228.715442</ele>
        <time>2021-09-11T07:26:46.000Z</time>
      </trkpt>
      <trkpt lat="46.50961" lon="3.80703">
        <ele>228.702472</ele>
        <time>2021-09-11T07:26:47.000Z</time>
      </trkpt>
      <trkpt lat="46.50955" lon="3.80719">
        <ele>228.67661</ele>
        <time>2021-09-11T07:26:49.000Z</time>
      </trkpt>
      <trkpt lat="46.50944" lon="3.80753">
        <ele>228.623677</ele>
        <time>2021-09-11T07:26:53.000Z</time>
      </trkpt>
      <trkpt lat="46.50929" lon="3.80806">
        <ele>228.541792</ele>
        <time>2021-09-11T07:26:59.000Z</time>
      </trkpt>
      <trkpt lat="46.50911" lon="3.80869">
        <ele>228.421332</ele>
        <time>2021-09-11T07:27:06.000Z</time>
      </trkpt>
      <trkpt lat="46.50888" lon="3.8095">
        <ele>228.249105</ele>
        <time>2021-09-11T07:27:15.000Z</time>
      </trkpt>
      <trkpt lat="46.50886" lon="3.80959">
        <ele>228.22996</ele>
        <time>2021-09-11T07:27:16.000Z</time>
      </trkpt>
      <trkpt lat="46.50866" lon="3.81031">
        <ele>228.076983</ele>
        <time>2021-09-11T07:27:24.000Z</time>
      </trkpt>
      <trkpt lat="46.50846" lon="3.81104">
        <ele>227.881371</ele>
        <time>2021-09-11T07:27:32.000Z</time>
      </trkpt>
      <trkpt lat="46.50844" lon="3.81113">
        <ele>227.851158</ele>
        <time>2021-09-11T07:27:33.000Z</time>
      </trkpt>
      <trkpt lat="46.50827" lon="3.81179">
        <ele>227.628197</ele>
        <time>2021-09-11T07:27:40.000Z</time>
      </trkpt>
      <trkpt lat="46.50809" lon="3.81248">
        <ele>227.4004</ele>
        <time>2021-09-11T07:27:47.000Z</time>
      </trkpt>
      <trkpt lat="46.50805" lon="3.81309">
        <ele>227.208589</ele>
        <time>2021-09-11T07:27:53.000Z</time>
      </trkpt>
      <trkpt lat="46.50801" lon="3.81371">
        <ele>227.147698</ele>
        <time>2021-09-11T07:27:59.000Z</time>
      </trkpt>
      <trkpt lat="46.50791" lon="3.81401">
        <ele>227.130629</ele>
        <time>2021-09-11T07:28:02.000Z</time>
      </trkpt>
      <trkpt lat="46.50783" lon="3.81419">
        <ele>227.119678</ele>
        <time>2021-09-11T07:28:04.000Z</time>
      </trkpt>
      <trkpt lat="46.50759" lon="3.81455">
        <ele>227.093759</ele>
        <time>2021-09-11T07:28:09.000Z</time>
      </trkpt>
      <trkpt lat="46.50754" lon="3.81461">
        <ele>227.088725</ele>
        <time>2021-09-11T07:28:10.000Z</time>
      </trkpt>
      <trkpt lat="46.5075" lon="3.8147">
        <ele>227.083484</ele>
        <time>2021-09-11T07:28:11.000Z</time>
      </trkpt>
      <trkpt lat="46.50745" lon="3.81487">
        <ele>227.073704</ele>
        <time>2021-09-11T07:28:13.000Z</time>
      </trkpt>
      <trkpt lat="46.50743" lon="3.81496">
        <ele>227.068779</ele>
        <time>2021-09-11T07:28:14.000Z</time>
      </trkpt>
      <trkpt lat="46.50736" lon="3.81542">
        <ele>227.044693</ele>
        <time>2021-09-11T07:28:19.000Z</time>
      </trkpt>
      <trkpt lat="46.50725" lon="3.81586">
        <ele>227.140666</ele>
        <time>2021-09-11T07:28:24.000Z</time>
      </trkpt>
      <trkpt lat="46.50722" lon="3.81593">
        <ele>227.164174</ele>
        <time>2021-09-11T07:28:25.000Z</time>
      </trkpt>
      <trkpt lat="46.50719" lon="3.81601">
        <ele>227.18806</ele>
        <time>2021-09-11T07:28:26.000Z</time>
      </trkpt>
      <trkpt lat="46.50712" lon="3.81616">
        <ele>227.238799</ele>
        <time>2021-09-11T07:28:28.000Z</time>
      </trkpt>
      <trkpt lat="46.50707" lon="3.81621">
        <ele>227.263854</ele>
        <time>2021-09-11T07:28:29.000Z</time>
      </trkpt>
      <trkpt lat="46.50695" lon="3.81628">
        <ele>227.3127</ele>
        <time>2021-09-11T07:28:31.000Z</time>
      </trkpt>
      <trkpt lat="46.50683" lon="3.81634">
        <ele>227.363381</ele>
        <time>2021-09-11T07:28:33.000Z</time>
      </trkpt>
      <trkpt lat="46.50679" lon="3.81639">
        <ele>227.386173</ele>
        <time>2021-09-11T07:28:34.000Z</time>
      </trkpt>
      <trkpt lat="46.50674" lon="3.81644">
        <ele>227.409116</ele>
        <time>2021-09-11T07:28:35.000Z</time>
      </trkpt>
      <trkpt lat="46.50655" lon="3.81663">
        <ele>227.501362</ele>
        <time>2021-09-11T07:28:39.000Z</time>
      </trkpt>
      <trkpt lat="46.50641" lon="3.81677">
        <ele>227.57052</ele>
        <time>2021-09-11T07:28:42.000Z</time>
      </trkpt>
      <trkpt lat="46.50633" lon="3.81689">
        <ele>227.614542</ele>
        <time>2021-09-11T07:28:44.000Z</time>
      </trkpt>
      <trkpt lat="46.50612" lon="3.81729">
        <ele>227.754621</ele>
        <time>2021-09-11T07:28:50.000Z</time>
      </trkpt>
      <trkpt lat="46.50601" lon="3.81751">
        <ele>227.781735</ele>
        <time>2021-09-11T07:28:53.000Z</time>
      </trkpt>
      <trkpt lat="46.5059" lon="3.81772">
        <ele>227.806312</ele>
        <time>2021-09-11T07:28:56.000Z</time>
      </trkpt>
      <trkpt lat="46.5058" lon="3.81794">
        <ele>227.830493</ele>
        <time>2021-09-11T07:28:59.000Z</time>
      </trkpt>
      <trkpt lat="46.50574" lon="3.81809">
        <ele>227.846902</ele>
        <time>2021-09-11T07:29:01.000Z</time>
      </trkpt>
      <trkpt lat="46.50551" lon="3.81861">
        <ele>227.90444</ele>
        <time>2021-09-11T07:29:08.000Z</time>
      </trkpt>
      <trkpt lat="46.50531" lon="3.81907">
        <ele>227.954574</ele>
        <time>2021-09-11T07:29:14.000Z</time>
      </trkpt>
      <trkpt lat="46.50501" lon="3.81976">
        <ele>228.005087</ele>
        <time>2021-09-11T07:29:23.000Z</time>
      </trkpt>
      <trkpt lat="46.50478" lon="3.8203">
        <ele>228.014758</ele>
        <time>2021-09-11T07:29:30.000Z</time>
      </trkpt>
      <trkpt lat="46.50448" lon="3.82101">
        <ele>228.027614</ele>
        <time>2021-09-11T07:29:39.000Z</time>
      </trkpt>
      <trkpt lat="46.50445" lon="3.82109">
        <ele>228.029074</ele>
        <time>2021-09-11T07:29:40.000Z</time>
      </trkpt>
      <trkpt lat="46.50417" lon="3.82177">
        <ele>228.042092</ele>
        <time>2021-09-11T07:29:48.000Z</time>
      </trkpt>
      <trkpt lat="46.50413" lon="3.82185">
        <ele>228.044924</ele>
        <time>2021-09-11T07:29:49.000Z</time>
      </trkpt>
      <trkpt lat="46.50386" lon="3.82251">
        <ele>228.06755</ele>
        <time>2021-09-11T07:29:57.000Z</time>
      </trkpt>
      <trkpt lat="46.50356" lon="3.82324">
        <ele>228.092296</ele>
        <time>2021-09-11T07:30:06.000Z</time>
      </trkpt>
      <trkpt lat="46.50353" lon="3.82332">
        <ele>228.094984</ele>
        <time>2021-09-11T07:30:07.000Z</time>
      </trkpt>
      <trkpt lat="46.50326" lon="3.82397">
        <ele>228.116775</ele>
        <time>2021-09-11T07:30:15.000Z</time>
      </trkpt>
      <trkpt lat="46.50303" lon="3.82455">
        <ele>228.113327</ele>
        <time>2021-09-11T07:30:22.000Z</time>
      </trkpt>
      <trkpt lat="46.50275" lon="3.82522">
        <ele>228.109329</ele>
        <time>2021-09-11T07:30:30.000Z</time>
      </trkpt>
      <trkpt lat="46.50252" lon="3.8258">
        <ele>228.105872</ele>
        <time>2021-09-11T07:30:37.000Z</time>
      </trkpt>
      <trkpt lat="46.50221" lon="3.82653">
        <ele>228.127626</ele>
        <time>2021-09-11T07:30:46.000Z</time>
      </trkpt>
      <trkpt lat="46.50218" lon="3.82662">
        <ele>228.133765</ele>
        <time>2021-09-11T07:30:47.000Z</time>
      </trkpt>
      <trkpt lat="46.50187" lon="3.82736">
        <ele>228.188113</ele>
        <time>2021-09-11T07:30:56.000Z</time>
      </trkpt>
      <trkpt lat="46.50165" lon="3.82791">
        <ele>228.22888</ele>
        <time>2021-09-11T07:31:03.000Z</time>
      </trkpt>
      <trkpt lat="46.50136" lon="3.82861">
        <ele>228.269503</ele>
        <time>2021-09-11T07:31:12.000Z</time>
      </trkpt>
      <trkpt lat="46.5011" lon="3.82924">
        <ele>228.27505</ele>
        <time>2021-09-11T07:31:20.000Z</time>
      </trkpt>
      <trkpt lat="46.50088" lon="3.82978">
        <ele>228.279827</ele>
        <time>2021-09-11T07:31:27.000Z</time>
      </trkpt>
      <trkpt lat="46.50063" lon="3.8304">
        <ele>228.285267</ele>
        <time>2021-09-11T07:31:35.000Z</time>
      </trkpt>
      <trkpt lat="46.5004" lon="3.83095">
        <ele>228.300681</ele>
        <time>2021-09-11T07:31:42.000Z</time>
      </trkpt>
      <trkpt lat="46.5001" lon="3.83166">
        <ele>228.336461</ele>
        <time>2021-09-11T07:31:51.000Z</time>
      </trkpt>
      <trkpt lat="46.49984" lon="3.8323">
        <ele>228.368345</ele>
        <time>2021-09-11T07:31:59.000Z</time>
      </trkpt>
      <trkpt lat="46.49954" lon="3.83303">
        <ele>228.402433</ele>
        <time>2021-09-11T07:32:08.000Z</time>
      </trkpt>
      <trkpt lat="46.4993" lon="3.83361">
        <ele>228.416749</ele>
        <time>2021-09-11T07:32:15.000Z</time>
      </trkpt>
      <trkpt lat="46.49902" lon="3.83429">
        <ele>228.433472</ele>
        <time>2021-09-11T07:32:23.000Z</time>
      </trkpt>
      <trkpt lat="46.49888" lon="3.83463">
        <ele>228.441791</ele>
        <time>2021-09-11T07:32:27.000Z</time>
      </trkpt>
      <trkpt lat="46.49861" lon="3.8353">
        <ele>228.463796</ele>
        <time>2021-09-11T07:32:35.000Z</time>
      </trkpt>
      <trkpt lat="46.4983" lon="3.83605">
        <ele>228.515194</ele>
        <time>2021-09-11T07:32:44.000Z</time>
      </trkpt>
      <trkpt lat="46.49802" lon="3.83673">
        <ele>228.561473</ele>
        <time>2021-09-11T07:32:52.000Z</time>
      </trkpt>
      <trkpt lat="46.49798" lon="3.83681">
        <ele>228.567226</ele>
        <time>2021-09-11T07:32:53.000Z</time>
      </trkpt>
      <trkpt lat="46.49767" lon="3.83757">
        <ele>228.619466</ele>
        <time>2021-09-11T07:33:02.000Z</time>
      </trkpt>
      <trkpt lat="46.49743" lon="3.83816">
        <ele>228.661864</ele>
        <time>2021-09-11T07:33:09.000Z</time>
      </trkpt>
      <trkpt lat="46.49711" lon="3.83892">
        <ele>228.716115</ele>
        <time>2021-09-11T07:33:18.000Z</time>
      </trkpt>
      <trkpt lat="46.49683" lon="3.8396">
        <ele>228.765024</ele>
        <time>2021-09-11T07:33:26.000Z</time>
      </trkpt>
      <trkpt lat="46.49659" lon="3.8402">
        <ele>228.696664</ele>
        <time>2021-09-11T07:33:33.000Z</time>
      </trkpt>
      <trkpt lat="46.49631" lon="3.84088">
        <ele>228.605318</ele>
        <time>2021-09-11T07:33:41.000Z</time>
      </trkpt>
      <trkpt lat="46.496" lon="3.84162">
        <ele>228.50494</ele>
        <time>2021-09-11T07:33:50.000Z</time>
      </trkpt>
      <trkpt lat="46.49572" lon="3.8423">
        <ele>228.40122</ele>
        <time>2021-09-11T07:33:58.000Z</time>
      </trkpt>
      <trkpt lat="46.49548" lon="3.84288">
        <ele>228.304333</ele>
        <time>2021-09-11T07:34:05.000Z</time>
      </trkpt>
      <trkpt lat="46.4952" lon="3.84356">
        <ele>228.191314</ele>
        <time>2021-09-11T07:34:14.000Z</time>
      </trkpt>
      <trkpt lat="46.49495" lon="3.84412">
        <ele>228.09553</ele>
        <time>2021-09-11T07:34:22.000Z</time>
      </trkpt>
      <trkpt lat="46.49463" lon="3.84461">
        <ele>228.121267</ele>
        <time>2021-09-11T07:34:30.000Z</time>
      </trkpt>
      <trkpt lat="46.49426" lon="3.84514">
        <ele>228.151983</ele>
        <time>2021-09-11T07:34:39.000Z</time>
      </trkpt>
      <trkpt lat="46.49396" lon="3.84556">
        <ele>228.175966</ele>
        <time>2021-09-11T07:34:46.000Z</time>
      </trkpt>
      <trkpt lat="46.49379" lon="3.84582">
        <ele>228.190624</ele>
        <time>2021-09-11T07:34:50.000Z</time>
      </trkpt>
      <trkpt lat="46.4937" lon="3.84594">
        <ele>228.197722</ele>
        <time>2021-09-11T07:34:52.000Z</time>
      </trkpt>
      <trkpt lat="46.49334" lon="3.84645">
        <ele>228.253691</ele>
        <time>2021-09-11T07:35:00.000Z</time>
      </trkpt>
      <trkpt lat="46.49308" lon="3.84682">
        <ele>228.296153</ele>
        <time>2021-09-11T07:35:07.000Z</time>
      </trkpt>
      <trkpt lat="46.49272" lon="3.84732">
        <ele>228.352953</ele>
        <time>2021-09-11T07:35:14.000Z</time>
      </trkpt>
      <trkpt lat="46.49247" lon="3.84769">
        <ele>228.394089</ele>
        <time>2021-09-11T07:35:20.000Z</time>
      </trkpt>
      <trkpt lat="46.49211" lon="3.8482">
        <ele>228.484701</ele>
        <time>2021-09-11T07:35:28.000Z</time>
      </trkpt>
      <trkpt lat="46.49174" lon="3.84872">
        <ele>228.58715</ele>
        <time>2021-09-11T07:35:36.000Z</time>
      </trkpt>
      <trkpt lat="46.49141" lon="3.84919">
        <ele>228.679703</ele>
        <time>2021-09-11T07:35:43.000Z</time>
      </trkpt>
      <trkpt lat="46.49102" lon="3.84974">
        <ele>228.743925</ele>
        <time>2021-09-11T07:35:51.000Z</time>
      </trkpt>
      <trkpt lat="46.49069" lon="3.85021">
        <ele>228.658337</ele>
        <time>2021-09-11T07:35:58.000Z</time>
      </trkpt>
      <trkpt lat="46.4904" lon="3.85061">
        <ele>228.585133</ele>
        <time>2021-09-11T07:36:04.000Z</time>
      </trkpt>
      <trkpt lat="46.49012" lon="3.85101">
        <ele>228.512898</ele>
        <time>2021-09-11T07:36:10.000Z</time>
      </trkpt>
      <trkpt lat="46.48981" lon="3.85144">
        <ele>228.433653</ele>
        <time>2021-09-11T07:36:17.000Z</time>
      </trkpt>
      <trkpt lat="46.48946" lon="3.85192">
        <ele>228.512534</ele>
        <time>2021-09-11T07:36:25.000Z</time>
      </trkpt>
      <trkpt lat="46.48913" lon="3.85238">
        <ele>228.589112</ele>
        <time>2021-09-11T07:36:33.000Z</time>
      </trkpt>
      <trkpt lat="46.48884" lon="3.85279">
        <ele>228.655806</ele>
        <time>2021-09-11T07:36:40.000Z</time>
      </trkpt>
      <trkpt lat="46.48845" lon="3.85334">
        <ele>228.763378</ele>
        <time>2021-09-11T07:36:49.000Z</time>
      </trkpt>
      <trkpt lat="46.48811" lon="3.85382">
        <ele>228.95148</ele>
        <time>2021-09-11T07:36:57.000Z</time>
      </trkpt>
      <trkpt lat="46.4878" lon="3.85425">
        <ele>229.115429</ele>
        <time>2021-09-11T07:37:04.000Z</time>
      </trkpt>
      <trkpt lat="46.48747" lon="3.85472">
        <ele>229.297843</ele>
        <time>2021-09-11T07:37:12.000Z</time>
      </trkpt>
      <trkpt lat="46.48713" lon="3.85521">
        <ele>229.482705</ele>
        <time>2021-09-11T07:37:20.000Z</time>
      </trkpt>
      <trkpt lat="46.48708" lon="3.85527">
        <ele>229.505968</ele>
        <time>2021-09-11T07:37:21.000Z</time>
      </trkpt>
      <trkpt lat="46.48685" lon="3.85561">
        <ele>229.634322</ele>
        <time>2021-09-11T07:37:27.000Z</time>
      </trkpt>
      <trkpt lat="46.48659" lon="3.85598">
        <ele>229.773167</ele>
        <time>2021-09-11T07:37:34.000Z</time>
      </trkpt>
      <trkpt lat="46.48633" lon="3.85634">
        <ele>229.910802</ele>
        <time>2021-09-11T07:37:41.000Z</time>
      </trkpt>
      <trkpt lat="46.48608" lon="3.85671">
        <ele>230.048272</ele>
        <time>2021-09-11T07:37:48.000Z</time>
      </trkpt>
      <trkpt lat="46.48588" lon="3.85709">
        <ele>230.119221</ele>
        <time>2021-09-11T07:37:54.000Z</time>
      </trkpt>
      <trkpt lat="46.48577" lon="3.85735">
        <ele>230.113439</ele>
        <time>2021-09-11T07:37:58.000Z</time>
      </trkpt>
      <trkpt lat="46.48573" lon="3.85749">
        <ele>230.110741</ele>
        <time>2021-09-11T07:38:00.000Z</time>
      </trkpt>
      <trkpt lat="46.48565" lon="3.85788">
        <ele>230.103119</ele>
        <time>2021-09-11T07:38:06.000Z</time>
      </trkpt>
      <trkpt lat="46.48563" lon="3.85794">
        <ele>230.101833</ele>
        <time>2021-09-11T07:38:07.000Z</time>
      </trkpt>
      <trkpt lat="46.48562" lon="3.85801">
        <ele>230.100564</ele>
        <time>2021-09-11T07:38:08.000Z</time>
      </trkpt>
      <trkpt lat="46.48554" lon="3.85836">
        <ele>230.093768</ele>
        <time>2021-09-11T07:38:13.000Z</time>
      </trkpt>
      <trkpt lat="46.48552" lon="3.85842">
        <ele>230.092418</ele>
        <time>2021-09-11T07:38:14.000Z</time>
      </trkpt>
      <trkpt lat="46.48543" lon="3.8587">
        <ele>230.0867</ele>
        <time>2021-09-11T07:38:18.000Z</time>
      </trkpt>
      <trkpt lat="46.48534" lon="3.85897">
        <ele>230.081066</ele>
        <time>2021-09-11T07:38:22.000Z</time>
      </trkpt>
      <trkpt lat="46.4853" lon="3.8591">
        <ele>230.07847</ele>
        <time>2021-09-11T07:38:24.000Z</time>
      </trkpt>
      <trkpt lat="46.48526" lon="3.85922">
        <ele>230.07598</ele>
        <time>2021-09-11T07:38:26.000Z</time>
      </trkpt>
      <trkpt lat="46.48519" lon="3.85945">
        <ele>230.077576</ele>
        <time>2021-09-11T07:38:30.000Z</time>
      </trkpt>
      <trkpt lat="46.48507" lon="3.85981">
        <ele>230.086624</ele>
        <time>2021-09-11T07:38:36.000Z</time>
      </trkpt>
      <trkpt lat="46.48505" lon="3.85987">
        <ele>230.088157</ele>
        <time>2021-09-11T07:38:37.000Z</time>
      </trkpt>
      <trkpt lat="46.48499" lon="3.86005">
        <ele>230.092542</ele>
        <time>2021-09-11T07:38:40.000Z</time>
      </trkpt>
      <trkpt lat="46.48498" lon="3.86011">
        <ele>230.093933</ele>
        <time>2021-09-11T07:38:41.000Z</time>
      </trkpt>
      <trkpt lat="46.48484" lon="3.86055">
        <ele>230.104759</ele>
        <time>2021-09-11T07:38:48.000Z</time>
      </trkpt>
      <trkpt lat="46.48469" lon="3.86103">
        <ele>230.116616</ele>
        <time>2021-09-11T07:38:55.000Z</time>
      </trkpt>
      <trkpt lat="46.4845" lon="3.8617">
        <ele>230.132836</ele>
        <time>2021-09-11T07:39:03.000Z</time>
      </trkpt>
      <trkpt lat="46.48427" lon="3.86248">
        <ele>230.175509</ele>
        <time>2021-09-11T07:39:12.000Z</time>
      </trkpt>
      <trkpt lat="46.48413" lon="3.86313">
        <ele>230.209648</ele>
        <time>2021-09-11T07:39:20.000Z</time>
      </trkpt>
      <trkpt lat="46.48403" lon="3.8638">
        <ele>230.243717</ele>
        <time>2021-09-11T07:39:28.000Z</time>
      </trkpt>
      <trkpt lat="46.484" lon="3.8641">
        <ele>230.259003</ele>
        <time>2021-09-11T07:39:32.000Z</time>
      </trkpt>
      <trkpt lat="46.48399" lon="3.86425">
        <ele>230.276145</ele>
        <time>2021-09-11T07:39:34.000Z</time>
      </trkpt>
      <trkpt lat="46.48396" lon="3.86479">
        <ele>230.379761</ele>
        <time>2021-09-11T07:39:41.000Z</time>
      </trkpt>
      <trkpt lat="46.48395" lon="3.86534">
        <ele>230.486664</ele>
        <time>2021-09-11T07:39:48.000Z</time>
      </trkpt>
      <trkpt lat="46.48394" lon="3.86566">
        <ele>230.548356</ele>
        <time>2021-09-11T07:39:52.000Z</time>
      </trkpt>
      <trkpt lat="46.48393" lon="3.86582">
        <ele>230.579783</ele>
        <time>2021-09-11T07:39:54.000Z</time>
      </trkpt>
      <trkpt lat="46.48392" lon="3.86668">
        <ele>230.746102</ele>
        <time>2021-09-11T07:40:04.000Z</time>
      </trkpt>
      <trkpt lat="46.48391" lon="3.86745">
        <ele>230.826694</ele>
        <time>2021-09-11T07:40:13.000Z</time>
      </trkpt>
      <trkpt lat="46.4839" lon="3.86805">
        <ele>230.879662</ele>
        <time>2021-09-11T07:40:20.000Z</time>
      </trkpt>
      <trkpt lat="46.48389" lon="3.86886">
        <ele>230.951785</ele>
        <time>2021-09-11T07:40:29.000Z</time>
      </trkpt>
      <trkpt lat="46.48389" lon="3.86949">
        <ele>230.995385</ele>
        <time>2021-09-11T07:40:36.000Z</time>
      </trkpt>
      <trkpt lat="46.48383" lon="3.87029">
        <ele>230.949193</ele>
        <time>2021-09-11T07:40:45.000Z</time>
      </trkpt>
      <trkpt lat="46.48377" lon="3.87101">
        <ele>230.907901</ele>
        <time>2021-09-11T07:40:53.000Z</time>
      </trkpt>
      <trkpt lat="46.48371" lon="3.87172">
        <ele>230.867311</ele>
        <time>2021-09-11T07:41:01.000Z</time>
      </trkpt>
      <trkpt lat="46.48365" lon="3.8724">
        <ele>230.818655</ele>
        <time>2021-09-11T07:41:09.000Z</time>
      </trkpt>
      <trkpt lat="46.48358" lon="3.87326">
        <ele>230.749418</ele>
        <time>2021-09-11T07:41:19.000Z</time>
      </trkpt>
      <trkpt lat="46.48352" lon="3.87376">
        <ele>230.708466</ele>
        <time>2021-09-11T07:41:25.000Z</time>
      </trkpt>
      <trkpt lat="46.48345" lon="3.87428">
        <ele>230.666355</ele>
        <time>2021-09-11T07:41:31.000Z</time>
      </trkpt>
      <trkpt lat="46.48337" lon="3.87483">
        <ele>230.533135</ele>
        <time>2021-09-11T07:41:37.000Z</time>
      </trkpt>
      <trkpt lat="46.48334" lon="3.87502">
        <ele>230.450571</ele>
        <time>2021-09-11T07:41:39.000Z</time>
      </trkpt>
      <trkpt lat="46.48329" lon="3.87538">
        <ele>230.294637</ele>
        <time>2021-09-11T07:41:43.000Z</time>
      </trkpt>
      <trkpt lat="46.4832" lon="3.87598">
        <ele>230.038003</ele>
        <time>2021-09-11T07:41:50.000Z</time>
      </trkpt>
      <trkpt lat="46.48311" lon="3.87659">
        <ele>229.77437</ele>
        <time>2021-09-11T07:41:57.000Z</time>
      </trkpt>
      <trkpt lat="46.48303" lon="3.87718">
        <ele>229.537654</ele>
        <time>2021-09-11T07:42:04.000Z</time>
      </trkpt>
      <trkpt lat="46.48297" lon="3.87759">
        <ele>229.544746</ele>
        <time>2021-09-11T07:42:09.000Z</time>
      </trkpt>
      <trkpt lat="46.48296" lon="3.87767">
        <ele>229.546112</ele>
        <time>2021-09-11T07:42:10.000Z</time>
      </trkpt>
      <trkpt lat="46.48295" lon="3.87774">
        <ele>229.547474</ele>
        <time>2021-09-11T07:42:11.000Z</time>
      </trkpt>
      <trkpt lat="46.48293" lon="3.8779">
        <ele>229.550151</ele>
        <time>2021-09-11T07:42:13.000Z</time>
      </trkpt>
      <trkpt lat="46.48292" lon="3.87798">
        <ele>229.551623</ele>
        <time>2021-09-11T07:42:14.000Z</time>
      </trkpt>
      <trkpt lat="46.48291" lon="3.87806">
        <ele>229.55304</ele>
        <time>2021-09-11T07:42:15.000Z</time>
      </trkpt>
      <trkpt lat="46.48286" lon="3.87845">
        <ele>229.559845</ele>
        <time>2021-09-11T07:42:20.000Z</time>
      </trkpt>
      <trkpt lat="46.48279" lon="3.87893">
        <ele>229.568301</ele>
        <time>2021-09-11T07:42:26.000Z</time>
      </trkpt>
      <trkpt lat="46.4827" lon="3.87953">
        <ele>229.57876</ele>
        <time>2021-09-11T07:42:33.000Z</time>
      </trkpt>
      <trkpt lat="46.4825" lon="3.87999">
        <ele>229.669471</ele>
        <time>2021-09-11T07:42:39.000Z</time>
      </trkpt>
      <trkpt lat="46.48223" lon="3.88061">
        <ele>229.844094</ele>
        <time>2021-09-11T07:42:47.000Z</time>
      </trkpt>
      <trkpt lat="46.48196" lon="3.88124">
        <ele>230.019318</ele>
        <time>2021-09-11T07:42:55.000Z</time>
      </trkpt>
      <trkpt lat="46.48168" lon="3.88189">
        <ele>230.198769</ele>
        <time>2021-09-11T07:43:03.000Z</time>
      </trkpt>
      <trkpt lat="46.48142" lon="3.88253">
        <ele>230.396051</ele>
        <time>2021-09-11T07:43:11.000Z</time>
      </trkpt>
      <trkpt lat="46.48111" lon="3.88327">
        <ele>230.622725</ele>
        <time>2021-09-11T07:43:20.000Z</time>
      </trkpt>
      <trkpt lat="46.48092" lon="3.88373">
        <ele>230.763213</ele>
        <time>2021-09-11T07:43:26.000Z</time>
      </trkpt>
      <trkpt lat="46.48074" lon="3.88436">
        <ele>231.003334</ele>
        <time>2021-09-11T07:43:34.000Z</time>
      </trkpt>
      <trkpt lat="46.48062" lon="3.88499">
        <ele>231.353596</ele>
        <time>2021-09-11T07:43:42.000Z</time>
      </trkpt>
      <trkpt lat="46.48055" lon="3.88527">
        <ele>231.512741</ele>
        <time>2021-09-11T07:43:46.000Z</time>
      </trkpt>
      <trkpt lat="46.4805" lon="3.88548">
        <ele>231.631929</ele>
        <time>2021-09-11T07:43:49.000Z</time>
      </trkpt>
      <trkpt lat="46.48033" lon="3.88603">
        <ele>231.953226</ele>
        <time>2021-09-11T07:43:57.000Z</time>
      </trkpt>
      <trkpt lat="46.4802" lon="3.88644">
        <ele>232.194311</ele>
        <time>2021-09-11T07:44:03.000Z</time>
      </trkpt>
      <trkpt lat="46.48001" lon="3.88698">
        <ele>232.599952</ele>
        <time>2021-09-11T07:44:11.000Z</time>
      </trkpt>
      <trkpt lat="46.47982" lon="3.88753">
        <ele>233.035551</ele>
        <time>2021-09-11T07:44:19.000Z</time>
      </trkpt>
      <trkpt lat="46.4798" lon="3.8876">
        <ele>233.091577</ele>
        <time>2021-09-11T07:44:20.000Z</time>
      </trkpt>
      <trkpt lat="46.47966" lon="3.88827">
        <ele>233.591121</ele>
        <time>2021-09-11T07:44:29.000Z</time>
      </trkpt>
      <trkpt lat="46.47964" lon="3.88883">
        <ele>233.988473</ele>
        <time>2021-09-11T07:44:36.000Z</time>
      </trkpt>
      <trkpt lat="46.47967" lon="3.88956">
        <ele>234.381556</ele>
        <time>2021-09-11T07:44:45.000Z</time>
      </trkpt>
      <trkpt lat="46.47972" lon="3.89025">
        <ele>234.694559</ele>
        <time>2021-09-11T07:44:53.000Z</time>
      </trkpt>
      <trkpt lat="46.47968" lon="3.89089">
        <ele>234.987687</ele>
        <time>2021-09-11T07:45:00.000Z</time>
      </trkpt>
      <trkpt lat="46.47957" lon="3.89131">
        <ele>235.195864</ele>
        <time>2021-09-11T07:45:05.000Z</time>
      </trkpt>
      <trkpt lat="46.47935" lon="3.89171">
        <ele>235.387551</ele>
        <time>2021-09-11T07:45:11.000Z</time>
      </trkpt>
      <trkpt lat="46.47909" lon="3.89214">
        <ele>235.536461</ele>
        <time>2021-09-11T07:45:18.000Z</time>
      </trkpt>
      <trkpt lat="46.47883" lon="3.89259">
        <ele>235.68902</ele>
        <time>2021-09-11T07:45:25.000Z</time>
      </trkpt>
      <trkpt lat="46.47873" lon="3.89278">
        <ele>235.749421</ele>
        <time>2021-09-11T07:45:28.000Z</time>
      </trkpt>
      <trkpt lat="46.47864" lon="3.89307">
        <ele>235.832589</ele>
        <time>2021-09-11T07:45:32.000Z</time>
      </trkpt>
      <trkpt lat="46.47859" lon="3.89322">
        <ele>235.87568</ele>
        <time>2021-09-11T07:45:34.000Z</time>
      </trkpt>
      <trkpt lat="46.47853" lon="3.89354">
        <ele>235.962306</ele>
        <time>2021-09-11T07:45:38.000Z</time>
      </trkpt>
      <trkpt lat="46.47853" lon="3.89363">
        <ele>235.985261</ele>
        <time>2021-09-11T07:45:39.000Z</time>
      </trkpt>
      <trkpt lat="46.47852" lon="3.8938">
        <ele>235.990274</ele>
        <time>2021-09-11T07:45:41.000Z</time>
      </trkpt>
      <trkpt lat="46.47855" lon="3.89397">
        <ele>235.91384</ele>
        <time>2021-09-11T07:45:43.000Z</time>
      </trkpt>
      <trkpt lat="46.47866" lon="3.89448">
        <ele>235.680224</ele>
        <time>2021-09-11T07:45:49.000Z</time>
      </trkpt>
      <trkpt lat="46.47875" lon="3.89472">
        <ele>235.562443</ele>
        <time>2021-09-11T07:45:52.000Z</time>
      </trkpt>
      <trkpt lat="46.47881" lon="3.89487">
        <ele>235.484782</ele>
        <time>2021-09-11T07:45:54.000Z</time>
      </trkpt>
      <trkpt lat="46.47908" lon="3.89547">
        <ele>235.172729</ele>
        <time>2021-09-11T07:46:02.000Z</time>
      </trkpt>
      <trkpt lat="46.47923" lon="3.89584">
        <ele>234.984795</ele>
        <time>2021-09-11T07:46:07.000Z</time>
      </trkpt>
      <trkpt lat="46.47939" lon="3.89641">
        <ele>234.724431</ele>
        <time>2021-09-11T07:46:14.000Z</time>
      </trkpt>
      <trkpt lat="46.47945" lon="3.89683">
        <ele>234.541486</ele>
        <time>2021-09-11T07:46:19.000Z</time>
      </trkpt>
      <trkpt lat="46.47946" lon="3.89692">
        <ele>234.505638</ele>
        <time>2021-09-11T07:46:20.000Z</time>
      </trkpt>
      <trkpt lat="46.47949" lon="3.89753">
        <ele>234.247358</ele>
        <time>2021-09-11T07:46:27.000Z</time>
      </trkpt>
      <trkpt lat="46.47949" lon="3.89761">
        <ele>234.209808</ele>
        <time>2021-09-11T07:46:28.000Z</time>
      </trkpt>
      <trkpt lat="46.47948" lon="3.89806">
        <ele>234.022014</ele>
        <time>2021-09-11T07:46:33.000Z</time>
      </trkpt>
      <trkpt lat="46.47945" lon="3.89858">
        <ele>233.801916</ele>
        <time>2021-09-11T07:46:39.000Z</time>
      </trkpt>
      <trkpt lat="46.47937" lon="3.8992">
        <ele>233.651379</ele>
        <time>2021-09-11T07:46:46.000Z</time>
      </trkpt>
      <trkpt lat="46.47924" lon="3.90004">
        <ele>233.465071</ele>
        <time>2021-09-11T07:46:55.000Z</time>
      </trkpt>
      <trkpt lat="46.47911" lon="3.90085">
        <ele>233.28649</ele>
        <time>2021-09-11T07:47:04.000Z</time>
      </trkpt>
      <trkpt lat="46.47898" lon="3.90165">
        <ele>233.076881</ele>
        <time>2021-09-11T07:47:13.000Z</time>
      </trkpt>
      <trkpt lat="46.47897" lon="3.90174">
        <ele>233.049798</ele>
        <time>2021-09-11T07:47:14.000Z</time>
      </trkpt>
      <trkpt lat="46.47887" lon="3.90239">
        <ele>232.861247</ele>
        <time>2021-09-11T07:47:21.000Z</time>
      </trkpt>
      <trkpt lat="46.47874" lon="3.90322">
        <ele>232.619274</ele>
        <time>2021-09-11T07:47:30.000Z</time>
      </trkpt>
      <trkpt lat="46.47861" lon="3.90404">
        <ele>232.369637</ele>
        <time>2021-09-11T07:47:39.000Z</time>
      </trkpt>
      <trkpt lat="46.47859" lon="3.90412">
        <ele>232.341187</ele>
        <time>2021-09-11T07:47:40.000Z</time>
      </trkpt>
      <trkpt lat="46.47847" lon="3.90491">
        <ele>232.083786</ele>
        <time>2021-09-11T07:47:49.000Z</time>
      </trkpt>
      <trkpt lat="46.47846" lon="3.905">
        <ele>232.055955</ele>
        <time>2021-09-11T07:47:50.000Z</time>
      </trkpt>
      <trkpt lat="46.47835" lon="3.90569">
        <ele>231.828556</ele>
        <time>2021-09-11T07:47:58.000Z</time>
      </trkpt>
      <trkpt lat="46.47833" lon="3.90578">
        <ele>231.80145</ele>
        <time>2021-09-11T07:47:59.000Z</time>
      </trkpt>
      <trkpt lat="46.47831" lon="3.90595">
        <ele>231.743928</ele>
        <time>2021-09-11T07:48:01.000Z</time>
      </trkpt>
      <trkpt lat="46.47826" lon="3.90622">
        <ele>231.657437</ele>
        <time>2021-09-11T07:48:04.000Z</time>
      </trkpt>
      <trkpt lat="46.47815" lon="3.90693">
        <ele>231.610432</ele>
        <time>2021-09-11T07:48:12.000Z</time>
      </trkpt>
      <trkpt lat="46.47802" lon="3.90773">
        <ele>231.579492</ele>
        <time>2021-09-11T07:48:21.000Z</time>
      </trkpt>
      <trkpt lat="46.47791" lon="3.90845">
        <ele>231.551898</ele>
        <time>2021-09-11T07:48:29.000Z</time>
      </trkpt>
      <trkpt lat="46.47776" lon="3.90928">
        <ele>231.612067</ele>
        <time>2021-09-11T07:48:38.000Z</time>
      </trkpt>
      <trkpt lat="46.47774" lon="3.90938">
        <ele>231.627759</ele>
        <time>2021-09-11T07:48:39.000Z</time>
      </trkpt>
      <trkpt lat="46.47759" lon="3.91014">
        <ele>231.754008</ele>
        <time>2021-09-11T07:48:47.000Z</time>
      </trkpt>
      <trkpt lat="46.47757" lon="3.91024">
        <ele>231.770223</ele>
        <time>2021-09-11T07:48:48.000Z</time>
      </trkpt>
      <trkpt lat="46.4774" lon="3.91099">
        <ele>231.896661</ele>
        <time>2021-09-11T07:48:56.000Z</time>
      </trkpt>
      <trkpt lat="46.47724" lon="3.91173">
        <ele>232.142289</ele>
        <time>2021-09-11T07:49:04.000Z</time>
      </trkpt>
      <trkpt lat="46.47705" lon="3.91253">
        <ele>232.530228</ele>
        <time>2021-09-11T07:49:13.000Z</time>
      </trkpt>
      <trkpt lat="46.47687" lon="3.91331">
        <ele>232.903552</ele>
        <time>2021-09-11T07:49:22.000Z</time>
      </trkpt>
      <trkpt lat="46.4767" lon="3.91409">
        <ele>233.244506</ele>
        <time>2021-09-11T07:49:31.000Z</time>
      </trkpt>
      <trkpt lat="46.47668" lon="3.91418">
        <ele>233.276092</ele>
        <time>2021-09-11T07:49:32.000Z</time>
      </trkpt>
      <trkpt lat="46.47652" lon="3.915">
        <ele>233.568969</ele>
        <time>2021-09-11T07:49:41.000Z</time>
      </trkpt>
      <trkpt lat="46.47648" lon="3.91518">
        <ele>233.635876</ele>
        <time>2021-09-11T07:49:43.000Z</time>
      </trkpt>
      <trkpt lat="46.47632" lon="3.91602">
        <ele>233.936283</ele>
        <time>2021-09-11T07:49:52.000Z</time>
      </trkpt>
      <trkpt lat="46.4763" lon="3.91611">
        <ele>233.969669</ele>
        <time>2021-09-11T07:49:53.000Z</time>
      </trkpt>
      <trkpt lat="46.47614" lon="3.91694">
        <ele>234.147743</ele>
        <time>2021-09-11T07:50:02.000Z</time>
      </trkpt>
      <trkpt lat="46.47608" lon="3.91723">
        <ele>234.19486</ele>
        <time>2021-09-11T07:50:05.000Z</time>
      </trkpt>
      <trkpt lat="46.47596" lon="3.918">
        <ele>234.321101</ele>
        <time>2021-09-11T07:50:13.000Z</time>
      </trkpt>
      <trkpt lat="46.47594" lon="3.91819">
        <ele>234.352131</ele>
        <time>2021-09-11T07:50:15.000Z</time>
      </trkpt>
      <trkpt lat="46.47586" lon="3.91896">
        <ele>234.469345</ele>
        <time>2021-09-11T07:50:23.000Z</time>
      </trkpt>
      <trkpt lat="46.47588" lon="3.91953">
        <ele>234.515408</ele>
        <time>2021-09-11T07:50:29.000Z</time>
      </trkpt>
      <trkpt lat="46.476" lon="3.92031">
        <ele>234.579254</ele>
        <time>2021-09-11T07:50:37.000Z</time>
      </trkpt>
      <trkpt lat="46.47602" lon="3.92041">
        <ele>234.587674</ele>
        <time>2021-09-11T07:50:38.000Z</time>
      </trkpt>
      <trkpt lat="46.47609" lon="3.92103">
        <ele>234.637406</ele>
        <time>2021-09-11T07:50:44.000Z</time>
      </trkpt>
      <trkpt lat="46.47607" lon="3.92162">
        <ele>234.712451</ele>
        <time>2021-09-11T07:50:50.000Z</time>
      </trkpt>
      <trkpt lat="46.47602" lon="3.92228">
        <ele>234.86956</ele>
        <time>2021-09-11T07:50:57.000Z</time>
      </trkpt>
      <trkpt lat="46.47595" lon="3.92313">
        <ele>235.071877</ele>
        <time>2021-09-11T07:51:07.000Z</time>
      </trkpt>
      <trkpt lat="46.4759" lon="3.92373">
        <ele>235.212851</ele>
        <time>2021-09-11T07:51:14.000Z</time>
      </trkpt>
      <trkpt lat="46.47584" lon="3.92447">
        <ele>235.307667</ele>
        <time>2021-09-11T07:51:22.000Z</time>
      </trkpt>
      <trkpt lat="46.47579" lon="3.92509">
        <ele>235.337379</ele>
        <time>2021-09-11T07:51:28.000Z</time>
      </trkpt>
      <trkpt lat="46.47571" lon="3.92594">
        <ele>235.378902</ele>
        <time>2021-09-11T07:51:36.000Z</time>
      </trkpt>
      <trkpt lat="46.47569" lon="3.92605">
        <ele>235.384014</ele>
        <time>2021-09-11T07:51:37.000Z</time>
      </trkpt>
      <trkpt lat="46.47557" lon="3.92644">
        <ele>235.404901</ele>
        <time>2021-09-11T07:51:41.000Z</time>
      </trkpt>
      <trkpt lat="46.47553" lon="3.92654">
        <ele>235.410089</ele>
        <time>2021-09-11T07:51:42.000Z</time>
      </trkpt>
      <trkpt lat="46.47522" lon="3.92702">
        <ele>235.328845</ele>
        <time>2021-09-11T07:51:48.000Z</time>
      </trkpt>
      <trkpt lat="46.47479" lon="3.92765">
        <ele>235.210727</ele>
        <time>2021-09-11T07:51:56.000Z</time>
      </trkpt>
      <trkpt lat="46.47464" lon="3.92792">
        <ele>235.164118</ele>
        <time>2021-09-11T07:51:59.000Z</time>
      </trkpt>
      <trkpt lat="46.47456" lon="3.92813">
        <ele>235.133114</ele>
        <time>2021-09-11T07:52:01.000Z</time>
      </trkpt>
      <trkpt lat="46.47445" lon="3.92866">
        <ele>235.056638</ele>
        <time>2021-09-11T07:52:06.000Z</time>
      </trkpt>
      <trkpt lat="46.47432" lon="3.92949">
        <ele>234.900546</ele>
        <time>2021-09-11T07:52:14.000Z</time>
      </trkpt>
      <trkpt lat="46.4743" lon="3.92959">
        <ele>234.8809</ele>
        <time>2021-09-11T07:52:15.000Z</time>
      </trkpt>
      <trkpt lat="46.47417" lon="3.93039">
        <ele>234.730437</ele>
        <time>2021-09-11T07:52:23.000Z</time>
      </trkpt>
      <trkpt lat="46.47416" lon="3.93049">
        <ele>234.71151</ele>
        <time>2021-09-11T07:52:24.000Z</time>
      </trkpt>
      <trkpt lat="46.47403" lon="3.93128">
        <ele>234.608662</ele>
        <time>2021-09-11T07:52:32.000Z</time>
      </trkpt>
      <trkpt lat="46.47401" lon="3.93137">
        <ele>234.630326</ele>
        <time>2021-09-11T07:52:33.000Z</time>
      </trkpt>
      <trkpt lat="46.47389" lon="3.93215">
        <ele>234.815749</ele>
        <time>2021-09-11T07:52:42.000Z</time>
      </trkpt>
      <trkpt lat="46.47378" lon="3.93282">
        <ele>234.975446</ele>
        <time>2021-09-11T07:52:50.000Z</time>
      </trkpt>
      <trkpt lat="46.47369" lon="3.93346">
        <ele>235.127657</ele>
        <time>2021-09-11T07:52:58.000Z</time>
      </trkpt>
      <trkpt lat="46.47365" lon="3.93418">
        <ele>235.263524</ele>
        <time>2021-09-11T07:53:07.000Z</time>
      </trkpt>
      <trkpt lat="46.4736" lon="3.93499">
        <ele>235.396061</ele>
        <time>2021-09-11T07:53:17.000Z</time>
      </trkpt>
      <trkpt lat="46.47355" lon="3.93567">
        <ele>235.50757</ele>
        <time>2021-09-11T07:53:24.000Z</time>
      </trkpt>
      <trkpt lat="46.47347" lon="3.93633">
        <ele>235.612908</ele>
        <time>2021-09-11T07:53:30.000Z</time>
      </trkpt>
      <trkpt lat="46.47334" lon="3.93676">
        <ele>235.543198</ele>
        <time>2021-09-11T07:53:34.000Z</time>
      </trkpt>
      <trkpt lat="46.4733" lon="3.93686">
        <ele>235.52544</ele>
        <time>2021-09-11T07:53:35.000Z</time>
      </trkpt>
      <trkpt lat="46.47298" lon="3.93753">
        <ele>235.404597</ele>
        <time>2021-09-11T07:53:42.000Z</time>
      </trkpt>
      <trkpt lat="46.47269" lon="3.93813">
        <ele>235.296093</ele>
        <time>2021-09-11T07:53:49.000Z</time>
      </trkpt>
      <trkpt lat="46.47247" lon="3.93858">
        <ele>235.240837</ele>
        <time>2021-09-11T07:53:55.000Z</time>
      </trkpt>
      <trkpt lat="46.47224" lon="3.93907">
        <ele>235.333219</ele>
        <time>2021-09-11T07:54:02.000Z</time>
      </trkpt>
      <trkpt lat="46.47214" lon="3.93925">
        <ele>235.369722</ele>
        <time>2021-09-11T07:54:05.000Z</time>
      </trkpt>
      <trkpt lat="46.47202" lon="3.93942">
        <ele>235.406878</ele>
        <time>2021-09-11T07:54:08.000Z</time>
      </trkpt>
      <trkpt lat="46.47183" lon="3.93968">
        <ele>235.465952</ele>
        <time>2021-09-11T07:54:13.000Z</time>
      </trkpt>
      <trkpt lat="46.47179" lon="3.93972">
        <ele>235.476707</ele>
        <time>2021-09-11T07:54:14.000Z</time>
      </trkpt>
      <trkpt lat="46.47154" lon="3.94006">
        <ele>235.554429</ele>
        <time>2021-09-11T07:54:21.000Z</time>
      </trkpt>
      <trkpt lat="46.47127" lon="3.94042">
        <ele>235.63639</ele>
        <time>2021-09-11T07:54:28.000Z</time>
      </trkpt>
      <trkpt lat="46.47096" lon="3.94084">
        <ele>235.743712</ele>
        <time>2021-09-11T07:54:36.000Z</time>
      </trkpt>
      <trkpt lat="46.47067" lon="3.94123">
        <ele>235.842187</ele>
        <time>2021-09-11T07:54:43.000Z</time>
      </trkpt>
      <trkpt lat="46.47038" lon="3.94161">
        <ele>235.939668</ele>
        <time>2021-09-11T07:54:50.000Z</time>
      </trkpt>
      <trkpt lat="46.47003" lon="3.94206">
        <ele>236.057016</ele>
        <time>2021-09-11T07:54:59.000Z</time>
      </trkpt>
      <trkpt lat="46.46984" lon="3.94229">
        <ele>236.124317</ele>
        <time>2021-09-11T07:55:04.000Z</time>
      </trkpt>
      <trkpt lat="46.46978" lon="3.94241">
        <ele>236.151909</ele>
        <time>2021-09-11T07:55:06.000Z</time>
      </trkpt>
      <trkpt lat="46.4697" lon="3.94258">
        <ele>236.193458</ele>
        <time>2021-09-11T07:55:09.000Z</time>
      </trkpt>
      <trkpt lat="46.46964" lon="3.94278">
        <ele>236.238458</ele>
        <time>2021-09-11T07:55:12.000Z</time>
      </trkpt>
      <trkpt lat="46.46956" lon="3.94317">
        <ele>236.31949</ele>
        <time>2021-09-11T07:55:17.000Z</time>
      </trkpt>
      <trkpt lat="46.46956" lon="3.94326">
        <ele>236.336246</ele>
        <time>2021-09-11T07:55:18.000Z</time>
      </trkpt>
      <trkpt lat="46.46957" lon="3.94334">
        <ele>236.353413</ele>
        <time>2021-09-11T07:55:19.000Z</time>
      </trkpt>
      <trkpt lat="46.46958" lon="3.94359">
        <ele>236.402798</ele>
        <time>2021-09-11T07:55:22.000Z</time>
      </trkpt>
      <trkpt lat="46.46959" lon="3.94368">
        <ele>236.419989</ele>
        <time>2021-09-11T07:55:23.000Z</time>
      </trkpt>
      <trkpt lat="46.46974" lon="3.94414">
        <ele>236.52199</ele>
        <time>2021-09-11T07:55:29.000Z</time>
      </trkpt>
      <trkpt lat="46.46994" lon="3.94452">
        <ele>236.616912</ele>
        <time>2021-09-11T07:55:35.000Z</time>
      </trkpt>
      <trkpt lat="46.4702" lon="3.94487">
        <ele>236.714277</ele>
        <time>2021-09-11T07:55:42.000Z</time>
      </trkpt>
      <trkpt lat="46.47044" lon="3.94515">
        <ele>236.798597</ele>
        <time>2021-09-11T07:55:49.000Z</time>
      </trkpt>
      <trkpt lat="46.47074" lon="3.9455">
        <ele>236.902222</ele>
        <time>2021-09-11T07:55:58.000Z</time>
      </trkpt>
      <trkpt lat="46.47095" lon="3.94576">
        <ele>236.977389</ele>
        <time>2021-09-11T07:56:04.000Z</time>
      </trkpt>
      <trkpt lat="46.47127" lon="3.94614">
        <ele>237.090586</ele>
        <time>2021-09-11T07:56:12.000Z</time>
      </trkpt>
      <trkpt lat="46.47156" lon="3.94651">
        <ele>236.908806</ele>
        <time>2021-09-11T07:56:18.000Z</time>
      </trkpt>
      <trkpt lat="46.47175" lon="3.94684">
        <ele>236.764337</ele>
        <time>2021-09-11T07:56:22.000Z</time>
      </trkpt>
      <trkpt lat="46.47183" lon="3.94701">
        <ele>236.694898</ele>
        <time>2021-09-11T07:56:24.000Z</time>
      </trkpt>
      <trkpt lat="46.4719" lon="3.94729">
        <ele>236.594212</ele>
        <time>2021-09-11T07:56:27.000Z</time>
      </trkpt>
      <trkpt lat="46.47195" lon="3.94746">
        <ele>236.530704</ele>
        <time>2021-09-11T07:56:29.000Z</time>
      </trkpt>
      <trkpt lat="46.47205" lon="3.94799">
        <ele>236.344379</ele>
        <time>2021-09-11T07:56:35.000Z</time>
      </trkpt>
      <trkpt lat="46.47216" lon="3.94851">
        <ele>236.173272</ele>
        <time>2021-09-11T07:56:41.000Z</time>
      </trkpt>
      <trkpt lat="46.47232" lon="3.94934">
        <ele>235.955773</ele>
        <time>2021-09-11T07:56:50.000Z</time>
      </trkpt>
      <trkpt lat="46.47234" lon="3.94944">
        <ele>235.931621</ele>
        <time>2021-09-11T07:56:51.000Z</time>
      </trkpt>
      <trkpt lat="46.47244" lon="3.94998">
        <ele>235.789591</ele>
        <time>2021-09-11T07:56:57.000Z</time>
      </trkpt>
      <trkpt lat="46.47259" lon="3.95079">
        <ele>235.578178</ele>
        <time>2021-09-11T07:57:06.000Z</time>
      </trkpt>
      <trkpt lat="46.4727" lon="3.95139">
        <ele>235.481767</ele>
        <time>2021-09-11T07:57:13.000Z</time>
      </trkpt>
      <trkpt lat="46.47284" lon="3.95208">
        <ele>235.385274</ele>
        <time>2021-09-11T07:57:21.000Z</time>
      </trkpt>
      <trkpt lat="46.47298" lon="3.95279">
        <ele>235.285609</ele>
        <time>2021-09-11T07:57:29.000Z</time>
      </trkpt>
      <trkpt lat="46.47311" lon="3.95347">
        <ele>235.201275</ele>
        <time>2021-09-11T07:57:37.000Z</time>
      </trkpt>
      <trkpt lat="46.47321" lon="3.954">
        <ele>235.212238</ele>
        <time>2021-09-11T07:57:43.000Z</time>
      </trkpt>
      <trkpt lat="46.47333" lon="3.95462">
        <ele>235.225067</ele>
        <time>2021-09-11T07:57:50.000Z</time>
      </trkpt>
      <trkpt lat="46.47347" lon="3.95535">
        <ele>235.240255</ele>
        <time>2021-09-11T07:57:58.000Z</time>
      </trkpt>
      <trkpt lat="46.47363" lon="3.95619">
        <ele>235.273707</ele>
        <time>2021-09-11T07:58:07.000Z</time>
      </trkpt>
      <trkpt lat="46.47375" lon="3.95696">
        <ele>235.335892</ele>
        <time>2021-09-11T07:58:15.000Z</time>
      </trkpt>
      <trkpt lat="46.47381" lon="3.95764">
        <ele>235.390221</ele>
        <time>2021-09-11T07:58:22.000Z</time>
      </trkpt>
      <trkpt lat="46.47389" lon="3.95841">
        <ele>235.452002</ele>
        <time>2021-09-11T07:58:30.000Z</time>
      </trkpt>
      <trkpt lat="46.47391" lon="3.95871">
        <ele>235.449855</ele>
        <time>2021-09-11T07:58:33.000Z</time>
      </trkpt>
      <trkpt lat="46.47399" lon="3.95951">
        <ele>235.419862</ele>
        <time>2021-09-11T07:58:41.000Z</time>
      </trkpt>
      <trkpt lat="46.47404" lon="3.96011">
        <ele>235.397531</ele>
        <time>2021-09-11T07:58:47.000Z</time>
      </trkpt>
      <trkpt lat="46.47413" lon="3.96094">
        <ele>235.366192</ele>
        <time>2021-09-11T07:58:55.000Z</time>
      </trkpt>
      <trkpt lat="46.47414" lon="3.96104">
        <ele>235.362337</ele>
        <time>2021-09-11T07:58:56.000Z</time>
      </trkpt>
      <trkpt lat="46.47431" lon="3.96176">
        <ele>235.238519</ele>
        <time>2021-09-11T07:59:03.000Z</time>
      </trkpt>
      <trkpt lat="46.47455" lon="3.96251">
        <ele>235.097402</ele>
        <time>2021-09-11T07:59:11.000Z</time>
      </trkpt>
      <trkpt lat="46.47476" lon="3.96318">
        <ele>234.972771</ele>
        <time>2021-09-11T07:59:18.000Z</time>
      </trkpt>
      <trkpt lat="46.47498" lon="3.96394">
        <ele>234.97386</ele>
        <time>2021-09-11T07:59:26.000Z</time>
      </trkpt>
      <trkpt lat="46.47516" lon="3.96462">
        <ele>235.057452</ele>
        <time>2021-09-11T07:59:33.000Z</time>
      </trkpt>
      <trkpt lat="46.47528" lon="3.96514">
        <ele>235.11968</ele>
        <time>2021-09-11T07:59:39.000Z</time>
      </trkpt>
      <trkpt lat="46.47544" lon="3.96579">
        <ele>235.198017</ele>
        <time>2021-09-11T07:59:47.000Z</time>
      </trkpt>
      <trkpt lat="46.47557" lon="3.96635">
        <ele>234.894169</ele>
        <time>2021-09-11T07:59:54.000Z</time>
      </trkpt>
      <trkpt lat="46.47564" lon="3.96663">
        <ele>234.683988</ele>
        <time>2021-09-11T07:59:59.000Z</time>
      </trkpt>
      <trkpt lat="46.47556" lon="3.96664">
        <ele>234.594748</ele>
        <time>2021-09-11T08:00:02.000Z</time>
      </trkpt>
      <trkpt lat="46.4756" lon="3.96647">
        <ele>234.461134</ele>
        <time>2021-09-11T08:00:07.000Z</time>
      </trkpt>
      <trkpt lat="46.47552" lon="3.96636">
        <ele>234.343225</ele>
        <time>2021-09-11T08:00:11.000Z</time>
      </trkpt>
      <trkpt lat="46.4755" lon="3.96636">
        <ele>234.329629</ele>
        <time>2021-09-11T08:00:12.000Z</time>
      </trkpt>
      <trkpt lat="46.4754" lon="3.96633">
        <ele>234.221258</ele>
        <time>2021-09-11T08:00:17.000Z</time>
      </trkpt>
      <trkpt lat="46.4752" lon="3.96627">
        <ele>234.013165</ele>
        <time>2021-09-11T08:00:23.000Z</time>
      </trkpt>
      <trkpt lat="46.47509" lon="3.96624">
        <ele>233.891205</ele>
        <time>2021-09-11T08:00:28.000Z</time>
      </trkpt>
      <trkpt lat="46.47506" lon="3.96623">
        <ele>233.86605</ele>
        <time>2021-09-11T08:00:32.000Z</time>
      </trkpt>
      <trkpt lat="46.47503" lon="3.9663">
        <ele>233.810302</ele>
        <time>2021-09-11T08:00:33.000Z</time>
      </trkpt>
      <trkpt lat="46.47504" lon="3.96648">
        <ele>233.683579</ele>
        <time>2021-09-11T08:00:37.000Z</time>
      </trkpt>
      <trkpt lat="46.47505" lon="3.96686">
        <ele>233.413111</ele>
        <time>2021-09-11T08:00:42.000Z</time>
      </trkpt>
      <trkpt lat="46.47506" lon="3.96738">
        <ele>233.216024</ele>
        <time>2021-09-11T08:00:48.000Z</time>
      </trkpt>
      <trkpt lat="46.47509" lon="3.96789">
        <ele>233.05555</ele>
        <time>2021-09-11T08:00:54.000Z</time>
      </trkpt>
      <trkpt lat="46.47513" lon="3.96851">
        <ele>232.859322</ele>
        <time>2021-09-11T08:01:01.000Z</time>
      </trkpt>
      <trkpt lat="46.47516" lon="3.96899">
        <ele>232.70724</ele>
        <time>2021-09-11T08:01:07.000Z</time>
      </trkpt>
      <trkpt lat="46.47519" lon="3.96944">
        <ele>232.562441</ele>
        <time>2021-09-11T08:01:12.000Z</time>
      </trkpt>
      <trkpt lat="46.47519" lon="3.96954">
        <ele>232.532591</ele>
        <time>2021-09-11T08:01:13.000Z</time>
      </trkpt>
      <trkpt lat="46.47527" lon="3.97018">
        <ele>232.144813</ele>
        <time>2021-09-11T08:01:20.000Z</time>
      </trkpt>
      <trkpt lat="46.47536" lon="3.97063">
        <ele>231.8687</ele>
        <time>2021-09-11T08:01:25.000Z</time>
      </trkpt>
      <trkpt lat="46.47539" lon="3.9708">
        <ele>231.762021</ele>
        <time>2021-09-11T08:01:27.000Z</time>
      </trkpt>
      <trkpt lat="46.47551" lon="3.97142">
        <ele>231.375553</ele>
        <time>2021-09-11T08:01:34.000Z</time>
      </trkpt>
      <trkpt lat="46.47563" lon="3.97202">
        <ele>231.005412</ele>
        <time>2021-09-11T08:01:41.000Z</time>
      </trkpt>
      <trkpt lat="46.47574" lon="3.9726">
        <ele>230.902111</ele>
        <time>2021-09-11T08:01:48.000Z</time>
      </trkpt>
      <trkpt lat="46.47573" lon="3.97276">
        <ele>230.880871</ele>
        <time>2021-09-11T08:01:50.000Z</time>
      </trkpt>
      <trkpt lat="46.47572" lon="3.97292">
        <ele>230.858776</ele>
        <time>2021-09-11T08:01:52.000Z</time>
      </trkpt>
      <trkpt lat="46.47569" lon="3.97308">
        <ele>230.83769</ele>
        <time>2021-09-11T08:01:54.000Z</time>
      </trkpt>
      <trkpt lat="46.47561" lon="3.97316">
        <ele>230.8188</ele>
        <time>2021-09-11T08:01:56.000Z</time>
      </trkpt>
      <trkpt lat="46.47544" lon="3.97332">
        <ele>230.780498</ele>
        <time>2021-09-11T08:02:00.000Z</time>
      </trkpt>
      <trkpt lat="46.47536" lon="3.97339">
        <ele>230.762463</ele>
        <time>2021-09-11T08:02:02.000Z</time>
      </trkpt>
      <trkpt lat="46.47532" lon="3.97343">
        <ele>230.753489</ele>
        <time>2021-09-11T08:02:03.000Z</time>
      </trkpt>
      <trkpt lat="46.47524" lon="3.97351">
        <ele>230.735454</ele>
        <time>2021-09-11T08:02:05.000Z</time>
      </trkpt>
      <trkpt lat="46.47518" lon="3.9736">
        <ele>230.717604</ele>
        <time>2021-09-11T08:02:07.000Z</time>
      </trkpt>
      <trkpt lat="46.47515" lon="3.97366">
        <ele>230.70785</ele>
        <time>2021-09-11T08:02:08.000Z</time>
      </trkpt>
      <trkpt lat="46.47513" lon="3.97372">
        <ele>230.699079</ele>
        <time>2021-09-11T08:02:09.000Z</time>
      </trkpt>
      <trkpt lat="46.47512" lon="3.97393">
        <ele>230.671234</ele>
        <time>2021-09-11T08:02:12.000Z</time>
      </trkpt>
      <trkpt lat="46.47509" lon="3.97441">
        <ele>230.653729</ele>
        <time>2021-09-11T08:02:18.000Z</time>
      </trkpt>
      <trkpt lat="46.47509" lon="3.97456">
        <ele>230.676881</ele>
        <time>2021-09-11T08:02:20.000Z</time>
      </trkpt>
      <trkpt lat="46.47506" lon="3.97483">
        <ele>230.715237</ele>
        <time>2021-09-11T08:02:23.000Z</time>
      </trkpt>
      <trkpt lat="46.47499" lon="3.97528">
        <ele>230.782615</ele>
        <time>2021-09-11T08:02:28.000Z</time>
      </trkpt>
      <trkpt lat="46.4749" lon="3.97583">
        <ele>230.86457</ele>
        <time>2021-09-11T08:02:34.000Z</time>
      </trkpt>
      <trkpt lat="46.47485" lon="3.9761">
        <ele>230.90595</ele>
        <time>2021-09-11T08:02:37.000Z</time>
      </trkpt>
      <trkpt lat="46.47477" lon="3.97635">
        <ele>230.946478</ele>
        <time>2021-09-11T08:02:40.000Z</time>
      </trkpt>
      <trkpt lat="46.47458" lon="3.97672">
        <ele>231.017613</ele>
        <time>2021-09-11T08:02:45.000Z</time>
      </trkpt>
      <trkpt lat="46.47438" lon="3.97711">
        <ele>231.245219</ele>
        <time>2021-09-11T08:02:51.000Z</time>
      </trkpt>
      <trkpt lat="46.4743" lon="3.97729">
        <ele>231.342168</ele>
        <time>2021-09-11T08:02:54.000Z</time>
      </trkpt>
      <trkpt lat="46.47424" lon="3.97746">
        <ele>231.427737</ele>
        <time>2021-09-11T08:02:57.000Z</time>
      </trkpt>
      <trkpt lat="46.47418" lon="3.97762">
        <ele>231.51404</ele>
        <time>2021-09-11T08:03:00.000Z</time>
      </trkpt>
      <trkpt lat="46.47411" lon="3.97778">
        <ele>231.600008</ele>
        <time>2021-09-11T08:03:03.000Z</time>
      </trkpt>
      <trkpt lat="46.47407" lon="3.97788">
        <ele>231.652842</ele>
        <time>2021-09-11T08:03:05.000Z</time>
      </trkpt>
      <trkpt lat="46.47405" lon="3.978">
        <ele>231.710552</ele>
        <time>2021-09-11T08:03:07.000Z</time>
      </trkpt>
      <trkpt lat="46.47405" lon="3.97806">
        <ele>231.73725</ele>
        <time>2021-09-11T08:03:08.000Z</time>
      </trkpt>
      <trkpt lat="46.47406" lon="3.97814">
        <ele>231.776381</ele>
        <time>2021-09-11T08:03:09.000Z</time>
      </trkpt>
      <trkpt lat="46.47411" lon="3.97823">
        <ele>231.830292</ele>
        <time>2021-09-11T08:03:11.000Z</time>
      </trkpt>
      <trkpt lat="46.47414" lon="3.97827">
        <ele>231.859749</ele>
        <time>2021-09-11T08:03:12.000Z</time>
      </trkpt>
      <trkpt lat="46.47435" lon="3.97843">
        <ele>232.019496</ele>
        <time>2021-09-11T08:03:18.000Z</time>
      </trkpt>
      <trkpt lat="46.47473" lon="3.9787">
        <ele>232.428816</ele>
        <time>2021-09-11T08:03:29.000Z</time>
      </trkpt>
      <trkpt lat="46.47494" lon="3.97884">
        <ele>232.833254</ele>
        <time>2021-09-11T08:03:36.000Z</time>
      </trkpt>
      <trkpt lat="46.47499" lon="3.97897">
        <ele>233.008869</ele>
        <time>2021-09-11T08:03:40.000Z</time>
      </trkpt>
      <trkpt lat="46.47501" lon="3.97899">
        <ele>233.036975</ele>
        <time>2021-09-11T08:03:41.000Z</time>
      </trkpt>
      <trkpt lat="46.47503" lon="3.97901">
        <ele>233.087336</ele>
        <time>2021-09-11T08:03:43.000Z</time>
      </trkpt>
      <trkpt lat="46.47506" lon="3.97903">
        <ele>233.135099</ele>
        <time>2021-09-11T08:03:44.000Z</time>
      </trkpt>
      <trkpt lat="46.47524" lon="3.97916">
        <ele>233.474875</ele>
        <time>2021-09-11T08:03:50.000Z</time>
      </trkpt>
      <trkpt lat="46.47547" lon="3.97926">
        <ele>233.882438</ele>
        <time>2021-09-11T08:03:56.000Z</time>
      </trkpt>
      <trkpt lat="46.4757" lon="3.97941">
        <ele>234.31541</ele>
        <time>2021-09-11T08:04:02.000Z</time>
      </trkpt>
      <trkpt lat="46.47581" lon="3.97948">
        <ele>234.507529</ele>
        <time>2021-09-11T08:04:05.000Z</time>
      </trkpt>
      <trkpt lat="46.47612" lon="3.9797">
        <ele>235.098229</ele>
        <time>2021-09-11T08:04:13.000Z</time>
      </trkpt>
      <trkpt lat="46.47621" lon="3.97978">
        <ele>235.262852</ele>
        <time>2021-09-11T08:04:16.000Z</time>
      </trkpt>
      <trkpt lat="46.47623" lon="3.9798">
        <ele>235.282259</ele>
        <time>2021-09-11T08:04:17.000Z</time>
      </trkpt>
      <trkpt lat="46.47625" lon="3.97982">
        <ele>235.299526</ele>
        <time>2021-09-11T08:04:18.000Z</time>
      </trkpt>
      <trkpt lat="46.47627" lon="3.97984">
        <ele>235.319234</ele>
        <time>2021-09-11T08:04:20.000Z</time>
      </trkpt>
      <trkpt lat="46.47628" lon="3.97985">
        <ele>235.334309</ele>
        <time>2021-09-11T08:04:23.000Z</time>
      </trkpt>
      <trkpt lat="46.4763" lon="3.97986">
        <ele>235.350079</ele>
        <time>2021-09-11T08:04:24.000Z</time>
      </trkpt>
      <trkpt lat="46.47644" lon="3.97995">
        <ele>235.466609</ele>
        <time>2021-09-11T08:04:30.000Z</time>
      </trkpt>
      <trkpt lat="46.47667" lon="3.9801">
        <ele>235.653485</ele>
        <time>2021-09-11T08:04:37.000Z</time>
      </trkpt>
      <trkpt lat="46.47694" lon="3.98028">
        <ele>235.884459</ele>
        <time>2021-09-11T08:04:45.000Z</time>
      </trkpt>
      <trkpt lat="46.47715" lon="3.98041">
        <ele>236.056047</ele>
        <time>2021-09-11T08:04:52.000Z</time>
      </trkpt>
      <trkpt lat="46.47739" lon="3.98057">
        <ele>236.256178</ele>
        <time>2021-09-11T08:04:59.000Z</time>
      </trkpt>
      <trkpt lat="46.47767" lon="3.98075">
        <ele>236.489451</ele>
        <time>2021-09-11T08:05:07.000Z</time>
      </trkpt>
      <trkpt lat="46.4779" lon="3.9809">
        <ele>236.660683</ele>
        <time>2021-09-11T08:05:14.000Z</time>
      </trkpt>
      <trkpt lat="46.47801" lon="3.98097">
        <ele>236.724278</ele>
        <time>2021-09-11T08:05:19.000Z</time>
      </trkpt>
      <trkpt lat="46.47805" lon="3.98097">
        <ele>236.740537</ele>
        <time>2021-09-11T08:05:21.000Z</time>
      </trkpt>
      <trkpt lat="46.47807" lon="3.98098">
        <ele>236.754217</ele>
        <time>2021-09-11T08:05:22.000Z</time>
      </trkpt>
      <trkpt lat="46.47819" lon="3.98104">
        <ele>236.817285</ele>
        <time>2021-09-11T08:05:26.000Z</time>
      </trkpt>
      <trkpt lat="46.47826" lon="3.9811">
        <ele>236.859602</ele>
        <time>2021-09-11T08:05:30.000Z</time>
      </trkpt>
      <trkpt lat="46.4784" lon="3.98119">
        <ele>236.93571</ele>
        <time>2021-09-11T08:05:36.000Z</time>
      </trkpt>
      <trkpt lat="46.47854" lon="3.98124">
        <ele>237.010183</ele>
        <time>2021-09-11T08:05:40.000Z</time>
      </trkpt>
      <trkpt lat="46.47858" lon="3.98127">
        <ele>237.031117</ele>
        <time>2021-09-11T08:05:41.000Z</time>
      </trkpt>
      <trkpt lat="46.47889" lon="3.98146">
        <ele>237.200075</ele>
        <time>2021-09-11T08:05:48.000Z</time>
      </trkpt>
      <trkpt lat="46.47917" lon="3.98165">
        <ele>237.357963</ele>
        <time>2021-09-11T08:05:54.000Z</time>
      </trkpt>
      <trkpt lat="46.47943" lon="3.98181">
        <ele>237.502652</ele>
        <time>2021-09-11T08:06:00.000Z</time>
      </trkpt>
      <trkpt lat="46.47952" lon="3.98187">
        <ele>237.549602</ele>
        <time>2021-09-11T08:06:02.000Z</time>
      </trkpt>
      <trkpt lat="46.47965" lon="3.98196">
        <ele>237.624739</ele>
        <time>2021-09-11T08:06:05.000Z</time>
      </trkpt>
      <trkpt lat="46.4797" lon="3.98198">
        <ele>237.647598</ele>
        <time>2021-09-11T08:06:06.000Z</time>
      </trkpt>
      <trkpt lat="46.47988" lon="3.98214">
        <ele>237.757369</ele>
        <time>2021-09-11T08:06:11.000Z</time>
      </trkpt>
      <trkpt lat="46.47993" lon="3.98216">
        <ele>237.784485</ele>
        <time>2021-09-11T08:06:12.000Z</time>
      </trkpt>
      <trkpt lat="46.48012" lon="3.98225">
        <ele>237.88339</ele>
        <time>2021-09-11T08:06:16.000Z</time>
      </trkpt>
      <trkpt lat="46.48019" lon="3.9823">
        <ele>237.923156</ele>
        <time>2021-09-11T08:06:18.000Z</time>
      </trkpt>
      <trkpt lat="46.48023" lon="3.98233">
        <ele>237.945118</ele>
        <time>2021-09-11T08:06:19.000Z</time>
      </trkpt>
      <trkpt lat="46.48033" lon="3.98246">
        <ele>238.015294</ele>
        <time>2021-09-11T08:06:22.000Z</time>
      </trkpt>
      <trkpt lat="46.48036" lon="3.98252">
        <ele>238.040538</ele>
        <time>2021-09-11T08:06:23.000Z</time>
      </trkpt>
      <trkpt lat="46.48049" lon="3.98278">
        <ele>238.152921</ele>
        <time>2021-09-11T08:06:27.000Z</time>
      </trkpt>
      <trkpt lat="46.48078" lon="3.98336">
        <ele>238.403479</ele>
        <time>2021-09-11T08:06:35.000Z</time>
      </trkpt>
      <trkpt lat="46.48106" lon="3.98394">
        <ele>238.508535</ele>
        <time>2021-09-11T08:06:43.000Z</time>
      </trkpt>
      <trkpt lat="46.48134" lon="3.98451">
        <ele>238.58354</ele>
        <time>2021-09-11T08:06:51.000Z</time>
      </trkpt>
      <trkpt lat="46.48163" lon="3.9851">
        <ele>238.659068</ele>
        <time>2021-09-11T08:06:59.000Z</time>
      </trkpt>
      <trkpt lat="46.48173" lon="3.98531">
        <ele>238.687153</ele>
        <time>2021-09-11T08:07:02.000Z</time>
      </trkpt>
      <trkpt lat="46.48184" lon="3.98554">
        <ele>238.716281</ele>
        <time>2021-09-11T08:07:05.000Z</time>
      </trkpt>
      <trkpt lat="46.48204" lon="3.98594">
        <ele>238.650281</ele>
        <time>2021-09-11T08:07:11.000Z</time>
      </trkpt>
      <trkpt lat="46.48226" lon="3.98638">
        <ele>238.557518</ele>
        <time>2021-09-11T08:07:17.000Z</time>
      </trkpt>
      <trkpt lat="46.48246" lon="3.98679">
        <ele>238.471413</ele>
        <time>2021-09-11T08:07:23.000Z</time>
      </trkpt>
      <trkpt lat="46.48248" lon="3.98695">
        <ele>238.443364</ele>
        <time>2021-09-11T08:07:25.000Z</time>
      </trkpt>
      <trkpt lat="46.48249" lon="3.98703">
        <ele>238.42959</ele>
        <time>2021-09-11T08:07:26.000Z</time>
      </trkpt>
      <trkpt lat="46.48251" lon="3.98715">
        <ele>238.407541</ele>
        <time>2021-09-11T08:07:28.000Z</time>
      </trkpt>
      <trkpt lat="46.48254" lon="3.98722">
        <ele>238.392956</ele>
        <time>2021-09-11T08:07:29.000Z</time>
      </trkpt>
      <trkpt lat="46.48258" lon="3.98727">
        <ele>238.380454</ele>
        <time>2021-09-11T08:07:30.000Z</time>
      </trkpt>
      <trkpt lat="46.48263" lon="3.9873">
        <ele>238.366404</ele>
        <time>2021-09-11T08:07:31.000Z</time>
      </trkpt>
      <trkpt lat="46.48269" lon="3.98726">
        <ele>238.352303</ele>
        <time>2021-09-11T08:07:32.000Z</time>
      </trkpt>
      <trkpt lat="46.48277" lon="3.98718">
        <ele>238.326289</ele>
        <time>2021-09-11T08:07:34.000Z</time>
      </trkpt>
      <trkpt lat="46.48282" lon="3.98716">
        <ele>238.314956</ele>
        <time>2021-09-11T08:07:35.000Z</time>
      </trkpt>
      <trkpt lat="46.48287" lon="3.98716">
        <ele>238.302472</ele>
        <time>2021-09-11T08:07:37.000Z</time>
      </trkpt>
      <trkpt lat="46.48292" lon="3.98719">
        <ele>238.288074</ele>
        <time>2021-09-11T08:07:44.000Z</time>
      </trkpt>
      <trkpt lat="46.48301" lon="3.98712">
        <ele>238.259861</ele>
        <time>2021-09-11T08:07:46.000Z</time>
      </trkpt>
      <trkpt lat="46.483" lon="3.98711">
        <ele>238.257423</ele>
        <time>2021-09-11T08:07:48.000Z</time>
      </trkpt>
      <trkpt lat="46.48287" lon="3.98716">
        <ele>238.213904</ele>
        <time>2021-09-11T08:07:52.000Z</time>
      </trkpt>
      <trkpt lat="46.4829" lon="3.9871">
        <ele>238.197751</ele>
        <time>2021-09-11T08:07:54.000Z</time>
      </trkpt>
      <trkpt lat="46.48289" lon="3.98713">
        <ele>238.191286</ele>
        <time>2021-09-11T08:07:56.000Z</time>
      </trkpt>
      <trkpt lat="46.48291" lon="3.98724">
        <ele>238.166441</ele>
        <time>2021-09-11T08:08:00.000Z</time>
      </trkpt>
      <trkpt lat="46.48297" lon="3.98735">
        <ele>238.138129</ele>
        <time>2021-09-11T08:08:04.000Z</time>
      </trkpt>
      <trkpt lat="46.48307" lon="3.98757">
        <ele>238.082035</ele>
        <time>2021-09-11T08:08:10.000Z</time>
      </trkpt>
      <trkpt lat="46.48321" lon="3.98783">
        <ele>238.012443</ele>
        <time>2021-09-11T08:08:17.000Z</time>
      </trkpt>
      <trkpt lat="46.48318" lon="3.98803">
        <ele>237.970586</ele>
        <time>2021-09-11T08:08:20.000Z</time>
      </trkpt>
      <trkpt lat="46.48316" lon="3.98806">
        <ele>237.961533</ele>
        <time>2021-09-11T08:08:22.000Z</time>
      </trkpt>
      <trkpt lat="46.48313" lon="3.98818">
        <ele>237.935216</ele>
        <time>2021-09-11T08:08:24.000Z</time>
      </trkpt>
      <trkpt lat="46.48318" lon="3.98833">
        <ele>237.901613</ele>
        <time>2021-09-11T08:08:27.000Z</time>
      </trkpt>
      <trkpt lat="46.4832" lon="3.98838">
        <ele>237.888067</ele>
        <time>2021-09-11T08:08:28.000Z</time>
      </trkpt>
      <trkpt lat="46.48323" lon="3.98844">
        <ele>237.873298</ele>
        <time>2021-09-11T08:08:29.000Z</time>
      </trkpt>
      <trkpt lat="46.48331" lon="3.98861">
        <ele>237.828838</ele>
        <time>2021-09-11T08:08:32.000Z</time>
      </trkpt>
      <trkpt lat="46.48333" lon="3.98867">
        <ele>237.815286</ele>
        <time>2021-09-11T08:08:33.000Z</time>
      </trkpt>
      <trkpt lat="46.48339" lon="3.98878">
        <ele>237.786804</ele>
        <time>2021-09-11T08:08:35.000Z</time>
      </trkpt>
      <trkpt lat="46.48347" lon="3.98896">
        <ele>237.741297</ele>
        <time>2021-09-11T08:08:38.000Z</time>
      </trkpt>
      <trkpt lat="46.48359" lon="3.98938">
        <ele>237.717184</ele>
        <time>2021-09-11T08:08:44.000Z</time>
      </trkpt>
      <trkpt lat="46.4836" lon="3.98945">
        <ele>237.715808</ele>
        <time>2021-09-11T08:08:45.000Z</time>
      </trkpt>
      <trkpt lat="46.4837" lon="3.98995">
        <ele>237.706487</ele>
        <time>2021-09-11T08:08:52.000Z</time>
      </trkpt>
      <trkpt lat="46.48379" lon="3.99046">
        <ele>237.696868</ele>
        <time>2021-09-11T08:08:59.000Z</time>
      </trkpt>
      <trkpt lat="46.48382" lon="3.9906">
        <ele>237.694277</ele>
        <time>2021-09-11T08:09:01.000Z</time>
      </trkpt>
      <trkpt lat="46.48385" lon="3.99075">
        <ele>237.6913</ele>
        <time>2021-09-11T08:09:03.000Z</time>
      </trkpt>
      <trkpt lat="46.48398" lon="3.99143">
        <ele>237.678571</ele>
        <time>2021-09-11T08:09:11.000Z</time>
      </trkpt>
      <trkpt lat="46.48419" lon="3.99197">
        <ele>237.584417</ele>
        <time>2021-09-11T08:09:18.000Z</time>
      </trkpt>
      <trkpt lat="46.48444" lon="3.99245">
        <ele>237.471947</ele>
        <time>2021-09-11T08:09:25.000Z</time>
      </trkpt>
      <trkpt lat="46.48479" lon="3.99298">
        <ele>237.33871</ele>
        <time>2021-09-11T08:09:33.000Z</time>
      </trkpt>
      <trkpt lat="46.485" lon="3.99335">
        <ele>237.248446</ele>
        <time>2021-09-11T08:09:39.000Z</time>
      </trkpt>
      <trkpt lat="46.48518" lon="3.9938">
        <ele>237.184953</ele>
        <time>2021-09-11T08:09:45.000Z</time>
      </trkpt>
      <trkpt lat="46.48531" lon="3.99426">
        <ele>237.161561</ele>
        <time>2021-09-11T08:09:51.000Z</time>
      </trkpt>
      <trkpt lat="46.48537" lon="3.99472">
        <ele>237.139572</ele>
        <time>2021-09-11T08:09:57.000Z</time>
      </trkpt>
      <trkpt lat="46.48538" lon="3.99521">
        <ele>237.116364</ele>
        <time>2021-09-11T08:10:04.000Z</time>
      </trkpt>
      <trkpt lat="46.48537" lon="3.99568">
        <ele>237.094345</ele>
        <time>2021-09-11T08:10:11.000Z</time>
      </trkpt>
      <trkpt lat="46.48537" lon="3.99601">
        <ele>237.078549</ele>
        <time>2021-09-11T08:10:16.000Z</time>
      </trkpt>
      <trkpt lat="46.48536" lon="3.99616">
        <ele>237.076953</ele>
        <time>2021-09-11T08:10:18.000Z</time>
      </trkpt>
      <trkpt lat="46.48536" lon="3.99638">
        <ele>237.121811</ele>
        <time>2021-09-11T08:10:21.000Z</time>
      </trkpt>
      <trkpt lat="46.48536" lon="3.99661">
        <ele>237.168264</ele>
        <time>2021-09-11T08:10:24.000Z</time>
      </trkpt>
      <trkpt lat="46.48538" lon="3.99717">
        <ele>237.279014</ele>
        <time>2021-09-11T08:10:31.000Z</time>
      </trkpt>
      <trkpt lat="46.48544" lon="3.99761">
        <ele>237.368975</ele>
        <time>2021-09-11T08:10:37.000Z</time>
      </trkpt>
      <trkpt lat="46.48547" lon="3.99775">
        <ele>237.398335</ele>
        <time>2021-09-11T08:10:39.000Z</time>
      </trkpt>
      <trkpt lat="46.48553" lon="3.99802">
        <ele>237.454402</ele>
        <time>2021-09-11T08:10:43.000Z</time>
      </trkpt>
      <trkpt lat="46.48556" lon="3.99815">
        <ele>237.482766</ele>
        <time>2021-09-11T08:10:46.000Z</time>
      </trkpt>
      <trkpt lat="46.48563" lon="3.99836">
        <ele>237.527391</ele>
        <time>2021-09-11T08:10:50.000Z</time>
      </trkpt>
      <trkpt lat="46.4857" lon="3.99854">
        <ele>237.569494</ele>
        <time>2021-09-11T08:10:54.000Z</time>
      </trkpt>
      <trkpt lat="46.48573" lon="3.9986">
        <ele>237.582963</ele>
        <time>2021-09-11T08:10:55.000Z</time>
      </trkpt>
      <trkpt lat="46.4858" lon="3.99871">
        <ele>237.613974</ele>
        <time>2021-09-11T08:10:57.000Z</time>
      </trkpt>
      <trkpt lat="46.48585" lon="3.99879">
        <ele>237.634326</ele>
        <time>2021-09-11T08:10:58.000Z</time>
      </trkpt>
      <trkpt lat="46.486" lon="3.99907">
        <ele>237.702795</ele>
        <time>2021-09-11T08:11:02.000Z</time>
      </trkpt>
      <trkpt lat="46.48625" lon="3.99957">
        <ele>237.819948</ele>
        <time>2021-09-11T08:11:09.000Z</time>
      </trkpt>
      <trkpt lat="46.48657" lon="4.00028">
        <ele>237.982693</ele>
        <time>2021-09-11T08:11:18.000Z</time>
      </trkpt>
      <trkpt lat="46.48687" lon="4.00094">
        <ele>238.070839</ele>
        <time>2021-09-11T08:11:26.000Z</time>
      </trkpt>
      <trkpt lat="46.48711" lon="4.00144">
        <ele>238.006099</ele>
        <time>2021-09-11T08:11:33.000Z</time>
      </trkpt>
      <trkpt lat="46.48735" lon="4.00197">
        <ele>237.938994</ele>
        <time>2021-09-11T08:11:40.000Z</time>
      </trkpt>
      <trkpt lat="46.48758" lon="4.00248">
        <ele>237.873721</ele>
        <time>2021-09-11T08:11:47.000Z</time>
      </trkpt>
      <trkpt lat="46.48775" lon="4.00286">
        <ele>237.825861</ele>
        <time>2021-09-11T08:11:52.000Z</time>
      </trkpt>
      <trkpt lat="46.48796" lon="4.00332">
        <ele>237.841485</ele>
        <time>2021-09-11T08:11:58.000Z</time>
      </trkpt>
      <trkpt lat="46.48802" lon="4.00347">
        <ele>237.851632</ele>
        <time>2021-09-11T08:12:00.000Z</time>
      </trkpt>
      <trkpt lat="46.4881" lon="4.00373">
        <ele>237.867192</ele>
        <time>2021-09-11T08:12:03.000Z</time>
      </trkpt>
      <trkpt lat="46.48822" lon="4.00425">
        <ele>237.898333</ele>
        <time>2021-09-11T08:12:09.000Z</time>
      </trkpt>
      <trkpt lat="46.48829" lon="4.0049">
        <ele>237.935091</ele>
        <time>2021-09-11T08:12:16.000Z</time>
      </trkpt>
      <trkpt lat="46.48828" lon="4.00555">
        <ele>237.957986</ele>
        <time>2021-09-11T08:12:23.000Z</time>
      </trkpt>
      <trkpt lat="46.48817" lon="4.00624">
        <ele>237.938864</ele>
        <time>2021-09-11T08:12:31.000Z</time>
      </trkpt>
      <trkpt lat="46.4881" lon="4.00649">
        <ele>237.931581</ele>
        <time>2021-09-11T08:12:34.000Z</time>
      </trkpt>
      <trkpt lat="46.48806" lon="4.00659">
        <ele>237.928477</ele>
        <time>2021-09-11T08:12:36.000Z</time>
      </trkpt>
      <trkpt lat="46.48805" lon="4.00672">
        <ele>237.924991</ele>
        <time>2021-09-11T08:12:37.000Z</time>
      </trkpt>
      <trkpt lat="46.48805" lon="4.00679">
        <ele>237.923001</ele>
        <time>2021-09-11T08:12:38.000Z</time>
      </trkpt>
      <trkpt lat="46.48804" lon="4.00697">
        <ele>237.918077</ele>
        <time>2021-09-11T08:12:40.000Z</time>
      </trkpt>
      <trkpt lat="46.48802" lon="4.00715">
        <ele>237.913166</ele>
        <time>2021-09-11T08:12:42.000Z</time>
      </trkpt>
      <trkpt lat="46.48792" lon="4.00778">
        <ele>237.895992</ele>
        <time>2021-09-11T08:12:49.000Z</time>
      </trkpt>
      <trkpt lat="46.4878" lon="4.0086">
        <ele>237.946573</ele>
        <time>2021-09-11T08:12:58.000Z</time>
      </trkpt>
      <trkpt lat="46.48778" lon="4.00869">
        <ele>237.953832</ele>
        <time>2021-09-11T08:12:59.000Z</time>
      </trkpt>
      <trkpt lat="46.48774" lon="4.00896">
        <ele>237.975866</ele>
        <time>2021-09-11T08:13:02.000Z</time>
      </trkpt>
      <trkpt lat="46.48766" lon="4.00951">
        <ele>238.020018</ele>
        <time>2021-09-11T08:13:08.000Z</time>
      </trkpt>
      <trkpt lat="46.48765" lon="4.0096">
        <ele>238.027122</ele>
        <time>2021-09-11T08:13:09.000Z</time>
      </trkpt>
      <trkpt lat="46.48766" lon="4.01016">
        <ele>238.071352</ele>
        <time>2021-09-11T08:13:15.000Z</time>
      </trkpt>
      <trkpt lat="46.48777" lon="4.01078">
        <ele>237.839099</ele>
        <time>2021-09-11T08:13:22.000Z</time>
      </trkpt>
      <trkpt lat="46.48791" lon="4.01137">
        <ele>237.31813</ele>
        <time>2021-09-11T08:13:29.000Z</time>
      </trkpt>
      <trkpt lat="46.48805" lon="4.01195">
        <ele>236.801536</ele>
        <time>2021-09-11T08:13:36.000Z</time>
      </trkpt>
      <trkpt lat="46.48815" lon="4.01236">
        <ele>236.432088</ele>
        <time>2021-09-11T08:13:41.000Z</time>
      </trkpt>
      <trkpt lat="46.48817" lon="4.01245">
        <ele>236.358118</ele>
        <time>2021-09-11T08:13:42.000Z</time>
      </trkpt>
      <trkpt lat="46.4882" lon="4.01272">
        <ele>236.126406</ele>
        <time>2021-09-11T08:13:45.000Z</time>
      </trkpt>
      <trkpt lat="46.48822" lon="4.01308">
        <ele>235.878087</ele>
        <time>2021-09-11T08:13:49.000Z</time>
      </trkpt>
      <trkpt lat="46.48823" lon="4.01316">
        <ele>235.858314</ele>
        <time>2021-09-11T08:13:50.000Z</time>
      </trkpt>
      <trkpt lat="46.48821" lon="4.0136">
        <ele>235.755689</ele>
        <time>2021-09-11T08:13:55.000Z</time>
      </trkpt>
      <trkpt lat="46.4882" lon="4.01379">
        <ele>235.713212</ele>
        <time>2021-09-11T08:13:57.000Z</time>
      </trkpt>
      <trkpt lat="46.48814" lon="4.01415">
        <ele>235.627026</ele>
        <time>2021-09-11T08:14:01.000Z</time>
      </trkpt>
      <trkpt lat="46.4881" lon="4.01432">
        <ele>235.584147</ele>
        <time>2021-09-11T08:14:03.000Z</time>
      </trkpt>
      <trkpt lat="46.48802" lon="4.01457">
        <ele>235.520319</ele>
        <time>2021-09-11T08:14:06.000Z</time>
      </trkpt>
      <trkpt lat="46.48797" lon="4.01474">
        <ele>235.478551</ele>
        <time>2021-09-11T08:14:08.000Z</time>
      </trkpt>
      <trkpt lat="46.48783" lon="4.01513">
        <ele>235.374124</ele>
        <time>2021-09-11T08:14:13.000Z</time>
      </trkpt>
      <trkpt lat="46.4877" lon="4.01552">
        <ele>235.31803</ele>
        <time>2021-09-11T08:14:18.000Z</time>
      </trkpt>
      <trkpt lat="46.48767" lon="4.0156">
        <ele>235.343243</ele>
        <time>2021-09-11T08:14:19.000Z</time>
      </trkpt>
      <trkpt lat="46.48766" lon="4.01577">
        <ele>235.394071</ele>
        <time>2021-09-11T08:14:21.000Z</time>
      </trkpt>
      <trkpt lat="46.4877" lon="4.01584">
        <ele>235.419009</ele>
        <time>2021-09-11T08:14:22.000Z</time>
      </trkpt>
      <trkpt lat="46.48774" lon="4.01595">
        <ele>235.45539</ele>
        <time>2021-09-11T08:14:24.000Z</time>
      </trkpt>
      <trkpt lat="46.48773" lon="4.01598">
        <ele>235.466469</ele>
        <time>2021-09-11T08:14:25.000Z</time>
      </trkpt>
      <trkpt lat="46.4877" lon="4.0161">
        <ele>235.503916</ele>
        <time>2021-09-11T08:14:28.000Z</time>
      </trkpt>
      <trkpt lat="46.48766" lon="4.01612">
        <ele>235.519027</ele>
        <time>2021-09-11T08:14:29.000Z</time>
      </trkpt>
      <trkpt lat="46.48762" lon="4.01613">
        <ele>235.537249</ele>
        <time>2021-09-11T08:14:30.000Z</time>
      </trkpt>
      <trkpt lat="46.48753" lon="4.01615">
        <ele>235.575329</ele>
        <time>2021-09-11T08:14:32.000Z</time>
      </trkpt>
      <trkpt lat="46.48749" lon="4.01618">
        <ele>235.598049</ele>
        <time>2021-09-11T08:14:33.000Z</time>
      </trkpt>
      <trkpt lat="46.48745" lon="4.01624">
        <ele>235.62226</ele>
        <time>2021-09-11T08:14:34.000Z</time>
      </trkpt>
      <trkpt lat="46.48739" lon="4.01637">
        <ele>235.669668</ele>
        <time>2021-09-11T08:14:36.000Z</time>
      </trkpt>
      <trkpt lat="46.48725" lon="4.01689">
        <ele>235.833985</ele>
        <time>2021-09-11T08:14:43.000Z</time>
      </trkpt>
      <trkpt lat="46.48717" lon="4.01754">
        <ele>236.028246</ele>
        <time>2021-09-11T08:14:51.000Z</time>
      </trkpt>
      <trkpt lat="46.48711" lon="4.01829">
        <ele>236.359905</ele>
        <time>2021-09-11T08:15:00.000Z</time>
      </trkpt>
      <trkpt lat="46.48709" lon="4.01853">
        <ele>236.476645</ele>
        <time>2021-09-11T08:15:03.000Z</time>
      </trkpt>
      <trkpt lat="46.48707" lon="4.0187">
        <ele>236.555093</ele>
        <time>2021-09-11T08:15:05.000Z</time>
      </trkpt>
      <trkpt lat="46.48706" lon="4.01886">
        <ele>236.633075</ele>
        <time>2021-09-11T08:15:07.000Z</time>
      </trkpt>
      <trkpt lat="46.48704" lon="4.01911">
        <ele>236.747953</ele>
        <time>2021-09-11T08:15:10.000Z</time>
      </trkpt>
      <trkpt lat="46.487" lon="4.01961">
        <ele>236.987103</ele>
        <time>2021-09-11T08:15:16.000Z</time>
      </trkpt>
      <trkpt lat="46.487" lon="4.0197">
        <ele>237.028583</ele>
        <time>2021-09-11T08:15:17.000Z</time>
      </trkpt>
      <trkpt lat="46.48699" lon="4.01979">
        <ele>237.06913</ele>
        <time>2021-09-11T08:15:18.000Z</time>
      </trkpt>
      <trkpt lat="46.48698" lon="4.02014">
        <ele>237.233543</ele>
        <time>2021-09-11T08:15:22.000Z</time>
      </trkpt>
      <trkpt lat="46.48699" lon="4.02057">
        <ele>237.231915</ele>
        <time>2021-09-11T08:15:27.000Z</time>
      </trkpt>
      <trkpt lat="46.48701" lon="4.02065">
        <ele>237.215837</ele>
        <time>2021-09-11T08:15:28.000Z</time>
      </trkpt>
      <trkpt lat="46.48712" lon="4.02116">
        <ele>237.112862</ele>
        <time>2021-09-11T08:15:34.000Z</time>
      </trkpt>
      <trkpt lat="46.48728" lon="4.02174">
        <ele>236.989927</ele>
        <time>2021-09-11T08:15:41.000Z</time>
      </trkpt>
      <trkpt lat="46.48744" lon="4.02232">
        <ele>236.870292</ele>
        <time>2021-09-11T08:15:48.000Z</time>
      </trkpt>
      <trkpt lat="46.48752" lon="4.02271">
        <ele>236.791337</ele>
        <time>2021-09-11T08:15:53.000Z</time>
      </trkpt>
      <trkpt lat="46.48752" lon="4.02278">
        <ele>236.730829</ele>
        <time>2021-09-11T08:15:54.000Z</time>
      </trkpt>
      <trkpt lat="46.48755" lon="4.02312">
        <ele>236.326616</ele>
        <time>2021-09-11T08:15:58.000Z</time>
      </trkpt>
      <trkpt lat="46.48756" lon="4.0232">
        <ele>236.222063</ele>
        <time>2021-09-11T08:15:59.000Z</time>
      </trkpt>
      <trkpt lat="46.48757" lon="4.02337">
        <ele>236.012802</ele>
        <time>2021-09-11T08:16:01.000Z</time>
      </trkpt>
      <trkpt lat="46.48759" lon="4.02373">
        <ele>235.58101</ele>
        <time>2021-09-11T08:16:05.000Z</time>
      </trkpt>
      <trkpt lat="46.4876" lon="4.02389">
        <ele>235.389835</ele>
        <time>2021-09-11T08:16:07.000Z</time>
      </trkpt>
      <trkpt lat="46.48763" lon="4.02415">
        <ele>235.063168</ele>
        <time>2021-09-11T08:16:10.000Z</time>
      </trkpt>
      <trkpt lat="46.48765" lon="4.02432">
        <ele>234.851553</ele>
        <time>2021-09-11T08:16:12.000Z</time>
      </trkpt>
      <trkpt lat="46.48769" lon="4.02457">
        <ele>234.538961</ele>
        <time>2021-09-11T08:16:15.000Z</time>
      </trkpt>
      <trkpt lat="46.48772" lon="4.02474">
        <ele>234.333841</ele>
        <time>2021-09-11T08:16:17.000Z</time>
      </trkpt>
      <trkpt lat="46.48775" lon="4.02489">
        <ele>234.140888</ele>
        <time>2021-09-11T08:16:19.000Z</time>
      </trkpt>
      <trkpt lat="46.48777" lon="4.02501">
        <ele>233.995588</ele>
        <time>2021-09-11T08:16:21.000Z</time>
      </trkpt>
      <trkpt lat="46.48779" lon="4.02509">
        <ele>233.895593</ele>
        <time>2021-09-11T08:16:22.000Z</time>
      </trkpt>
      <trkpt lat="46.4879" lon="4.02589">
        <ele>233.398039</ele>
        <time>2021-09-11T08:16:30.000Z</time>
      </trkpt>
      <trkpt lat="46.48797" lon="4.02662">
        <ele>233.119186</ele>
        <time>2021-09-11T08:16:38.000Z</time>
      </trkpt>
      <trkpt lat="46.48799" lon="4.02679">
        <ele>233.057994</ele>
        <time>2021-09-11T08:16:40.000Z</time>
      </trkpt>
      <trkpt lat="46.48801" lon="4.02695">
        <ele>232.995316</ele>
        <time>2021-09-11T08:16:42.000Z</time>
      </trkpt>
      <trkpt lat="46.48807" lon="4.02758">
        <ele>232.755911</ele>
        <time>2021-09-11T08:16:49.000Z</time>
      </trkpt>
      <trkpt lat="46.48811" lon="4.02793">
        <ele>232.638237</ele>
        <time>2021-09-11T08:16:53.000Z</time>
      </trkpt>
      <trkpt lat="46.48812" lon="4.02801">
        <ele>232.637118</ele>
        <time>2021-09-11T08:16:54.000Z</time>
      </trkpt>
      <trkpt lat="46.48813" lon="4.02818">
        <ele>232.634903</ele>
        <time>2021-09-11T08:16:56.000Z</time>
      </trkpt>
      <trkpt lat="46.48814" lon="4.02826">
        <ele>232.63382</ele>
        <time>2021-09-11T08:16:57.000Z</time>
      </trkpt>
      <trkpt lat="46.48814" lon="4.02845">
        <ele>232.631294</ele>
        <time>2021-09-11T08:16:59.000Z</time>
      </trkpt>
      <trkpt lat="46.48814" lon="4.02863">
        <ele>232.628912</ele>
        <time>2021-09-11T08:17:01.000Z</time>
      </trkpt>
      <trkpt lat="46.48814" lon="4.02872">
        <ele>232.627753</ele>
        <time>2021-09-11T08:17:02.000Z</time>
      </trkpt>
      <trkpt lat="46.4881" lon="4.02918">
        <ele>232.621722</ele>
        <time>2021-09-11T08:17:07.000Z</time>
      </trkpt>
      <trkpt lat="46.48809" lon="4.02926">
        <ele>232.620577</ele>
        <time>2021-09-11T08:17:08.000Z</time>
      </trkpt>
      <trkpt lat="46.48804" lon="4.02971">
        <ele>232.614606</ele>
        <time>2021-09-11T08:17:13.000Z</time>
      </trkpt>
      <trkpt lat="46.48803" lon="4.0298">
        <ele>232.613455</ele>
        <time>2021-09-11T08:17:14.000Z</time>
      </trkpt>
      <trkpt lat="46.48787" lon="4.03039">
        <ele>232.60512</ele>
        <time>2021-09-11T08:17:21.000Z</time>
      </trkpt>
      <trkpt lat="46.48763" lon="4.03082">
        <ele>233.009846</ele>
        <time>2021-09-11T08:17:27.000Z</time>
      </trkpt>
      <trkpt lat="46.48759" lon="4.03089">
        <ele>233.086444</ele>
        <time>2021-09-11T08:17:28.000Z</time>
      </trkpt>
      <trkpt lat="46.48737" lon="4.03131">
        <ele>233.527419</ele>
        <time>2021-09-11T08:17:34.000Z</time>
      </trkpt>
      <trkpt lat="46.48719" lon="4.03188">
        <ele>234.036825</ele>
        <time>2021-09-11T08:17:41.000Z</time>
      </trkpt>
      <trkpt lat="46.48717" lon="4.03196">
        <ele>234.109174</ele>
        <time>2021-09-11T08:17:42.000Z</time>
      </trkpt>
      <trkpt lat="46.48712" lon="4.03222">
        <ele>234.327652</ele>
        <time>2021-09-11T08:17:45.000Z</time>
      </trkpt>
      <trkpt lat="46.48711" lon="4.0323">
        <ele>234.400491</ele>
        <time>2021-09-11T08:17:46.000Z</time>
      </trkpt>
      <trkpt lat="46.48703" lon="4.03282">
        <ele>234.806197</ele>
        <time>2021-09-11T08:17:52.000Z</time>
      </trkpt>
      <trkpt lat="46.48693" lon="4.0335">
        <ele>235.198073</ele>
        <time>2021-09-11T08:18:00.000Z</time>
      </trkpt>
      <trkpt lat="46.4869" lon="4.03384">
        <ele>235.393043</ele>
        <time>2021-09-11T08:18:04.000Z</time>
      </trkpt>
      <trkpt lat="46.48679" lon="4.03405">
        <ele>235.544892</ele>
        <time>2021-09-11T08:18:07.000Z</time>
      </trkpt>
      <trkpt lat="46.48679" lon="4.03411">
        <ele>235.576361</ele>
        <time>2021-09-11T08:18:08.000Z</time>
      </trkpt>
      <trkpt lat="46.4868" lon="4.03419">
        <ele>235.621</ele>
        <time>2021-09-11T08:18:09.000Z</time>
      </trkpt>
      <trkpt lat="46.4868" lon="4.03428">
        <ele>235.671637</ele>
        <time>2021-09-11T08:18:10.000Z</time>
      </trkpt>
      <trkpt lat="46.48683" lon="4.03471">
        <ele>235.914857</ele>
        <time>2021-09-11T08:18:15.000Z</time>
      </trkpt>
      <trkpt lat="46.48682" lon="4.0353">
        <ele>236.235282</ele>
        <time>2021-09-11T08:18:22.000Z</time>
      </trkpt>
      <trkpt lat="46.48691" lon="4.03599">
        <ele>236.458223</ele>
        <time>2021-09-11T08:18:30.000Z</time>
      </trkpt>
      <trkpt lat="46.48702" lon="4.03678">
        <ele>236.71228</ele>
        <time>2021-09-11T08:18:39.000Z</time>
      </trkpt>
      <trkpt lat="46.48704" lon="4.03723">
        <ele>236.856293</ele>
        <time>2021-09-11T08:18:44.000Z</time>
      </trkpt>
      <trkpt lat="46.48698" lon="4.03778">
        <ele>237.031998</ele>
        <time>2021-09-11T08:18:50.000Z</time>
      </trkpt>
      <trkpt lat="46.4869" lon="4.03833">
        <ele>237.203479</ele>
        <time>2021-09-11T08:18:56.000Z</time>
      </trkpt>
      <trkpt lat="46.4868" lon="4.03888">
        <ele>237.373182</ele>
        <time>2021-09-11T08:19:02.000Z</time>
      </trkpt>
      <trkpt lat="46.48666" lon="4.0397">
        <ele>237.626498</ele>
        <time>2021-09-11T08:19:11.000Z</time>
      </trkpt>
      <trkpt lat="46.48659" lon="4.04053">
        <ele>237.873116</ele>
        <time>2021-09-11T08:19:20.000Z</time>
      </trkpt>
      <trkpt lat="46.48653" lon="4.04128">
        <ele>238.075757</ele>
        <time>2021-09-11T08:19:28.000Z</time>
      </trkpt>
      <trkpt lat="46.48647" lon="4.042">
        <ele>238.270468</ele>
        <time>2021-09-11T08:19:36.000Z</time>
      </trkpt>
      <trkpt lat="46.4864" lon="4.04271">
        <ele>238.462254</ele>
        <time>2021-09-11T08:19:44.000Z</time>
      </trkpt>
      <trkpt lat="46.48635" lon="4.04322">
        <ele>238.579052</ele>
        <time>2021-09-11T08:19:50.000Z</time>
      </trkpt>
      <trkpt lat="46.48635" lon="4.04331">
        <ele>238.59448</ele>
        <time>2021-09-11T08:19:51.000Z</time>
      </trkpt>
      <trkpt lat="46.48628" lon="4.044">
        <ele>238.718577</ele>
        <time>2021-09-11T08:19:59.000Z</time>
      </trkpt>
      <trkpt lat="46.48621" lon="4.04484">
        <ele>238.869585</ele>
        <time>2021-09-11T08:20:09.000Z</time>
      </trkpt>
      <trkpt lat="46.48613" lon="4.04563">
        <ele>239.005145</ele>
        <time>2021-09-11T08:20:18.000Z</time>
      </trkpt>
      <trkpt lat="46.48613" lon="4.04571">
        <ele>239.014069</ele>
        <time>2021-09-11T08:20:19.000Z</time>
      </trkpt>
      <trkpt lat="46.48605" lon="4.0465">
        <ele>239.094366</ele>
        <time>2021-09-11T08:20:28.000Z</time>
      </trkpt>
      <trkpt lat="46.48599" lon="4.04718">
        <ele>239.164832</ele>
        <time>2021-09-11T08:20:36.000Z</time>
      </trkpt>
      <trkpt lat="46.48589" lon="4.04797">
        <ele>239.2457</ele>
        <time>2021-09-11T08:20:45.000Z</time>
      </trkpt>
      <trkpt lat="46.48573" lon="4.04834">
        <ele>239.282508</ele>
        <time>2021-09-11T08:20:50.000Z</time>
      </trkpt>
      <trkpt lat="46.48551" lon="4.04861">
        <ele>239.31318</ele>
        <time>2021-09-11T08:20:55.000Z</time>
      </trkpt>
      <trkpt lat="46.48514" lon="4.04896">
        <ele>239.359101</ele>
        <time>2021-09-11T08:21:02.000Z</time>
      </trkpt>
      <trkpt lat="46.48486" lon="4.04934">
        <ele>239.398996</ele>
        <time>2021-09-11T08:21:08.000Z</time>
      </trkpt>
      <trkpt lat="46.48461" lon="4.04987">
        <ele>239.445611</ele>
        <time>2021-09-11T08:21:15.000Z</time>
      </trkpt>
      <trkpt lat="46.48459" lon="4.04996">
        <ele>239.452269</ele>
        <time>2021-09-11T08:21:16.000Z</time>
      </trkpt>
      <trkpt lat="46.48452" lon="4.0503">
        <ele>239.484705</ele>
        <time>2021-09-11T08:21:20.000Z</time>
      </trkpt>
      <trkpt lat="46.4844" lon="4.0508">
        <ele>239.532777</ele>
        <time>2021-09-11T08:21:26.000Z</time>
      </trkpt>
      <trkpt lat="46.48416" lon="4.0512">
        <ele>239.581097</ele>
        <time>2021-09-11T08:21:32.000Z</time>
      </trkpt>
      <trkpt lat="46.4838" lon="4.05159">
        <ele>239.639828</ele>
        <time>2021-09-11T08:21:39.000Z</time>
      </trkpt>
      <trkpt lat="46.48375" lon="4.05164">
        <ele>239.648279</ele>
        <time>2021-09-11T08:21:40.000Z</time>
      </trkpt>
      <trkpt lat="46.48354" lon="4.05186">
        <ele>239.681285</ele>
        <time>2021-09-11T08:21:44.000Z</time>
      </trkpt>
      <trkpt lat="46.48339" lon="4.05201">
        <ele>239.710574</ele>
        <time>2021-09-11T08:21:47.000Z</time>
      </trkpt>
      <trkpt lat="46.4833" lon="4.05212">
        <ele>239.731684</ele>
        <time>2021-09-11T08:21:49.000Z</time>
      </trkpt>
      <trkpt lat="46.48299" lon="4.05244">
        <ele>239.796193</ele>
        <time>2021-09-11T08:21:55.000Z</time>
      </trkpt>
      <trkpt lat="46.48262" lon="4.05273">
        <ele>239.869208</ele>
        <time>2021-09-11T08:22:02.000Z</time>
      </trkpt>
      <trkpt lat="46.48238" lon="4.05285">
        <ele>239.911437</ele>
        <time>2021-09-11T08:22:08.000Z</time>
      </trkpt>
      <trkpt lat="46.48222" lon="4.05295">
        <ele>239.942875</ele>
        <time>2021-09-11T08:22:09.000Z</time>
      </trkpt>
      <trkpt lat="46.48216" lon="4.053">
        <ele>239.953828</ele>
        <time>2021-09-11T08:22:10.000Z</time>
      </trkpt>
      <trkpt lat="46.48202" lon="4.05319">
        <ele>239.986958</ele>
        <time>2021-09-11T08:22:13.000Z</time>
      </trkpt>
      <trkpt lat="46.48186" lon="4.05359">
        <ele>240.038199</ele>
        <time>2021-09-11T08:22:18.000Z</time>
      </trkpt>
      <trkpt lat="46.4817" lon="4.05407">
        <ele>240.096878</ele>
        <time>2021-09-11T08:22:24.000Z</time>
      </trkpt>
      <trkpt lat="46.48156" lon="4.05448">
        <ele>240.146339</ele>
        <time>2021-09-11T08:22:29.000Z</time>
      </trkpt>
      <trkpt lat="46.4815" lon="4.05463">
        <ele>240.165691</ele>
        <time>2021-09-11T08:22:31.000Z</time>
      </trkpt>
      <trkpt lat="46.48136" lon="4.05491">
        <ele>240.203832</ele>
        <time>2021-09-11T08:22:35.000Z</time>
      </trkpt>
      <trkpt lat="46.48128" lon="4.05505">
        <ele>240.223238</ele>
        <time>2021-09-11T08:22:37.000Z</time>
      </trkpt>
      <trkpt lat="46.48117" lon="4.05526">
        <ele>240.252251</ele>
        <time>2021-09-11T08:22:40.000Z</time>
      </trkpt>
      <trkpt lat="46.48109" lon="4.0554">
        <ele>240.271894</ele>
        <time>2021-09-11T08:22:42.000Z</time>
      </trkpt>
      <trkpt lat="46.48094" lon="4.05567">
        <ele>240.322249</ele>
        <time>2021-09-11T08:22:46.000Z</time>
      </trkpt>
      <trkpt lat="46.48066" lon="4.05615">
        <ele>240.421438</ele>
        <time>2021-09-11T08:22:53.000Z</time>
      </trkpt>
      <trkpt lat="46.48042" lon="4.05657">
        <ele>240.508176</ele>
        <time>2021-09-11T08:22:59.000Z</time>
      </trkpt>
      <trkpt lat="46.48038" lon="4.05664">
        <ele>240.522731</ele>
        <time>2021-09-11T08:23:00.000Z</time>
      </trkpt>
      <trkpt lat="46.48022" lon="4.05692">
        <ele>240.581388</ele>
        <time>2021-09-11T08:23:04.000Z</time>
      </trkpt>
      <trkpt lat="46.48006" lon="4.0572">
        <ele>240.637942</ele>
        <time>2021-09-11T08:23:08.000Z</time>
      </trkpt>
      <trkpt lat="46.48002" lon="4.05726">
        <ele>240.652357</ele>
        <time>2021-09-11T08:23:09.000Z</time>
      </trkpt>
      <trkpt lat="46.47969" lon="4.0577">
        <ele>240.714219</ele>
        <time>2021-09-11T08:23:16.000Z</time>
      </trkpt>
      <trkpt lat="46.47932" lon="4.0582">
        <ele>240.749457</ele>
        <time>2021-09-11T08:23:24.000Z</time>
      </trkpt>
      <trkpt lat="46.47909" lon="4.05863">
        <ele>240.775833</ele>
        <time>2021-09-11T08:23:30.000Z</time>
      </trkpt>
      <trkpt lat="46.47907" lon="4.05872">
        <ele>240.78013</ele>
        <time>2021-09-11T08:23:31.000Z</time>
      </trkpt>
      <trkpt lat="46.47902" lon="4.05897">
        <ele>240.792785</ele>
        <time>2021-09-11T08:23:34.000Z</time>
      </trkpt>
      <trkpt lat="46.47901" lon="4.05914">
        <ele>240.800952</ele>
        <time>2021-09-11T08:23:36.000Z</time>
      </trkpt>
      <trkpt lat="46.47901" lon="4.05933">
        <ele>240.809662</ele>
        <time>2021-09-11T08:23:38.000Z</time>
      </trkpt>
      <trkpt lat="46.47901" lon="4.0596">
        <ele>240.82265</ele>
        <time>2021-09-11T08:23:41.000Z</time>
      </trkpt>
      <trkpt lat="46.47907" lon="4.06031">
        <ele>240.862203</ele>
        <time>2021-09-11T08:23:49.000Z</time>
      </trkpt>
      <trkpt lat="46.47915" lon="4.06111">
        <ele>240.906694</ele>
        <time>2021-09-11T08:23:58.000Z</time>
      </trkpt>
      <trkpt lat="46.47918" lon="4.06145">
        <ele>240.925543</ele>
        <time>2021-09-11T08:24:02.000Z</time>
      </trkpt>
      <trkpt lat="46.4792" lon="4.0616">
        <ele>240.934004</ele>
        <time>2021-09-11T08:24:04.000Z</time>
      </trkpt>
      <trkpt lat="46.47921" lon="4.06167">
        <ele>240.937841</ele>
        <time>2021-09-11T08:24:05.000Z</time>
      </trkpt>
      <trkpt lat="46.47923" lon="4.06187">
        <ele>240.948907</ele>
        <time>2021-09-11T08:24:08.000Z</time>
      </trkpt>
      <trkpt lat="46.4793" lon="4.06241">
        <ele>241.004488</ele>
        <time>2021-09-11T08:24:16.000Z</time>
      </trkpt>
      <trkpt lat="46.47939" lon="4.063">
        <ele>241.100975</ele>
        <time>2021-09-11T08:24:24.000Z</time>
      </trkpt>
      <trkpt lat="46.47947" lon="4.06345">
        <ele>241.174956</ele>
        <time>2021-09-11T08:24:30.000Z</time>
      </trkpt>
      <trkpt lat="46.47953" lon="4.06394">
        <ele>241.252503</ele>
        <time>2021-09-11T08:24:36.000Z</time>
      </trkpt>
      <trkpt lat="46.47951" lon="4.06418">
        <ele>241.29103</ele>
        <time>2021-09-11T08:24:39.000Z</time>
      </trkpt>
      <trkpt lat="46.47949" lon="4.06433">
        <ele>241.315398</ele>
        <time>2021-09-11T08:24:41.000Z</time>
      </trkpt>
      <trkpt lat="46.47939" lon="4.06486">
        <ele>241.455056</ele>
        <time>2021-09-11T08:24:48.000Z</time>
      </trkpt>
      <trkpt lat="46.47937" lon="4.06494">
        <ele>241.49595</ele>
        <time>2021-09-11T08:24:49.000Z</time>
      </trkpt>
      <trkpt lat="46.47921" lon="4.06536">
        <ele>241.740038</ele>
        <time>2021-09-11T08:24:55.000Z</time>
      </trkpt>
      <trkpt lat="46.4791" lon="4.06559">
        <ele>241.8837</ele>
        <time>2021-09-11T08:24:59.000Z</time>
      </trkpt>
      <trkpt lat="46.47907" lon="4.06565">
        <ele>241.919301</ele>
        <time>2021-09-11T08:25:00.000Z</time>
      </trkpt>
      <trkpt lat="46.47904" lon="4.0657">
        <ele>241.955554</ele>
        <time>2021-09-11T08:25:01.000Z</time>
      </trkpt>
      <trkpt lat="46.47894" lon="4.06583">
        <ele>242.052639</ele>
        <time>2021-09-11T08:25:04.000Z</time>
      </trkpt>
      <trkpt lat="46.47891" lon="4.06588">
        <ele>242.087839</ele>
        <time>2021-09-11T08:25:05.000Z</time>
      </trkpt>
      <trkpt lat="46.47883" lon="4.06597">
        <ele>242.160773</ele>
        <time>2021-09-11T08:25:07.000Z</time>
      </trkpt>
      <trkpt lat="46.4787" lon="4.06611">
        <ele>242.282374</ele>
        <time>2021-09-11T08:25:10.000Z</time>
      </trkpt>
      <trkpt lat="46.4784" lon="4.06633">
        <ele>242.531627</ele>
        <time>2021-09-11T08:25:16.000Z</time>
      </trkpt>
      <trkpt lat="46.47834" lon="4.06635">
        <ele>242.577448</ele>
        <time>2021-09-11T08:25:17.000Z</time>
      </trkpt>
      <trkpt lat="46.4781" lon="4.06642">
        <ele>242.720464</ele>
        <time>2021-09-11T08:25:21.000Z</time>
      </trkpt>
      <trkpt lat="46.47762" lon="4.06649">
        <ele>242.824795</ele>
        <time>2021-09-11T08:25:29.000Z</time>
      </trkpt>
      <trkpt lat="46.4772" lon="4.06655">
        <ele>242.917208</ele>
        <time>2021-09-11T08:25:36.000Z</time>
      </trkpt>
      <trkpt lat="46.47673" lon="4.06667">
        <ele>243.019867</ele>
        <time>2021-09-11T08:25:44.000Z</time>
      </trkpt>
      <trkpt lat="46.47634" lon="4.06692">
        <ele>243.116019</ele>
        <time>2021-09-11T08:25:51.000Z</time>
      </trkpt>
      <trkpt lat="46.47587" lon="4.06731">
        <ele>243.268955</ele>
        <time>2021-09-11T08:26:00.000Z</time>
      </trkpt>
      <trkpt lat="46.47582" lon="4.06736">
        <ele>243.285698</ele>
        <time>2021-09-11T08:26:01.000Z</time>
      </trkpt>
      <trkpt lat="46.47547" lon="4.06766">
        <ele>243.400025</ele>
        <time>2021-09-11T08:26:08.000Z</time>
      </trkpt>
      <trkpt lat="46.47507" lon="4.06801">
        <ele>243.532705</ele>
        <time>2021-09-11T08:26:16.000Z</time>
      </trkpt>
      <trkpt lat="46.47502" lon="4.06805">
        <ele>243.548765</ele>
        <time>2021-09-11T08:26:17.000Z</time>
      </trkpt>
      <trkpt lat="46.47481" lon="4.06823">
        <ele>243.672141</ele>
        <time>2021-09-11T08:26:21.000Z</time>
      </trkpt>
      <trkpt lat="46.47451" lon="4.0685">
        <ele>244.173891</ele>
        <time>2021-09-11T08:26:27.000Z</time>
      </trkpt>
      <trkpt lat="46.47427" lon="4.06872">
        <ele>244.587504</ele>
        <time>2021-09-11T08:26:32.000Z</time>
      </trkpt>
      <trkpt lat="46.47422" lon="4.06877">
        <ele>244.669914</ele>
        <time>2021-09-11T08:26:33.000Z</time>
      </trkpt>
      <trkpt lat="46.47403" lon="4.06896">
        <ele>245.000394</ele>
        <time>2021-09-11T08:26:37.000Z</time>
      </trkpt>
      <trkpt lat="46.47394" lon="4.06907">
        <ele>245.171855</ele>
        <time>2021-09-11T08:26:39.000Z</time>
      </trkpt>
      <trkpt lat="46.47389" lon="4.06913">
        <ele>245.259318</ele>
        <time>2021-09-11T08:26:40.000Z</time>
      </trkpt>
      <trkpt lat="46.47376" lon="4.06934">
        <ele>245.535794</ele>
        <time>2021-09-11T08:26:43.000Z</time>
      </trkpt>
      <trkpt lat="46.47372" lon="4.06941">
        <ele>245.633331</ele>
        <time>2021-09-11T08:26:44.000Z</time>
      </trkpt>
      <trkpt lat="46.47352" lon="4.06988">
        <ele>246.171058</ele>
        <time>2021-09-11T08:26:50.000Z</time>
      </trkpt>
      <trkpt lat="46.47349" lon="4.06996">
        <ele>246.190741</ele>
        <time>2021-09-11T08:26:51.000Z</time>
      </trkpt>
      <trkpt lat="46.47341" lon="4.07018">
        <ele>246.237297</ele>
        <time>2021-09-11T08:26:54.000Z</time>
      </trkpt>
      <trkpt lat="46.47338" lon="4.07026">
        <ele>246.252774</ele>
        <time>2021-09-11T08:26:55.000Z</time>
      </trkpt>
      <trkpt lat="46.47335" lon="4.07033">
        <ele>246.268695</ele>
        <time>2021-09-11T08:26:56.000Z</time>
      </trkpt>
      <trkpt lat="46.47329" lon="4.07049">
        <ele>246.300983</ele>
        <time>2021-09-11T08:26:58.000Z</time>
      </trkpt>
      <trkpt lat="46.47327" lon="4.07056">
        <ele>246.315986</ele>
        <time>2021-09-11T08:26:59.000Z</time>
      </trkpt>
      <trkpt lat="46.47322" lon="4.07072">
        <ele>246.346652</ele>
        <time>2021-09-11T08:27:01.000Z</time>
      </trkpt>
      <trkpt lat="46.47317" lon="4.07088">
        <ele>246.378585</ele>
        <time>2021-09-11T08:27:03.000Z</time>
      </trkpt>
      <trkpt lat="46.4731" lon="4.07113">
        <ele>246.427681</ele>
        <time>2021-09-11T08:27:06.000Z</time>
      </trkpt>
      <trkpt lat="46.4729" lon="4.07186">
        <ele>246.569559</ele>
        <time>2021-09-11T08:27:15.000Z</time>
      </trkpt>
      <trkpt lat="46.47267" lon="4.07246">
        <ele>246.514172</ele>
        <time>2021-09-11T08:27:23.000Z</time>
      </trkpt>
      <trkpt lat="46.47242" lon="4.07306">
        <ele>246.139838</ele>
        <time>2021-09-11T08:27:31.000Z</time>
      </trkpt>
      <trkpt lat="46.47217" lon="4.07376">
        <ele>245.721071</ele>
        <time>2021-09-11T08:27:40.000Z</time>
      </trkpt>
      <trkpt lat="46.47193" lon="4.07453">
        <ele>245.272046</ele>
        <time>2021-09-11T08:27:50.000Z</time>
      </trkpt>
      <trkpt lat="46.47177" lon="4.07508">
        <ele>245.060107</ele>
        <time>2021-09-11T08:27:57.000Z</time>
      </trkpt>
      <trkpt lat="46.47175" lon="4.07516">
        <ele>245.030074</ele>
        <time>2021-09-11T08:27:58.000Z</time>
      </trkpt>
      <trkpt lat="46.47165" lon="4.07539">
        <ele>244.937536</ele>
        <time>2021-09-11T08:28:01.000Z</time>
      </trkpt>
      <trkpt lat="46.47162" lon="4.07546">
        <ele>244.905835</ele>
        <time>2021-09-11T08:28:02.000Z</time>
      </trkpt>
      <trkpt lat="46.47138" lon="4.076">
        <ele>244.687349</ele>
        <time>2021-09-11T08:28:09.000Z</time>
      </trkpt>
      <trkpt lat="46.4711" lon="4.07665">
        <ele>244.419725</ele>
        <time>2021-09-11T08:28:18.000Z</time>
      </trkpt>
      <trkpt lat="46.47094" lon="4.077">
        <ele>244.278738</ele>
        <time>2021-09-11T08:28:23.000Z</time>
      </trkpt>
      <trkpt lat="46.47085" lon="4.07711">
        <ele>244.226622</ele>
        <time>2021-09-11T08:28:25.000Z</time>
      </trkpt>
      <trkpt lat="46.47064" lon="4.0775">
        <ele>244.065756</ele>
        <time>2021-09-11T08:28:31.000Z</time>
      </trkpt>
      <trkpt lat="46.47058" lon="4.07773">
        <ele>243.990548</ele>
        <time>2021-09-11T08:28:34.000Z</time>
      </trkpt>
      <trkpt lat="46.4705" lon="4.07815">
        <ele>243.850271</ele>
        <time>2021-09-11T08:28:40.000Z</time>
      </trkpt>
      <trkpt lat="46.47043" lon="4.07861">
        <ele>243.699268</ele>
        <time>2021-09-11T08:28:46.000Z</time>
      </trkpt>
      <trkpt lat="46.47047" lon="4.07911">
        <ele>243.53698</ele>
        <time>2021-09-11T08:28:52.000Z</time>
      </trkpt>
      <trkpt lat="46.47059" lon="4.07976">
        <ele>243.326658</ele>
        <time>2021-09-11T08:29:00.000Z</time>
      </trkpt>
      <trkpt lat="46.47068" lon="4.08021">
        <ele>243.180278</ele>
        <time>2021-09-11T08:29:06.000Z</time>
      </trkpt>
      <trkpt lat="46.47072" lon="4.08062">
        <ele>243.051915</ele>
        <time>2021-09-11T08:29:11.000Z</time>
      </trkpt>
      <trkpt lat="46.47071" lon="4.0807">
        <ele>243.026328</ele>
        <time>2021-09-11T08:29:12.000Z</time>
      </trkpt>
      <trkpt lat="46.47067" lon="4.08102">
        <ele>242.925969</ele>
        <time>2021-09-11T08:29:16.000Z</time>
      </trkpt>
      <trkpt lat="46.47063" lon="4.08117">
        <ele>242.875475</ele>
        <time>2021-09-11T08:29:18.000Z</time>
      </trkpt>
      <trkpt lat="46.47061" lon="4.08124">
        <ele>242.850157</ele>
        <time>2021-09-11T08:29:19.000Z</time>
      </trkpt>
      <trkpt lat="46.4705" lon="4.08143">
        <ele>242.773942</ele>
        <time>2021-09-11T08:29:22.000Z</time>
      </trkpt>
      <trkpt lat="46.47046" lon="4.08149">
        <ele>242.747526</ele>
        <time>2021-09-11T08:29:23.000Z</time>
      </trkpt>
      <trkpt lat="46.4703" lon="4.08176">
        <ele>242.620687</ele>
        <time>2021-09-11T08:29:27.000Z</time>
      </trkpt>
      <trkpt lat="46.47024" lon="4.08191">
        <ele>242.553546</ele>
        <time>2021-09-11T08:29:29.000Z</time>
      </trkpt>
      <trkpt lat="46.47017" lon="4.08214">
        <ele>242.461287</ele>
        <time>2021-09-11T08:29:32.000Z</time>
      </trkpt>
      <trkpt lat="46.47013" lon="4.08229">
        <ele>242.397344</ele>
        <time>2021-09-11T08:29:34.000Z</time>
      </trkpt>
      <trkpt lat="46.47006" lon="4.08289">
        <ele>242.166203</ele>
        <time>2021-09-11T08:29:41.000Z</time>
      </trkpt>
      <trkpt lat="46.47002" lon="4.08305">
        <ele>242.102359</ele>
        <time>2021-09-11T08:29:43.000Z</time>
      </trkpt>
      <trkpt lat="46.46997" lon="4.08321">
        <ele>242.035296</ele>
        <time>2021-09-11T08:29:45.000Z</time>
      </trkpt>
      <trkpt lat="46.46994" lon="4.08328">
        <ele>242.002296</ele>
        <time>2021-09-11T08:29:46.000Z</time>
      </trkpt>
      <trkpt lat="46.46991" lon="4.08335">
        <ele>241.970281</ele>
        <time>2021-09-11T08:29:47.000Z</time>
      </trkpt>
      <trkpt lat="46.46974" lon="4.08362">
        <ele>241.832399</ele>
        <time>2021-09-11T08:29:51.000Z</time>
      </trkpt>
      <trkpt lat="46.46943" lon="4.08407">
        <ele>241.71066</ele>
        <time>2021-09-11T08:29:58.000Z</time>
      </trkpt>
      <trkpt lat="46.46938" lon="4.08414">
        <ele>241.710787</ele>
        <time>2021-09-11T08:29:59.000Z</time>
      </trkpt>
      <trkpt lat="46.46902" lon="4.08465">
        <ele>241.711799</ele>
        <time>2021-09-11T08:30:07.000Z</time>
      </trkpt>
      <trkpt lat="46.46871" lon="4.0851">
        <ele>241.712674</ele>
        <time>2021-09-11T08:30:14.000Z</time>
      </trkpt>
      <trkpt lat="46.46838" lon="4.08558">
        <ele>241.713621</ele>
        <time>2021-09-11T08:30:22.000Z</time>
      </trkpt>
      <trkpt lat="46.46813" lon="4.08595">
        <ele>241.751576</ele>
        <time>2021-09-11T08:30:28.000Z</time>
      </trkpt>
      <trkpt lat="46.46804" lon="4.08608">
        <ele>241.77004</ele>
        <time>2021-09-11T08:30:30.000Z</time>
      </trkpt>
      <trkpt lat="46.46787" lon="4.08633">
        <ele>241.806362</ele>
        <time>2021-09-11T08:30:34.000Z</time>
      </trkpt>
      <trkpt lat="46.46752" lon="4.08682">
        <ele>241.878401</ele>
        <time>2021-09-11T08:30:42.000Z</time>
      </trkpt>
      <trkpt lat="46.46748" lon="4.08688">
        <ele>241.887064</ele>
        <time>2021-09-11T08:30:43.000Z</time>
      </trkpt>
      <trkpt lat="46.46732" lon="4.08712">
        <ele>241.921675</ele>
        <time>2021-09-11T08:30:47.000Z</time>
      </trkpt>
      <trkpt lat="46.4672" lon="4.0873">
        <ele>241.94759</ele>
        <time>2021-09-11T08:30:50.000Z</time>
      </trkpt>
      <trkpt lat="46.46708" lon="4.08747">
        <ele>241.97254</ele>
        <time>2021-09-11T08:30:53.000Z</time>
      </trkpt>
      <trkpt lat="46.46703" lon="4.08753">
        <ele>241.980987</ele>
        <time>2021-09-11T08:30:54.000Z</time>
      </trkpt>
      <trkpt lat="46.46691" lon="4.0877">
        <ele>242.030695</ele>
        <time>2021-09-11T08:30:57.000Z</time>
      </trkpt>
      <trkpt lat="46.46658" lon="4.08815">
        <ele>242.15973</ele>
        <time>2021-09-11T08:31:05.000Z</time>
      </trkpt>
      <trkpt lat="46.46626" lon="4.08859">
        <ele>242.285052</ele>
        <time>2021-09-11T08:31:13.000Z</time>
      </trkpt>
      <trkpt lat="46.46623" lon="4.08864">
        <ele>242.298984</ele>
        <time>2021-09-11T08:31:14.000Z</time>
      </trkpt>
      <trkpt lat="46.46608" lon="4.08888">
        <ele>242.362021</ele>
        <time>2021-09-11T08:31:18.000Z</time>
      </trkpt>
      <trkpt lat="46.46604" lon="4.08894">
        <ele>242.37876</ele>
        <time>2021-09-11T08:31:19.000Z</time>
      </trkpt>
      <trkpt lat="46.46588" lon="4.08919">
        <ele>242.446198</ele>
        <time>2021-09-11T08:31:23.000Z</time>
      </trkpt>
      <trkpt lat="46.46563" lon="4.08957">
        <ele>242.524331</ele>
        <time>2021-09-11T08:31:29.000Z</time>
      </trkpt>
      <trkpt lat="46.46534" lon="4.09002">
        <ele>242.589366</ele>
        <time>2021-09-11T08:31:36.000Z</time>
      </trkpt>
      <trkpt lat="46.46522" lon="4.09022">
        <ele>242.617317</ele>
        <time>2021-09-11T08:31:39.000Z</time>
      </trkpt>
      <trkpt lat="46.46509" lon="4.09041">
        <ele>242.64542</ele>
        <time>2021-09-11T08:31:42.000Z</time>
      </trkpt>
      <trkpt lat="46.46475" lon="4.09095">
        <ele>242.721834</ele>
        <time>2021-09-11T08:31:50.000Z</time>
      </trkpt>
      <trkpt lat="46.46439" lon="4.09144">
        <ele>242.803133</ele>
        <time>2021-09-11T08:31:58.000Z</time>
      </trkpt>
      <trkpt lat="46.464" lon="4.09185">
        <ele>242.892082</ele>
        <time>2021-09-11T08:32:06.000Z</time>
      </trkpt>
      <trkpt lat="46.4636" lon="4.09221">
        <ele>242.978119</ele>
        <time>2021-09-11T08:32:14.000Z</time>
      </trkpt>
      <trkpt lat="46.46331" lon="4.09251">
        <ele>243.044587</ele>
        <time>2021-09-11T08:32:21.000Z</time>
      </trkpt>
      <trkpt lat="46.46301" lon="4.09283">
        <ele>243.102685</ele>
        <time>2021-09-11T08:32:28.000Z</time>
      </trkpt>
      <trkpt lat="46.46263" lon="4.0932">
        <ele>243.101588</ele>
        <time>2021-09-11T08:32:36.000Z</time>
      </trkpt>
      <trkpt lat="46.46226" lon="4.09358">
        <ele>243.100476</ele>
        <time>2021-09-11T08:32:44.000Z</time>
      </trkpt>
      <trkpt lat="46.46177" lon="4.09406">
        <ele>243.099046</ele>
        <time>2021-09-11T08:32:54.000Z</time>
      </trkpt>
      <trkpt lat="46.46146" lon="4.09448">
        <ele>243.123475</ele>
        <time>2021-09-11T08:33:01.000Z</time>
      </trkpt>
      <trkpt lat="46.46106" lon="4.09504">
        <ele>243.19703</ele>
        <time>2021-09-11T08:33:10.000Z</time>
      </trkpt>
      <trkpt lat="46.46102" lon="4.0951">
        <ele>243.205021</ele>
        <time>2021-09-11T08:33:11.000Z</time>
      </trkpt>
      <trkpt lat="46.46073" lon="4.09554">
        <ele>243.261059</ele>
        <time>2021-09-11T08:33:18.000Z</time>
      </trkpt>
      <trkpt lat="46.46041" lon="4.09601">
        <ele>243.321476</ele>
        <time>2021-09-11T08:33:26.000Z</time>
      </trkpt>
      <trkpt lat="46.46012" lon="4.09645">
        <ele>243.47388</ele>
        <time>2021-09-11T08:33:33.000Z</time>
      </trkpt>
      <trkpt lat="46.45987" lon="4.09681">
        <ele>243.632472</ele>
        <time>2021-09-11T08:33:39.000Z</time>
      </trkpt>
      <trkpt lat="46.45968" lon="4.09708">
        <ele>243.758838</ele>
        <time>2021-09-11T08:33:44.000Z</time>
      </trkpt>
      <trkpt lat="46.45942" lon="4.09732">
        <ele>243.895224</ele>
        <time>2021-09-11T08:33:50.000Z</time>
      </trkpt>
      <trkpt lat="46.45907" lon="4.09752">
        <ele>244.070844</ele>
        <time>2021-09-11T08:33:58.000Z</time>
      </trkpt>
      <trkpt lat="46.45878" lon="4.09766">
        <ele>244.232187</ele>
        <time>2021-09-11T08:34:05.000Z</time>
      </trkpt>
      <trkpt lat="46.45856" lon="4.09779">
        <ele>244.40078</ele>
        <time>2021-09-11T08:34:11.000Z</time>
      </trkpt>
      <trkpt lat="46.45848" lon="4.09783">
        <ele>244.459175</ele>
        <time>2021-09-11T08:34:13.000Z</time>
      </trkpt>
      <trkpt lat="46.45833" lon="4.09793">
        <ele>244.574765</ele>
        <time>2021-09-11T08:34:17.000Z</time>
      </trkpt>
      <trkpt lat="46.45806" lon="4.09808">
        <ele>244.775224</ele>
        <time>2021-09-11T08:34:24.000Z</time>
      </trkpt>
      <trkpt lat="46.45799" lon="4.09813">
        <ele>244.834264</ele>
        <time>2021-09-11T08:34:26.000Z</time>
      </trkpt>
      <trkpt lat="46.45786" lon="4.0982">
        <ele>244.926514</ele>
        <time>2021-09-11T08:34:29.000Z</time>
      </trkpt>
      <trkpt lat="46.45782" lon="4.09823">
        <ele>244.957602</ele>
        <time>2021-09-11T08:34:30.000Z</time>
      </trkpt>
      <trkpt lat="46.45778" lon="4.09825">
        <ele>244.989336</ele>
        <time>2021-09-11T08:34:31.000Z</time>
      </trkpt>
      <trkpt lat="46.45763" lon="4.09837">
        <ele>245.111248</ele>
        <time>2021-09-11T08:34:35.000Z</time>
      </trkpt>
      <trkpt lat="46.45744" lon="4.09853">
        <ele>245.265412</ele>
        <time>2021-09-11T08:34:40.000Z</time>
      </trkpt>
      <trkpt lat="46.4574" lon="4.09856">
        <ele>245.296025</ele>
        <time>2021-09-11T08:34:41.000Z</time>
      </trkpt>
      <trkpt lat="46.45736" lon="4.09861">
        <ele>245.330926</ele>
        <time>2021-09-11T08:34:42.000Z</time>
      </trkpt>
      <trkpt lat="46.45723" lon="4.09877">
        <ele>245.45875</ele>
        <time>2021-09-11T08:34:46.000Z</time>
      </trkpt>
      <trkpt lat="46.45703" lon="4.09907">
        <ele>245.705251</ele>
        <time>2021-09-11T08:34:53.000Z</time>
      </trkpt>
      <trkpt lat="46.4569" lon="4.09928">
        <ele>245.876389</ele>
        <time>2021-09-11T08:34:58.000Z</time>
      </trkpt>
      <trkpt lat="46.45666" lon="4.09964">
        <ele>246.173277</ele>
        <time>2021-09-11T08:35:06.000Z</time>
      </trkpt>
      <trkpt lat="46.45647" lon="4.09992">
        <ele>246.411487</ele>
        <time>2021-09-11T08:35:12.000Z</time>
      </trkpt>
      <trkpt lat="46.4564" lon="4.10001">
        <ele>246.49075</ele>
        <time>2021-09-11T08:35:14.000Z</time>
      </trkpt>
      <trkpt lat="46.45621" lon="4.10029">
        <ele>246.727502</ele>
        <time>2021-09-11T08:35:20.000Z</time>
      </trkpt>
      <trkpt lat="46.45605" lon="4.10052">
        <ele>246.924525</ele>
        <time>2021-09-11T08:35:25.000Z</time>
      </trkpt>
      <trkpt lat="46.45601" lon="4.10057">
        <ele>246.963637</ele>
        <time>2021-09-11T08:35:26.000Z</time>
      </trkpt>
      <trkpt lat="46.45579" lon="4.10089">
        <ele>247.036191</ele>
        <time>2021-09-11T08:35:34.000Z</time>
      </trkpt>
      <trkpt lat="46.45569" lon="4.10097">
        <ele>247.057735</ele>
        <time>2021-09-11T08:35:38.000Z</time>
      </trkpt>
      <trkpt lat="46.45558" lon="4.10107">
        <ele>247.082651</ele>
        <time>2021-09-11T08:35:44.000Z</time>
      </trkpt>
      <trkpt lat="46.45541" lon="4.10126">
        <ele>247.122545</ele>
        <time>2021-09-11T08:35:50.000Z</time>
      </trkpt>
      <trkpt lat="46.45534" lon="4.10137">
        <ele>247.141023</ele>
        <time>2021-09-11T08:35:52.000Z</time>
      </trkpt>
      <trkpt lat="46.4553" lon="4.10148">
        <ele>247.157058</ele>
        <time>2021-09-11T08:35:54.000Z</time>
      </trkpt>
      <trkpt lat="46.45524" lon="4.10164">
        <ele>247.180159</ele>
        <time>2021-09-11T08:35:57.000Z</time>
      </trkpt>
      <trkpt lat="46.45514" lon="4.10177">
        <ele>247.204795</ele>
        <time>2021-09-11T08:36:00.000Z</time>
      </trkpt>
      <trkpt lat="46.45507" lon="4.10187">
        <ele>247.222773</ele>
        <time>2021-09-11T08:36:02.000Z</time>
      </trkpt>
      <trkpt lat="46.455" lon="4.10197">
        <ele>247.241416</ele>
        <time>2021-09-11T08:36:04.000Z</time>
      </trkpt>
      <trkpt lat="46.45496" lon="4.10202">
        <ele>247.250737</ele>
        <time>2021-09-11T08:36:05.000Z</time>
      </trkpt>
      <trkpt lat="46.45486" lon="4.1022">
        <ele>247.280098</ele>
        <time>2021-09-11T08:36:08.000Z</time>
      </trkpt>
      <trkpt lat="46.4548" lon="4.10231">
        <ele>247.29836</ele>
        <time>2021-09-11T08:36:10.000Z</time>
      </trkpt>
      <trkpt lat="46.45461" lon="4.1027">
        <ele>247.299714</ele>
        <time>2021-09-11T08:36:16.000Z</time>
      </trkpt>
      <trkpt lat="46.4544" lon="4.10315">
        <ele>247.273926</ele>
        <time>2021-09-11T08:36:23.000Z</time>
      </trkpt>
      <trkpt lat="46.45417" lon="4.10366">
        <ele>247.245271</ele>
        <time>2021-09-11T08:36:31.000Z</time>
      </trkpt>
      <trkpt lat="46.45396" lon="4.10413">
        <ele>247.218786</ele>
        <time>2021-09-11T08:36:39.000Z</time>
      </trkpt>
      <trkpt lat="46.45377" lon="4.10455">
        <ele>247.195131</ele>
        <time>2021-09-11T08:36:46.000Z</time>
      </trkpt>
      <trkpt lat="46.45357" lon="4.10498">
        <ele>247.134068</ele>
        <time>2021-09-11T08:36:53.000Z</time>
      </trkpt>
      <trkpt lat="46.45335" lon="4.10547">
        <ele>247.060456</ele>
        <time>2021-09-11T08:37:01.000Z</time>
      </trkpt>
      <trkpt lat="46.45312" lon="4.10596">
        <ele>246.986635</ele>
        <time>2021-09-11T08:37:09.000Z</time>
      </trkpt>
      <trkpt lat="46.45294" lon="4.10637">
        <ele>246.925807</ele>
        <time>2021-09-11T08:37:15.000Z</time>
      </trkpt>
      <trkpt lat="46.4529" lon="4.10644">
        <ele>246.915395</ele>
        <time>2021-09-11T08:37:16.000Z</time>
      </trkpt>
      <trkpt lat="46.45266" lon="4.10697">
        <ele>246.84471</ele>
        <time>2021-09-11T08:37:24.000Z</time>
      </trkpt>
      <trkpt lat="46.45242" lon="4.10749">
        <ele>246.79057</ele>
        <time>2021-09-11T08:37:32.000Z</time>
      </trkpt>
      <trkpt lat="46.45222" lon="4.10793">
        <ele>246.744473</ele>
        <time>2021-09-11T08:37:39.000Z</time>
      </trkpt>
      <trkpt lat="46.45196" lon="4.10851">
        <ele>246.683871</ele>
        <time>2021-09-11T08:37:48.000Z</time>
      </trkpt>
      <trkpt lat="46.45172" lon="4.10903">
        <ele>246.628378</ele>
        <time>2021-09-11T08:37:56.000Z</time>
      </trkpt>
      <trkpt lat="46.45151" lon="4.10949">
        <ele>246.578439</ele>
        <time>2021-09-11T08:38:03.000Z</time>
      </trkpt>
      <trkpt lat="46.4512" lon="4.11016">
        <ele>246.50503</ele>
        <time>2021-09-11T08:38:13.000Z</time>
      </trkpt>
      <trkpt lat="46.45102" lon="4.11053">
        <ele>246.463864</ele>
        <time>2021-09-11T08:38:19.000Z</time>
      </trkpt>
      <trkpt lat="46.45083" lon="4.11096">
        <ele>246.4167</ele>
        <time>2021-09-11T08:38:27.000Z</time>
      </trkpt>
      <trkpt lat="46.45075" lon="4.11113">
        <ele>246.399147</ele>
        <time>2021-09-11T08:38:30.000Z</time>
      </trkpt>
      <trkpt lat="46.45067" lon="4.11131">
        <ele>246.388202</ele>
        <time>2021-09-11T08:38:33.000Z</time>
      </trkpt>
      <trkpt lat="46.45048" lon="4.11172">
        <ele>246.362219</ele>
        <time>2021-09-11T08:38:40.000Z</time>
      </trkpt>
      <trkpt lat="46.45034" lon="4.11201">
        <ele>246.34382</ele>
        <time>2021-09-11T08:38:45.000Z</time>
      </trkpt>
      <trkpt lat="46.45032" lon="4.11207">
        <ele>246.340287</ele>
        <time>2021-09-11T08:38:46.000Z</time>
      </trkpt>
      <trkpt lat="46.45008" lon="4.11258">
        <ele>246.308013</ele>
        <time>2021-09-11T08:38:54.000Z</time>
      </trkpt>
      <trkpt lat="46.44983" lon="4.11313">
        <ele>246.273626</ele>
        <time>2021-09-11T08:39:02.000Z</time>
      </trkpt>
      <trkpt lat="46.44966" lon="4.1135">
        <ele>246.433745</ele>
        <time>2021-09-11T08:39:08.000Z</time>
      </trkpt>
      <trkpt lat="46.44947" lon="4.11391">
        <ele>246.755808</ele>
        <time>2021-09-11T08:39:16.000Z</time>
      </trkpt>
      <trkpt lat="46.44932" lon="4.11424">
        <ele>247.016243</ele>
        <time>2021-09-11T08:39:24.000Z</time>
      </trkpt>
      <trkpt lat="46.44921" lon="4.11445">
        <ele>247.185107</ele>
        <time>2021-09-11T08:39:31.000Z</time>
      </trkpt>
      <trkpt lat="46.44911" lon="4.11463">
        <ele>247.336068</ele>
        <time>2021-09-11T08:39:39.000Z</time>
      </trkpt>
      <trkpt lat="46.44905" lon="4.11493">
        <ele>247.535786</ele>
        <time>2021-09-11T08:39:46.000Z</time>
      </trkpt>
      <trkpt lat="46.44899" lon="4.11482">
        <ele>247.627256</ele>
        <time>2021-09-11T08:39:47.000Z</time>
      </trkpt>
      <trkpt lat="46.44894" lon="4.11488">
        <ele>247.686547</ele>
        <time>2021-09-11T08:39:51.000Z</time>
      </trkpt>
      <trkpt lat="46.4489" lon="4.11496">
        <ele>247.749536</ele>
        <time>2021-09-11T08:39:55.000Z</time>
      </trkpt>
      <trkpt lat="46.44897" lon="4.11508">
        <ele>247.853358</ele>
        <time>2021-09-11T08:39:57.000Z</time>
      </trkpt>
      <trkpt lat="46.44899" lon="4.11534">
        <ele>248.056107</ele>
        <time>2021-09-11T08:40:02.000Z</time>
      </trkpt>
      <trkpt lat="46.44904" lon="4.11573">
        <ele>248.43659</ele>
        <time>2021-09-11T08:40:09.000Z</time>
      </trkpt>
      <trkpt lat="46.44908" lon="4.11614">
        <ele>248.84144</ele>
        <time>2021-09-11T08:40:16.000Z</time>
      </trkpt>
      <trkpt lat="46.44912" lon="4.11658">
        <ele>249.26253</ele>
        <time>2021-09-11T08:40:23.000Z</time>
      </trkpt>
      <trkpt lat="46.44917" lon="4.11706">
        <ele>249.738695</ele>
        <time>2021-09-11T08:40:31.000Z</time>
      </trkpt>
      <trkpt lat="46.44919" lon="4.11733">
        <ele>249.997459</ele>
        <time>2021-09-11T08:40:36.000Z</time>
      </trkpt>
      <trkpt lat="46.44926" lon="4.11791">
        <ele>250.478213</ele>
        <time>2021-09-11T08:40:46.000Z</time>
      </trkpt>
      <trkpt lat="46.44929" lon="4.11822">
        <ele>250.463666</ele>
        <time>2021-09-11T08:40:52.000Z</time>
      </trkpt>
      <trkpt lat="46.44931" lon="4.11836">
        <ele>250.457242</ele>
        <time>2021-09-11T08:40:56.000Z</time>
      </trkpt>
      <trkpt lat="46.44931" lon="4.11846">
        <ele>250.452867</ele>
        <time>2021-09-11T08:41:46.000Z</time>
      </trkpt>
      <trkpt lat="46.44934" lon="4.11855">
        <ele>250.447961</ele>
        <time>2021-09-11T08:41:48.000Z</time>
      </trkpt>
      <trkpt lat="46.44937" lon="4.11857">
        <ele>250.445875</ele>
        <time>2021-09-11T08:41:49.000Z</time>
      </trkpt>
      <trkpt lat="46.44947" lon="4.11864">
        <ele>250.438714</ele>
        <time>2021-09-11T08:41:52.000Z</time>
      </trkpt>
      <trkpt lat="46.44965" lon="4.11877">
        <ele>250.424915</ele>
        <time>2021-09-11T08:41:58.000Z</time>
      </trkpt>
      <trkpt lat="46.44989" lon="4.11897">
        <ele>250.406752</ele>
        <time>2021-09-11T08:42:05.000Z</time>
      </trkpt>
      <trkpt lat="46.45007" lon="4.11913">
        <ele>250.392603</ele>
        <time>2021-09-11T08:42:11.000Z</time>
      </trkpt>
      <trkpt lat="46.45028" lon="4.11925">
        <ele>250.37716</ele>
        <time>2021-09-11T08:42:19.000Z</time>
      </trkpt>
      <trkpt lat="46.45047" lon="4.11935">
        <ele>250.363869</ele>
        <time>2021-09-11T08:42:27.000Z</time>
      </trkpt>
      <trkpt lat="46.45055" lon="4.11939">
        <ele>250.322785</ele>
        <time>2021-09-11T08:42:32.000Z</time>
      </trkpt>
      <trkpt lat="46.45066" lon="4.11945">
        <ele>250.235733</ele>
        <time>2021-09-11T08:42:37.000Z</time>
      </trkpt>
      <trkpt lat="46.45066" lon="4.11945">
        <ele>250.235733</ele>
        <time>2021-09-11T08:42:39.000Z</time>
      </trkpt>
      <trkpt lat="46.4505" lon="4.11936">
        <ele>250.109714</ele>
        <time>2021-09-11T08:42:45.000Z</time>
      </trkpt>
      <trkpt lat="46.4506" lon="4.11941">
        <ele>250.028796</ele>
        <time>2021-09-11T08:42:46.000Z</time>
      </trkpt>
      <trkpt lat="46.45055" lon="4.11939">
        <ele>249.991322</ele>
        <time>2021-09-11T08:42:52.000Z</time>
      </trkpt>
      <trkpt lat="46.45055" lon="4.11938">
        <ele>249.985352</ele>
        <time>2021-09-11T08:49:07.000Z</time>
      </trkpt>
      <trkpt lat="46.45065" lon="4.11944">
        <ele>249.907253</ele>
        <time>2021-09-11T08:49:12.000Z</time>
      </trkpt>
      <trkpt lat="46.45066" lon="4.11945">
        <ele>249.897628</ele>
        <time>2021-09-11T08:49:13.000Z</time>
      </trkpt>
      <trkpt lat="46.45075" lon="4.11949">
        <ele>249.831797</ele>
        <time>2021-09-11T08:49:18.000Z</time>
      </trkpt>
      <trkpt lat="46.4509" lon="4.11955">
        <ele>249.720465</ele>
        <time>2021-09-11T08:49:25.000Z</time>
      </trkpt>
      <trkpt lat="46.45099" lon="4.11958">
        <ele>249.657019</ele>
        <time>2021-09-11T08:49:30.000Z</time>
      </trkpt>
      <trkpt lat="46.45102" lon="4.11959">
        <ele>249.63953</ele>
        <time>2021-09-11T08:49:32.000Z</time>
      </trkpt>
      <trkpt lat="46.45105" lon="4.11961">
        <ele>249.612819</ele>
        <time>2021-09-11T08:49:35.000Z</time>
      </trkpt>
      <trkpt lat="46.45114" lon="4.11966">
        <ele>249.546754</ele>
        <time>2021-09-11T08:49:41.000Z</time>
      </trkpt>
      <trkpt lat="46.45116" lon="4.11968">
        <ele>249.525582</ele>
        <time>2021-09-11T08:49:45.000Z</time>
      </trkpt>
      <trkpt lat="46.45129" lon="4.11977">
        <ele>249.422689</ele>
        <time>2021-09-11T08:49:53.000Z</time>
      </trkpt>
      <trkpt lat="46.45141" lon="4.11986">
        <ele>249.330804</ele>
        <time>2021-09-11T08:49:59.000Z</time>
      </trkpt>
      <trkpt lat="46.45154" lon="4.11996">
        <ele>249.227618</ele>
        <time>2021-09-11T08:50:05.000Z</time>
      </trkpt>
      <trkpt lat="46.45167" lon="4.12007">
        <ele>249.119848</ele>
        <time>2021-09-11T08:50:11.000Z</time>
      </trkpt>
      <trkpt lat="46.45175" lon="4.12014">
        <ele>249.066229</ele>
        <time>2021-09-11T08:50:14.000Z</time>
      </trkpt>
      <trkpt lat="46.45175" lon="4.12014">
        <ele>249.064634</ele>
        <time>2021-09-11T08:50:15.000Z</time>
      </trkpt>
      <trkpt lat="46.45184" lon="4.12008">
        <ele>249.019982</ele>
        <time>2021-09-11T08:50:20.000Z</time>
      </trkpt>
      <trkpt lat="46.45191" lon="4.12003">
        <ele>248.978665</ele>
        <time>2021-09-11T08:50:24.000Z</time>
      </trkpt>
      <trkpt lat="46.45203" lon="4.11996">
        <ele>248.918286</ele>
        <time>2021-09-11T08:50:30.000Z</time>
      </trkpt>
      <trkpt lat="46.4521" lon="4.11993">
        <ele>248.884475</ele>
        <time>2021-09-11T08:50:35.000Z</time>
      </trkpt>
      <trkpt lat="46.45221" lon="4.11993">
        <ele>248.82891</ele>
        <time>2021-09-11T08:50:41.000Z</time>
      </trkpt>
      <trkpt lat="46.45238" lon="4.11997">
        <ele>248.746384</ele>
        <time>2021-09-11T08:50:47.000Z</time>
      </trkpt>
      <trkpt lat="46.45253" lon="4.12">
        <ele>248.673989</ele>
        <time>2021-09-11T08:50:54.000Z</time>
      </trkpt>
      <trkpt lat="46.45254" lon="4.12">
        <ele>248.666621</ele>
        <time>2021-09-11T08:50:55.000Z</time>
      </trkpt>
      <trkpt lat="46.45259" lon="4.12001">
        <ele>248.645104</ele>
        <time>2021-09-11T08:50:58.000Z</time>
      </trkpt>
      <trkpt lat="46.4528" lon="4.11986">
        <ele>248.531128</ele>
        <time>2021-09-11T08:51:04.000Z</time>
      </trkpt>
      <trkpt lat="46.45291" lon="4.11963">
        <ele>248.437586</ele>
        <time>2021-09-11T08:51:11.000Z</time>
      </trkpt>
      <trkpt lat="46.45296" lon="4.11943">
        <ele>248.367243</ele>
        <time>2021-09-11T08:51:17.000Z</time>
      </trkpt>
      <trkpt lat="46.45303" lon="4.11939">
        <ele>248.33245</ele>
        <time>2021-09-11T08:51:23.000Z</time>
      </trkpt>
      <trkpt lat="46.45313" lon="4.11932">
        <ele>248.279097</ele>
        <time>2021-09-11T08:51:29.000Z</time>
      </trkpt>
      <trkpt lat="46.45324" lon="4.11917">
        <ele>248.212288</ele>
        <time>2021-09-11T08:51:35.000Z</time>
      </trkpt>
      <trkpt lat="46.45329" lon="4.11911">
        <ele>248.1946</ele>
        <time>2021-09-11T08:51:40.000Z</time>
      </trkpt>
      <trkpt lat="46.45328" lon="4.11927">
        <ele>248.162697</ele>
        <time>2021-09-11T08:52:14.000Z</time>
      </trkpt>
      <trkpt lat="46.45321" lon="4.11921">
        <ele>248.140687</ele>
        <time>2021-09-11T08:52:16.000Z</time>
      </trkpt>
      <trkpt lat="46.45318" lon="4.11925">
        <ele>248.129148</ele>
        <time>2021-09-11T08:52:18.000Z</time>
      </trkpt>
      <trkpt lat="46.45314" lon="4.11932">
        <ele>248.111113</ele>
        <time>2021-09-11T08:52:21.000Z</time>
      </trkpt>
      <trkpt lat="46.45301" lon="4.1194">
        <ele>248.07052</ele>
        <time>2021-09-11T08:52:26.000Z</time>
      </trkpt>
      <trkpt lat="46.45291" lon="4.11956">
        <ele>248.027292</ele>
        <time>2021-09-11T08:52:30.000Z</time>
      </trkpt>
      <trkpt lat="46.45282" lon="4.11974">
        <ele>247.984743</ele>
        <time>2021-09-11T08:52:34.000Z</time>
      </trkpt>
      <trkpt lat="46.45273" lon="4.11993">
        <ele>247.938409</ele>
        <time>2021-09-11T08:52:39.000Z</time>
      </trkpt>
      <trkpt lat="46.45258" lon="4.12016">
        <ele>247.874941</ele>
        <time>2021-09-11T08:52:45.000Z</time>
      </trkpt>
      <trkpt lat="46.45244" lon="4.12038">
        <ele>247.816545</ele>
        <time>2021-09-11T08:52:51.000Z</time>
      </trkpt>
      <trkpt lat="46.45239" lon="4.12048">
        <ele>247.790996</ele>
        <time>2021-09-11T08:52:54.000Z</time>
      </trkpt>
      <trkpt lat="46.45237" lon="4.1205">
        <ele>247.784772</ele>
        <time>2021-09-11T08:52:55.000Z</time>
      </trkpt>
      <trkpt lat="46.45234" lon="4.12057">
        <ele>247.768711</ele>
        <time>2021-09-11T08:53:00.000Z</time>
      </trkpt>
      <trkpt lat="46.45215" lon="4.12049">
        <ele>247.711915</ele>
        <time>2021-09-11T08:53:08.000Z</time>
      </trkpt>
      <trkpt lat="46.45215" lon="4.12047">
        <ele>247.708095</ele>
        <time>2021-09-11T08:53:09.000Z</time>
      </trkpt>
      <trkpt lat="46.45239" lon="4.12029">
        <ele>247.408494</ele>
        <time>2021-09-11T08:53:13.000Z</time>
      </trkpt>
      <trkpt lat="46.45247" lon="4.12032">
        <ele>247.308898</ele>
        <time>2021-09-11T08:53:18.000Z</time>
      </trkpt>
      <trkpt lat="46.45277" lon="4.11992">
        <ele>246.84425</ele>
        <time>2021-09-11T08:53:23.000Z</time>
      </trkpt>
      <trkpt lat="46.45289" lon="4.11969">
        <ele>246.613497</ele>
        <time>2021-09-11T08:53:28.000Z</time>
      </trkpt>
      <trkpt lat="46.45299" lon="4.11942">
        <ele>246.367284</ele>
        <time>2021-09-11T08:53:34.000Z</time>
      </trkpt>
      <trkpt lat="46.45313" lon="4.11932">
        <ele>246.184553</ele>
        <time>2021-09-11T08:53:38.000Z</time>
      </trkpt>
      <trkpt lat="46.45319" lon="4.11924">
        <ele>246.09196</ele>
        <time>2021-09-11T08:53:40.000Z</time>
      </trkpt>
      <trkpt lat="46.45329" lon="4.1191">
        <ele>245.940591</ele>
        <time>2021-09-11T08:53:44.000Z</time>
      </trkpt>
      <trkpt lat="46.45332" lon="4.11917">
        <ele>245.875921</ele>
        <time>2021-09-11T09:00:21.000Z</time>
      </trkpt>
      <trkpt lat="46.45325" lon="4.11915">
        <ele>245.796651</ele>
        <time>2021-09-11T09:01:09.000Z</time>
      </trkpt>
      <trkpt lat="46.45322" lon="4.11919">
        <ele>245.74885</ele>
        <time>2021-09-11T09:01:11.000Z</time>
      </trkpt>
      <trkpt lat="46.45314" lon="4.11932">
        <ele>245.637752</ele>
        <time>2021-09-11T09:01:15.000Z</time>
      </trkpt>
      <trkpt lat="46.45308" lon="4.11935">
        <ele>245.628856</ele>
        <time>2021-09-11T09:01:20.000Z</time>
      </trkpt>
      <trkpt lat="46.45292" lon="4.11937">
        <ele>245.603558</ele>
        <time>2021-09-11T09:01:26.000Z</time>
      </trkpt>
      <trkpt lat="46.45282" lon="4.1193">
        <ele>245.587249</ele>
        <time>2021-09-11T09:01:31.000Z</time>
      </trkpt>
      <trkpt lat="46.45275" lon="4.11934">
        <ele>245.576403</ele>
        <time>2021-09-11T09:01:37.000Z</time>
      </trkpt>
      <trkpt lat="46.45261" lon="4.11924">
        <ele>245.553344</ele>
        <time>2021-09-11T09:01:42.000Z</time>
      </trkpt>
      <trkpt lat="46.45244" lon="4.11926">
        <ele>245.528157</ele>
        <time>2021-09-11T09:01:48.000Z</time>
      </trkpt>
      <trkpt lat="46.45224" lon="4.11928">
        <ele>245.497242</ele>
        <time>2021-09-11T09:01:55.000Z</time>
      </trkpt>
      <trkpt lat="46.45208" lon="4.11929">
        <ele>245.472424</ele>
        <time>2021-09-11T09:02:01.000Z</time>
      </trkpt>
      <trkpt lat="46.45194" lon="4.11929">
        <ele>245.452289</ele>
        <time>2021-09-11T09:02:07.000Z</time>
      </trkpt>
      <trkpt lat="46.45184" lon="4.11924">
        <ele>245.436149</ele>
        <time>2021-09-11T09:02:13.000Z</time>
      </trkpt>
      <trkpt lat="46.45173" lon="4.11922">
        <ele>245.418917</ele>
        <time>2021-09-11T09:02:17.000Z</time>
      </trkpt>
      <trkpt lat="46.4516" lon="4.11924">
        <ele>245.398506</ele>
        <time>2021-09-11T09:02:23.000Z</time>
      </trkpt>
      <trkpt lat="46.45146" lon="4.11928">
        <ele>245.376886</ele>
        <time>2021-09-11T09:02:30.000Z</time>
      </trkpt>
      <trkpt lat="46.45142" lon="4.1193">
        <ele>245.370876</ele>
        <time>2021-09-11T09:02:32.000Z</time>
      </trkpt>
      <trkpt lat="46.45136" lon="4.11933">
        <ele>245.758934</ele>
        <time>2021-09-11T09:02:35.000Z</time>
      </trkpt>
      <trkpt lat="46.45134" lon="4.11934">
        <ele>245.897613</ele>
        <time>2021-09-11T09:02:36.000Z</time>
      </trkpt>
      <trkpt lat="46.45129" lon="4.11938">
        <ele>246.255357</ele>
        <time>2021-09-11T09:02:39.000Z</time>
      </trkpt>
      <trkpt lat="46.45115" lon="4.11948">
        <ele>247.319718</ele>
        <time>2021-09-11T09:02:46.000Z</time>
      </trkpt>
      <trkpt lat="46.45106" lon="4.11954">
        <ele>247.96654</ele>
        <time>2021-09-11T09:02:51.000Z</time>
      </trkpt>
      <trkpt lat="46.45105" lon="4.11951">
        <ele>248.128564</ele>
        <time>2021-09-11T09:02:52.000Z</time>
      </trkpt>
      <trkpt lat="46.45105" lon="4.11951">
        <ele>248.128564</ele>
        <time>2021-09-11T09:02:54.000Z</time>
      </trkpt>
      <trkpt lat="46.45104" lon="4.11957">
        <ele>248.451592</ele>
        <time>2021-09-11T09:02:56.000Z</time>
      </trkpt>
      <trkpt lat="46.4511" lon="4.11957">
        <ele>248.859849</ele>
        <time>2021-09-11T09:02:59.000Z</time>
      </trkpt>
      <trkpt lat="46.45112" lon="4.11959">
        <ele>249.030525</ele>
        <time>2021-09-11T09:03:04.000Z</time>
      </trkpt>
      <trkpt lat="46.4511" lon="4.11963">
        <ele>249.262947</ele>
        <time>2021-09-11T09:04:17.000Z</time>
      </trkpt>
      <trkpt lat="46.45106" lon="4.11961">
        <ele>249.554422</ele>
        <time>2021-09-11T09:04:19.000Z</time>
      </trkpt>
      <trkpt lat="46.45096" lon="4.11957">
        <ele>250.2036</ele>
        <time>2021-09-11T09:04:24.000Z</time>
      </trkpt>
      <trkpt lat="46.45089" lon="4.11954">
        <ele>250.734869</ele>
        <time>2021-09-11T09:04:29.000Z</time>
      </trkpt>
      <trkpt lat="46.45086" lon="4.11953">
        <ele>250.907257</ele>
        <time>2021-09-11T09:04:31.000Z</time>
      </trkpt>
      <trkpt lat="46.45081" lon="4.11951">
        <ele>251.245542</ele>
        <time>2021-09-11T09:04:34.000Z</time>
      </trkpt>
      <trkpt lat="46.45079" lon="4.11951">
        <ele>251.377946</ele>
        <time>2021-09-11T09:04:39.000Z</time>
      </trkpt>
      <trkpt lat="46.4508" lon="4.11951">
        <ele>251.400041</ele>
        <time>2021-09-11T09:04:43.000Z</time>
      </trkpt>
      <trkpt lat="46.45081" lon="4.11951">
        <ele>251.475937</ele>
        <time>2021-09-11T09:04:44.000Z</time>
      </trkpt>
      <trkpt lat="46.4509" lon="4.11955">
        <ele>252.1384</ele>
        <time>2021-09-11T09:04:50.000Z</time>
      </trkpt>
      <trkpt lat="46.45093" lon="4.11956">
        <ele>252.339007</ele>
        <time>2021-09-11T09:04:54.000Z</time>
      </trkpt>
      <trkpt lat="46.45101" lon="4.11959">
        <ele>252.898491</ele>
        <time>2021-09-11T09:06:31.000Z</time>
      </trkpt>
      <trkpt lat="46.45113" lon="4.11966">
        <ele>253.739275</ele>
        <time>2021-09-11T09:06:39.000Z</time>
      </trkpt>
      <trkpt lat="46.45114" lon="4.11967">
        <ele>253.835671</ele>
        <time>2021-09-11T09:06:40.000Z</time>
      </trkpt>
      <trkpt lat="46.45119" lon="4.1197">
        <ele>254.185102</ele>
        <time>2021-09-11T09:06:44.000Z</time>
      </trkpt>
      <trkpt lat="46.45119" lon="4.1197">
        <ele>254.185102</ele>
        <time>2021-09-11T09:06:45.000Z</time>
      </trkpt>
      <trkpt lat="46.45112" lon="4.11959">
        <ele>254.863496</ele>
        <time>2021-09-11T10:06:38.000Z</time>
      </trkpt>
      <trkpt lat="46.45113" lon="4.11957">
        <ele>254.985137</ele>
        <time>2021-09-11T10:06:40.000Z</time>
      </trkpt>
      <trkpt lat="46.45112" lon="4.11965">
        <ele>255.341748</ele>
        <time>2021-09-11T10:06:41.000Z</time>
      </trkpt>
      <trkpt lat="46.45109" lon="4.11957">
        <ele>255.753795</ele>
        <time>2021-09-11T10:06:45.000Z</time>
      </trkpt>
      <trkpt lat="46.45093" lon="4.11956">
        <ele>256.805566</ele>
        <time>2021-09-11T10:06:51.000Z</time>
      </trkpt>
      <trkpt lat="46.4508" lon="4.11951">
        <ele>257.017361</ele>
        <time>2021-09-11T10:06:58.000Z</time>
      </trkpt>
      <trkpt lat="46.45075" lon="4.11949">
        <ele>256.572925</ele>
        <time>2021-09-11T10:07:01.000Z</time>
      </trkpt>
      <trkpt lat="46.45074" lon="4.11957">
        <ele>256.112792</ele>
        <time>2021-09-11T10:07:03.000Z</time>
      </trkpt>
      <trkpt lat="46.45072" lon="4.11965">
        <ele>255.649196</ele>
        <time>2021-09-11T10:07:08.000Z</time>
      </trkpt>
      <trkpt lat="46.45065" lon="4.11986">
        <ele>254.349785</ele>
        <time>2021-09-11T10:07:15.000Z</time>
      </trkpt>
      <trkpt lat="46.45056" lon="4.12013">
        <ele>252.671892</ele>
        <time>2021-09-11T10:07:22.000Z</time>
      </trkpt>
      <trkpt lat="46.45044" lon="4.12025">
        <ele>251.482816</ele>
        <time>2021-09-11T10:07:26.000Z</time>
      </trkpt>
      <trkpt lat="46.45027" lon="4.12043">
        <ele>249.814419</ele>
        <time>2021-09-11T10:07:33.000Z</time>
      </trkpt>
      <trkpt lat="46.45025" lon="4.12059">
        <ele>248.911528</ele>
        <time>2021-09-11T10:07:38.000Z</time>
      </trkpt>
      <trkpt lat="46.45025" lon="4.12076">
        <ele>247.960915</ele>
        <time>2021-09-11T10:07:44.000Z</time>
      </trkpt>
      <trkpt lat="46.45022" lon="4.12083">
        <ele>247.486643</ele>
        <time>2021-09-11T10:07:49.000Z</time>
      </trkpt>
      <trkpt lat="46.45021" lon="4.12084">
        <ele>247.421986</ele>
        <time>2021-09-11T10:08:38.000Z</time>
      </trkpt>
      <trkpt lat="46.45019" lon="4.12087">
        <ele>247.164131</ele>
        <time>2021-09-11T10:08:40.000Z</time>
      </trkpt>
      <trkpt lat="46.45013" lon="4.12094">
        <ele>246.529797</ele>
        <time>2021-09-11T10:08:44.000Z</time>
      </trkpt>
      <trkpt lat="46.45011" lon="4.12094">
        <ele>246.384758</ele>
        <time>2021-09-11T10:08:45.000Z</time>
      </trkpt>
      <trkpt lat="46.45006" lon="4.12097">
        <ele>245.931048</ele>
        <time>2021-09-11T10:08:49.000Z</time>
      </trkpt>
      <trkpt lat="46.45003" lon="4.12097">
        <ele>245.674475</ele>
        <time>2021-09-11T10:08:51.000Z</time>
      </trkpt>
      <trkpt lat="46.45" lon="4.12098">
        <ele>245.425855</ele>
        <time>2021-09-11T10:08:55.000Z</time>
      </trkpt>
      <trkpt lat="46.45" lon="4.12098">
        <ele>245.425855</ele>
        <time>2021-09-11T10:16:12.000Z</time>
      </trkpt>
      <trkpt lat="46.45017" lon="4.12085">
        <ele>243.80569</ele>
        <time>2021-09-11T10:16:18.000Z</time>
      </trkpt>
      <trkpt lat="46.45025" lon="4.1208">
        <ele>243.124484</ele>
        <time>2021-09-11T10:16:24.000Z</time>
      </trkpt>
      <trkpt lat="46.45036" lon="4.12058">
        <ele>242.834814</ele>
        <time>2021-09-11T10:16:31.000Z</time>
      </trkpt>
      <trkpt lat="46.4505" lon="4.12031">
        <ele>242.870639</ele>
        <time>2021-09-11T10:16:40.000Z</time>
      </trkpt>
      <trkpt lat="46.45059" lon="4.1201">
        <ele>242.898033</ele>
        <time>2021-09-11T10:16:47.000Z</time>
      </trkpt>
      <trkpt lat="46.4504" lon="4.11985">
        <ele>242.938282</ele>
        <time>2021-09-11T10:16:52.000Z</time>
      </trkpt>
      <trkpt lat="46.45045" lon="4.11964">
        <ele>242.962243</ele>
        <time>2021-09-11T10:16:59.000Z</time>
      </trkpt>
      <trkpt lat="46.45048" lon="4.11941">
        <ele>242.987468</ele>
        <time>2021-09-11T10:17:03.000Z</time>
      </trkpt>
      <trkpt lat="46.45049" lon="4.11938">
        <ele>242.99056</ele>
        <time>2021-09-11T10:17:04.000Z</time>
      </trkpt>
      <trkpt lat="46.45049" lon="4.11935">
        <ele>242.993737</ele>
        <time>2021-09-11T10:17:09.000Z</time>
      </trkpt>
      <trkpt lat="46.45035" lon="4.11928">
        <ele>243.017313</ele>
        <time>2021-09-11T10:17:14.000Z</time>
      </trkpt>
      <trkpt lat="46.4502" lon="4.11921">
        <ele>243.041259</ele>
        <time>2021-09-11T10:17:20.000Z</time>
      </trkpt>
      <trkpt lat="46.45005" lon="4.11912">
        <ele>243.067272</ele>
        <time>2021-09-11T10:17:27.000Z</time>
      </trkpt>
      <trkpt lat="46.44987" lon="4.11895">
        <ele>243.130043</ele>
        <time>2021-09-11T10:17:34.000Z</time>
      </trkpt>
      <trkpt lat="46.44979" lon="4.11888">
        <ele>243.212182</ele>
        <time>2021-09-11T10:17:38.000Z</time>
      </trkpt>
      <trkpt lat="46.44978" lon="4.11887">
        <ele>243.221438</ele>
        <time>2021-09-11T10:17:40.000Z</time>
      </trkpt>
      <trkpt lat="46.44975" lon="4.11884">
        <ele>243.257089</ele>
        <time>2021-09-11T10:18:01.000Z</time>
      </trkpt>
      <trkpt lat="46.44973" lon="4.11882">
        <ele>243.278479</ele>
        <time>2021-09-11T10:18:02.000Z</time>
      </trkpt>
      <trkpt lat="46.44955" lon="4.1187">
        <ele>243.445865</ele>
        <time>2021-09-11T10:18:08.000Z</time>
      </trkpt>
      <trkpt lat="46.44934" lon="4.11855">
        <ele>243.657202</ele>
        <time>2021-09-11T10:18:14.000Z</time>
      </trkpt>
      <trkpt lat="46.44919" lon="4.1185">
        <ele>243.791793</ele>
        <time>2021-09-11T10:18:17.000Z</time>
      </trkpt>
      <trkpt lat="46.44919" lon="4.1185">
        <ele>243.791793</ele>
        <time>2021-09-11T10:18:18.000Z</time>
      </trkpt>
      <trkpt lat="46.44916" lon="4.11849">
        <ele>243.821043</ele>
        <time>2021-09-11T10:18:22.000Z</time>
      </trkpt>
      <trkpt lat="46.44912" lon="4.11847">
        <ele>243.856937</ele>
        <time>2021-09-11T10:25:19.000Z</time>
      </trkpt>
      <trkpt lat="46.44897" lon="4.11838">
        <ele>243.995824</ele>
        <time>2021-09-11T10:25:26.000Z</time>
      </trkpt>
      <trkpt lat="46.44878" lon="4.11826">
        <ele>244.178749</ele>
        <time>2021-09-11T10:25:35.000Z</time>
      </trkpt>
      <trkpt lat="46.44864" lon="4.11815">
        <ele>244.315689</ele>
        <time>2021-09-11T10:25:43.000Z</time>
      </trkpt>
      <trkpt lat="46.44853" lon="4.11806">
        <ele>244.431546</ele>
        <time>2021-09-11T10:25:48.000Z</time>
      </trkpt>
      <trkpt lat="46.44829" lon="4.11788">
        <ele>244.666432</ele>
        <time>2021-09-11T10:25:56.000Z</time>
      </trkpt>
      <trkpt lat="46.44806" lon="4.1177">
        <ele>244.685072</ele>
        <time>2021-09-11T10:26:03.000Z</time>
      </trkpt>
      <trkpt lat="46.44792" lon="4.11757">
        <ele>244.693119</ele>
        <time>2021-09-11T10:26:08.000Z</time>
      </trkpt>
      <trkpt lat="46.44776" lon="4.11759">
        <ele>244.701287</ele>
        <time>2021-09-11T10:26:13.000Z</time>
      </trkpt>
      <trkpt lat="46.44763" lon="4.1176">
        <ele>244.707496</ele>
        <time>2021-09-11T10:26:18.000Z</time>
      </trkpt>
      <trkpt lat="46.44741" lon="4.11762">
        <ele>244.71835</ele>
        <time>2021-09-11T10:26:25.000Z</time>
      </trkpt>
      <trkpt lat="46.4472" lon="4.1176">
        <ele>244.728467</ele>
        <time>2021-09-11T10:26:32.000Z</time>
      </trkpt>
      <trkpt lat="46.4471" lon="4.1175">
        <ele>244.73455</ele>
        <time>2021-09-11T10:26:37.000Z</time>
      </trkpt>
      <trkpt lat="46.44705" lon="4.11743">
        <ele>244.737858</ele>
        <time>2021-09-11T10:26:41.000Z</time>
      </trkpt>
      <trkpt lat="46.44698" lon="4.11739">
        <ele>244.741404</ele>
        <time>2021-09-11T10:26:42.000Z</time>
      </trkpt>
      <trkpt lat="46.44695" lon="4.11745">
        <ele>244.744023</ele>
        <time>2021-09-11T10:26:44.000Z</time>
      </trkpt>
      <trkpt lat="46.447" lon="4.11731">
        <ele>244.749453</ele>
        <time>2021-09-11T10:26:47.000Z</time>
      </trkpt>
      <trkpt lat="46.44698" lon="4.11728">
        <ele>244.750906</ele>
        <time>2021-09-11T10:26:53.000Z</time>
      </trkpt>
      <trkpt lat="46.44702" lon="4.11734">
        <ele>244.753927</ele>
        <time>2021-09-11T10:26:56.000Z</time>
      </trkpt>
      <trkpt lat="46.44704" lon="4.11739">
        <ele>244.755794</ele>
        <time>2021-09-11T10:27:03.000Z</time>
      </trkpt>
      <trkpt lat="46.44712" lon="4.11753">
        <ele>244.738513</ele>
        <time>2021-09-11T10:27:08.000Z</time>
      </trkpt>
      <trkpt lat="46.44716" lon="4.11757">
        <ele>244.696904</ele>
        <time>2021-09-11T10:27:10.000Z</time>
      </trkpt>
      <trkpt lat="46.44716" lon="4.11765">
        <ele>244.653655</ele>
        <time>2021-09-11T10:27:11.000Z</time>
      </trkpt>
      <trkpt lat="46.44713" lon="4.11768">
        <ele>244.625683</ele>
        <time>2021-09-11T10:27:12.000Z</time>
      </trkpt>
      <trkpt lat="46.44703" lon="4.11783">
        <ele>244.505536</ele>
        <time>2021-09-11T10:27:15.000Z</time>
      </trkpt>
      <trkpt lat="46.44694" lon="4.11796">
        <ele>244.403105</ele>
        <time>2021-09-11T10:27:17.000Z</time>
      </trkpt>
      <trkpt lat="46.44692" lon="4.11799">
        <ele>244.381243</ele>
        <time>2021-09-11T10:27:20.000Z</time>
      </trkpt>
      <trkpt lat="46.4464" lon="4.11823">
        <ele>243.931935</ele>
        <time>2021-09-11T10:27:26.000Z</time>
      </trkpt>
      <trkpt lat="46.44636" lon="4.11829">
        <ele>243.886242</ele>
        <time>2021-09-11T10:27:27.000Z</time>
      </trkpt>
      <trkpt lat="46.44643" lon="4.11889">
        <ele>243.541646</ele>
        <time>2021-09-11T10:27:30.000Z</time>
      </trkpt>
      <trkpt lat="46.44636" lon="4.11916">
        <ele>243.375601</ele>
        <time>2021-09-11T10:27:35.000Z</time>
      </trkpt>
      <trkpt lat="46.44634" lon="4.11924">
        <ele>243.329215</ele>
        <time>2021-09-11T10:27:36.000Z</time>
      </trkpt>
      <trkpt lat="46.44627" lon="4.11951">
        <ele>243.197473</ele>
        <time>2021-09-11T10:27:40.000Z</time>
      </trkpt>
      <trkpt lat="46.44623" lon="4.11964">
        <ele>243.14183</ele>
        <time>2021-09-11T10:27:42.000Z</time>
      </trkpt>
      <trkpt lat="46.44619" lon="4.11976">
        <ele>243.091425</ele>
        <time>2021-09-11T10:27:44.000Z</time>
      </trkpt>
      <trkpt lat="46.44616" lon="4.11987">
        <ele>243.042434</ele>
        <time>2021-09-11T10:27:46.000Z</time>
      </trkpt>
      <trkpt lat="46.44612" lon="4.11997">
        <ele>242.995113</ele>
        <time>2021-09-11T10:27:48.000Z</time>
      </trkpt>
      <trkpt lat="46.44596" lon="4.12014">
        <ele>242.884167</ele>
        <time>2021-09-11T10:27:53.000Z</time>
      </trkpt>
      <trkpt lat="46.44585" lon="4.12024">
        <ele>242.81102</ele>
        <time>2021-09-11T10:27:56.000Z</time>
      </trkpt>
      <trkpt lat="46.44581" lon="4.12028">
        <ele>242.78306</ele>
        <time>2021-09-11T10:27:58.000Z</time>
      </trkpt>
      <trkpt lat="46.44574" lon="4.12038">
        <ele>242.725214</ele>
        <time>2021-09-11T10:27:59.000Z</time>
      </trkpt>
      <trkpt lat="46.44564" lon="4.1206">
        <ele>242.620408</ele>
        <time>2021-09-11T10:28:03.000Z</time>
      </trkpt>
      <trkpt lat="46.44561" lon="4.12071">
        <ele>242.573251</ele>
        <time>2021-09-11T10:28:05.000Z</time>
      </trkpt>
      <trkpt lat="46.44552" lon="4.12097">
        <ele>242.459527</ele>
        <time>2021-09-11T10:28:10.000Z</time>
      </trkpt>
      <trkpt lat="46.44549" lon="4.12107">
        <ele>242.415861</ele>
        <time>2021-09-11T10:28:12.000Z</time>
      </trkpt>
      <trkpt lat="46.44534" lon="4.12153">
        <ele>242.238647</ele>
        <time>2021-09-11T10:28:19.000Z</time>
      </trkpt>
      <trkpt lat="46.44525" lon="4.12182">
        <ele>242.202912</ele>
        <time>2021-09-11T10:28:24.000Z</time>
      </trkpt>
      <trkpt lat="46.44518" lon="4.12204">
        <ele>242.176177</ele>
        <time>2021-09-11T10:28:26.000Z</time>
      </trkpt>
      <trkpt lat="46.44499" lon="4.12264">
        <ele>242.103573</ele>
        <time>2021-09-11T10:28:34.000Z</time>
      </trkpt>
      <trkpt lat="46.44479" lon="4.12325">
        <ele>242.029969</ele>
        <time>2021-09-11T10:28:42.000Z</time>
      </trkpt>
      <trkpt lat="46.44456" lon="4.12397">
        <ele>241.964839</ele>
        <time>2021-09-11T10:28:51.000Z</time>
      </trkpt>
      <trkpt lat="46.44432" lon="4.12469">
        <ele>241.983832</ele>
        <time>2021-09-11T10:29:00.000Z</time>
      </trkpt>
      <trkpt lat="46.44429" lon="4.12477">
        <ele>241.985956</ele>
        <time>2021-09-11T10:29:01.000Z</time>
      </trkpt>
      <trkpt lat="46.44411" lon="4.12532">
        <ele>242.000659</ele>
        <time>2021-09-11T10:29:08.000Z</time>
      </trkpt>
      <trkpt lat="46.444" lon="4.12566">
        <ele>242.009441</ele>
        <time>2021-09-11T10:29:13.000Z</time>
      </trkpt>
      <trkpt lat="46.44387" lon="4.12609">
        <ele>242.020656</ele>
        <time>2021-09-11T10:29:20.000Z</time>
      </trkpt>
      <trkpt lat="46.44369" lon="4.12665">
        <ele>242.167412</ele>
        <time>2021-09-11T10:29:28.000Z</time>
      </trkpt>
      <trkpt lat="46.44352" lon="4.12717">
        <ele>242.325267</ele>
        <time>2021-09-11T10:29:35.000Z</time>
      </trkpt>
      <trkpt lat="46.44333" lon="4.12773">
        <ele>242.498088</ele>
        <time>2021-09-11T10:29:43.000Z</time>
      </trkpt>
      <trkpt lat="46.44331" lon="4.12781">
        <ele>242.520026</ele>
        <time>2021-09-11T10:29:44.000Z</time>
      </trkpt>
      <trkpt lat="46.44325" lon="4.12811">
        <ele>242.60644</ele>
        <time>2021-09-11T10:29:48.000Z</time>
      </trkpt>
      <trkpt lat="46.44323" lon="4.12818">
        <ele>242.627582</ele>
        <time>2021-09-11T10:29:49.000Z</time>
      </trkpt>
      <trkpt lat="46.44316" lon="4.12871">
        <ele>242.766031</ele>
        <time>2021-09-11T10:29:56.000Z</time>
      </trkpt>
      <trkpt lat="46.44316" lon="4.12887">
        <ele>242.79441</ele>
        <time>2021-09-11T10:29:58.000Z</time>
      </trkpt>
      <trkpt lat="46.44315" lon="4.12911">
        <ele>242.838342</ele>
        <time>2021-09-11T10:30:01.000Z</time>
      </trkpt>
      <trkpt lat="46.44315" lon="4.12966">
        <ele>242.940109</ele>
        <time>2021-09-11T10:30:08.000Z</time>
      </trkpt>
      <trkpt lat="46.44315" lon="4.12974">
        <ele>242.954753</ele>
        <time>2021-09-11T10:30:09.000Z</time>
      </trkpt>
      <trkpt lat="46.44315" lon="4.12998">
        <ele>242.997946</ele>
        <time>2021-09-11T10:30:12.000Z</time>
      </trkpt>
      <trkpt lat="46.44315" lon="4.13038">
        <ele>243.071338</ele>
        <time>2021-09-11T10:30:17.000Z</time>
      </trkpt>
      <trkpt lat="46.44315" lon="4.13112">
        <ele>243.207141</ele>
        <time>2021-09-11T10:30:26.000Z</time>
      </trkpt>
      <trkpt lat="46.44316" lon="4.13162">
        <ele>243.209475</ele>
        <time>2021-09-11T10:30:32.000Z</time>
      </trkpt>
      <trkpt lat="46.44316" lon="4.13211">
        <ele>243.195659</ele>
        <time>2021-09-11T10:30:38.000Z</time>
      </trkpt>
      <trkpt lat="46.44316" lon="4.13268">
        <ele>243.179634</ele>
        <time>2021-09-11T10:30:45.000Z</time>
      </trkpt>
      <trkpt lat="46.44316" lon="4.13294">
        <ele>243.17253</ele>
        <time>2021-09-11T10:30:48.000Z</time>
      </trkpt>
      <trkpt lat="46.44316" lon="4.1332">
        <ele>243.165259</ele>
        <time>2021-09-11T10:30:51.000Z</time>
      </trkpt>
      <trkpt lat="46.44317" lon="4.13388">
        <ele>243.137931</ele>
        <time>2021-09-11T10:30:59.000Z</time>
      </trkpt>
      <trkpt lat="46.44317" lon="4.13404">
        <ele>243.116148</ele>
        <time>2021-09-11T10:31:01.000Z</time>
      </trkpt>
      <trkpt lat="46.44317" lon="4.13419">
        <ele>243.095198</ele>
        <time>2021-09-11T10:31:03.000Z</time>
      </trkpt>
      <trkpt lat="46.44317" lon="4.13427">
        <ele>243.084238</ele>
        <time>2021-09-11T10:31:04.000Z</time>
      </trkpt>
      <trkpt lat="46.44317" lon="4.13457">
        <ele>243.043171</ele>
        <time>2021-09-11T10:31:08.000Z</time>
      </trkpt>
      <trkpt lat="46.44317" lon="4.13464">
        <ele>243.03318</ele>
        <time>2021-09-11T10:31:09.000Z</time>
      </trkpt>
      <trkpt lat="46.44317" lon="4.13502">
        <ele>242.979766</ele>
        <time>2021-09-11T10:31:14.000Z</time>
      </trkpt>
      <trkpt lat="46.44317" lon="4.1351">
        <ele>242.968665</ele>
        <time>2021-09-11T10:31:15.000Z</time>
      </trkpt>
      <trkpt lat="46.44317" lon="4.1356">
        <ele>242.899711</ele>
        <time>2021-09-11T10:31:21.000Z</time>
      </trkpt>
      <trkpt lat="46.44318" lon="4.1362">
        <ele>242.815773</ele>
        <time>2021-09-11T10:31:28.000Z</time>
      </trkpt>
      <trkpt lat="46.44318" lon="4.13672">
        <ele>242.760394</ele>
        <time>2021-09-11T10:31:34.000Z</time>
      </trkpt>
      <trkpt lat="46.44318" lon="4.13731">
        <ele>242.710382</ele>
        <time>2021-09-11T10:31:41.000Z</time>
      </trkpt>
      <trkpt lat="46.44318" lon="4.13756">
        <ele>242.689516</ele>
        <time>2021-09-11T10:31:44.000Z</time>
      </trkpt>
      <trkpt lat="46.44318" lon="4.13772">
        <ele>242.675746</ele>
        <time>2021-09-11T10:31:46.000Z</time>
      </trkpt>
      <trkpt lat="46.44319" lon="4.13814">
        <ele>242.641026</ele>
        <time>2021-09-11T10:31:51.000Z</time>
      </trkpt>
      <trkpt lat="46.44319" lon="4.13822">
        <ele>242.634098</ele>
        <time>2021-09-11T10:31:52.000Z</time>
      </trkpt>
      <trkpt lat="46.44319" lon="4.1387">
        <ele>242.593379</ele>
        <time>2021-09-11T10:31:58.000Z</time>
      </trkpt>
      <trkpt lat="46.44319" lon="4.13878">
        <ele>242.586452</ele>
        <time>2021-09-11T10:31:59.000Z</time>
      </trkpt>
      <trkpt lat="46.44319" lon="4.13903">
        <ele>242.565839</ele>
        <time>2021-09-11T10:32:02.000Z</time>
      </trkpt>
      <trkpt lat="46.44319" lon="4.13911">
        <ele>242.556425</ele>
        <time>2021-09-11T10:32:03.000Z</time>
      </trkpt>
      <trkpt lat="46.44319" lon="4.1396">
        <ele>242.499553</ele>
        <time>2021-09-11T10:32:09.000Z</time>
      </trkpt>
      <trkpt lat="46.44319" lon="4.13976">
        <ele>242.48017</ele>
        <time>2021-09-11T10:32:11.000Z</time>
      </trkpt>
      <trkpt lat="46.44319" lon="4.13993">
        <ele>242.460555</ele>
        <time>2021-09-11T10:32:13.000Z</time>
      </trkpt>
      <trkpt lat="46.44319" lon="4.14002">
        <ele>242.45092</ele>
        <time>2021-09-11T10:32:14.000Z</time>
      </trkpt>
      <trkpt lat="46.4432" lon="4.14035">
        <ele>242.412155</ele>
        <time>2021-09-11T10:32:18.000Z</time>
      </trkpt>
      <trkpt lat="46.4432" lon="4.14092">
        <ele>242.346112</ele>
        <time>2021-09-11T10:32:25.000Z</time>
      </trkpt>
      <trkpt lat="46.4432" lon="4.14138">
        <ele>242.292142</ele>
        <time>2021-09-11T10:32:31.000Z</time>
      </trkpt>
      <trkpt lat="46.44316" lon="4.14179">
        <ele>242.255854</ele>
        <time>2021-09-11T10:32:37.000Z</time>
      </trkpt>
      <trkpt lat="46.44314" lon="4.14214">
        <ele>242.240944</ele>
        <time>2021-09-11T10:32:42.000Z</time>
      </trkpt>
      <trkpt lat="46.44314" lon="4.14227">
        <ele>242.235173</ele>
        <time>2021-09-11T10:32:44.000Z</time>
      </trkpt>
      <trkpt lat="46.44316" lon="4.14252">
        <ele>242.224561</ele>
        <time>2021-09-11T10:32:47.000Z</time>
      </trkpt>
      <trkpt lat="46.44318" lon="4.1432">
        <ele>242.195117</ele>
        <time>2021-09-11T10:32:55.000Z</time>
      </trkpt>
      <trkpt lat="46.44319" lon="4.14381">
        <ele>242.168601</ele>
        <time>2021-09-11T10:33:02.000Z</time>
      </trkpt>
      <trkpt lat="46.44318" lon="4.14439">
        <ele>242.13944</ele>
        <time>2021-09-11T10:33:09.000Z</time>
      </trkpt>
      <trkpt lat="46.44315" lon="4.14473">
        <ele>242.115547</ele>
        <time>2021-09-11T10:33:13.000Z</time>
      </trkpt>
      <trkpt lat="46.44314" lon="4.14489">
        <ele>242.103765</ele>
        <time>2021-09-11T10:33:15.000Z</time>
      </trkpt>
      <trkpt lat="46.4431" lon="4.1453">
        <ele>242.073935</ele>
        <time>2021-09-11T10:33:20.000Z</time>
      </trkpt>
      <trkpt lat="46.44305" lon="4.1458">
        <ele>242.038658</ele>
        <time>2021-09-11T10:33:26.000Z</time>
      </trkpt>
      <trkpt lat="46.443" lon="4.14631">
        <ele>242.001632</ele>
        <time>2021-09-11T10:33:32.000Z</time>
      </trkpt>
      <trkpt lat="46.44294" lon="4.14699">
        <ele>241.958589</ele>
        <time>2021-09-11T10:33:40.000Z</time>
      </trkpt>
      <trkpt lat="46.4429" lon="4.1474">
        <ele>241.943859</ele>
        <time>2021-09-11T10:33:45.000Z</time>
      </trkpt>
      <trkpt lat="46.44285" lon="4.14791">
        <ele>241.925502</ele>
        <time>2021-09-11T10:33:51.000Z</time>
      </trkpt>
      <trkpt lat="46.44278" lon="4.14858">
        <ele>241.90144</ele>
        <time>2021-09-11T10:33:59.000Z</time>
      </trkpt>
      <trkpt lat="46.44276" lon="4.14875">
        <ele>241.895516</ele>
        <time>2021-09-11T10:34:01.000Z</time>
      </trkpt>
      <trkpt lat="46.44274" lon="4.149">
        <ele>241.886394</ele>
        <time>2021-09-11T10:34:04.000Z</time>
      </trkpt>
      <trkpt lat="46.44266" lon="4.14958">
        <ele>241.816394</ele>
        <time>2021-09-11T10:34:11.000Z</time>
      </trkpt>
      <trkpt lat="46.44256" lon="4.14996">
        <ele>241.681945</ele>
        <time>2021-09-11T10:34:16.000Z</time>
      </trkpt>
      <trkpt lat="46.44241" lon="4.15045">
        <ele>241.507036</ele>
        <time>2021-09-11T10:34:23.000Z</time>
      </trkpt>
      <trkpt lat="46.44233" lon="4.15074">
        <ele>241.40364</ele>
        <time>2021-09-11T10:34:27.000Z</time>
      </trkpt>
      <trkpt lat="46.4423" lon="4.15091">
        <ele>241.348671</ele>
        <time>2021-09-11T10:34:29.000Z</time>
      </trkpt>
      <trkpt lat="46.44229" lon="4.15108">
        <ele>241.294031</ele>
        <time>2021-09-11T10:34:31.000Z</time>
      </trkpt>
      <trkpt lat="46.44228" lon="4.15132">
        <ele>241.213207</ele>
        <time>2021-09-11T10:34:34.000Z</time>
      </trkpt>
      <trkpt lat="46.44233" lon="4.15154">
        <ele>241.137844</ele>
        <time>2021-09-11T10:34:37.000Z</time>
      </trkpt>
      <trkpt lat="46.44235" lon="4.15162">
        <ele>241.110877</ele>
        <time>2021-09-11T10:34:38.000Z</time>
      </trkpt>
      <trkpt lat="46.44238" lon="4.1517">
        <ele>241.082844</ele>
        <time>2021-09-11T10:34:39.000Z</time>
      </trkpt>
      <trkpt lat="46.44243" lon="4.15184">
        <ele>241.030205</ele>
        <time>2021-09-11T10:34:41.000Z</time>
      </trkpt>
      <trkpt lat="46.44246" lon="4.15191">
        <ele>241.019726</ele>
        <time>2021-09-11T10:34:42.000Z</time>
      </trkpt>
      <trkpt lat="46.44264" lon="4.15224">
        <ele>241.011256</ele>
        <time>2021-09-11T10:34:47.000Z</time>
      </trkpt>
      <trkpt lat="46.44267" lon="4.1523">
        <ele>241.009631</ele>
        <time>2021-09-11T10:34:48.000Z</time>
      </trkpt>
      <trkpt lat="46.44284" lon="4.15261">
        <ele>241.001788</ele>
        <time>2021-09-11T10:34:53.000Z</time>
      </trkpt>
      <trkpt lat="46.44298" lon="4.15287">
        <ele>240.995091</ele>
        <time>2021-09-11T10:34:57.000Z</time>
      </trkpt>
      <trkpt lat="46.44306" lon="4.15299">
        <ele>240.991719</ele>
        <time>2021-09-11T10:34:59.000Z</time>
      </trkpt>
      <trkpt lat="46.44318" lon="4.15319">
        <ele>240.986355</ele>
        <time>2021-09-11T10:35:02.000Z</time>
      </trkpt>
      <trkpt lat="46.44335" lon="4.15342">
        <ele>240.979511</ele>
        <time>2021-09-11T10:35:06.000Z</time>
      </trkpt>
      <trkpt lat="46.44365" lon="4.15373">
        <ele>240.968824</ele>
        <time>2021-09-11T10:35:12.000Z</time>
      </trkpt>
      <trkpt lat="46.44404" lon="4.15403">
        <ele>241.081634</ele>
        <time>2021-09-11T10:35:19.000Z</time>
      </trkpt>
      <trkpt lat="46.44437" lon="4.15425">
        <ele>241.178968</ele>
        <time>2021-09-11T10:35:25.000Z</time>
      </trkpt>
      <trkpt lat="46.44487" lon="4.15459">
        <ele>241.326014</ele>
        <time>2021-09-11T10:35:34.000Z</time>
      </trkpt>
      <trkpt lat="46.44513" lon="4.15477">
        <ele>241.404443</ele>
        <time>2021-09-11T10:35:39.000Z</time>
      </trkpt>
      <trkpt lat="46.4455" lon="4.15502">
        <ele>241.53429</ele>
        <time>2021-09-11T10:35:46.000Z</time>
      </trkpt>
      <trkpt lat="46.44582" lon="4.15524">
        <ele>241.660405</ele>
        <time>2021-09-11T10:35:52.000Z</time>
      </trkpt>
      <trkpt lat="46.44613" lon="4.15545">
        <ele>241.782248</ele>
        <time>2021-09-11T10:35:58.000Z</time>
      </trkpt>
      <trkpt lat="46.44646" lon="4.15561">
        <ele>241.903682</ele>
        <time>2021-09-11T10:36:04.000Z</time>
      </trkpt>
      <trkpt lat="46.44667" lon="4.15571">
        <ele>241.983653</ele>
        <time>2021-09-11T10:36:08.000Z</time>
      </trkpt>
      <trkpt lat="46.44703" lon="4.15583">
        <ele>242.101747</ele>
        <time>2021-09-11T10:36:14.000Z</time>
      </trkpt>
      <trkpt lat="46.44743" lon="4.15596">
        <ele>242.173576</ele>
        <time>2021-09-11T10:36:21.000Z</time>
      </trkpt>
      <trkpt lat="46.44779" lon="4.15607">
        <ele>242.23679</ele>
        <time>2021-09-11T10:36:27.000Z</time>
      </trkpt>
      <trkpt lat="46.44828" lon="4.15623">
        <ele>242.322888</ele>
        <time>2021-09-11T10:36:35.000Z</time>
      </trkpt>
      <trkpt lat="46.4485" lon="4.1563">
        <ele>242.361514</ele>
        <time>2021-09-11T10:36:39.000Z</time>
      </trkpt>
      <trkpt lat="46.44855" lon="4.15632">
        <ele>242.37018</ele>
        <time>2021-09-11T10:36:40.000Z</time>
      </trkpt>
      <trkpt lat="46.44878" lon="4.1564">
        <ele>242.41522</ele>
        <time>2021-09-11T10:36:45.000Z</time>
      </trkpt>
      <trkpt lat="46.44882" lon="4.15641">
        <ele>242.42785</ele>
        <time>2021-09-11T10:36:46.000Z</time>
      </trkpt>
      <trkpt lat="46.44912" lon="4.15651">
        <ele>242.5066</ele>
        <time>2021-09-11T10:36:52.000Z</time>
      </trkpt>
      <trkpt lat="46.44941" lon="4.1566">
        <ele>242.584726</ele>
        <time>2021-09-11T10:36:58.000Z</time>
      </trkpt>
      <trkpt lat="46.44974" lon="4.15671">
        <ele>242.67423</ele>
        <time>2021-09-11T10:37:05.000Z</time>
      </trkpt>
      <trkpt lat="46.45007" lon="4.15683">
        <ele>242.762424</ele>
        <time>2021-09-11T10:37:13.000Z</time>
      </trkpt>
      <trkpt lat="46.45028" lon="4.1569">
        <ele>242.817672</ele>
        <time>2021-09-11T10:37:18.000Z</time>
      </trkpt>
      <trkpt lat="46.45032" lon="4.15691">
        <ele>242.828401</ele>
        <time>2021-09-11T10:37:19.000Z</time>
      </trkpt>
      <trkpt lat="46.45057" lon="4.157">
        <ele>243.210776</ele>
        <time>2021-09-11T10:37:26.000Z</time>
      </trkpt>
      <trkpt lat="46.45082" lon="4.15708">
        <ele>244.112122</ele>
        <time>2021-09-11T10:37:33.000Z</time>
      </trkpt>
      <trkpt lat="46.45086" lon="4.15709">
        <ele>244.259405</ele>
        <time>2021-09-11T10:37:34.000Z</time>
      </trkpt>
      <trkpt lat="46.45108" lon="4.15711">
        <ele>245.044861</ele>
        <time>2021-09-11T10:37:39.000Z</time>
      </trkpt>
      <trkpt lat="46.45127" lon="4.15712">
        <ele>245.70065</ele>
        <time>2021-09-11T10:37:44.000Z</time>
      </trkpt>
      <trkpt lat="46.45141" lon="4.15719">
        <ele>246.203527</ele>
        <time>2021-09-11T10:37:50.000Z</time>
      </trkpt>
      <trkpt lat="46.45141" lon="4.15739">
        <ele>246.6978</ele>
        <time>2021-09-11T10:37:56.000Z</time>
      </trkpt>
      <trkpt lat="46.45141" lon="4.15762">
        <ele>247.252295</ele>
        <time>2021-09-11T10:38:02.000Z</time>
      </trkpt>
      <trkpt lat="46.45141" lon="4.1579">
        <ele>247.920329</ele>
        <time>2021-09-11T10:38:08.000Z</time>
      </trkpt>
      <trkpt lat="46.45142" lon="4.15797">
        <ele>248.082801</ele>
        <time>2021-09-11T10:38:10.000Z</time>
      </trkpt>
      <trkpt lat="46.45142" lon="4.15798">
        <ele>248.118147</ele>
        <time>2021-09-11T10:38:12.000Z</time>
      </trkpt>
      <trkpt lat="46.45142" lon="4.15798">
        <ele>248.118147</ele>
        <time>2021-09-11T10:38:13.000Z</time>
      </trkpt>
      <trkpt lat="46.45143" lon="4.158">
        <ele>248.168536</ele>
        <time>2021-09-11T10:39:25.000Z</time>
      </trkpt>
      <trkpt lat="46.45138" lon="4.15808">
        <ele>248.407493</ele>
        <time>2021-09-11T10:39:27.000Z</time>
      </trkpt>
      <trkpt lat="46.45138" lon="4.15825">
        <ele>248.830319</ele>
        <time>2021-09-11T10:39:33.000Z</time>
      </trkpt>
      <trkpt lat="46.45138" lon="4.15846">
        <ele>249.49699</ele>
        <time>2021-09-11T10:39:41.000Z</time>
      </trkpt>
      <trkpt lat="46.45138" lon="4.15861">
        <ele>250.202354</ele>
        <time>2021-09-11T10:39:47.000Z</time>
      </trkpt>
      <trkpt lat="46.45138" lon="4.15875">
        <ele>250.888661</ele>
        <time>2021-09-11T10:39:53.000Z</time>
      </trkpt>
      <trkpt lat="46.45139" lon="4.15898">
        <ele>251.984819</ele>
        <time>2021-09-11T10:40:01.000Z</time>
      </trkpt>
      <trkpt lat="46.45139" lon="4.15921">
        <ele>253.085568</ele>
        <time>2021-09-11T10:40:09.000Z</time>
      </trkpt>
      <trkpt lat="46.45138" lon="4.15946">
        <ele>254.286441</ele>
        <time>2021-09-11T10:40:17.000Z</time>
      </trkpt>
      <trkpt lat="46.45138" lon="4.15969">
        <ele>255.3586</ele>
        <time>2021-09-11T10:40:24.000Z</time>
      </trkpt>
      <trkpt lat="46.45138" lon="4.15991">
        <ele>256.411699</ele>
        <time>2021-09-11T10:40:31.000Z</time>
      </trkpt>
      <trkpt lat="46.45138" lon="4.16015">
        <ele>257.574393</ele>
        <time>2021-09-11T10:40:39.000Z</time>
      </trkpt>
      <trkpt lat="46.45138" lon="4.16047">
        <ele>259.099273</ele>
        <time>2021-09-11T10:40:49.000Z</time>
      </trkpt>
      <trkpt lat="46.45138" lon="4.16067">
        <ele>260.028484</ele>
        <time>2021-09-11T10:40:55.000Z</time>
      </trkpt>
      <trkpt lat="46.45138" lon="4.16097">
        <ele>261.453302</ele>
        <time>2021-09-11T10:41:04.000Z</time>
      </trkpt>
      <trkpt lat="46.45138" lon="4.16104">
        <ele>261.706372</ele>
        <time>2021-09-11T10:41:06.000Z</time>
      </trkpt>
      <trkpt lat="46.45138" lon="4.16108">
        <ele>261.834451</ele>
        <time>2021-09-11T10:41:08.000Z</time>
      </trkpt>
      <trkpt lat="46.45137" lon="4.16119">
        <ele>262.143469</ele>
        <time>2021-09-11T10:41:12.000Z</time>
      </trkpt>
      <trkpt lat="46.45137" lon="4.16121">
        <ele>262.207648</ele>
        <time>2021-09-11T10:41:13.000Z</time>
      </trkpt>
      <trkpt lat="46.45135" lon="4.16127">
        <ele>262.424885</ele>
        <time>2021-09-11T10:41:18.000Z</time>
      </trkpt>
      <trkpt lat="46.45135" lon="4.16127">
        <ele>262.424885</ele>
        <time>2021-09-11T10:41:19.000Z</time>
      </trkpt>
      <trkpt lat="46.45135" lon="4.1614">
        <ele>262.797505</ele>
        <time>2021-09-11T10:44:26.000Z</time>
      </trkpt>
      <trkpt lat="46.45133" lon="4.16145">
        <ele>262.955347</ele>
        <time>2021-09-11T10:44:28.000Z</time>
      </trkpt>
      <trkpt lat="46.45132" lon="4.16156">
        <ele>263.291705</ele>
        <time>2021-09-11T10:44:32.000Z</time>
      </trkpt>
      <trkpt lat="46.45132" lon="4.1616">
        <ele>263.404319</ele>
        <time>2021-09-11T10:44:33.000Z</time>
      </trkpt>
      <trkpt lat="46.45136" lon="4.16182">
        <ele>264.055122</ele>
        <time>2021-09-11T10:44:38.000Z</time>
      </trkpt>
      <trkpt lat="46.45139" lon="4.16208">
        <ele>264.816105</ele>
        <time>2021-09-11T10:44:44.000Z</time>
      </trkpt>
      <trkpt lat="46.4514" lon="4.16244">
        <ele>265.859884</ele>
        <time>2021-09-11T10:44:51.000Z</time>
      </trkpt>
      <trkpt lat="46.45144" lon="4.1628">
        <ele>266.939264</ele>
        <time>2021-09-11T10:44:58.000Z</time>
      </trkpt>
      <trkpt lat="46.45146" lon="4.16285">
        <ele>267.09907</ele>
        <time>2021-09-11T10:44:59.000Z</time>
      </trkpt>
      <trkpt lat="46.45152" lon="4.16307">
        <ele>267.798544</ele>
        <time>2021-09-11T10:45:03.000Z</time>
      </trkpt>
      <trkpt lat="46.45154" lon="4.16313">
        <ele>267.973162</ele>
        <time>2021-09-11T10:45:04.000Z</time>
      </trkpt>
      <trkpt lat="46.45165" lon="4.16334">
        <ele>268.7333</ele>
        <time>2021-09-11T10:45:08.000Z</time>
      </trkpt>
      <trkpt lat="46.45168" lon="4.16347">
        <ele>269.121355</ele>
        <time>2021-09-11T10:45:10.000Z</time>
      </trkpt>
      <trkpt lat="46.45166" lon="4.16361">
        <ele>269.243664</ele>
        <time>2021-09-11T10:45:12.000Z</time>
      </trkpt>
      <trkpt lat="46.45161" lon="4.16371">
        <ele>269.293614</ele>
        <time>2021-09-11T10:45:14.000Z</time>
      </trkpt>
      <trkpt lat="46.45152" lon="4.16389">
        <ele>269.374313</ele>
        <time>2021-09-11T10:45:17.000Z</time>
      </trkpt>
      <trkpt lat="46.45146" lon="4.16401">
        <ele>269.428521</ele>
        <time>2021-09-11T10:45:19.000Z</time>
      </trkpt>
      <trkpt lat="46.45144" lon="4.16407">
        <ele>269.45475</ele>
        <time>2021-09-11T10:45:20.000Z</time>
      </trkpt>
      <trkpt lat="46.45141" lon="4.16449">
        <ele>269.608024</ele>
        <time>2021-09-11T10:45:26.000Z</time>
      </trkpt>
      <trkpt lat="46.4514" lon="4.16506">
        <ele>269.821671</ele>
        <time>2021-09-11T10:45:34.000Z</time>
      </trkpt>
      <trkpt lat="46.4514" lon="4.16569">
        <ele>270.052264</ele>
        <time>2021-09-11T10:45:42.000Z</time>
      </trkpt>
      <trkpt lat="46.45139" lon="4.16637">
        <ele>270.227193</ele>
        <time>2021-09-11T10:45:51.000Z</time>
      </trkpt>
      <trkpt lat="46.45139" lon="4.16652">
        <ele>270.252309</ele>
        <time>2021-09-11T10:45:53.000Z</time>
      </trkpt>
      <trkpt lat="46.45139" lon="4.16675">
        <ele>270.290394</ele>
        <time>2021-09-11T10:45:56.000Z</time>
      </trkpt>
      <trkpt lat="46.45139" lon="4.16729">
        <ele>270.379532</ele>
        <time>2021-09-11T10:46:03.000Z</time>
      </trkpt>
      <trkpt lat="46.45139" lon="4.16803">
        <ele>270.499695</ele>
        <time>2021-09-11T10:46:12.000Z</time>
      </trkpt>
      <trkpt lat="46.45139" lon="4.16885">
        <ele>270.566328</ele>
        <time>2021-09-11T10:46:21.000Z</time>
      </trkpt>
      <trkpt lat="46.45139" lon="4.16959">
        <ele>270.478028</ele>
        <time>2021-09-11T10:46:29.000Z</time>
      </trkpt>
      <trkpt lat="46.45139" lon="4.1704">
        <ele>270.381375</ele>
        <time>2021-09-11T10:46:38.000Z</time>
      </trkpt>
      <trkpt lat="46.45138" lon="4.17122">
        <ele>270.282735</ele>
        <time>2021-09-11T10:46:47.000Z</time>
      </trkpt>
      <trkpt lat="46.45138" lon="4.1719">
        <ele>269.985051</ele>
        <time>2021-09-11T10:46:54.000Z</time>
      </trkpt>
      <trkpt lat="46.45137" lon="4.17272">
        <ele>269.631313</ele>
        <time>2021-09-11T10:47:02.000Z</time>
      </trkpt>
      <trkpt lat="46.45137" lon="4.17303">
        <ele>269.496162</ele>
        <time>2021-09-11T10:47:05.000Z</time>
      </trkpt>
      <trkpt lat="46.45137" lon="4.17386">
        <ele>269.142407</ele>
        <time>2021-09-11T10:47:13.000Z</time>
      </trkpt>
      <trkpt lat="46.45136" lon="4.17407">
        <ele>269.101856</ele>
        <time>2021-09-11T10:47:15.000Z</time>
      </trkpt>
      <trkpt lat="46.45136" lon="4.17489">
        <ele>268.942572</ele>
        <time>2021-09-11T10:47:23.000Z</time>
      </trkpt>
      <trkpt lat="46.45136" lon="4.17499">
        <ele>268.923363</ele>
        <time>2021-09-11T10:47:24.000Z</time>
      </trkpt>
      <trkpt lat="46.45135" lon="4.17579">
        <ele>268.768347</ele>
        <time>2021-09-11T10:47:32.000Z</time>
      </trkpt>
      <trkpt lat="46.45135" lon="4.17641">
        <ele>268.647282</ele>
        <time>2021-09-11T10:47:39.000Z</time>
      </trkpt>
      <trkpt lat="46.45135" lon="4.17697">
        <ele>269.063254</ele>
        <time>2021-09-11T10:47:46.000Z</time>
      </trkpt>
      <trkpt lat="46.45134" lon="4.17736">
        <ele>269.377529</ele>
        <time>2021-09-11T10:47:53.000Z</time>
      </trkpt>
      <trkpt lat="46.45131" lon="4.17775">
        <ele>269.684864</ele>
        <time>2021-09-11T10:48:01.000Z</time>
      </trkpt>
      <trkpt lat="46.45123" lon="4.17822">
        <ele>270.076765</ele>
        <time>2021-09-11T10:48:10.000Z</time>
      </trkpt>
      <trkpt lat="46.45112" lon="4.17868">
        <ele>270.456631</ele>
        <time>2021-09-11T10:48:19.000Z</time>
      </trkpt>
      <trkpt lat="46.451" lon="4.17916">
        <ele>270.784114</ele>
        <time>2021-09-11T10:48:28.000Z</time>
      </trkpt>
      <trkpt lat="46.45092" lon="4.17945">
        <ele>270.894374</ele>
        <time>2021-09-11T10:48:33.000Z</time>
      </trkpt>
      <trkpt lat="46.45089" lon="4.17958">
        <ele>270.940265</ele>
        <time>2021-09-11T10:48:35.000Z</time>
      </trkpt>
      <trkpt lat="46.45075" lon="4.18009">
        <ele>271.134003</ele>
        <time>2021-09-11T10:48:43.000Z</time>
      </trkpt>
      <trkpt lat="46.45058" lon="4.18064">
        <ele>271.344232</ele>
        <time>2021-09-11T10:48:51.000Z</time>
      </trkpt>
      <trkpt lat="46.4504" lon="4.18123">
        <ele>271.569051</ele>
        <time>2021-09-11T10:48:58.000Z</time>
      </trkpt>
      <trkpt lat="46.45016" lon="4.18202">
        <ele>271.807523</ele>
        <time>2021-09-11T10:49:07.000Z</time>
      </trkpt>
      <trkpt lat="46.45014" lon="4.18211">
        <ele>271.830883</ele>
        <time>2021-09-11T10:49:08.000Z</time>
      </trkpt>
      <trkpt lat="46.44993" lon="4.18281">
        <ele>272.029014</ele>
        <time>2021-09-11T10:49:17.000Z</time>
      </trkpt>
      <trkpt lat="46.44974" lon="4.18343">
        <ele>272.20269</ele>
        <time>2021-09-11T10:49:26.000Z</time>
      </trkpt>
      <trkpt lat="46.44956" lon="4.18403">
        <ele>272.545746</ele>
        <time>2021-09-11T10:49:35.000Z</time>
      </trkpt>
      <trkpt lat="46.4494" lon="4.18456">
        <ele>273.085464</ele>
        <time>2021-09-11T10:49:43.000Z</time>
      </trkpt>
      <trkpt lat="46.44917" lon="4.18533">
        <ele>273.856737</ele>
        <time>2021-09-11T10:49:55.000Z</time>
      </trkpt>
      <trkpt lat="46.44895" lon="4.18603">
        <ele>274.567073</ele>
        <time>2021-09-11T10:50:07.000Z</time>
      </trkpt>
      <trkpt lat="46.44881" lon="4.1865">
        <ele>275.258714</ele>
        <time>2021-09-11T10:50:16.000Z</time>
      </trkpt>
      <trkpt lat="46.44868" lon="4.18691">
        <ele>275.947983</ele>
        <time>2021-09-11T10:50:24.000Z</time>
      </trkpt>
      <trkpt lat="46.44853" lon="4.18742">
        <ele>276.817417</ele>
        <time>2021-09-11T10:50:34.000Z</time>
      </trkpt>
      <trkpt lat="46.44835" lon="4.18802">
        <ele>277.824453</ele>
        <time>2021-09-11T10:50:45.000Z</time>
      </trkpt>
      <trkpt lat="46.44823" lon="4.18844">
        <ele>278.521703</ele>
        <time>2021-09-11T10:50:52.000Z</time>
      </trkpt>
      <trkpt lat="46.44807" lon="4.18897">
        <ele>279.418775</ele>
        <time>2021-09-11T10:51:01.000Z</time>
      </trkpt>
      <trkpt lat="46.44789" lon="4.18955">
        <ele>280.397474</ele>
        <time>2021-09-11T10:51:11.000Z</time>
      </trkpt>
      <trkpt lat="46.44775" lon="4.19002">
        <ele>281.201543</ele>
        <time>2021-09-11T10:51:19.000Z</time>
      </trkpt>
      <trkpt lat="46.44759" lon="4.19055">
        <ele>282.089908</ele>
        <time>2021-09-11T10:51:28.000Z</time>
      </trkpt>
      <trkpt lat="46.44742" lon="4.19113">
        <ele>283.099427</ele>
        <time>2021-09-11T10:51:38.000Z</time>
      </trkpt>
      <trkpt lat="46.44725" lon="4.19169">
        <ele>284.179868</ele>
        <time>2021-09-11T10:51:48.000Z</time>
      </trkpt>
      <trkpt lat="46.4471" lon="4.1922">
        <ele>285.161922</ele>
        <time>2021-09-11T10:51:57.000Z</time>
      </trkpt>
      <trkpt lat="46.44694" lon="4.19272">
        <ele>286.168063</ele>
        <time>2021-09-11T10:52:06.000Z</time>
      </trkpt>
      <trkpt lat="46.44676" lon="4.19331">
        <ele>287.29124</ele>
        <time>2021-09-11T10:52:16.000Z</time>
      </trkpt>
      <trkpt lat="46.44664" lon="4.19371">
        <ele>288.142254</ele>
        <time>2021-09-11T10:52:23.000Z</time>
      </trkpt>
      <trkpt lat="46.44648" lon="4.19425">
        <ele>289.301565</ele>
        <time>2021-09-11T10:52:33.000Z</time>
      </trkpt>
      <trkpt lat="46.44632" lon="4.19479">
        <ele>290.466279</ele>
        <time>2021-09-11T10:52:43.000Z</time>
      </trkpt>
      <trkpt lat="46.44619" lon="4.19522">
        <ele>291.372222</ele>
        <time>2021-09-11T10:52:51.000Z</time>
      </trkpt>
      <trkpt lat="46.44609" lon="4.19554">
        <ele>292.057484</ele>
        <time>2021-09-11T10:52:57.000Z</time>
      </trkpt>
      <trkpt lat="46.44598" lon="4.19592">
        <ele>292.858671</ele>
        <time>2021-09-11T10:53:04.000Z</time>
      </trkpt>
      <trkpt lat="46.44588" lon="4.19624">
        <ele>293.522956</ele>
        <time>2021-09-11T10:53:10.000Z</time>
      </trkpt>
      <trkpt lat="46.44573" lon="4.19674">
        <ele>294.546701</ele>
        <time>2021-09-11T10:53:19.000Z</time>
      </trkpt>
      <trkpt lat="46.44557" lon="4.19729">
        <ele>295.671272</ele>
        <time>2021-09-11T10:53:29.000Z</time>
      </trkpt>
      <trkpt lat="46.44544" lon="4.19772">
        <ele>296.559441</ele>
        <time>2021-09-11T10:53:37.000Z</time>
      </trkpt>
      <trkpt lat="46.44529" lon="4.19822">
        <ele>297.526348</ele>
        <time>2021-09-11T10:53:46.000Z</time>
      </trkpt>
      <trkpt lat="46.44513" lon="4.19877">
        <ele>298.271703</ele>
        <time>2021-09-11T10:53:56.000Z</time>
      </trkpt>
      <trkpt lat="46.44512" lon="4.19882">
        <ele>298.342879</ele>
        <time>2021-09-11T10:53:57.000Z</time>
      </trkpt>
      <trkpt lat="46.44503" lon="4.19922">
        <ele>298.870998</ele>
        <time>2021-09-11T10:54:04.000Z</time>
      </trkpt>
      <trkpt lat="46.44497" lon="4.19973">
        <ele>299.522379</ele>
        <time>2021-09-11T10:54:12.000Z</time>
      </trkpt>
      <trkpt lat="46.44487" lon="4.20044">
        <ele>300.421587</ele>
        <time>2021-09-11T10:54:22.000Z</time>
      </trkpt>
      <trkpt lat="46.44479" lon="4.20107">
        <ele>300.894924</ele>
        <time>2021-09-11T10:54:31.000Z</time>
      </trkpt>
      <trkpt lat="46.44472" lon="4.20157">
        <ele>301.140416</ele>
        <time>2021-09-11T10:54:38.000Z</time>
      </trkpt>
      <trkpt lat="46.44462" lon="4.20229">
        <ele>301.49183</ele>
        <time>2021-09-11T10:54:47.000Z</time>
      </trkpt>
      <trkpt lat="46.44453" lon="4.20303">
        <ele>301.850565</ele>
        <time>2021-09-11T10:54:55.000Z</time>
      </trkpt>
      <trkpt lat="46.44442" lon="4.20387">
        <ele>301.925337</ele>
        <time>2021-09-11T10:55:03.000Z</time>
      </trkpt>
      <trkpt lat="46.44431" lon="4.20466">
        <ele>301.907397</ele>
        <time>2021-09-11T10:55:10.000Z</time>
      </trkpt>
      <trkpt lat="46.44428" lon="4.20489">
        <ele>301.902265</ele>
        <time>2021-09-11T10:55:12.000Z</time>
      </trkpt>
      <trkpt lat="46.44417" lon="4.20575">
        <ele>301.88293</ele>
        <time>2021-09-11T10:55:20.000Z</time>
      </trkpt>
      <trkpt lat="46.44408" lon="4.20641">
        <ele>302.208645</ele>
        <time>2021-09-11T10:55:27.000Z</time>
      </trkpt>
      <trkpt lat="46.444" lon="4.20704">
        <ele>302.528408</ele>
        <time>2021-09-11T10:55:35.000Z</time>
      </trkpt>
      <trkpt lat="46.44391" lon="4.20773">
        <ele>302.87703</ele>
        <time>2021-09-11T10:55:45.000Z</time>
      </trkpt>
      <trkpt lat="46.44385" lon="4.20822">
        <ele>303.129004</ele>
        <time>2021-09-11T10:55:53.000Z</time>
      </trkpt>
      <trkpt lat="46.44379" lon="4.20868">
        <ele>303.500993</ele>
        <time>2021-09-11T10:56:01.000Z</time>
      </trkpt>
      <trkpt lat="46.44376" lon="4.20891">
        <ele>303.713276</ele>
        <time>2021-09-11T10:56:05.000Z</time>
      </trkpt>
      <trkpt lat="46.44374" lon="4.20909">
        <ele>303.869889</ele>
        <time>2021-09-11T10:56:08.000Z</time>
      </trkpt>
      <trkpt lat="46.44366" lon="4.20971">
        <ele>304.437602</ele>
        <time>2021-09-11T10:56:19.000Z</time>
      </trkpt>
      <trkpt lat="46.44364" lon="4.20989">
        <ele>304.601505</ele>
        <time>2021-09-11T10:56:22.000Z</time>
      </trkpt>
      <trkpt lat="46.44361" lon="4.21013">
        <ele>304.821078</ele>
        <time>2021-09-11T10:56:25.000Z</time>
      </trkpt>
      <trkpt lat="46.44355" lon="4.21058">
        <ele>305.233944</ele>
        <time>2021-09-11T10:56:32.000Z</time>
      </trkpt>
      <trkpt lat="46.44349" lon="4.21104">
        <ele>305.594095</ele>
        <time>2021-09-11T10:56:39.000Z</time>
      </trkpt>
      <trkpt lat="46.44344" lon="4.21148">
        <ele>305.803681</ele>
        <time>2021-09-11T10:56:46.000Z</time>
      </trkpt>
      <trkpt lat="46.44337" lon="4.21203">
        <ele>306.07262</ele>
        <time>2021-09-11T10:56:53.000Z</time>
      </trkpt>
      <trkpt lat="46.44328" lon="4.21276">
        <ele>306.423331</ele>
        <time>2021-09-11T10:57:02.000Z</time>
      </trkpt>
      <trkpt lat="46.4432" lon="4.21342">
        <ele>306.740867</ele>
        <time>2021-09-11T10:57:10.000Z</time>
      </trkpt>
      <trkpt lat="46.4431" lon="4.21418">
        <ele>307.030354</ele>
        <time>2021-09-11T10:57:19.000Z</time>
      </trkpt>
      <trkpt lat="46.44304" lon="4.21467">
        <ele>307.211483</ele>
        <time>2021-09-11T10:57:25.000Z</time>
      </trkpt>
      <trkpt lat="46.443" lon="4.21499">
        <ele>307.331933</ele>
        <time>2021-09-11T10:57:29.000Z</time>
      </trkpt>
      <trkpt lat="46.44299" lon="4.21508">
        <ele>307.362862</ele>
        <time>2021-09-11T10:57:30.000Z</time>
      </trkpt>
      <trkpt lat="46.44292" lon="4.21569">
        <ele>307.59006</ele>
        <time>2021-09-11T10:57:37.000Z</time>
      </trkpt>
      <trkpt lat="46.44284" lon="4.21629">
        <ele>307.794264</ele>
        <time>2021-09-11T10:57:43.000Z</time>
      </trkpt>
      <trkpt lat="46.44276" lon="4.21695">
        <ele>307.985472</ele>
        <time>2021-09-11T10:57:49.000Z</time>
      </trkpt>
      <trkpt lat="46.44268" lon="4.21755">
        <ele>308.157042</ele>
        <time>2021-09-11T10:57:55.000Z</time>
      </trkpt>
      <trkpt lat="46.44262" lon="4.21802">
        <ele>308.294805</ele>
        <time>2021-09-11T10:58:01.000Z</time>
      </trkpt>
      <trkpt lat="46.44256" lon="4.21857">
        <ele>308.452134</ele>
        <time>2021-09-11T10:58:09.000Z</time>
      </trkpt>
      <trkpt lat="46.44252" lon="4.21888">
        <ele>308.777592</ele>
        <time>2021-09-11T10:58:14.000Z</time>
      </trkpt>
      <trkpt lat="46.4425" lon="4.219">
        <ele>308.924597</ele>
        <time>2021-09-11T10:58:16.000Z</time>
      </trkpt>
      <trkpt lat="46.44249" lon="4.21907">
        <ele>308.997531</ele>
        <time>2021-09-11T10:58:17.000Z</time>
      </trkpt>
      <trkpt lat="46.44245" lon="4.21944">
        <ele>309.441656</ele>
        <time>2021-09-11T10:58:23.000Z</time>
      </trkpt>
      <trkpt lat="46.44239" lon="4.21988">
        <ele>309.952727</ele>
        <time>2021-09-11T10:58:30.000Z</time>
      </trkpt>
      <trkpt lat="46.44233" lon="4.22035">
        <ele>310.508528</ele>
        <time>2021-09-11T10:58:38.000Z</time>
      </trkpt>
      <trkpt lat="46.44227" lon="4.22083">
        <ele>311.07373</ele>
        <time>2021-09-11T10:58:47.000Z</time>
      </trkpt>
      <trkpt lat="46.44222" lon="4.22131">
        <ele>311.772336</ele>
        <time>2021-09-11T10:58:56.000Z</time>
      </trkpt>
      <trkpt lat="46.44216" lon="4.22175">
        <ele>312.754289</ele>
        <time>2021-09-11T10:59:04.000Z</time>
      </trkpt>
      <trkpt lat="46.44213" lon="4.22203">
        <ele>313.393625</ele>
        <time>2021-09-11T10:59:09.000Z</time>
      </trkpt>
      <trkpt lat="46.44212" lon="4.22209">
        <ele>313.533201</ele>
        <time>2021-09-11T10:59:10.000Z</time>
      </trkpt>
      <trkpt lat="46.4421" lon="4.22227">
        <ele>313.942091</ele>
        <time>2021-09-11T10:59:13.000Z</time>
      </trkpt>
      <trkpt lat="46.44207" lon="4.22244">
        <ele>314.330159</ele>
        <time>2021-09-11T10:59:16.000Z</time>
      </trkpt>
      <trkpt lat="46.44202" lon="4.2229">
        <ele>315.368489</ele>
        <time>2021-09-11T10:59:24.000Z</time>
      </trkpt>
      <trkpt lat="46.44198" lon="4.22323">
        <ele>316.113441</ele>
        <time>2021-09-11T10:59:30.000Z</time>
      </trkpt>
      <trkpt lat="46.44192" lon="4.22367">
        <ele>317.088839</ele>
        <time>2021-09-11T10:59:38.000Z</time>
      </trkpt>
      <trkpt lat="46.44188" lon="4.22403">
        <ele>317.38868</ele>
        <time>2021-09-11T10:59:45.000Z</time>
      </trkpt>
      <trkpt lat="46.44185" lon="4.22427">
        <ele>317.479302</ele>
        <time>2021-09-11T10:59:50.000Z</time>
      </trkpt>
      <trkpt lat="46.44182" lon="4.22448">
        <ele>317.557507</ele>
        <time>2021-09-11T10:59:54.000Z</time>
      </trkpt>
      <trkpt lat="46.44181" lon="4.2246">
        <ele>317.60406</ele>
        <time>2021-09-11T10:59:56.000Z</time>
      </trkpt>
      <trkpt lat="46.44179" lon="4.22472">
        <ele>317.650705</ele>
        <time>2021-09-11T10:59:58.000Z</time>
      </trkpt>
      <trkpt lat="46.44177" lon="4.22493">
        <ele>317.730564</ele>
        <time>2021-09-11T11:00:01.000Z</time>
      </trkpt>
      <trkpt lat="46.44171" lon="4.22542">
        <ele>317.913554</ele>
        <time>2021-09-11T11:00:07.000Z</time>
      </trkpt>
      <trkpt lat="46.4417" lon="4.22551">
        <ele>317.948055</ele>
        <time>2021-09-11T11:00:08.000Z</time>
      </trkpt>
      <trkpt lat="46.44167" lon="4.22579">
        <ele>318.055236</ele>
        <time>2021-09-11T11:00:11.000Z</time>
      </trkpt>
      <trkpt lat="46.44159" lon="4.22645">
        <ele>318.140211</ele>
        <time>2021-09-11T11:00:17.000Z</time>
      </trkpt>
      <trkpt lat="46.4415" lon="4.22719">
        <ele>317.45552</ele>
        <time>2021-09-11T11:00:23.000Z</time>
      </trkpt>
      <trkpt lat="46.44141" lon="4.22798">
        <ele>316.732941</ele>
        <time>2021-09-11T11:00:29.000Z</time>
      </trkpt>
      <trkpt lat="46.4414" lon="4.2281">
        <ele>316.619496</ele>
        <time>2021-09-11T11:00:30.000Z</time>
      </trkpt>
      <trkpt lat="46.44132" lon="4.22876">
        <ele>316.013271</ele>
        <time>2021-09-11T11:00:36.000Z</time>
      </trkpt>
      <trkpt lat="46.44125" lon="4.22937">
        <ele>315.488735</ele>
        <time>2021-09-11T11:00:43.000Z</time>
      </trkpt>
      <trkpt lat="46.44118" lon="4.22998">
        <ele>314.978687</ele>
        <time>2021-09-11T11:00:51.000Z</time>
      </trkpt>
      <trkpt lat="46.44111" lon="4.23058">
        <ele>314.484605</ele>
        <time>2021-09-11T11:00:58.000Z</time>
      </trkpt>
      <trkpt lat="46.44105" lon="4.23111">
        <ele>314.03864</ele>
        <time>2021-09-11T11:01:03.000Z</time>
      </trkpt>
      <trkpt lat="46.44095" lon="4.23196">
        <ele>313.202289</ele>
        <time>2021-09-11T11:01:10.000Z</time>
      </trkpt>
      <trkpt lat="46.44087" lon="4.2327">
        <ele>312.374169</ele>
        <time>2021-09-11T11:01:16.000Z</time>
      </trkpt>
      <trkpt lat="46.44072" lon="4.23357">
        <ele>311.389446</ele>
        <time>2021-09-11T11:01:23.000Z</time>
      </trkpt>
      <trkpt lat="46.44056" lon="4.2343">
        <ele>310.80167</ele>
        <time>2021-09-11T11:01:29.000Z</time>
      </trkpt>
      <trkpt lat="46.4404" lon="4.23504">
        <ele>310.608087</ele>
        <time>2021-09-11T11:01:36.000Z</time>
      </trkpt>
      <trkpt lat="46.44029" lon="4.23555">
        <ele>310.474491</ele>
        <time>2021-09-11T11:01:42.000Z</time>
      </trkpt>
      <trkpt lat="46.44016" lon="4.23609">
        <ele>310.330107</ele>
        <time>2021-09-11T11:01:50.000Z</time>
      </trkpt>
      <trkpt lat="46.44004" lon="4.23666">
        <ele>310.220235</ele>
        <time>2021-09-11T11:01:59.000Z</time>
      </trkpt>
      <trkpt lat="46.43992" lon="4.23718">
        <ele>310.211572</ele>
        <time>2021-09-11T11:02:07.000Z</time>
      </trkpt>
      <trkpt lat="46.4398" lon="4.23774">
        <ele>310.202258</ele>
        <time>2021-09-11T11:02:15.000Z</time>
      </trkpt>
      <trkpt lat="46.43966" lon="4.23834">
        <ele>310.192287</ele>
        <time>2021-09-11T11:02:23.000Z</time>
      </trkpt>
      <trkpt lat="46.43952" lon="4.23901">
        <ele>310.172497</ele>
        <time>2021-09-11T11:02:31.000Z</time>
      </trkpt>
      <trkpt lat="46.4394" lon="4.23969">
        <ele>309.836992</ele>
        <time>2021-09-11T11:02:39.000Z</time>
      </trkpt>
      <trkpt lat="46.43933" lon="4.24027">
        <ele>309.556182</ele>
        <time>2021-09-11T11:02:46.000Z</time>
      </trkpt>
      <trkpt lat="46.43929" lon="4.24079">
        <ele>309.310561</ele>
        <time>2021-09-11T11:02:52.000Z</time>
      </trkpt>
      <trkpt lat="46.43925" lon="4.24151">
        <ele>308.964994</ele>
        <time>2021-09-11T11:03:00.000Z</time>
      </trkpt>
      <trkpt lat="46.43925" lon="4.2423">
        <ele>308.421031</ele>
        <time>2021-09-11T11:03:08.000Z</time>
      </trkpt>
      <trkpt lat="46.4393" lon="4.24307">
        <ele>307.875588</ele>
        <time>2021-09-11T11:03:15.000Z</time>
      </trkpt>
      <trkpt lat="46.43937" lon="4.24395">
        <ele>307.249644</ele>
        <time>2021-09-11T11:03:22.000Z</time>
      </trkpt>
      <trkpt lat="46.43941" lon="4.24462">
        <ele>307.456471</ele>
        <time>2021-09-11T11:03:28.000Z</time>
      </trkpt>
      <trkpt lat="46.43941" lon="4.24506">
        <ele>307.794708</ele>
        <time>2021-09-11T11:03:33.000Z</time>
      </trkpt>
      <trkpt lat="46.4394" lon="4.2452">
        <ele>307.899597</ele>
        <time>2021-09-11T11:03:35.000Z</time>
      </trkpt>
      <trkpt lat="46.43939" lon="4.24537">
        <ele>308.029105</ele>
        <time>2021-09-11T11:03:38.000Z</time>
      </trkpt>
      <trkpt lat="46.43938" lon="4.24565">
        <ele>308.244295</ele>
        <time>2021-09-11T11:03:44.000Z</time>
      </trkpt>
      <trkpt lat="46.43936" lon="4.24593">
        <ele>308.457188</ele>
        <time>2021-09-11T11:03:51.000Z</time>
      </trkpt>
      <trkpt lat="46.43933" lon="4.24616">
        <ele>308.633636</ele>
        <time>2021-09-11T11:03:57.000Z</time>
      </trkpt>
      <trkpt lat="46.43931" lon="4.24638">
        <ele>308.803877</ele>
        <time>2021-09-11T11:04:03.000Z</time>
      </trkpt>
      <trkpt lat="46.43928" lon="4.24664">
        <ele>309.011181</ele>
        <time>2021-09-11T11:04:11.000Z</time>
      </trkpt>
      <trkpt lat="46.43924" lon="4.24695">
        <ele>309.541772</ele>
        <time>2021-09-11T11:04:20.000Z</time>
      </trkpt>
      <trkpt lat="46.4392" lon="4.24729">
        <ele>310.321558</ele>
        <time>2021-09-11T11:04:29.000Z</time>
      </trkpt>
      <trkpt lat="46.43917" lon="4.24761">
        <ele>311.064643</ele>
        <time>2021-09-11T11:04:38.000Z</time>
      </trkpt>
      <trkpt lat="46.43913" lon="4.24796">
        <ele>311.856097</ele>
        <time>2021-09-11T11:04:47.000Z</time>
      </trkpt>
      <trkpt lat="46.4391" lon="4.24823">
        <ele>312.473478</ele>
        <time>2021-09-11T11:04:54.000Z</time>
      </trkpt>
      <trkpt lat="46.43907" lon="4.24854">
        <ele>313.177634</ele>
        <time>2021-09-11T11:05:02.000Z</time>
      </trkpt>
      <trkpt lat="46.43903" lon="4.2489">
        <ele>314.015909</ele>
        <time>2021-09-11T11:05:11.000Z</time>
      </trkpt>
      <trkpt lat="46.43899" lon="4.24926">
        <ele>314.824682</ele>
        <time>2021-09-11T11:05:20.000Z</time>
      </trkpt>
      <trkpt lat="46.43896" lon="4.24956">
        <ele>315.532249</ele>
        <time>2021-09-11T11:05:29.000Z</time>
      </trkpt>
      <trkpt lat="46.43892" lon="4.24991">
        <ele>316.342516</ele>
        <time>2021-09-11T11:05:37.000Z</time>
      </trkpt>
      <trkpt lat="46.43889" lon="4.25015">
        <ele>316.899638</ele>
        <time>2021-09-11T11:05:43.000Z</time>
      </trkpt>
      <trkpt lat="46.43887" lon="4.25039">
        <ele>317.465912</ele>
        <time>2021-09-11T11:05:50.000Z</time>
      </trkpt>
      <trkpt lat="46.43884" lon="4.25063">
        <ele>318.03498</ele>
        <time>2021-09-11T11:05:57.000Z</time>
      </trkpt>
      <trkpt lat="46.43882" lon="4.25087">
        <ele>318.59719</ele>
        <time>2021-09-11T11:06:03.000Z</time>
      </trkpt>
      <trkpt lat="46.43877" lon="4.25118">
        <ele>319.330311</ele>
        <time>2021-09-11T11:06:09.000Z</time>
      </trkpt>
      <trkpt lat="46.43867" lon="4.25156">
        <ele>320.26274</ele>
        <time>2021-09-11T11:06:16.000Z</time>
      </trkpt>
      <trkpt lat="46.43855" lon="4.25172">
        <ele>320.824984</ele>
        <time>2021-09-11T11:06:20.000Z</time>
      </trkpt>
      <trkpt lat="46.43852" lon="4.25183">
        <ele>321.050973</ele>
        <time>2021-09-11T11:06:22.000Z</time>
      </trkpt>
      <trkpt lat="46.43852" lon="4.25189">
        <ele>321.10375</ele>
        <time>2021-09-11T11:06:23.000Z</time>
      </trkpt>
      <trkpt lat="46.43853" lon="4.25195">
        <ele>321.149399</ele>
        <time>2021-09-11T11:06:24.000Z</time>
      </trkpt>
      <trkpt lat="46.43859" lon="4.25209">
        <ele>321.275927</ele>
        <time>2021-09-11T11:06:27.000Z</time>
      </trkpt>
      <trkpt lat="46.43863" lon="4.25222">
        <ele>321.381194</ele>
        <time>2021-09-11T11:06:29.000Z</time>
      </trkpt>
      <trkpt lat="46.43863" lon="4.25236">
        <ele>321.490016</ele>
        <time>2021-09-11T11:06:31.000Z</time>
      </trkpt>
      <trkpt lat="46.43862" lon="4.25242">
        <ele>321.537146</ele>
        <time>2021-09-11T11:06:32.000Z</time>
      </trkpt>
      <trkpt lat="46.43858" lon="4.25291">
        <ele>321.921912</ele>
        <time>2021-09-11T11:06:40.000Z</time>
      </trkpt>
      <trkpt lat="46.43852" lon="4.25347">
        <ele>322.360575</ele>
        <time>2021-09-11T11:06:48.000Z</time>
      </trkpt>
      <trkpt lat="46.43847" lon="4.25392">
        <ele>322.711005</ele>
        <time>2021-09-11T11:06:54.000Z</time>
      </trkpt>
      <trkpt lat="46.43845" lon="4.25407">
        <ele>322.829085</ele>
        <time>2021-09-11T11:06:56.000Z</time>
      </trkpt>
      <trkpt lat="46.43838" lon="4.25471">
        <ele>323.099248</ele>
        <time>2021-09-11T11:07:04.000Z</time>
      </trkpt>
      <trkpt lat="46.43832" lon="4.25525">
        <ele>323.187045</ele>
        <time>2021-09-11T11:07:11.000Z</time>
      </trkpt>
      <trkpt lat="46.4383" lon="4.2554">
        <ele>323.211078</ele>
        <time>2021-09-11T11:07:13.000Z</time>
      </trkpt>
      <trkpt lat="46.43827" lon="4.2557">
        <ele>323.2593</ele>
        <time>2021-09-11T11:07:17.000Z</time>
      </trkpt>
      <trkpt lat="46.43819" lon="4.25638">
        <ele>323.367156</ele>
        <time>2021-09-11T11:07:25.000Z</time>
      </trkpt>
      <trkpt lat="46.4381" lon="4.25719">
        <ele>323.34735</ele>
        <time>2021-09-11T11:07:34.000Z</time>
      </trkpt>
      <trkpt lat="46.43809" lon="4.25728">
        <ele>323.312995</ele>
        <time>2021-09-11T11:07:35.000Z</time>
      </trkpt>
      <trkpt lat="46.43804" lon="4.25773">
        <ele>323.134872</ele>
        <time>2021-09-11T11:07:40.000Z</time>
      </trkpt>
      <trkpt lat="46.43803" lon="4.25782">
        <ele>323.097812</ele>
        <time>2021-09-11T11:07:41.000Z</time>
      </trkpt>
      <trkpt lat="46.43796" lon="4.25853">
        <ele>322.819626</ele>
        <time>2021-09-11T11:07:48.000Z</time>
      </trkpt>
      <trkpt lat="46.43789" lon="4.25917">
        <ele>322.56473</ele>
        <time>2021-09-11T11:07:53.000Z</time>
      </trkpt>
      <trkpt lat="46.4378" lon="4.26003">
        <ele>322.397458</ele>
        <time>2021-09-11T11:07:59.000Z</time>
      </trkpt>
      <trkpt lat="46.43773" lon="4.26063">
        <ele>322.355087</ele>
        <time>2021-09-11T11:08:04.000Z</time>
      </trkpt>
      <trkpt lat="46.43769" lon="4.26107">
        <ele>322.32427</ele>
        <time>2021-09-11T11:08:09.000Z</time>
      </trkpt>
      <trkpt lat="46.43765" lon="4.26143">
        <ele>322.298535</ele>
        <time>2021-09-11T11:08:15.000Z</time>
      </trkpt>
      <trkpt lat="46.4376" lon="4.26187">
        <ele>322.267565</ele>
        <time>2021-09-11T11:08:24.000Z</time>
      </trkpt>
      <trkpt lat="46.43757" lon="4.26221">
        <ele>322.279927</ele>
        <time>2021-09-11T11:08:31.000Z</time>
      </trkpt>
      <trkpt lat="46.43754" lon="4.2625">
        <ele>322.339189</ele>
        <time>2021-09-11T11:08:37.000Z</time>
      </trkpt>
      <trkpt lat="46.43749" lon="4.26287">
        <ele>322.415377</ele>
        <time>2021-09-11T11:08:45.000Z</time>
      </trkpt>
      <trkpt lat="46.43745" lon="4.26323">
        <ele>322.488288</ele>
        <time>2021-09-11T11:08:53.000Z</time>
      </trkpt>
      <trkpt lat="46.4374" lon="4.26369">
        <ele>322.581972</ele>
        <time>2021-09-11T11:09:01.000Z</time>
      </trkpt>
      <trkpt lat="46.43736" lon="4.26411">
        <ele>322.666274</ele>
        <time>2021-09-11T11:09:07.000Z</time>
      </trkpt>
      <trkpt lat="46.43731" lon="4.2646">
        <ele>322.766705</ele>
        <time>2021-09-11T11:09:13.000Z</time>
      </trkpt>
      <trkpt lat="46.43724" lon="4.26529">
        <ele>322.170404</ele>
        <time>2021-09-11T11:09:20.000Z</time>
      </trkpt>
      <trkpt lat="46.43715" lon="4.26609">
        <ele>321.388941</ele>
        <time>2021-09-11T11:09:27.000Z</time>
      </trkpt>
      <trkpt lat="46.43706" lon="4.26694">
        <ele>320.565686</ele>
        <time>2021-09-11T11:09:34.000Z</time>
      </trkpt>
      <trkpt lat="46.43705" lon="4.26706">
        <ele>320.446425</ele>
        <time>2021-09-11T11:09:35.000Z</time>
      </trkpt>
      <trkpt lat="46.43698" lon="4.26768">
        <ele>319.575548</ele>
        <time>2021-09-11T11:09:40.000Z</time>
      </trkpt>
      <trkpt lat="46.43692" lon="4.2683">
        <ele>318.568183</ele>
        <time>2021-09-11T11:09:45.000Z</time>
      </trkpt>
      <trkpt lat="46.43682" lon="4.26919">
        <ele>317.143638</ele>
        <time>2021-09-11T11:09:52.000Z</time>
      </trkpt>
      <trkpt lat="46.43681" lon="4.26932">
        <ele>316.946448</ele>
        <time>2021-09-11T11:09:53.000Z</time>
      </trkpt>
      <trkpt lat="46.43672" lon="4.27018">
        <ele>315.106606</ele>
        <time>2021-09-11T11:10:00.000Z</time>
      </trkpt>
      <trkpt lat="46.43663" lon="4.27104">
        <ele>312.634421</ele>
        <time>2021-09-11T11:10:07.000Z</time>
      </trkpt>
      <trkpt lat="46.43656" lon="4.27175">
        <ele>310.614939</ele>
        <time>2021-09-11T11:10:13.000Z</time>
      </trkpt>
      <trkpt lat="46.43653" lon="4.27197">
        <ele>309.972686</ele>
        <time>2021-09-11T11:10:15.000Z</time>
      </trkpt>
      <trkpt lat="46.43644" lon="4.27219">
        <ele>309.272948</ele>
        <time>2021-09-11T11:10:17.000Z</time>
      </trkpt>
      <trkpt lat="46.43612" lon="4.2725">
        <ele>306.954727</ele>
        <time>2021-09-11T11:10:22.000Z</time>
      </trkpt>
      <trkpt lat="46.43597" lon="4.27265">
        <ele>305.683911</ele>
        <time>2021-09-11T11:10:25.000Z</time>
      </trkpt>
      <trkpt lat="46.43588" lon="4.27274">
        <ele>304.886286</ele>
        <time>2021-09-11T11:10:27.000Z</time>
      </trkpt>
      <trkpt lat="46.4356" lon="4.27302">
        <ele>302.565202</ele>
        <time>2021-09-11T11:10:32.000Z</time>
      </trkpt>
      <trkpt lat="46.43516" lon="4.27342">
        <ele>298.966216</ele>
        <time>2021-09-11T11:10:39.000Z</time>
      </trkpt>
      <trkpt lat="46.43482" lon="4.27361">
        <ele>296.455092</ele>
        <time>2021-09-11T11:10:44.000Z</time>
      </trkpt>
      <trkpt lat="46.43471" lon="4.27371">
        <ele>295.716874</ele>
        <time>2021-09-11T11:10:46.000Z</time>
      </trkpt>
      <trkpt lat="46.43464" lon="4.27381">
        <ele>295.175769</ele>
        <time>2021-09-11T11:10:48.000Z</time>
      </trkpt>
      <trkpt lat="46.4346" lon="4.27387">
        <ele>294.828469</ele>
        <time>2021-09-11T11:10:52.000Z</time>
      </trkpt>
      <trkpt lat="46.4346" lon="4.27387">
        <ele>294.828469</ele>
        <time>2021-09-11T11:10:53.000Z</time>
      </trkpt>
      <trkpt lat="46.43457" lon="4.27392">
        <ele>294.602255</ele>
        <time>2021-09-11T11:11:20.000Z</time>
      </trkpt>
      <trkpt lat="46.43455" lon="4.27395">
        <ele>294.442648</ele>
        <time>2021-09-11T11:11:22.000Z</time>
      </trkpt>
      <trkpt lat="46.43447" lon="4.27406">
        <ele>293.828373</ele>
        <time>2021-09-11T11:11:28.000Z</time>
      </trkpt>
      <trkpt lat="46.43437" lon="4.27423">
        <ele>292.957389</ele>
        <time>2021-09-11T11:11:35.000Z</time>
      </trkpt>
      <trkpt lat="46.43426" lon="4.27439">
        <ele>292.100989</ele>
        <time>2021-09-11T11:11:42.000Z</time>
      </trkpt>
      <trkpt lat="46.43418" lon="4.2745">
        <ele>291.483993</ele>
        <time>2021-09-11T11:11:47.000Z</time>
      </trkpt>
      <trkpt lat="46.43415" lon="4.27455">
        <ele>291.253933</ele>
        <time>2021-09-11T11:11:49.000Z</time>
      </trkpt>
      <trkpt lat="46.43412" lon="4.27459">
        <ele>291.019247</ele>
        <time>2021-09-11T11:11:51.000Z</time>
      </trkpt>
      <trkpt lat="46.43408" lon="4.27466">
        <ele>290.686799</ele>
        <time>2021-09-11T11:11:54.000Z</time>
      </trkpt>
      <trkpt lat="46.43408" lon="4.27468">
        <ele>290.607824</ele>
        <time>2021-09-11T11:11:55.000Z</time>
      </trkpt>
      <trkpt lat="46.43405" lon="4.27472">
        <ele>290.380332</ele>
        <time>2021-09-11T11:11:58.000Z</time>
      </trkpt>
      <trkpt lat="46.43404" lon="4.27474">
        <ele>290.310788</ele>
        <time>2021-09-11T11:11:59.000Z</time>
      </trkpt>
      <trkpt lat="46.43404" lon="4.27487">
        <ele>289.786436</ele>
        <time>2021-09-11T11:12:04.000Z</time>
      </trkpt>
      <trkpt lat="46.43413" lon="4.27508">
        <ele>288.8343</ele>
        <time>2021-09-11T11:12:10.000Z</time>
      </trkpt>
      <trkpt lat="46.43417" lon="4.27517">
        <ele>288.431098</ele>
        <time>2021-09-11T11:12:12.000Z</time>
      </trkpt>
      <trkpt lat="46.43424" lon="4.27526">
        <ele>287.923901</ele>
        <time>2021-09-11T11:12:14.000Z</time>
      </trkpt>
      <trkpt lat="46.43449" lon="4.27561">
        <ele>286.46092</ele>
        <time>2021-09-11T11:12:23.000Z</time>
      </trkpt>
      <trkpt lat="46.4345" lon="4.27565">
        <ele>286.512753</ele>
        <time>2021-09-11T11:12:24.000Z</time>
      </trkpt>
      <trkpt lat="46.43454" lon="4.27579">
        <ele>286.686881</ele>
        <time>2021-09-11T11:12:27.000Z</time>
      </trkpt>
      <trkpt lat="46.4346" lon="4.27598">
        <ele>286.950063</ele>
        <time>2021-09-11T11:12:32.000Z</time>
      </trkpt>
      <trkpt lat="46.43468" lon="4.27618">
        <ele>287.218323</ele>
        <time>2021-09-11T11:12:38.000Z</time>
      </trkpt>
      <trkpt lat="46.43471" lon="4.27623">
        <ele>287.305556</ele>
        <time>2021-09-11T11:12:40.000Z</time>
      </trkpt>
      <trkpt lat="46.43472" lon="4.27625">
        <ele>287.338372</ele>
        <time>2021-09-11T11:12:41.000Z</time>
      </trkpt>
      <trkpt lat="46.43473" lon="4.27628">
        <ele>287.373073</ele>
        <time>2021-09-11T11:12:45.000Z</time>
      </trkpt>
      <trkpt lat="46.43479" lon="4.27638">
        <ele>287.523765</ele>
        <time>2021-09-11T11:27:07.000Z</time>
      </trkpt>
      <trkpt lat="46.43484" lon="4.27648">
        <ele>287.684428</ele>
        <time>2021-09-11T11:27:12.000Z</time>
      </trkpt>
      <trkpt lat="46.43495" lon="4.27667">
        <ele>287.974032</ele>
        <time>2021-09-11T11:27:18.000Z</time>
      </trkpt>
      <trkpt lat="46.43503" lon="4.27681">
        <ele>288.197091</ele>
        <time>2021-09-11T11:27:23.000Z</time>
      </trkpt>
      <trkpt lat="46.43509" lon="4.27691">
        <ele>288.364332</ele>
        <time>2021-09-11T11:27:28.000Z</time>
      </trkpt>
      <trkpt lat="46.43514" lon="4.27703">
        <ele>288.52784</ele>
        <time>2021-09-11T11:27:33.000Z</time>
      </trkpt>
      <trkpt lat="46.4352" lon="4.27724">
        <ele>288.796862</ele>
        <time>2021-09-11T11:27:38.000Z</time>
      </trkpt>
      <trkpt lat="46.4353" lon="4.27759">
        <ele>289.251341</ele>
        <time>2021-09-11T11:27:44.000Z</time>
      </trkpt>
      <trkpt lat="46.43536" lon="4.27777">
        <ele>289.475207</ele>
        <time>2021-09-11T11:27:47.000Z</time>
      </trkpt>
      <trkpt lat="46.43539" lon="4.27783">
        <ele>289.395034</ele>
        <time>2021-09-11T11:27:48.000Z</time>
      </trkpt>
      <trkpt lat="46.43541" lon="4.27789">
        <ele>289.322261</ele>
        <time>2021-09-11T11:27:49.000Z</time>
      </trkpt>
      <trkpt lat="46.43553" lon="4.27808">
        <ele>289.032143</ele>
        <time>2021-09-11T11:27:53.000Z</time>
      </trkpt>
      <trkpt lat="46.4357" lon="4.27832">
        <ele>288.647534</ele>
        <time>2021-09-11T11:27:59.000Z</time>
      </trkpt>
      <trkpt lat="46.4359" lon="4.27853">
        <ele>288.235019</ele>
        <time>2021-09-11T11:28:07.000Z</time>
      </trkpt>
      <trkpt lat="46.43609" lon="4.27872">
        <ele>287.864069</ele>
        <time>2021-09-11T11:28:13.000Z</time>
      </trkpt>
      <trkpt lat="46.43628" lon="4.27896">
        <ele>287.453548</ele>
        <time>2021-09-11T11:28:20.000Z</time>
      </trkpt>
      <trkpt lat="46.43638" lon="4.27908">
        <ele>287.229655</ele>
        <time>2021-09-11T11:28:25.000Z</time>
      </trkpt>
      <trkpt lat="46.43642" lon="4.27902">
        <ele>287.151637</ele>
        <time>2021-09-11T11:28:26.000Z</time>
      </trkpt>
      <trkpt lat="46.43645" lon="4.27897">
        <ele>287.070508</ele>
        <time>2021-09-11T11:28:28.000Z</time>
      </trkpt>
      <trkpt lat="46.43648" lon="4.27882">
        <ele>286.887608</ele>
        <time>2021-09-11T11:28:31.000Z</time>
      </trkpt>
      <trkpt lat="46.43647" lon="4.27874">
        <ele>286.804073</ele>
        <time>2021-09-11T11:28:32.000Z</time>
      </trkpt>
      <trkpt lat="46.43646" lon="4.27872">
        <ele>286.777915</ele>
        <time>2021-09-11T11:28:33.000Z</time>
      </trkpt>
      <trkpt lat="46.43637" lon="4.27852">
        <ele>286.51881</ele>
        <time>2021-09-11T11:28:37.000Z</time>
      </trkpt>
      <trkpt lat="46.43632" lon="4.27817">
        <ele>286.310351</ele>
        <time>2021-09-11T11:28:45.000Z</time>
      </trkpt>
      <trkpt lat="46.43629" lon="4.27801">
        <ele>286.218518</ele>
        <time>2021-09-11T11:28:49.000Z</time>
      </trkpt>
      <trkpt lat="46.43631" lon="4.27802">
        <ele>286.202487</ele>
        <time>2021-09-11T11:28:51.000Z</time>
      </trkpt>
      <trkpt lat="46.43633" lon="4.27826">
        <ele>286.060446</ele>
        <time>2021-09-11T11:28:56.000Z</time>
      </trkpt>
      <trkpt lat="46.43639" lon="4.27865">
        <ele>285.83333</ele>
        <time>2021-09-11T11:29:03.000Z</time>
      </trkpt>
      <trkpt lat="46.43633" lon="4.27868">
        <ele>285.781282</ele>
        <time>2021-09-11T11:29:04.000Z</time>
      </trkpt>
      <trkpt lat="46.43626" lon="4.2788">
        <ele>285.687993</ele>
        <time>2021-09-11T11:29:07.000Z</time>
      </trkpt>
      <trkpt lat="46.43626" lon="4.27893">
        <ele>285.615152</ele>
        <time>2021-09-11T11:29:09.000Z</time>
      </trkpt>
      <trkpt lat="46.43629" lon="4.27897">
        <ele>285.58119</ele>
        <time>2021-09-11T11:29:10.000Z</time>
      </trkpt>
      <trkpt lat="46.43632" lon="4.279">
        <ele>285.549613</ele>
        <time>2021-09-11T11:29:11.000Z</time>
      </trkpt>
      <trkpt lat="46.43644" lon="4.27915">
        <ele>285.413979</ele>
        <time>2021-09-11T11:29:15.000Z</time>
      </trkpt>
      <trkpt lat="46.43661" lon="4.27941">
        <ele>285.209888</ele>
        <time>2021-09-11T11:29:21.000Z</time>
      </trkpt>
      <trkpt lat="46.4368" lon="4.27961">
        <ele>285.017242</ele>
        <time>2021-09-11T11:29:27.000Z</time>
      </trkpt>
      <trkpt lat="46.43705" lon="4.27982">
        <ele>284.846865</ele>
        <time>2021-09-11T11:29:34.000Z</time>
      </trkpt>
      <trkpt lat="46.43709" lon="4.27985">
        <ele>284.820799</ele>
        <time>2021-09-11T11:29:35.000Z</time>
      </trkpt>
      <trkpt lat="46.43722" lon="4.27999">
        <ele>284.727331</ele>
        <time>2021-09-11T11:29:39.000Z</time>
      </trkpt>
      <trkpt lat="46.43739" lon="4.28005">
        <ele>284.630995</ele>
        <time>2021-09-11T11:29:44.000Z</time>
      </trkpt>
      <trkpt lat="46.43762" lon="4.28016">
        <ele>284.486415</ele>
        <time>2021-09-11T11:29:49.000Z</time>
      </trkpt>
      <trkpt lat="46.43779" lon="4.28023">
        <ele>284.38672</ele>
        <time>2021-09-11T11:29:52.000Z</time>
      </trkpt>
      <trkpt lat="46.43797" lon="4.28031">
        <ele>284.278814</ele>
        <time>2021-09-11T11:29:55.000Z</time>
      </trkpt>
      <trkpt lat="46.43832" lon="4.28046">
        <ele>284.066985</ele>
        <time>2021-09-11T11:30:01.000Z</time>
      </trkpt>
      <trkpt lat="46.43841" lon="4.28052">
        <ele>284.011976</ele>
        <time>2021-09-11T11:30:03.000Z</time>
      </trkpt>
      <trkpt lat="46.43846" lon="4.28055">
        <ele>283.994355</ele>
        <time>2021-09-11T11:30:04.000Z</time>
      </trkpt>
      <trkpt lat="46.43879" lon="4.28076">
        <ele>284.198496</ele>
        <time>2021-09-11T11:30:11.000Z</time>
      </trkpt>
      <trkpt lat="46.43904" lon="4.28091">
        <ele>284.352522</ele>
        <time>2021-09-11T11:30:17.000Z</time>
      </trkpt>
      <trkpt lat="46.43908" lon="4.28095">
        <ele>284.379842</ele>
        <time>2021-09-11T11:30:18.000Z</time>
      </trkpt>
      <trkpt lat="46.43919" lon="4.28106">
        <ele>284.45746</ele>
        <time>2021-09-11T11:30:21.000Z</time>
      </trkpt>
      <trkpt lat="46.43925" lon="4.28112">
        <ele>284.497181</ele>
        <time>2021-09-11T11:30:23.000Z</time>
      </trkpt>
      <trkpt lat="46.4393" lon="4.28122">
        <ele>284.543434</ele>
        <time>2021-09-11T11:30:25.000Z</time>
      </trkpt>
      <trkpt lat="46.43937" lon="4.28136">
        <ele>284.612573</ele>
        <time>2021-09-11T11:30:28.000Z</time>
      </trkpt>
      <trkpt lat="46.43949" lon="4.28176">
        <ele>284.778765</ele>
        <time>2021-09-11T11:30:35.000Z</time>
      </trkpt>
      <trkpt lat="46.43952" lon="4.28192">
        <ele>284.845925</ele>
        <time>2021-09-11T11:30:39.000Z</time>
      </trkpt>
      <trkpt lat="46.43959" lon="4.28203">
        <ele>284.900883</ele>
        <time>2021-09-11T11:30:41.000Z</time>
      </trkpt>
      <trkpt lat="46.43961" lon="4.28199">
        <ele>284.920547</ele>
        <time>2021-09-11T11:30:43.000Z</time>
      </trkpt>
      <trkpt lat="46.43963" lon="4.28195">
        <ele>284.940031</ele>
        <time>2021-09-11T11:30:44.000Z</time>
      </trkpt>
      <trkpt lat="46.43961" lon="4.28179">
        <ele>285.001762</ele>
        <time>2021-09-11T11:30:50.000Z</time>
      </trkpt>
      <trkpt lat="46.4396" lon="4.28158">
        <ele>284.973111</ele>
        <time>2021-09-11T11:30:56.000Z</time>
      </trkpt>
      <trkpt lat="46.43961" lon="4.28131">
        <ele>284.934253</ele>
        <time>2021-09-11T11:31:03.000Z</time>
      </trkpt>
      <trkpt lat="46.43965" lon="4.28118">
        <ele>284.914313</ele>
        <time>2021-09-11T11:31:08.000Z</time>
      </trkpt>
      <trkpt lat="46.43965" lon="4.28118">
        <ele>284.913837</ele>
        <time>2021-09-11T11:31:11.000Z</time>
      </trkpt>
      <trkpt lat="46.4397" lon="4.28105">
        <ele>284.893549</ele>
        <time>2021-09-11T11:34:10.000Z</time>
      </trkpt>
      <trkpt lat="46.43971" lon="4.28103">
        <ele>284.889195</ele>
        <time>2021-09-11T11:34:11.000Z</time>
      </trkpt>
      <trkpt lat="46.43974" lon="4.28098">
        <ele>284.878945</ele>
        <time>2021-09-11T11:34:14.000Z</time>
      </trkpt>
      <trkpt lat="46.4398" lon="4.28091">
        <ele>284.864072</ele>
        <time>2021-09-11T11:34:16.000Z</time>
      </trkpt>
      <trkpt lat="46.43973" lon="4.281">
        <ele>284.844917</ele>
        <time>2021-09-11T11:34:19.000Z</time>
      </trkpt>
      <trkpt lat="46.4397" lon="4.28103">
        <ele>284.838013</ele>
        <time>2021-09-11T11:34:20.000Z</time>
      </trkpt>
      <trkpt lat="46.43979" lon="4.28092">
        <ele>284.813391</ele>
        <time>2021-09-11T11:34:25.000Z</time>
      </trkpt>
      <trkpt lat="46.43987" lon="4.28083">
        <ele>284.792928</ele>
        <time>2021-09-11T11:34:30.000Z</time>
      </trkpt>
      <trkpt lat="46.43993" lon="4.28076">
        <ele>284.77608</ele>
        <time>2021-09-11T11:34:35.000Z</time>
      </trkpt>
      <trkpt lat="46.43997" lon="4.28074">
        <ele>284.768123</ele>
        <time>2021-09-11T11:34:39.000Z</time>
      </trkpt>
      <trkpt lat="46.43999" lon="4.28074">
        <ele>284.764797</ele>
        <time>2021-09-11T11:34:41.000Z</time>
      </trkpt>
      <trkpt lat="46.44" lon="4.28075">
        <ele>284.763116</ele>
        <time>2021-09-11T11:34:42.000Z</time>
      </trkpt>
      <trkpt lat="46.44007" lon="4.28076">
        <ele>284.747825</ele>
        <time>2021-09-11T11:34:46.000Z</time>
      </trkpt>
      <trkpt lat="46.44014" lon="4.28083">
        <ele>284.729732</ele>
        <time>2021-09-11T11:34:52.000Z</time>
      </trkpt>
      <trkpt lat="46.44019" lon="4.2809">
        <ele>284.715475</ele>
        <time>2021-09-11T11:34:58.000Z</time>
      </trkpt>
      <trkpt lat="46.44017" lon="4.28088">
        <ele>284.711127</ele>
        <time>2021-09-11T11:36:06.000Z</time>
      </trkpt>
      <trkpt lat="46.44015" lon="4.28083">
        <ele>284.701931</ele>
        <time>2021-09-11T11:36:08.000Z</time>
      </trkpt>
      <trkpt lat="46.44001" lon="4.28075">
        <ele>284.672192</ele>
        <time>2021-09-11T11:36:14.000Z</time>
      </trkpt>
      <trkpt lat="46.4399" lon="4.28064">
        <ele>284.644168</ele>
        <time>2021-09-11T11:36:20.000Z</time>
      </trkpt>
      <trkpt lat="46.43983" lon="4.2806">
        <ele>284.630214</ele>
        <time>2021-09-11T11:36:24.000Z</time>
      </trkpt>
      <trkpt lat="46.43982" lon="4.28059">
        <ele>284.630214</ele>
        <time>2021-09-11T11:36:25.000Z</time>
      </trkpt>
      <trkpt lat="46.43989" lon="4.2808">
        <ele>284.630214</ele>
        <time>2021-09-11T11:36:27.000Z</time>
      </trkpt>
      <trkpt lat="46.43988" lon="4.28082">
        <ele>284.630214</ele>
        <time>2021-09-11T11:36:29.000Z</time>
      </trkpt>
      <trkpt lat="46.43988" lon="4.28082">
        <ele>284.630214</ele>
        <time>2021-09-11T11:36:31.000Z</time>
      </trkpt>
      <trkpt lat="46.43992" lon="4.28076">
        <ele>284.630214</ele>
        <time>2021-09-11T11:36:43.000Z</time>
      </trkpt>
      <trkpt lat="46.43992" lon="4.28065">
        <ele>284.630214</ele>
        <time>2021-09-11T11:36:46.000Z</time>
      </trkpt>
      <trkpt lat="46.43995" lon="4.2807">
        <ele>284.630214</ele>
        <time>2021-09-11T11:36:48.000Z</time>
      </trkpt>
      <trkpt lat="46.43993" lon="4.28076">
        <ele>284.630214</ele>
        <time>2021-09-11T11:36:51.000Z</time>
      </trkpt>
      <trkpt lat="46.43991" lon="4.28078">
        <ele>284.630214</ele>
        <time>2021-09-11T11:36:53.000Z</time>
      </trkpt>
      <trkpt lat="46.43983" lon="4.28088">
        <ele>284.630214</ele>
        <time>2021-09-11T11:36:59.000Z</time>
      </trkpt>
      <trkpt lat="46.43974" lon="4.28099">
        <ele>284.630214</ele>
        <time>2021-09-11T11:37:05.000Z</time>
      </trkpt>
      <trkpt lat="46.43967" lon="4.28111">
        <ele>284.630214</ele>
        <time>2021-09-11T11:37:10.000Z</time>
      </trkpt>
      <trkpt lat="46.43967" lon="4.28128">
        <ele>284.630214</ele>
        <time>2021-09-11T11:37:14.000Z</time>
      </trkpt>
      <trkpt lat="46.43968" lon="4.28129">
        <ele>284.630214</ele>
        <time>2021-09-11T11:37:32.000Z</time>
      </trkpt>
      <trkpt lat="46.43969" lon="4.28132">
        <ele>284.630214</ele>
        <time>2021-09-11T11:37:34.000Z</time>
      </trkpt>
      <trkpt lat="46.43973" lon="4.28137">
        <ele>284.630214</ele>
        <time>2021-09-11T11:37:37.000Z</time>
      </trkpt>
      <trkpt lat="46.43974" lon="4.28139">
        <ele>284.630214</ele>
        <time>2021-09-11T11:37:38.000Z</time>
      </trkpt>
    </trkseg>
  </trk>
  <trk>
    <name><![CDATA[Étape 8 : Charolles - Mâcon]]></name>
    <extensions>
      <line xmlns="http://www.topografix.com/GPX/gpx_style/0/2">
        <color>880000</color>
        <width>4</width>
      </line>
    </extensions>
    <trkseg>
      <trkpt lat="46.43961" lon="4.28173">
        <ele>290.567234</ele>
        <time>2021-09-12T05:38:43.000Z</time>
      </trkpt>
      <trkpt lat="46.43962" lon="4.28193">
        <ele>290.567234</ele>
        <time>2021-09-12T05:38:48.000Z</time>
      </trkpt>
      <trkpt lat="46.43961" lon="4.28199">
        <ele>290.567234</ele>
        <time>2021-09-12T05:38:49.000Z</time>
      </trkpt>
      <trkpt lat="46.43962" lon="4.28192">
        <ele>290.567234</ele>
        <time>2021-09-12T05:38:51.000Z</time>
      </trkpt>
      <trkpt lat="46.43952" lon="4.2819">
        <ele>290.567234</ele>
        <time>2021-09-12T05:38:52.000Z</time>
      </trkpt>
      <trkpt lat="46.43947" lon="4.28169">
        <ele>290.567234</ele>
        <time>2021-09-12T05:38:56.000Z</time>
      </trkpt>
      <trkpt lat="46.4394" lon="4.28143">
        <ele>290.567234</ele>
        <time>2021-09-12T05:39:01.000Z</time>
      </trkpt>
      <trkpt lat="46.43938" lon="4.28137">
        <ele>290.567234</ele>
        <time>2021-09-12T05:39:02.000Z</time>
      </trkpt>
      <trkpt lat="46.43935" lon="4.28132">
        <ele>290.567234</ele>
        <time>2021-09-12T05:39:03.000Z</time>
      </trkpt>
      <trkpt lat="46.43927" lon="4.28115">
        <ele>290.551424</ele>
        <time>2021-09-12T05:39:06.000Z</time>
      </trkpt>
      <trkpt lat="46.43924" lon="4.28111">
        <ele>290.525115</ele>
        <time>2021-09-12T05:39:07.000Z</time>
      </trkpt>
      <trkpt lat="46.43916" lon="4.28103">
        <ele>290.460237</ele>
        <time>2021-09-12T05:39:09.000Z</time>
      </trkpt>
      <trkpt lat="46.43902" lon="4.2809">
        <ele>290.355213</ele>
        <time>2021-09-12T05:39:12.000Z</time>
      </trkpt>
      <trkpt lat="46.43868" lon="4.28069">
        <ele>290.116976</ele>
        <time>2021-09-12T05:39:18.000Z</time>
      </trkpt>
      <trkpt lat="46.43826" lon="4.28043">
        <ele>289.824521</ele>
        <time>2021-09-12T05:39:25.000Z</time>
      </trkpt>
      <trkpt lat="46.43778" lon="4.28023">
        <ele>289.505749</ele>
        <time>2021-09-12T05:39:33.000Z</time>
      </trkpt>
      <trkpt lat="46.43743" lon="4.28007">
        <ele>289.747567</ele>
        <time>2021-09-12T05:39:40.000Z</time>
      </trkpt>
      <trkpt lat="46.43726" lon="4.27999">
        <ele>290.01837</ele>
        <time>2021-09-12T05:39:45.000Z</time>
      </trkpt>
      <trkpt lat="46.4372" lon="4.27999">
        <ele>290.109324</ele>
        <time>2021-09-12T05:39:48.000Z</time>
      </trkpt>
      <trkpt lat="46.4372" lon="4.27999">
        <ele>290.109324</ele>
        <time>2021-09-12T05:39:49.000Z</time>
      </trkpt>
      <trkpt lat="46.43721" lon="4.28001">
        <ele>290.136239</ele>
        <time>2021-09-12T05:39:50.000Z</time>
      </trkpt>
      <trkpt lat="46.43723" lon="4.28006">
        <ele>290.190069</ele>
        <time>2021-09-12T05:39:52.000Z</time>
      </trkpt>
      <trkpt lat="46.43727" lon="4.28018">
        <ele>290.333475</ele>
        <time>2021-09-12T05:39:58.000Z</time>
      </trkpt>
      <trkpt lat="46.4373" lon="4.28027">
        <ele>290.437938</ele>
        <time>2021-09-12T05:40:04.000Z</time>
      </trkpt>
      <trkpt lat="46.4373" lon="4.28029">
        <ele>290.455261</ele>
        <time>2021-09-12T05:40:05.000Z</time>
      </trkpt>
      <trkpt lat="46.43732" lon="4.28045">
        <ele>290.62673</ele>
        <time>2021-09-12T05:40:12.000Z</time>
      </trkpt>
      <trkpt lat="46.43729" lon="4.28074">
        <ele>290.929185</ele>
        <time>2021-09-12T05:40:19.000Z</time>
      </trkpt>
      <trkpt lat="46.43722" lon="4.28111">
        <ele>291.326821</ele>
        <time>2021-09-12T05:40:27.000Z</time>
      </trkpt>
      <trkpt lat="46.43717" lon="4.28159">
        <ele>291.837527</ele>
        <time>2021-09-12T05:40:37.000Z</time>
      </trkpt>
      <trkpt lat="46.43718" lon="4.28204">
        <ele>292.494459</ele>
        <time>2021-09-12T05:40:46.000Z</time>
      </trkpt>
      <trkpt lat="46.43719" lon="4.28239">
        <ele>293.245216</ele>
        <time>2021-09-12T05:40:53.000Z</time>
      </trkpt>
      <trkpt lat="46.4372" lon="4.28282">
        <ele>294.19236</ele>
        <time>2021-09-12T05:41:02.000Z</time>
      </trkpt>
      <trkpt lat="46.43725" lon="4.2832">
        <ele>295.016339</ele>
        <time>2021-09-12T05:41:10.000Z</time>
      </trkpt>
      <trkpt lat="46.43731" lon="4.28357">
        <ele>295.849189</ele>
        <time>2021-09-12T05:41:18.000Z</time>
      </trkpt>
      <trkpt lat="46.43737" lon="4.28391">
        <ele>296.596096</ele>
        <time>2021-09-12T05:41:25.000Z</time>
      </trkpt>
      <trkpt lat="46.43743" lon="4.28429">
        <ele>297.446631</ele>
        <time>2021-09-12T05:41:33.000Z</time>
      </trkpt>
      <trkpt lat="46.4375" lon="4.28471">
        <ele>298.126109</ele>
        <time>2021-09-12T05:41:41.000Z</time>
      </trkpt>
      <trkpt lat="46.43757" lon="4.28514">
        <ele>298.647566</ele>
        <time>2021-09-12T05:41:48.000Z</time>
      </trkpt>
      <trkpt lat="46.43766" lon="4.28569">
        <ele>299.309834</ele>
        <time>2021-09-12T05:41:56.000Z</time>
      </trkpt>
      <trkpt lat="46.43775" lon="4.28622">
        <ele>299.959072</ele>
        <time>2021-09-12T05:42:04.000Z</time>
      </trkpt>
      <trkpt lat="46.43784" lon="4.28672">
        <ele>300.56072</ele>
        <time>2021-09-12T05:42:11.000Z</time>
      </trkpt>
      <trkpt lat="46.43795" lon="4.2874">
        <ele>301.225423</ele>
        <time>2021-09-12T05:42:20.000Z</time>
      </trkpt>
      <trkpt lat="46.43809" lon="4.2882">
        <ele>301.872585</ele>
        <time>2021-09-12T05:42:30.000Z</time>
      </trkpt>
      <trkpt lat="46.4382" lon="4.28889">
        <ele>302.439214</ele>
        <time>2021-09-12T05:42:39.000Z</time>
      </trkpt>
      <trkpt lat="46.4383" lon="4.28948">
        <ele>302.920148</ele>
        <time>2021-09-12T05:42:47.000Z</time>
      </trkpt>
      <trkpt lat="46.4384" lon="4.29004">
        <ele>303.992799</ele>
        <time>2021-09-12T05:42:55.000Z</time>
      </trkpt>
      <trkpt lat="46.43845" lon="4.29036">
        <ele>304.622916</ele>
        <time>2021-09-12T05:43:00.000Z</time>
      </trkpt>
      <trkpt lat="46.43847" lon="4.29047">
        <ele>304.850156</ele>
        <time>2021-09-12T05:43:02.000Z</time>
      </trkpt>
      <trkpt lat="46.43853" lon="4.29085">
        <ele>305.60995</ele>
        <time>2021-09-12T05:43:09.000Z</time>
      </trkpt>
      <trkpt lat="46.43859" lon="4.29121">
        <ele>306.321903</ele>
        <time>2021-09-12T05:43:16.000Z</time>
      </trkpt>
      <trkpt lat="46.43865" lon="4.29153">
        <ele>306.96586</ele>
        <time>2021-09-12T05:43:23.000Z</time>
      </trkpt>
      <trkpt lat="46.43871" lon="4.29195">
        <ele>307.7911</ele>
        <time>2021-09-12T05:43:32.000Z</time>
      </trkpt>
      <trkpt lat="46.43879" lon="4.29241">
        <ele>308.79922</ele>
        <time>2021-09-12T05:43:42.000Z</time>
      </trkpt>
      <trkpt lat="46.43886" lon="4.29278">
        <ele>309.632254</ele>
        <time>2021-09-12T05:43:50.000Z</time>
      </trkpt>
      <trkpt lat="46.43892" lon="4.29318">
        <ele>310.522917</ele>
        <time>2021-09-12T05:43:58.000Z</time>
      </trkpt>
      <trkpt lat="46.439" lon="4.29363">
        <ele>311.524634</ele>
        <time>2021-09-12T05:44:06.000Z</time>
      </trkpt>
      <trkpt lat="46.43907" lon="4.29408">
        <ele>312.529194</ele>
        <time>2021-09-12T05:44:13.000Z</time>
      </trkpt>
      <trkpt lat="46.43916" lon="4.29459">
        <ele>313.644805</ele>
        <time>2021-09-12T05:44:20.000Z</time>
      </trkpt>
      <trkpt lat="46.43926" lon="4.29522">
        <ele>313.923962</ele>
        <time>2021-09-12T05:44:28.000Z</time>
      </trkpt>
      <trkpt lat="46.43937" lon="4.29583">
        <ele>314.186458</ele>
        <time>2021-09-12T05:44:35.000Z</time>
      </trkpt>
      <trkpt lat="46.4395" lon="4.29663">
        <ele>314.530747</ele>
        <time>2021-09-12T05:44:43.000Z</time>
      </trkpt>
      <trkpt lat="46.43952" lon="4.29673">
        <ele>314.575589</ele>
        <time>2021-09-12T05:44:44.000Z</time>
      </trkpt>
      <trkpt lat="46.43966" lon="4.29755">
        <ele>314.442906</ele>
        <time>2021-09-12T05:44:52.000Z</time>
      </trkpt>
      <trkpt lat="46.43979" lon="4.29832">
        <ele>313.897289</ele>
        <time>2021-09-12T05:44:59.000Z</time>
      </trkpt>
      <trkpt lat="46.43992" lon="4.29912">
        <ele>313.329487</ele>
        <time>2021-09-12T05:45:06.000Z</time>
      </trkpt>
      <trkpt lat="46.43994" lon="4.29922">
        <ele>313.252706</ele>
        <time>2021-09-12T05:45:07.000Z</time>
      </trkpt>
      <trkpt lat="46.44" lon="4.29953">
        <ele>313.033339</ele>
        <time>2021-09-12T05:45:10.000Z</time>
      </trkpt>
      <trkpt lat="46.44004" lon="4.29973">
        <ele>312.912395</ele>
        <time>2021-09-12T05:45:12.000Z</time>
      </trkpt>
      <trkpt lat="46.44011" lon="4.30013">
        <ele>312.750565</ele>
        <time>2021-09-12T05:45:16.000Z</time>
      </trkpt>
      <trkpt lat="46.44012" lon="4.30023">
        <ele>312.71179</ele>
        <time>2021-09-12T05:45:17.000Z</time>
      </trkpt>
      <trkpt lat="46.44012" lon="4.30042">
        <ele>312.637392</ele>
        <time>2021-09-12T05:45:19.000Z</time>
      </trkpt>
      <trkpt lat="46.44008" lon="4.30058">
        <ele>312.566996</ele>
        <time>2021-09-12T05:45:21.000Z</time>
      </trkpt>
      <trkpt lat="46.44006" lon="4.3007">
        <ele>312.520719</ele>
        <time>2021-09-12T05:45:22.000Z</time>
      </trkpt>
      <trkpt lat="46.44012" lon="4.30087">
        <ele>312.445124</ele>
        <time>2021-09-12T05:45:24.000Z</time>
      </trkpt>
      <trkpt lat="46.44022" lon="4.30097">
        <ele>312.374879</ele>
        <time>2021-09-12T05:45:26.000Z</time>
      </trkpt>
      <trkpt lat="46.44024" lon="4.30105">
        <ele>312.341628</ele>
        <time>2021-09-12T05:45:27.000Z</time>
      </trkpt>
      <trkpt lat="46.44026" lon="4.30113">
        <ele>312.308018</ele>
        <time>2021-09-12T05:45:28.000Z</time>
      </trkpt>
      <trkpt lat="46.44032" lon="4.30138">
        <ele>312.205711</ele>
        <time>2021-09-12T05:45:31.000Z</time>
      </trkpt>
      <trkpt lat="46.4404" lon="4.30192">
        <ele>311.986468</ele>
        <time>2021-09-12T05:45:38.000Z</time>
      </trkpt>
      <trkpt lat="46.44046" lon="4.3023">
        <ele>312.216609</ele>
        <time>2021-09-12T05:45:44.000Z</time>
      </trkpt>
      <trkpt lat="46.44053" lon="4.30272">
        <ele>312.824169</ele>
        <time>2021-09-12T05:45:52.000Z</time>
      </trkpt>
      <trkpt lat="46.4406" lon="4.30307">
        <ele>313.345351</ele>
        <time>2021-09-12T05:46:00.000Z</time>
      </trkpt>
      <trkpt lat="46.44065" lon="4.3034">
        <ele>313.822142</ele>
        <time>2021-09-12T05:46:08.000Z</time>
      </trkpt>
      <trkpt lat="46.4407" lon="4.30367">
        <ele>314.220824</ele>
        <time>2021-09-12T05:46:15.000Z</time>
      </trkpt>
      <trkpt lat="46.44076" lon="4.30402">
        <ele>314.736354</ele>
        <time>2021-09-12T05:46:24.000Z</time>
      </trkpt>
      <trkpt lat="46.44081" lon="4.30432">
        <ele>315.177455</ele>
        <time>2021-09-12T05:46:32.000Z</time>
      </trkpt>
      <trkpt lat="46.44085" lon="4.30463">
        <ele>315.619089</ele>
        <time>2021-09-12T05:46:40.000Z</time>
      </trkpt>
      <trkpt lat="46.4409" lon="4.30498">
        <ele>316.261096</ele>
        <time>2021-09-12T05:46:48.000Z</time>
      </trkpt>
      <trkpt lat="46.44095" lon="4.30529">
        <ele>316.835072</ele>
        <time>2021-09-12T05:46:55.000Z</time>
      </trkpt>
      <trkpt lat="46.44101" lon="4.30573">
        <ele>317.633555</ele>
        <time>2021-09-12T05:47:04.000Z</time>
      </trkpt>
      <trkpt lat="46.44107" lon="4.30613">
        <ele>318.37809</ele>
        <time>2021-09-12T05:47:12.000Z</time>
      </trkpt>
      <trkpt lat="46.4411" lon="4.30667">
        <ele>319.343241</ele>
        <time>2021-09-12T05:47:20.000Z</time>
      </trkpt>
      <trkpt lat="46.44114" lon="4.30722">
        <ele>320.318491</ele>
        <time>2021-09-12T05:47:27.000Z</time>
      </trkpt>
      <trkpt lat="46.44127" lon="4.30794">
        <ele>320.751881</ele>
        <time>2021-09-12T05:47:36.000Z</time>
      </trkpt>
      <trkpt lat="46.44143" lon="4.30852">
        <ele>321.110404</ele>
        <time>2021-09-12T05:47:43.000Z</time>
      </trkpt>
      <trkpt lat="46.44164" lon="4.30928">
        <ele>321.58408</ele>
        <time>2021-09-12T05:47:52.000Z</time>
      </trkpt>
      <trkpt lat="46.44165" lon="4.30937">
        <ele>321.638453</ele>
        <time>2021-09-12T05:47:53.000Z</time>
      </trkpt>
      <trkpt lat="46.44179" lon="4.3101">
        <ele>321.824336</ele>
        <time>2021-09-12T05:48:01.000Z</time>
      </trkpt>
      <trkpt lat="46.44191" lon="4.31086">
        <ele>321.832446</ele>
        <time>2021-09-12T05:48:09.000Z</time>
      </trkpt>
      <trkpt lat="46.44193" lon="4.31096">
        <ele>321.833469</ele>
        <time>2021-09-12T05:48:10.000Z</time>
      </trkpt>
      <trkpt lat="46.44206" lon="4.31173">
        <ele>321.841707</ele>
        <time>2021-09-12T05:48:18.000Z</time>
      </trkpt>
      <trkpt lat="46.44207" lon="4.31182">
        <ele>321.842677</ele>
        <time>2021-09-12T05:48:19.000Z</time>
      </trkpt>
      <trkpt lat="46.44216" lon="4.31236">
        <ele>321.796431</ele>
        <time>2021-09-12T05:48:25.000Z</time>
      </trkpt>
      <trkpt lat="46.44217" lon="4.31245">
        <ele>321.765269</ele>
        <time>2021-09-12T05:48:26.000Z</time>
      </trkpt>
      <trkpt lat="46.44208" lon="4.31264">
        <ele>321.685667</ele>
        <time>2021-09-12T05:48:28.000Z</time>
      </trkpt>
      <trkpt lat="46.44211" lon="4.31284">
        <ele>321.614809</ele>
        <time>2021-09-12T05:48:30.000Z</time>
      </trkpt>
      <trkpt lat="46.44228" lon="4.3131">
        <ele>321.493318</ele>
        <time>2021-09-12T05:48:33.000Z</time>
      </trkpt>
      <trkpt lat="46.4423" lon="4.3132">
        <ele>321.460406</ele>
        <time>2021-09-12T05:48:34.000Z</time>
      </trkpt>
      <trkpt lat="46.4424" lon="4.31378">
        <ele>321.256258</ele>
        <time>2021-09-12T05:48:40.000Z</time>
      </trkpt>
      <trkpt lat="46.44253" lon="4.31455">
        <ele>320.990115</ele>
        <time>2021-09-12T05:48:48.000Z</time>
      </trkpt>
      <trkpt lat="46.44256" lon="4.31474">
        <ele>321.012586</ele>
        <time>2021-09-12T05:48:50.000Z</time>
      </trkpt>
      <trkpt lat="46.4427" lon="4.31555">
        <ele>321.291286</ele>
        <time>2021-09-12T05:48:59.000Z</time>
      </trkpt>
      <trkpt lat="46.4428" lon="4.31618">
        <ele>321.508844</ele>
        <time>2021-09-12T05:49:07.000Z</time>
      </trkpt>
      <trkpt lat="46.44288" lon="4.31662">
        <ele>321.660153</ele>
        <time>2021-09-12T05:49:14.000Z</time>
      </trkpt>
      <trkpt lat="46.44295" lon="4.31704">
        <ele>321.802869</ele>
        <time>2021-09-12T05:49:22.000Z</time>
      </trkpt>
      <trkpt lat="46.44302" lon="4.31743">
        <ele>322.309826</ele>
        <time>2021-09-12T05:49:30.000Z</time>
      </trkpt>
      <trkpt lat="46.4431" lon="4.31793">
        <ele>323.125274</ele>
        <time>2021-09-12T05:49:40.000Z</time>
      </trkpt>
      <trkpt lat="46.44317" lon="4.31833">
        <ele>323.781068</ele>
        <time>2021-09-12T05:49:48.000Z</time>
      </trkpt>
      <trkpt lat="46.44323" lon="4.31868">
        <ele>324.37086</ele>
        <time>2021-09-12T05:49:55.000Z</time>
      </trkpt>
      <trkpt lat="46.44331" lon="4.31915">
        <ele>325.138276</ele>
        <time>2021-09-12T05:50:04.000Z</time>
      </trkpt>
      <trkpt lat="46.44338" lon="4.3196">
        <ele>325.872962</ele>
        <time>2021-09-12T05:50:12.000Z</time>
      </trkpt>
      <trkpt lat="46.44347" lon="4.32015">
        <ele>326.693399</ele>
        <time>2021-09-12T05:50:22.000Z</time>
      </trkpt>
      <trkpt lat="46.44353" lon="4.3205">
        <ele>327.20676</ele>
        <time>2021-09-12T05:50:29.000Z</time>
      </trkpt>
      <trkpt lat="46.4436" lon="4.32092">
        <ele>327.825192</ele>
        <time>2021-09-12T05:50:38.000Z</time>
      </trkpt>
      <trkpt lat="46.44366" lon="4.32126">
        <ele>328.315523</ele>
        <time>2021-09-12T05:50:45.000Z</time>
      </trkpt>
      <trkpt lat="46.4437" lon="4.32154">
        <ele>328.729809</ele>
        <time>2021-09-12T05:50:51.000Z</time>
      </trkpt>
      <trkpt lat="46.44376" lon="4.3219">
        <ele>329.241789</ele>
        <time>2021-09-12T05:50:57.000Z</time>
      </trkpt>
      <trkpt lat="46.44383" lon="4.3223">
        <ele>329.668832</ele>
        <time>2021-09-12T05:51:02.000Z</time>
      </trkpt>
      <trkpt lat="46.44393" lon="4.32292">
        <ele>329.248782</ele>
        <time>2021-09-12T05:51:08.000Z</time>
      </trkpt>
      <trkpt lat="46.44408" lon="4.32382">
        <ele>328.642984</ele>
        <time>2021-09-12T05:51:15.000Z</time>
      </trkpt>
      <trkpt lat="46.44423" lon="4.32472">
        <ele>328.036963</ele>
        <time>2021-09-12T05:51:21.000Z</time>
      </trkpt>
      <trkpt lat="46.44426" lon="4.32488">
        <ele>327.824226</ele>
        <time>2021-09-12T05:51:22.000Z</time>
      </trkpt>
      <trkpt lat="46.44441" lon="4.3257">
        <ele>326.547354</ele>
        <time>2021-09-12T05:51:27.000Z</time>
      </trkpt>
      <trkpt lat="46.4445" lon="4.32621">
        <ele>325.763071</ele>
        <time>2021-09-12T05:51:30.000Z</time>
      </trkpt>
      <trkpt lat="46.44464" lon="4.32702">
        <ele>324.511702</ele>
        <time>2021-09-12T05:51:35.000Z</time>
      </trkpt>
      <trkpt lat="46.44466" lon="4.32717">
        <ele>324.27761</ele>
        <time>2021-09-12T05:51:36.000Z</time>
      </trkpt>
      <trkpt lat="46.44478" lon="4.32787">
        <ele>323.757518</ele>
        <time>2021-09-12T05:51:41.000Z</time>
      </trkpt>
      <trkpt lat="46.44484" lon="4.32828">
        <ele>323.514757</ele>
        <time>2021-09-12T05:51:45.000Z</time>
      </trkpt>
      <trkpt lat="46.4449" lon="4.32864">
        <ele>323.297452</ele>
        <time>2021-09-12T05:51:50.000Z</time>
      </trkpt>
      <trkpt lat="46.44496" lon="4.32902">
        <ele>323.07659</ele>
        <time>2021-09-12T05:51:57.000Z</time>
      </trkpt>
      <trkpt lat="46.44502" lon="4.32937">
        <ele>322.867519</ele>
        <time>2021-09-12T05:52:05.000Z</time>
      </trkpt>
      <trkpt lat="46.44508" lon="4.32973">
        <ele>322.651896</ele>
        <time>2021-09-12T05:52:14.000Z</time>
      </trkpt>
      <trkpt lat="46.44513" lon="4.33001">
        <ele>322.512298</ele>
        <time>2021-09-12T05:52:20.000Z</time>
      </trkpt>
      <trkpt lat="46.44519" lon="4.3304">
        <ele>322.32522</ele>
        <time>2021-09-12T05:52:27.000Z</time>
      </trkpt>
      <trkpt lat="46.44529" lon="4.33097">
        <ele>322.060522</ele>
        <time>2021-09-12T05:52:35.000Z</time>
      </trkpt>
      <trkpt lat="46.44539" lon="4.33155">
        <ele>321.784366</ele>
        <time>2021-09-12T05:52:41.000Z</time>
      </trkpt>
      <trkpt lat="46.44549" lon="4.33219">
        <ele>321.483095</ele>
        <time>2021-09-12T05:52:46.000Z</time>
      </trkpt>
      <trkpt lat="46.44565" lon="4.33312">
        <ele>320.077988</ele>
        <time>2021-09-12T05:52:52.000Z</time>
      </trkpt>
      <trkpt lat="46.44579" lon="4.33396">
        <ele>318.599635</ele>
        <time>2021-09-12T05:52:57.000Z</time>
      </trkpt>
      <trkpt lat="46.44582" lon="4.33413">
        <ele>318.30122</ele>
        <time>2021-09-12T05:52:58.000Z</time>
      </trkpt>
      <trkpt lat="46.44596" lon="4.33493">
        <ele>316.889817</ele>
        <time>2021-09-12T05:53:03.000Z</time>
      </trkpt>
      <trkpt lat="46.44601" lon="4.33524">
        <ele>316.469521</ele>
        <time>2021-09-12T05:53:05.000Z</time>
      </trkpt>
      <trkpt lat="46.44616" lon="4.33607">
        <ele>315.330818</ele>
        <time>2021-09-12T05:53:11.000Z</time>
      </trkpt>
      <trkpt lat="46.44628" lon="4.33679">
        <ele>314.340294</ele>
        <time>2021-09-12T05:53:17.000Z</time>
      </trkpt>
      <trkpt lat="46.44641" lon="4.33755">
        <ele>313.407857</ele>
        <time>2021-09-12T05:53:24.000Z</time>
      </trkpt>
      <trkpt lat="46.4465" lon="4.33809">
        <ele>313.177981</ele>
        <time>2021-09-12T05:53:30.000Z</time>
      </trkpt>
      <trkpt lat="46.44655" lon="4.33843">
        <ele>313.035767</ele>
        <time>2021-09-12T05:53:35.000Z</time>
      </trkpt>
      <trkpt lat="46.44661" lon="4.33875">
        <ele>312.901818</ele>
        <time>2021-09-12T05:53:41.000Z</time>
      </trkpt>
      <trkpt lat="46.44668" lon="4.33918">
        <ele>312.719845</ele>
        <time>2021-09-12T05:53:50.000Z</time>
      </trkpt>
      <trkpt lat="46.44674" lon="4.33958">
        <ele>312.54961</ele>
        <time>2021-09-12T05:53:58.000Z</time>
      </trkpt>
      <trkpt lat="46.44683" lon="4.34011">
        <ele>312.431494</ele>
        <time>2021-09-12T05:54:08.000Z</time>
      </trkpt>
      <trkpt lat="46.4469" lon="4.34057">
        <ele>312.587923</ele>
        <time>2021-09-12T05:54:16.000Z</time>
      </trkpt>
      <trkpt lat="46.44698" lon="4.34104">
        <ele>312.748886</ele>
        <time>2021-09-12T05:54:24.000Z</time>
      </trkpt>
      <trkpt lat="46.44708" lon="4.34161">
        <ele>312.941821</ele>
        <time>2021-09-12T05:54:33.000Z</time>
      </trkpt>
      <trkpt lat="46.4471" lon="4.34174">
        <ele>312.986504</ele>
        <time>2021-09-12T05:54:35.000Z</time>
      </trkpt>
      <trkpt lat="46.44715" lon="4.34201">
        <ele>313.080604</ele>
        <time>2021-09-12T05:54:39.000Z</time>
      </trkpt>
      <trkpt lat="46.44723" lon="4.34253">
        <ele>313.24024</ele>
        <time>2021-09-12T05:54:46.000Z</time>
      </trkpt>
      <trkpt lat="46.44732" lon="4.34314">
        <ele>313.003213</ele>
        <time>2021-09-12T05:54:53.000Z</time>
      </trkpt>
      <trkpt lat="46.44745" lon="4.34394">
        <ele>312.68597</ele>
        <time>2021-09-12T05:55:01.000Z</time>
      </trkpt>
      <trkpt lat="46.44747" lon="4.34405">
        <ele>312.64343</ele>
        <time>2021-09-12T05:55:02.000Z</time>
      </trkpt>
      <trkpt lat="46.44758" lon="4.34481">
        <ele>312.342778</ele>
        <time>2021-09-12T05:55:09.000Z</time>
      </trkpt>
      <trkpt lat="46.4476" lon="4.34492">
        <ele>312.302609</ele>
        <time>2021-09-12T05:55:10.000Z</time>
      </trkpt>
      <trkpt lat="46.44768" lon="4.34547">
        <ele>312.239436</ele>
        <time>2021-09-12T05:55:16.000Z</time>
      </trkpt>
      <trkpt lat="46.44781" lon="4.3463">
        <ele>312.224325</ele>
        <time>2021-09-12T05:55:26.000Z</time>
      </trkpt>
      <trkpt lat="46.44793" lon="4.34706">
        <ele>312.210402</ele>
        <time>2021-09-12T05:55:35.000Z</time>
      </trkpt>
      <trkpt lat="46.44804" lon="4.34777">
        <ele>312.216969</ele>
        <time>2021-09-12T05:55:42.000Z</time>
      </trkpt>
      <trkpt lat="46.44817" lon="4.34861">
        <ele>312.301752</ele>
        <time>2021-09-12T05:55:50.000Z</time>
      </trkpt>
      <trkpt lat="46.44826" lon="4.34922">
        <ele>312.363004</ele>
        <time>2021-09-12T05:55:57.000Z</time>
      </trkpt>
      <trkpt lat="46.44837" lon="4.34991">
        <ele>312.432226</ele>
        <time>2021-09-12T05:56:06.000Z</time>
      </trkpt>
      <trkpt lat="46.44849" lon="4.3507">
        <ele>313.129645</ele>
        <time>2021-09-12T05:56:15.000Z</time>
      </trkpt>
      <trkpt lat="46.44856" lon="4.35115">
        <ele>313.685922</ele>
        <time>2021-09-12T05:56:21.000Z</time>
      </trkpt>
      <trkpt lat="46.44861" lon="4.35147">
        <ele>314.075584</ele>
        <time>2021-09-12T05:56:27.000Z</time>
      </trkpt>
      <trkpt lat="46.44867" lon="4.35183">
        <ele>314.520521</ele>
        <time>2021-09-12T05:56:36.000Z</time>
      </trkpt>
      <trkpt lat="46.44871" lon="4.35209">
        <ele>314.841672</ele>
        <time>2021-09-12T05:56:43.000Z</time>
      </trkpt>
      <trkpt lat="46.44876" lon="4.3524">
        <ele>315.225104</ele>
        <time>2021-09-12T05:56:51.000Z</time>
      </trkpt>
      <trkpt lat="46.44881" lon="4.35274">
        <ele>315.618063</ele>
        <time>2021-09-12T05:56:59.000Z</time>
      </trkpt>
      <trkpt lat="46.44889" lon="4.35322">
        <ele>315.995775</ele>
        <time>2021-09-12T05:57:09.000Z</time>
      </trkpt>
      <trkpt lat="46.44895" lon="4.35365">
        <ele>316.333183</ele>
        <time>2021-09-12T05:57:16.000Z</time>
      </trkpt>
      <trkpt lat="46.44904" lon="4.35419">
        <ele>316.756692</ele>
        <time>2021-09-12T05:57:23.000Z</time>
      </trkpt>
      <trkpt lat="46.44915" lon="4.35494">
        <ele>317.345164</ele>
        <time>2021-09-12T05:57:31.000Z</time>
      </trkpt>
      <trkpt lat="46.44926" lon="4.35565">
        <ele>317.691245</ele>
        <time>2021-09-12T05:57:38.000Z</time>
      </trkpt>
      <trkpt lat="46.44939" lon="4.35651">
        <ele>317.916208</ele>
        <time>2021-09-12T05:57:46.000Z</time>
      </trkpt>
      <trkpt lat="46.44949" lon="4.35714">
        <ele>318.079115</ele>
        <time>2021-09-12T05:57:53.000Z</time>
      </trkpt>
      <trkpt lat="46.44958" lon="4.35774">
        <ele>318.236868</ele>
        <time>2021-09-12T05:58:01.000Z</time>
      </trkpt>
      <trkpt lat="46.44966" lon="4.35827">
        <ele>318.976793</ele>
        <time>2021-09-12T05:58:09.000Z</time>
      </trkpt>
      <trkpt lat="46.44973" lon="4.35877">
        <ele>319.733984</ele>
        <time>2021-09-12T05:58:18.000Z</time>
      </trkpt>
      <trkpt lat="46.44981" lon="4.3593">
        <ele>320.535156</ele>
        <time>2021-09-12T05:58:29.000Z</time>
      </trkpt>
      <trkpt lat="46.44986" lon="4.35967">
        <ele>321.106797</ele>
        <time>2021-09-12T05:58:37.000Z</time>
      </trkpt>
      <trkpt lat="46.4499" lon="4.35993">
        <ele>321.494795</ele>
        <time>2021-09-12T05:58:43.000Z</time>
      </trkpt>
      <trkpt lat="46.44994" lon="4.36019">
        <ele>321.897787</ele>
        <time>2021-09-12T05:58:50.000Z</time>
      </trkpt>
      <trkpt lat="46.44998" lon="4.3605">
        <ele>322.168077</ele>
        <time>2021-09-12T05:58:57.000Z</time>
      </trkpt>
      <trkpt lat="46.44998" lon="4.36074">
        <ele>322.221801</ele>
        <time>2021-09-12T05:59:02.000Z</time>
      </trkpt>
      <trkpt lat="46.44998" lon="4.36117">
        <ele>322.319812</ele>
        <time>2021-09-12T05:59:10.000Z</time>
      </trkpt>
      <trkpt lat="46.44993" lon="4.36161">
        <ele>322.420107</ele>
        <time>2021-09-12T05:59:16.000Z</time>
      </trkpt>
      <trkpt lat="46.44987" lon="4.36218">
        <ele>322.548661</ele>
        <time>2021-09-12T05:59:22.000Z</time>
      </trkpt>
      <trkpt lat="46.44979" lon="4.36286">
        <ele>322.705137</ele>
        <time>2021-09-12T05:59:28.000Z</time>
      </trkpt>
      <trkpt lat="46.44971" lon="4.36366">
        <ele>321.946405</ele>
        <time>2021-09-12T05:59:34.000Z</time>
      </trkpt>
      <trkpt lat="46.44974" lon="4.3642">
        <ele>321.385751</ele>
        <time>2021-09-12T05:59:38.000Z</time>
      </trkpt>
      <trkpt lat="46.44976" lon="4.36432">
        <ele>321.251381</ele>
        <time>2021-09-12T05:59:39.000Z</time>
      </trkpt>
      <trkpt lat="46.44984" lon="4.36465">
        <ele>320.884207</ele>
        <time>2021-09-12T05:59:42.000Z</time>
      </trkpt>
      <trkpt lat="46.44999" lon="4.36499">
        <ele>320.464711</ele>
        <time>2021-09-12T05:59:46.000Z</time>
      </trkpt>
      <trkpt lat="46.45012" lon="4.36535">
        <ele>320.04166</ele>
        <time>2021-09-12T05:59:51.000Z</time>
      </trkpt>
      <trkpt lat="46.45012" lon="4.36542">
        <ele>319.976475</ele>
        <time>2021-09-12T05:59:52.000Z</time>
      </trkpt>
      <trkpt lat="46.45013" lon="4.36563">
        <ele>319.825531</ele>
        <time>2021-09-12T05:59:55.000Z</time>
      </trkpt>
      <trkpt lat="46.45015" lon="4.36569">
        <ele>319.78031</ele>
        <time>2021-09-12T05:59:56.000Z</time>
      </trkpt>
      <trkpt lat="46.45019" lon="4.36574">
        <ele>319.728083</ele>
        <time>2021-09-12T05:59:57.000Z</time>
      </trkpt>
      <trkpt lat="46.45028" lon="4.36578">
        <ele>319.629278</ele>
        <time>2021-09-12T05:59:59.000Z</time>
      </trkpt>
      <trkpt lat="46.45036" lon="4.36579">
        <ele>319.544281</ele>
        <time>2021-09-12T06:00:01.000Z</time>
      </trkpt>
      <trkpt lat="46.45045" lon="4.36582">
        <ele>319.453712</ele>
        <time>2021-09-12T06:00:03.000Z</time>
      </trkpt>
      <trkpt lat="46.45049" lon="4.36586">
        <ele>319.408098</ele>
        <time>2021-09-12T06:00:04.000Z</time>
      </trkpt>
      <trkpt lat="46.45052" lon="4.3659">
        <ele>319.359397</ele>
        <time>2021-09-12T06:00:05.000Z</time>
      </trkpt>
      <trkpt lat="46.4507" lon="4.36613">
        <ele>319.117801</ele>
        <time>2021-09-12T06:00:10.000Z</time>
      </trkpt>
      <trkpt lat="46.45081" lon="4.36628">
        <ele>318.967735</ele>
        <time>2021-09-12T06:00:13.000Z</time>
      </trkpt>
      <trkpt lat="46.45085" lon="4.36633">
        <ele>318.911366</ele>
        <time>2021-09-12T06:00:14.000Z</time>
      </trkpt>
      <trkpt lat="46.45111" lon="4.36668">
        <ele>318.548739</ele>
        <time>2021-09-12T06:00:20.000Z</time>
      </trkpt>
      <trkpt lat="46.45128" lon="4.36695">
        <ele>318.296771</ele>
        <time>2021-09-12T06:00:25.000Z</time>
      </trkpt>
      <trkpt lat="46.4513" lon="4.36701">
        <ele>318.249309</ele>
        <time>2021-09-12T06:00:26.000Z</time>
      </trkpt>
      <trkpt lat="46.45136" lon="4.36728">
        <ele>318.187274</ele>
        <time>2021-09-12T06:00:30.000Z</time>
      </trkpt>
      <trkpt lat="46.45139" lon="4.36732">
        <ele>318.197997</ele>
        <time>2021-09-12T06:00:31.000Z</time>
      </trkpt>
      <trkpt lat="46.45148" lon="4.36751">
        <ele>318.244018</ele>
        <time>2021-09-12T06:00:34.000Z</time>
      </trkpt>
      <trkpt lat="46.45152" lon="4.36765">
        <ele>318.274551</ele>
        <time>2021-09-12T06:00:36.000Z</time>
      </trkpt>
      <trkpt lat="46.45158" lon="4.36823">
        <ele>318.391932</ele>
        <time>2021-09-12T06:00:43.000Z</time>
      </trkpt>
      <trkpt lat="46.45156" lon="4.36875">
        <ele>318.495111</ele>
        <time>2021-09-12T06:00:50.000Z</time>
      </trkpt>
      <trkpt lat="46.45152" lon="4.36926">
        <ele>318.597521</ele>
        <time>2021-09-12T06:00:58.000Z</time>
      </trkpt>
      <trkpt lat="46.45149" lon="4.36967">
        <ele>318.693956</ele>
        <time>2021-09-12T06:01:05.000Z</time>
      </trkpt>
      <trkpt lat="46.45147" lon="4.37005">
        <ele>319.151457</ele>
        <time>2021-09-12T06:01:12.000Z</time>
      </trkpt>
      <trkpt lat="46.45149" lon="4.3705">
        <ele>319.68229</ele>
        <time>2021-09-12T06:01:21.000Z</time>
      </trkpt>
      <trkpt lat="46.45157" lon="4.37114">
        <ele>320.455845</ele>
        <time>2021-09-12T06:01:31.000Z</time>
      </trkpt>
      <trkpt lat="46.45165" lon="4.37169">
        <ele>321.124796</ele>
        <time>2021-09-12T06:01:40.000Z</time>
      </trkpt>
      <trkpt lat="46.45169" lon="4.37204">
        <ele>321.540109</ele>
        <time>2021-09-12T06:01:47.000Z</time>
      </trkpt>
      <trkpt lat="46.45174" lon="4.37235">
        <ele>321.993389</ele>
        <time>2021-09-12T06:01:55.000Z</time>
      </trkpt>
      <trkpt lat="46.45178" lon="4.37266">
        <ele>322.536325</ele>
        <time>2021-09-12T06:02:03.000Z</time>
      </trkpt>
      <trkpt lat="46.45183" lon="4.37296">
        <ele>323.057463</ele>
        <time>2021-09-12T06:02:12.000Z</time>
      </trkpt>
      <trkpt lat="46.45186" lon="4.37323">
        <ele>323.537011</ele>
        <time>2021-09-12T06:02:20.000Z</time>
      </trkpt>
      <trkpt lat="46.45191" lon="4.37344">
        <ele>323.908777</ele>
        <time>2021-09-12T06:02:26.000Z</time>
      </trkpt>
      <trkpt lat="46.45195" lon="4.37371">
        <ele>324.395556</ele>
        <time>2021-09-12T06:02:32.000Z</time>
      </trkpt>
      <trkpt lat="46.4519" lon="4.37391">
        <ele>324.762792</ele>
        <time>2021-09-12T06:02:36.000Z</time>
      </trkpt>
      <trkpt lat="46.45189" lon="4.37397">
        <ele>324.86887</ele>
        <time>2021-09-12T06:02:37.000Z</time>
      </trkpt>
      <trkpt lat="46.45176" lon="4.37431">
        <ele>325.541266</ele>
        <time>2021-09-12T06:02:42.000Z</time>
      </trkpt>
      <trkpt lat="46.45157" lon="4.37476">
        <ele>326.196692</ele>
        <time>2021-09-12T06:02:47.000Z</time>
      </trkpt>
      <trkpt lat="46.4513" lon="4.37543">
        <ele>325.6026</ele>
        <time>2021-09-12T06:02:53.000Z</time>
      </trkpt>
      <trkpt lat="46.45111" lon="4.37588">
        <ele>325.194284</ele>
        <time>2021-09-12T06:02:57.000Z</time>
      </trkpt>
      <trkpt lat="46.45086" lon="4.37651">
        <ele>324.633167</ele>
        <time>2021-09-12T06:03:03.000Z</time>
      </trkpt>
      <trkpt lat="46.45056" lon="4.37723">
        <ele>323.855661</ele>
        <time>2021-09-12T06:03:10.000Z</time>
      </trkpt>
      <trkpt lat="46.45052" lon="4.37734">
        <ele>323.720812</ele>
        <time>2021-09-12T06:03:11.000Z</time>
      </trkpt>
      <trkpt lat="46.45022" lon="4.37805">
        <ele>322.777492</ele>
        <time>2021-09-12T06:03:18.000Z</time>
      </trkpt>
      <trkpt lat="46.45013" lon="4.37826">
        <ele>322.507678</ele>
        <time>2021-09-12T06:03:20.000Z</time>
      </trkpt>
      <trkpt lat="46.44984" lon="4.37897">
        <ele>321.565198</ele>
        <time>2021-09-12T06:03:27.000Z</time>
      </trkpt>
      <trkpt lat="46.44967" lon="4.37937">
        <ele>321.159114</ele>
        <time>2021-09-12T06:03:31.000Z</time>
      </trkpt>
      <trkpt lat="46.44938" lon="4.38007">
        <ele>320.626768</ele>
        <time>2021-09-12T06:03:38.000Z</time>
      </trkpt>
      <trkpt lat="46.44933" lon="4.38017">
        <ele>320.54953</ele>
        <time>2021-09-12T06:03:39.000Z</time>
      </trkpt>
      <trkpt lat="46.44904" lon="4.38088">
        <ele>320.010774</ele>
        <time>2021-09-12T06:03:46.000Z</time>
      </trkpt>
      <trkpt lat="46.449" lon="4.38097">
        <ele>319.945864</ele>
        <time>2021-09-12T06:03:47.000Z</time>
      </trkpt>
      <trkpt lat="46.44889" lon="4.38124">
        <ele>319.741393</ele>
        <time>2021-09-12T06:03:51.000Z</time>
      </trkpt>
      <trkpt lat="46.4488" lon="4.38145">
        <ele>319.826063</ele>
        <time>2021-09-12T06:03:56.000Z</time>
      </trkpt>
      <trkpt lat="46.44871" lon="4.38169">
        <ele>320.534713</ele>
        <time>2021-09-12T06:04:03.000Z</time>
      </trkpt>
      <trkpt lat="46.44861" lon="4.38191">
        <ele>321.218977</ele>
        <time>2021-09-12T06:04:11.000Z</time>
      </trkpt>
      <trkpt lat="46.44853" lon="4.3821">
        <ele>321.80404</ele>
        <time>2021-09-12T06:04:18.000Z</time>
      </trkpt>
      <trkpt lat="46.44845" lon="4.38228">
        <ele>322.367528</ele>
        <time>2021-09-12T06:04:25.000Z</time>
      </trkpt>
      <trkpt lat="46.44837" lon="4.38249">
        <ele>323.013113</ele>
        <time>2021-09-12T06:04:33.000Z</time>
      </trkpt>
      <trkpt lat="46.44828" lon="4.3827">
        <ele>323.654226</ele>
        <time>2021-09-12T06:04:41.000Z</time>
      </trkpt>
      <trkpt lat="46.4482" lon="4.3829">
        <ele>324.263106</ele>
        <time>2021-09-12T06:04:48.000Z</time>
      </trkpt>
      <trkpt lat="46.44805" lon="4.38325">
        <ele>325.331803</ele>
        <time>2021-09-12T06:04:59.000Z</time>
      </trkpt>
      <trkpt lat="46.44793" lon="4.38353">
        <ele>326.17158</ele>
        <time>2021-09-12T06:05:08.000Z</time>
      </trkpt>
      <trkpt lat="46.44786" lon="4.38371">
        <ele>326.756022</ele>
        <time>2021-09-12T06:05:14.000Z</time>
      </trkpt>
      <trkpt lat="46.44775" lon="4.38396">
        <ele>327.604991</ele>
        <time>2021-09-12T06:05:22.000Z</time>
      </trkpt>
      <trkpt lat="46.44762" lon="4.38427">
        <ele>328.650173</ele>
        <time>2021-09-12T06:05:32.000Z</time>
      </trkpt>
      <trkpt lat="46.44754" lon="4.38448">
        <ele>329.329516</ele>
        <time>2021-09-12T06:05:39.000Z</time>
      </trkpt>
      <trkpt lat="46.44744" lon="4.3847">
        <ele>330.089071</ele>
        <time>2021-09-12T06:05:47.000Z</time>
      </trkpt>
      <trkpt lat="46.44734" lon="4.38494">
        <ele>330.867318</ele>
        <time>2021-09-12T06:05:53.000Z</time>
      </trkpt>
      <trkpt lat="46.44719" lon="4.38531">
        <ele>332.115182</ele>
        <time>2021-09-12T06:06:02.000Z</time>
      </trkpt>
      <trkpt lat="46.44704" lon="4.38566">
        <ele>333.271199</ele>
        <time>2021-09-12T06:06:10.000Z</time>
      </trkpt>
      <trkpt lat="46.44688" lon="4.38604">
        <ele>334.278307</ele>
        <time>2021-09-12T06:06:18.000Z</time>
      </trkpt>
      <trkpt lat="46.44678" lon="4.38629">
        <ele>334.758616</ele>
        <time>2021-09-12T06:06:25.000Z</time>
      </trkpt>
      <trkpt lat="46.44676" lon="4.38632">
        <ele>334.827232</ele>
        <time>2021-09-12T06:06:34.000Z</time>
      </trkpt>
      <trkpt lat="46.44675" lon="4.38635">
        <ele>334.881012</ele>
        <time>2021-09-12T06:06:35.000Z</time>
      </trkpt>
      <trkpt lat="46.44666" lon="4.38656">
        <ele>335.283278</ele>
        <time>2021-09-12T06:06:40.000Z</time>
      </trkpt>
      <trkpt lat="46.4466" lon="4.38672">
        <ele>335.579219</ele>
        <time>2021-09-12T06:06:43.000Z</time>
      </trkpt>
      <trkpt lat="46.44651" lon="4.38693">
        <ele>335.992144</ele>
        <time>2021-09-12T06:06:47.000Z</time>
      </trkpt>
      <trkpt lat="46.44633" lon="4.38737">
        <ele>336.815535</ele>
        <time>2021-09-12T06:06:55.000Z</time>
      </trkpt>
      <trkpt lat="46.44618" lon="4.38773">
        <ele>337.511302</ele>
        <time>2021-09-12T06:07:02.000Z</time>
      </trkpt>
      <trkpt lat="46.4461" lon="4.38793">
        <ele>337.884257</ele>
        <time>2021-09-12T06:07:06.000Z</time>
      </trkpt>
      <trkpt lat="46.44608" lon="4.38798">
        <ele>337.981159</ele>
        <time>2021-09-12T06:07:07.000Z</time>
      </trkpt>
      <trkpt lat="46.44596" lon="4.38826">
        <ele>338.476256</ele>
        <time>2021-09-12T06:07:13.000Z</time>
      </trkpt>
      <trkpt lat="46.44582" lon="4.3886">
        <ele>339.050747</ele>
        <time>2021-09-12T06:07:20.000Z</time>
      </trkpt>
      <trkpt lat="46.44564" lon="4.38904">
        <ele>339.801167</ele>
        <time>2021-09-12T06:07:29.000Z</time>
      </trkpt>
      <trkpt lat="46.4455" lon="4.38938">
        <ele>340.386289</ele>
        <time>2021-09-12T06:07:36.000Z</time>
      </trkpt>
      <trkpt lat="46.44534" lon="4.38977">
        <ele>341.059383</ele>
        <time>2021-09-12T06:07:43.000Z</time>
      </trkpt>
      <trkpt lat="46.44513" lon="4.39026">
        <ele>341.896685</ele>
        <time>2021-09-12T06:07:50.000Z</time>
      </trkpt>
      <trkpt lat="46.44492" lon="4.39077">
        <ele>342.341393</ele>
        <time>2021-09-12T06:07:56.000Z</time>
      </trkpt>
      <trkpt lat="46.44465" lon="4.39143">
        <ele>342.843875</ele>
        <time>2021-09-12T06:08:03.000Z</time>
      </trkpt>
      <trkpt lat="46.44444" lon="4.39193">
        <ele>343.227764</ele>
        <time>2021-09-12T06:08:09.000Z</time>
      </trkpt>
      <trkpt lat="46.44432" lon="4.39222">
        <ele>343.449218</ele>
        <time>2021-09-12T06:08:14.000Z</time>
      </trkpt>
      <trkpt lat="46.44424" lon="4.39243">
        <ele>343.610602</ele>
        <time>2021-09-12T06:08:20.000Z</time>
      </trkpt>
      <trkpt lat="46.44413" lon="4.39268">
        <ele>344.260205</ele>
        <time>2021-09-12T06:08:29.000Z</time>
      </trkpt>
      <trkpt lat="46.44402" lon="4.39296">
        <ele>345.571876</ele>
        <time>2021-09-12T06:08:39.000Z</time>
      </trkpt>
      <trkpt lat="46.44394" lon="4.39315">
        <ele>346.479523</ele>
        <time>2021-09-12T06:08:46.000Z</time>
      </trkpt>
      <trkpt lat="46.44383" lon="4.39343">
        <ele>347.786871</ele>
        <time>2021-09-12T06:08:56.000Z</time>
      </trkpt>
      <trkpt lat="46.44375" lon="4.39361">
        <ele>348.630879</ele>
        <time>2021-09-12T06:09:03.000Z</time>
      </trkpt>
      <trkpt lat="46.44364" lon="4.39388">
        <ele>349.921807</ele>
        <time>2021-09-12T06:09:13.000Z</time>
      </trkpt>
      <trkpt lat="46.44357" lon="4.39404">
        <ele>350.695675</ele>
        <time>2021-09-12T06:09:19.000Z</time>
      </trkpt>
      <trkpt lat="46.44345" lon="4.39433">
        <ele>352.040274</ele>
        <time>2021-09-12T06:09:29.000Z</time>
      </trkpt>
      <trkpt lat="46.44332" lon="4.39463">
        <ele>353.481459</ele>
        <time>2021-09-12T06:09:38.000Z</time>
      </trkpt>
      <trkpt lat="46.44319" lon="4.39495">
        <ele>354.59336</ele>
        <time>2021-09-12T06:09:45.000Z</time>
      </trkpt>
      <trkpt lat="46.44303" lon="4.39531">
        <ele>355.374869</ele>
        <time>2021-09-12T06:09:51.000Z</time>
      </trkpt>
      <trkpt lat="46.44282" lon="4.39583">
        <ele>356.473404</ele>
        <time>2021-09-12T06:09:58.000Z</time>
      </trkpt>
      <trkpt lat="46.44257" lon="4.39642">
        <ele>357.734255</ele>
        <time>2021-09-12T06:10:06.000Z</time>
      </trkpt>
      <trkpt lat="46.44237" lon="4.39688">
        <ele>358.715552</ele>
        <time>2021-09-12T06:10:13.000Z</time>
      </trkpt>
      <trkpt lat="46.44221" lon="4.39726">
        <ele>358.844065</ele>
        <time>2021-09-12T06:10:20.000Z</time>
      </trkpt>
      <trkpt lat="46.44206" lon="4.39761">
        <ele>358.56758</ele>
        <time>2021-09-12T06:10:26.000Z</time>
      </trkpt>
      <trkpt lat="46.44189" lon="4.39801">
        <ele>358.261023</ele>
        <time>2021-09-12T06:10:31.000Z</time>
      </trkpt>
      <trkpt lat="46.44164" lon="4.39861">
        <ele>357.790209</ele>
        <time>2021-09-12T06:10:37.000Z</time>
      </trkpt>
      <trkpt lat="46.44134" lon="4.39932">
        <ele>357.111223</ele>
        <time>2021-09-12T06:10:43.000Z</time>
      </trkpt>
      <trkpt lat="46.44129" lon="4.39944">
        <ele>356.827584</ele>
        <time>2021-09-12T06:10:44.000Z</time>
      </trkpt>
      <trkpt lat="46.44107" lon="4.39994">
        <ele>355.618721</ele>
        <time>2021-09-12T06:10:49.000Z</time>
      </trkpt>
      <trkpt lat="46.44087" lon="4.40041">
        <ele>354.480857</ele>
        <time>2021-09-12T06:10:55.000Z</time>
      </trkpt>
      <trkpt lat="46.44068" lon="4.40086">
        <ele>353.398672</ele>
        <time>2021-09-12T06:11:00.000Z</time>
      </trkpt>
      <trkpt lat="46.4404" lon="4.40153">
        <ele>351.80523</ele>
        <time>2021-09-12T06:11:06.000Z</time>
      </trkpt>
      <trkpt lat="46.4401" lon="4.40223">
        <ele>350.060682</ele>
        <time>2021-09-12T06:11:12.000Z</time>
      </trkpt>
      <trkpt lat="46.43996" lon="4.40257">
        <ele>349.218075</ele>
        <time>2021-09-12T06:11:15.000Z</time>
      </trkpt>
      <trkpt lat="46.43975" lon="4.40307">
        <ele>347.974305</ele>
        <time>2021-09-12T06:11:20.000Z</time>
      </trkpt>
      <trkpt lat="46.43951" lon="4.40361">
        <ele>346.615264</ele>
        <time>2021-09-12T06:11:26.000Z</time>
      </trkpt>
      <trkpt lat="46.43922" lon="4.4043">
        <ele>344.985083</ele>
        <time>2021-09-12T06:11:34.000Z</time>
      </trkpt>
      <trkpt lat="46.439" lon="4.40481">
        <ele>343.770458</ele>
        <time>2021-09-12T06:11:40.000Z</time>
      </trkpt>
      <trkpt lat="46.43868" lon="4.40557">
        <ele>341.987878</ele>
        <time>2021-09-12T06:11:48.000Z</time>
      </trkpt>
      <trkpt lat="46.43836" lon="4.4063">
        <ele>340.283158</ele>
        <time>2021-09-12T06:11:55.000Z</time>
      </trkpt>
      <trkpt lat="46.43832" lon="4.4064">
        <ele>340.04306</ele>
        <time>2021-09-12T06:11:56.000Z</time>
      </trkpt>
      <trkpt lat="46.43799" lon="4.40717">
        <ele>338.291906</ele>
        <time>2021-09-12T06:12:03.000Z</time>
      </trkpt>
      <trkpt lat="46.4379" lon="4.40739">
        <ele>337.782829</ele>
        <time>2021-09-12T06:12:05.000Z</time>
      </trkpt>
      <trkpt lat="46.43757" lon="4.40815">
        <ele>336.090759</ele>
        <time>2021-09-12T06:12:12.000Z</time>
      </trkpt>
      <trkpt lat="46.43738" lon="4.4086">
        <ele>335.729983</ele>
        <time>2021-09-12T06:12:17.000Z</time>
      </trkpt>
      <trkpt lat="46.43724" lon="4.40893">
        <ele>335.462771</ele>
        <time>2021-09-12T06:12:22.000Z</time>
      </trkpt>
      <trkpt lat="46.43712" lon="4.40921">
        <ele>335.239551</ele>
        <time>2021-09-12T06:12:28.000Z</time>
      </trkpt>
      <trkpt lat="46.43701" lon="4.40946">
        <ele>335.035451</ele>
        <time>2021-09-12T06:12:35.000Z</time>
      </trkpt>
      <trkpt lat="46.43686" lon="4.40981">
        <ele>334.756964</ele>
        <time>2021-09-12T06:12:45.000Z</time>
      </trkpt>
      <trkpt lat="46.43667" lon="4.41025">
        <ele>334.400716</ele>
        <time>2021-09-12T06:12:57.000Z</time>
      </trkpt>
      <trkpt lat="46.43655" lon="4.41053">
        <ele>334.339105</ele>
        <time>2021-09-12T06:13:04.000Z</time>
      </trkpt>
      <trkpt lat="46.43639" lon="4.4109">
        <ele>334.357514</ele>
        <time>2021-09-12T06:13:12.000Z</time>
      </trkpt>
      <trkpt lat="46.43622" lon="4.41132">
        <ele>334.378278</ele>
        <time>2021-09-12T06:13:20.000Z</time>
      </trkpt>
      <trkpt lat="46.43602" lon="4.41173">
        <ele>334.399545</ele>
        <time>2021-09-12T06:13:28.000Z</time>
      </trkpt>
      <trkpt lat="46.43579" lon="4.4121">
        <ele>334.421013</ele>
        <time>2021-09-12T06:13:36.000Z</time>
      </trkpt>
      <trkpt lat="46.43551" lon="4.41248">
        <ele>334.349641</ele>
        <time>2021-09-12T06:13:43.000Z</time>
      </trkpt>
      <trkpt lat="46.43521" lon="4.41287">
        <ele>333.785647</ele>
        <time>2021-09-12T06:13:49.000Z</time>
      </trkpt>
      <trkpt lat="46.43485" lon="4.41336">
        <ele>333.092288</ele>
        <time>2021-09-12T06:13:55.000Z</time>
      </trkpt>
      <trkpt lat="46.43444" lon="4.41391">
        <ele>332.30997</ele>
        <time>2021-09-12T06:14:01.000Z</time>
      </trkpt>
      <trkpt lat="46.43432" lon="4.41409">
        <ele>332.065997</ele>
        <time>2021-09-12T06:14:03.000Z</time>
      </trkpt>
      <trkpt lat="46.43391" lon="4.41463">
        <ele>332.468254</ele>
        <time>2021-09-12T06:14:10.000Z</time>
      </trkpt>
      <trkpt lat="46.43386" lon="4.4147">
        <ele>332.552449</ele>
        <time>2021-09-12T06:14:11.000Z</time>
      </trkpt>
      <trkpt lat="46.43366" lon="4.41496">
        <ele>332.88202</ele>
        <time>2021-09-12T06:14:16.000Z</time>
      </trkpt>
      <trkpt lat="46.43353" lon="4.41512">
        <ele>333.084514</ele>
        <time>2021-09-12T06:14:21.000Z</time>
      </trkpt>
      <trkpt lat="46.43342" lon="4.41528">
        <ele>333.275641</ele>
        <time>2021-09-12T06:14:28.000Z</time>
      </trkpt>
      <trkpt lat="46.43331" lon="4.41542">
        <ele>333.448985</ele>
        <time>2021-09-12T06:14:35.000Z</time>
      </trkpt>
      <trkpt lat="46.43323" lon="4.41552">
        <ele>333.582142</ele>
        <time>2021-09-12T06:14:41.000Z</time>
      </trkpt>
      <trkpt lat="46.43311" lon="4.41568">
        <ele>333.775298</ele>
        <time>2021-09-12T06:14:50.000Z</time>
      </trkpt>
      <trkpt lat="46.43297" lon="4.41587">
        <ele>334.010999</ele>
        <time>2021-09-12T06:15:02.000Z</time>
      </trkpt>
      <trkpt lat="46.43288" lon="4.41599">
        <ele>334.498516</ele>
        <time>2021-09-12T06:15:10.000Z</time>
      </trkpt>
      <trkpt lat="46.43277" lon="4.41613">
        <ele>335.706274</ele>
        <time>2021-09-12T06:15:19.000Z</time>
      </trkpt>
      <trkpt lat="46.43265" lon="4.41629">
        <ele>337.06225</ele>
        <time>2021-09-12T06:15:29.000Z</time>
      </trkpt>
      <trkpt lat="46.43255" lon="4.41642">
        <ele>338.23156</ele>
        <time>2021-09-12T06:15:38.000Z</time>
      </trkpt>
      <trkpt lat="46.43247" lon="4.41654">
        <ele>339.232277</ele>
        <time>2021-09-12T06:15:46.000Z</time>
      </trkpt>
      <trkpt lat="46.4324" lon="4.41662">
        <ele>339.946749</ele>
        <time>2021-09-12T06:15:52.000Z</time>
      </trkpt>
      <trkpt lat="46.43239" lon="4.41664">
        <ele>340.066908</ele>
        <time>2021-09-12T06:15:53.000Z</time>
      </trkpt>
      <trkpt lat="46.43235" lon="4.41669">
        <ele>340.564157</ele>
        <time>2021-09-12T06:15:57.000Z</time>
      </trkpt>
      <trkpt lat="46.43233" lon="4.41672">
        <ele>340.805709</ele>
        <time>2021-09-12T06:15:59.000Z</time>
      </trkpt>
      <trkpt lat="46.43226" lon="4.41682">
        <ele>341.619759</ele>
        <time>2021-09-12T06:16:06.000Z</time>
      </trkpt>
      <trkpt lat="46.43219" lon="4.41691">
        <ele>342.389112</ele>
        <time>2021-09-12T06:16:12.000Z</time>
      </trkpt>
      <trkpt lat="46.43212" lon="4.417">
        <ele>343.241617</ele>
        <time>2021-09-12T06:16:19.000Z</time>
      </trkpt>
      <trkpt lat="46.43202" lon="4.41714">
        <ele>344.396811</ele>
        <time>2021-09-12T06:16:28.000Z</time>
      </trkpt>
      <trkpt lat="46.43191" lon="4.41727">
        <ele>345.57007</ele>
        <time>2021-09-12T06:16:37.000Z</time>
      </trkpt>
      <trkpt lat="46.43183" lon="4.41738">
        <ele>346.532344</ele>
        <time>2021-09-12T06:16:44.000Z</time>
      </trkpt>
      <trkpt lat="46.43175" lon="4.41749">
        <ele>347.460111</ele>
        <time>2021-09-12T06:16:51.000Z</time>
      </trkpt>
      <trkpt lat="46.43165" lon="4.41762">
        <ele>348.546296</ele>
        <time>2021-09-12T06:16:59.000Z</time>
      </trkpt>
      <trkpt lat="46.43156" lon="4.41774">
        <ele>349.6775</ele>
        <time>2021-09-12T06:17:07.000Z</time>
      </trkpt>
      <trkpt lat="46.43146" lon="4.41787">
        <ele>351.076613</ele>
        <time>2021-09-12T06:17:16.000Z</time>
      </trkpt>
      <trkpt lat="46.43137" lon="4.41803">
        <ele>352.509229</ele>
        <time>2021-09-12T06:17:25.000Z</time>
      </trkpt>
      <trkpt lat="46.4313" lon="4.41817">
        <ele>353.719215</ele>
        <time>2021-09-12T06:17:32.000Z</time>
      </trkpt>
      <trkpt lat="46.43125" lon="4.41832">
        <ele>354.890767</ele>
        <time>2021-09-12T06:17:40.000Z</time>
      </trkpt>
      <trkpt lat="46.4312" lon="4.4185">
        <ele>356.295685</ele>
        <time>2021-09-12T06:17:49.000Z</time>
      </trkpt>
      <trkpt lat="46.43116" lon="4.41864">
        <ele>357.360869</ele>
        <time>2021-09-12T06:17:56.000Z</time>
      </trkpt>
      <trkpt lat="46.43111" lon="4.41883">
        <ele>358.828121</ele>
        <time>2021-09-12T06:18:05.000Z</time>
      </trkpt>
      <trkpt lat="46.43107" lon="4.41901">
        <ele>360.134444</ele>
        <time>2021-09-12T06:18:13.000Z</time>
      </trkpt>
      <trkpt lat="46.43103" lon="4.41917">
        <ele>361.387131</ele>
        <time>2021-09-12T06:18:21.000Z</time>
      </trkpt>
      <trkpt lat="46.43097" lon="4.41939">
        <ele>363.035234</ele>
        <time>2021-09-12T06:18:31.000Z</time>
      </trkpt>
      <trkpt lat="46.43092" lon="4.41958">
        <ele>364.478986</ele>
        <time>2021-09-12T06:18:40.000Z</time>
      </trkpt>
      <trkpt lat="46.43086" lon="4.41981">
        <ele>366.217518</ele>
        <time>2021-09-12T06:18:50.000Z</time>
      </trkpt>
      <trkpt lat="46.43082" lon="4.41997">
        <ele>367.409924</ele>
        <time>2021-09-12T06:18:56.000Z</time>
      </trkpt>
      <trkpt lat="46.43075" lon="4.42027">
        <ele>368.621491</ele>
        <time>2021-09-12T06:19:06.000Z</time>
      </trkpt>
      <trkpt lat="46.43068" lon="4.42052">
        <ele>369.465776</ele>
        <time>2021-09-12T06:19:14.000Z</time>
      </trkpt>
      <trkpt lat="46.4306" lon="4.42085">
        <ele>370.568016</ele>
        <time>2021-09-12T06:19:23.000Z</time>
      </trkpt>
      <trkpt lat="46.43048" lon="4.42128">
        <ele>371.98864</ele>
        <time>2021-09-12T06:19:32.000Z</time>
      </trkpt>
      <trkpt lat="46.43037" lon="4.42173">
        <ele>373.472306</ele>
        <time>2021-09-12T06:19:40.000Z</time>
      </trkpt>
      <trkpt lat="46.43021" lon="4.42233">
        <ele>375.473474</ele>
        <time>2021-09-12T06:19:50.000Z</time>
      </trkpt>
      <trkpt lat="46.43007" lon="4.42286">
        <ele>376.370625</ele>
        <time>2021-09-12T06:19:58.000Z</time>
      </trkpt>
      <trkpt lat="46.42991" lon="4.42344">
        <ele>377.044359</ele>
        <time>2021-09-12T06:20:06.000Z</time>
      </trkpt>
      <trkpt lat="46.42972" lon="4.42418">
        <ele>377.893667</ele>
        <time>2021-09-12T06:20:16.000Z</time>
      </trkpt>
      <trkpt lat="46.42956" lon="4.42478">
        <ele>378.587784</ele>
        <time>2021-09-12T06:20:25.000Z</time>
      </trkpt>
      <trkpt lat="46.42938" lon="4.42548">
        <ele>379.154037</ele>
        <time>2021-09-12T06:20:36.000Z</time>
      </trkpt>
      <trkpt lat="46.42921" lon="4.42611">
        <ele>379.614874</ele>
        <time>2021-09-12T06:20:46.000Z</time>
      </trkpt>
      <trkpt lat="46.42909" lon="4.4266">
        <ele>379.969785</ele>
        <time>2021-09-12T06:20:53.000Z</time>
      </trkpt>
      <trkpt lat="46.42891" lon="4.42726">
        <ele>380.454217</ele>
        <time>2021-09-12T06:21:01.000Z</time>
      </trkpt>
      <trkpt lat="46.42873" lon="4.42796">
        <ele>380.554317</ele>
        <time>2021-09-12T06:21:09.000Z</time>
      </trkpt>
      <trkpt lat="46.42853" lon="4.42872">
        <ele>380.602881</ele>
        <time>2021-09-12T06:21:18.000Z</time>
      </trkpt>
      <trkpt lat="46.42837" lon="4.42933">
        <ele>380.641363</ele>
        <time>2021-09-12T06:21:26.000Z</time>
      </trkpt>
      <trkpt lat="46.42819" lon="4.43005">
        <ele>380.72195</ele>
        <time>2021-09-12T06:21:34.000Z</time>
      </trkpt>
      <trkpt lat="46.42798" lon="4.43085">
        <ele>380.880594</ele>
        <time>2021-09-12T06:21:42.000Z</time>
      </trkpt>
      <trkpt lat="46.42796" lon="4.43094">
        <ele>380.899237</ele>
        <time>2021-09-12T06:21:43.000Z</time>
      </trkpt>
      <trkpt lat="46.42783" lon="4.43144">
        <ele>380.997994</ele>
        <time>2021-09-12T06:21:49.000Z</time>
      </trkpt>
      <trkpt lat="46.42768" lon="4.43205">
        <ele>381.119526</ele>
        <time>2021-09-12T06:21:58.000Z</time>
      </trkpt>
      <trkpt lat="46.42755" lon="4.43255">
        <ele>382.115374</ele>
        <time>2021-09-12T06:22:06.000Z</time>
      </trkpt>
      <trkpt lat="46.42749" lon="4.4328">
        <ele>382.844191</ele>
        <time>2021-09-12T06:22:12.000Z</time>
      </trkpt>
      <trkpt lat="46.42743" lon="4.43302">
        <ele>383.513385</ele>
        <time>2021-09-12T06:22:20.000Z</time>
      </trkpt>
      <trkpt lat="46.42737" lon="4.43325">
        <ele>384.185209</ele>
        <time>2021-09-12T06:22:28.000Z</time>
      </trkpt>
      <trkpt lat="46.42733" lon="4.43342">
        <ele>384.70868</ele>
        <time>2021-09-12T06:22:35.000Z</time>
      </trkpt>
      <trkpt lat="46.42728" lon="4.43361">
        <ele>385.287737</ele>
        <time>2021-09-12T06:22:43.000Z</time>
      </trkpt>
      <trkpt lat="46.42722" lon="4.43383">
        <ele>385.930455</ele>
        <time>2021-09-12T06:22:52.000Z</time>
      </trkpt>
      <trkpt lat="46.42716" lon="4.43407">
        <ele>386.661906</ele>
        <time>2021-09-12T06:23:02.000Z</time>
      </trkpt>
      <trkpt lat="46.42712" lon="4.43424">
        <ele>387.16153</ele>
        <time>2021-09-12T06:23:09.000Z</time>
      </trkpt>
      <trkpt lat="46.42706" lon="4.43447">
        <ele>387.845511</ele>
        <time>2021-09-12T06:23:17.000Z</time>
      </trkpt>
      <trkpt lat="46.42698" lon="4.43478">
        <ele>388.980574</ele>
        <time>2021-09-12T06:23:26.000Z</time>
      </trkpt>
      <trkpt lat="46.42693" lon="4.43497">
        <ele>389.931742</ele>
        <time>2021-09-12T06:23:32.000Z</time>
      </trkpt>
      <trkpt lat="46.42684" lon="4.4353">
        <ele>391.601477</ele>
        <time>2021-09-12T06:23:41.000Z</time>
      </trkpt>
      <trkpt lat="46.42678" lon="4.43556">
        <ele>392.889786</ele>
        <time>2021-09-12T06:23:48.000Z</time>
      </trkpt>
      <trkpt lat="46.42673" lon="4.43575">
        <ele>393.823414</ele>
        <time>2021-09-12T06:23:54.000Z</time>
      </trkpt>
      <trkpt lat="46.42667" lon="4.43597">
        <ele>394.932191</ele>
        <time>2021-09-12T06:24:02.000Z</time>
      </trkpt>
      <trkpt lat="46.42661" lon="4.43617">
        <ele>395.96556</ele>
        <time>2021-09-12T06:24:10.000Z</time>
      </trkpt>
      <trkpt lat="46.42656" lon="4.43637">
        <ele>396.934706</ele>
        <time>2021-09-12T06:24:18.000Z</time>
      </trkpt>
      <trkpt lat="46.4265" lon="4.4366">
        <ele>398.118896</ele>
        <time>2021-09-12T06:24:28.000Z</time>
      </trkpt>
      <trkpt lat="46.42643" lon="4.43686">
        <ele>399.438341</ele>
        <time>2021-09-12T06:24:40.000Z</time>
      </trkpt>
      <trkpt lat="46.42638" lon="4.43706">
        <ele>400.400688</ele>
        <time>2021-09-12T06:24:49.000Z</time>
      </trkpt>
      <trkpt lat="46.42633" lon="4.43725">
        <ele>401.218054</ele>
        <time>2021-09-12T06:24:58.000Z</time>
      </trkpt>
      <trkpt lat="46.42629" lon="4.43743">
        <ele>401.895083</ele>
        <time>2021-09-12T06:25:06.000Z</time>
      </trkpt>
      <trkpt lat="46.42622" lon="4.43768">
        <ele>402.861358</ele>
        <time>2021-09-12T06:25:17.000Z</time>
      </trkpt>
      <trkpt lat="46.42617" lon="4.43787">
        <ele>403.616762</ele>
        <time>2021-09-12T06:25:24.000Z</time>
      </trkpt>
      <trkpt lat="46.42612" lon="4.43805">
        <ele>404.305733</ele>
        <time>2021-09-12T06:25:30.000Z</time>
      </trkpt>
      <trkpt lat="46.42604" lon="4.43837">
        <ele>405.516857</ele>
        <time>2021-09-12T06:25:39.000Z</time>
      </trkpt>
      <trkpt lat="46.42594" lon="4.43874">
        <ele>406.93399</ele>
        <time>2021-09-12T06:25:48.000Z</time>
      </trkpt>
      <trkpt lat="46.42585" lon="4.43909">
        <ele>408.299696</ele>
        <time>2021-09-12T06:25:56.000Z</time>
      </trkpt>
      <trkpt lat="46.42577" lon="4.43944">
        <ele>409.620969</ele>
        <time>2021-09-12T06:26:02.000Z</time>
      </trkpt>
      <trkpt lat="46.42568" lon="4.43986">
        <ele>409.844321</ele>
        <time>2021-09-12T06:26:07.000Z</time>
      </trkpt>
      <trkpt lat="46.42558" lon="4.44042">
        <ele>409.376405</ele>
        <time>2021-09-12T06:26:12.000Z</time>
      </trkpt>
      <trkpt lat="46.42542" lon="4.44124">
        <ele>408.688454</ele>
        <time>2021-09-12T06:26:18.000Z</time>
      </trkpt>
      <trkpt lat="46.42527" lon="4.44201">
        <ele>408.049863</ele>
        <time>2021-09-12T06:26:23.000Z</time>
      </trkpt>
      <trkpt lat="46.42521" lon="4.44233">
        <ele>407.534307</ele>
        <time>2021-09-12T06:26:25.000Z</time>
      </trkpt>
      <trkpt lat="46.42504" lon="4.4432">
        <ele>405.976267</ele>
        <time>2021-09-12T06:26:30.000Z</time>
      </trkpt>
      <trkpt lat="46.425" lon="4.44338">
        <ele>405.65346</ele>
        <time>2021-09-12T06:26:31.000Z</time>
      </trkpt>
      <trkpt lat="46.42483" lon="4.44421">
        <ele>404.162014</ele>
        <time>2021-09-12T06:26:36.000Z</time>
      </trkpt>
      <trkpt lat="46.42472" lon="4.44476">
        <ele>403.224071</ele>
        <time>2021-09-12T06:26:40.000Z</time>
      </trkpt>
      <trkpt lat="46.42459" lon="4.44543">
        <ele>402.253855</ele>
        <time>2021-09-12T06:26:46.000Z</time>
      </trkpt>
      <trkpt lat="46.42444" lon="4.44618">
        <ele>401.157004</ele>
        <time>2021-09-12T06:26:53.000Z</time>
      </trkpt>
      <trkpt lat="46.42429" lon="4.44698">
        <ele>399.986259</ele>
        <time>2021-09-12T06:27:00.000Z</time>
      </trkpt>
      <trkpt lat="46.42413" lon="4.44779">
        <ele>398.675244</ele>
        <time>2021-09-12T06:27:08.000Z</time>
      </trkpt>
      <trkpt lat="46.42397" lon="4.44862">
        <ele>397.303864</ele>
        <time>2021-09-12T06:27:16.000Z</time>
      </trkpt>
      <trkpt lat="46.42395" lon="4.44872">
        <ele>397.12915</ele>
        <time>2021-09-12T06:27:17.000Z</time>
      </trkpt>
      <trkpt lat="46.42378" lon="4.44958">
        <ele>395.716384</ele>
        <time>2021-09-12T06:27:25.000Z</time>
      </trkpt>
      <trkpt lat="46.42376" lon="4.44969">
        <ele>395.525657</ele>
        <time>2021-09-12T06:27:26.000Z</time>
      </trkpt>
      <trkpt lat="46.42358" lon="4.45054">
        <ele>394.120253</ele>
        <time>2021-09-12T06:27:33.000Z</time>
      </trkpt>
      <trkpt lat="46.42356" lon="4.45066">
        <ele>393.917422</ele>
        <time>2021-09-12T06:27:34.000Z</time>
      </trkpt>
      <trkpt lat="46.42341" lon="4.45135">
        <ele>392.768172</ele>
        <time>2021-09-12T06:27:40.000Z</time>
      </trkpt>
      <trkpt lat="46.42325" lon="4.45184">
        <ele>391.907437</ele>
        <time>2021-09-12T06:27:45.000Z</time>
      </trkpt>
      <trkpt lat="46.42301" lon="4.45227">
        <ele>390.97856</ele>
        <time>2021-09-12T06:27:51.000Z</time>
      </trkpt>
      <trkpt lat="46.42283" lon="4.45252">
        <ele>390.330527</ele>
        <time>2021-09-12T06:27:55.000Z</time>
      </trkpt>
      <trkpt lat="46.42278" lon="4.45259">
        <ele>390.163621</ele>
        <time>2021-09-12T06:27:56.000Z</time>
      </trkpt>
      <trkpt lat="46.42237" lon="4.45288">
        <ele>389.004087</ele>
        <time>2021-09-12T06:28:02.000Z</time>
      </trkpt>
      <trkpt lat="46.42229" lon="4.45292">
        <ele>388.784186</ele>
        <time>2021-09-12T06:28:03.000Z</time>
      </trkpt>
      <trkpt lat="46.4221" lon="4.45297">
        <ele>388.306787</ele>
        <time>2021-09-12T06:28:05.000Z</time>
      </trkpt>
      <trkpt lat="46.42162" lon="4.45295">
        <ele>387.063465</ele>
        <time>2021-09-12T06:28:10.000Z</time>
      </trkpt>
      <trkpt lat="46.42118" lon="4.45294">
        <ele>386.657972</ele>
        <time>2021-09-12T06:28:15.000Z</time>
      </trkpt>
      <trkpt lat="46.42092" lon="4.45293">
        <ele>386.464306</ele>
        <time>2021-09-12T06:28:19.000Z</time>
      </trkpt>
      <trkpt lat="46.42072" lon="4.45294">
        <ele>386.312271</ele>
        <time>2021-09-12T06:28:24.000Z</time>
      </trkpt>
      <trkpt lat="46.42049" lon="4.45296">
        <ele>386.144522</ele>
        <time>2021-09-12T06:28:32.000Z</time>
      </trkpt>
      <trkpt lat="46.42026" lon="4.45297">
        <ele>385.973029</ele>
        <time>2021-09-12T06:28:41.000Z</time>
      </trkpt>
      <trkpt lat="46.42009" lon="4.45299">
        <ele>385.846062</ele>
        <time>2021-09-12T06:28:49.000Z</time>
      </trkpt>
      <trkpt lat="46.41993" lon="4.45302">
        <ele>385.726792</ele>
        <time>2021-09-12T06:28:57.000Z</time>
      </trkpt>
      <trkpt lat="46.41976" lon="4.45305">
        <ele>385.657751</ele>
        <time>2021-09-12T06:29:06.000Z</time>
      </trkpt>
      <trkpt lat="46.4196" lon="4.45312">
        <ele>386.153332</ele>
        <time>2021-09-12T06:29:15.000Z</time>
      </trkpt>
      <trkpt lat="46.41945" lon="4.45323">
        <ele>386.656452</ele>
        <time>2021-09-12T06:29:24.000Z</time>
      </trkpt>
      <trkpt lat="46.41929" lon="4.45343">
        <ele>387.278299</ele>
        <time>2021-09-12T06:29:35.000Z</time>
      </trkpt>
      <trkpt lat="46.41919" lon="4.45359">
        <ele>387.722308</ele>
        <time>2021-09-12T06:29:43.000Z</time>
      </trkpt>
      <trkpt lat="46.41909" lon="4.45377">
        <ele>388.172217</ele>
        <time>2021-09-12T06:29:51.000Z</time>
      </trkpt>
      <trkpt lat="46.41899" lon="4.45397">
        <ele>388.691192</ele>
        <time>2021-09-12T06:29:59.000Z</time>
      </trkpt>
      <trkpt lat="46.41886" lon="4.45422">
        <ele>389.327943</ele>
        <time>2021-09-12T06:30:08.000Z</time>
      </trkpt>
      <trkpt lat="46.41871" lon="4.4545">
        <ele>390.045648</ele>
        <time>2021-09-12T06:30:17.000Z</time>
      </trkpt>
      <trkpt lat="46.41855" lon="4.45481">
        <ele>390.840891</ele>
        <time>2021-09-12T06:30:26.000Z</time>
      </trkpt>
      <trkpt lat="46.41841" lon="4.45508">
        <ele>391.740579</ele>
        <time>2021-09-12T06:30:34.000Z</time>
      </trkpt>
      <trkpt lat="46.41825" lon="4.45539">
        <ele>392.798695</ele>
        <time>2021-09-12T06:30:43.000Z</time>
      </trkpt>
      <trkpt lat="46.41807" lon="4.45575">
        <ele>393.976736</ele>
        <time>2021-09-12T06:30:53.000Z</time>
      </trkpt>
      <trkpt lat="46.41797" lon="4.456">
        <ele>394.791689</ele>
        <time>2021-09-12T06:31:00.000Z</time>
      </trkpt>
      <trkpt lat="46.41789" lon="4.45638">
        <ele>395.85663</ele>
        <time>2021-09-12T06:31:09.000Z</time>
      </trkpt>
      <trkpt lat="46.41779" lon="4.45685">
        <ele>397.191145</ele>
        <time>2021-09-12T06:31:21.000Z</time>
      </trkpt>
      <trkpt lat="46.41774" lon="4.45707">
        <ele>397.830197</ele>
        <time>2021-09-12T06:31:28.000Z</time>
      </trkpt>
      <trkpt lat="46.41767" lon="4.45733">
        <ele>398.807724</ele>
        <time>2021-09-12T06:31:36.000Z</time>
      </trkpt>
      <trkpt lat="46.41761" lon="4.45761">
        <ele>399.920414</ele>
        <time>2021-09-12T06:31:44.000Z</time>
      </trkpt>
      <trkpt lat="46.41756" lon="4.45791">
        <ele>401.108355</ele>
        <time>2021-09-12T06:31:53.000Z</time>
      </trkpt>
      <trkpt lat="46.41753" lon="4.45824">
        <ele>402.371661</ele>
        <time>2021-09-12T06:32:02.000Z</time>
      </trkpt>
      <trkpt lat="46.41749" lon="4.45862">
        <ele>403.835752</ele>
        <time>2021-09-12T06:32:12.000Z</time>
      </trkpt>
      <trkpt lat="46.41745" lon="4.45895">
        <ele>405.124188</ele>
        <time>2021-09-12T06:32:21.000Z</time>
      </trkpt>
      <trkpt lat="46.41741" lon="4.45927">
        <ele>406.353426</ele>
        <time>2021-09-12T06:32:30.000Z</time>
      </trkpt>
      <trkpt lat="46.41737" lon="4.45967">
        <ele>407.899095</ele>
        <time>2021-09-12T06:32:42.000Z</time>
      </trkpt>
      <trkpt lat="46.41734" lon="4.46001">
        <ele>409.272937</ele>
        <time>2021-09-12T06:32:52.000Z</time>
      </trkpt>
      <trkpt lat="46.4173" lon="4.46033">
        <ele>410.558551</ele>
        <time>2021-09-12T06:33:01.000Z</time>
      </trkpt>
      <trkpt lat="46.41728" lon="4.46056">
        <ele>411.517769</ele>
        <time>2021-09-12T06:33:08.000Z</time>
      </trkpt>
      <trkpt lat="46.41725" lon="4.46087">
        <ele>412.745916</ele>
        <time>2021-09-12T06:33:17.000Z</time>
      </trkpt>
      <trkpt lat="46.41722" lon="4.4612">
        <ele>414.1201</ele>
        <time>2021-09-12T06:33:27.000Z</time>
      </trkpt>
      <trkpt lat="46.41719" lon="4.46153">
        <ele>415.429647</ele>
        <time>2021-09-12T06:33:36.000Z</time>
      </trkpt>
      <trkpt lat="46.41716" lon="4.46184">
        <ele>416.706475</ele>
        <time>2021-09-12T06:33:44.000Z</time>
      </trkpt>
      <trkpt lat="46.41712" lon="4.46227">
        <ele>418.438974</ele>
        <time>2021-09-12T06:33:55.000Z</time>
      </trkpt>
      <trkpt lat="46.41709" lon="4.4626">
        <ele>419.584635</ele>
        <time>2021-09-12T06:34:03.000Z</time>
      </trkpt>
      <trkpt lat="46.41706" lon="4.46291">
        <ele>420.638665</ele>
        <time>2021-09-12T06:34:11.000Z</time>
      </trkpt>
      <trkpt lat="46.41703" lon="4.46322">
        <ele>421.686068</ele>
        <time>2021-09-12T06:34:19.000Z</time>
      </trkpt>
      <trkpt lat="46.417" lon="4.4635">
        <ele>422.624753</ele>
        <time>2021-09-12T06:34:26.000Z</time>
      </trkpt>
      <trkpt lat="46.41697" lon="4.46377">
        <ele>423.544892</ele>
        <time>2021-09-12T06:34:33.000Z</time>
      </trkpt>
      <trkpt lat="46.41693" lon="4.46409">
        <ele>424.619012</ele>
        <time>2021-09-12T06:34:41.000Z</time>
      </trkpt>
      <trkpt lat="46.41689" lon="4.46441">
        <ele>425.7129</ele>
        <time>2021-09-12T06:34:50.000Z</time>
      </trkpt>
      <trkpt lat="46.41687" lon="4.46476">
        <ele>426.869537</ele>
        <time>2021-09-12T06:35:00.000Z</time>
      </trkpt>
      <trkpt lat="46.41689" lon="4.46504">
        <ele>427.78076</ele>
        <time>2021-09-12T06:35:08.000Z</time>
      </trkpt>
      <trkpt lat="46.41695" lon="4.46531">
        <ele>428.656443</ele>
        <time>2021-09-12T06:35:15.000Z</time>
      </trkpt>
      <trkpt lat="46.417" lon="4.46555">
        <ele>429.472872</ele>
        <time>2021-09-12T06:35:21.000Z</time>
      </trkpt>
      <trkpt lat="46.41709" lon="4.46599">
        <ele>430.905875</ele>
        <time>2021-09-12T06:35:30.000Z</time>
      </trkpt>
      <trkpt lat="46.41709" lon="4.46634">
        <ele>431.981224</ele>
        <time>2021-09-12T06:35:37.000Z</time>
      </trkpt>
      <trkpt lat="46.41707" lon="4.46659">
        <ele>432.782686</ele>
        <time>2021-09-12T06:35:43.000Z</time>
      </trkpt>
      <trkpt lat="46.41705" lon="4.46685">
        <ele>433.590235</ele>
        <time>2021-09-12T06:35:50.000Z</time>
      </trkpt>
      <trkpt lat="46.41703" lon="4.46714">
        <ele>434.527535</ele>
        <time>2021-09-12T06:35:58.000Z</time>
      </trkpt>
      <trkpt lat="46.417" lon="4.46746">
        <ele>435.553312</ele>
        <time>2021-09-12T06:36:06.000Z</time>
      </trkpt>
      <trkpt lat="46.41699" lon="4.46768">
        <ele>436.420661</ele>
        <time>2021-09-12T06:36:12.000Z</time>
      </trkpt>
      <trkpt lat="46.41695" lon="4.46791">
        <ele>437.346328</ele>
        <time>2021-09-12T06:36:18.000Z</time>
      </trkpt>
      <trkpt lat="46.4169" lon="4.46818">
        <ele>438.412371</ele>
        <time>2021-09-12T06:36:25.000Z</time>
      </trkpt>
      <trkpt lat="46.4168" lon="4.4685">
        <ele>439.771414</ele>
        <time>2021-09-12T06:36:34.000Z</time>
      </trkpt>
      <trkpt lat="46.4167" lon="4.46879">
        <ele>441.038558</ele>
        <time>2021-09-12T06:36:43.000Z</time>
      </trkpt>
      <trkpt lat="46.41663" lon="4.46899">
        <ele>441.926159</ele>
        <time>2021-09-12T06:36:50.000Z</time>
      </trkpt>
      <trkpt lat="46.4166" lon="4.46907">
        <ele>442.241543</ele>
        <time>2021-09-12T06:36:55.000Z</time>
      </trkpt>
      <trkpt lat="46.41658" lon="4.46912">
        <ele>442.492319</ele>
        <time>2021-09-12T06:37:16.000Z</time>
      </trkpt>
      <trkpt lat="46.41656" lon="4.46917">
        <ele>442.711192</ele>
        <time>2021-09-12T06:37:18.000Z</time>
      </trkpt>
      <trkpt lat="46.41648" lon="4.46939">
        <ele>443.669465</ele>
        <time>2021-09-12T06:37:26.000Z</time>
      </trkpt>
      <trkpt lat="46.41641" lon="4.46959">
        <ele>444.531228</ele>
        <time>2021-09-12T06:37:34.000Z</time>
      </trkpt>
      <trkpt lat="46.41639" lon="4.46967">
        <ele>444.878334</ele>
        <time>2021-09-12T06:37:37.000Z</time>
      </trkpt>
      <trkpt lat="46.41637" lon="4.46976">
        <ele>445.243345</ele>
        <time>2021-09-12T06:37:40.000Z</time>
      </trkpt>
      <trkpt lat="46.41633" lon="4.46994">
        <ele>446.053493</ele>
        <time>2021-09-12T06:37:46.000Z</time>
      </trkpt>
      <trkpt lat="46.41629" lon="4.4702">
        <ele>447.29718</ele>
        <time>2021-09-12T06:37:55.000Z</time>
      </trkpt>
      <trkpt lat="46.41626" lon="4.47043">
        <ele>448.418363</ele>
        <time>2021-09-12T06:38:03.000Z</time>
      </trkpt>
      <trkpt lat="46.41624" lon="4.47064">
        <ele>449.416505</ele>
        <time>2021-09-12T06:38:10.000Z</time>
      </trkpt>
      <trkpt lat="46.41622" lon="4.47082">
        <ele>450.230643</ele>
        <time>2021-09-12T06:38:16.000Z</time>
      </trkpt>
      <trkpt lat="46.4162" lon="4.47095">
        <ele>450.86999</ele>
        <time>2021-09-12T06:38:21.000Z</time>
      </trkpt>
      <trkpt lat="46.41618" lon="4.47116">
        <ele>451.839402</ele>
        <time>2021-09-12T06:38:28.000Z</time>
      </trkpt>
      <trkpt lat="46.41616" lon="4.47133">
        <ele>452.681168</ele>
        <time>2021-09-12T06:38:34.000Z</time>
      </trkpt>
      <trkpt lat="46.41613" lon="4.47161">
        <ele>453.992075</ele>
        <time>2021-09-12T06:38:42.000Z</time>
      </trkpt>
      <trkpt lat="46.4161" lon="4.47185">
        <ele>455.113261</ele>
        <time>2021-09-12T06:38:49.000Z</time>
      </trkpt>
      <trkpt lat="46.41608" lon="4.47206">
        <ele>456.09299</ele>
        <time>2021-09-12T06:38:55.000Z</time>
      </trkpt>
      <trkpt lat="46.41605" lon="4.4723">
        <ele>457.26705</ele>
        <time>2021-09-12T06:39:01.000Z</time>
      </trkpt>
      <trkpt lat="46.41601" lon="4.47265">
        <ele>458.290302</ele>
        <time>2021-09-12T06:39:09.000Z</time>
      </trkpt>
      <trkpt lat="46.41595" lon="4.47314">
        <ele>459.433039</ele>
        <time>2021-09-12T06:39:20.000Z</time>
      </trkpt>
      <trkpt lat="46.41591" lon="4.47352">
        <ele>460.308303</ele>
        <time>2021-09-12T06:39:29.000Z</time>
      </trkpt>
      <trkpt lat="46.41586" lon="4.47393">
        <ele>461.260312</ele>
        <time>2021-09-12T06:39:37.000Z</time>
      </trkpt>
      <trkpt lat="46.41581" lon="4.47437">
        <ele>462.281742</ele>
        <time>2021-09-12T06:39:45.000Z</time>
      </trkpt>
      <trkpt lat="46.41577" lon="4.47473">
        <ele>463.124831</ele>
        <time>2021-09-12T06:39:52.000Z</time>
      </trkpt>
      <trkpt lat="46.41572" lon="4.47518">
        <ele>464.202801</ele>
        <time>2021-09-12T06:40:02.000Z</time>
      </trkpt>
      <trkpt lat="46.41568" lon="4.47551">
        <ele>465.037437</ele>
        <time>2021-09-12T06:40:11.000Z</time>
      </trkpt>
      <trkpt lat="46.41565" lon="4.4758">
        <ele>465.761156</ele>
        <time>2021-09-12T06:40:19.000Z</time>
      </trkpt>
      <trkpt lat="46.41562" lon="4.47609">
        <ele>466.48459</ele>
        <time>2021-09-12T06:40:27.000Z</time>
      </trkpt>
      <trkpt lat="46.41558" lon="4.47647">
        <ele>467.456392</ele>
        <time>2021-09-12T06:40:36.000Z</time>
      </trkpt>
      <trkpt lat="46.41554" lon="4.47697">
        <ele>468.717478</ele>
        <time>2021-09-12T06:40:47.000Z</time>
      </trkpt>
      <trkpt lat="46.4155" lon="4.47731">
        <ele>469.571505</ele>
        <time>2021-09-12T06:40:54.000Z</time>
      </trkpt>
      <trkpt lat="46.41546" lon="4.47777">
        <ele>470.642735</ele>
        <time>2021-09-12T06:41:03.000Z</time>
      </trkpt>
      <trkpt lat="46.41541" lon="4.47819">
        <ele>471.585556</ele>
        <time>2021-09-12T06:41:11.000Z</time>
      </trkpt>
      <trkpt lat="46.41533" lon="4.47857">
        <ele>472.449919</ele>
        <time>2021-09-12T06:41:18.000Z</time>
      </trkpt>
      <trkpt lat="46.41524" lon="4.47886">
        <ele>473.150371</ele>
        <time>2021-09-12T06:41:25.000Z</time>
      </trkpt>
      <trkpt lat="46.41508" lon="4.47909">
        <ele>473.867527</ele>
        <time>2021-09-12T06:41:33.000Z</time>
      </trkpt>
      <trkpt lat="46.41487" lon="4.47928">
        <ele>474.635305</ele>
        <time>2021-09-12T06:41:41.000Z</time>
      </trkpt>
      <trkpt lat="46.41457" lon="4.47952">
        <ele>475.727111</ele>
        <time>2021-09-12T06:41:52.000Z</time>
      </trkpt>
      <trkpt lat="46.41432" lon="4.47971">
        <ele>476.804752</ele>
        <time>2021-09-12T06:42:01.000Z</time>
      </trkpt>
      <trkpt lat="46.41413" lon="4.47987">
        <ele>477.658814</ele>
        <time>2021-09-12T06:42:09.000Z</time>
      </trkpt>
      <trkpt lat="46.41399" lon="4.47997">
        <ele>478.264289</ele>
        <time>2021-09-12T06:42:16.000Z</time>
      </trkpt>
      <trkpt lat="46.41386" lon="4.48008">
        <ele>478.847592</ele>
        <time>2021-09-12T06:42:23.000Z</time>
      </trkpt>
      <trkpt lat="46.4137" lon="4.4802">
        <ele>479.537066</ele>
        <time>2021-09-12T06:42:32.000Z</time>
      </trkpt>
      <trkpt lat="46.41356" lon="4.48032">
        <ele>480.192863</ele>
        <time>2021-09-12T06:42:39.000Z</time>
      </trkpt>
      <trkpt lat="46.41335" lon="4.48048">
        <ele>481.087867</ele>
        <time>2021-09-12T06:42:49.000Z</time>
      </trkpt>
      <trkpt lat="46.41317" lon="4.48062">
        <ele>481.884092</ele>
        <time>2021-09-12T06:42:55.000Z</time>
      </trkpt>
      <trkpt lat="46.41313" lon="4.48065">
        <ele>482.055511</ele>
        <time>2021-09-12T06:42:56.000Z</time>
      </trkpt>
      <trkpt lat="46.41292" lon="4.48081">
        <ele>482.839353</ele>
        <time>2021-09-12T06:43:01.000Z</time>
      </trkpt>
      <trkpt lat="46.41246" lon="4.48116">
        <ele>482.717411</ele>
        <time>2021-09-12T06:43:11.000Z</time>
      </trkpt>
      <trkpt lat="46.41216" lon="4.48138">
        <ele>482.638274</ele>
        <time>2021-09-12T06:43:16.000Z</time>
      </trkpt>
      <trkpt lat="46.41179" lon="4.48166">
        <ele>482.541839</ele>
        <time>2021-09-12T06:43:21.000Z</time>
      </trkpt>
      <trkpt lat="46.41133" lon="4.48201">
        <ele>482.370694</ele>
        <time>2021-09-12T06:43:27.000Z</time>
      </trkpt>
      <trkpt lat="46.41082" lon="4.48239">
        <ele>481.43263</ele>
        <time>2021-09-12T06:43:33.000Z</time>
      </trkpt>
      <trkpt lat="46.41073" lon="4.48246">
        <ele>481.275191</ele>
        <time>2021-09-12T06:43:34.000Z</time>
      </trkpt>
      <trkpt lat="46.41022" lon="4.48285">
        <ele>480.322368</ele>
        <time>2021-09-12T06:43:40.000Z</time>
      </trkpt>
      <trkpt lat="46.40995" lon="4.48305">
        <ele>479.832914</ele>
        <time>2021-09-12T06:43:43.000Z</time>
      </trkpt>
      <trkpt lat="46.40952" lon="4.48337">
        <ele>478.480424</ele>
        <time>2021-09-12T06:43:48.000Z</time>
      </trkpt>
      <trkpt lat="46.40908" lon="4.48371">
        <ele>476.593159</ele>
        <time>2021-09-12T06:43:54.000Z</time>
      </trkpt>
      <trkpt lat="46.40879" lon="4.48401">
        <ele>475.264683</ele>
        <time>2021-09-12T06:43:59.000Z</time>
      </trkpt>
      <trkpt lat="46.40871" lon="4.48417">
        <ele>474.724999</ele>
        <time>2021-09-12T06:44:03.000Z</time>
      </trkpt>
      <trkpt lat="46.40869" lon="4.48422">
        <ele>474.60489</ele>
        <time>2021-09-12T06:44:07.000Z</time>
      </trkpt>
      <trkpt lat="46.40868" lon="4.48427">
        <ele>474.455086</ele>
        <time>2021-09-12T06:44:36.000Z</time>
      </trkpt>
      <trkpt lat="46.40867" lon="4.48434">
        <ele>474.260776</ele>
        <time>2021-09-12T06:44:38.000Z</time>
      </trkpt>
      <trkpt lat="46.40864" lon="4.48456">
        <ele>473.688282</ele>
        <time>2021-09-12T06:44:42.000Z</time>
      </trkpt>
      <trkpt lat="46.40865" lon="4.48463">
        <ele>473.522403</ele>
        <time>2021-09-12T06:44:43.000Z</time>
      </trkpt>
      <trkpt lat="46.40865" lon="4.48477">
        <ele>473.151975</ele>
        <time>2021-09-12T06:44:45.000Z</time>
      </trkpt>
      <trkpt lat="46.40866" lon="4.48502">
        <ele>472.530022</ele>
        <time>2021-09-12T06:44:48.000Z</time>
      </trkpt>
      <trkpt lat="46.40864" lon="4.48559">
        <ele>471.162658</ele>
        <time>2021-09-12T06:44:54.000Z</time>
      </trkpt>
      <trkpt lat="46.40857" lon="4.48605">
        <ele>470.061738</ele>
        <time>2021-09-12T06:44:58.000Z</time>
      </trkpt>
      <trkpt lat="46.40854" lon="4.48617">
        <ele>469.754571</ele>
        <time>2021-09-12T06:44:59.000Z</time>
      </trkpt>
      <trkpt lat="46.40837" lon="4.48664">
        <ele>468.511168</ele>
        <time>2021-09-12T06:45:03.000Z</time>
      </trkpt>
      <trkpt lat="46.40822" lon="4.48711">
        <ele>467.259265</ele>
        <time>2021-09-12T06:45:07.000Z</time>
      </trkpt>
      <trkpt lat="46.40818" lon="4.48724">
        <ele>466.924414</ele>
        <time>2021-09-12T06:45:08.000Z</time>
      </trkpt>
      <trkpt lat="46.40817" lon="4.48739">
        <ele>466.576174</ele>
        <time>2021-09-12T06:45:09.000Z</time>
      </trkpt>
      <trkpt lat="46.40815" lon="4.48786">
        <ele>465.203085</ele>
        <time>2021-09-12T06:45:12.000Z</time>
      </trkpt>
      <trkpt lat="46.40825" lon="4.48852">
        <ele>463.189775</ele>
        <time>2021-09-12T06:45:16.000Z</time>
      </trkpt>
      <trkpt lat="46.4084" lon="4.48917">
        <ele>461.157576</ele>
        <time>2021-09-12T06:45:20.000Z</time>
      </trkpt>
      <trkpt lat="46.40855" lon="4.48945">
        <ele>460.10936</ele>
        <time>2021-09-12T06:45:22.000Z</time>
      </trkpt>
      <trkpt lat="46.40863" lon="4.48959">
        <ele>459.575656</ele>
        <time>2021-09-12T06:45:23.000Z</time>
      </trkpt>
      <trkpt lat="46.4087" lon="4.48974">
        <ele>459.040374</ele>
        <time>2021-09-12T06:45:24.000Z</time>
      </trkpt>
      <trkpt lat="46.40875" lon="4.49007">
        <ele>457.956139</ele>
        <time>2021-09-12T06:45:26.000Z</time>
      </trkpt>
      <trkpt lat="46.40876" lon="4.49056">
        <ele>456.359051</ele>
        <time>2021-09-12T06:45:29.000Z</time>
      </trkpt>
      <trkpt lat="46.40872" lon="4.4912">
        <ele>454.285861</ele>
        <time>2021-09-12T06:45:33.000Z</time>
      </trkpt>
      <trkpt lat="46.40862" lon="4.49199">
        <ele>451.662008</ele>
        <time>2021-09-12T06:45:38.000Z</time>
      </trkpt>
      <trkpt lat="46.40858" lon="4.49231">
        <ele>450.598689</ele>
        <time>2021-09-12T06:45:40.000Z</time>
      </trkpt>
      <trkpt lat="46.4085" lon="4.49263">
        <ele>449.413228</ele>
        <time>2021-09-12T06:45:42.000Z</time>
      </trkpt>
      <trkpt lat="46.40845" lon="4.49278">
        <ele>448.800666</ele>
        <time>2021-09-12T06:45:43.000Z</time>
      </trkpt>
      <trkpt lat="46.40838" lon="4.49292">
        <ele>448.173279</ele>
        <time>2021-09-12T06:45:44.000Z</time>
      </trkpt>
      <trkpt lat="46.40821" lon="4.49315">
        <ele>446.927737</ele>
        <time>2021-09-12T06:45:46.000Z</time>
      </trkpt>
      <trkpt lat="46.40781" lon="4.4937">
        <ele>444.000067</ele>
        <time>2021-09-12T06:45:51.000Z</time>
      </trkpt>
      <trkpt lat="46.40773" lon="4.49381">
        <ele>443.422895</ele>
        <time>2021-09-12T06:45:52.000Z</time>
      </trkpt>
      <trkpt lat="46.40734" lon="4.49439">
        <ele>440.410798</ele>
        <time>2021-09-12T06:45:57.000Z</time>
      </trkpt>
      <trkpt lat="46.40718" lon="4.49464">
        <ele>439.075852</ele>
        <time>2021-09-12T06:45:59.000Z</time>
      </trkpt>
      <trkpt lat="46.40679" lon="4.49525">
        <ele>435.781641</ele>
        <time>2021-09-12T06:46:04.000Z</time>
      </trkpt>
      <trkpt lat="46.40663" lon="4.4955">
        <ele>434.457384</ele>
        <time>2021-09-12T06:46:06.000Z</time>
      </trkpt>
      <trkpt lat="46.40638" lon="4.49608">
        <ele>431.743623</ele>
        <time>2021-09-12T06:46:10.000Z</time>
      </trkpt>
      <trkpt lat="46.4061" lon="4.49694">
        <ele>427.835062</ele>
        <time>2021-09-12T06:46:15.000Z</time>
      </trkpt>
      <trkpt lat="46.40605" lon="4.49712">
        <ele>427.023373</ele>
        <time>2021-09-12T06:46:16.000Z</time>
      </trkpt>
      <trkpt lat="46.40578" lon="4.498">
        <ele>422.942052</ele>
        <time>2021-09-12T06:46:21.000Z</time>
      </trkpt>
      <trkpt lat="46.40562" lon="4.4985">
        <ele>420.652514</ele>
        <time>2021-09-12T06:46:24.000Z</time>
      </trkpt>
      <trkpt lat="46.40538" lon="4.49925">
        <ele>417.125671</ele>
        <time>2021-09-12T06:46:29.000Z</time>
      </trkpt>
      <trkpt lat="46.40529" lon="4.49955">
        <ele>415.755066</ele>
        <time>2021-09-12T06:46:32.000Z</time>
      </trkpt>
      <trkpt lat="46.40506" lon="4.50027">
        <ele>412.3741</ele>
        <time>2021-09-12T06:46:37.000Z</time>
      </trkpt>
      <trkpt lat="46.40492" lon="4.50072">
        <ele>410.313719</ele>
        <time>2021-09-12T06:46:40.000Z</time>
      </trkpt>
      <trkpt lat="46.4047" lon="4.50144">
        <ele>406.96112</ele>
        <time>2021-09-12T06:46:45.000Z</time>
      </trkpt>
      <trkpt lat="46.40452" lon="4.50199">
        <ele>404.414301</ele>
        <time>2021-09-12T06:46:49.000Z</time>
      </trkpt>
      <trkpt lat="46.40428" lon="4.50275">
        <ele>400.884043</ele>
        <time>2021-09-12T06:46:55.000Z</time>
      </trkpt>
      <trkpt lat="46.40424" lon="4.50287">
        <ele>400.337016</ele>
        <time>2021-09-12T06:46:56.000Z</time>
      </trkpt>
      <trkpt lat="46.40404" lon="4.5035">
        <ele>397.442727</ele>
        <time>2021-09-12T06:47:02.000Z</time>
      </trkpt>
      <trkpt lat="46.40399" lon="4.50366">
        <ele>396.686151</ele>
        <time>2021-09-12T06:47:04.000Z</time>
      </trkpt>
      <trkpt lat="46.40394" lon="4.5038">
        <ele>396.039278</ele>
        <time>2021-09-12T06:47:06.000Z</time>
      </trkpt>
      <trkpt lat="46.40386" lon="4.50407">
        <ele>394.806812</ele>
        <time>2021-09-12T06:47:11.000Z</time>
      </trkpt>
      <trkpt lat="46.40377" lon="4.50433">
        <ele>393.599859</ele>
        <time>2021-09-12T06:47:17.000Z</time>
      </trkpt>
      <trkpt lat="46.40367" lon="4.50466">
        <ele>392.044596</ele>
        <time>2021-09-12T06:47:25.000Z</time>
      </trkpt>
      <trkpt lat="46.40362" lon="4.50496">
        <ele>390.762043</ele>
        <time>2021-09-12T06:47:32.000Z</time>
      </trkpt>
      <trkpt lat="46.40364" lon="4.50523">
        <ele>389.59777</ele>
        <time>2021-09-12T06:47:39.000Z</time>
      </trkpt>
      <trkpt lat="46.4037" lon="4.50554">
        <ele>388.237335</ele>
        <time>2021-09-12T06:47:47.000Z</time>
      </trkpt>
      <trkpt lat="46.40376" lon="4.50584">
        <ele>386.942692</ele>
        <time>2021-09-12T06:47:55.000Z</time>
      </trkpt>
      <trkpt lat="46.40383" lon="4.50618">
        <ele>386.515031</ele>
        <time>2021-09-12T06:48:05.000Z</time>
      </trkpt>
      <trkpt lat="46.40389" lon="4.50644">
        <ele>386.518804</ele>
        <time>2021-09-12T06:48:13.000Z</time>
      </trkpt>
      <trkpt lat="46.40392" lon="4.50661">
        <ele>386.521336</ele>
        <time>2021-09-12T06:48:19.000Z</time>
      </trkpt>
      <trkpt lat="46.40397" lon="4.50682">
        <ele>386.524336</ele>
        <time>2021-09-12T06:48:27.000Z</time>
      </trkpt>
      <trkpt lat="46.40403" lon="4.50701">
        <ele>386.527285</ele>
        <time>2021-09-12T06:48:35.000Z</time>
      </trkpt>
      <trkpt lat="46.4041" lon="4.5072">
        <ele>386.530356</ele>
        <time>2021-09-12T06:48:43.000Z</time>
      </trkpt>
      <trkpt lat="46.40418" lon="4.50738">
        <ele>386.533186</ele>
        <time>2021-09-12T06:48:50.000Z</time>
      </trkpt>
      <trkpt lat="46.40426" lon="4.50755">
        <ele>386.536138</ele>
        <time>2021-09-12T06:48:56.000Z</time>
      </trkpt>
      <trkpt lat="46.4044" lon="4.5078">
        <ele>386.540703</ele>
        <time>2021-09-12T06:49:04.000Z</time>
      </trkpt>
      <trkpt lat="46.40458" lon="4.5081">
        <ele>386.546179</ele>
        <time>2021-09-12T06:49:13.000Z</time>
      </trkpt>
      <trkpt lat="46.40475" lon="4.5084">
        <ele>386.828409</ele>
        <time>2021-09-12T06:49:22.000Z</time>
      </trkpt>
      <trkpt lat="46.40494" lon="4.50873">
        <ele>387.273218</ele>
        <time>2021-09-12T06:49:31.000Z</time>
      </trkpt>
      <trkpt lat="46.40516" lon="4.50913">
        <ele>387.803202</ele>
        <time>2021-09-12T06:49:41.000Z</time>
      </trkpt>
      <trkpt lat="46.40536" lon="4.50947">
        <ele>388.273834</ele>
        <time>2021-09-12T06:49:49.000Z</time>
      </trkpt>
      <trkpt lat="46.40545" lon="4.50962">
        <ele>388.474343</ele>
        <time>2021-09-12T06:49:52.000Z</time>
      </trkpt>
      <trkpt lat="46.40554" lon="4.50984">
        <ele>388.746994</ele>
        <time>2021-09-12T06:49:56.000Z</time>
      </trkpt>
      <trkpt lat="46.4056" lon="4.51002">
        <ele>388.94848</ele>
        <time>2021-09-12T06:49:59.000Z</time>
      </trkpt>
      <trkpt lat="46.40563" lon="4.51019">
        <ele>389.137163</ele>
        <time>2021-09-12T06:50:02.000Z</time>
      </trkpt>
      <trkpt lat="46.40568" lon="4.51064">
        <ele>389.602341</ele>
        <time>2021-09-12T06:50:10.000Z</time>
      </trkpt>
      <trkpt lat="46.40563" lon="4.51105">
        <ele>390.035401</ele>
        <time>2021-09-12T06:50:18.000Z</time>
      </trkpt>
      <trkpt lat="46.40555" lon="4.51134">
        <ele>390.355318</ele>
        <time>2021-09-12T06:50:24.000Z</time>
      </trkpt>
      <trkpt lat="46.40541" lon="4.51174">
        <ele>390.82385</ele>
        <time>2021-09-12T06:50:31.000Z</time>
      </trkpt>
      <trkpt lat="46.40518" lon="4.5124">
        <ele>391.584189</ele>
        <time>2021-09-12T06:50:40.000Z</time>
      </trkpt>
      <trkpt lat="46.405" lon="4.51294">
        <ele>392.401779</ele>
        <time>2021-09-12T06:50:48.000Z</time>
      </trkpt>
      <trkpt lat="46.40491" lon="4.5132">
        <ele>392.95807</ele>
        <time>2021-09-12T06:50:54.000Z</time>
      </trkpt>
      <trkpt lat="46.40481" lon="4.51349">
        <ele>393.559633</ele>
        <time>2021-09-12T06:51:03.000Z</time>
      </trkpt>
      <trkpt lat="46.40471" lon="4.51378">
        <ele>394.157853</ele>
        <time>2021-09-12T06:51:12.000Z</time>
      </trkpt>
      <trkpt lat="46.40464" lon="4.51399">
        <ele>394.608725</ele>
        <time>2021-09-12T06:51:19.000Z</time>
      </trkpt>
      <trkpt lat="46.40453" lon="4.51432">
        <ele>395.283034</ele>
        <time>2021-09-12T06:51:28.000Z</time>
      </trkpt>
      <trkpt lat="46.4044" lon="4.51473">
        <ele>396.136821</ele>
        <time>2021-09-12T06:51:37.000Z</time>
      </trkpt>
      <trkpt lat="46.40428" lon="4.51511">
        <ele>396.925954</ele>
        <time>2021-09-12T06:51:44.000Z</time>
      </trkpt>
      <trkpt lat="46.40412" lon="4.5156">
        <ele>397.97686</ele>
        <time>2021-09-12T06:51:52.000Z</time>
      </trkpt>
      <trkpt lat="46.40398" lon="4.51605">
        <ele>398.965809</ele>
        <time>2021-09-12T06:52:00.000Z</time>
      </trkpt>
      <trkpt lat="46.40381" lon="4.51659">
        <ele>400.146668</ele>
        <time>2021-09-12T06:52:10.000Z</time>
      </trkpt>
      <trkpt lat="46.40369" lon="4.51694">
        <ele>400.923908</ele>
        <time>2021-09-12T06:52:18.000Z</time>
      </trkpt>
      <trkpt lat="46.40361" lon="4.5172">
        <ele>401.497218</ele>
        <time>2021-09-12T06:52:25.000Z</time>
      </trkpt>
      <trkpt lat="46.40351" lon="4.51749">
        <ele>402.222998</ele>
        <time>2021-09-12T06:52:34.000Z</time>
      </trkpt>
      <trkpt lat="46.40343" lon="4.51776">
        <ele>403.174752</ele>
        <time>2021-09-12T06:52:43.000Z</time>
      </trkpt>
      <trkpt lat="46.40335" lon="4.51798">
        <ele>403.963081</ele>
        <time>2021-09-12T06:52:52.000Z</time>
      </trkpt>
      <trkpt lat="46.40328" lon="4.51822">
        <ele>404.833591</ele>
        <time>2021-09-12T06:53:02.000Z</time>
      </trkpt>
      <trkpt lat="46.40322" lon="4.51838">
        <ele>405.411959</ele>
        <time>2021-09-12T06:53:08.000Z</time>
      </trkpt>
      <trkpt lat="46.40316" lon="4.51857">
        <ele>406.105195</ele>
        <time>2021-09-12T06:53:15.000Z</time>
      </trkpt>
      <trkpt lat="46.40308" lon="4.51882">
        <ele>407.004401</ele>
        <time>2021-09-12T06:53:23.000Z</time>
      </trkpt>
      <trkpt lat="46.40299" lon="4.51914">
        <ele>408.138721</ele>
        <time>2021-09-12T06:53:32.000Z</time>
      </trkpt>
      <trkpt lat="46.40291" lon="4.51951">
        <ele>409.398543</ele>
        <time>2021-09-12T06:53:40.000Z</time>
      </trkpt>
      <trkpt lat="46.40284" lon="4.51983">
        <ele>410.494859</ele>
        <time>2021-09-12T06:53:46.000Z</time>
      </trkpt>
      <trkpt lat="46.40273" lon="4.52034">
        <ele>410.661096</ele>
        <time>2021-09-12T06:53:55.000Z</time>
      </trkpt>
      <trkpt lat="46.4027" lon="4.52054">
        <ele>410.707654</ele>
        <time>2021-09-12T06:53:58.000Z</time>
      </trkpt>
      <trkpt lat="46.40265" lon="4.52077">
        <ele>410.762215</ele>
        <time>2021-09-12T06:54:01.000Z</time>
      </trkpt>
      <trkpt lat="46.40256" lon="4.52127">
        <ele>410.880441</ele>
        <time>2021-09-12T06:54:06.000Z</time>
      </trkpt>
      <trkpt lat="46.40244" lon="4.52193">
        <ele>411.03551</ele>
        <time>2021-09-12T06:54:11.000Z</time>
      </trkpt>
      <trkpt lat="46.40229" lon="4.52279">
        <ele>410.697245</ele>
        <time>2021-09-12T06:54:17.000Z</time>
      </trkpt>
      <trkpt lat="46.40217" lon="4.52342">
        <ele>410.051745</ele>
        <time>2021-09-12T06:54:22.000Z</time>
      </trkpt>
      <trkpt lat="46.40206" lon="4.52423">
        <ele>409.236872</ele>
        <time>2021-09-12T06:54:29.000Z</time>
      </trkpt>
      <trkpt lat="46.40207" lon="4.52481">
        <ele>408.668717</ele>
        <time>2021-09-12T06:54:34.000Z</time>
      </trkpt>
      <trkpt lat="46.40208" lon="4.52533">
        <ele>408.241188</ele>
        <time>2021-09-12T06:54:39.000Z</time>
      </trkpt>
      <trkpt lat="46.40208" lon="4.52552">
        <ele>408.094316</ele>
        <time>2021-09-12T06:54:41.000Z</time>
      </trkpt>
      <trkpt lat="46.40205" lon="4.52581">
        <ele>407.866158</ele>
        <time>2021-09-12T06:54:44.000Z</time>
      </trkpt>
      <trkpt lat="46.40201" lon="4.52649">
        <ele>407.338306</ele>
        <time>2021-09-12T06:54:50.000Z</time>
      </trkpt>
      <trkpt lat="46.40216" lon="4.5269">
        <ele>406.978741</ele>
        <time>2021-09-12T06:54:54.000Z</time>
      </trkpt>
      <trkpt lat="46.40239" lon="4.52745">
        <ele>406.521454</ele>
        <time>2021-09-12T06:55:00.000Z</time>
      </trkpt>
      <trkpt lat="46.40258" lon="4.52791">
        <ele>406.374738</ele>
        <time>2021-09-12T06:55:06.000Z</time>
      </trkpt>
      <trkpt lat="46.40274" lon="4.52832">
        <ele>406.244411</ele>
        <time>2021-09-12T06:55:13.000Z</time>
      </trkpt>
      <trkpt lat="46.40289" lon="4.52872">
        <ele>406.120428</ele>
        <time>2021-09-12T06:55:21.000Z</time>
      </trkpt>
      <trkpt lat="46.4031" lon="4.52904">
        <ele>405.999981</ele>
        <time>2021-09-12T06:55:28.000Z</time>
      </trkpt>
      <trkpt lat="46.40334" lon="4.52935">
        <ele>405.872621</ele>
        <time>2021-09-12T06:55:35.000Z</time>
      </trkpt>
      <trkpt lat="46.40346" lon="4.52951">
        <ele>405.840524</ele>
        <time>2021-09-12T06:55:38.000Z</time>
      </trkpt>
      <trkpt lat="46.40354" lon="4.52962">
        <ele>405.86684</ele>
        <time>2021-09-12T06:55:40.000Z</time>
      </trkpt>
      <trkpt lat="46.40385" lon="4.53002">
        <ele>405.958564</ele>
        <time>2021-09-12T06:55:46.000Z</time>
      </trkpt>
      <trkpt lat="46.40423" lon="4.53052">
        <ele>406.072611</ele>
        <time>2021-09-12T06:55:53.000Z</time>
      </trkpt>
      <trkpt lat="46.40451" lon="4.53089">
        <ele>406.156084</ele>
        <time>2021-09-12T06:55:59.000Z</time>
      </trkpt>
      <trkpt lat="46.40466" lon="4.53109">
        <ele>406.201679</ele>
        <time>2021-09-12T06:56:04.000Z</time>
      </trkpt>
      <trkpt lat="46.40477" lon="4.53124">
        <ele>406.362199</ele>
        <time>2021-09-12T06:56:10.000Z</time>
      </trkpt>
      <trkpt lat="46.40488" lon="4.53139">
        <ele>407.122802</ele>
        <time>2021-09-12T06:56:18.000Z</time>
      </trkpt>
      <trkpt lat="46.40499" lon="4.53153">
        <ele>407.804551</ele>
        <time>2021-09-12T06:56:26.000Z</time>
      </trkpt>
      <trkpt lat="46.40509" lon="4.53168">
        <ele>408.509525</ele>
        <time>2021-09-12T06:56:35.000Z</time>
      </trkpt>
      <trkpt lat="46.4052" lon="4.53181">
        <ele>409.19132</ele>
        <time>2021-09-12T06:56:44.000Z</time>
      </trkpt>
      <trkpt lat="46.40528" lon="4.53192">
        <ele>409.729358</ele>
        <time>2021-09-12T06:56:51.000Z</time>
      </trkpt>
      <trkpt lat="46.40538" lon="4.53204">
        <ele>410.352043</ele>
        <time>2021-09-12T06:56:59.000Z</time>
      </trkpt>
      <trkpt lat="46.40547" lon="4.53216">
        <ele>410.944856</ele>
        <time>2021-09-12T06:57:06.000Z</time>
      </trkpt>
      <trkpt lat="46.40558" lon="4.53233">
        <ele>411.712416</ele>
        <time>2021-09-12T06:57:15.000Z</time>
      </trkpt>
      <trkpt lat="46.40566" lon="4.53249">
        <ele>412.364477</ele>
        <time>2021-09-12T06:57:22.000Z</time>
      </trkpt>
      <trkpt lat="46.40576" lon="4.53271">
        <ele>413.25435</ele>
        <time>2021-09-12T06:57:31.000Z</time>
      </trkpt>
      <trkpt lat="46.40585" lon="4.5329">
        <ele>414.050851</ele>
        <time>2021-09-12T06:57:39.000Z</time>
      </trkpt>
      <trkpt lat="46.40596" lon="4.53312">
        <ele>414.929785</ele>
        <time>2021-09-12T06:57:48.000Z</time>
      </trkpt>
      <trkpt lat="46.40602" lon="4.53328">
        <ele>415.438423</ele>
        <time>2021-09-12T06:57:54.000Z</time>
      </trkpt>
      <trkpt lat="46.40613" lon="4.53356">
        <ele>416.330552</ele>
        <time>2021-09-12T06:58:05.000Z</time>
      </trkpt>
      <trkpt lat="46.40617" lon="4.53367">
        <ele>416.660393</ele>
        <time>2021-09-12T06:58:09.000Z</time>
      </trkpt>
      <trkpt lat="46.40617" lon="4.53369">
        <ele>416.73622</ele>
        <time>2021-09-12T06:58:10.000Z</time>
      </trkpt>
      <trkpt lat="46.40621" lon="4.53385">
        <ele>417.187241</ele>
        <time>2021-09-12T06:58:15.000Z</time>
      </trkpt>
      <trkpt lat="46.40624" lon="4.53406">
        <ele>417.774941</ele>
        <time>2021-09-12T06:58:20.000Z</time>
      </trkpt>
      <trkpt lat="46.40625" lon="4.53435">
        <ele>418.596685</ele>
        <time>2021-09-12T06:58:26.000Z</time>
      </trkpt>
      <trkpt lat="46.4062" lon="4.53476">
        <ele>419.745466</ele>
        <time>2021-09-12T06:58:34.000Z</time>
      </trkpt>
      <trkpt lat="46.40611" lon="4.53524">
        <ele>421.100997</ele>
        <time>2021-09-12T06:58:42.000Z</time>
      </trkpt>
      <trkpt lat="46.40604" lon="4.53562">
        <ele>422.21812</ele>
        <time>2021-09-12T06:58:50.000Z</time>
      </trkpt>
      <trkpt lat="46.406" lon="4.53587">
        <ele>423.247198</ele>
        <time>2021-09-12T06:58:57.000Z</time>
      </trkpt>
      <trkpt lat="46.40596" lon="4.53606">
        <ele>424.033774</ele>
        <time>2021-09-12T06:59:03.000Z</time>
      </trkpt>
      <trkpt lat="46.40591" lon="4.53637">
        <ele>425.313042</ele>
        <time>2021-09-12T06:59:13.000Z</time>
      </trkpt>
      <trkpt lat="46.40585" lon="4.53668">
        <ele>426.554853</ele>
        <time>2021-09-12T06:59:23.000Z</time>
      </trkpt>
      <trkpt lat="46.40581" lon="4.53694">
        <ele>427.625235</ele>
        <time>2021-09-12T06:59:32.000Z</time>
      </trkpt>
      <trkpt lat="46.40576" lon="4.53718">
        <ele>428.615441</ele>
        <time>2021-09-12T06:59:40.000Z</time>
      </trkpt>
      <trkpt lat="46.40571" lon="4.5375">
        <ele>429.907263</ele>
        <time>2021-09-12T06:59:50.000Z</time>
      </trkpt>
      <trkpt lat="46.40567" lon="4.53778">
        <ele>431.040746</ele>
        <time>2021-09-12T06:59:59.000Z</time>
      </trkpt>
      <trkpt lat="46.40564" lon="4.53801">
        <ele>432.007927</ele>
        <time>2021-09-12T07:00:07.000Z</time>
      </trkpt>
      <trkpt lat="46.40562" lon="4.53826">
        <ele>432.837691</ele>
        <time>2021-09-12T07:00:15.000Z</time>
      </trkpt>
      <trkpt lat="46.40561" lon="4.53856">
        <ele>433.648457</ele>
        <time>2021-09-12T07:00:24.000Z</time>
      </trkpt>
      <trkpt lat="46.4056" lon="4.53874">
        <ele>434.122763</ele>
        <time>2021-09-12T07:00:30.000Z</time>
      </trkpt>
      <trkpt lat="46.40559" lon="4.53902">
        <ele>434.884982</ele>
        <time>2021-09-12T07:00:38.000Z</time>
      </trkpt>
      <trkpt lat="46.40558" lon="4.53935">
        <ele>435.773827</ele>
        <time>2021-09-12T07:00:47.000Z</time>
      </trkpt>
      <trkpt lat="46.40556" lon="4.53976">
        <ele>436.867607</ele>
        <time>2021-09-12T07:00:56.000Z</time>
      </trkpt>
      <trkpt lat="46.40554" lon="4.5402">
        <ele>438.066308</ele>
        <time>2021-09-12T07:01:04.000Z</time>
      </trkpt>
      <trkpt lat="46.40552" lon="4.5408">
        <ele>439.711232</ele>
        <time>2021-09-12T07:01:14.000Z</time>
      </trkpt>
      <trkpt lat="46.4055" lon="4.54133">
        <ele>441.479007</ele>
        <time>2021-09-12T07:01:23.000Z</time>
      </trkpt>
      <trkpt lat="46.40547" lon="4.54184">
        <ele>443.177047</ele>
        <time>2021-09-12T07:01:33.000Z</time>
      </trkpt>
      <trkpt lat="46.40546" lon="4.54217">
        <ele>444.281184</ele>
        <time>2021-09-12T07:01:41.000Z</time>
      </trkpt>
      <trkpt lat="46.40545" lon="4.54243">
        <ele>445.167653</ele>
        <time>2021-09-12T07:01:49.000Z</time>
      </trkpt>
      <trkpt lat="46.40544" lon="4.54268">
        <ele>446.007886</ele>
        <time>2021-09-12T07:01:57.000Z</time>
      </trkpt>
      <trkpt lat="46.40543" lon="4.54291">
        <ele>446.781401</ele>
        <time>2021-09-12T07:02:05.000Z</time>
      </trkpt>
      <trkpt lat="46.40543" lon="4.54312">
        <ele>447.484284</ele>
        <time>2021-09-12T07:02:13.000Z</time>
      </trkpt>
      <trkpt lat="46.40541" lon="4.54341">
        <ele>448.601486</ele>
        <time>2021-09-12T07:02:25.000Z</time>
      </trkpt>
      <trkpt lat="46.40541" lon="4.54361">
        <ele>449.721225</ele>
        <time>2021-09-12T07:02:34.000Z</time>
      </trkpt>
      <trkpt lat="46.4054" lon="4.54378">
        <ele>450.645766</ele>
        <time>2021-09-12T07:02:41.000Z</time>
      </trkpt>
      <trkpt lat="46.40539" lon="4.54397">
        <ele>451.720617</ele>
        <time>2021-09-12T07:02:49.000Z</time>
      </trkpt>
      <trkpt lat="46.40538" lon="4.54418">
        <ele>452.906934</ele>
        <time>2021-09-12T07:02:57.000Z</time>
      </trkpt>
      <trkpt lat="46.40537" lon="4.54442">
        <ele>454.209795</ele>
        <time>2021-09-12T07:03:06.000Z</time>
      </trkpt>
      <trkpt lat="46.40536" lon="4.5446">
        <ele>455.246934</ele>
        <time>2021-09-12T07:03:13.000Z</time>
      </trkpt>
      <trkpt lat="46.40535" lon="4.5449">
        <ele>456.880245</ele>
        <time>2021-09-12T07:03:24.000Z</time>
      </trkpt>
      <trkpt lat="46.40533" lon="4.54514">
        <ele>458.229635</ele>
        <time>2021-09-12T07:03:33.000Z</time>
      </trkpt>
      <trkpt lat="46.40532" lon="4.54537">
        <ele>459.495905</ele>
        <time>2021-09-12T07:03:41.000Z</time>
      </trkpt>
      <trkpt lat="46.40531" lon="4.54565">
        <ele>461.068242</ele>
        <time>2021-09-12T07:03:51.000Z</time>
      </trkpt>
      <trkpt lat="46.4053" lon="4.54583">
        <ele>462.086364</ele>
        <time>2021-09-12T07:03:58.000Z</time>
      </trkpt>
      <trkpt lat="46.4053" lon="4.54598">
        <ele>462.838564</ele>
        <time>2021-09-12T07:04:04.000Z</time>
      </trkpt>
      <trkpt lat="46.40526" lon="4.5462">
        <ele>463.676172</ele>
        <time>2021-09-12T07:04:14.000Z</time>
      </trkpt>
      <trkpt lat="46.4052" lon="4.54636">
        <ele>464.314444</ele>
        <time>2021-09-12T07:04:22.000Z</time>
      </trkpt>
      <trkpt lat="46.40511" lon="4.54651">
        <ele>465.040801</ele>
        <time>2021-09-12T07:04:30.000Z</time>
      </trkpt>
      <trkpt lat="46.40498" lon="4.54665">
        <ele>465.887348</ele>
        <time>2021-09-12T07:04:37.000Z</time>
      </trkpt>
      <trkpt lat="46.40478" lon="4.54681">
        <ele>467.078196</ele>
        <time>2021-09-12T07:04:46.000Z</time>
      </trkpt>
      <trkpt lat="46.40451" lon="4.54702">
        <ele>468.700732</ele>
        <time>2021-09-12T07:04:58.000Z</time>
      </trkpt>
      <trkpt lat="46.40428" lon="4.54721">
        <ele>470.077496</ele>
        <time>2021-09-12T07:05:07.000Z</time>
      </trkpt>
      <trkpt lat="46.4041" lon="4.54736">
        <ele>471.173971</ele>
        <time>2021-09-12T07:05:14.000Z</time>
      </trkpt>
      <trkpt lat="46.40389" lon="4.54752">
        <ele>472.373095</ele>
        <time>2021-09-12T07:05:21.000Z</time>
      </trkpt>
      <trkpt lat="46.40367" lon="4.5477">
        <ele>473.500495</ele>
        <time>2021-09-12T07:05:27.000Z</time>
      </trkpt>
      <trkpt lat="46.40359" lon="4.54776">
        <ele>473.912465</ele>
        <time>2021-09-12T07:05:29.000Z</time>
      </trkpt>
      <trkpt lat="46.40344" lon="4.54787">
        <ele>474.671196</ele>
        <time>2021-09-12T07:05:33.000Z</time>
      </trkpt>
      <trkpt lat="46.40322" lon="4.54803">
        <ele>475.74641</ele>
        <time>2021-09-12T07:05:40.000Z</time>
      </trkpt>
      <trkpt lat="46.40301" lon="4.54818">
        <ele>476.77757</ele>
        <time>2021-09-12T07:05:49.000Z</time>
      </trkpt>
      <trkpt lat="46.4028" lon="4.54833">
        <ele>477.814086</ele>
        <time>2021-09-12T07:05:58.000Z</time>
      </trkpt>
      <trkpt lat="46.40263" lon="4.54846">
        <ele>478.691671</ele>
        <time>2021-09-12T07:06:06.000Z</time>
      </trkpt>
      <trkpt lat="46.40246" lon="4.54858">
        <ele>479.507759</ele>
        <time>2021-09-12T07:06:14.000Z</time>
      </trkpt>
      <trkpt lat="46.40233" lon="4.54868">
        <ele>480.177046</ele>
        <time>2021-09-12T07:06:21.000Z</time>
      </trkpt>
      <trkpt lat="46.4022" lon="4.54878">
        <ele>480.820775</ele>
        <time>2021-09-12T07:06:27.000Z</time>
      </trkpt>
      <trkpt lat="46.40201" lon="4.54892">
        <ele>481.784378</ele>
        <time>2021-09-12T07:06:35.000Z</time>
      </trkpt>
      <trkpt lat="46.40183" lon="4.54906">
        <ele>482.712742</ele>
        <time>2021-09-12T07:06:42.000Z</time>
      </trkpt>
      <trkpt lat="46.4016" lon="4.54925">
        <ele>483.89375</ele>
        <time>2021-09-12T07:06:51.000Z</time>
      </trkpt>
      <trkpt lat="46.40139" lon="4.54942">
        <ele>484.935136</ele>
        <time>2021-09-12T07:06:59.000Z</time>
      </trkpt>
      <trkpt lat="46.40124" lon="4.54965">
        <ele>485.89925</ele>
        <time>2021-09-12T07:07:06.000Z</time>
      </trkpt>
      <trkpt lat="46.4011" lon="4.54995">
        <ele>487.018173</ele>
        <time>2021-09-12T07:07:14.000Z</time>
      </trkpt>
      <trkpt lat="46.40099" lon="4.55028">
        <ele>488.138572</ele>
        <time>2021-09-12T07:07:22.000Z</time>
      </trkpt>
      <trkpt lat="46.4009" lon="4.5506">
        <ele>488.934009</ele>
        <time>2021-09-12T07:07:30.000Z</time>
      </trkpt>
      <trkpt lat="46.40078" lon="4.55104">
        <ele>489.980277</ele>
        <time>2021-09-12T07:07:40.000Z</time>
      </trkpt>
      <trkpt lat="46.40066" lon="4.55147">
        <ele>491.025323</ele>
        <time>2021-09-12T07:07:50.000Z</time>
      </trkpt>
      <trkpt lat="46.40058" lon="4.5518">
        <ele>491.809098</ele>
        <time>2021-09-12T07:07:57.000Z</time>
      </trkpt>
      <trkpt lat="46.4005" lon="4.55224">
        <ele>492.82588</ele>
        <time>2021-09-12T07:08:05.000Z</time>
      </trkpt>
      <trkpt lat="46.40052" lon="4.55254">
        <ele>493.506438</ele>
        <time>2021-09-12T07:08:10.000Z</time>
      </trkpt>
      <trkpt lat="46.40054" lon="4.55267">
        <ele>493.795649</ele>
        <time>2021-09-12T07:08:12.000Z</time>
      </trkpt>
      <trkpt lat="46.40061" lon="4.55312">
        <ele>494.552269</ele>
        <time>2021-09-12T07:08:19.000Z</time>
      </trkpt>
      <trkpt lat="46.40076" lon="4.5536">
        <ele>495.316006</ele>
        <time>2021-09-12T07:08:27.000Z</time>
      </trkpt>
      <trkpt lat="46.4009" lon="4.55396">
        <ele>495.921399</ele>
        <time>2021-09-12T07:08:34.000Z</time>
      </trkpt>
      <trkpt lat="46.40094" lon="4.55406">
        <ele>496.096495</ele>
        <time>2021-09-12T07:08:36.000Z</time>
      </trkpt>
      <trkpt lat="46.40106" lon="4.55433">
        <ele>496.555864</ele>
        <time>2021-09-12T07:08:41.000Z</time>
      </trkpt>
      <trkpt lat="46.40111" lon="4.55443">
        <ele>496.74056</ele>
        <time>2021-09-12T07:08:43.000Z</time>
      </trkpt>
      <trkpt lat="46.40119" lon="4.55459">
        <ele>497.020036</ele>
        <time>2021-09-12T07:08:46.000Z</time>
      </trkpt>
      <trkpt lat="46.40136" lon="4.55488">
        <ele>497.582563</ele>
        <time>2021-09-12T07:08:51.000Z</time>
      </trkpt>
      <trkpt lat="46.4016" lon="4.5553">
        <ele>498.29016</ele>
        <time>2021-09-12T07:08:58.000Z</time>
      </trkpt>
      <trkpt lat="46.40166" lon="4.55541">
        <ele>498.455671</ele>
        <time>2021-09-12T07:09:00.000Z</time>
      </trkpt>
      <trkpt lat="46.40178" lon="4.5556">
        <ele>498.773827</ele>
        <time>2021-09-12T07:09:04.000Z</time>
      </trkpt>
      <trkpt lat="46.40194" lon="4.55589">
        <ele>499.229507</ele>
        <time>2021-09-12T07:09:10.000Z</time>
      </trkpt>
      <trkpt lat="46.40197" lon="4.55593">
        <ele>499.302553</ele>
        <time>2021-09-12T07:09:11.000Z</time>
      </trkpt>
      <trkpt lat="46.40214" lon="4.55617">
        <ele>499.726256</ele>
        <time>2021-09-12T07:09:17.000Z</time>
      </trkpt>
      <trkpt lat="46.40222" lon="4.55627">
        <ele>499.907779</ele>
        <time>2021-09-12T07:09:22.000Z</time>
      </trkpt>
      <trkpt lat="46.40227" lon="4.55634">
        <ele>500.032499</ele>
        <time>2021-09-12T07:09:56.000Z</time>
      </trkpt>
      <trkpt lat="46.40229" lon="4.55637">
        <ele>500.082905</ele>
        <time>2021-09-12T07:09:57.000Z</time>
      </trkpt>
      <trkpt lat="46.40243" lon="4.55654">
        <ele>500.420311</ele>
        <time>2021-09-12T07:10:03.000Z</time>
      </trkpt>
      <trkpt lat="46.40265" lon="4.5567">
        <ele>500.851422</ele>
        <time>2021-09-12T07:10:08.000Z</time>
      </trkpt>
      <trkpt lat="46.40275" lon="4.55681">
        <ele>500.996577</ele>
        <time>2021-09-12T07:10:10.000Z</time>
      </trkpt>
      <trkpt lat="46.40279" lon="4.55688">
        <ele>500.9527</ele>
        <time>2021-09-12T07:10:11.000Z</time>
      </trkpt>
      <trkpt lat="46.40304" lon="4.55737">
        <ele>500.660041</ele>
        <time>2021-09-12T07:10:17.000Z</time>
      </trkpt>
      <trkpt lat="46.40323" lon="4.55795">
        <ele>500.352572</ele>
        <time>2021-09-12T07:10:23.000Z</time>
      </trkpt>
      <trkpt lat="46.40339" lon="4.55854">
        <ele>500.050549</ele>
        <time>2021-09-12T07:10:29.000Z</time>
      </trkpt>
      <trkpt lat="46.40347" lon="4.559">
        <ele>499.8241</ele>
        <time>2021-09-12T07:10:34.000Z</time>
      </trkpt>
      <trkpt lat="46.40353" lon="4.55923">
        <ele>499.550916</ele>
        <time>2021-09-12T07:10:37.000Z</time>
      </trkpt>
      <trkpt lat="46.40358" lon="4.5594">
        <ele>499.2562</ele>
        <time>2021-09-12T07:10:39.000Z</time>
      </trkpt>
      <trkpt lat="46.40378" lon="4.55974">
        <ele>498.566796</ele>
        <time>2021-09-12T07:10:43.000Z</time>
      </trkpt>
      <trkpt lat="46.40404" lon="4.56017">
        <ele>497.658553</ele>
        <time>2021-09-12T07:10:47.000Z</time>
      </trkpt>
      <trkpt lat="46.40444" lon="4.56073">
        <ele>496.382585</ele>
        <time>2021-09-12T07:10:52.000Z</time>
      </trkpt>
      <trkpt lat="46.40452" lon="4.56084">
        <ele>496.129917</ele>
        <time>2021-09-12T07:10:53.000Z</time>
      </trkpt>
      <trkpt lat="46.405" lon="4.56147">
        <ele>494.268055</ele>
        <time>2021-09-12T07:10:59.000Z</time>
      </trkpt>
      <trkpt lat="46.40509" lon="4.56155">
        <ele>493.921809</ele>
        <time>2021-09-12T07:11:00.000Z</time>
      </trkpt>
      <trkpt lat="46.40529" lon="4.56162">
        <ele>493.2574</ele>
        <time>2021-09-12T07:11:02.000Z</time>
      </trkpt>
      <trkpt lat="46.40573" lon="4.56163">
        <ele>491.858978</ele>
        <time>2021-09-12T07:11:06.000Z</time>
      </trkpt>
      <trkpt lat="46.40584" lon="4.56166">
        <ele>491.484713</ele>
        <time>2021-09-12T07:11:07.000Z</time>
      </trkpt>
      <trkpt lat="46.40593" lon="4.56176">
        <ele>491.110698</ele>
        <time>2021-09-12T07:11:08.000Z</time>
      </trkpt>
      <trkpt lat="46.40599" lon="4.5619">
        <ele>490.76592</ele>
        <time>2021-09-12T07:11:09.000Z</time>
      </trkpt>
      <trkpt lat="46.40602" lon="4.56205">
        <ele>490.426978</ele>
        <time>2021-09-12T07:11:10.000Z</time>
      </trkpt>
      <trkpt lat="46.40605" lon="4.5622">
        <ele>490.069759</ele>
        <time>2021-09-12T07:11:11.000Z</time>
      </trkpt>
      <trkpt lat="46.40603" lon="4.56253">
        <ele>489.136922</ele>
        <time>2021-09-12T07:11:13.000Z</time>
      </trkpt>
      <trkpt lat="46.40593" lon="4.56284">
        <ele>488.05808</ele>
        <time>2021-09-12T07:11:15.000Z</time>
      </trkpt>
      <trkpt lat="46.40567" lon="4.56361">
        <ele>485.470222</ele>
        <time>2021-09-12T07:11:20.000Z</time>
      </trkpt>
      <trkpt lat="46.40562" lon="4.56376">
        <ele>484.953587</ele>
        <time>2021-09-12T07:11:21.000Z</time>
      </trkpt>
      <trkpt lat="46.40544" lon="4.5644">
        <ele>482.810549</ele>
        <time>2021-09-12T07:11:25.000Z</time>
      </trkpt>
      <trkpt lat="46.40521" lon="4.56523">
        <ele>479.882158</ele>
        <time>2021-09-12T07:11:30.000Z</time>
      </trkpt>
      <trkpt lat="46.40516" lon="4.56539">
        <ele>479.288653</ele>
        <time>2021-09-12T07:11:31.000Z</time>
      </trkpt>
      <trkpt lat="46.40494" lon="4.56615">
        <ele>476.510678</ele>
        <time>2021-09-12T07:11:36.000Z</time>
      </trkpt>
      <trkpt lat="46.40488" lon="4.56629">
        <ele>475.94696</ele>
        <time>2021-09-12T07:11:37.000Z</time>
      </trkpt>
      <trkpt lat="46.40457" lon="4.56682">
        <ele>473.606723</ele>
        <time>2021-09-12T07:11:41.000Z</time>
      </trkpt>
      <trkpt lat="46.40414" lon="4.56735">
        <ele>470.690006</ele>
        <time>2021-09-12T07:11:46.000Z</time>
      </trkpt>
      <trkpt lat="46.40374" lon="4.56771">
        <ele>468.227614</ele>
        <time>2021-09-12T07:11:51.000Z</time>
      </trkpt>
      <trkpt lat="46.40344" lon="4.56798">
        <ele>466.389995</ele>
        <time>2021-09-12T07:11:56.000Z</time>
      </trkpt>
      <trkpt lat="46.40322" lon="4.56817">
        <ele>465.062578</ele>
        <time>2021-09-12T07:12:01.000Z</time>
      </trkpt>
      <trkpt lat="46.40303" lon="4.56835">
        <ele>463.864293</ele>
        <time>2021-09-12T07:12:07.000Z</time>
      </trkpt>
      <trkpt lat="46.40279" lon="4.56856">
        <ele>462.773994</ele>
        <time>2021-09-12T07:12:15.000Z</time>
      </trkpt>
      <trkpt lat="46.40257" lon="4.56876">
        <ele>461.769872</ele>
        <time>2021-09-12T07:12:23.000Z</time>
      </trkpt>
      <trkpt lat="46.40232" lon="4.56898">
        <ele>460.660758</ele>
        <time>2021-09-12T07:12:32.000Z</time>
      </trkpt>
      <trkpt lat="46.40206" lon="4.56922">
        <ele>459.502154</ele>
        <time>2021-09-12T07:12:40.000Z</time>
      </trkpt>
      <trkpt lat="46.40183" lon="4.56943">
        <ele>458.456404</ele>
        <time>2021-09-12T07:12:46.000Z</time>
      </trkpt>
      <trkpt lat="46.40179" lon="4.56946">
        <ele>458.281572</ele>
        <time>2021-09-12T07:12:47.000Z</time>
      </trkpt>
      <trkpt lat="46.4015" lon="4.56966">
        <ele>457.056128</ele>
        <time>2021-09-12T07:12:54.000Z</time>
      </trkpt>
      <trkpt lat="46.40119" lon="4.56986">
        <ele>456.562942</ele>
        <time>2021-09-12T07:13:02.000Z</time>
      </trkpt>
      <trkpt lat="46.40094" lon="4.57002">
        <ele>456.307805</ele>
        <time>2021-09-12T07:13:09.000Z</time>
      </trkpt>
      <trkpt lat="46.40065" lon="4.57023">
        <ele>456.010478</ele>
        <time>2021-09-12T07:13:18.000Z</time>
      </trkpt>
      <trkpt lat="46.40041" lon="4.57043">
        <ele>455.7433</ele>
        <time>2021-09-12T07:13:26.000Z</time>
      </trkpt>
      <trkpt lat="46.4001" lon="4.57069">
        <ele>455.411191</ele>
        <time>2021-09-12T07:13:35.000Z</time>
      </trkpt>
      <trkpt lat="46.39999" lon="4.57079">
        <ele>455.29188</ele>
        <time>2021-09-12T07:13:38.000Z</time>
      </trkpt>
      <trkpt lat="46.39981" lon="4.57095">
        <ele>455.149501</ele>
        <time>2021-09-12T07:13:43.000Z</time>
      </trkpt>
      <trkpt lat="46.39959" lon="4.57118">
        <ele>455.177896</ele>
        <time>2021-09-12T07:13:49.000Z</time>
      </trkpt>
      <trkpt lat="46.39933" lon="4.57148">
        <ele>455.212391</ele>
        <time>2021-09-12T07:13:56.000Z</time>
      </trkpt>
      <trkpt lat="46.39903" lon="4.5719">
        <ele>455.256035</ele>
        <time>2021-09-12T07:14:05.000Z</time>
      </trkpt>
      <trkpt lat="46.39878" lon="4.57227">
        <ele>455.294207</ele>
        <time>2021-09-12T07:14:13.000Z</time>
      </trkpt>
      <trkpt lat="46.39853" lon="4.57263">
        <ele>455.331396</ele>
        <time>2021-09-12T07:14:21.000Z</time>
      </trkpt>
      <trkpt lat="46.39827" lon="4.57301">
        <ele>455.183073</ele>
        <time>2021-09-12T07:14:30.000Z</time>
      </trkpt>
      <trkpt lat="46.39808" lon="4.57328">
        <ele>455.072437</ele>
        <time>2021-09-12T07:14:37.000Z</time>
      </trkpt>
      <trkpt lat="46.39787" lon="4.57359">
        <ele>454.945462</ele>
        <time>2021-09-12T07:14:44.000Z</time>
      </trkpt>
      <trkpt lat="46.39772" lon="4.57385">
        <ele>454.848355</ele>
        <time>2021-09-12T07:14:49.000Z</time>
      </trkpt>
      <trkpt lat="46.3977" lon="4.57392">
        <ele>454.825605</ele>
        <time>2021-09-12T07:14:50.000Z</time>
      </trkpt>
      <trkpt lat="46.39769" lon="4.574">
        <ele>454.801977</ele>
        <time>2021-09-12T07:14:51.000Z</time>
      </trkpt>
      <trkpt lat="46.39767" lon="4.5742">
        <ele>454.746111</ele>
        <time>2021-09-12T07:14:53.000Z</time>
      </trkpt>
      <trkpt lat="46.39766" lon="4.5743">
        <ele>454.715892</ele>
        <time>2021-09-12T07:14:54.000Z</time>
      </trkpt>
      <trkpt lat="46.39763" lon="4.57452">
        <ele>454.652463</ele>
        <time>2021-09-12T07:14:56.000Z</time>
      </trkpt>
      <trkpt lat="46.39756" lon="4.57472">
        <ele>454.586584</ele>
        <time>2021-09-12T07:14:58.000Z</time>
      </trkpt>
      <trkpt lat="46.39743" lon="4.57484">
        <ele>454.226384</ele>
        <time>2021-09-12T07:15:00.000Z</time>
      </trkpt>
      <trkpt lat="46.39735" lon="4.57487">
        <ele>454.021874</ele>
        <time>2021-09-12T07:15:01.000Z</time>
      </trkpt>
      <trkpt lat="46.39728" lon="4.5749">
        <ele>453.820379</ele>
        <time>2021-09-12T07:15:02.000Z</time>
      </trkpt>
      <trkpt lat="46.39713" lon="4.57496">
        <ele>453.418801</ele>
        <time>2021-09-12T07:15:04.000Z</time>
      </trkpt>
      <trkpt lat="46.39706" lon="4.575">
        <ele>453.219055</ele>
        <time>2021-09-12T07:15:05.000Z</time>
      </trkpt>
      <trkpt lat="46.39693" lon="4.57509">
        <ele>452.844886</ele>
        <time>2021-09-12T07:15:07.000Z</time>
      </trkpt>
      <trkpt lat="46.39681" lon="4.57523">
        <ele>452.441607</ele>
        <time>2021-09-12T07:15:09.000Z</time>
      </trkpt>
      <trkpt lat="46.39671" lon="4.57543">
        <ele>451.991491</ele>
        <time>2021-09-12T07:15:11.000Z</time>
      </trkpt>
      <trkpt lat="46.39665" lon="4.57554">
        <ele>451.744223</ele>
        <time>2021-09-12T07:15:12.000Z</time>
      </trkpt>
      <trkpt lat="46.39655" lon="4.57595">
        <ele>450.942167</ele>
        <time>2021-09-12T07:15:15.000Z</time>
      </trkpt>
      <trkpt lat="46.39652" lon="4.5761">
        <ele>450.661659</ele>
        <time>2021-09-12T07:15:16.000Z</time>
      </trkpt>
      <trkpt lat="46.39644" lon="4.5769">
        <ele>449.014238</ele>
        <time>2021-09-12T07:15:21.000Z</time>
      </trkpt>
      <trkpt lat="46.39636" lon="4.57776">
        <ele>446.958577</ele>
        <time>2021-09-12T07:15:26.000Z</time>
      </trkpt>
      <trkpt lat="46.39627" lon="4.57872">
        <ele>444.655909</ele>
        <time>2021-09-12T07:15:31.000Z</time>
      </trkpt>
      <trkpt lat="46.39619" lon="4.57955">
        <ele>442.430089</ele>
        <time>2021-09-12T07:15:35.000Z</time>
      </trkpt>
      <trkpt lat="46.39611" lon="4.58036">
        <ele>440.049057</ele>
        <time>2021-09-12T07:15:39.000Z</time>
      </trkpt>
      <trkpt lat="46.39604" lon="4.58113">
        <ele>437.756832</ele>
        <time>2021-09-12T07:15:43.000Z</time>
      </trkpt>
      <trkpt lat="46.396" lon="4.58151">
        <ele>436.641773</ele>
        <time>2021-09-12T07:15:45.000Z</time>
      </trkpt>
      <trkpt lat="46.39591" lon="4.58244">
        <ele>433.422658</ele>
        <time>2021-09-12T07:15:50.000Z</time>
      </trkpt>
      <trkpt lat="46.39588" lon="4.5828">
        <ele>432.139804</ele>
        <time>2021-09-12T07:15:52.000Z</time>
      </trkpt>
      <trkpt lat="46.39579" lon="4.58367">
        <ele>429.029221</ele>
        <time>2021-09-12T07:15:57.000Z</time>
      </trkpt>
      <trkpt lat="46.39575" lon="4.584">
        <ele>427.836512</ele>
        <time>2021-09-12T07:15:59.000Z</time>
      </trkpt>
      <trkpt lat="46.39567" lon="4.58484">
        <ele>424.58325</ele>
        <time>2021-09-12T07:16:04.000Z</time>
      </trkpt>
      <trkpt lat="46.39563" lon="4.58518">
        <ele>423.182799</ele>
        <time>2021-09-12T07:16:06.000Z</time>
      </trkpt>
      <trkpt lat="46.39552" lon="4.58588">
        <ele>420.304508</ele>
        <time>2021-09-12T07:16:10.000Z</time>
      </trkpt>
      <trkpt lat="46.3953" lon="4.58677">
        <ele>416.570931</ele>
        <time>2021-09-12T07:16:15.000Z</time>
      </trkpt>
      <trkpt lat="46.39525" lon="4.58694">
        <ele>415.763968</ele>
        <time>2021-09-12T07:16:16.000Z</time>
      </trkpt>
      <trkpt lat="46.39503" lon="4.58776">
        <ele>411.749418</ele>
        <time>2021-09-12T07:16:21.000Z</time>
      </trkpt>
      <trkpt lat="46.39494" lon="4.5881">
        <ele>410.132675</ele>
        <time>2021-09-12T07:16:23.000Z</time>
      </trkpt>
      <trkpt lat="46.39471" lon="4.58896">
        <ele>405.966332</ele>
        <time>2021-09-12T07:16:28.000Z</time>
      </trkpt>
      <trkpt lat="46.39457" lon="4.58948">
        <ele>403.385339</ele>
        <time>2021-09-12T07:16:31.000Z</time>
      </trkpt>
      <trkpt lat="46.39434" lon="4.5903">
        <ele>399.185766</ele>
        <time>2021-09-12T07:16:36.000Z</time>
      </trkpt>
      <trkpt lat="46.3943" lon="4.59046">
        <ele>398.41918</ele>
        <time>2021-09-12T07:16:37.000Z</time>
      </trkpt>
      <trkpt lat="46.39407" lon="4.59132">
        <ele>394.061937</ele>
        <time>2021-09-12T07:16:43.000Z</time>
      </trkpt>
      <trkpt lat="46.39403" lon="4.59145">
        <ele>393.398302</ele>
        <time>2021-09-12T07:16:44.000Z</time>
      </trkpt>
      <trkpt lat="46.39387" lon="4.59205">
        <ele>390.192285</ele>
        <time>2021-09-12T07:16:49.000Z</time>
      </trkpt>
      <trkpt lat="46.3937" lon="4.59267">
        <ele>386.75062</ele>
        <time>2021-09-12T07:16:55.000Z</time>
      </trkpt>
      <trkpt lat="46.39352" lon="4.59329">
        <ele>383.342828</ele>
        <time>2021-09-12T07:17:01.000Z</time>
      </trkpt>
      <trkpt lat="46.39333" lon="4.59398">
        <ele>379.592304</ele>
        <time>2021-09-12T07:17:07.000Z</time>
      </trkpt>
      <trkpt lat="46.39315" lon="4.59462">
        <ele>376.179575</ele>
        <time>2021-09-12T07:17:13.000Z</time>
      </trkpt>
      <trkpt lat="46.39297" lon="4.59526">
        <ele>372.788339</ele>
        <time>2021-09-12T07:17:19.000Z</time>
      </trkpt>
      <trkpt lat="46.39277" lon="4.59601">
        <ele>368.840435</ele>
        <time>2021-09-12T07:17:25.000Z</time>
      </trkpt>
      <trkpt lat="46.39253" lon="4.59687">
        <ele>364.674753</ele>
        <time>2021-09-12T07:17:31.000Z</time>
      </trkpt>
      <trkpt lat="46.39232" lon="4.59763">
        <ele>361.33731</ele>
        <time>2021-09-12T07:17:36.000Z</time>
      </trkpt>
      <trkpt lat="46.39221" lon="4.59805">
        <ele>359.483738</ele>
        <time>2021-09-12T07:17:39.000Z</time>
      </trkpt>
      <trkpt lat="46.39207" lon="4.59871">
        <ele>356.65452</ele>
        <time>2021-09-12T07:17:44.000Z</time>
      </trkpt>
      <trkpt lat="46.39204" lon="4.59896">
        <ele>355.627364</ele>
        <time>2021-09-12T07:17:46.000Z</time>
      </trkpt>
      <trkpt lat="46.392" lon="4.5993">
        <ele>354.23727</ele>
        <time>2021-09-12T07:17:49.000Z</time>
      </trkpt>
      <trkpt lat="46.3919" lon="4.59997">
        <ele>351.511084</ele>
        <time>2021-09-12T07:17:55.000Z</time>
      </trkpt>
      <trkpt lat="46.39175" lon="4.60057">
        <ele>348.952822</ele>
        <time>2021-09-12T07:18:00.000Z</time>
      </trkpt>
      <trkpt lat="46.39154" lon="4.60133">
        <ele>345.682715</ele>
        <time>2021-09-12T07:18:06.000Z</time>
      </trkpt>
      <trkpt lat="46.3915" lon="4.60145">
        <ele>345.158286</ele>
        <time>2021-09-12T07:18:07.000Z</time>
      </trkpt>
      <trkpt lat="46.39128" lon="4.60216">
        <ele>342.28197</ele>
        <time>2021-09-12T07:18:13.000Z</time>
      </trkpt>
      <trkpt lat="46.39124" lon="4.60228">
        <ele>341.817354</ele>
        <time>2021-09-12T07:18:14.000Z</time>
      </trkpt>
      <trkpt lat="46.391" lon="4.60293">
        <ele>339.087434</ele>
        <time>2021-09-12T07:18:20.000Z</time>
      </trkpt>
      <trkpt lat="46.39072" lon="4.60367">
        <ele>336.005597</ele>
        <time>2021-09-12T07:18:27.000Z</time>
      </trkpt>
      <trkpt lat="46.39064" lon="4.60387">
        <ele>335.180965</ele>
        <time>2021-09-12T07:18:29.000Z</time>
      </trkpt>
      <trkpt lat="46.39052" lon="4.60428">
        <ele>333.615344</ele>
        <time>2021-09-12T07:18:33.000Z</time>
      </trkpt>
      <trkpt lat="46.39049" lon="4.60451">
        <ele>332.814271</ele>
        <time>2021-09-12T07:18:35.000Z</time>
      </trkpt>
      <trkpt lat="46.39046" lon="4.60515">
        <ele>330.555296</ele>
        <time>2021-09-12T07:18:40.000Z</time>
      </trkpt>
      <trkpt lat="46.39043" lon="4.60607">
        <ele>327.348648</ele>
        <time>2021-09-12T07:18:46.000Z</time>
      </trkpt>
      <trkpt lat="46.3904" lon="4.60689">
        <ele>324.482594</ele>
        <time>2021-09-12T07:18:51.000Z</time>
      </trkpt>
      <trkpt lat="46.39038" lon="4.60723">
        <ele>323.312655</ele>
        <time>2021-09-12T07:18:53.000Z</time>
      </trkpt>
      <trkpt lat="46.39035" lon="4.60805">
        <ele>320.481273</ele>
        <time>2021-09-12T07:18:58.000Z</time>
      </trkpt>
      <trkpt lat="46.39034" lon="4.60835">
        <ele>319.418609</ele>
        <time>2021-09-12T07:19:00.000Z</time>
      </trkpt>
      <trkpt lat="46.39031" lon="4.60924">
        <ele>316.368776</ele>
        <time>2021-09-12T07:19:06.000Z</time>
      </trkpt>
      <trkpt lat="46.3903" lon="4.60953">
        <ele>315.411602</ele>
        <time>2021-09-12T07:19:08.000Z</time>
      </trkpt>
      <trkpt lat="46.39027" lon="4.61038">
        <ele>312.566624</ele>
        <time>2021-09-12T07:19:14.000Z</time>
      </trkpt>
      <trkpt lat="46.39025" lon="4.61078">
        <ele>311.216275</ele>
        <time>2021-09-12T07:19:17.000Z</time>
      </trkpt>
      <trkpt lat="46.39022" lon="4.61165">
        <ele>308.300323</ele>
        <time>2021-09-12T07:19:24.000Z</time>
      </trkpt>
      <trkpt lat="46.3902" lon="4.61229">
        <ele>306.281934</ele>
        <time>2021-09-12T07:19:30.000Z</time>
      </trkpt>
      <trkpt lat="46.39017" lon="4.61299">
        <ele>304.047359</ele>
        <time>2021-09-12T07:19:37.000Z</time>
      </trkpt>
      <trkpt lat="46.39016" lon="4.61343">
        <ele>302.673119</ele>
        <time>2021-09-12T07:19:41.000Z</time>
      </trkpt>
      <trkpt lat="46.39015" lon="4.61366">
        <ele>301.933777</ele>
        <time>2021-09-12T07:19:43.000Z</time>
      </trkpt>
      <trkpt lat="46.39012" lon="4.61431">
        <ele>299.82719</ele>
        <time>2021-09-12T07:19:48.000Z</time>
      </trkpt>
      <trkpt lat="46.39009" lon="4.61524">
        <ele>296.748446</ele>
        <time>2021-09-12T07:19:54.000Z</time>
      </trkpt>
      <trkpt lat="46.39004" lon="4.61573">
        <ele>295.102479</ele>
        <time>2021-09-12T07:19:57.000Z</time>
      </trkpt>
      <trkpt lat="46.38999" lon="4.61589">
        <ele>294.527532</ele>
        <time>2021-09-12T07:19:58.000Z</time>
      </trkpt>
      <trkpt lat="46.38993" lon="4.61604">
        <ele>293.939123</ele>
        <time>2021-09-12T07:19:59.000Z</time>
      </trkpt>
      <trkpt lat="46.38978" lon="4.61631">
        <ele>292.807931</ele>
        <time>2021-09-12T07:20:01.000Z</time>
      </trkpt>
      <trkpt lat="46.38937" lon="4.6169">
        <ele>290.233769</ele>
        <time>2021-09-12T07:20:06.000Z</time>
      </trkpt>
      <trkpt lat="46.3893" lon="4.61701">
        <ele>289.77673</ele>
        <time>2021-09-12T07:20:07.000Z</time>
      </trkpt>
      <trkpt lat="46.38894" lon="4.61752">
        <ele>287.652794</ele>
        <time>2021-09-12T07:20:12.000Z</time>
      </trkpt>
      <trkpt lat="46.38867" lon="4.61792">
        <ele>285.986837</ele>
        <time>2021-09-12T07:20:17.000Z</time>
      </trkpt>
      <trkpt lat="46.38862" lon="4.61799">
        <ele>285.704247</ele>
        <time>2021-09-12T07:20:18.000Z</time>
      </trkpt>
      <trkpt lat="46.38844" lon="4.61828">
        <ele>284.567713</ele>
        <time>2021-09-12T07:20:22.000Z</time>
      </trkpt>
      <trkpt lat="46.38835" lon="4.61851">
        <ele>283.82311</ele>
        <time>2021-09-12T07:20:25.000Z</time>
      </trkpt>
      <trkpt lat="46.38831" lon="4.61866">
        <ele>283.406574</ele>
        <time>2021-09-12T07:20:27.000Z</time>
      </trkpt>
      <trkpt lat="46.38824" lon="4.61904">
        <ele>282.388888</ele>
        <time>2021-09-12T07:20:33.000Z</time>
      </trkpt>
      <trkpt lat="46.38827" lon="4.61925">
        <ele>281.830445</ele>
        <time>2021-09-12T07:20:37.000Z</time>
      </trkpt>
      <trkpt lat="46.38828" lon="4.6193">
        <ele>281.690175</ele>
        <time>2021-09-12T07:20:38.000Z</time>
      </trkpt>
      <trkpt lat="46.38838" lon="4.61959">
        <ele>280.85872</ele>
        <time>2021-09-12T07:20:43.000Z</time>
      </trkpt>
      <trkpt lat="46.38847" lon="4.61988">
        <ele>280.009944</ele>
        <time>2021-09-12T07:20:48.000Z</time>
      </trkpt>
      <trkpt lat="46.38851" lon="4.61999">
        <ele>279.689488</ele>
        <time>2021-09-12T07:20:50.000Z</time>
      </trkpt>
      <trkpt lat="46.38857" lon="4.62016">
        <ele>279.202132</ele>
        <time>2021-09-12T07:20:53.000Z</time>
      </trkpt>
      <trkpt lat="46.38866" lon="4.62045">
        <ele>278.36202</ele>
        <time>2021-09-12T07:20:58.000Z</time>
      </trkpt>
      <trkpt lat="46.3888" lon="4.62087">
        <ele>277.29168</ele>
        <time>2021-09-12T07:21:05.000Z</time>
      </trkpt>
      <trkpt lat="46.38886" lon="4.62105">
        <ele>277.070106</ele>
        <time>2021-09-12T07:21:08.000Z</time>
      </trkpt>
      <trkpt lat="46.38892" lon="4.62124">
        <ele>276.844573</ele>
        <time>2021-09-12T07:21:11.000Z</time>
      </trkpt>
      <trkpt lat="46.38912" lon="4.62186">
        <ele>276.099088</ele>
        <time>2021-09-12T07:21:21.000Z</time>
      </trkpt>
      <trkpt lat="46.38926" lon="4.62233">
        <ele>275.53476</ele>
        <time>2021-09-12T07:21:29.000Z</time>
      </trkpt>
      <trkpt lat="46.38936" lon="4.62265">
        <ele>275.151245</ele>
        <time>2021-09-12T07:21:35.000Z</time>
      </trkpt>
      <trkpt lat="46.3894" lon="4.62276">
        <ele>275.025067</ele>
        <time>2021-09-12T07:21:37.000Z</time>
      </trkpt>
      <trkpt lat="46.38955" lon="4.62326">
        <ele>274.445489</ele>
        <time>2021-09-12T07:21:46.000Z</time>
      </trkpt>
      <trkpt lat="46.38968" lon="4.62368">
        <ele>274.028239</ele>
        <time>2021-09-12T07:21:53.000Z</time>
      </trkpt>
      <trkpt lat="46.38984" lon="4.62417">
        <ele>273.547681</ele>
        <time>2021-09-12T07:22:00.000Z</time>
      </trkpt>
      <trkpt lat="46.38998" lon="4.62463">
        <ele>273.102835</ele>
        <time>2021-09-12T07:22:05.000Z</time>
      </trkpt>
      <trkpt lat="46.39018" lon="4.62527">
        <ele>272.476432</ele>
        <time>2021-09-12T07:22:11.000Z</time>
      </trkpt>
      <trkpt lat="46.39045" lon="4.62606">
        <ele>271.411976</ele>
        <time>2021-09-12T07:22:18.000Z</time>
      </trkpt>
      <trkpt lat="46.3907" lon="4.62677">
        <ele>270.34357</ele>
        <time>2021-09-12T07:22:24.000Z</time>
      </trkpt>
      <trkpt lat="46.3908" lon="4.62701">
        <ele>269.972086</ele>
        <time>2021-09-12T07:22:26.000Z</time>
      </trkpt>
      <trkpt lat="46.39114" lon="4.62768">
        <ele>268.834037</ele>
        <time>2021-09-12T07:22:32.000Z</time>
      </trkpt>
      <trkpt lat="46.3912" lon="4.6278">
        <ele>268.64073</ele>
        <time>2021-09-12T07:22:33.000Z</time>
      </trkpt>
      <trkpt lat="46.39158" lon="4.62839">
        <ele>267.527032</ele>
        <time>2021-09-12T07:22:39.000Z</time>
      </trkpt>
      <trkpt lat="46.39196" lon="4.62887">
        <ele>266.529746</ele>
        <time>2021-09-12T07:22:45.000Z</time>
      </trkpt>
      <trkpt lat="46.39235" lon="4.62929">
        <ele>265.552539</ele>
        <time>2021-09-12T07:22:52.000Z</time>
      </trkpt>
      <trkpt lat="46.39263" lon="4.62956">
        <ele>264.99208</ele>
        <time>2021-09-12T07:22:58.000Z</time>
      </trkpt>
      <trkpt lat="46.39291" lon="4.62983">
        <ele>264.643206</ele>
        <time>2021-09-12T07:23:05.000Z</time>
      </trkpt>
      <trkpt lat="46.39295" lon="4.62987">
        <ele>264.594439</ele>
        <time>2021-09-12T07:23:06.000Z</time>
      </trkpt>
      <trkpt lat="46.39306" lon="4.63005">
        <ele>264.412836</ele>
        <time>2021-09-12T07:23:10.000Z</time>
      </trkpt>
      <trkpt lat="46.39314" lon="4.6302">
        <ele>264.28201</ele>
        <time>2021-09-12T07:23:13.000Z</time>
      </trkpt>
      <trkpt lat="46.39327" lon="4.63061">
        <ele>263.961367</ele>
        <time>2021-09-12T07:23:20.000Z</time>
      </trkpt>
      <trkpt lat="46.39332" lon="4.6311">
        <ele>263.604371</ele>
        <time>2021-09-12T07:23:28.000Z</time>
      </trkpt>
      <trkpt lat="46.39331" lon="4.63116">
        <ele>263.560106</ele>
        <time>2021-09-12T07:23:29.000Z</time>
      </trkpt>
      <trkpt lat="46.39327" lon="4.63148">
        <ele>263.329943</ele>
        <time>2021-09-12T07:23:34.000Z</time>
      </trkpt>
      <trkpt lat="46.39326" lon="4.63154">
        <ele>263.284242</ele>
        <time>2021-09-12T07:23:35.000Z</time>
      </trkpt>
      <trkpt lat="46.39313" lon="4.63197">
        <ele>263.124963</ele>
        <time>2021-09-12T07:23:42.000Z</time>
      </trkpt>
      <trkpt lat="46.393" lon="4.63225">
        <ele>263.031574</ele>
        <time>2021-09-12T07:23:47.000Z</time>
      </trkpt>
      <trkpt lat="46.39297" lon="4.6323">
        <ele>263.01205</ele>
        <time>2021-09-12T07:23:48.000Z</time>
      </trkpt>
      <trkpt lat="46.39278" lon="4.63265">
        <ele>262.889005</ele>
        <time>2021-09-12T07:23:54.000Z</time>
      </trkpt>
      <trkpt lat="46.39275" lon="4.63271">
        <ele>262.868089</ele>
        <time>2021-09-12T07:23:55.000Z</time>
      </trkpt>
      <trkpt lat="46.3925" lon="4.63317">
        <ele>262.708223</ele>
        <time>2021-09-12T07:24:02.000Z</time>
      </trkpt>
      <trkpt lat="46.39237" lon="4.63345">
        <ele>262.614612</ele>
        <time>2021-09-12T07:24:06.000Z</time>
      </trkpt>
      <trkpt lat="46.3923" lon="4.63359">
        <ele>262.567467</ele>
        <time>2021-09-12T07:24:08.000Z</time>
      </trkpt>
      <trkpt lat="46.39209" lon="4.63404">
        <ele>262.34839</ele>
        <time>2021-09-12T07:24:14.000Z</time>
      </trkpt>
      <trkpt lat="46.39207" lon="4.63413">
        <ele>262.303729</ele>
        <time>2021-09-12T07:24:15.000Z</time>
      </trkpt>
      <trkpt lat="46.39198" lon="4.6347">
        <ele>262.028146</ele>
        <time>2021-09-12T07:24:21.000Z</time>
      </trkpt>
      <trkpt lat="46.3919" lon="4.63539">
        <ele>261.700305</ele>
        <time>2021-09-12T07:24:28.000Z</time>
      </trkpt>
      <trkpt lat="46.39184" lon="4.6359">
        <ele>261.457412</ele>
        <time>2021-09-12T07:24:33.000Z</time>
      </trkpt>
      <trkpt lat="46.39176" lon="4.63666">
        <ele>261.160225</ele>
        <time>2021-09-12T07:24:41.000Z</time>
      </trkpt>
      <trkpt lat="46.39168" lon="4.63734">
        <ele>260.943811</ele>
        <time>2021-09-12T07:24:49.000Z</time>
      </trkpt>
      <trkpt lat="46.39163" lon="4.63785">
        <ele>260.784102</ele>
        <time>2021-09-12T07:24:55.000Z</time>
      </trkpt>
      <trkpt lat="46.39163" lon="4.63793">
        <ele>260.758088</ele>
        <time>2021-09-12T07:24:56.000Z</time>
      </trkpt>
      <trkpt lat="46.39166" lon="4.6381">
        <ele>260.7052</ele>
        <time>2021-09-12T07:24:58.000Z</time>
      </trkpt>
      <trkpt lat="46.39155" lon="4.63827">
        <ele>260.632068</ele>
        <time>2021-09-12T07:25:00.000Z</time>
      </trkpt>
      <trkpt lat="46.39158" lon="4.63836">
        <ele>260.601749</ele>
        <time>2021-09-12T07:25:01.000Z</time>
      </trkpt>
      <trkpt lat="46.39151" lon="4.63882">
        <ele>260.52866</ele>
        <time>2021-09-12T07:25:06.000Z</time>
      </trkpt>
      <trkpt lat="46.39146" lon="4.63933">
        <ele>260.96021</ele>
        <time>2021-09-12T07:25:12.000Z</time>
      </trkpt>
      <trkpt lat="46.39146" lon="4.63971">
        <ele>261.272554</ele>
        <time>2021-09-12T07:25:18.000Z</time>
      </trkpt>
      <trkpt lat="46.39153" lon="4.63999">
        <ele>261.516516</ele>
        <time>2021-09-12T07:25:25.000Z</time>
      </trkpt>
      <trkpt lat="46.39164" lon="4.64018">
        <ele>261.728435</ele>
        <time>2021-09-12T07:25:32.000Z</time>
      </trkpt>
      <trkpt lat="46.39178" lon="4.6404">
        <ele>261.976213</ele>
        <time>2021-09-12T07:25:40.000Z</time>
      </trkpt>
      <trkpt lat="46.3919" lon="4.64058">
        <ele>262.184799</ele>
        <time>2021-09-12T07:25:47.000Z</time>
      </trkpt>
      <trkpt lat="46.39205" lon="4.64082">
        <ele>262.455371</ele>
        <time>2021-09-12T07:25:55.000Z</time>
      </trkpt>
      <trkpt lat="46.3922" lon="4.64105">
        <ele>262.769154</ele>
        <time>2021-09-12T07:26:02.000Z</time>
      </trkpt>
      <trkpt lat="46.39238" lon="4.64132">
        <ele>263.31286</ele>
        <time>2021-09-12T07:26:10.000Z</time>
      </trkpt>
      <trkpt lat="46.39258" lon="4.64162">
        <ele>263.919277</ele>
        <time>2021-09-12T07:26:19.000Z</time>
      </trkpt>
      <trkpt lat="46.39281" lon="4.64197">
        <ele>264.611051</ele>
        <time>2021-09-12T07:26:29.000Z</time>
      </trkpt>
      <trkpt lat="46.39297" lon="4.64222">
        <ele>265.101996</ele>
        <time>2021-09-12T07:26:36.000Z</time>
      </trkpt>
      <trkpt lat="46.39314" lon="4.64248">
        <ele>265.620564</ele>
        <time>2021-09-12T07:26:43.000Z</time>
      </trkpt>
      <trkpt lat="46.39337" lon="4.64282">
        <ele>266.302778</ele>
        <time>2021-09-12T07:26:51.000Z</time>
      </trkpt>
      <trkpt lat="46.39356" lon="4.64311">
        <ele>266.990246</ele>
        <time>2021-09-12T07:26:58.000Z</time>
      </trkpt>
      <trkpt lat="46.39376" lon="4.64342">
        <ele>267.730806</ele>
        <time>2021-09-12T07:27:06.000Z</time>
      </trkpt>
      <trkpt lat="46.39389" lon="4.64361">
        <ele>268.198287</ele>
        <time>2021-09-12T07:27:11.000Z</time>
      </trkpt>
      <trkpt lat="46.39403" lon="4.64383">
        <ele>268.728552</ele>
        <time>2021-09-12T07:27:17.000Z</time>
      </trkpt>
      <trkpt lat="46.39424" lon="4.64415">
        <ele>269.498357</ele>
        <time>2021-09-12T07:27:26.000Z</time>
      </trkpt>
      <trkpt lat="46.39441" lon="4.64444">
        <ele>270.177281</ele>
        <time>2021-09-12T07:27:34.000Z</time>
      </trkpt>
      <trkpt lat="46.39458" lon="4.64473">
        <ele>270.842056</ele>
        <time>2021-09-12T07:27:42.000Z</time>
      </trkpt>
      <trkpt lat="46.39477" lon="4.64505">
        <ele>271.812368</ele>
        <time>2021-09-12T07:27:51.000Z</time>
      </trkpt>
      <trkpt lat="46.39488" lon="4.64526">
        <ele>272.463015</ele>
        <time>2021-09-12T07:27:57.000Z</time>
      </trkpt>
      <trkpt lat="46.39502" lon="4.64549">
        <ele>273.20109</ele>
        <time>2021-09-12T07:28:04.000Z</time>
      </trkpt>
      <trkpt lat="46.39515" lon="4.64571">
        <ele>273.91051</ele>
        <time>2021-09-12T07:28:11.000Z</time>
      </trkpt>
      <trkpt lat="46.39535" lon="4.64612">
        <ele>275.13661</ele>
        <time>2021-09-12T07:28:22.000Z</time>
      </trkpt>
      <trkpt lat="46.39545" lon="4.6464">
        <ele>275.917626</ele>
        <time>2021-09-12T07:28:29.000Z</time>
      </trkpt>
      <trkpt lat="46.39557" lon="4.6467">
        <ele>276.761593</ele>
        <time>2021-09-12T07:28:37.000Z</time>
      </trkpt>
      <trkpt lat="46.39563" lon="4.64694">
        <ele>277.387981</ele>
        <time>2021-09-12T07:28:43.000Z</time>
      </trkpt>
      <trkpt lat="46.39574" lon="4.64736">
        <ele>278.706015</ele>
        <time>2021-09-12T07:28:54.000Z</time>
      </trkpt>
      <trkpt lat="46.39579" lon="4.64767">
        <ele>279.664268</ele>
        <time>2021-09-12T07:29:02.000Z</time>
      </trkpt>
      <trkpt lat="46.39581" lon="4.64806">
        <ele>280.798555</ele>
        <time>2021-09-12T07:29:11.000Z</time>
      </trkpt>
      <trkpt lat="46.39581" lon="4.6484">
        <ele>281.795737</ele>
        <time>2021-09-12T07:29:18.000Z</time>
      </trkpt>
      <trkpt lat="46.39585" lon="4.64891">
        <ele>283.31219</ele>
        <time>2021-09-12T07:29:29.000Z</time>
      </trkpt>
      <trkpt lat="46.39586" lon="4.64928">
        <ele>284.410996</ele>
        <time>2021-09-12T07:29:37.000Z</time>
      </trkpt>
      <trkpt lat="46.39586" lon="4.64968">
        <ele>285.194968</ele>
        <time>2021-09-12T07:29:45.000Z</time>
      </trkpt>
      <trkpt lat="46.39581" lon="4.65018">
        <ele>285.67993</ele>
        <time>2021-09-12T07:29:55.000Z</time>
      </trkpt>
      <trkpt lat="46.39577" lon="4.65058">
        <ele>286.065552</ele>
        <time>2021-09-12T07:30:02.000Z</time>
      </trkpt>
      <trkpt lat="46.39576" lon="4.65068">
        <ele>286.167448</ele>
        <time>2021-09-12T07:30:04.000Z</time>
      </trkpt>
      <trkpt lat="46.39576" lon="4.65074">
        <ele>286.218335</ele>
        <time>2021-09-12T07:30:05.000Z</time>
      </trkpt>
      <trkpt lat="46.3958" lon="4.65074">
        <ele>286.265509</ele>
        <time>2021-09-12T07:30:06.000Z</time>
      </trkpt>
      <trkpt lat="46.39589" lon="4.65074">
        <ele>286.387608</ele>
        <time>2021-09-12T07:30:08.000Z</time>
      </trkpt>
      <trkpt lat="46.3962" lon="4.65075">
        <ele>286.827673</ele>
        <time>2021-09-12T07:30:14.000Z</time>
      </trkpt>
      <trkpt lat="46.39661" lon="4.65077">
        <ele>287.388611</ele>
        <time>2021-09-12T07:30:20.000Z</time>
      </trkpt>
      <trkpt lat="46.39709" lon="4.6508">
        <ele>286.893217</ele>
        <time>2021-09-12T07:30:26.000Z</time>
      </trkpt>
      <trkpt lat="46.3977" lon="4.65082">
        <ele>285.927573</ele>
        <time>2021-09-12T07:30:33.000Z</time>
      </trkpt>
      <trkpt lat="46.39779" lon="4.65082">
        <ele>285.785358</ele>
        <time>2021-09-12T07:30:34.000Z</time>
      </trkpt>
      <trkpt lat="46.39813" lon="4.65083">
        <ele>285.249608</ele>
        <time>2021-09-12T07:30:38.000Z</time>
      </trkpt>
      <trkpt lat="46.39827" lon="4.65084">
        <ele>285.018865</ele>
        <time>2021-09-12T07:30:40.000Z</time>
      </trkpt>
      <trkpt lat="46.39839" lon="4.65084">
        <ele>284.830818</ele>
        <time>2021-09-12T07:30:42.000Z</time>
      </trkpt>
      <trkpt lat="46.39852" lon="4.651">
        <ele>284.584682</ele>
        <time>2021-09-12T07:30:43.000Z</time>
      </trkpt>
      <trkpt lat="46.39852" lon="4.65105">
        <ele>284.538098</ele>
        <time>2021-09-12T07:30:44.000Z</time>
      </trkpt>
      <trkpt lat="46.39847" lon="4.65116">
        <ele>284.426364</ele>
        <time>2021-09-12T07:30:45.000Z</time>
      </trkpt>
      <trkpt lat="46.39843" lon="4.65123">
        <ele>284.340934</ele>
        <time>2021-09-12T07:30:46.000Z</time>
      </trkpt>
      <trkpt lat="46.39834" lon="4.65134">
        <ele>284.196862</ele>
        <time>2021-09-12T07:30:48.000Z</time>
      </trkpt>
      <trkpt lat="46.39824" lon="4.65139">
        <ele>284.062751</ele>
        <time>2021-09-12T07:30:50.000Z</time>
      </trkpt>
      <trkpt lat="46.39815" lon="4.65141">
        <ele>283.943744</ele>
        <time>2021-09-12T07:30:52.000Z</time>
      </trkpt>
      <trkpt lat="46.39779" lon="4.65151">
        <ele>283.480099</ele>
        <time>2021-09-12T07:31:00.000Z</time>
      </trkpt>
      <trkpt lat="46.3974" lon="4.65161">
        <ele>282.981355</ele>
        <time>2021-09-12T07:31:09.000Z</time>
      </trkpt>
      <trkpt lat="46.39707" lon="4.65171">
        <ele>282.558889</ele>
        <time>2021-09-12T07:31:17.000Z</time>
      </trkpt>
      <trkpt lat="46.39679" lon="4.65184">
        <ele>282.538338</ele>
        <time>2021-09-12T07:31:24.000Z</time>
      </trkpt>
      <trkpt lat="46.3965" lon="4.65206">
        <ele>282.842943</ele>
        <time>2021-09-12T07:31:32.000Z</time>
      </trkpt>
      <trkpt lat="46.39626" lon="4.65226">
        <ele>283.100528</ele>
        <time>2021-09-12T07:31:39.000Z</time>
      </trkpt>
      <trkpt lat="46.39604" lon="4.65252">
        <ele>283.358357</ele>
        <time>2021-09-12T07:31:46.000Z</time>
      </trkpt>
      <trkpt lat="46.39587" lon="4.65277">
        <ele>283.577646</ele>
        <time>2021-09-12T07:31:52.000Z</time>
      </trkpt>
      <trkpt lat="46.39562" lon="4.65321">
        <ele>283.940685</ele>
        <time>2021-09-12T07:32:02.000Z</time>
      </trkpt>
      <trkpt lat="46.39548" lon="4.65347">
        <ele>284.456751</ele>
        <time>2021-09-12T07:32:08.000Z</time>
      </trkpt>
      <trkpt lat="46.39536" lon="4.65368">
        <ele>285.09974</ele>
        <time>2021-09-12T07:32:13.000Z</time>
      </trkpt>
      <trkpt lat="46.3952" lon="4.65393">
        <ele>285.914908</ele>
        <time>2021-09-12T07:32:20.000Z</time>
      </trkpt>
      <trkpt lat="46.39507" lon="4.65416">
        <ele>286.652371</ele>
        <time>2021-09-12T07:32:27.000Z</time>
      </trkpt>
      <trkpt lat="46.39487" lon="4.65449">
        <ele>287.688382</ele>
        <time>2021-09-12T07:32:37.000Z</time>
      </trkpt>
      <trkpt lat="46.39474" lon="4.6547">
        <ele>288.374521</ele>
        <time>2021-09-12T07:32:44.000Z</time>
      </trkpt>
      <trkpt lat="46.3946" lon="4.65491">
        <ele>289.06668</ele>
        <time>2021-09-12T07:32:51.000Z</time>
      </trkpt>
      <trkpt lat="46.39446" lon="4.65509">
        <ele>289.733177</ele>
        <time>2021-09-12T07:32:58.000Z</time>
      </trkpt>
      <trkpt lat="46.39435" lon="4.65524">
        <ele>290.243686</ele>
        <time>2021-09-12T07:33:04.000Z</time>
      </trkpt>
      <trkpt lat="46.39419" lon="4.65546">
        <ele>291.329473</ele>
        <time>2021-09-12T07:33:12.000Z</time>
      </trkpt>
      <trkpt lat="46.39405" lon="4.65564">
        <ele>292.254978</ele>
        <time>2021-09-12T07:33:19.000Z</time>
      </trkpt>
      <trkpt lat="46.39389" lon="4.65585">
        <ele>293.348635</ele>
        <time>2021-09-12T07:33:27.000Z</time>
      </trkpt>
      <trkpt lat="46.39369" lon="4.65612">
        <ele>294.711601</ele>
        <time>2021-09-12T07:33:37.000Z</time>
      </trkpt>
      <trkpt lat="46.39353" lon="4.65634">
        <ele>295.831722</ele>
        <time>2021-09-12T07:33:45.000Z</time>
      </trkpt>
      <trkpt lat="46.39336" lon="4.65656">
        <ele>296.965258</ele>
        <time>2021-09-12T07:33:53.000Z</time>
      </trkpt>
      <trkpt lat="46.39323" lon="4.65673">
        <ele>297.840188</ele>
        <time>2021-09-12T07:33:59.000Z</time>
      </trkpt>
      <trkpt lat="46.39304" lon="4.65698">
        <ele>299.109372</ele>
        <time>2021-09-12T07:34:09.000Z</time>
      </trkpt>
      <trkpt lat="46.39291" lon="4.65716">
        <ele>300.280893</ele>
        <time>2021-09-12T07:34:17.000Z</time>
      </trkpt>
      <trkpt lat="46.39274" lon="4.65739">
        <ele>301.843239</ele>
        <time>2021-09-12T07:34:27.000Z</time>
      </trkpt>
      <trkpt lat="46.39261" lon="4.65757">
        <ele>303.081404</ele>
        <time>2021-09-12T07:34:35.000Z</time>
      </trkpt>
      <trkpt lat="46.39251" lon="4.65769">
        <ele>303.975866</ele>
        <time>2021-09-12T07:34:41.000Z</time>
      </trkpt>
      <trkpt lat="46.3924" lon="4.65784">
        <ele>304.967948</ele>
        <time>2021-09-12T07:34:48.000Z</time>
      </trkpt>
      <trkpt lat="46.39224" lon="4.65805">
        <ele>306.463559</ele>
        <time>2021-09-12T07:34:58.000Z</time>
      </trkpt>
      <trkpt lat="46.39213" lon="4.6582">
        <ele>307.463813</ele>
        <time>2021-09-12T07:35:05.000Z</time>
      </trkpt>
      <trkpt lat="46.39201" lon="4.65837">
        <ele>308.617102</ele>
        <time>2021-09-12T07:35:13.000Z</time>
      </trkpt>
      <trkpt lat="46.39185" lon="4.65859">
        <ele>310.122272</ele>
        <time>2021-09-12T07:35:23.000Z</time>
      </trkpt>
      <trkpt lat="46.39175" lon="4.65871">
        <ele>311.00039</ele>
        <time>2021-09-12T07:35:29.000Z</time>
      </trkpt>
      <trkpt lat="46.39163" lon="4.65888">
        <ele>312.162385</ele>
        <time>2021-09-12T07:35:37.000Z</time>
      </trkpt>
      <trkpt lat="46.39152" lon="4.65903">
        <ele>313.208044</ele>
        <time>2021-09-12T07:35:44.000Z</time>
      </trkpt>
      <trkpt lat="46.39141" lon="4.65919">
        <ele>314.222475</ele>
        <time>2021-09-12T07:35:51.000Z</time>
      </trkpt>
      <trkpt lat="46.39137" lon="4.65925">
        <ele>314.640451</ele>
        <time>2021-09-12T07:35:54.000Z</time>
      </trkpt>
      <trkpt lat="46.39133" lon="4.65931">
        <ele>315.066669</ele>
        <time>2021-09-12T07:35:57.000Z</time>
      </trkpt>
      <trkpt lat="46.39119" lon="4.65951">
        <ele>316.373746</ele>
        <time>2021-09-12T07:36:06.000Z</time>
      </trkpt>
      <trkpt lat="46.3911" lon="4.65964">
        <ele>317.256097</ele>
        <time>2021-09-12T07:36:12.000Z</time>
      </trkpt>
      <trkpt lat="46.39096" lon="4.65986">
        <ele>318.700168</ele>
        <time>2021-09-12T07:36:22.000Z</time>
      </trkpt>
      <trkpt lat="46.39087" lon="4.66003">
        <ele>319.725576</ele>
        <time>2021-09-12T07:36:29.000Z</time>
      </trkpt>
      <trkpt lat="46.39079" lon="4.66017">
        <ele>320.605236</ele>
        <time>2021-09-12T07:36:35.000Z</time>
      </trkpt>
      <trkpt lat="46.39068" lon="4.66037">
        <ele>321.799112</ele>
        <time>2021-09-12T07:36:43.000Z</time>
      </trkpt>
      <trkpt lat="46.39056" lon="4.66058">
        <ele>323.087469</ele>
        <time>2021-09-12T07:36:51.000Z</time>
      </trkpt>
      <trkpt lat="46.39045" lon="4.66079">
        <ele>324.221726</ele>
        <time>2021-09-12T07:36:59.000Z</time>
      </trkpt>
      <trkpt lat="46.39035" lon="4.66099">
        <ele>324.971601</ele>
        <time>2021-09-12T07:37:07.000Z</time>
      </trkpt>
      <trkpt lat="46.39026" lon="4.66116">
        <ele>325.645322</ele>
        <time>2021-09-12T07:37:14.000Z</time>
      </trkpt>
      <trkpt lat="46.39017" lon="4.66132">
        <ele>326.258494</ele>
        <time>2021-09-12T07:37:20.000Z</time>
      </trkpt>
      <trkpt lat="46.39009" lon="4.66149">
        <ele>326.901834</ele>
        <time>2021-09-12T07:37:26.000Z</time>
      </trkpt>
      <trkpt lat="46.38997" lon="4.66173">
        <ele>327.79792</ele>
        <time>2021-09-12T07:37:33.000Z</time>
      </trkpt>
      <trkpt lat="46.38984" lon="4.66206">
        <ele>328.97854</ele>
        <time>2021-09-12T07:37:41.000Z</time>
      </trkpt>
      <trkpt lat="46.38973" lon="4.66237">
        <ele>330.045276</ele>
        <time>2021-09-12T07:37:47.000Z</time>
      </trkpt>
      <trkpt lat="46.3897" lon="4.66248">
        <ele>330.404754</ele>
        <time>2021-09-12T07:37:49.000Z</time>
      </trkpt>
      <trkpt lat="46.38963" lon="4.66271">
        <ele>331.182158</ele>
        <time>2021-09-12T07:37:53.000Z</time>
      </trkpt>
      <trkpt lat="46.38962" lon="4.66278">
        <ele>331.391491</ele>
        <time>2021-09-12T07:37:54.000Z</time>
      </trkpt>
      <trkpt lat="46.38955" lon="4.66307">
        <ele>332.077356</ele>
        <time>2021-09-12T07:37:58.000Z</time>
      </trkpt>
      <trkpt lat="46.38943" lon="4.66372">
        <ele>332.720816</ele>
        <time>2021-09-12T07:38:06.000Z</time>
      </trkpt>
      <trkpt lat="46.38939" lon="4.66414">
        <ele>333.132583</ele>
        <time>2021-09-12T07:38:12.000Z</time>
      </trkpt>
      <trkpt lat="46.38938" lon="4.66436">
        <ele>333.345749</ele>
        <time>2021-09-12T07:38:17.000Z</time>
      </trkpt>
      <trkpt lat="46.38942" lon="4.66466">
        <ele>333.641515</ele>
        <time>2021-09-12T07:38:23.000Z</time>
      </trkpt>
      <trkpt lat="46.38955" lon="4.66484">
        <ele>333.889739</ele>
        <time>2021-09-12T07:38:28.000Z</time>
      </trkpt>
      <trkpt lat="46.38963" lon="4.66487">
        <ele>333.996927</ele>
        <time>2021-09-12T07:38:32.000Z</time>
      </trkpt>
      <trkpt lat="46.38965" lon="4.66486">
        <ele>334.035998</ele>
        <time>2021-09-12T07:38:34.000Z</time>
      </trkpt>
      <trkpt lat="46.3897" lon="4.66486">
        <ele>334.101626</ele>
        <time>2021-09-12T07:38:37.000Z</time>
      </trkpt>
      <trkpt lat="46.38981" lon="4.66485">
        <ele>334.251412</ele>
        <time>2021-09-12T07:38:42.000Z</time>
      </trkpt>
      <trkpt lat="46.38988" lon="4.66481">
        <ele>334.356338</ele>
        <time>2021-09-12T07:38:46.000Z</time>
      </trkpt>
      <trkpt lat="46.39" lon="4.66473">
        <ele>334.626668</ele>
        <time>2021-09-12T07:38:52.000Z</time>
      </trkpt>
      <trkpt lat="46.39015" lon="4.66463">
        <ele>335.077038</ele>
        <time>2021-09-12T07:38:57.000Z</time>
      </trkpt>
      <trkpt lat="46.39029" lon="4.66452">
        <ele>335.5308</ele>
        <time>2021-09-12T07:39:01.000Z</time>
      </trkpt>
      <trkpt lat="46.39048" lon="4.66431">
        <ele>336.215936</ele>
        <time>2021-09-12T07:39:07.000Z</time>
      </trkpt>
      <trkpt lat="46.39055" lon="4.66424">
        <ele>336.446198</ele>
        <time>2021-09-12T07:39:09.000Z</time>
      </trkpt>
      <trkpt lat="46.39067" lon="4.66409">
        <ele>336.897379</ele>
        <time>2021-09-12T07:39:13.000Z</time>
      </trkpt>
      <trkpt lat="46.39085" lon="4.66391">
        <ele>337.502891</ele>
        <time>2021-09-12T07:39:19.000Z</time>
      </trkpt>
      <trkpt lat="46.39103" lon="4.66379">
        <ele>338.066665</ele>
        <time>2021-09-12T07:39:25.000Z</time>
      </trkpt>
      <trkpt lat="46.3912" lon="4.66369">
        <ele>338.597048</ele>
        <time>2021-09-12T07:39:31.000Z</time>
      </trkpt>
      <trkpt lat="46.39138" lon="4.66367">
        <ele>339.112009</ele>
        <time>2021-09-12T07:39:37.000Z</time>
      </trkpt>
      <trkpt lat="46.39147" lon="4.66366">
        <ele>339.364308</ele>
        <time>2021-09-12T07:39:40.000Z</time>
      </trkpt>
      <trkpt lat="46.39151" lon="4.66365">
        <ele>339.469318</ele>
        <time>2021-09-12T07:39:41.000Z</time>
      </trkpt>
      <trkpt lat="46.39177" lon="4.66361">
        <ele>340.243801</ele>
        <time>2021-09-12T07:39:48.000Z</time>
      </trkpt>
      <trkpt lat="46.39207" lon="4.66357">
        <ele>341.154067</ele>
        <time>2021-09-12T07:39:56.000Z</time>
      </trkpt>
      <trkpt lat="46.3922" lon="4.66366">
        <ele>341.577019</ele>
        <time>2021-09-12T07:40:00.000Z</time>
      </trkpt>
      <trkpt lat="46.39227" lon="4.6639">
        <ele>342.111182</ele>
        <time>2021-09-12T07:40:05.000Z</time>
      </trkpt>
      <trkpt lat="46.39223" lon="4.66412">
        <ele>342.59582</ele>
        <time>2021-09-12T07:40:10.000Z</time>
      </trkpt>
      <trkpt lat="46.39212" lon="4.66425">
        <ele>343.005753</ele>
        <time>2021-09-12T07:40:14.000Z</time>
      </trkpt>
      <trkpt lat="46.3919" lon="4.66423">
        <ele>343.662976</ele>
        <time>2021-09-12T07:40:20.000Z</time>
      </trkpt>
      <trkpt lat="46.39165" lon="4.66409">
        <ele>344.460389</ele>
        <time>2021-09-12T07:40:29.000Z</time>
      </trkpt>
      <trkpt lat="46.39147" lon="4.66402">
        <ele>345.004058</ele>
        <time>2021-09-12T07:40:36.000Z</time>
      </trkpt>
      <trkpt lat="46.39128" lon="4.66405">
        <ele>345.499617</ele>
        <time>2021-09-12T07:40:43.000Z</time>
      </trkpt>
      <trkpt lat="46.39111" lon="4.66417">
        <ele>345.981244</ele>
        <time>2021-09-12T07:40:50.000Z</time>
      </trkpt>
      <trkpt lat="46.39094" lon="4.66436">
        <ele>346.531378</ele>
        <time>2021-09-12T07:40:58.000Z</time>
      </trkpt>
      <trkpt lat="46.39082" lon="4.66451">
        <ele>346.925634</ele>
        <time>2021-09-12T07:41:04.000Z</time>
      </trkpt>
      <trkpt lat="46.3907" lon="4.66466">
        <ele>347.334196</ele>
        <time>2021-09-12T07:41:10.000Z</time>
      </trkpt>
      <trkpt lat="46.39059" lon="4.66485">
        <ele>347.774623</ele>
        <time>2021-09-12T07:41:16.000Z</time>
      </trkpt>
      <trkpt lat="46.39046" lon="4.66509">
        <ele>348.306268</ele>
        <time>2021-09-12T07:41:23.000Z</time>
      </trkpt>
      <trkpt lat="46.39031" lon="4.66538">
        <ele>348.944598</ele>
        <time>2021-09-12T07:41:31.000Z</time>
      </trkpt>
      <trkpt lat="46.39017" lon="4.66568">
        <ele>349.585793</ele>
        <time>2021-09-12T07:41:39.000Z</time>
      </trkpt>
      <trkpt lat="46.39003" lon="4.66598">
        <ele>350.19544</ele>
        <time>2021-09-12T07:41:47.000Z</time>
      </trkpt>
      <trkpt lat="46.38989" lon="4.66621">
        <ele>350.717884</ele>
        <time>2021-09-12T07:41:54.000Z</time>
      </trkpt>
      <trkpt lat="46.38974" lon="4.66641">
        <ele>351.24315</ele>
        <time>2021-09-12T07:42:01.000Z</time>
      </trkpt>
      <trkpt lat="46.38955" lon="4.6666">
        <ele>351.792067</ele>
        <time>2021-09-12T07:42:08.000Z</time>
      </trkpt>
      <trkpt lat="46.38934" lon="4.66681">
        <ele>352.423191</ele>
        <time>2021-09-12T07:42:16.000Z</time>
      </trkpt>
      <trkpt lat="46.38909" lon="4.66706">
        <ele>353.190526</ele>
        <time>2021-09-12T07:42:26.000Z</time>
      </trkpt>
      <trkpt lat="46.38894" lon="4.66722">
        <ele>353.6423</ele>
        <time>2021-09-12T07:42:32.000Z</time>
      </trkpt>
      <trkpt lat="46.38875" lon="4.66741">
        <ele>353.834805</ele>
        <time>2021-09-12T07:42:40.000Z</time>
      </trkpt>
      <trkpt lat="46.38857" lon="4.66758">
        <ele>353.597849</ele>
        <time>2021-09-12T07:42:47.000Z</time>
      </trkpt>
      <trkpt lat="46.37616" lon="4.68837">
        <ele>332.673361</ele>
        <time>2021-09-12T07:52:25.000Z</time>
      </trkpt>
      <trkpt lat="46.37553" lon="4.68845">
        <ele>331.586679</ele>
        <time>2021-09-12T07:52:32.000Z</time>
      </trkpt>
      <trkpt lat="46.37544" lon="4.68846">
        <ele>331.19934</ele>
        <time>2021-09-12T07:52:33.000Z</time>
      </trkpt>
      <trkpt lat="46.3749" lon="4.68852">
        <ele>328.828465</ele>
        <time>2021-09-12T07:52:39.000Z</time>
      </trkpt>
      <trkpt lat="46.37481" lon="4.68853">
        <ele>328.428257</ele>
        <time>2021-09-12T07:52:40.000Z</time>
      </trkpt>
      <trkpt lat="46.37427" lon="4.68858">
        <ele>326.049547</ele>
        <time>2021-09-12T07:52:46.000Z</time>
      </trkpt>
      <trkpt lat="46.37418" lon="4.68859">
        <ele>325.658306</ele>
        <time>2021-09-12T07:52:47.000Z</time>
      </trkpt>
      <trkpt lat="46.37358" lon="4.68866">
        <ele>322.761933</ele>
        <time>2021-09-12T07:52:54.000Z</time>
      </trkpt>
      <trkpt lat="46.37325" lon="4.68876">
        <ele>321.040184</ele>
        <time>2021-09-12T07:52:58.000Z</time>
      </trkpt>
      <trkpt lat="46.37318" lon="4.6888">
        <ele>320.616377</ele>
        <time>2021-09-12T07:52:59.000Z</time>
      </trkpt>
      <trkpt lat="46.37311" lon="4.68886">
        <ele>320.21802</ele>
        <time>2021-09-12T07:53:00.000Z</time>
      </trkpt>
      <trkpt lat="46.37292" lon="4.68907">
        <ele>318.971278</ele>
        <time>2021-09-12T07:53:03.000Z</time>
      </trkpt>
      <trkpt lat="46.3726" lon="4.68945">
        <ele>316.827011</ele>
        <time>2021-09-12T07:53:08.000Z</time>
      </trkpt>
      <trkpt lat="46.37244" lon="4.68956">
        <ele>315.940265</ele>
        <time>2021-09-12T07:53:10.000Z</time>
      </trkpt>
      <trkpt lat="46.37244" lon="4.68956">
        <ele>315.940265</ele>
        <time>2021-09-12T07:53:11.000Z</time>
      </trkpt>
      <trkpt lat="46.37212" lon="4.68969">
        <ele>314.300005</ele>
        <time>2021-09-12T07:53:14.000Z</time>
      </trkpt>
      <trkpt lat="46.37152" lon="4.68984">
        <ele>311.566571</ele>
        <time>2021-09-12T07:53:21.000Z</time>
      </trkpt>
      <trkpt lat="46.37143" lon="4.68987">
        <ele>311.163731</ele>
        <time>2021-09-12T07:53:22.000Z</time>
      </trkpt>
      <trkpt lat="46.3709" lon="4.69001">
        <ele>308.695716</ele>
        <time>2021-09-12T07:53:28.000Z</time>
      </trkpt>
      <trkpt lat="46.37062" lon="4.69008">
        <ele>307.454501</ele>
        <time>2021-09-12T07:53:31.000Z</time>
      </trkpt>
      <trkpt lat="46.37002" lon="4.69024">
        <ele>304.864955</ele>
        <time>2021-09-12T07:53:38.000Z</time>
      </trkpt>
      <trkpt lat="46.36984" lon="4.69028">
        <ele>304.133118</ele>
        <time>2021-09-12T07:53:40.000Z</time>
      </trkpt>
      <trkpt lat="46.36931" lon="4.69041">
        <ele>301.896477</ele>
        <time>2021-09-12T07:53:46.000Z</time>
      </trkpt>
      <trkpt lat="46.36913" lon="4.69045">
        <ele>301.16511</ele>
        <time>2021-09-12T07:53:48.000Z</time>
      </trkpt>
      <trkpt lat="46.36854" lon="4.6906">
        <ele>298.780409</ele>
        <time>2021-09-12T07:53:55.000Z</time>
      </trkpt>
      <trkpt lat="46.36795" lon="4.69074">
        <ele>296.686848</ele>
        <time>2021-09-12T07:54:02.000Z</time>
      </trkpt>
      <trkpt lat="46.36787" lon="4.69076">
        <ele>296.388412</ele>
        <time>2021-09-12T07:54:03.000Z</time>
      </trkpt>
      <trkpt lat="46.36729" lon="4.6909">
        <ele>294.283967</ele>
        <time>2021-09-12T07:54:10.000Z</time>
      </trkpt>
      <trkpt lat="46.36676" lon="4.69103">
        <ele>292.462419</ele>
        <time>2021-09-12T07:54:16.000Z</time>
      </trkpt>
      <trkpt lat="46.36615" lon="4.69118">
        <ele>290.435677</ele>
        <time>2021-09-12T07:54:23.000Z</time>
      </trkpt>
      <trkpt lat="46.36573" lon="4.6913">
        <ele>289.029592</ele>
        <time>2021-09-12T07:54:28.000Z</time>
      </trkpt>
      <trkpt lat="46.3655" lon="4.69138">
        <ele>288.234732</ele>
        <time>2021-09-12T07:54:31.000Z</time>
      </trkpt>
      <trkpt lat="46.36537" lon="4.6915">
        <ele>287.724161</ele>
        <time>2021-09-12T07:54:33.000Z</time>
      </trkpt>
      <trkpt lat="46.3652" lon="4.69187">
        <ele>286.823222</ele>
        <time>2021-09-12T07:54:37.000Z</time>
      </trkpt>
      <trkpt lat="46.3651" lon="4.69204">
        <ele>286.4352</ele>
        <time>2021-09-12T07:54:39.000Z</time>
      </trkpt>
      <trkpt lat="46.365" lon="4.69219">
        <ele>286.056875</ele>
        <time>2021-09-12T07:54:41.000Z</time>
      </trkpt>
      <trkpt lat="46.36459" lon="4.69268">
        <ele>284.680678</ele>
        <time>2021-09-12T07:54:48.000Z</time>
      </trkpt>
      <trkpt lat="46.36421" lon="4.69311">
        <ele>283.449044</ele>
        <time>2021-09-12T07:54:55.000Z</time>
      </trkpt>
      <trkpt lat="46.36394" lon="4.69338">
        <ele>282.617988</ele>
        <time>2021-09-12T07:55:00.000Z</time>
      </trkpt>
      <trkpt lat="46.36377" lon="4.69352">
        <ele>282.098466</ele>
        <time>2021-09-12T07:55:03.000Z</time>
      </trkpt>
      <trkpt lat="46.36363" lon="4.69359">
        <ele>281.740584</ele>
        <time>2021-09-12T07:55:05.000Z</time>
      </trkpt>
      <trkpt lat="46.36318" lon="4.69368">
        <ele>280.571291</ele>
        <time>2021-09-12T07:55:11.000Z</time>
      </trkpt>
      <trkpt lat="46.36264" lon="4.69379">
        <ele>279.179768</ele>
        <time>2021-09-12T07:55:18.000Z</time>
      </trkpt>
      <trkpt lat="46.3623" lon="4.69396">
        <ele>278.270305</ele>
        <time>2021-09-12T07:55:23.000Z</time>
      </trkpt>
      <trkpt lat="46.36179" lon="4.69406">
        <ele>276.982663</ele>
        <time>2021-09-12T07:55:30.000Z</time>
      </trkpt>
      <trkpt lat="46.3614" lon="4.69419">
        <ele>275.984812</ele>
        <time>2021-09-12T07:55:36.000Z</time>
      </trkpt>
      <trkpt lat="46.36122" lon="4.69423">
        <ele>275.516474</ele>
        <time>2021-09-12T07:55:39.000Z</time>
      </trkpt>
      <trkpt lat="46.3611" lon="4.69421">
        <ele>275.228886</ele>
        <time>2021-09-12T07:55:41.000Z</time>
      </trkpt>
      <trkpt lat="46.36105" lon="4.69421">
        <ele>275.093763</ele>
        <time>2021-09-12T07:55:42.000Z</time>
      </trkpt>
      <trkpt lat="46.36091" lon="4.69415">
        <ele>274.732225</ele>
        <time>2021-09-12T07:55:45.000Z</time>
      </trkpt>
      <trkpt lat="46.36086" lon="4.69419">
        <ele>274.595236</ele>
        <time>2021-09-12T07:55:46.000Z</time>
      </trkpt>
      <trkpt lat="46.36083" lon="4.69422">
        <ele>274.493435</ele>
        <time>2021-09-12T07:55:47.000Z</time>
      </trkpt>
      <trkpt lat="46.3607" lon="4.6943">
        <ele>274.144141</ele>
        <time>2021-09-12T07:55:50.000Z</time>
      </trkpt>
      <trkpt lat="46.36062" lon="4.69433">
        <ele>273.936443</ele>
        <time>2021-09-12T07:55:53.000Z</time>
      </trkpt>
      <trkpt lat="46.36044" lon="4.69441">
        <ele>273.479129</ele>
        <time>2021-09-12T07:55:56.000Z</time>
      </trkpt>
      <trkpt lat="46.36026" lon="4.69443">
        <ele>272.666444</ele>
        <time>2021-09-12T07:55:59.000Z</time>
      </trkpt>
      <trkpt lat="46.36019" lon="4.69445">
        <ele>272.355891</ele>
        <time>2021-09-12T07:56:00.000Z</time>
      </trkpt>
      <trkpt lat="46.36011" lon="4.69449">
        <ele>272.008807</ele>
        <time>2021-09-12T07:56:01.000Z</time>
      </trkpt>
      <trkpt lat="46.35998" lon="4.69462">
        <ele>271.289397</ele>
        <time>2021-09-12T07:56:03.000Z</time>
      </trkpt>
      <trkpt lat="46.35976" lon="4.69488">
        <ele>270.066918</ele>
        <time>2021-09-12T07:56:07.000Z</time>
      </trkpt>
      <trkpt lat="46.35968" lon="4.69499">
        <ele>269.564522</ele>
        <time>2021-09-12T07:56:09.000Z</time>
      </trkpt>
      <trkpt lat="46.3597" lon="4.69505">
        <ele>269.353299</ele>
        <time>2021-09-12T07:56:10.000Z</time>
      </trkpt>
      <trkpt lat="46.35972" lon="4.69513">
        <ele>269.10541</ele>
        <time>2021-09-12T07:56:11.000Z</time>
      </trkpt>
      <trkpt lat="46.3597" lon="4.6953">
        <ele>268.573609</ele>
        <time>2021-09-12T07:56:13.000Z</time>
      </trkpt>
      <trkpt lat="46.35965" lon="4.69542">
        <ele>268.156392</ele>
        <time>2021-09-12T07:56:15.000Z</time>
      </trkpt>
      <trkpt lat="46.35952" lon="4.69573">
        <ele>267.042003</ele>
        <time>2021-09-12T07:56:19.000Z</time>
      </trkpt>
      <trkpt lat="46.35948" lon="4.69581">
        <ele>266.749693</ele>
        <time>2021-09-12T07:56:20.000Z</time>
      </trkpt>
      <trkpt lat="46.35945" lon="4.69589">
        <ele>266.484939</ele>
        <time>2021-09-12T07:56:21.000Z</time>
      </trkpt>
      <trkpt lat="46.35937" lon="4.69612">
        <ele>265.706042</ele>
        <time>2021-09-12T07:56:24.000Z</time>
      </trkpt>
      <trkpt lat="46.35928" lon="4.69645">
        <ele>264.991083</ele>
        <time>2021-09-12T07:56:28.000Z</time>
      </trkpt>
      <trkpt lat="46.35926" lon="4.69653">
        <ele>264.83755</ele>
        <time>2021-09-12T07:56:29.000Z</time>
      </trkpt>
      <trkpt lat="46.35923" lon="4.69661">
        <ele>264.687384</ele>
        <time>2021-09-12T07:56:30.000Z</time>
      </trkpt>
      <trkpt lat="46.35918" lon="4.69677">
        <ele>264.360057</ele>
        <time>2021-09-12T07:56:32.000Z</time>
      </trkpt>
      <trkpt lat="46.35914" lon="4.69681">
        <ele>264.230487</ele>
        <time>2021-09-12T07:56:33.000Z</time>
      </trkpt>
      <trkpt lat="46.35891" lon="4.69709">
        <ele>263.435927</ele>
        <time>2021-09-12T07:56:39.000Z</time>
      </trkpt>
      <trkpt lat="46.35884" lon="4.69717">
        <ele>263.193926</ele>
        <time>2021-09-12T07:56:41.000Z</time>
      </trkpt>
      <trkpt lat="46.35873" lon="4.6973">
        <ele>262.822354</ele>
        <time>2021-09-12T07:56:44.000Z</time>
      </trkpt>
      <trkpt lat="46.35869" lon="4.69735">
        <ele>262.694456</ele>
        <time>2021-09-12T07:56:45.000Z</time>
      </trkpt>
      <trkpt lat="46.35855" lon="4.69758">
        <ele>262.117004</ele>
        <time>2021-09-12T07:56:49.000Z</time>
      </trkpt>
      <trkpt lat="46.35824" lon="4.6981">
        <ele>260.882539</ele>
        <time>2021-09-12T07:56:57.000Z</time>
      </trkpt>
      <trkpt lat="46.35809" lon="4.69854">
        <ele>260.064865</ele>
        <time>2021-09-12T07:57:03.000Z</time>
      </trkpt>
      <trkpt lat="46.35791" lon="4.69904">
        <ele>259.14194</ele>
        <time>2021-09-12T07:57:10.000Z</time>
      </trkpt>
      <trkpt lat="46.35785" lon="4.69905">
        <ele>259.01353</ele>
        <time>2021-09-12T07:57:12.000Z</time>
      </trkpt>
      <trkpt lat="46.35759" lon="4.69885">
        <ele>258.303867</ele>
        <time>2021-09-12T07:57:17.000Z</time>
      </trkpt>
      <trkpt lat="46.3572" lon="4.69857">
        <ele>257.280617</ele>
        <time>2021-09-12T07:57:23.000Z</time>
      </trkpt>
      <trkpt lat="46.35702" lon="4.69847">
        <ele>256.817418</ele>
        <time>2021-09-12T07:57:26.000Z</time>
      </trkpt>
      <trkpt lat="46.35697" lon="4.6985">
        <ele>256.686425</ele>
        <time>2021-09-12T07:57:27.000Z</time>
      </trkpt>
      <trkpt lat="46.35677" lon="4.69877">
        <ele>255.975757</ele>
        <time>2021-09-12T07:57:31.000Z</time>
      </trkpt>
      <trkpt lat="46.3565" lon="4.69915">
        <ele>254.990665</ele>
        <time>2021-09-12T07:57:36.000Z</time>
      </trkpt>
      <trkpt lat="46.35639" lon="4.69931">
        <ele>254.572104</ele>
        <time>2021-09-12T07:57:38.000Z</time>
      </trkpt>
      <trkpt lat="46.35624" lon="4.69952">
        <ele>254.013817</ele>
        <time>2021-09-12T07:57:41.000Z</time>
      </trkpt>
      <trkpt lat="46.35607" lon="4.69979">
        <ele>253.354051</ele>
        <time>2021-09-12T07:57:46.000Z</time>
      </trkpt>
      <trkpt lat="46.35601" lon="4.69992">
        <ele>253.068046</ele>
        <time>2021-09-12T07:57:50.000Z</time>
      </trkpt>
      <trkpt lat="46.35587" lon="4.70019">
        <ele>252.439649</ele>
        <time>2021-09-12T07:57:56.000Z</time>
      </trkpt>
      <trkpt lat="46.35578" lon="4.70035">
        <ele>252.067894</ele>
        <time>2021-09-12T07:57:59.000Z</time>
      </trkpt>
      <trkpt lat="46.35574" lon="4.7005">
        <ele>251.80216</ele>
        <time>2021-09-12T07:58:01.000Z</time>
      </trkpt>
      <trkpt lat="46.35565" lon="4.70063">
        <ele>251.793889</ele>
        <time>2021-09-12T07:58:03.000Z</time>
      </trkpt>
      <trkpt lat="46.3556" lon="4.70068">
        <ele>251.790137</ele>
        <time>2021-09-12T07:58:04.000Z</time>
      </trkpt>
      <trkpt lat="46.35548" lon="4.70081">
        <ele>251.780147</ele>
        <time>2021-09-12T07:58:07.000Z</time>
      </trkpt>
      <trkpt lat="46.35543" lon="4.70085">
        <ele>251.776822</ele>
        <time>2021-09-12T07:58:08.000Z</time>
      </trkpt>
      <trkpt lat="46.35517" lon="4.70113">
        <ele>251.755505</ele>
        <time>2021-09-12T07:58:14.000Z</time>
      </trkpt>
      <trkpt lat="46.35501" lon="4.70136">
        <ele>251.740872</ele>
        <time>2021-09-12T07:58:21.000Z</time>
      </trkpt>
      <trkpt lat="46.35491" lon="4.70153">
        <ele>251.730535</ele>
        <time>2021-09-12T07:58:25.000Z</time>
      </trkpt>
      <trkpt lat="46.35488" lon="4.70158">
        <ele>251.72756</ele>
        <time>2021-09-12T07:58:26.000Z</time>
      </trkpt>
      <trkpt lat="46.35477" lon="4.70174">
        <ele>251.717645</ele>
        <time>2021-09-12T07:58:29.000Z</time>
      </trkpt>
      <trkpt lat="46.35469" lon="4.70185">
        <ele>251.710422</ele>
        <time>2021-09-12T07:58:31.000Z</time>
      </trkpt>
      <trkpt lat="46.35441" lon="4.70224">
        <ele>251.676061</ele>
        <time>2021-09-12T07:58:38.000Z</time>
      </trkpt>
      <trkpt lat="46.35432" lon="4.70233">
        <ele>251.587869</ele>
        <time>2021-09-12T07:58:40.000Z</time>
      </trkpt>
      <trkpt lat="46.35419" lon="4.70248">
        <ele>251.454601</ele>
        <time>2021-09-12T07:58:43.000Z</time>
      </trkpt>
      <trkpt lat="46.35392" lon="4.70279">
        <ele>251.177304</ele>
        <time>2021-09-12T07:58:49.000Z</time>
      </trkpt>
      <trkpt lat="46.35371" lon="4.70319">
        <ele>250.896291</ele>
        <time>2021-09-12T07:58:53.000Z</time>
      </trkpt>
      <trkpt lat="46.35337" lon="4.70373">
        <ele>250.491391</ele>
        <time>2021-09-12T07:58:59.000Z</time>
      </trkpt>
      <trkpt lat="46.35296" lon="4.70434">
        <ele>249.98973</ele>
        <time>2021-09-12T07:59:04.000Z</time>
      </trkpt>
      <trkpt lat="46.3529" lon="4.70443">
        <ele>249.907077</ele>
        <time>2021-09-12T07:59:05.000Z</time>
      </trkpt>
      <trkpt lat="46.35256" lon="4.70495">
        <ele>249.443628</ele>
        <time>2021-09-12T07:59:12.000Z</time>
      </trkpt>
      <trkpt lat="46.35217" lon="4.70553">
        <ele>248.925272</ele>
        <time>2021-09-12T07:59:18.000Z</time>
      </trkpt>
      <trkpt lat="46.35212" lon="4.70562">
        <ele>248.852667</ele>
        <time>2021-09-12T07:59:19.000Z</time>
      </trkpt>
      <trkpt lat="46.35174" lon="4.70618">
        <ele>248.265389</ele>
        <time>2021-09-12T07:59:26.000Z</time>
      </trkpt>
      <trkpt lat="46.35159" lon="4.7064">
        <ele>247.986023</ele>
        <time>2021-09-12T07:59:29.000Z</time>
      </trkpt>
      <trkpt lat="46.3515" lon="4.70654">
        <ele>247.809574</ele>
        <time>2021-09-12T07:59:31.000Z</time>
      </trkpt>
      <trkpt lat="46.35135" lon="4.70676">
        <ele>247.540822</ele>
        <time>2021-09-12T07:59:34.000Z</time>
      </trkpt>
      <trkpt lat="46.35126" lon="4.7069">
        <ele>247.365926</ele>
        <time>2021-09-12T07:59:36.000Z</time>
      </trkpt>
      <trkpt lat="46.35104" lon="4.70726">
        <ele>246.936206</ele>
        <time>2021-09-12T07:59:41.000Z</time>
      </trkpt>
      <trkpt lat="46.35097" lon="4.70738">
        <ele>246.789796</ele>
        <time>2021-09-12T07:59:43.000Z</time>
      </trkpt>
      <trkpt lat="46.35095" lon="4.70743">
        <ele>246.734755</ele>
        <time>2021-09-12T07:59:45.000Z</time>
      </trkpt>
      <trkpt lat="46.35095" lon="4.70743">
        <ele>246.734755</ele>
        <time>2021-09-12T07:59:47.000Z</time>
      </trkpt>
      <trkpt lat="46.35094" lon="4.70745">
        <ele>246.713248</ele>
        <time>2021-09-12T07:59:50.000Z</time>
      </trkpt>
      <trkpt lat="46.3509" lon="4.70751">
        <ele>246.641383</ele>
        <time>2021-09-12T07:59:52.000Z</time>
      </trkpt>
      <trkpt lat="46.35092" lon="4.70763">
        <ele>246.53649</ele>
        <time>2021-09-12T07:59:55.000Z</time>
      </trkpt>
      <trkpt lat="46.35097" lon="4.70778">
        <ele>246.381671</ele>
        <time>2021-09-12T07:59:58.000Z</time>
      </trkpt>
      <trkpt lat="46.35098" lon="4.70784">
        <ele>246.330424</ele>
        <time>2021-09-12T07:59:59.000Z</time>
      </trkpt>
      <trkpt lat="46.35091" lon="4.70817">
        <ele>246.038561</ele>
        <time>2021-09-12T08:00:04.000Z</time>
      </trkpt>
      <trkpt lat="46.35091" lon="4.70817">
        <ele>246.038561</ele>
        <time>2021-09-12T08:00:05.000Z</time>
      </trkpt>
      <trkpt lat="46.35071" lon="4.70842">
        <ele>245.736922</ele>
        <time>2021-09-12T08:00:09.000Z</time>
      </trkpt>
      <trkpt lat="46.35067" lon="4.70849">
        <ele>245.667198</ele>
        <time>2021-09-12T08:00:10.000Z</time>
      </trkpt>
      <trkpt lat="46.35033" lon="4.70901">
        <ele>245.100529</ele>
        <time>2021-09-12T08:00:18.000Z</time>
      </trkpt>
      <trkpt lat="46.35" lon="4.70954">
        <ele>244.533125</ele>
        <time>2021-09-12T08:00:26.000Z</time>
      </trkpt>
      <trkpt lat="46.34971" lon="4.70999">
        <ele>244.135678</ele>
        <time>2021-09-12T08:00:34.000Z</time>
      </trkpt>
      <trkpt lat="46.34947" lon="4.71037">
        <ele>244.043193</ele>
        <time>2021-09-12T08:00:41.000Z</time>
      </trkpt>
      <trkpt lat="46.34927" lon="4.71069">
        <ele>243.963037</ele>
        <time>2021-09-12T08:00:47.000Z</time>
      </trkpt>
      <trkpt lat="46.34914" lon="4.71091">
        <ele>243.909885</ele>
        <time>2021-09-12T08:00:51.000Z</time>
      </trkpt>
      <trkpt lat="46.34908" lon="4.71104">
        <ele>243.881571</ele>
        <time>2021-09-12T08:00:53.000Z</time>
      </trkpt>
      <trkpt lat="46.34903" lon="4.71117">
        <ele>243.853771</ele>
        <time>2021-09-12T08:00:55.000Z</time>
      </trkpt>
      <trkpt lat="46.34902" lon="4.71133">
        <ele>243.825197</ele>
        <time>2021-09-12T08:00:57.000Z</time>
      </trkpt>
      <trkpt lat="46.349" lon="4.71141">
        <ele>243.80868</ele>
        <time>2021-09-12T08:00:58.000Z</time>
      </trkpt>
      <trkpt lat="46.34893" lon="4.71155">
        <ele>243.778293</ele>
        <time>2021-09-12T08:01:00.000Z</time>
      </trkpt>
      <trkpt lat="46.34886" lon="4.71166">
        <ele>243.750989</ele>
        <time>2021-09-12T08:01:02.000Z</time>
      </trkpt>
      <trkpt lat="46.34882" lon="4.71168">
        <ele>243.738205</ele>
        <time>2021-09-12T08:01:03.000Z</time>
      </trkpt>
      <trkpt lat="46.34877" lon="4.71169">
        <ele>243.725364</ele>
        <time>2021-09-12T08:01:04.000Z</time>
      </trkpt>
      <trkpt lat="46.34874" lon="4.71176">
        <ele>243.709835</ele>
        <time>2021-09-12T08:01:06.000Z</time>
      </trkpt>
      <trkpt lat="46.34862" lon="4.71211">
        <ele>243.368738</ele>
        <time>2021-09-12T08:01:11.000Z</time>
      </trkpt>
      <trkpt lat="46.34859" lon="4.71219">
        <ele>243.25875</ele>
        <time>2021-09-12T08:01:12.000Z</time>
      </trkpt>
      <trkpt lat="46.34844" lon="4.7126">
        <ele>242.682912</ele>
        <time>2021-09-12T08:01:17.000Z</time>
      </trkpt>
      <trkpt lat="46.34841" lon="4.71268">
        <ele>242.569343</ele>
        <time>2021-09-12T08:01:18.000Z</time>
      </trkpt>
      <trkpt lat="46.34832" lon="4.7129">
        <ele>242.255039</ele>
        <time>2021-09-12T08:01:21.000Z</time>
      </trkpt>
      <trkpt lat="46.34826" lon="4.71305">
        <ele>242.04829</ele>
        <time>2021-09-12T08:01:23.000Z</time>
      </trkpt>
      <trkpt lat="46.34824" lon="4.71312">
        <ele>241.94889</ele>
        <time>2021-09-12T08:01:24.000Z</time>
      </trkpt>
      <trkpt lat="46.34821" lon="4.71319">
        <ele>241.852494</ele>
        <time>2021-09-12T08:01:25.000Z</time>
      </trkpt>
      <trkpt lat="46.34816" lon="4.71332">
        <ele>241.677094</ele>
        <time>2021-09-12T08:01:27.000Z</time>
      </trkpt>
      <trkpt lat="46.34814" lon="4.71338">
        <ele>241.589929</ele>
        <time>2021-09-12T08:01:28.000Z</time>
      </trkpt>
      <trkpt lat="46.34796" lon="4.71359">
        <ele>241.182868</ele>
        <time>2021-09-12T08:01:33.000Z</time>
      </trkpt>
      <trkpt lat="46.34785" lon="4.71386">
        <ele>240.795804</ele>
        <time>2021-09-12T08:01:38.000Z</time>
      </trkpt>
      <trkpt lat="46.34777" lon="4.71418">
        <ele>240.541919</ele>
        <time>2021-09-12T08:01:43.000Z</time>
      </trkpt>
      <trkpt lat="46.34763" lon="4.71439">
        <ele>240.718251</ele>
        <time>2021-09-12T08:01:47.000Z</time>
      </trkpt>
      <trkpt lat="46.34756" lon="4.71449">
        <ele>240.800193</ele>
        <time>2021-09-12T08:01:49.000Z</time>
      </trkpt>
      <trkpt lat="46.34753" lon="4.71454">
        <ele>240.836464</ele>
        <time>2021-09-12T08:01:50.000Z</time>
      </trkpt>
      <trkpt lat="46.3475" lon="4.71458">
        <ele>240.872902</ele>
        <time>2021-09-12T08:01:52.000Z</time>
      </trkpt>
      <trkpt lat="46.34741" lon="4.71473">
        <ele>240.990687</ele>
        <time>2021-09-12T08:01:54.000Z</time>
      </trkpt>
      <trkpt lat="46.34737" lon="4.71479">
        <ele>241.037801</ele>
        <time>2021-09-12T08:01:55.000Z</time>
      </trkpt>
      <trkpt lat="46.34718" lon="4.71509">
        <ele>241.280295</ele>
        <time>2021-09-12T08:02:00.000Z</time>
      </trkpt>
      <trkpt lat="46.34714" lon="4.71515">
        <ele>241.325685</ele>
        <time>2021-09-12T08:02:01.000Z</time>
      </trkpt>
      <trkpt lat="46.34707" lon="4.71526">
        <ele>241.417456</ele>
        <time>2021-09-12T08:02:03.000Z</time>
      </trkpt>
      <trkpt lat="46.347" lon="4.71537">
        <ele>241.502444</ele>
        <time>2021-09-12T08:02:05.000Z</time>
      </trkpt>
      <trkpt lat="46.34686" lon="4.71557">
        <ele>241.669117</ele>
        <time>2021-09-12T08:02:10.000Z</time>
      </trkpt>
      <trkpt lat="46.34676" lon="4.7156">
        <ele>241.757727</ele>
        <time>2021-09-12T08:02:13.000Z</time>
      </trkpt>
      <trkpt lat="46.34663" lon="4.7156">
        <ele>241.867889</ele>
        <time>2021-09-12T08:02:17.000Z</time>
      </trkpt>
      <trkpt lat="46.3466" lon="4.71562">
        <ele>241.895977</ele>
        <time>2021-09-12T08:02:18.000Z</time>
      </trkpt>
      <trkpt lat="46.34641" lon="4.71577">
        <ele>242.056189</ele>
        <time>2021-09-12T08:02:24.000Z</time>
      </trkpt>
      <trkpt lat="46.34623" lon="4.71591">
        <ele>242.158135</ele>
        <time>2021-09-12T08:02:29.000Z</time>
      </trkpt>
      <trkpt lat="46.34615" lon="4.71592">
        <ele>242.200778</ele>
        <time>2021-09-12T08:02:31.000Z</time>
      </trkpt>
      <trkpt lat="46.34599" lon="4.71592">
        <ele>242.277225</ele>
        <time>2021-09-12T08:02:34.000Z</time>
      </trkpt>
      <trkpt lat="46.34565" lon="4.71611">
        <ele>242.455057</ele>
        <time>2021-09-12T08:02:40.000Z</time>
      </trkpt>
      <trkpt lat="46.34539" lon="4.71624">
        <ele>242.591734</ele>
        <time>2021-09-12T08:02:45.000Z</time>
      </trkpt>
      <trkpt lat="46.34535" lon="4.71627">
        <ele>242.615963</ele>
        <time>2021-09-12T08:02:46.000Z</time>
      </trkpt>
      <trkpt lat="46.34525" lon="4.71632">
        <ele>242.664422</ele>
        <time>2021-09-12T08:02:48.000Z</time>
      </trkpt>
      <trkpt lat="46.34512" lon="4.71639">
        <ele>242.737455</ele>
        <time>2021-09-12T08:02:51.000Z</time>
      </trkpt>
      <trkpt lat="46.34483" lon="4.71655">
        <ele>242.887929</ele>
        <time>2021-09-12T08:02:57.000Z</time>
      </trkpt>
      <trkpt lat="46.34478" lon="4.71657">
        <ele>242.910508</ele>
        <time>2021-09-12T08:02:58.000Z</time>
      </trkpt>
      <trkpt lat="46.34442" lon="4.71684">
        <ele>242.223204</ele>
        <time>2021-09-12T08:03:05.000Z</time>
      </trkpt>
      <trkpt lat="46.34409" lon="4.7171">
        <ele>241.58992</ele>
        <time>2021-09-12T08:03:11.000Z</time>
      </trkpt>
      <trkpt lat="46.34376" lon="4.71742">
        <ele>240.932677</ele>
        <time>2021-09-12T08:03:17.000Z</time>
      </trkpt>
      <trkpt lat="46.34371" lon="4.71747">
        <ele>240.830998</ele>
        <time>2021-09-12T08:03:18.000Z</time>
      </trkpt>
      <trkpt lat="46.34366" lon="4.71752">
        <ele>240.72186</ele>
        <time>2021-09-12T08:03:19.000Z</time>
      </trkpt>
      <trkpt lat="46.34345" lon="4.71777">
        <ele>240.272922</ele>
        <time>2021-09-12T08:03:23.000Z</time>
      </trkpt>
      <trkpt lat="46.34312" lon="4.71817">
        <ele>239.130422</ele>
        <time>2021-09-12T08:03:29.000Z</time>
      </trkpt>
      <trkpt lat="46.3429" lon="4.71842">
        <ele>238.107495</ele>
        <time>2021-09-12T08:03:33.000Z</time>
      </trkpt>
      <trkpt lat="46.34286" lon="4.71848">
        <ele>237.885072</ele>
        <time>2021-09-12T08:03:34.000Z</time>
      </trkpt>
      <trkpt lat="46.34272" lon="4.71866">
        <ele>237.209623</ele>
        <time>2021-09-12T08:03:37.000Z</time>
      </trkpt>
      <trkpt lat="46.34267" lon="4.71874">
        <ele>236.923424</ele>
        <time>2021-09-12T08:03:38.000Z</time>
      </trkpt>
      <trkpt lat="46.3425" lon="4.71896">
        <ele>236.10199</ele>
        <time>2021-09-12T08:03:41.000Z</time>
      </trkpt>
      <trkpt lat="46.34238" lon="4.71907">
        <ele>235.567164</ele>
        <time>2021-09-12T08:03:43.000Z</time>
      </trkpt>
      <trkpt lat="46.34229" lon="4.71918">
        <ele>235.126396</ele>
        <time>2021-09-12T08:03:45.000Z</time>
      </trkpt>
      <trkpt lat="46.34221" lon="4.71928">
        <ele>234.751145</ele>
        <time>2021-09-12T08:03:47.000Z</time>
      </trkpt>
      <trkpt lat="46.34213" lon="4.7194">
        <ele>234.329138</ele>
        <time>2021-09-12T08:03:49.000Z</time>
      </trkpt>
      <trkpt lat="46.34203" lon="4.71955">
        <ele>233.783461</ele>
        <time>2021-09-12T08:03:52.000Z</time>
      </trkpt>
      <trkpt lat="46.34201" lon="4.71971">
        <ele>233.379503</ele>
        <time>2021-09-12T08:03:55.000Z</time>
      </trkpt>
      <trkpt lat="46.34198" lon="4.71976">
        <ele>233.223509</ele>
        <time>2021-09-12T08:03:59.000Z</time>
      </trkpt>
      <trkpt lat="46.34194" lon="4.71982">
        <ele>233.113666</ele>
        <time>2021-09-12T08:04:00.000Z</time>
      </trkpt>
      <trkpt lat="46.34198" lon="4.71989">
        <ele>232.987748</ele>
        <time>2021-09-12T08:04:04.000Z</time>
      </trkpt>
      <trkpt lat="46.34208" lon="4.71985">
        <ele>232.776034</ele>
        <time>2021-09-12T08:04:05.000Z</time>
      </trkpt>
      <trkpt lat="46.34215" lon="4.72002">
        <ele>232.502936</ele>
        <time>2021-09-12T08:04:07.000Z</time>
      </trkpt>
      <trkpt lat="46.34215" lon="4.72002">
        <ele>232.502936</ele>
        <time>2021-09-12T08:04:08.000Z</time>
      </trkpt>
      <trkpt lat="46.3422" lon="4.72015">
        <ele>232.297556</ele>
        <time>2021-09-12T08:04:09.000Z</time>
      </trkpt>
      <trkpt lat="46.34231" lon="4.72043">
        <ele>231.836178</ele>
        <time>2021-09-12T08:04:13.000Z</time>
      </trkpt>
      <trkpt lat="46.34244" lon="4.72084">
        <ele>231.219158</ele>
        <time>2021-09-12T08:04:18.000Z</time>
      </trkpt>
      <trkpt lat="46.34246" lon="4.72092">
        <ele>231.098089</ele>
        <time>2021-09-12T08:04:19.000Z</time>
      </trkpt>
      <trkpt lat="46.34253" lon="4.72126">
        <ele>230.608964</ele>
        <time>2021-09-12T08:04:23.000Z</time>
      </trkpt>
      <trkpt lat="46.34251" lon="4.72133">
        <ele>230.498403</ele>
        <time>2021-09-12T08:04:24.000Z</time>
      </trkpt>
      <trkpt lat="46.34248" lon="4.72139">
        <ele>230.393082</ele>
        <time>2021-09-12T08:04:26.000Z</time>
      </trkpt>
      <trkpt lat="46.34252" lon="4.72161">
        <ele>230.069929</ele>
        <time>2021-09-12T08:04:28.000Z</time>
      </trkpt>
      <trkpt lat="46.34255" lon="4.72176">
        <ele>229.857825</ele>
        <time>2021-09-12T08:04:30.000Z</time>
      </trkpt>
      <trkpt lat="46.34258" lon="4.7219">
        <ele>229.649741</ele>
        <time>2021-09-12T08:04:32.000Z</time>
      </trkpt>
      <trkpt lat="46.3426" lon="4.72205">
        <ele>229.591799</ele>
        <time>2021-09-12T08:04:34.000Z</time>
      </trkpt>
      <trkpt lat="46.34264" lon="4.72225">
        <ele>229.523701</ele>
        <time>2021-09-12T08:04:37.000Z</time>
      </trkpt>
      <trkpt lat="46.3427" lon="4.72254">
        <ele>229.420916</ele>
        <time>2021-09-12T08:04:42.000Z</time>
      </trkpt>
      <trkpt lat="46.34274" lon="4.72273">
        <ele>229.356456</ele>
        <time>2021-09-12T08:04:45.000Z</time>
      </trkpt>
      <trkpt lat="46.34275" lon="4.72278">
        <ele>229.339525</ele>
        <time>2021-09-12T08:04:47.000Z</time>
      </trkpt>
      <trkpt lat="46.34276" lon="4.72301">
        <ele>229.262876</ele>
        <time>2021-09-12T08:04:49.000Z</time>
      </trkpt>
      <trkpt lat="46.34269" lon="4.72308">
        <ele>229.220925</ele>
        <time>2021-09-12T08:04:50.000Z</time>
      </trkpt>
      <trkpt lat="46.3426" lon="4.72315">
        <ele>229.17308</ele>
        <time>2021-09-12T08:04:52.000Z</time>
      </trkpt>
      <trkpt lat="46.34238" lon="4.72334">
        <ele>229.046815</ele>
        <time>2021-09-12T08:04:57.000Z</time>
      </trkpt>
      <trkpt lat="46.34208" lon="4.7236">
        <ele>228.880682</ele>
        <time>2021-09-12T08:05:03.000Z</time>
      </trkpt>
      <trkpt lat="46.34176" lon="4.72388">
        <ele>228.890497</ele>
        <time>2021-09-12T08:05:09.000Z</time>
      </trkpt>
      <trkpt lat="46.34132" lon="4.72424">
        <ele>229.265047</ele>
        <time>2021-09-12T08:05:17.000Z</time>
      </trkpt>
      <trkpt lat="46.34108" lon="4.72443">
        <ele>229.464817</ele>
        <time>2021-09-12T08:05:23.000Z</time>
      </trkpt>
      <trkpt lat="46.34084" lon="4.72462">
        <ele>229.668815</ele>
        <time>2021-09-12T08:05:29.000Z</time>
      </trkpt>
      <trkpt lat="46.34045" lon="4.72492">
        <ele>229.993391</ele>
        <time>2021-09-12T08:05:39.000Z</time>
      </trkpt>
      <trkpt lat="46.34016" lon="4.72516">
        <ele>230.367448</ele>
        <time>2021-09-12T08:05:48.000Z</time>
      </trkpt>
      <trkpt lat="46.33996" lon="4.72531">
        <ele>230.677803</ele>
        <time>2021-09-12T08:05:54.000Z</time>
      </trkpt>
      <trkpt lat="46.33966" lon="4.72557">
        <ele>231.16821</ele>
        <time>2021-09-12T08:06:03.000Z</time>
      </trkpt>
      <trkpt lat="46.33939" lon="4.72579">
        <ele>231.598647</ele>
        <time>2021-09-12T08:06:10.000Z</time>
      </trkpt>
      <trkpt lat="46.33911" lon="4.72603">
        <ele>232.057134</ele>
        <time>2021-09-12T08:06:16.000Z</time>
      </trkpt>
      <trkpt lat="46.33869" lon="4.72638">
        <ele>232.578634</ele>
        <time>2021-09-12T08:06:24.000Z</time>
      </trkpt>
      <trkpt lat="46.33822" lon="4.72678">
        <ele>232.30177</ele>
        <time>2021-09-12T08:06:32.000Z</time>
      </trkpt>
      <trkpt lat="46.3378" lon="4.72716">
        <ele>232.051045</ele>
        <time>2021-09-12T08:06:39.000Z</time>
      </trkpt>
      <trkpt lat="46.33744" lon="4.72755">
        <ele>231.819575</ele>
        <time>2021-09-12T08:06:45.000Z</time>
      </trkpt>
      <trkpt lat="46.33719" lon="4.72787">
        <ele>231.542447</ele>
        <time>2021-09-12T08:06:50.000Z</time>
      </trkpt>
      <trkpt lat="46.33712" lon="4.72795">
        <ele>231.405632</ele>
        <time>2021-09-12T08:06:52.000Z</time>
      </trkpt>
      <trkpt lat="46.33693" lon="4.7282">
        <ele>231.0032</ele>
        <time>2021-09-12T08:06:53.000Z</time>
      </trkpt>
      <trkpt lat="46.33641" lon="4.7289">
        <ele>229.880673</ele>
        <time>2021-09-12T08:07:01.000Z</time>
      </trkpt>
      <trkpt lat="46.33635" lon="4.72899">
        <ele>229.742819</ele>
        <time>2021-09-12T08:07:02.000Z</time>
      </trkpt>
      <trkpt lat="46.3359" lon="4.72959">
        <ele>228.783456</ele>
        <time>2021-09-12T08:07:09.000Z</time>
      </trkpt>
      <trkpt lat="46.33563" lon="4.72996">
        <ele>228.161255</ele>
        <time>2021-09-12T08:07:15.000Z</time>
      </trkpt>
      <trkpt lat="46.33532" lon="4.73039">
        <ele>227.45379</ele>
        <time>2021-09-12T08:07:20.000Z</time>
      </trkpt>
      <trkpt lat="46.33507" lon="4.73076">
        <ele>226.870248</ele>
        <time>2021-09-12T08:07:26.000Z</time>
      </trkpt>
      <trkpt lat="46.33471" lon="4.73136">
        <ele>225.955528</ele>
        <time>2021-09-12T08:07:33.000Z</time>
      </trkpt>
      <trkpt lat="46.33446" lon="4.73202">
        <ele>225.214763</ele>
        <time>2021-09-12T08:07:40.000Z</time>
      </trkpt>
      <trkpt lat="46.33425" lon="4.73261">
        <ele>224.555983</ele>
        <time>2021-09-12T08:07:47.000Z</time>
      </trkpt>
      <trkpt lat="46.33403" lon="4.73333">
        <ele>223.784185</ele>
        <time>2021-09-12T08:07:53.000Z</time>
      </trkpt>
      <trkpt lat="46.33397" lon="4.73354">
        <ele>223.567764</ele>
        <time>2021-09-12T08:07:56.000Z</time>
      </trkpt>
      <trkpt lat="46.33377" lon="4.73424">
        <ele>222.909352</ele>
        <time>2021-09-12T08:08:02.000Z</time>
      </trkpt>
      <trkpt lat="46.33355" lon="4.73501">
        <ele>222.226832</ele>
        <time>2021-09-12T08:08:10.000Z</time>
      </trkpt>
      <trkpt lat="46.33337" lon="4.73564">
        <ele>221.670625</ele>
        <time>2021-09-12T08:08:18.000Z</time>
      </trkpt>
      <trkpt lat="46.33316" lon="4.73616">
        <ele>221.187756</ele>
        <time>2021-09-12T08:08:24.000Z</time>
      </trkpt>
      <trkpt lat="46.33312" lon="4.73622">
        <ele>221.129578</ele>
        <time>2021-09-12T08:08:27.000Z</time>
      </trkpt>
      <trkpt lat="46.333" lon="4.73631">
        <ele>221.002708</ele>
        <time>2021-09-12T08:08:31.000Z</time>
      </trkpt>
      <trkpt lat="46.3329" lon="4.73646">
        <ele>220.864447</ele>
        <time>2021-09-12T08:08:33.000Z</time>
      </trkpt>
      <trkpt lat="46.33291" lon="4.73655">
        <ele>220.808208</ele>
        <time>2021-09-12T08:08:34.000Z</time>
      </trkpt>
      <trkpt lat="46.33291" lon="4.73655">
        <ele>220.808208</ele>
        <time>2021-09-12T08:08:35.000Z</time>
      </trkpt>
      <trkpt lat="46.333" lon="4.7368">
        <ele>220.620501</ele>
        <time>2021-09-12T08:08:37.000Z</time>
      </trkpt>
      <trkpt lat="46.33299" lon="4.73688">
        <ele>220.567383</ele>
        <time>2021-09-12T08:08:38.000Z</time>
      </trkpt>
      <trkpt lat="46.3329" lon="4.7374">
        <ele>220.208469</ele>
        <time>2021-09-12T08:08:44.000Z</time>
      </trkpt>
      <trkpt lat="46.33273" lon="4.73816">
        <ele>219.679941</ele>
        <time>2021-09-12T08:08:52.000Z</time>
      </trkpt>
      <trkpt lat="46.33254" lon="4.73895">
        <ele>219.135009</ele>
        <time>2021-09-12T08:09:00.000Z</time>
      </trkpt>
      <trkpt lat="46.33234" lon="4.73974">
        <ele>218.590834</ele>
        <time>2021-09-12T08:09:08.000Z</time>
      </trkpt>
      <trkpt lat="46.33226" lon="4.74005">
        <ele>218.381981</ele>
        <time>2021-09-12T08:09:11.000Z</time>
      </trkpt>
      <trkpt lat="46.33208" lon="4.74079">
        <ele>217.87398</ele>
        <time>2021-09-12T08:09:18.000Z</time>
      </trkpt>
      <trkpt lat="46.33203" lon="4.74101">
        <ele>217.724954</ele>
        <time>2021-09-12T08:09:20.000Z</time>
      </trkpt>
      <trkpt lat="46.33185" lon="4.74177">
        <ele>217.197953</ele>
        <time>2021-09-12T08:09:27.000Z</time>
      </trkpt>
      <trkpt lat="46.3318" lon="4.74198">
        <ele>217.050257</ele>
        <time>2021-09-12T08:09:29.000Z</time>
      </trkpt>
      <trkpt lat="46.33166" lon="4.74256">
        <ele>216.649583</ele>
        <time>2021-09-12T08:09:35.000Z</time>
      </trkpt>
      <trkpt lat="46.3316" lon="4.74273">
        <ele>216.522749</ele>
        <time>2021-09-12T08:09:38.000Z</time>
      </trkpt>
      <trkpt lat="46.33149" lon="4.74297">
        <ele>216.335673</ele>
        <time>2021-09-12T08:09:40.000Z</time>
      </trkpt>
      <trkpt lat="46.33142" lon="4.74313">
        <ele>216.21162</ele>
        <time>2021-09-12T08:09:42.000Z</time>
      </trkpt>
      <trkpt lat="46.33136" lon="4.74328">
        <ele>216.101875</ele>
        <time>2021-09-12T08:09:44.000Z</time>
      </trkpt>
      <trkpt lat="46.33124" lon="4.74327">
        <ele>216.049548</ele>
        <time>2021-09-12T08:09:46.000Z</time>
      </trkpt>
      <trkpt lat="46.33113" lon="4.74342">
        <ele>215.985083</ele>
        <time>2021-09-12T08:09:48.000Z</time>
      </trkpt>
      <trkpt lat="46.33115" lon="4.74363">
        <ele>215.925726</ele>
        <time>2021-09-12T08:09:50.000Z</time>
      </trkpt>
      <trkpt lat="46.33119" lon="4.74369">
        <ele>215.900028</ele>
        <time>2021-09-12T08:09:52.000Z</time>
      </trkpt>
      <trkpt lat="46.3313" lon="4.74406">
        <ele>215.78384</ele>
        <time>2021-09-12T08:09:54.000Z</time>
      </trkpt>
      <trkpt lat="46.33127" lon="4.74425">
        <ele>215.729894</ele>
        <time>2021-09-12T08:09:56.000Z</time>
      </trkpt>
      <trkpt lat="46.33116" lon="4.74468">
        <ele>215.598369</ele>
        <time>2021-09-12T08:10:01.000Z</time>
      </trkpt>
      <trkpt lat="46.33098" lon="4.74544">
        <ele>215.367145</ele>
        <time>2021-09-12T08:10:10.000Z</time>
      </trkpt>
      <trkpt lat="46.33094" lon="4.7456">
        <ele>215.429802</ele>
        <time>2021-09-12T08:10:12.000Z</time>
      </trkpt>
      <trkpt lat="46.33078" lon="4.74627">
        <ele>215.842445</ele>
        <time>2021-09-12T08:10:21.000Z</time>
      </trkpt>
      <trkpt lat="46.33062" lon="4.74693">
        <ele>216.247696</ele>
        <time>2021-09-12T08:10:31.000Z</time>
      </trkpt>
      <trkpt lat="46.33051" lon="4.74742">
        <ele>216.545886</ele>
        <time>2021-09-12T08:10:40.000Z</time>
      </trkpt>
      <trkpt lat="46.33043" lon="4.74773">
        <ele>216.739204</ele>
        <time>2021-09-12T08:10:47.000Z</time>
      </trkpt>
      <trkpt lat="46.33035" lon="4.74802">
        <ele>216.961388</ele>
        <time>2021-09-12T08:10:54.000Z</time>
      </trkpt>
      <trkpt lat="46.33024" lon="4.74847">
        <ele>217.441067</ele>
        <time>2021-09-12T08:11:04.000Z</time>
      </trkpt>
      <trkpt lat="46.33014" lon="4.74886">
        <ele>217.856209</ele>
        <time>2021-09-12T08:11:12.000Z</time>
      </trkpt>
      <trkpt lat="46.33001" lon="4.74931">
        <ele>218.342248</ele>
        <time>2021-09-12T08:11:21.000Z</time>
      </trkpt>
      <trkpt lat="46.32989" lon="4.74966">
        <ele>218.738582</ele>
        <time>2021-09-12T08:11:27.000Z</time>
      </trkpt>
      <trkpt lat="46.32972" lon="4.7501">
        <ele>219.243653</ele>
        <time>2021-09-12T08:11:33.000Z</time>
      </trkpt>
      <trkpt lat="46.32953" lon="4.7506">
        <ele>219.517814</ele>
        <time>2021-09-12T08:11:39.000Z</time>
      </trkpt>
      <trkpt lat="46.32929" lon="4.75121">
        <ele>219.599735</ele>
        <time>2021-09-12T08:11:46.000Z</time>
      </trkpt>
      <trkpt lat="46.32902" lon="4.7519">
        <ele>219.693835</ele>
        <time>2021-09-12T08:11:54.000Z</time>
      </trkpt>
      <trkpt lat="46.32891" lon="4.75217">
        <ele>219.729916</ele>
        <time>2021-09-12T08:11:57.000Z</time>
      </trkpt>
      <trkpt lat="46.32864" lon="4.75286">
        <ele>220.116466</ele>
        <time>2021-09-12T08:12:05.000Z</time>
      </trkpt>
      <trkpt lat="46.32861" lon="4.75294">
        <ele>220.20808</ele>
        <time>2021-09-12T08:12:06.000Z</time>
      </trkpt>
      <trkpt lat="46.32844" lon="4.75338">
        <ele>220.705812</ele>
        <time>2021-09-12T08:12:12.000Z</time>
      </trkpt>
      <trkpt lat="46.3283" lon="4.75373">
        <ele>221.109349</ele>
        <time>2021-09-12T08:12:18.000Z</time>
      </trkpt>
      <trkpt lat="46.32815" lon="4.7541">
        <ele>221.525049</ele>
        <time>2021-09-12T08:12:26.000Z</time>
      </trkpt>
      <trkpt lat="46.32803" lon="4.75441">
        <ele>221.884352</ele>
        <time>2021-09-12T08:12:34.000Z</time>
      </trkpt>
      <trkpt lat="46.32789" lon="4.75476">
        <ele>222.284597</ele>
        <time>2021-09-12T08:12:43.000Z</time>
      </trkpt>
      <trkpt lat="46.32774" lon="4.75515">
        <ele>223.196343</ele>
        <time>2021-09-12T08:12:53.000Z</time>
      </trkpt>
      <trkpt lat="46.32762" lon="4.75546">
        <ele>224.007016</ele>
        <time>2021-09-12T08:13:01.000Z</time>
      </trkpt>
      <trkpt lat="46.3275" lon="4.75576">
        <ele>224.808122</ele>
        <time>2021-09-12T08:13:09.000Z</time>
      </trkpt>
      <trkpt lat="46.32733" lon="4.75618">
        <ele>225.910884</ele>
        <time>2021-09-12T08:13:19.000Z</time>
      </trkpt>
      <trkpt lat="46.32719" lon="4.75655">
        <ele>226.872215</ele>
        <time>2021-09-12T08:13:28.000Z</time>
      </trkpt>
      <trkpt lat="46.32701" lon="4.757">
        <ele>228.064646</ele>
        <time>2021-09-12T08:13:39.000Z</time>
      </trkpt>
      <trkpt lat="46.32684" lon="4.75742">
        <ele>228.946489</ele>
        <time>2021-09-12T08:13:49.000Z</time>
      </trkpt>
      <trkpt lat="46.32666" lon="4.75786">
        <ele>229.823544</ele>
        <time>2021-09-12T08:13:59.000Z</time>
      </trkpt>
      <trkpt lat="46.32647" lon="4.75832">
        <ele>230.726323</ele>
        <time>2021-09-12T08:14:08.000Z</time>
      </trkpt>
      <trkpt lat="46.32625" lon="4.75885">
        <ele>231.78248</ele>
        <time>2021-09-12T08:14:17.000Z</time>
      </trkpt>
      <trkpt lat="46.32602" lon="4.75942">
        <ele>232.743938</ele>
        <time>2021-09-12T08:14:26.000Z</time>
      </trkpt>
      <trkpt lat="46.32581" lon="4.75996">
        <ele>232.758877</ele>
        <time>2021-09-12T08:14:34.000Z</time>
      </trkpt>
      <trkpt lat="46.32561" lon="4.76044">
        <ele>232.772293</ele>
        <time>2021-09-12T08:14:40.000Z</time>
      </trkpt>
      <trkpt lat="46.32536" lon="4.76103">
        <ele>232.78857</ele>
        <time>2021-09-12T08:14:46.000Z</time>
      </trkpt>
      <trkpt lat="46.32504" lon="4.76179">
        <ele>232.517977</ele>
        <time>2021-09-12T08:14:53.000Z</time>
      </trkpt>
      <trkpt lat="46.32499" lon="4.7619">
        <ele>232.370334</ele>
        <time>2021-09-12T08:14:54.000Z</time>
      </trkpt>
      <trkpt lat="46.32466" lon="4.76254">
        <ele>231.467562</ele>
        <time>2021-09-12T08:15:00.000Z</time>
      </trkpt>
      <trkpt lat="46.32449" lon="4.76286">
        <ele>231.012369</ele>
        <time>2021-09-12T08:15:03.000Z</time>
      </trkpt>
      <trkpt lat="46.32414" lon="4.76354">
        <ele>230.049075</ele>
        <time>2021-09-12T08:15:09.000Z</time>
      </trkpt>
      <trkpt lat="46.32395" lon="4.7639">
        <ele>229.471937</ele>
        <time>2021-09-12T08:15:12.000Z</time>
      </trkpt>
      <trkpt lat="46.32357" lon="4.76465">
        <ele>228.195374</ele>
        <time>2021-09-12T08:15:18.000Z</time>
      </trkpt>
      <trkpt lat="46.32344" lon="4.76488">
        <ele>227.785002</ele>
        <time>2021-09-12T08:15:20.000Z</time>
      </trkpt>
      <trkpt lat="46.32308" lon="4.76555">
        <ele>226.62332</ele>
        <time>2021-09-12T08:15:26.000Z</time>
      </trkpt>
      <trkpt lat="46.32275" lon="4.76618">
        <ele>225.762528</ele>
        <time>2021-09-12T08:15:32.000Z</time>
      </trkpt>
      <trkpt lat="46.32259" lon="4.76648">
        <ele>225.396251</ele>
        <time>2021-09-12T08:15:35.000Z</time>
      </trkpt>
      <trkpt lat="46.32225" lon="4.76712">
        <ele>224.601046</ele>
        <time>2021-09-12T08:15:42.000Z</time>
      </trkpt>
      <trkpt lat="46.32201" lon="4.76758">
        <ele>224.035557</ele>
        <time>2021-09-12T08:15:48.000Z</time>
      </trkpt>
      <trkpt lat="46.3219" lon="4.76778">
        <ele>223.784646</ele>
        <time>2021-09-12T08:15:51.000Z</time>
      </trkpt>
      <trkpt lat="46.32183" lon="4.7679">
        <ele>223.843569</ele>
        <time>2021-09-12T08:15:53.000Z</time>
      </trkpt>
      <trkpt lat="46.32162" lon="4.76828">
        <ele>224.190165</ele>
        <time>2021-09-12T08:16:00.000Z</time>
      </trkpt>
      <trkpt lat="46.32141" lon="4.76867">
        <ele>224.550444</ele>
        <time>2021-09-12T08:16:09.000Z</time>
      </trkpt>
      <trkpt lat="46.32129" lon="4.76889">
        <ele>224.756491</ele>
        <time>2021-09-12T08:16:16.000Z</time>
      </trkpt>
      <trkpt lat="46.32118" lon="4.76909">
        <ele>224.935177</ele>
        <time>2021-09-12T08:16:22.000Z</time>
      </trkpt>
      <trkpt lat="46.32101" lon="4.76939">
        <ele>225.215062</ele>
        <time>2021-09-12T08:16:31.000Z</time>
      </trkpt>
      <trkpt lat="46.32079" lon="4.76978">
        <ele>225.57834</ele>
        <time>2021-09-12T08:16:42.000Z</time>
      </trkpt>
      <trkpt lat="46.32058" lon="4.77017">
        <ele>226.096312</ele>
        <time>2021-09-12T08:16:52.000Z</time>
      </trkpt>
      <trkpt lat="46.32038" lon="4.77054">
        <ele>226.605672</ele>
        <time>2021-09-12T08:17:01.000Z</time>
      </trkpt>
      <trkpt lat="46.3201" lon="4.77104">
        <ele>227.309399</ele>
        <time>2021-09-12T08:17:12.000Z</time>
      </trkpt>
      <trkpt lat="46.31986" lon="4.77148">
        <ele>227.930115</ele>
        <time>2021-09-12T08:17:21.000Z</time>
      </trkpt>
      <trkpt lat="46.31971" lon="4.77177">
        <ele>228.323467</ele>
        <time>2021-09-12T08:17:27.000Z</time>
      </trkpt>
      <trkpt lat="46.31953" lon="4.7721">
        <ele>228.685385</ele>
        <time>2021-09-12T08:17:34.000Z</time>
      </trkpt>
      <trkpt lat="46.31922" lon="4.77267">
        <ele>229.199196</ele>
        <time>2021-09-12T08:17:45.000Z</time>
      </trkpt>
      <trkpt lat="46.31898" lon="4.77312">
        <ele>229.609497</ele>
        <time>2021-09-12T08:17:53.000Z</time>
      </trkpt>
      <trkpt lat="46.3187" lon="4.77365">
        <ele>230.092047</ele>
        <time>2021-09-12T08:18:02.000Z</time>
      </trkpt>
      <trkpt lat="46.31841" lon="4.77418">
        <ele>230.471459</ele>
        <time>2021-09-12T08:18:11.000Z</time>
      </trkpt>
      <trkpt lat="46.31814" lon="4.77468">
        <ele>230.713627</ele>
        <time>2021-09-12T08:18:19.000Z</time>
      </trkpt>
      <trkpt lat="46.31782" lon="4.77528">
        <ele>231.006414</ele>
        <time>2021-09-12T08:18:27.000Z</time>
      </trkpt>
      <trkpt lat="46.31749" lon="4.77588">
        <ele>231.297018</ele>
        <time>2021-09-12T08:18:35.000Z</time>
      </trkpt>
      <trkpt lat="46.31718" lon="4.77645">
        <ele>232.034492</ele>
        <time>2021-09-12T08:18:44.000Z</time>
      </trkpt>
      <trkpt lat="46.31694" lon="4.77691">
        <ele>232.713456</ele>
        <time>2021-09-12T08:18:52.000Z</time>
      </trkpt>
      <trkpt lat="46.31674" lon="4.77728">
        <ele>233.265034</ele>
        <time>2021-09-12T08:19:00.000Z</time>
      </trkpt>
      <trkpt lat="46.31652" lon="4.77767">
        <ele>233.849533</ele>
        <time>2021-09-12T08:19:09.000Z</time>
      </trkpt>
      <trkpt lat="46.31624" lon="4.77821">
        <ele>234.742422</ele>
        <time>2021-09-12T08:19:21.000Z</time>
      </trkpt>
      <trkpt lat="46.31599" lon="4.77866">
        <ele>235.7073</ele>
        <time>2021-09-12T08:19:31.000Z</time>
      </trkpt>
      <trkpt lat="46.31578" lon="4.77906">
        <ele>236.566757</ele>
        <time>2021-09-12T08:19:40.000Z</time>
      </trkpt>
      <trkpt lat="46.3155" lon="4.77958">
        <ele>237.678563</ele>
        <time>2021-09-12T08:19:52.000Z</time>
      </trkpt>
      <trkpt lat="46.31535" lon="4.77986">
        <ele>238.271903</ele>
        <time>2021-09-12T08:19:59.000Z</time>
      </trkpt>
      <trkpt lat="46.31516" lon="4.7802">
        <ele>239.203678</ele>
        <time>2021-09-12T08:20:08.000Z</time>
      </trkpt>
      <trkpt lat="46.31504" lon="4.78042">
        <ele>240.124448</ele>
        <time>2021-09-12T08:20:15.000Z</time>
      </trkpt>
      <trkpt lat="46.3149" lon="4.78069">
        <ele>241.237548</ele>
        <time>2021-09-12T08:20:24.000Z</time>
      </trkpt>
      <trkpt lat="46.3148" lon="4.78087">
        <ele>242.00394</ele>
        <time>2021-09-12T08:20:30.000Z</time>
      </trkpt>
      <trkpt lat="46.31466" lon="4.78112">
        <ele>243.06288</ele>
        <time>2021-09-12T08:20:39.000Z</time>
      </trkpt>
      <trkpt lat="46.31452" lon="4.7814">
        <ele>244.19709</ele>
        <time>2021-09-12T08:20:49.000Z</time>
      </trkpt>
      <trkpt lat="46.31438" lon="4.78167">
        <ele>245.314567</ele>
        <time>2021-09-12T08:20:57.000Z</time>
      </trkpt>
      <trkpt lat="46.31426" lon="4.78191">
        <ele>246.283179</ele>
        <time>2021-09-12T08:21:05.000Z</time>
      </trkpt>
      <trkpt lat="46.31412" lon="4.78218">
        <ele>247.386055</ele>
        <time>2021-09-12T08:21:14.000Z</time>
      </trkpt>
      <trkpt lat="46.31399" lon="4.78246">
        <ele>248.430326</ele>
        <time>2021-09-12T08:21:24.000Z</time>
      </trkpt>
      <trkpt lat="46.31382" lon="4.78286">
        <ele>249.865588</ele>
        <time>2021-09-12T08:21:35.000Z</time>
      </trkpt>
      <trkpt lat="46.31372" lon="4.78317">
        <ele>250.911311</ele>
        <time>2021-09-12T08:21:43.000Z</time>
      </trkpt>
      <trkpt lat="46.31365" lon="4.78336">
        <ele>251.574617</ele>
        <time>2021-09-12T08:21:49.000Z</time>
      </trkpt>
      <trkpt lat="46.3135" lon="4.78379">
        <ele>253.056643</ele>
        <time>2021-09-12T08:21:59.000Z</time>
      </trkpt>
      <trkpt lat="46.3134" lon="4.78408">
        <ele>254.036263</ele>
        <time>2021-09-12T08:22:07.000Z</time>
      </trkpt>
      <trkpt lat="46.31329" lon="4.7844">
        <ele>255.151593</ele>
        <time>2021-09-12T08:22:17.000Z</time>
      </trkpt>
      <trkpt lat="46.31319" lon="4.78469">
        <ele>255.658442</ele>
        <time>2021-09-12T08:22:23.000Z</time>
      </trkpt>
      <trkpt lat="46.31309" lon="4.78498">
        <ele>256.078294</ele>
        <time>2021-09-12T08:22:29.000Z</time>
      </trkpt>
      <trkpt lat="46.313" lon="4.78525">
        <ele>256.45054</ele>
        <time>2021-09-12T08:22:34.000Z</time>
      </trkpt>
      <trkpt lat="46.31296" lon="4.78536">
        <ele>256.607661</ele>
        <time>2021-09-12T08:22:36.000Z</time>
      </trkpt>
      <trkpt lat="46.31292" lon="4.78547">
        <ele>256.772094</ele>
        <time>2021-09-12T08:22:39.000Z</time>
      </trkpt>
      <trkpt lat="46.31288" lon="4.78561">
        <ele>256.964149</ele>
        <time>2021-09-12T08:22:41.000Z</time>
      </trkpt>
      <trkpt lat="46.31276" lon="4.78559">
        <ele>257.176405</ele>
        <time>2021-09-12T08:22:43.000Z</time>
      </trkpt>
      <trkpt lat="46.31266" lon="4.78576">
        <ele>257.456717</ele>
        <time>2021-09-12T08:22:45.000Z</time>
      </trkpt>
      <trkpt lat="46.31268" lon="4.78588">
        <ele>257.611729</ele>
        <time>2021-09-12T08:22:47.000Z</time>
      </trkpt>
      <trkpt lat="46.3127" lon="4.78609">
        <ele>257.882626</ele>
        <time>2021-09-12T08:22:49.000Z</time>
      </trkpt>
      <trkpt lat="46.3126" lon="4.78634">
        <ele>258.252516</ele>
        <time>2021-09-12T08:22:53.000Z</time>
      </trkpt>
      <trkpt lat="46.31257" lon="4.78641">
        <ele>258.356207</ele>
        <time>2021-09-12T08:22:55.000Z</time>
      </trkpt>
      <trkpt lat="46.31246" lon="4.78669">
        <ele>258.635132</ele>
        <time>2021-09-12T08:22:58.000Z</time>
      </trkpt>
      <trkpt lat="46.31229" lon="4.78712">
        <ele>258.645567</ele>
        <time>2021-09-12T08:23:05.000Z</time>
      </trkpt>
      <trkpt lat="46.31216" lon="4.78751">
        <ele>258.654646</ele>
        <time>2021-09-12T08:23:12.000Z</time>
      </trkpt>
      <trkpt lat="46.31196" lon="4.78817">
        <ele>258.670026</ele>
        <time>2021-09-12T08:23:19.000Z</time>
      </trkpt>
      <trkpt lat="46.31184" lon="4.78853">
        <ele>258.678403</ele>
        <time>2021-09-12T08:23:23.000Z</time>
      </trkpt>
      <trkpt lat="46.31168" lon="4.78904">
        <ele>258.557334</ele>
        <time>2021-09-12T08:23:29.000Z</time>
      </trkpt>
      <trkpt lat="46.31142" lon="4.78982">
        <ele>257.48964</ele>
        <time>2021-09-12T08:23:35.000Z</time>
      </trkpt>
      <trkpt lat="46.31119" lon="4.79055">
        <ele>256.498855</ele>
        <time>2021-09-12T08:23:41.000Z</time>
      </trkpt>
      <trkpt lat="46.31119" lon="4.79055">
        <ele>256.498855</ele>
        <time>2021-09-12T08:23:42.000Z</time>
      </trkpt>
      <trkpt lat="46.31091" lon="4.79139">
        <ele>255.340081</ele>
        <time>2021-09-12T08:23:48.000Z</time>
      </trkpt>
      <trkpt lat="46.31083" lon="4.79162">
        <ele>254.999724</ele>
        <time>2021-09-12T08:23:51.000Z</time>
      </trkpt>
      <trkpt lat="46.31058" lon="4.79238">
        <ele>253.871511</ele>
        <time>2021-09-12T08:23:57.000Z</time>
      </trkpt>
      <trkpt lat="46.31051" lon="4.79258">
        <ele>253.575831</ele>
        <time>2021-09-12T08:23:59.000Z</time>
      </trkpt>
      <trkpt lat="46.31031" lon="4.79322">
        <ele>252.636145</ele>
        <time>2021-09-12T08:24:06.000Z</time>
      </trkpt>
      <trkpt lat="46.31009" lon="4.79396">
        <ele>251.389269</ele>
        <time>2021-09-12T08:24:14.000Z</time>
      </trkpt>
      <trkpt lat="46.30993" lon="4.79463">
        <ele>250.090522</ele>
        <time>2021-09-12T08:24:20.000Z</time>
      </trkpt>
      <trkpt lat="46.30976" lon="4.79544">
        <ele>248.537151</ele>
        <time>2021-09-12T08:24:27.000Z</time>
      </trkpt>
      <trkpt lat="46.30971" lon="4.79567">
        <ele>248.094639</ele>
        <time>2021-09-12T08:24:29.000Z</time>
      </trkpt>
      <trkpt lat="46.30952" lon="4.79653">
        <ele>246.335206</ele>
        <time>2021-09-12T08:24:37.000Z</time>
      </trkpt>
      <trkpt lat="46.30938" lon="4.79729">
        <ele>244.674236</ele>
        <time>2021-09-12T08:24:42.000Z</time>
      </trkpt>
      <trkpt lat="46.30934" lon="4.79755">
        <ele>244.110113</ele>
        <time>2021-09-12T08:24:45.000Z</time>
      </trkpt>
      <trkpt lat="46.30922" lon="4.7985">
        <ele>242.091448</ele>
        <time>2021-09-12T08:24:51.000Z</time>
      </trkpt>
      <trkpt lat="46.30919" lon="4.79877">
        <ele>241.491608</ele>
        <time>2021-09-12T08:24:53.000Z</time>
      </trkpt>
      <trkpt lat="46.30915" lon="4.79955">
        <ele>239.632843</ele>
        <time>2021-09-12T08:24:59.000Z</time>
      </trkpt>
      <trkpt lat="46.30924" lon="4.80016">
        <ele>238.160051</ele>
        <time>2021-09-12T08:25:04.000Z</time>
      </trkpt>
      <trkpt lat="46.30934" lon="4.8008">
        <ele>236.611642</ele>
        <time>2021-09-12T08:25:10.000Z</time>
      </trkpt>
      <trkpt lat="46.30934" lon="4.8008">
        <ele>236.611642</ele>
        <time>2021-09-12T08:25:11.000Z</time>
      </trkpt>
      <trkpt lat="46.30931" lon="4.80106">
        <ele>235.989051</ele>
        <time>2021-09-12T08:25:13.000Z</time>
      </trkpt>
      <trkpt lat="46.30926" lon="4.80119">
        <ele>235.649886</ele>
        <time>2021-09-12T08:25:14.000Z</time>
      </trkpt>
      <trkpt lat="46.30927" lon="4.8013">
        <ele>235.400957</ele>
        <time>2021-09-12T08:25:15.000Z</time>
      </trkpt>
      <trkpt lat="46.30936" lon="4.80142">
        <ele>235.02422</ele>
        <time>2021-09-12T08:25:17.000Z</time>
      </trkpt>
      <trkpt lat="46.30948" lon="4.8016">
        <ele>234.460543</ele>
        <time>2021-09-12T08:25:19.000Z</time>
      </trkpt>
      <trkpt lat="46.30948" lon="4.8016">
        <ele>234.460543</ele>
        <time>2021-09-12T08:25:20.000Z</time>
      </trkpt>
      <trkpt lat="46.30949" lon="4.8018">
        <ele>234.033507</ele>
        <time>2021-09-12T08:25:21.000Z</time>
      </trkpt>
      <trkpt lat="46.30949" lon="4.80189">
        <ele>233.824474</ele>
        <time>2021-09-12T08:25:23.000Z</time>
      </trkpt>
      <trkpt lat="46.30942" lon="4.80247">
        <ele>232.529666</ele>
        <time>2021-09-12T08:25:29.000Z</time>
      </trkpt>
      <trkpt lat="46.30931" lon="4.80332">
        <ele>230.650565</ele>
        <time>2021-09-12T08:25:37.000Z</time>
      </trkpt>
      <trkpt lat="46.30931" lon="4.80332">
        <ele>230.650565</ele>
        <time>2021-09-12T08:25:38.000Z</time>
      </trkpt>
      <trkpt lat="46.30925" lon="4.80385">
        <ele>229.526134</ele>
        <time>2021-09-12T08:25:43.000Z</time>
      </trkpt>
      <trkpt lat="46.30918" lon="4.8044">
        <ele>228.521716</ele>
        <time>2021-09-12T08:25:49.000Z</time>
      </trkpt>
      <trkpt lat="46.3091" lon="4.8051">
        <ele>227.231278</ele>
        <time>2021-09-12T08:25:57.000Z</time>
      </trkpt>
      <trkpt lat="46.30906" lon="4.80541">
        <ele>226.639892</ele>
        <time>2021-09-12T08:26:01.000Z</time>
      </trkpt>
      <trkpt lat="46.30901" lon="4.80555">
        <ele>226.355468</ele>
        <time>2021-09-12T08:26:03.000Z</time>
      </trkpt>
      <trkpt lat="46.30899" lon="4.80562">
        <ele>226.214666</ele>
        <time>2021-09-12T08:26:05.000Z</time>
      </trkpt>
      <trkpt lat="46.30896" lon="4.80591">
        <ele>225.680203</ele>
        <time>2021-09-12T08:26:08.000Z</time>
      </trkpt>
      <trkpt lat="46.30896" lon="4.80631">
        <ele>225.010396</ele>
        <time>2021-09-12T08:26:15.000Z</time>
      </trkpt>
      <trkpt lat="46.30892" lon="4.80662">
        <ele>224.59009</ele>
        <time>2021-09-12T08:26:19.000Z</time>
      </trkpt>
      <trkpt lat="46.30891" lon="4.80669">
        <ele>224.499143</ele>
        <time>2021-09-12T08:26:21.000Z</time>
      </trkpt>
      <trkpt lat="46.30886" lon="4.8071">
        <ele>223.958332</ele>
        <time>2021-09-12T08:26:26.000Z</time>
      </trkpt>
      <trkpt lat="46.30885" lon="4.80723">
        <ele>223.784231</ele>
        <time>2021-09-12T08:26:28.000Z</time>
      </trkpt>
      <trkpt lat="46.30879" lon="4.8077">
        <ele>223.145649</ele>
        <time>2021-09-12T08:26:35.000Z</time>
      </trkpt>
      <trkpt lat="46.30873" lon="4.8082">
        <ele>222.476501</ele>
        <time>2021-09-12T08:26:43.000Z</time>
      </trkpt>
      <trkpt lat="46.30868" lon="4.80869">
        <ele>221.827785</ele>
        <time>2021-09-12T08:26:50.000Z</time>
      </trkpt>
      <trkpt lat="46.30863" lon="4.80909">
        <ele>221.713629</ele>
        <time>2021-09-12T08:26:57.000Z</time>
      </trkpt>
      <trkpt lat="46.30859" lon="4.80948">
        <ele>221.713629</ele>
        <time>2021-09-12T08:27:03.000Z</time>
      </trkpt>
      <trkpt lat="46.30853" lon="4.80997">
        <ele>221.713629</ele>
        <time>2021-09-12T08:27:10.000Z</time>
      </trkpt>
      <trkpt lat="46.30848" lon="4.81039">
        <ele>221.713629</ele>
        <time>2021-09-12T08:27:17.000Z</time>
      </trkpt>
      <trkpt lat="46.30848" lon="4.81044">
        <ele>221.713629</ele>
        <time>2021-09-12T08:27:21.000Z</time>
      </trkpt>
      <trkpt lat="46.30847" lon="4.8105">
        <ele>221.713629</ele>
        <time>2021-09-12T08:27:38.000Z</time>
      </trkpt>
      <trkpt lat="46.30846" lon="4.81057">
        <ele>221.713629</ele>
        <time>2021-09-12T08:27:40.000Z</time>
      </trkpt>
      <trkpt lat="46.30843" lon="4.81077">
        <ele>221.713629</ele>
        <time>2021-09-12T08:27:45.000Z</time>
      </trkpt>
      <trkpt lat="46.30838" lon="4.81114">
        <ele>221.713629</ele>
        <time>2021-09-12T08:27:50.000Z</time>
      </trkpt>
      <trkpt lat="46.30836" lon="4.81125">
        <ele>221.713629</ele>
        <time>2021-09-12T08:27:52.000Z</time>
      </trkpt>
      <trkpt lat="46.30836" lon="4.81128">
        <ele>221.713629</ele>
        <time>2021-09-12T08:27:53.000Z</time>
      </trkpt>
      <trkpt lat="46.30834" lon="4.81138">
        <ele>221.713629</ele>
        <time>2021-09-12T08:28:16.000Z</time>
      </trkpt>
      <trkpt lat="46.30834" lon="4.81141">
        <ele>221.713629</ele>
        <time>2021-09-12T08:28:18.000Z</time>
      </trkpt>
      <trkpt lat="46.30829" lon="4.81178">
        <ele>221.713629</ele>
        <time>2021-09-12T08:28:25.000Z</time>
      </trkpt>
      <trkpt lat="46.30829" lon="4.81191">
        <ele>221.713629</ele>
        <time>2021-09-12T08:28:30.000Z</time>
      </trkpt>
      <trkpt lat="46.30829" lon="4.81196">
        <ele>221.713629</ele>
        <time>2021-09-12T08:28:33.000Z</time>
      </trkpt>
    </trkseg>
  </trk>
  <trk>
    <name><![CDATA[Étape 9 : Mâcon - Lyon]]></name>
    <extensions>
      <line xmlns="http://www.topografix.com/GPX/gpx_style/0/2">
        <color>008888</color>
        <width>4</width>
      </line>
    </extensions>
    <trkseg>
      <trkpt lat="46.33052" lon="4.84499">
        <ele>177.080072</ele>
        <time>2021-09-13T06:06:03.000Z</time>
      </trkpt>
      <trkpt lat="46.33058" lon="4.84468">
        <ele>177.080072</ele>
        <time>2021-09-13T06:06:08.000Z</time>
      </trkpt>
      <trkpt lat="46.33063" lon="4.84441">
        <ele>177.080072</ele>
        <time>2021-09-13T06:06:13.000Z</time>
      </trkpt>
      <trkpt lat="46.3305" lon="4.84444">
        <ele>177.080072</ele>
        <time>2021-09-13T06:06:15.000Z</time>
      </trkpt>
      <trkpt lat="46.33049" lon="4.84442">
        <ele>177.080072</ele>
        <time>2021-09-13T06:06:16.000Z</time>
      </trkpt>
      <trkpt lat="46.33045" lon="4.84433">
        <ele>177.080072</ele>
        <time>2021-09-13T06:06:18.000Z</time>
      </trkpt>
      <trkpt lat="46.33036" lon="4.84417">
        <ele>177.080072</ele>
        <time>2021-09-13T06:06:22.000Z</time>
      </trkpt>
      <trkpt lat="46.33033" lon="4.8441">
        <ele>177.080072</ele>
        <time>2021-09-13T06:06:24.000Z</time>
      </trkpt>
      <trkpt lat="46.33034" lon="4.84411">
        <ele>177.080072</ele>
        <time>2021-09-13T06:06:25.000Z</time>
      </trkpt>
      <trkpt lat="46.33037" lon="4.844">
        <ele>177.093651</ele>
        <time>2021-09-13T06:06:29.000Z</time>
      </trkpt>
      <trkpt lat="46.3304" lon="4.84391">
        <ele>177.120561</ele>
        <time>2021-09-13T06:06:32.000Z</time>
      </trkpt>
      <trkpt lat="46.33041" lon="4.84386">
        <ele>177.138562</ele>
        <time>2021-09-13T06:06:34.000Z</time>
      </trkpt>
      <trkpt lat="46.33045" lon="4.84373">
        <ele>177.182463</ele>
        <time>2021-09-13T06:06:38.000Z</time>
      </trkpt>
      <trkpt lat="46.33048" lon="4.84365">
        <ele>177.20781</ele>
        <time>2021-09-13T06:06:40.000Z</time>
      </trkpt>
      <trkpt lat="46.3305" lon="4.84357">
        <ele>177.236741</ele>
        <time>2021-09-13T06:06:42.000Z</time>
      </trkpt>
      <trkpt lat="46.33076" lon="4.84358">
        <ele>177.350118</ele>
        <time>2021-09-13T06:06:47.000Z</time>
      </trkpt>
      <trkpt lat="46.33076" lon="4.84358">
        <ele>177.350118</ele>
        <time>2021-09-13T06:06:48.000Z</time>
      </trkpt>
      <trkpt lat="46.33067" lon="4.84333">
        <ele>177.434689</ele>
        <time>2021-09-13T06:06:52.000Z</time>
      </trkpt>
      <trkpt lat="46.33061" lon="4.84334">
        <ele>177.463402</ele>
        <time>2021-09-13T06:06:54.000Z</time>
      </trkpt>
      <trkpt lat="46.33038" lon="4.84326">
        <ele>177.565742</ele>
        <time>2021-09-13T06:06:59.000Z</time>
      </trkpt>
      <trkpt lat="46.33019" lon="4.84319">
        <ele>177.652711</ele>
        <time>2021-09-13T06:07:03.000Z</time>
      </trkpt>
      <trkpt lat="46.33014" lon="4.84318">
        <ele>177.673815</ele>
        <time>2021-09-13T06:07:05.000Z</time>
      </trkpt>
      <trkpt lat="46.32977" lon="4.84329">
        <ele>177.839805</ele>
        <time>2021-09-13T06:07:12.000Z</time>
      </trkpt>
      <trkpt lat="46.32943" lon="4.84339">
        <ele>177.950376</ele>
        <time>2021-09-13T06:07:18.000Z</time>
      </trkpt>
      <trkpt lat="46.32919" lon="4.84338">
        <ele>178.01999</ele>
        <time>2021-09-13T06:07:22.000Z</time>
      </trkpt>
      <trkpt lat="46.32908" lon="4.84335">
        <ele>178.053026</ele>
        <time>2021-09-13T06:07:24.000Z</time>
      </trkpt>
      <trkpt lat="46.32855" lon="4.84314">
        <ele>178.21375</ele>
        <time>2021-09-13T06:07:34.000Z</time>
      </trkpt>
      <trkpt lat="46.32843" lon="4.8431">
        <ele>178.248688</ele>
        <time>2021-09-13T06:07:36.000Z</time>
      </trkpt>
      <trkpt lat="46.32819" lon="4.843">
        <ele>178.321745</ele>
        <time>2021-09-13T06:07:40.000Z</time>
      </trkpt>
      <trkpt lat="46.32769" lon="4.84281">
        <ele>178.373543</ele>
        <time>2021-09-13T06:07:48.000Z</time>
      </trkpt>
      <trkpt lat="46.32718" lon="4.8426">
        <ele>178.338765</ele>
        <time>2021-09-13T06:07:56.000Z</time>
      </trkpt>
      <trkpt lat="46.32678" lon="4.84244">
        <ele>178.311677</ele>
        <time>2021-09-13T06:08:02.000Z</time>
      </trkpt>
      <trkpt lat="46.32672" lon="4.84241">
        <ele>178.307187</ele>
        <time>2021-09-13T06:08:03.000Z</time>
      </trkpt>
      <trkpt lat="46.32619" lon="4.84218">
        <ele>178.270251</ele>
        <time>2021-09-13T06:08:11.000Z</time>
      </trkpt>
      <trkpt lat="46.32566" lon="4.84198">
        <ele>178.220237</ele>
        <time>2021-09-13T06:08:18.000Z</time>
      </trkpt>
      <trkpt lat="46.32554" lon="4.84193">
        <ele>178.208119</ele>
        <time>2021-09-13T06:08:21.000Z</time>
      </trkpt>
      <trkpt lat="46.32502" lon="4.84175">
        <ele>178.159555</ele>
        <time>2021-09-13T06:08:29.000Z</time>
      </trkpt>
      <trkpt lat="46.32492" lon="4.84166">
        <ele>178.148866</ele>
        <time>2021-09-13T06:08:32.000Z</time>
      </trkpt>
      <trkpt lat="46.32488" lon="4.84151">
        <ele>178.138343</ele>
        <time>2021-09-13T06:08:36.000Z</time>
      </trkpt>
      <trkpt lat="46.32482" lon="4.84123">
        <ele>178.119698</ele>
        <time>2021-09-13T06:08:41.000Z</time>
      </trkpt>
      <trkpt lat="46.32474" lon="4.84115">
        <ele>178.111506</ele>
        <time>2021-09-13T06:08:42.000Z</time>
      </trkpt>
      <trkpt lat="46.32453" lon="4.84111">
        <ele>178.084507</ele>
        <time>2021-09-13T06:08:47.000Z</time>
      </trkpt>
      <trkpt lat="46.32422" lon="4.84098">
        <ele>178.043238</ele>
        <time>2021-09-13T06:08:53.000Z</time>
      </trkpt>
      <trkpt lat="46.32413" lon="4.84094">
        <ele>178.030484</ele>
        <time>2021-09-13T06:08:55.000Z</time>
      </trkpt>
      <trkpt lat="46.32401" lon="4.8409">
        <ele>178.015045</ele>
        <time>2021-09-13T06:08:57.000Z</time>
      </trkpt>
      <trkpt lat="46.32344" lon="4.84067">
        <ele>177.937826</ele>
        <time>2021-09-13T06:09:06.000Z</time>
      </trkpt>
      <trkpt lat="46.32293" lon="4.84046">
        <ele>177.872942</ele>
        <time>2021-09-13T06:09:14.000Z</time>
      </trkpt>
      <trkpt lat="46.32264" lon="4.84035">
        <ele>177.852387</ele>
        <time>2021-09-13T06:09:19.000Z</time>
      </trkpt>
      <trkpt lat="46.32232" lon="4.84022">
        <ele>177.830226</ele>
        <time>2021-09-13T06:09:25.000Z</time>
      </trkpt>
      <trkpt lat="46.322" lon="4.84009">
        <ele>177.808064</ele>
        <time>2021-09-13T06:09:32.000Z</time>
      </trkpt>
      <trkpt lat="46.32182" lon="4.84002">
        <ele>177.795986</ele>
        <time>2021-09-13T06:09:37.000Z</time>
      </trkpt>
      <trkpt lat="46.32143" lon="4.83986">
        <ele>177.76895</ele>
        <time>2021-09-13T06:09:44.000Z</time>
      </trkpt>
      <trkpt lat="46.32133" lon="4.83982">
        <ele>177.761386</ele>
        <time>2021-09-13T06:09:46.000Z</time>
      </trkpt>
      <trkpt lat="46.32116" lon="4.83976">
        <ele>177.750144</ele>
        <time>2021-09-13T06:09:49.000Z</time>
      </trkpt>
      <trkpt lat="46.32076" lon="4.83959">
        <ele>177.722013</ele>
        <time>2021-09-13T06:09:56.000Z</time>
      </trkpt>
      <trkpt lat="46.32034" lon="4.83943">
        <ele>177.693216</ele>
        <time>2021-09-13T06:10:03.000Z</time>
      </trkpt>
      <trkpt lat="46.32005" lon="4.83931">
        <ele>177.673133</ele>
        <time>2021-09-13T06:10:08.000Z</time>
      </trkpt>
      <trkpt lat="46.32" lon="4.83928">
        <ele>177.669244</ele>
        <time>2021-09-13T06:10:09.000Z</time>
      </trkpt>
      <trkpt lat="46.31994" lon="4.83926">
        <ele>177.665561</ele>
        <time>2021-09-13T06:10:10.000Z</time>
      </trkpt>
      <trkpt lat="46.31984" lon="4.83922">
        <ele>177.658542</ele>
        <time>2021-09-13T06:10:12.000Z</time>
      </trkpt>
      <trkpt lat="46.31961" lon="4.83912">
        <ele>177.642412</ele>
        <time>2021-09-13T06:10:16.000Z</time>
      </trkpt>
      <trkpt lat="46.31925" lon="4.83897">
        <ele>177.661026</ele>
        <time>2021-09-13T06:10:22.000Z</time>
      </trkpt>
      <trkpt lat="46.31914" lon="4.83892">
        <ele>177.672634</ele>
        <time>2021-09-13T06:10:24.000Z</time>
      </trkpt>
      <trkpt lat="46.31897" lon="4.83894">
        <ele>177.688404</ele>
        <time>2021-09-13T06:10:27.000Z</time>
      </trkpt>
      <trkpt lat="46.31893" lon="4.83895">
        <ele>177.692697</ele>
        <time>2021-09-13T06:10:28.000Z</time>
      </trkpt>
      <trkpt lat="46.31885" lon="4.83874">
        <ele>177.708098</ele>
        <time>2021-09-13T06:10:30.000Z</time>
      </trkpt>
      <trkpt lat="46.31884" lon="4.83874">
        <ele>177.709146</ele>
        <time>2021-09-13T06:10:31.000Z</time>
      </trkpt>
      <trkpt lat="46.31882" lon="4.83869">
        <ele>177.713372</ele>
        <time>2021-09-13T06:10:32.000Z</time>
      </trkpt>
      <trkpt lat="46.31877" lon="4.83859">
        <ele>177.721335</ele>
        <time>2021-09-13T06:10:34.000Z</time>
      </trkpt>
      <trkpt lat="46.31848" lon="4.83895">
        <ele>177.757366</ele>
        <time>2021-09-13T06:10:38.000Z</time>
      </trkpt>
      <trkpt lat="46.31806" lon="4.83894">
        <ele>177.797872</ele>
        <time>2021-09-13T06:10:45.000Z</time>
      </trkpt>
      <trkpt lat="46.31774" lon="4.83897">
        <ele>177.806482</ele>
        <time>2021-09-13T06:10:51.000Z</time>
      </trkpt>
      <trkpt lat="46.31731" lon="4.8391">
        <ele>177.805633</ele>
        <time>2021-09-13T06:10:57.000Z</time>
      </trkpt>
      <trkpt lat="46.31687" lon="4.83925">
        <ele>177.804763</ele>
        <time>2021-09-13T06:11:04.000Z</time>
      </trkpt>
      <trkpt lat="46.31653" lon="4.83943">
        <ele>177.804058</ele>
        <time>2021-09-13T06:11:10.000Z</time>
      </trkpt>
      <trkpt lat="46.31648" lon="4.83948">
        <ele>177.803943</ele>
        <time>2021-09-13T06:11:11.000Z</time>
      </trkpt>
      <trkpt lat="46.31635" lon="4.83965">
        <ele>177.803601</ele>
        <time>2021-09-13T06:11:14.000Z</time>
      </trkpt>
      <trkpt lat="46.31625" lon="4.83974">
        <ele>177.778867</ele>
        <time>2021-09-13T06:11:16.000Z</time>
      </trkpt>
      <trkpt lat="46.31613" lon="4.83966">
        <ele>177.662847</ele>
        <time>2021-09-13T06:11:18.000Z</time>
      </trkpt>
      <trkpt lat="46.31602" lon="4.83969">
        <ele>177.570643</ele>
        <time>2021-09-13T06:11:20.000Z</time>
      </trkpt>
      <trkpt lat="46.31597" lon="4.83971">
        <ele>177.523927</ele>
        <time>2021-09-13T06:11:21.000Z</time>
      </trkpt>
      <trkpt lat="46.31586" lon="4.83975">
        <ele>177.42992</ele>
        <time>2021-09-13T06:11:23.000Z</time>
      </trkpt>
      <trkpt lat="46.31581" lon="4.83976">
        <ele>177.388305</ele>
        <time>2021-09-13T06:11:24.000Z</time>
      </trkpt>
      <trkpt lat="46.3157" lon="4.83968">
        <ele>177.282936</ele>
        <time>2021-09-13T06:11:26.000Z</time>
      </trkpt>
      <trkpt lat="46.31561" lon="4.83972">
        <ele>177.200791</ele>
        <time>2021-09-13T06:11:28.000Z</time>
      </trkpt>
      <trkpt lat="46.31552" lon="4.83976">
        <ele>177.120461</ele>
        <time>2021-09-13T06:11:30.000Z</time>
      </trkpt>
      <trkpt lat="46.3154" lon="4.83982">
        <ele>177.011267</ele>
        <time>2021-09-13T06:11:33.000Z</time>
      </trkpt>
      <trkpt lat="46.31521" lon="4.83991">
        <ele>176.84153</ele>
        <time>2021-09-13T06:11:38.000Z</time>
      </trkpt>
      <trkpt lat="46.31516" lon="4.83994">
        <ele>176.792695</ele>
        <time>2021-09-13T06:11:42.000Z</time>
      </trkpt>
      <trkpt lat="46.31509" lon="4.83998">
        <ele>176.723111</ele>
        <time>2021-09-13T06:12:28.000Z</time>
      </trkpt>
      <trkpt lat="46.31505" lon="4.84001">
        <ele>176.687283</ele>
        <time>2021-09-13T06:12:30.000Z</time>
      </trkpt>
      <trkpt lat="46.31492" lon="4.84011">
        <ele>176.559162</ele>
        <time>2021-09-13T06:12:35.000Z</time>
      </trkpt>
      <trkpt lat="46.31471" lon="4.84017">
        <ele>176.376317</ele>
        <time>2021-09-13T06:12:41.000Z</time>
      </trkpt>
      <trkpt lat="46.31462" lon="4.8402">
        <ele>176.296199</ele>
        <time>2021-09-13T06:12:44.000Z</time>
      </trkpt>
      <trkpt lat="46.31455" lon="4.84021">
        <ele>176.265933</ele>
        <time>2021-09-13T06:12:46.000Z</time>
      </trkpt>
      <trkpt lat="46.31446" lon="4.84022">
        <ele>176.292735</ele>
        <time>2021-09-13T06:12:49.000Z</time>
      </trkpt>
      <trkpt lat="46.31443" lon="4.84023">
        <ele>176.301567</ele>
        <time>2021-09-13T06:12:50.000Z</time>
      </trkpt>
      <trkpt lat="46.31436" lon="4.84021">
        <ele>176.319959</ele>
        <time>2021-09-13T06:12:53.000Z</time>
      </trkpt>
      <trkpt lat="46.31434" lon="4.84021">
        <ele>176.32602</ele>
        <time>2021-09-13T06:12:54.000Z</time>
      </trkpt>
      <trkpt lat="46.31428" lon="4.84019">
        <ele>176.343055</ele>
        <time>2021-09-13T06:12:59.000Z</time>
      </trkpt>
      <trkpt lat="46.3142" lon="4.84015">
        <ele>176.368617</ele>
        <time>2021-09-13T06:13:05.000Z</time>
      </trkpt>
      <trkpt lat="46.31406" lon="4.84008">
        <ele>176.410289</ele>
        <time>2021-09-13T06:13:11.000Z</time>
      </trkpt>
      <trkpt lat="46.31385" lon="4.84006">
        <ele>176.469361</ele>
        <time>2021-09-13T06:13:16.000Z</time>
      </trkpt>
      <trkpt lat="46.3135" lon="4.83992">
        <ele>176.572669</ele>
        <time>2021-09-13T06:13:24.000Z</time>
      </trkpt>
      <trkpt lat="46.31334" lon="4.83997">
        <ele>176.617596</ele>
        <time>2021-09-13T06:13:27.000Z</time>
      </trkpt>
      <trkpt lat="46.31324" lon="4.83993">
        <ele>176.647831</ele>
        <time>2021-09-13T06:13:29.000Z</time>
      </trkpt>
      <trkpt lat="46.3129" lon="4.83979">
        <ele>176.746732</ele>
        <time>2021-09-13T06:13:36.000Z</time>
      </trkpt>
      <trkpt lat="46.31282" lon="4.83975">
        <ele>176.769933</ele>
        <time>2021-09-13T06:13:38.000Z</time>
      </trkpt>
      <trkpt lat="46.31267" lon="4.83965">
        <ele>176.782497</ele>
        <time>2021-09-13T06:13:42.000Z</time>
      </trkpt>
      <trkpt lat="46.31238" lon="4.83943">
        <ele>176.807611</ele>
        <time>2021-09-13T06:13:50.000Z</time>
      </trkpt>
      <trkpt lat="46.31202" lon="4.83916">
        <ele>176.837679</ele>
        <time>2021-09-13T06:13:58.000Z</time>
      </trkpt>
      <trkpt lat="46.31172" lon="4.83893">
        <ele>176.863548</ele>
        <time>2021-09-13T06:14:05.000Z</time>
      </trkpt>
      <trkpt lat="46.31168" lon="4.8389">
        <ele>176.866782</ele>
        <time>2021-09-13T06:14:06.000Z</time>
      </trkpt>
      <trkpt lat="46.31151" lon="4.83875">
        <ele>176.882119</ele>
        <time>2021-09-13T06:14:11.000Z</time>
      </trkpt>
      <trkpt lat="46.31129" lon="4.8386">
        <ele>176.900768</ele>
        <time>2021-09-13T06:14:17.000Z</time>
      </trkpt>
      <trkpt lat="46.31115" lon="4.83854">
        <ele>176.911233</ele>
        <time>2021-09-13T06:14:20.000Z</time>
      </trkpt>
      <trkpt lat="46.31101" lon="4.83849">
        <ele>176.921252</ele>
        <time>2021-09-13T06:14:23.000Z</time>
      </trkpt>
      <trkpt lat="46.31097" lon="4.83847">
        <ele>176.924465</ele>
        <time>2021-09-13T06:14:24.000Z</time>
      </trkpt>
      <trkpt lat="46.31068" lon="4.83836">
        <ele>176.944993</ele>
        <time>2021-09-13T06:14:30.000Z</time>
      </trkpt>
      <trkpt lat="46.31028" lon="4.83821">
        <ele>176.974442</ele>
        <time>2021-09-13T06:14:38.000Z</time>
      </trkpt>
      <trkpt lat="46.31002" lon="4.8381">
        <ele>176.993587</ele>
        <time>2021-09-13T06:14:43.000Z</time>
      </trkpt>
      <trkpt lat="46.30997" lon="4.83808">
        <ele>176.99752</ele>
        <time>2021-09-13T06:14:44.000Z</time>
      </trkpt>
      <trkpt lat="46.30981" lon="4.83803">
        <ele>177.008556</ele>
        <time>2021-09-13T06:14:47.000Z</time>
      </trkpt>
      <trkpt lat="46.30971" lon="4.83803">
        <ele>177.015905</ele>
        <time>2021-09-13T06:14:49.000Z</time>
      </trkpt>
      <trkpt lat="46.30961" lon="4.83805">
        <ele>177.02308</ele>
        <time>2021-09-13T06:14:51.000Z</time>
      </trkpt>
      <trkpt lat="46.30946" lon="4.838">
        <ele>177.037153</ele>
        <time>2021-09-13T06:14:54.000Z</time>
      </trkpt>
      <trkpt lat="46.30917" lon="4.83788">
        <ele>177.089298</ele>
        <time>2021-09-13T06:15:00.000Z</time>
      </trkpt>
      <trkpt lat="46.30906" lon="4.83776">
        <ele>177.114861</ele>
        <time>2021-09-13T06:15:03.000Z</time>
      </trkpt>
      <trkpt lat="46.30897" lon="4.83771">
        <ele>177.131257</ele>
        <time>2021-09-13T06:15:05.000Z</time>
      </trkpt>
      <trkpt lat="46.30883" lon="4.83765">
        <ele>177.157396</ele>
        <time>2021-09-13T06:15:08.000Z</time>
      </trkpt>
      <trkpt lat="46.30868" lon="4.8376">
        <ele>177.18388</ele>
        <time>2021-09-13T06:15:11.000Z</time>
      </trkpt>
      <trkpt lat="46.30854" lon="4.83755">
        <ele>177.21091</ele>
        <time>2021-09-13T06:15:14.000Z</time>
      </trkpt>
      <trkpt lat="46.30838" lon="4.83749">
        <ele>177.239232</ele>
        <time>2021-09-13T06:15:17.000Z</time>
      </trkpt>
      <trkpt lat="46.30807" lon="4.83738">
        <ele>177.295533</ele>
        <time>2021-09-13T06:15:23.000Z</time>
      </trkpt>
      <trkpt lat="46.30777" lon="4.83726">
        <ele>177.353565</ele>
        <time>2021-09-13T06:15:29.000Z</time>
      </trkpt>
      <trkpt lat="46.30767" lon="4.83722">
        <ele>177.414347</ele>
        <time>2021-09-13T06:15:31.000Z</time>
      </trkpt>
      <trkpt lat="46.30749" lon="4.83714">
        <ele>177.522744</ele>
        <time>2021-09-13T06:15:35.000Z</time>
      </trkpt>
      <trkpt lat="46.30719" lon="4.83705">
        <ele>177.701939</ele>
        <time>2021-09-13T06:15:43.000Z</time>
      </trkpt>
      <trkpt lat="46.30696" lon="4.83696">
        <ele>177.844891</ele>
        <time>2021-09-13T06:15:50.000Z</time>
      </trkpt>
      <trkpt lat="46.30676" lon="4.83688">
        <ele>177.967771</ele>
        <time>2021-09-13T06:15:56.000Z</time>
      </trkpt>
      <trkpt lat="46.3065" lon="4.83678">
        <ele>178.123534</ele>
        <time>2021-09-13T06:16:04.000Z</time>
      </trkpt>
      <trkpt lat="46.30629" lon="4.8367">
        <ele>178.253997</ele>
        <time>2021-09-13T06:16:10.000Z</time>
      </trkpt>
      <trkpt lat="46.30614" lon="4.83662">
        <ele>178.345985</ele>
        <time>2021-09-13T06:16:14.000Z</time>
      </trkpt>
      <trkpt lat="46.30606" lon="4.83658">
        <ele>178.396885</ele>
        <time>2021-09-13T06:16:16.000Z</time>
      </trkpt>
      <trkpt lat="46.30599" lon="4.83652">
        <ele>178.433285</ele>
        <time>2021-09-13T06:16:18.000Z</time>
      </trkpt>
      <trkpt lat="46.3059" lon="4.83644">
        <ele>178.477864</ele>
        <time>2021-09-13T06:16:21.000Z</time>
      </trkpt>
      <trkpt lat="46.30566" lon="4.83624">
        <ele>178.588409</ele>
        <time>2021-09-13T06:16:29.000Z</time>
      </trkpt>
      <trkpt lat="46.30548" lon="4.83609">
        <ele>178.671958</ele>
        <time>2021-09-13T06:16:36.000Z</time>
      </trkpt>
      <trkpt lat="46.3054" lon="4.83602">
        <ele>178.708576</ele>
        <time>2021-09-13T06:16:41.000Z</time>
      </trkpt>
      <trkpt lat="46.30538" lon="4.83601">
        <ele>178.715568</ele>
        <time>2021-09-13T06:16:42.000Z</time>
      </trkpt>
      <trkpt lat="46.30532" lon="4.83596">
        <ele>178.742985</ele>
        <time>2021-09-13T06:16:47.000Z</time>
      </trkpt>
      <trkpt lat="46.30532" lon="4.8358">
        <ele>178.788295</ele>
        <time>2021-09-13T06:17:13.000Z</time>
      </trkpt>
      <trkpt lat="46.30534" lon="4.83571">
        <ele>178.812437</ele>
        <time>2021-09-13T06:17:19.000Z</time>
      </trkpt>
      <trkpt lat="46.30545" lon="4.83541">
        <ele>178.906575</ele>
        <time>2021-09-13T06:17:25.000Z</time>
      </trkpt>
      <trkpt lat="46.30552" lon="4.83524">
        <ele>178.963004</ele>
        <time>2021-09-13T06:17:28.000Z</time>
      </trkpt>
      <trkpt lat="46.30557" lon="4.83513">
        <ele>178.997823</ele>
        <time>2021-09-13T06:17:30.000Z</time>
      </trkpt>
      <trkpt lat="46.30559" lon="4.83508">
        <ele>179.015585</ele>
        <time>2021-09-13T06:17:31.000Z</time>
      </trkpt>
      <trkpt lat="46.30561" lon="4.83503">
        <ele>179.032412</ele>
        <time>2021-09-13T06:17:32.000Z</time>
      </trkpt>
      <trkpt lat="46.30562" lon="4.83495">
        <ele>179.0525</ele>
        <time>2021-09-13T06:17:34.000Z</time>
      </trkpt>
      <trkpt lat="46.30563" lon="4.83489">
        <ele>179.071166</ele>
        <time>2021-09-13T06:17:36.000Z</time>
      </trkpt>
      <trkpt lat="46.30563" lon="4.83481">
        <ele>179.093083</ele>
        <time>2021-09-13T06:17:38.000Z</time>
      </trkpt>
      <trkpt lat="46.30563" lon="4.83456">
        <ele>179.407818</ele>
        <time>2021-09-13T06:17:44.000Z</time>
      </trkpt>
      <trkpt lat="46.30563" lon="4.83442">
        <ele>179.787474</ele>
        <time>2021-09-13T06:17:48.000Z</time>
      </trkpt>
      <trkpt lat="46.30562" lon="4.83426">
        <ele>180.2262</ele>
        <time>2021-09-13T06:17:53.000Z</time>
      </trkpt>
      <trkpt lat="46.30561" lon="4.83396">
        <ele>181.012205</ele>
        <time>2021-09-13T06:18:00.000Z</time>
      </trkpt>
      <trkpt lat="46.30561" lon="4.83371">
        <ele>181.68825</ele>
        <time>2021-09-13T06:18:06.000Z</time>
      </trkpt>
      <trkpt lat="46.30561" lon="4.83353">
        <ele>182.166574</ele>
        <time>2021-09-13T06:18:10.000Z</time>
      </trkpt>
      <trkpt lat="46.3056" lon="4.83331">
        <ele>182.760888</ele>
        <time>2021-09-13T06:18:15.000Z</time>
      </trkpt>
      <trkpt lat="46.30557" lon="4.8331">
        <ele>183.328892</ele>
        <time>2021-09-13T06:18:20.000Z</time>
      </trkpt>
      <trkpt lat="46.3056" lon="4.83285">
        <ele>183.99761</ele>
        <time>2021-09-13T06:18:25.000Z</time>
      </trkpt>
      <trkpt lat="46.30566" lon="4.83262">
        <ele>184.662974</ele>
        <time>2021-09-13T06:18:30.000Z</time>
      </trkpt>
      <trkpt lat="46.30569" lon="4.83245">
        <ele>185.122979</ele>
        <time>2021-09-13T06:18:34.000Z</time>
      </trkpt>
      <trkpt lat="46.3057" lon="4.83236">
        <ele>185.380704</ele>
        <time>2021-09-13T06:18:36.000Z</time>
      </trkpt>
      <trkpt lat="46.30571" lon="4.8323">
        <ele>185.530054</ele>
        <time>2021-09-13T06:18:37.000Z</time>
      </trkpt>
      <trkpt lat="46.30573" lon="4.83225">
        <ele>185.699124</ele>
        <time>2021-09-13T06:18:39.000Z</time>
      </trkpt>
      <trkpt lat="46.30579" lon="4.83222">
        <ele>185.91309</ele>
        <time>2021-09-13T06:18:40.000Z</time>
      </trkpt>
      <trkpt lat="46.30576" lon="4.83208">
        <ele>186.327282</ele>
        <time>2021-09-13T06:18:45.000Z</time>
      </trkpt>
      <trkpt lat="46.30576" lon="4.83208">
        <ele>186.327282</ele>
        <time>2021-09-13T06:18:49.000Z</time>
      </trkpt>
      <trkpt lat="46.3059" lon="4.83155">
        <ele>187.884632</ele>
        <time>2021-09-13T06:18:54.000Z</time>
      </trkpt>
      <trkpt lat="46.30596" lon="4.83137">
        <ele>188.454195</ele>
        <time>2021-09-13T06:18:58.000Z</time>
      </trkpt>
      <trkpt lat="46.30601" lon="4.83121">
        <ele>188.955087</ele>
        <time>2021-09-13T06:19:02.000Z</time>
      </trkpt>
      <trkpt lat="46.30608" lon="4.83092">
        <ele>189.800486</ele>
        <time>2021-09-13T06:19:07.000Z</time>
      </trkpt>
      <trkpt lat="46.3061" lon="4.83081">
        <ele>190.133321</ele>
        <time>2021-09-13T06:19:09.000Z</time>
      </trkpt>
      <trkpt lat="46.30611" lon="4.83075">
        <ele>190.286848</ele>
        <time>2021-09-13T06:19:10.000Z</time>
      </trkpt>
      <trkpt lat="46.30616" lon="4.83049">
        <ele>191.043259</ele>
        <time>2021-09-13T06:19:14.000Z</time>
      </trkpt>
      <trkpt lat="46.30617" lon="4.83044">
        <ele>191.208344</ele>
        <time>2021-09-13T06:19:15.000Z</time>
      </trkpt>
      <trkpt lat="46.30623" lon="4.83016">
        <ele>192.000762</ele>
        <time>2021-09-13T06:19:20.000Z</time>
      </trkpt>
      <trkpt lat="46.30624" lon="4.83007">
        <ele>192.272055</ele>
        <time>2021-09-13T06:19:24.000Z</time>
      </trkpt>
      <trkpt lat="46.30624" lon="4.82977">
        <ele>193.116112</ele>
        <time>2021-09-13T06:19:50.000Z</time>
      </trkpt>
      <trkpt lat="46.30625" lon="4.82974">
        <ele>193.200706</ele>
        <time>2021-09-13T06:19:52.000Z</time>
      </trkpt>
      <trkpt lat="46.30625" lon="4.82974">
        <ele>193.200706</ele>
        <time>2021-09-13T06:19:58.000Z</time>
      </trkpt>
      <trkpt lat="46.30631" lon="4.8294">
        <ele>193.709411</ele>
        <time>2021-09-13T06:20:04.000Z</time>
      </trkpt>
      <trkpt lat="46.30631" lon="4.82939">
        <ele>193.720255</ele>
        <time>2021-09-13T06:20:07.000Z</time>
      </trkpt>
      <trkpt lat="46.30632" lon="4.82924">
        <ele>193.904405</ele>
        <time>2021-09-13T06:20:08.000Z</time>
      </trkpt>
      <trkpt lat="46.30631" lon="4.82936">
        <ele>194.05224</ele>
        <time>2021-09-13T06:20:09.000Z</time>
      </trkpt>
      <trkpt lat="46.30632" lon="4.8292">
        <ele>194.251671</ele>
        <time>2021-09-13T06:20:14.000Z</time>
      </trkpt>
      <trkpt lat="46.30625" lon="4.82918">
        <ele>194.388339</ele>
        <time>2021-09-13T06:20:40.000Z</time>
      </trkpt>
      <trkpt lat="46.30621" lon="4.82917">
        <ele>194.4467</ele>
        <time>2021-09-13T06:20:42.000Z</time>
      </trkpt>
      <trkpt lat="46.30608" lon="4.82914">
        <ele>194.685307</ele>
        <time>2021-09-13T06:20:48.000Z</time>
      </trkpt>
      <trkpt lat="46.30593" lon="4.82904">
        <ele>194.972279</ele>
        <time>2021-09-13T06:20:53.000Z</time>
      </trkpt>
      <trkpt lat="46.30573" lon="4.82888">
        <ele>195.373724</ele>
        <time>2021-09-13T06:20:59.000Z</time>
      </trkpt>
      <trkpt lat="46.30559" lon="4.82877">
        <ele>195.646398</ele>
        <time>2021-09-13T06:21:03.000Z</time>
      </trkpt>
      <trkpt lat="46.30555" lon="4.82874">
        <ele>195.722479</ele>
        <time>2021-09-13T06:21:04.000Z</time>
      </trkpt>
      <trkpt lat="46.30531" lon="4.82855">
        <ele>196.199242</ele>
        <time>2021-09-13T06:21:10.000Z</time>
      </trkpt>
      <trkpt lat="46.30514" lon="4.8284">
        <ele>196.550707</ele>
        <time>2021-09-13T06:21:15.000Z</time>
      </trkpt>
      <trkpt lat="46.30496" lon="4.82824">
        <ele>196.991727</ele>
        <time>2021-09-13T06:21:21.000Z</time>
      </trkpt>
      <trkpt lat="46.30493" lon="4.82821">
        <ele>197.053327</ele>
        <time>2021-09-13T06:21:22.000Z</time>
      </trkpt>
      <trkpt lat="46.30488" lon="4.82817">
        <ele>197.177263</ele>
        <time>2021-09-13T06:21:24.000Z</time>
      </trkpt>
      <trkpt lat="46.30472" lon="4.82802">
        <ele>197.556682</ele>
        <time>2021-09-13T06:21:29.000Z</time>
      </trkpt>
      <trkpt lat="46.30451" lon="4.82784">
        <ele>198.052673</ele>
        <time>2021-09-13T06:21:35.000Z</time>
      </trkpt>
      <trkpt lat="46.30435" lon="4.8277">
        <ele>198.428652</ele>
        <time>2021-09-13T06:21:39.000Z</time>
      </trkpt>
      <trkpt lat="46.30423" lon="4.82759">
        <ele>198.707946</ele>
        <time>2021-09-13T06:21:42.000Z</time>
      </trkpt>
      <trkpt lat="46.30399" lon="4.82737">
        <ele>199.280757</ele>
        <time>2021-09-13T06:21:48.000Z</time>
      </trkpt>
      <trkpt lat="46.30384" lon="4.82723">
        <ele>199.657475</ele>
        <time>2021-09-13T06:21:52.000Z</time>
      </trkpt>
      <trkpt lat="46.30377" lon="4.82717">
        <ele>199.818238</ele>
        <time>2021-09-13T06:21:55.000Z</time>
      </trkpt>
      <trkpt lat="46.3037" lon="4.82711">
        <ele>199.984877</ele>
        <time>2021-09-13T06:21:57.000Z</time>
      </trkpt>
      <trkpt lat="46.3036" lon="4.82698">
        <ele>200.161377</ele>
        <time>2021-09-13T06:21:59.000Z</time>
      </trkpt>
      <trkpt lat="46.30354" lon="4.82686">
        <ele>200.20196</ele>
        <time>2021-09-13T06:22:01.000Z</time>
      </trkpt>
      <trkpt lat="46.30353" lon="4.82684">
        <ele>200.209036</ele>
        <time>2021-09-13T06:22:03.000Z</time>
      </trkpt>
      <trkpt lat="46.30348" lon="4.82658">
        <ele>200.286307</ele>
        <time>2021-09-13T06:22:04.000Z</time>
      </trkpt>
      <trkpt lat="46.30338" lon="4.82666">
        <ele>200.334856</ele>
        <time>2021-09-13T06:22:05.000Z</time>
      </trkpt>
      <trkpt lat="46.3034" lon="4.82686">
        <ele>200.392142</ele>
        <time>2021-09-13T06:22:07.000Z</time>
      </trkpt>
      <trkpt lat="46.30337" lon="4.82696">
        <ele>200.424775</ele>
        <time>2021-09-13T06:22:09.000Z</time>
      </trkpt>
      <trkpt lat="46.30334" lon="4.82708">
        <ele>200.459675</ele>
        <time>2021-09-13T06:22:11.000Z</time>
      </trkpt>
      <trkpt lat="46.30332" lon="4.82713">
        <ele>200.477471</ele>
        <time>2021-09-13T06:22:12.000Z</time>
      </trkpt>
      <trkpt lat="46.3032" lon="4.82756">
        <ele>200.60977</ele>
        <time>2021-09-13T06:22:18.000Z</time>
      </trkpt>
      <trkpt lat="46.30301" lon="4.82817">
        <ele>200.800062</ele>
        <time>2021-09-13T06:22:25.000Z</time>
      </trkpt>
      <trkpt lat="46.30278" lon="4.82892">
        <ele>199.54571</ele>
        <time>2021-09-13T06:22:33.000Z</time>
      </trkpt>
      <trkpt lat="46.3027" lon="4.82919">
        <ele>198.824042</ele>
        <time>2021-09-13T06:22:36.000Z</time>
      </trkpt>
      <trkpt lat="46.30264" lon="4.82936">
        <ele>198.353189</ele>
        <time>2021-09-13T06:22:38.000Z</time>
      </trkpt>
      <trkpt lat="46.30249" lon="4.82986">
        <ele>196.999911</ele>
        <time>2021-09-13T06:22:44.000Z</time>
      </trkpt>
      <trkpt lat="46.30238" lon="4.83027">
        <ele>195.915933</ele>
        <time>2021-09-13T06:22:50.000Z</time>
      </trkpt>
      <trkpt lat="46.30221" lon="4.83064">
        <ele>194.799301</ele>
        <time>2021-09-13T06:22:58.000Z</time>
      </trkpt>
      <trkpt lat="46.30219" lon="4.83067">
        <ele>194.714045</ele>
        <time>2021-09-13T06:23:02.000Z</time>
      </trkpt>
      <trkpt lat="46.3022" lon="4.83067">
        <ele>194.680888</ele>
        <time>2021-09-13T06:23:05.000Z</time>
      </trkpt>
      <trkpt lat="46.30221" lon="4.83064">
        <ele>194.602035</ele>
        <time>2021-09-13T06:23:06.000Z</time>
      </trkpt>
      <trkpt lat="46.30227" lon="4.83045">
        <ele>193.306034</ele>
        <time>2021-09-13T06:23:11.000Z</time>
      </trkpt>
      <trkpt lat="46.30232" lon="4.83026">
        <ele>191.675257</ele>
        <time>2021-09-13T06:23:18.000Z</time>
      </trkpt>
      <trkpt lat="46.30234" lon="4.83014">
        <ele>190.704517</ele>
        <time>2021-09-13T06:23:20.000Z</time>
      </trkpt>
      <trkpt lat="46.30232" lon="4.83009">
        <ele>190.226232</ele>
        <time>2021-09-13T06:23:22.000Z</time>
      </trkpt>
      <trkpt lat="46.30231" lon="4.83006">
        <ele>189.904414</ele>
        <time>2021-09-13T06:23:25.000Z</time>
      </trkpt>
      <trkpt lat="46.30226" lon="4.83007">
        <ele>189.321846</ele>
        <time>2021-09-13T06:23:33.000Z</time>
      </trkpt>
      <trkpt lat="46.30218" lon="4.83002">
        <ele>188.363797</ele>
        <time>2021-09-13T06:23:37.000Z</time>
      </trkpt>
      <trkpt lat="46.30216" lon="4.83001">
        <ele>188.12079</ele>
        <time>2021-09-13T06:23:38.000Z</time>
      </trkpt>
      <trkpt lat="46.30214" lon="4.83">
        <ele>187.839072</ele>
        <time>2021-09-13T06:23:39.000Z</time>
      </trkpt>
      <trkpt lat="46.30208" lon="4.8299">
        <ele>186.822469</ele>
        <time>2021-09-13T06:23:41.000Z</time>
      </trkpt>
      <trkpt lat="46.30196" lon="4.82974">
        <ele>184.876668</ele>
        <time>2021-09-13T06:23:45.000Z</time>
      </trkpt>
      <trkpt lat="46.3019" lon="4.82965">
        <ele>183.889694</ele>
        <time>2021-09-13T06:23:47.000Z</time>
      </trkpt>
      <trkpt lat="46.30173" lon="4.82941">
        <ele>181.04948</ele>
        <time>2021-09-13T06:23:54.000Z</time>
      </trkpt>
      <trkpt lat="46.3017" lon="4.82936">
        <ele>180.570932</ele>
        <time>2021-09-13T06:23:59.000Z</time>
      </trkpt>
      <trkpt lat="46.30169" lon="4.82935">
        <ele>180.416058</ele>
        <time>2021-09-13T06:26:04.000Z</time>
      </trkpt>
      <trkpt lat="46.30165" lon="4.82929">
        <ele>179.763714</ele>
        <time>2021-09-13T06:26:06.000Z</time>
      </trkpt>
      <trkpt lat="46.30154" lon="4.82914">
        <ele>177.963957</ele>
        <time>2021-09-13T06:26:11.000Z</time>
      </trkpt>
      <trkpt lat="46.30144" lon="4.82896">
        <ele>176.060766</ele>
        <time>2021-09-13T06:26:16.000Z</time>
      </trkpt>
      <trkpt lat="46.30132" lon="4.82877">
        <ele>174.008259</ele>
        <time>2021-09-13T06:26:21.000Z</time>
      </trkpt>
      <trkpt lat="46.30104" lon="4.82826">
        <ele>173.820098</ele>
        <time>2021-09-13T06:26:31.000Z</time>
      </trkpt>
      <trkpt lat="46.30081" lon="4.82784">
        <ele>174.273421</ele>
        <time>2021-09-13T06:26:39.000Z</time>
      </trkpt>
      <trkpt lat="46.3006" lon="4.82748">
        <ele>174.671664</ele>
        <time>2021-09-13T06:26:46.000Z</time>
      </trkpt>
      <trkpt lat="46.30043" lon="4.82715">
        <ele>175.015714</ele>
        <time>2021-09-13T06:26:52.000Z</time>
      </trkpt>
      <trkpt lat="46.30022" lon="4.82675">
        <ele>175.444482</ele>
        <time>2021-09-13T06:26:59.000Z</time>
      </trkpt>
      <trkpt lat="46.30006" lon="4.82642">
        <ele>175.83744</ele>
        <time>2021-09-13T06:27:05.000Z</time>
      </trkpt>
      <trkpt lat="46.2999" lon="4.8261">
        <ele>176.232001</ele>
        <time>2021-09-13T06:27:12.000Z</time>
      </trkpt>
      <trkpt lat="46.29978" lon="4.82585">
        <ele>176.540179</ele>
        <time>2021-09-13T06:27:19.000Z</time>
      </trkpt>
      <trkpt lat="46.29969" lon="4.82581">
        <ele>176.676356</ele>
        <time>2021-09-13T06:27:24.000Z</time>
      </trkpt>
      <trkpt lat="46.29964" lon="4.82592">
        <ele>176.800175</ele>
        <time>2021-09-13T06:27:28.000Z</time>
      </trkpt>
      <trkpt lat="46.29959" lon="4.82604">
        <ele>176.953916</ele>
        <time>2021-09-13T06:27:31.000Z</time>
      </trkpt>
      <trkpt lat="46.29954" lon="4.82615">
        <ele>177.078584</ele>
        <time>2021-09-13T06:27:33.000Z</time>
      </trkpt>
      <trkpt lat="46.29938" lon="4.8265">
        <ele>177.502318</ele>
        <time>2021-09-13T06:27:40.000Z</time>
      </trkpt>
      <trkpt lat="46.29924" lon="4.82666">
        <ele>177.767672</ele>
        <time>2021-09-13T06:27:45.000Z</time>
      </trkpt>
      <trkpt lat="46.2992" lon="4.82669">
        <ele>177.833918</ele>
        <time>2021-09-13T06:27:49.000Z</time>
      </trkpt>
      <trkpt lat="46.29908" lon="4.82672">
        <ele>178.0038</ele>
        <time>2021-09-13T06:27:54.000Z</time>
      </trkpt>
      <trkpt lat="46.29897" lon="4.82671">
        <ele>178.160766</ele>
        <time>2021-09-13T06:27:57.000Z</time>
      </trkpt>
      <trkpt lat="46.29889" lon="4.82672">
        <ele>178.094348</ele>
        <time>2021-09-13T06:27:59.000Z</time>
      </trkpt>
      <trkpt lat="46.29882" lon="4.82679">
        <ele>178.018433</ele>
        <time>2021-09-13T06:28:01.000Z</time>
      </trkpt>
      <trkpt lat="46.29878" lon="4.82692">
        <ele>177.936282</ele>
        <time>2021-09-13T06:28:03.000Z</time>
      </trkpt>
      <trkpt lat="46.29876" lon="4.82707">
        <ele>177.844054</ele>
        <time>2021-09-13T06:28:05.000Z</time>
      </trkpt>
      <trkpt lat="46.29879" lon="4.8272">
        <ele>177.761958</ele>
        <time>2021-09-13T06:28:07.000Z</time>
      </trkpt>
      <trkpt lat="46.29878" lon="4.8275">
        <ele>177.579666</ele>
        <time>2021-09-13T06:28:11.000Z</time>
      </trkpt>
      <trkpt lat="46.29877" lon="4.82758">
        <ele>177.531607</ele>
        <time>2021-09-13T06:28:12.000Z</time>
      </trkpt>
      <trkpt lat="46.29872" lon="4.82773">
        <ele>177.433754</ele>
        <time>2021-09-13T06:28:14.000Z</time>
      </trkpt>
      <trkpt lat="46.29866" lon="4.82788">
        <ele>177.329419</ele>
        <time>2021-09-13T06:28:16.000Z</time>
      </trkpt>
      <trkpt lat="46.29853" lon="4.82818">
        <ele>177.11642</ele>
        <time>2021-09-13T06:28:20.000Z</time>
      </trkpt>
      <trkpt lat="46.2984" lon="4.82845">
        <ele>176.92125</ele>
        <time>2021-09-13T06:28:24.000Z</time>
      </trkpt>
      <trkpt lat="46.29837" lon="4.82852">
        <ele>176.870985</ele>
        <time>2021-09-13T06:28:25.000Z</time>
      </trkpt>
      <trkpt lat="46.29825" lon="4.82877">
        <ele>176.69011</ele>
        <time>2021-09-13T06:28:29.000Z</time>
      </trkpt>
      <trkpt lat="46.2981" lon="4.82909">
        <ele>176.669529</ele>
        <time>2021-09-13T06:28:34.000Z</time>
      </trkpt>
      <trkpt lat="46.29807" lon="4.82916">
        <ele>176.688725</ele>
        <time>2021-09-13T06:28:35.000Z</time>
      </trkpt>
      <trkpt lat="46.29785" lon="4.82959">
        <ele>176.821049</ele>
        <time>2021-09-13T06:28:42.000Z</time>
      </trkpt>
      <trkpt lat="46.29764" lon="4.83003">
        <ele>176.954389</ele>
        <time>2021-09-13T06:28:49.000Z</time>
      </trkpt>
      <trkpt lat="46.29762" lon="4.83009">
        <ele>176.971203</ele>
        <time>2021-09-13T06:28:50.000Z</time>
      </trkpt>
      <trkpt lat="46.29753" lon="4.83016">
        <ele>177.007081</ele>
        <time>2021-09-13T06:28:52.000Z</time>
      </trkpt>
      <trkpt lat="46.29745" lon="4.83021">
        <ele>177.03819</ele>
        <time>2021-09-13T06:28:54.000Z</time>
      </trkpt>
      <trkpt lat="46.29741" lon="4.83025">
        <ele>177.055506</ele>
        <time>2021-09-13T06:28:55.000Z</time>
      </trkpt>
      <trkpt lat="46.29744" lon="4.83034">
        <ele>177.080187</ele>
        <time>2021-09-13T06:28:57.000Z</time>
      </trkpt>
      <trkpt lat="46.29746" lon="4.83036">
        <ele>177.087946</ele>
        <time>2021-09-13T06:28:58.000Z</time>
      </trkpt>
      <trkpt lat="46.29747" lon="4.83044">
        <ele>177.108922</ele>
        <time>2021-09-13T06:29:01.000Z</time>
      </trkpt>
      <trkpt lat="46.29747" lon="4.8306">
        <ele>177.146663</ele>
        <time>2021-09-13T06:29:06.000Z</time>
      </trkpt>
      <trkpt lat="46.29745" lon="4.83091">
        <ele>177.226227</ele>
        <time>2021-09-13T06:29:14.000Z</time>
      </trkpt>
      <trkpt lat="46.29743" lon="4.83115">
        <ele>177.353358</ele>
        <time>2021-09-13T06:29:20.000Z</time>
      </trkpt>
      <trkpt lat="46.2974" lon="4.83139">
        <ele>177.538998</ele>
        <time>2021-09-13T06:29:26.000Z</time>
      </trkpt>
      <trkpt lat="46.29737" lon="4.83178">
        <ele>177.84307</ele>
        <time>2021-09-13T06:29:35.000Z</time>
      </trkpt>
      <trkpt lat="46.29734" lon="4.83214">
        <ele>178.116893</ele>
        <time>2021-09-13T06:29:42.000Z</time>
      </trkpt>
      <trkpt lat="46.2973" lon="4.8326">
        <ele>178.475854</ele>
        <time>2021-09-13T06:29:50.000Z</time>
      </trkpt>
      <trkpt lat="46.29725" lon="4.83311">
        <ele>178.869492</ele>
        <time>2021-09-13T06:29:58.000Z</time>
      </trkpt>
      <trkpt lat="46.29719" lon="4.83366">
        <ele>179.252063</ele>
        <time>2021-09-13T06:30:05.000Z</time>
      </trkpt>
      <trkpt lat="46.29715" lon="4.834">
        <ele>179.263416</ele>
        <time>2021-09-13T06:30:10.000Z</time>
      </trkpt>
      <trkpt lat="46.29704" lon="4.83409">
        <ele>179.269455</ele>
        <time>2021-09-13T06:30:15.000Z</time>
      </trkpt>
      <trkpt lat="46.29703" lon="4.83408">
        <ele>179.269983</ele>
        <time>2021-09-13T06:30:16.000Z</time>
      </trkpt>
      <trkpt lat="46.29702" lon="4.83406">
        <ele>179.270924</ele>
        <time>2021-09-13T06:30:18.000Z</time>
      </trkpt>
      <trkpt lat="46.29702" lon="4.83406">
        <ele>179.270924</ele>
        <time>2021-09-13T06:30:20.000Z</time>
      </trkpt>
      <trkpt lat="46.29704" lon="4.83409">
        <ele>179.272393</ele>
        <time>2021-09-13T06:30:29.000Z</time>
      </trkpt>
      <trkpt lat="46.29705" lon="4.83408">
        <ele>179.273188</ele>
        <time>2021-09-13T06:30:30.000Z</time>
      </trkpt>
      <trkpt lat="46.29708" lon="4.83405">
        <ele>179.27451</ele>
        <time>2021-09-13T06:30:32.000Z</time>
      </trkpt>
      <trkpt lat="46.29715" lon="4.834">
        <ele>179.278462</ele>
        <time>2021-09-13T06:30:33.000Z</time>
      </trkpt>
      <trkpt lat="46.297" lon="4.83419">
        <ele>179.288135</ele>
        <time>2021-09-13T06:30:36.000Z</time>
      </trkpt>
      <trkpt lat="46.29699" lon="4.83425">
        <ele>179.290091</ele>
        <time>2021-09-13T06:30:37.000Z</time>
      </trkpt>
      <trkpt lat="46.29696" lon="4.8344">
        <ele>179.295288</ele>
        <time>2021-09-13T06:30:38.000Z</time>
      </trkpt>
      <trkpt lat="46.29687" lon="4.83443">
        <ele>179.299879</ele>
        <time>2021-09-13T06:30:40.000Z</time>
      </trkpt>
      <trkpt lat="46.29652" lon="4.83453">
        <ele>179.316723</ele>
        <time>2021-09-13T06:30:46.000Z</time>
      </trkpt>
      <trkpt lat="46.29605" lon="4.83469">
        <ele>179.420755</ele>
        <time>2021-09-13T06:30:53.000Z</time>
      </trkpt>
      <trkpt lat="46.29571" lon="4.83481">
        <ele>179.775283</ele>
        <time>2021-09-13T06:30:59.000Z</time>
      </trkpt>
      <trkpt lat="46.29545" lon="4.83491">
        <ele>180.051703</ele>
        <time>2021-09-13T06:31:05.000Z</time>
      </trkpt>
      <trkpt lat="46.29519" lon="4.83502">
        <ele>180.331347</ele>
        <time>2021-09-13T06:31:12.000Z</time>
      </trkpt>
      <trkpt lat="46.29483" lon="4.83525">
        <ele>180.733427</ele>
        <time>2021-09-13T06:31:22.000Z</time>
      </trkpt>
      <trkpt lat="46.29445" lon="4.83555">
        <ele>181.17644</ele>
        <time>2021-09-13T06:31:32.000Z</time>
      </trkpt>
      <trkpt lat="46.29414" lon="4.8358">
        <ele>181.446608</ele>
        <time>2021-09-13T06:31:40.000Z</time>
      </trkpt>
      <trkpt lat="46.29385" lon="4.83603">
        <ele>181.698627</ele>
        <time>2021-09-13T06:31:47.000Z</time>
      </trkpt>
      <trkpt lat="46.29353" lon="4.83629">
        <ele>181.974728</ele>
        <time>2021-09-13T06:31:54.000Z</time>
      </trkpt>
      <trkpt lat="46.29325" lon="4.83652">
        <ele>182.217853</ele>
        <time>2021-09-13T06:32:00.000Z</time>
      </trkpt>
      <trkpt lat="46.29297" lon="4.83676">
        <ele>182.46753</ele>
        <time>2021-09-13T06:32:06.000Z</time>
      </trkpt>
      <trkpt lat="46.29253" lon="4.8371">
        <ele>182.209929</ele>
        <time>2021-09-13T06:32:14.000Z</time>
      </trkpt>
      <trkpt lat="46.29214" lon="4.83728">
        <ele>181.867671</ele>
        <time>2021-09-13T06:32:20.000Z</time>
      </trkpt>
      <trkpt lat="46.29168" lon="4.83732">
        <ele>181.483664</ele>
        <time>2021-09-13T06:32:26.000Z</time>
      </trkpt>
      <trkpt lat="46.29152" lon="4.8373">
        <ele>181.349095</ele>
        <time>2021-09-13T06:32:28.000Z</time>
      </trkpt>
      <trkpt lat="46.29128" lon="4.83722">
        <ele>181.145151</ele>
        <time>2021-09-13T06:32:31.000Z</time>
      </trkpt>
      <trkpt lat="46.2909" lon="4.837">
        <ele>180.694156</ele>
        <time>2021-09-13T06:32:36.000Z</time>
      </trkpt>
      <trkpt lat="46.29059" lon="4.83667">
        <ele>180.229796</ele>
        <time>2021-09-13T06:32:41.000Z</time>
      </trkpt>
      <trkpt lat="46.2903" lon="4.83619">
        <ele>179.698538</ele>
        <time>2021-09-13T06:32:47.000Z</time>
      </trkpt>
      <trkpt lat="46.29011" lon="4.83567">
        <ele>179.206966</ele>
        <time>2021-09-13T06:32:53.000Z</time>
      </trkpt>
      <trkpt lat="46.28988" lon="4.83491">
        <ele>178.573524</ele>
        <time>2021-09-13T06:33:02.000Z</time>
      </trkpt>
      <trkpt lat="46.28965" lon="4.83417">
        <ele>178.013847</ele>
        <time>2021-09-13T06:33:11.000Z</time>
      </trkpt>
      <trkpt lat="46.28957" lon="4.83393">
        <ele>177.828262</ele>
        <time>2021-09-13T06:33:14.000Z</time>
      </trkpt>
      <trkpt lat="46.28936" lon="4.83327">
        <ele>177.329038</ele>
        <time>2021-09-13T06:33:22.000Z</time>
      </trkpt>
      <trkpt lat="46.28913" lon="4.83285">
        <ele>176.993924</ele>
        <time>2021-09-13T06:33:28.000Z</time>
      </trkpt>
      <trkpt lat="46.28881" lon="4.83242">
        <ele>176.699533</ele>
        <time>2021-09-13T06:33:35.000Z</time>
      </trkpt>
      <trkpt lat="46.28846" lon="4.8321">
        <ele>176.414857</ele>
        <time>2021-09-13T06:33:42.000Z</time>
      </trkpt>
      <trkpt lat="46.28805" lon="4.8319">
        <ele>176.124426</ele>
        <time>2021-09-13T06:33:49.000Z</time>
      </trkpt>
      <trkpt lat="46.28753" lon="4.8317">
        <ele>175.786204</ele>
        <time>2021-09-13T06:33:58.000Z</time>
      </trkpt>
      <trkpt lat="46.28708" lon="4.83152">
        <ele>175.576545</ele>
        <time>2021-09-13T06:34:06.000Z</time>
      </trkpt>
      <trkpt lat="46.2867" lon="4.83134">
        <ele>175.395394</ele>
        <time>2021-09-13T06:34:13.000Z</time>
      </trkpt>
      <trkpt lat="46.28659" lon="4.83126">
        <ele>175.343061</ele>
        <time>2021-09-13T06:34:15.000Z</time>
      </trkpt>
      <trkpt lat="46.28644" lon="4.83111">
        <ele>175.261761</ele>
        <time>2021-09-13T06:34:18.000Z</time>
      </trkpt>
      <trkpt lat="46.28625" lon="4.83091">
        <ele>175.155592</ele>
        <time>2021-09-13T06:34:22.000Z</time>
      </trkpt>
      <trkpt lat="46.28615" lon="4.83081">
        <ele>175.101695</ele>
        <time>2021-09-13T06:34:24.000Z</time>
      </trkpt>
      <trkpt lat="46.28587" lon="4.83065">
        <ele>174.981661</ele>
        <time>2021-09-13T06:34:29.000Z</time>
      </trkpt>
      <trkpt lat="46.28581" lon="4.83063">
        <ele>174.96092</ele>
        <time>2021-09-13T06:34:30.000Z</time>
      </trkpt>
      <trkpt lat="46.28557" lon="4.8306">
        <ele>174.877847</ele>
        <time>2021-09-13T06:34:34.000Z</time>
      </trkpt>
      <trkpt lat="46.28513" lon="4.83063">
        <ele>174.728035</ele>
        <time>2021-09-13T06:34:41.000Z</time>
      </trkpt>
      <trkpt lat="46.28495" lon="4.83064">
        <ele>174.662801</ele>
        <time>2021-09-13T06:34:44.000Z</time>
      </trkpt>
      <trkpt lat="46.2847" lon="4.83062">
        <ele>174.577191</ele>
        <time>2021-09-13T06:34:48.000Z</time>
      </trkpt>
      <trkpt lat="46.28422" lon="4.83048">
        <ele>174.416674</ele>
        <time>2021-09-13T06:34:56.000Z</time>
      </trkpt>
      <trkpt lat="46.2837" lon="4.83032">
        <ele>174.367391</ele>
        <time>2021-09-13T06:35:05.000Z</time>
      </trkpt>
      <trkpt lat="46.28324" lon="4.83017">
        <ele>174.323603</ele>
        <time>2021-09-13T06:35:13.000Z</time>
      </trkpt>
      <trkpt lat="46.28267" lon="4.82999">
        <ele>174.270157</ele>
        <time>2021-09-13T06:35:23.000Z</time>
      </trkpt>
      <trkpt lat="46.28212" lon="4.82984">
        <ele>174.228185</ele>
        <time>2021-09-13T06:35:33.000Z</time>
      </trkpt>
      <trkpt lat="46.28167" lon="4.82974">
        <ele>174.199109</ele>
        <time>2021-09-13T06:35:41.000Z</time>
      </trkpt>
      <trkpt lat="46.28122" lon="4.82964">
        <ele>174.169313</ele>
        <time>2021-09-13T06:35:49.000Z</time>
      </trkpt>
      <trkpt lat="46.28078" lon="4.82954">
        <ele>174.140044</ele>
        <time>2021-09-13T06:35:57.000Z</time>
      </trkpt>
      <trkpt lat="46.28031" lon="4.82944">
        <ele>174.098299</ele>
        <time>2021-09-13T06:36:05.000Z</time>
      </trkpt>
      <trkpt lat="46.27989" lon="4.82935">
        <ele>174.058722</ele>
        <time>2021-09-13T06:36:12.000Z</time>
      </trkpt>
      <trkpt lat="46.2794" lon="4.82925">
        <ele>174.012298</ele>
        <time>2021-09-13T06:36:20.000Z</time>
      </trkpt>
      <trkpt lat="46.2789" lon="4.82915">
        <ele>173.964863</ele>
        <time>2021-09-13T06:36:28.000Z</time>
      </trkpt>
      <trkpt lat="46.27853" lon="4.82908">
        <ele>173.922076</ele>
        <time>2021-09-13T06:36:34.000Z</time>
      </trkpt>
      <trkpt lat="46.27812" lon="4.82899">
        <ele>173.873187</ele>
        <time>2021-09-13T06:36:41.000Z</time>
      </trkpt>
      <trkpt lat="46.27764" lon="4.82889">
        <ele>173.81759</ele>
        <time>2021-09-13T06:36:49.000Z</time>
      </trkpt>
      <trkpt lat="46.27754" lon="4.82896">
        <ele>173.804683</ele>
        <time>2021-09-13T06:36:51.000Z</time>
      </trkpt>
      <trkpt lat="46.2775" lon="4.829">
        <ele>173.798701</ele>
        <time>2021-09-13T06:36:52.000Z</time>
      </trkpt>
      <trkpt lat="46.27743" lon="4.82909">
        <ele>173.787541</ele>
        <time>2021-09-13T06:36:54.000Z</time>
      </trkpt>
      <trkpt lat="46.27732" lon="4.8291">
        <ele>173.775313</ele>
        <time>2021-09-13T06:36:56.000Z</time>
      </trkpt>
      <trkpt lat="46.27726" lon="4.82899">
        <ele>173.763924</ele>
        <time>2021-09-13T06:36:58.000Z</time>
      </trkpt>
      <trkpt lat="46.27722" lon="4.82893">
        <ele>173.75675</ele>
        <time>2021-09-13T06:36:59.000Z</time>
      </trkpt>
      <trkpt lat="46.27693" lon="4.82882">
        <ele>173.709882</ele>
        <time>2021-09-13T06:37:04.000Z</time>
      </trkpt>
      <trkpt lat="46.27681" lon="4.8288">
        <ele>173.691454</ele>
        <time>2021-09-13T06:37:06.000Z</time>
      </trkpt>
      <trkpt lat="46.27668" lon="4.82875">
        <ele>173.672342</ele>
        <time>2021-09-13T06:37:08.000Z</time>
      </trkpt>
      <trkpt lat="46.2764" lon="4.82864">
        <ele>173.627605</ele>
        <time>2021-09-13T06:37:13.000Z</time>
      </trkpt>
      <trkpt lat="46.27635" lon="4.82861">
        <ele>173.61937</ele>
        <time>2021-09-13T06:37:14.000Z</time>
      </trkpt>
      <trkpt lat="46.2763" lon="4.82859">
        <ele>173.611105</ele>
        <time>2021-09-13T06:37:15.000Z</time>
      </trkpt>
      <trkpt lat="46.27613" lon="4.82851">
        <ele>173.583833</ele>
        <time>2021-09-13T06:37:18.000Z</time>
      </trkpt>
      <trkpt lat="46.27568" lon="4.82827">
        <ele>173.511114</ele>
        <time>2021-09-13T06:37:26.000Z</time>
      </trkpt>
      <trkpt lat="46.27556" lon="4.8282">
        <ele>173.492101</ele>
        <time>2021-09-13T06:37:28.000Z</time>
      </trkpt>
      <trkpt lat="46.27539" lon="4.82809">
        <ele>173.496115</ele>
        <time>2021-09-13T06:37:31.000Z</time>
      </trkpt>
      <trkpt lat="46.27534" lon="4.82805">
        <ele>173.500198</ele>
        <time>2021-09-13T06:37:32.000Z</time>
      </trkpt>
      <trkpt lat="46.27523" lon="4.82795">
        <ele>173.508077</ele>
        <time>2021-09-13T06:37:34.000Z</time>
      </trkpt>
      <trkpt lat="46.27519" lon="4.8279">
        <ele>173.511751</ele>
        <time>2021-09-13T06:37:35.000Z</time>
      </trkpt>
      <trkpt lat="46.27513" lon="4.82785">
        <ele>173.515929</ele>
        <time>2021-09-13T06:37:36.000Z</time>
      </trkpt>
      <trkpt lat="46.2749" lon="4.82771">
        <ele>173.531866</ele>
        <time>2021-09-13T06:37:40.000Z</time>
      </trkpt>
      <trkpt lat="46.27484" lon="4.82766">
        <ele>173.535672</ele>
        <time>2021-09-13T06:37:41.000Z</time>
      </trkpt>
      <trkpt lat="46.27464" lon="4.82745">
        <ele>173.551634</ele>
        <time>2021-09-13T06:37:45.000Z</time>
      </trkpt>
      <trkpt lat="46.27433" lon="4.82716">
        <ele>173.574887</ele>
        <time>2021-09-13T06:37:51.000Z</time>
      </trkpt>
      <trkpt lat="46.27427" lon="4.82713">
        <ele>173.578677</ele>
        <time>2021-09-13T06:37:52.000Z</time>
      </trkpt>
      <trkpt lat="46.27393" lon="4.82693">
        <ele>173.600449</ele>
        <time>2021-09-13T06:37:58.000Z</time>
      </trkpt>
      <trkpt lat="46.27382" lon="4.82687">
        <ele>173.602207</ele>
        <time>2021-09-13T06:38:00.000Z</time>
      </trkpt>
      <trkpt lat="46.27371" lon="4.82682">
        <ele>173.603874</ele>
        <time>2021-09-13T06:38:02.000Z</time>
      </trkpt>
      <trkpt lat="46.27365" lon="4.8268">
        <ele>173.604675</ele>
        <time>2021-09-13T06:38:03.000Z</time>
      </trkpt>
      <trkpt lat="46.27341" lon="4.82675">
        <ele>173.60823</ele>
        <time>2021-09-13T06:38:07.000Z</time>
      </trkpt>
      <trkpt lat="46.27336" lon="4.82673">
        <ele>173.609091</ele>
        <time>2021-09-13T06:38:08.000Z</time>
      </trkpt>
      <trkpt lat="46.27313" lon="4.82665">
        <ele>173.612465</ele>
        <time>2021-09-13T06:38:12.000Z</time>
      </trkpt>
      <trkpt lat="46.27303" lon="4.82657">
        <ele>173.614105</ele>
        <time>2021-09-13T06:38:14.000Z</time>
      </trkpt>
      <trkpt lat="46.27288" lon="4.82646">
        <ele>173.616623</ele>
        <time>2021-09-13T06:38:17.000Z</time>
      </trkpt>
      <trkpt lat="46.27246" lon="4.82615">
        <ele>173.623488</ele>
        <time>2021-09-13T06:38:25.000Z</time>
      </trkpt>
      <trkpt lat="46.27236" lon="4.82607">
        <ele>173.625199</ele>
        <time>2021-09-13T06:38:27.000Z</time>
      </trkpt>
      <trkpt lat="46.27225" lon="4.82599">
        <ele>173.629012</ele>
        <time>2021-09-13T06:38:29.000Z</time>
      </trkpt>
      <trkpt lat="46.2722" lon="4.82595">
        <ele>173.632664</ele>
        <time>2021-09-13T06:38:30.000Z</time>
      </trkpt>
      <trkpt lat="46.27204" lon="4.82583">
        <ele>173.643819</ele>
        <time>2021-09-13T06:38:33.000Z</time>
      </trkpt>
      <trkpt lat="46.27194" lon="4.82573">
        <ele>173.650972</ele>
        <time>2021-09-13T06:38:35.000Z</time>
      </trkpt>
      <trkpt lat="46.27165" lon="4.82543">
        <ele>173.672676</ele>
        <time>2021-09-13T06:38:41.000Z</time>
      </trkpt>
      <trkpt lat="46.2716" lon="4.82539">
        <ele>173.67624</ele>
        <time>2021-09-13T06:38:42.000Z</time>
      </trkpt>
      <trkpt lat="46.27147" lon="4.82525">
        <ele>173.686536</ele>
        <time>2021-09-13T06:38:45.000Z</time>
      </trkpt>
      <trkpt lat="46.27122" lon="4.825">
        <ele>173.705073</ele>
        <time>2021-09-13T06:38:50.000Z</time>
      </trkpt>
      <trkpt lat="46.27117" lon="4.82494">
        <ele>173.708884</ele>
        <time>2021-09-13T06:38:51.000Z</time>
      </trkpt>
      <trkpt lat="46.27096" lon="4.82476">
        <ele>173.723694</ele>
        <time>2021-09-13T06:38:55.000Z</time>
      </trkpt>
      <trkpt lat="46.2709" lon="4.82472">
        <ele>173.727381</ele>
        <time>2021-09-13T06:38:56.000Z</time>
      </trkpt>
      <trkpt lat="46.27069" lon="4.82458">
        <ele>173.739</ele>
        <time>2021-09-13T06:39:00.000Z</time>
      </trkpt>
      <trkpt lat="46.27036" lon="4.82435">
        <ele>173.750179</ele>
        <time>2021-09-13T06:39:06.000Z</time>
      </trkpt>
      <trkpt lat="46.26993" lon="4.82402">
        <ele>173.765097</ele>
        <time>2021-09-13T06:39:14.000Z</time>
      </trkpt>
      <trkpt lat="46.26956" lon="4.82372">
        <ele>173.778061</ele>
        <time>2021-09-13T06:39:21.000Z</time>
      </trkpt>
      <trkpt lat="46.26925" lon="4.82345">
        <ele>173.789059</ele>
        <time>2021-09-13T06:39:27.000Z</time>
      </trkpt>
      <trkpt lat="46.26915" lon="4.82336">
        <ele>173.789246</ele>
        <time>2021-09-13T06:39:29.000Z</time>
      </trkpt>
      <trkpt lat="46.269" lon="4.82322">
        <ele>173.782411</ele>
        <time>2021-09-13T06:39:32.000Z</time>
      </trkpt>
      <trkpt lat="46.26865" lon="4.82288">
        <ele>173.7664</ele>
        <time>2021-09-13T06:39:39.000Z</time>
      </trkpt>
      <trkpt lat="46.26832" lon="4.82256">
        <ele>173.751087</ele>
        <time>2021-09-13T06:39:46.000Z</time>
      </trkpt>
      <trkpt lat="46.26818" lon="4.82243">
        <ele>173.744634</ele>
        <time>2021-09-13T06:39:49.000Z</time>
      </trkpt>
      <trkpt lat="46.26809" lon="4.82233">
        <ele>173.740215</ele>
        <time>2021-09-13T06:39:51.000Z</time>
      </trkpt>
      <trkpt lat="46.26791" lon="4.82212">
        <ele>173.731535</ele>
        <time>2021-09-13T06:39:55.000Z</time>
      </trkpt>
      <trkpt lat="46.26756" lon="4.8217">
        <ele>173.737137</ele>
        <time>2021-09-13T06:40:03.000Z</time>
      </trkpt>
      <trkpt lat="46.26715" lon="4.82122">
        <ele>173.773625</ele>
        <time>2021-09-13T06:40:12.000Z</time>
      </trkpt>
      <trkpt lat="46.26686" lon="4.82089">
        <ele>173.798703</ele>
        <time>2021-09-13T06:40:18.000Z</time>
      </trkpt>
      <trkpt lat="46.26657" lon="4.82058">
        <ele>173.823244</ele>
        <time>2021-09-13T06:40:24.000Z</time>
      </trkpt>
      <trkpt lat="46.26633" lon="4.82031">
        <ele>173.844567</ele>
        <time>2021-09-13T06:40:30.000Z</time>
      </trkpt>
      <trkpt lat="46.26607" lon="4.81996">
        <ele>173.815584</ele>
        <time>2021-09-13T06:40:36.000Z</time>
      </trkpt>
      <trkpt lat="46.26573" lon="4.81949">
        <ele>173.772052</ele>
        <time>2021-09-13T06:40:44.000Z</time>
      </trkpt>
      <trkpt lat="46.26541" lon="4.81905">
        <ele>173.73186</ele>
        <time>2021-09-13T06:40:51.000Z</time>
      </trkpt>
      <trkpt lat="46.26536" lon="4.81899">
        <ele>173.726212</ele>
        <time>2021-09-13T06:40:52.000Z</time>
      </trkpt>
      <trkpt lat="46.26509" lon="4.81864">
        <ele>173.692883</ele>
        <time>2021-09-13T06:40:58.000Z</time>
      </trkpt>
      <trkpt lat="46.26483" lon="4.81831">
        <ele>173.642864</ele>
        <time>2021-09-13T06:41:04.000Z</time>
      </trkpt>
      <trkpt lat="46.26475" lon="4.81821">
        <ele>173.624773</ele>
        <time>2021-09-13T06:41:06.000Z</time>
      </trkpt>
      <trkpt lat="46.26466" lon="4.8182">
        <ele>173.608286</ele>
        <time>2021-09-13T06:41:08.000Z</time>
      </trkpt>
      <trkpt lat="46.2646" lon="4.81829">
        <ele>173.59418</ele>
        <time>2021-09-13T06:41:10.000Z</time>
      </trkpt>
      <trkpt lat="46.26457" lon="4.81834">
        <ele>173.585938</ele>
        <time>2021-09-13T06:41:11.000Z</time>
      </trkpt>
      <trkpt lat="46.26437" lon="4.81865">
        <ele>173.535876</ele>
        <time>2021-09-13T06:41:17.000Z</time>
      </trkpt>
      <trkpt lat="46.26401" lon="4.81923">
        <ele>173.441821</ele>
        <time>2021-09-13T06:41:26.000Z</time>
      </trkpt>
      <trkpt lat="46.26389" lon="4.81941">
        <ele>173.411818</ele>
        <time>2021-09-13T06:41:29.000Z</time>
      </trkpt>
      <trkpt lat="46.26386" lon="4.81946">
        <ele>173.403577</ele>
        <time>2021-09-13T06:41:30.000Z</time>
      </trkpt>
      <trkpt lat="46.26376" lon="4.81949">
        <ele>173.386747</ele>
        <time>2021-09-13T06:41:31.000Z</time>
      </trkpt>
      <trkpt lat="46.26367" lon="4.81942">
        <ele>173.371557</ele>
        <time>2021-09-13T06:41:33.000Z</time>
      </trkpt>
      <trkpt lat="46.26345" lon="4.81926">
        <ele>173.409542</ele>
        <time>2021-09-13T06:41:37.000Z</time>
      </trkpt>
      <trkpt lat="46.26339" lon="4.81923">
        <ele>173.418899</ele>
        <time>2021-09-13T06:41:38.000Z</time>
      </trkpt>
      <trkpt lat="46.26321" lon="4.81918">
        <ele>173.447198</ele>
        <time>2021-09-13T06:41:41.000Z</time>
      </trkpt>
      <trkpt lat="46.26308" lon="4.81917">
        <ele>173.466368</ele>
        <time>2021-09-13T06:41:43.000Z</time>
      </trkpt>
      <trkpt lat="46.26284" lon="4.81915">
        <ele>173.502698</ele>
        <time>2021-09-13T06:41:47.000Z</time>
      </trkpt>
      <trkpt lat="46.26279" lon="4.81913">
        <ele>173.511233</ele>
        <time>2021-09-13T06:41:48.000Z</time>
      </trkpt>
      <trkpt lat="46.26274" lon="4.81909">
        <ele>173.520326</ele>
        <time>2021-09-13T06:41:49.000Z</time>
      </trkpt>
      <trkpt lat="46.26265" lon="4.81899">
        <ele>173.536905</ele>
        <time>2021-09-13T06:41:51.000Z</time>
      </trkpt>
      <trkpt lat="46.26262" lon="4.81893">
        <ele>173.545266</ele>
        <time>2021-09-13T06:41:52.000Z</time>
      </trkpt>
      <trkpt lat="46.26256" lon="4.81879">
        <ele>173.56242</ele>
        <time>2021-09-13T06:41:54.000Z</time>
      </trkpt>
      <trkpt lat="46.26253" lon="4.81872">
        <ele>173.571477</ele>
        <time>2021-09-13T06:41:55.000Z</time>
      </trkpt>
      <trkpt lat="46.2625" lon="4.81864">
        <ele>173.580536</ele>
        <time>2021-09-13T06:41:56.000Z</time>
      </trkpt>
      <trkpt lat="46.26242" lon="4.81822">
        <ele>173.627706</ele>
        <time>2021-09-13T06:42:01.000Z</time>
      </trkpt>
      <trkpt lat="46.2624" lon="4.81813">
        <ele>173.637059</ele>
        <time>2021-09-13T06:42:02.000Z</time>
      </trkpt>
      <trkpt lat="46.26238" lon="4.81796">
        <ele>173.649002</ele>
        <time>2021-09-13T06:42:04.000Z</time>
      </trkpt>
      <trkpt lat="46.26236" lon="4.81788">
        <ele>173.652495</ele>
        <time>2021-09-13T06:42:05.000Z</time>
      </trkpt>
      <trkpt lat="46.26234" lon="4.81771">
        <ele>173.659302</ele>
        <time>2021-09-13T06:42:07.000Z</time>
      </trkpt>
      <trkpt lat="46.26225" lon="4.81748">
        <ele>173.669297</ele>
        <time>2021-09-13T06:42:10.000Z</time>
      </trkpt>
      <trkpt lat="46.26222" lon="4.81741">
        <ele>173.672617</ele>
        <time>2021-09-13T06:42:11.000Z</time>
      </trkpt>
      <trkpt lat="46.2621" lon="4.81724">
        <ele>173.682402</ele>
        <time>2021-09-13T06:42:14.000Z</time>
      </trkpt>
      <trkpt lat="46.26206" lon="4.81719">
        <ele>173.685573</ele>
        <time>2021-09-13T06:42:15.000Z</time>
      </trkpt>
      <trkpt lat="46.26189" lon="4.81698">
        <ele>173.69809</ele>
        <time>2021-09-13T06:42:19.000Z</time>
      </trkpt>
      <trkpt lat="46.26185" lon="4.81695">
        <ele>173.700923</ele>
        <time>2021-09-13T06:42:20.000Z</time>
      </trkpt>
      <trkpt lat="46.26175" lon="4.81696">
        <ele>173.706767</ele>
        <time>2021-09-13T06:42:22.000Z</time>
      </trkpt>
      <trkpt lat="46.26164" lon="4.81704">
        <ele>173.713311</ele>
        <time>2021-09-13T06:42:24.000Z</time>
      </trkpt>
      <trkpt lat="46.26156" lon="4.81717">
        <ele>173.720184</ele>
        <time>2021-09-13T06:42:26.000Z</time>
      </trkpt>
      <trkpt lat="46.26142" lon="4.81761">
        <ele>173.739298</ele>
        <time>2021-09-13T06:42:31.000Z</time>
      </trkpt>
      <trkpt lat="46.2614" lon="4.81769">
        <ele>173.742997</ele>
        <time>2021-09-13T06:42:32.000Z</time>
      </trkpt>
      <trkpt lat="46.26134" lon="4.81785">
        <ele>173.726392</ele>
        <time>2021-09-13T06:42:34.000Z</time>
      </trkpt>
      <trkpt lat="46.26131" lon="4.81793">
        <ele>173.690446</ele>
        <time>2021-09-13T06:42:35.000Z</time>
      </trkpt>
      <trkpt lat="46.26126" lon="4.81798">
        <ele>173.654393</ele>
        <time>2021-09-13T06:42:36.000Z</time>
      </trkpt>
      <trkpt lat="46.26115" lon="4.81807">
        <ele>173.582564</ele>
        <time>2021-09-13T06:42:38.000Z</time>
      </trkpt>
      <trkpt lat="46.26091" lon="4.81818">
        <ele>173.434994</ele>
        <time>2021-09-13T06:42:42.000Z</time>
      </trkpt>
      <trkpt lat="46.2606" lon="4.81832">
        <ele>173.246011</ele>
        <time>2021-09-13T06:42:47.000Z</time>
      </trkpt>
      <trkpt lat="46.26054" lon="4.81835">
        <ele>173.207323</ele>
        <time>2021-09-13T06:42:48.000Z</time>
      </trkpt>
      <trkpt lat="46.26044" lon="4.81843">
        <ele>173.139843</ele>
        <time>2021-09-13T06:42:50.000Z</time>
      </trkpt>
      <trkpt lat="46.26041" lon="4.8185">
        <ele>173.107505</ele>
        <time>2021-09-13T06:42:51.000Z</time>
      </trkpt>
      <trkpt lat="46.26038" lon="4.81858">
        <ele>173.071852</ele>
        <time>2021-09-13T06:42:52.000Z</time>
      </trkpt>
      <trkpt lat="46.2603" lon="4.81883">
        <ele>172.959032</ele>
        <time>2021-09-13T06:42:55.000Z</time>
      </trkpt>
      <trkpt lat="46.26025" lon="4.81899">
        <ele>172.884923</ele>
        <time>2021-09-13T06:42:57.000Z</time>
      </trkpt>
      <trkpt lat="46.26011" lon="4.81939">
        <ele>172.705095</ele>
        <time>2021-09-13T06:43:02.000Z</time>
      </trkpt>
      <trkpt lat="46.25996" lon="4.81985">
        <ele>172.641856</ele>
        <time>2021-09-13T06:43:08.000Z</time>
      </trkpt>
      <trkpt lat="46.25993" lon="4.81992">
        <ele>172.632818</ele>
        <time>2021-09-13T06:43:09.000Z</time>
      </trkpt>
      <trkpt lat="46.25991" lon="4.82">
        <ele>172.62338</ele>
        <time>2021-09-13T06:43:10.000Z</time>
      </trkpt>
      <trkpt lat="46.25983" lon="4.82024">
        <ele>172.59355</ele>
        <time>2021-09-13T06:43:13.000Z</time>
      </trkpt>
      <trkpt lat="46.25968" lon="4.82069">
        <ele>172.538053</ele>
        <time>2021-09-13T06:43:19.000Z</time>
      </trkpt>
      <trkpt lat="46.25953" lon="4.82117">
        <ele>172.480075</ele>
        <time>2021-09-13T06:43:25.000Z</time>
      </trkpt>
      <trkpt lat="46.25949" lon="4.82132">
        <ele>172.462468</ele>
        <time>2021-09-13T06:43:27.000Z</time>
      </trkpt>
      <trkpt lat="46.25944" lon="4.82146">
        <ele>172.44453</ele>
        <time>2021-09-13T06:43:29.000Z</time>
      </trkpt>
      <trkpt lat="46.25933" lon="4.82184">
        <ele>172.362099</ele>
        <time>2021-09-13T06:43:34.000Z</time>
      </trkpt>
      <trkpt lat="46.25926" lon="4.82206">
        <ele>172.198038</ele>
        <time>2021-09-13T06:43:37.000Z</time>
      </trkpt>
      <trkpt lat="46.2592" lon="4.82216">
        <ele>172.107985</ele>
        <time>2021-09-13T06:43:39.000Z</time>
      </trkpt>
      <trkpt lat="46.25912" lon="4.8222">
        <ele>172.024369</ele>
        <time>2021-09-13T06:43:41.000Z</time>
      </trkpt>
      <trkpt lat="46.25907" lon="4.82219">
        <ele>171.975938</ele>
        <time>2021-09-13T06:43:42.000Z</time>
      </trkpt>
      <trkpt lat="46.25901" lon="4.82219">
        <ele>171.9247</ele>
        <time>2021-09-13T06:43:43.000Z</time>
      </trkpt>
      <trkpt lat="46.25884" lon="4.82216">
        <ele>171.759233</ele>
        <time>2021-09-13T06:43:46.000Z</time>
      </trkpt>
      <trkpt lat="46.25873" lon="4.82214">
        <ele>171.646983</ele>
        <time>2021-09-13T06:43:48.000Z</time>
      </trkpt>
      <trkpt lat="46.25856" lon="4.82211">
        <ele>171.482714</ele>
        <time>2021-09-13T06:43:51.000Z</time>
      </trkpt>
      <trkpt lat="46.25838" lon="4.82207">
        <ele>171.313492</ele>
        <time>2021-09-13T06:43:54.000Z</time>
      </trkpt>
      <trkpt lat="46.25821" lon="4.82204">
        <ele>171.142269</ele>
        <time>2021-09-13T06:43:57.000Z</time>
      </trkpt>
      <trkpt lat="46.25815" lon="4.82203">
        <ele>171.086907</ele>
        <time>2021-09-13T06:43:58.000Z</time>
      </trkpt>
      <trkpt lat="46.25793" lon="4.82198">
        <ele>170.871949</ele>
        <time>2021-09-13T06:44:02.000Z</time>
      </trkpt>
      <trkpt lat="46.25764" lon="4.82192">
        <ele>170.537793</ele>
        <time>2021-09-13T06:44:07.000Z</time>
      </trkpt>
      <trkpt lat="46.25753" lon="4.8219">
        <ele>170.354023</ele>
        <time>2021-09-13T06:44:09.000Z</time>
      </trkpt>
      <trkpt lat="46.25748" lon="4.82189">
        <ele>170.267042</ele>
        <time>2021-09-13T06:44:10.000Z</time>
      </trkpt>
      <trkpt lat="46.25727" lon="4.82184">
        <ele>169.920727</ele>
        <time>2021-09-13T06:44:14.000Z</time>
      </trkpt>
      <trkpt lat="46.25721" lon="4.82183">
        <ele>169.830529</ele>
        <time>2021-09-13T06:44:15.000Z</time>
      </trkpt>
      <trkpt lat="46.2571" lon="4.8218">
        <ele>169.642798</ele>
        <time>2021-09-13T06:44:17.000Z</time>
      </trkpt>
      <trkpt lat="46.25705" lon="4.82177">
        <ele>169.551349</ele>
        <time>2021-09-13T06:44:18.000Z</time>
      </trkpt>
      <trkpt lat="46.25683" lon="4.82168">
        <ele>169.180246</ele>
        <time>2021-09-13T06:44:22.000Z</time>
      </trkpt>
      <trkpt lat="46.25672" lon="4.82163">
        <ele>168.993915</ele>
        <time>2021-09-13T06:44:24.000Z</time>
      </trkpt>
      <trkpt lat="46.25639" lon="4.82149">
        <ele>168.440233</ele>
        <time>2021-09-13T06:44:30.000Z</time>
      </trkpt>
      <trkpt lat="46.25628" lon="4.82145">
        <ele>168.255777</ele>
        <time>2021-09-13T06:44:32.000Z</time>
      </trkpt>
      <trkpt lat="46.25618" lon="4.8214">
        <ele>168.08442</ele>
        <time>2021-09-13T06:44:34.000Z</time>
      </trkpt>
      <trkpt lat="46.25613" lon="4.82138">
        <ele>167.999839</ele>
        <time>2021-09-13T06:44:35.000Z</time>
      </trkpt>
      <trkpt lat="46.25581" lon="4.82125">
        <ele>167.684957</ele>
        <time>2021-09-13T06:44:41.000Z</time>
      </trkpt>
      <trkpt lat="46.25575" lon="4.82122">
        <ele>167.662673</ele>
        <time>2021-09-13T06:44:42.000Z</time>
      </trkpt>
      <trkpt lat="46.2557" lon="4.8212">
        <ele>167.640462</ele>
        <time>2021-09-13T06:44:43.000Z</time>
      </trkpt>
      <trkpt lat="46.25549" lon="4.82111">
        <ele>167.558592</ele>
        <time>2021-09-13T06:44:47.000Z</time>
      </trkpt>
      <trkpt lat="46.25544" lon="4.82109">
        <ele>167.539039</ele>
        <time>2021-09-13T06:44:48.000Z</time>
      </trkpt>
      <trkpt lat="46.25533" lon="4.82109">
        <ele>167.497845</ele>
        <time>2021-09-13T06:44:50.000Z</time>
      </trkpt>
      <trkpt lat="46.25523" lon="4.82118">
        <ele>167.456746</ele>
        <time>2021-09-13T06:44:52.000Z</time>
      </trkpt>
      <trkpt lat="46.25519" lon="4.82131">
        <ele>167.419574</ele>
        <time>2021-09-13T06:44:54.000Z</time>
      </trkpt>
      <trkpt lat="46.25515" lon="4.82143">
        <ele>167.383238</ele>
        <time>2021-09-13T06:44:56.000Z</time>
      </trkpt>
      <trkpt lat="46.25501" lon="4.82187">
        <ele>167.259429</ele>
        <time>2021-09-13T06:45:02.000Z</time>
      </trkpt>
      <trkpt lat="46.25496" lon="4.82201">
        <ele>167.220508</ele>
        <time>2021-09-13T06:45:04.000Z</time>
      </trkpt>
      <trkpt lat="46.2549" lon="4.82211">
        <ele>167.183415</ele>
        <time>2021-09-13T06:45:06.000Z</time>
      </trkpt>
      <trkpt lat="46.25473" lon="4.82224">
        <ele>167.112079</ele>
        <time>2021-09-13T06:45:10.000Z</time>
      </trkpt>
      <trkpt lat="46.25459" lon="4.82232">
        <ele>167.20136</ele>
        <time>2021-09-13T06:45:13.000Z</time>
      </trkpt>
      <trkpt lat="46.25444" lon="4.82242">
        <ele>167.493151</ele>
        <time>2021-09-13T06:45:16.000Z</time>
      </trkpt>
      <trkpt lat="46.25429" lon="4.82251">
        <ele>167.789226</ele>
        <time>2021-09-13T06:45:19.000Z</time>
      </trkpt>
      <trkpt lat="46.25418" lon="4.82255">
        <ele>167.987916</ele>
        <time>2021-09-13T06:45:21.000Z</time>
      </trkpt>
      <trkpt lat="46.25386" lon="4.82259">
        <ele>168.562255</ele>
        <time>2021-09-13T06:45:27.000Z</time>
      </trkpt>
      <trkpt lat="46.25347" lon="4.82259">
        <ele>169.265887</ele>
        <time>2021-09-13T06:45:34.000Z</time>
      </trkpt>
      <trkpt lat="46.25325" lon="4.82264">
        <ele>169.673511</ele>
        <time>2021-09-13T06:45:39.000Z</time>
      </trkpt>
      <trkpt lat="46.25325" lon="4.82267">
        <ele>169.709906</ele>
        <time>2021-09-13T06:45:42.000Z</time>
      </trkpt>
      <trkpt lat="46.25325" lon="4.82269">
        <ele>169.728866</ele>
        <time>2021-09-13T06:45:45.000Z</time>
      </trkpt>
      <trkpt lat="46.25326" lon="4.82274">
        <ele>169.795524</ele>
        <time>2021-09-13T06:46:04.000Z</time>
      </trkpt>
      <trkpt lat="46.25327" lon="4.82277">
        <ele>169.835362</ele>
        <time>2021-09-13T06:46:05.000Z</time>
      </trkpt>
      <trkpt lat="46.25336" lon="4.82297">
        <ele>170.129458</ele>
        <time>2021-09-13T06:46:10.000Z</time>
      </trkpt>
      <trkpt lat="46.25336" lon="4.82308">
        <ele>170.273479</ele>
        <time>2021-09-13T06:46:12.000Z</time>
      </trkpt>
      <trkpt lat="46.25332" lon="4.82313">
        <ele>170.38012</ele>
        <time>2021-09-13T06:46:14.000Z</time>
      </trkpt>
      <trkpt lat="46.25314" lon="4.82322">
        <ele>170.779114</ele>
        <time>2021-09-13T06:46:20.000Z</time>
      </trkpt>
      <trkpt lat="46.25294" lon="4.82333">
        <ele>171.214973</ele>
        <time>2021-09-13T06:46:26.000Z</time>
      </trkpt>
      <trkpt lat="46.25277" lon="4.82345">
        <ele>171.620051</ele>
        <time>2021-09-13T06:46:32.000Z</time>
      </trkpt>
      <trkpt lat="46.25257" lon="4.82359">
        <ele>172.08779</ele>
        <time>2021-09-13T06:46:39.000Z</time>
      </trkpt>
      <trkpt lat="46.25236" lon="4.82374">
        <ele>172.576417</ele>
        <time>2021-09-13T06:46:46.000Z</time>
      </trkpt>
      <trkpt lat="46.25224" lon="4.82382">
        <ele>172.854909</ele>
        <time>2021-09-13T06:46:50.000Z</time>
      </trkpt>
      <trkpt lat="46.25207" lon="4.82394">
        <ele>173.264418</ele>
        <time>2021-09-13T06:46:56.000Z</time>
      </trkpt>
      <trkpt lat="46.25195" lon="4.82402">
        <ele>173.54291</ele>
        <time>2021-09-13T06:47:00.000Z</time>
      </trkpt>
      <trkpt lat="46.25176" lon="4.82416">
        <ele>173.996725</ele>
        <time>2021-09-13T06:47:06.000Z</time>
      </trkpt>
      <trkpt lat="46.25145" lon="4.82437">
        <ele>174.330136</ele>
        <time>2021-09-13T06:47:16.000Z</time>
      </trkpt>
      <trkpt lat="46.2513" lon="4.82448">
        <ele>174.470646</ele>
        <time>2021-09-13T06:47:21.000Z</time>
      </trkpt>
      <trkpt lat="46.25113" lon="4.82459">
        <ele>174.615286</ele>
        <time>2021-09-13T06:47:26.000Z</time>
      </trkpt>
      <trkpt lat="46.25087" lon="4.82476">
        <ele>174.850077</ele>
        <time>2021-09-13T06:47:33.000Z</time>
      </trkpt>
      <trkpt lat="46.25064" lon="4.82487">
        <ele>175.037495</ele>
        <time>2021-09-13T06:47:39.000Z</time>
      </trkpt>
      <trkpt lat="46.2504" lon="4.82492">
        <ele>175.233868</ele>
        <time>2021-09-13T06:47:46.000Z</time>
      </trkpt>
      <trkpt lat="46.25021" lon="4.82496">
        <ele>175.39203</ele>
        <time>2021-09-13T06:47:52.000Z</time>
      </trkpt>
      <trkpt lat="46.25001" lon="4.82501">
        <ele>175.54635</ele>
        <time>2021-09-13T06:47:58.000Z</time>
      </trkpt>
      <trkpt lat="46.24981" lon="4.82512">
        <ele>175.579997</ele>
        <time>2021-09-13T06:48:04.000Z</time>
      </trkpt>
      <trkpt lat="46.24966" lon="4.82521">
        <ele>175.605083</ele>
        <time>2021-09-13T06:48:10.000Z</time>
      </trkpt>
      <trkpt lat="46.24958" lon="4.82525">
        <ele>175.619612</ele>
        <time>2021-09-13T06:48:16.000Z</time>
      </trkpt>
      <trkpt lat="46.24948" lon="4.82529">
        <ele>175.635833</ele>
        <time>2021-09-13T06:48:21.000Z</time>
      </trkpt>
      <trkpt lat="46.24933" lon="4.82534">
        <ele>175.660073</ele>
        <time>2021-09-13T06:48:25.000Z</time>
      </trkpt>
      <trkpt lat="46.249" lon="4.82541">
        <ele>175.713265</ele>
        <time>2021-09-13T06:48:32.000Z</time>
      </trkpt>
      <trkpt lat="46.24861" lon="4.82549">
        <ele>175.776209</ele>
        <time>2021-09-13T06:48:40.000Z</time>
      </trkpt>
      <trkpt lat="46.24823" lon="4.82559">
        <ele>175.823149</ele>
        <time>2021-09-13T06:48:48.000Z</time>
      </trkpt>
      <trkpt lat="46.2481" lon="4.82564">
        <ele>175.799994</ele>
        <time>2021-09-13T06:48:51.000Z</time>
      </trkpt>
      <trkpt lat="46.24799" lon="4.8256">
        <ele>175.778773</ele>
        <time>2021-09-13T06:48:53.000Z</time>
      </trkpt>
      <trkpt lat="46.24798" lon="4.82554">
        <ele>175.770949</ele>
        <time>2021-09-13T06:48:54.000Z</time>
      </trkpt>
      <trkpt lat="46.24795" lon="4.8254">
        <ele>175.753266</ele>
        <time>2021-09-13T06:48:56.000Z</time>
      </trkpt>
      <trkpt lat="46.2479" lon="4.82508">
        <ele>175.713467</ele>
        <time>2021-09-13T06:49:01.000Z</time>
      </trkpt>
      <trkpt lat="46.24787" lon="4.82497">
        <ele>175.698716</ele>
        <time>2021-09-13T06:49:03.000Z</time>
      </trkpt>
      <trkpt lat="46.24773" lon="4.82454">
        <ele>175.639626</ele>
        <time>2021-09-13T06:49:10.000Z</time>
      </trkpt>
      <trkpt lat="46.24766" lon="4.82435">
        <ele>175.613875</ele>
        <time>2021-09-13T06:49:14.000Z</time>
      </trkpt>
      <trkpt lat="46.24767" lon="4.82419">
        <ele>175.593887</ele>
        <time>2021-09-13T06:49:17.000Z</time>
      </trkpt>
      <trkpt lat="46.24769" lon="4.82415">
        <ele>175.588224</ele>
        <time>2021-09-13T06:49:18.000Z</time>
      </trkpt>
      <trkpt lat="46.24774" lon="4.82406">
        <ele>175.573454</ele>
        <time>2021-09-13T06:49:20.000Z</time>
      </trkpt>
      <trkpt lat="46.24782" lon="4.82388">
        <ele>175.548218</ele>
        <time>2021-09-13T06:49:23.000Z</time>
      </trkpt>
      <trkpt lat="46.24786" lon="4.82368">
        <ele>175.52185</ele>
        <time>2021-09-13T06:49:26.000Z</time>
      </trkpt>
      <trkpt lat="46.24787" lon="4.82361">
        <ele>175.513061</ele>
        <time>2021-09-13T06:49:27.000Z</time>
      </trkpt>
      <trkpt lat="46.24795" lon="4.82323">
        <ele>175.553284</ele>
        <time>2021-09-13T06:49:32.000Z</time>
      </trkpt>
      <trkpt lat="46.24803" lon="4.82279">
        <ele>175.603799</ele>
        <time>2021-09-13T06:49:38.000Z</time>
      </trkpt>
      <trkpt lat="46.2482" lon="4.82232">
        <ele>175.662873</ele>
        <time>2021-09-13T06:49:44.000Z</time>
      </trkpt>
      <trkpt lat="46.2485" lon="4.8216">
        <ele>175.755705</ele>
        <time>2021-09-13T06:49:53.000Z</time>
      </trkpt>
      <trkpt lat="46.24874" lon="4.82097">
        <ele>175.761677</ele>
        <time>2021-09-13T06:50:01.000Z</time>
      </trkpt>
      <trkpt lat="46.24894" lon="4.82042">
        <ele>175.69076</ele>
        <time>2021-09-13T06:50:08.000Z</time>
      </trkpt>
      <trkpt lat="46.24897" lon="4.82034">
        <ele>175.680032</ele>
        <time>2021-09-13T06:50:09.000Z</time>
      </trkpt>
      <trkpt lat="46.24909" lon="4.81999">
        <ele>175.635228</ele>
        <time>2021-09-13T06:50:13.000Z</time>
      </trkpt>
      <trkpt lat="46.24937" lon="4.81922">
        <ele>175.535201</ele>
        <time>2021-09-13T06:50:22.000Z</time>
      </trkpt>
      <trkpt lat="46.24957" lon="4.81863">
        <ele>175.388457</ele>
        <time>2021-09-13T06:50:29.000Z</time>
      </trkpt>
      <trkpt lat="46.2498" lon="4.81798">
        <ele>175.154878</ele>
        <time>2021-09-13T06:50:37.000Z</time>
      </trkpt>
      <trkpt lat="46.25005" lon="4.81725">
        <ele>174.896437</ele>
        <time>2021-09-13T06:50:46.000Z</time>
      </trkpt>
      <trkpt lat="46.25007" lon="4.81717">
        <ele>174.86819</ele>
        <time>2021-09-13T06:50:47.000Z</time>
      </trkpt>
      <trkpt lat="46.25024" lon="4.81671">
        <ele>174.702375</ele>
        <time>2021-09-13T06:50:53.000Z</time>
      </trkpt>
      <trkpt lat="46.25045" lon="4.81609">
        <ele>174.08756</ele>
        <time>2021-09-13T06:51:01.000Z</time>
      </trkpt>
      <trkpt lat="46.25053" lon="4.81587">
        <ele>173.836536</ele>
        <time>2021-09-13T06:51:04.000Z</time>
      </trkpt>
      <trkpt lat="46.25057" lon="4.81569">
        <ele>173.657257</ele>
        <time>2021-09-13T06:51:06.000Z</time>
      </trkpt>
      <trkpt lat="46.25052" lon="4.81534">
        <ele>173.303584</ele>
        <time>2021-09-13T06:51:10.000Z</time>
      </trkpt>
      <trkpt lat="46.2505" lon="4.81526">
        <ele>173.218354</ele>
        <time>2021-09-13T06:51:11.000Z</time>
      </trkpt>
      <trkpt lat="46.25044" lon="4.81502">
        <ele>172.969618</ele>
        <time>2021-09-13T06:51:14.000Z</time>
      </trkpt>
      <trkpt lat="46.25039" lon="4.81486">
        <ele>172.794708</ele>
        <time>2021-09-13T06:51:16.000Z</time>
      </trkpt>
      <trkpt lat="46.25034" lon="4.8147">
        <ele>172.619631</ele>
        <time>2021-09-13T06:51:18.000Z</time>
      </trkpt>
      <trkpt lat="46.25021" lon="4.8143">
        <ele>172.181493</ele>
        <time>2021-09-13T06:51:23.000Z</time>
      </trkpt>
      <trkpt lat="46.25015" lon="4.81415">
        <ele>172.115045</ele>
        <time>2021-09-13T06:51:25.000Z</time>
      </trkpt>
      <trkpt lat="46.25012" lon="4.81408">
        <ele>172.120021</ele>
        <time>2021-09-13T06:51:26.000Z</time>
      </trkpt>
      <trkpt lat="46.25007" lon="4.81395">
        <ele>172.128502</ele>
        <time>2021-09-13T06:51:28.000Z</time>
      </trkpt>
      <trkpt lat="46.25006" lon="4.81391">
        <ele>172.131361</ele>
        <time>2021-09-13T06:51:29.000Z</time>
      </trkpt>
      <trkpt lat="46.25005" lon="4.81389">
        <ele>172.133037</ele>
        <time>2021-09-13T06:51:30.000Z</time>
      </trkpt>
      <trkpt lat="46.25001" lon="4.81379">
        <ele>172.13974</ele>
        <time>2021-09-13T06:51:32.000Z</time>
      </trkpt>
      <trkpt lat="46.24992" lon="4.81378">
        <ele>172.14746</ele>
        <time>2021-09-13T06:51:36.000Z</time>
      </trkpt>
      <trkpt lat="46.2497" lon="4.81376">
        <ele>172.166458</ele>
        <time>2021-09-13T06:51:41.000Z</time>
      </trkpt>
      <trkpt lat="46.24944" lon="4.81373">
        <ele>172.188751</ele>
        <time>2021-09-13T06:51:46.000Z</time>
      </trkpt>
      <trkpt lat="46.24933" lon="4.81372">
        <ele>172.198119</ele>
        <time>2021-09-13T06:51:48.000Z</time>
      </trkpt>
      <trkpt lat="46.24917" lon="4.8137">
        <ele>172.212433</ele>
        <time>2021-09-13T06:51:51.000Z</time>
      </trkpt>
      <trkpt lat="46.24889" lon="4.81367">
        <ele>172.236374</ele>
        <time>2021-09-13T06:51:56.000Z</time>
      </trkpt>
      <trkpt lat="46.24878" lon="4.81365">
        <ele>172.246177</ele>
        <time>2021-09-13T06:51:58.000Z</time>
      </trkpt>
      <trkpt lat="46.24867" lon="4.81364">
        <ele>172.256067</ele>
        <time>2021-09-13T06:52:00.000Z</time>
      </trkpt>
      <trkpt lat="46.24848" lon="4.81361">
        <ele>172.322259</ele>
        <time>2021-09-13T06:52:03.000Z</time>
      </trkpt>
      <trkpt lat="46.2483" lon="4.81357">
        <ele>172.447</ele>
        <time>2021-09-13T06:52:06.000Z</time>
      </trkpt>
      <trkpt lat="46.24813" lon="4.81352">
        <ele>172.569011</ele>
        <time>2021-09-13T06:52:09.000Z</time>
      </trkpt>
      <trkpt lat="46.24779" lon="4.81344">
        <ele>172.805215</ele>
        <time>2021-09-13T06:52:15.000Z</time>
      </trkpt>
      <trkpt lat="46.24739" lon="4.81336">
        <ele>173.0843</ele>
        <time>2021-09-13T06:52:22.000Z</time>
      </trkpt>
      <trkpt lat="46.24718" lon="4.81332">
        <ele>173.236228</ele>
        <time>2021-09-13T06:52:27.000Z</time>
      </trkpt>
      <trkpt lat="46.24711" lon="4.81331">
        <ele>173.280928</ele>
        <time>2021-09-13T06:52:30.000Z</time>
      </trkpt>
      <trkpt lat="46.2471" lon="4.8133">
        <ele>173.292159</ele>
        <time>2021-09-13T06:52:31.000Z</time>
      </trkpt>
      <trkpt lat="46.24708" lon="4.8133">
        <ele>173.301201</ele>
        <time>2021-09-13T06:52:32.000Z</time>
      </trkpt>
      <trkpt lat="46.24704" lon="4.81329">
        <ele>173.333834</ele>
        <time>2021-09-13T06:52:35.000Z</time>
      </trkpt>
      <trkpt lat="46.24699" lon="4.81329">
        <ele>173.365138</ele>
        <time>2021-09-13T06:52:38.000Z</time>
      </trkpt>
      <trkpt lat="46.24698" lon="4.81328">
        <ele>173.37418</ele>
        <time>2021-09-13T06:52:39.000Z</time>
      </trkpt>
      <trkpt lat="46.24688" lon="4.81327">
        <ele>173.442568</ele>
        <time>2021-09-13T06:52:42.000Z</time>
      </trkpt>
      <trkpt lat="46.24684" lon="4.81326">
        <ele>173.470435</ele>
        <time>2021-09-13T06:52:43.000Z</time>
      </trkpt>
      <trkpt lat="46.2468" lon="4.81325">
        <ele>173.498365</ele>
        <time>2021-09-13T06:52:44.000Z</time>
      </trkpt>
      <trkpt lat="46.24667" lon="4.81323">
        <ele>173.518166</ele>
        <time>2021-09-13T06:52:47.000Z</time>
      </trkpt>
      <trkpt lat="46.24663" lon="4.81322">
        <ele>173.522109</ele>
        <time>2021-09-13T06:52:48.000Z</time>
      </trkpt>
      <trkpt lat="46.24626" lon="4.81314">
        <ele>173.553004</ele>
        <time>2021-09-13T06:52:55.000Z</time>
      </trkpt>
      <trkpt lat="46.24621" lon="4.81312">
        <ele>173.55756</ele>
        <time>2021-09-13T06:52:56.000Z</time>
      </trkpt>
      <trkpt lat="46.24593" lon="4.81302">
        <ele>173.581041</ele>
        <time>2021-09-13T06:53:01.000Z</time>
      </trkpt>
      <trkpt lat="46.24557" lon="4.81288">
        <ele>173.612662</ele>
        <time>2021-09-13T06:53:08.000Z</time>
      </trkpt>
      <trkpt lat="46.24543" lon="4.81283">
        <ele>173.624217</ele>
        <time>2021-09-13T06:53:11.000Z</time>
      </trkpt>
      <trkpt lat="46.24534" lon="4.81279">
        <ele>173.632</ele>
        <time>2021-09-13T06:53:13.000Z</time>
      </trkpt>
      <trkpt lat="46.24529" lon="4.81277">
        <ele>173.636234</ele>
        <time>2021-09-13T06:53:14.000Z</time>
      </trkpt>
      <trkpt lat="46.24519" lon="4.81273">
        <ele>173.645072</ele>
        <time>2021-09-13T06:53:17.000Z</time>
      </trkpt>
      <trkpt lat="46.24511" lon="4.8127">
        <ele>173.65172</ele>
        <time>2021-09-13T06:53:21.000Z</time>
      </trkpt>
      <trkpt lat="46.24499" lon="4.81265">
        <ele>173.6607</ele>
        <time>2021-09-13T06:53:24.000Z</time>
      </trkpt>
      <trkpt lat="46.24489" lon="4.81261">
        <ele>173.666118</ele>
        <time>2021-09-13T06:53:26.000Z</time>
      </trkpt>
      <trkpt lat="46.24447" lon="4.81247">
        <ele>173.688967</ele>
        <time>2021-09-13T06:53:34.000Z</time>
      </trkpt>
      <trkpt lat="46.24408" lon="4.81234">
        <ele>173.709784</ele>
        <time>2021-09-13T06:53:41.000Z</time>
      </trkpt>
      <trkpt lat="46.24369" lon="4.8122">
        <ele>173.730965</ele>
        <time>2021-09-13T06:53:48.000Z</time>
      </trkpt>
      <trkpt lat="46.2433" lon="4.81206">
        <ele>173.751986</ele>
        <time>2021-09-13T06:53:55.000Z</time>
      </trkpt>
      <trkpt lat="46.24302" lon="4.81196">
        <ele>174.00476</ele>
        <time>2021-09-13T06:54:00.000Z</time>
      </trkpt>
      <trkpt lat="46.24269" lon="4.81185">
        <ele>174.318364</ele>
        <time>2021-09-13T06:54:06.000Z</time>
      </trkpt>
      <trkpt lat="46.24227" lon="4.81175">
        <ele>174.707043</ele>
        <time>2021-09-13T06:54:14.000Z</time>
      </trkpt>
      <trkpt lat="46.24203" lon="4.81169">
        <ele>174.930051</ele>
        <time>2021-09-13T06:54:19.000Z</time>
      </trkpt>
      <trkpt lat="46.24188" lon="4.8116">
        <ele>175.082864</ele>
        <time>2021-09-13T06:54:23.000Z</time>
      </trkpt>
      <trkpt lat="46.24182" lon="4.81147">
        <ele>175.185044</ele>
        <time>2021-09-13T06:54:25.000Z</time>
      </trkpt>
      <trkpt lat="46.24175" lon="4.81138">
        <ele>175.263934</ele>
        <time>2021-09-13T06:54:27.000Z</time>
      </trkpt>
      <trkpt lat="46.24171" lon="4.81135">
        <ele>175.306254</ele>
        <time>2021-09-13T06:54:28.000Z</time>
      </trkpt>
      <trkpt lat="46.24162" lon="4.81134">
        <ele>175.396144</ele>
        <time>2021-09-13T06:54:30.000Z</time>
      </trkpt>
      <trkpt lat="46.24151" lon="4.81132">
        <ele>175.425414</ele>
        <time>2021-09-13T06:54:32.000Z</time>
      </trkpt>
      <trkpt lat="46.24135" lon="4.81139">
        <ele>175.455378</ele>
        <time>2021-09-13T06:54:35.000Z</time>
      </trkpt>
      <trkpt lat="46.24124" lon="4.81137">
        <ele>175.474857</ele>
        <time>2021-09-13T06:54:37.000Z</time>
      </trkpt>
      <trkpt lat="46.24113" lon="4.81135">
        <ele>175.49416</ele>
        <time>2021-09-13T06:54:39.000Z</time>
      </trkpt>
      <trkpt lat="46.24107" lon="4.81131">
        <ele>175.505781</ele>
        <time>2021-09-13T06:54:40.000Z</time>
      </trkpt>
      <trkpt lat="46.24102" lon="4.81125">
        <ele>175.517095</ele>
        <time>2021-09-13T06:54:41.000Z</time>
      </trkpt>
      <trkpt lat="46.24087" lon="4.81098">
        <ele>175.55953</ele>
        <time>2021-09-13T06:54:45.000Z</time>
      </trkpt>
      <trkpt lat="46.24079" lon="4.81086">
        <ele>175.579926</ele>
        <time>2021-09-13T06:54:47.000Z</time>
      </trkpt>
      <trkpt lat="46.24069" lon="4.81078">
        <ele>175.599987</ele>
        <time>2021-09-13T06:54:49.000Z</time>
      </trkpt>
      <trkpt lat="46.24064" lon="4.81076">
        <ele>175.61001</ele>
        <time>2021-09-13T06:54:50.000Z</time>
      </trkpt>
      <trkpt lat="46.24058" lon="4.81074">
        <ele>175.619815</ele>
        <time>2021-09-13T06:54:51.000Z</time>
      </trkpt>
      <trkpt lat="46.24047" lon="4.81073">
        <ele>175.639711</ele>
        <time>2021-09-13T06:54:53.000Z</time>
      </trkpt>
      <trkpt lat="46.24041" lon="4.81075">
        <ele>175.649969</ele>
        <time>2021-09-13T06:54:54.000Z</time>
      </trkpt>
      <trkpt lat="46.24031" lon="4.81079">
        <ele>175.668957</ele>
        <time>2021-09-13T06:54:56.000Z</time>
      </trkpt>
      <trkpt lat="46.24021" lon="4.81087">
        <ele>175.689538</ele>
        <time>2021-09-13T06:54:58.000Z</time>
      </trkpt>
      <trkpt lat="46.24014" lon="4.81097">
        <ele>175.707464</ele>
        <time>2021-09-13T06:55:00.000Z</time>
      </trkpt>
      <trkpt lat="46.24004" lon="4.81105">
        <ele>175.727554</ele>
        <time>2021-09-13T06:55:02.000Z</time>
      </trkpt>
      <trkpt lat="46.23992" lon="4.81105">
        <ele>175.70548</ele>
        <time>2021-09-13T06:55:04.000Z</time>
      </trkpt>
      <trkpt lat="46.23986" lon="4.81104">
        <ele>175.693966</ele>
        <time>2021-09-13T06:55:05.000Z</time>
      </trkpt>
      <trkpt lat="46.23945" lon="4.81094">
        <ele>175.612664</ele>
        <time>2021-09-13T06:55:12.000Z</time>
      </trkpt>
      <trkpt lat="46.2391" lon="4.81084">
        <ele>175.543025</ele>
        <time>2021-09-13T06:55:18.000Z</time>
      </trkpt>
      <trkpt lat="46.23885" lon="4.81079">
        <ele>175.494624</ele>
        <time>2021-09-13T06:55:22.000Z</time>
      </trkpt>
      <trkpt lat="46.23873" lon="4.81077">
        <ele>175.471001</ele>
        <time>2021-09-13T06:55:24.000Z</time>
      </trkpt>
      <trkpt lat="46.23845" lon="4.81068">
        <ele>175.41402</ele>
        <time>2021-09-13T06:55:29.000Z</time>
      </trkpt>
      <trkpt lat="46.23833" lon="4.81064">
        <ele>175.390329</ele>
        <time>2021-09-13T06:55:31.000Z</time>
      </trkpt>
      <trkpt lat="46.23797" lon="4.81051">
        <ele>175.394286</ele>
        <time>2021-09-13T06:55:37.000Z</time>
      </trkpt>
      <trkpt lat="46.23781" lon="4.81045">
        <ele>175.403837</ele>
        <time>2021-09-13T06:55:40.000Z</time>
      </trkpt>
      <trkpt lat="46.23775" lon="4.81042">
        <ele>175.407194</ele>
        <time>2021-09-13T06:55:41.000Z</time>
      </trkpt>
      <trkpt lat="46.23741" lon="4.81024">
        <ele>175.42736</ele>
        <time>2021-09-13T06:55:47.000Z</time>
      </trkpt>
      <trkpt lat="46.23713" lon="4.8101">
        <ele>175.443959</ele>
        <time>2021-09-13T06:55:52.000Z</time>
      </trkpt>
      <trkpt lat="46.23681" lon="4.80989">
        <ele>175.463376</ele>
        <time>2021-09-13T06:55:58.000Z</time>
      </trkpt>
      <trkpt lat="46.23671" lon="4.80982">
        <ele>175.469522</ele>
        <time>2021-09-13T06:56:00.000Z</time>
      </trkpt>
      <trkpt lat="46.23655" lon="4.80971">
        <ele>175.472755</ele>
        <time>2021-09-13T06:56:03.000Z</time>
      </trkpt>
      <trkpt lat="46.23624" lon="4.80951">
        <ele>175.420166</ele>
        <time>2021-09-13T06:56:09.000Z</time>
      </trkpt>
      <trkpt lat="46.23606" lon="4.80939">
        <ele>175.389232</ele>
        <time>2021-09-13T06:56:13.000Z</time>
      </trkpt>
      <trkpt lat="46.23584" lon="4.80921">
        <ele>175.351692</ele>
        <time>2021-09-13T06:56:17.000Z</time>
      </trkpt>
      <trkpt lat="46.23558" lon="4.80899">
        <ele>175.303915</ele>
        <time>2021-09-13T06:56:22.000Z</time>
      </trkpt>
      <trkpt lat="46.23548" lon="4.8089">
        <ele>175.285628</ele>
        <time>2021-09-13T06:56:24.000Z</time>
      </trkpt>
      <trkpt lat="46.23528" lon="4.8087">
        <ele>175.247892</ele>
        <time>2021-09-13T06:56:28.000Z</time>
      </trkpt>
      <trkpt lat="46.23522" lon="4.80865">
        <ele>175.238422</ele>
        <time>2021-09-13T06:56:29.000Z</time>
      </trkpt>
      <trkpt lat="46.23478" lon="4.80829">
        <ele>175.198454</ele>
        <time>2021-09-13T06:56:38.000Z</time>
      </trkpt>
      <trkpt lat="46.23455" lon="4.80806">
        <ele>175.196742</ele>
        <time>2021-09-13T06:56:43.000Z</time>
      </trkpt>
      <trkpt lat="46.2345" lon="4.80801">
        <ele>175.196383</ele>
        <time>2021-09-13T06:56:44.000Z</time>
      </trkpt>
      <trkpt lat="46.23445" lon="4.80796">
        <ele>175.196036</ele>
        <time>2021-09-13T06:56:45.000Z</time>
      </trkpt>
      <trkpt lat="46.23427" lon="4.80777">
        <ele>175.194693</ele>
        <time>2021-09-13T06:56:49.000Z</time>
      </trkpt>
      <trkpt lat="46.2341" lon="4.8076">
        <ele>175.19345</ele>
        <time>2021-09-13T06:56:53.000Z</time>
      </trkpt>
      <trkpt lat="46.23387" lon="4.80736">
        <ele>175.191708</ele>
        <time>2021-09-13T06:56:58.000Z</time>
      </trkpt>
      <trkpt lat="46.23352" lon="4.80701">
        <ele>175.187988</ele>
        <time>2021-09-13T06:57:05.000Z</time>
      </trkpt>
      <trkpt lat="46.2332" lon="4.80665">
        <ele>175.074659</ele>
        <time>2021-09-13T06:57:12.000Z</time>
      </trkpt>
      <trkpt lat="46.23292" lon="4.80633">
        <ele>174.976681</ele>
        <time>2021-09-13T06:57:18.000Z</time>
      </trkpt>
      <trkpt lat="46.23266" lon="4.80604">
        <ele>174.883581</ele>
        <time>2021-09-13T06:57:24.000Z</time>
      </trkpt>
      <trkpt lat="46.23257" lon="4.80594">
        <ele>174.853715</ele>
        <time>2021-09-13T06:57:26.000Z</time>
      </trkpt>
      <trkpt lat="46.23246" lon="4.8058">
        <ele>174.811842</ele>
        <time>2021-09-13T06:57:29.000Z</time>
      </trkpt>
      <trkpt lat="46.2323" lon="4.80562">
        <ele>174.754578</ele>
        <time>2021-09-13T06:57:33.000Z</time>
      </trkpt>
      <trkpt lat="46.23226" lon="4.80557">
        <ele>174.740999</ele>
        <time>2021-09-13T06:57:34.000Z</time>
      </trkpt>
      <trkpt lat="46.23202" lon="4.8053">
        <ele>174.620914</ele>
        <time>2021-09-13T06:57:39.000Z</time>
      </trkpt>
      <trkpt lat="46.23169" lon="4.80491">
        <ele>174.372289</ele>
        <time>2021-09-13T06:57:46.000Z</time>
      </trkpt>
      <trkpt lat="46.23138" lon="4.80455">
        <ele>174.143095</ele>
        <time>2021-09-13T06:57:53.000Z</time>
      </trkpt>
      <trkpt lat="46.23112" lon="4.80422">
        <ele>173.93999</ele>
        <time>2021-09-13T06:57:59.000Z</time>
      </trkpt>
      <trkpt lat="46.23099" lon="4.80405">
        <ele>173.841339</ele>
        <time>2021-09-13T06:58:02.000Z</time>
      </trkpt>
      <trkpt lat="46.2309" lon="4.80395">
        <ele>173.77333</ele>
        <time>2021-09-13T06:58:04.000Z</time>
      </trkpt>
      <trkpt lat="46.23071" lon="4.80375">
        <ele>173.640719</ele>
        <time>2021-09-13T06:58:08.000Z</time>
      </trkpt>
      <trkpt lat="46.23067" lon="4.8037">
        <ele>173.635442</ele>
        <time>2021-09-13T06:58:09.000Z</time>
      </trkpt>
      <trkpt lat="46.23062" lon="4.80365">
        <ele>173.630165</ele>
        <time>2021-09-13T06:58:10.000Z</time>
      </trkpt>
      <trkpt lat="46.23044" lon="4.80346">
        <ele>173.607955</ele>
        <time>2021-09-13T06:58:14.000Z</time>
      </trkpt>
      <trkpt lat="46.2302" lon="4.80322">
        <ele>173.579916</ele>
        <time>2021-09-13T06:58:19.000Z</time>
      </trkpt>
      <trkpt lat="46.23015" lon="4.80318">
        <ele>173.57433</ele>
        <time>2021-09-13T06:58:20.000Z</time>
      </trkpt>
      <trkpt lat="46.2298" lon="4.80289">
        <ele>173.535293</ele>
        <time>2021-09-13T06:58:27.000Z</time>
      </trkpt>
      <trkpt lat="46.2295" lon="4.80267">
        <ele>173.502246</ele>
        <time>2021-09-13T06:58:33.000Z</time>
      </trkpt>
      <trkpt lat="46.22928" lon="4.80253">
        <ele>173.479225</ele>
        <time>2021-09-13T06:58:38.000Z</time>
      </trkpt>
      <trkpt lat="46.22903" lon="4.80238">
        <ele>173.516062</ele>
        <time>2021-09-13T06:58:43.000Z</time>
      </trkpt>
      <trkpt lat="46.22898" lon="4.80234">
        <ele>173.535796</ele>
        <time>2021-09-13T06:58:44.000Z</time>
      </trkpt>
      <trkpt lat="46.22888" lon="4.80225">
        <ele>173.574459</ele>
        <time>2021-09-13T06:58:46.000Z</time>
      </trkpt>
      <trkpt lat="46.22878" lon="4.80217">
        <ele>173.612837</ele>
        <time>2021-09-13T06:58:48.000Z</time>
      </trkpt>
      <trkpt lat="46.22873" lon="4.80212">
        <ele>173.632091</ele>
        <time>2021-09-13T06:58:49.000Z</time>
      </trkpt>
      <trkpt lat="46.22868" lon="4.80207">
        <ele>173.650808</ele>
        <time>2021-09-13T06:58:50.000Z</time>
      </trkpt>
      <trkpt lat="46.22859" lon="4.80198">
        <ele>173.688106</ele>
        <time>2021-09-13T06:58:52.000Z</time>
      </trkpt>
      <trkpt lat="46.22855" lon="4.80193">
        <ele>173.706553</ele>
        <time>2021-09-13T06:58:53.000Z</time>
      </trkpt>
      <trkpt lat="46.2283" lon="4.80174">
        <ele>173.800001</ele>
        <time>2021-09-13T06:58:58.000Z</time>
      </trkpt>
      <trkpt lat="46.22796" lon="4.8015">
        <ele>173.926123</ele>
        <time>2021-09-13T06:59:05.000Z</time>
      </trkpt>
      <trkpt lat="46.22764" lon="4.80132">
        <ele>174.040108</ele>
        <time>2021-09-13T06:59:11.000Z</time>
      </trkpt>
      <trkpt lat="46.22739" lon="4.80117">
        <ele>174.10579</ele>
        <time>2021-09-13T06:59:16.000Z</time>
      </trkpt>
      <trkpt lat="46.22698" lon="4.80093">
        <ele>174.198126</ele>
        <time>2021-09-13T06:59:24.000Z</time>
      </trkpt>
      <trkpt lat="46.22667" lon="4.80078">
        <ele>174.266933</ele>
        <time>2021-09-13T06:59:30.000Z</time>
      </trkpt>
      <trkpt lat="46.22656" lon="4.80074">
        <ele>174.290016</ele>
        <time>2021-09-13T06:59:32.000Z</time>
      </trkpt>
      <trkpt lat="46.22619" lon="4.80058">
        <ele>174.37141</ele>
        <time>2021-09-13T06:59:39.000Z</time>
      </trkpt>
      <trkpt lat="46.22585" lon="4.80044">
        <ele>174.439923</ele>
        <time>2021-09-13T06:59:46.000Z</time>
      </trkpt>
      <trkpt lat="46.22553" lon="4.8003">
        <ele>174.4144</ele>
        <time>2021-09-13T06:59:53.000Z</time>
      </trkpt>
      <trkpt lat="46.22521" lon="4.80014">
        <ele>174.388803</ele>
        <time>2021-09-13T07:00:01.000Z</time>
      </trkpt>
      <trkpt lat="46.22502" lon="4.80005">
        <ele>174.373843</ele>
        <time>2021-09-13T07:00:06.000Z</time>
      </trkpt>
      <trkpt lat="46.2249" lon="4.79999">
        <ele>174.364394</ele>
        <time>2021-09-13T07:00:10.000Z</time>
      </trkpt>
      <trkpt lat="46.22469" lon="4.7999">
        <ele>174.347377</ele>
        <time>2021-09-13T07:00:16.000Z</time>
      </trkpt>
      <trkpt lat="46.22447" lon="4.79979">
        <ele>174.329963</ele>
        <time>2021-09-13T07:00:22.000Z</time>
      </trkpt>
      <trkpt lat="46.2243" lon="4.79972">
        <ele>174.316751</ele>
        <time>2021-09-13T07:00:27.000Z</time>
      </trkpt>
      <trkpt lat="46.22412" lon="4.79963">
        <ele>174.294489</ele>
        <time>2021-09-13T07:00:32.000Z</time>
      </trkpt>
      <trkpt lat="46.22389" lon="4.79952">
        <ele>174.219637</ele>
        <time>2021-09-13T07:00:39.000Z</time>
      </trkpt>
      <trkpt lat="46.22369" lon="4.79943">
        <ele>174.156217</ele>
        <time>2021-09-13T07:00:45.000Z</time>
      </trkpt>
      <trkpt lat="46.22341" lon="4.7993">
        <ele>174.069933</ele>
        <time>2021-09-13T07:00:53.000Z</time>
      </trkpt>
      <trkpt lat="46.22325" lon="4.79923">
        <ele>174.019511</ele>
        <time>2021-09-13T07:00:57.000Z</time>
      </trkpt>
      <trkpt lat="46.22317" lon="4.79919">
        <ele>173.993868</ele>
        <time>2021-09-13T07:00:59.000Z</time>
      </trkpt>
      <trkpt lat="46.22294" lon="4.79909">
        <ele>173.920293</ele>
        <time>2021-09-13T07:01:05.000Z</time>
      </trkpt>
      <trkpt lat="46.2229" lon="4.79907">
        <ele>173.907231</ele>
        <time>2021-09-13T07:01:06.000Z</time>
      </trkpt>
      <trkpt lat="46.22282" lon="4.79903">
        <ele>173.881237</ele>
        <time>2021-09-13T07:01:08.000Z</time>
      </trkpt>
      <trkpt lat="46.22278" lon="4.79901">
        <ele>173.869805</ele>
        <time>2021-09-13T07:01:09.000Z</time>
      </trkpt>
      <trkpt lat="46.2226" lon="4.79892">
        <ele>173.811014</ele>
        <time>2021-09-13T07:01:14.000Z</time>
      </trkpt>
      <trkpt lat="46.22251" lon="4.79888">
        <ele>173.782687</ele>
        <time>2021-09-13T07:01:16.000Z</time>
      </trkpt>
      <trkpt lat="46.22231" lon="4.79879">
        <ele>173.73241</ele>
        <time>2021-09-13T07:01:20.000Z</time>
      </trkpt>
      <trkpt lat="46.22218" lon="4.79872">
        <ele>173.70245</ele>
        <time>2021-09-13T07:01:23.000Z</time>
      </trkpt>
      <trkpt lat="46.2221" lon="4.79868">
        <ele>173.6822</ele>
        <time>2021-09-13T07:01:25.000Z</time>
      </trkpt>
      <trkpt lat="46.22205" lon="4.79866">
        <ele>173.671867</ele>
        <time>2021-09-13T07:01:26.000Z</time>
      </trkpt>
      <trkpt lat="46.22165" lon="4.79845">
        <ele>173.579493</ele>
        <time>2021-09-13T07:01:34.000Z</time>
      </trkpt>
      <trkpt lat="46.22129" lon="4.79825">
        <ele>173.493521</ele>
        <time>2021-09-13T07:01:41.000Z</time>
      </trkpt>
      <trkpt lat="46.22092" lon="4.79803">
        <ele>173.406934</ele>
        <time>2021-09-13T07:01:48.000Z</time>
      </trkpt>
      <trkpt lat="46.22061" lon="4.79783">
        <ele>173.356757</ele>
        <time>2021-09-13T07:01:54.000Z</time>
      </trkpt>
      <trkpt lat="46.22021" lon="4.79757">
        <ele>173.323117</ele>
        <time>2021-09-13T07:02:02.000Z</time>
      </trkpt>
      <trkpt lat="46.21982" lon="4.7973">
        <ele>173.289753</ele>
        <time>2021-09-13T07:02:10.000Z</time>
      </trkpt>
      <trkpt lat="46.21951" lon="4.79711">
        <ele>173.264278</ele>
        <time>2021-09-13T07:02:16.000Z</time>
      </trkpt>
      <trkpt lat="46.21924" lon="4.79694">
        <ele>173.241378</ele>
        <time>2021-09-13T07:02:21.000Z</time>
      </trkpt>
      <trkpt lat="46.21897" lon="4.79677">
        <ele>173.228931</ele>
        <time>2021-09-13T07:02:26.000Z</time>
      </trkpt>
      <trkpt lat="46.21886" lon="4.7967">
        <ele>173.227097</ele>
        <time>2021-09-13T07:02:28.000Z</time>
      </trkpt>
      <trkpt lat="46.2187" lon="4.7966">
        <ele>173.224268</ele>
        <time>2021-09-13T07:02:31.000Z</time>
      </trkpt>
      <trkpt lat="46.21854" lon="4.7965">
        <ele>173.221404</ele>
        <time>2021-09-13T07:02:34.000Z</time>
      </trkpt>
      <trkpt lat="46.21826" lon="4.79636">
        <ele>173.21673</ele>
        <time>2021-09-13T07:02:39.000Z</time>
      </trkpt>
      <trkpt lat="46.21821" lon="4.79634">
        <ele>173.215829</ele>
        <time>2021-09-13T07:02:40.000Z</time>
      </trkpt>
      <trkpt lat="46.21793" lon="4.79623">
        <ele>173.211297</ele>
        <time>2021-09-13T07:02:45.000Z</time>
      </trkpt>
      <trkpt lat="46.21766" lon="4.79612">
        <ele>173.206795</ele>
        <time>2021-09-13T07:02:50.000Z</time>
      </trkpt>
      <trkpt lat="46.21733" lon="4.79599">
        <ele>173.247329</ele>
        <time>2021-09-13T07:02:56.000Z</time>
      </trkpt>
      <trkpt lat="46.21699" lon="4.79588">
        <ele>173.404866</ele>
        <time>2021-09-13T07:03:02.000Z</time>
      </trkpt>
      <trkpt lat="46.21676" lon="4.79581">
        <ele>173.507977</ele>
        <time>2021-09-13T07:03:06.000Z</time>
      </trkpt>
      <trkpt lat="46.21666" lon="4.79577">
        <ele>173.556359</ele>
        <time>2021-09-13T07:03:08.000Z</time>
      </trkpt>
      <trkpt lat="46.21628" lon="4.79565">
        <ele>173.731824</ele>
        <time>2021-09-13T07:03:15.000Z</time>
      </trkpt>
      <trkpt lat="46.21577" lon="4.79548">
        <ele>173.967147</ele>
        <time>2021-09-13T07:03:24.000Z</time>
      </trkpt>
      <trkpt lat="46.21526" lon="4.79528">
        <ele>174.104847</ele>
        <time>2021-09-13T07:03:33.000Z</time>
      </trkpt>
      <trkpt lat="46.21486" lon="4.79516">
        <ele>174.195246</ele>
        <time>2021-09-13T07:03:40.000Z</time>
      </trkpt>
      <trkpt lat="46.21439" lon="4.79501">
        <ele>174.301822</ele>
        <time>2021-09-13T07:03:48.000Z</time>
      </trkpt>
      <trkpt lat="46.21385" lon="4.79486">
        <ele>174.416177</ele>
        <time>2021-09-13T07:03:57.000Z</time>
      </trkpt>
      <trkpt lat="46.21343" lon="4.79482">
        <ele>174.469187</ele>
        <time>2021-09-13T07:04:04.000Z</time>
      </trkpt>
      <trkpt lat="46.2131" lon="4.79479">
        <ele>174.511243</ele>
        <time>2021-09-13T07:04:10.000Z</time>
      </trkpt>
      <trkpt lat="46.21276" lon="4.79476">
        <ele>174.555208</ele>
        <time>2021-09-13T07:04:17.000Z</time>
      </trkpt>
      <trkpt lat="46.21271" lon="4.79475">
        <ele>174.561455</ele>
        <time>2021-09-13T07:04:18.000Z</time>
      </trkpt>
      <trkpt lat="46.21247" lon="4.79473">
        <ele>174.592546</ele>
        <time>2021-09-13T07:04:23.000Z</time>
      </trkpt>
      <trkpt lat="46.21208" lon="4.7947">
        <ele>174.635475</ele>
        <time>2021-09-13T07:04:31.000Z</time>
      </trkpt>
      <trkpt lat="46.21171" lon="4.79468">
        <ele>174.627721</ele>
        <time>2021-09-13T07:04:39.000Z</time>
      </trkpt>
      <trkpt lat="46.21139" lon="4.79466">
        <ele>174.620986</ele>
        <time>2021-09-13T07:04:46.000Z</time>
      </trkpt>
      <trkpt lat="46.21103" lon="4.79464">
        <ele>174.613647</ele>
        <time>2021-09-13T07:04:54.000Z</time>
      </trkpt>
      <trkpt lat="46.21066" lon="4.79462">
        <ele>174.60581</ele>
        <time>2021-09-13T07:05:02.000Z</time>
      </trkpt>
      <trkpt lat="46.21035" lon="4.7946">
        <ele>174.59949</ele>
        <time>2021-09-13T07:05:09.000Z</time>
      </trkpt>
      <trkpt lat="46.21027" lon="4.7946">
        <ele>174.582895</ele>
        <time>2021-09-13T07:05:11.000Z</time>
      </trkpt>
      <trkpt lat="46.21011" lon="4.79461">
        <ele>174.534128</ele>
        <time>2021-09-13T07:05:15.000Z</time>
      </trkpt>
      <trkpt lat="46.20991" lon="4.79463">
        <ele>174.472221</ele>
        <time>2021-09-13T07:05:20.000Z</time>
      </trkpt>
      <trkpt lat="46.20968" lon="4.79465">
        <ele>174.402983</ele>
        <time>2021-09-13T07:05:25.000Z</time>
      </trkpt>
      <trkpt lat="46.20959" lon="4.79466">
        <ele>174.375543</ele>
        <time>2021-09-13T07:05:27.000Z</time>
      </trkpt>
      <trkpt lat="46.2095" lon="4.79466">
        <ele>174.348091</ele>
        <time>2021-09-13T07:05:29.000Z</time>
      </trkpt>
      <trkpt lat="46.20932" lon="4.79468">
        <ele>174.291983</ele>
        <time>2021-09-13T07:05:33.000Z</time>
      </trkpt>
      <trkpt lat="46.20918" lon="4.79469">
        <ele>174.248361</ele>
        <time>2021-09-13T07:05:36.000Z</time>
      </trkpt>
      <trkpt lat="46.20904" lon="4.7947">
        <ele>174.208411</ele>
        <time>2021-09-13T07:05:39.000Z</time>
      </trkpt>
      <trkpt lat="46.20883" lon="4.79472">
        <ele>174.144061</ele>
        <time>2021-09-13T07:05:45.000Z</time>
      </trkpt>
      <trkpt lat="46.20861" lon="4.79474">
        <ele>174.074835</ele>
        <time>2021-09-13T07:05:51.000Z</time>
      </trkpt>
      <trkpt lat="46.20833" lon="4.79478">
        <ele>174.110244</ele>
        <time>2021-09-13T07:05:58.000Z</time>
      </trkpt>
      <trkpt lat="46.20815" lon="4.79481">
        <ele>174.165113</ele>
        <time>2021-09-13T07:06:03.000Z</time>
      </trkpt>
      <trkpt lat="46.20796" lon="4.79484">
        <ele>174.222397</ele>
        <time>2021-09-13T07:06:08.000Z</time>
      </trkpt>
      <trkpt lat="46.20769" lon="4.79488">
        <ele>174.303961</ele>
        <time>2021-09-13T07:06:15.000Z</time>
      </trkpt>
      <trkpt lat="46.20744" lon="4.79489">
        <ele>174.37637</ele>
        <time>2021-09-13T07:06:21.000Z</time>
      </trkpt>
      <trkpt lat="46.20731" lon="4.79488">
        <ele>174.415452</ele>
        <time>2021-09-13T07:06:24.000Z</time>
      </trkpt>
      <trkpt lat="46.20722" lon="4.79487">
        <ele>174.441699</ele>
        <time>2021-09-13T07:06:26.000Z</time>
      </trkpt>
      <trkpt lat="46.20718" lon="4.79487">
        <ele>174.454524</ele>
        <time>2021-09-13T07:06:27.000Z</time>
      </trkpt>
      <trkpt lat="46.20714" lon="4.79487">
        <ele>174.465564</ele>
        <time>2021-09-13T07:06:28.000Z</time>
      </trkpt>
      <trkpt lat="46.20704" lon="4.79478">
        <ele>174.500663</ele>
        <time>2021-09-13T07:06:31.000Z</time>
      </trkpt>
      <trkpt lat="46.20701" lon="4.79475">
        <ele>174.512531</ele>
        <time>2021-09-13T07:06:32.000Z</time>
      </trkpt>
      <trkpt lat="46.20692" lon="4.79469">
        <ele>174.543502</ele>
        <time>2021-09-13T07:06:35.000Z</time>
      </trkpt>
      <trkpt lat="46.20677" lon="4.7947">
        <ele>174.588005</ele>
        <time>2021-09-13T07:06:39.000Z</time>
      </trkpt>
      <trkpt lat="46.20656" lon="4.79475">
        <ele>174.690972</ele>
        <time>2021-09-13T07:06:44.000Z</time>
      </trkpt>
      <trkpt lat="46.2064" lon="4.79483">
        <ele>174.779879</ele>
        <time>2021-09-13T07:06:49.000Z</time>
      </trkpt>
      <trkpt lat="46.2063" lon="4.79497">
        <ele>174.847809</ele>
        <time>2021-09-13T07:06:53.000Z</time>
      </trkpt>
      <trkpt lat="46.20612" lon="4.7952">
        <ele>174.966605</ele>
        <time>2021-09-13T07:06:58.000Z</time>
      </trkpt>
      <trkpt lat="46.20579" lon="4.79536">
        <ele>175.139984</ele>
        <time>2021-09-13T07:07:05.000Z</time>
      </trkpt>
      <trkpt lat="46.20564" lon="4.79543">
        <ele>175.2192</ele>
        <time>2021-09-13T07:07:08.000Z</time>
      </trkpt>
      <trkpt lat="46.20553" lon="4.79548">
        <ele>175.273221</ele>
        <time>2021-09-13T07:07:10.000Z</time>
      </trkpt>
      <trkpt lat="46.20511" lon="4.79563">
        <ele>175.483351</ele>
        <time>2021-09-13T07:07:18.000Z</time>
      </trkpt>
      <trkpt lat="46.20478" lon="4.79569">
        <ele>175.486305</ele>
        <time>2021-09-13T07:07:24.000Z</time>
      </trkpt>
      <trkpt lat="46.20435" lon="4.79581">
        <ele>175.490171</ele>
        <time>2021-09-13T07:07:32.000Z</time>
      </trkpt>
      <trkpt lat="46.20401" lon="4.79589">
        <ele>175.493256</ele>
        <time>2021-09-13T07:07:39.000Z</time>
      </trkpt>
      <trkpt lat="46.20387" lon="4.79591">
        <ele>175.49446</ele>
        <time>2021-09-13T07:07:42.000Z</time>
      </trkpt>
      <trkpt lat="46.20379" lon="4.79591">
        <ele>175.495214</ele>
        <time>2021-09-13T07:07:44.000Z</time>
      </trkpt>
      <trkpt lat="46.20365" lon="4.7959">
        <ele>175.496404</ele>
        <time>2021-09-13T07:07:47.000Z</time>
      </trkpt>
      <trkpt lat="46.20345" lon="4.79588">
        <ele>175.49821</ele>
        <time>2021-09-13T07:07:51.000Z</time>
      </trkpt>
      <trkpt lat="46.20334" lon="4.79587">
        <ele>175.499153</ele>
        <time>2021-09-13T07:07:53.000Z</time>
      </trkpt>
      <trkpt lat="46.20318" lon="4.79584">
        <ele>175.420833</ele>
        <time>2021-09-13T07:07:56.000Z</time>
      </trkpt>
      <trkpt lat="46.2029" lon="4.79578">
        <ele>175.28677</ele>
        <time>2021-09-13T07:08:01.000Z</time>
      </trkpt>
      <trkpt lat="46.20279" lon="4.79575">
        <ele>175.232892</ele>
        <time>2021-09-13T07:08:03.000Z</time>
      </trkpt>
      <trkpt lat="46.2025" lon="4.79567">
        <ele>175.090948</ele>
        <time>2021-09-13T07:08:09.000Z</time>
      </trkpt>
      <trkpt lat="46.20228" lon="4.79559">
        <ele>174.979577</ele>
        <time>2021-09-13T07:08:15.000Z</time>
      </trkpt>
      <trkpt lat="46.20216" lon="4.79546">
        <ele>174.910917</ele>
        <time>2021-09-13T07:08:18.000Z</time>
      </trkpt>
      <trkpt lat="46.20206" lon="4.79533">
        <ele>174.842493</ele>
        <time>2021-09-13T07:08:21.000Z</time>
      </trkpt>
      <trkpt lat="46.20198" lon="4.79524">
        <ele>174.795092</ele>
        <time>2021-09-13T07:08:23.000Z</time>
      </trkpt>
      <trkpt lat="46.20186" lon="4.79512">
        <ele>174.724529</ele>
        <time>2021-09-13T07:08:26.000Z</time>
      </trkpt>
      <trkpt lat="46.20178" lon="4.79507">
        <ele>174.682241</ele>
        <time>2021-09-13T07:08:28.000Z</time>
      </trkpt>
      <trkpt lat="46.20167" lon="4.79502">
        <ele>174.633426</ele>
        <time>2021-09-13T07:08:31.000Z</time>
      </trkpt>
      <trkpt lat="46.20162" lon="4.79498">
        <ele>174.62392</ele>
        <time>2021-09-13T07:08:32.000Z</time>
      </trkpt>
      <trkpt lat="46.20149" lon="4.79485">
        <ele>174.599432</ele>
        <time>2021-09-13T07:08:35.000Z</time>
      </trkpt>
      <trkpt lat="46.20141" lon="4.79476">
        <ele>174.582718</ele>
        <time>2021-09-13T07:08:37.000Z</time>
      </trkpt>
      <trkpt lat="46.20128" lon="4.79464">
        <ele>174.558034</ele>
        <time>2021-09-13T07:08:40.000Z</time>
      </trkpt>
      <trkpt lat="46.2012" lon="4.79454">
        <ele>174.541372</ele>
        <time>2021-09-13T07:08:42.000Z</time>
      </trkpt>
      <trkpt lat="46.20098" lon="4.79428">
        <ele>174.496136</ele>
        <time>2021-09-13T07:08:47.000Z</time>
      </trkpt>
      <trkpt lat="46.20071" lon="4.79397">
        <ele>174.441039</ele>
        <time>2021-09-13T07:08:53.000Z</time>
      </trkpt>
      <trkpt lat="46.20067" lon="4.79392">
        <ele>174.431953</ele>
        <time>2021-09-13T07:08:54.000Z</time>
      </trkpt>
      <trkpt lat="46.20038" lon="4.79358">
        <ele>174.372894</ele>
        <time>2021-09-13T07:09:01.000Z</time>
      </trkpt>
      <trkpt lat="46.20027" lon="4.79345">
        <ele>174.350109</ele>
        <time>2021-09-13T07:09:04.000Z</time>
      </trkpt>
      <trkpt lat="46.19997" lon="4.79311">
        <ele>174.268156</ele>
        <time>2021-09-13T07:09:11.000Z</time>
      </trkpt>
      <trkpt lat="46.19953" lon="4.7926">
        <ele>174.147189</ele>
        <time>2021-09-13T07:09:21.000Z</time>
      </trkpt>
      <trkpt lat="46.19919" lon="4.79218">
        <ele>174.051699</ele>
        <time>2021-09-13T07:09:29.000Z</time>
      </trkpt>
      <trkpt lat="46.19881" lon="4.79171">
        <ele>173.94609</ele>
        <time>2021-09-13T07:09:38.000Z</time>
      </trkpt>
      <trkpt lat="46.19843" lon="4.79124">
        <ele>173.851328</ele>
        <time>2021-09-13T07:09:47.000Z</time>
      </trkpt>
      <trkpt lat="46.19803" lon="4.7908">
        <ele>173.757011</ele>
        <time>2021-09-13T07:09:56.000Z</time>
      </trkpt>
      <trkpt lat="46.19774" lon="4.79044">
        <ele>173.684336</ele>
        <time>2021-09-13T07:10:03.000Z</time>
      </trkpt>
      <trkpt lat="46.19763" lon="4.79029">
        <ele>173.656122</ele>
        <time>2021-09-13T07:10:06.000Z</time>
      </trkpt>
      <trkpt lat="46.19754" lon="4.79015">
        <ele>173.630857</ele>
        <time>2021-09-13T07:10:09.000Z</time>
      </trkpt>
      <trkpt lat="46.19735" lon="4.78989">
        <ele>173.578179</ele>
        <time>2021-09-13T07:10:16.000Z</time>
      </trkpt>
      <trkpt lat="46.1973" lon="4.78981">
        <ele>173.562065</ele>
        <time>2021-09-13T07:10:21.000Z</time>
      </trkpt>
      <trkpt lat="46.19721" lon="4.78982">
        <ele>173.544687</ele>
        <time>2021-09-13T07:14:09.000Z</time>
      </trkpt>
      <trkpt lat="46.19718" lon="4.78987">
        <ele>173.534979</ele>
        <time>2021-09-13T07:14:11.000Z</time>
      </trkpt>
      <trkpt lat="46.19709" lon="4.78997">
        <ele>173.511299</ele>
        <time>2021-09-13T07:14:14.000Z</time>
      </trkpt>
      <trkpt lat="46.19705" lon="4.79002">
        <ele>173.500844</ele>
        <time>2021-09-13T07:14:15.000Z</time>
      </trkpt>
      <trkpt lat="46.19701" lon="4.79007">
        <ele>173.489456</ele>
        <time>2021-09-13T07:14:16.000Z</time>
      </trkpt>
      <trkpt lat="46.19682" lon="4.7903">
        <ele>173.438922</ele>
        <time>2021-09-13T07:14:20.000Z</time>
      </trkpt>
      <trkpt lat="46.19647" lon="4.79073">
        <ele>173.344453</ele>
        <time>2021-09-13T07:14:27.000Z</time>
      </trkpt>
      <trkpt lat="46.19616" lon="4.79111">
        <ele>173.259941</ele>
        <time>2021-09-13T07:14:33.000Z</time>
      </trkpt>
      <trkpt lat="46.19581" lon="4.79153">
        <ele>173.188081</ele>
        <time>2021-09-13T07:14:40.000Z</time>
      </trkpt>
      <trkpt lat="46.19567" lon="4.7917">
        <ele>173.161546</ele>
        <time>2021-09-13T07:14:43.000Z</time>
      </trkpt>
      <trkpt lat="46.19559" lon="4.7918">
        <ele>173.145018</ele>
        <time>2021-09-13T07:14:45.000Z</time>
      </trkpt>
      <trkpt lat="46.19536" lon="4.79208">
        <ele>173.098553</ele>
        <time>2021-09-13T07:14:50.000Z</time>
      </trkpt>
      <trkpt lat="46.19513" lon="4.79235">
        <ele>173.053638</ele>
        <time>2021-09-13T07:14:55.000Z</time>
      </trkpt>
      <trkpt lat="46.19485" lon="4.79268">
        <ele>172.997604</ele>
        <time>2021-09-13T07:15:01.000Z</time>
      </trkpt>
      <trkpt lat="46.19445" lon="4.79317">
        <ele>172.913759</ele>
        <time>2021-09-13T07:15:09.000Z</time>
      </trkpt>
      <trkpt lat="46.1944" lon="4.79323">
        <ele>172.90336</ele>
        <time>2021-09-13T07:15:10.000Z</time>
      </trkpt>
      <trkpt lat="46.19414" lon="4.79353">
        <ele>172.849517</ele>
        <time>2021-09-13T07:15:15.000Z</time>
      </trkpt>
      <trkpt lat="46.19369" lon="4.79407">
        <ele>172.75442</ele>
        <time>2021-09-13T07:15:24.000Z</time>
      </trkpt>
      <trkpt lat="46.19346" lon="4.79435">
        <ele>172.70415</ele>
        <time>2021-09-13T07:15:29.000Z</time>
      </trkpt>
      <trkpt lat="46.19316" lon="4.79471">
        <ele>172.816848</ele>
        <time>2021-09-13T07:15:35.000Z</time>
      </trkpt>
      <trkpt lat="46.19292" lon="4.795">
        <ele>172.973234</ele>
        <time>2021-09-13T07:15:40.000Z</time>
      </trkpt>
      <trkpt lat="46.19287" lon="4.79505">
        <ele>173.004986</ele>
        <time>2021-09-13T07:15:41.000Z</time>
      </trkpt>
      <trkpt lat="46.1925" lon="4.79541">
        <ele>173.227559</ele>
        <time>2021-09-13T07:15:48.000Z</time>
      </trkpt>
      <trkpt lat="46.19216" lon="4.79578">
        <ele>173.443137</ele>
        <time>2021-09-13T07:15:55.000Z</time>
      </trkpt>
      <trkpt lat="46.19182" lon="4.79617">
        <ele>173.688034</ele>
        <time>2021-09-13T07:16:02.000Z</time>
      </trkpt>
      <trkpt lat="46.19154" lon="4.79648">
        <ele>173.92804</ele>
        <time>2021-09-13T07:16:08.000Z</time>
      </trkpt>
      <trkpt lat="46.19132" lon="4.79673">
        <ele>174.121923</ele>
        <time>2021-09-13T07:16:13.000Z</time>
      </trkpt>
      <trkpt lat="46.19118" lon="4.79689">
        <ele>174.242344</ele>
        <time>2021-09-13T07:16:16.000Z</time>
      </trkpt>
      <trkpt lat="46.1911" lon="4.79699">
        <ele>174.320281</ele>
        <time>2021-09-13T07:16:18.000Z</time>
      </trkpt>
      <trkpt lat="46.19087" lon="4.79725">
        <ele>174.516131</ele>
        <time>2021-09-13T07:16:23.000Z</time>
      </trkpt>
      <trkpt lat="46.19052" lon="4.79765">
        <ele>174.827337</ele>
        <time>2021-09-13T07:16:31.000Z</time>
      </trkpt>
      <trkpt lat="46.19043" lon="4.79776">
        <ele>174.879939</ele>
        <time>2021-09-13T07:16:33.000Z</time>
      </trkpt>
      <trkpt lat="46.19029" lon="4.79791">
        <ele>174.95763</ele>
        <time>2021-09-13T07:16:36.000Z</time>
      </trkpt>
      <trkpt lat="46.18991" lon="4.79835">
        <ele>175.183083</ele>
        <time>2021-09-13T07:16:44.000Z</time>
      </trkpt>
      <trkpt lat="46.18961" lon="4.79869">
        <ele>175.355576</ele>
        <time>2021-09-13T07:16:50.000Z</time>
      </trkpt>
      <trkpt lat="46.18933" lon="4.79901">
        <ele>175.518582</ele>
        <time>2021-09-13T07:16:56.000Z</time>
      </trkpt>
      <trkpt lat="46.189" lon="4.79941">
        <ele>175.676964</ele>
        <time>2021-09-13T07:17:03.000Z</time>
      </trkpt>
      <trkpt lat="46.1887" lon="4.79976">
        <ele>175.746786</ele>
        <time>2021-09-13T07:17:09.000Z</time>
      </trkpt>
      <trkpt lat="46.18841" lon="4.80011">
        <ele>175.816143</ele>
        <time>2021-09-13T07:17:15.000Z</time>
      </trkpt>
      <trkpt lat="46.18814" lon="4.80043">
        <ele>175.881419</ele>
        <time>2021-09-13T07:17:21.000Z</time>
      </trkpt>
      <trkpt lat="46.18809" lon="4.80049">
        <ele>175.892222</ele>
        <time>2021-09-13T07:17:22.000Z</time>
      </trkpt>
      <trkpt lat="46.18785" lon="4.80075">
        <ele>175.947702</ele>
        <time>2021-09-13T07:17:27.000Z</time>
      </trkpt>
      <trkpt lat="46.1878" lon="4.80081">
        <ele>175.959173</ele>
        <time>2021-09-13T07:17:28.000Z</time>
      </trkpt>
      <trkpt lat="46.18755" lon="4.80109">
        <ele>175.983906</ele>
        <time>2021-09-13T07:17:33.000Z</time>
      </trkpt>
      <trkpt lat="46.18736" lon="4.80132">
        <ele>175.990163</ele>
        <time>2021-09-13T07:17:37.000Z</time>
      </trkpt>
      <trkpt lat="46.18726" lon="4.80143">
        <ele>175.993332</ele>
        <time>2021-09-13T07:17:39.000Z</time>
      </trkpt>
      <trkpt lat="46.18702" lon="4.8017">
        <ele>176.000842</ele>
        <time>2021-09-13T07:17:44.000Z</time>
      </trkpt>
      <trkpt lat="46.18664" lon="4.80215">
        <ele>176.013078</ele>
        <time>2021-09-13T07:17:52.000Z</time>
      </trkpt>
      <trkpt lat="46.18641" lon="4.80242">
        <ele>176.020397</ele>
        <time>2021-09-13T07:17:57.000Z</time>
      </trkpt>
      <trkpt lat="46.18614" lon="4.80275">
        <ele>176.058172</ele>
        <time>2021-09-13T07:18:03.000Z</time>
      </trkpt>
      <trkpt lat="46.18605" lon="4.80286">
        <ele>176.076161</ele>
        <time>2021-09-13T07:18:05.000Z</time>
      </trkpt>
      <trkpt lat="46.18596" lon="4.80297">
        <ele>176.094037</ele>
        <time>2021-09-13T07:18:07.000Z</time>
      </trkpt>
      <trkpt lat="46.18563" lon="4.80337">
        <ele>176.15821</ele>
        <time>2021-09-13T07:18:14.000Z</time>
      </trkpt>
      <trkpt lat="46.18524" lon="4.80384">
        <ele>176.233523</ele>
        <time>2021-09-13T07:18:22.000Z</time>
      </trkpt>
      <trkpt lat="46.18489" lon="4.80422">
        <ele>176.298822</ele>
        <time>2021-09-13T07:18:29.000Z</time>
      </trkpt>
      <trkpt lat="46.18455" lon="4.80461">
        <ele>176.367361</ele>
        <time>2021-09-13T07:18:36.000Z</time>
      </trkpt>
      <trkpt lat="46.1845" lon="4.80466">
        <ele>176.377115</ele>
        <time>2021-09-13T07:18:37.000Z</time>
      </trkpt>
      <trkpt lat="46.18434" lon="4.80472">
        <ele>176.402959</ele>
        <time>2021-09-13T07:18:40.000Z</time>
      </trkpt>
      <trkpt lat="46.18428" lon="4.80487">
        <ele>176.422368</ele>
        <time>2021-09-13T07:18:42.000Z</time>
      </trkpt>
      <trkpt lat="46.1842" lon="4.80499">
        <ele>176.440195</ele>
        <time>2021-09-13T07:18:44.000Z</time>
      </trkpt>
      <trkpt lat="46.18412" lon="4.80508">
        <ele>176.456323</ele>
        <time>2021-09-13T07:18:46.000Z</time>
      </trkpt>
      <trkpt lat="46.184" lon="4.80522">
        <ele>176.481063</ele>
        <time>2021-09-13T07:18:49.000Z</time>
      </trkpt>
      <trkpt lat="46.18378" lon="4.80548">
        <ele>176.525592</ele>
        <time>2021-09-13T07:18:54.000Z</time>
      </trkpt>
      <trkpt lat="46.18374" lon="4.80553">
        <ele>176.534589</ele>
        <time>2021-09-13T07:18:55.000Z</time>
      </trkpt>
      <trkpt lat="46.18343" lon="4.80589">
        <ele>176.61016</ele>
        <time>2021-09-13T07:19:02.000Z</time>
      </trkpt>
      <trkpt lat="46.18318" lon="4.80619">
        <ele>176.695882</ele>
        <time>2021-09-13T07:19:08.000Z</time>
      </trkpt>
      <trkpt lat="46.18288" lon="4.80655">
        <ele>176.801325</ele>
        <time>2021-09-13T07:19:15.000Z</time>
      </trkpt>
      <trkpt lat="46.18275" lon="4.80671">
        <ele>176.8476</ele>
        <time>2021-09-13T07:19:18.000Z</time>
      </trkpt>
      <trkpt lat="46.18262" lon="4.80689">
        <ele>176.893698</ele>
        <time>2021-09-13T07:19:21.000Z</time>
      </trkpt>
      <trkpt lat="46.18239" lon="4.80729">
        <ele>176.988953</ele>
        <time>2021-09-13T07:19:27.000Z</time>
      </trkpt>
      <trkpt lat="46.18213" lon="4.80775">
        <ele>177.102046</ele>
        <time>2021-09-13T07:19:34.000Z</time>
      </trkpt>
      <trkpt lat="46.18188" lon="4.80821">
        <ele>177.218596</ele>
        <time>2021-09-13T07:19:41.000Z</time>
      </trkpt>
      <trkpt lat="46.1816" lon="4.80873">
        <ele>177.349452</ele>
        <time>2021-09-13T07:19:49.000Z</time>
      </trkpt>
      <trkpt lat="46.18138" lon="4.80918">
        <ele>177.458813</ele>
        <time>2021-09-13T07:19:56.000Z</time>
      </trkpt>
      <trkpt lat="46.18134" lon="4.80924">
        <ele>177.473984</ele>
        <time>2021-09-13T07:19:57.000Z</time>
      </trkpt>
      <trkpt lat="46.18122" lon="4.80949">
        <ele>177.534982</ele>
        <time>2021-09-13T07:20:01.000Z</time>
      </trkpt>
      <trkpt lat="46.18103" lon="4.80985">
        <ele>177.640692</ele>
        <time>2021-09-13T07:20:07.000Z</time>
      </trkpt>
      <trkpt lat="46.18084" lon="4.81021">
        <ele>177.752251</ele>
        <time>2021-09-13T07:20:13.000Z</time>
      </trkpt>
      <trkpt lat="46.18056" lon="4.81072">
        <ele>177.914709</ele>
        <time>2021-09-13T07:20:21.000Z</time>
      </trkpt>
      <trkpt lat="46.18052" lon="4.81078">
        <ele>177.935886</ele>
        <time>2021-09-13T07:20:22.000Z</time>
      </trkpt>
      <trkpt lat="46.18033" lon="4.8111">
        <ele>178.040953</ele>
        <time>2021-09-13T07:20:27.000Z</time>
      </trkpt>
      <trkpt lat="46.18007" lon="4.81156">
        <ele>178.191139</ele>
        <time>2021-09-13T07:20:34.000Z</time>
      </trkpt>
      <trkpt lat="46.17978" lon="4.8121">
        <ele>178.363876</ele>
        <time>2021-09-13T07:20:42.000Z</time>
      </trkpt>
      <trkpt lat="46.17963" lon="4.81241">
        <ele>178.456718</ele>
        <time>2021-09-13T07:20:47.000Z</time>
      </trkpt>
      <trkpt lat="46.17961" lon="4.81247">
        <ele>178.472996</ele>
        <time>2021-09-13T07:20:48.000Z</time>
      </trkpt>
      <trkpt lat="46.17953" lon="4.81262">
        <ele>178.522206</ele>
        <time>2021-09-13T07:20:52.000Z</time>
      </trkpt>
      <trkpt lat="46.17952" lon="4.81264">
        <ele>178.528383</ele>
        <time>2021-09-13T07:20:55.000Z</time>
      </trkpt>
      <trkpt lat="46.17949" lon="4.8127">
        <ele>178.545274</ele>
        <time>2021-09-13T07:21:01.000Z</time>
      </trkpt>
      <trkpt lat="46.1794" lon="4.81288">
        <ele>178.601694</ele>
        <time>2021-09-13T07:21:05.000Z</time>
      </trkpt>
      <trkpt lat="46.17921" lon="4.81325">
        <ele>178.717623</ele>
        <time>2021-09-13T07:21:11.000Z</time>
      </trkpt>
      <trkpt lat="46.17894" lon="4.81376">
        <ele>178.8841</ele>
        <time>2021-09-13T07:21:19.000Z</time>
      </trkpt>
      <trkpt lat="46.17867" lon="4.81426">
        <ele>179.152068</ele>
        <time>2021-09-13T07:21:27.000Z</time>
      </trkpt>
      <trkpt lat="46.17847" lon="4.81463">
        <ele>179.347821</ele>
        <time>2021-09-13T07:21:33.000Z</time>
      </trkpt>
      <trkpt lat="46.17844" lon="4.81468">
        <ele>179.378164</ele>
        <time>2021-09-13T07:21:34.000Z</time>
      </trkpt>
      <trkpt lat="46.17832" lon="4.81492">
        <ele>179.503751</ele>
        <time>2021-09-13T07:21:38.000Z</time>
      </trkpt>
      <trkpt lat="46.17826" lon="4.81504">
        <ele>179.565854</ele>
        <time>2021-09-13T07:21:40.000Z</time>
      </trkpt>
      <trkpt lat="46.17808" lon="4.81537">
        <ele>179.744139</ele>
        <time>2021-09-13T07:21:46.000Z</time>
      </trkpt>
      <trkpt lat="46.17805" lon="4.81542">
        <ele>179.774146</ele>
        <time>2021-09-13T07:21:47.000Z</time>
      </trkpt>
      <trkpt lat="46.17802" lon="4.81548">
        <ele>179.804153</ele>
        <time>2021-09-13T07:21:48.000Z</time>
      </trkpt>
      <trkpt lat="46.17791" lon="4.8157">
        <ele>179.917405</ele>
        <time>2021-09-13T07:21:52.000Z</time>
      </trkpt>
      <trkpt lat="46.17789" lon="4.81576">
        <ele>179.944324</ele>
        <time>2021-09-13T07:21:53.000Z</time>
      </trkpt>
      <trkpt lat="46.17776" lon="4.81609">
        <ele>180.30866</ele>
        <time>2021-09-13T07:22:00.000Z</time>
      </trkpt>
      <trkpt lat="46.17765" lon="4.81615">
        <ele>180.482414</ele>
        <time>2021-09-13T07:22:04.000Z</time>
      </trkpt>
      <trkpt lat="46.17759" lon="4.81618">
        <ele>180.571017</ele>
        <time>2021-09-13T07:22:06.000Z</time>
      </trkpt>
      <trkpt lat="46.17759" lon="4.81622">
        <ele>180.61602</ele>
        <time>2021-09-13T07:22:07.000Z</time>
      </trkpt>
      <trkpt lat="46.17754" lon="4.81641">
        <ele>180.82517</ele>
        <time>2021-09-13T07:22:11.000Z</time>
      </trkpt>
      <trkpt lat="46.17753" lon="4.81647">
        <ele>180.888451</ele>
        <time>2021-09-13T07:22:12.000Z</time>
      </trkpt>
      <trkpt lat="46.17743" lon="4.81688">
        <ele>181.339811</ele>
        <time>2021-09-13T07:22:19.000Z</time>
      </trkpt>
      <trkpt lat="46.17741" lon="4.81693">
        <ele>181.406446</ele>
        <time>2021-09-13T07:22:20.000Z</time>
      </trkpt>
      <trkpt lat="46.17731" lon="4.81719">
        <ele>181.719471</ele>
        <time>2021-09-13T07:22:25.000Z</time>
      </trkpt>
      <trkpt lat="46.17729" lon="4.81724">
        <ele>181.777509</ele>
        <time>2021-09-13T07:22:26.000Z</time>
      </trkpt>
      <trkpt lat="46.17727" lon="4.81729">
        <ele>181.833707</ele>
        <time>2021-09-13T07:22:29.000Z</time>
      </trkpt>
      <trkpt lat="46.17728" lon="4.81728">
        <ele>181.841451</ele>
        <time>2021-09-13T07:22:34.000Z</time>
      </trkpt>
      <trkpt lat="46.17726" lon="4.81733">
        <ele>181.901869</ele>
        <time>2021-09-13T07:27:08.000Z</time>
      </trkpt>
      <trkpt lat="46.1772" lon="4.81748">
        <ele>182.076696</ele>
        <time>2021-09-13T07:27:12.000Z</time>
      </trkpt>
      <trkpt lat="46.17711" lon="4.81767">
        <ele>182.320335</ele>
        <time>2021-09-13T07:27:16.000Z</time>
      </trkpt>
      <trkpt lat="46.17705" lon="4.81776">
        <ele>182.451541</ele>
        <time>2021-09-13T07:27:18.000Z</time>
      </trkpt>
      <trkpt lat="46.17694" lon="4.81793">
        <ele>182.688645</ele>
        <time>2021-09-13T07:27:22.000Z</time>
      </trkpt>
      <trkpt lat="46.17691" lon="4.81804">
        <ele>182.675548</ele>
        <time>2021-09-13T07:27:24.000Z</time>
      </trkpt>
      <trkpt lat="46.1769" lon="4.81809">
        <ele>182.669196</ele>
        <time>2021-09-13T07:27:25.000Z</time>
      </trkpt>
      <trkpt lat="46.17688" lon="4.81833">
        <ele>182.642294</ele>
        <time>2021-09-13T07:27:30.000Z</time>
      </trkpt>
      <trkpt lat="46.17688" lon="4.81834">
        <ele>182.641051</ele>
        <time>2021-09-13T07:27:33.000Z</time>
      </trkpt>
      <trkpt lat="46.17683" lon="4.81841">
        <ele>182.630506</ele>
        <time>2021-09-13T07:27:38.000Z</time>
      </trkpt>
      <trkpt lat="46.17669" lon="4.81842">
        <ele>182.608108</ele>
        <time>2021-09-13T07:27:42.000Z</time>
      </trkpt>
      <trkpt lat="46.17646" lon="4.81846">
        <ele>182.570536</ele>
        <time>2021-09-13T07:27:47.000Z</time>
      </trkpt>
      <trkpt lat="46.17641" lon="4.81847">
        <ele>182.562217</ele>
        <time>2021-09-13T07:27:48.000Z</time>
      </trkpt>
      <trkpt lat="46.17603" lon="4.81854">
        <ele>182.499258</ele>
        <time>2021-09-13T07:27:56.000Z</time>
      </trkpt>
      <trkpt lat="46.17589" lon="4.81857">
        <ele>182.477849</ele>
        <time>2021-09-13T07:27:59.000Z</time>
      </trkpt>
      <trkpt lat="46.17577" lon="4.81859">
        <ele>182.457499</ele>
        <time>2021-09-13T07:28:02.000Z</time>
      </trkpt>
      <trkpt lat="46.17569" lon="4.8186">
        <ele>182.444477</ele>
        <time>2021-09-13T07:28:04.000Z</time>
      </trkpt>
      <trkpt lat="46.17553" lon="4.81863">
        <ele>182.417938</ele>
        <time>2021-09-13T07:28:08.000Z</time>
      </trkpt>
      <trkpt lat="46.17538" lon="4.81865">
        <ele>182.393856</ele>
        <time>2021-09-13T07:28:11.000Z</time>
      </trkpt>
      <trkpt lat="46.17523" lon="4.81867">
        <ele>182.366425</ele>
        <time>2021-09-13T07:28:14.000Z</time>
      </trkpt>
      <trkpt lat="46.17494" lon="4.81871">
        <ele>182.312347</ele>
        <time>2021-09-13T07:28:20.000Z</time>
      </trkpt>
      <trkpt lat="46.17453" lon="4.81875">
        <ele>182.236056</ele>
        <time>2021-09-13T07:28:27.000Z</time>
      </trkpt>
      <trkpt lat="46.17398" lon="4.81881">
        <ele>182.135117</ele>
        <time>2021-09-13T07:28:36.000Z</time>
      </trkpt>
      <trkpt lat="46.17363" lon="4.81891">
        <ele>182.068875</ele>
        <time>2021-09-13T07:28:42.000Z</time>
      </trkpt>
      <trkpt lat="46.17326" lon="4.81906">
        <ele>182.122638</ele>
        <time>2021-09-13T07:28:49.000Z</time>
      </trkpt>
      <trkpt lat="46.17291" lon="4.81924">
        <ele>182.177606</ele>
        <time>2021-09-13T07:28:56.000Z</time>
      </trkpt>
      <trkpt lat="46.17272" lon="4.81933">
        <ele>182.208411</ele>
        <time>2021-09-13T07:29:01.000Z</time>
      </trkpt>
      <trkpt lat="46.17256" lon="4.81942">
        <ele>182.234531</ele>
        <time>2021-09-13T07:29:05.000Z</time>
      </trkpt>
      <trkpt lat="46.17251" lon="4.81945">
        <ele>182.242523</ele>
        <time>2021-09-13T07:29:06.000Z</time>
      </trkpt>
      <trkpt lat="46.17217" lon="4.81965">
        <ele>182.297249</ele>
        <time>2021-09-13T07:29:12.000Z</time>
      </trkpt>
      <trkpt lat="46.17176" lon="4.81983">
        <ele>182.492589</ele>
        <time>2021-09-13T07:29:19.000Z</time>
      </trkpt>
      <trkpt lat="46.17158" lon="4.81988">
        <ele>182.657473</ele>
        <time>2021-09-13T07:29:22.000Z</time>
      </trkpt>
      <trkpt lat="46.17146" lon="4.8199">
        <ele>182.766925</ele>
        <time>2021-09-13T07:29:24.000Z</time>
      </trkpt>
      <trkpt lat="46.17117" lon="4.81992">
        <ele>183.033718</ele>
        <time>2021-09-13T07:29:29.000Z</time>
      </trkpt>
      <trkpt lat="46.17106" lon="4.81991">
        <ele>183.140354</ele>
        <time>2021-09-13T07:29:31.000Z</time>
      </trkpt>
      <trkpt lat="46.1706" lon="4.81987">
        <ele>183.558576</ele>
        <time>2021-09-13T07:29:39.000Z</time>
      </trkpt>
      <trkpt lat="46.17032" lon="4.81984">
        <ele>183.817892</ele>
        <time>2021-09-13T07:29:45.000Z</time>
      </trkpt>
      <trkpt lat="46.17001" lon="4.8198">
        <ele>184.149741</ele>
        <time>2021-09-13T07:29:52.000Z</time>
      </trkpt>
      <trkpt lat="46.16965" lon="4.81975">
        <ele>184.636352</ele>
        <time>2021-09-13T07:30:01.000Z</time>
      </trkpt>
      <trkpt lat="46.16948" lon="4.81971">
        <ele>184.871044</ele>
        <time>2021-09-13T07:30:06.000Z</time>
      </trkpt>
      <trkpt lat="46.16946" lon="4.81971">
        <ele>184.888621</ele>
        <time>2021-09-13T07:30:09.000Z</time>
      </trkpt>
      <trkpt lat="46.16943" lon="4.81958">
        <ele>185.017726</ele>
        <time>2021-09-13T07:30:20.000Z</time>
      </trkpt>
      <trkpt lat="46.16944" lon="4.81955">
        <ele>185.04768</ele>
        <time>2021-09-13T07:30:22.000Z</time>
      </trkpt>
      <trkpt lat="46.1693" lon="4.8193">
        <ele>185.344243</ele>
        <time>2021-09-13T07:30:27.000Z</time>
      </trkpt>
      <trkpt lat="46.16921" lon="4.81929">
        <ele>185.463589</ele>
        <time>2021-09-13T07:30:29.000Z</time>
      </trkpt>
      <trkpt lat="46.16916" lon="4.81931">
        <ele>185.526732</ele>
        <time>2021-09-13T07:30:30.000Z</time>
      </trkpt>
      <trkpt lat="46.16912" lon="4.81934">
        <ele>185.586083</ele>
        <time>2021-09-13T07:30:31.000Z</time>
      </trkpt>
      <trkpt lat="46.16898" lon="4.81938">
        <ele>185.784325</ele>
        <time>2021-09-13T07:30:34.000Z</time>
      </trkpt>
      <trkpt lat="46.16894" lon="4.81946">
        <ele>185.877068</ele>
        <time>2021-09-13T07:30:35.000Z</time>
      </trkpt>
      <trkpt lat="46.16879" lon="4.81935">
        <ele>186.093399</ele>
        <time>2021-09-13T07:30:38.000Z</time>
      </trkpt>
      <trkpt lat="46.16868" lon="4.81927">
        <ele>186.262766</ele>
        <time>2021-09-13T07:30:40.000Z</time>
      </trkpt>
      <trkpt lat="46.16834" lon="4.819">
        <ele>186.308093</ele>
        <time>2021-09-13T07:30:46.000Z</time>
      </trkpt>
      <trkpt lat="46.16787" lon="4.81871">
        <ele>186.164295</ele>
        <time>2021-09-13T07:30:53.000Z</time>
      </trkpt>
      <trkpt lat="46.1674" lon="4.81843">
        <ele>186.018169</ele>
        <time>2021-09-13T07:31:00.000Z</time>
      </trkpt>
      <trkpt lat="46.16693" lon="4.81816">
        <ele>185.868536</ele>
        <time>2021-09-13T07:31:07.000Z</time>
      </trkpt>
      <trkpt lat="46.16647" lon="4.81789">
        <ele>185.500202</ele>
        <time>2021-09-13T07:31:14.000Z</time>
      </trkpt>
      <trkpt lat="46.166" lon="4.81758">
        <ele>185.122077</ele>
        <time>2021-09-13T07:31:21.000Z</time>
      </trkpt>
      <trkpt lat="46.16558" lon="4.81724">
        <ele>184.769233</ele>
        <time>2021-09-13T07:31:27.000Z</time>
      </trkpt>
      <trkpt lat="46.16506" lon="4.81681">
        <ele>184.199812</ele>
        <time>2021-09-13T07:31:35.000Z</time>
      </trkpt>
      <trkpt lat="46.16468" lon="4.81651">
        <ele>183.713643</ele>
        <time>2021-09-13T07:31:41.000Z</time>
      </trkpt>
      <trkpt lat="46.16418" lon="4.81618">
        <ele>183.095202</ele>
        <time>2021-09-13T07:31:48.000Z</time>
      </trkpt>
      <trkpt lat="46.16361" lon="4.8159">
        <ele>182.457314</ele>
        <time>2021-09-13T07:31:56.000Z</time>
      </trkpt>
      <trkpt lat="46.16312" lon="4.81572">
        <ele>182.059108</ele>
        <time>2021-09-13T07:32:03.000Z</time>
      </trkpt>
      <trkpt lat="46.16256" lon="4.81561">
        <ele>181.61711</ele>
        <time>2021-09-13T07:32:11.000Z</time>
      </trkpt>
      <trkpt lat="46.16249" lon="4.8156">
        <ele>181.561804</ele>
        <time>2021-09-13T07:32:12.000Z</time>
      </trkpt>
      <trkpt lat="46.16194" lon="4.8155">
        <ele>181.122412</ele>
        <time>2021-09-13T07:32:20.000Z</time>
      </trkpt>
      <trkpt lat="46.16187" lon="4.8155">
        <ele>181.088452</ele>
        <time>2021-09-13T07:32:21.000Z</time>
      </trkpt>
      <trkpt lat="46.16146" lon="4.81554">
        <ele>180.886813</ele>
        <time>2021-09-13T07:32:27.000Z</time>
      </trkpt>
      <trkpt lat="46.16094" lon="4.81576">
        <ele>180.619455</ele>
        <time>2021-09-13T07:32:35.000Z</time>
      </trkpt>
      <trkpt lat="46.16087" lon="4.81579">
        <ele>180.586812</ele>
        <time>2021-09-13T07:32:36.000Z</time>
      </trkpt>
      <trkpt lat="46.16037" lon="4.81604">
        <ele>180.326481</ele>
        <time>2021-09-13T07:32:44.000Z</time>
      </trkpt>
      <trkpt lat="46.15997" lon="4.81623">
        <ele>180.204585</ele>
        <time>2021-09-13T07:32:51.000Z</time>
      </trkpt>
      <trkpt lat="46.15964" lon="4.81631">
        <ele>180.156982</ele>
        <time>2021-09-13T07:32:57.000Z</time>
      </trkpt>
      <trkpt lat="46.1592" lon="4.81639">
        <ele>180.094426</ele>
        <time>2021-09-13T07:33:05.000Z</time>
      </trkpt>
      <trkpt lat="46.15911" lon="4.81642">
        <ele>180.080533</ele>
        <time>2021-09-13T07:33:07.000Z</time>
      </trkpt>
      <trkpt lat="46.15891" lon="4.81647">
        <ele>180.051754</ele>
        <time>2021-09-13T07:33:11.000Z</time>
      </trkpt>
      <trkpt lat="46.15856" lon="4.81663">
        <ele>180.000044</ele>
        <time>2021-09-13T07:33:18.000Z</time>
      </trkpt>
      <trkpt lat="46.15831" lon="4.81674">
        <ele>180.090717</ele>
        <time>2021-09-13T07:33:23.000Z</time>
      </trkpt>
      <trkpt lat="46.15826" lon="4.81676">
        <ele>180.125914</ele>
        <time>2021-09-13T07:33:24.000Z</time>
      </trkpt>
      <trkpt lat="46.15796" lon="4.81679">
        <ele>180.348617</ele>
        <time>2021-09-13T07:33:30.000Z</time>
      </trkpt>
      <trkpt lat="46.15767" lon="4.81681">
        <ele>180.557395</ele>
        <time>2021-09-13T07:33:36.000Z</time>
      </trkpt>
      <trkpt lat="46.15746" lon="4.81683">
        <ele>180.707264</ele>
        <time>2021-09-13T07:33:40.000Z</time>
      </trkpt>
      <trkpt lat="46.15741" lon="4.81683">
        <ele>180.744362</ele>
        <time>2021-09-13T07:33:41.000Z</time>
      </trkpt>
      <trkpt lat="46.1572" lon="4.81685">
        <ele>180.897131</ele>
        <time>2021-09-13T07:33:45.000Z</time>
      </trkpt>
      <trkpt lat="46.1571" lon="4.81685">
        <ele>180.970518</ele>
        <time>2021-09-13T07:33:47.000Z</time>
      </trkpt>
      <trkpt lat="46.15688" lon="4.81684">
        <ele>181.129664</ele>
        <time>2021-09-13T07:33:51.000Z</time>
      </trkpt>
      <trkpt lat="46.15682" lon="4.81683">
        <ele>181.171819</ele>
        <time>2021-09-13T07:33:52.000Z</time>
      </trkpt>
      <trkpt lat="46.15676" lon="4.81683">
        <ele>181.216151</ele>
        <time>2021-09-13T07:33:53.000Z</time>
      </trkpt>
      <trkpt lat="46.15659" lon="4.81679">
        <ele>181.317867</ele>
        <time>2021-09-13T07:33:56.000Z</time>
      </trkpt>
      <trkpt lat="46.1563" lon="4.81671">
        <ele>181.430168</ele>
        <time>2021-09-13T07:34:01.000Z</time>
      </trkpt>
      <trkpt lat="46.15624" lon="4.81669">
        <ele>181.453632</ele>
        <time>2021-09-13T07:34:02.000Z</time>
      </trkpt>
      <trkpt lat="46.15605" lon="4.81663">
        <ele>181.524338</ele>
        <time>2021-09-13T07:34:05.000Z</time>
      </trkpt>
      <trkpt lat="46.15567" lon="4.81645">
        <ele>181.678062</ele>
        <time>2021-09-13T07:34:11.000Z</time>
      </trkpt>
      <trkpt lat="46.15518" lon="4.81618">
        <ele>181.876502</ele>
        <time>2021-09-13T07:34:19.000Z</time>
      </trkpt>
      <trkpt lat="46.15481" lon="4.81602">
        <ele>181.89414</ele>
        <time>2021-09-13T07:34:25.000Z</time>
      </trkpt>
      <trkpt lat="46.15445" lon="4.81588">
        <ele>181.67944</ele>
        <time>2021-09-13T07:34:31.000Z</time>
      </trkpt>
      <trkpt lat="46.15414" lon="4.81575">
        <ele>181.502889</ele>
        <time>2021-09-13T07:34:36.000Z</time>
      </trkpt>
      <trkpt lat="46.1539" lon="4.81561">
        <ele>181.353718</ele>
        <time>2021-09-13T07:34:40.000Z</time>
      </trkpt>
      <trkpt lat="46.15378" lon="4.81551">
        <ele>181.278627</ele>
        <time>2021-09-13T07:34:42.000Z</time>
      </trkpt>
      <trkpt lat="46.15337" lon="4.81516">
        <ele>181.01031</ele>
        <time>2021-09-13T07:34:49.000Z</time>
      </trkpt>
      <trkpt lat="46.15305" lon="4.81489">
        <ele>180.70704</ele>
        <time>2021-09-13T07:34:55.000Z</time>
      </trkpt>
      <trkpt lat="46.15283" lon="4.8147">
        <ele>180.477837</ele>
        <time>2021-09-13T07:34:59.000Z</time>
      </trkpt>
      <trkpt lat="46.15259" lon="4.8145">
        <ele>180.227727</ele>
        <time>2021-09-13T07:35:03.000Z</time>
      </trkpt>
      <trkpt lat="46.15215" lon="4.81412">
        <ele>179.768545</ele>
        <time>2021-09-13T07:35:10.000Z</time>
      </trkpt>
      <trkpt lat="46.15164" lon="4.81366">
        <ele>179.273227</ele>
        <time>2021-09-13T07:35:18.000Z</time>
      </trkpt>
      <trkpt lat="46.15122" lon="4.81322">
        <ele>179.015507</ele>
        <time>2021-09-13T07:35:25.000Z</time>
      </trkpt>
      <trkpt lat="46.15077" lon="4.81268">
        <ele>178.722766</ele>
        <time>2021-09-13T07:35:33.000Z</time>
      </trkpt>
      <trkpt lat="46.15029" lon="4.81211">
        <ele>178.445601</ele>
        <time>2021-09-13T07:35:42.000Z</time>
      </trkpt>
      <trkpt lat="46.15023" lon="4.81205">
        <ele>178.455913</ele>
        <time>2021-09-13T07:35:43.000Z</time>
      </trkpt>
      <trkpt lat="46.14978" lon="4.81158">
        <ele>178.537754</ele>
        <time>2021-09-13T07:35:51.000Z</time>
      </trkpt>
      <trkpt lat="46.14944" lon="4.81125">
        <ele>178.599385</ele>
        <time>2021-09-13T07:35:57.000Z</time>
      </trkpt>
      <trkpt lat="46.14897" lon="4.81085">
        <ele>178.678988</ele>
        <time>2021-09-13T07:36:05.000Z</time>
      </trkpt>
      <trkpt lat="46.14849" lon="4.81056">
        <ele>178.658167</ele>
        <time>2021-09-13T07:36:13.000Z</time>
      </trkpt>
      <trkpt lat="46.14807" lon="4.81031">
        <ele>178.600574</ele>
        <time>2021-09-13T07:36:20.000Z</time>
      </trkpt>
      <trkpt lat="46.14751" lon="4.80998">
        <ele>178.5253</ele>
        <time>2021-09-13T07:36:29.000Z</time>
      </trkpt>
      <trkpt lat="46.14702" lon="4.80967">
        <ele>178.480272</ele>
        <time>2021-09-13T07:36:37.000Z</time>
      </trkpt>
      <trkpt lat="46.1466" lon="4.80953">
        <ele>178.488718</ele>
        <time>2021-09-13T07:36:44.000Z</time>
      </trkpt>
      <trkpt lat="46.14608" lon="4.80938">
        <ele>178.498981</ele>
        <time>2021-09-13T07:36:53.000Z</time>
      </trkpt>
      <trkpt lat="46.1456" lon="4.80914">
        <ele>178.508679</ele>
        <time>2021-09-13T07:37:02.000Z</time>
      </trkpt>
      <trkpt lat="46.14513" lon="4.80889">
        <ele>178.723688</ele>
        <time>2021-09-13T07:37:11.000Z</time>
      </trkpt>
      <trkpt lat="46.14462" lon="4.80862">
        <ele>179.079761</ele>
        <time>2021-09-13T07:37:21.000Z</time>
      </trkpt>
      <trkpt lat="46.14457" lon="4.8086">
        <ele>179.116523</ele>
        <time>2021-09-13T07:37:22.000Z</time>
      </trkpt>
      <trkpt lat="46.14408" lon="4.80834">
        <ele>179.457984</ele>
        <time>2021-09-13T07:37:32.000Z</time>
      </trkpt>
      <trkpt lat="46.14354" lon="4.80807">
        <ele>179.996404</ele>
        <time>2021-09-13T07:37:43.000Z</time>
      </trkpt>
      <trkpt lat="46.14311" lon="4.80787">
        <ele>180.653385</ele>
        <time>2021-09-13T07:37:53.000Z</time>
      </trkpt>
      <trkpt lat="46.14278" lon="4.80772">
        <ele>181.14696</ele>
        <time>2021-09-13T07:38:01.000Z</time>
      </trkpt>
      <trkpt lat="46.14247" lon="4.80759">
        <ele>181.621249</ele>
        <time>2021-09-13T07:38:09.000Z</time>
      </trkpt>
      <trkpt lat="46.14206" lon="4.80743">
        <ele>182.233771</ele>
        <time>2021-09-13T07:38:19.000Z</time>
      </trkpt>
      <trkpt lat="46.14169" lon="4.80728">
        <ele>182.87151</ele>
        <time>2021-09-13T07:38:28.000Z</time>
      </trkpt>
      <trkpt lat="46.14136" lon="4.80715">
        <ele>183.451008</ele>
        <time>2021-09-13T07:38:36.000Z</time>
      </trkpt>
      <trkpt lat="46.14106" lon="4.80703">
        <ele>183.981591</ele>
        <time>2021-09-13T07:38:43.000Z</time>
      </trkpt>
      <trkpt lat="46.14072" lon="4.80689">
        <ele>184.566964</ele>
        <time>2021-09-13T07:38:50.000Z</time>
      </trkpt>
      <trkpt lat="46.14032" lon="4.80673">
        <ele>185.272125</ele>
        <time>2021-09-13T07:38:58.000Z</time>
      </trkpt>
      <trkpt lat="46.13995" lon="4.80652">
        <ele>185.482644</ele>
        <time>2021-09-13T07:39:05.000Z</time>
      </trkpt>
      <trkpt lat="46.13957" lon="4.8063">
        <ele>185.670325</ele>
        <time>2021-09-13T07:39:12.000Z</time>
      </trkpt>
      <trkpt lat="46.13918" lon="4.80605">
        <ele>185.864603</ele>
        <time>2021-09-13T07:39:19.000Z</time>
      </trkpt>
      <trkpt lat="46.13882" lon="4.80577">
        <ele>186.048569</ele>
        <time>2021-09-13T07:39:25.000Z</time>
      </trkpt>
      <trkpt lat="46.13867" lon="4.80559">
        <ele>186.128131</ele>
        <time>2021-09-13T07:39:28.000Z</time>
      </trkpt>
      <trkpt lat="46.13829" lon="4.80515">
        <ele>185.775215</ele>
        <time>2021-09-13T07:39:35.000Z</time>
      </trkpt>
      <trkpt lat="46.13801" lon="4.8048">
        <ele>185.501566</ele>
        <time>2021-09-13T07:39:40.000Z</time>
      </trkpt>
      <trkpt lat="46.13759" lon="4.80429">
        <ele>185.103202</ele>
        <time>2021-09-13T07:39:47.000Z</time>
      </trkpt>
      <trkpt lat="46.13753" lon="4.80422">
        <ele>185.046624</ele>
        <time>2021-09-13T07:39:48.000Z</time>
      </trkpt>
      <trkpt lat="46.13723" lon="4.80386">
        <ele>184.829519</ele>
        <time>2021-09-13T07:39:53.000Z</time>
      </trkpt>
      <trkpt lat="46.13693" lon="4.80352">
        <ele>184.851768</ele>
        <time>2021-09-13T07:39:58.000Z</time>
      </trkpt>
      <trkpt lat="46.13688" lon="4.80346">
        <ele>184.855845</ele>
        <time>2021-09-13T07:39:59.000Z</time>
      </trkpt>
      <trkpt lat="46.13656" lon="4.80309">
        <ele>184.880133</ele>
        <time>2021-09-13T07:40:05.000Z</time>
      </trkpt>
      <trkpt lat="46.13612" lon="4.80259">
        <ele>184.913194</ele>
        <time>2021-09-13T07:40:13.000Z</time>
      </trkpt>
      <trkpt lat="46.13571" lon="4.80206">
        <ele>184.898762</ele>
        <time>2021-09-13T07:40:21.000Z</time>
      </trkpt>
      <trkpt lat="46.13537" lon="4.80156">
        <ele>184.83592</ele>
        <time>2021-09-13T07:40:28.000Z</time>
      </trkpt>
      <trkpt lat="46.13508" lon="4.8011">
        <ele>184.780689</ele>
        <time>2021-09-13T07:40:34.000Z</time>
      </trkpt>
      <trkpt lat="46.13469" lon="4.8005">
        <ele>184.707592</ele>
        <time>2021-09-13T07:40:42.000Z</time>
      </trkpt>
      <trkpt lat="46.13464" lon="4.80042">
        <ele>184.696797</ele>
        <time>2021-09-13T07:40:43.000Z</time>
      </trkpt>
      <trkpt lat="46.13435" lon="4.79996">
        <ele>184.575807</ele>
        <time>2021-09-13T07:40:49.000Z</time>
      </trkpt>
      <trkpt lat="46.13394" lon="4.79933">
        <ele>184.410178</ele>
        <time>2021-09-13T07:40:57.000Z</time>
      </trkpt>
      <trkpt lat="46.13389" lon="4.79926">
        <ele>184.38998</ele>
        <time>2021-09-13T07:40:58.000Z</time>
      </trkpt>
      <trkpt lat="46.13355" lon="4.79873">
        <ele>184.250476</ele>
        <time>2021-09-13T07:41:05.000Z</time>
      </trkpt>
      <trkpt lat="46.13315" lon="4.79812">
        <ele>184.039386</ele>
        <time>2021-09-13T07:41:13.000Z</time>
      </trkpt>
      <trkpt lat="46.13279" lon="4.79758">
        <ele>183.834213</ele>
        <time>2021-09-13T07:41:20.000Z</time>
      </trkpt>
      <trkpt lat="46.13249" lon="4.79713">
        <ele>183.661305</ele>
        <time>2021-09-13T07:41:26.000Z</time>
      </trkpt>
      <trkpt lat="46.13209" lon="4.79654">
        <ele>183.414912</ele>
        <time>2021-09-13T07:41:34.000Z</time>
      </trkpt>
      <trkpt lat="46.13195" lon="4.79632">
        <ele>183.302987</ele>
        <time>2021-09-13T07:41:37.000Z</time>
      </trkpt>
      <trkpt lat="46.13155" lon="4.7958">
        <ele>183.013786</ele>
        <time>2021-09-13T07:41:45.000Z</time>
      </trkpt>
      <trkpt lat="46.13144" lon="4.79568">
        <ele>182.942271</ele>
        <time>2021-09-13T07:41:47.000Z</time>
      </trkpt>
      <trkpt lat="46.13098" lon="4.79516">
        <ele>182.628863</ele>
        <time>2021-09-13T07:41:56.000Z</time>
      </trkpt>
      <trkpt lat="46.13058" lon="4.79478">
        <ele>182.457176</ele>
        <time>2021-09-13T07:42:04.000Z</time>
      </trkpt>
      <trkpt lat="46.13008" lon="4.79433">
        <ele>182.332158</ele>
        <time>2021-09-13T07:42:14.000Z</time>
      </trkpt>
      <trkpt lat="46.12968" lon="4.79396">
        <ele>182.232911</ele>
        <time>2021-09-13T07:42:22.000Z</time>
      </trkpt>
      <trkpt lat="46.12921" lon="4.79353">
        <ele>182.181603</ele>
        <time>2021-09-13T07:42:32.000Z</time>
      </trkpt>
      <trkpt lat="46.12893" lon="4.79329">
        <ele>182.346354</ele>
        <time>2021-09-13T07:42:39.000Z</time>
      </trkpt>
      <trkpt lat="46.12863" lon="4.79304">
        <ele>182.521861</ele>
        <time>2021-09-13T07:42:47.000Z</time>
      </trkpt>
      <trkpt lat="46.12837" lon="4.79283">
        <ele>182.670902</ele>
        <time>2021-09-13T07:42:54.000Z</time>
      </trkpt>
      <trkpt lat="46.12813" lon="4.79264">
        <ele>182.806015</ele>
        <time>2021-09-13T07:43:01.000Z</time>
      </trkpt>
      <trkpt lat="46.12779" lon="4.79235">
        <ele>183.004765</ele>
        <time>2021-09-13T07:43:11.000Z</time>
      </trkpt>
      <trkpt lat="46.12747" lon="4.79206">
        <ele>183.107283</ele>
        <time>2021-09-13T07:43:19.000Z</time>
      </trkpt>
      <trkpt lat="46.1271" lon="4.79173">
        <ele>183.205248</ele>
        <time>2021-09-13T07:43:27.000Z</time>
      </trkpt>
      <trkpt lat="46.12666" lon="4.79136">
        <ele>183.318005</ele>
        <time>2021-09-13T07:43:35.000Z</time>
      </trkpt>
      <trkpt lat="46.1262" lon="4.79096">
        <ele>183.437977</ele>
        <time>2021-09-13T07:43:43.000Z</time>
      </trkpt>
      <trkpt lat="46.12574" lon="4.79057">
        <ele>183.369753</ele>
        <time>2021-09-13T07:43:51.000Z</time>
      </trkpt>
      <trkpt lat="46.12525" lon="4.79018">
        <ele>183.296868</ele>
        <time>2021-09-13T07:44:00.000Z</time>
      </trkpt>
      <trkpt lat="46.12481" lon="4.78983">
        <ele>183.230774</ele>
        <time>2021-09-13T07:44:08.000Z</time>
      </trkpt>
      <trkpt lat="46.12439" lon="4.78951">
        <ele>183.270573</ele>
        <time>2021-09-13T07:44:16.000Z</time>
      </trkpt>
      <trkpt lat="46.12408" lon="4.78926">
        <ele>183.362595</ele>
        <time>2021-09-13T07:44:22.000Z</time>
      </trkpt>
      <trkpt lat="46.12374" lon="4.789">
        <ele>183.459691</ele>
        <time>2021-09-13T07:44:28.000Z</time>
      </trkpt>
      <trkpt lat="46.12346" lon="4.78877">
        <ele>183.542173</ele>
        <time>2021-09-13T07:44:33.000Z</time>
      </trkpt>
      <trkpt lat="46.12318" lon="4.78857">
        <ele>183.621162</ele>
        <time>2021-09-13T07:44:38.000Z</time>
      </trkpt>
      <trkpt lat="46.12273" lon="4.78841">
        <ele>183.749539</ele>
        <time>2021-09-13T07:44:46.000Z</time>
      </trkpt>
      <trkpt lat="46.12227" lon="4.78826">
        <ele>183.883753</ele>
        <time>2021-09-13T07:44:54.000Z</time>
      </trkpt>
      <trkpt lat="46.12183" lon="4.78801">
        <ele>184.018809</ele>
        <time>2021-09-13T07:45:02.000Z</time>
      </trkpt>
      <trkpt lat="46.12145" lon="4.78777">
        <ele>184.137026</ele>
        <time>2021-09-13T07:45:10.000Z</time>
      </trkpt>
      <trkpt lat="46.12109" lon="4.78759">
        <ele>184.444709</ele>
        <time>2021-09-13T07:45:18.000Z</time>
      </trkpt>
      <trkpt lat="46.12077" lon="4.78744">
        <ele>184.80251</ele>
        <time>2021-09-13T07:45:25.000Z</time>
      </trkpt>
      <trkpt lat="46.12047" lon="4.78731">
        <ele>185.138654</ele>
        <time>2021-09-13T07:45:32.000Z</time>
      </trkpt>
      <trkpt lat="46.12043" lon="4.78729">
        <ele>185.183865</ele>
        <time>2021-09-13T07:45:33.000Z</time>
      </trkpt>
      <trkpt lat="46.12012" lon="4.7871">
        <ele>185.553138</ele>
        <time>2021-09-13T07:45:41.000Z</time>
      </trkpt>
      <trkpt lat="46.11986" lon="4.78692">
        <ele>185.864313</ele>
        <time>2021-09-13T07:45:48.000Z</time>
      </trkpt>
      <trkpt lat="46.1195" lon="4.78667">
        <ele>186.185154</ele>
        <time>2021-09-13T07:45:57.000Z</time>
      </trkpt>
      <trkpt lat="46.11915" lon="4.78644">
        <ele>186.348134</ele>
        <time>2021-09-13T07:46:04.000Z</time>
      </trkpt>
      <trkpt lat="46.11872" lon="4.78612">
        <ele>186.5519</ele>
        <time>2021-09-13T07:46:12.000Z</time>
      </trkpt>
      <trkpt lat="46.11857" lon="4.78598">
        <ele>186.627011</ele>
        <time>2021-09-13T07:46:15.000Z</time>
      </trkpt>
      <trkpt lat="46.11843" lon="4.78582">
        <ele>186.701876</ele>
        <time>2021-09-13T07:46:18.000Z</time>
      </trkpt>
      <trkpt lat="46.11834" lon="4.78571">
        <ele>186.752058</ele>
        <time>2021-09-13T07:46:20.000Z</time>
      </trkpt>
      <trkpt lat="46.11815" lon="4.78551">
        <ele>186.849487</ele>
        <time>2021-09-13T07:46:24.000Z</time>
      </trkpt>
      <trkpt lat="46.11774" lon="4.78513">
        <ele>187.001521</ele>
        <time>2021-09-13T07:46:33.000Z</time>
      </trkpt>
      <trkpt lat="46.11729" lon="4.78486">
        <ele>187.145621</ele>
        <time>2021-09-13T07:46:42.000Z</time>
      </trkpt>
      <trkpt lat="46.11681" lon="4.7846">
        <ele>187.295562</ele>
        <time>2021-09-13T07:46:51.000Z</time>
      </trkpt>
      <trkpt lat="46.11647" lon="4.78441">
        <ele>187.401981</ele>
        <time>2021-09-13T07:46:58.000Z</time>
      </trkpt>
      <trkpt lat="46.11602" lon="4.78414">
        <ele>187.268709</ele>
        <time>2021-09-13T07:47:07.000Z</time>
      </trkpt>
      <trkpt lat="46.11557" lon="4.78391">
        <ele>187.13884</ele>
        <time>2021-09-13T07:47:16.000Z</time>
      </trkpt>
      <trkpt lat="46.11517" lon="4.78374">
        <ele>187.026062</ele>
        <time>2021-09-13T07:47:24.000Z</time>
      </trkpt>
      <trkpt lat="46.11471" lon="4.78354">
        <ele>186.902319</ele>
        <time>2021-09-13T07:47:33.000Z</time>
      </trkpt>
      <trkpt lat="46.11423" lon="4.78331">
        <ele>186.829486</ele>
        <time>2021-09-13T07:47:42.000Z</time>
      </trkpt>
      <trkpt lat="46.11384" lon="4.78301">
        <ele>186.76648</ele>
        <time>2021-09-13T07:47:50.000Z</time>
      </trkpt>
      <trkpt lat="46.11345" lon="4.7827">
        <ele>186.701729</ele>
        <time>2021-09-13T07:47:58.000Z</time>
      </trkpt>
      <trkpt lat="46.11295" lon="4.78229">
        <ele>186.678952</ele>
        <time>2021-09-13T07:48:07.000Z</time>
      </trkpt>
      <trkpt lat="46.11253" lon="4.78191">
        <ele>186.735864</ele>
        <time>2021-09-13T07:48:15.000Z</time>
      </trkpt>
      <trkpt lat="46.11229" lon="4.78169">
        <ele>186.768697</ele>
        <time>2021-09-13T07:48:20.000Z</time>
      </trkpt>
      <trkpt lat="46.11185" lon="4.78127">
        <ele>186.829244</ele>
        <time>2021-09-13T07:48:29.000Z</time>
      </trkpt>
      <trkpt lat="46.11145" lon="4.78095">
        <ele>186.859194</ele>
        <time>2021-09-13T07:48:37.000Z</time>
      </trkpt>
      <trkpt lat="46.11115" lon="4.78077">
        <ele>186.859407</ele>
        <time>2021-09-13T07:48:43.000Z</time>
      </trkpt>
      <trkpt lat="46.1111" lon="4.78075">
        <ele>186.859441</ele>
        <time>2021-09-13T07:48:44.000Z</time>
      </trkpt>
      <trkpt lat="46.11079" lon="4.78056">
        <ele>186.859669</ele>
        <time>2021-09-13T07:48:50.000Z</time>
      </trkpt>
      <trkpt lat="46.11027" lon="4.78034">
        <ele>186.86003</ele>
        <time>2021-09-13T07:48:59.000Z</time>
      </trkpt>
      <trkpt lat="46.11021" lon="4.78032">
        <ele>186.860073</ele>
        <time>2021-09-13T07:49:00.000Z</time>
      </trkpt>
      <trkpt lat="46.10978" lon="4.78016">
        <ele>186.808286</ele>
        <time>2021-09-13T07:49:07.000Z</time>
      </trkpt>
      <trkpt lat="46.10924" lon="4.77997">
        <ele>186.62392</ele>
        <time>2021-09-13T07:49:16.000Z</time>
      </trkpt>
      <trkpt lat="46.10887" lon="4.77984">
        <ele>186.497492</ele>
        <time>2021-09-13T07:49:23.000Z</time>
      </trkpt>
      <trkpt lat="46.10851" lon="4.77972">
        <ele>186.376417</ele>
        <time>2021-09-13T07:49:30.000Z</time>
      </trkpt>
      <trkpt lat="46.10807" lon="4.77952">
        <ele>186.123077</ele>
        <time>2021-09-13T07:49:38.000Z</time>
      </trkpt>
      <trkpt lat="46.10784" lon="4.77938">
        <ele>185.838792</ele>
        <time>2021-09-13T07:49:42.000Z</time>
      </trkpt>
      <trkpt lat="46.10778" lon="4.77934">
        <ele>185.762938</ele>
        <time>2021-09-13T07:49:43.000Z</time>
      </trkpt>
      <trkpt lat="46.10741" lon="4.77897">
        <ele>185.252585</ele>
        <time>2021-09-13T07:49:49.000Z</time>
      </trkpt>
      <trkpt lat="46.10701" lon="4.77848">
        <ele>184.658548</ele>
        <time>2021-09-13T07:49:55.000Z</time>
      </trkpt>
      <trkpt lat="46.10663" lon="4.77794">
        <ele>184.144068</ele>
        <time>2021-09-13T07:50:01.000Z</time>
      </trkpt>
      <trkpt lat="46.10627" lon="4.77744">
        <ele>183.869034</ele>
        <time>2021-09-13T07:50:07.000Z</time>
      </trkpt>
      <trkpt lat="46.10593" lon="4.77704">
        <ele>183.620812</ele>
        <time>2021-09-13T07:50:13.000Z</time>
      </trkpt>
      <trkpt lat="46.10587" lon="4.77699">
        <ele>183.582047</ele>
        <time>2021-09-13T07:50:14.000Z</time>
      </trkpt>
      <trkpt lat="46.10563" lon="4.77683">
        <ele>183.434619</ele>
        <time>2021-09-13T07:50:18.000Z</time>
      </trkpt>
      <trkpt lat="46.10517" lon="4.77661">
        <ele>183.255888</ele>
        <time>2021-09-13T07:50:26.000Z</time>
      </trkpt>
      <trkpt lat="46.10483" lon="4.77648">
        <ele>183.341864</ele>
        <time>2021-09-13T07:50:33.000Z</time>
      </trkpt>
      <trkpt lat="46.10437" lon="4.77626">
        <ele>183.458942</ele>
        <time>2021-09-13T07:50:43.000Z</time>
      </trkpt>
      <trkpt lat="46.104" lon="4.77599">
        <ele>183.561646</ele>
        <time>2021-09-13T07:50:52.000Z</time>
      </trkpt>
      <trkpt lat="46.10369" lon="4.77572">
        <ele>183.648022</ele>
        <time>2021-09-13T07:51:00.000Z</time>
      </trkpt>
      <trkpt lat="46.10342" lon="4.77552">
        <ele>183.864717</ele>
        <time>2021-09-13T07:51:08.000Z</time>
      </trkpt>
      <trkpt lat="46.10333" lon="4.77545">
        <ele>183.960527</ele>
        <time>2021-09-13T07:51:12.000Z</time>
      </trkpt>
      <trkpt lat="46.10329" lon="4.77532">
        <ele>184.044424</ele>
        <time>2021-09-13T07:51:13.000Z</time>
      </trkpt>
      <trkpt lat="46.10331" lon="4.77509">
        <ele>184.182637</ele>
        <time>2021-09-13T07:51:18.000Z</time>
      </trkpt>
      <trkpt lat="46.1033" lon="4.77503">
        <ele>184.219126</ele>
        <time>2021-09-13T07:51:19.000Z</time>
      </trkpt>
      <trkpt lat="46.10325" lon="4.77485">
        <ele>184.339837</ele>
        <time>2021-09-13T07:51:23.000Z</time>
      </trkpt>
      <trkpt lat="46.10319" lon="4.77469">
        <ele>184.449177</ele>
        <time>2021-09-13T07:51:28.000Z</time>
      </trkpt>
      <trkpt lat="46.10311" lon="4.77456">
        <ele>184.553017</ele>
        <time>2021-09-13T07:51:34.000Z</time>
      </trkpt>
      <trkpt lat="46.10299" lon="4.77435">
        <ele>184.719165</ele>
        <time>2021-09-13T07:51:42.000Z</time>
      </trkpt>
      <trkpt lat="46.10292" lon="4.77423">
        <ele>184.813425</ele>
        <time>2021-09-13T07:51:46.000Z</time>
      </trkpt>
      <trkpt lat="46.10292" lon="4.77434">
        <ele>184.878061</ele>
        <time>2021-09-13T07:51:48.000Z</time>
      </trkpt>
      <trkpt lat="46.10301" lon="4.77437">
        <ele>184.955583</ele>
        <time>2021-09-13T07:51:51.000Z</time>
      </trkpt>
      <trkpt lat="46.10303" lon="4.77442">
        <ele>184.990502</ele>
        <time>2021-09-13T07:51:52.000Z</time>
      </trkpt>
      <trkpt lat="46.1032" lon="4.7747">
        <ele>185.213021</ele>
        <time>2021-09-13T07:51:58.000Z</time>
      </trkpt>
      <trkpt lat="46.10327" lon="4.77489">
        <ele>185.337289</ele>
        <time>2021-09-13T07:52:01.000Z</time>
      </trkpt>
      <trkpt lat="46.1033" lon="4.77504">
        <ele>185.427856</ele>
        <time>2021-09-13T07:52:03.000Z</time>
      </trkpt>
      <trkpt lat="46.10331" lon="4.77512">
        <ele>185.474859</ele>
        <time>2021-09-13T07:52:04.000Z</time>
      </trkpt>
      <trkpt lat="46.1033" lon="4.77528">
        <ele>185.565617</ele>
        <time>2021-09-13T07:52:06.000Z</time>
      </trkpt>
      <trkpt lat="46.10318" lon="4.77536">
        <ele>185.672948</ele>
        <time>2021-09-13T07:52:08.000Z</time>
      </trkpt>
      <trkpt lat="46.10304" lon="4.77528">
        <ele>185.799655</ele>
        <time>2021-09-13T07:52:11.000Z</time>
      </trkpt>
      <trkpt lat="46.10277" lon="4.77521">
        <ele>186.028725</ele>
        <time>2021-09-13T07:52:17.000Z</time>
      </trkpt>
      <trkpt lat="46.10247" lon="4.77516">
        <ele>186.275291</ele>
        <time>2021-09-13T07:52:24.000Z</time>
      </trkpt>
      <trkpt lat="46.10239" lon="4.77516">
        <ele>186.344631</ele>
        <time>2021-09-13T07:52:26.000Z</time>
      </trkpt>
      <trkpt lat="46.10226" lon="4.77515">
        <ele>186.447799</ele>
        <time>2021-09-13T07:52:29.000Z</time>
      </trkpt>
      <trkpt lat="46.10189" lon="4.77514">
        <ele>186.787677</ele>
        <time>2021-09-13T07:52:38.000Z</time>
      </trkpt>
      <trkpt lat="46.10156" lon="4.77512">
        <ele>187.258024</ele>
        <time>2021-09-13T07:52:46.000Z</time>
      </trkpt>
      <trkpt lat="46.10152" lon="4.77512">
        <ele>187.315896</ele>
        <time>2021-09-13T07:52:47.000Z</time>
      </trkpt>
      <trkpt lat="46.10113" lon="4.77504">
        <ele>187.886893</ele>
        <time>2021-09-13T07:52:56.000Z</time>
      </trkpt>
      <trkpt lat="46.10071" lon="4.77487">
        <ele>188.516805</ele>
        <time>2021-09-13T07:53:06.000Z</time>
      </trkpt>
      <trkpt lat="46.10039" lon="4.7747">
        <ele>189.005008</ele>
        <time>2021-09-13T07:53:14.000Z</time>
      </trkpt>
      <trkpt lat="46.10019" lon="4.77455">
        <ele>189.332355</ele>
        <time>2021-09-13T07:53:20.000Z</time>
      </trkpt>
      <trkpt lat="46.10014" lon="4.77445">
        <ele>189.465492</ele>
        <time>2021-09-13T07:53:23.000Z</time>
      </trkpt>
      <trkpt lat="46.1001" lon="4.77442">
        <ele>189.518519</ele>
        <time>2021-09-13T07:53:24.000Z</time>
      </trkpt>
      <trkpt lat="46.10007" lon="4.77443">
        <ele>189.560947</ele>
        <time>2021-09-13T07:53:25.000Z</time>
      </trkpt>
      <trkpt lat="46.09991" lon="4.77451">
        <ele>189.809609</ele>
        <time>2021-09-13T07:53:28.000Z</time>
      </trkpt>
      <trkpt lat="46.09983" lon="4.77445">
        <ele>189.935263</ele>
        <time>2021-09-13T07:53:30.000Z</time>
      </trkpt>
      <trkpt lat="46.09971" lon="4.77435">
        <ele>190.127594</ele>
        <time>2021-09-13T07:53:33.000Z</time>
      </trkpt>
      <trkpt lat="46.09927" lon="4.7741">
        <ele>190.810657</ele>
        <time>2021-09-13T07:53:43.000Z</time>
      </trkpt>
      <trkpt lat="46.09892" lon="4.77391">
        <ele>191.351318</ele>
        <time>2021-09-13T07:53:51.000Z</time>
      </trkpt>
      <trkpt lat="46.09841" lon="4.77363">
        <ele>192.137835</ele>
        <time>2021-09-13T07:54:02.000Z</time>
      </trkpt>
      <trkpt lat="46.09801" lon="4.77341">
        <ele>192.800319</ele>
        <time>2021-09-13T07:54:11.000Z</time>
      </trkpt>
      <trkpt lat="46.09748" lon="4.77312">
        <ele>193.673484</ele>
        <time>2021-09-13T07:54:23.000Z</time>
      </trkpt>
      <trkpt lat="46.09702" lon="4.77287">
        <ele>194.427834</ele>
        <time>2021-09-13T07:54:34.000Z</time>
      </trkpt>
      <trkpt lat="46.09698" lon="4.77285">
        <ele>194.495449</ele>
        <time>2021-09-13T07:54:35.000Z</time>
      </trkpt>
      <trkpt lat="46.09683" lon="4.77282">
        <ele>194.705006</ele>
        <time>2021-09-13T07:54:39.000Z</time>
      </trkpt>
      <trkpt lat="46.09677" lon="4.77273">
        <ele>194.794267</ele>
        <time>2021-09-13T07:54:40.000Z</time>
      </trkpt>
      <trkpt lat="46.09674" lon="4.77263">
        <ele>194.868184</ele>
        <time>2021-09-13T07:54:42.000Z</time>
      </trkpt>
      <trkpt lat="46.09665" lon="4.77254">
        <ele>194.979916</ele>
        <time>2021-09-13T07:54:44.000Z</time>
      </trkpt>
      <trkpt lat="46.0966" lon="4.77255">
        <ele>195.023752</ele>
        <time>2021-09-13T07:54:45.000Z</time>
      </trkpt>
      <trkpt lat="46.09646" lon="4.77261">
        <ele>195.173774</ele>
        <time>2021-09-13T07:54:48.000Z</time>
      </trkpt>
      <trkpt lat="46.09633" lon="4.77251">
        <ele>195.317837</ele>
        <time>2021-09-13T07:54:51.000Z</time>
      </trkpt>
      <trkpt lat="46.09596" lon="4.77226">
        <ele>195.718637</ele>
        <time>2021-09-13T07:54:59.000Z</time>
      </trkpt>
      <trkpt lat="46.09554" lon="4.77199">
        <ele>196.174953</ele>
        <time>2021-09-13T07:55:07.000Z</time>
      </trkpt>
      <trkpt lat="46.09504" lon="4.77166">
        <ele>196.520885</ele>
        <time>2021-09-13T07:55:16.000Z</time>
      </trkpt>
      <trkpt lat="46.09451" lon="4.77131">
        <ele>196.684181</ele>
        <time>2021-09-13T07:55:24.000Z</time>
      </trkpt>
      <trkpt lat="46.09397" lon="4.77095">
        <ele>196.847534</ele>
        <time>2021-09-13T07:55:32.000Z</time>
      </trkpt>
      <trkpt lat="46.09391" lon="4.77091">
        <ele>196.86625</ele>
        <time>2021-09-13T07:55:33.000Z</time>
      </trkpt>
      <trkpt lat="46.09353" lon="4.77066">
        <ele>197.314171</ele>
        <time>2021-09-13T07:55:40.000Z</time>
      </trkpt>
      <trkpt lat="46.09322" lon="4.77044">
        <ele>198.17382</ele>
        <time>2021-09-13T07:55:47.000Z</time>
      </trkpt>
      <trkpt lat="46.09297" lon="4.77026">
        <ele>198.890487</ele>
        <time>2021-09-13T07:55:55.000Z</time>
      </trkpt>
      <trkpt lat="46.09276" lon="4.7701">
        <ele>199.490744</ele>
        <time>2021-09-13T07:56:03.000Z</time>
      </trkpt>
      <trkpt lat="46.09256" lon="4.76996">
        <ele>200.065122</ele>
        <time>2021-09-13T07:56:11.000Z</time>
      </trkpt>
      <trkpt lat="46.09235" lon="4.76981">
        <ele>200.634186</ele>
        <time>2021-09-13T07:56:19.000Z</time>
      </trkpt>
      <trkpt lat="46.09218" lon="4.76969">
        <ele>201.134741</ele>
        <time>2021-09-13T07:56:26.000Z</time>
      </trkpt>
      <trkpt lat="46.09195" lon="4.76954">
        <ele>201.962131</ele>
        <time>2021-09-13T07:56:35.000Z</time>
      </trkpt>
      <trkpt lat="46.09178" lon="4.76943">
        <ele>202.771514</ele>
        <time>2021-09-13T07:56:42.000Z</time>
      </trkpt>
      <trkpt lat="46.09155" lon="4.76927">
        <ele>203.882463</ele>
        <time>2021-09-13T07:56:52.000Z</time>
      </trkpt>
      <trkpt lat="46.09131" lon="4.76911">
        <ele>204.998622</ele>
        <time>2021-09-13T07:57:02.000Z</time>
      </trkpt>
      <trkpt lat="46.09107" lon="4.76895">
        <ele>206.167014</ele>
        <time>2021-09-13T07:57:13.000Z</time>
      </trkpt>
      <trkpt lat="46.09087" lon="4.76882">
        <ele>207.144957</ele>
        <time>2021-09-13T07:57:22.000Z</time>
      </trkpt>
      <trkpt lat="46.0907" lon="4.76872">
        <ele>207.90193</ele>
        <time>2021-09-13T07:57:29.000Z</time>
      </trkpt>
      <trkpt lat="46.09052" lon="4.76861">
        <ele>208.79206</ele>
        <time>2021-09-13T07:57:37.000Z</time>
      </trkpt>
      <trkpt lat="46.0903" lon="4.76851">
        <ele>209.668834</ele>
        <time>2021-09-13T07:57:46.000Z</time>
      </trkpt>
      <trkpt lat="46.09014" lon="4.76845">
        <ele>210.271109</ele>
        <time>2021-09-13T07:57:53.000Z</time>
      </trkpt>
      <trkpt lat="46.08996" lon="4.7684">
        <ele>210.889501</ele>
        <time>2021-09-13T07:58:00.000Z</time>
      </trkpt>
      <trkpt lat="46.0897" lon="4.76832">
        <ele>211.81367</ele>
        <time>2021-09-13T07:58:09.000Z</time>
      </trkpt>
      <trkpt lat="46.08935" lon="4.76824">
        <ele>213.069151</ele>
        <time>2021-09-13T07:58:20.000Z</time>
      </trkpt>
      <trkpt lat="46.08907" lon="4.76817">
        <ele>214.052702</ele>
        <time>2021-09-13T07:58:28.000Z</time>
      </trkpt>
      <trkpt lat="46.08878" lon="4.76811">
        <ele>215.071804</ele>
        <time>2021-09-13T07:58:36.000Z</time>
      </trkpt>
      <trkpt lat="46.08849" lon="4.76805">
        <ele>216.034782</ele>
        <time>2021-09-13T07:58:44.000Z</time>
      </trkpt>
      <trkpt lat="46.08822" lon="4.76803">
        <ele>216.925952</ele>
        <time>2021-09-13T07:58:52.000Z</time>
      </trkpt>
      <trkpt lat="46.0879" lon="4.76805">
        <ele>217.928961</ele>
        <time>2021-09-13T07:59:01.000Z</time>
      </trkpt>
      <trkpt lat="46.08768" lon="4.76807">
        <ele>218.632257</ele>
        <time>2021-09-13T07:59:08.000Z</time>
      </trkpt>
      <trkpt lat="46.08746" lon="4.76808">
        <ele>219.334605</ele>
        <time>2021-09-13T07:59:16.000Z</time>
      </trkpt>
      <trkpt lat="46.08731" lon="4.76797">
        <ele>219.881944</ele>
        <time>2021-09-13T07:59:22.000Z</time>
      </trkpt>
      <trkpt lat="46.08717" lon="4.7678">
        <ele>220.458999</ele>
        <time>2021-09-13T07:59:28.000Z</time>
      </trkpt>
      <trkpt lat="46.08703" lon="4.76785">
        <ele>220.924235</ele>
        <time>2021-09-13T07:59:32.000Z</time>
      </trkpt>
      <trkpt lat="46.08692" lon="4.76813">
        <ele>221.49344</ele>
        <time>2021-09-13T07:59:37.000Z</time>
      </trkpt>
      <trkpt lat="46.08684" lon="4.76816">
        <ele>221.626697</ele>
        <time>2021-09-13T07:59:39.000Z</time>
      </trkpt>
      <trkpt lat="46.08677" lon="4.7682">
        <ele>221.763898</ele>
        <time>2021-09-13T07:59:41.000Z</time>
      </trkpt>
      <trkpt lat="46.08648" lon="4.76826">
        <ele>222.265419</ele>
        <time>2021-09-13T07:59:48.000Z</time>
      </trkpt>
      <trkpt lat="46.08613" lon="4.76833">
        <ele>222.856362</ele>
        <time>2021-09-13T07:59:56.000Z</time>
      </trkpt>
      <trkpt lat="46.086" lon="4.76835">
        <ele>223.09135</ele>
        <time>2021-09-13T07:59:59.000Z</time>
      </trkpt>
      <trkpt lat="46.0859" lon="4.76836">
        <ele>223.250785</ele>
        <time>2021-09-13T08:00:01.000Z</time>
      </trkpt>
      <trkpt lat="46.0858" lon="4.76838">
        <ele>223.420647</ele>
        <time>2021-09-13T08:00:03.000Z</time>
      </trkpt>
      <trkpt lat="46.08551" lon="4.76843">
        <ele>223.916418</ele>
        <time>2021-09-13T08:00:09.000Z</time>
      </trkpt>
      <trkpt lat="46.08506" lon="4.76851">
        <ele>224.333247</ele>
        <time>2021-09-13T08:00:18.000Z</time>
      </trkpt>
      <trkpt lat="46.08466" lon="4.76857">
        <ele>224.219597</ele>
        <time>2021-09-13T08:00:25.000Z</time>
      </trkpt>
      <trkpt lat="46.0842" lon="4.76864">
        <ele>224.091985</ele>
        <time>2021-09-13T08:00:32.000Z</time>
      </trkpt>
      <trkpt lat="46.08375" lon="4.7687">
        <ele>223.966095</ele>
        <time>2021-09-13T08:00:38.000Z</time>
      </trkpt>
      <trkpt lat="46.08324" lon="4.76877">
        <ele>223.464133</ele>
        <time>2021-09-13T08:00:44.000Z</time>
      </trkpt>
      <trkpt lat="46.08285" lon="4.76882">
        <ele>222.685226</ele>
        <time>2021-09-13T08:00:49.000Z</time>
      </trkpt>
      <trkpt lat="46.08241" lon="4.76887">
        <ele>221.808594</ele>
        <time>2021-09-13T08:00:55.000Z</time>
      </trkpt>
      <trkpt lat="46.08212" lon="4.76891">
        <ele>221.219429</ele>
        <time>2021-09-13T08:01:00.000Z</time>
      </trkpt>
      <trkpt lat="46.08188" lon="4.76894">
        <ele>220.75015</ele>
        <time>2021-09-13T08:01:06.000Z</time>
      </trkpt>
      <trkpt lat="46.08168" lon="4.76897">
        <ele>220.338195</ele>
        <time>2021-09-13T08:01:13.000Z</time>
      </trkpt>
      <trkpt lat="46.08143" lon="4.76901">
        <ele>219.504372</ele>
        <time>2021-09-13T08:01:21.000Z</time>
      </trkpt>
      <trkpt lat="46.08127" lon="4.76903">
        <ele>218.948246</ele>
        <time>2021-09-13T08:01:28.000Z</time>
      </trkpt>
      <trkpt lat="46.08106" lon="4.76907">
        <ele>218.22405</ele>
        <time>2021-09-13T08:01:35.000Z</time>
      </trkpt>
      <trkpt lat="46.08081" lon="4.7691">
        <ele>217.382947</ele>
        <time>2021-09-13T08:01:40.000Z</time>
      </trkpt>
      <trkpt lat="46.08047" lon="4.76915">
        <ele>216.199397</ele>
        <time>2021-09-13T08:01:45.000Z</time>
      </trkpt>
      <trkpt lat="46.08004" lon="4.76921">
        <ele>214.745626</ele>
        <time>2021-09-13T08:01:50.000Z</time>
      </trkpt>
      <trkpt lat="46.07946" lon="4.7693">
        <ele>212.920199</ele>
        <time>2021-09-13T08:01:56.000Z</time>
      </trkpt>
      <trkpt lat="46.07892" lon="4.76938">
        <ele>211.295569</ele>
        <time>2021-09-13T08:02:01.000Z</time>
      </trkpt>
      <trkpt lat="46.07858" lon="4.76943">
        <ele>210.286756</ele>
        <time>2021-09-13T08:02:04.000Z</time>
      </trkpt>
      <trkpt lat="46.07803" lon="4.7695">
        <ele>208.640945</ele>
        <time>2021-09-13T08:02:09.000Z</time>
      </trkpt>
      <trkpt lat="46.07782" lon="4.76953">
        <ele>208.010341</ele>
        <time>2021-09-13T08:02:11.000Z</time>
      </trkpt>
      <trkpt lat="46.07721" lon="4.76962">
        <ele>206.186889</ele>
        <time>2021-09-13T08:02:17.000Z</time>
      </trkpt>
      <trkpt lat="46.07701" lon="4.76965">
        <ele>205.601076</ele>
        <time>2021-09-13T08:02:19.000Z</time>
      </trkpt>
      <trkpt lat="46.07644" lon="4.76973">
        <ele>203.913941</ele>
        <time>2021-09-13T08:02:25.000Z</time>
      </trkpt>
      <trkpt lat="46.07635" lon="4.76974">
        <ele>203.640078</ele>
        <time>2021-09-13T08:02:26.000Z</time>
      </trkpt>
      <trkpt lat="46.07572" lon="4.76984">
        <ele>201.639979</ele>
        <time>2021-09-13T08:02:33.000Z</time>
      </trkpt>
      <trkpt lat="46.07564" lon="4.76985">
        <ele>201.359992</ele>
        <time>2021-09-13T08:02:34.000Z</time>
      </trkpt>
      <trkpt lat="46.07504" lon="4.76994">
        <ele>199.426458</ele>
        <time>2021-09-13T08:02:41.000Z</time>
      </trkpt>
      <trkpt lat="46.07495" lon="4.76995">
        <ele>199.152838</ele>
        <time>2021-09-13T08:02:42.000Z</time>
      </trkpt>
      <trkpt lat="46.07436" lon="4.77004">
        <ele>197.288069</ele>
        <time>2021-09-13T08:02:49.000Z</time>
      </trkpt>
      <trkpt lat="46.07378" lon="4.77012">
        <ele>195.592245</ele>
        <time>2021-09-13T08:02:56.000Z</time>
      </trkpt>
      <trkpt lat="46.07362" lon="4.77014">
        <ele>195.113184</ele>
        <time>2021-09-13T08:02:58.000Z</time>
      </trkpt>
      <trkpt lat="46.07307" lon="4.77023">
        <ele>193.496718</ele>
        <time>2021-09-13T08:03:05.000Z</time>
      </trkpt>
      <trkpt lat="46.07299" lon="4.77024">
        <ele>193.261551</ele>
        <time>2021-09-13T08:03:06.000Z</time>
      </trkpt>
      <trkpt lat="46.07245" lon="4.77032">
        <ele>191.758892</ele>
        <time>2021-09-13T08:03:13.000Z</time>
      </trkpt>
      <trkpt lat="46.07221" lon="4.77035">
        <ele>191.160129</ele>
        <time>2021-09-13T08:03:16.000Z</time>
      </trkpt>
      <trkpt lat="46.07163" lon="4.77044">
        <ele>189.644979</ele>
        <time>2021-09-13T08:03:24.000Z</time>
      </trkpt>
      <trkpt lat="46.07148" lon="4.77046">
        <ele>189.275906</ele>
        <time>2021-09-13T08:03:26.000Z</time>
      </trkpt>
      <trkpt lat="46.07093" lon="4.77054">
        <ele>187.84869</ele>
        <time>2021-09-13T08:03:34.000Z</time>
      </trkpt>
      <trkpt lat="46.07033" lon="4.77063">
        <ele>186.618935</ele>
        <time>2021-09-13T08:03:43.000Z</time>
      </trkpt>
      <trkpt lat="46.07026" lon="4.77064">
        <ele>186.482088</ele>
        <time>2021-09-13T08:03:44.000Z</time>
      </trkpt>
      <trkpt lat="46.06972" lon="4.77071">
        <ele>185.367062</ele>
        <time>2021-09-13T08:03:52.000Z</time>
      </trkpt>
      <trkpt lat="46.06915" lon="4.77074">
        <ele>184.213426</ele>
        <time>2021-09-13T08:04:00.000Z</time>
      </trkpt>
      <trkpt lat="46.06908" lon="4.77074">
        <ele>184.103897</ele>
        <time>2021-09-13T08:04:01.000Z</time>
      </trkpt>
      <trkpt lat="46.06862" lon="4.77079">
        <ele>183.445374</ele>
        <time>2021-09-13T08:04:08.000Z</time>
      </trkpt>
      <trkpt lat="46.06826" lon="4.77097">
        <ele>182.896942</ele>
        <time>2021-09-13T08:04:14.000Z</time>
      </trkpt>
      <trkpt lat="46.06782" lon="4.77135">
        <ele>182.174138</ele>
        <time>2021-09-13T08:04:22.000Z</time>
      </trkpt>
      <trkpt lat="46.06745" lon="4.77171">
        <ele>181.563152</ele>
        <time>2021-09-13T08:04:29.000Z</time>
      </trkpt>
      <trkpt lat="46.06709" lon="4.77193">
        <ele>181.205532</ele>
        <time>2021-09-13T08:04:35.000Z</time>
      </trkpt>
      <trkpt lat="46.06666" lon="4.772">
        <ele>180.814455</ele>
        <time>2021-09-13T08:04:42.000Z</time>
      </trkpt>
      <trkpt lat="46.06613" lon="4.77207">
        <ele>180.333789</ele>
        <time>2021-09-13T08:04:51.000Z</time>
      </trkpt>
      <trkpt lat="46.06567" lon="4.77207">
        <ele>179.931587</ele>
        <time>2021-09-13T08:04:59.000Z</time>
      </trkpt>
      <trkpt lat="46.06515" lon="4.77195">
        <ele>179.561035</ele>
        <time>2021-09-13T08:05:08.000Z</time>
      </trkpt>
      <trkpt lat="46.06462" lon="4.77178">
        <ele>179.171688</ele>
        <time>2021-09-13T08:05:17.000Z</time>
      </trkpt>
      <trkpt lat="46.06443" lon="4.77172">
        <ele>179.036574</ele>
        <time>2021-09-13T08:05:20.000Z</time>
      </trkpt>
      <trkpt lat="46.06383" lon="4.7715">
        <ele>178.636124</ele>
        <time>2021-09-13T08:05:29.000Z</time>
      </trkpt>
      <trkpt lat="46.0635" lon="4.77129">
        <ele>178.477197</ele>
        <time>2021-09-13T08:05:36.000Z</time>
      </trkpt>
      <trkpt lat="46.063" lon="4.77091">
        <ele>178.222673</ele>
        <time>2021-09-13T08:05:45.000Z</time>
      </trkpt>
      <trkpt lat="46.06259" lon="4.77071">
        <ele>178.032157</ele>
        <time>2021-09-13T08:05:53.000Z</time>
      </trkpt>
      <trkpt lat="46.06205" lon="4.77055">
        <ele>177.770166</ele>
        <time>2021-09-13T08:06:03.000Z</time>
      </trkpt>
      <trkpt lat="46.06151" lon="4.77051">
        <ele>177.497388</ele>
        <time>2021-09-13T08:06:13.000Z</time>
      </trkpt>
      <trkpt lat="46.06113" lon="4.77045">
        <ele>177.302362</ele>
        <time>2021-09-13T08:06:21.000Z</time>
      </trkpt>
      <trkpt lat="46.06064" lon="4.77028">
        <ele>177.050829</ele>
        <time>2021-09-13T08:06:29.000Z</time>
      </trkpt>
      <trkpt lat="46.06024" lon="4.7701">
        <ele>176.940605</ele>
        <time>2021-09-13T08:06:37.000Z</time>
      </trkpt>
      <trkpt lat="46.05973" lon="4.76988">
        <ele>176.847184</ele>
        <time>2021-09-13T08:06:47.000Z</time>
      </trkpt>
      <trkpt lat="46.05927" lon="4.76968">
        <ele>176.760537</ele>
        <time>2021-09-13T08:06:56.000Z</time>
      </trkpt>
      <trkpt lat="46.05875" lon="4.76946">
        <ele>176.686556</ele>
        <time>2021-09-13T08:07:06.000Z</time>
      </trkpt>
      <trkpt lat="46.05835" lon="4.76931">
        <ele>176.733361</ele>
        <time>2021-09-13T08:07:14.000Z</time>
      </trkpt>
      <trkpt lat="46.05781" lon="4.76924">
        <ele>176.794044</ele>
        <time>2021-09-13T08:07:24.000Z</time>
      </trkpt>
      <trkpt lat="46.05728" lon="4.76918">
        <ele>176.853771</ele>
        <time>2021-09-13T08:07:33.000Z</time>
      </trkpt>
      <trkpt lat="46.05685" lon="4.7691">
        <ele>177.181865</ele>
        <time>2021-09-13T08:07:41.000Z</time>
      </trkpt>
      <trkpt lat="46.05655" lon="4.76898">
        <ele>177.665602</ele>
        <time>2021-09-13T08:07:48.000Z</time>
      </trkpt>
      <trkpt lat="46.05616" lon="4.76883">
        <ele>178.295041</ele>
        <time>2021-09-13T08:07:58.000Z</time>
      </trkpt>
      <trkpt lat="46.05592" lon="4.76872">
        <ele>178.680402</ele>
        <time>2021-09-13T08:08:05.000Z</time>
      </trkpt>
      <trkpt lat="46.05565" lon="4.76861">
        <ele>179.116139</ele>
        <time>2021-09-13T08:08:14.000Z</time>
      </trkpt>
      <trkpt lat="46.05544" lon="4.76851">
        <ele>179.463072</ele>
        <time>2021-09-13T08:08:22.000Z</time>
      </trkpt>
      <trkpt lat="46.05518" lon="4.76837">
        <ele>180.166136</ele>
        <time>2021-09-13T08:08:32.000Z</time>
      </trkpt>
      <trkpt lat="46.05497" lon="4.76826">
        <ele>180.911142</ele>
        <time>2021-09-13T08:08:40.000Z</time>
      </trkpt>
      <trkpt lat="46.05478" lon="4.76816">
        <ele>181.615209</ele>
        <time>2021-09-13T08:08:47.000Z</time>
      </trkpt>
      <trkpt lat="46.05456" lon="4.76803">
        <ele>182.426829</ele>
        <time>2021-09-13T08:08:55.000Z</time>
      </trkpt>
      <trkpt lat="46.05429" lon="4.76786">
        <ele>183.427691</ele>
        <time>2021-09-13T08:09:05.000Z</time>
      </trkpt>
      <trkpt lat="46.05404" lon="4.76768">
        <ele>184.390492</ele>
        <time>2021-09-13T08:09:15.000Z</time>
      </trkpt>
      <trkpt lat="46.05383" lon="4.76754">
        <ele>185.151509</ele>
        <time>2021-09-13T08:09:23.000Z</time>
      </trkpt>
      <trkpt lat="46.05364" lon="4.76741">
        <ele>185.885724</ele>
        <time>2021-09-13T08:09:31.000Z</time>
      </trkpt>
      <trkpt lat="46.05337" lon="4.76726">
        <ele>186.968602</ele>
        <time>2021-09-13T08:09:41.000Z</time>
      </trkpt>
      <trkpt lat="46.05313" lon="4.76715">
        <ele>187.922785</ele>
        <time>2021-09-13T08:09:49.000Z</time>
      </trkpt>
      <trkpt lat="46.05294" lon="4.76708">
        <ele>188.660125</ele>
        <time>2021-09-13T08:09:55.000Z</time>
      </trkpt>
      <trkpt lat="46.05292" lon="4.76707">
        <ele>188.733622</ele>
        <time>2021-09-13T08:09:56.000Z</time>
      </trkpt>
      <trkpt lat="46.05292" lon="4.76707">
        <ele>188.733622</ele>
        <time>2021-09-13T08:09:58.000Z</time>
      </trkpt>
      <trkpt lat="46.05289" lon="4.76706">
        <ele>188.830195</ele>
        <time>2021-09-13T08:11:04.000Z</time>
      </trkpt>
      <trkpt lat="46.05287" lon="4.76706">
        <ele>188.915229</ele>
        <time>2021-09-13T08:11:06.000Z</time>
      </trkpt>
      <trkpt lat="46.05267" lon="4.76698">
        <ele>189.67991</ele>
        <time>2021-09-13T08:11:11.000Z</time>
      </trkpt>
      <trkpt lat="46.05241" lon="4.76689">
        <ele>190.691166</ele>
        <time>2021-09-13T08:11:18.000Z</time>
      </trkpt>
      <trkpt lat="46.05213" lon="4.76676">
        <ele>191.80952</ele>
        <time>2021-09-13T08:11:24.000Z</time>
      </trkpt>
      <trkpt lat="46.05202" lon="4.76671">
        <ele>192.233557</ele>
        <time>2021-09-13T08:11:26.000Z</time>
      </trkpt>
      <trkpt lat="46.05181" lon="4.76657">
        <ele>192.631684</ele>
        <time>2021-09-13T08:11:30.000Z</time>
      </trkpt>
      <trkpt lat="46.05136" lon="4.76632">
        <ele>192.913454</ele>
        <time>2021-09-13T08:11:38.000Z</time>
      </trkpt>
      <trkpt lat="46.05113" lon="4.76622">
        <ele>193.055148</ele>
        <time>2021-09-13T08:11:43.000Z</time>
      </trkpt>
      <trkpt lat="46.05103" lon="4.76619">
        <ele>193.119304</ele>
        <time>2021-09-13T08:11:45.000Z</time>
      </trkpt>
      <trkpt lat="46.05071" lon="4.76607">
        <ele>193.314546</ele>
        <time>2021-09-13T08:11:51.000Z</time>
      </trkpt>
      <trkpt lat="46.0504" lon="4.76582">
        <ele>193.524538</ele>
        <time>2021-09-13T08:11:57.000Z</time>
      </trkpt>
      <trkpt lat="46.05031" lon="4.76576">
        <ele>193.579391</ele>
        <time>2021-09-13T08:11:59.000Z</time>
      </trkpt>
      <trkpt lat="46.05019" lon="4.76571">
        <ele>193.650081</ele>
        <time>2021-09-13T08:12:02.000Z</time>
      </trkpt>
      <trkpt lat="46.05015" lon="4.7657">
        <ele>193.672928</ele>
        <time>2021-09-13T08:12:03.000Z</time>
      </trkpt>
      <trkpt lat="46.0501" lon="4.76569">
        <ele>193.696525</ele>
        <time>2021-09-13T08:12:04.000Z</time>
      </trkpt>
      <trkpt lat="46.05006" lon="4.76567">
        <ele>193.718646</ele>
        <time>2021-09-13T08:12:06.000Z</time>
      </trkpt>
      <trkpt lat="46.05001" lon="4.76568">
        <ele>193.743423</ele>
        <time>2021-09-13T08:12:08.000Z</time>
      </trkpt>
      <trkpt lat="46.04969" lon="4.76575">
        <ele>193.917843</ele>
        <time>2021-09-13T08:12:15.000Z</time>
      </trkpt>
      <trkpt lat="46.04933" lon="4.7658">
        <ele>194.106286</ele>
        <time>2021-09-13T08:12:22.000Z</time>
      </trkpt>
      <trkpt lat="46.04891" lon="4.76586">
        <ele>194.329628</ele>
        <time>2021-09-13T08:12:30.000Z</time>
      </trkpt>
      <trkpt lat="46.04852" lon="4.76589">
        <ele>194.533847</ele>
        <time>2021-09-13T08:12:37.000Z</time>
      </trkpt>
      <trkpt lat="46.04815" lon="4.76582">
        <ele>194.347324</ele>
        <time>2021-09-13T08:12:43.000Z</time>
      </trkpt>
      <trkpt lat="46.04777" lon="4.76569">
        <ele>194.115205</ele>
        <time>2021-09-13T08:12:49.000Z</time>
      </trkpt>
      <trkpt lat="46.04734" lon="4.76544">
        <ele>193.83896</ele>
        <time>2021-09-13T08:12:56.000Z</time>
      </trkpt>
      <trkpt lat="46.04696" lon="4.76514">
        <ele>193.580629</ele>
        <time>2021-09-13T08:13:03.000Z</time>
      </trkpt>
      <trkpt lat="46.04669" lon="4.76482">
        <ele>193.336553</ele>
        <time>2021-09-13T08:13:09.000Z</time>
      </trkpt>
      <trkpt lat="46.04628" lon="4.76432">
        <ele>192.908386</ele>
        <time>2021-09-13T08:13:17.000Z</time>
      </trkpt>
      <trkpt lat="46.04585" lon="4.76376">
        <ele>192.441371</ele>
        <time>2021-09-13T08:13:25.000Z</time>
      </trkpt>
      <trkpt lat="46.04579" lon="4.76368">
        <ele>192.380084</ele>
        <time>2021-09-13T08:13:26.000Z</time>
      </trkpt>
      <trkpt lat="46.04535" lon="4.76305">
        <ele>191.906353</ele>
        <time>2021-09-13T08:13:34.000Z</time>
      </trkpt>
      <trkpt lat="46.04497" lon="4.76249">
        <ele>191.528506</ele>
        <time>2021-09-13T08:13:41.000Z</time>
      </trkpt>
      <trkpt lat="46.04463" lon="4.76198">
        <ele>191.1823</ele>
        <time>2021-09-13T08:13:48.000Z</time>
      </trkpt>
      <trkpt lat="46.04421" lon="4.76139">
        <ele>190.789902</ele>
        <time>2021-09-13T08:13:57.000Z</time>
      </trkpt>
      <trkpt lat="46.04398" lon="4.76108">
        <ele>190.761671</ele>
        <time>2021-09-13T08:14:02.000Z</time>
      </trkpt>
      <trkpt lat="46.04388" lon="4.76097">
        <ele>190.750635</ele>
        <time>2021-09-13T08:14:04.000Z</time>
      </trkpt>
      <trkpt lat="46.04363" lon="4.76073">
        <ele>190.723321</ele>
        <time>2021-09-13T08:14:09.000Z</time>
      </trkpt>
      <trkpt lat="46.04342" lon="4.76053">
        <ele>190.701432</ele>
        <time>2021-09-13T08:14:13.000Z</time>
      </trkpt>
      <trkpt lat="46.04321" lon="4.76033">
        <ele>190.67891</ele>
        <time>2021-09-13T08:14:17.000Z</time>
      </trkpt>
      <trkpt lat="46.04312" lon="4.76023">
        <ele>190.668694</ele>
        <time>2021-09-13T08:14:19.000Z</time>
      </trkpt>
      <trkpt lat="46.04271" lon="4.75983">
        <ele>190.653855</ele>
        <time>2021-09-13T08:14:28.000Z</time>
      </trkpt>
      <trkpt lat="46.04266" lon="4.75979">
        <ele>190.668975</ele>
        <time>2021-09-13T08:14:29.000Z</time>
      </trkpt>
      <trkpt lat="46.04249" lon="4.75962">
        <ele>190.729102</ele>
        <time>2021-09-13T08:14:33.000Z</time>
      </trkpt>
      <trkpt lat="46.04216" lon="4.75923">
        <ele>190.853065</ele>
        <time>2021-09-13T08:14:41.000Z</time>
      </trkpt>
      <trkpt lat="46.04188" lon="4.75881">
        <ele>190.968903</ele>
        <time>2021-09-13T08:14:48.000Z</time>
      </trkpt>
      <trkpt lat="46.04174" lon="4.75855">
        <ele>191.036027</ele>
        <time>2021-09-13T08:14:52.000Z</time>
      </trkpt>
      <trkpt lat="46.04163" lon="4.75834">
        <ele>191.086948</ele>
        <time>2021-09-13T08:14:55.000Z</time>
      </trkpt>
      <trkpt lat="46.04135" lon="4.75794">
        <ele>191.201739</ele>
        <time>2021-09-13T08:15:02.000Z</time>
      </trkpt>
      <trkpt lat="46.04108" lon="4.7577">
        <ele>191.292219</ele>
        <time>2021-09-13T08:15:08.000Z</time>
      </trkpt>
      <trkpt lat="46.04103" lon="4.75766">
        <ele>191.306527</ele>
        <time>2021-09-13T08:15:09.000Z</time>
      </trkpt>
      <trkpt lat="46.04067" lon="4.75738">
        <ele>191.423355</ele>
        <time>2021-09-13T08:15:17.000Z</time>
      </trkpt>
      <trkpt lat="46.04046" lon="4.75722">
        <ele>191.491603</ele>
        <time>2021-09-13T08:15:22.000Z</time>
      </trkpt>
      <trkpt lat="46.04013" lon="4.75697">
        <ele>191.595561</ele>
        <time>2021-09-13T08:15:30.000Z</time>
      </trkpt>
      <trkpt lat="46.03984" lon="4.75675">
        <ele>191.689212</ele>
        <time>2021-09-13T08:15:38.000Z</time>
      </trkpt>
      <trkpt lat="46.03959" lon="4.75658">
        <ele>191.771773</ele>
        <time>2021-09-13T08:15:45.000Z</time>
      </trkpt>
      <trkpt lat="46.0393" lon="4.75643">
        <ele>191.864037</ele>
        <time>2021-09-13T08:15:53.000Z</time>
      </trkpt>
      <trkpt lat="46.03889" lon="4.7563">
        <ele>191.988558</ele>
        <time>2021-09-13T08:16:03.000Z</time>
      </trkpt>
      <trkpt lat="46.03853" lon="4.75623">
        <ele>192.09629</ele>
        <time>2021-09-13T08:16:11.000Z</time>
      </trkpt>
      <trkpt lat="46.03803" lon="4.7562">
        <ele>192.167982</ele>
        <time>2021-09-13T08:16:21.000Z</time>
      </trkpt>
      <trkpt lat="46.03745" lon="4.75616">
        <ele>192.07574</ele>
        <time>2021-09-13T08:16:32.000Z</time>
      </trkpt>
      <trkpt lat="46.03689" lon="4.75611">
        <ele>191.986666</ele>
        <time>2021-09-13T08:16:42.000Z</time>
      </trkpt>
      <trkpt lat="46.03645" lon="4.75607">
        <ele>191.916344</ele>
        <time>2021-09-13T08:16:50.000Z</time>
      </trkpt>
      <trkpt lat="46.03586" lon="4.756">
        <ele>191.685691</ele>
        <time>2021-09-13T08:17:00.000Z</time>
      </trkpt>
      <trkpt lat="46.03544" lon="4.75601">
        <ele>191.512626</ele>
        <time>2021-09-13T08:17:07.000Z</time>
      </trkpt>
      <trkpt lat="46.03489" lon="4.75609">
        <ele>191.286206</ele>
        <time>2021-09-13T08:17:16.000Z</time>
      </trkpt>
      <trkpt lat="46.03434" lon="4.75621">
        <ele>191.095384</ele>
        <time>2021-09-13T08:17:25.000Z</time>
      </trkpt>
      <trkpt lat="46.03429" lon="4.75623">
        <ele>191.079131</ele>
        <time>2021-09-13T08:17:26.000Z</time>
      </trkpt>
      <trkpt lat="46.03387" lon="4.7563">
        <ele>190.966529</ele>
        <time>2021-09-13T08:17:33.000Z</time>
      </trkpt>
      <trkpt lat="46.03345" lon="4.75633">
        <ele>190.851034</ele>
        <time>2021-09-13T08:17:40.000Z</time>
      </trkpt>
      <trkpt lat="46.03296" lon="4.75627">
        <ele>190.720121</ele>
        <time>2021-09-13T08:17:48.000Z</time>
      </trkpt>
      <trkpt lat="46.03254" lon="4.75615">
        <ele>190.672996</ele>
        <time>2021-09-13T08:17:55.000Z</time>
      </trkpt>
      <trkpt lat="46.03204" lon="4.75584">
        <ele>190.65638</ele>
        <time>2021-09-13T08:18:04.000Z</time>
      </trkpt>
      <trkpt lat="46.03167" lon="4.75558">
        <ele>190.643996</ele>
        <time>2021-09-13T08:18:11.000Z</time>
      </trkpt>
      <trkpt lat="46.03115" lon="4.75523">
        <ele>190.606258</ele>
        <time>2021-09-13T08:18:21.000Z</time>
      </trkpt>
      <trkpt lat="46.0311" lon="4.7552">
        <ele>190.547676</ele>
        <time>2021-09-13T08:18:22.000Z</time>
      </trkpt>
      <trkpt lat="46.03059" lon="4.7549">
        <ele>189.999573</ele>
        <time>2021-09-13T08:18:31.000Z</time>
      </trkpt>
      <trkpt lat="46.03017" lon="4.7547">
        <ele>189.557553</ele>
        <time>2021-09-13T08:18:38.000Z</time>
      </trkpt>
      <trkpt lat="46.0296" lon="4.75443">
        <ele>188.956429</ele>
        <time>2021-09-13T08:18:47.000Z</time>
      </trkpt>
      <trkpt lat="46.02904" lon="4.75416">
        <ele>187.976081</ele>
        <time>2021-09-13T08:18:55.000Z</time>
      </trkpt>
      <trkpt lat="46.02853" lon="4.7539">
        <ele>186.955312</ele>
        <time>2021-09-13T08:19:02.000Z</time>
      </trkpt>
      <trkpt lat="46.02829" lon="4.75378">
        <ele>186.495027</ele>
        <time>2021-09-13T08:19:05.000Z</time>
      </trkpt>
      <trkpt lat="46.02773" lon="4.75351">
        <ele>185.427107</ele>
        <time>2021-09-13T08:19:12.000Z</time>
      </trkpt>
      <trkpt lat="46.02749" lon="4.75337">
        <ele>185.133728</ele>
        <time>2021-09-13T08:19:15.000Z</time>
      </trkpt>
      <trkpt lat="46.02705" lon="4.75314">
        <ele>184.594505</ele>
        <time>2021-09-13T08:19:21.000Z</time>
      </trkpt>
      <trkpt lat="46.02667" lon="4.75302">
        <ele>184.158583</ele>
        <time>2021-09-13T08:19:27.000Z</time>
      </trkpt>
      <trkpt lat="46.02636" lon="4.75294">
        <ele>183.795522</ele>
        <time>2021-09-13T08:19:33.000Z</time>
      </trkpt>
      <trkpt lat="46.02599" lon="4.75287">
        <ele>183.388023</ele>
        <time>2021-09-13T08:19:41.000Z</time>
      </trkpt>
      <trkpt lat="46.02552" lon="4.75282">
        <ele>183.050643</ele>
        <time>2021-09-13T08:19:51.000Z</time>
      </trkpt>
      <trkpt lat="46.02517" lon="4.75278">
        <ele>182.792518</ele>
        <time>2021-09-13T08:19:58.000Z</time>
      </trkpt>
      <trkpt lat="46.02477" lon="4.75275">
        <ele>182.500676</ele>
        <time>2021-09-13T08:20:05.000Z</time>
      </trkpt>
      <trkpt lat="46.02435" lon="4.75273">
        <ele>182.196039</ele>
        <time>2021-09-13T08:20:12.000Z</time>
      </trkpt>
      <trkpt lat="46.02393" lon="4.75272">
        <ele>182.206301</ele>
        <time>2021-09-13T08:20:19.000Z</time>
      </trkpt>
      <trkpt lat="46.02348" lon="4.75274">
        <ele>182.318203</ele>
        <time>2021-09-13T08:20:27.000Z</time>
      </trkpt>
      <trkpt lat="46.02306" lon="4.7528">
        <ele>182.42215</ele>
        <time>2021-09-13T08:20:35.000Z</time>
      </trkpt>
      <trkpt lat="46.02266" lon="4.75286">
        <ele>182.52324</ele>
        <time>2021-09-13T08:20:43.000Z</time>
      </trkpt>
      <trkpt lat="46.02223" lon="4.75297">
        <ele>182.556154</ele>
        <time>2021-09-13T08:20:52.000Z</time>
      </trkpt>
      <trkpt lat="46.02177" lon="4.75308">
        <ele>182.521377</ele>
        <time>2021-09-13T08:21:01.000Z</time>
      </trkpt>
      <trkpt lat="46.02135" lon="4.75319">
        <ele>182.48964</ele>
        <time>2021-09-13T08:21:08.000Z</time>
      </trkpt>
      <trkpt lat="46.02112" lon="4.75325">
        <ele>182.471761</ele>
        <time>2021-09-13T08:21:14.000Z</time>
      </trkpt>
      <trkpt lat="46.02063" lon="4.75335">
        <ele>182.388889</ele>
        <time>2021-09-13T08:21:21.000Z</time>
      </trkpt>
      <trkpt lat="46.02009" lon="4.75337">
        <ele>181.871161</ele>
        <time>2021-09-13T08:21:29.000Z</time>
      </trkpt>
      <trkpt lat="46.01952" lon="4.75338">
        <ele>181.319913</ele>
        <time>2021-09-13T08:21:36.000Z</time>
      </trkpt>
      <trkpt lat="46.01917" lon="4.7534">
        <ele>180.984416</ele>
        <time>2021-09-13T08:21:42.000Z</time>
      </trkpt>
      <trkpt lat="46.01868" lon="4.75343">
        <ele>180.572028</ele>
        <time>2021-09-13T08:21:49.000Z</time>
      </trkpt>
      <trkpt lat="46.01826" lon="4.75345">
        <ele>180.275876</ele>
        <time>2021-09-13T08:21:54.000Z</time>
      </trkpt>
      <trkpt lat="46.01784" lon="4.75346">
        <ele>179.986022</ele>
        <time>2021-09-13T08:22:00.000Z</time>
      </trkpt>
      <trkpt lat="46.01756" lon="4.75346">
        <ele>179.795548</ele>
        <time>2021-09-13T08:22:04.000Z</time>
      </trkpt>
      <trkpt lat="46.017" lon="4.75348">
        <ele>179.393758</ele>
        <time>2021-09-13T08:22:12.000Z</time>
      </trkpt>
      <trkpt lat="46.01647" lon="4.75342">
        <ele>178.925949</ele>
        <time>2021-09-13T08:22:20.000Z</time>
      </trkpt>
      <trkpt lat="46.01591" lon="4.75332">
        <ele>178.426523</ele>
        <time>2021-09-13T08:22:29.000Z</time>
      </trkpt>
      <trkpt lat="46.01585" lon="4.75331">
        <ele>178.370482</ele>
        <time>2021-09-13T08:22:30.000Z</time>
      </trkpt>
      <trkpt lat="46.01529" lon="4.7532">
        <ele>177.879596</ele>
        <time>2021-09-13T08:22:39.000Z</time>
      </trkpt>
      <trkpt lat="46.0147" lon="4.75308">
        <ele>177.567481</ele>
        <time>2021-09-13T08:22:49.000Z</time>
      </trkpt>
      <trkpt lat="46.01416" lon="4.75296">
        <ele>177.275327</ele>
        <time>2021-09-13T08:22:59.000Z</time>
      </trkpt>
      <trkpt lat="46.0141" lon="4.75295">
        <ele>177.245949</ele>
        <time>2021-09-13T08:23:00.000Z</time>
      </trkpt>
      <trkpt lat="46.01357" lon="4.75281">
        <ele>176.958913</ele>
        <time>2021-09-13T08:23:10.000Z</time>
      </trkpt>
      <trkpt lat="46.01351" lon="4.7528">
        <ele>176.935984</ele>
        <time>2021-09-13T08:23:11.000Z</time>
      </trkpt>
      <trkpt lat="46.01296" lon="4.75263">
        <ele>176.8811</ele>
        <time>2021-09-13T08:23:22.000Z</time>
      </trkpt>
      <trkpt lat="46.01254" lon="4.75249">
        <ele>176.839499</ele>
        <time>2021-09-13T08:23:30.000Z</time>
      </trkpt>
      <trkpt lat="46.01201" lon="4.75231">
        <ele>176.787093</ele>
        <time>2021-09-13T08:23:40.000Z</time>
      </trkpt>
      <trkpt lat="46.01149" lon="4.75214">
        <ele>176.716528</ele>
        <time>2021-09-13T08:23:50.000Z</time>
      </trkpt>
      <trkpt lat="46.01094" lon="4.75196">
        <ele>176.625976</ele>
        <time>2021-09-13T08:24:00.000Z</time>
      </trkpt>
      <trkpt lat="46.01089" lon="4.75194">
        <ele>176.617661</ele>
        <time>2021-09-13T08:24:01.000Z</time>
      </trkpt>
      <trkpt lat="46.01047" lon="4.75181">
        <ele>176.54684</ele>
        <time>2021-09-13T08:24:09.000Z</time>
      </trkpt>
      <trkpt lat="46.00994" lon="4.75165">
        <ele>176.4596</ele>
        <time>2021-09-13T08:24:19.000Z</time>
      </trkpt>
      <trkpt lat="46.00937" lon="4.75148">
        <ele>176.367743</ele>
        <time>2021-09-13T08:24:29.000Z</time>
      </trkpt>
      <trkpt lat="46.00888" lon="4.75133">
        <ele>176.286825</ele>
        <time>2021-09-13T08:24:37.000Z</time>
      </trkpt>
      <trkpt lat="46.00851" lon="4.75121">
        <ele>176.226956</ele>
        <time>2021-09-13T08:24:43.000Z</time>
      </trkpt>
      <trkpt lat="46.00834" lon="4.75116">
        <ele>176.198562</ele>
        <time>2021-09-13T08:24:46.000Z</time>
      </trkpt>
      <trkpt lat="46.00821" lon="4.75112">
        <ele>176.175657</ele>
        <time>2021-09-13T08:24:48.000Z</time>
      </trkpt>
      <trkpt lat="46.00778" lon="4.75099">
        <ele>176.083841</ele>
        <time>2021-09-13T08:24:55.000Z</time>
      </trkpt>
      <trkpt lat="46.00737" lon="4.75086">
        <ele>175.996272</ele>
        <time>2021-09-13T08:25:02.000Z</time>
      </trkpt>
      <trkpt lat="46.00695" lon="4.7508">
        <ele>175.908565</ele>
        <time>2021-09-13T08:25:09.000Z</time>
      </trkpt>
      <trkpt lat="46.00663" lon="4.75081">
        <ele>175.842658</ele>
        <time>2021-09-13T08:25:14.000Z</time>
      </trkpt>
      <trkpt lat="46.00618" lon="4.75083">
        <ele>175.744718</ele>
        <time>2021-09-13T08:25:21.000Z</time>
      </trkpt>
      <trkpt lat="46.00592" lon="4.75084">
        <ele>175.687645</ele>
        <time>2021-09-13T08:25:25.000Z</time>
      </trkpt>
      <trkpt lat="46.00573" lon="4.75085">
        <ele>175.645778</ele>
        <time>2021-09-13T08:25:28.000Z</time>
      </trkpt>
      <trkpt lat="46.0052" lon="4.75087">
        <ele>175.530091</ele>
        <time>2021-09-13T08:25:36.000Z</time>
      </trkpt>
      <trkpt lat="46.00468" lon="4.75089">
        <ele>175.415223</ele>
        <time>2021-09-13T08:25:44.000Z</time>
      </trkpt>
      <trkpt lat="46.00416" lon="4.7509">
        <ele>175.462468</ele>
        <time>2021-09-13T08:25:52.000Z</time>
      </trkpt>
      <trkpt lat="46.00379" lon="4.75092">
        <ele>175.496337</ele>
        <time>2021-09-13T08:25:58.000Z</time>
      </trkpt>
      <trkpt lat="46.00344" lon="4.75096">
        <ele>175.528726</ele>
        <time>2021-09-13T08:26:04.000Z</time>
      </trkpt>
      <trkpt lat="46.00338" lon="4.75097">
        <ele>175.533852</ele>
        <time>2021-09-13T08:26:05.000Z</time>
      </trkpt>
      <trkpt lat="46.00316" lon="4.751">
        <ele>175.554363</ele>
        <time>2021-09-13T08:26:09.000Z</time>
      </trkpt>
      <trkpt lat="46.00279" lon="4.75103">
        <ele>175.629375</ele>
        <time>2021-09-13T08:26:16.000Z</time>
      </trkpt>
      <trkpt lat="46.00246" lon="4.75106">
        <ele>175.79296</ele>
        <time>2021-09-13T08:26:22.000Z</time>
      </trkpt>
      <trkpt lat="46.00208" lon="4.75109">
        <ele>175.984737</ele>
        <time>2021-09-13T08:26:29.000Z</time>
      </trkpt>
      <trkpt lat="46.00177" lon="4.7511">
        <ele>176.142972</ele>
        <time>2021-09-13T08:26:34.000Z</time>
      </trkpt>
      <trkpt lat="46.00139" lon="4.7511">
        <ele>176.331438</ele>
        <time>2021-09-13T08:26:41.000Z</time>
      </trkpt>
      <trkpt lat="46.00134" lon="4.7511">
        <ele>176.359666</ele>
        <time>2021-09-13T08:26:44.000Z</time>
      </trkpt>
      <trkpt lat="46.00129" lon="4.75109">
        <ele>176.383857</ele>
        <time>2021-09-13T08:26:51.000Z</time>
      </trkpt>
      <trkpt lat="46.00126" lon="4.75109">
        <ele>176.397467</ele>
        <time>2021-09-13T08:26:52.000Z</time>
      </trkpt>
      <trkpt lat="46.00103" lon="4.75108">
        <ele>176.491574</ele>
        <time>2021-09-13T08:26:58.000Z</time>
      </trkpt>
      <trkpt lat="46.00068" lon="4.75108">
        <ele>176.526516</ele>
        <time>2021-09-13T08:27:05.000Z</time>
      </trkpt>
      <trkpt lat="46.00057" lon="4.75108">
        <ele>176.53687</ele>
        <time>2021-09-13T08:27:08.000Z</time>
      </trkpt>
      <trkpt lat="46.0003" lon="4.75111">
        <ele>176.563804</ele>
        <time>2021-09-13T08:27:12.000Z</time>
      </trkpt>
      <trkpt lat="46.00025" lon="4.75112">
        <ele>176.569215</ele>
        <time>2021-09-13T08:27:13.000Z</time>
      </trkpt>
      <trkpt lat="46.00014" lon="4.75113">
        <ele>176.579932</ele>
        <time>2021-09-13T08:27:15.000Z</time>
      </trkpt>
      <trkpt lat="46.00008" lon="4.75114">
        <ele>176.58564</ele>
        <time>2021-09-13T08:27:17.000Z</time>
      </trkpt>
      <trkpt lat="45.99992" lon="4.75121">
        <ele>176.602556</ele>
        <time>2021-09-13T08:27:20.000Z</time>
      </trkpt>
      <trkpt lat="45.99975" lon="4.75128">
        <ele>176.619855</ele>
        <time>2021-09-13T08:27:23.000Z</time>
      </trkpt>
      <trkpt lat="45.99924" lon="4.75151">
        <ele>176.66787</ele>
        <time>2021-09-13T08:27:31.000Z</time>
      </trkpt>
      <trkpt lat="45.99878" lon="4.75172">
        <ele>176.687011</ele>
        <time>2021-09-13T08:27:39.000Z</time>
      </trkpt>
      <trkpt lat="45.99849" lon="4.75185">
        <ele>176.698767</ele>
        <time>2021-09-13T08:27:44.000Z</time>
      </trkpt>
      <trkpt lat="45.99843" lon="4.75188">
        <ele>176.701148</ele>
        <time>2021-09-13T08:27:45.000Z</time>
      </trkpt>
      <trkpt lat="45.99791" lon="4.75212">
        <ele>176.722696</ele>
        <time>2021-09-13T08:27:54.000Z</time>
      </trkpt>
      <trkpt lat="45.99738" lon="4.75237">
        <ele>176.807504</ele>
        <time>2021-09-13T08:28:03.000Z</time>
      </trkpt>
      <trkpt lat="45.99686" lon="4.75261">
        <ele>176.972053</ele>
        <time>2021-09-13T08:28:12.000Z</time>
      </trkpt>
      <trkpt lat="45.99663" lon="4.75271">
        <ele>177.044619</ele>
        <time>2021-09-13T08:28:16.000Z</time>
      </trkpt>
      <trkpt lat="45.99646" lon="4.75276">
        <ele>177.098089</ele>
        <time>2021-09-13T08:28:19.000Z</time>
      </trkpt>
      <trkpt lat="45.99641" lon="4.75276">
        <ele>177.1147</ele>
        <time>2021-09-13T08:28:20.000Z</time>
      </trkpt>
      <trkpt lat="45.9962" lon="4.75274">
        <ele>177.177322</ele>
        <time>2021-09-13T08:28:25.000Z</time>
      </trkpt>
      <trkpt lat="45.99587" lon="4.75271">
        <ele>177.275933</ele>
        <time>2021-09-13T08:28:33.000Z</time>
      </trkpt>
      <trkpt lat="45.99576" lon="4.75264">
        <ele>177.314749</ele>
        <time>2021-09-13T08:28:38.000Z</time>
      </trkpt>
      <trkpt lat="45.99567" lon="4.75264">
        <ele>177.341398</ele>
        <time>2021-09-13T08:28:40.000Z</time>
      </trkpt>
      <trkpt lat="45.99559" lon="4.75269">
        <ele>177.369141</ele>
        <time>2021-09-13T08:28:42.000Z</time>
      </trkpt>
      <trkpt lat="45.99552" lon="4.7528">
        <ele>177.400032</ele>
        <time>2021-09-13T08:28:45.000Z</time>
      </trkpt>
      <trkpt lat="45.99546" lon="4.75298">
        <ele>177.441643</ele>
        <time>2021-09-13T08:28:46.000Z</time>
      </trkpt>
      <trkpt lat="45.99541" lon="4.75298">
        <ele>177.455755</ele>
        <time>2021-09-13T08:28:47.000Z</time>
      </trkpt>
      <trkpt lat="45.99531" lon="4.753">
        <ele>177.486472</ele>
        <time>2021-09-13T08:28:49.000Z</time>
      </trkpt>
      <trkpt lat="45.99479" lon="4.75306">
        <ele>177.646173</ele>
        <time>2021-09-13T08:28:58.000Z</time>
      </trkpt>
      <trkpt lat="45.99428" lon="4.75313">
        <ele>177.802495</ele>
        <time>2021-09-13T08:29:06.000Z</time>
      </trkpt>
      <trkpt lat="45.99409" lon="4.75319">
        <ele>177.791809</ele>
        <time>2021-09-13T08:29:09.000Z</time>
      </trkpt>
      <trkpt lat="45.99396" lon="4.75325">
        <ele>177.749616</ele>
        <time>2021-09-13T08:29:11.000Z</time>
      </trkpt>
      <trkpt lat="45.99385" lon="4.75334">
        <ele>177.709614</ele>
        <time>2021-09-13T08:29:13.000Z</time>
      </trkpt>
      <trkpt lat="45.9937" lon="4.75352">
        <ele>177.647501</ele>
        <time>2021-09-13T08:29:16.000Z</time>
      </trkpt>
      <trkpt lat="45.99352" lon="4.75397">
        <ele>177.534067</ele>
        <time>2021-09-13T08:29:22.000Z</time>
      </trkpt>
      <trkpt lat="45.99337" lon="4.75409">
        <ele>177.477538</ele>
        <time>2021-09-13T08:29:24.000Z</time>
      </trkpt>
      <trkpt lat="45.99342" lon="4.75431">
        <ele>177.426984</ele>
        <time>2021-09-13T08:29:26.000Z</time>
      </trkpt>
      <trkpt lat="45.99339" lon="4.75439">
        <ele>177.407924</ele>
        <time>2021-09-13T08:29:27.000Z</time>
      </trkpt>
      <trkpt lat="45.99328" lon="4.75463">
        <ele>177.346635</ele>
        <time>2021-09-13T08:29:30.000Z</time>
      </trkpt>
      <trkpt lat="45.99325" lon="4.7547">
        <ele>177.326272</ele>
        <time>2021-09-13T08:29:31.000Z</time>
      </trkpt>
      <trkpt lat="45.99309" lon="4.75497">
        <ele>177.262747</ele>
        <time>2021-09-13T08:29:35.000Z</time>
      </trkpt>
      <trkpt lat="45.99277" lon="4.75533">
        <ele>177.29961</ele>
        <time>2021-09-13T08:29:42.000Z</time>
      </trkpt>
      <trkpt lat="45.99243" lon="4.75558">
        <ele>177.334396</ele>
        <time>2021-09-13T08:29:49.000Z</time>
      </trkpt>
      <trkpt lat="45.99213" lon="4.75578">
        <ele>177.364268</ele>
        <time>2021-09-13T08:29:55.000Z</time>
      </trkpt>
      <trkpt lat="45.99165" lon="4.75607">
        <ele>177.411613</ele>
        <time>2021-09-13T08:30:05.000Z</time>
      </trkpt>
      <trkpt lat="45.9915" lon="4.75615">
        <ele>177.429121</ele>
        <time>2021-09-13T08:30:08.000Z</time>
      </trkpt>
      <trkpt lat="45.99142" lon="4.75618">
        <ele>177.446446</ele>
        <time>2021-09-13T08:30:10.000Z</time>
      </trkpt>
      <trkpt lat="45.99133" lon="4.75606">
        <ele>177.470793</ele>
        <time>2021-09-13T08:30:11.000Z</time>
      </trkpt>
      <trkpt lat="45.9912" lon="4.75614">
        <ele>177.500047</ele>
        <time>2021-09-13T08:30:13.000Z</time>
      </trkpt>
      <trkpt lat="45.99109" lon="4.75647">
        <ele>177.551124</ele>
        <time>2021-09-13T08:30:17.000Z</time>
      </trkpt>
      <trkpt lat="45.99104" lon="4.75651">
        <ele>177.562315</ele>
        <time>2021-09-13T08:30:18.000Z</time>
      </trkpt>
      <trkpt lat="45.99094" lon="4.75659">
        <ele>177.585838</ele>
        <time>2021-09-13T08:30:20.000Z</time>
      </trkpt>
      <trkpt lat="45.99088" lon="4.7566">
        <ele>177.597472</ele>
        <time>2021-09-13T08:30:21.000Z</time>
      </trkpt>
      <trkpt lat="45.99083" lon="4.75661">
        <ele>177.608466</ele>
        <time>2021-09-13T08:30:22.000Z</time>
      </trkpt>
      <trkpt lat="45.9906" lon="4.75662">
        <ele>177.653942</ele>
        <time>2021-09-13T08:30:26.000Z</time>
      </trkpt>
      <trkpt lat="45.99043" lon="4.7566">
        <ele>177.688421</ele>
        <time>2021-09-13T08:30:29.000Z</time>
      </trkpt>
      <trkpt lat="45.99031" lon="4.75659">
        <ele>177.712384</ele>
        <time>2021-09-13T08:30:31.000Z</time>
      </trkpt>
      <trkpt lat="45.98992" lon="4.75659">
        <ele>177.794183</ele>
        <time>2021-09-13T08:30:38.000Z</time>
      </trkpt>
      <trkpt lat="45.98956" lon="4.75669">
        <ele>177.905982</ele>
        <time>2021-09-13T08:30:44.000Z</time>
      </trkpt>
      <trkpt lat="45.98909" lon="4.7569">
        <ele>178.056331</ele>
        <time>2021-09-13T08:30:52.000Z</time>
      </trkpt>
      <trkpt lat="45.9887" lon="4.75707">
        <ele>178.180477</ele>
        <time>2021-09-13T08:30:59.000Z</time>
      </trkpt>
      <trkpt lat="45.98843" lon="4.75713">
        <ele>178.266524</ele>
        <time>2021-09-13T08:31:05.000Z</time>
      </trkpt>
      <trkpt lat="45.98788" lon="4.7572">
        <ele>178.414864</ele>
        <time>2021-09-13T08:31:14.000Z</time>
      </trkpt>
      <trkpt lat="45.98783" lon="4.75721">
        <ele>178.428145</ele>
        <time>2021-09-13T08:31:15.000Z</time>
      </trkpt>
      <trkpt lat="45.98778" lon="4.75722">
        <ele>178.439459</ele>
        <time>2021-09-13T08:31:16.000Z</time>
      </trkpt>
      <trkpt lat="45.98762" lon="4.75717">
        <ele>178.48014</ele>
        <time>2021-09-13T08:31:20.000Z</time>
      </trkpt>
      <trkpt lat="45.98749" lon="4.75725">
        <ele>178.517436</ele>
        <time>2021-09-13T08:31:24.000Z</time>
      </trkpt>
      <trkpt lat="45.98744" lon="4.75725">
        <ele>178.529134</ele>
        <time>2021-09-13T08:31:25.000Z</time>
      </trkpt>
      <trkpt lat="45.98704" lon="4.75728">
        <ele>178.62815</ele>
        <time>2021-09-13T08:31:33.000Z</time>
      </trkpt>
      <trkpt lat="45.98662" lon="4.7573">
        <ele>178.733779</ele>
        <time>2021-09-13T08:31:40.000Z</time>
      </trkpt>
      <trkpt lat="45.98622" lon="4.7573">
        <ele>178.781207</ele>
        <time>2021-09-13T08:31:47.000Z</time>
      </trkpt>
      <trkpt lat="45.98612" lon="4.7573">
        <ele>178.780983</ele>
        <time>2021-09-13T08:31:49.000Z</time>
      </trkpt>
      <trkpt lat="45.98603" lon="4.75731">
        <ele>178.780784</ele>
        <time>2021-09-13T08:31:51.000Z</time>
      </trkpt>
      <trkpt lat="45.98575" lon="4.75726">
        <ele>178.78012</ele>
        <time>2021-09-13T08:31:56.000Z</time>
      </trkpt>
      <trkpt lat="45.98569" lon="4.75725">
        <ele>178.779986</ele>
        <time>2021-09-13T08:31:57.000Z</time>
      </trkpt>
      <trkpt lat="45.98557" lon="4.75723">
        <ele>178.779723</ele>
        <time>2021-09-13T08:31:59.000Z</time>
      </trkpt>
      <trkpt lat="45.98546" lon="4.7572">
        <ele>178.779455</ele>
        <time>2021-09-13T08:32:01.000Z</time>
      </trkpt>
      <trkpt lat="45.98504" lon="4.75715">
        <ele>178.778487</ele>
        <time>2021-09-13T08:32:08.000Z</time>
      </trkpt>
      <trkpt lat="45.98498" lon="4.75714">
        <ele>178.778356</ele>
        <time>2021-09-13T08:32:09.000Z</time>
      </trkpt>
      <trkpt lat="45.98468" lon="4.75705">
        <ele>178.777664</ele>
        <time>2021-09-13T08:32:14.000Z</time>
      </trkpt>
      <trkpt lat="45.9844" lon="4.757">
        <ele>178.758557</ele>
        <time>2021-09-13T08:32:19.000Z</time>
      </trkpt>
      <trkpt lat="45.98396" lon="4.75693">
        <ele>178.723236</ele>
        <time>2021-09-13T08:32:27.000Z</time>
      </trkpt>
      <trkpt lat="45.98386" lon="4.75692">
        <ele>178.715202</ele>
        <time>2021-09-13T08:32:29.000Z</time>
      </trkpt>
      <trkpt lat="45.98377" lon="4.75688">
        <ele>178.707347</ele>
        <time>2021-09-13T08:32:31.000Z</time>
      </trkpt>
      <trkpt lat="45.98363" lon="4.75691">
        <ele>178.696235</ele>
        <time>2021-09-13T08:32:33.000Z</time>
      </trkpt>
      <trkpt lat="45.98344" lon="4.75689">
        <ele>178.680831</ele>
        <time>2021-09-13T08:32:36.000Z</time>
      </trkpt>
      <trkpt lat="45.98307" lon="4.75686">
        <ele>178.650826</ele>
        <time>2021-09-13T08:32:42.000Z</time>
      </trkpt>
      <trkpt lat="45.98261" lon="4.75681">
        <ele>178.525929</ele>
        <time>2021-09-13T08:32:50.000Z</time>
      </trkpt>
      <trkpt lat="45.98227" lon="4.75684">
        <ele>178.381674</ele>
        <time>2021-09-13T08:32:56.000Z</time>
      </trkpt>
      <trkpt lat="45.98222" lon="4.75686">
        <ele>178.358893</ele>
        <time>2021-09-13T08:32:57.000Z</time>
      </trkpt>
      <trkpt lat="45.98194" lon="4.75688">
        <ele>178.235863</ele>
        <time>2021-09-13T08:33:02.000Z</time>
      </trkpt>
      <trkpt lat="45.9815" lon="4.75691">
        <ele>178.045478</ele>
        <time>2021-09-13T08:33:10.000Z</time>
      </trkpt>
      <trkpt lat="45.98098" lon="4.75695">
        <ele>177.844664</ele>
        <time>2021-09-13T08:33:19.000Z</time>
      </trkpt>
      <trkpt lat="45.98041" lon="4.75704">
        <ele>177.801255</ele>
        <time>2021-09-13T08:33:29.000Z</time>
      </trkpt>
      <trkpt lat="45.98035" lon="4.75705">
        <ele>177.796815</ele>
        <time>2021-09-13T08:33:30.000Z</time>
      </trkpt>
      <trkpt lat="45.97991" lon="4.7572">
        <ele>177.762674</ele>
        <time>2021-09-13T08:33:38.000Z</time>
      </trkpt>
      <trkpt lat="45.97971" lon="4.75728">
        <ele>177.746256</ele>
        <time>2021-09-13T08:33:42.000Z</time>
      </trkpt>
      <trkpt lat="45.9796" lon="4.7573">
        <ele>177.737948</ele>
        <time>2021-09-13T08:33:44.000Z</time>
      </trkpt>
      <trkpt lat="45.9794" lon="4.75727">
        <ele>177.722602</ele>
        <time>2021-09-13T08:33:48.000Z</time>
      </trkpt>
      <trkpt lat="45.97935" lon="4.75724">
        <ele>177.718555</ele>
        <time>2021-09-13T08:33:49.000Z</time>
      </trkpt>
      <trkpt lat="45.97897" lon="4.75701">
        <ele>177.574122</ele>
        <time>2021-09-13T08:33:56.000Z</time>
      </trkpt>
      <trkpt lat="45.97859" lon="4.75683">
        <ele>177.411689</ele>
        <time>2021-09-13T08:34:03.000Z</time>
      </trkpt>
      <trkpt lat="45.97817" lon="4.75675">
        <ele>177.243296</ele>
        <time>2021-09-13T08:34:10.000Z</time>
      </trkpt>
      <trkpt lat="45.97768" lon="4.7567">
        <ele>177.045296</ele>
        <time>2021-09-13T08:34:18.000Z</time>
      </trkpt>
      <trkpt lat="45.97724" lon="4.75668">
        <ele>176.862293</ele>
        <time>2021-09-13T08:34:25.000Z</time>
      </trkpt>
      <trkpt lat="45.97666" lon="4.7567">
        <ele>176.619914</ele>
        <time>2021-09-13T08:34:34.000Z</time>
      </trkpt>
      <trkpt lat="45.9766" lon="4.7567">
        <ele>176.593497</ele>
        <time>2021-09-13T08:34:35.000Z</time>
      </trkpt>
      <trkpt lat="45.97618" lon="4.75671">
        <ele>176.4178</ele>
        <time>2021-09-13T08:34:42.000Z</time>
      </trkpt>
      <trkpt lat="45.97606" lon="4.75673">
        <ele>176.367947</ele>
        <time>2021-09-13T08:34:44.000Z</time>
      </trkpt>
      <trkpt lat="45.9759" lon="4.75683">
        <ele>176.293589</ele>
        <time>2021-09-13T08:34:47.000Z</time>
      </trkpt>
      <trkpt lat="45.97577" lon="4.75686">
        <ele>176.241129</ele>
        <time>2021-09-13T08:34:49.000Z</time>
      </trkpt>
      <trkpt lat="45.97572" lon="4.75683">
        <ele>176.218116</ele>
        <time>2021-09-13T08:34:50.000Z</time>
      </trkpt>
      <trkpt lat="45.9757" lon="4.7567">
        <ele>176.185032</ele>
        <time>2021-09-13T08:34:51.000Z</time>
      </trkpt>
      <trkpt lat="45.97561" lon="4.75662">
        <ele>176.143445</ele>
        <time>2021-09-13T08:34:53.000Z</time>
      </trkpt>
      <trkpt lat="45.97539" lon="4.7566">
        <ele>176.064823</ele>
        <time>2021-09-13T08:34:56.000Z</time>
      </trkpt>
      <trkpt lat="45.97527" lon="4.75662">
        <ele>176.019051</ele>
        <time>2021-09-13T08:34:58.000Z</time>
      </trkpt>
      <trkpt lat="45.97521" lon="4.75664">
        <ele>175.994629</ele>
        <time>2021-09-13T08:34:59.000Z</time>
      </trkpt>
      <trkpt lat="45.97477" lon="4.75677">
        <ele>175.828646</ele>
        <time>2021-09-13T08:35:06.000Z</time>
      </trkpt>
      <trkpt lat="45.97436" lon="4.7568">
        <ele>175.677492</ele>
        <time>2021-09-13T08:35:13.000Z</time>
      </trkpt>
      <trkpt lat="45.97395" lon="4.7568">
        <ele>175.535174</ele>
        <time>2021-09-13T08:35:20.000Z</time>
      </trkpt>
      <trkpt lat="45.97354" lon="4.75679">
        <ele>175.41715</ele>
        <time>2021-09-13T08:35:27.000Z</time>
      </trkpt>
      <trkpt lat="45.97308" lon="4.75676">
        <ele>175.286097</ele>
        <time>2021-09-13T08:35:35.000Z</time>
      </trkpt>
      <trkpt lat="45.97255" lon="4.75667">
        <ele>175.132357</ele>
        <time>2021-09-13T08:35:44.000Z</time>
      </trkpt>
      <trkpt lat="45.97203" lon="4.75649">
        <ele>174.970577</ele>
        <time>2021-09-13T08:35:53.000Z</time>
      </trkpt>
      <trkpt lat="45.97157" lon="4.7563">
        <ele>174.817501</ele>
        <time>2021-09-13T08:36:01.000Z</time>
      </trkpt>
      <trkpt lat="45.97106" lon="4.75604">
        <ele>174.64524</ele>
        <time>2021-09-13T08:36:10.000Z</time>
      </trkpt>
      <trkpt lat="45.97094" lon="4.75599">
        <ele>174.60755</ele>
        <time>2021-09-13T08:36:12.000Z</time>
      </trkpt>
      <trkpt lat="45.97055" lon="4.75581">
        <ele>174.479968</ele>
        <time>2021-09-13T08:36:19.000Z</time>
      </trkpt>
      <trkpt lat="45.97" lon="4.75558">
        <ele>174.37384</ele>
        <time>2021-09-13T08:36:29.000Z</time>
      </trkpt>
      <trkpt lat="45.96968" lon="4.75544">
        <ele>174.311108</ele>
        <time>2021-09-13T08:36:35.000Z</time>
      </trkpt>
      <trkpt lat="45.96924" lon="4.75528">
        <ele>174.227125</ele>
        <time>2021-09-13T08:36:43.000Z</time>
      </trkpt>
      <trkpt lat="45.96871" lon="4.75508">
        <ele>174.143312</ele>
        <time>2021-09-13T08:36:53.000Z</time>
      </trkpt>
      <trkpt lat="45.96865" lon="4.75507">
        <ele>174.140331</ele>
        <time>2021-09-13T08:36:54.000Z</time>
      </trkpt>
      <trkpt lat="45.9681" lon="4.75487">
        <ele>174.110036</ele>
        <time>2021-09-13T08:37:04.000Z</time>
      </trkpt>
      <trkpt lat="45.96756" lon="4.7546">
        <ele>174.079037</ele>
        <time>2021-09-13T08:37:14.000Z</time>
      </trkpt>
      <trkpt lat="45.96724" lon="4.75443">
        <ele>174.061022</ele>
        <time>2021-09-13T08:37:20.000Z</time>
      </trkpt>
      <trkpt lat="45.96684" lon="4.75421">
        <ele>174.17584</ele>
        <time>2021-09-13T08:37:28.000Z</time>
      </trkpt>
      <trkpt lat="45.96652" lon="4.75404">
        <ele>174.315316</ele>
        <time>2021-09-13T08:37:35.000Z</time>
      </trkpt>
      <trkpt lat="45.96624" lon="4.75388">
        <ele>174.437638</ele>
        <time>2021-09-13T08:37:41.000Z</time>
      </trkpt>
      <trkpt lat="45.96586" lon="4.75367">
        <ele>174.602365</ele>
        <time>2021-09-13T08:37:49.000Z</time>
      </trkpt>
      <trkpt lat="45.96558" lon="4.7535">
        <ele>174.7262</ele>
        <time>2021-09-13T08:37:55.000Z</time>
      </trkpt>
      <trkpt lat="45.96512" lon="4.75324">
        <ele>175.511095</ele>
        <time>2021-09-13T08:38:05.000Z</time>
      </trkpt>
      <trkpt lat="45.96474" lon="4.75302">
        <ele>176.351581</ele>
        <time>2021-09-13T08:38:14.000Z</time>
      </trkpt>
      <trkpt lat="45.9644" lon="4.75282">
        <ele>177.090661</ele>
        <time>2021-09-13T08:38:23.000Z</time>
      </trkpt>
      <trkpt lat="45.9641" lon="4.75265">
        <ele>177.769624</ele>
        <time>2021-09-13T08:38:32.000Z</time>
      </trkpt>
      <trkpt lat="45.96387" lon="4.75253">
        <ele>178.272616</ele>
        <time>2021-09-13T08:38:39.000Z</time>
      </trkpt>
      <trkpt lat="45.96366" lon="4.75244">
        <ele>178.833034</ele>
        <time>2021-09-13T08:38:45.000Z</time>
      </trkpt>
      <trkpt lat="45.96345" lon="4.75236">
        <ele>179.481999</ele>
        <time>2021-09-13T08:38:51.000Z</time>
      </trkpt>
      <trkpt lat="45.96312" lon="4.75223">
        <ele>180.529622</ele>
        <time>2021-09-13T08:39:00.000Z</time>
      </trkpt>
      <trkpt lat="45.96285" lon="4.75213">
        <ele>181.363926</ele>
        <time>2021-09-13T08:39:07.000Z</time>
      </trkpt>
      <trkpt lat="45.96262" lon="4.75205">
        <ele>182.087252</ele>
        <time>2021-09-13T08:39:13.000Z</time>
      </trkpt>
      <trkpt lat="45.96236" lon="4.75193">
        <ele>182.902783</ele>
        <time>2021-09-13T08:39:20.000Z</time>
      </trkpt>
      <trkpt lat="45.96213" lon="4.7518">
        <ele>183.644897</ele>
        <time>2021-09-13T08:39:26.000Z</time>
      </trkpt>
      <trkpt lat="45.96186" lon="4.75159">
        <ele>184.536033</ele>
        <time>2021-09-13T08:39:34.000Z</time>
      </trkpt>
      <trkpt lat="45.96162" lon="4.75137">
        <ele>185.355762</ele>
        <time>2021-09-13T08:39:41.000Z</time>
      </trkpt>
      <trkpt lat="45.96143" lon="4.75118">
        <ele>186.00316</ele>
        <time>2021-09-13T08:39:47.000Z</time>
      </trkpt>
      <trkpt lat="45.96117" lon="4.75089">
        <ele>186.949488</ele>
        <time>2021-09-13T08:39:56.000Z</time>
      </trkpt>
      <trkpt lat="45.96088" lon="4.75065">
        <ele>187.887099</ele>
        <time>2021-09-13T08:40:05.000Z</time>
      </trkpt>
      <trkpt lat="45.96063" lon="4.75053">
        <ele>188.63992</ele>
        <time>2021-09-13T08:40:12.000Z</time>
      </trkpt>
      <trkpt lat="45.96033" lon="4.75054">
        <ele>189.327238</ele>
        <time>2021-09-13T08:40:19.000Z</time>
      </trkpt>
      <trkpt lat="45.96021" lon="4.75058">
        <ele>189.565413</ele>
        <time>2021-09-13T08:40:22.000Z</time>
      </trkpt>
      <trkpt lat="45.96008" lon="4.75063">
        <ele>189.800028</ele>
        <time>2021-09-13T08:40:25.000Z</time>
      </trkpt>
      <trkpt lat="45.95981" lon="4.75073">
        <ele>190.326687</ele>
        <time>2021-09-13T08:40:32.000Z</time>
      </trkpt>
      <trkpt lat="45.95945" lon="4.75086">
        <ele>190.993087</ele>
        <time>2021-09-13T08:40:42.000Z</time>
      </trkpt>
      <trkpt lat="45.95912" lon="4.751">
        <ele>191.638723</ele>
        <time>2021-09-13T08:40:52.000Z</time>
      </trkpt>
      <trkpt lat="45.9588" lon="4.75123">
        <ele>192.28528</ele>
        <time>2021-09-13T08:41:02.000Z</time>
      </trkpt>
      <trkpt lat="45.95856" lon="4.75149">
        <ele>192.622655</ele>
        <time>2021-09-13T08:41:10.000Z</time>
      </trkpt>
      <trkpt lat="45.9583" lon="4.75181">
        <ele>192.976796</ele>
        <time>2021-09-13T08:41:18.000Z</time>
      </trkpt>
      <trkpt lat="45.95795" lon="4.75229">
        <ele>193.473863</ele>
        <time>2021-09-13T08:41:28.000Z</time>
      </trkpt>
      <trkpt lat="45.95751" lon="4.75282">
        <ele>194.065517</ele>
        <time>2021-09-13T08:41:39.000Z</time>
      </trkpt>
      <trkpt lat="45.95712" lon="4.75324">
        <ele>194.177419</ele>
        <time>2021-09-13T08:41:48.000Z</time>
      </trkpt>
      <trkpt lat="45.9567" lon="4.75364">
        <ele>194.151629</ele>
        <time>2021-09-13T08:41:57.000Z</time>
      </trkpt>
      <trkpt lat="45.9562" lon="4.75405">
        <ele>194.122689</ele>
        <time>2021-09-13T08:42:06.000Z</time>
      </trkpt>
      <trkpt lat="45.9557" lon="4.75439">
        <ele>193.839484</ele>
        <time>2021-09-13T08:42:14.000Z</time>
      </trkpt>
      <trkpt lat="45.95549" lon="4.7545">
        <ele>193.528247</ele>
        <time>2021-09-13T08:42:18.000Z</time>
      </trkpt>
      <trkpt lat="45.95539" lon="4.75454">
        <ele>193.395481</ele>
        <time>2021-09-13T08:42:20.000Z</time>
      </trkpt>
      <trkpt lat="45.95524" lon="4.75447">
        <ele>193.176616</ele>
        <time>2021-09-13T08:42:23.000Z</time>
      </trkpt>
      <trkpt lat="45.95512" lon="4.75451">
        <ele>193.008874</ele>
        <time>2021-09-13T08:42:25.000Z</time>
      </trkpt>
      <trkpt lat="45.95507" lon="4.75458">
        <ele>192.914415</ele>
        <time>2021-09-13T08:42:26.000Z</time>
      </trkpt>
      <trkpt lat="45.955" lon="4.75478">
        <ele>192.705045</ele>
        <time>2021-09-13T08:42:28.000Z</time>
      </trkpt>
      <trkpt lat="45.95487" lon="4.75483">
        <ele>192.518636</ele>
        <time>2021-09-13T08:42:30.000Z</time>
      </trkpt>
      <trkpt lat="45.9545" lon="4.75497">
        <ele>191.998943</ele>
        <time>2021-09-13T08:42:35.000Z</time>
      </trkpt>
      <trkpt lat="45.95406" lon="4.7552">
        <ele>191.295232</ele>
        <time>2021-09-13T08:42:41.000Z</time>
      </trkpt>
      <trkpt lat="45.95368" lon="4.7556">
        <ele>190.493312</ele>
        <time>2021-09-13T08:42:47.000Z</time>
      </trkpt>
      <trkpt lat="45.95325" lon="4.75611">
        <ele>189.571132</ele>
        <time>2021-09-13T08:42:54.000Z</time>
      </trkpt>
      <trkpt lat="45.9532" lon="4.75618">
        <ele>189.447768</ele>
        <time>2021-09-13T08:42:55.000Z</time>
      </trkpt>
      <trkpt lat="45.95297" lon="4.75653">
        <ele>188.884013</ele>
        <time>2021-09-13T08:43:00.000Z</time>
      </trkpt>
      <trkpt lat="45.95273" lon="4.75688">
        <ele>188.403447</ele>
        <time>2021-09-13T08:43:06.000Z</time>
      </trkpt>
      <trkpt lat="45.95273" lon="4.75688">
        <ele>188.403447</ele>
        <time>2021-09-13T08:43:07.000Z</time>
      </trkpt>
      <trkpt lat="45.95259" lon="4.7571">
        <ele>188.162873</ele>
        <time>2021-09-13T08:43:12.000Z</time>
      </trkpt>
      <trkpt lat="45.95239" lon="4.75737">
        <ele>187.838519</ele>
        <time>2021-09-13T08:43:18.000Z</time>
      </trkpt>
      <trkpt lat="45.95224" lon="4.75755">
        <ele>187.612242</ele>
        <time>2021-09-13T08:43:22.000Z</time>
      </trkpt>
      <trkpt lat="45.95216" lon="4.75763">
        <ele>187.497447</ele>
        <time>2021-09-13T08:43:25.000Z</time>
      </trkpt>
      <trkpt lat="45.95169" lon="4.75811">
        <ele>186.816232</ele>
        <time>2021-09-13T08:43:35.000Z</time>
      </trkpt>
      <trkpt lat="45.95155" lon="4.7582">
        <ele>186.630999</ele>
        <time>2021-09-13T08:43:38.000Z</time>
      </trkpt>
      <trkpt lat="45.9514" lon="4.75827">
        <ele>186.571204</ele>
        <time>2021-09-13T08:43:41.000Z</time>
      </trkpt>
      <trkpt lat="45.95112" lon="4.75833">
        <ele>186.843703</ele>
        <time>2021-09-13T08:43:47.000Z</time>
      </trkpt>
      <trkpt lat="45.95086" lon="4.75836">
        <ele>187.100733</ele>
        <time>2021-09-13T08:43:54.000Z</time>
      </trkpt>
      <trkpt lat="45.95063" lon="4.75839">
        <ele>187.325727</ele>
        <time>2021-09-13T08:44:01.000Z</time>
      </trkpt>
      <trkpt lat="45.9504" lon="4.75843">
        <ele>187.552197</ele>
        <time>2021-09-13T08:44:08.000Z</time>
      </trkpt>
      <trkpt lat="45.95009" lon="4.75848">
        <ele>187.858738</ele>
        <time>2021-09-13T08:44:18.000Z</time>
      </trkpt>
      <trkpt lat="45.94988" lon="4.7585">
        <ele>188.068749</ele>
        <time>2021-09-13T08:44:25.000Z</time>
      </trkpt>
      <trkpt lat="45.94967" lon="4.75844">
        <ele>188.27897</ele>
        <time>2021-09-13T08:44:32.000Z</time>
      </trkpt>
      <trkpt lat="45.94947" lon="4.75831">
        <ele>188.777034</ele>
        <time>2021-09-13T08:44:40.000Z</time>
      </trkpt>
      <trkpt lat="45.94923" lon="4.75819">
        <ele>189.35797</ele>
        <time>2021-09-13T08:44:49.000Z</time>
      </trkpt>
      <trkpt lat="45.94901" lon="4.75813">
        <ele>189.865385</ele>
        <time>2021-09-13T08:44:56.000Z</time>
      </trkpt>
      <trkpt lat="45.94882" lon="4.7581">
        <ele>190.297523</ele>
        <time>2021-09-13T08:45:02.000Z</time>
      </trkpt>
      <trkpt lat="45.9486" lon="4.75812">
        <ele>190.792268</ele>
        <time>2021-09-13T08:45:09.000Z</time>
      </trkpt>
      <trkpt lat="45.94845" lon="4.75816">
        <ele>191.144913</ele>
        <time>2021-09-13T08:45:14.000Z</time>
      </trkpt>
      <trkpt lat="45.94822" lon="4.75823">
        <ele>191.677206</ele>
        <time>2021-09-13T08:45:20.000Z</time>
      </trkpt>
      <trkpt lat="45.94797" lon="4.75832">
        <ele>192.26013</ele>
        <time>2021-09-13T08:45:27.000Z</time>
      </trkpt>
      <trkpt lat="45.94788" lon="4.75835">
        <ele>192.384103</ele>
        <time>2021-09-13T08:45:29.000Z</time>
      </trkpt>
      <trkpt lat="45.94784" lon="4.75836">
        <ele>192.411594</ele>
        <time>2021-09-13T08:45:30.000Z</time>
      </trkpt>
      <trkpt lat="45.94761" lon="4.75844">
        <ele>192.582245</ele>
        <time>2021-09-13T08:45:36.000Z</time>
      </trkpt>
      <trkpt lat="45.94757" lon="4.75846">
        <ele>192.608253</ele>
        <time>2021-09-13T08:45:37.000Z</time>
      </trkpt>
      <trkpt lat="45.94731" lon="4.75858">
        <ele>192.800531</ele>
        <time>2021-09-13T08:45:44.000Z</time>
      </trkpt>
      <trkpt lat="45.94711" lon="4.75872">
        <ele>192.958775</ele>
        <time>2021-09-13T08:45:50.000Z</time>
      </trkpt>
      <trkpt lat="45.94682" lon="4.75899">
        <ele>193.2022</ele>
        <time>2021-09-13T08:45:58.000Z</time>
      </trkpt>
      <trkpt lat="45.94644" lon="4.75933">
        <ele>193.516897</ele>
        <time>2021-09-13T08:46:07.000Z</time>
      </trkpt>
      <trkpt lat="45.94615" lon="4.75953">
        <ele>193.45263</ele>
        <time>2021-09-13T08:46:13.000Z</time>
      </trkpt>
      <trkpt lat="45.9459" lon="4.75967">
        <ele>193.208688</ele>
        <time>2021-09-13T08:46:18.000Z</time>
      </trkpt>
      <trkpt lat="45.94559" lon="4.75984">
        <ele>192.913136</ele>
        <time>2021-09-13T08:46:24.000Z</time>
      </trkpt>
      <trkpt lat="45.94544" lon="4.75994">
        <ele>192.758263</ele>
        <time>2021-09-13T08:46:27.000Z</time>
      </trkpt>
      <trkpt lat="45.94534" lon="4.76">
        <ele>192.66196</ele>
        <time>2021-09-13T08:46:29.000Z</time>
      </trkpt>
      <trkpt lat="45.9453" lon="4.76003">
        <ele>192.616818</ele>
        <time>2021-09-13T08:46:30.000Z</time>
      </trkpt>
      <trkpt lat="45.94526" lon="4.76006">
        <ele>192.575202</ele>
        <time>2021-09-13T08:46:31.000Z</time>
      </trkpt>
      <trkpt lat="45.94517" lon="4.76011">
        <ele>192.49197</ele>
        <time>2021-09-13T08:46:33.000Z</time>
      </trkpt>
      <trkpt lat="45.94511" lon="4.7601">
        <ele>192.430439</ele>
        <time>2021-09-13T08:46:34.000Z</time>
      </trkpt>
      <trkpt lat="45.94505" lon="4.76008">
        <ele>192.374238</ele>
        <time>2021-09-13T08:46:35.000Z</time>
      </trkpt>
      <trkpt lat="45.94493" lon="4.76016">
        <ele>192.259043</ele>
        <time>2021-09-13T08:46:37.000Z</time>
      </trkpt>
      <trkpt lat="45.94489" lon="4.76036">
        <ele>192.127817</ele>
        <time>2021-09-13T08:46:39.000Z</time>
      </trkpt>
      <trkpt lat="45.94479" lon="4.76046">
        <ele>192.022132</ele>
        <time>2021-09-13T08:46:41.000Z</time>
      </trkpt>
      <trkpt lat="45.94455" lon="4.76072">
        <ele>191.804523</ele>
        <time>2021-09-13T08:46:46.000Z</time>
      </trkpt>
      <trkpt lat="45.9445" lon="4.76077">
        <ele>191.760536</ele>
        <time>2021-09-13T08:46:47.000Z</time>
      </trkpt>
      <trkpt lat="45.94425" lon="4.76104">
        <ele>191.542571</ele>
        <time>2021-09-13T08:46:52.000Z</time>
      </trkpt>
      <trkpt lat="45.94388" lon="4.76134">
        <ele>191.2539</ele>
        <time>2021-09-13T08:46:59.000Z</time>
      </trkpt>
      <trkpt lat="45.94341" lon="4.7617">
        <ele>190.884563</ele>
        <time>2021-09-13T08:47:08.000Z</time>
      </trkpt>
      <trkpt lat="45.94301" lon="4.76201">
        <ele>190.616613</ele>
        <time>2021-09-13T08:47:16.000Z</time>
      </trkpt>
      <trkpt lat="45.94264" lon="4.76232">
        <ele>190.40301</ele>
        <time>2021-09-13T08:47:23.000Z</time>
      </trkpt>
      <trkpt lat="45.94236" lon="4.76263">
        <ele>190.227781</ele>
        <time>2021-09-13T08:47:29.000Z</time>
      </trkpt>
      <trkpt lat="45.94213" lon="4.76303">
        <ele>190.048833</ele>
        <time>2021-09-13T08:47:35.000Z</time>
      </trkpt>
      <trkpt lat="45.94184" lon="4.76361">
        <ele>189.781884</ele>
        <time>2021-09-13T08:47:43.000Z</time>
      </trkpt>
      <trkpt lat="45.94178" lon="4.76374">
        <ele>189.699999</ele>
        <time>2021-09-13T08:47:45.000Z</time>
      </trkpt>
      <trkpt lat="45.94171" lon="4.76396">
        <ele>189.57225</ele>
        <time>2021-09-13T08:47:48.000Z</time>
      </trkpt>
      <trkpt lat="45.9416" lon="4.76438">
        <ele>189.336245</ele>
        <time>2021-09-13T08:47:53.000Z</time>
      </trkpt>
      <trkpt lat="45.94159" lon="4.7649">
        <ele>189.065574</ele>
        <time>2021-09-13T08:47:59.000Z</time>
      </trkpt>
      <trkpt lat="45.94163" lon="4.76554">
        <ele>188.728361</ele>
        <time>2021-09-13T08:48:06.000Z</time>
      </trkpt>
      <trkpt lat="45.94166" lon="4.76613">
        <ele>188.329997</ele>
        <time>2021-09-13T08:48:12.000Z</time>
      </trkpt>
      <trkpt lat="45.9417" lon="4.76674">
        <ele>187.609289</ele>
        <time>2021-09-13T08:48:18.000Z</time>
      </trkpt>
      <trkpt lat="45.94168" lon="4.76735">
        <ele>186.876794</ele>
        <time>2021-09-13T08:48:24.000Z</time>
      </trkpt>
      <trkpt lat="45.94157" lon="4.76763">
        <ele>186.507861</ele>
        <time>2021-09-13T08:48:27.000Z</time>
      </trkpt>
      <trkpt lat="45.94153" lon="4.76772">
        <ele>186.375684</ele>
        <time>2021-09-13T08:48:28.000Z</time>
      </trkpt>
      <trkpt lat="45.94121" lon="4.76836">
        <ele>185.449474</ele>
        <time>2021-09-13T08:48:35.000Z</time>
      </trkpt>
      <trkpt lat="45.9409" lon="4.76903">
        <ele>184.160735</ele>
        <time>2021-09-13T08:48:42.000Z</time>
      </trkpt>
      <trkpt lat="45.94085" lon="4.76911">
        <ele>183.983856</ele>
        <time>2021-09-13T08:48:43.000Z</time>
      </trkpt>
      <trkpt lat="45.94081" lon="4.7692">
        <ele>183.808273</ele>
        <time>2021-09-13T08:48:44.000Z</time>
      </trkpt>
      <trkpt lat="45.94073" lon="4.76936">
        <ele>183.48619</ele>
        <time>2021-09-13T08:48:46.000Z</time>
      </trkpt>
      <trkpt lat="45.94069" lon="4.76944">
        <ele>183.340986</ele>
        <time>2021-09-13T08:48:47.000Z</time>
      </trkpt>
      <trkpt lat="45.94065" lon="4.76951">
        <ele>183.188688</ele>
        <time>2021-09-13T08:48:48.000Z</time>
      </trkpt>
      <trkpt lat="45.94045" lon="4.7696">
        <ele>182.714301</ele>
        <time>2021-09-13T08:48:51.000Z</time>
      </trkpt>
      <trkpt lat="45.94043" lon="4.76977">
        <ele>182.438166</ele>
        <time>2021-09-13T08:48:53.000Z</time>
      </trkpt>
      <trkpt lat="45.9405" lon="4.77002">
        <ele>181.993113</ele>
        <time>2021-09-13T08:48:56.000Z</time>
      </trkpt>
      <trkpt lat="45.94049" lon="4.77011">
        <ele>181.86045</ele>
        <time>2021-09-13T08:48:57.000Z</time>
      </trkpt>
      <trkpt lat="45.94042" lon="4.77063">
        <ele>180.943092</ele>
        <time>2021-09-13T08:49:03.000Z</time>
      </trkpt>
      <trkpt lat="45.94034" lon="4.77123">
        <ele>179.775556</ele>
        <time>2021-09-13T08:49:10.000Z</time>
      </trkpt>
      <trkpt lat="45.94032" lon="4.7714">
        <ele>179.46095</ele>
        <time>2021-09-13T08:49:12.000Z</time>
      </trkpt>
      <trkpt lat="45.94032" lon="4.77147">
        <ele>179.315864</ele>
        <time>2021-09-13T08:49:13.000Z</time>
      </trkpt>
      <trkpt lat="45.94031" lon="4.77154">
        <ele>179.174103</ele>
        <time>2021-09-13T08:49:14.000Z</time>
      </trkpt>
      <trkpt lat="45.94022" lon="4.77225">
        <ele>177.807335</ele>
        <time>2021-09-13T08:49:23.000Z</time>
      </trkpt>
      <trkpt lat="45.94022" lon="4.7723">
        <ele>177.7122</ele>
        <time>2021-09-13T08:49:24.000Z</time>
      </trkpt>
      <trkpt lat="45.94016" lon="4.77229">
        <ele>177.563523</ele>
        <time>2021-09-13T08:49:25.000Z</time>
      </trkpt>
      <trkpt lat="45.94018" lon="4.77225">
        <ele>177.471537</ele>
        <time>2021-09-13T08:49:29.000Z</time>
      </trkpt>
      <trkpt lat="45.94015" lon="4.77234">
        <ele>177.295068</ele>
        <time>2021-09-13T08:58:47.000Z</time>
      </trkpt>
      <trkpt lat="45.9402" lon="4.7724">
        <ele>177.113531</ele>
        <time>2021-09-13T08:58:49.000Z</time>
      </trkpt>
      <trkpt lat="45.94018" lon="4.7726">
        <ele>176.723434</ele>
        <time>2021-09-13T08:58:54.000Z</time>
      </trkpt>
      <trkpt lat="45.94015" lon="4.77291">
        <ele>176.249331</ele>
        <time>2021-09-13T08:59:00.000Z</time>
      </trkpt>
      <trkpt lat="45.94012" lon="4.77345">
        <ele>175.835446</ele>
        <time>2021-09-13T08:59:06.000Z</time>
      </trkpt>
      <trkpt lat="45.94008" lon="4.7739">
        <ele>175.488457</ele>
        <time>2021-09-13T08:59:11.000Z</time>
      </trkpt>
      <trkpt lat="45.94" lon="4.77456">
        <ele>174.976561</ele>
        <time>2021-09-13T08:59:18.000Z</time>
      </trkpt>
      <trkpt lat="45.93994" lon="4.77501">
        <ele>174.622579</ele>
        <time>2021-09-13T08:59:23.000Z</time>
      </trkpt>
      <trkpt lat="45.93979" lon="4.77591">
        <ele>174.30873</ele>
        <time>2021-09-13T08:59:33.000Z</time>
      </trkpt>
      <trkpt lat="45.93974" lon="4.77615">
        <ele>174.289269</ele>
        <time>2021-09-13T08:59:36.000Z</time>
      </trkpt>
      <trkpt lat="45.9397" lon="4.77632">
        <ele>174.275895</ele>
        <time>2021-09-13T08:59:38.000Z</time>
      </trkpt>
      <trkpt lat="45.9396" lon="4.77673">
        <ele>174.242694</ele>
        <time>2021-09-13T08:59:43.000Z</time>
      </trkpt>
      <trkpt lat="45.93958" lon="4.77681">
        <ele>174.236077</ele>
        <time>2021-09-13T08:59:44.000Z</time>
      </trkpt>
      <trkpt lat="45.93955" lon="4.77688">
        <ele>174.229356</ele>
        <time>2021-09-13T08:59:45.000Z</time>
      </trkpt>
      <trkpt lat="45.93943" lon="4.77718">
        <ele>174.202657</ele>
        <time>2021-09-13T08:59:49.000Z</time>
      </trkpt>
      <trkpt lat="45.93925" lon="4.77766">
        <ele>174.160686</ele>
        <time>2021-09-13T08:59:55.000Z</time>
      </trkpt>
      <trkpt lat="45.93914" lon="4.77788">
        <ele>174.240092</ele>
        <time>2021-09-13T08:59:58.000Z</time>
      </trkpt>
      <trkpt lat="45.93906" lon="4.77811">
        <ele>174.368318</ele>
        <time>2021-09-13T09:00:01.000Z</time>
      </trkpt>
      <trkpt lat="45.93892" lon="4.77852">
        <ele>174.597356</ele>
        <time>2021-09-13T09:00:07.000Z</time>
      </trkpt>
      <trkpt lat="45.93881" lon="4.77898">
        <ele>174.839836</ele>
        <time>2021-09-13T09:00:14.000Z</time>
      </trkpt>
      <trkpt lat="45.93872" lon="4.77934">
        <ele>175.029712</ele>
        <time>2021-09-13T09:00:20.000Z</time>
      </trkpt>
      <trkpt lat="45.93869" lon="4.77946">
        <ele>175.092376</ele>
        <time>2021-09-13T09:00:22.000Z</time>
      </trkpt>
      <trkpt lat="45.93866" lon="4.77957">
        <ele>175.150589</ele>
        <time>2021-09-13T09:00:24.000Z</time>
      </trkpt>
      <trkpt lat="45.9386" lon="4.7798">
        <ele>175.26982</ele>
        <time>2021-09-13T09:00:28.000Z</time>
      </trkpt>
      <trkpt lat="45.93857" lon="4.77991">
        <ele>175.334147</ele>
        <time>2021-09-13T09:00:30.000Z</time>
      </trkpt>
      <trkpt lat="45.93852" lon="4.77994">
        <ele>175.371662</ele>
        <time>2021-09-13T09:00:31.000Z</time>
      </trkpt>
      <trkpt lat="45.93842" lon="4.77999">
        <ele>175.444468</ele>
        <time>2021-09-13T09:00:33.000Z</time>
      </trkpt>
      <trkpt lat="45.93837" lon="4.78012">
        <ele>175.565973</ele>
        <time>2021-09-13T09:00:35.000Z</time>
      </trkpt>
      <trkpt lat="45.93837" lon="4.7802">
        <ele>175.635494</ele>
        <time>2021-09-13T09:00:36.000Z</time>
      </trkpt>
      <trkpt lat="45.9384" lon="4.78027">
        <ele>175.693531</ele>
        <time>2021-09-13T09:00:37.000Z</time>
      </trkpt>
      <trkpt lat="45.93847" lon="4.78041">
        <ele>175.837909</ele>
        <time>2021-09-13T09:00:39.000Z</time>
      </trkpt>
      <trkpt lat="45.93847" lon="4.78051">
        <ele>175.915609</ele>
        <time>2021-09-13T09:00:40.000Z</time>
      </trkpt>
      <trkpt lat="45.93846" lon="4.78058">
        <ele>175.972457</ele>
        <time>2021-09-13T09:00:41.000Z</time>
      </trkpt>
      <trkpt lat="45.93843" lon="4.78079">
        <ele>176.149089</ele>
        <time>2021-09-13T09:00:44.000Z</time>
      </trkpt>
      <trkpt lat="45.93832" lon="4.78126">
        <ele>176.55742</ele>
        <time>2021-09-13T09:00:51.000Z</time>
      </trkpt>
      <trkpt lat="45.93816" lon="4.78188">
        <ele>177.094424</ele>
        <time>2021-09-13T09:01:00.000Z</time>
      </trkpt>
      <trkpt lat="45.93807" lon="4.78222">
        <ele>177.394982</ele>
        <time>2021-09-13T09:01:05.000Z</time>
      </trkpt>
      <trkpt lat="45.93802" lon="4.78235">
        <ele>177.514027</ele>
        <time>2021-09-13T09:01:07.000Z</time>
      </trkpt>
      <trkpt lat="45.93794" lon="4.78246">
        <ele>177.605482</ele>
        <time>2021-09-13T09:01:09.000Z</time>
      </trkpt>
      <trkpt lat="45.93792" lon="4.78261">
        <ele>177.678932</ele>
        <time>2021-09-13T09:01:11.000Z</time>
      </trkpt>
      <trkpt lat="45.93786" lon="4.78273">
        <ele>177.753986</ele>
        <time>2021-09-13T09:01:13.000Z</time>
      </trkpt>
      <trkpt lat="45.93785" lon="4.78297">
        <ele>177.872015</ele>
        <time>2021-09-13T09:01:16.000Z</time>
      </trkpt>
      <trkpt lat="45.93768" lon="4.78361">
        <ele>178.205762</ele>
        <time>2021-09-13T09:01:24.000Z</time>
      </trkpt>
      <trkpt lat="45.93748" lon="4.78438">
        <ele>178.604486</ele>
        <time>2021-09-13T09:01:33.000Z</time>
      </trkpt>
      <trkpt lat="45.93732" lon="4.78502">
        <ele>178.688858</ele>
        <time>2021-09-13T09:01:40.000Z</time>
      </trkpt>
      <trkpt lat="45.93715" lon="4.78566">
        <ele>178.363627</ele>
        <time>2021-09-13T09:01:47.000Z</time>
      </trkpt>
      <trkpt lat="45.93696" lon="4.7863">
        <ele>178.037973</ele>
        <time>2021-09-13T09:01:54.000Z</time>
      </trkpt>
      <trkpt lat="45.9367" lon="4.78694">
        <ele>177.687501</ele>
        <time>2021-09-13T09:02:01.000Z</time>
      </trkpt>
      <trkpt lat="45.93643" lon="4.7876">
        <ele>177.165007</ele>
        <time>2021-09-13T09:02:08.000Z</time>
      </trkpt>
      <trkpt lat="45.93615" lon="4.78823">
        <ele>176.590899</ele>
        <time>2021-09-13T09:02:15.000Z</time>
      </trkpt>
      <trkpt lat="45.93581" lon="4.78893">
        <ele>175.945651</ele>
        <time>2021-09-13T09:02:23.000Z</time>
      </trkpt>
      <trkpt lat="45.93577" lon="4.78901">
        <ele>175.870477</ele>
        <time>2021-09-13T09:02:24.000Z</time>
      </trkpt>
      <trkpt lat="45.93567" lon="4.78924">
        <ele>175.657289</ele>
        <time>2021-09-13T09:02:27.000Z</time>
      </trkpt>
      <trkpt lat="45.93561" lon="4.78939">
        <ele>175.545486</ele>
        <time>2021-09-13T09:02:29.000Z</time>
      </trkpt>
      <trkpt lat="45.93557" lon="4.78947">
        <ele>175.493521</ele>
        <time>2021-09-13T09:02:30.000Z</time>
      </trkpt>
      <trkpt lat="45.9355" lon="4.78959">
        <ele>175.394868</ele>
        <time>2021-09-13T09:02:32.000Z</time>
      </trkpt>
      <trkpt lat="45.93545" lon="4.78964">
        <ele>175.348961</ele>
        <time>2021-09-13T09:02:33.000Z</time>
      </trkpt>
      <trkpt lat="45.93538" lon="4.78963">
        <ele>175.285546</ele>
        <time>2021-09-13T09:02:34.000Z</time>
      </trkpt>
      <trkpt lat="45.93527" lon="4.78972">
        <ele>175.182909</ele>
        <time>2021-09-13T09:02:36.000Z</time>
      </trkpt>
      <trkpt lat="45.93527" lon="4.78992">
        <ele>175.064605</ele>
        <time>2021-09-13T09:02:38.000Z</time>
      </trkpt>
      <trkpt lat="45.93526" lon="4.78998">
        <ele>175.028982</ele>
        <time>2021-09-13T09:02:39.000Z</time>
      </trkpt>
      <trkpt lat="45.93524" lon="4.79005">
        <ele>174.983285</ele>
        <time>2021-09-13T09:02:40.000Z</time>
      </trkpt>
      <trkpt lat="45.93519" lon="4.7902">
        <ele>174.887097</ele>
        <time>2021-09-13T09:02:42.000Z</time>
      </trkpt>
      <trkpt lat="45.93516" lon="4.79028">
        <ele>174.835556</ele>
        <time>2021-09-13T09:02:43.000Z</time>
      </trkpt>
      <trkpt lat="45.93494" lon="4.7909">
        <ele>174.427953</ele>
        <time>2021-09-13T09:02:51.000Z</time>
      </trkpt>
      <trkpt lat="45.9347" lon="4.7916">
        <ele>174.003134</ele>
        <time>2021-09-13T09:03:00.000Z</time>
      </trkpt>
      <trkpt lat="45.93445" lon="4.79231">
        <ele>173.665383</ele>
        <time>2021-09-13T09:03:09.000Z</time>
      </trkpt>
      <trkpt lat="45.93428" lon="4.79285">
        <ele>173.409038</ele>
        <time>2021-09-13T09:03:16.000Z</time>
      </trkpt>
      <trkpt lat="45.93425" lon="4.79293">
        <ele>173.373505</ele>
        <time>2021-09-13T09:03:17.000Z</time>
      </trkpt>
      <trkpt lat="45.93418" lon="4.79314">
        <ele>173.271819</ele>
        <time>2021-09-13T09:03:20.000Z</time>
      </trkpt>
      <trkpt lat="45.93413" lon="4.79328">
        <ele>173.207474</ele>
        <time>2021-09-13T09:03:22.000Z</time>
      </trkpt>
      <trkpt lat="45.93397" lon="4.79378">
        <ele>172.993991</ele>
        <time>2021-09-13T09:03:29.000Z</time>
      </trkpt>
      <trkpt lat="45.93388" lon="4.79405">
        <ele>172.982915</ele>
        <time>2021-09-13T09:03:33.000Z</time>
      </trkpt>
      <trkpt lat="45.93383" lon="4.79418">
        <ele>172.977529</ele>
        <time>2021-09-13T09:03:35.000Z</time>
      </trkpt>
      <trkpt lat="45.93372" lon="4.79449">
        <ele>172.964422</ele>
        <time>2021-09-13T09:03:40.000Z</time>
      </trkpt>
      <trkpt lat="45.93356" lon="4.79497">
        <ele>172.944495</ele>
        <time>2021-09-13T09:03:48.000Z</time>
      </trkpt>
      <trkpt lat="45.93343" lon="4.79536">
        <ele>172.92854</ele>
        <time>2021-09-13T09:03:55.000Z</time>
      </trkpt>
      <trkpt lat="45.93326" lon="4.79583">
        <ele>172.909174</ele>
        <time>2021-09-13T09:04:03.000Z</time>
      </trkpt>
      <trkpt lat="45.93308" lon="4.79638">
        <ele>172.94018</ele>
        <time>2021-09-13T09:04:12.000Z</time>
      </trkpt>
      <trkpt lat="45.93289" lon="4.79694">
        <ele>173.006221</ele>
        <time>2021-09-13T09:04:20.000Z</time>
      </trkpt>
      <trkpt lat="45.93276" lon="4.7973">
        <ele>173.049464</ele>
        <time>2021-09-13T09:04:25.000Z</time>
      </trkpt>
      <trkpt lat="45.93271" lon="4.79745">
        <ele>173.067105</ele>
        <time>2021-09-13T09:04:27.000Z</time>
      </trkpt>
      <trkpt lat="45.9325" lon="4.79812">
        <ele>173.145301</ele>
        <time>2021-09-13T09:04:35.000Z</time>
      </trkpt>
      <trkpt lat="45.93226" lon="4.79876">
        <ele>173.045317</ele>
        <time>2021-09-13T09:04:42.000Z</time>
      </trkpt>
      <trkpt lat="45.93193" lon="4.7994">
        <ele>172.805515</ele>
        <time>2021-09-13T09:04:50.000Z</time>
      </trkpt>
      <trkpt lat="45.93179" lon="4.79973">
        <ele>172.690965</ele>
        <time>2021-09-13T09:04:54.000Z</time>
      </trkpt>
      <trkpt lat="45.93175" lon="4.79991">
        <ele>172.634304</ele>
        <time>2021-09-13T09:04:56.000Z</time>
      </trkpt>
      <trkpt lat="45.93167" lon="4.80028">
        <ele>172.519633</ele>
        <time>2021-09-13T09:05:00.000Z</time>
      </trkpt>
      <trkpt lat="45.93163" lon="4.80046">
        <ele>172.464385</ele>
        <time>2021-09-13T09:05:02.000Z</time>
      </trkpt>
      <trkpt lat="45.93158" lon="4.80073">
        <ele>172.380782</ele>
        <time>2021-09-13T09:05:05.000Z</time>
      </trkpt>
      <trkpt lat="45.93155" lon="4.80083">
        <ele>172.352757</ele>
        <time>2021-09-13T09:05:06.000Z</time>
      </trkpt>
      <trkpt lat="45.93136" lon="4.80155">
        <ele>172.135337</ele>
        <time>2021-09-13T09:05:14.000Z</time>
      </trkpt>
      <trkpt lat="45.93113" lon="4.8023">
        <ele>171.902858</ele>
        <time>2021-09-13T09:05:23.000Z</time>
      </trkpt>
      <trkpt lat="45.93089" lon="4.80301">
        <ele>171.679261</ele>
        <time>2021-09-13T09:05:32.000Z</time>
      </trkpt>
      <trkpt lat="45.93067" lon="4.80368">
        <ele>171.637019</ele>
        <time>2021-09-13T09:05:41.000Z</time>
      </trkpt>
      <trkpt lat="45.93044" lon="4.80438">
        <ele>171.596176</ele>
        <time>2021-09-13T09:05:51.000Z</time>
      </trkpt>
      <trkpt lat="45.93039" lon="4.80452">
        <ele>171.588081</ele>
        <time>2021-09-13T09:05:53.000Z</time>
      </trkpt>
      <trkpt lat="45.93014" lon="4.80529">
        <ele>171.543341</ele>
        <time>2021-09-13T09:06:04.000Z</time>
      </trkpt>
      <trkpt lat="45.92989" lon="4.80605">
        <ele>171.618409</ele>
        <time>2021-09-13T09:06:14.000Z</time>
      </trkpt>
      <trkpt lat="45.9297" lon="4.80662">
        <ele>171.683992</ele>
        <time>2021-09-13T09:06:21.000Z</time>
      </trkpt>
      <trkpt lat="45.92944" lon="4.80738">
        <ele>171.771756</ele>
        <time>2021-09-13T09:06:30.000Z</time>
      </trkpt>
      <trkpt lat="45.92939" lon="4.80755">
        <ele>171.790768</ele>
        <time>2021-09-13T09:06:32.000Z</time>
      </trkpt>
      <trkpt lat="45.92915" lon="4.80828">
        <ele>171.854259</ele>
        <time>2021-09-13T09:06:41.000Z</time>
      </trkpt>
      <trkpt lat="45.92909" lon="4.80844">
        <ele>171.867458</ele>
        <time>2021-09-13T09:06:43.000Z</time>
      </trkpt>
      <trkpt lat="45.92884" lon="4.8092">
        <ele>171.927743</ele>
        <time>2021-09-13T09:06:52.000Z</time>
      </trkpt>
      <trkpt lat="45.9286" lon="4.8099">
        <ele>171.983919</ele>
        <time>2021-09-13T09:07:00.000Z</time>
      </trkpt>
      <trkpt lat="45.9283" lon="4.81052">
        <ele>172.053111</ele>
        <time>2021-09-13T09:07:08.000Z</time>
      </trkpt>
      <trkpt lat="45.92796" lon="4.81105">
        <ele>172.124099</ele>
        <time>2021-09-13T09:07:16.000Z</time>
      </trkpt>
      <trkpt lat="45.92778" lon="4.81128">
        <ele>172.156807</ele>
        <time>2021-09-13T09:07:20.000Z</time>
      </trkpt>
      <trkpt lat="45.92773" lon="4.81131">
        <ele>172.164355</ele>
        <time>2021-09-13T09:07:21.000Z</time>
      </trkpt>
      <trkpt lat="45.92768" lon="4.81133">
        <ele>172.171752</ele>
        <time>2021-09-13T09:07:22.000Z</time>
      </trkpt>
      <trkpt lat="45.92757" lon="4.81134">
        <ele>172.187375</ele>
        <time>2021-09-13T09:07:24.000Z</time>
      </trkpt>
      <trkpt lat="45.92748" lon="4.81144">
        <ele>172.202767</ele>
        <time>2021-09-13T09:07:26.000Z</time>
      </trkpt>
      <trkpt lat="45.92744" lon="4.81149">
        <ele>172.210695</ele>
        <time>2021-09-13T09:07:27.000Z</time>
      </trkpt>
      <trkpt lat="45.92739" lon="4.81153">
        <ele>172.21836</ele>
        <time>2021-09-13T09:07:28.000Z</time>
      </trkpt>
      <trkpt lat="45.92722" lon="4.81159">
        <ele>172.242789</ele>
        <time>2021-09-13T09:07:31.000Z</time>
      </trkpt>
      <trkpt lat="45.92693" lon="4.81169">
        <ele>172.203342</ele>
        <time>2021-09-13T09:07:36.000Z</time>
      </trkpt>
      <trkpt lat="45.92681" lon="4.81171">
        <ele>172.186439</ele>
        <time>2021-09-13T09:07:38.000Z</time>
      </trkpt>
      <trkpt lat="45.92622" lon="4.81181">
        <ele>172.101089</ele>
        <time>2021-09-13T09:07:48.000Z</time>
      </trkpt>
      <trkpt lat="45.92568" lon="4.81184">
        <ele>172.024212</ele>
        <time>2021-09-13T09:07:57.000Z</time>
      </trkpt>
      <trkpt lat="45.92509" lon="4.81187">
        <ele>171.956177</ele>
        <time>2021-09-13T09:08:07.000Z</time>
      </trkpt>
      <trkpt lat="45.92503" lon="4.81188">
        <ele>171.950577</ele>
        <time>2021-09-13T09:08:08.000Z</time>
      </trkpt>
      <trkpt lat="45.92453" lon="4.8119">
        <ele>171.901522</ele>
        <time>2021-09-13T09:08:17.000Z</time>
      </trkpt>
      <trkpt lat="45.9242" lon="4.81196">
        <ele>171.869481</ele>
        <time>2021-09-13T09:08:23.000Z</time>
      </trkpt>
      <trkpt lat="45.92409" lon="4.81199">
        <ele>171.85903</ele>
        <time>2021-09-13T09:08:25.000Z</time>
      </trkpt>
      <trkpt lat="45.92369" lon="4.81214">
        <ele>171.819471</ele>
        <time>2021-09-13T09:08:32.000Z</time>
      </trkpt>
      <trkpt lat="45.92319" lon="4.81249">
        <ele>171.787695</ele>
        <time>2021-09-13T09:08:41.000Z</time>
      </trkpt>
      <trkpt lat="45.92269" lon="4.81285">
        <ele>171.758829</ele>
        <time>2021-09-13T09:08:50.000Z</time>
      </trkpt>
      <trkpt lat="45.92264" lon="4.8129">
        <ele>171.755678</ele>
        <time>2021-09-13T09:08:51.000Z</time>
      </trkpt>
      <trkpt lat="45.9223" lon="4.81322">
        <ele>171.734084</ele>
        <time>2021-09-13T09:08:58.000Z</time>
      </trkpt>
      <trkpt lat="45.92194" lon="4.81349">
        <ele>171.710601</ele>
        <time>2021-09-13T09:09:05.000Z</time>
      </trkpt>
      <trkpt lat="45.92189" lon="4.81352">
        <ele>171.706853</ele>
        <time>2021-09-13T09:09:06.000Z</time>
      </trkpt>
      <trkpt lat="45.9217" lon="4.81353">
        <ele>171.694583</ele>
        <time>2021-09-13T09:09:09.000Z</time>
      </trkpt>
      <trkpt lat="45.92166" lon="4.81357">
        <ele>171.691376</ele>
        <time>2021-09-13T09:09:10.000Z</time>
      </trkpt>
      <trkpt lat="45.92152" lon="4.8138">
        <ele>171.677191</ele>
        <time>2021-09-13T09:09:13.000Z</time>
      </trkpt>
      <trkpt lat="45.92147" lon="4.81381">
        <ele>171.673358</ele>
        <time>2021-09-13T09:09:14.000Z</time>
      </trkpt>
      <trkpt lat="45.92107" lon="4.81391">
        <ele>171.645956</ele>
        <time>2021-09-13T09:09:21.000Z</time>
      </trkpt>
      <trkpt lat="45.92101" lon="4.81394">
        <ele>171.641919</ele>
        <time>2021-09-13T09:09:22.000Z</time>
      </trkpt>
      <trkpt lat="45.92073" lon="4.81409">
        <ele>171.622009</ele>
        <time>2021-09-13T09:09:27.000Z</time>
      </trkpt>
      <trkpt lat="45.92017" lon="4.81435">
        <ele>171.604953</ele>
        <time>2021-09-13T09:09:37.000Z</time>
      </trkpt>
      <trkpt lat="45.91973" lon="4.81454">
        <ele>171.613924</ele>
        <time>2021-09-13T09:09:45.000Z</time>
      </trkpt>
      <trkpt lat="45.9192" lon="4.81476">
        <ele>171.624787</ele>
        <time>2021-09-13T09:09:55.000Z</time>
      </trkpt>
      <trkpt lat="45.91914" lon="4.81478">
        <ele>171.625859</ele>
        <time>2021-09-13T09:09:56.000Z</time>
      </trkpt>
      <trkpt lat="45.91859" lon="4.81501">
        <ele>171.625084</ele>
        <time>2021-09-13T09:10:06.000Z</time>
      </trkpt>
      <trkpt lat="45.91809" lon="4.8152">
        <ele>171.576204</ele>
        <time>2021-09-13T09:10:15.000Z</time>
      </trkpt>
      <trkpt lat="45.9176" lon="4.81538">
        <ele>171.528889</ele>
        <time>2021-09-13T09:10:24.000Z</time>
      </trkpt>
      <trkpt lat="45.91715" lon="4.81553">
        <ele>171.485719</ele>
        <time>2021-09-13T09:10:32.000Z</time>
      </trkpt>
      <trkpt lat="45.9167" lon="4.81564">
        <ele>171.458016</ele>
        <time>2021-09-13T09:10:40.000Z</time>
      </trkpt>
      <trkpt lat="45.91659" lon="4.81566">
        <ele>171.454212</ele>
        <time>2021-09-13T09:10:43.000Z</time>
      </trkpt>
      <trkpt lat="45.91643" lon="4.81569">
        <ele>171.448668</ele>
        <time>2021-09-13T09:10:46.000Z</time>
      </trkpt>
      <trkpt lat="45.9159" lon="4.81579">
        <ele>171.430019</ele>
        <time>2021-09-13T09:10:56.000Z</time>
      </trkpt>
      <trkpt lat="45.91584" lon="4.8158">
        <ele>171.428144</ele>
        <time>2021-09-13T09:10:57.000Z</time>
      </trkpt>
      <trkpt lat="45.91536" lon="4.81587">
        <ele>171.411371</ele>
        <time>2021-09-13T09:11:06.000Z</time>
      </trkpt>
      <trkpt lat="45.91494" lon="4.81593">
        <ele>171.389972</ele>
        <time>2021-09-13T09:11:14.000Z</time>
      </trkpt>
      <trkpt lat="45.91444" lon="4.816">
        <ele>171.35788</ele>
        <time>2021-09-13T09:11:23.000Z</time>
      </trkpt>
      <trkpt lat="45.91393" lon="4.81604">
        <ele>171.325673</ele>
        <time>2021-09-13T09:11:32.000Z</time>
      </trkpt>
      <trkpt lat="45.91338" lon="4.81607">
        <ele>171.290114</ele>
        <time>2021-09-13T09:11:42.000Z</time>
      </trkpt>
      <trkpt lat="45.91332" lon="4.81608">
        <ele>171.284619</ele>
        <time>2021-09-13T09:11:43.000Z</time>
      </trkpt>
      <trkpt lat="45.91277" lon="4.81609">
        <ele>171.225426</ele>
        <time>2021-09-13T09:11:53.000Z</time>
      </trkpt>
      <trkpt lat="45.91271" lon="4.81609">
        <ele>171.219529</ele>
        <time>2021-09-13T09:11:54.000Z</time>
      </trkpt>
      <trkpt lat="45.91217" lon="4.8161">
        <ele>171.161311</ele>
        <time>2021-09-13T09:12:04.000Z</time>
      </trkpt>
      <trkpt lat="45.91171" lon="4.8161">
        <ele>171.111456</ele>
        <time>2021-09-13T09:12:13.000Z</time>
      </trkpt>
      <trkpt lat="45.91129" lon="4.81609">
        <ele>171.053943</ele>
        <time>2021-09-13T09:12:21.000Z</time>
      </trkpt>
      <trkpt lat="45.91074" lon="4.81607">
        <ele>170.970651</ele>
        <time>2021-09-13T09:12:31.000Z</time>
      </trkpt>
      <trkpt lat="45.91027" lon="4.81602">
        <ele>170.899056</ele>
        <time>2021-09-13T09:12:39.000Z</time>
      </trkpt>
      <trkpt lat="45.91016" lon="4.816">
        <ele>170.881692</ele>
        <time>2021-09-13T09:12:41.000Z</time>
      </trkpt>
      <trkpt lat="45.91" lon="4.81597">
        <ele>170.856492</ele>
        <time>2021-09-13T09:12:44.000Z</time>
      </trkpt>
      <trkpt lat="45.90967" lon="4.81591">
        <ele>170.794653</ele>
        <time>2021-09-13T09:12:50.000Z</time>
      </trkpt>
      <trkpt lat="45.9092" lon="4.81584">
        <ele>170.666585</ele>
        <time>2021-09-13T09:12:59.000Z</time>
      </trkpt>
      <trkpt lat="45.90882" lon="4.81579">
        <ele>170.564213</ele>
        <time>2021-09-13T09:13:06.000Z</time>
      </trkpt>
      <trkpt lat="45.90866" lon="4.81579">
        <ele>170.521316</ele>
        <time>2021-09-13T09:13:09.000Z</time>
      </trkpt>
      <trkpt lat="45.9085" lon="4.8158">
        <ele>170.476797</ele>
        <time>2021-09-13T09:13:12.000Z</time>
      </trkpt>
      <trkpt lat="45.90798" lon="4.81581">
        <ele>170.337565</ele>
        <time>2021-09-13T09:13:22.000Z</time>
      </trkpt>
      <trkpt lat="45.90767" lon="4.81582">
        <ele>170.99901</ele>
        <time>2021-09-13T09:13:29.000Z</time>
      </trkpt>
      <trkpt lat="45.90734" lon="4.81583">
        <ele>171.700327</ele>
        <time>2021-09-13T09:13:38.000Z</time>
      </trkpt>
      <trkpt lat="45.90698" lon="4.81584">
        <ele>172.450351</ele>
        <time>2021-09-13T09:13:49.000Z</time>
      </trkpt>
      <trkpt lat="45.90673" lon="4.81585">
        <ele>172.999095</ele>
        <time>2021-09-13T09:13:58.000Z</time>
      </trkpt>
      <trkpt lat="45.90648" lon="4.81586">
        <ele>173.526698</ele>
        <time>2021-09-13T09:14:07.000Z</time>
      </trkpt>
      <trkpt lat="45.90623" lon="4.81587">
        <ele>174.041635</ele>
        <time>2021-09-13T09:14:16.000Z</time>
      </trkpt>
      <trkpt lat="45.90601" lon="4.81588">
        <ele>174.64798</ele>
        <time>2021-09-13T09:14:24.000Z</time>
      </trkpt>
      <trkpt lat="45.90575" lon="4.81589">
        <ele>175.393839</ele>
        <time>2021-09-13T09:14:34.000Z</time>
      </trkpt>
      <trkpt lat="45.90553" lon="4.81589">
        <ele>176.019609</ele>
        <time>2021-09-13T09:14:42.000Z</time>
      </trkpt>
      <trkpt lat="45.9054" lon="4.8159">
        <ele>176.39976</ele>
        <time>2021-09-13T09:14:48.000Z</time>
      </trkpt>
      <trkpt lat="45.90533" lon="4.8159">
        <ele>176.591336</ele>
        <time>2021-09-13T09:14:54.000Z</time>
      </trkpt>
      <trkpt lat="45.90531" lon="4.81591">
        <ele>176.657164</ele>
        <time>2021-09-13T09:15:02.000Z</time>
      </trkpt>
      <trkpt lat="45.90526" lon="4.81591">
        <ele>176.777301</ele>
        <time>2021-09-13T09:15:04.000Z</time>
      </trkpt>
      <trkpt lat="45.90503" lon="4.81592">
        <ele>177.432205</ele>
        <time>2021-09-13T09:15:11.000Z</time>
      </trkpt>
      <trkpt lat="45.90483" lon="4.81594">
        <ele>178.012563</ele>
        <time>2021-09-13T09:15:17.000Z</time>
      </trkpt>
      <trkpt lat="45.90444" lon="4.81596">
        <ele>179.144891</ele>
        <time>2021-09-13T09:15:24.000Z</time>
      </trkpt>
      <trkpt lat="45.90438" lon="4.81597">
        <ele>179.286515</ele>
        <time>2021-09-13T09:15:25.000Z</time>
      </trkpt>
      <trkpt lat="45.90434" lon="4.81597">
        <ele>179.310354</ele>
        <time>2021-09-13T09:15:26.000Z</time>
      </trkpt>
      <trkpt lat="45.90409" lon="4.81602">
        <ele>179.43151</ele>
        <time>2021-09-13T09:15:31.000Z</time>
      </trkpt>
      <trkpt lat="45.90364" lon="4.81609">
        <ele>179.651059</ele>
        <time>2021-09-13T09:15:40.000Z</time>
      </trkpt>
      <trkpt lat="45.90329" lon="4.81617">
        <ele>179.819681</ele>
        <time>2021-09-13T09:15:47.000Z</time>
      </trkpt>
      <trkpt lat="45.90315" lon="4.81618">
        <ele>179.889956</ele>
        <time>2021-09-13T09:15:50.000Z</time>
      </trkpt>
      <trkpt lat="45.90306" lon="4.81618">
        <ele>179.932496</ele>
        <time>2021-09-13T09:15:52.000Z</time>
      </trkpt>
      <trkpt lat="45.90302" lon="4.81617">
        <ele>179.953417</ele>
        <time>2021-09-13T09:15:53.000Z</time>
      </trkpt>
      <trkpt lat="45.90293" lon="4.81613">
        <ele>179.994864</ele>
        <time>2021-09-13T09:15:55.000Z</time>
      </trkpt>
      <trkpt lat="45.90283" lon="4.8161">
        <ele>180.04637</ele>
        <time>2021-09-13T09:15:57.000Z</time>
      </trkpt>
      <trkpt lat="45.90278" lon="4.81612">
        <ele>180.071371</ele>
        <time>2021-09-13T09:15:58.000Z</time>
      </trkpt>
      <trkpt lat="45.90246" lon="4.81625">
        <ele>180.132032</ele>
        <time>2021-09-13T09:16:04.000Z</time>
      </trkpt>
      <trkpt lat="45.90222" lon="4.81629">
        <ele>180.097749</ele>
        <time>2021-09-13T09:16:08.000Z</time>
      </trkpt>
      <trkpt lat="45.90217" lon="4.81629">
        <ele>180.090372</ele>
        <time>2021-09-13T09:16:09.000Z</time>
      </trkpt>
      <trkpt lat="45.90212" lon="4.8163">
        <ele>180.083722</ele>
        <time>2021-09-13T09:16:10.000Z</time>
      </trkpt>
      <trkpt lat="45.90191" lon="4.81633">
        <ele>180.052324</ele>
        <time>2021-09-13T09:16:14.000Z</time>
      </trkpt>
      <trkpt lat="45.90156" lon="4.81638">
        <ele>180.001692</ele>
        <time>2021-09-13T09:16:20.000Z</time>
      </trkpt>
      <trkpt lat="45.90145" lon="4.8164">
        <ele>179.986356</ele>
        <time>2021-09-13T09:16:22.000Z</time>
      </trkpt>
      <trkpt lat="45.90135" lon="4.81641">
        <ele>179.971261</ele>
        <time>2021-09-13T09:16:24.000Z</time>
      </trkpt>
      <trkpt lat="45.90114" lon="4.81646">
        <ele>179.940421</ele>
        <time>2021-09-13T09:16:28.000Z</time>
      </trkpt>
      <trkpt lat="45.90076" lon="4.81657">
        <ele>179.857726</ele>
        <time>2021-09-13T09:16:35.000Z</time>
      </trkpt>
      <trkpt lat="45.90032" lon="4.81675">
        <ele>179.618951</ele>
        <time>2021-09-13T09:16:43.000Z</time>
      </trkpt>
      <trkpt lat="45.89977" lon="4.81699">
        <ele>179.319897</ele>
        <time>2021-09-13T09:16:53.000Z</time>
      </trkpt>
      <trkpt lat="45.8996" lon="4.81707">
        <ele>179.230296</ele>
        <time>2021-09-13T09:16:56.000Z</time>
      </trkpt>
      <trkpt lat="45.8995" lon="4.81711">
        <ele>179.173668</ele>
        <time>2021-09-13T09:16:58.000Z</time>
      </trkpt>
      <trkpt lat="45.89938" lon="4.81708">
        <ele>179.110048</ele>
        <time>2021-09-13T09:17:00.000Z</time>
      </trkpt>
      <trkpt lat="45.89928" lon="4.81707">
        <ele>179.058193</ele>
        <time>2021-09-13T09:17:02.000Z</time>
      </trkpt>
      <trkpt lat="45.89918" lon="4.81713">
        <ele>179.00308</ele>
        <time>2021-09-13T09:17:04.000Z</time>
      </trkpt>
      <trkpt lat="45.89913" lon="4.81718">
        <ele>178.972368</ele>
        <time>2021-09-13T09:17:05.000Z</time>
      </trkpt>
      <trkpt lat="45.89912" lon="4.81724">
        <ele>178.944084</ele>
        <time>2021-09-13T09:17:06.000Z</time>
      </trkpt>
      <trkpt lat="45.89907" lon="4.81742">
        <ele>178.8549</ele>
        <time>2021-09-13T09:17:08.000Z</time>
      </trkpt>
      <trkpt lat="45.89904" lon="4.81749">
        <ele>178.813219</ele>
        <time>2021-09-13T09:17:09.000Z</time>
      </trkpt>
      <trkpt lat="45.899" lon="4.81757">
        <ele>178.767074</ele>
        <time>2021-09-13T09:17:10.000Z</time>
      </trkpt>
      <trkpt lat="45.89879" lon="4.8178">
        <ele>178.587706</ele>
        <time>2021-09-13T09:17:14.000Z</time>
      </trkpt>
      <trkpt lat="45.8984" lon="4.81823">
        <ele>178.250732</ele>
        <time>2021-09-13T09:17:22.000Z</time>
      </trkpt>
      <trkpt lat="45.89809" lon="4.81857">
        <ele>177.981298</ele>
        <time>2021-09-13T09:17:29.000Z</time>
      </trkpt>
      <trkpt lat="45.89766" lon="4.81898">
        <ele>177.593586</ele>
        <time>2021-09-13T09:17:38.000Z</time>
      </trkpt>
      <trkpt lat="45.89737" lon="4.81924">
        <ele>177.278235</ele>
        <time>2021-09-13T09:17:44.000Z</time>
      </trkpt>
      <trkpt lat="45.89702" lon="4.81952">
        <ele>176.912974</ele>
        <time>2021-09-13T09:17:51.000Z</time>
      </trkpt>
      <trkpt lat="45.89656" lon="4.8199">
        <ele>176.434377</ele>
        <time>2021-09-13T09:18:00.000Z</time>
      </trkpt>
      <trkpt lat="45.89643" lon="4.82001">
        <ele>176.291083</ele>
        <time>2021-09-13T09:18:03.000Z</time>
      </trkpt>
      <trkpt lat="45.89629" lon="4.82012">
        <ele>176.149756</ele>
        <time>2021-09-13T09:18:06.000Z</time>
      </trkpt>
      <trkpt lat="45.89589" lon="4.82042">
        <ele>175.85279</ele>
        <time>2021-09-13T09:18:15.000Z</time>
      </trkpt>
      <trkpt lat="45.8958" lon="4.82049">
        <ele>175.790909</ele>
        <time>2021-09-13T09:18:17.000Z</time>
      </trkpt>
      <trkpt lat="45.89561" lon="4.82058">
        <ele>175.665609</ele>
        <time>2021-09-13T09:18:21.000Z</time>
      </trkpt>
      <trkpt lat="45.89547" lon="4.82066">
        <ele>175.569606</ele>
        <time>2021-09-13T09:18:24.000Z</time>
      </trkpt>
      <trkpt lat="45.89537" lon="4.8207">
        <ele>175.50586</ele>
        <time>2021-09-13T09:18:26.000Z</time>
      </trkpt>
      <trkpt lat="45.89527" lon="4.82064">
        <ele>175.441672</ele>
        <time>2021-09-13T09:18:28.000Z</time>
      </trkpt>
      <trkpt lat="45.89524" lon="4.82069">
        <ele>175.413807</ele>
        <time>2021-09-13T09:18:29.000Z</time>
      </trkpt>
      <trkpt lat="45.8952" lon="4.82071">
        <ele>175.388285</ele>
        <time>2021-09-13T09:18:30.000Z</time>
      </trkpt>
      <trkpt lat="45.89514" lon="4.82078">
        <ele>175.336975</ele>
        <time>2021-09-13T09:18:32.000Z</time>
      </trkpt>
      <trkpt lat="45.89509" lon="4.82089">
        <ele>175.281926</ele>
        <time>2021-09-13T09:18:34.000Z</time>
      </trkpt>
      <trkpt lat="45.89507" lon="4.82111">
        <ele>175.187096</ele>
        <time>2021-09-13T09:18:37.000Z</time>
      </trkpt>
      <trkpt lat="45.89502" lon="4.82122">
        <ele>175.129682</ele>
        <time>2021-09-13T09:18:39.000Z</time>
      </trkpt>
      <trkpt lat="45.89498" lon="4.82127">
        <ele>175.099383</ele>
        <time>2021-09-13T09:18:40.000Z</time>
      </trkpt>
      <trkpt lat="45.89469" lon="4.82158">
        <ele>174.916059</ele>
        <time>2021-09-13T09:18:47.000Z</time>
      </trkpt>
      <trkpt lat="45.89439" lon="4.82198">
        <ele>174.756634</ele>
        <time>2021-09-13T09:18:55.000Z</time>
      </trkpt>
      <trkpt lat="45.89401" lon="4.82246">
        <ele>174.562055</ele>
        <time>2021-09-13T09:19:05.000Z</time>
      </trkpt>
      <trkpt lat="45.89376" lon="4.82278">
        <ele>174.43146</ele>
        <time>2021-09-13T09:19:12.000Z</time>
      </trkpt>
      <trkpt lat="45.89351" lon="4.8231">
        <ele>174.302911</ele>
        <time>2021-09-13T09:19:19.000Z</time>
      </trkpt>
      <trkpt lat="45.89316" lon="4.82349">
        <ele>174.201259</ele>
        <time>2021-09-13T09:19:28.000Z</time>
      </trkpt>
      <trkpt lat="45.89283" lon="4.82382">
        <ele>174.115104</ele>
        <time>2021-09-13T09:19:36.000Z</time>
      </trkpt>
      <trkpt lat="45.89255" lon="4.82408">
        <ele>174.043146</ele>
        <time>2021-09-13T09:19:43.000Z</time>
      </trkpt>
      <trkpt lat="45.89223" lon="4.82435">
        <ele>173.96321</ele>
        <time>2021-09-13T09:19:51.000Z</time>
      </trkpt>
      <trkpt lat="45.89193" lon="4.82456">
        <ele>173.905027</ele>
        <time>2021-09-13T09:19:58.000Z</time>
      </trkpt>
      <trkpt lat="45.89184" lon="4.82461">
        <ele>173.914987</ele>
        <time>2021-09-13T09:20:00.000Z</time>
      </trkpt>
      <trkpt lat="45.89166" lon="4.82471">
        <ele>173.934879</ele>
        <time>2021-09-13T09:20:04.000Z</time>
      </trkpt>
      <trkpt lat="45.89162" lon="4.82474">
        <ele>173.939817</ele>
        <time>2021-09-13T09:20:05.000Z</time>
      </trkpt>
      <trkpt lat="45.89142" lon="4.82489">
        <ele>173.963277</ele>
        <time>2021-09-13T09:20:10.000Z</time>
      </trkpt>
      <trkpt lat="45.89123" lon="4.82507">
        <ele>173.986294</ele>
        <time>2021-09-13T09:20:15.000Z</time>
      </trkpt>
      <trkpt lat="45.89116" lon="4.82513">
        <ele>173.995006</ele>
        <time>2021-09-13T09:20:17.000Z</time>
      </trkpt>
      <trkpt lat="45.89096" lon="4.82511">
        <ele>174.015655</ele>
        <time>2021-09-13T09:20:22.000Z</time>
      </trkpt>
      <trkpt lat="45.89094" lon="4.8251">
        <ele>174.018664</ele>
        <time>2021-09-13T09:20:23.000Z</time>
      </trkpt>
      <trkpt lat="45.8909" lon="4.8252">
        <ele>174.026801</ele>
        <time>2021-09-13T09:20:25.000Z</time>
      </trkpt>
      <trkpt lat="45.89077" lon="4.82536">
        <ele>174.044753</ele>
        <time>2021-09-13T09:20:31.000Z</time>
      </trkpt>
      <trkpt lat="45.89074" lon="4.82548">
        <ele>174.054328</ele>
        <time>2021-09-13T09:20:34.000Z</time>
      </trkpt>
      <trkpt lat="45.8907" lon="4.8256">
        <ele>174.063408</ele>
        <time>2021-09-13T09:20:36.000Z</time>
      </trkpt>
      <trkpt lat="45.89066" lon="4.82571">
        <ele>174.07295</ele>
        <time>2021-09-13T09:20:38.000Z</time>
      </trkpt>
      <trkpt lat="45.89052" lon="4.82575">
        <ele>174.087516</ele>
        <time>2021-09-13T09:20:40.000Z</time>
      </trkpt>
      <trkpt lat="45.89042" lon="4.82596">
        <ele>174.127182</ele>
        <time>2021-09-13T09:20:44.000Z</time>
      </trkpt>
      <trkpt lat="45.89022" lon="4.82637">
        <ele>174.203418</ele>
        <time>2021-09-13T09:20:51.000Z</time>
      </trkpt>
      <trkpt lat="45.89015" lon="4.82657">
        <ele>174.237772</ele>
        <time>2021-09-13T09:20:54.000Z</time>
      </trkpt>
      <trkpt lat="45.89008" lon="4.82669">
        <ele>174.261114</ele>
        <time>2021-09-13T09:20:56.000Z</time>
      </trkpt>
      <trkpt lat="45.88988" lon="4.82707">
        <ele>174.33448</ele>
        <time>2021-09-13T09:21:02.000Z</time>
      </trkpt>
      <trkpt lat="45.88977" lon="4.82725">
        <ele>174.369978</ele>
        <time>2021-09-13T09:21:05.000Z</time>
      </trkpt>
      <trkpt lat="45.88971" lon="4.82736">
        <ele>174.391171</ele>
        <time>2021-09-13T09:21:07.000Z</time>
      </trkpt>
      <trkpt lat="45.88948" lon="4.8277">
        <ele>174.463783</ele>
        <time>2021-09-13T09:21:14.000Z</time>
      </trkpt>
      <trkpt lat="45.88909" lon="4.82812">
        <ele>174.405839</ele>
        <time>2021-09-13T09:21:23.000Z</time>
      </trkpt>
      <trkpt lat="45.88875" lon="4.82851">
        <ele>174.323598</ele>
        <time>2021-09-13T09:21:31.000Z</time>
      </trkpt>
      <trkpt lat="45.88843" lon="4.8289">
        <ele>174.24582</ele>
        <time>2021-09-13T09:21:39.000Z</time>
      </trkpt>
      <trkpt lat="45.8881" lon="4.82931">
        <ele>174.163791</ele>
        <time>2021-09-13T09:21:48.000Z</time>
      </trkpt>
      <trkpt lat="45.88785" lon="4.82963">
        <ele>174.063171</ele>
        <time>2021-09-13T09:21:55.000Z</time>
      </trkpt>
      <trkpt lat="45.8877" lon="4.82982">
        <ele>173.996593</ele>
        <time>2021-09-13T09:21:59.000Z</time>
      </trkpt>
      <trkpt lat="45.88762" lon="4.82991">
        <ele>173.962029</ele>
        <time>2021-09-13T09:22:01.000Z</time>
      </trkpt>
      <trkpt lat="45.88739" lon="4.83021">
        <ele>173.855714</ele>
        <time>2021-09-13T09:22:07.000Z</time>
      </trkpt>
      <trkpt lat="45.88731" lon="4.83032">
        <ele>173.818563</ele>
        <time>2021-09-13T09:22:09.000Z</time>
      </trkpt>
      <trkpt lat="45.88719" lon="4.83048">
        <ele>173.762007</ele>
        <time>2021-09-13T09:22:12.000Z</time>
      </trkpt>
      <trkpt lat="45.88714" lon="4.83053">
        <ele>173.743055</ele>
        <time>2021-09-13T09:22:13.000Z</time>
      </trkpt>
      <trkpt lat="45.88698" lon="4.83072">
        <ele>173.672651</ele>
        <time>2021-09-13T09:22:17.000Z</time>
      </trkpt>
      <trkpt lat="45.88679" lon="4.83095">
        <ele>173.586184</ele>
        <time>2021-09-13T09:22:22.000Z</time>
      </trkpt>
      <trkpt lat="45.8865" lon="4.83131">
        <ele>173.446215</ele>
        <time>2021-09-13T09:22:29.000Z</time>
      </trkpt>
      <trkpt lat="45.8862" lon="4.83167">
        <ele>173.292612</ele>
        <time>2021-09-13T09:22:37.000Z</time>
      </trkpt>
      <trkpt lat="45.88594" lon="4.83197">
        <ele>173.164181</ele>
        <time>2021-09-13T09:22:44.000Z</time>
      </trkpt>
      <trkpt lat="45.88572" lon="4.83226">
        <ele>173.047474</ele>
        <time>2021-09-13T09:22:50.000Z</time>
      </trkpt>
      <trkpt lat="45.8856" lon="4.83241">
        <ele>172.984701</ele>
        <time>2021-09-13T09:22:53.000Z</time>
      </trkpt>
      <trkpt lat="45.88551" lon="4.83251">
        <ele>172.9432</ele>
        <time>2021-09-13T09:22:55.000Z</time>
      </trkpt>
      <trkpt lat="45.88543" lon="4.83261">
        <ele>172.901351</ele>
        <time>2021-09-13T09:22:57.000Z</time>
      </trkpt>
      <trkpt lat="45.88535" lon="4.83269">
        <ele>172.861735</ele>
        <time>2021-09-13T09:22:59.000Z</time>
      </trkpt>
      <trkpt lat="45.88503" lon="4.8329">
        <ele>172.686992</ele>
        <time>2021-09-13T09:23:06.000Z</time>
      </trkpt>
      <trkpt lat="45.88471" lon="4.83316">
        <ele>172.494281</ele>
        <time>2021-09-13T09:23:14.000Z</time>
      </trkpt>
      <trkpt lat="45.88453" lon="4.8332">
        <ele>172.396573</ele>
        <time>2021-09-13T09:23:18.000Z</time>
      </trkpt>
      <trkpt lat="45.88441" lon="4.83327">
        <ele>172.328898</ele>
        <time>2021-09-13T09:23:21.000Z</time>
      </trkpt>
      <trkpt lat="45.88408" lon="4.83345">
        <ele>172.143756</ele>
        <time>2021-09-13T09:23:29.000Z</time>
      </trkpt>
      <trkpt lat="45.88389" lon="4.83354">
        <ele>172.034763</ele>
        <time>2021-09-13T09:23:34.000Z</time>
      </trkpt>
      <trkpt lat="45.88379" lon="4.83357">
        <ele>171.982143</ele>
        <time>2021-09-13T09:23:36.000Z</time>
      </trkpt>
      <trkpt lat="45.88361" lon="4.83364">
        <ele>171.885228</ele>
        <time>2021-09-13T09:23:40.000Z</time>
      </trkpt>
      <trkpt lat="45.88357" lon="4.83366">
        <ele>171.862063</ele>
        <time>2021-09-13T09:23:41.000Z</time>
      </trkpt>
      <trkpt lat="45.88336" lon="4.83374">
        <ele>171.741276</ele>
        <time>2021-09-13T09:23:46.000Z</time>
      </trkpt>
      <trkpt lat="45.88332" lon="4.83376">
        <ele>171.719725</ele>
        <time>2021-09-13T09:23:47.000Z</time>
      </trkpt>
      <trkpt lat="45.88313" lon="4.83383">
        <ele>171.610391</ele>
        <time>2021-09-13T09:23:52.000Z</time>
      </trkpt>
      <trkpt lat="45.88289" lon="4.83393">
        <ele>171.473402</ele>
        <time>2021-09-13T09:23:58.000Z</time>
      </trkpt>
      <trkpt lat="45.88265" lon="4.83401">
        <ele>171.340444</ele>
        <time>2021-09-13T09:24:04.000Z</time>
      </trkpt>
      <trkpt lat="45.88247" lon="4.83408">
        <ele>171.236205</ele>
        <time>2021-09-13T09:24:09.000Z</time>
      </trkpt>
      <trkpt lat="45.88221" lon="4.83417">
        <ele>171.093582</ele>
        <time>2021-09-13T09:24:15.000Z</time>
      </trkpt>
      <trkpt lat="45.88202" lon="4.83424">
        <ele>170.984291</ele>
        <time>2021-09-13T09:24:21.000Z</time>
      </trkpt>
      <trkpt lat="45.88184" lon="4.83432">
        <ele>170.905602</ele>
        <time>2021-09-13T09:24:26.000Z</time>
      </trkpt>
      <trkpt lat="45.88171" lon="4.83441">
        <ele>170.933253</ele>
        <time>2021-09-13T09:24:30.000Z</time>
      </trkpt>
      <trkpt lat="45.88155" lon="4.8345">
        <ele>170.967114</ele>
        <time>2021-09-13T09:24:35.000Z</time>
      </trkpt>
      <trkpt lat="45.8813" lon="4.8347">
        <ele>171.021914</ele>
        <time>2021-09-13T09:24:42.000Z</time>
      </trkpt>
      <trkpt lat="45.8811" lon="4.83486">
        <ele>171.065408</ele>
        <time>2021-09-13T09:24:48.000Z</time>
      </trkpt>
      <trkpt lat="45.88096" lon="4.83507">
        <ele>171.104611</ele>
        <time>2021-09-13T09:24:53.000Z</time>
      </trkpt>
      <trkpt lat="45.88086" lon="4.83516">
        <ele>171.1276</ele>
        <time>2021-09-13T09:24:56.000Z</time>
      </trkpt>
      <trkpt lat="45.88079" lon="4.83522">
        <ele>171.143138</ele>
        <time>2021-09-13T09:24:58.000Z</time>
      </trkpt>
      <trkpt lat="45.88075" lon="4.83525">
        <ele>171.151527</ele>
        <time>2021-09-13T09:24:59.000Z</time>
      </trkpt>
      <trkpt lat="45.88056" lon="4.83543">
        <ele>171.196149</ele>
        <time>2021-09-13T09:25:05.000Z</time>
      </trkpt>
      <trkpt lat="45.88043" lon="4.83557">
        <ele>171.22729</ele>
        <time>2021-09-13T09:25:10.000Z</time>
      </trkpt>
      <trkpt lat="45.88033" lon="4.83566">
        <ele>171.244601</ele>
        <time>2021-09-13T09:25:14.000Z</time>
      </trkpt>
      <trkpt lat="45.8802" lon="4.83579">
        <ele>171.232481</ele>
        <time>2021-09-13T09:25:20.000Z</time>
      </trkpt>
      <trkpt lat="45.88018" lon="4.83581">
        <ele>171.230208</ele>
        <time>2021-09-13T09:25:23.000Z</time>
      </trkpt>
      <trkpt lat="45.88015" lon="4.83584">
        <ele>171.227905</ele>
        <time>2021-09-13T09:25:27.000Z</time>
      </trkpt>
      <trkpt lat="45.88014" lon="4.83586">
        <ele>171.226325</ele>
        <time>2021-09-13T09:25:28.000Z</time>
      </trkpt>
      <trkpt lat="45.88001" lon="4.83598">
        <ele>171.214111</ele>
        <time>2021-09-13T09:25:33.000Z</time>
      </trkpt>
      <trkpt lat="45.87981" lon="4.83618">
        <ele>171.195363</ele>
        <time>2021-09-13T09:25:39.000Z</time>
      </trkpt>
      <trkpt lat="45.87966" lon="4.83633">
        <ele>171.181508</ele>
        <time>2021-09-13T09:25:43.000Z</time>
      </trkpt>
      <trkpt lat="45.87962" lon="4.83637">
        <ele>171.177846</ele>
        <time>2021-09-13T09:25:44.000Z</time>
      </trkpt>
      <trkpt lat="45.87954" lon="4.83645">
        <ele>171.170271</ele>
        <time>2021-09-13T09:25:46.000Z</time>
      </trkpt>
      <trkpt lat="45.87939" lon="4.83658">
        <ele>171.15609</ele>
        <time>2021-09-13T09:25:50.000Z</time>
      </trkpt>
      <trkpt lat="45.87921" lon="4.83677">
        <ele>171.138889</ele>
        <time>2021-09-13T09:25:55.000Z</time>
      </trkpt>
      <trkpt lat="45.87904" lon="4.83695">
        <ele>171.122163</ele>
        <time>2021-09-13T09:25:59.000Z</time>
      </trkpt>
      <trkpt lat="45.87887" lon="4.83711">
        <ele>171.106692</ele>
        <time>2021-09-13T09:26:03.000Z</time>
      </trkpt>
      <trkpt lat="45.87865" lon="4.83732">
        <ele>170.74897</ele>
        <time>2021-09-13T09:26:08.000Z</time>
      </trkpt>
      <trkpt lat="45.87845" lon="4.83752">
        <ele>170.412162</ele>
        <time>2021-09-13T09:26:13.000Z</time>
      </trkpt>
      <trkpt lat="45.87837" lon="4.8376">
        <ele>170.275203</ele>
        <time>2021-09-13T09:26:15.000Z</time>
      </trkpt>
      <trkpt lat="45.87828" lon="4.83769">
        <ele>170.126999</ele>
        <time>2021-09-13T09:26:17.000Z</time>
      </trkpt>
      <trkpt lat="45.87812" lon="4.83784">
        <ele>169.85584</ele>
        <time>2021-09-13T09:26:21.000Z</time>
      </trkpt>
      <trkpt lat="45.87804" lon="4.83792">
        <ele>169.727835</ele>
        <time>2021-09-13T09:26:23.000Z</time>
      </trkpt>
      <trkpt lat="45.87793" lon="4.83803">
        <ele>169.542597</ele>
        <time>2021-09-13T09:26:26.000Z</time>
      </trkpt>
      <trkpt lat="45.87785" lon="4.8381">
        <ele>169.406175</ele>
        <time>2021-09-13T09:26:28.000Z</time>
      </trkpt>
      <trkpt lat="45.87777" lon="4.83818">
        <ele>169.27197</ele>
        <time>2021-09-13T09:26:30.000Z</time>
      </trkpt>
      <trkpt lat="45.87759" lon="4.83827">
        <ele>169.013521</ele>
        <time>2021-09-13T09:26:34.000Z</time>
      </trkpt>
      <trkpt lat="45.87729" lon="4.83836">
        <ele>168.618625</ele>
        <time>2021-09-13T09:26:41.000Z</time>
      </trkpt>
      <trkpt lat="45.8771" lon="4.83828">
        <ele>168.591499</ele>
        <time>2021-09-13T09:26:46.000Z</time>
      </trkpt>
      <trkpt lat="45.87695" lon="4.83833">
        <ele>168.570273</ele>
        <time>2021-09-13T09:26:50.000Z</time>
      </trkpt>
      <trkpt lat="45.87661" lon="4.83837">
        <ele>168.523457</ele>
        <time>2021-09-13T09:26:57.000Z</time>
      </trkpt>
      <trkpt lat="45.87641" lon="4.83842">
        <ele>168.494445</ele>
        <time>2021-09-13T09:27:01.000Z</time>
      </trkpt>
      <trkpt lat="45.87629" lon="4.83844">
        <ele>168.478987</ele>
        <time>2021-09-13T09:27:03.000Z</time>
      </trkpt>
      <trkpt lat="45.87592" lon="4.8385">
        <ele>168.426702</ele>
        <time>2021-09-13T09:27:10.000Z</time>
      </trkpt>
      <trkpt lat="45.87581" lon="4.83852">
        <ele>168.412618</ele>
        <time>2021-09-13T09:27:12.000Z</time>
      </trkpt>
      <trkpt lat="45.87556" lon="4.83859">
        <ele>168.376631</ele>
        <time>2021-09-13T09:27:17.000Z</time>
      </trkpt>
      <trkpt lat="45.87537" lon="4.83866">
        <ele>168.500913</ele>
        <time>2021-09-13T09:27:22.000Z</time>
      </trkpt>
      <trkpt lat="45.87526" lon="4.83872">
        <ele>168.579169</ele>
        <time>2021-09-13T09:27:27.000Z</time>
      </trkpt>
      <trkpt lat="45.87505" lon="4.83877">
        <ele>168.729303</ele>
        <time>2021-09-13T09:27:33.000Z</time>
      </trkpt>
      <trkpt lat="45.87472" lon="4.83886">
        <ele>168.963523</ele>
        <time>2021-09-13T09:27:40.000Z</time>
      </trkpt>
      <trkpt lat="45.87441" lon="4.83894">
        <ele>169.184098</ele>
        <time>2021-09-13T09:27:46.000Z</time>
      </trkpt>
      <trkpt lat="45.87398" lon="4.83906">
        <ele>169.494032</ele>
        <time>2021-09-13T09:27:54.000Z</time>
      </trkpt>
      <trkpt lat="45.87353" lon="4.83918">
        <ele>169.821543</ele>
        <time>2021-09-13T09:28:02.000Z</time>
      </trkpt>
      <trkpt lat="45.8732" lon="4.83927">
        <ele>170.076214</ele>
        <time>2021-09-13T09:28:08.000Z</time>
      </trkpt>
      <trkpt lat="45.87285" lon="4.83936">
        <ele>170.338545</ele>
        <time>2021-09-13T09:28:14.000Z</time>
      </trkpt>
      <trkpt lat="45.87242" lon="4.83948">
        <ele>170.662275</ele>
        <time>2021-09-13T09:28:22.000Z</time>
      </trkpt>
      <trkpt lat="45.87208" lon="4.83956">
        <ele>170.917854</ele>
        <time>2021-09-13T09:28:29.000Z</time>
      </trkpt>
      <trkpt lat="45.87172" lon="4.83965">
        <ele>171.062932</ele>
        <time>2021-09-13T09:28:36.000Z</time>
      </trkpt>
      <trkpt lat="45.87145" lon="4.83969">
        <ele>171.148677</ele>
        <time>2021-09-13T09:28:41.000Z</time>
      </trkpt>
      <trkpt lat="45.87134" lon="4.83971">
        <ele>171.183961</ele>
        <time>2021-09-13T09:28:43.000Z</time>
      </trkpt>
      <trkpt lat="45.87089" lon="4.83975">
        <ele>171.329007</ele>
        <time>2021-09-13T09:28:51.000Z</time>
      </trkpt>
      <trkpt lat="45.87032" lon="4.83978">
        <ele>171.510787</ele>
        <time>2021-09-13T09:29:01.000Z</time>
      </trkpt>
      <trkpt lat="45.86977" lon="4.8398">
        <ele>171.538221</ele>
        <time>2021-09-13T09:29:11.000Z</time>
      </trkpt>
      <trkpt lat="45.86928" lon="4.83977">
        <ele>171.53318</ele>
        <time>2021-09-13T09:29:20.000Z</time>
      </trkpt>
      <trkpt lat="45.86885" lon="4.83972">
        <ele>171.528787</ele>
        <time>2021-09-13T09:29:28.000Z</time>
      </trkpt>
      <trkpt lat="45.86852" lon="4.83968">
        <ele>171.525359</ele>
        <time>2021-09-13T09:29:34.000Z</time>
      </trkpt>
      <trkpt lat="45.86847" lon="4.83968">
        <ele>171.524815</ele>
        <time>2021-09-13T09:29:35.000Z</time>
      </trkpt>
      <trkpt lat="45.86839" lon="4.83954">
        <ele>171.467758</ele>
        <time>2021-09-13T09:29:37.000Z</time>
      </trkpt>
      <trkpt lat="45.86827" lon="4.83949">
        <ele>171.382138</ele>
        <time>2021-09-13T09:29:39.000Z</time>
      </trkpt>
      <trkpt lat="45.86811" lon="4.83955">
        <ele>171.268603</ele>
        <time>2021-09-13T09:29:42.000Z</time>
      </trkpt>
      <trkpt lat="45.86801" lon="4.83954">
        <ele>171.196271</ele>
        <time>2021-09-13T09:29:44.000Z</time>
      </trkpt>
      <trkpt lat="45.86795" lon="4.83954">
        <ele>171.159786</ele>
        <time>2021-09-13T09:29:45.000Z</time>
      </trkpt>
      <trkpt lat="45.8678" lon="4.83954">
        <ele>171.0517</ele>
        <time>2021-09-13T09:29:48.000Z</time>
      </trkpt>
      <trkpt lat="45.86747" lon="4.83953">
        <ele>170.823827</ele>
        <time>2021-09-13T09:29:54.000Z</time>
      </trkpt>
      <trkpt lat="45.86741" lon="4.83953">
        <ele>170.788031</ele>
        <time>2021-09-13T09:29:55.000Z</time>
      </trkpt>
      <trkpt lat="45.86709" lon="4.83952">
        <ele>170.568417</ele>
        <time>2021-09-13T09:30:01.000Z</time>
      </trkpt>
      <trkpt lat="45.86682" lon="4.83945">
        <ele>170.379212</ele>
        <time>2021-09-13T09:30:06.000Z</time>
      </trkpt>
      <trkpt lat="45.86672" lon="4.83945">
        <ele>170.308299</ele>
        <time>2021-09-13T09:30:08.000Z</time>
      </trkpt>
      <trkpt lat="45.86641" lon="4.83947">
        <ele>170.107849</ele>
        <time>2021-09-13T09:30:14.000Z</time>
      </trkpt>
      <trkpt lat="45.86626" lon="4.8395">
        <ele>170.014787</ele>
        <time>2021-09-13T09:30:17.000Z</time>
      </trkpt>
      <trkpt lat="45.86611" lon="4.83953">
        <ele>169.920474</ele>
        <time>2021-09-13T09:30:20.000Z</time>
      </trkpt>
      <trkpt lat="45.866" lon="4.83954">
        <ele>169.851438</ele>
        <time>2021-09-13T09:30:22.000Z</time>
      </trkpt>
      <trkpt lat="45.86585" lon="4.83957">
        <ele>169.756453</ele>
        <time>2021-09-13T09:30:25.000Z</time>
      </trkpt>
      <trkpt lat="45.8658" lon="4.83957">
        <ele>169.724194</ele>
        <time>2021-09-13T09:30:26.000Z</time>
      </trkpt>
      <trkpt lat="45.86527" lon="4.83971">
        <ele>169.383559</ele>
        <time>2021-09-13T09:30:36.000Z</time>
      </trkpt>
      <trkpt lat="45.8649" lon="4.83983">
        <ele>169.150731</ele>
        <time>2021-09-13T09:30:43.000Z</time>
      </trkpt>
      <trkpt lat="45.86454" lon="4.83997">
        <ele>169.066719</ele>
        <time>2021-09-13T09:30:50.000Z</time>
      </trkpt>
      <trkpt lat="45.86422" lon="4.84008">
        <ele>168.990312</ele>
        <time>2021-09-13T09:30:57.000Z</time>
      </trkpt>
      <trkpt lat="45.86391" lon="4.84017">
        <ele>168.918088</ele>
        <time>2021-09-13T09:31:04.000Z</time>
      </trkpt>
      <trkpt lat="45.8636" lon="4.84026">
        <ele>168.845471</ele>
        <time>2021-09-13T09:31:11.000Z</time>
      </trkpt>
      <trkpt lat="45.86333" lon="4.84033">
        <ele>168.784188</ele>
        <time>2021-09-13T09:31:17.000Z</time>
      </trkpt>
      <trkpt lat="45.863" lon="4.84042">
        <ele>168.800166</ele>
        <time>2021-09-13T09:31:25.000Z</time>
      </trkpt>
      <trkpt lat="45.86293" lon="4.84044">
        <ele>168.828049</ele>
        <time>2021-09-13T09:31:27.000Z</time>
      </trkpt>
      <trkpt lat="45.8628" lon="4.84047">
        <ele>168.875414</ele>
        <time>2021-09-13T09:31:30.000Z</time>
      </trkpt>
      <trkpt lat="45.86251" lon="4.84053">
        <ele>168.98306</ele>
        <time>2021-09-13T09:31:37.000Z</time>
      </trkpt>
      <trkpt lat="45.86243" lon="4.84055">
        <ele>169.012658</ele>
        <time>2021-09-13T09:31:39.000Z</time>
      </trkpt>
      <trkpt lat="45.86227" lon="4.84059">
        <ele>169.0737</ele>
        <time>2021-09-13T09:31:43.000Z</time>
      </trkpt>
      <trkpt lat="45.86196" lon="4.84066">
        <ele>169.18692</ele>
        <time>2021-09-13T09:31:50.000Z</time>
      </trkpt>
      <trkpt lat="45.86164" lon="4.84073">
        <ele>169.305314</ele>
        <time>2021-09-13T09:31:57.000Z</time>
      </trkpt>
      <trkpt lat="45.86132" lon="4.84081">
        <ele>169.403986</ele>
        <time>2021-09-13T09:32:04.000Z</time>
      </trkpt>
      <trkpt lat="45.86094" lon="4.84091">
        <ele>169.423718</ele>
        <time>2021-09-13T09:32:12.000Z</time>
      </trkpt>
      <trkpt lat="45.86084" lon="4.84093">
        <ele>169.428595</ele>
        <time>2021-09-13T09:32:14.000Z</time>
      </trkpt>
      <trkpt lat="45.86064" lon="4.84098">
        <ele>169.438609</ele>
        <time>2021-09-13T09:32:18.000Z</time>
      </trkpt>
      <trkpt lat="45.86025" lon="4.84108">
        <ele>169.458746</ele>
        <time>2021-09-13T09:32:26.000Z</time>
      </trkpt>
      <trkpt lat="45.85986" lon="4.84118">
        <ele>169.478472</ele>
        <time>2021-09-13T09:32:34.000Z</time>
      </trkpt>
      <trkpt lat="45.85946" lon="4.84126">
        <ele>169.423314</ele>
        <time>2021-09-13T09:32:42.000Z</time>
      </trkpt>
      <trkpt lat="45.85918" lon="4.84126">
        <ele>169.299386</ele>
        <time>2021-09-13T09:32:48.000Z</time>
      </trkpt>
      <trkpt lat="45.859" lon="4.84125">
        <ele>169.219942</ele>
        <time>2021-09-13T09:32:52.000Z</time>
      </trkpt>
      <trkpt lat="45.85887" lon="4.84123">
        <ele>169.163277</ele>
        <time>2021-09-13T09:32:55.000Z</time>
      </trkpt>
      <trkpt lat="45.85849" lon="4.84111">
        <ele>168.991278</ele>
        <time>2021-09-13T09:33:03.000Z</time>
      </trkpt>
      <trkpt lat="45.85812" lon="4.84094">
        <ele>168.822372</ele>
        <time>2021-09-13T09:33:11.000Z</time>
      </trkpt>
      <trkpt lat="45.85776" lon="4.84075">
        <ele>168.660364</ele>
        <time>2021-09-13T09:33:19.000Z</time>
      </trkpt>
      <trkpt lat="45.85743" lon="4.84059">
        <ele>168.540981</ele>
        <time>2021-09-13T09:33:26.000Z</time>
      </trkpt>
      <trkpt lat="45.85711" lon="4.84043">
        <ele>168.424452</ele>
        <time>2021-09-13T09:33:33.000Z</time>
      </trkpt>
      <trkpt lat="45.8568" lon="4.84029">
        <ele>168.311077</ele>
        <time>2021-09-13T09:33:40.000Z</time>
      </trkpt>
      <trkpt lat="45.85676" lon="4.84027">
        <ele>168.295689</ele>
        <time>2021-09-13T09:33:41.000Z</time>
      </trkpt>
      <trkpt lat="45.85637" lon="4.84008">
        <ele>168.150472</ele>
        <time>2021-09-13T09:33:50.000Z</time>
      </trkpt>
      <trkpt lat="45.85621" lon="4.84001">
        <ele>168.093011</ele>
        <time>2021-09-13T09:33:54.000Z</time>
      </trkpt>
      <trkpt lat="45.85594" lon="4.83987">
        <ele>168.02904</ele>
        <time>2021-09-13T09:34:01.000Z</time>
      </trkpt>
      <trkpt lat="45.85574" lon="4.83977">
        <ele>167.986532</ele>
        <time>2021-09-13T09:34:06.000Z</time>
      </trkpt>
      <trkpt lat="45.8557" lon="4.83975">
        <ele>167.977594</ele>
        <time>2021-09-13T09:34:07.000Z</time>
      </trkpt>
      <trkpt lat="45.85565" lon="4.83973">
        <ele>167.968612</ele>
        <time>2021-09-13T09:34:08.000Z</time>
      </trkpt>
      <trkpt lat="45.85544" lon="4.83962">
        <ele>167.924251</ele>
        <time>2021-09-13T09:34:13.000Z</time>
      </trkpt>
      <trkpt lat="45.85535" lon="4.83958">
        <ele>167.905081</ele>
        <time>2021-09-13T09:34:15.000Z</time>
      </trkpt>
      <trkpt lat="45.85522" lon="4.83951">
        <ele>167.877576</ele>
        <time>2021-09-13T09:34:18.000Z</time>
      </trkpt>
      <trkpt lat="45.85494" lon="4.83937">
        <ele>167.819001</ele>
        <time>2021-09-13T09:34:24.000Z</time>
      </trkpt>
      <trkpt lat="45.85489" lon="4.83935">
        <ele>167.810063</ele>
        <time>2021-09-13T09:34:25.000Z</time>
      </trkpt>
      <trkpt lat="45.85485" lon="4.83933">
        <ele>167.801311</ele>
        <time>2021-09-13T09:34:26.000Z</time>
      </trkpt>
      <trkpt lat="45.85477" lon="4.83928">
        <ele>167.783577</ele>
        <time>2021-09-13T09:34:28.000Z</time>
      </trkpt>
      <trkpt lat="45.85463" lon="4.83922">
        <ele>167.755053</ele>
        <time>2021-09-13T09:34:31.000Z</time>
      </trkpt>
      <trkpt lat="45.85433" lon="4.83906">
        <ele>167.754237</ele>
        <time>2021-09-13T09:34:38.000Z</time>
      </trkpt>
      <trkpt lat="45.85404" lon="4.83892">
        <ele>167.834783</ele>
        <time>2021-09-13T09:34:44.000Z</time>
      </trkpt>
      <trkpt lat="45.85395" lon="4.83888">
        <ele>167.860591</ele>
        <time>2021-09-13T09:34:46.000Z</time>
      </trkpt>
      <trkpt lat="45.8539" lon="4.83886">
        <ele>167.873214</ele>
        <time>2021-09-13T09:34:47.000Z</time>
      </trkpt>
      <trkpt lat="45.85371" lon="4.83876">
        <ele>167.926265</ele>
        <time>2021-09-13T09:34:51.000Z</time>
      </trkpt>
      <trkpt lat="45.85339" lon="4.83861">
        <ele>168.016059</ele>
        <time>2021-09-13T09:34:58.000Z</time>
      </trkpt>
      <trkpt lat="45.8531" lon="4.83846">
        <ele>168.099417</ele>
        <time>2021-09-13T09:35:05.000Z</time>
      </trkpt>
      <trkpt lat="45.85292" lon="4.83841">
        <ele>168.14739</ele>
        <time>2021-09-13T09:35:09.000Z</time>
      </trkpt>
      <trkpt lat="45.85283" lon="4.83838">
        <ele>168.170429</ele>
        <time>2021-09-13T09:35:11.000Z</time>
      </trkpt>
      <trkpt lat="45.85271" lon="4.83835">
        <ele>168.191407</ele>
        <time>2021-09-13T09:35:14.000Z</time>
      </trkpt>
      <trkpt lat="45.85262" lon="4.83832">
        <ele>168.179187</ele>
        <time>2021-09-13T09:35:16.000Z</time>
      </trkpt>
      <trkpt lat="45.85244" lon="4.83827">
        <ele>168.15305</ele>
        <time>2021-09-13T09:35:20.000Z</time>
      </trkpt>
      <trkpt lat="45.85235" lon="4.83824">
        <ele>168.140538</ele>
        <time>2021-09-13T09:35:22.000Z</time>
      </trkpt>
      <trkpt lat="45.85226" lon="4.83822">
        <ele>168.12746</ele>
        <time>2021-09-13T09:35:24.000Z</time>
      </trkpt>
      <trkpt lat="45.85203" lon="4.83815">
        <ele>168.095632</ele>
        <time>2021-09-13T09:35:29.000Z</time>
      </trkpt>
      <trkpt lat="45.85172" lon="4.83806">
        <ele>168.051721</ele>
        <time>2021-09-13T09:35:36.000Z</time>
      </trkpt>
      <trkpt lat="45.85168" lon="4.83805">
        <ele>168.04562</ele>
        <time>2021-09-13T09:35:37.000Z</time>
      </trkpt>
      <trkpt lat="45.85146" lon="4.83798">
        <ele>168.013929</ele>
        <time>2021-09-13T09:35:42.000Z</time>
      </trkpt>
      <trkpt lat="45.85129" lon="4.83793">
        <ele>167.989625</ele>
        <time>2021-09-13T09:35:46.000Z</time>
      </trkpt>
      <trkpt lat="45.85124" lon="4.83792">
        <ele>167.983232</ele>
        <time>2021-09-13T09:35:47.000Z</time>
      </trkpt>
      <trkpt lat="45.85084" lon="4.8378">
        <ele>167.963038</ele>
        <time>2021-09-13T09:35:56.000Z</time>
      </trkpt>
      <trkpt lat="45.85042" lon="4.83772">
        <ele>168.014472</ele>
        <time>2021-09-13T09:36:05.000Z</time>
      </trkpt>
      <trkpt lat="45.85025" lon="4.83766">
        <ele>168.036654</ele>
        <time>2021-09-13T09:36:09.000Z</time>
      </trkpt>
      <trkpt lat="45.85017" lon="4.83763">
        <ele>168.046643</ele>
        <time>2021-09-13T09:36:11.000Z</time>
      </trkpt>
      <trkpt lat="45.85013" lon="4.83761">
        <ele>168.051845</ele>
        <time>2021-09-13T09:36:12.000Z</time>
      </trkpt>
      <trkpt lat="45.84989" lon="4.83749">
        <ele>168.083328</ele>
        <time>2021-09-13T09:36:18.000Z</time>
      </trkpt>
      <trkpt lat="45.84984" lon="4.83737">
        <ele>168.095019</ele>
        <time>2021-09-13T09:36:20.000Z</time>
      </trkpt>
      <trkpt lat="45.84977" lon="4.83726">
        <ele>168.107167</ele>
        <time>2021-09-13T09:36:22.000Z</time>
      </trkpt>
      <trkpt lat="45.84962" lon="4.83732">
        <ele>168.126086</ele>
        <time>2021-09-13T09:36:25.000Z</time>
      </trkpt>
      <trkpt lat="45.84958" lon="4.83726">
        <ele>168.133316</ele>
        <time>2021-09-13T09:36:26.000Z</time>
      </trkpt>
      <trkpt lat="45.84954" lon="4.83727">
        <ele>168.138535</ele>
        <time>2021-09-13T09:36:27.000Z</time>
      </trkpt>
      <trkpt lat="45.84942" lon="4.8373">
        <ele>168.153916</ele>
        <time>2021-09-13T09:36:30.000Z</time>
      </trkpt>
      <trkpt lat="45.84938" lon="4.83728">
        <ele>168.158948</ele>
        <time>2021-09-13T09:36:31.000Z</time>
      </trkpt>
      <trkpt lat="45.84918" lon="4.83719">
        <ele>168.185175</ele>
        <time>2021-09-13T09:36:36.000Z</time>
      </trkpt>
      <trkpt lat="45.84902" lon="4.83712">
        <ele>168.205498</ele>
        <time>2021-09-13T09:36:40.000Z</time>
      </trkpt>
      <trkpt lat="45.84889" lon="4.83706">
        <ele>168.221909</ele>
        <time>2021-09-13T09:36:43.000Z</time>
      </trkpt>
      <trkpt lat="45.84851" lon="4.83684">
        <ele>168.27261</ele>
        <time>2021-09-13T09:36:52.000Z</time>
      </trkpt>
      <trkpt lat="45.84824" lon="4.83668">
        <ele>168.308773</ele>
        <time>2021-09-13T09:36:58.000Z</time>
      </trkpt>
      <trkpt lat="45.84819" lon="4.83665">
        <ele>168.314696</ele>
        <time>2021-09-13T09:36:59.000Z</time>
      </trkpt>
      <trkpt lat="45.84786" lon="4.83648">
        <ele>168.357559</ele>
        <time>2021-09-13T09:37:06.000Z</time>
      </trkpt>
      <trkpt lat="45.84747" lon="4.83628">
        <ele>168.386037</ele>
        <time>2021-09-13T09:37:15.000Z</time>
      </trkpt>
      <trkpt lat="45.84697" lon="4.83603">
        <ele>168.382346</ele>
        <time>2021-09-13T09:37:26.000Z</time>
      </trkpt>
      <trkpt lat="45.84656" lon="4.83586">
        <ele>168.379364</ele>
        <time>2021-09-13T09:37:35.000Z</time>
      </trkpt>
      <trkpt lat="45.8462" lon="4.83569">
        <ele>168.37675</ele>
        <time>2021-09-13T09:37:43.000Z</time>
      </trkpt>
      <trkpt lat="45.84575" lon="4.8355">
        <ele>168.563756</ele>
        <time>2021-09-13T09:37:53.000Z</time>
      </trkpt>
      <trkpt lat="45.84547" lon="4.83519">
        <ele>168.933097</ele>
        <time>2021-09-13T09:38:01.000Z</time>
      </trkpt>
      <trkpt lat="45.84513" lon="4.83499">
        <ele>169.317597</ele>
        <time>2021-09-13T09:38:10.000Z</time>
      </trkpt>
      <trkpt lat="45.84491" lon="4.83497">
        <ele>169.545674</ele>
        <time>2021-09-13T09:38:16.000Z</time>
      </trkpt>
      <trkpt lat="45.84488" lon="4.83497">
        <ele>169.584619</ele>
        <time>2021-09-13T09:38:21.000Z</time>
      </trkpt>
      <trkpt lat="45.84485" lon="4.83498">
        <ele>169.618351</ele>
        <time>2021-09-13T09:38:28.000Z</time>
      </trkpt>
      <trkpt lat="45.8448" lon="4.83498">
        <ele>169.6687</ele>
        <time>2021-09-13T09:38:30.000Z</time>
      </trkpt>
      <trkpt lat="45.84457" lon="4.8349">
        <ele>169.916873</ele>
        <time>2021-09-13T09:38:37.000Z</time>
      </trkpt>
      <trkpt lat="45.84434" lon="4.8348">
        <ele>170.169494</ele>
        <time>2021-09-13T09:38:43.000Z</time>
      </trkpt>
      <trkpt lat="45.84403" lon="4.83468">
        <ele>170.348899</ele>
        <time>2021-09-13T09:38:52.000Z</time>
      </trkpt>
      <trkpt lat="45.84381" lon="4.83459">
        <ele>170.433313</ele>
        <time>2021-09-13T09:38:58.000Z</time>
      </trkpt>
      <trkpt lat="45.84377" lon="4.83457">
        <ele>170.449523</ele>
        <time>2021-09-13T09:38:59.000Z</time>
      </trkpt>
      <trkpt lat="45.84341" lon="4.83443">
        <ele>170.593158</ele>
        <time>2021-09-13T09:39:08.000Z</time>
      </trkpt>
      <trkpt lat="45.8431" lon="4.8343">
        <ele>170.714007</ele>
        <time>2021-09-13T09:39:15.000Z</time>
      </trkpt>
      <trkpt lat="45.84306" lon="4.83428">
        <ele>170.731461</ele>
        <time>2021-09-13T09:39:16.000Z</time>
      </trkpt>
      <trkpt lat="45.84287" lon="4.8342">
        <ele>170.806749</ele>
        <time>2021-09-13T09:39:20.000Z</time>
      </trkpt>
      <trkpt lat="45.84282" lon="4.83418">
        <ele>170.825006</ele>
        <time>2021-09-13T09:39:21.000Z</time>
      </trkpt>
      <trkpt lat="45.84254" lon="4.83406">
        <ele>170.935125</ele>
        <time>2021-09-13T09:39:27.000Z</time>
      </trkpt>
      <trkpt lat="45.84245" lon="4.83403">
        <ele>170.956213</ele>
        <time>2021-09-13T09:39:29.000Z</time>
      </trkpt>
      <trkpt lat="45.84227" lon="4.83395">
        <ele>170.991752</ele>
        <time>2021-09-13T09:39:33.000Z</time>
      </trkpt>
      <trkpt lat="45.84193" lon="4.83383">
        <ele>171.055781</ele>
        <time>2021-09-13T09:39:40.000Z</time>
      </trkpt>
      <trkpt lat="45.8418" lon="4.83379">
        <ele>171.081226</ele>
        <time>2021-09-13T09:39:43.000Z</time>
      </trkpt>
      <trkpt lat="45.84175" lon="4.83379">
        <ele>171.089203</ele>
        <time>2021-09-13T09:39:44.000Z</time>
      </trkpt>
      <trkpt lat="45.8416" lon="4.83376">
        <ele>171.116838</ele>
        <time>2021-09-13T09:39:47.000Z</time>
      </trkpt>
      <trkpt lat="45.84147" lon="4.83374">
        <ele>171.142431</ele>
        <time>2021-09-13T09:39:50.000Z</time>
      </trkpt>
      <trkpt lat="45.84122" lon="4.83371">
        <ele>171.187151</ele>
        <time>2021-09-13T09:39:55.000Z</time>
      </trkpt>
      <trkpt lat="45.84077" lon="4.83371">
        <ele>171.271571</ele>
        <time>2021-09-13T09:40:04.000Z</time>
      </trkpt>
      <trkpt lat="45.84047" lon="4.83372">
        <ele>171.33427</ele>
        <time>2021-09-13T09:40:10.000Z</time>
      </trkpt>
      <trkpt lat="45.8404" lon="4.83373">
        <ele>171.34984</ele>
        <time>2021-09-13T09:40:12.000Z</time>
      </trkpt>
      <trkpt lat="45.84032" lon="4.83372">
        <ele>171.367133</ele>
        <time>2021-09-13T09:40:14.000Z</time>
      </trkpt>
      <trkpt lat="45.84024" lon="4.83372">
        <ele>171.384212</ele>
        <time>2021-09-13T09:40:16.000Z</time>
      </trkpt>
      <trkpt lat="45.84014" lon="4.83371">
        <ele>171.40428</ele>
        <time>2021-09-13T09:40:18.000Z</time>
      </trkpt>
      <trkpt lat="45.84009" lon="4.8337">
        <ele>171.41517</ele>
        <time>2021-09-13T09:40:19.000Z</time>
      </trkpt>
      <trkpt lat="45.8399" lon="4.83369">
        <ele>171.456371</ele>
        <time>2021-09-13T09:40:23.000Z</time>
      </trkpt>
      <trkpt lat="45.83962" lon="4.83367">
        <ele>171.515708</ele>
        <time>2021-09-13T09:40:28.000Z</time>
      </trkpt>
      <trkpt lat="45.83923" lon="4.83365">
        <ele>171.598928</ele>
        <time>2021-09-13T09:40:34.000Z</time>
      </trkpt>
      <trkpt lat="45.83889" lon="4.83364">
        <ele>171.615664</ele>
        <time>2021-09-13T09:40:40.000Z</time>
      </trkpt>
      <trkpt lat="45.83848" lon="4.83366">
        <ele>171.345761</ele>
        <time>2021-09-13T09:40:48.000Z</time>
      </trkpt>
      <trkpt lat="45.83843" lon="4.83367">
        <ele>171.313116</ele>
        <time>2021-09-13T09:40:49.000Z</time>
      </trkpt>
      <trkpt lat="45.83833" lon="4.83368">
        <ele>171.251002</ele>
        <time>2021-09-13T09:40:51.000Z</time>
      </trkpt>
      <trkpt lat="45.83823" lon="4.83369">
        <ele>171.186328</ele>
        <time>2021-09-13T09:40:53.000Z</time>
      </trkpt>
      <trkpt lat="45.83803" lon="4.83374">
        <ele>171.05066</ele>
        <time>2021-09-13T09:40:57.000Z</time>
      </trkpt>
      <trkpt lat="45.83793" lon="4.83379">
        <ele>170.986591</ele>
        <time>2021-09-13T09:40:59.000Z</time>
      </trkpt>
      <trkpt lat="45.8376" lon="4.83398">
        <ele>170.751984</ele>
        <time>2021-09-13T09:41:06.000Z</time>
      </trkpt>
      <trkpt lat="45.83738" lon="4.83414">
        <ele>170.595243</ele>
        <time>2021-09-13T09:41:11.000Z</time>
      </trkpt>
      <trkpt lat="45.83704" lon="4.83445">
        <ele>170.267092</ele>
        <time>2021-09-13T09:41:19.000Z</time>
      </trkpt>
      <trkpt lat="45.83674" lon="4.83476">
        <ele>169.928047</ele>
        <time>2021-09-13T09:41:26.000Z</time>
      </trkpt>
      <trkpt lat="45.83648" lon="4.83511">
        <ele>169.601377</ele>
        <time>2021-09-13T09:41:33.000Z</time>
      </trkpt>
      <trkpt lat="45.83625" lon="4.83546">
        <ele>169.293528</ele>
        <time>2021-09-13T09:41:40.000Z</time>
      </trkpt>
      <trkpt lat="45.83607" lon="4.8358">
        <ele>169.020709</ele>
        <time>2021-09-13T09:41:46.000Z</time>
      </trkpt>
      <trkpt lat="45.83605" lon="4.83586">
        <ele>168.977715</ele>
        <time>2021-09-13T09:41:47.000Z</time>
      </trkpt>
      <trkpt lat="45.83589" lon="4.8362">
        <ele>168.785832</ele>
        <time>2021-09-13T09:41:53.000Z</time>
      </trkpt>
      <trkpt lat="45.83586" lon="4.83625">
        <ele>168.767029</ele>
        <time>2021-09-13T09:41:54.000Z</time>
      </trkpt>
      <trkpt lat="45.83573" lon="4.83654">
        <ele>168.672987</ele>
        <time>2021-09-13T09:41:59.000Z</time>
      </trkpt>
      <trkpt lat="45.83565" lon="4.8367">
        <ele>168.620584</ele>
        <time>2021-09-13T09:42:02.000Z</time>
      </trkpt>
      <trkpt lat="45.83558" lon="4.83687">
        <ele>168.567068</ele>
        <time>2021-09-13T09:42:05.000Z</time>
      </trkpt>
      <trkpt lat="45.83545" lon="4.83715">
        <ele>168.474367</ele>
        <time>2021-09-13T09:42:10.000Z</time>
      </trkpt>
      <trkpt lat="45.8354" lon="4.83726">
        <ele>168.438095</ele>
        <time>2021-09-13T09:42:12.000Z</time>
      </trkpt>
      <trkpt lat="45.83521" lon="4.83773">
        <ele>168.290054</ele>
        <time>2021-09-13T09:42:20.000Z</time>
      </trkpt>
      <trkpt lat="45.83507" lon="4.83816">
        <ele>168.161975</ele>
        <time>2021-09-13T09:42:27.000Z</time>
      </trkpt>
      <trkpt lat="45.83493" lon="4.83861">
        <ele>168.170324</ele>
        <time>2021-09-13T09:42:34.000Z</time>
      </trkpt>
      <trkpt lat="45.83482" lon="4.83909">
        <ele>168.219672</ele>
        <time>2021-09-13T09:42:41.000Z</time>
      </trkpt>
      <trkpt lat="45.83471" lon="4.83956">
        <ele>168.267411</ele>
        <time>2021-09-13T09:42:48.000Z</time>
      </trkpt>
      <trkpt lat="45.83462" lon="4.83997">
        <ele>168.309504</ele>
        <time>2021-09-13T09:42:54.000Z</time>
      </trkpt>
      <trkpt lat="45.83449" lon="4.84052">
        <ele>168.36578</ele>
        <time>2021-09-13T09:43:02.000Z</time>
      </trkpt>
      <trkpt lat="45.83438" lon="4.841">
        <ele>168.689576</ele>
        <time>2021-09-13T09:43:09.000Z</time>
      </trkpt>
      <trkpt lat="45.83433" lon="4.8413">
        <ele>168.976891</ele>
        <time>2021-09-13T09:43:14.000Z</time>
      </trkpt>
      <trkpt lat="45.8343" lon="4.8415">
        <ele>169.173655</ele>
        <time>2021-09-13T09:43:20.000Z</time>
      </trkpt>
      <trkpt lat="45.83427" lon="4.84167">
        <ele>169.338511</ele>
        <time>2021-09-13T09:43:25.000Z</time>
      </trkpt>
      <trkpt lat="45.83423" lon="4.84191">
        <ele>169.576379</ele>
        <time>2021-09-13T09:43:31.000Z</time>
      </trkpt>
      <trkpt lat="45.8342" lon="4.84212">
        <ele>169.774347</ele>
        <time>2021-09-13T09:43:38.000Z</time>
      </trkpt>
      <trkpt lat="45.83417" lon="4.84236">
        <ele>170.003737</ele>
        <time>2021-09-13T09:43:45.000Z</time>
      </trkpt>
      <trkpt lat="45.83408" lon="4.84266">
        <ele>170.315543</ele>
        <time>2021-09-13T09:43:52.000Z</time>
      </trkpt>
      <trkpt lat="45.834" lon="4.8429">
        <ele>170.570472</ele>
        <time>2021-09-13T09:43:57.000Z</time>
      </trkpt>
      <trkpt lat="45.83385" lon="4.84337">
        <ele>170.918841</ele>
        <time>2021-09-13T09:44:05.000Z</time>
      </trkpt>
      <trkpt lat="45.83372" lon="4.8438">
        <ele>171.104549</ele>
        <time>2021-09-13T09:44:12.000Z</time>
      </trkpt>
      <trkpt lat="45.8336" lon="4.84424">
        <ele>171.291539</ele>
        <time>2021-09-13T09:44:19.000Z</time>
      </trkpt>
      <trkpt lat="45.83344" lon="4.8448">
        <ele>171.528387</ele>
        <time>2021-09-13T09:44:28.000Z</time>
      </trkpt>
      <trkpt lat="45.83334" lon="4.84518">
        <ele>171.687631</ele>
        <time>2021-09-13T09:44:34.000Z</time>
      </trkpt>
      <trkpt lat="45.83322" lon="4.84564">
        <ele>171.857382</ele>
        <time>2021-09-13T09:44:41.000Z</time>
      </trkpt>
      <trkpt lat="45.83313" lon="4.84595">
        <ele>171.906897</ele>
        <time>2021-09-13T09:44:46.000Z</time>
      </trkpt>
      <trkpt lat="45.83311" lon="4.84601">
        <ele>171.917674</ele>
        <time>2021-09-13T09:44:47.000Z</time>
      </trkpt>
      <trkpt lat="45.83299" lon="4.84645">
        <ele>171.989023</ele>
        <time>2021-09-13T09:44:53.000Z</time>
      </trkpt>
      <trkpt lat="45.83281" lon="4.84708">
        <ele>172.091038</ele>
        <time>2021-09-13T09:45:01.000Z</time>
      </trkpt>
      <trkpt lat="45.83269" lon="4.84749">
        <ele>172.15902</ele>
        <time>2021-09-13T09:45:07.000Z</time>
      </trkpt>
      <trkpt lat="45.8326" lon="4.84785">
        <ele>172.216834</ele>
        <time>2021-09-13T09:45:14.000Z</time>
      </trkpt>
      <trkpt lat="45.83253" lon="4.8481">
        <ele>172.252098</ele>
        <time>2021-09-13T09:45:20.000Z</time>
      </trkpt>
      <trkpt lat="45.83243" lon="4.84832">
        <ele>172.284433</ele>
        <time>2021-09-13T09:45:26.000Z</time>
      </trkpt>
      <trkpt lat="45.83238" lon="4.84859">
        <ele>172.319908</ele>
        <time>2021-09-13T09:45:33.000Z</time>
      </trkpt>
      <trkpt lat="45.83228" lon="4.84861">
        <ele>172.337598</ele>
        <time>2021-09-13T09:45:36.000Z</time>
      </trkpt>
      <trkpt lat="45.83208" lon="4.84841">
        <ele>172.380566</ele>
        <time>2021-09-13T09:45:45.000Z</time>
      </trkpt>
      <trkpt lat="45.83195" lon="4.84828">
        <ele>172.408707</ele>
        <time>2021-09-13T09:45:51.000Z</time>
      </trkpt>
      <trkpt lat="45.83182" lon="4.84815">
        <ele>172.436122</ele>
        <time>2021-09-13T09:45:57.000Z</time>
      </trkpt>
      <trkpt lat="45.83166" lon="4.84799">
        <ele>172.470627</ele>
        <time>2021-09-13T09:46:04.000Z</time>
      </trkpt>
      <trkpt lat="45.83148" lon="4.84781">
        <ele>172.510557</ele>
        <time>2021-09-13T09:46:10.000Z</time>
      </trkpt>
      <trkpt lat="45.83123" lon="4.84756">
        <ele>172.513496</ele>
        <time>2021-09-13T09:46:16.000Z</time>
      </trkpt>
      <trkpt lat="45.83118" lon="4.84751">
        <ele>172.486319</ele>
        <time>2021-09-13T09:46:17.000Z</time>
      </trkpt>
      <trkpt lat="45.83105" lon="4.84737">
        <ele>172.415981</ele>
        <time>2021-09-13T09:46:20.000Z</time>
      </trkpt>
      <trkpt lat="45.83105" lon="4.84737">
        <ele>172.415981</ele>
        <time>2021-09-13T09:46:21.000Z</time>
      </trkpt>
      <trkpt lat="45.83082" lon="4.84709">
        <ele>172.287097</ele>
        <time>2021-09-13T09:46:25.000Z</time>
      </trkpt>
      <trkpt lat="45.83077" lon="4.84728">
        <ele>172.22613</ele>
        <time>2021-09-13T09:46:27.000Z</time>
      </trkpt>
      <trkpt lat="45.83079" lon="4.84737">
        <ele>172.194773</ele>
        <time>2021-09-13T09:46:28.000Z</time>
      </trkpt>
      <trkpt lat="45.8308" lon="4.8474">
        <ele>172.187214</ele>
        <time>2021-09-13T09:46:29.000Z</time>
      </trkpt>
      <trkpt lat="45.83088" lon="4.84747">
        <ele>172.143058</ele>
        <time>2021-09-13T09:46:32.000Z</time>
      </trkpt>
      <trkpt lat="45.83072" lon="4.84759">
        <ele>172.062203</ele>
        <time>2021-09-13T09:46:36.000Z</time>
      </trkpt>
      <trkpt lat="45.83068" lon="4.84769">
        <ele>172.02611</ele>
        <time>2021-09-13T09:46:38.000Z</time>
      </trkpt>
      <trkpt lat="45.83057" lon="4.84791">
        <ele>171.943377</ele>
        <time>2021-09-13T09:46:42.000Z</time>
      </trkpt>
      <trkpt lat="45.8303" lon="4.84845">
        <ele>171.751655</ele>
        <time>2021-09-13T09:46:50.000Z</time>
      </trkpt>
      <trkpt lat="45.83004" lon="4.84893">
        <ele>171.647136</ele>
        <time>2021-09-13T09:46:57.000Z</time>
      </trkpt>
      <trkpt lat="45.82979" lon="4.84939">
        <ele>171.547142</ele>
        <time>2021-09-13T09:47:04.000Z</time>
      </trkpt>
      <trkpt lat="45.82945" lon="4.84984">
        <ele>171.433891</ele>
        <time>2021-09-13T09:47:12.000Z</time>
      </trkpt>
      <trkpt lat="45.82911" lon="4.85028">
        <ele>171.321252</ele>
        <time>2021-09-13T09:47:20.000Z</time>
      </trkpt>
      <trkpt lat="45.82881" lon="4.85061">
        <ele>171.263101</ele>
        <time>2021-09-13T09:47:27.000Z</time>
      </trkpt>
      <trkpt lat="45.82852" lon="4.85094">
        <ele>171.205885</ele>
        <time>2021-09-13T09:47:34.000Z</time>
      </trkpt>
      <trkpt lat="45.82812" lon="4.85131">
        <ele>171.133764</ele>
        <time>2021-09-13T09:47:43.000Z</time>
      </trkpt>
      <trkpt lat="45.82778" lon="4.85162">
        <ele>171.070768</ele>
        <time>2021-09-13T09:47:51.000Z</time>
      </trkpt>
      <trkpt lat="45.82738" lon="4.85192">
        <ele>170.92488</ele>
        <time>2021-09-13T09:47:59.000Z</time>
      </trkpt>
      <trkpt lat="45.82707" lon="4.85213">
        <ele>170.781305</ele>
        <time>2021-09-13T09:48:07.000Z</time>
      </trkpt>
      <trkpt lat="45.82672" lon="4.85238">
        <ele>170.613327</ele>
        <time>2021-09-13T09:48:15.000Z</time>
      </trkpt>
      <trkpt lat="45.82638" lon="4.85261">
        <ele>170.452672</ele>
        <time>2021-09-13T09:48:23.000Z</time>
      </trkpt>
      <trkpt lat="45.826" lon="4.85287">
        <ele>170.278603</ele>
        <time>2021-09-13T09:48:32.000Z</time>
      </trkpt>
      <trkpt lat="45.82575" lon="4.85304">
        <ele>170.321437</ele>
        <time>2021-09-13T09:48:38.000Z</time>
      </trkpt>
      <trkpt lat="45.82549" lon="4.85321">
        <ele>170.364408</ele>
        <time>2021-09-13T09:48:44.000Z</time>
      </trkpt>
      <trkpt lat="45.8254" lon="4.85327">
        <ele>170.379035</ele>
        <time>2021-09-13T09:48:46.000Z</time>
      </trkpt>
      <trkpt lat="45.8251" lon="4.85347">
        <ele>170.428501</ele>
        <time>2021-09-13T09:48:53.000Z</time>
      </trkpt>
      <trkpt lat="45.82468" lon="4.85375">
        <ele>170.499135</ele>
        <time>2021-09-13T09:49:03.000Z</time>
      </trkpt>
      <trkpt lat="45.82439" lon="4.85393">
        <ele>170.546058</ele>
        <time>2021-09-13T09:49:10.000Z</time>
      </trkpt>
      <trkpt lat="45.82418" lon="4.85403">
        <ele>170.529301</ele>
        <time>2021-09-13T09:49:16.000Z</time>
      </trkpt>
      <trkpt lat="45.82402" lon="4.8541">
        <ele>170.512984</ele>
        <time>2021-09-13T09:49:21.000Z</time>
      </trkpt>
      <trkpt lat="45.82389" lon="4.85416">
        <ele>170.499406</ele>
        <time>2021-09-13T09:49:25.000Z</time>
      </trkpt>
      <trkpt lat="45.82359" lon="4.8543">
        <ele>170.469213</ele>
        <time>2021-09-13T09:49:32.000Z</time>
      </trkpt>
      <trkpt lat="45.82324" lon="4.85445">
        <ele>170.433319</ele>
        <time>2021-09-13T09:49:40.000Z</time>
      </trkpt>
      <trkpt lat="45.82287" lon="4.85457">
        <ele>170.396971</ele>
        <time>2021-09-13T09:49:48.000Z</time>
      </trkpt>
      <trkpt lat="45.82251" lon="4.85468">
        <ele>170.401947</ele>
        <time>2021-09-13T09:49:56.000Z</time>
      </trkpt>
      <trkpt lat="45.8221" lon="4.85474">
        <ele>170.480504</ele>
        <time>2021-09-13T09:50:05.000Z</time>
      </trkpt>
      <trkpt lat="45.82173" lon="4.85479">
        <ele>170.552763</ele>
        <time>2021-09-13T09:50:13.000Z</time>
      </trkpt>
      <trkpt lat="45.8214" lon="4.85483">
        <ele>170.616352</ele>
        <time>2021-09-13T09:50:20.000Z</time>
      </trkpt>
      <trkpt lat="45.82104" lon="4.85481">
        <ele>170.685657</ele>
        <time>2021-09-13T09:50:28.000Z</time>
      </trkpt>
      <trkpt lat="45.82068" lon="4.85478">
        <ele>170.759002</ele>
        <time>2021-09-13T09:50:36.000Z</time>
      </trkpt>
      <trkpt lat="45.82035" lon="4.85474">
        <ele>170.828854</ele>
        <time>2021-09-13T09:50:43.000Z</time>
      </trkpt>
      <trkpt lat="45.81992" lon="4.85462">
        <ele>170.92239</ele>
        <time>2021-09-13T09:50:52.000Z</time>
      </trkpt>
      <trkpt lat="45.81978" lon="4.85457">
        <ele>170.952682</ele>
        <time>2021-09-13T09:50:55.000Z</time>
      </trkpt>
      <trkpt lat="45.8197" lon="4.85454">
        <ele>170.971356</ele>
        <time>2021-09-13T09:50:57.000Z</time>
      </trkpt>
      <trkpt lat="45.81966" lon="4.85452">
        <ele>170.980176</ele>
        <time>2021-09-13T09:50:58.000Z</time>
      </trkpt>
      <trkpt lat="45.81958" lon="4.85449">
        <ele>170.998222</ele>
        <time>2021-09-13T09:51:00.000Z</time>
      </trkpt>
      <trkpt lat="45.81945" lon="4.85443">
        <ele>171.027672</ele>
        <time>2021-09-13T09:51:03.000Z</time>
      </trkpt>
      <trkpt lat="45.81913" lon="4.85428">
        <ele>171.099425</ele>
        <time>2021-09-13T09:51:10.000Z</time>
      </trkpt>
      <trkpt lat="45.81876" lon="4.85406">
        <ele>171.23333</ele>
        <time>2021-09-13T09:51:18.000Z</time>
      </trkpt>
      <trkpt lat="45.81838" lon="4.85375">
        <ele>171.382328</ele>
        <time>2021-09-13T09:51:27.000Z</time>
      </trkpt>
      <trkpt lat="45.81806" lon="4.85344">
        <ele>171.516467</ele>
        <time>2021-09-13T09:51:35.000Z</time>
      </trkpt>
      <trkpt lat="45.81784" lon="4.85318">
        <ele>171.61463</ele>
        <time>2021-09-13T09:51:41.000Z</time>
      </trkpt>
      <trkpt lat="45.8176" lon="4.85285">
        <ele>171.722674</ele>
        <time>2021-09-13T09:51:48.000Z</time>
      </trkpt>
      <trkpt lat="45.81736" lon="4.85246">
        <ele>171.69684</ele>
        <time>2021-09-13T09:51:56.000Z</time>
      </trkpt>
      <trkpt lat="45.81711" lon="4.85201">
        <ele>171.668308</ele>
        <time>2021-09-13T09:52:05.000Z</time>
      </trkpt>
      <trkpt lat="45.81687" lon="4.85152">
        <ele>171.638808</ele>
        <time>2021-09-13T09:52:14.000Z</time>
      </trkpt>
      <trkpt lat="45.81667" lon="4.85107">
        <ele>171.612192</ele>
        <time>2021-09-13T09:52:22.000Z</time>
      </trkpt>
      <trkpt lat="45.81648" lon="4.85058">
        <ele>171.499653</ele>
        <time>2021-09-13T09:52:30.000Z</time>
      </trkpt>
      <trkpt lat="45.81632" lon="4.85017">
        <ele>171.297557</ele>
        <time>2021-09-13T09:52:38.000Z</time>
      </trkpt>
      <trkpt lat="45.81623" lon="4.84995">
        <ele>171.188477</ele>
        <time>2021-09-13T09:52:43.000Z</time>
      </trkpt>
      <trkpt lat="45.81621" lon="4.8499">
        <ele>171.163938</ele>
        <time>2021-09-13T09:52:44.000Z</time>
      </trkpt>
      <trkpt lat="45.81617" lon="4.84979">
        <ele>171.109213</ele>
        <time>2021-09-13T09:52:46.000Z</time>
      </trkpt>
      <trkpt lat="45.81608" lon="4.84958">
        <ele>171.00615</ele>
        <time>2021-09-13T09:52:50.000Z</time>
      </trkpt>
      <trkpt lat="45.81594" lon="4.84921">
        <ele>170.826277</ele>
        <time>2021-09-13T09:52:58.000Z</time>
      </trkpt>
      <trkpt lat="45.81587" lon="4.84905">
        <ele>170.746341</ele>
        <time>2021-09-13T09:53:02.000Z</time>
      </trkpt>
      <trkpt lat="45.81586" lon="4.84902">
        <ele>170.732659</ele>
        <time>2021-09-13T09:53:03.000Z</time>
      </trkpt>
      <trkpt lat="45.81583" lon="4.84895">
        <ele>170.698673</ele>
        <time>2021-09-13T09:53:06.000Z</time>
      </trkpt>
      <trkpt lat="45.81582" lon="4.84891">
        <ele>170.679042</ele>
        <time>2021-09-13T09:53:07.000Z</time>
      </trkpt>
      <trkpt lat="45.8157" lon="4.84862">
        <ele>170.535737</ele>
        <time>2021-09-13T09:53:14.000Z</time>
      </trkpt>
      <trkpt lat="45.8156" lon="4.84836">
        <ele>170.544437</ele>
        <time>2021-09-13T09:53:20.000Z</time>
      </trkpt>
      <trkpt lat="45.81546" lon="4.84801">
        <ele>170.634355</ele>
        <time>2021-09-13T09:53:28.000Z</time>
      </trkpt>
      <trkpt lat="45.81535" lon="4.84767">
        <ele>170.718872</ele>
        <time>2021-09-13T09:53:35.000Z</time>
      </trkpt>
      <trkpt lat="45.81529" lon="4.84745">
        <ele>170.772542</ele>
        <time>2021-09-13T09:53:40.000Z</time>
      </trkpt>
      <trkpt lat="45.81522" lon="4.84721">
        <ele>170.832515</ele>
        <time>2021-09-13T09:53:45.000Z</time>
      </trkpt>
      <trkpt lat="45.8152" lon="4.84715">
        <ele>170.845034</ele>
        <time>2021-09-13T09:53:46.000Z</time>
      </trkpt>
      <trkpt lat="45.81515" lon="4.84695">
        <ele>170.894952</ele>
        <time>2021-09-13T09:53:50.000Z</time>
      </trkpt>
      <trkpt lat="45.81507" lon="4.84667">
        <ele>170.96252</ele>
        <time>2021-09-13T09:53:56.000Z</time>
      </trkpt>
      <trkpt lat="45.815" lon="4.84654">
        <ele>170.998724</ele>
        <time>2021-09-13T09:54:01.000Z</time>
      </trkpt>
      <trkpt lat="45.81494" lon="4.84628">
        <ele>171.061426</ele>
        <time>2021-09-13T09:54:07.000Z</time>
      </trkpt>
      <trkpt lat="45.8149" lon="4.84619">
        <ele>171.088895</ele>
        <time>2021-09-13T09:54:12.000Z</time>
      </trkpt>
      <trkpt lat="45.81475" lon="4.84607">
        <ele>171.183693</ele>
        <time>2021-09-13T09:54:19.000Z</time>
      </trkpt>
      <trkpt lat="45.81465" lon="4.84591">
        <ele>171.269993</ele>
        <time>2021-09-13T09:54:24.000Z</time>
      </trkpt>
      <trkpt lat="45.81447" lon="4.8457">
        <ele>171.397536</ele>
        <time>2021-09-13T09:54:30.000Z</time>
      </trkpt>
      <trkpt lat="45.81433" lon="4.84553">
        <ele>171.502847</ele>
        <time>2021-09-13T09:54:34.000Z</time>
      </trkpt>
      <trkpt lat="45.81429" lon="4.84548">
        <ele>171.532838</ele>
        <time>2021-09-13T09:54:35.000Z</time>
      </trkpt>
      <trkpt lat="45.81409" lon="4.84524">
        <ele>171.680748</ele>
        <time>2021-09-13T09:54:40.000Z</time>
      </trkpt>
      <trkpt lat="45.81405" lon="4.84519">
        <ele>171.709807</ele>
        <time>2021-09-13T09:54:41.000Z</time>
      </trkpt>
      <trkpt lat="45.81378" lon="4.84487">
        <ele>171.905092</ele>
        <time>2021-09-13T09:54:48.000Z</time>
      </trkpt>
      <trkpt lat="45.81355" lon="4.8446">
        <ele>172.073486</ele>
        <time>2021-09-13T09:54:54.000Z</time>
      </trkpt>
      <trkpt lat="45.81329" lon="4.8443">
        <ele>172.01669</ele>
        <time>2021-09-13T09:55:01.000Z</time>
      </trkpt>
      <trkpt lat="45.81319" lon="4.84418">
        <ele>171.985237</ele>
        <time>2021-09-13T09:55:04.000Z</time>
      </trkpt>
      <trkpt lat="45.81313" lon="4.8441">
        <ele>171.96523</ele>
        <time>2021-09-13T09:55:06.000Z</time>
      </trkpt>
      <trkpt lat="45.813" lon="4.84394">
        <ele>171.92252</ele>
        <time>2021-09-13T09:55:11.000Z</time>
      </trkpt>
      <trkpt lat="45.81285" lon="4.84377">
        <ele>171.876184</ele>
        <time>2021-09-13T09:55:17.000Z</time>
      </trkpt>
      <trkpt lat="45.81283" lon="4.84375">
        <ele>171.870051</ele>
        <time>2021-09-13T09:55:18.000Z</time>
      </trkpt>
      <trkpt lat="45.81279" lon="4.84369">
        <ele>171.854979</ele>
        <time>2021-09-13T09:55:20.000Z</time>
      </trkpt>
      <trkpt lat="45.81272" lon="4.84361">
        <ele>171.833963</ele>
        <time>2021-09-13T09:55:22.000Z</time>
      </trkpt>
      <trkpt lat="45.81265" lon="4.84353">
        <ele>171.811638</ele>
        <time>2021-09-13T09:55:24.000Z</time>
      </trkpt>
      <trkpt lat="45.81238" lon="4.84326">
        <ele>171.730451</ele>
        <time>2021-09-13T09:55:32.000Z</time>
      </trkpt>
      <trkpt lat="45.81208" lon="4.84298">
        <ele>171.642375</ele>
        <time>2021-09-13T09:55:41.000Z</time>
      </trkpt>
      <trkpt lat="45.81186" lon="4.8428">
        <ele>171.582921</ele>
        <time>2021-09-13T09:55:47.000Z</time>
      </trkpt>
      <trkpt lat="45.81161" lon="4.84265">
        <ele>171.521514</ele>
        <time>2021-09-13T09:55:53.000Z</time>
      </trkpt>
      <trkpt lat="45.81121" lon="4.84241">
        <ele>171.421687</ele>
        <time>2021-09-13T09:56:02.000Z</time>
      </trkpt>
      <trkpt lat="45.81087" lon="4.84224">
        <ele>171.340484</ele>
        <time>2021-09-13T09:56:09.000Z</time>
      </trkpt>
      <trkpt lat="45.81042" lon="4.84208">
        <ele>171.235855</ele>
        <time>2021-09-13T09:56:18.000Z</time>
      </trkpt>
      <trkpt lat="45.81007" lon="4.84199">
        <ele>171.306977</ele>
        <time>2021-09-13T09:56:25.000Z</time>
      </trkpt>
      <trkpt lat="45.80973" lon="4.84194">
        <ele>171.374188</ele>
        <time>2021-09-13T09:56:32.000Z</time>
      </trkpt>
      <trkpt lat="45.80953" lon="4.84193">
        <ele>171.413176</ele>
        <time>2021-09-13T09:56:36.000Z</time>
      </trkpt>
      <trkpt lat="45.80944" lon="4.84192">
        <ele>171.431382</ele>
        <time>2021-09-13T09:56:38.000Z</time>
      </trkpt>
      <trkpt lat="45.80911" lon="4.84192">
        <ele>171.496648</ele>
        <time>2021-09-13T09:56:46.000Z</time>
      </trkpt>
      <trkpt lat="45.8088" lon="4.84192">
        <ele>171.557563</ele>
        <time>2021-09-13T09:56:54.000Z</time>
      </trkpt>
      <trkpt lat="45.80868" lon="4.84192">
        <ele>171.582482</ele>
        <time>2021-09-13T09:56:57.000Z</time>
      </trkpt>
      <trkpt lat="45.80859" lon="4.84192">
        <ele>171.587486</ele>
        <time>2021-09-13T09:56:59.000Z</time>
      </trkpt>
      <trkpt lat="45.80855" lon="4.84192">
        <ele>171.584085</ele>
        <time>2021-09-13T09:57:00.000Z</time>
      </trkpt>
      <trkpt lat="45.80842" lon="4.84192">
        <ele>171.573235</ele>
        <time>2021-09-13T09:57:03.000Z</time>
      </trkpt>
      <trkpt lat="45.80824" lon="4.84191">
        <ele>171.559146</ele>
        <time>2021-09-13T09:57:07.000Z</time>
      </trkpt>
      <trkpt lat="45.80794" lon="4.84187">
        <ele>171.534321</ele>
        <time>2021-09-13T09:57:14.000Z</time>
      </trkpt>
      <trkpt lat="45.80789" lon="4.84186">
        <ele>171.530482</ele>
        <time>2021-09-13T09:57:15.000Z</time>
      </trkpt>
      <trkpt lat="45.80761" lon="4.84181">
        <ele>171.507301</ele>
        <time>2021-09-13T09:57:21.000Z</time>
      </trkpt>
      <trkpt lat="45.80721" lon="4.84172">
        <ele>171.474696</ele>
        <time>2021-09-13T09:57:29.000Z</time>
      </trkpt>
      <trkpt lat="45.80687" lon="4.8416">
        <ele>171.446452</ele>
        <time>2021-09-13T09:57:36.000Z</time>
      </trkpt>
      <trkpt lat="45.80648" lon="4.84147">
        <ele>171.68024</ele>
        <time>2021-09-13T09:57:44.000Z</time>
      </trkpt>
      <trkpt lat="45.80598" lon="4.84123">
        <ele>172.007934</ele>
        <time>2021-09-13T09:57:55.000Z</time>
      </trkpt>
      <trkpt lat="45.80566" lon="4.84105">
        <ele>172.220272</ele>
        <time>2021-09-13T09:58:03.000Z</time>
      </trkpt>
      <trkpt lat="45.80539" lon="4.8409">
        <ele>172.39846</ele>
        <time>2021-09-13T09:58:10.000Z</time>
      </trkpt>
      <trkpt lat="45.8051" lon="4.84074">
        <ele>172.734597</ele>
        <time>2021-09-13T09:58:18.000Z</time>
      </trkpt>
      <trkpt lat="45.8049" lon="4.84063">
        <ele>173.347987</ele>
        <time>2021-09-13T09:58:25.000Z</time>
      </trkpt>
      <trkpt lat="45.80475" lon="4.84055">
        <ele>173.785533</ele>
        <time>2021-09-13T09:58:31.000Z</time>
      </trkpt>
      <trkpt lat="45.80474" lon="4.84054">
        <ele>173.831508</ele>
        <time>2021-09-13T09:58:32.000Z</time>
      </trkpt>
      <trkpt lat="45.80472" lon="4.84053">
        <ele>173.886961</ele>
        <time>2021-09-13T09:58:36.000Z</time>
      </trkpt>
      <trkpt lat="45.80471" lon="4.84052">
        <ele>173.914688</ele>
        <time>2021-09-13T09:58:42.000Z</time>
      </trkpt>
      <trkpt lat="45.80464" lon="4.8405">
        <ele>174.1252</ele>
        <time>2021-09-13T09:58:44.000Z</time>
      </trkpt>
      <trkpt lat="45.80461" lon="4.84048">
        <ele>174.216915</ele>
        <time>2021-09-13T09:58:46.000Z</time>
      </trkpt>
      <trkpt lat="45.80459" lon="4.84046">
        <ele>174.293163</ele>
        <time>2021-09-13T09:58:48.000Z</time>
      </trkpt>
      <trkpt lat="45.80443" lon="4.84029">
        <ele>174.868708</ele>
        <time>2021-09-13T09:58:54.000Z</time>
      </trkpt>
      <trkpt lat="45.80426" lon="4.84017">
        <ele>175.412133</ele>
        <time>2021-09-13T09:59:02.000Z</time>
      </trkpt>
      <trkpt lat="45.80407" lon="4.84009">
        <ele>175.96412</ele>
        <time>2021-09-13T09:59:09.000Z</time>
      </trkpt>
      <trkpt lat="45.80392" lon="4.83994">
        <ele>176.503426</ele>
        <time>2021-09-13T09:59:16.000Z</time>
      </trkpt>
      <trkpt lat="45.80377" lon="4.83981">
        <ele>177.011818</ele>
        <time>2021-09-13T09:59:23.000Z</time>
      </trkpt>
      <trkpt lat="45.80365" lon="4.8397">
        <ele>177.412534</ele>
        <time>2021-09-13T09:59:28.000Z</time>
      </trkpt>
      <trkpt lat="45.80352" lon="4.83958">
        <ele>177.828761</ele>
        <time>2021-09-13T09:59:34.000Z</time>
      </trkpt>
      <trkpt lat="45.80337" lon="4.83946">
        <ele>178.210314</ele>
        <time>2021-09-13T09:59:40.000Z</time>
      </trkpt>
      <trkpt lat="45.80319" lon="4.83926">
        <ele>178.729317</ele>
        <time>2021-09-13T09:59:47.000Z</time>
      </trkpt>
      <trkpt lat="45.80304" lon="4.83908">
        <ele>179.160218</ele>
        <time>2021-09-13T09:59:53.000Z</time>
      </trkpt>
      <trkpt lat="45.80299" lon="4.83903">
        <ele>179.307188</ele>
        <time>2021-09-13T09:59:55.000Z</time>
      </trkpt>
      <trkpt lat="45.80288" lon="4.8389">
        <ele>179.637035</ele>
        <time>2021-09-13T09:59:59.000Z</time>
      </trkpt>
      <trkpt lat="45.80278" lon="4.83879">
        <ele>179.905269</ele>
        <time>2021-09-13T10:00:02.000Z</time>
      </trkpt>
      <trkpt lat="45.80268" lon="4.83867">
        <ele>180.207452</ele>
        <time>2021-09-13T10:00:05.000Z</time>
      </trkpt>
      <trkpt lat="45.80265" lon="4.83864">
        <ele>180.291042</ele>
        <time>2021-09-13T10:00:06.000Z</time>
      </trkpt>
      <trkpt lat="45.80252" lon="4.8385">
        <ele>180.648197</ele>
        <time>2021-09-13T10:00:10.000Z</time>
      </trkpt>
      <trkpt lat="45.80249" lon="4.83846">
        <ele>180.753709</ele>
        <time>2021-09-13T10:00:11.000Z</time>
      </trkpt>
      <trkpt lat="45.80238" lon="4.83837">
        <ele>181.038897</ele>
        <time>2021-09-13T10:00:14.000Z</time>
      </trkpt>
      <trkpt lat="45.80234" lon="4.83834">
        <ele>181.13264</ele>
        <time>2021-09-13T10:00:15.000Z</time>
      </trkpt>
      <trkpt lat="45.80217" lon="4.83831">
        <ele>181.519618</ele>
        <time>2021-09-13T10:00:18.000Z</time>
      </trkpt>
      <trkpt lat="45.80207" lon="4.83832">
        <ele>181.750489</ele>
        <time>2021-09-13T10:00:20.000Z</time>
      </trkpt>
      <trkpt lat="45.80173" lon="4.83837">
        <ele>181.178955</ele>
        <time>2021-09-13T10:00:26.000Z</time>
      </trkpt>
      <trkpt lat="45.80167" lon="4.83836">
        <ele>181.062368</ele>
        <time>2021-09-13T10:00:27.000Z</time>
      </trkpt>
      <trkpt lat="45.80154" lon="4.83832">
        <ele>180.823741</ele>
        <time>2021-09-13T10:00:29.000Z</time>
      </trkpt>
      <trkpt lat="45.80147" lon="4.83829">
        <ele>180.689124</ele>
        <time>2021-09-13T10:00:30.000Z</time>
      </trkpt>
      <trkpt lat="45.80114" lon="4.83802">
        <ele>179.995434</ele>
        <time>2021-09-13T10:00:35.000Z</time>
      </trkpt>
      <trkpt lat="45.80083" lon="4.83768">
        <ele>179.268081</ele>
        <time>2021-09-13T10:00:40.000Z</time>
      </trkpt>
      <trkpt lat="45.80043" lon="4.83716">
        <ele>178.260383</ele>
        <time>2021-09-13T10:00:47.000Z</time>
      </trkpt>
      <trkpt lat="45.80021" lon="4.83678">
        <ele>177.556678</ele>
        <time>2021-09-13T10:00:52.000Z</time>
      </trkpt>
      <trkpt lat="45.79996" lon="4.83626">
        <ele>176.654166</ele>
        <time>2021-09-13T10:00:59.000Z</time>
      </trkpt>
      <trkpt lat="45.79989" lon="4.83612">
        <ele>176.406263</ele>
        <time>2021-09-13T10:01:01.000Z</time>
      </trkpt>
      <trkpt lat="45.79979" lon="4.83591">
        <ele>176.043814</ele>
        <time>2021-09-13T10:01:04.000Z</time>
      </trkpt>
      <trkpt lat="45.79962" lon="4.83538">
        <ele>175.217876</ele>
        <time>2021-09-13T10:01:11.000Z</time>
      </trkpt>
      <trkpt lat="45.79948" lon="4.83493">
        <ele>174.673525</ele>
        <time>2021-09-13T10:01:17.000Z</time>
      </trkpt>
      <trkpt lat="45.79944" lon="4.83478">
        <ele>174.575345</ele>
        <time>2021-09-13T10:01:19.000Z</time>
      </trkpt>
      <trkpt lat="45.79939" lon="4.83463">
        <ele>174.476604</ele>
        <time>2021-09-13T10:01:21.000Z</time>
      </trkpt>
      <trkpt lat="45.79935" lon="4.83448">
        <ele>174.3773</ele>
        <time>2021-09-13T10:01:23.000Z</time>
      </trkpt>
      <trkpt lat="45.79933" lon="4.83441">
        <ele>174.327648</ele>
        <time>2021-09-13T10:01:24.000Z</time>
      </trkpt>
      <trkpt lat="45.79913" lon="4.83373">
        <ele>173.881905</ele>
        <time>2021-09-13T10:01:33.000Z</time>
      </trkpt>
      <trkpt lat="45.79897" lon="4.8332">
        <ele>173.531068</ele>
        <time>2021-09-13T10:01:41.000Z</time>
      </trkpt>
      <trkpt lat="45.79886" lon="4.83284">
        <ele>173.285338</ele>
        <time>2021-09-13T10:01:47.000Z</time>
      </trkpt>
      <trkpt lat="45.79872" lon="4.83238">
        <ele>173.596139</ele>
        <time>2021-09-13T10:01:54.000Z</time>
      </trkpt>
      <trkpt lat="45.79855" lon="4.83186">
        <ele>174.152344</ele>
        <time>2021-09-13T10:02:02.000Z</time>
      </trkpt>
      <trkpt lat="45.79848" lon="4.83169">
        <ele>174.342129</ele>
        <time>2021-09-13T10:02:05.000Z</time>
      </trkpt>
      <trkpt lat="45.79841" lon="4.83152">
        <ele>174.527087</ele>
        <time>2021-09-13T10:02:08.000Z</time>
      </trkpt>
      <trkpt lat="45.79836" lon="4.83141">
        <ele>174.652</ele>
        <time>2021-09-13T10:02:10.000Z</time>
      </trkpt>
      <trkpt lat="45.79831" lon="4.8313">
        <ele>174.781635</ele>
        <time>2021-09-13T10:02:12.000Z</time>
      </trkpt>
      <trkpt lat="45.79817" lon="4.83096">
        <ele>175.16368</ele>
        <time>2021-09-13T10:02:18.000Z</time>
      </trkpt>
      <trkpt lat="45.79811" lon="4.83079">
        <ele>175.349007</ele>
        <time>2021-09-13T10:02:22.000Z</time>
      </trkpt>
      <trkpt lat="45.79804" lon="4.83062">
        <ele>175.540713</ele>
        <time>2021-09-13T10:02:28.000Z</time>
      </trkpt>
      <trkpt lat="45.79799" lon="4.83039">
        <ele>175.762111</ele>
        <time>2021-09-13T10:02:34.000Z</time>
      </trkpt>
      <trkpt lat="45.79797" lon="4.83021">
        <ele>175.915307</ele>
        <time>2021-09-13T10:02:39.000Z</time>
      </trkpt>
      <trkpt lat="45.79794" lon="4.83012">
        <ele>176.002675</ele>
        <time>2021-09-13T10:02:42.000Z</time>
      </trkpt>
      <trkpt lat="45.79792" lon="4.83007">
        <ele>176.050262</ele>
        <time>2021-09-13T10:02:44.000Z</time>
      </trkpt>
      <trkpt lat="45.79791" lon="4.83004">
        <ele>176.079385</ele>
        <time>2021-09-13T10:02:47.000Z</time>
      </trkpt>
      <trkpt lat="45.7979" lon="4.83003">
        <ele>176.094994</ele>
        <time>2021-09-13T10:02:51.000Z</time>
      </trkpt>
      <trkpt lat="45.79783" lon="4.82987">
        <ele>176.253577</ele>
        <time>2021-09-13T10:02:56.000Z</time>
      </trkpt>
      <trkpt lat="45.7977" lon="4.82972">
        <ele>176.463052</ele>
        <time>2021-09-13T10:03:01.000Z</time>
      </trkpt>
      <trkpt lat="45.79763" lon="4.82965">
        <ele>176.566289</ele>
        <time>2021-09-13T10:03:02.000Z</time>
      </trkpt>
      <trkpt lat="45.7976" lon="4.82961">
        <ele>176.616407</ele>
        <time>2021-09-13T10:03:04.000Z</time>
      </trkpt>
      <trkpt lat="45.79754" lon="4.82952">
        <ele>176.725942</ele>
        <time>2021-09-13T10:03:06.000Z</time>
      </trkpt>
      <trkpt lat="45.79734" lon="4.82911">
        <ele>177.151676</ele>
        <time>2021-09-13T10:03:14.000Z</time>
      </trkpt>
      <trkpt lat="45.79722" lon="4.82888">
        <ele>177.404105</ele>
        <time>2021-09-13T10:03:18.000Z</time>
      </trkpt>
      <trkpt lat="45.79716" lon="4.82877">
        <ele>177.522601</ele>
        <time>2021-09-13T10:03:20.000Z</time>
      </trkpt>
      <trkpt lat="45.79714" lon="4.82872">
        <ele>177.576885</ele>
        <time>2021-09-13T10:03:21.000Z</time>
      </trkpt>
      <trkpt lat="45.79709" lon="4.82862">
        <ele>177.677042</ele>
        <time>2021-09-13T10:03:23.000Z</time>
      </trkpt>
      <trkpt lat="45.79703" lon="4.82851">
        <ele>177.796225</ele>
        <time>2021-09-13T10:03:25.000Z</time>
      </trkpt>
      <trkpt lat="45.79693" lon="4.82833">
        <ele>177.931252</ele>
        <time>2021-09-13T10:03:28.000Z</time>
      </trkpt>
      <trkpt lat="45.79687" lon="4.82821">
        <ele>177.952278</ele>
        <time>2021-09-13T10:03:30.000Z</time>
      </trkpt>
      <trkpt lat="45.79678" lon="4.82805">
        <ele>177.981454</ele>
        <time>2021-09-13T10:03:33.000Z</time>
      </trkpt>
      <trkpt lat="45.79666" lon="4.82782">
        <ele>178.024214</ele>
        <time>2021-09-13T10:03:37.000Z</time>
      </trkpt>
      <trkpt lat="45.79639" lon="4.8273">
        <ele>178.115943</ele>
        <time>2021-09-13T10:03:45.000Z</time>
      </trkpt>
      <trkpt lat="45.79621" lon="4.82695">
        <ele>178.179093</ele>
        <time>2021-09-13T10:03:51.000Z</time>
      </trkpt>
      <trkpt lat="45.79619" lon="4.8269">
        <ele>178.188181</ele>
        <time>2021-09-13T10:03:52.000Z</time>
      </trkpt>
      <trkpt lat="45.796" lon="4.82653">
        <ele>178.25298</ele>
        <time>2021-09-13T10:03:58.000Z</time>
      </trkpt>
      <trkpt lat="45.79585" lon="4.82623">
        <ele>178.255367</ele>
        <time>2021-09-13T10:04:04.000Z</time>
      </trkpt>
      <trkpt lat="45.79572" lon="4.82598">
        <ele>178.171494</ele>
        <time>2021-09-13T10:04:09.000Z</time>
      </trkpt>
      <trkpt lat="45.79562" lon="4.82579">
        <ele>178.104721</ele>
        <time>2021-09-13T10:04:13.000Z</time>
      </trkpt>
      <trkpt lat="45.7956" lon="4.82574">
        <ele>178.086946</ele>
        <time>2021-09-13T10:04:14.000Z</time>
      </trkpt>
      <trkpt lat="45.7955" lon="4.82554">
        <ele>178.019673</ele>
        <time>2021-09-13T10:04:18.000Z</time>
      </trkpt>
      <trkpt lat="45.79538" lon="4.82534">
        <ele>177.946644</ele>
        <time>2021-09-13T10:04:23.000Z</time>
      </trkpt>
      <trkpt lat="45.79524" lon="4.82508">
        <ele>177.856019</ele>
        <time>2021-09-13T10:04:28.000Z</time>
      </trkpt>
      <trkpt lat="45.79521" lon="4.82502">
        <ele>177.835739</ele>
        <time>2021-09-13T10:04:29.000Z</time>
      </trkpt>
      <trkpt lat="45.79518" lon="4.82496">
        <ele>177.815455</ele>
        <time>2021-09-13T10:04:30.000Z</time>
      </trkpt>
      <trkpt lat="45.79512" lon="4.82484">
        <ele>177.773926</ele>
        <time>2021-09-13T10:04:32.000Z</time>
      </trkpt>
      <trkpt lat="45.79509" lon="4.82479">
        <ele>177.755894</ele>
        <time>2021-09-13T10:04:33.000Z</time>
      </trkpt>
      <trkpt lat="45.79495" lon="4.82453">
        <ele>177.663686</ele>
        <time>2021-09-13T10:04:38.000Z</time>
      </trkpt>
      <trkpt lat="45.79492" lon="4.82448">
        <ele>177.645654</ele>
        <time>2021-09-13T10:04:39.000Z</time>
      </trkpt>
      <trkpt lat="45.79478" lon="4.82422">
        <ele>177.570502</ele>
        <time>2021-09-13T10:04:44.000Z</time>
      </trkpt>
      <trkpt lat="45.79475" lon="4.82417">
        <ele>177.567599</ele>
        <time>2021-09-13T10:04:45.000Z</time>
      </trkpt>
      <trkpt lat="45.79472" lon="4.82411">
        <ele>177.564559</ele>
        <time>2021-09-13T10:04:46.000Z</time>
      </trkpt>
      <trkpt lat="45.79464" lon="4.82397">
        <ele>177.557196</ele>
        <time>2021-09-13T10:04:49.000Z</time>
      </trkpt>
      <trkpt lat="45.7945" lon="4.82372">
        <ele>177.543977</ele>
        <time>2021-09-13T10:04:54.000Z</time>
      </trkpt>
      <trkpt lat="45.79444" lon="4.82362">
        <ele>177.538806</ele>
        <time>2021-09-13T10:04:56.000Z</time>
      </trkpt>
      <trkpt lat="45.79436" lon="4.82347">
        <ele>177.531099</ele>
        <time>2021-09-13T10:04:59.000Z</time>
      </trkpt>
      <trkpt lat="45.79424" lon="4.82325">
        <ele>177.51947</ele>
        <time>2021-09-13T10:05:03.000Z</time>
      </trkpt>
      <trkpt lat="45.79407" lon="4.82296">
        <ele>177.503753</ele>
        <time>2021-09-13T10:05:08.000Z</time>
      </trkpt>
      <trkpt lat="45.79404" lon="4.8229">
        <ele>177.500808</ele>
        <time>2021-09-13T10:05:09.000Z</time>
      </trkpt>
      <trkpt lat="45.7939" lon="4.82265">
        <ele>177.487525</ele>
        <time>2021-09-13T10:05:14.000Z</time>
      </trkpt>
      <trkpt lat="45.79382" lon="4.82251">
        <ele>177.480089</ele>
        <time>2021-09-13T10:05:17.000Z</time>
      </trkpt>
      <trkpt lat="45.7938" lon="4.82247">
        <ele>177.47816</ele>
        <time>2021-09-13T10:05:18.000Z</time>
      </trkpt>
      <trkpt lat="45.79377" lon="4.82243">
        <ele>177.475927</ele>
        <time>2021-09-13T10:05:19.000Z</time>
      </trkpt>
      <trkpt lat="45.79372" lon="4.82233">
        <ele>177.470453</ele>
        <time>2021-09-13T10:05:21.000Z</time>
      </trkpt>
      <trkpt lat="45.79368" lon="4.82227">
        <ele>177.467407</ele>
        <time>2021-09-13T10:05:22.000Z</time>
      </trkpt>
      <trkpt lat="45.79351" lon="4.82199">
        <ele>177.702691</ele>
        <time>2021-09-13T10:05:27.000Z</time>
      </trkpt>
      <trkpt lat="45.79344" lon="4.82187">
        <ele>177.803305</ele>
        <time>2021-09-13T10:05:29.000Z</time>
      </trkpt>
      <trkpt lat="45.79324" lon="4.8216">
        <ele>178.060181</ele>
        <time>2021-09-13T10:05:34.000Z</time>
      </trkpt>
      <trkpt lat="45.7932" lon="4.82155">
        <ele>178.109455</ele>
        <time>2021-09-13T10:05:35.000Z</time>
      </trkpt>
      <trkpt lat="45.79305" lon="4.82136">
        <ele>178.291318</ele>
        <time>2021-09-13T10:05:39.000Z</time>
      </trkpt>
      <trkpt lat="45.79294" lon="4.82123">
        <ele>178.418751</ele>
        <time>2021-09-13T10:05:42.000Z</time>
      </trkpt>
      <trkpt lat="45.7929" lon="4.82118">
        <ele>178.467478</ele>
        <time>2021-09-13T10:05:43.000Z</time>
      </trkpt>
      <trkpt lat="45.79283" lon="4.8211">
        <ele>178.551507</ele>
        <time>2021-09-13T10:05:45.000Z</time>
      </trkpt>
      <trkpt lat="45.79271" lon="4.82096">
        <ele>178.692617</ele>
        <time>2021-09-13T10:05:48.000Z</time>
      </trkpt>
      <trkpt lat="45.7926" lon="4.82082">
        <ele>178.828141</ele>
        <time>2021-09-13T10:05:51.000Z</time>
      </trkpt>
      <trkpt lat="45.79253" lon="4.82073">
        <ele>178.914819</ele>
        <time>2021-09-13T10:05:53.000Z</time>
      </trkpt>
      <trkpt lat="45.79246" lon="4.82065">
        <ele>178.999678</ele>
        <time>2021-09-13T10:05:55.000Z</time>
      </trkpt>
      <trkpt lat="45.7923" lon="4.82045">
        <ele>179.286754</ele>
        <time>2021-09-13T10:06:00.000Z</time>
      </trkpt>
      <trkpt lat="45.79226" lon="4.8204">
        <ele>179.377234</ele>
        <time>2021-09-13T10:06:01.000Z</time>
      </trkpt>
      <trkpt lat="45.79214" lon="4.82026">
        <ele>179.69043</ele>
        <time>2021-09-13T10:06:04.000Z</time>
      </trkpt>
      <trkpt lat="45.79206" lon="4.82016">
        <ele>179.903755</ele>
        <time>2021-09-13T10:06:06.000Z</time>
      </trkpt>
      <trkpt lat="45.79189" lon="4.81995">
        <ele>180.354618</ele>
        <time>2021-09-13T10:06:11.000Z</time>
      </trkpt>
      <trkpt lat="45.79185" lon="4.81991">
        <ele>180.445706</ele>
        <time>2021-09-13T10:06:12.000Z</time>
      </trkpt>
      <trkpt lat="45.79181" lon="4.81986">
        <ele>180.547383</ele>
        <time>2021-09-13T10:06:13.000Z</time>
      </trkpt>
      <trkpt lat="45.79167" lon="4.81968">
        <ele>180.928345</ele>
        <time>2021-09-13T10:06:17.000Z</time>
      </trkpt>
      <trkpt lat="45.79163" lon="4.81964">
        <ele>181.025176</ele>
        <time>2021-09-13T10:06:18.000Z</time>
      </trkpt>
      <trkpt lat="45.79152" lon="4.8195">
        <ele>181.313247</ele>
        <time>2021-09-13T10:06:21.000Z</time>
      </trkpt>
      <trkpt lat="45.79145" lon="4.81942">
        <ele>181.494801</ele>
        <time>2021-09-13T10:06:23.000Z</time>
      </trkpt>
      <trkpt lat="45.79136" lon="4.8193">
        <ele>181.745986</ele>
        <time>2021-09-13T10:06:26.000Z</time>
      </trkpt>
      <trkpt lat="45.79126" lon="4.81917">
        <ele>182.013384</ele>
        <time>2021-09-13T10:06:29.000Z</time>
      </trkpt>
      <trkpt lat="45.7912" lon="4.81908">
        <ele>182.183145</ele>
        <time>2021-09-13T10:06:31.000Z</time>
      </trkpt>
      <trkpt lat="45.79105" lon="4.81888">
        <ele>182.593833</ele>
        <time>2021-09-13T10:06:36.000Z</time>
      </trkpt>
      <trkpt lat="45.79088" lon="4.81864">
        <ele>182.829637</ele>
        <time>2021-09-13T10:06:42.000Z</time>
      </trkpt>
      <trkpt lat="45.79078" lon="4.81848">
        <ele>182.932954</ele>
        <time>2021-09-13T10:06:47.000Z</time>
      </trkpt>
      <trkpt lat="45.79062" lon="4.81824">
        <ele>183.082362</ele>
        <time>2021-09-13T10:06:53.000Z</time>
      </trkpt>
      <trkpt lat="45.79048" lon="4.81804">
        <ele>183.214974</ele>
        <time>2021-09-13T10:06:58.000Z</time>
      </trkpt>
      <trkpt lat="45.79037" lon="4.81786">
        <ele>183.325497</ele>
        <time>2021-09-13T10:07:02.000Z</time>
      </trkpt>
      <trkpt lat="45.79034" lon="4.81782">
        <ele>183.35215</ele>
        <time>2021-09-13T10:07:03.000Z</time>
      </trkpt>
      <trkpt lat="45.79023" lon="4.81768">
        <ele>183.449671</ele>
        <time>2021-09-13T10:07:06.000Z</time>
      </trkpt>
      <trkpt lat="45.7901" lon="4.81749">
        <ele>183.570809</ele>
        <time>2021-09-13T10:07:09.000Z</time>
      </trkpt>
      <trkpt lat="45.79003" lon="4.81739">
        <ele>183.641356</ele>
        <time>2021-09-13T10:07:11.000Z</time>
      </trkpt>
      <trkpt lat="45.78995" lon="4.81728">
        <ele>183.709987</ele>
        <time>2021-09-13T10:07:13.000Z</time>
      </trkpt>
      <trkpt lat="45.78984" lon="4.81713">
        <ele>183.809101</ele>
        <time>2021-09-13T10:07:16.000Z</time>
      </trkpt>
      <trkpt lat="45.78975" lon="4.817">
        <ele>183.898162</ele>
        <time>2021-09-13T10:07:19.000Z</time>
      </trkpt>
      <trkpt lat="45.78968" lon="4.81691">
        <ele>183.811715</ele>
        <time>2021-09-13T10:07:21.000Z</time>
      </trkpt>
      <trkpt lat="45.78956" lon="4.81672">
        <ele>183.60239</ele>
        <time>2021-09-13T10:07:25.000Z</time>
      </trkpt>
      <trkpt lat="45.78949" lon="4.81664">
        <ele>183.500935</ele>
        <time>2021-09-13T10:07:27.000Z</time>
      </trkpt>
      <trkpt lat="45.78937" lon="4.81646">
        <ele>183.300236</ele>
        <time>2021-09-13T10:07:31.000Z</time>
      </trkpt>
      <trkpt lat="45.78934" lon="4.81642">
        <ele>183.251871</ele>
        <time>2021-09-13T10:07:32.000Z</time>
      </trkpt>
      <trkpt lat="45.78931" lon="4.81637">
        <ele>183.198217</ele>
        <time>2021-09-13T10:07:33.000Z</time>
      </trkpt>
      <trkpt lat="45.7892" lon="4.81623">
        <ele>183.031147</ele>
        <time>2021-09-13T10:07:36.000Z</time>
      </trkpt>
      <trkpt lat="45.78905" lon="4.81602">
        <ele>182.789216</ele>
        <time>2021-09-13T10:07:40.000Z</time>
      </trkpt>
      <trkpt lat="45.78886" lon="4.81578">
        <ele>182.494664</ele>
        <time>2021-09-13T10:07:45.000Z</time>
      </trkpt>
      <trkpt lat="45.78882" lon="4.81574">
        <ele>182.439214</ele>
        <time>2021-09-13T10:07:46.000Z</time>
      </trkpt>
      <trkpt lat="45.78864" lon="4.81556">
        <ele>182.184196</ele>
        <time>2021-09-13T10:07:51.000Z</time>
      </trkpt>
      <trkpt lat="45.7886" lon="4.81552">
        <ele>182.130753</ele>
        <time>2021-09-13T10:07:52.000Z</time>
      </trkpt>
      <trkpt lat="45.78839" lon="4.81531">
        <ele>181.842901</ele>
        <time>2021-09-13T10:07:57.000Z</time>
      </trkpt>
      <trkpt lat="45.78825" lon="4.81517">
        <ele>181.534209</ele>
        <time>2021-09-13T10:08:01.000Z</time>
      </trkpt>
      <trkpt lat="45.78821" lon="4.81513">
        <ele>181.453882</ele>
        <time>2021-09-13T10:08:02.000Z</time>
      </trkpt>
      <trkpt lat="45.78807" lon="4.815">
        <ele>181.148498</ele>
        <time>2021-09-13T10:08:06.000Z</time>
      </trkpt>
      <trkpt lat="45.78789" lon="4.81485">
        <ele>180.76731</ele>
        <time>2021-09-13T10:08:11.000Z</time>
      </trkpt>
      <trkpt lat="45.78785" lon="4.81482">
        <ele>180.682844</ele>
        <time>2021-09-13T10:08:12.000Z</time>
      </trkpt>
      <trkpt lat="45.78772" lon="4.81471">
        <ele>180.422905</ele>
        <time>2021-09-13T10:08:15.000Z</time>
      </trkpt>
      <trkpt lat="45.78768" lon="4.81468">
        <ele>180.336259</ele>
        <time>2021-09-13T10:08:16.000Z</time>
      </trkpt>
      <trkpt lat="45.78764" lon="4.81465">
        <ele>180.251793</ele>
        <time>2021-09-13T10:08:17.000Z</time>
      </trkpt>
      <trkpt lat="45.78747" lon="4.81452">
        <ele>179.916107</ele>
        <time>2021-09-13T10:08:21.000Z</time>
      </trkpt>
      <trkpt lat="45.78736" lon="4.81442">
        <ele>179.672378</ele>
        <time>2021-09-13T10:08:24.000Z</time>
      </trkpt>
      <trkpt lat="45.78727" lon="4.81436">
        <ele>179.498885</ele>
        <time>2021-09-13T10:08:26.000Z</time>
      </trkpt>
      <trkpt lat="45.78718" lon="4.8143">
        <ele>179.324905</ele>
        <time>2021-09-13T10:08:28.000Z</time>
      </trkpt>
      <trkpt lat="45.7871" lon="4.81424">
        <ele>179.154595</ele>
        <time>2021-09-13T10:08:30.000Z</time>
      </trkpt>
      <trkpt lat="45.78705" lon="4.81421">
        <ele>179.066469</ele>
        <time>2021-09-13T10:08:31.000Z</time>
      </trkpt>
      <trkpt lat="45.78688" lon="4.81411">
        <ele>178.737232</ele>
        <time>2021-09-13T10:08:35.000Z</time>
      </trkpt>
      <trkpt lat="45.78663" lon="4.81394">
        <ele>178.162538</ele>
        <time>2021-09-13T10:08:41.000Z</time>
      </trkpt>
      <trkpt lat="45.7865" lon="4.81385">
        <ele>177.867283</ele>
        <time>2021-09-13T10:08:44.000Z</time>
      </trkpt>
      <trkpt lat="45.78642" lon="4.8138">
        <ele>177.670446</ele>
        <time>2021-09-13T10:08:46.000Z</time>
      </trkpt>
      <trkpt lat="45.78638" lon="4.81377">
        <ele>177.574578</ele>
        <time>2021-09-13T10:08:47.000Z</time>
      </trkpt>
      <trkpt lat="45.78607" lon="4.81357">
        <ele>176.86966</ele>
        <time>2021-09-13T10:08:54.000Z</time>
      </trkpt>
      <trkpt lat="45.78603" lon="4.81355">
        <ele>176.776341</ele>
        <time>2021-09-13T10:08:55.000Z</time>
      </trkpt>
      <trkpt lat="45.78596" lon="4.8135">
        <ele>176.612723</ele>
        <time>2021-09-13T10:08:57.000Z</time>
      </trkpt>
      <trkpt lat="45.78588" lon="4.81345">
        <ele>176.417117</ele>
        <time>2021-09-13T10:08:59.000Z</time>
      </trkpt>
      <trkpt lat="45.78576" lon="4.81337">
        <ele>176.13461</ele>
        <time>2021-09-13T10:09:02.000Z</time>
      </trkpt>
      <trkpt lat="45.78557" lon="4.81324">
        <ele>175.695576</ele>
        <time>2021-09-13T10:09:07.000Z</time>
      </trkpt>
      <trkpt lat="45.78546" lon="4.81317">
        <ele>175.431609</ele>
        <time>2021-09-13T10:09:10.000Z</time>
      </trkpt>
      <trkpt lat="45.78539" lon="4.81312">
        <ele>175.273691</ele>
        <time>2021-09-13T10:09:12.000Z</time>
      </trkpt>
      <trkpt lat="45.78521" lon="4.81301">
        <ele>174.856297</ele>
        <time>2021-09-13T10:09:17.000Z</time>
      </trkpt>
      <trkpt lat="45.78492" lon="4.81279">
        <ele>174.568161</ele>
        <time>2021-09-13T10:09:25.000Z</time>
      </trkpt>
      <trkpt lat="45.78468" lon="4.81259">
        <ele>174.367028</ele>
        <time>2021-09-13T10:09:32.000Z</time>
      </trkpt>
      <trkpt lat="45.78445" lon="4.8124">
        <ele>174.178419</ele>
        <time>2021-09-13T10:09:40.000Z</time>
      </trkpt>
      <trkpt lat="45.78424" lon="4.81223">
        <ele>174.003822</ele>
        <time>2021-09-13T10:09:47.000Z</time>
      </trkpt>
      <trkpt lat="45.78412" lon="4.81213">
        <ele>173.906604</ele>
        <time>2021-09-13T10:09:53.000Z</time>
      </trkpt>
      <trkpt lat="45.78379" lon="4.81206">
        <ele>173.667528</ele>
        <time>2021-09-13T10:09:59.000Z</time>
      </trkpt>
      <trkpt lat="45.78366" lon="4.81195">
        <ele>173.559271</ele>
        <time>2021-09-13T10:10:03.000Z</time>
      </trkpt>
      <trkpt lat="45.78349" lon="4.81182">
        <ele>173.417095</ele>
        <time>2021-09-13T10:10:08.000Z</time>
      </trkpt>
      <trkpt lat="45.78336" lon="4.81171">
        <ele>173.299656</ele>
        <time>2021-09-13T10:10:12.000Z</time>
      </trkpt>
      <trkpt lat="45.78332" lon="4.81168">
        <ele>173.267455</ele>
        <time>2021-09-13T10:10:13.000Z</time>
      </trkpt>
      <trkpt lat="45.78312" lon="4.81151">
        <ele>173.085347</ele>
        <time>2021-09-13T10:10:19.000Z</time>
      </trkpt>
      <trkpt lat="45.78296" lon="4.81138">
        <ele>172.943017</ele>
        <time>2021-09-13T10:10:24.000Z</time>
      </trkpt>
      <trkpt lat="45.78276" lon="4.81121">
        <ele>172.759413</ele>
        <time>2021-09-13T10:10:30.000Z</time>
      </trkpt>
      <trkpt lat="45.78266" lon="4.81112">
        <ele>172.665912</ele>
        <time>2021-09-13T10:10:33.000Z</time>
      </trkpt>
      <trkpt lat="45.78262" lon="4.81109">
        <ele>172.635061</ele>
        <time>2021-09-13T10:10:34.000Z</time>
      </trkpt>
      <trkpt lat="45.78255" lon="4.81103">
        <ele>172.571739</ele>
        <time>2021-09-13T10:10:36.000Z</time>
      </trkpt>
      <trkpt lat="45.78252" lon="4.811">
        <ele>172.538043</ele>
        <time>2021-09-13T10:10:37.000Z</time>
      </trkpt>
      <trkpt lat="45.78249" lon="4.81092">
        <ele>172.486837</ele>
        <time>2021-09-13T10:10:38.000Z</time>
      </trkpt>
      <trkpt lat="45.78229" lon="4.81076">
        <ele>172.314201</ele>
        <time>2021-09-13T10:10:43.000Z</time>
      </trkpt>
      <trkpt lat="45.78197" lon="4.81049">
        <ele>172.044868</ele>
        <time>2021-09-13T10:10:52.000Z</time>
      </trkpt>
      <trkpt lat="45.78169" lon="4.81026">
        <ele>171.88692</ele>
        <time>2021-09-13T10:11:00.000Z</time>
      </trkpt>
      <trkpt lat="45.78149" lon="4.8101">
        <ele>171.778379</ele>
        <time>2021-09-13T10:11:06.000Z</time>
      </trkpt>
      <trkpt lat="45.78125" lon="4.8099">
        <ele>171.642004</ele>
        <time>2021-09-13T10:11:14.000Z</time>
      </trkpt>
      <trkpt lat="45.78095" lon="4.80961">
        <ele>171.465892</ele>
        <time>2021-09-13T10:11:24.000Z</time>
      </trkpt>
      <trkpt lat="45.78069" lon="4.80937">
        <ele>171.314468</ele>
        <time>2021-09-13T10:11:33.000Z</time>
      </trkpt>
      <trkpt lat="45.78052" lon="4.80924">
        <ele>171.220518</ele>
        <time>2021-09-13T10:11:39.000Z</time>
      </trkpt>
      <trkpt lat="45.78034" lon="4.80911">
        <ele>171.324332</ele>
        <time>2021-09-13T10:11:46.000Z</time>
      </trkpt>
      <trkpt lat="45.78014" lon="4.80895">
        <ele>171.470089</ele>
        <time>2021-09-13T10:11:53.000Z</time>
      </trkpt>
      <trkpt lat="45.77996" lon="4.80884">
        <ele>171.595655</ele>
        <time>2021-09-13T10:11:59.000Z</time>
      </trkpt>
      <trkpt lat="45.77979" lon="4.80873">
        <ele>171.71287</ele>
        <time>2021-09-13T10:12:05.000Z</time>
      </trkpt>
      <trkpt lat="45.77962" lon="4.80863">
        <ele>171.833538</ele>
        <time>2021-09-13T10:12:11.000Z</time>
      </trkpt>
      <trkpt lat="45.77943" lon="4.80851">
        <ele>171.966678</ele>
        <time>2021-09-13T10:12:17.000Z</time>
      </trkpt>
      <trkpt lat="45.77924" lon="4.80839">
        <ele>172.095603</ele>
        <time>2021-09-13T10:12:23.000Z</time>
      </trkpt>
      <trkpt lat="45.77907" lon="4.80829">
        <ele>172.215079</ele>
        <time>2021-09-13T10:12:29.000Z</time>
      </trkpt>
      <trkpt lat="45.77891" lon="4.8082">
        <ele>172.32495</ele>
        <time>2021-09-13T10:12:34.000Z</time>
      </trkpt>
      <trkpt lat="45.77877" lon="4.80812">
        <ele>172.557766</ele>
        <time>2021-09-13T10:12:39.000Z</time>
      </trkpt>
      <trkpt lat="45.77871" lon="4.80809">
        <ele>172.68007</ele>
        <time>2021-09-13T10:12:41.000Z</time>
      </trkpt>
      <trkpt lat="45.77868" lon="4.80807">
        <ele>172.735001</ele>
        <time>2021-09-13T10:12:42.000Z</time>
      </trkpt>
      <trkpt lat="45.77866" lon="4.80806">
        <ele>172.785786</ele>
        <time>2021-09-13T10:12:43.000Z</time>
      </trkpt>
      <trkpt lat="45.77853" lon="4.80806">
        <ele>173.026965</ele>
        <time>2021-09-13T10:12:45.000Z</time>
      </trkpt>
      <trkpt lat="45.77863" lon="4.80811">
        <ele>173.228091</ele>
        <time>2021-09-13T10:12:47.000Z</time>
      </trkpt>
      <trkpt lat="45.77852" lon="4.80813">
        <ele>173.445974</ele>
        <time>2021-09-13T10:12:50.000Z</time>
      </trkpt>
      <trkpt lat="45.7786" lon="4.80808">
        <ele>173.612222</ele>
        <time>2021-09-13T10:13:07.000Z</time>
      </trkpt>
      <trkpt lat="45.77858" lon="4.80807">
        <ele>173.649362</ele>
        <time>2021-09-13T10:13:09.000Z</time>
      </trkpt>
      <trkpt lat="45.77853" lon="4.80804">
        <ele>173.751302</ele>
        <time>2021-09-13T10:13:13.000Z</time>
      </trkpt>
      <trkpt lat="45.77854" lon="4.80804">
        <ele>173.765022</ele>
        <time>2021-09-13T10:13:14.000Z</time>
      </trkpt>
      <trkpt lat="45.77848" lon="4.80797">
        <ele>173.919018</ele>
        <time>2021-09-13T10:13:17.000Z</time>
      </trkpt>
      <trkpt lat="45.77846" lon="4.80797">
        <ele>173.95881</ele>
        <time>2021-09-13T10:13:18.000Z</time>
      </trkpt>
      <trkpt lat="45.77829" lon="4.80793">
        <ele>174.296816</ele>
        <time>2021-09-13T10:13:24.000Z</time>
      </trkpt>
      <trkpt lat="45.77813" lon="4.80791">
        <ele>174.603195</ele>
        <time>2021-09-13T10:13:29.000Z</time>
      </trkpt>
      <trkpt lat="45.77798" lon="4.80788">
        <ele>174.895792</ele>
        <time>2021-09-13T10:13:34.000Z</time>
      </trkpt>
      <trkpt lat="45.77785" lon="4.80785">
        <ele>175.152698</ele>
        <time>2021-09-13T10:13:39.000Z</time>
      </trkpt>
      <trkpt lat="45.77774" lon="4.80783">
        <ele>175.37409</ele>
        <time>2021-09-13T10:13:43.000Z</time>
      </trkpt>
      <trkpt lat="45.77753" lon="4.80779">
        <ele>175.783302</ele>
        <time>2021-09-13T10:13:50.000Z</time>
      </trkpt>
      <trkpt lat="45.77741" lon="4.80777">
        <ele>175.796164</ele>
        <time>2021-09-13T10:13:55.000Z</time>
      </trkpt>
      <trkpt lat="45.77739" lon="4.80777">
        <ele>175.777372</ele>
        <time>2021-09-13T10:13:56.000Z</time>
      </trkpt>
      <trkpt lat="45.77734" lon="4.80776">
        <ele>175.726826</ele>
        <time>2021-09-13T10:13:59.000Z</time>
      </trkpt>
      <trkpt lat="45.7773" lon="4.80775">
        <ele>175.677264</ele>
        <time>2021-09-13T10:14:23.000Z</time>
      </trkpt>
      <trkpt lat="45.77722" lon="4.80779">
        <ele>175.586608</ele>
        <time>2021-09-13T10:14:25.000Z</time>
      </trkpt>
      <trkpt lat="45.77722" lon="4.80779">
        <ele>175.584427</ele>
        <time>2021-09-13T10:14:26.000Z</time>
      </trkpt>
      <trkpt lat="45.77712" lon="4.80779">
        <ele>175.482935</ele>
        <time>2021-09-13T10:14:29.000Z</time>
      </trkpt>
      <trkpt lat="45.77706" lon="4.8078">
        <ele>175.418414</ele>
        <time>2021-09-13T10:14:32.000Z</time>
      </trkpt>
      <trkpt lat="45.77688" lon="4.80781">
        <ele>175.220447</ele>
        <time>2021-09-13T10:14:38.000Z</time>
      </trkpt>
      <trkpt lat="45.77677" lon="4.80783">
        <ele>175.095423</ele>
        <time>2021-09-13T10:14:42.000Z</time>
      </trkpt>
      <trkpt lat="45.77654" lon="4.80792">
        <ele>174.835358</ele>
        <time>2021-09-13T10:14:48.000Z</time>
      </trkpt>
      <trkpt lat="45.77643" lon="4.80796">
        <ele>174.714142</ele>
        <time>2021-09-13T10:14:51.000Z</time>
      </trkpt>
      <trkpt lat="45.77634" lon="4.808">
        <ele>174.614525</ele>
        <time>2021-09-13T10:14:54.000Z</time>
      </trkpt>
      <trkpt lat="45.77623" lon="4.80805">
        <ele>174.479882</ele>
        <time>2021-09-13T10:14:58.000Z</time>
      </trkpt>
      <trkpt lat="45.77607" lon="4.80811">
        <ele>174.303298</ele>
        <time>2021-09-13T10:15:03.000Z</time>
      </trkpt>
      <trkpt lat="45.77584" lon="4.8082">
        <ele>174.047439</ele>
        <time>2021-09-13T10:15:09.000Z</time>
      </trkpt>
      <trkpt lat="45.7757" lon="4.80826">
        <ele>173.879139</ele>
        <time>2021-09-13T10:15:13.000Z</time>
      </trkpt>
      <trkpt lat="45.77541" lon="4.80837">
        <ele>173.492022</ele>
        <time>2021-09-13T10:15:21.000Z</time>
      </trkpt>
      <trkpt lat="45.77527" lon="4.80844">
        <ele>173.303618</ele>
        <time>2021-09-13T10:15:26.000Z</time>
      </trkpt>
      <trkpt lat="45.77515" lon="4.80851">
        <ele>173.13494</ele>
        <time>2021-09-13T10:15:31.000Z</time>
      </trkpt>
      <trkpt lat="45.77506" lon="4.80858">
        <ele>173.00297</ele>
        <time>2021-09-13T10:15:35.000Z</time>
      </trkpt>
      <trkpt lat="45.77505" lon="4.80863">
        <ele>172.953763</ele>
        <time>2021-09-13T10:15:38.000Z</time>
      </trkpt>
      <trkpt lat="45.77502" lon="4.80861">
        <ele>172.911041</ele>
        <time>2021-09-13T10:16:05.000Z</time>
      </trkpt>
      <trkpt lat="45.77498" lon="4.80865">
        <ele>172.846507</ele>
        <time>2021-09-13T10:16:08.000Z</time>
      </trkpt>
      <trkpt lat="45.77496" lon="4.80865">
        <ele>172.821948</ele>
        <time>2021-09-13T10:16:09.000Z</time>
      </trkpt>
      <trkpt lat="45.77501" lon="4.80848">
        <ele>172.660196</ele>
        <time>2021-09-13T10:16:13.000Z</time>
      </trkpt>
      <trkpt lat="45.77504" lon="4.80825">
        <ele>172.444281</ele>
        <time>2021-09-13T10:16:17.000Z</time>
      </trkpt>
      <trkpt lat="45.77504" lon="4.80825">
        <ele>172.444281</ele>
        <time>2021-09-13T10:16:18.000Z</time>
      </trkpt>
      <trkpt lat="45.77504" lon="4.80822">
        <ele>172.42262</ele>
        <time>2021-09-13T10:16:21.000Z</time>
      </trkpt>
      <trkpt lat="45.77494" lon="4.80815">
        <ele>172.276845</ele>
        <time>2021-09-13T10:16:35.000Z</time>
      </trkpt>
      <trkpt lat="45.77489" lon="4.80818">
        <ele>172.205462</ele>
        <time>2021-09-13T10:16:39.000Z</time>
      </trkpt>
      <trkpt lat="45.77479" lon="4.80835">
        <ele>172.011811</ele>
        <time>2021-09-13T10:16:45.000Z</time>
      </trkpt>
      <trkpt lat="45.77465" lon="4.80846">
        <ele>171.800338</ele>
        <time>2021-09-13T10:16:51.000Z</time>
      </trkpt>
      <trkpt lat="45.77444" lon="4.80861">
        <ele>171.598928</ele>
        <time>2021-09-13T10:16:58.000Z</time>
      </trkpt>
      <trkpt lat="45.77429" lon="4.80872">
        <ele>171.591867</ele>
        <time>2021-09-13T10:17:04.000Z</time>
      </trkpt>
      <trkpt lat="45.77419" lon="4.8088">
        <ele>171.587103</ele>
        <time>2021-09-13T10:17:12.000Z</time>
      </trkpt>
      <trkpt lat="45.77406" lon="4.80892">
        <ele>171.580487</ele>
        <time>2021-09-13T10:17:18.000Z</time>
      </trkpt>
      <trkpt lat="45.77403" lon="4.80894">
        <ele>171.579328</ele>
        <time>2021-09-13T10:17:19.000Z</time>
      </trkpt>
      <trkpt lat="45.7739" lon="4.80892">
        <ele>171.573965</ele>
        <time>2021-09-13T10:17:22.000Z</time>
      </trkpt>
      <trkpt lat="45.77382" lon="4.80881">
        <ele>171.569189</ele>
        <time>2021-09-13T10:17:26.000Z</time>
      </trkpt>
      <trkpt lat="45.77367" lon="4.80854">
        <ele>171.559275</ele>
        <time>2021-09-13T10:17:33.000Z</time>
      </trkpt>
      <trkpt lat="45.77354" lon="4.80827">
        <ele>171.549631</ele>
        <time>2021-09-13T10:17:40.000Z</time>
      </trkpt>
      <trkpt lat="45.77341" lon="4.80802">
        <ele>171.540702</ele>
        <time>2021-09-13T10:17:47.000Z</time>
      </trkpt>
      <trkpt lat="45.77334" lon="4.80788">
        <ele>171.535516</ele>
        <time>2021-09-13T10:17:52.000Z</time>
      </trkpt>
      <trkpt lat="45.77322" lon="4.80764">
        <ele>171.527065</ele>
        <time>2021-09-13T10:17:59.000Z</time>
      </trkpt>
      <trkpt lat="45.77321" lon="4.80761">
        <ele>171.527045</ele>
        <time>2021-09-13T10:18:00.000Z</time>
      </trkpt>
      <trkpt lat="45.77317" lon="4.80754">
        <ele>171.527045</ele>
        <time>2021-09-13T10:18:02.000Z</time>
      </trkpt>
      <trkpt lat="45.77344" lon="4.80726">
        <ele>171.527045</ele>
        <time>2021-09-13T10:18:08.000Z</time>
      </trkpt>
      <trkpt lat="45.77362" lon="4.80708">
        <ele>171.527045</ele>
        <time>2021-09-13T10:18:14.000Z</time>
      </trkpt>
      <trkpt lat="45.77378" lon="4.80692">
        <ele>171.527045</ele>
        <time>2021-09-13T10:18:20.000Z</time>
      </trkpt>
      <trkpt lat="45.77392" lon="4.8068">
        <ele>171.527045</ele>
        <time>2021-09-13T10:18:26.000Z</time>
      </trkpt>
      <trkpt lat="45.77403" lon="4.80667">
        <ele>171.527045</ele>
        <time>2021-09-13T10:18:32.000Z</time>
      </trkpt>
      <trkpt lat="45.77414" lon="4.80645">
        <ele>171.527045</ele>
        <time>2021-09-13T10:18:39.000Z</time>
      </trkpt>
      <trkpt lat="45.7742" lon="4.80625">
        <ele>171.527045</ele>
        <time>2021-09-13T10:18:45.000Z</time>
      </trkpt>
      <trkpt lat="45.77432" lon="4.80619">
        <ele>171.527045</ele>
        <time>2021-09-13T10:18:50.000Z</time>
      </trkpt>
      <trkpt lat="45.77442" lon="4.80614">
        <ele>171.527045</ele>
        <time>2021-09-13T10:18:55.000Z</time>
      </trkpt>
      <trkpt lat="45.77444" lon="4.80613">
        <ele>171.527045</ele>
        <time>2021-09-13T10:18:56.000Z</time>
      </trkpt>
      <trkpt lat="45.77445" lon="4.80616">
        <ele>171.527045</ele>
        <time>2021-09-13T10:18:59.000Z</time>
      </trkpt>
      <trkpt lat="45.77448" lon="4.80631">
        <ele>171.527045</ele>
        <time>2021-09-13T10:19:06.000Z</time>
      </trkpt>
      <trkpt lat="45.77448" lon="4.80632">
        <ele>171.527045</ele>
        <time>2021-09-13T10:19:08.000Z</time>
      </trkpt>
    </trkseg>
  </trk>
  <trk>
    <name><![CDATA[Etape 10 : Lyon - Vion]]></name>
    <extensions>
      <line xmlns="http://www.topografix.com/GPX/gpx_style/0/2">
        <color>888800</color>
        <width>4</width>
      </line>
    </extensions>
    <trkseg>
      <trkpt lat="45.77431" lon="4.80684">
        <ele>177.004392</ele>
        <time>2021-09-14T05:19:05.000Z</time>
      </trkpt>
      <trkpt lat="45.77441" lon="4.80683">
        <ele>177.004392</ele>
        <time>2021-09-14T05:19:11.000Z</time>
      </trkpt>
      <trkpt lat="45.77445" lon="4.80683">
        <ele>177.004392</ele>
        <time>2021-09-14T05:19:13.000Z</time>
      </trkpt>
      <trkpt lat="45.7745" lon="4.80683">
        <ele>177.004392</ele>
        <time>2021-09-14T05:19:15.000Z</time>
      </trkpt>
      <trkpt lat="45.77453" lon="4.80683">
        <ele>177.004392</ele>
        <time>2021-09-14T05:19:17.000Z</time>
      </trkpt>
      <trkpt lat="45.77455" lon="4.80682">
        <ele>177.004392</ele>
        <time>2021-09-14T05:19:18.000Z</time>
      </trkpt>
      <trkpt lat="45.77462" lon="4.80682">
        <ele>177.004392</ele>
        <time>2021-09-14T05:19:23.000Z</time>
      </trkpt>
      <trkpt lat="45.77462" lon="4.80682">
        <ele>177.004392</ele>
        <time>2021-09-14T05:19:28.000Z</time>
      </trkpt>
      <trkpt lat="45.77462" lon="4.80682">
        <ele>177.004392</ele>
        <time>2021-09-14T05:19:36.000Z</time>
      </trkpt>
      <trkpt lat="45.7749" lon="4.80711">
        <ele>177.004392</ele>
        <time>2021-09-14T05:19:37.000Z</time>
      </trkpt>
      <trkpt lat="45.77493" lon="4.80726">
        <ele>177.004392</ele>
        <time>2021-09-14T05:19:42.000Z</time>
      </trkpt>
      <trkpt lat="45.775" lon="4.80752">
        <ele>177.051574</ele>
        <time>2021-09-14T05:19:49.000Z</time>
      </trkpt>
      <trkpt lat="45.77497" lon="4.80772">
        <ele>177.170702</ele>
        <time>2021-09-14T05:19:55.000Z</time>
      </trkpt>
      <trkpt lat="45.77494" lon="4.80799">
        <ele>177.328185</ele>
        <time>2021-09-14T05:20:01.000Z</time>
      </trkpt>
      <trkpt lat="45.77492" lon="4.8082">
        <ele>177.450392</ele>
        <time>2021-09-14T05:20:06.000Z</time>
      </trkpt>
      <trkpt lat="45.77492" lon="4.80827">
        <ele>177.491952</ele>
        <time>2021-09-14T05:20:08.000Z</time>
      </trkpt>
      <trkpt lat="45.77492" lon="4.80834">
        <ele>177.5295</ele>
        <time>2021-09-14T05:20:10.000Z</time>
      </trkpt>
      <trkpt lat="45.77485" lon="4.80854">
        <ele>177.658876</ele>
        <time>2021-09-14T05:20:15.000Z</time>
      </trkpt>
      <trkpt lat="45.77485" lon="4.8086">
        <ele>177.694657</ele>
        <time>2021-09-14T05:20:21.000Z</time>
      </trkpt>
      <trkpt lat="45.77485" lon="4.8086">
        <ele>177.694657</ele>
        <time>2021-09-14T05:20:32.000Z</time>
      </trkpt>
      <trkpt lat="45.77485" lon="4.8086">
        <ele>177.694657</ele>
        <time>2021-09-14T05:20:33.000Z</time>
      </trkpt>
      <trkpt lat="45.7748" lon="4.80876">
        <ele>177.79415</ele>
        <time>2021-09-14T05:20:35.000Z</time>
      </trkpt>
      <trkpt lat="45.77485" lon="4.80884">
        <ele>177.853878</ele>
        <time>2021-09-14T05:20:37.000Z</time>
      </trkpt>
      <trkpt lat="45.77484" lon="4.80905">
        <ele>177.974737</ele>
        <time>2021-09-14T05:20:42.000Z</time>
      </trkpt>
      <trkpt lat="45.77481" lon="4.80932">
        <ele>178.132388</ele>
        <time>2021-09-14T05:20:50.000Z</time>
      </trkpt>
      <trkpt lat="45.7748" lon="4.80943">
        <ele>178.198598</ele>
        <time>2021-09-14T05:20:56.000Z</time>
      </trkpt>
      <trkpt lat="45.77478" lon="4.80966">
        <ele>178.333505</ele>
        <time>2021-09-14T05:21:04.000Z</time>
      </trkpt>
      <trkpt lat="45.77471" lon="4.81017">
        <ele>178.211571</ele>
        <time>2021-09-14T05:21:14.000Z</time>
      </trkpt>
      <trkpt lat="45.77468" lon="4.81055">
        <ele>177.765271</ele>
        <time>2021-09-14T05:21:24.000Z</time>
      </trkpt>
      <trkpt lat="45.77471" lon="4.81074">
        <ele>177.545544</ele>
        <time>2021-09-14T05:21:32.000Z</time>
      </trkpt>
      <trkpt lat="45.77464" lon="4.81103">
        <ele>177.18431</ele>
        <time>2021-09-14T05:21:39.000Z</time>
      </trkpt>
      <trkpt lat="45.77464" lon="4.81104">
        <ele>177.176016</ele>
        <time>2021-09-14T05:21:42.000Z</time>
      </trkpt>
      <trkpt lat="45.77467" lon="4.81101">
        <ele>177.116441</ele>
        <time>2021-09-14T05:22:36.000Z</time>
      </trkpt>
      <trkpt lat="45.77471" lon="4.81102">
        <ele>177.055813</ele>
        <time>2021-09-14T05:22:37.000Z</time>
      </trkpt>
      <trkpt lat="45.77485" lon="4.81106">
        <ele>176.810498</ele>
        <time>2021-09-14T05:22:42.000Z</time>
      </trkpt>
      <trkpt lat="45.77488" lon="4.81106">
        <ele>176.761349</ele>
        <time>2021-09-14T05:22:44.000Z</time>
      </trkpt>
      <trkpt lat="45.77488" lon="4.8112">
        <ele>176.599966</ele>
        <time>2021-09-14T05:22:46.000Z</time>
      </trkpt>
      <trkpt lat="45.77487" lon="4.81132">
        <ele>176.461776</ele>
        <time>2021-09-14T05:22:49.000Z</time>
      </trkpt>
      <trkpt lat="45.77486" lon="4.81136">
        <ele>176.411613</ele>
        <time>2021-09-14T05:22:50.000Z</time>
      </trkpt>
      <trkpt lat="45.77483" lon="4.81169">
        <ele>176.032219</ele>
        <time>2021-09-14T05:22:56.000Z</time>
      </trkpt>
      <trkpt lat="45.77481" lon="4.81194">
        <ele>175.737419</ele>
        <time>2021-09-14T05:23:02.000Z</time>
      </trkpt>
      <trkpt lat="45.77479" lon="4.81217">
        <ele>175.490794</ele>
        <time>2021-09-14T05:23:09.000Z</time>
      </trkpt>
      <trkpt lat="45.77477" lon="4.81245">
        <ele>175.39415</ele>
        <time>2021-09-14T05:23:17.000Z</time>
      </trkpt>
      <trkpt lat="45.77473" lon="4.81279">
        <ele>175.276163</ele>
        <time>2021-09-14T05:23:25.000Z</time>
      </trkpt>
      <trkpt lat="45.77471" lon="4.81307">
        <ele>175.182732</ele>
        <time>2021-09-14T05:23:32.000Z</time>
      </trkpt>
      <trkpt lat="45.77469" lon="4.81336">
        <ele>175.08418</ele>
        <time>2021-09-14T05:23:39.000Z</time>
      </trkpt>
      <trkpt lat="45.77466" lon="4.81366">
        <ele>174.978703</ele>
        <time>2021-09-14T05:23:45.000Z</time>
      </trkpt>
      <trkpt lat="45.77466" lon="4.81372">
        <ele>174.958096</ele>
        <time>2021-09-14T05:23:47.000Z</time>
      </trkpt>
      <trkpt lat="45.77464" lon="4.81399">
        <ele>174.866728</ele>
        <time>2021-09-14T05:23:50.000Z</time>
      </trkpt>
      <trkpt lat="45.77465" lon="4.81428">
        <ele>174.76745</ele>
        <time>2021-09-14T05:23:54.000Z</time>
      </trkpt>
      <trkpt lat="45.77465" lon="4.81436">
        <ele>174.742953</ele>
        <time>2021-09-14T05:23:55.000Z</time>
      </trkpt>
      <trkpt lat="45.77289" lon="4.83713">
        <ele>171.521014</ele>
        <time>2021-09-14T05:28:13.000Z</time>
      </trkpt>
      <trkpt lat="45.7729" lon="4.83712">
        <ele>171.522917</ele>
        <time>2021-09-14T05:28:15.000Z</time>
      </trkpt>
      <trkpt lat="45.77283" lon="4.83778">
        <ele>171.674261</ele>
        <time>2021-09-14T05:28:23.000Z</time>
      </trkpt>
      <trkpt lat="45.77281" lon="4.83797">
        <ele>171.802631</ele>
        <time>2021-09-14T05:28:26.000Z</time>
      </trkpt>
      <trkpt lat="45.77279" lon="4.83821">
        <ele>171.967592</ele>
        <time>2021-09-14T05:28:30.000Z</time>
      </trkpt>
      <trkpt lat="45.77278" lon="4.83839">
        <ele>172.092891</ele>
        <time>2021-09-14T05:28:35.000Z</time>
      </trkpt>
      <trkpt lat="45.77277" lon="4.83852">
        <ele>172.18227</ele>
        <time>2021-09-14T05:28:39.000Z</time>
      </trkpt>
      <trkpt lat="45.77262" lon="4.83864">
        <ele>172.35287</ele>
        <time>2021-09-14T05:28:45.000Z</time>
      </trkpt>
      <trkpt lat="45.77258" lon="4.83899">
        <ele>172.595904</ele>
        <time>2021-09-14T05:28:50.000Z</time>
      </trkpt>
      <trkpt lat="45.77255" lon="4.83936">
        <ele>172.857312</ele>
        <time>2021-09-14T05:28:57.000Z</time>
      </trkpt>
      <trkpt lat="45.77252" lon="4.83966">
        <ele>173.061833</ele>
        <time>2021-09-14T05:29:03.000Z</time>
      </trkpt>
      <trkpt lat="45.77248" lon="4.84016">
        <ele>173.408401</ele>
        <time>2021-09-14T05:29:09.000Z</time>
      </trkpt>
      <trkpt lat="45.77247" lon="4.84031">
        <ele>173.433037</ele>
        <time>2021-09-14T05:29:12.000Z</time>
      </trkpt>
      <trkpt lat="45.77245" lon="4.8406">
        <ele>173.432057</ele>
        <time>2021-09-14T05:29:15.000Z</time>
      </trkpt>
      <trkpt lat="45.77244" lon="4.84073">
        <ele>173.431623</ele>
        <time>2021-09-14T05:29:18.000Z</time>
      </trkpt>
      <trkpt lat="45.77243" lon="4.84086">
        <ele>173.431179</ele>
        <time>2021-09-14T05:29:20.000Z</time>
      </trkpt>
      <trkpt lat="45.77245" lon="4.84103">
        <ele>173.430621</ele>
        <time>2021-09-14T05:29:22.000Z</time>
      </trkpt>
      <trkpt lat="45.77255" lon="4.84107">
        <ele>173.430107</ele>
        <time>2021-09-14T05:29:23.000Z</time>
      </trkpt>
      <trkpt lat="45.77284" lon="4.84113">
        <ele>173.428733</ele>
        <time>2021-09-14T05:29:28.000Z</time>
      </trkpt>
      <trkpt lat="45.77306" lon="4.84123">
        <ele>173.427605</ele>
        <time>2021-09-14T05:29:32.000Z</time>
      </trkpt>
      <trkpt lat="45.77316" lon="4.84127">
        <ele>173.427128</ele>
        <time>2021-09-14T05:29:34.000Z</time>
      </trkpt>
      <trkpt lat="45.77319" lon="4.84125">
        <ele>173.426961</ele>
        <time>2021-09-14T05:29:36.000Z</time>
      </trkpt>
      <trkpt lat="45.77314" lon="4.84122">
        <ele>173.42668</ele>
        <time>2021-09-14T05:29:39.000Z</time>
      </trkpt>
      <trkpt lat="45.77285" lon="4.84106">
        <ele>173.425233</ele>
        <time>2021-09-14T05:29:44.000Z</time>
      </trkpt>
      <trkpt lat="45.77247" lon="4.84096">
        <ele>173.410148</ele>
        <time>2021-09-14T05:29:51.000Z</time>
      </trkpt>
      <trkpt lat="45.77206" lon="4.8409">
        <ele>173.389686</ele>
        <time>2021-09-14T05:29:56.000Z</time>
      </trkpt>
      <trkpt lat="45.77204" lon="4.8409">
        <ele>173.388508</ele>
        <time>2021-09-14T05:29:58.000Z</time>
      </trkpt>
      <trkpt lat="45.77164" lon="4.84093">
        <ele>173.369247</ele>
        <time>2021-09-14T05:30:04.000Z</time>
      </trkpt>
      <trkpt lat="45.77136" lon="4.841">
        <ele>173.355317</ele>
        <time>2021-09-14T05:30:11.000Z</time>
      </trkpt>
      <trkpt lat="45.7713" lon="4.84097">
        <ele>173.351803</ele>
        <time>2021-09-14T05:30:13.000Z</time>
      </trkpt>
      <trkpt lat="45.7713" lon="4.84092">
        <ele>173.349954</ele>
        <time>2021-09-14T05:30:14.000Z</time>
      </trkpt>
      <trkpt lat="45.77113" lon="4.84093">
        <ele>173.341984</ele>
        <time>2021-09-14T05:30:18.000Z</time>
      </trkpt>
      <trkpt lat="45.77094" lon="4.84095">
        <ele>173.354718</ele>
        <time>2021-09-14T05:30:22.000Z</time>
      </trkpt>
      <trkpt lat="45.77089" lon="4.84094">
        <ele>173.365818</ele>
        <time>2021-09-14T05:30:23.000Z</time>
      </trkpt>
      <trkpt lat="45.77079" lon="4.84094">
        <ele>173.388011</ele>
        <time>2021-09-14T05:30:24.000Z</time>
      </trkpt>
      <trkpt lat="45.77068" lon="4.84093">
        <ele>173.411732</ele>
        <time>2021-09-14T05:30:27.000Z</time>
      </trkpt>
      <trkpt lat="45.77062" lon="4.84103">
        <ele>173.430421</ele>
        <time>2021-09-14T05:30:28.000Z</time>
      </trkpt>
      <trkpt lat="45.77045" lon="4.84103">
        <ele>173.468262</ele>
        <time>2021-09-14T05:30:30.000Z</time>
      </trkpt>
      <trkpt lat="45.77024" lon="4.84102">
        <ele>173.514194</ele>
        <time>2021-09-14T05:30:34.000Z</time>
      </trkpt>
      <trkpt lat="45.77012" lon="4.84101">
        <ele>173.5403</ele>
        <time>2021-09-14T05:30:36.000Z</time>
      </trkpt>
      <trkpt lat="45.76992" lon="4.841">
        <ele>173.582731</ele>
        <time>2021-09-14T05:30:39.000Z</time>
      </trkpt>
      <trkpt lat="45.76987" lon="4.84092">
        <ele>173.600767</ele>
        <time>2021-09-14T05:30:40.000Z</time>
      </trkpt>
      <trkpt lat="45.7696" lon="4.84089">
        <ele>173.660036</ele>
        <time>2021-09-14T05:30:45.000Z</time>
      </trkpt>
      <trkpt lat="45.76941" lon="4.8409">
        <ele>173.70049</ele>
        <time>2021-09-14T05:30:48.000Z</time>
      </trkpt>
      <trkpt lat="45.76931" lon="4.84104">
        <ele>173.727015</ele>
        <time>2021-09-14T05:30:49.000Z</time>
      </trkpt>
      <trkpt lat="45.76926" lon="4.84106">
        <ele>173.725472</ele>
        <time>2021-09-14T05:30:51.000Z</time>
      </trkpt>
      <trkpt lat="45.76909" lon="4.84098">
        <ele>173.720341</ele>
        <time>2021-09-14T05:30:54.000Z</time>
      </trkpt>
      <trkpt lat="45.76904" lon="4.84099">
        <ele>173.718961</ele>
        <time>2021-09-14T05:30:55.000Z</time>
      </trkpt>
      <trkpt lat="45.76882" lon="4.84102">
        <ele>173.712435</ele>
        <time>2021-09-14T05:31:00.000Z</time>
      </trkpt>
      <trkpt lat="45.7688" lon="4.84102">
        <ele>173.711936</ele>
        <time>2021-09-14T05:31:03.000Z</time>
      </trkpt>
      <trkpt lat="45.76879" lon="4.84106">
        <ele>173.711013</ele>
        <time>2021-09-14T05:32:15.000Z</time>
      </trkpt>
      <trkpt lat="45.76865" lon="4.84103">
        <ele>173.707059</ele>
        <time>2021-09-14T05:32:20.000Z</time>
      </trkpt>
      <trkpt lat="45.76862" lon="4.84104">
        <ele>173.706</ele>
        <time>2021-09-14T05:32:21.000Z</time>
      </trkpt>
      <trkpt lat="45.76844" lon="4.84107">
        <ele>173.700707</ele>
        <time>2021-09-14T05:32:25.000Z</time>
      </trkpt>
      <trkpt lat="45.7681" lon="4.84113">
        <ele>173.690703</ele>
        <time>2021-09-14T05:32:30.000Z</time>
      </trkpt>
      <trkpt lat="45.76768" lon="4.8412">
        <ele>173.678309</ele>
        <time>2021-09-14T05:32:37.000Z</time>
      </trkpt>
      <trkpt lat="45.76726" lon="4.84128">
        <ele>173.708318</ele>
        <time>2021-09-14T05:32:43.000Z</time>
      </trkpt>
      <trkpt lat="45.76703" lon="4.84134">
        <ele>173.734901</ele>
        <time>2021-09-14T05:32:46.000Z</time>
      </trkpt>
      <trkpt lat="45.76698" lon="4.84135">
        <ele>173.740811</ele>
        <time>2021-09-14T05:32:48.000Z</time>
      </trkpt>
      <trkpt lat="45.76666" lon="4.84141">
        <ele>173.776151</ele>
        <time>2021-09-14T05:32:53.000Z</time>
      </trkpt>
      <trkpt lat="45.76653" lon="4.84135">
        <ele>173.791076</ele>
        <time>2021-09-14T05:32:56.000Z</time>
      </trkpt>
      <trkpt lat="45.76647" lon="4.84136">
        <ele>173.797749</ele>
        <time>2021-09-14T05:32:57.000Z</time>
      </trkpt>
      <trkpt lat="45.76616" lon="4.8414">
        <ele>173.832429</ele>
        <time>2021-09-14T05:33:01.000Z</time>
      </trkpt>
      <trkpt lat="45.73052" lon="4.82167">
        <ele>201.234374</ele>
        <time>2021-09-14T05:44:19.000Z</time>
      </trkpt>
      <trkpt lat="45.73047" lon="4.82169">
        <ele>200.525881</ele>
        <time>2021-09-14T05:44:22.000Z</time>
      </trkpt>
      <trkpt lat="45.73033" lon="4.8216">
        <ele>198.340083</ele>
        <time>2021-09-14T05:44:28.000Z</time>
      </trkpt>
      <trkpt lat="45.72997" lon="4.82166">
        <ele>193.244252</ele>
        <time>2021-09-14T05:44:35.000Z</time>
      </trkpt>
      <trkpt lat="45.72968" lon="4.8216">
        <ele>188.971672</ele>
        <time>2021-09-14T05:44:41.000Z</time>
      </trkpt>
      <trkpt lat="45.72943" lon="4.82138">
        <ele>184.901076</ele>
        <time>2021-09-14T05:44:47.000Z</time>
      </trkpt>
      <trkpt lat="45.72929" lon="4.82113">
        <ele>181.684116</ele>
        <time>2021-09-14T05:44:53.000Z</time>
      </trkpt>
      <trkpt lat="45.7291" lon="4.82099">
        <ele>178.62376</ele>
        <time>2021-09-14T05:44:58.000Z</time>
      </trkpt>
      <trkpt lat="45.72898" lon="4.82099">
        <ele>176.926308</ele>
        <time>2021-09-14T05:45:04.000Z</time>
      </trkpt>
      <trkpt lat="45.72888" lon="4.82096">
        <ele>176.318959</ele>
        <time>2021-09-14T05:45:12.000Z</time>
      </trkpt>
      <trkpt lat="45.72885" lon="4.82095">
        <ele>176.27686</ele>
        <time>2021-09-14T05:45:19.000Z</time>
      </trkpt>
      <trkpt lat="45.72884" lon="4.82125">
        <ele>176.017205</ele>
        <time>2021-09-14T05:45:32.000Z</time>
      </trkpt>
      <trkpt lat="45.72891" lon="4.82097">
        <ele>175.760515</ele>
        <time>2021-09-14T05:45:35.000Z</time>
      </trkpt>
      <trkpt lat="45.72906" lon="4.82099">
        <ele>175.572645</ele>
        <time>2021-09-14T05:45:40.000Z</time>
      </trkpt>
      <trkpt lat="45.72929" lon="4.82113">
        <ele>175.259935</ele>
        <time>2021-09-14T05:45:46.000Z</time>
      </trkpt>
      <trkpt lat="45.72937" lon="4.82128">
        <ele>175.087521</ele>
        <time>2021-09-14T05:45:49.000Z</time>
      </trkpt>
      <trkpt lat="45.7294" lon="4.82134">
        <ele>175.025328</ele>
        <time>2021-09-14T05:45:50.000Z</time>
      </trkpt>
      <trkpt lat="45.72949" lon="4.82144">
        <ele>174.89012</ele>
        <time>2021-09-14T05:45:52.000Z</time>
      </trkpt>
      <trkpt lat="45.72967" lon="4.82159">
        <ele>174.621555</ele>
        <time>2021-09-14T05:45:56.000Z</time>
      </trkpt>
      <trkpt lat="45.72973" lon="4.82162">
        <ele>174.550045</ele>
        <time>2021-09-14T05:45:57.000Z</time>
      </trkpt>
      <trkpt lat="45.72989" lon="4.82166">
        <ele>174.349156</ele>
        <time>2021-09-14T05:46:00.000Z</time>
      </trkpt>
      <trkpt lat="45.73005" lon="4.82166">
        <ele>174.145326</ele>
        <time>2021-09-14T05:46:03.000Z</time>
      </trkpt>
      <trkpt lat="45.73043" lon="4.82158">
        <ele>173.732743</ele>
        <time>2021-09-14T05:46:10.000Z</time>
      </trkpt>
      <trkpt lat="45.73053" lon="4.82158">
        <ele>173.624008</ele>
        <time>2021-09-14T05:46:12.000Z</time>
      </trkpt>
      <trkpt lat="45.73069" lon="4.8216">
        <ele>173.450314</ele>
        <time>2021-09-14T05:46:15.000Z</time>
      </trkpt>
      <trkpt lat="45.73101" lon="4.82173">
        <ele>173.085062</ele>
        <time>2021-09-14T05:46:21.000Z</time>
      </trkpt>
      <trkpt lat="45.73124" lon="4.82189">
        <ele>172.809014</ele>
        <time>2021-09-14T05:46:26.000Z</time>
      </trkpt>
      <trkpt lat="45.73152" lon="4.82215">
        <ele>172.445594</ele>
        <time>2021-09-14T05:46:34.000Z</time>
      </trkpt>
      <trkpt lat="45.73167" lon="4.82228">
        <ele>172.254076</ele>
        <time>2021-09-14T05:46:40.000Z</time>
      </trkpt>
      <trkpt lat="45.73171" lon="4.82233">
        <ele>172.205348</ele>
        <time>2021-09-14T05:46:42.000Z</time>
      </trkpt>
      <trkpt lat="45.73172" lon="4.82234">
        <ele>172.217352</ele>
        <time>2021-09-14T05:46:43.000Z</time>
      </trkpt>
      <trkpt lat="45.73171" lon="4.82243">
        <ele>172.261065</ele>
        <time>2021-09-14T05:46:46.000Z</time>
      </trkpt>
      <trkpt lat="45.7317" lon="4.82244">
        <ele>172.266414</ele>
        <time>2021-09-14T05:46:47.000Z</time>
      </trkpt>
      <trkpt lat="45.73172" lon="4.82236">
        <ele>172.307156</ele>
        <time>2021-09-14T05:46:50.000Z</time>
      </trkpt>
      <trkpt lat="45.73175" lon="4.82215">
        <ele>172.411743</ele>
        <time>2021-09-14T05:46:54.000Z</time>
      </trkpt>
      <trkpt lat="45.73176" lon="4.82209">
        <ele>172.440867</ele>
        <time>2021-09-14T05:46:55.000Z</time>
      </trkpt>
      <trkpt lat="45.73183" lon="4.82167">
        <ele>172.651606</ele>
        <time>2021-09-14T05:47:03.000Z</time>
      </trkpt>
      <trkpt lat="45.7319" lon="4.82139">
        <ele>172.794436</ele>
        <time>2021-09-14T05:47:09.000Z</time>
      </trkpt>
      <trkpt lat="45.73207" lon="4.82113">
        <ele>172.966235</ele>
        <time>2021-09-14T05:47:16.000Z</time>
      </trkpt>
      <trkpt lat="45.73229" lon="4.82086">
        <ele>173.163563</ele>
        <time>2021-09-14T05:47:24.000Z</time>
      </trkpt>
      <trkpt lat="45.73245" lon="4.82065">
        <ele>173.317398</ele>
        <time>2021-09-14T05:47:30.000Z</time>
      </trkpt>
      <trkpt lat="45.73262" lon="4.82043">
        <ele>173.453902</ele>
        <time>2021-09-14T05:47:36.000Z</time>
      </trkpt>
      <trkpt lat="45.73289" lon="4.82009">
        <ele>173.519281</ele>
        <time>2021-09-14T05:47:44.000Z</time>
      </trkpt>
      <trkpt lat="45.73308" lon="4.81985">
        <ele>173.566132</ele>
        <time>2021-09-14T05:47:49.000Z</time>
      </trkpt>
      <trkpt lat="45.73334" lon="4.81953">
        <ele>173.628462</ele>
        <time>2021-09-14T05:47:55.000Z</time>
      </trkpt>
      <trkpt lat="45.7334" lon="4.81939">
        <ele>173.649717</ele>
        <time>2021-09-14T05:47:57.000Z</time>
      </trkpt>
      <trkpt lat="45.73345" lon="4.81923">
        <ele>173.671382</ele>
        <time>2021-09-14T05:47:59.000Z</time>
      </trkpt>
      <trkpt lat="45.73361" lon="4.81864">
        <ele>173.752838</ele>
        <time>2021-09-14T05:48:07.000Z</time>
      </trkpt>
      <trkpt lat="45.73365" lon="4.81852">
        <ele>173.769583</ele>
        <time>2021-09-14T05:48:10.000Z</time>
      </trkpt>
      <trkpt lat="45.73367" lon="4.81841">
        <ele>173.780383</ele>
        <time>2021-09-14T05:48:13.000Z</time>
      </trkpt>
      <trkpt lat="45.73369" lon="4.81843">
        <ele>173.783279</ele>
        <time>2021-09-14T05:48:20.000Z</time>
      </trkpt>
      <trkpt lat="45.73367" lon="4.8184">
        <ele>173.786148</ele>
        <time>2021-09-14T05:48:29.000Z</time>
      </trkpt>
      <trkpt lat="45.7337" lon="4.81834">
        <ele>173.791094</ele>
        <time>2021-09-14T05:48:31.000Z</time>
      </trkpt>
      <trkpt lat="45.73379" lon="4.81816">
        <ele>173.806979</ele>
        <time>2021-09-14T05:48:36.000Z</time>
      </trkpt>
      <trkpt lat="45.73386" lon="4.81802">
        <ele>173.819606</ele>
        <time>2021-09-14T05:48:40.000Z</time>
      </trkpt>
      <trkpt lat="45.73386" lon="4.81802">
        <ele>173.819606</ele>
        <time>2021-09-14T05:48:42.000Z</time>
      </trkpt>
      <trkpt lat="45.7339" lon="4.81795">
        <ele>173.825252</ele>
        <time>2021-09-14T05:49:00.000Z</time>
      </trkpt>
      <trkpt lat="45.73399" lon="4.81774">
        <ele>173.842928</ele>
        <time>2021-09-14T05:49:04.000Z</time>
      </trkpt>
      <trkpt lat="45.73397" lon="4.81763">
        <ele>173.850554</ele>
        <time>2021-09-14T05:49:06.000Z</time>
      </trkpt>
      <trkpt lat="45.73387" lon="4.81762">
        <ele>173.860857</ele>
        <time>2021-09-14T05:49:08.000Z</time>
      </trkpt>
      <trkpt lat="45.73379" lon="4.81757">
        <ele>173.86991</ele>
        <time>2021-09-14T05:49:10.000Z</time>
      </trkpt>
      <trkpt lat="45.73347" lon="4.81732">
        <ele>173.906656</ele>
        <time>2021-09-14T05:49:17.000Z</time>
      </trkpt>
      <trkpt lat="45.73322" lon="4.81711">
        <ele>173.936328</ele>
        <time>2021-09-14T05:49:23.000Z</time>
      </trkpt>
      <trkpt lat="45.73292" lon="4.81688">
        <ele>174.07521</ele>
        <time>2021-09-14T05:49:30.000Z</time>
      </trkpt>
      <trkpt lat="45.73287" lon="4.81685">
        <ele>174.121118</ele>
        <time>2021-09-14T05:49:31.000Z</time>
      </trkpt>
      <trkpt lat="45.73264" lon="4.81672">
        <ele>174.349149</ele>
        <time>2021-09-14T05:49:36.000Z</time>
      </trkpt>
      <trkpt lat="45.73225" lon="4.81648">
        <ele>174.749274</ele>
        <time>2021-09-14T05:49:44.000Z</time>
      </trkpt>
      <trkpt lat="45.73192" lon="4.81623">
        <ele>175.098286</ele>
        <time>2021-09-14T05:49:51.000Z</time>
      </trkpt>
      <trkpt lat="45.73157" lon="4.81594">
        <ele>175.478817</ele>
        <time>2021-09-14T05:49:59.000Z</time>
      </trkpt>
      <trkpt lat="45.73118" lon="4.81561">
        <ele>175.754005</ele>
        <time>2021-09-14T05:50:08.000Z</time>
      </trkpt>
      <trkpt lat="45.73073" lon="4.81523">
        <ele>175.972806</ele>
        <time>2021-09-14T05:50:17.000Z</time>
      </trkpt>
      <trkpt lat="45.73056" lon="4.8151">
        <ele>176.052352</ele>
        <time>2021-09-14T05:50:20.000Z</time>
      </trkpt>
      <trkpt lat="45.73045" lon="4.81508">
        <ele>176.099841</ele>
        <time>2021-09-14T05:50:22.000Z</time>
      </trkpt>
      <trkpt lat="45.7304" lon="4.81507">
        <ele>176.123412</ele>
        <time>2021-09-14T05:50:23.000Z</time>
      </trkpt>
      <trkpt lat="45.73029" lon="4.8151">
        <ele>176.168652</ele>
        <time>2021-09-14T05:50:25.000Z</time>
      </trkpt>
      <trkpt lat="45.72995" lon="4.81531">
        <ele>176.324327</ele>
        <time>2021-09-14T05:50:32.000Z</time>
      </trkpt>
      <trkpt lat="45.72982" lon="4.81538">
        <ele>176.381654</ele>
        <time>2021-09-14T05:50:36.000Z</time>
      </trkpt>
      <trkpt lat="45.7297" lon="4.81537">
        <ele>176.397769</ele>
        <time>2021-09-14T05:50:40.000Z</time>
      </trkpt>
      <trkpt lat="45.72969" lon="4.81537">
        <ele>176.398589</ele>
        <time>2021-09-14T05:50:45.000Z</time>
      </trkpt>
      <trkpt lat="45.72965" lon="4.81535">
        <ele>176.401188</ele>
        <time>2021-09-14T05:50:49.000Z</time>
      </trkpt>
      <trkpt lat="45.72959" lon="4.81531">
        <ele>176.405032</ele>
        <time>2021-09-14T05:50:51.000Z</time>
      </trkpt>
      <trkpt lat="45.72948" lon="4.81525">
        <ele>176.412637</ele>
        <time>2021-09-14T05:50:54.000Z</time>
      </trkpt>
      <trkpt lat="45.72921" lon="4.81533">
        <ele>176.429531</ele>
        <time>2021-09-14T05:51:01.000Z</time>
      </trkpt>
      <trkpt lat="45.72912" lon="4.81545">
        <ele>176.437172</ele>
        <time>2021-09-14T05:51:06.000Z</time>
      </trkpt>
      <trkpt lat="45.7291" lon="4.81545">
        <ele>176.437872</ele>
        <time>2021-09-14T05:51:09.000Z</time>
      </trkpt>
      <trkpt lat="45.72916" lon="4.81541">
        <ele>176.441492</ele>
        <time>2021-09-14T05:51:14.000Z</time>
      </trkpt>
      <trkpt lat="45.72915" lon="4.81546">
        <ele>176.443453</ele>
        <time>2021-09-14T05:51:47.000Z</time>
      </trkpt>
      <trkpt lat="45.72915" lon="4.8155">
        <ele>176.445192</ele>
        <time>2021-09-14T05:51:48.000Z</time>
      </trkpt>
      <trkpt lat="45.72906" lon="4.81575">
        <ele>176.457186</ele>
        <time>2021-09-14T05:51:53.000Z</time>
      </trkpt>
      <trkpt lat="45.72899" lon="4.81578">
        <ele>176.461988</ele>
        <time>2021-09-14T05:51:55.000Z</time>
      </trkpt>
      <trkpt lat="45.7289" lon="4.81582">
        <ele>176.467904</ele>
        <time>2021-09-14T05:51:57.000Z</time>
      </trkpt>
      <trkpt lat="45.7286" lon="4.81594">
        <ele>176.486933</ele>
        <time>2021-09-14T05:52:02.000Z</time>
      </trkpt>
      <trkpt lat="45.72824" lon="4.81606">
        <ele>176.254652</ele>
        <time>2021-09-14T05:52:07.000Z</time>
      </trkpt>
      <trkpt lat="45.72783" lon="4.81618">
        <ele>175.367349</ele>
        <time>2021-09-14T05:52:13.000Z</time>
      </trkpt>
      <trkpt lat="45.72768" lon="4.81621">
        <ele>175.050089</ele>
        <time>2021-09-14T05:52:15.000Z</time>
      </trkpt>
      <trkpt lat="45.72746" lon="4.81616">
        <ele>174.58607</ele>
        <time>2021-09-14T05:52:18.000Z</time>
      </trkpt>
      <trkpt lat="45.72734" lon="4.81611">
        <ele>174.313808</ele>
        <time>2021-09-14T05:52:20.000Z</time>
      </trkpt>
      <trkpt lat="45.72723" lon="4.81616">
        <ele>174.071211</ele>
        <time>2021-09-14T05:52:22.000Z</time>
      </trkpt>
      <trkpt lat="45.72715" lon="4.81623">
        <ele>173.878104</ele>
        <time>2021-09-14T05:52:24.000Z</time>
      </trkpt>
      <trkpt lat="45.72704" lon="4.81625">
        <ele>173.642473</ele>
        <time>2021-09-14T05:52:26.000Z</time>
      </trkpt>
      <trkpt lat="45.72693" lon="4.81627">
        <ele>173.400548</ele>
        <time>2021-09-14T05:52:28.000Z</time>
      </trkpt>
      <trkpt lat="45.72675" lon="4.8163">
        <ele>173.014334</ele>
        <time>2021-09-14T05:52:31.000Z</time>
      </trkpt>
      <trkpt lat="45.72663" lon="4.81631">
        <ele>172.752909</ele>
        <time>2021-09-14T05:52:33.000Z</time>
      </trkpt>
      <trkpt lat="45.7265" lon="4.81633">
        <ele>172.359502</ele>
        <time>2021-09-14T05:52:35.000Z</time>
      </trkpt>
      <trkpt lat="45.72644" lon="4.81635">
        <ele>172.152098</ele>
        <time>2021-09-14T05:52:36.000Z</time>
      </trkpt>
      <trkpt lat="45.72621" lon="4.81642">
        <ele>171.295069</ele>
        <time>2021-09-14T05:52:40.000Z</time>
      </trkpt>
      <trkpt lat="45.72609" lon="4.81647">
        <ele>170.878881</ele>
        <time>2021-09-14T05:52:42.000Z</time>
      </trkpt>
      <trkpt lat="45.72581" lon="4.8166">
        <ele>169.849436</ele>
        <time>2021-09-14T05:52:47.000Z</time>
      </trkpt>
      <trkpt lat="45.72554" lon="4.81668">
        <ele>168.87818</ele>
        <time>2021-09-14T05:52:52.000Z</time>
      </trkpt>
      <trkpt lat="45.72549" lon="4.8167">
        <ele>168.685927</ele>
        <time>2021-09-14T05:52:53.000Z</time>
      </trkpt>
      <trkpt lat="45.72532" lon="4.81681">
        <ele>168.031499</ele>
        <time>2021-09-14T05:52:56.000Z</time>
      </trkpt>
      <trkpt lat="45.72503" lon="4.81688">
        <ele>166.987754</ele>
        <time>2021-09-14T05:53:01.000Z</time>
      </trkpt>
      <trkpt lat="45.7248" lon="4.81693">
        <ele>166.255362</ele>
        <time>2021-09-14T05:53:05.000Z</time>
      </trkpt>
      <trkpt lat="45.72468" lon="4.81696">
        <ele>166.02129</ele>
        <time>2021-09-14T05:53:07.000Z</time>
      </trkpt>
      <trkpt lat="45.72437" lon="4.81705">
        <ele>165.416345</ele>
        <time>2021-09-14T05:53:12.000Z</time>
      </trkpt>
      <trkpt lat="45.72384" lon="4.81717">
        <ele>164.384482</ele>
        <time>2021-09-14T05:53:20.000Z</time>
      </trkpt>
      <trkpt lat="45.7234" lon="4.81727">
        <ele>163.510571</ele>
        <time>2021-09-14T05:53:27.000Z</time>
      </trkpt>
      <trkpt lat="45.72286" lon="4.81739">
        <ele>162.764216</ele>
        <time>2021-09-14T05:53:35.000Z</time>
      </trkpt>
      <trkpt lat="45.72279" lon="4.8174">
        <ele>162.726496</ele>
        <time>2021-09-14T05:53:36.000Z</time>
      </trkpt>
      <trkpt lat="45.72221" lon="4.81754">
        <ele>162.383831</ele>
        <time>2021-09-14T05:53:45.000Z</time>
      </trkpt>
      <trkpt lat="45.72215" lon="4.81755">
        <ele>162.344898</ele>
        <time>2021-09-14T05:53:46.000Z</time>
      </trkpt>
      <trkpt lat="45.72175" lon="4.81764">
        <ele>162.111361</ele>
        <time>2021-09-14T05:53:52.000Z</time>
      </trkpt>
      <trkpt lat="45.72123" lon="4.81776">
        <ele>161.809773</ele>
        <time>2021-09-14T05:54:00.000Z</time>
      </trkpt>
      <trkpt lat="45.72073" lon="4.81787">
        <ele>161.55345</ele>
        <time>2021-09-14T05:54:08.000Z</time>
      </trkpt>
      <trkpt lat="45.72021" lon="4.81799">
        <ele>161.287977</ele>
        <time>2021-09-14T05:54:16.000Z</time>
      </trkpt>
      <trkpt lat="45.71988" lon="4.81811">
        <ele>161.113328</ele>
        <time>2021-09-14T05:54:21.000Z</time>
      </trkpt>
      <trkpt lat="45.71934" lon="4.81822">
        <ele>160.955809</ele>
        <time>2021-09-14T05:54:29.000Z</time>
      </trkpt>
      <trkpt lat="45.71914" lon="4.81826">
        <ele>160.973541</ele>
        <time>2021-09-14T05:54:32.000Z</time>
      </trkpt>
      <trkpt lat="45.71904" lon="4.81828">
        <ele>160.983151</ele>
        <time>2021-09-14T05:54:34.000Z</time>
      </trkpt>
      <trkpt lat="45.71897" lon="4.81829">
        <ele>160.989086</ele>
        <time>2021-09-14T05:54:36.000Z</time>
      </trkpt>
      <trkpt lat="45.71896" lon="4.8183">
        <ele>160.990458</ele>
        <time>2021-09-14T05:54:37.000Z</time>
      </trkpt>
      <trkpt lat="45.71894" lon="4.81826">
        <ele>160.99295</ele>
        <time>2021-09-14T05:54:39.000Z</time>
      </trkpt>
      <trkpt lat="45.71892" lon="4.81831">
        <ele>160.995965</ele>
        <time>2021-09-14T05:54:42.000Z</time>
      </trkpt>
      <trkpt lat="45.71881" lon="4.81834">
        <ele>161.006131</ele>
        <time>2021-09-14T05:54:46.000Z</time>
      </trkpt>
      <trkpt lat="45.71852" lon="4.8184">
        <ele>161.032558</ele>
        <time>2021-09-14T05:54:52.000Z</time>
      </trkpt>
      <trkpt lat="45.71842" lon="4.81845">
        <ele>161.042897</ele>
        <time>2021-09-14T05:54:54.000Z</time>
      </trkpt>
      <trkpt lat="45.71825" lon="4.81849">
        <ele>161.058578</ele>
        <time>2021-09-14T05:54:57.000Z</time>
      </trkpt>
      <trkpt lat="45.71787" lon="4.81858">
        <ele>161.093349</ele>
        <time>2021-09-14T05:55:04.000Z</time>
      </trkpt>
      <trkpt lat="45.71782" lon="4.81859">
        <ele>161.097841</ele>
        <time>2021-09-14T05:55:05.000Z</time>
      </trkpt>
      <trkpt lat="45.71776" lon="4.8186">
        <ele>161.102023</ele>
        <time>2021-09-14T05:55:06.000Z</time>
      </trkpt>
      <trkpt lat="45.71759" lon="4.81864">
        <ele>161.113044</ele>
        <time>2021-09-14T05:55:09.000Z</time>
      </trkpt>
      <trkpt lat="45.71714" lon="4.81874">
        <ele>161.140811</ele>
        <time>2021-09-14T05:55:16.000Z</time>
      </trkpt>
      <trkpt lat="45.717" lon="4.81878">
        <ele>161.149127</ele>
        <time>2021-09-14T05:55:18.000Z</time>
      </trkpt>
      <trkpt lat="45.71687" lon="4.81881">
        <ele>161.157632</ele>
        <time>2021-09-14T05:55:20.000Z</time>
      </trkpt>
      <trkpt lat="45.7168" lon="4.81883">
        <ele>161.161908</ele>
        <time>2021-09-14T05:55:21.000Z</time>
      </trkpt>
      <trkpt lat="45.7164" lon="4.81892">
        <ele>161.186641</ele>
        <time>2021-09-14T05:55:27.000Z</time>
      </trkpt>
      <trkpt lat="45.71601" lon="4.81901">
        <ele>161.211512</ele>
        <time>2021-09-14T05:55:33.000Z</time>
      </trkpt>
      <trkpt lat="45.71567" lon="4.81908">
        <ele>161.261442</ele>
        <time>2021-09-14T05:55:38.000Z</time>
      </trkpt>
      <trkpt lat="45.7152" lon="4.81918">
        <ele>161.33105</ele>
        <time>2021-09-14T05:55:45.000Z</time>
      </trkpt>
      <trkpt lat="45.7149" lon="4.81925">
        <ele>161.374599</ele>
        <time>2021-09-14T05:55:50.000Z</time>
      </trkpt>
      <trkpt lat="45.71445" lon="4.81934">
        <ele>161.441989</ele>
        <time>2021-09-14T05:55:58.000Z</time>
      </trkpt>
      <trkpt lat="45.71434" lon="4.81937">
        <ele>161.45755</ele>
        <time>2021-09-14T05:56:00.000Z</time>
      </trkpt>
      <trkpt lat="45.71427" lon="4.81938">
        <ele>161.468948</ele>
        <time>2021-09-14T05:56:02.000Z</time>
      </trkpt>
      <trkpt lat="45.71421" lon="4.81939">
        <ele>161.494566</ele>
        <time>2021-09-14T05:56:05.000Z</time>
      </trkpt>
      <trkpt lat="45.71421" lon="4.81939">
        <ele>161.494566</ele>
        <time>2021-09-14T05:56:07.000Z</time>
      </trkpt>
      <trkpt lat="45.71418" lon="4.8194">
        <ele>161.516162</ele>
        <time>2021-09-14T05:56:12.000Z</time>
      </trkpt>
      <trkpt lat="45.71415" lon="4.81941">
        <ele>161.539321</ele>
        <time>2021-09-14T05:56:13.000Z</time>
      </trkpt>
      <trkpt lat="45.71407" lon="4.81942">
        <ele>161.600037</ele>
        <time>2021-09-14T05:56:15.000Z</time>
      </trkpt>
      <trkpt lat="45.71398" lon="4.81944">
        <ele>161.676795</ele>
        <time>2021-09-14T05:56:17.000Z</time>
      </trkpt>
      <trkpt lat="45.71382" lon="4.81948">
        <ele>161.8016</ele>
        <time>2021-09-14T05:56:20.000Z</time>
      </trkpt>
      <trkpt lat="45.71366" lon="4.81952">
        <ele>161.928516</ele>
        <time>2021-09-14T05:56:23.000Z</time>
      </trkpt>
      <trkpt lat="45.7133" lon="4.8196">
        <ele>162.216463</ele>
        <time>2021-09-14T05:56:29.000Z</time>
      </trkpt>
      <trkpt lat="45.71287" lon="4.8197">
        <ele>162.568252</ele>
        <time>2021-09-14T05:56:36.000Z</time>
      </trkpt>
      <trkpt lat="45.71227" lon="4.81983">
        <ele>163.0068</ele>
        <time>2021-09-14T05:56:45.000Z</time>
      </trkpt>
      <trkpt lat="45.71173" lon="4.81993">
        <ele>163.317405</ele>
        <time>2021-09-14T05:56:53.000Z</time>
      </trkpt>
      <trkpt lat="45.71167" lon="4.81993">
        <ele>163.353781</ele>
        <time>2021-09-14T05:56:54.000Z</time>
      </trkpt>
      <trkpt lat="45.71148" lon="4.81996">
        <ele>163.461563</ele>
        <time>2021-09-14T05:56:57.000Z</time>
      </trkpt>
      <trkpt lat="45.71136" lon="4.81999">
        <ele>163.534504</ele>
        <time>2021-09-14T05:56:59.000Z</time>
      </trkpt>
      <trkpt lat="45.71084" lon="4.82011">
        <ele>163.837283</ele>
        <time>2021-09-14T05:57:07.000Z</time>
      </trkpt>
      <trkpt lat="45.71035" lon="4.82027">
        <ele>164.416139</ele>
        <time>2021-09-14T05:57:15.000Z</time>
      </trkpt>
      <trkpt lat="45.71001" lon="4.82046">
        <ele>164.941363</ele>
        <time>2021-09-14T05:57:21.000Z</time>
      </trkpt>
      <trkpt lat="45.70996" lon="4.82049">
        <ele>165.026809</ele>
        <time>2021-09-14T05:57:22.000Z</time>
      </trkpt>
      <trkpt lat="45.70977" lon="4.82063">
        <ele>165.33288</ele>
        <time>2021-09-14T05:57:26.000Z</time>
      </trkpt>
      <trkpt lat="45.70947" lon="4.82084">
        <ele>165.824222</ele>
        <time>2021-09-14T05:57:33.000Z</time>
      </trkpt>
      <trkpt lat="45.70943" lon="4.82087">
        <ele>165.887444</ele>
        <time>2021-09-14T05:57:34.000Z</time>
      </trkpt>
      <trkpt lat="45.70939" lon="4.8209">
        <ele>165.950666</ele>
        <time>2021-09-14T05:57:35.000Z</time>
      </trkpt>
      <trkpt lat="45.70926" lon="4.821">
        <ele>166.169096</ele>
        <time>2021-09-14T05:57:39.000Z</time>
      </trkpt>
      <trkpt lat="45.70902" lon="4.82116">
        <ele>166.542369</ele>
        <time>2021-09-14T05:57:47.000Z</time>
      </trkpt>
      <trkpt lat="45.70878" lon="4.82129">
        <ele>166.761589</ele>
        <time>2021-09-14T05:57:55.000Z</time>
      </trkpt>
      <trkpt lat="45.70856" lon="4.82135">
        <ele>166.954877</ele>
        <time>2021-09-14T05:58:01.000Z</time>
      </trkpt>
      <trkpt lat="45.70824" lon="4.82141">
        <ele>167.233629</ele>
        <time>2021-09-14T05:58:08.000Z</time>
      </trkpt>
      <trkpt lat="45.70808" lon="4.82143">
        <ele>167.372956</ele>
        <time>2021-09-14T05:58:11.000Z</time>
      </trkpt>
      <trkpt lat="45.7079" lon="4.82141">
        <ele>167.527719</ele>
        <time>2021-09-14T05:58:14.000Z</time>
      </trkpt>
      <trkpt lat="45.70762" lon="4.82136">
        <ele>167.769128</ele>
        <time>2021-09-14T05:58:19.000Z</time>
      </trkpt>
      <trkpt lat="45.70755" lon="4.82134">
        <ele>167.828536</ele>
        <time>2021-09-14T05:58:21.000Z</time>
      </trkpt>
      <trkpt lat="45.70753" lon="4.82133">
        <ele>167.84786</ele>
        <time>2021-09-14T05:58:22.000Z</time>
      </trkpt>
      <trkpt lat="45.70751" lon="4.82133">
        <ele>167.860943</ele>
        <time>2021-09-14T05:58:25.000Z</time>
      </trkpt>
      <trkpt lat="45.70747" lon="4.82131">
        <ele>167.896826</ele>
        <time>2021-09-14T05:58:37.000Z</time>
      </trkpt>
      <trkpt lat="45.70733" lon="4.82127">
        <ele>168.02237</ele>
        <time>2021-09-14T05:58:41.000Z</time>
      </trkpt>
      <trkpt lat="45.70729" lon="4.82125">
        <ele>168.062276</ele>
        <time>2021-09-14T05:58:42.000Z</time>
      </trkpt>
      <trkpt lat="45.70714" lon="4.8212">
        <ele>168.128135</ele>
        <time>2021-09-14T05:58:45.000Z</time>
      </trkpt>
      <trkpt lat="45.70686" lon="4.82112">
        <ele>168.231582</ele>
        <time>2021-09-14T05:58:50.000Z</time>
      </trkpt>
      <trkpt lat="45.70642" lon="4.82102">
        <ele>168.393791</ele>
        <time>2021-09-14T05:58:57.000Z</time>
      </trkpt>
      <trkpt lat="45.70596" lon="4.82089">
        <ele>168.563621</ele>
        <time>2021-09-14T05:59:05.000Z</time>
      </trkpt>
      <trkpt lat="45.70569" lon="4.82082">
        <ele>168.663873</ele>
        <time>2021-09-14T05:59:11.000Z</time>
      </trkpt>
      <trkpt lat="45.70542" lon="4.82073">
        <ele>168.817201</ele>
        <time>2021-09-14T05:59:19.000Z</time>
      </trkpt>
      <trkpt lat="45.70534" lon="4.82071">
        <ele>168.894243</ele>
        <time>2021-09-14T05:59:21.000Z</time>
      </trkpt>
      <trkpt lat="45.7052" lon="4.82069">
        <ele>169.029231</ele>
        <time>2021-09-14T05:59:24.000Z</time>
      </trkpt>
      <trkpt lat="45.70487" lon="4.82064">
        <ele>169.356858</ele>
        <time>2021-09-14T05:59:30.000Z</time>
      </trkpt>
      <trkpt lat="45.70451" lon="4.82064">
        <ele>169.708137</ele>
        <time>2021-09-14T05:59:36.000Z</time>
      </trkpt>
      <trkpt lat="45.70398" lon="4.82068">
        <ele>170.230749</ele>
        <time>2021-09-14T05:59:45.000Z</time>
      </trkpt>
      <trkpt lat="45.70392" lon="4.82069">
        <ele>170.286945</ele>
        <time>2021-09-14T05:59:46.000Z</time>
      </trkpt>
      <trkpt lat="45.70367" lon="4.82075">
        <ele>170.532117</ele>
        <time>2021-09-14T05:59:51.000Z</time>
      </trkpt>
      <trkpt lat="45.70349" lon="4.82082">
        <ele>170.6753</ele>
        <time>2021-09-14T05:59:56.000Z</time>
      </trkpt>
      <trkpt lat="45.70346" lon="4.82083">
        <ele>170.69415</ele>
        <time>2021-09-14T06:00:00.000Z</time>
      </trkpt>
      <trkpt lat="45.70342" lon="4.82084">
        <ele>170.724974</ele>
        <time>2021-09-14T06:00:05.000Z</time>
      </trkpt>
      <trkpt lat="45.70342" lon="4.82084">
        <ele>170.724974</ele>
        <time>2021-09-14T06:00:06.000Z</time>
      </trkpt>
      <trkpt lat="45.70317" lon="4.82094">
        <ele>170.922052</ele>
        <time>2021-09-14T06:00:11.000Z</time>
      </trkpt>
      <trkpt lat="45.70279" lon="4.82113">
        <ele>171.232213</ele>
        <time>2021-09-14T06:00:18.000Z</time>
      </trkpt>
      <trkpt lat="45.70231" lon="4.82146">
        <ele>171.635173</ele>
        <time>2021-09-14T06:00:26.000Z</time>
      </trkpt>
      <trkpt lat="45.70182" lon="4.8218">
        <ele>171.88065</ele>
        <time>2021-09-14T06:00:34.000Z</time>
      </trkpt>
      <trkpt lat="45.70176" lon="4.82184">
        <ele>171.884751</ele>
        <time>2021-09-14T06:00:35.000Z</time>
      </trkpt>
      <trkpt lat="45.70136" lon="4.82213">
        <ele>171.911597</ele>
        <time>2021-09-14T06:00:42.000Z</time>
      </trkpt>
      <trkpt lat="45.70124" lon="4.82221">
        <ele>171.919297</ele>
        <time>2021-09-14T06:00:44.000Z</time>
      </trkpt>
      <trkpt lat="45.70102" lon="4.82237">
        <ele>171.933964</ele>
        <time>2021-09-14T06:00:48.000Z</time>
      </trkpt>
      <trkpt lat="45.70068" lon="4.82261">
        <ele>171.956816</ele>
        <time>2021-09-14T06:00:55.000Z</time>
      </trkpt>
      <trkpt lat="45.70058" lon="4.82268">
        <ele>171.963014</ele>
        <time>2021-09-14T06:00:57.000Z</time>
      </trkpt>
      <trkpt lat="45.70043" lon="4.82278">
        <ele>171.972811</ele>
        <time>2021-09-14T06:01:00.000Z</time>
      </trkpt>
      <trkpt lat="45.69997" lon="4.82309">
        <ele>171.627338</ele>
        <time>2021-09-14T06:01:09.000Z</time>
      </trkpt>
      <trkpt lat="45.69949" lon="4.82342">
        <ele>171.266121</ele>
        <time>2021-09-14T06:01:18.000Z</time>
      </trkpt>
      <trkpt lat="45.69905" lon="4.82373">
        <ele>170.928332</ele>
        <time>2021-09-14T06:01:26.000Z</time>
      </trkpt>
      <trkpt lat="45.69854" lon="4.82408">
        <ele>170.475768</ele>
        <time>2021-09-14T06:01:35.000Z</time>
      </trkpt>
      <trkpt lat="45.69805" lon="4.82443">
        <ele>169.983731</ele>
        <time>2021-09-14T06:01:44.000Z</time>
      </trkpt>
      <trkpt lat="45.69756" lon="4.82479">
        <ele>169.485768</ele>
        <time>2021-09-14T06:01:53.000Z</time>
      </trkpt>
      <trkpt lat="45.69712" lon="4.8251">
        <ele>169.053177</ele>
        <time>2021-09-14T06:02:01.000Z</time>
      </trkpt>
      <trkpt lat="45.69665" lon="4.82543">
        <ele>168.676959</ele>
        <time>2021-09-14T06:02:09.000Z</time>
      </trkpt>
      <trkpt lat="45.69613" lon="4.8258">
        <ele>168.252236</ele>
        <time>2021-09-14T06:02:18.000Z</time>
      </trkpt>
      <trkpt lat="45.69561" lon="4.82614">
        <ele>167.836674</ele>
        <time>2021-09-14T06:02:27.000Z</time>
      </trkpt>
      <trkpt lat="45.69555" lon="4.82617">
        <ele>167.804291</ele>
        <time>2021-09-14T06:02:28.000Z</time>
      </trkpt>
      <trkpt lat="45.6954" lon="4.82619">
        <ele>167.814063</ele>
        <time>2021-09-14T06:02:30.000Z</time>
      </trkpt>
      <trkpt lat="45.69528" lon="4.82604">
        <ele>167.823978</ele>
        <time>2021-09-14T06:02:33.000Z</time>
      </trkpt>
      <trkpt lat="45.69523" lon="4.82602">
        <ele>167.827178</ele>
        <time>2021-09-14T06:02:34.000Z</time>
      </trkpt>
      <trkpt lat="45.69518" lon="4.82601">
        <ele>167.830982</ele>
        <time>2021-09-14T06:02:35.000Z</time>
      </trkpt>
      <trkpt lat="45.69513" lon="4.82602">
        <ele>167.8341</ele>
        <time>2021-09-14T06:02:37.000Z</time>
      </trkpt>
      <trkpt lat="45.69507" lon="4.82605">
        <ele>167.837885</ele>
        <time>2021-09-14T06:02:41.000Z</time>
      </trkpt>
      <trkpt lat="45.69493" lon="4.82629">
        <ele>167.851744</ele>
        <time>2021-09-14T06:02:43.000Z</time>
      </trkpt>
      <trkpt lat="45.69492" lon="4.82643">
        <ele>167.857905</ele>
        <time>2021-09-14T06:02:44.000Z</time>
      </trkpt>
      <trkpt lat="45.69485" lon="4.82662">
        <ele>167.866997</ele>
        <time>2021-09-14T06:02:46.000Z</time>
      </trkpt>
      <trkpt lat="45.69479" lon="4.82668">
        <ele>167.871842</ele>
        <time>2021-09-14T06:02:48.000Z</time>
      </trkpt>
      <trkpt lat="45.69475" lon="4.82673">
        <ele>167.874914</ele>
        <time>2021-09-14T06:02:49.000Z</time>
      </trkpt>
      <trkpt lat="45.69464" lon="4.82687">
        <ele>167.884664</ele>
        <time>2021-09-14T06:02:52.000Z</time>
      </trkpt>
      <trkpt lat="45.69435" lon="4.82721">
        <ele>167.907907</ele>
        <time>2021-09-14T06:03:00.000Z</time>
      </trkpt>
      <trkpt lat="45.69399" lon="4.82747">
        <ele>167.887612</ele>
        <time>2021-09-14T06:03:09.000Z</time>
      </trkpt>
      <trkpt lat="45.6937" lon="4.82768">
        <ele>167.852767</ele>
        <time>2021-09-14T06:03:16.000Z</time>
      </trkpt>
      <trkpt lat="45.69353" lon="4.82782">
        <ele>167.8316</ele>
        <time>2021-09-14T06:03:20.000Z</time>
      </trkpt>
      <trkpt lat="45.69349" lon="4.82787">
        <ele>167.826146</ele>
        <time>2021-09-14T06:03:21.000Z</time>
      </trkpt>
      <trkpt lat="45.69344" lon="4.828">
        <ele>167.814953</ele>
        <time>2021-09-14T06:03:23.000Z</time>
      </trkpt>
      <trkpt lat="45.69337" lon="4.82806">
        <ele>167.805702</ele>
        <time>2021-09-14T06:03:25.000Z</time>
      </trkpt>
      <trkpt lat="45.6933" lon="4.82811">
        <ele>167.797681</ele>
        <time>2021-09-14T06:03:27.000Z</time>
      </trkpt>
      <trkpt lat="45.69322" lon="4.82811">
        <ele>167.788698</ele>
        <time>2021-09-14T06:03:29.000Z</time>
      </trkpt>
      <trkpt lat="45.69308" lon="4.82804">
        <ele>167.77298</ele>
        <time>2021-09-14T06:03:32.000Z</time>
      </trkpt>
      <trkpt lat="45.693" lon="4.82794">
        <ele>167.761537</ele>
        <time>2021-09-14T06:03:34.000Z</time>
      </trkpt>
      <trkpt lat="45.69292" lon="4.82783">
        <ele>167.748854</ele>
        <time>2021-09-14T06:03:36.000Z</time>
      </trkpt>
      <trkpt lat="45.69286" lon="4.82781">
        <ele>167.742361</ele>
        <time>2021-09-14T06:03:37.000Z</time>
      </trkpt>
      <trkpt lat="45.69247" lon="4.82772">
        <ele>167.810419</ele>
        <time>2021-09-14T06:03:43.000Z</time>
      </trkpt>
      <trkpt lat="45.692" lon="4.8276">
        <ele>168.015734</ele>
        <time>2021-09-14T06:03:50.000Z</time>
      </trkpt>
      <trkpt lat="45.69155" lon="4.82744">
        <ele>168.215248</ele>
        <time>2021-09-14T06:03:57.000Z</time>
      </trkpt>
      <trkpt lat="45.69111" lon="4.82729">
        <ele>168.407735</ele>
        <time>2021-09-14T06:04:04.000Z</time>
      </trkpt>
      <trkpt lat="45.69058" lon="4.82713">
        <ele>168.604817</ele>
        <time>2021-09-14T06:04:13.000Z</time>
      </trkpt>
      <trkpt lat="45.69047" lon="4.82716">
        <ele>168.643123</ele>
        <time>2021-09-14T06:04:15.000Z</time>
      </trkpt>
      <trkpt lat="45.69043" lon="4.82721">
        <ele>168.660864</ele>
        <time>2021-09-14T06:04:16.000Z</time>
      </trkpt>
      <trkpt lat="45.69025" lon="4.82744">
        <ele>168.73744</ele>
        <time>2021-09-14T06:04:21.000Z</time>
      </trkpt>
      <trkpt lat="45.69019" lon="4.82745">
        <ele>168.755692</ele>
        <time>2021-09-14T06:04:22.000Z</time>
      </trkpt>
      <trkpt lat="45.69015" lon="4.82745">
        <ele>168.76995</ele>
        <time>2021-09-14T06:04:23.000Z</time>
      </trkpt>
      <trkpt lat="45.69006" lon="4.82742">
        <ele>168.799148</ele>
        <time>2021-09-14T06:04:25.000Z</time>
      </trkpt>
      <trkpt lat="45.69002" lon="4.8273">
        <ele>168.830562</ele>
        <time>2021-09-14T06:04:27.000Z</time>
      </trkpt>
      <trkpt lat="45.68997" lon="4.82717">
        <ele>168.863673</ele>
        <time>2021-09-14T06:04:29.000Z</time>
      </trkpt>
      <trkpt lat="45.68993" lon="4.82711">
        <ele>168.880932</ele>
        <time>2021-09-14T06:04:30.000Z</time>
      </trkpt>
      <trkpt lat="45.68984" lon="4.82703">
        <ele>168.917651</ele>
        <time>2021-09-14T06:04:32.000Z</time>
      </trkpt>
      <trkpt lat="45.68949" lon="4.82685">
        <ele>169.036046</ele>
        <time>2021-09-14T06:04:38.000Z</time>
      </trkpt>
      <trkpt lat="45.68943" lon="4.82683">
        <ele>169.055177</ele>
        <time>2021-09-14T06:04:39.000Z</time>
      </trkpt>
      <trkpt lat="45.68906" lon="4.82679">
        <ele>169.005069</ele>
        <time>2021-09-14T06:04:45.000Z</time>
      </trkpt>
      <trkpt lat="45.68868" lon="4.82679">
        <ele>168.919493</ele>
        <time>2021-09-14T06:04:51.000Z</time>
      </trkpt>
      <trkpt lat="45.68863" lon="4.82682">
        <ele>168.906867</ele>
        <time>2021-09-14T06:04:52.000Z</time>
      </trkpt>
      <trkpt lat="45.68858" lon="4.82685">
        <ele>168.894318</ele>
        <time>2021-09-14T06:04:53.000Z</time>
      </trkpt>
      <trkpt lat="45.68851" lon="4.82696">
        <ele>168.871739</ele>
        <time>2021-09-14T06:04:55.000Z</time>
      </trkpt>
      <trkpt lat="45.68842" lon="4.82696">
        <ele>168.851326</ele>
        <time>2021-09-14T06:04:57.000Z</time>
      </trkpt>
      <trkpt lat="45.68838" lon="4.82695">
        <ele>168.840403</ele>
        <time>2021-09-14T06:04:58.000Z</time>
      </trkpt>
      <trkpt lat="45.68834" lon="4.82691">
        <ele>168.829221</ele>
        <time>2021-09-14T06:04:59.000Z</time>
      </trkpt>
      <trkpt lat="45.68827" lon="4.8268">
        <ele>168.806045</ele>
        <time>2021-09-14T06:05:01.000Z</time>
      </trkpt>
      <trkpt lat="45.68805" lon="4.82675">
        <ele>168.754973</ele>
        <time>2021-09-14T06:05:05.000Z</time>
      </trkpt>
      <trkpt lat="45.68769" lon="4.82675">
        <ele>168.67215</ele>
        <time>2021-09-14T06:05:11.000Z</time>
      </trkpt>
      <trkpt lat="45.68728" lon="4.82676">
        <ele>168.183531</ele>
        <time>2021-09-14T06:05:17.000Z</time>
      </trkpt>
      <trkpt lat="45.68685" lon="4.82683">
        <ele>167.626748</ele>
        <time>2021-09-14T06:05:23.000Z</time>
      </trkpt>
      <trkpt lat="45.68631" lon="4.82692">
        <ele>166.92035</ele>
        <time>2021-09-14T06:05:31.000Z</time>
      </trkpt>
      <trkpt lat="45.68605" lon="4.82697">
        <ele>166.583495</ele>
        <time>2021-09-14T06:05:35.000Z</time>
      </trkpt>
      <trkpt lat="45.68595" lon="4.82705">
        <ele>166.442143</ele>
        <time>2021-09-14T06:05:37.000Z</time>
      </trkpt>
      <trkpt lat="45.68581" lon="4.82709">
        <ele>166.297984</ele>
        <time>2021-09-14T06:05:40.000Z</time>
      </trkpt>
      <trkpt lat="45.68577" lon="4.82711">
        <ele>166.260161</ele>
        <time>2021-09-14T06:05:41.000Z</time>
      </trkpt>
      <trkpt lat="45.68567" lon="4.82711">
        <ele>166.180584</ele>
        <time>2021-09-14T06:05:43.000Z</time>
      </trkpt>
      <trkpt lat="45.68557" lon="4.82712">
        <ele>166.102749</ele>
        <time>2021-09-14T06:05:45.000Z</time>
      </trkpt>
      <trkpt lat="45.6853" lon="4.82726">
        <ele>165.873169</ele>
        <time>2021-09-14T06:05:50.000Z</time>
      </trkpt>
      <trkpt lat="45.68514" lon="4.82736">
        <ele>165.735284</ele>
        <time>2021-09-14T06:05:53.000Z</time>
      </trkpt>
      <trkpt lat="45.68505" lon="4.82748">
        <ele>165.637416</ele>
        <time>2021-09-14T06:05:55.000Z</time>
      </trkpt>
      <trkpt lat="45.685" lon="4.82755">
        <ele>165.58222</ele>
        <time>2021-09-14T06:05:56.000Z</time>
      </trkpt>
      <trkpt lat="45.68489" lon="4.82762">
        <ele>165.488786</ele>
        <time>2021-09-14T06:05:58.000Z</time>
      </trkpt>
      <trkpt lat="45.68481" lon="4.82769">
        <ele>165.410903</ele>
        <time>2021-09-14T06:06:00.000Z</time>
      </trkpt>
      <trkpt lat="45.68477" lon="4.82775">
        <ele>165.365969</ele>
        <time>2021-09-14T06:06:01.000Z</time>
      </trkpt>
      <trkpt lat="45.68469" lon="4.8278">
        <ele>165.29664</ele>
        <time>2021-09-14T06:06:03.000Z</time>
      </trkpt>
      <trkpt lat="45.68465" lon="4.82779">
        <ele>165.267067</ele>
        <time>2021-09-14T06:06:04.000Z</time>
      </trkpt>
      <trkpt lat="45.68452" lon="4.8278">
        <ele>165.164493</ele>
        <time>2021-09-14T06:06:07.000Z</time>
      </trkpt>
      <trkpt lat="45.68449" lon="4.82776">
        <ele>165.131114</ele>
        <time>2021-09-14T06:06:08.000Z</time>
      </trkpt>
      <trkpt lat="45.68445" lon="4.82768">
        <ele>165.072439</ele>
        <time>2021-09-14T06:06:11.000Z</time>
      </trkpt>
      <trkpt lat="45.68445" lon="4.82766">
        <ele>165.064631</ele>
        <time>2021-09-14T06:06:12.000Z</time>
      </trkpt>
      <trkpt lat="45.68446" lon="4.82759">
        <ele>165.025396</ele>
        <time>2021-09-14T06:06:16.000Z</time>
      </trkpt>
      <trkpt lat="45.68446" lon="4.82755">
        <ele>165.003202</ele>
        <time>2021-09-14T06:06:17.000Z</time>
      </trkpt>
      <trkpt lat="45.68441" lon="4.82749">
        <ele>164.953022</ele>
        <time>2021-09-14T06:06:19.000Z</time>
      </trkpt>
      <trkpt lat="45.68429" lon="4.82758">
        <ele>164.893825</ele>
        <time>2021-09-14T06:06:22.000Z</time>
      </trkpt>
      <trkpt lat="45.68398" lon="4.82773">
        <ele>164.791242</ele>
        <time>2021-09-14T06:06:28.000Z</time>
      </trkpt>
      <trkpt lat="45.68353" lon="4.82797">
        <ele>164.640809</ele>
        <time>2021-09-14T06:06:36.000Z</time>
      </trkpt>
      <trkpt lat="45.68303" lon="4.82825">
        <ele>164.470263</ele>
        <time>2021-09-14T06:06:45.000Z</time>
      </trkpt>
      <trkpt lat="45.68259" lon="4.82854">
        <ele>164.224183</ele>
        <time>2021-09-14T06:06:53.000Z</time>
      </trkpt>
      <trkpt lat="45.68231" lon="4.82872">
        <ele>163.915383</ele>
        <time>2021-09-14T06:06:58.000Z</time>
      </trkpt>
      <trkpt lat="45.68226" lon="4.82876">
        <ele>163.852646</ele>
        <time>2021-09-14T06:07:00.000Z</time>
      </trkpt>
      <trkpt lat="45.68209" lon="4.82886">
        <ele>163.672389</ele>
        <time>2021-09-14T06:07:02.000Z</time>
      </trkpt>
      <trkpt lat="45.68171" lon="4.82912">
        <ele>163.240556</ele>
        <time>2021-09-14T06:07:09.000Z</time>
      </trkpt>
      <trkpt lat="45.68143" lon="4.8293">
        <ele>162.929609</ele>
        <time>2021-09-14T06:07:14.000Z</time>
      </trkpt>
      <trkpt lat="45.68095" lon="4.82966">
        <ele>162.368095</ele>
        <time>2021-09-14T06:07:23.000Z</time>
      </trkpt>
      <trkpt lat="45.68046" lon="4.83004">
        <ele>161.743144</ele>
        <time>2021-09-14T06:07:32.000Z</time>
      </trkpt>
      <trkpt lat="45.68041" lon="4.83009">
        <ele>161.675855</ele>
        <time>2021-09-14T06:07:33.000Z</time>
      </trkpt>
      <trkpt lat="45.67998" lon="4.83045">
        <ele>161.128202</ele>
        <time>2021-09-14T06:07:41.000Z</time>
      </trkpt>
      <trkpt lat="45.67961" lon="4.83077">
        <ele>160.645141</ele>
        <time>2021-09-14T06:07:48.000Z</time>
      </trkpt>
      <trkpt lat="45.67921" lon="4.83108">
        <ele>160.59684</ele>
        <time>2021-09-14T06:07:55.000Z</time>
      </trkpt>
      <trkpt lat="45.6788" lon="4.83129">
        <ele>160.667714</ele>
        <time>2021-09-14T06:08:02.000Z</time>
      </trkpt>
      <trkpt lat="45.67838" lon="4.8314">
        <ele>160.73611</ele>
        <time>2021-09-14T06:08:09.000Z</time>
      </trkpt>
      <trkpt lat="45.67795" lon="4.83142">
        <ele>160.804953</ele>
        <time>2021-09-14T06:08:17.000Z</time>
      </trkpt>
      <trkpt lat="45.67757" lon="4.83137">
        <ele>160.993841</ele>
        <time>2021-09-14T06:08:25.000Z</time>
      </trkpt>
      <trkpt lat="45.67712" lon="4.83123">
        <ele>161.310821</ele>
        <time>2021-09-14T06:08:34.000Z</time>
      </trkpt>
      <trkpt lat="45.67666" lon="4.83112">
        <ele>161.637246</ele>
        <time>2021-09-14T06:08:42.000Z</time>
      </trkpt>
      <trkpt lat="45.6761" lon="4.831">
        <ele>162.031616</ele>
        <time>2021-09-14T06:08:51.000Z</time>
      </trkpt>
      <trkpt lat="45.67605" lon="4.83098">
        <ele>162.07333</ele>
        <time>2021-09-14T06:08:52.000Z</time>
      </trkpt>
      <trkpt lat="45.6756" lon="4.83089">
        <ele>162.44884</ele>
        <time>2021-09-14T06:09:00.000Z</time>
      </trkpt>
      <trkpt lat="45.67525" lon="4.83083">
        <ele>162.750526</ele>
        <time>2021-09-14T06:09:08.000Z</time>
      </trkpt>
      <trkpt lat="45.67495" lon="4.83078">
        <ele>163.002586</ele>
        <time>2021-09-14T06:09:16.000Z</time>
      </trkpt>
      <trkpt lat="45.67463" lon="4.83073">
        <ele>163.276647</ele>
        <time>2021-09-14T06:09:26.000Z</time>
      </trkpt>
      <trkpt lat="45.67442" lon="4.83069">
        <ele>163.452216</ele>
        <time>2021-09-14T06:09:33.000Z</time>
      </trkpt>
      <trkpt lat="45.67418" lon="4.83056">
        <ele>163.774102</ele>
        <time>2021-09-14T06:09:41.000Z</time>
      </trkpt>
      <trkpt lat="45.67393" lon="4.83041">
        <ele>164.3958</ele>
        <time>2021-09-14T06:09:49.000Z</time>
      </trkpt>
      <trkpt lat="45.67365" lon="4.83024">
        <ele>165.068166</ele>
        <time>2021-09-14T06:09:57.000Z</time>
      </trkpt>
      <trkpt lat="45.67343" lon="4.83011">
        <ele>165.601547</ele>
        <time>2021-09-14T06:10:03.000Z</time>
      </trkpt>
      <trkpt lat="45.67332" lon="4.83005">
        <ele>165.873578</ele>
        <time>2021-09-14T06:10:06.000Z</time>
      </trkpt>
      <trkpt lat="45.67317" lon="4.82996">
        <ele>166.223246</ele>
        <time>2021-09-14T06:10:10.000Z</time>
      </trkpt>
      <trkpt lat="45.67287" lon="4.82978">
        <ele>166.948951</ele>
        <time>2021-09-14T06:10:18.000Z</time>
      </trkpt>
      <trkpt lat="45.67253" lon="4.82956">
        <ele>167.793727</ele>
        <time>2021-09-14T06:10:26.000Z</time>
      </trkpt>
      <trkpt lat="45.67228" lon="4.82938">
        <ele>168.383673</ele>
        <time>2021-09-14T06:10:31.000Z</time>
      </trkpt>
      <trkpt lat="45.67222" lon="4.82935">
        <ele>168.505729</ele>
        <time>2021-09-14T06:10:32.000Z</time>
      </trkpt>
      <trkpt lat="45.67186" lon="4.8291">
        <ele>169.35377</ele>
        <time>2021-09-14T06:10:39.000Z</time>
      </trkpt>
      <trkpt lat="45.67151" lon="4.8289">
        <ele>170.162412</ele>
        <time>2021-09-14T06:10:46.000Z</time>
      </trkpt>
      <trkpt lat="45.67113" lon="4.82876">
        <ele>170.985384</ele>
        <time>2021-09-14T06:10:54.000Z</time>
      </trkpt>
      <trkpt lat="45.67079" lon="4.82865">
        <ele>171.644001</ele>
        <time>2021-09-14T06:11:02.000Z</time>
      </trkpt>
      <trkpt lat="45.67032" lon="4.82859">
        <ele>172.350569</ele>
        <time>2021-09-14T06:11:12.000Z</time>
      </trkpt>
      <trkpt lat="45.66982" lon="4.82853">
        <ele>173.102832</ele>
        <time>2021-09-14T06:11:22.000Z</time>
      </trkpt>
      <trkpt lat="45.66939" lon="4.82846">
        <ele>173.761998</ele>
        <time>2021-09-14T06:11:30.000Z</time>
      </trkpt>
      <trkpt lat="45.66895" lon="4.8284">
        <ele>174.225866</ele>
        <time>2021-09-14T06:11:37.000Z</time>
      </trkpt>
      <trkpt lat="45.6684" lon="4.82841">
        <ele>174.47157</ele>
        <time>2021-09-14T06:11:45.000Z</time>
      </trkpt>
      <trkpt lat="45.66785" lon="4.82842">
        <ele>174.712391</ele>
        <time>2021-09-14T06:11:53.000Z</time>
      </trkpt>
      <trkpt lat="45.66747" lon="4.82829">
        <ele>174.886043</ele>
        <time>2021-09-14T06:11:59.000Z</time>
      </trkpt>
      <trkpt lat="45.66712" lon="4.82814">
        <ele>175.239113</ele>
        <time>2021-09-14T06:12:05.000Z</time>
      </trkpt>
      <trkpt lat="45.66676" lon="4.82791">
        <ele>175.729253</ele>
        <time>2021-09-14T06:12:12.000Z</time>
      </trkpt>
      <trkpt lat="45.66662" lon="4.82779">
        <ele>175.928809</ele>
        <time>2021-09-14T06:12:15.000Z</time>
      </trkpt>
      <trkpt lat="45.66649" lon="4.82767">
        <ele>176.113908</ele>
        <time>2021-09-14T06:12:18.000Z</time>
      </trkpt>
      <trkpt lat="45.66629" lon="4.82747">
        <ele>176.426689</ele>
        <time>2021-09-14T06:12:23.000Z</time>
      </trkpt>
      <trkpt lat="45.66599" lon="4.82717">
        <ele>176.881507</ele>
        <time>2021-09-14T06:12:30.000Z</time>
      </trkpt>
      <trkpt lat="45.66575" lon="4.82693">
        <ele>177.208253</ele>
        <time>2021-09-14T06:12:35.000Z</time>
      </trkpt>
      <trkpt lat="45.66566" lon="4.82684">
        <ele>177.29691</ele>
        <time>2021-09-14T06:12:37.000Z</time>
      </trkpt>
      <trkpt lat="45.66538" lon="4.82656">
        <ele>177.571867</ele>
        <time>2021-09-14T06:12:43.000Z</time>
      </trkpt>
      <trkpt lat="45.66526" lon="4.82637">
        <ele>177.709498</ele>
        <time>2021-09-14T06:12:46.000Z</time>
      </trkpt>
      <trkpt lat="45.66522" lon="4.82621">
        <ele>177.805828</ele>
        <time>2021-09-14T06:12:48.000Z</time>
      </trkpt>
      <trkpt lat="45.6651" lon="4.82611">
        <ele>177.915533</ele>
        <time>2021-09-14T06:12:50.000Z</time>
      </trkpt>
      <trkpt lat="45.66492" lon="4.8262">
        <ele>178.05968</ele>
        <time>2021-09-14T06:12:53.000Z</time>
      </trkpt>
      <trkpt lat="45.66486" lon="4.8262">
        <ele>178.107062</ele>
        <time>2021-09-14T06:12:54.000Z</time>
      </trkpt>
      <trkpt lat="45.6648" lon="4.8262">
        <ele>178.155227</ele>
        <time>2021-09-14T06:12:55.000Z</time>
      </trkpt>
      <trkpt lat="45.66463" lon="4.82611">
        <ele>178.300665</ele>
        <time>2021-09-14T06:12:58.000Z</time>
      </trkpt>
      <trkpt lat="45.66421" lon="4.82589">
        <ele>178.559475</ele>
        <time>2021-09-14T06:13:05.000Z</time>
      </trkpt>
      <trkpt lat="45.66379" lon="4.82568">
        <ele>178.43715</ele>
        <time>2021-09-14T06:13:12.000Z</time>
      </trkpt>
      <trkpt lat="45.66337" lon="4.82545">
        <ele>178.315971</ele>
        <time>2021-09-14T06:13:19.000Z</time>
      </trkpt>
      <trkpt lat="45.66286" lon="4.82513">
        <ele>178.163944</ele>
        <time>2021-09-14T06:13:27.000Z</time>
      </trkpt>
      <trkpt lat="45.66281" lon="4.82507">
        <ele>178.145474</ele>
        <time>2021-09-14T06:13:28.000Z</time>
      </trkpt>
      <trkpt lat="45.66247" lon="4.82478">
        <ele>178.031329</ele>
        <time>2021-09-14T06:13:34.000Z</time>
      </trkpt>
      <trkpt lat="45.66197" lon="4.82444">
        <ele>177.865432</ele>
        <time>2021-09-14T06:13:43.000Z</time>
      </trkpt>
      <trkpt lat="45.6615" lon="4.82411">
        <ele>177.710148</ele>
        <time>2021-09-14T06:13:51.000Z</time>
      </trkpt>
      <trkpt lat="45.66113" lon="4.82378">
        <ele>177.579524</ele>
        <time>2021-09-14T06:13:58.000Z</time>
      </trkpt>
      <trkpt lat="45.66074" lon="4.82329">
        <ele>177.89847</ele>
        <time>2021-09-14T06:14:07.000Z</time>
      </trkpt>
      <trkpt lat="45.66035" lon="4.82282">
        <ele>178.30789</ele>
        <time>2021-09-14T06:14:16.000Z</time>
      </trkpt>
      <trkpt lat="45.65993" lon="4.8223">
        <ele>178.753401</ele>
        <time>2021-09-14T06:14:26.000Z</time>
      </trkpt>
      <trkpt lat="45.65952" lon="4.82179">
        <ele>179.371779</ele>
        <time>2021-09-14T06:14:36.000Z</time>
      </trkpt>
      <trkpt lat="45.65915" lon="4.82134">
        <ele>180.109636</ele>
        <time>2021-09-14T06:14:45.000Z</time>
      </trkpt>
      <trkpt lat="45.65885" lon="4.82097">
        <ele>180.724135</ele>
        <time>2021-09-14T06:14:53.000Z</time>
      </trkpt>
      <trkpt lat="45.65857" lon="4.82064">
        <ele>181.286105</ele>
        <time>2021-09-14T06:15:01.000Z</time>
      </trkpt>
      <trkpt lat="45.65827" lon="4.82028">
        <ele>181.934399</ele>
        <time>2021-09-14T06:15:10.000Z</time>
      </trkpt>
      <trkpt lat="45.65802" lon="4.81998">
        <ele>182.598439</ele>
        <time>2021-09-14T06:15:18.000Z</time>
      </trkpt>
      <trkpt lat="45.65776" lon="4.81968">
        <ele>183.293674</ele>
        <time>2021-09-14T06:15:26.000Z</time>
      </trkpt>
      <trkpt lat="45.6577" lon="4.8196">
        <ele>183.470347</ele>
        <time>2021-09-14T06:15:28.000Z</time>
      </trkpt>
      <trkpt lat="45.65759" lon="4.81947">
        <ele>183.763585</ele>
        <time>2021-09-14T06:15:31.000Z</time>
      </trkpt>
      <trkpt lat="45.6574" lon="4.81925">
        <ele>184.275716</ele>
        <time>2021-09-14T06:15:36.000Z</time>
      </trkpt>
      <trkpt lat="45.65732" lon="4.81916">
        <ele>184.491175</ele>
        <time>2021-09-14T06:15:38.000Z</time>
      </trkpt>
      <trkpt lat="45.6571" lon="4.81891">
        <ele>185.075127</ele>
        <time>2021-09-14T06:15:44.000Z</time>
      </trkpt>
      <trkpt lat="45.65706" lon="4.81886">
        <ele>185.168971</ele>
        <time>2021-09-14T06:15:45.000Z</time>
      </trkpt>
      <trkpt lat="45.657" lon="4.81879">
        <ele>185.344732</ele>
        <time>2021-09-14T06:15:47.000Z</time>
      </trkpt>
      <trkpt lat="45.6569" lon="4.81868">
        <ele>185.542861</ele>
        <time>2021-09-14T06:15:50.000Z</time>
      </trkpt>
      <trkpt lat="45.65669" lon="4.81844">
        <ele>185.820084</ele>
        <time>2021-09-14T06:15:56.000Z</time>
      </trkpt>
      <trkpt lat="45.65644" lon="4.81818">
        <ele>186.134739</ele>
        <time>2021-09-14T06:16:03.000Z</time>
      </trkpt>
      <trkpt lat="45.65624" lon="4.81798">
        <ele>186.384477</ele>
        <time>2021-09-14T06:16:09.000Z</time>
      </trkpt>
      <trkpt lat="45.65604" lon="4.81775">
        <ele>186.651107</ele>
        <time>2021-09-14T06:16:15.000Z</time>
      </trkpt>
      <trkpt lat="45.65578" lon="4.81738">
        <ele>187.027442</ele>
        <time>2021-09-14T06:16:23.000Z</time>
      </trkpt>
      <trkpt lat="45.65558" lon="4.817">
        <ele>187.32837</ele>
        <time>2021-09-14T06:16:30.000Z</time>
      </trkpt>
      <trkpt lat="45.65555" lon="4.81694">
        <ele>187.308741</ele>
        <time>2021-09-14T06:16:31.000Z</time>
      </trkpt>
      <trkpt lat="45.65543" lon="4.81665">
        <ele>187.21842</ele>
        <time>2021-09-14T06:16:35.000Z</time>
      </trkpt>
      <trkpt lat="45.65529" lon="4.81621">
        <ele>187.088499</ele>
        <time>2021-09-14T06:16:40.000Z</time>
      </trkpt>
      <trkpt lat="45.65516" lon="4.81594">
        <ele>187.00245</ele>
        <time>2021-09-14T06:16:43.000Z</time>
      </trkpt>
      <trkpt lat="45.65505" lon="4.81581">
        <ele>186.944675</ele>
        <time>2021-09-14T06:16:45.000Z</time>
      </trkpt>
      <trkpt lat="45.65492" lon="4.81571">
        <ele>186.887774</ele>
        <time>2021-09-14T06:16:47.000Z</time>
      </trkpt>
      <trkpt lat="45.65485" lon="4.81569">
        <ele>186.860823</ele>
        <time>2021-09-14T06:16:48.000Z</time>
      </trkpt>
      <trkpt lat="45.65471" lon="4.81569">
        <ele>186.808472</ele>
        <time>2021-09-14T06:16:50.000Z</time>
      </trkpt>
      <trkpt lat="45.65458" lon="4.81571">
        <ele>186.755924</ele>
        <time>2021-09-14T06:16:52.000Z</time>
      </trkpt>
      <trkpt lat="45.65427" lon="4.81573">
        <ele>186.655785</ele>
        <time>2021-09-14T06:16:57.000Z</time>
      </trkpt>
      <trkpt lat="45.65422" lon="4.81573">
        <ele>186.675195</ele>
        <time>2021-09-14T06:16:58.000Z</time>
      </trkpt>
      <trkpt lat="45.65412" lon="4.8157">
        <ele>186.71367</ele>
        <time>2021-09-14T06:17:00.000Z</time>
      </trkpt>
      <trkpt lat="45.654" lon="4.81564">
        <ele>186.763618</ele>
        <time>2021-09-14T06:17:03.000Z</time>
      </trkpt>
      <trkpt lat="45.65378" lon="4.81544">
        <ele>186.865662</ele>
        <time>2021-09-14T06:17:10.000Z</time>
      </trkpt>
      <trkpt lat="45.65357" lon="4.81518">
        <ele>186.974495</ele>
        <time>2021-09-14T06:17:17.000Z</time>
      </trkpt>
      <trkpt lat="45.65333" lon="4.81485">
        <ele>187.104631</ele>
        <time>2021-09-14T06:17:24.000Z</time>
      </trkpt>
      <trkpt lat="45.65298" lon="4.81437">
        <ele>187.289596</ele>
        <time>2021-09-14T06:17:33.000Z</time>
      </trkpt>
      <trkpt lat="45.65271" lon="4.814">
        <ele>187.109091</ele>
        <time>2021-09-14T06:17:40.000Z</time>
      </trkpt>
      <trkpt lat="45.65244" lon="4.81368">
        <ele>186.764537</ele>
        <time>2021-09-14T06:17:46.000Z</time>
      </trkpt>
      <trkpt lat="45.65211" lon="4.81346">
        <ele>186.397679</ele>
        <time>2021-09-14T06:17:52.000Z</time>
      </trkpt>
      <trkpt lat="45.65194" lon="4.81336">
        <ele>186.212833</ele>
        <time>2021-09-14T06:17:56.000Z</time>
      </trkpt>
      <trkpt lat="45.65189" lon="4.81334">
        <ele>186.165672</ele>
        <time>2021-09-14T06:17:58.000Z</time>
      </trkpt>
      <trkpt lat="45.65187" lon="4.81332">
        <ele>186.138666</ele>
        <time>2021-09-14T06:18:00.000Z</time>
      </trkpt>
      <trkpt lat="45.65179" lon="4.81327">
        <ele>186.05106</ele>
        <time>2021-09-14T06:18:03.000Z</time>
      </trkpt>
      <trkpt lat="45.65156" lon="4.81315">
        <ele>185.810364</ele>
        <time>2021-09-14T06:18:08.000Z</time>
      </trkpt>
      <trkpt lat="45.65146" lon="4.8131">
        <ele>185.700619</ele>
        <time>2021-09-14T06:18:10.000Z</time>
      </trkpt>
      <trkpt lat="45.6512" lon="4.81296">
        <ele>185.232497</ele>
        <time>2021-09-14T06:18:15.000Z</time>
      </trkpt>
      <trkpt lat="45.65091" lon="4.81281">
        <ele>184.449289</ele>
        <time>2021-09-14T06:18:21.000Z</time>
      </trkpt>
      <trkpt lat="45.65054" lon="4.8126">
        <ele>183.473344</ele>
        <time>2021-09-14T06:18:28.000Z</time>
      </trkpt>
      <trkpt lat="45.6505" lon="4.81256">
        <ele>183.334638</ele>
        <time>2021-09-14T06:18:29.000Z</time>
      </trkpt>
      <trkpt lat="45.65022" lon="4.81234">
        <ele>182.54253</ele>
        <time>2021-09-14T06:18:35.000Z</time>
      </trkpt>
      <trkpt lat="45.65014" lon="4.81227">
        <ele>182.293905</ele>
        <time>2021-09-14T06:18:39.000Z</time>
      </trkpt>
      <trkpt lat="45.65014" lon="4.81227">
        <ele>182.293905</ele>
        <time>2021-09-14T06:18:44.000Z</time>
      </trkpt>
      <trkpt lat="45.64991" lon="4.8121">
        <ele>181.643184</ele>
        <time>2021-09-14T06:18:47.000Z</time>
      </trkpt>
      <trkpt lat="45.64982" lon="4.81209">
        <ele>181.419112</ele>
        <time>2021-09-14T06:18:51.000Z</time>
      </trkpt>
      <trkpt lat="45.64969" lon="4.81206">
        <ele>181.0945</ele>
        <time>2021-09-14T06:18:55.000Z</time>
      </trkpt>
      <trkpt lat="45.6495" lon="4.81204">
        <ele>180.691868</ele>
        <time>2021-09-14T06:19:01.000Z</time>
      </trkpt>
      <trkpt lat="45.64939" lon="4.81203">
        <ele>180.467953</ele>
        <time>2021-09-14T06:19:05.000Z</time>
      </trkpt>
      <trkpt lat="45.64919" lon="4.81202">
        <ele>180.046799</ele>
        <time>2021-09-14T06:19:10.000Z</time>
      </trkpt>
      <trkpt lat="45.64914" lon="4.81202">
        <ele>179.958511</ele>
        <time>2021-09-14T06:19:11.000Z</time>
      </trkpt>
      <trkpt lat="45.64889" lon="4.81204">
        <ele>179.442433</ele>
        <time>2021-09-14T06:19:17.000Z</time>
      </trkpt>
      <trkpt lat="45.64885" lon="4.81205">
        <ele>179.351909</ele>
        <time>2021-09-14T06:19:18.000Z</time>
      </trkpt>
      <trkpt lat="45.64869" lon="4.81206">
        <ele>179.024994</ele>
        <time>2021-09-14T06:19:22.000Z</time>
      </trkpt>
      <trkpt lat="45.64849" lon="4.81208">
        <ele>178.605509</ele>
        <time>2021-09-14T06:19:28.000Z</time>
      </trkpt>
      <trkpt lat="45.64829" lon="4.81206">
        <ele>178.193961</ele>
        <time>2021-09-14T06:19:34.000Z</time>
      </trkpt>
      <trkpt lat="45.64798" lon="4.81201">
        <ele>177.557512</ele>
        <time>2021-09-14T06:19:41.000Z</time>
      </trkpt>
      <trkpt lat="45.64779" lon="4.81196">
        <ele>177.048855</ele>
        <time>2021-09-14T06:19:46.000Z</time>
      </trkpt>
      <trkpt lat="45.64759" lon="4.81192">
        <ele>176.316425</ele>
        <time>2021-09-14T06:19:52.000Z</time>
      </trkpt>
      <trkpt lat="45.64758" lon="4.81205">
        <ele>176.002958</ele>
        <time>2021-09-14T06:19:54.000Z</time>
      </trkpt>
      <trkpt lat="45.64757" lon="4.8121">
        <ele>175.84349</ele>
        <time>2021-09-14T06:19:55.000Z</time>
      </trkpt>
      <trkpt lat="45.64753" lon="4.81223">
        <ele>175.490929</ele>
        <time>2021-09-14T06:19:57.000Z</time>
      </trkpt>
      <trkpt lat="45.64749" lon="4.81242">
        <ele>174.987343</ele>
        <time>2021-09-14T06:20:00.000Z</time>
      </trkpt>
      <trkpt lat="45.64747" lon="4.81251">
        <ele>174.745164</ele>
        <time>2021-09-14T06:20:04.000Z</time>
      </trkpt>
      <trkpt lat="45.64743" lon="4.81265">
        <ele>174.385482</ele>
        <time>2021-09-14T06:20:08.000Z</time>
      </trkpt>
      <trkpt lat="45.6474" lon="4.81282">
        <ele>173.9308</ele>
        <time>2021-09-14T06:20:11.000Z</time>
      </trkpt>
      <trkpt lat="45.64738" lon="4.81288">
        <ele>173.754517</ele>
        <time>2021-09-14T06:20:12.000Z</time>
      </trkpt>
      <trkpt lat="45.64734" lon="4.81308">
        <ele>173.238653</ele>
        <time>2021-09-14T06:20:15.000Z</time>
      </trkpt>
      <trkpt lat="45.64731" lon="4.81322">
        <ele>172.852424</ele>
        <time>2021-09-14T06:20:17.000Z</time>
      </trkpt>
      <trkpt lat="45.64729" lon="4.8133">
        <ele>172.645944</ele>
        <time>2021-09-14T06:20:18.000Z</time>
      </trkpt>
      <trkpt lat="45.64725" lon="4.81353">
        <ele>172.029959</ele>
        <time>2021-09-14T06:20:22.000Z</time>
      </trkpt>
      <trkpt lat="45.64724" lon="4.81356">
        <ele>171.967289</ele>
        <time>2021-09-14T06:20:25.000Z</time>
      </trkpt>
      <trkpt lat="45.64723" lon="4.81361">
        <ele>171.8386</ele>
        <time>2021-09-14T06:20:31.000Z</time>
      </trkpt>
      <trkpt lat="45.64722" lon="4.81368">
        <ele>171.655526</ele>
        <time>2021-09-14T06:20:33.000Z</time>
      </trkpt>
      <trkpt lat="45.64717" lon="4.81391">
        <ele>171.027328</ele>
        <time>2021-09-14T06:20:38.000Z</time>
      </trkpt>
      <trkpt lat="45.64713" lon="4.81416">
        <ele>170.570433</ele>
        <time>2021-09-14T06:20:42.000Z</time>
      </trkpt>
      <trkpt lat="45.64712" lon="4.81423">
        <ele>170.4712</ele>
        <time>2021-09-14T06:20:43.000Z</time>
      </trkpt>
      <trkpt lat="45.64704" lon="4.8144">
        <ele>170.192652</ele>
        <time>2021-09-14T06:20:46.000Z</time>
      </trkpt>
      <trkpt lat="45.64689" lon="4.81462">
        <ele>169.762082</ele>
        <time>2021-09-14T06:20:51.000Z</time>
      </trkpt>
      <trkpt lat="45.64686" lon="4.81467">
        <ele>169.680919</ele>
        <time>2021-09-14T06:20:52.000Z</time>
      </trkpt>
      <trkpt lat="45.6466" lon="4.81506">
        <ele>168.936952</ele>
        <time>2021-09-14T06:21:01.000Z</time>
      </trkpt>
      <trkpt lat="45.64636" lon="4.81541">
        <ele>168.259329</ele>
        <time>2021-09-14T06:21:09.000Z</time>
      </trkpt>
      <trkpt lat="45.64622" lon="4.81564">
        <ele>167.835991</ele>
        <time>2021-09-14T06:21:14.000Z</time>
      </trkpt>
      <trkpt lat="45.64613" lon="4.81577">
        <ele>167.588788</ele>
        <time>2021-09-14T06:21:17.000Z</time>
      </trkpt>
      <trkpt lat="45.64597" lon="4.81601">
        <ele>167.230581</ele>
        <time>2021-09-14T06:21:23.000Z</time>
      </trkpt>
      <trkpt lat="45.64568" lon="4.81643">
        <ele>167.092819</ele>
        <time>2021-09-14T06:21:33.000Z</time>
      </trkpt>
      <trkpt lat="45.64541" lon="4.81682">
        <ele>166.963205</ele>
        <time>2021-09-14T06:21:41.000Z</time>
      </trkpt>
      <trkpt lat="45.64514" lon="4.8172">
        <ele>166.836509</ele>
        <time>2021-09-14T06:21:48.000Z</time>
      </trkpt>
      <trkpt lat="45.64511" lon="4.81726">
        <ele>166.818931</ele>
        <time>2021-09-14T06:21:49.000Z</time>
      </trkpt>
      <trkpt lat="45.64503" lon="4.81737">
        <ele>166.782637</ele>
        <time>2021-09-14T06:21:51.000Z</time>
      </trkpt>
      <trkpt lat="45.64495" lon="4.81748">
        <ele>166.74537</ele>
        <time>2021-09-14T06:21:53.000Z</time>
      </trkpt>
      <trkpt lat="45.64483" lon="4.81765">
        <ele>166.68858</ele>
        <time>2021-09-14T06:21:57.000Z</time>
      </trkpt>
      <trkpt lat="45.64474" lon="4.8178">
        <ele>166.621132</ele>
        <time>2021-09-14T06:22:02.000Z</time>
      </trkpt>
      <trkpt lat="45.6446" lon="4.81792">
        <ele>166.39882</ele>
        <time>2021-09-14T06:22:06.000Z</time>
      </trkpt>
      <trkpt lat="45.64439" lon="4.81827">
        <ele>165.954448</ele>
        <time>2021-09-14T06:22:12.000Z</time>
      </trkpt>
      <trkpt lat="45.64431" lon="4.8185">
        <ele>165.713726</ele>
        <time>2021-09-14T06:22:15.000Z</time>
      </trkpt>
      <trkpt lat="45.64428" lon="4.81866">
        <ele>165.558351</ele>
        <time>2021-09-14T06:22:17.000Z</time>
      </trkpt>
      <trkpt lat="45.64424" lon="4.81892">
        <ele>165.303422</ele>
        <time>2021-09-14T06:22:20.000Z</time>
      </trkpt>
      <trkpt lat="45.64422" lon="4.81911">
        <ele>165.119648</ele>
        <time>2021-09-14T06:22:22.000Z</time>
      </trkpt>
      <trkpt lat="45.64421" lon="4.81962">
        <ele>164.627985</ele>
        <time>2021-09-14T06:22:27.000Z</time>
      </trkpt>
      <trkpt lat="45.64431" lon="4.82042">
        <ele>164.221828</ele>
        <time>2021-09-14T06:22:35.000Z</time>
      </trkpt>
      <trkpt lat="45.64439" lon="4.82105">
        <ele>164.285519</ele>
        <time>2021-09-14T06:22:42.000Z</time>
      </trkpt>
      <trkpt lat="45.64445" lon="4.82166">
        <ele>164.346186</ele>
        <time>2021-09-14T06:22:49.000Z</time>
      </trkpt>
      <trkpt lat="45.64445" lon="4.82216">
        <ele>164.395321</ele>
        <time>2021-09-14T06:22:55.000Z</time>
      </trkpt>
      <trkpt lat="45.64439" lon="4.82255">
        <ele>164.435086</ele>
        <time>2021-09-14T06:23:01.000Z</time>
      </trkpt>
      <trkpt lat="45.6443" lon="4.82282">
        <ele>164.693378</ele>
        <time>2021-09-14T06:23:07.000Z</time>
      </trkpt>
      <trkpt lat="45.64427" lon="4.82298">
        <ele>164.86604</ele>
        <time>2021-09-14T06:23:12.000Z</time>
      </trkpt>
      <trkpt lat="45.64419" lon="4.82319">
        <ele>165.126827</ele>
        <time>2021-09-14T06:23:18.000Z</time>
      </trkpt>
      <trkpt lat="45.64411" lon="4.82339">
        <ele>165.363063</ele>
        <time>2021-09-14T06:23:23.000Z</time>
      </trkpt>
      <trkpt lat="45.64399" lon="4.8237">
        <ele>165.740136</ele>
        <time>2021-09-14T06:23:30.000Z</time>
      </trkpt>
      <trkpt lat="45.64386" lon="4.82403">
        <ele>166.155406</ele>
        <time>2021-09-14T06:23:37.000Z</time>
      </trkpt>
      <trkpt lat="45.64363" lon="4.82457">
        <ele>166.823119</ele>
        <time>2021-09-14T06:23:47.000Z</time>
      </trkpt>
      <trkpt lat="45.64345" lon="4.82504">
        <ele>167.139312</ele>
        <time>2021-09-14T06:23:55.000Z</time>
      </trkpt>
      <trkpt lat="45.64325" lon="4.8255">
        <ele>167.018781</ele>
        <time>2021-09-14T06:24:03.000Z</time>
      </trkpt>
      <trkpt lat="45.64324" lon="4.82554">
        <ele>167.008145</ele>
        <time>2021-09-14T06:24:04.000Z</time>
      </trkpt>
      <trkpt lat="45.64319" lon="4.82565">
        <ele>166.979514</ele>
        <time>2021-09-14T06:24:09.000Z</time>
      </trkpt>
      <trkpt lat="45.64312" lon="4.82583">
        <ele>166.933467</ele>
        <time>2021-09-14T06:24:16.000Z</time>
      </trkpt>
      <trkpt lat="45.64305" lon="4.826">
        <ele>166.889991</ele>
        <time>2021-09-14T06:24:22.000Z</time>
      </trkpt>
      <trkpt lat="45.64303" lon="4.82604">
        <ele>166.879354</ele>
        <time>2021-09-14T06:24:25.000Z</time>
      </trkpt>
      <trkpt lat="45.64301" lon="4.82609">
        <ele>166.865781</ele>
        <time>2021-09-14T06:24:27.000Z</time>
      </trkpt>
      <trkpt lat="45.64295" lon="4.82616">
        <ele>166.842908</ele>
        <time>2021-09-14T06:24:33.000Z</time>
      </trkpt>
      <trkpt lat="45.64279" lon="4.82618">
        <ele>166.789975</ele>
        <time>2021-09-14T06:24:38.000Z</time>
      </trkpt>
      <trkpt lat="45.64268" lon="4.82606">
        <ele>166.746346</ele>
        <time>2021-09-14T06:24:41.000Z</time>
      </trkpt>
      <trkpt lat="45.64268" lon="4.82601">
        <ele>166.73452</ele>
        <time>2021-09-14T06:24:42.000Z</time>
      </trkpt>
      <trkpt lat="45.64274" lon="4.82579">
        <ele>166.681432</ele>
        <time>2021-09-14T06:24:46.000Z</time>
      </trkpt>
      <trkpt lat="45.64281" lon="4.82559">
        <ele>166.631808</ele>
        <time>2021-09-14T06:24:51.000Z</time>
      </trkpt>
      <trkpt lat="45.64285" lon="4.82547">
        <ele>166.599856</ele>
        <time>2021-09-14T06:24:55.000Z</time>
      </trkpt>
      <trkpt lat="45.64285" lon="4.82541">
        <ele>166.583284</ele>
        <time>2021-09-14T06:24:57.000Z</time>
      </trkpt>
      <trkpt lat="45.64284" lon="4.82532">
        <ele>166.553399</ele>
        <time>2021-09-14T06:25:00.000Z</time>
      </trkpt>
      <trkpt lat="45.64278" lon="4.82518">
        <ele>166.504306</ele>
        <time>2021-09-14T06:25:05.000Z</time>
      </trkpt>
      <trkpt lat="45.64273" lon="4.82513">
        <ele>166.475734</ele>
        <time>2021-09-14T06:25:08.000Z</time>
      </trkpt>
      <trkpt lat="45.64271" lon="4.82511">
        <ele>166.465378</ele>
        <time>2021-09-14T06:25:09.000Z</time>
      </trkpt>
      <trkpt lat="45.64257" lon="4.82497">
        <ele>166.39236</ele>
        <time>2021-09-14T06:25:16.000Z</time>
      </trkpt>
      <trkpt lat="45.64255" lon="4.82495">
        <ele>166.38001</ele>
        <time>2021-09-14T06:25:18.000Z</time>
      </trkpt>
      <trkpt lat="45.64253" lon="4.82493">
        <ele>166.368032</ele>
        <time>2021-09-14T06:25:20.000Z</time>
      </trkpt>
      <trkpt lat="45.64245" lon="4.82486">
        <ele>166.329752</ele>
        <time>2021-09-14T06:25:24.000Z</time>
      </trkpt>
      <trkpt lat="45.64227" lon="4.82469">
        <ele>166.232654</ele>
        <time>2021-09-14T06:25:30.000Z</time>
      </trkpt>
      <trkpt lat="45.64223" lon="4.82466">
        <ele>166.214583</ele>
        <time>2021-09-14T06:25:31.000Z</time>
      </trkpt>
      <trkpt lat="45.64205" lon="4.8245">
        <ele>166.120323</ele>
        <time>2021-09-14T06:25:36.000Z</time>
      </trkpt>
      <trkpt lat="45.64181" lon="4.82428">
        <ele>165.996015</ele>
        <time>2021-09-14T06:25:43.000Z</time>
      </trkpt>
      <trkpt lat="45.64168" lon="4.82417">
        <ele>165.929499</ele>
        <time>2021-09-14T06:25:47.000Z</time>
      </trkpt>
      <trkpt lat="45.64161" lon="4.82411">
        <ele>165.894427</ele>
        <time>2021-09-14T06:25:49.000Z</time>
      </trkpt>
      <trkpt lat="45.64146" lon="4.82397">
        <ele>165.818943</ele>
        <time>2021-09-14T06:25:54.000Z</time>
      </trkpt>
      <trkpt lat="45.64125" lon="4.82378">
        <ele>165.801339</ele>
        <time>2021-09-14T06:26:01.000Z</time>
      </trkpt>
      <trkpt lat="45.64108" lon="4.82364">
        <ele>165.788052</ele>
        <time>2021-09-14T06:26:06.000Z</time>
      </trkpt>
      <trkpt lat="45.64105" lon="4.82361">
        <ele>165.785242</ele>
        <time>2021-09-14T06:26:07.000Z</time>
      </trkpt>
      <trkpt lat="45.64084" lon="4.82344">
        <ele>165.768435</ele>
        <time>2021-09-14T06:26:13.000Z</time>
      </trkpt>
      <trkpt lat="45.6408" lon="4.82341">
        <ele>165.765541</ele>
        <time>2021-09-14T06:26:14.000Z</time>
      </trkpt>
      <trkpt lat="45.64064" lon="4.82328">
        <ele>165.75311</ele>
        <time>2021-09-14T06:26:18.000Z</time>
      </trkpt>
      <trkpt lat="45.64061" lon="4.82325">
        <ele>165.750156</ele>
        <time>2021-09-14T06:26:19.000Z</time>
      </trkpt>
      <trkpt lat="45.64057" lon="4.82322">
        <ele>165.747201</ele>
        <time>2021-09-14T06:26:20.000Z</time>
      </trkpt>
      <trkpt lat="45.64045" lon="4.82313">
        <ele>165.737893</ele>
        <time>2021-09-14T06:26:23.000Z</time>
      </trkpt>
      <trkpt lat="45.64002" lon="4.82277">
        <ele>165.702975</ele>
        <time>2021-09-14T06:26:33.000Z</time>
      </trkpt>
      <trkpt lat="45.6397" lon="4.82251">
        <ele>165.700089</ele>
        <time>2021-09-14T06:26:40.000Z</time>
      </trkpt>
      <trkpt lat="45.63962" lon="4.82244">
        <ele>165.702283</ele>
        <time>2021-09-14T06:26:42.000Z</time>
      </trkpt>
      <trkpt lat="45.6394" lon="4.82226">
        <ele>165.707884</ele>
        <time>2021-09-14T06:26:47.000Z</time>
      </trkpt>
      <trkpt lat="45.63928" lon="4.82216">
        <ele>165.710919</ele>
        <time>2021-09-14T06:26:50.000Z</time>
      </trkpt>
      <trkpt lat="45.63921" lon="4.8221">
        <ele>165.712706</ele>
        <time>2021-09-14T06:26:52.000Z</time>
      </trkpt>
      <trkpt lat="45.63898" lon="4.82176">
        <ele>165.719968</ele>
        <time>2021-09-14T06:26:59.000Z</time>
      </trkpt>
      <trkpt lat="45.63892" lon="4.82177">
        <ele>165.721215</ele>
        <time>2021-09-14T06:27:01.000Z</time>
      </trkpt>
      <trkpt lat="45.63891" lon="4.82178">
        <ele>165.721392</ele>
        <time>2021-09-14T06:27:04.000Z</time>
      </trkpt>
      <trkpt lat="45.6389" lon="4.82177">
        <ele>165.721793</ele>
        <time>2021-09-14T06:27:05.000Z</time>
      </trkpt>
      <trkpt lat="45.6388" lon="4.82169">
        <ele>165.724249</ele>
        <time>2021-09-14T06:27:10.000Z</time>
      </trkpt>
      <trkpt lat="45.63873" lon="4.82163">
        <ele>165.725988</ele>
        <time>2021-09-14T06:27:12.000Z</time>
      </trkpt>
      <trkpt lat="45.63858" lon="4.8215">
        <ele>165.729826</ele>
        <time>2021-09-14T06:27:16.000Z</time>
      </trkpt>
      <trkpt lat="45.63821" lon="4.82118">
        <ele>165.682251</ele>
        <time>2021-09-14T06:27:25.000Z</time>
      </trkpt>
      <trkpt lat="45.63785" lon="4.82089">
        <ele>165.589951</ele>
        <time>2021-09-14T06:27:33.000Z</time>
      </trkpt>
      <trkpt lat="45.63747" lon="4.82058">
        <ele>165.4921</ele>
        <time>2021-09-14T06:27:41.000Z</time>
      </trkpt>
      <trkpt lat="45.63709" lon="4.82027">
        <ele>165.393232</ele>
        <time>2021-09-14T06:27:49.000Z</time>
      </trkpt>
      <trkpt lat="45.63683" lon="4.82005">
        <ele>165.304695</ele>
        <time>2021-09-14T06:27:55.000Z</time>
      </trkpt>
      <trkpt lat="45.63676" lon="4.81997">
        <ele>165.199105</ele>
        <time>2021-09-14T06:27:57.000Z</time>
      </trkpt>
      <trkpt lat="45.6367" lon="4.81988">
        <ele>165.087847</ele>
        <time>2021-09-14T06:27:59.000Z</time>
      </trkpt>
      <trkpt lat="45.63667" lon="4.81983">
        <ele>165.03865</ele>
        <time>2021-09-14T06:28:00.000Z</time>
      </trkpt>
      <trkpt lat="45.63659" lon="4.81975">
        <ele>164.924259</ele>
        <time>2021-09-14T06:28:02.000Z</time>
      </trkpt>
      <trkpt lat="45.63655" lon="4.81971">
        <ele>164.856797</ele>
        <time>2021-09-14T06:28:03.000Z</time>
      </trkpt>
      <trkpt lat="45.63641" lon="4.81959">
        <ele>164.659757</ele>
        <time>2021-09-14T06:28:06.000Z</time>
      </trkpt>
      <trkpt lat="45.63626" lon="4.81947">
        <ele>164.459245</ele>
        <time>2021-09-14T06:28:09.000Z</time>
      </trkpt>
      <trkpt lat="45.63617" lon="4.8194">
        <ele>164.335301</ele>
        <time>2021-09-14T06:28:11.000Z</time>
      </trkpt>
      <trkpt lat="45.63607" lon="4.81932">
        <ele>164.196536</ele>
        <time>2021-09-14T06:28:14.000Z</time>
      </trkpt>
      <trkpt lat="45.63599" lon="4.81926">
        <ele>164.087283</ele>
        <time>2021-09-14T06:28:16.000Z</time>
      </trkpt>
      <trkpt lat="45.6359" lon="4.81919">
        <ele>163.966102</ele>
        <time>2021-09-14T06:28:18.000Z</time>
      </trkpt>
      <trkpt lat="45.63567" lon="4.81901">
        <ele>163.651039</ele>
        <time>2021-09-14T06:28:23.000Z</time>
      </trkpt>
      <trkpt lat="45.63562" lon="4.81896">
        <ele>163.5815</ele>
        <time>2021-09-14T06:28:24.000Z</time>
      </trkpt>
      <trkpt lat="45.63537" lon="4.81881">
        <ele>163.251216</ele>
        <time>2021-09-14T06:28:29.000Z</time>
      </trkpt>
      <trkpt lat="45.63532" lon="4.8188">
        <ele>163.18998</ele>
        <time>2021-09-14T06:28:30.000Z</time>
      </trkpt>
      <trkpt lat="45.63518" lon="4.81876">
        <ele>163.036581</ele>
        <time>2021-09-14T06:28:33.000Z</time>
      </trkpt>
      <trkpt lat="45.63512" lon="4.81871">
        <ele>162.952568</ele>
        <time>2021-09-14T06:28:35.000Z</time>
      </trkpt>
      <trkpt lat="45.63505" lon="4.81867">
        <ele>162.872209</ele>
        <time>2021-09-14T06:28:37.000Z</time>
      </trkpt>
      <trkpt lat="45.635" lon="4.81863">
        <ele>162.81568</ele>
        <time>2021-09-14T06:28:38.000Z</time>
      </trkpt>
      <trkpt lat="45.63492" lon="4.81856">
        <ele>162.705461</ele>
        <time>2021-09-14T06:28:40.000Z</time>
      </trkpt>
      <trkpt lat="45.63488" lon="4.81852">
        <ele>162.654111</ele>
        <time>2021-09-14T06:28:41.000Z</time>
      </trkpt>
      <trkpt lat="45.63476" lon="4.81839">
        <ele>162.483409</ele>
        <time>2021-09-14T06:28:44.000Z</time>
      </trkpt>
      <trkpt lat="45.63464" lon="4.81824">
        <ele>162.313268</ele>
        <time>2021-09-14T06:28:47.000Z</time>
      </trkpt>
      <trkpt lat="45.63459" lon="4.8182">
        <ele>162.246508</ele>
        <time>2021-09-14T06:28:48.000Z</time>
      </trkpt>
      <trkpt lat="45.63454" lon="4.81816">
        <ele>162.180075</ele>
        <time>2021-09-14T06:28:49.000Z</time>
      </trkpt>
      <trkpt lat="45.63439" lon="4.81808">
        <ele>162.003891</ele>
        <time>2021-09-14T06:28:52.000Z</time>
      </trkpt>
      <trkpt lat="45.63435" lon="4.81805">
        <ele>161.956074</ele>
        <time>2021-09-14T06:28:53.000Z</time>
      </trkpt>
      <trkpt lat="45.63423" lon="4.81797">
        <ele>161.808234</ele>
        <time>2021-09-14T06:28:56.000Z</time>
      </trkpt>
      <trkpt lat="45.63399" lon="4.81779">
        <ele>161.510306</ele>
        <time>2021-09-14T06:29:01.000Z</time>
      </trkpt>
      <trkpt lat="45.63395" lon="4.81776">
        <ele>161.457789</ele>
        <time>2021-09-14T06:29:02.000Z</time>
      </trkpt>
      <trkpt lat="45.63376" lon="4.81764">
        <ele>161.229641</ele>
        <time>2021-09-14T06:29:06.000Z</time>
      </trkpt>
      <trkpt lat="45.63355" lon="4.81751">
        <ele>161.116156</ele>
        <time>2021-09-14T06:29:11.000Z</time>
      </trkpt>
      <trkpt lat="45.63343" lon="4.81743">
        <ele>161.066945</ele>
        <time>2021-09-14T06:29:14.000Z</time>
      </trkpt>
      <trkpt lat="45.63339" lon="4.8174">
        <ele>161.049876</ele>
        <time>2021-09-14T06:29:15.000Z</time>
      </trkpt>
      <trkpt lat="45.63334" lon="4.81738">
        <ele>161.030713</ele>
        <time>2021-09-14T06:29:16.000Z</time>
      </trkpt>
      <trkpt lat="45.63318" lon="4.81731">
        <ele>160.968949</ele>
        <time>2021-09-14T06:29:19.000Z</time>
      </trkpt>
      <trkpt lat="45.63295" lon="4.81713">
        <ele>160.872711</ele>
        <time>2021-09-14T06:29:24.000Z</time>
      </trkpt>
      <trkpt lat="45.63275" lon="4.81696">
        <ele>160.787471</ele>
        <time>2021-09-14T06:29:29.000Z</time>
      </trkpt>
      <trkpt lat="45.63256" lon="4.81683">
        <ele>160.708549</ele>
        <time>2021-09-14T06:29:33.000Z</time>
      </trkpt>
      <trkpt lat="45.63251" lon="4.8168">
        <ele>160.689553</ele>
        <time>2021-09-14T06:29:34.000Z</time>
      </trkpt>
      <trkpt lat="45.63236" lon="4.81678">
        <ele>160.632912</ele>
        <time>2021-09-14T06:29:38.000Z</time>
      </trkpt>
      <trkpt lat="45.6323" lon="4.81678">
        <ele>160.612627</ele>
        <time>2021-09-14T06:29:41.000Z</time>
      </trkpt>
      <trkpt lat="45.63228" lon="4.81678">
        <ele>160.605255</ele>
        <time>2021-09-14T06:29:43.000Z</time>
      </trkpt>
      <trkpt lat="45.63213" lon="4.81674">
        <ele>160.549028</ele>
        <time>2021-09-14T06:29:48.000Z</time>
      </trkpt>
      <trkpt lat="45.63196" lon="4.81665">
        <ele>160.528752</ele>
        <time>2021-09-14T06:29:53.000Z</time>
      </trkpt>
      <trkpt lat="45.63186" lon="4.81658">
        <ele>160.537987</ele>
        <time>2021-09-14T06:29:57.000Z</time>
      </trkpt>
      <trkpt lat="45.63183" lon="4.81656">
        <ele>160.540614</ele>
        <time>2021-09-14T06:29:59.000Z</time>
      </trkpt>
      <trkpt lat="45.63179" lon="4.81654">
        <ele>160.544518</ele>
        <time>2021-09-14T06:30:01.000Z</time>
      </trkpt>
      <trkpt lat="45.63174" lon="4.81651">
        <ele>160.548673</ele>
        <time>2021-09-14T06:30:03.000Z</time>
      </trkpt>
      <trkpt lat="45.63172" lon="4.81643">
        <ele>160.5537</ele>
        <time>2021-09-14T06:30:05.000Z</time>
      </trkpt>
      <trkpt lat="45.63159" lon="4.81633">
        <ele>160.56638</ele>
        <time>2021-09-14T06:30:09.000Z</time>
      </trkpt>
      <trkpt lat="45.63132" lon="4.81617">
        <ele>160.590374</ele>
        <time>2021-09-14T06:30:16.000Z</time>
      </trkpt>
      <trkpt lat="45.631" lon="4.81598">
        <ele>160.619436</ele>
        <time>2021-09-14T06:30:23.000Z</time>
      </trkpt>
      <trkpt lat="45.63095" lon="4.81595">
        <ele>160.623921</ele>
        <time>2021-09-14T06:30:24.000Z</time>
      </trkpt>
      <trkpt lat="45.63059" lon="4.81574">
        <ele>160.655841</ele>
        <time>2021-09-14T06:30:31.000Z</time>
      </trkpt>
      <trkpt lat="45.63044" lon="4.81565">
        <ele>160.669416</ele>
        <time>2021-09-14T06:30:34.000Z</time>
      </trkpt>
      <trkpt lat="45.63028" lon="4.81561">
        <ele>160.664005</ele>
        <time>2021-09-14T06:30:37.000Z</time>
      </trkpt>
      <trkpt lat="45.63019" lon="4.81555">
        <ele>160.660837</ele>
        <time>2021-09-14T06:30:39.000Z</time>
      </trkpt>
      <trkpt lat="45.63006" lon="4.81547">
        <ele>160.655817</ele>
        <time>2021-09-14T06:30:42.000Z</time>
      </trkpt>
      <trkpt lat="45.63001" lon="4.81545">
        <ele>160.654141</ele>
        <time>2021-09-14T06:30:43.000Z</time>
      </trkpt>
      <trkpt lat="45.62962" lon="4.81525">
        <ele>160.640204</ele>
        <time>2021-09-14T06:30:51.000Z</time>
      </trkpt>
      <trkpt lat="45.62957" lon="4.81523">
        <ele>160.638449</ele>
        <time>2021-09-14T06:30:52.000Z</time>
      </trkpt>
      <trkpt lat="45.62938" lon="4.81513">
        <ele>160.631484</ele>
        <time>2021-09-14T06:30:56.000Z</time>
      </trkpt>
      <trkpt lat="45.62934" lon="4.81502">
        <ele>160.628595</ele>
        <time>2021-09-14T06:30:57.000Z</time>
      </trkpt>
      <trkpt lat="45.62928" lon="4.81508">
        <ele>160.626002</ele>
        <time>2021-09-14T06:30:58.000Z</time>
      </trkpt>
      <trkpt lat="45.62914" lon="4.815">
        <ele>160.620863</ele>
        <time>2021-09-14T06:31:01.000Z</time>
      </trkpt>
      <trkpt lat="45.62909" lon="4.81498">
        <ele>160.6191</ele>
        <time>2021-09-14T06:31:02.000Z</time>
      </trkpt>
      <trkpt lat="45.6288" lon="4.81475">
        <ele>160.622894</ele>
        <time>2021-09-14T06:31:08.000Z</time>
      </trkpt>
      <trkpt lat="45.62854" lon="4.81461">
        <ele>160.782414</ele>
        <time>2021-09-14T06:31:13.000Z</time>
      </trkpt>
      <trkpt lat="45.6281" lon="4.81439">
        <ele>161.042752</ele>
        <time>2021-09-14T06:31:21.000Z</time>
      </trkpt>
      <trkpt lat="45.62774" lon="4.8142">
        <ele>161.260304</ele>
        <time>2021-09-14T06:31:28.000Z</time>
      </trkpt>
      <trkpt lat="45.62764" lon="4.81415">
        <ele>161.322083</ele>
        <time>2021-09-14T06:31:30.000Z</time>
      </trkpt>
      <trkpt lat="45.6275" lon="4.81408">
        <ele>161.406724</ele>
        <time>2021-09-14T06:31:33.000Z</time>
      </trkpt>
      <trkpt lat="45.62737" lon="4.81401">
        <ele>161.487222</ele>
        <time>2021-09-14T06:31:36.000Z</time>
      </trkpt>
      <trkpt lat="45.62725" lon="4.81401">
        <ele>161.553139</ele>
        <time>2021-09-14T06:31:38.000Z</time>
      </trkpt>
      <trkpt lat="45.62721" lon="4.81398">
        <ele>161.579986</ele>
        <time>2021-09-14T06:31:39.000Z</time>
      </trkpt>
      <trkpt lat="45.62709" lon="4.81384">
        <ele>161.656293</ele>
        <time>2021-09-14T06:31:43.000Z</time>
      </trkpt>
      <trkpt lat="45.62696" lon="4.81378">
        <ele>161.708066</ele>
        <time>2021-09-14T06:31:47.000Z</time>
      </trkpt>
      <trkpt lat="45.62686" lon="4.81371">
        <ele>161.748178</ele>
        <time>2021-09-14T06:31:50.000Z</time>
      </trkpt>
      <trkpt lat="45.62682" lon="4.81367">
        <ele>161.767161</ele>
        <time>2021-09-14T06:31:51.000Z</time>
      </trkpt>
      <trkpt lat="45.62672" lon="4.8136">
        <ele>161.808125</ele>
        <time>2021-09-14T06:31:53.000Z</time>
      </trkpt>
      <trkpt lat="45.62659" lon="4.81355">
        <ele>161.860155</ele>
        <time>2021-09-14T06:31:56.000Z</time>
      </trkpt>
      <trkpt lat="45.62642" lon="4.81344">
        <ele>161.929156</ele>
        <time>2021-09-14T06:32:01.000Z</time>
      </trkpt>
      <trkpt lat="45.62627" lon="4.81334">
        <ele>161.990227</ele>
        <time>2021-09-14T06:32:04.000Z</time>
      </trkpt>
      <trkpt lat="45.62616" lon="4.81333">
        <ele>162.03347</ele>
        <time>2021-09-14T06:32:06.000Z</time>
      </trkpt>
      <trkpt lat="45.62602" lon="4.8133">
        <ele>162.087015</ele>
        <time>2021-09-14T06:32:10.000Z</time>
      </trkpt>
      <trkpt lat="45.62586" lon="4.81319">
        <ele>162.152148</ele>
        <time>2021-09-14T06:32:14.000Z</time>
      </trkpt>
      <trkpt lat="45.62581" lon="4.81316">
        <ele>162.17435</ele>
        <time>2021-09-14T06:32:15.000Z</time>
      </trkpt>
      <trkpt lat="45.62565" lon="4.81311">
        <ele>162.234416</ele>
        <time>2021-09-14T06:32:18.000Z</time>
      </trkpt>
      <trkpt lat="45.62557" lon="4.81309">
        <ele>162.263086</ele>
        <time>2021-09-14T06:32:20.000Z</time>
      </trkpt>
      <trkpt lat="45.62537" lon="4.81297">
        <ele>162.216032</ele>
        <time>2021-09-14T06:32:25.000Z</time>
      </trkpt>
      <trkpt lat="45.62517" lon="4.81293">
        <ele>162.058511</ele>
        <time>2021-09-14T06:32:29.000Z</time>
      </trkpt>
      <trkpt lat="45.62498" lon="4.8128">
        <ele>161.888106</ele>
        <time>2021-09-14T06:32:33.000Z</time>
      </trkpt>
      <trkpt lat="45.62492" lon="4.81277">
        <ele>161.843942</ele>
        <time>2021-09-14T06:32:34.000Z</time>
      </trkpt>
      <trkpt lat="45.62457" lon="4.81265">
        <ele>161.562883</ele>
        <time>2021-09-14T06:32:40.000Z</time>
      </trkpt>
      <trkpt lat="45.62447" lon="4.81262">
        <ele>161.47877</ele>
        <time>2021-09-14T06:32:42.000Z</time>
      </trkpt>
      <trkpt lat="45.62436" lon="4.81258">
        <ele>161.389977</ele>
        <time>2021-09-14T06:32:44.000Z</time>
      </trkpt>
      <trkpt lat="45.62399" lon="4.81241">
        <ele>161.082289</ele>
        <time>2021-09-14T06:32:51.000Z</time>
      </trkpt>
      <trkpt lat="45.62386" lon="4.81235">
        <ele>160.974426</ele>
        <time>2021-09-14T06:32:55.000Z</time>
      </trkpt>
      <trkpt lat="45.62362" lon="4.81225">
        <ele>160.788993</ele>
        <time>2021-09-14T06:33:01.000Z</time>
      </trkpt>
      <trkpt lat="45.62349" lon="4.81219">
        <ele>160.685217</ele>
        <time>2021-09-14T06:33:04.000Z</time>
      </trkpt>
      <trkpt lat="45.6234" lon="4.81215">
        <ele>160.61819</ele>
        <time>2021-09-14T06:33:06.000Z</time>
      </trkpt>
      <trkpt lat="45.62336" lon="4.81214">
        <ele>160.590005</ele>
        <time>2021-09-14T06:33:07.000Z</time>
      </trkpt>
      <trkpt lat="45.62314" lon="4.81205">
        <ele>160.423136</ele>
        <time>2021-09-14T06:33:12.000Z</time>
      </trkpt>
      <trkpt lat="45.6231" lon="4.81205">
        <ele>160.391018</ele>
        <time>2021-09-14T06:33:13.000Z</time>
      </trkpt>
      <trkpt lat="45.62299" lon="4.81203">
        <ele>160.311612</ele>
        <time>2021-09-14T06:33:16.000Z</time>
      </trkpt>
      <trkpt lat="45.62278" lon="4.81192">
        <ele>160.149871</ele>
        <time>2021-09-14T06:33:21.000Z</time>
      </trkpt>
      <trkpt lat="45.62269" lon="4.81187">
        <ele>160.076405</ele>
        <time>2021-09-14T06:33:23.000Z</time>
      </trkpt>
      <trkpt lat="45.62253" lon="4.81182">
        <ele>159.962904</ele>
        <time>2021-09-14T06:33:26.000Z</time>
      </trkpt>
      <trkpt lat="45.62244" lon="4.81179">
        <ele>159.88972</ele>
        <time>2021-09-14T06:33:28.000Z</time>
      </trkpt>
      <trkpt lat="45.62235" lon="4.81176">
        <ele>159.826232</ele>
        <time>2021-09-14T06:33:30.000Z</time>
      </trkpt>
      <trkpt lat="45.62227" lon="4.81173">
        <ele>159.769132</ele>
        <time>2021-09-14T06:33:32.000Z</time>
      </trkpt>
      <trkpt lat="45.62213" lon="4.81166">
        <ele>159.658923</ele>
        <time>2021-09-14T06:33:35.000Z</time>
      </trkpt>
      <trkpt lat="45.62176" lon="4.81149">
        <ele>159.340384</ele>
        <time>2021-09-14T06:33:42.000Z</time>
      </trkpt>
      <trkpt lat="45.62171" lon="4.81148">
        <ele>159.296184</ele>
        <time>2021-09-14T06:33:43.000Z</time>
      </trkpt>
      <trkpt lat="45.62162" lon="4.81146">
        <ele>159.216454</ele>
        <time>2021-09-14T06:33:45.000Z</time>
      </trkpt>
      <trkpt lat="45.62158" lon="4.81144">
        <ele>159.176431</ele>
        <time>2021-09-14T06:33:46.000Z</time>
      </trkpt>
      <trkpt lat="45.62143" lon="4.81135">
        <ele>159.038111</ele>
        <time>2021-09-14T06:33:49.000Z</time>
      </trkpt>
      <trkpt lat="45.62137" lon="4.81134">
        <ele>158.989077</ele>
        <time>2021-09-14T06:33:50.000Z</time>
      </trkpt>
      <trkpt lat="45.62132" lon="4.81132">
        <ele>158.941601</ele>
        <time>2021-09-14T06:33:51.000Z</time>
      </trkpt>
      <trkpt lat="45.62109" lon="4.81125">
        <ele>158.746068</ele>
        <time>2021-09-14T06:33:55.000Z</time>
      </trkpt>
      <trkpt lat="45.62094" lon="4.81119">
        <ele>158.610513</ele>
        <time>2021-09-14T06:33:58.000Z</time>
      </trkpt>
      <trkpt lat="45.62085" lon="4.81114">
        <ele>158.52218</ele>
        <time>2021-09-14T06:34:00.000Z</time>
      </trkpt>
      <trkpt lat="45.6208" lon="4.81112">
        <ele>158.4767</ele>
        <time>2021-09-14T06:34:01.000Z</time>
      </trkpt>
      <trkpt lat="45.6207" lon="4.81107">
        <ele>158.388566</ele>
        <time>2021-09-14T06:34:03.000Z</time>
      </trkpt>
      <trkpt lat="45.62065" lon="4.81105">
        <ele>158.344904</ele>
        <time>2021-09-14T06:34:04.000Z</time>
      </trkpt>
      <trkpt lat="45.62033" lon="4.8109">
        <ele>158.056571</ele>
        <time>2021-09-14T06:34:10.000Z</time>
      </trkpt>
      <trkpt lat="45.62023" lon="4.81087">
        <ele>157.952661</ele>
        <time>2021-09-14T06:34:12.000Z</time>
      </trkpt>
      <trkpt lat="45.62015" lon="4.81084">
        <ele>157.869742</ele>
        <time>2021-09-14T06:34:14.000Z</time>
      </trkpt>
      <trkpt lat="45.61999" lon="4.81078">
        <ele>157.703554</ele>
        <time>2021-09-14T06:34:18.000Z</time>
      </trkpt>
      <trkpt lat="45.6199" lon="4.81075">
        <ele>157.614446</ele>
        <time>2021-09-14T06:34:20.000Z</time>
      </trkpt>
      <trkpt lat="45.6198" lon="4.81071">
        <ele>157.5066</ele>
        <time>2021-09-14T06:34:22.000Z</time>
      </trkpt>
      <trkpt lat="45.61952" lon="4.81061">
        <ele>157.218069</ele>
        <time>2021-09-14T06:34:27.000Z</time>
      </trkpt>
      <trkpt lat="45.61935" lon="4.81053">
        <ele>157.039648</ele>
        <time>2021-09-14T06:34:30.000Z</time>
      </trkpt>
      <trkpt lat="45.61924" lon="4.81047">
        <ele>156.919727</ele>
        <time>2021-09-14T06:34:32.000Z</time>
      </trkpt>
      <trkpt lat="45.61889" lon="4.81032">
        <ele>156.55399</ele>
        <time>2021-09-14T06:34:38.000Z</time>
      </trkpt>
      <trkpt lat="45.61884" lon="4.8103">
        <ele>156.506255</ele>
        <time>2021-09-14T06:34:39.000Z</time>
      </trkpt>
      <trkpt lat="45.61878" lon="4.81028">
        <ele>156.444996</ele>
        <time>2021-09-14T06:34:41.000Z</time>
      </trkpt>
      <trkpt lat="45.61865" lon="4.81023">
        <ele>156.311073</ele>
        <time>2021-09-14T06:34:45.000Z</time>
      </trkpt>
      <trkpt lat="45.61848" lon="4.81013">
        <ele>156.177669</ele>
        <time>2021-09-14T06:34:49.000Z</time>
      </trkpt>
      <trkpt lat="45.61844" lon="4.81011">
        <ele>156.15363</ele>
        <time>2021-09-14T06:34:50.000Z</time>
      </trkpt>
      <trkpt lat="45.6183" lon="4.81005">
        <ele>156.083318</ele>
        <time>2021-09-14T06:34:53.000Z</time>
      </trkpt>
      <trkpt lat="45.61797" lon="4.80997">
        <ele>155.923297</ele>
        <time>2021-09-14T06:35:00.000Z</time>
      </trkpt>
      <trkpt lat="45.61792" lon="4.80996">
        <ele>155.900328</ele>
        <time>2021-09-14T06:35:01.000Z</time>
      </trkpt>
      <trkpt lat="45.61773" lon="4.80985">
        <ele>155.798469</ele>
        <time>2021-09-14T06:35:05.000Z</time>
      </trkpt>
      <trkpt lat="45.61762" lon="4.80981">
        <ele>155.74376</ele>
        <time>2021-09-14T06:35:07.000Z</time>
      </trkpt>
      <trkpt lat="45.61746" lon="4.80976">
        <ele>155.667325</ele>
        <time>2021-09-14T06:35:10.000Z</time>
      </trkpt>
      <trkpt lat="45.61741" lon="4.80973">
        <ele>155.640909</ele>
        <time>2021-09-14T06:35:11.000Z</time>
      </trkpt>
      <trkpt lat="45.61731" lon="4.80968">
        <ele>155.587865</ele>
        <time>2021-09-14T06:35:13.000Z</time>
      </trkpt>
      <trkpt lat="45.6172" lon="4.80963">
        <ele>155.53323</ele>
        <time>2021-09-14T06:35:15.000Z</time>
      </trkpt>
      <trkpt lat="45.61691" lon="4.8095">
        <ele>155.386202</ele>
        <time>2021-09-14T06:35:20.000Z</time>
      </trkpt>
      <trkpt lat="45.61685" lon="4.80948">
        <ele>155.357746</ele>
        <time>2021-09-14T06:35:21.000Z</time>
      </trkpt>
      <trkpt lat="45.61654" lon="4.80936">
        <ele>155.390756</ele>
        <time>2021-09-14T06:35:27.000Z</time>
      </trkpt>
      <trkpt lat="45.61638" lon="4.80927">
        <ele>155.408728</ele>
        <time>2021-09-14T06:35:30.000Z</time>
      </trkpt>
      <trkpt lat="45.61632" lon="4.80924">
        <ele>155.415002</ele>
        <time>2021-09-14T06:35:31.000Z</time>
      </trkpt>
      <trkpt lat="45.61621" lon="4.80919">
        <ele>155.428031</ele>
        <time>2021-09-14T06:35:33.000Z</time>
      </trkpt>
      <trkpt lat="45.61605" lon="4.80912">
        <ele>155.445254</ele>
        <time>2021-09-14T06:35:36.000Z</time>
      </trkpt>
      <trkpt lat="45.61578" lon="4.80899">
        <ele>155.475386</ele>
        <time>2021-09-14T06:35:41.000Z</time>
      </trkpt>
      <trkpt lat="45.61556" lon="4.80887">
        <ele>155.500359</ele>
        <time>2021-09-14T06:35:45.000Z</time>
      </trkpt>
      <trkpt lat="45.61546" lon="4.80886">
        <ele>155.510301</ele>
        <time>2021-09-14T06:35:47.000Z</time>
      </trkpt>
      <trkpt lat="45.61536" lon="4.80888">
        <ele>155.520804</ele>
        <time>2021-09-14T06:35:51.000Z</time>
      </trkpt>
      <trkpt lat="45.61532" lon="4.8089">
        <ele>155.526037</ele>
        <time>2021-09-14T06:35:54.000Z</time>
      </trkpt>
      <trkpt lat="45.61528" lon="4.80892">
        <ele>155.530402</ele>
        <time>2021-09-14T06:35:56.000Z</time>
      </trkpt>
      <trkpt lat="45.61526" lon="4.80894">
        <ele>155.532944</ele>
        <time>2021-09-14T06:35:57.000Z</time>
      </trkpt>
      <trkpt lat="45.61517" lon="4.80895">
        <ele>155.542151</ele>
        <time>2021-09-14T06:36:00.000Z</time>
      </trkpt>
      <trkpt lat="45.61496" lon="4.80885">
        <ele>156.032179</ele>
        <time>2021-09-14T06:36:06.000Z</time>
      </trkpt>
      <trkpt lat="45.61475" lon="4.80876">
        <ele>156.639115</ele>
        <time>2021-09-14T06:36:12.000Z</time>
      </trkpt>
      <trkpt lat="45.61452" lon="4.80868">
        <ele>157.2885</ele>
        <time>2021-09-14T06:36:19.000Z</time>
      </trkpt>
      <trkpt lat="45.61435" lon="4.80861">
        <ele>157.774348</ele>
        <time>2021-09-14T06:36:25.000Z</time>
      </trkpt>
      <trkpt lat="45.61417" lon="4.80854">
        <ele>158.265458</ele>
        <time>2021-09-14T06:36:32.000Z</time>
      </trkpt>
      <trkpt lat="45.61406" lon="4.8085">
        <ele>158.577434</ele>
        <time>2021-09-14T06:36:38.000Z</time>
      </trkpt>
      <trkpt lat="45.61394" lon="4.80855">
        <ele>158.922288</ele>
        <time>2021-09-14T06:36:44.000Z</time>
      </trkpt>
      <trkpt lat="45.61387" lon="4.80873">
        <ele>159.309909</ele>
        <time>2021-09-14T06:36:50.000Z</time>
      </trkpt>
      <trkpt lat="45.61378" lon="4.80898">
        <ele>159.84637</ele>
        <time>2021-09-14T06:36:57.000Z</time>
      </trkpt>
      <trkpt lat="45.61364" lon="4.80933">
        <ele>160.518403</ele>
        <time>2021-09-14T06:37:05.000Z</time>
      </trkpt>
      <trkpt lat="45.61357" lon="4.80941">
        <ele>160.614871</ele>
        <time>2021-09-14T06:37:07.000Z</time>
      </trkpt>
      <trkpt lat="45.61347" lon="4.80947">
        <ele>160.726074</ele>
        <time>2021-09-14T06:37:09.000Z</time>
      </trkpt>
      <trkpt lat="45.61337" lon="4.80948">
        <ele>160.835317</ele>
        <time>2021-09-14T06:37:11.000Z</time>
      </trkpt>
      <trkpt lat="45.61332" lon="4.80946">
        <ele>160.892552</ele>
        <time>2021-09-14T06:37:12.000Z</time>
      </trkpt>
      <trkpt lat="45.61327" lon="4.80943">
        <ele>160.948568</ele>
        <time>2021-09-14T06:37:13.000Z</time>
      </trkpt>
      <trkpt lat="45.61318" lon="4.80935">
        <ele>161.062338</ele>
        <time>2021-09-14T06:37:15.000Z</time>
      </trkpt>
      <trkpt lat="45.61314" lon="4.80929">
        <ele>161.118902</ele>
        <time>2021-09-14T06:37:16.000Z</time>
      </trkpt>
      <trkpt lat="45.61276" lon="4.80873">
        <ele>161.70882</ele>
        <time>2021-09-14T06:37:26.000Z</time>
      </trkpt>
      <trkpt lat="45.61259" lon="4.80852">
        <ele>161.945274</ele>
        <time>2021-09-14T06:37:30.000Z</time>
      </trkpt>
      <trkpt lat="45.6125" lon="4.80846">
        <ele>162.052476</ele>
        <time>2021-09-14T06:37:32.000Z</time>
      </trkpt>
      <trkpt lat="45.61246" lon="4.80845">
        <ele>162.094737</ele>
        <time>2021-09-14T06:37:33.000Z</time>
      </trkpt>
      <trkpt lat="45.61238" lon="4.80845">
        <ele>162.187807</ele>
        <time>2021-09-14T06:37:35.000Z</time>
      </trkpt>
      <trkpt lat="45.61225" lon="4.80852">
        <ele>162.329157</ele>
        <time>2021-09-14T06:37:38.000Z</time>
      </trkpt>
      <trkpt lat="45.61212" lon="4.80857">
        <ele>162.960549</ele>
        <time>2021-09-14T06:37:40.000Z</time>
      </trkpt>
      <trkpt lat="45.6121" lon="4.80854">
        <ele>163.176087</ele>
        <time>2021-09-14T06:37:41.000Z</time>
      </trkpt>
      <trkpt lat="45.61201" lon="4.80843">
        <ele>163.905962</ele>
        <time>2021-09-14T06:37:45.000Z</time>
      </trkpt>
      <trkpt lat="45.61197" lon="4.80838">
        <ele>164.230976</ele>
        <time>2021-09-14T06:37:50.000Z</time>
      </trkpt>
      <trkpt lat="45.61195" lon="4.8084">
        <ele>164.396331</ele>
        <time>2021-09-14T06:37:51.000Z</time>
      </trkpt>
      <trkpt lat="45.61187" lon="4.80855">
        <ele>165.153652</ele>
        <time>2021-09-14T06:37:56.000Z</time>
      </trkpt>
      <trkpt lat="45.61177" lon="4.80863">
        <ele>165.859212</ele>
        <time>2021-09-14T06:38:03.000Z</time>
      </trkpt>
      <trkpt lat="45.61169" lon="4.80871">
        <ele>166.448918</ele>
        <time>2021-09-14T06:38:10.000Z</time>
      </trkpt>
      <trkpt lat="45.61167" lon="4.80868">
        <ele>166.662953</ele>
        <time>2021-09-14T06:38:14.000Z</time>
      </trkpt>
      <trkpt lat="45.61157" lon="4.80858">
        <ele>167.369665</ele>
        <time>2021-09-14T06:38:21.000Z</time>
      </trkpt>
      <trkpt lat="45.6115" lon="4.80848">
        <ele>167.987325</ele>
        <time>2021-09-14T06:38:27.000Z</time>
      </trkpt>
      <trkpt lat="45.61143" lon="4.80844">
        <ele>168.43954</ele>
        <time>2021-09-14T06:38:32.000Z</time>
      </trkpt>
      <trkpt lat="45.61143" lon="4.80846">
        <ele>168.539076</ele>
        <time>2021-09-14T06:38:33.000Z</time>
      </trkpt>
      <trkpt lat="45.61144" lon="4.80855">
        <ele>168.918321</ele>
        <time>2021-09-14T06:38:37.000Z</time>
      </trkpt>
      <trkpt lat="45.61154" lon="4.80869">
        <ele>169.776151</ele>
        <time>2021-09-14T06:38:45.000Z</time>
      </trkpt>
      <trkpt lat="45.61157" lon="4.80874">
        <ele>170.071759</ele>
        <time>2021-09-14T06:38:48.000Z</time>
      </trkpt>
      <trkpt lat="45.61159" lon="4.80878">
        <ele>170.251354</ele>
        <time>2021-09-14T06:38:51.000Z</time>
      </trkpt>
      <trkpt lat="45.61164" lon="4.80893">
        <ele>170.967473</ele>
        <time>2021-09-14T06:38:58.000Z</time>
      </trkpt>
      <trkpt lat="45.61163" lon="4.80905">
        <ele>171.515816</ele>
        <time>2021-09-14T06:39:04.000Z</time>
      </trkpt>
      <trkpt lat="45.61158" lon="4.8092">
        <ele>172.210256</ele>
        <time>2021-09-14T06:39:12.000Z</time>
      </trkpt>
      <trkpt lat="45.61153" lon="4.80933">
        <ele>172.847833</ele>
        <time>2021-09-14T06:39:19.000Z</time>
      </trkpt>
      <trkpt lat="45.61149" lon="4.80953">
        <ele>173.830296</ele>
        <time>2021-09-14T06:39:29.000Z</time>
      </trkpt>
      <trkpt lat="45.61155" lon="4.80968">
        <ele>174.696333</ele>
        <time>2021-09-14T06:39:36.000Z</time>
      </trkpt>
      <trkpt lat="45.61163" lon="4.80984">
        <ele>175.741785</ele>
        <time>2021-09-14T06:39:44.000Z</time>
      </trkpt>
      <trkpt lat="45.61162" lon="4.80994">
        <ele>176.267387</ele>
        <time>2021-09-14T06:39:47.000Z</time>
      </trkpt>
      <trkpt lat="45.61161" lon="4.80995">
        <ele>176.359968</ele>
        <time>2021-09-14T06:39:48.000Z</time>
      </trkpt>
      <trkpt lat="45.6116" lon="4.80996">
        <ele>176.443493</ele>
        <time>2021-09-14T06:39:51.000Z</time>
      </trkpt>
      <trkpt lat="45.61156" lon="4.81004">
        <ele>176.976798</ele>
        <time>2021-09-14T06:41:35.000Z</time>
      </trkpt>
      <trkpt lat="45.61156" lon="4.81006">
        <ele>177.080917</ele>
        <time>2021-09-14T06:41:36.000Z</time>
      </trkpt>
      <trkpt lat="45.6115" lon="4.81007">
        <ele>177.48019</ele>
        <time>2021-09-14T06:41:37.000Z</time>
      </trkpt>
      <trkpt lat="45.61143" lon="4.81007">
        <ele>178.014448</ele>
        <time>2021-09-14T06:41:41.000Z</time>
      </trkpt>
      <trkpt lat="45.61136" lon="4.81008">
        <ele>178.51839</ele>
        <time>2021-09-14T06:41:46.000Z</time>
      </trkpt>
      <trkpt lat="45.61122" lon="4.81006">
        <ele>179.639668</ele>
        <time>2021-09-14T06:41:52.000Z</time>
      </trkpt>
      <trkpt lat="45.61107" lon="4.80999">
        <ele>180.809078</ele>
        <time>2021-09-14T06:41:59.000Z</time>
      </trkpt>
      <trkpt lat="45.611" lon="4.80994">
        <ele>181.412373</ele>
        <time>2021-09-14T06:42:04.000Z</time>
      </trkpt>
      <trkpt lat="45.6109" lon="4.80983">
        <ele>182.335302</ele>
        <time>2021-09-14T06:42:11.000Z</time>
      </trkpt>
      <trkpt lat="45.61088" lon="4.8098">
        <ele>182.549429</ele>
        <time>2021-09-14T06:42:13.000Z</time>
      </trkpt>
      <trkpt lat="45.61082" lon="4.80974">
        <ele>183.102999</ele>
        <time>2021-09-14T06:42:17.000Z</time>
      </trkpt>
      <trkpt lat="45.61074" lon="4.80953">
        <ele>184.329357</ele>
        <time>2021-09-14T06:42:24.000Z</time>
      </trkpt>
      <trkpt lat="45.61072" lon="4.80948">
        <ele>184.657278</ele>
        <time>2021-09-14T06:42:25.000Z</time>
      </trkpt>
      <trkpt lat="45.61063" lon="4.8093">
        <ele>185.779664</ele>
        <time>2021-09-14T06:42:28.000Z</time>
      </trkpt>
      <trkpt lat="45.61046" lon="4.80894">
        <ele>186.888162</ele>
        <time>2021-09-14T06:42:34.000Z</time>
      </trkpt>
      <trkpt lat="45.61032" lon="4.80865">
        <ele>186.920084</ele>
        <time>2021-09-14T06:42:39.000Z</time>
      </trkpt>
      <trkpt lat="45.6103" lon="4.8086">
        <ele>186.926198</ele>
        <time>2021-09-14T06:42:40.000Z</time>
      </trkpt>
      <trkpt lat="45.61013" lon="4.80826">
        <ele>186.963929</ele>
        <time>2021-09-14T06:42:46.000Z</time>
      </trkpt>
      <trkpt lat="45.6101" lon="4.80822">
        <ele>186.970029</ele>
        <time>2021-09-14T06:42:47.000Z</time>
      </trkpt>
      <trkpt lat="45.61003" lon="4.80813">
        <ele>186.981786</ele>
        <time>2021-09-14T06:42:49.000Z</time>
      </trkpt>
      <trkpt lat="45.6099" lon="4.80796">
        <ele>187.005043</ele>
        <time>2021-09-14T06:42:53.000Z</time>
      </trkpt>
      <trkpt lat="45.60984" lon="4.80788">
        <ele>187.016322</ele>
        <time>2021-09-14T06:42:55.000Z</time>
      </trkpt>
      <trkpt lat="45.60968" lon="4.80767">
        <ele>187.044697</ele>
        <time>2021-09-14T06:43:00.000Z</time>
      </trkpt>
      <trkpt lat="45.60955" lon="4.8075">
        <ele>187.067511</ele>
        <time>2021-09-14T06:43:04.000Z</time>
      </trkpt>
      <trkpt lat="45.60949" lon="4.80741">
        <ele>187.079544</ele>
        <time>2021-09-14T06:43:06.000Z</time>
      </trkpt>
      <trkpt lat="45.60932" lon="4.80706">
        <ele>187.236412</ele>
        <time>2021-09-14T06:43:12.000Z</time>
      </trkpt>
      <trkpt lat="45.60919" lon="4.80682">
        <ele>187.489912</ele>
        <time>2021-09-14T06:43:16.000Z</time>
      </trkpt>
      <trkpt lat="45.60913" lon="4.8067">
        <ele>187.612307</ele>
        <time>2021-09-14T06:43:18.000Z</time>
      </trkpt>
      <trkpt lat="45.60907" lon="4.80658">
        <ele>187.732726</ele>
        <time>2021-09-14T06:43:21.000Z</time>
      </trkpt>
      <trkpt lat="45.60901" lon="4.80641">
        <ele>187.890981</ele>
        <time>2021-09-14T06:43:26.000Z</time>
      </trkpt>
      <trkpt lat="45.60889" lon="4.80632">
        <ele>188.04964</ele>
        <time>2021-09-14T06:43:32.000Z</time>
      </trkpt>
      <trkpt lat="45.60884" lon="4.80628">
        <ele>188.11603</ele>
        <time>2021-09-14T06:43:36.000Z</time>
      </trkpt>
      <trkpt lat="45.60877" lon="4.80623">
        <ele>188.217901</ele>
        <time>2021-09-14T06:43:41.000Z</time>
      </trkpt>
      <trkpt lat="45.60863" lon="4.80605">
        <ele>188.429386</ele>
        <time>2021-09-14T06:43:49.000Z</time>
      </trkpt>
      <trkpt lat="45.60856" lon="4.80584">
        <ele>188.627895</ele>
        <time>2021-09-14T06:43:54.000Z</time>
      </trkpt>
      <trkpt lat="45.60849" lon="4.80565">
        <ele>188.803754</ele>
        <time>2021-09-14T06:43:58.000Z</time>
      </trkpt>
      <trkpt lat="45.60837" lon="4.80532">
        <ele>189.110007</ele>
        <time>2021-09-14T06:44:04.000Z</time>
      </trkpt>
      <trkpt lat="45.60825" lon="4.80511">
        <ele>189.221214</ele>
        <time>2021-09-14T06:44:09.000Z</time>
      </trkpt>
      <trkpt lat="45.60809" lon="4.80484">
        <ele>189.212125</ele>
        <time>2021-09-14T06:44:18.000Z</time>
      </trkpt>
      <trkpt lat="45.60799" lon="4.80467">
        <ele>189.206418</ele>
        <time>2021-09-14T06:44:23.000Z</time>
      </trkpt>
      <trkpt lat="45.60789" lon="4.80451">
        <ele>189.200908</ele>
        <time>2021-09-14T06:44:27.000Z</time>
      </trkpt>
      <trkpt lat="45.60772" lon="4.80425">
        <ele>189.191559</ele>
        <time>2021-09-14T06:44:34.000Z</time>
      </trkpt>
      <trkpt lat="45.60761" lon="4.80409">
        <ele>189.18578</ele>
        <time>2021-09-14T06:44:38.000Z</time>
      </trkpt>
      <trkpt lat="45.6075" lon="4.80397">
        <ele>189.180809</ele>
        <time>2021-09-14T06:44:43.000Z</time>
      </trkpt>
      <trkpt lat="45.60742" lon="4.80386">
        <ele>189.176755</ele>
        <time>2021-09-14T06:44:48.000Z</time>
      </trkpt>
      <trkpt lat="45.60732" lon="4.8037">
        <ele>189.17139</ele>
        <time>2021-09-14T06:44:54.000Z</time>
      </trkpt>
      <trkpt lat="45.60724" lon="4.80359">
        <ele>189.167288</ele>
        <time>2021-09-14T06:44:57.000Z</time>
      </trkpt>
      <trkpt lat="45.60721" lon="4.80355">
        <ele>189.165722</ele>
        <time>2021-09-14T06:44:58.000Z</time>
      </trkpt>
      <trkpt lat="45.60706" lon="4.80337">
        <ele>189.158561</ele>
        <time>2021-09-14T06:45:03.000Z</time>
      </trkpt>
      <trkpt lat="45.60697" lon="4.80327">
        <ele>189.252662</ele>
        <time>2021-09-14T06:45:07.000Z</time>
      </trkpt>
      <trkpt lat="45.6069" lon="4.80319">
        <ele>189.321446</ele>
        <time>2021-09-14T06:45:12.000Z</time>
      </trkpt>
      <trkpt lat="45.60681" lon="4.8031">
        <ele>189.406784</ele>
        <time>2021-09-14T06:45:18.000Z</time>
      </trkpt>
      <trkpt lat="45.60666" lon="4.80294">
        <ele>189.551987</ele>
        <time>2021-09-14T06:45:26.000Z</time>
      </trkpt>
      <trkpt lat="45.60657" lon="4.80283">
        <ele>189.64529</ele>
        <time>2021-09-14T06:45:32.000Z</time>
      </trkpt>
      <trkpt lat="45.60648" lon="4.80274">
        <ele>189.729673</ele>
        <time>2021-09-14T06:45:37.000Z</time>
      </trkpt>
      <trkpt lat="45.60639" lon="4.80264">
        <ele>189.817874</ele>
        <time>2021-09-14T06:45:42.000Z</time>
      </trkpt>
      <trkpt lat="45.6063" lon="4.80255">
        <ele>189.903212</ele>
        <time>2021-09-14T06:45:47.000Z</time>
      </trkpt>
      <trkpt lat="45.60616" lon="4.80239">
        <ele>190.04269</ele>
        <time>2021-09-14T06:45:53.000Z</time>
      </trkpt>
      <trkpt lat="45.60599" lon="4.80222">
        <ele>190.205401</ele>
        <time>2021-09-14T06:45:59.000Z</time>
      </trkpt>
      <trkpt lat="45.60584" lon="4.80205">
        <ele>190.358518</ele>
        <time>2021-09-14T06:46:04.000Z</time>
      </trkpt>
      <trkpt lat="45.60572" lon="4.80188">
        <ele>190.487686</ele>
        <time>2021-09-14T06:46:10.000Z</time>
      </trkpt>
      <trkpt lat="45.60565" lon="4.80181">
        <ele>190.554535</ele>
        <time>2021-09-14T06:46:14.000Z</time>
      </trkpt>
      <trkpt lat="45.60558" lon="4.80173">
        <ele>190.363016</ele>
        <time>2021-09-14T06:46:19.000Z</time>
      </trkpt>
      <trkpt lat="45.60547" lon="4.80162">
        <ele>189.993736</ele>
        <time>2021-09-14T06:46:26.000Z</time>
      </trkpt>
      <trkpt lat="45.60537" lon="4.8015">
        <ele>189.669518</ele>
        <time>2021-09-14T06:46:32.000Z</time>
      </trkpt>
      <trkpt lat="45.60531" lon="4.80139">
        <ele>189.403041</ele>
        <time>2021-09-14T06:46:38.000Z</time>
      </trkpt>
      <trkpt lat="45.60521" lon="4.80123">
        <ele>189.013227</ele>
        <time>2021-09-14T06:46:43.000Z</time>
      </trkpt>
      <trkpt lat="45.60513" lon="4.8011">
        <ele>188.693227</ele>
        <time>2021-09-14T06:46:47.000Z</time>
      </trkpt>
      <trkpt lat="45.60508" lon="4.80103">
        <ele>188.513609</ele>
        <time>2021-09-14T06:46:50.000Z</time>
      </trkpt>
      <trkpt lat="45.60499" lon="4.80089">
        <ele>188.157136</ele>
        <time>2021-09-14T06:46:56.000Z</time>
      </trkpt>
      <trkpt lat="45.6049" lon="4.80073">
        <ele>187.76732</ele>
        <time>2021-09-14T06:47:02.000Z</time>
      </trkpt>
      <trkpt lat="45.60478" lon="4.80055">
        <ele>187.319472</ele>
        <time>2021-09-14T06:47:08.000Z</time>
      </trkpt>
      <trkpt lat="45.60463" lon="4.8003">
        <ele>186.71319</ele>
        <time>2021-09-14T06:47:15.000Z</time>
      </trkpt>
      <trkpt lat="45.60455" lon="4.80018">
        <ele>186.408481</ele>
        <time>2021-09-14T06:47:20.000Z</time>
      </trkpt>
      <trkpt lat="45.6045" lon="4.8001">
        <ele>186.209394</ele>
        <time>2021-09-14T06:47:24.000Z</time>
      </trkpt>
      <trkpt lat="45.60446" lon="4.79999">
        <ele>185.990619</ele>
        <time>2021-09-14T06:47:30.000Z</time>
      </trkpt>
      <trkpt lat="45.60445" lon="4.79997">
        <ele>185.946475</ele>
        <time>2021-09-14T06:47:31.000Z</time>
      </trkpt>
      <trkpt lat="45.60443" lon="4.79992">
        <ele>185.833676</ele>
        <time>2021-09-14T06:47:34.000Z</time>
      </trkpt>
      <trkpt lat="45.60433" lon="4.79979">
        <ele>185.224465</ele>
        <time>2021-09-14T06:47:40.000Z</time>
      </trkpt>
      <trkpt lat="45.60429" lon="4.79974">
        <ele>184.980347</ele>
        <time>2021-09-14T06:47:42.000Z</time>
      </trkpt>
      <trkpt lat="45.60425" lon="4.79969">
        <ele>184.701241</ele>
        <time>2021-09-14T06:47:44.000Z</time>
      </trkpt>
      <trkpt lat="45.60413" lon="4.79954">
        <ele>183.971851</ele>
        <time>2021-09-14T06:47:49.000Z</time>
      </trkpt>
      <trkpt lat="45.60392" lon="4.79933">
        <ele>182.804453</ele>
        <time>2021-09-14T06:47:56.000Z</time>
      </trkpt>
      <trkpt lat="45.60377" lon="4.7992">
        <ele>181.990822</ele>
        <time>2021-09-14T06:48:02.000Z</time>
      </trkpt>
      <trkpt lat="45.60361" lon="4.79906">
        <ele>181.131704</ele>
        <time>2021-09-14T06:48:08.000Z</time>
      </trkpt>
      <trkpt lat="45.60339" lon="4.7989">
        <ele>180.00747</ele>
        <time>2021-09-14T06:48:16.000Z</time>
      </trkpt>
      <trkpt lat="45.60325" lon="4.7988">
        <ele>179.264479</ele>
        <time>2021-09-14T06:48:21.000Z</time>
      </trkpt>
      <trkpt lat="45.60307" lon="4.79868">
        <ele>178.355089</ele>
        <time>2021-09-14T06:48:27.000Z</time>
      </trkpt>
      <trkpt lat="45.60294" lon="4.79868">
        <ele>177.742324</ele>
        <time>2021-09-14T06:48:32.000Z</time>
      </trkpt>
      <trkpt lat="45.60287" lon="4.7987">
        <ele>177.548836</ele>
        <time>2021-09-14T06:48:36.000Z</time>
      </trkpt>
      <trkpt lat="45.60285" lon="4.79871">
        <ele>177.55886</ele>
        <time>2021-09-14T06:48:37.000Z</time>
      </trkpt>
      <trkpt lat="45.60278" lon="4.79872">
        <ele>177.592126</ele>
        <time>2021-09-14T06:48:40.000Z</time>
      </trkpt>
      <trkpt lat="45.60276" lon="4.79873">
        <ele>177.60273</ele>
        <time>2021-09-14T06:48:41.000Z</time>
      </trkpt>
      <trkpt lat="45.60268" lon="4.79875">
        <ele>177.64551</ele>
        <time>2021-09-14T06:48:45.000Z</time>
      </trkpt>
      <trkpt lat="45.60267" lon="4.79875">
        <ele>177.653302</ele>
        <time>2021-09-14T06:48:46.000Z</time>
      </trkpt>
      <trkpt lat="45.60265" lon="4.79875">
        <ele>177.663686</ele>
        <time>2021-09-14T06:48:47.000Z</time>
      </trkpt>
      <trkpt lat="45.60258" lon="4.79876">
        <ele>177.69743</ele>
        <time>2021-09-14T06:48:50.000Z</time>
      </trkpt>
      <trkpt lat="45.60247" lon="4.79876">
        <ele>177.755035</ele>
        <time>2021-09-14T06:48:55.000Z</time>
      </trkpt>
      <trkpt lat="45.60233" lon="4.7987">
        <ele>177.833777</ele>
        <time>2021-09-14T06:49:01.000Z</time>
      </trkpt>
      <trkpt lat="45.60221" lon="4.79852">
        <ele>177.921386</ele>
        <time>2021-09-14T06:49:07.000Z</time>
      </trkpt>
      <trkpt lat="45.60209" lon="4.79831">
        <ele>178.019446</ele>
        <time>2021-09-14T06:49:13.000Z</time>
      </trkpt>
      <trkpt lat="45.60195" lon="4.79815">
        <ele>178.114084</ele>
        <time>2021-09-14T06:49:19.000Z</time>
      </trkpt>
      <trkpt lat="45.60182" lon="4.79806">
        <ele>178.186285</ele>
        <time>2021-09-14T06:49:24.000Z</time>
      </trkpt>
      <trkpt lat="45.60166" lon="4.79793">
        <ele>178.282266</ele>
        <time>2021-09-14T06:49:30.000Z</time>
      </trkpt>
      <trkpt lat="45.60147" lon="4.7978">
        <ele>178.393149</ele>
        <time>2021-09-14T06:49:36.000Z</time>
      </trkpt>
      <trkpt lat="45.60123" lon="4.79764">
        <ele>178.509459</ele>
        <time>2021-09-14T06:49:42.000Z</time>
      </trkpt>
      <trkpt lat="45.60106" lon="4.79755">
        <ele>178.568576</ele>
        <time>2021-09-14T06:49:47.000Z</time>
      </trkpt>
      <trkpt lat="45.60103" lon="4.79754">
        <ele>178.576632</ele>
        <time>2021-09-14T06:49:48.000Z</time>
      </trkpt>
      <trkpt lat="45.60098" lon="4.79752">
        <ele>178.594617</ele>
        <time>2021-09-14T06:49:50.000Z</time>
      </trkpt>
      <trkpt lat="45.60086" lon="4.79747">
        <ele>178.638077</ele>
        <time>2021-09-14T06:49:54.000Z</time>
      </trkpt>
      <trkpt lat="45.60079" lon="4.79727">
        <ele>178.688918</ele>
        <time>2021-09-14T06:49:58.000Z</time>
      </trkpt>
      <trkpt lat="45.60073" lon="4.79718">
        <ele>178.718001</ele>
        <time>2021-09-14T06:50:00.000Z</time>
      </trkpt>
      <trkpt lat="45.60061" lon="4.79704">
        <ele>178.768869</ele>
        <time>2021-09-14T06:50:04.000Z</time>
      </trkpt>
      <trkpt lat="45.6006" lon="4.79704">
        <ele>178.773174</ele>
        <time>2021-09-14T06:50:07.000Z</time>
      </trkpt>
      <trkpt lat="45.60055" lon="4.79694">
        <ele>178.801758</ele>
        <time>2021-09-14T06:53:10.000Z</time>
      </trkpt>
      <trkpt lat="45.6005" lon="4.79691">
        <ele>178.81786</ele>
        <time>2021-09-14T06:53:12.000Z</time>
      </trkpt>
      <trkpt lat="45.60038" lon="4.79685">
        <ele>178.862288</ele>
        <time>2021-09-14T06:53:16.000Z</time>
      </trkpt>
      <trkpt lat="45.60014" lon="4.79664">
        <ele>178.952804</ele>
        <time>2021-09-14T06:53:21.000Z</time>
      </trkpt>
      <trkpt lat="45.59978" lon="4.79634">
        <ele>178.965926</ele>
        <time>2021-09-14T06:53:27.000Z</time>
      </trkpt>
      <trkpt lat="45.59947" lon="4.79607">
        <ele>178.520235</ele>
        <time>2021-09-14T06:53:32.000Z</time>
      </trkpt>
      <trkpt lat="45.59941" lon="4.79602">
        <ele>178.438704</ele>
        <time>2021-09-14T06:53:33.000Z</time>
      </trkpt>
      <trkpt lat="45.59909" lon="4.79575">
        <ele>177.991971</ele>
        <time>2021-09-14T06:53:39.000Z</time>
      </trkpt>
      <trkpt lat="45.5989" lon="4.79559">
        <ele>177.728053</ele>
        <time>2021-09-14T06:53:43.000Z</time>
      </trkpt>
      <trkpt lat="45.59882" lon="4.79552">
        <ele>177.608486</ele>
        <time>2021-09-14T06:53:45.000Z</time>
      </trkpt>
      <trkpt lat="45.59846" lon="4.79522">
        <ele>177.107948</ele>
        <time>2021-09-14T06:53:54.000Z</time>
      </trkpt>
      <trkpt lat="45.59824" lon="4.79504">
        <ele>176.798597</ele>
        <time>2021-09-14T06:54:01.000Z</time>
      </trkpt>
      <trkpt lat="45.59807" lon="4.79492">
        <ele>176.578525</ele>
        <time>2021-09-14T06:54:07.000Z</time>
      </trkpt>
      <trkpt lat="45.59802" lon="4.79488">
        <ele>176.50783</ele>
        <time>2021-09-14T06:54:09.000Z</time>
      </trkpt>
      <trkpt lat="45.598" lon="4.79487">
        <ele>176.489354</ele>
        <time>2021-09-14T06:54:10.000Z</time>
      </trkpt>
      <trkpt lat="45.59806" lon="4.79466">
        <ele>176.306509</ele>
        <time>2021-09-14T06:54:12.000Z</time>
      </trkpt>
      <trkpt lat="45.59811" lon="4.79455">
        <ele>176.192716</ele>
        <time>2021-09-14T06:54:14.000Z</time>
      </trkpt>
      <trkpt lat="45.59825" lon="4.7942">
        <ele>175.860291</ele>
        <time>2021-09-14T06:54:20.000Z</time>
      </trkpt>
      <trkpt lat="45.59826" lon="4.79415">
        <ele>175.813835</ele>
        <time>2021-09-14T06:54:21.000Z</time>
      </trkpt>
      <trkpt lat="45.59831" lon="4.79401">
        <ele>175.686789</ele>
        <time>2021-09-14T06:54:24.000Z</time>
      </trkpt>
      <trkpt lat="45.5983" lon="4.794">
        <ele>175.677102</ele>
        <time>2021-09-14T06:54:25.000Z</time>
      </trkpt>
      <trkpt lat="45.59824" lon="4.79392">
        <ele>175.576908</ele>
        <time>2021-09-14T06:54:29.000Z</time>
      </trkpt>
      <trkpt lat="45.59817" lon="4.79385">
        <ele>175.482195</ele>
        <time>2021-09-14T06:54:31.000Z</time>
      </trkpt>
      <trkpt lat="45.59806" lon="4.79369">
        <ele>175.295021</ele>
        <time>2021-09-14T06:54:34.000Z</time>
      </trkpt>
      <trkpt lat="45.59798" lon="4.79357">
        <ele>175.157905</ele>
        <time>2021-09-14T06:54:36.000Z</time>
      </trkpt>
      <trkpt lat="45.59782" lon="4.79332">
        <ele>174.871816</ele>
        <time>2021-09-14T06:54:40.000Z</time>
      </trkpt>
      <trkpt lat="45.59778" lon="4.79326">
        <ele>174.80839</ele>
        <time>2021-09-14T06:54:41.000Z</time>
      </trkpt>
      <trkpt lat="45.59767" lon="4.79319">
        <ele>174.742205</ele>
        <time>2021-09-14T06:54:43.000Z</time>
      </trkpt>
      <trkpt lat="45.59762" lon="4.79315">
        <ele>174.725739</ele>
        <time>2021-09-14T06:54:44.000Z</time>
      </trkpt>
      <trkpt lat="45.5974" lon="4.79301">
        <ele>174.658996</ele>
        <time>2021-09-14T06:54:48.000Z</time>
      </trkpt>
      <trkpt lat="45.59729" lon="4.79295">
        <ele>174.625503</ele>
        <time>2021-09-14T06:54:50.000Z</time>
      </trkpt>
      <trkpt lat="45.59712" lon="4.79291">
        <ele>174.576749</ele>
        <time>2021-09-14T06:54:53.000Z</time>
      </trkpt>
      <trkpt lat="45.59695" lon="4.79288">
        <ele>174.528915</ele>
        <time>2021-09-14T06:54:56.000Z</time>
      </trkpt>
      <trkpt lat="45.59657" lon="4.79279">
        <ele>174.420866</ele>
        <time>2021-09-14T06:55:03.000Z</time>
      </trkpt>
      <trkpt lat="45.59626" lon="4.79271">
        <ele>174.332716</ele>
        <time>2021-09-14T06:55:09.000Z</time>
      </trkpt>
      <trkpt lat="45.59595" lon="4.79263">
        <ele>174.156688</ele>
        <time>2021-09-14T06:55:16.000Z</time>
      </trkpt>
      <trkpt lat="45.59584" lon="4.7926">
        <ele>173.95901</ele>
        <time>2021-09-14T06:55:20.000Z</time>
      </trkpt>
      <trkpt lat="45.59578" lon="4.79258">
        <ele>173.83592</ele>
        <time>2021-09-14T06:55:22.000Z</time>
      </trkpt>
      <trkpt lat="45.59569" lon="4.79255">
        <ele>173.674405</ele>
        <time>2021-09-14T06:55:24.000Z</time>
      </trkpt>
      <trkpt lat="45.59536" lon="4.79245">
        <ele>173.072296</ele>
        <time>2021-09-14T06:55:30.000Z</time>
      </trkpt>
      <trkpt lat="45.59493" lon="4.79232">
        <ele>172.292354</ele>
        <time>2021-09-14T06:55:37.000Z</time>
      </trkpt>
      <trkpt lat="45.59488" lon="4.79229">
        <ele>172.190098</ele>
        <time>2021-09-14T06:55:38.000Z</time>
      </trkpt>
      <trkpt lat="45.59477" lon="4.79222">
        <ele>171.973502</ele>
        <time>2021-09-14T06:55:40.000Z</time>
      </trkpt>
      <trkpt lat="45.59457" lon="4.79199">
        <ele>171.513775</ele>
        <time>2021-09-14T06:55:44.000Z</time>
      </trkpt>
      <trkpt lat="45.59438" lon="4.79175">
        <ele>171.064561</ele>
        <time>2021-09-14T06:55:49.000Z</time>
      </trkpt>
      <trkpt lat="45.59428" lon="4.79159">
        <ele>170.561752</ele>
        <time>2021-09-14T06:55:54.000Z</time>
      </trkpt>
      <trkpt lat="45.59417" lon="4.79142">
        <ele>169.997604</ele>
        <time>2021-09-14T06:55:59.000Z</time>
      </trkpt>
      <trkpt lat="45.59408" lon="4.79116">
        <ele>169.300901</ele>
        <time>2021-09-14T06:56:05.000Z</time>
      </trkpt>
      <trkpt lat="45.59404" lon="4.79099">
        <ele>168.857383</ele>
        <time>2021-09-14T06:56:10.000Z</time>
      </trkpt>
      <trkpt lat="45.59404" lon="4.79094">
        <ele>168.733528</ele>
        <time>2021-09-14T06:56:15.000Z</time>
      </trkpt>
      <trkpt lat="45.59404" lon="4.79091">
        <ele>168.663454</ele>
        <time>2021-09-14T06:56:19.000Z</time>
      </trkpt>
      <trkpt lat="45.59404" lon="4.79085">
        <ele>168.518485</ele>
        <time>2021-09-14T06:56:21.000Z</time>
      </trkpt>
      <trkpt lat="45.59404" lon="4.79081">
        <ele>168.419474</ele>
        <time>2021-09-14T06:56:25.000Z</time>
      </trkpt>
      <trkpt lat="45.59404" lon="4.79078">
        <ele>168.351811</ele>
        <time>2021-09-14T06:56:32.000Z</time>
      </trkpt>
      <trkpt lat="45.59404" lon="4.7907">
        <ele>168.16328</ele>
        <time>2021-09-14T06:56:34.000Z</time>
      </trkpt>
      <trkpt lat="45.59405" lon="4.7904">
        <ele>167.448075</ele>
        <time>2021-09-14T06:56:41.000Z</time>
      </trkpt>
      <trkpt lat="45.59402" lon="4.79026">
        <ele>167.088104</ele>
        <time>2021-09-14T06:56:45.000Z</time>
      </trkpt>
      <trkpt lat="45.59403" lon="4.7901">
        <ele>166.701344</ele>
        <time>2021-09-14T06:56:48.000Z</time>
      </trkpt>
      <trkpt lat="45.59404" lon="4.79004">
        <ele>166.550722</ele>
        <time>2021-09-14T06:56:49.000Z</time>
      </trkpt>
      <trkpt lat="45.59404" lon="4.78998">
        <ele>166.39249</ele>
        <time>2021-09-14T06:56:50.000Z</time>
      </trkpt>
      <trkpt lat="45.59407" lon="4.78966">
        <ele>165.618971</ele>
        <time>2021-09-14T06:56:55.000Z</time>
      </trkpt>
      <trkpt lat="45.59408" lon="4.78959">
        <ele>165.461154</ele>
        <time>2021-09-14T06:56:56.000Z</time>
      </trkpt>
      <trkpt lat="45.5941" lon="4.78933">
        <ele>164.827531</ele>
        <time>2021-09-14T06:57:00.000Z</time>
      </trkpt>
      <trkpt lat="45.59411" lon="4.78927">
        <ele>164.808342</ele>
        <time>2021-09-14T06:57:01.000Z</time>
      </trkpt>
      <trkpt lat="45.59413" lon="4.78913">
        <ele>164.763142</ele>
        <time>2021-09-14T06:57:04.000Z</time>
      </trkpt>
      <trkpt lat="45.59415" lon="4.78898">
        <ele>164.715784</ele>
        <time>2021-09-14T06:57:09.000Z</time>
      </trkpt>
      <trkpt lat="45.59411" lon="4.7889">
        <ele>164.684634</ele>
        <time>2021-09-14T06:57:13.000Z</time>
      </trkpt>
      <trkpt lat="45.59394" lon="4.78869">
        <ele>164.586183</ele>
        <time>2021-09-14T06:57:20.000Z</time>
      </trkpt>
      <trkpt lat="45.59383" lon="4.78847">
        <ele>164.501997</ele>
        <time>2021-09-14T06:57:25.000Z</time>
      </trkpt>
      <trkpt lat="45.59368" lon="4.78817">
        <ele>164.385883</ele>
        <time>2021-09-14T06:57:31.000Z</time>
      </trkpt>
      <trkpt lat="45.59352" lon="4.78786">
        <ele>164.263337</ele>
        <time>2021-09-14T06:57:37.000Z</time>
      </trkpt>
      <trkpt lat="45.59335" lon="4.78752">
        <ele>164.133068</ele>
        <time>2021-09-14T06:57:43.000Z</time>
      </trkpt>
      <trkpt lat="45.5933" lon="4.78741">
        <ele>164.089303</ele>
        <time>2021-09-14T06:57:45.000Z</time>
      </trkpt>
      <trkpt lat="45.59323" lon="4.78729">
        <ele>164.041931</ele>
        <time>2021-09-14T06:57:47.000Z</time>
      </trkpt>
      <trkpt lat="45.59305" lon="4.78693">
        <ele>163.936668</ele>
        <time>2021-09-14T06:57:53.000Z</time>
      </trkpt>
      <trkpt lat="45.59296" lon="4.78675">
        <ele>163.887412</ele>
        <time>2021-09-14T06:57:56.000Z</time>
      </trkpt>
      <trkpt lat="45.59291" lon="4.78664">
        <ele>163.856788</ele>
        <time>2021-09-14T06:57:58.000Z</time>
      </trkpt>
      <trkpt lat="45.5928" lon="4.78644">
        <ele>163.799785</ele>
        <time>2021-09-14T06:58:02.000Z</time>
      </trkpt>
      <trkpt lat="45.59275" lon="4.78633">
        <ele>163.771375</ele>
        <time>2021-09-14T06:58:04.000Z</time>
      </trkpt>
      <trkpt lat="45.59259" lon="4.78603">
        <ele>163.686666</ele>
        <time>2021-09-14T06:58:10.000Z</time>
      </trkpt>
      <trkpt lat="45.59257" lon="4.78599">
        <ele>163.673554</ele>
        <time>2021-09-14T06:58:11.000Z</time>
      </trkpt>
      <trkpt lat="45.59246" lon="4.7858">
        <ele>163.619551</ele>
        <time>2021-09-14T06:58:15.000Z</time>
      </trkpt>
      <trkpt lat="45.59227" lon="4.78542">
        <ele>163.514414</ele>
        <time>2021-09-14T06:58:23.000Z</time>
      </trkpt>
      <trkpt lat="45.59218" lon="4.78513">
        <ele>163.443959</ele>
        <time>2021-09-14T06:58:28.000Z</time>
      </trkpt>
      <trkpt lat="45.59214" lon="4.78501">
        <ele>163.384048</ele>
        <time>2021-09-14T06:58:30.000Z</time>
      </trkpt>
      <trkpt lat="45.5921" lon="4.78488">
        <ele>163.323841</ele>
        <time>2021-09-14T06:58:32.000Z</time>
      </trkpt>
      <trkpt lat="45.59195" lon="4.78446">
        <ele>163.125637</ele>
        <time>2021-09-14T06:58:38.000Z</time>
      </trkpt>
      <trkpt lat="45.59189" lon="4.78434">
        <ele>163.061128</ele>
        <time>2021-09-14T06:58:40.000Z</time>
      </trkpt>
      <trkpt lat="45.59171" lon="4.78389">
        <ele>162.841763</ele>
        <time>2021-09-14T06:58:47.000Z</time>
      </trkpt>
      <trkpt lat="45.59146" lon="4.78319">
        <ele>162.508851</ele>
        <time>2021-09-14T06:58:57.000Z</time>
      </trkpt>
      <trkpt lat="45.59134" lon="4.78288">
        <ele>162.360125</ele>
        <time>2021-09-14T06:59:02.000Z</time>
      </trkpt>
      <trkpt lat="45.59129" lon="4.78275">
        <ele>162.344899</ele>
        <time>2021-09-14T06:59:06.000Z</time>
      </trkpt>
      <trkpt lat="45.59121" lon="4.78253">
        <ele>162.332645</ele>
        <time>2021-09-14T06:59:13.000Z</time>
      </trkpt>
      <trkpt lat="45.59116" lon="4.7824">
        <ele>162.324873</ele>
        <time>2021-09-14T06:59:16.000Z</time>
      </trkpt>
      <trkpt lat="45.59111" lon="4.78229">
        <ele>162.318729</ele>
        <time>2021-09-14T06:59:18.000Z</time>
      </trkpt>
      <trkpt lat="45.59096" lon="4.78192">
        <ele>162.297727</ele>
        <time>2021-09-14T06:59:24.000Z</time>
      </trkpt>
      <trkpt lat="45.59073" lon="4.78149">
        <ele>162.271329</ele>
        <time>2021-09-14T06:59:31.000Z</time>
      </trkpt>
      <trkpt lat="45.59048" lon="4.78107">
        <ele>162.244001</ele>
        <time>2021-09-14T06:59:38.000Z</time>
      </trkpt>
      <trkpt lat="45.59044" lon="4.78101">
        <ele>162.240153</ele>
        <time>2021-09-14T06:59:39.000Z</time>
      </trkpt>
      <trkpt lat="45.5903" lon="4.78078">
        <ele>162.22513</ele>
        <time>2021-09-14T06:59:43.000Z</time>
      </trkpt>
      <trkpt lat="45.59008" lon="4.78041">
        <ele>162.38565</ele>
        <time>2021-09-14T06:59:50.000Z</time>
      </trkpt>
      <trkpt lat="45.58999" lon="4.78026">
        <ele>162.453685</ele>
        <time>2021-09-14T06:59:53.000Z</time>
      </trkpt>
      <trkpt lat="45.58993" lon="4.78016">
        <ele>162.497652</ele>
        <time>2021-09-14T06:59:55.000Z</time>
      </trkpt>
      <trkpt lat="45.5897" lon="4.77979">
        <ele>162.663855</ele>
        <time>2021-09-14T07:00:03.000Z</time>
      </trkpt>
      <trkpt lat="45.58952" lon="4.77949">
        <ele>162.795379</ele>
        <time>2021-09-14T07:00:09.000Z</time>
      </trkpt>
      <trkpt lat="45.58949" lon="4.77945">
        <ele>162.815917</ele>
        <time>2021-09-14T07:00:10.000Z</time>
      </trkpt>
      <trkpt lat="45.58931" lon="4.77918">
        <ele>162.93963</ele>
        <time>2021-09-14T07:00:16.000Z</time>
      </trkpt>
      <trkpt lat="45.58928" lon="4.77914">
        <ele>162.960014</ele>
        <time>2021-09-14T07:00:17.000Z</time>
      </trkpt>
      <trkpt lat="45.58925" lon="4.7791">
        <ele>162.981142</ele>
        <time>2021-09-14T07:00:18.000Z</time>
      </trkpt>
      <trkpt lat="45.58908" lon="4.77899">
        <ele>163.071002</ele>
        <time>2021-09-14T07:00:22.000Z</time>
      </trkpt>
      <trkpt lat="45.58875" lon="4.77879">
        <ele>162.843057</ele>
        <time>2021-09-14T07:00:29.000Z</time>
      </trkpt>
      <trkpt lat="45.58853" lon="4.77873">
        <ele>162.676179</ele>
        <time>2021-09-14T07:00:35.000Z</time>
      </trkpt>
      <trkpt lat="45.58822" lon="4.77868">
        <ele>162.440203</ele>
        <time>2021-09-14T07:00:42.000Z</time>
      </trkpt>
      <trkpt lat="45.5879" lon="4.77863">
        <ele>162.195221</ele>
        <time>2021-09-14T07:00:49.000Z</time>
      </trkpt>
      <trkpt lat="45.58746" lon="4.77858">
        <ele>161.868759</ele>
        <time>2021-09-14T07:00:58.000Z</time>
      </trkpt>
      <trkpt lat="45.58732" lon="4.77857">
        <ele>161.757658</ele>
        <time>2021-09-14T07:01:01.000Z</time>
      </trkpt>
      <trkpt lat="45.58719" lon="4.77856">
        <ele>161.691865</ele>
        <time>2021-09-14T07:01:04.000Z</time>
      </trkpt>
      <trkpt lat="45.58707" lon="4.77855">
        <ele>161.637356</ele>
        <time>2021-09-14T07:01:07.000Z</time>
      </trkpt>
      <trkpt lat="45.58698" lon="4.77854">
        <ele>161.597004</ele>
        <time>2021-09-14T07:01:09.000Z</time>
      </trkpt>
      <trkpt lat="45.58689" lon="4.77853">
        <ele>161.555345</ele>
        <time>2021-09-14T07:01:11.000Z</time>
      </trkpt>
      <trkpt lat="45.58675" lon="4.77852">
        <ele>161.494615</ele>
        <time>2021-09-14T07:01:14.000Z</time>
      </trkpt>
      <trkpt lat="45.58665" lon="4.77851">
        <ele>161.452055</ele>
        <time>2021-09-14T07:01:16.000Z</time>
      </trkpt>
      <trkpt lat="45.58651" lon="4.77851">
        <ele>161.386989</ele>
        <time>2021-09-14T07:01:19.000Z</time>
      </trkpt>
      <trkpt lat="45.5862" lon="4.77856">
        <ele>161.249553</ele>
        <time>2021-09-14T07:01:25.000Z</time>
      </trkpt>
      <trkpt lat="45.58577" lon="4.77862">
        <ele>161.06142</ele>
        <time>2021-09-14T07:01:33.000Z</time>
      </trkpt>
      <trkpt lat="45.58544" lon="4.77867">
        <ele>160.924971</ele>
        <time>2021-09-14T07:01:40.000Z</time>
      </trkpt>
      <trkpt lat="45.58511" lon="4.77881">
        <ele>160.857886</ele>
        <time>2021-09-14T07:01:47.000Z</time>
      </trkpt>
      <trkpt lat="45.58472" lon="4.77897">
        <ele>160.77886</ele>
        <time>2021-09-14T07:01:55.000Z</time>
      </trkpt>
      <trkpt lat="45.58439" lon="4.77913">
        <ele>160.711788</ele>
        <time>2021-09-14T07:02:02.000Z</time>
      </trkpt>
      <trkpt lat="45.584" lon="4.77939">
        <ele>160.628517</ele>
        <time>2021-09-14T07:02:10.000Z</time>
      </trkpt>
      <trkpt lat="45.5839" lon="4.77945">
        <ele>160.607144</ele>
        <time>2021-09-14T07:02:12.000Z</time>
      </trkpt>
      <trkpt lat="45.5837" lon="4.77959">
        <ele>160.619712</ele>
        <time>2021-09-14T07:02:16.000Z</time>
      </trkpt>
      <trkpt lat="45.58334" lon="4.77983">
        <ele>160.73992</ele>
        <time>2021-09-14T07:02:23.000Z</time>
      </trkpt>
      <trkpt lat="45.58305" lon="4.78012">
        <ele>160.847722</ele>
        <time>2021-09-14T07:02:29.000Z</time>
      </trkpt>
      <trkpt lat="45.58282" lon="4.78035">
        <ele>160.934759</ele>
        <time>2021-09-14T07:02:34.000Z</time>
      </trkpt>
      <trkpt lat="45.58273" lon="4.78045">
        <ele>160.9697</ele>
        <time>2021-09-14T07:02:36.000Z</time>
      </trkpt>
      <trkpt lat="45.58258" lon="4.78059">
        <ele>161.022436</ele>
        <time>2021-09-14T07:02:39.000Z</time>
      </trkpt>
      <trkpt lat="45.58249" lon="4.78066">
        <ele>161.053484</ele>
        <time>2021-09-14T07:02:41.000Z</time>
      </trkpt>
      <trkpt lat="45.5823" lon="4.78075">
        <ele>161.115015</ele>
        <time>2021-09-14T07:02:46.000Z</time>
      </trkpt>
      <trkpt lat="45.58226" lon="4.78077">
        <ele>161.128723</ele>
        <time>2021-09-14T07:02:47.000Z</time>
      </trkpt>
      <trkpt lat="45.5822" lon="4.78085">
        <ele>161.21883</ele>
        <time>2021-09-14T07:02:49.000Z</time>
      </trkpt>
      <trkpt lat="45.58217" lon="4.78089">
        <ele>161.26791</ele>
        <time>2021-09-14T07:02:50.000Z</time>
      </trkpt>
      <trkpt lat="45.58215" lon="4.78102">
        <ele>161.392599</ele>
        <time>2021-09-14T07:02:52.000Z</time>
      </trkpt>
      <trkpt lat="45.58213" lon="4.78118">
        <ele>161.54113</ele>
        <time>2021-09-14T07:02:55.000Z</time>
      </trkpt>
      <trkpt lat="45.58215" lon="4.78119">
        <ele>161.56442</ele>
        <time>2021-09-14T07:02:56.000Z</time>
      </trkpt>
      <trkpt lat="45.58224" lon="4.78129">
        <ele>161.710728</ele>
        <time>2021-09-14T07:03:00.000Z</time>
      </trkpt>
      <trkpt lat="45.58241" lon="4.78145">
        <ele>161.988263</ele>
        <time>2021-09-14T07:03:06.000Z</time>
      </trkpt>
      <trkpt lat="45.58258" lon="4.78156">
        <ele>162.234617</ele>
        <time>2021-09-14T07:03:11.000Z</time>
      </trkpt>
      <trkpt lat="45.58275" lon="4.78171">
        <ele>162.503474</ele>
        <time>2021-09-14T07:03:18.000Z</time>
      </trkpt>
      <trkpt lat="45.58278" lon="4.78172">
        <ele>162.539213</ele>
        <time>2021-09-14T07:03:20.000Z</time>
      </trkpt>
      <trkpt lat="45.58286" lon="4.78159">
        <ele>162.705171</ele>
        <time>2021-09-14T07:03:38.000Z</time>
      </trkpt>
      <trkpt lat="45.58276" lon="4.78159">
        <ele>162.845002</ele>
        <time>2021-09-14T07:03:40.000Z</time>
      </trkpt>
      <trkpt lat="45.58267" lon="4.78146">
        <ele>163.015337</ele>
        <time>2021-09-14T07:03:45.000Z</time>
      </trkpt>
      <trkpt lat="45.58248" lon="4.78119">
        <ele>163.367201</ele>
        <time>2021-09-14T07:03:53.000Z</time>
      </trkpt>
      <trkpt lat="45.58237" lon="4.78103">
        <ele>163.573603</ele>
        <time>2021-09-14T07:03:58.000Z</time>
      </trkpt>
      <trkpt lat="45.58219" lon="4.78078">
        <ele>163.835178</ele>
        <time>2021-09-14T07:04:05.000Z</time>
      </trkpt>
      <trkpt lat="45.58199" lon="4.78049">
        <ele>164.146112</ele>
        <time>2021-09-14T07:04:13.000Z</time>
      </trkpt>
      <trkpt lat="45.58185" lon="4.7803">
        <ele>164.358508</ele>
        <time>2021-09-14T07:04:19.000Z</time>
      </trkpt>
      <trkpt lat="45.58171" lon="4.7801">
        <ele>164.565718</ele>
        <time>2021-09-14T07:04:24.000Z</time>
      </trkpt>
      <trkpt lat="45.58153" lon="4.77985">
        <ele>164.837132</ele>
        <time>2021-09-14T07:04:30.000Z</time>
      </trkpt>
      <trkpt lat="45.58129" lon="4.77952">
        <ele>165.196425</ele>
        <time>2021-09-14T07:04:37.000Z</time>
      </trkpt>
      <trkpt lat="45.58125" lon="4.77947">
        <ele>165.252321</ele>
        <time>2021-09-14T07:04:38.000Z</time>
      </trkpt>
      <trkpt lat="45.58111" lon="4.77927">
        <ele>165.46395</ele>
        <time>2021-09-14T07:04:42.000Z</time>
      </trkpt>
      <trkpt lat="45.58091" lon="4.77898">
        <ele>165.241022</ele>
        <time>2021-09-14T07:04:48.000Z</time>
      </trkpt>
      <trkpt lat="45.58089" lon="4.77895">
        <ele>165.2132</ele>
        <time>2021-09-14T07:04:52.000Z</time>
      </trkpt>
      <trkpt lat="45.58087" lon="4.77892">
        <ele>165.193246</ele>
        <time>2021-09-14T07:04:57.000Z</time>
      </trkpt>
      <trkpt lat="45.58084" lon="4.77889">
        <ele>165.164076</ele>
        <time>2021-09-14T07:04:59.000Z</time>
      </trkpt>
      <trkpt lat="45.58081" lon="4.77885">
        <ele>165.134135</ele>
        <time>2021-09-14T07:05:03.000Z</time>
      </trkpt>
      <trkpt lat="45.58069" lon="4.77871">
        <ele>165.008163</ele>
        <time>2021-09-14T07:05:10.000Z</time>
      </trkpt>
      <trkpt lat="45.58067" lon="4.77873">
        <ele>164.985819</ele>
        <time>2021-09-14T07:05:12.000Z</time>
      </trkpt>
      <trkpt lat="45.58064" lon="4.77877">
        <ele>164.954413</ele>
        <time>2021-09-14T07:05:17.000Z</time>
      </trkpt>
      <trkpt lat="45.58067" lon="4.77885">
        <ele>164.902865</ele>
        <time>2021-09-14T07:06:28.000Z</time>
      </trkpt>
      <trkpt lat="45.58063" lon="4.7788">
        <ele>164.86084</ele>
        <time>2021-09-14T07:06:30.000Z</time>
      </trkpt>
      <trkpt lat="45.58062" lon="4.77879">
        <ele>164.851426</ele>
        <time>2021-09-14T07:06:31.000Z</time>
      </trkpt>
      <trkpt lat="45.58059" lon="4.77884">
        <ele>164.807226</ele>
        <time>2021-09-14T07:06:33.000Z</time>
      </trkpt>
      <trkpt lat="45.58045" lon="4.77905">
        <ele>164.646018</ele>
        <time>2021-09-14T07:06:38.000Z</time>
      </trkpt>
      <trkpt lat="45.58032" lon="4.77927">
        <ele>164.487865</ele>
        <time>2021-09-14T07:06:42.000Z</time>
      </trkpt>
      <trkpt lat="45.58027" lon="4.7794">
        <ele>164.403353</ele>
        <time>2021-09-14T07:06:44.000Z</time>
      </trkpt>
      <trkpt lat="45.58009" lon="4.77992">
        <ele>164.085197</ele>
        <time>2021-09-14T07:06:51.000Z</time>
      </trkpt>
      <trkpt lat="45.57989" lon="4.78053">
        <ele>164.151805</ele>
        <time>2021-09-14T07:06:59.000Z</time>
      </trkpt>
      <trkpt lat="45.57971" lon="4.78106">
        <ele>164.267574</ele>
        <time>2021-09-14T07:07:06.000Z</time>
      </trkpt>
      <trkpt lat="45.57969" lon="4.78113">
        <ele>164.284428</ele>
        <time>2021-09-14T07:07:07.000Z</time>
      </trkpt>
      <trkpt lat="45.57945" lon="4.78182">
        <ele>164.435215</ele>
        <time>2021-09-14T07:07:16.000Z</time>
      </trkpt>
      <trkpt lat="45.5792" lon="4.78259">
        <ele>164.66305</ele>
        <time>2021-09-14T07:07:26.000Z</time>
      </trkpt>
      <trkpt lat="45.57902" lon="4.78313">
        <ele>164.904843</ele>
        <time>2021-09-14T07:07:33.000Z</time>
      </trkpt>
      <trkpt lat="45.57879" lon="4.7838">
        <ele>165.205187</ele>
        <time>2021-09-14T07:07:42.000Z</time>
      </trkpt>
      <trkpt lat="45.5786" lon="4.78438">
        <ele>165.461305</ele>
        <time>2021-09-14T07:07:50.000Z</time>
      </trkpt>
      <trkpt lat="45.5785" lon="4.78473">
        <ele>165.613736</ele>
        <time>2021-09-14T07:07:55.000Z</time>
      </trkpt>
      <trkpt lat="45.57846" lon="4.78487">
        <ele>165.672923</ele>
        <time>2021-09-14T07:07:57.000Z</time>
      </trkpt>
      <trkpt lat="45.5783" lon="4.78537">
        <ele>165.880074</ele>
        <time>2021-09-14T07:08:04.000Z</time>
      </trkpt>
      <trkpt lat="45.57812" lon="4.78595">
        <ele>166.123576</ele>
        <time>2021-09-14T07:08:12.000Z</time>
      </trkpt>
      <trkpt lat="45.57795" lon="4.78645">
        <ele>166.338726</ele>
        <time>2021-09-14T07:08:19.000Z</time>
      </trkpt>
      <trkpt lat="45.57775" lon="4.78696">
        <ele>166.561902</ele>
        <time>2021-09-14T07:08:26.000Z</time>
      </trkpt>
      <trkpt lat="45.57748" lon="4.7875">
        <ele>166.758208</ele>
        <time>2021-09-14T07:08:34.000Z</time>
      </trkpt>
      <trkpt lat="45.57719" lon="4.78794">
        <ele>166.931888</ele>
        <time>2021-09-14T07:08:41.000Z</time>
      </trkpt>
      <trkpt lat="45.57692" lon="4.78836">
        <ele>167.097695</ele>
        <time>2021-09-14T07:08:48.000Z</time>
      </trkpt>
      <trkpt lat="45.57688" lon="4.78841">
        <ele>167.121401</ele>
        <time>2021-09-14T07:08:49.000Z</time>
      </trkpt>
      <trkpt lat="45.57671" lon="4.78866">
        <ele>167.22188</ele>
        <time>2021-09-14T07:08:53.000Z</time>
      </trkpt>
      <trkpt lat="45.57637" lon="4.78916">
        <ele>167.445859</ele>
        <time>2021-09-14T07:09:01.000Z</time>
      </trkpt>
      <trkpt lat="45.57621" lon="4.78939">
        <ele>167.557123</ele>
        <time>2021-09-14T07:09:05.000Z</time>
      </trkpt>
      <trkpt lat="45.57608" lon="4.78955">
        <ele>167.639295</ele>
        <time>2021-09-14T07:09:08.000Z</time>
      </trkpt>
      <trkpt lat="45.57576" lon="4.78996">
        <ele>167.849443</ele>
        <time>2021-09-14T07:09:16.000Z</time>
      </trkpt>
      <trkpt lat="45.57551" lon="4.79028">
        <ele>168.014836</ele>
        <time>2021-09-14T07:09:23.000Z</time>
      </trkpt>
      <trkpt lat="45.5754" lon="4.79041">
        <ele>168.084246</ele>
        <time>2021-09-14T07:09:26.000Z</time>
      </trkpt>
      <trkpt lat="45.57529" lon="4.79055">
        <ele>168.15425</ele>
        <time>2021-09-14T07:09:29.000Z</time>
      </trkpt>
      <trkpt lat="45.57507" lon="4.79084">
        <ele>168.338509</ele>
        <time>2021-09-14T07:09:35.000Z</time>
      </trkpt>
      <trkpt lat="45.57485" lon="4.79111">
        <ele>168.5277</ele>
        <time>2021-09-14T07:09:41.000Z</time>
      </trkpt>
      <trkpt lat="45.57471" lon="4.79129">
        <ele>168.652194</ele>
        <time>2021-09-14T07:09:45.000Z</time>
      </trkpt>
      <trkpt lat="45.5746" lon="4.79143">
        <ele>168.745791</ele>
        <time>2021-09-14T07:09:48.000Z</time>
      </trkpt>
      <trkpt lat="45.57432" lon="4.79178">
        <ele>168.991314</ele>
        <time>2021-09-14T07:09:56.000Z</time>
      </trkpt>
      <trkpt lat="45.57405" lon="4.7921">
        <ele>169.217329</ele>
        <time>2021-09-14T07:10:03.000Z</time>
      </trkpt>
      <trkpt lat="45.57373" lon="4.79248">
        <ele>169.527464</ele>
        <time>2021-09-14T07:10:11.000Z</time>
      </trkpt>
      <trkpt lat="45.57357" lon="4.79266">
        <ele>169.701831</ele>
        <time>2021-09-14T07:10:15.000Z</time>
      </trkpt>
      <trkpt lat="45.57345" lon="4.79281">
        <ele>169.836848</ele>
        <time>2021-09-14T07:10:18.000Z</time>
      </trkpt>
      <trkpt lat="45.57318" lon="4.79313">
        <ele>170.13753</ele>
        <time>2021-09-14T07:10:25.000Z</time>
      </trkpt>
      <trkpt lat="45.57315" lon="4.79317">
        <ele>170.178306</ele>
        <time>2021-09-14T07:10:26.000Z</time>
      </trkpt>
      <trkpt lat="45.57296" lon="4.7934">
        <ele>170.385511</ele>
        <time>2021-09-14T07:10:31.000Z</time>
      </trkpt>
      <trkpt lat="45.57285" lon="4.79352">
        <ele>170.504438</ele>
        <time>2021-09-14T07:10:34.000Z</time>
      </trkpt>
      <trkpt lat="45.57271" lon="4.79367">
        <ele>170.657838</ele>
        <time>2021-09-14T07:10:38.000Z</time>
      </trkpt>
      <trkpt lat="45.57257" lon="4.79382">
        <ele>170.804626</ele>
        <time>2021-09-14T07:10:43.000Z</time>
      </trkpt>
      <trkpt lat="45.57244" lon="4.79398">
        <ele>170.968708</ele>
        <time>2021-09-14T07:10:49.000Z</time>
      </trkpt>
      <trkpt lat="45.57225" lon="4.79418">
        <ele>171.254668</ele>
        <time>2021-09-14T07:10:57.000Z</time>
      </trkpt>
      <trkpt lat="45.57221" lon="4.79423">
        <ele>171.323801</ele>
        <time>2021-09-14T07:10:59.000Z</time>
      </trkpt>
      <trkpt lat="45.57214" lon="4.79425">
        <ele>171.401392</ele>
        <time>2021-09-14T07:11:01.000Z</time>
      </trkpt>
      <trkpt lat="45.57205" lon="4.7941">
        <ele>171.575087</ele>
        <time>2021-09-14T07:11:06.000Z</time>
      </trkpt>
      <trkpt lat="45.57197" lon="4.79386">
        <ele>171.791682</ele>
        <time>2021-09-14T07:11:13.000Z</time>
      </trkpt>
      <trkpt lat="45.57192" lon="4.79366">
        <ele>171.974169</ele>
        <time>2021-09-14T07:11:20.000Z</time>
      </trkpt>
      <trkpt lat="45.57183" lon="4.79356">
        <ele>172.107112</ele>
        <time>2021-09-14T07:11:26.000Z</time>
      </trkpt>
      <trkpt lat="45.57169" lon="4.79343">
        <ele>172.312224</ele>
        <time>2021-09-14T07:11:33.000Z</time>
      </trkpt>
      <trkpt lat="45.57155" lon="4.79342">
        <ele>172.476371</ele>
        <time>2021-09-14T07:11:37.000Z</time>
      </trkpt>
      <trkpt lat="45.57141" lon="4.79348">
        <ele>172.653886</ele>
        <time>2021-09-14T07:11:41.000Z</time>
      </trkpt>
      <trkpt lat="45.57116" lon="4.7936">
        <ele>172.977596</ele>
        <time>2021-09-14T07:11:48.000Z</time>
      </trkpt>
      <trkpt lat="45.57097" lon="4.79377">
        <ele>173.094672</ele>
        <time>2021-09-14T07:11:53.000Z</time>
      </trkpt>
      <trkpt lat="45.57078" lon="4.79401">
        <ele>173.14175</ele>
        <time>2021-09-14T07:11:58.000Z</time>
      </trkpt>
      <trkpt lat="45.57052" lon="4.79432">
        <ele>173.204036</ele>
        <time>2021-09-14T07:12:04.000Z</time>
      </trkpt>
      <trkpt lat="45.57032" lon="4.79457">
        <ele>173.253439</ele>
        <time>2021-09-14T07:12:09.000Z</time>
      </trkpt>
      <trkpt lat="45.57027" lon="4.79462">
        <ele>173.264054</ele>
        <time>2021-09-14T07:12:10.000Z</time>
      </trkpt>
      <trkpt lat="45.57018" lon="4.79471">
        <ele>173.285424</ele>
        <time>2021-09-14T07:12:12.000Z</time>
      </trkpt>
      <trkpt lat="45.57013" lon="4.79475">
        <ele>173.295769</ele>
        <time>2021-09-14T07:12:13.000Z</time>
      </trkpt>
      <trkpt lat="45.56981" lon="4.795">
        <ele>173.362032</ele>
        <time>2021-09-14T07:12:19.000Z</time>
      </trkpt>
      <trkpt lat="45.56955" lon="4.7952">
        <ele>173.414675</ele>
        <time>2021-09-14T07:12:24.000Z</time>
      </trkpt>
      <trkpt lat="45.56934" lon="4.79534">
        <ele>173.451926</ele>
        <time>2021-09-14T07:12:28.000Z</time>
      </trkpt>
      <trkpt lat="45.56918" lon="4.79543">
        <ele>173.479872</ele>
        <time>2021-09-14T07:12:31.000Z</time>
      </trkpt>
      <trkpt lat="45.56877" lon="4.79566">
        <ele>173.550814</ele>
        <time>2021-09-14T07:12:39.000Z</time>
      </trkpt>
      <trkpt lat="45.5686" lon="4.79578">
        <ele>173.581134</ele>
        <time>2021-09-14T07:12:43.000Z</time>
      </trkpt>
      <trkpt lat="45.56852" lon="4.79583">
        <ele>173.59509</ele>
        <time>2021-09-14T07:12:45.000Z</time>
      </trkpt>
      <trkpt lat="45.56822" lon="4.79606">
        <ele>173.650434</ele>
        <time>2021-09-14T07:12:53.000Z</time>
      </trkpt>
      <trkpt lat="45.5681" lon="4.79615">
        <ele>173.671517</ele>
        <time>2021-09-14T07:12:56.000Z</time>
      </trkpt>
      <trkpt lat="45.56798" lon="4.79624">
        <ele>173.69357</ele>
        <time>2021-09-14T07:12:59.000Z</time>
      </trkpt>
      <trkpt lat="45.5677" lon="4.79642">
        <ele>173.739947</ele>
        <time>2021-09-14T07:13:05.000Z</time>
      </trkpt>
      <trkpt lat="45.56759" lon="4.79648">
        <ele>173.756717</ele>
        <time>2021-09-14T07:13:07.000Z</time>
      </trkpt>
      <trkpt lat="45.56744" lon="4.79656">
        <ele>173.781742</ele>
        <time>2021-09-14T07:13:10.000Z</time>
      </trkpt>
      <trkpt lat="45.56713" lon="4.79671">
        <ele>173.831438</ele>
        <time>2021-09-14T07:13:16.000Z</time>
      </trkpt>
      <trkpt lat="45.56708" lon="4.79674">
        <ele>173.839742</ele>
        <time>2021-09-14T07:13:17.000Z</time>
      </trkpt>
      <trkpt lat="45.56675" lon="4.79702">
        <ele>173.897553</ele>
        <time>2021-09-14T07:13:24.000Z</time>
      </trkpt>
      <trkpt lat="45.56644" lon="4.79728">
        <ele>173.951483</ele>
        <time>2021-09-14T07:13:31.000Z</time>
      </trkpt>
      <trkpt lat="45.56622" lon="4.79745">
        <ele>173.892514</ele>
        <time>2021-09-14T07:13:36.000Z</time>
      </trkpt>
      <trkpt lat="45.5661" lon="4.79757">
        <ele>173.840365</ele>
        <time>2021-09-14T07:13:39.000Z</time>
      </trkpt>
      <trkpt lat="45.56604" lon="4.7977">
        <ele>173.80084</ele>
        <time>2021-09-14T07:13:41.000Z</time>
      </trkpt>
      <trkpt lat="45.566" lon="4.79797">
        <ele>173.730331</ele>
        <time>2021-09-14T07:13:45.000Z</time>
      </trkpt>
      <trkpt lat="45.56588" lon="4.79871">
        <ele>173.537066</ele>
        <time>2021-09-14T07:13:53.000Z</time>
      </trkpt>
      <trkpt lat="45.5658" lon="4.79925">
        <ele>173.398828</ele>
        <time>2021-09-14T07:13:59.000Z</time>
      </trkpt>
      <trkpt lat="45.56582" lon="4.7995">
        <ele>173.334918</ele>
        <time>2021-09-14T07:14:02.000Z</time>
      </trkpt>
      <trkpt lat="45.56579" lon="4.79955">
        <ele>173.316202</ele>
        <time>2021-09-14T07:14:03.000Z</time>
      </trkpt>
      <trkpt lat="45.56548" lon="4.8">
        <ele>172.916541</ele>
        <time>2021-09-14T07:14:10.000Z</time>
      </trkpt>
      <trkpt lat="45.5651" lon="4.80049">
        <ele>172.430603</ele>
        <time>2021-09-14T07:14:17.000Z</time>
      </trkpt>
      <trkpt lat="45.56476" lon="4.80087">
        <ele>172.022374</ele>
        <time>2021-09-14T07:14:23.000Z</time>
      </trkpt>
      <trkpt lat="45.56438" lon="4.80128">
        <ele>171.554858</ele>
        <time>2021-09-14T07:14:30.000Z</time>
      </trkpt>
      <trkpt lat="45.56427" lon="4.8014">
        <ele>171.375506</ele>
        <time>2021-09-14T07:14:32.000Z</time>
      </trkpt>
      <trkpt lat="45.56411" lon="4.80159">
        <ele>171.111774</ele>
        <time>2021-09-14T07:14:35.000Z</time>
      </trkpt>
      <trkpt lat="45.56376" lon="4.80197">
        <ele>170.5369</ele>
        <time>2021-09-14T07:14:42.000Z</time>
      </trkpt>
      <trkpt lat="45.56361" lon="4.80213">
        <ele>170.293057</ele>
        <time>2021-09-14T07:14:45.000Z</time>
      </trkpt>
      <trkpt lat="45.5635" lon="4.80224">
        <ele>170.121367</ele>
        <time>2021-09-14T07:14:47.000Z</time>
      </trkpt>
      <trkpt lat="45.56344" lon="4.80228">
        <ele>170.036628</ele>
        <time>2021-09-14T07:14:48.000Z</time>
      </trkpt>
      <trkpt lat="45.56328" lon="4.8024">
        <ele>169.802112</ele>
        <time>2021-09-14T07:14:51.000Z</time>
      </trkpt>
      <trkpt lat="45.56319" lon="4.80247">
        <ele>169.666047</ele>
        <time>2021-09-14T07:14:53.000Z</time>
      </trkpt>
      <trkpt lat="45.5631" lon="4.80256">
        <ele>169.523313</ele>
        <time>2021-09-14T07:14:55.000Z</time>
      </trkpt>
      <trkpt lat="45.56305" lon="4.80261">
        <ele>169.447997</ele>
        <time>2021-09-14T07:14:56.000Z</time>
      </trkpt>
      <trkpt lat="45.56292" lon="4.80278">
        <ele>169.214383</ele>
        <time>2021-09-14T07:14:59.000Z</time>
      </trkpt>
      <trkpt lat="45.56285" lon="4.80291">
        <ele>169.064941</ele>
        <time>2021-09-14T07:15:01.000Z</time>
      </trkpt>
      <trkpt lat="45.5628" lon="4.80306">
        <ele>168.918377</ele>
        <time>2021-09-14T07:15:03.000Z</time>
      </trkpt>
      <trkpt lat="45.56279" lon="4.80314">
        <ele>168.846476</ele>
        <time>2021-09-14T07:15:04.000Z</time>
      </trkpt>
      <trkpt lat="45.56272" lon="4.80344">
        <ele>168.553658</ele>
        <time>2021-09-14T07:15:08.000Z</time>
      </trkpt>
      <trkpt lat="45.56261" lon="4.80392">
        <ele>168.095608</ele>
        <time>2021-09-14T07:15:14.000Z</time>
      </trkpt>
      <trkpt lat="45.56259" lon="4.804">
        <ele>168.019276</ele>
        <time>2021-09-14T07:15:15.000Z</time>
      </trkpt>
      <trkpt lat="45.56249" lon="4.80421">
        <ele>167.789631</ele>
        <time>2021-09-14T07:15:18.000Z</time>
      </trkpt>
      <trkpt lat="45.56243" lon="4.80435">
        <ele>167.637933</ele>
        <time>2021-09-14T07:15:20.000Z</time>
      </trkpt>
      <trkpt lat="45.5623" lon="4.80441">
        <ele>167.458152</ele>
        <time>2021-09-14T07:15:22.000Z</time>
      </trkpt>
      <trkpt lat="45.56224" lon="4.80439">
        <ele>167.382103</ele>
        <time>2021-09-14T07:15:23.000Z</time>
      </trkpt>
      <trkpt lat="45.56204" lon="4.80433">
        <ele>167.116959</ele>
        <time>2021-09-14T07:15:27.000Z</time>
      </trkpt>
      <trkpt lat="45.56199" lon="4.80434">
        <ele>167.045901</ele>
        <time>2021-09-14T07:15:28.000Z</time>
      </trkpt>
      <trkpt lat="45.56189" lon="4.80436">
        <ele>166.934935</ele>
        <time>2021-09-14T07:15:30.000Z</time>
      </trkpt>
      <trkpt lat="45.56169" lon="4.80449">
        <ele>166.904582</ele>
        <time>2021-09-14T07:15:34.000Z</time>
      </trkpt>
      <trkpt lat="45.56148" lon="4.80465">
        <ele>166.872176</ele>
        <time>2021-09-14T07:15:38.000Z</time>
      </trkpt>
      <trkpt lat="45.56124" lon="4.80483">
        <ele>166.834385</ele>
        <time>2021-09-14T07:15:43.000Z</time>
      </trkpt>
      <trkpt lat="45.56101" lon="4.805">
        <ele>166.79847</ele>
        <time>2021-09-14T07:15:48.000Z</time>
      </trkpt>
      <trkpt lat="45.56097" lon="4.80503">
        <ele>166.791757</ele>
        <time>2021-09-14T07:15:49.000Z</time>
      </trkpt>
      <trkpt lat="45.56082" lon="4.80515">
        <ele>166.768566</ele>
        <time>2021-09-14T07:15:52.000Z</time>
      </trkpt>
      <trkpt lat="45.56072" lon="4.80522">
        <ele>166.753508</ele>
        <time>2021-09-14T07:15:54.000Z</time>
      </trkpt>
      <trkpt lat="45.56063" lon="4.80529">
        <ele>166.739029</ele>
        <time>2021-09-14T07:15:56.000Z</time>
      </trkpt>
      <trkpt lat="45.56051" lon="4.80538">
        <ele>166.719927</ele>
        <time>2021-09-14T07:15:59.000Z</time>
      </trkpt>
      <trkpt lat="45.56035" lon="4.80546">
        <ele>166.697299</ele>
        <time>2021-09-14T07:16:04.000Z</time>
      </trkpt>
      <trkpt lat="45.56025" lon="4.80549">
        <ele>166.711343</ele>
        <time>2021-09-14T07:16:08.000Z</time>
      </trkpt>
      <trkpt lat="45.56017" lon="4.80549">
        <ele>166.752512</ele>
        <time>2021-09-14T07:16:12.000Z</time>
      </trkpt>
      <trkpt lat="45.56005" lon="4.80549">
        <ele>166.810963</ele>
        <time>2021-09-14T07:16:17.000Z</time>
      </trkpt>
      <trkpt lat="45.55991" lon="4.80552">
        <ele>166.881255</ele>
        <time>2021-09-14T07:16:23.000Z</time>
      </trkpt>
      <trkpt lat="45.55982" lon="4.80555">
        <ele>166.930813</ele>
        <time>2021-09-14T07:16:28.000Z</time>
      </trkpt>
      <trkpt lat="45.55975" lon="4.80563">
        <ele>166.976728</ele>
        <time>2021-09-14T07:16:32.000Z</time>
      </trkpt>
      <trkpt lat="45.55973" lon="4.80564">
        <ele>166.986655</ele>
        <time>2021-09-14T07:16:33.000Z</time>
      </trkpt>
      <trkpt lat="45.55972" lon="4.80565">
        <ele>166.990998</ele>
        <time>2021-09-14T07:16:34.000Z</time>
      </trkpt>
      <trkpt lat="45.55978" lon="4.80571">
        <ele>167.026664</ele>
        <time>2021-09-14T07:16:37.000Z</time>
      </trkpt>
      <trkpt lat="45.55991" lon="4.80591">
        <ele>167.123174</ele>
        <time>2021-09-14T07:16:42.000Z</time>
      </trkpt>
      <trkpt lat="45.56" lon="4.80624">
        <ele>167.248873</ele>
        <time>2021-09-14T07:16:47.000Z</time>
      </trkpt>
      <trkpt lat="45.56005" lon="4.80656">
        <ele>167.36579</ele>
        <time>2021-09-14T07:16:51.000Z</time>
      </trkpt>
      <trkpt lat="45.56005" lon="4.80665">
        <ele>167.397463</ele>
        <time>2021-09-14T07:16:52.000Z</time>
      </trkpt>
      <trkpt lat="45.56005" lon="4.80681">
        <ele>167.455113</ele>
        <time>2021-09-14T07:16:54.000Z</time>
      </trkpt>
      <trkpt lat="45.56009" lon="4.80697">
        <ele>167.514776</ele>
        <time>2021-09-14T07:16:56.000Z</time>
      </trkpt>
      <trkpt lat="45.56014" lon="4.80714">
        <ele>167.578497</ele>
        <time>2021-09-14T07:16:58.000Z</time>
      </trkpt>
      <trkpt lat="45.56021" lon="4.8074">
        <ele>167.052112</ele>
        <time>2021-09-14T07:17:01.000Z</time>
      </trkpt>
      <trkpt lat="45.56038" lon="4.808">
        <ele>165.389277</ele>
        <time>2021-09-14T07:17:08.000Z</time>
      </trkpt>
      <trkpt lat="45.56045" lon="4.80824">
        <ele>164.742117</ele>
        <time>2021-09-14T07:17:12.000Z</time>
      </trkpt>
      <trkpt lat="45.56048" lon="4.80834">
        <ele>164.443782</ele>
        <time>2021-09-14T07:17:16.000Z</time>
      </trkpt>
      <trkpt lat="45.56048" lon="4.80836">
        <ele>164.405135</ele>
        <time>2021-09-14T07:17:20.000Z</time>
      </trkpt>
      <trkpt lat="45.56049" lon="4.80838">
        <ele>164.333938</ele>
        <time>2021-09-14T07:17:39.000Z</time>
      </trkpt>
      <trkpt lat="45.56058" lon="4.80861">
        <ele>163.669755</ele>
        <time>2021-09-14T07:17:44.000Z</time>
      </trkpt>
      <trkpt lat="45.56065" lon="4.80879">
        <ele>163.144338</ele>
        <time>2021-09-14T07:17:47.000Z</time>
      </trkpt>
      <trkpt lat="45.56072" lon="4.8089">
        <ele>162.774999</ele>
        <time>2021-09-14T07:17:49.000Z</time>
      </trkpt>
      <trkpt lat="45.56082" lon="4.80907">
        <ele>162.197506</ele>
        <time>2021-09-14T07:17:52.000Z</time>
      </trkpt>
      <trkpt lat="45.56094" lon="4.80925">
        <ele>161.554086</ele>
        <time>2021-09-14T07:17:55.000Z</time>
      </trkpt>
      <trkpt lat="45.56107" lon="4.80952">
        <ele>160.891243</ele>
        <time>2021-09-14T07:17:59.000Z</time>
      </trkpt>
      <trkpt lat="45.56108" lon="4.80967">
        <ele>160.711341</ele>
        <time>2021-09-14T07:18:01.000Z</time>
      </trkpt>
      <trkpt lat="45.56108" lon="4.80975">
        <ele>160.614955</ele>
        <time>2021-09-14T07:18:02.000Z</time>
      </trkpt>
      <trkpt lat="45.56103" lon="4.81034">
        <ele>159.884845</ele>
        <time>2021-09-14T07:18:09.000Z</time>
      </trkpt>
      <trkpt lat="45.56106" lon="4.81063">
        <ele>159.532667</ele>
        <time>2021-09-14T07:18:12.000Z</time>
      </trkpt>
      <trkpt lat="45.56109" lon="4.81071">
        <ele>159.420079</ele>
        <time>2021-09-14T07:18:13.000Z</time>
      </trkpt>
      <trkpt lat="45.56116" lon="4.81093">
        <ele>159.122687</ele>
        <time>2021-09-14T07:18:16.000Z</time>
      </trkpt>
      <trkpt lat="45.56119" lon="4.81107">
        <ele>158.944079</ele>
        <time>2021-09-14T07:18:18.000Z</time>
      </trkpt>
      <trkpt lat="45.56127" lon="4.81141">
        <ele>158.513315</ele>
        <time>2021-09-14T07:18:23.000Z</time>
      </trkpt>
      <trkpt lat="45.56129" lon="4.8115">
        <ele>158.392705</ele>
        <time>2021-09-14T07:18:26.000Z</time>
      </trkpt>
      <trkpt lat="45.56131" lon="4.81152">
        <ele>158.354692</ele>
        <time>2021-09-14T07:18:27.000Z</time>
      </trkpt>
      <trkpt lat="45.56136" lon="4.81166">
        <ele>158.155846</ele>
        <time>2021-09-14T07:18:32.000Z</time>
      </trkpt>
      <trkpt lat="45.5614" lon="4.81189">
        <ele>157.865349</ele>
        <time>2021-09-14T07:18:37.000Z</time>
      </trkpt>
      <trkpt lat="45.56139" lon="4.81195">
        <ele>157.795672</ele>
        <time>2021-09-14T07:18:38.000Z</time>
      </trkpt>
      <trkpt lat="45.56136" lon="4.81205">
        <ele>157.638066</ele>
        <time>2021-09-14T07:18:40.000Z</time>
      </trkpt>
      <trkpt lat="45.56132" lon="4.81208">
        <ele>157.561262</ele>
        <time>2021-09-14T07:18:41.000Z</time>
      </trkpt>
      <trkpt lat="45.5611" lon="4.81226">
        <ele>157.063528</ele>
        <time>2021-09-14T07:18:46.000Z</time>
      </trkpt>
      <trkpt lat="45.56083" lon="4.81249">
        <ele>156.45132</ele>
        <time>2021-09-14T07:18:52.000Z</time>
      </trkpt>
      <trkpt lat="45.56053" lon="4.81269">
        <ele>155.80289</ele>
        <time>2021-09-14T07:18:58.000Z</time>
      </trkpt>
      <trkpt lat="45.56048" lon="4.81272">
        <ele>155.695787</ele>
        <time>2021-09-14T07:18:59.000Z</time>
      </trkpt>
      <trkpt lat="45.56038" lon="4.81279">
        <ele>155.478044</ele>
        <time>2021-09-14T07:19:01.000Z</time>
      </trkpt>
      <trkpt lat="45.56028" lon="4.81285">
        <ele>155.277839</ele>
        <time>2021-09-14T07:19:03.000Z</time>
      </trkpt>
      <trkpt lat="45.56009" lon="4.81298">
        <ele>154.861102</ele>
        <time>2021-09-14T07:19:07.000Z</time>
      </trkpt>
      <trkpt lat="45.55985" lon="4.81314">
        <ele>154.414423</ele>
        <time>2021-09-14T07:19:12.000Z</time>
      </trkpt>
      <trkpt lat="45.5597" lon="4.81324">
        <ele>154.42088</ele>
        <time>2021-09-14T07:19:15.000Z</time>
      </trkpt>
      <trkpt lat="45.55954" lon="4.81334">
        <ele>154.427394</ele>
        <time>2021-09-14T07:19:18.000Z</time>
      </trkpt>
      <trkpt lat="45.55917" lon="4.8136">
        <ele>154.443436</ele>
        <time>2021-09-14T07:19:25.000Z</time>
      </trkpt>
      <trkpt lat="45.55901" lon="4.81371">
        <ele>154.450335</ele>
        <time>2021-09-14T07:19:28.000Z</time>
      </trkpt>
      <trkpt lat="45.55891" lon="4.81378">
        <ele>154.454732</ele>
        <time>2021-09-14T07:19:30.000Z</time>
      </trkpt>
      <trkpt lat="45.55854" lon="4.81401">
        <ele>154.470207</ele>
        <time>2021-09-14T07:19:37.000Z</time>
      </trkpt>
      <trkpt lat="45.55823" lon="4.81419">
        <ele>154.495082</ele>
        <time>2021-09-14T07:19:43.000Z</time>
      </trkpt>
      <trkpt lat="45.55787" lon="4.81443">
        <ele>154.841443</ele>
        <time>2021-09-14T07:19:50.000Z</time>
      </trkpt>
      <trkpt lat="45.55746" lon="4.81471">
        <ele>155.240297</ele>
        <time>2021-09-14T07:19:58.000Z</time>
      </trkpt>
      <trkpt lat="45.55716" lon="4.81491">
        <ele>155.529419</ele>
        <time>2021-09-14T07:20:04.000Z</time>
      </trkpt>
      <trkpt lat="45.55685" lon="4.81512">
        <ele>155.830669</ele>
        <time>2021-09-14T07:20:10.000Z</time>
      </trkpt>
      <trkpt lat="45.55666" lon="4.81528">
        <ele>156.029519</ele>
        <time>2021-09-14T07:20:14.000Z</time>
      </trkpt>
      <trkpt lat="45.55655" lon="4.81536">
        <ele>156.116462</ele>
        <time>2021-09-14T07:20:16.000Z</time>
      </trkpt>
      <trkpt lat="45.5564" lon="4.81547">
        <ele>156.228944</ele>
        <time>2021-09-14T07:20:19.000Z</time>
      </trkpt>
      <trkpt lat="45.5561" lon="4.81569">
        <ele>156.452124</ele>
        <time>2021-09-14T07:20:25.000Z</time>
      </trkpt>
      <trkpt lat="45.55569" lon="4.81601">
        <ele>156.7618</ele>
        <time>2021-09-14T07:20:33.000Z</time>
      </trkpt>
      <trkpt lat="45.55545" lon="4.81624">
        <ele>156.95576</ele>
        <time>2021-09-14T07:20:38.000Z</time>
      </trkpt>
      <trkpt lat="45.55536" lon="4.81634">
        <ele>157.033461</ele>
        <time>2021-09-14T07:20:40.000Z</time>
      </trkpt>
      <trkpt lat="45.55527" lon="4.81645">
        <ele>157.109838</ele>
        <time>2021-09-14T07:20:42.000Z</time>
      </trkpt>
      <trkpt lat="45.55505" lon="4.81671">
        <ele>157.265598</ele>
        <time>2021-09-14T07:20:47.000Z</time>
      </trkpt>
      <trkpt lat="45.55497" lon="4.81683">
        <ele>157.280085</ele>
        <time>2021-09-14T07:20:49.000Z</time>
      </trkpt>
      <trkpt lat="45.55484" lon="4.81701">
        <ele>157.302284</ele>
        <time>2021-09-14T07:20:52.000Z</time>
      </trkpt>
      <trkpt lat="45.55476" lon="4.81713">
        <ele>157.316921</ele>
        <time>2021-09-14T07:20:54.000Z</time>
      </trkpt>
      <trkpt lat="45.55465" lon="4.81731">
        <ele>157.338691</ele>
        <time>2021-09-14T07:20:57.000Z</time>
      </trkpt>
      <trkpt lat="45.55444" lon="4.81772">
        <ele>157.382508</ele>
        <time>2021-09-14T07:21:03.000Z</time>
      </trkpt>
      <trkpt lat="45.55416" lon="4.81826">
        <ele>157.441626</ele>
        <time>2021-09-14T07:21:11.000Z</time>
      </trkpt>
      <trkpt lat="45.55392" lon="4.81872">
        <ele>157.468664</ele>
        <time>2021-09-14T07:21:18.000Z</time>
      </trkpt>
      <trkpt lat="45.55363" lon="4.81925">
        <ele>157.385628</ele>
        <time>2021-09-14T07:21:26.000Z</time>
      </trkpt>
      <trkpt lat="45.55339" lon="4.8196">
        <ele>157.324293</ele>
        <time>2021-09-14T07:21:32.000Z</time>
      </trkpt>
      <trkpt lat="45.55315" lon="4.81991">
        <ele>157.267014</ele>
        <time>2021-09-14T07:21:38.000Z</time>
      </trkpt>
      <trkpt lat="45.55297" lon="4.82009">
        <ele>157.228355</ele>
        <time>2021-09-14T07:21:42.000Z</time>
      </trkpt>
      <trkpt lat="45.5526" lon="4.82045">
        <ele>157.197201</ele>
        <time>2021-09-14T07:21:50.000Z</time>
      </trkpt>
      <trkpt lat="45.55238" lon="4.82066">
        <ele>157.304726</ele>
        <time>2021-09-14T07:21:55.000Z</time>
      </trkpt>
      <trkpt lat="45.5523" lon="4.82076">
        <ele>157.347947</ele>
        <time>2021-09-14T07:21:57.000Z</time>
      </trkpt>
      <trkpt lat="45.55203" lon="4.82111">
        <ele>157.496082</ele>
        <time>2021-09-14T07:22:04.000Z</time>
      </trkpt>
      <trkpt lat="45.55192" lon="4.82125">
        <ele>157.556257</ele>
        <time>2021-09-14T07:22:07.000Z</time>
      </trkpt>
      <trkpt lat="45.55189" lon="4.82129">
        <ele>157.572206</ele>
        <time>2021-09-14T07:22:09.000Z</time>
      </trkpt>
      <trkpt lat="45.5519" lon="4.82135">
        <ele>157.590357</ele>
        <time>2021-09-14T07:22:10.000Z</time>
      </trkpt>
      <trkpt lat="45.55189" lon="4.82146">
        <ele>157.622014</ele>
        <time>2021-09-14T07:22:12.000Z</time>
      </trkpt>
      <trkpt lat="45.55187" lon="4.8215">
        <ele>157.633884</ele>
        <time>2021-09-14T07:22:13.000Z</time>
      </trkpt>
      <trkpt lat="45.55182" lon="4.82159">
        <ele>157.666011</ele>
        <time>2021-09-14T07:22:15.000Z</time>
      </trkpt>
      <trkpt lat="45.55174" lon="4.82174">
        <ele>157.720486</ele>
        <time>2021-09-14T07:22:18.000Z</time>
      </trkpt>
      <trkpt lat="45.55152" lon="4.82213">
        <ele>157.86226</ele>
        <time>2021-09-14T07:22:25.000Z</time>
      </trkpt>
      <trkpt lat="45.5513" lon="4.82254">
        <ele>158.019622</ele>
        <time>2021-09-14T07:22:32.000Z</time>
      </trkpt>
      <trkpt lat="45.5511" lon="4.82298">
        <ele>158.175831</ele>
        <time>2021-09-14T07:22:39.000Z</time>
      </trkpt>
      <trkpt lat="45.55103" lon="4.82308">
        <ele>158.220238</ele>
        <time>2021-09-14T07:22:41.000Z</time>
      </trkpt>
      <trkpt lat="45.55095" lon="4.82318">
        <ele>158.265693</ele>
        <time>2021-09-14T07:22:43.000Z</time>
      </trkpt>
      <trkpt lat="45.55092" lon="4.82323">
        <ele>158.287792</ele>
        <time>2021-09-14T07:22:44.000Z</time>
      </trkpt>
      <trkpt lat="45.55076" lon="4.82344">
        <ele>158.380691</ele>
        <time>2021-09-14T07:22:48.000Z</time>
      </trkpt>
      <trkpt lat="45.55064" lon="4.82359">
        <ele>158.451191</ele>
        <time>2021-09-14T07:22:51.000Z</time>
      </trkpt>
      <trkpt lat="45.55023" lon="4.82402">
        <ele>158.668877</ele>
        <time>2021-09-14T07:23:00.000Z</time>
      </trkpt>
      <trkpt lat="45.54986" lon="4.82436">
        <ele>158.678586</ele>
        <time>2021-09-14T07:23:08.000Z</time>
      </trkpt>
      <trkpt lat="45.54977" lon="4.82444">
        <ele>158.679933</ele>
        <time>2021-09-14T07:23:10.000Z</time>
      </trkpt>
      <trkpt lat="45.54968" lon="4.82452">
        <ele>158.681301</ele>
        <time>2021-09-14T07:23:12.000Z</time>
      </trkpt>
      <trkpt lat="45.54963" lon="4.82456">
        <ele>158.681957</ele>
        <time>2021-09-14T07:23:13.000Z</time>
      </trkpt>
      <trkpt lat="45.54955" lon="4.82464">
        <ele>158.683232</ele>
        <time>2021-09-14T07:23:15.000Z</time>
      </trkpt>
      <trkpt lat="45.54946" lon="4.82471">
        <ele>158.684484</ele>
        <time>2021-09-14T07:23:17.000Z</time>
      </trkpt>
      <trkpt lat="45.54919" lon="4.82495">
        <ele>158.688489</ele>
        <time>2021-09-14T07:23:23.000Z</time>
      </trkpt>
      <trkpt lat="45.54914" lon="4.82499">
        <ele>158.689176</ele>
        <time>2021-09-14T07:23:24.000Z</time>
      </trkpt>
      <trkpt lat="45.54886" lon="4.82524">
        <ele>158.69332</ele>
        <time>2021-09-14T07:23:30.000Z</time>
      </trkpt>
      <trkpt lat="45.54881" lon="4.82528">
        <ele>158.694021</ele>
        <time>2021-09-14T07:23:31.000Z</time>
      </trkpt>
      <trkpt lat="45.54866" lon="4.82541">
        <ele>158.704195</ele>
        <time>2021-09-14T07:23:34.000Z</time>
      </trkpt>
      <trkpt lat="45.54834" lon="4.82569">
        <ele>158.789609</ele>
        <time>2021-09-14T07:23:41.000Z</time>
      </trkpt>
      <trkpt lat="45.5482" lon="4.82581">
        <ele>158.826254</ele>
        <time>2021-09-14T07:23:44.000Z</time>
      </trkpt>
      <trkpt lat="45.54811" lon="4.82589">
        <ele>158.850501</ele>
        <time>2021-09-14T07:23:46.000Z</time>
      </trkpt>
      <trkpt lat="45.54806" lon="4.82593">
        <ele>158.862351</ele>
        <time>2021-09-14T07:23:47.000Z</time>
      </trkpt>
      <trkpt lat="45.54788" lon="4.82608">
        <ele>158.909638</ele>
        <time>2021-09-14T07:23:51.000Z</time>
      </trkpt>
      <trkpt lat="45.54779" lon="4.82617">
        <ele>158.934434</ele>
        <time>2021-09-14T07:23:53.000Z</time>
      </trkpt>
      <trkpt lat="45.54764" lon="4.82629">
        <ele>158.972999</ele>
        <time>2021-09-14T07:23:56.000Z</time>
      </trkpt>
      <trkpt lat="45.54731" lon="4.82659">
        <ele>159.062363</ele>
        <time>2021-09-14T07:24:03.000Z</time>
      </trkpt>
      <trkpt lat="45.54712" lon="4.82679">
        <ele>159.128715</ele>
        <time>2021-09-14T07:24:07.000Z</time>
      </trkpt>
      <trkpt lat="45.54704" lon="4.82691">
        <ele>159.181455</ele>
        <time>2021-09-14T07:24:09.000Z</time>
      </trkpt>
      <trkpt lat="45.54693" lon="4.82709">
        <ele>159.260549</ele>
        <time>2021-09-14T07:24:12.000Z</time>
      </trkpt>
      <trkpt lat="45.54687" lon="4.82724">
        <ele>159.313074</ele>
        <time>2021-09-14T07:24:14.000Z</time>
      </trkpt>
      <trkpt lat="45.54686" lon="4.82731">
        <ele>159.338013</ele>
        <time>2021-09-14T07:24:15.000Z</time>
      </trkpt>
      <trkpt lat="45.54684" lon="4.82738">
        <ele>159.362041</ele>
        <time>2021-09-14T07:24:16.000Z</time>
      </trkpt>
      <trkpt lat="45.54682" lon="4.82754">
        <ele>159.413773</ele>
        <time>2021-09-14T07:24:18.000Z</time>
      </trkpt>
      <trkpt lat="45.54681" lon="4.82763">
        <ele>159.440824</ele>
        <time>2021-09-14T07:24:19.000Z</time>
      </trkpt>
      <trkpt lat="45.54675" lon="4.82836">
        <ele>159.678487</ele>
        <time>2021-09-14T07:24:28.000Z</time>
      </trkpt>
      <trkpt lat="45.54672" lon="4.82893">
        <ele>159.8615</ele>
        <time>2021-09-14T07:24:35.000Z</time>
      </trkpt>
      <trkpt lat="45.5467" lon="4.82909">
        <ele>159.913059</ele>
        <time>2021-09-14T07:24:37.000Z</time>
      </trkpt>
      <trkpt lat="45.54666" lon="4.82923">
        <ele>159.932156</ele>
        <time>2021-09-14T07:24:39.000Z</time>
      </trkpt>
      <trkpt lat="45.54662" lon="4.8293">
        <ele>159.938173</ele>
        <time>2021-09-14T07:24:40.000Z</time>
      </trkpt>
      <trkpt lat="45.54658" lon="4.82935">
        <ele>159.944115</ele>
        <time>2021-09-14T07:24:41.000Z</time>
      </trkpt>
      <trkpt lat="45.54639" lon="4.82962">
        <ele>159.973053</ele>
        <time>2021-09-14T07:24:46.000Z</time>
      </trkpt>
      <trkpt lat="45.54604" lon="4.8301">
        <ele>160.024573</ele>
        <time>2021-09-14T07:24:55.000Z</time>
      </trkpt>
      <trkpt lat="45.54574" lon="4.83054">
        <ele>160.070917</ele>
        <time>2021-09-14T07:25:03.000Z</time>
      </trkpt>
      <trkpt lat="45.54546" lon="4.83095">
        <ele>160.113687</ele>
        <time>2021-09-14T07:25:10.000Z</time>
      </trkpt>
      <trkpt lat="45.54522" lon="4.83131">
        <ele>160.088376</ele>
        <time>2021-09-14T07:25:16.000Z</time>
      </trkpt>
      <trkpt lat="45.54513" lon="4.83143">
        <ele>160.078509</ele>
        <time>2021-09-14T07:25:18.000Z</time>
      </trkpt>
      <trkpt lat="45.54505" lon="4.83156">
        <ele>160.068377</ele>
        <time>2021-09-14T07:25:20.000Z</time>
      </trkpt>
      <trkpt lat="45.54501" lon="4.83163">
        <ele>160.063235</ele>
        <time>2021-09-14T07:25:21.000Z</time>
      </trkpt>
      <trkpt lat="45.54472" lon="4.83208">
        <ele>160.028128</ele>
        <time>2021-09-14T07:25:28.000Z</time>
      </trkpt>
      <trkpt lat="45.54436" lon="4.83265">
        <ele>159.984816</ele>
        <time>2021-09-14T07:25:37.000Z</time>
      </trkpt>
      <trkpt lat="45.54402" lon="4.83321">
        <ele>159.925386</ele>
        <time>2021-09-14T07:25:46.000Z</time>
      </trkpt>
      <trkpt lat="45.54369" lon="4.83378">
        <ele>159.856429</ele>
        <time>2021-09-14T07:25:55.000Z</time>
      </trkpt>
      <trkpt lat="45.54339" lon="4.83438">
        <ele>159.787219</ele>
        <time>2021-09-14T07:26:04.000Z</time>
      </trkpt>
      <trkpt lat="45.54314" lon="4.83492">
        <ele>159.7276</ele>
        <time>2021-09-14T07:26:12.000Z</time>
      </trkpt>
      <trkpt lat="45.54288" lon="4.83552">
        <ele>159.671467</ele>
        <time>2021-09-14T07:26:21.000Z</time>
      </trkpt>
      <trkpt lat="45.5426" lon="4.83618">
        <ele>159.610923</ele>
        <time>2021-09-14T07:26:31.000Z</time>
      </trkpt>
      <trkpt lat="45.54244" lon="4.83657">
        <ele>159.574651</ele>
        <time>2021-09-14T07:26:37.000Z</time>
      </trkpt>
      <trkpt lat="45.54236" lon="4.83677">
        <ele>159.556772</ele>
        <time>2021-09-14T07:26:40.000Z</time>
      </trkpt>
      <trkpt lat="45.54231" lon="4.8369">
        <ele>159.544802</ele>
        <time>2021-09-14T07:26:42.000Z</time>
      </trkpt>
      <trkpt lat="45.5421" lon="4.83752">
        <ele>159.549542</ele>
        <time>2021-09-14T07:26:51.000Z</time>
      </trkpt>
      <trkpt lat="45.54194" lon="4.83801">
        <ele>159.578018</ele>
        <time>2021-09-14T07:26:58.000Z</time>
      </trkpt>
      <trkpt lat="45.54172" lon="4.83865">
        <ele>159.615062</ele>
        <time>2021-09-14T07:27:07.000Z</time>
      </trkpt>
      <trkpt lat="45.54154" lon="4.83932">
        <ele>159.652637</ele>
        <time>2021-09-14T07:27:16.000Z</time>
      </trkpt>
      <trkpt lat="45.54138" lon="4.84002">
        <ele>159.155619</ele>
        <time>2021-09-14T07:27:25.000Z</time>
      </trkpt>
      <trkpt lat="45.54137" lon="4.8401">
        <ele>159.088392</ele>
        <time>2021-09-14T07:27:26.000Z</time>
      </trkpt>
      <trkpt lat="45.54126" lon="4.84058">
        <ele>158.662059</ele>
        <time>2021-09-14T07:27:32.000Z</time>
      </trkpt>
      <trkpt lat="45.54124" lon="4.84066">
        <ele>158.588774</ele>
        <time>2021-09-14T07:27:33.000Z</time>
      </trkpt>
      <trkpt lat="45.54122" lon="4.84074">
        <ele>158.515844</ele>
        <time>2021-09-14T07:27:34.000Z</time>
      </trkpt>
      <trkpt lat="45.54114" lon="4.84115">
        <ele>158.151312</ele>
        <time>2021-09-14T07:27:39.000Z</time>
      </trkpt>
      <trkpt lat="45.54103" lon="4.84165">
        <ele>157.704167</ele>
        <time>2021-09-14T07:27:45.000Z</time>
      </trkpt>
      <trkpt lat="45.54089" lon="4.84231">
        <ele>156.632399</ele>
        <time>2021-09-14T07:27:53.000Z</time>
      </trkpt>
      <trkpt lat="45.54075" lon="4.84295">
        <ele>155.260208</ele>
        <time>2021-09-14T07:28:01.000Z</time>
      </trkpt>
      <trkpt lat="45.54065" lon="4.84343">
        <ele>154.247128</ele>
        <time>2021-09-14T07:28:07.000Z</time>
      </trkpt>
      <trkpt lat="45.54056" lon="4.8439">
        <ele>153.247945</ele>
        <time>2021-09-14T07:28:13.000Z</time>
      </trkpt>
      <trkpt lat="45.54046" lon="4.84463">
        <ele>152.028055</ele>
        <time>2021-09-14T07:28:22.000Z</time>
      </trkpt>
      <trkpt lat="45.54037" lon="4.84525">
        <ele>151.470443</ele>
        <time>2021-09-14T07:28:30.000Z</time>
      </trkpt>
      <trkpt lat="45.54028" lon="4.84587">
        <ele>150.916661</ele>
        <time>2021-09-14T07:28:38.000Z</time>
      </trkpt>
      <trkpt lat="45.54021" lon="4.8465">
        <ele>150.359016</ele>
        <time>2021-09-14T07:28:46.000Z</time>
      </trkpt>
      <trkpt lat="45.54015" lon="4.84704">
        <ele>150.007702</ele>
        <time>2021-09-14T07:28:53.000Z</time>
      </trkpt>
      <trkpt lat="45.54014" lon="4.84712">
        <ele>150.014581</ele>
        <time>2021-09-14T07:28:54.000Z</time>
      </trkpt>
      <trkpt lat="45.54009" lon="4.84765">
        <ele>150.062622</ele>
        <time>2021-09-14T07:29:01.000Z</time>
      </trkpt>
      <trkpt lat="45.54002" lon="4.84827">
        <ele>150.117804</ele>
        <time>2021-09-14T07:29:09.000Z</time>
      </trkpt>
      <trkpt lat="45.53996" lon="4.84881">
        <ele>150.165952</ele>
        <time>2021-09-14T07:29:16.000Z</time>
      </trkpt>
      <trkpt lat="45.53995" lon="4.84888">
        <ele>150.172744</ele>
        <time>2021-09-14T07:29:17.000Z</time>
      </trkpt>
      <trkpt lat="45.5399" lon="4.84936">
        <ele>150.215235</ele>
        <time>2021-09-14T07:29:23.000Z</time>
      </trkpt>
      <trkpt lat="45.53987" lon="4.8496">
        <ele>150.207672</ele>
        <time>2021-09-14T07:29:26.000Z</time>
      </trkpt>
      <trkpt lat="45.53986" lon="4.84975">
        <ele>150.19167</ele>
        <time>2021-09-14T07:29:28.000Z</time>
      </trkpt>
      <trkpt lat="45.53984" lon="4.84991">
        <ele>150.175363</ele>
        <time>2021-09-14T07:29:30.000Z</time>
      </trkpt>
      <trkpt lat="45.53983" lon="4.84999">
        <ele>150.167148</ele>
        <time>2021-09-14T07:29:31.000Z</time>
      </trkpt>
      <trkpt lat="45.53979" lon="4.85038">
        <ele>150.126421</ele>
        <time>2021-09-14T07:29:36.000Z</time>
      </trkpt>
      <trkpt lat="45.53971" lon="4.85108">
        <ele>150.05379</ele>
        <time>2021-09-14T07:29:45.000Z</time>
      </trkpt>
      <trkpt lat="45.53966" lon="4.85154">
        <ele>150.006087</ele>
        <time>2021-09-14T07:29:51.000Z</time>
      </trkpt>
      <trkpt lat="45.53958" lon="4.85224">
        <ele>149.987476</ele>
        <time>2021-09-14T07:30:00.000Z</time>
      </trkpt>
      <trkpt lat="45.53953" lon="4.85264">
        <ele>150.029513</ele>
        <time>2021-09-14T07:30:05.000Z</time>
      </trkpt>
      <trkpt lat="45.5395" lon="4.85288">
        <ele>150.055182</ele>
        <time>2021-09-14T07:30:08.000Z</time>
      </trkpt>
      <trkpt lat="45.53943" lon="4.85343">
        <ele>150.11531</ele>
        <time>2021-09-14T07:30:15.000Z</time>
      </trkpt>
      <trkpt lat="45.53935" lon="4.85399">
        <ele>150.17523</ele>
        <time>2021-09-14T07:30:22.000Z</time>
      </trkpt>
      <trkpt lat="45.53925" lon="4.85453">
        <ele>150.24756</ele>
        <time>2021-09-14T07:30:29.000Z</time>
      </trkpt>
      <trkpt lat="45.53922" lon="4.85466">
        <ele>150.334438</ele>
        <time>2021-09-14T07:30:31.000Z</time>
      </trkpt>
      <trkpt lat="45.53918" lon="4.85477">
        <ele>150.41469</ele>
        <time>2021-09-14T07:30:33.000Z</time>
      </trkpt>
      <trkpt lat="45.53909" lon="4.85483">
        <ele>150.497578</ele>
        <time>2021-09-14T07:30:35.000Z</time>
      </trkpt>
      <trkpt lat="45.53904" lon="4.85481">
        <ele>150.541572</ele>
        <time>2021-09-14T07:30:36.000Z</time>
      </trkpt>
      <trkpt lat="45.53894" lon="4.85479">
        <ele>150.636746</ele>
        <time>2021-09-14T07:30:38.000Z</time>
      </trkpt>
      <trkpt lat="45.53878" lon="4.85475">
        <ele>150.776389</ele>
        <time>2021-09-14T07:30:41.000Z</time>
      </trkpt>
      <trkpt lat="45.53856" lon="4.8547">
        <ele>150.979473</ele>
        <time>2021-09-14T07:30:48.000Z</time>
      </trkpt>
      <trkpt lat="45.53843" lon="4.85467">
        <ele>151.091001</ele>
        <time>2021-09-14T07:30:52.000Z</time>
      </trkpt>
      <trkpt lat="45.53841" lon="4.85467">
        <ele>151.107037</ele>
        <time>2021-09-14T07:30:53.000Z</time>
      </trkpt>
      <trkpt lat="45.53839" lon="4.85484">
        <ele>151.215279</ele>
        <time>2021-09-14T07:30:57.000Z</time>
      </trkpt>
      <trkpt lat="45.53837" lon="4.85496">
        <ele>151.286868</ele>
        <time>2021-09-14T07:30:59.000Z</time>
      </trkpt>
      <trkpt lat="45.53835" lon="4.85516">
        <ele>151.414325</ele>
        <time>2021-09-14T07:31:02.000Z</time>
      </trkpt>
      <trkpt lat="45.5383" lon="4.85528">
        <ele>151.502393</ele>
        <time>2021-09-14T07:31:04.000Z</time>
      </trkpt>
      <trkpt lat="45.53827" lon="4.85536">
        <ele>151.553787</ele>
        <time>2021-09-14T07:31:05.000Z</time>
      </trkpt>
      <trkpt lat="45.53825" lon="4.8555">
        <ele>151.645219</ele>
        <time>2021-09-14T07:31:07.000Z</time>
      </trkpt>
      <trkpt lat="45.53824" lon="4.85566">
        <ele>151.743972</ele>
        <time>2021-09-14T07:31:09.000Z</time>
      </trkpt>
      <trkpt lat="45.53823" lon="4.85573">
        <ele>151.791293</ele>
        <time>2021-09-14T07:31:10.000Z</time>
      </trkpt>
      <trkpt lat="45.53822" lon="4.85581">
        <ele>151.833853</ele>
        <time>2021-09-14T07:31:11.000Z</time>
      </trkpt>
      <trkpt lat="45.53812" lon="4.85594">
        <ele>151.914006</ele>
        <time>2021-09-14T07:31:13.000Z</time>
      </trkpt>
      <trkpt lat="45.53811" lon="4.85601">
        <ele>151.946626</ele>
        <time>2021-09-14T07:31:14.000Z</time>
      </trkpt>
      <trkpt lat="45.53808" lon="4.8562">
        <ele>152.028502</ele>
        <time>2021-09-14T07:31:16.000Z</time>
      </trkpt>
      <trkpt lat="45.53808" lon="4.85623">
        <ele>152.039164</ele>
        <time>2021-09-14T07:31:17.000Z</time>
      </trkpt>
      <trkpt lat="45.53805" lon="4.85643">
        <ele>152.125548</ele>
        <time>2021-09-14T07:31:20.000Z</time>
      </trkpt>
      <trkpt lat="45.53803" lon="4.8566">
        <ele>152.198421</ele>
        <time>2021-09-14T07:31:22.000Z</time>
      </trkpt>
      <trkpt lat="45.53797" lon="4.85699">
        <ele>152.367338</ele>
        <time>2021-09-14T07:31:28.000Z</time>
      </trkpt>
      <trkpt lat="45.53792" lon="4.85733">
        <ele>152.510901</ele>
        <time>2021-09-14T07:31:33.000Z</time>
      </trkpt>
      <trkpt lat="45.5379" lon="4.85746">
        <ele>152.568902</ele>
        <time>2021-09-14T07:31:35.000Z</time>
      </trkpt>
      <trkpt lat="45.53782" lon="4.85796">
        <ele>152.783299</ele>
        <time>2021-09-14T07:31:42.000Z</time>
      </trkpt>
      <trkpt lat="45.53773" lon="4.85855">
        <ele>153.03626</ele>
        <time>2021-09-14T07:31:50.000Z</time>
      </trkpt>
      <trkpt lat="45.53768" lon="4.85891">
        <ele>153.184444</ele>
        <time>2021-09-14T07:31:55.000Z</time>
      </trkpt>
      <trkpt lat="45.53765" lon="4.85912">
        <ele>153.275355</ele>
        <time>2021-09-14T07:31:58.000Z</time>
      </trkpt>
      <trkpt lat="45.53762" lon="4.85933">
        <ele>153.365737</ele>
        <time>2021-09-14T07:32:01.000Z</time>
      </trkpt>
      <trkpt lat="45.53756" lon="4.8597">
        <ele>153.52035</ele>
        <time>2021-09-14T07:32:06.000Z</time>
      </trkpt>
      <trkpt lat="45.53755" lon="4.85977">
        <ele>153.551192</ele>
        <time>2021-09-14T07:32:07.000Z</time>
      </trkpt>
      <trkpt lat="45.53754" lon="4.85984">
        <ele>153.581226</ele>
        <time>2021-09-14T07:32:08.000Z</time>
      </trkpt>
      <trkpt lat="45.53748" lon="4.86022">
        <ele>153.741177</ele>
        <time>2021-09-14T07:32:13.000Z</time>
      </trkpt>
      <trkpt lat="45.53738" lon="4.86081">
        <ele>153.986082</ele>
        <time>2021-09-14T07:32:21.000Z</time>
      </trkpt>
      <trkpt lat="45.53736" lon="4.86089">
        <ele>154.013141</ele>
        <time>2021-09-14T07:32:22.000Z</time>
      </trkpt>
      <trkpt lat="45.53727" lon="4.86126">
        <ele>154.142143</ele>
        <time>2021-09-14T07:32:27.000Z</time>
      </trkpt>
      <trkpt lat="45.5372" lon="4.86155">
        <ele>154.247233</ele>
        <time>2021-09-14T07:32:31.000Z</time>
      </trkpt>
      <trkpt lat="45.53715" lon="4.8617">
        <ele>154.30019</ele>
        <time>2021-09-14T07:32:33.000Z</time>
      </trkpt>
      <trkpt lat="45.53703" lon="4.86204">
        <ele>154.428708</ele>
        <time>2021-09-14T07:32:38.000Z</time>
      </trkpt>
      <trkpt lat="45.53698" lon="4.86217">
        <ele>154.479613</ele>
        <time>2021-09-14T07:32:40.000Z</time>
      </trkpt>
      <trkpt lat="45.5369" lon="4.86237">
        <ele>154.555529</ele>
        <time>2021-09-14T07:32:43.000Z</time>
      </trkpt>
      <trkpt lat="45.53685" lon="4.8625">
        <ele>154.604001</ele>
        <time>2021-09-14T07:32:45.000Z</time>
      </trkpt>
      <trkpt lat="45.5367" lon="4.86291">
        <ele>154.757529</ele>
        <time>2021-09-14T07:32:51.000Z</time>
      </trkpt>
      <trkpt lat="45.53668" lon="4.86298">
        <ele>154.783647</ele>
        <time>2021-09-14T07:32:52.000Z</time>
      </trkpt>
      <trkpt lat="45.53665" lon="4.86305">
        <ele>154.80984</ele>
        <time>2021-09-14T07:32:53.000Z</time>
      </trkpt>
      <trkpt lat="45.53655" lon="4.86332">
        <ele>154.860699</ele>
        <time>2021-09-14T07:32:57.000Z</time>
      </trkpt>
      <trkpt lat="45.53636" lon="4.86393">
        <ele>154.957339</ele>
        <time>2021-09-14T07:33:05.000Z</time>
      </trkpt>
      <trkpt lat="45.53619" lon="4.86454">
        <ele>155.053664</ele>
        <time>2021-09-14T07:33:13.000Z</time>
      </trkpt>
      <trkpt lat="45.53617" lon="4.86462">
        <ele>155.065458</ele>
        <time>2021-09-14T07:33:14.000Z</time>
      </trkpt>
      <trkpt lat="45.53602" lon="4.86515">
        <ele>155.14875</ele>
        <time>2021-09-14T07:33:21.000Z</time>
      </trkpt>
      <trkpt lat="45.53578" lon="4.86573">
        <ele>155.176408</ele>
        <time>2021-09-14T07:33:29.000Z</time>
      </trkpt>
      <trkpt lat="45.53557" lon="4.8662">
        <ele>155.149953</ele>
        <time>2021-09-14T07:33:36.000Z</time>
      </trkpt>
      <trkpt lat="45.53535" lon="4.86674">
        <ele>155.120224</ele>
        <time>2021-09-14T07:33:43.000Z</time>
      </trkpt>
      <trkpt lat="45.53512" lon="4.86727">
        <ele>155.090561</ele>
        <time>2021-09-14T07:33:51.000Z</time>
      </trkpt>
      <trkpt lat="45.53503" lon="4.86747">
        <ele>155.079226</ele>
        <time>2021-09-14T07:33:55.000Z</time>
      </trkpt>
      <trkpt lat="45.53478" lon="4.86789">
        <ele>155.030492</ele>
        <time>2021-09-14T07:34:01.000Z</time>
      </trkpt>
      <trkpt lat="45.53471" lon="4.86801">
        <ele>155.014345</ele>
        <time>2021-09-14T07:34:03.000Z</time>
      </trkpt>
      <trkpt lat="45.5346" lon="4.86818">
        <ele>154.990023</ele>
        <time>2021-09-14T07:34:06.000Z</time>
      </trkpt>
      <trkpt lat="45.53457" lon="4.86823">
        <ele>154.981771</ele>
        <time>2021-09-14T07:34:08.000Z</time>
      </trkpt>
      <trkpt lat="45.53446" lon="4.86841">
        <ele>154.957513</ele>
        <time>2021-09-14T07:34:10.000Z</time>
      </trkpt>
      <trkpt lat="45.53439" lon="4.86852">
        <ele>154.941009</ele>
        <time>2021-09-14T07:34:12.000Z</time>
      </trkpt>
      <trkpt lat="45.53427" lon="4.86869">
        <ele>154.916374</ele>
        <time>2021-09-14T07:34:15.000Z</time>
      </trkpt>
      <trkpt lat="45.534" lon="4.86909">
        <ele>154.858392</ele>
        <time>2021-09-14T07:34:22.000Z</time>
      </trkpt>
      <trkpt lat="45.53374" lon="4.86947">
        <ele>154.802512</ele>
        <time>2021-09-14T07:34:29.000Z</time>
      </trkpt>
      <trkpt lat="45.5337" lon="4.86952">
        <ele>154.789856</ele>
        <time>2021-09-14T07:34:30.000Z</time>
      </trkpt>
      <trkpt lat="45.53362" lon="4.86963">
        <ele>154.761645</ele>
        <time>2021-09-14T07:34:32.000Z</time>
      </trkpt>
      <trkpt lat="45.53339" lon="4.86998">
        <ele>154.678728</ele>
        <time>2021-09-14T07:34:38.000Z</time>
      </trkpt>
      <trkpt lat="45.53316" lon="4.87023">
        <ele>154.606301</ele>
        <time>2021-09-14T07:34:43.000Z</time>
      </trkpt>
      <trkpt lat="45.5331" lon="4.87027">
        <ele>154.591066</ele>
        <time>2021-09-14T07:34:44.000Z</time>
      </trkpt>
      <trkpt lat="45.53285" lon="4.87048">
        <ele>154.518217</ele>
        <time>2021-09-14T07:34:49.000Z</time>
      </trkpt>
      <trkpt lat="45.5327" lon="4.8706">
        <ele>154.474541</ele>
        <time>2021-09-14T07:34:52.000Z</time>
      </trkpt>
      <trkpt lat="45.53256" lon="4.87072">
        <ele>154.4338</ele>
        <time>2021-09-14T07:34:55.000Z</time>
      </trkpt>
      <trkpt lat="45.53228" lon="4.87095">
        <ele>154.354866</ele>
        <time>2021-09-14T07:35:01.000Z</time>
      </trkpt>
      <trkpt lat="45.53195" lon="4.87122">
        <ele>154.370329</ele>
        <time>2021-09-14T07:35:08.000Z</time>
      </trkpt>
      <trkpt lat="45.53158" lon="4.87152">
        <ele>154.387823</ele>
        <time>2021-09-14T07:35:16.000Z</time>
      </trkpt>
      <trkpt lat="45.53117" lon="4.87168">
        <ele>154.405189</ele>
        <time>2021-09-14T07:35:24.000Z</time>
      </trkpt>
      <trkpt lat="45.53112" lon="4.87169">
        <ele>154.407287</ele>
        <time>2021-09-14T07:35:25.000Z</time>
      </trkpt>
      <trkpt lat="45.53075" lon="4.87173">
        <ele>154.422411</ele>
        <time>2021-09-14T07:35:32.000Z</time>
      </trkpt>
      <trkpt lat="45.53059" lon="4.87172">
        <ele>154.438613</ele>
        <time>2021-09-14T07:35:35.000Z</time>
      </trkpt>
      <trkpt lat="45.53049" lon="4.87171">
        <ele>154.532023</ele>
        <time>2021-09-14T07:35:37.000Z</time>
      </trkpt>
      <trkpt lat="45.53019" lon="4.87165">
        <ele>154.810843</ele>
        <time>2021-09-14T07:35:43.000Z</time>
      </trkpt>
      <trkpt lat="45.52994" lon="4.8716">
        <ele>155.052456</ele>
        <time>2021-09-14T07:35:48.000Z</time>
      </trkpt>
      <trkpt lat="45.52983" lon="4.87158">
        <ele>155.147715</ele>
        <time>2021-09-14T07:35:50.000Z</time>
      </trkpt>
      <trkpt lat="45.52973" lon="4.87155">
        <ele>155.24581</ele>
        <time>2021-09-14T07:35:52.000Z</time>
      </trkpt>
      <trkpt lat="45.52968" lon="4.87154">
        <ele>155.294353</ele>
        <time>2021-09-14T07:35:53.000Z</time>
      </trkpt>
      <trkpt lat="45.52935" lon="4.87147">
        <ele>155.597962</ele>
        <time>2021-09-14T07:35:59.000Z</time>
      </trkpt>
      <trkpt lat="45.52912" lon="4.87142">
        <ele>155.811986</ele>
        <time>2021-09-14T07:36:04.000Z</time>
      </trkpt>
      <trkpt lat="45.5288" lon="4.87133">
        <ele>156.112914</ele>
        <time>2021-09-14T07:36:09.000Z</time>
      </trkpt>
      <trkpt lat="45.52875" lon="4.8713">
        <ele>156.158201</ele>
        <time>2021-09-14T07:36:10.000Z</time>
      </trkpt>
      <trkpt lat="45.52845" lon="4.87115">
        <ele>156.419461</ele>
        <time>2021-09-14T07:36:16.000Z</time>
      </trkpt>
      <trkpt lat="45.52825" lon="4.87103">
        <ele>156.598867</ele>
        <time>2021-09-14T07:36:20.000Z</time>
      </trkpt>
      <trkpt lat="45.52811" lon="4.87094">
        <ele>156.729366</ele>
        <time>2021-09-14T07:36:23.000Z</time>
      </trkpt>
      <trkpt lat="45.52806" lon="4.87091">
        <ele>156.77203</ele>
        <time>2021-09-14T07:36:24.000Z</time>
      </trkpt>
      <trkpt lat="45.52787" lon="4.87078">
        <ele>156.947937</ele>
        <time>2021-09-14T07:36:28.000Z</time>
      </trkpt>
      <trkpt lat="45.52777" lon="4.87072">
        <ele>157.040501</ele>
        <time>2021-09-14T07:36:31.000Z</time>
      </trkpt>
      <trkpt lat="45.52756" lon="4.87059">
        <ele>157.223936</ele>
        <time>2021-09-14T07:36:34.000Z</time>
      </trkpt>
      <trkpt lat="45.52718" lon="4.87034">
        <ele>157.576154</ele>
        <time>2021-09-14T07:36:42.000Z</time>
      </trkpt>
      <trkpt lat="45.52685" lon="4.87014">
        <ele>157.902397</ele>
        <time>2021-09-14T07:36:49.000Z</time>
      </trkpt>
      <trkpt lat="45.52664" lon="4.87">
        <ele>158.110796</ele>
        <time>2021-09-14T07:36:54.000Z</time>
      </trkpt>
      <trkpt lat="45.52644" lon="4.86981">
        <ele>158.325547</ele>
        <time>2021-09-14T07:36:59.000Z</time>
      </trkpt>
      <trkpt lat="45.52644" lon="4.86981">
        <ele>158.325547</ele>
        <time>2021-09-14T07:37:00.000Z</time>
      </trkpt>
      <trkpt lat="45.52603" lon="4.86951">
        <ele>158.752029</ele>
        <time>2021-09-14T07:37:08.000Z</time>
      </trkpt>
      <trkpt lat="45.52558" lon="4.86919">
        <ele>159.206312</ele>
        <time>2021-09-14T07:37:18.000Z</time>
      </trkpt>
      <trkpt lat="45.5255" lon="4.86913">
        <ele>159.270067</ele>
        <time>2021-09-14T07:37:20.000Z</time>
      </trkpt>
      <trkpt lat="45.5254" lon="4.86906">
        <ele>159.346659</ele>
        <time>2021-09-14T07:37:22.000Z</time>
      </trkpt>
      <trkpt lat="45.52531" lon="4.86899">
        <ele>159.416629</ele>
        <time>2021-09-14T07:37:24.000Z</time>
      </trkpt>
      <trkpt lat="45.52514" lon="4.86886">
        <ele>159.55368</ele>
        <time>2021-09-14T07:37:28.000Z</time>
      </trkpt>
      <trkpt lat="45.5248" lon="4.8686">
        <ele>159.81661</ele>
        <time>2021-09-14T07:37:36.000Z</time>
      </trkpt>
      <trkpt lat="45.52458" lon="4.86843">
        <ele>159.986782</ele>
        <time>2021-09-14T07:37:42.000Z</time>
      </trkpt>
      <trkpt lat="45.52437" lon="4.86827">
        <ele>160.152927</ele>
        <time>2021-09-14T07:37:48.000Z</time>
      </trkpt>
      <trkpt lat="45.52433" lon="4.86824">
        <ele>160.186135</ele>
        <time>2021-09-14T07:37:49.000Z</time>
      </trkpt>
      <trkpt lat="45.52408" lon="4.86803">
        <ele>160.384909</ele>
        <time>2021-09-14T07:37:55.000Z</time>
      </trkpt>
      <trkpt lat="45.52388" lon="4.86781">
        <ele>160.503917</ele>
        <time>2021-09-14T07:38:00.000Z</time>
      </trkpt>
      <trkpt lat="45.52384" lon="4.86776">
        <ele>160.520559</ele>
        <time>2021-09-14T07:38:01.000Z</time>
      </trkpt>
      <trkpt lat="45.52369" lon="4.86757">
        <ele>160.58499</ele>
        <time>2021-09-14T07:38:05.000Z</time>
      </trkpt>
      <trkpt lat="45.52362" lon="4.86748">
        <ele>160.614351</ele>
        <time>2021-09-14T07:38:07.000Z</time>
      </trkpt>
      <trkpt lat="45.5234" lon="4.86717">
        <ele>160.713231</ele>
        <time>2021-09-14T07:38:14.000Z</time>
      </trkpt>
      <trkpt lat="45.52322" lon="4.86694">
        <ele>160.790915</ele>
        <time>2021-09-14T07:38:19.000Z</time>
      </trkpt>
      <trkpt lat="45.52312" lon="4.8668">
        <ele>160.835075</ele>
        <time>2021-09-14T07:38:22.000Z</time>
      </trkpt>
      <trkpt lat="45.52305" lon="4.86669">
        <ele>160.867044</ele>
        <time>2021-09-14T07:38:24.000Z</time>
      </trkpt>
      <trkpt lat="45.52287" lon="4.86637">
        <ele>160.960903</ele>
        <time>2021-09-14T07:38:30.000Z</time>
      </trkpt>
      <trkpt lat="45.52265" lon="4.86609">
        <ele>160.925916</ele>
        <time>2021-09-14T07:38:36.000Z</time>
      </trkpt>
      <trkpt lat="45.52257" lon="4.866">
        <ele>160.774782</ele>
        <time>2021-09-14T07:38:39.000Z</time>
      </trkpt>
      <trkpt lat="45.52254" lon="4.86595">
        <ele>160.702051</ele>
        <time>2021-09-14T07:38:40.000Z</time>
      </trkpt>
      <trkpt lat="45.5225" lon="4.86591">
        <ele>160.631721</ele>
        <time>2021-09-14T07:38:41.000Z</time>
      </trkpt>
      <trkpt lat="45.52239" lon="4.86579">
        <ele>160.439671</ele>
        <time>2021-09-14T07:38:44.000Z</time>
      </trkpt>
      <trkpt lat="45.5222" lon="4.86557">
        <ele>160.08272</ele>
        <time>2021-09-14T07:38:48.000Z</time>
      </trkpt>
      <trkpt lat="45.52216" lon="4.86552">
        <ele>159.999385</ele>
        <time>2021-09-14T07:38:49.000Z</time>
      </trkpt>
      <trkpt lat="45.52206" lon="4.86542">
        <ele>159.829179</ele>
        <time>2021-09-14T07:38:51.000Z</time>
      </trkpt>
      <trkpt lat="45.52192" lon="4.86526">
        <ele>159.570335</ele>
        <time>2021-09-14T07:38:54.000Z</time>
      </trkpt>
      <trkpt lat="45.5217" lon="4.86501">
        <ele>159.165528</ele>
        <time>2021-09-14T07:39:00.000Z</time>
      </trkpt>
      <trkpt lat="45.52141" lon="4.86468">
        <ele>158.623595</ele>
        <time>2021-09-14T07:39:06.000Z</time>
      </trkpt>
      <trkpt lat="45.52121" lon="4.86446">
        <ele>158.305718</ele>
        <time>2021-09-14T07:39:11.000Z</time>
      </trkpt>
      <trkpt lat="45.52105" lon="4.86427">
        <ele>158.084059</ele>
        <time>2021-09-14T07:39:15.000Z</time>
      </trkpt>
      <trkpt lat="45.52079" lon="4.86398">
        <ele>157.740342</ele>
        <time>2021-09-14T07:39:21.000Z</time>
      </trkpt>
      <trkpt lat="45.5204" lon="4.86354">
        <ele>157.220781</ele>
        <time>2021-09-14T07:39:30.000Z</time>
      </trkpt>
      <trkpt lat="45.52016" lon="4.86327">
        <ele>156.904226</ele>
        <time>2021-09-14T07:39:36.000Z</time>
      </trkpt>
      <trkpt lat="45.51986" lon="4.86293">
        <ele>156.552836</ele>
        <time>2021-09-14T07:39:43.000Z</time>
      </trkpt>
      <trkpt lat="45.51969" lon="4.86275">
        <ele>156.565531</ele>
        <time>2021-09-14T07:39:47.000Z</time>
      </trkpt>
      <trkpt lat="45.51946" lon="4.86249">
        <ele>156.583568</ele>
        <time>2021-09-14T07:39:53.000Z</time>
      </trkpt>
      <trkpt lat="45.5191" lon="4.86211">
        <ele>156.61029</ele>
        <time>2021-09-14T07:40:02.000Z</time>
      </trkpt>
      <trkpt lat="45.5189" lon="4.86189">
        <ele>156.625751</ele>
        <time>2021-09-14T07:40:07.000Z</time>
      </trkpt>
      <trkpt lat="45.51886" lon="4.86185">
        <ele>156.628401</ele>
        <time>2021-09-14T07:40:08.000Z</time>
      </trkpt>
      <trkpt lat="45.51877" lon="4.86175">
        <ele>156.635321</ele>
        <time>2021-09-14T07:40:11.000Z</time>
      </trkpt>
      <trkpt lat="45.51853" lon="4.8615">
        <ele>156.653506</ele>
        <time>2021-09-14T07:40:17.000Z</time>
      </trkpt>
      <trkpt lat="45.51825" lon="4.8612">
        <ele>156.586895</ele>
        <time>2021-09-14T07:40:24.000Z</time>
      </trkpt>
      <trkpt lat="45.5181" lon="4.86104">
        <ele>156.534541</ele>
        <time>2021-09-14T07:40:28.000Z</time>
      </trkpt>
      <trkpt lat="45.51799" lon="4.86092">
        <ele>156.496658</ele>
        <time>2021-09-14T07:40:31.000Z</time>
      </trkpt>
      <trkpt lat="45.51766" lon="4.86055">
        <ele>156.381087</ele>
        <time>2021-09-14T07:40:39.000Z</time>
      </trkpt>
      <trkpt lat="45.51738" lon="4.86019">
        <ele>156.276096</ele>
        <time>2021-09-14T07:40:47.000Z</time>
      </trkpt>
      <trkpt lat="45.51711" lon="4.85986">
        <ele>156.176466</ele>
        <time>2021-09-14T07:40:54.000Z</time>
      </trkpt>
      <trkpt lat="45.51681" lon="4.85948">
        <ele>156.210145</ele>
        <time>2021-09-14T07:41:02.000Z</time>
      </trkpt>
      <trkpt lat="45.5165" lon="4.8591">
        <ele>156.270055</ele>
        <time>2021-09-14T07:41:10.000Z</time>
      </trkpt>
      <trkpt lat="45.51631" lon="4.85886">
        <ele>156.308621</ele>
        <time>2021-09-14T07:41:15.000Z</time>
      </trkpt>
      <trkpt lat="45.51596" lon="4.85842">
        <ele>156.378219</ele>
        <time>2021-09-14T07:41:24.000Z</time>
      </trkpt>
      <trkpt lat="45.51573" lon="4.85814">
        <ele>156.422579</ele>
        <time>2021-09-14T07:41:30.000Z</time>
      </trkpt>
      <trkpt lat="45.51566" lon="4.85805">
        <ele>156.427016</ele>
        <time>2021-09-14T07:41:32.000Z</time>
      </trkpt>
      <trkpt lat="45.5156" lon="4.85797">
        <ele>156.426669</ele>
        <time>2021-09-14T07:41:34.000Z</time>
      </trkpt>
      <trkpt lat="45.51538" lon="4.85769">
        <ele>156.425448</ele>
        <time>2021-09-14T07:41:40.000Z</time>
      </trkpt>
      <trkpt lat="45.51534" lon="4.85764">
        <ele>156.425238</ele>
        <time>2021-09-14T07:41:41.000Z</time>
      </trkpt>
      <trkpt lat="45.51516" lon="4.85742">
        <ele>156.424243</ele>
        <time>2021-09-14T07:41:46.000Z</time>
      </trkpt>
      <trkpt lat="45.51499" lon="4.85721">
        <ele>156.423322</ele>
        <time>2021-09-14T07:41:51.000Z</time>
      </trkpt>
      <trkpt lat="45.51474" lon="4.85688">
        <ele>156.42191</ele>
        <time>2021-09-14T07:41:58.000Z</time>
      </trkpt>
      <trkpt lat="45.51467" lon="4.85678">
        <ele>156.421516</ele>
        <time>2021-09-14T07:42:01.000Z</time>
      </trkpt>
      <trkpt lat="45.51447" lon="4.85651">
        <ele>156.420345</ele>
        <time>2021-09-14T07:42:06.000Z</time>
      </trkpt>
      <trkpt lat="45.51419" lon="4.85606">
        <ele>156.355813</ele>
        <time>2021-09-14T07:42:14.000Z</time>
      </trkpt>
      <trkpt lat="45.51397" lon="4.85565">
        <ele>156.276935</ele>
        <time>2021-09-14T07:42:21.000Z</time>
      </trkpt>
      <trkpt lat="45.51377" lon="4.85516">
        <ele>156.190969</ele>
        <time>2021-09-14T07:42:29.000Z</time>
      </trkpt>
      <trkpt lat="45.51365" lon="4.85487">
        <ele>156.138394</ele>
        <time>2021-09-14T07:42:34.000Z</time>
      </trkpt>
      <trkpt lat="45.5135" lon="4.85452">
        <ele>156.076141</ele>
        <time>2021-09-14T07:42:40.000Z</time>
      </trkpt>
      <trkpt lat="45.51342" lon="4.85434">
        <ele>156.043518</ele>
        <time>2021-09-14T07:42:44.000Z</time>
      </trkpt>
      <trkpt lat="45.51339" lon="4.85427">
        <ele>156.031221</ele>
        <time>2021-09-14T07:42:45.000Z</time>
      </trkpt>
      <trkpt lat="45.51315" lon="4.85377">
        <ele>156.120079</ele>
        <time>2021-09-14T07:42:53.000Z</time>
      </trkpt>
      <trkpt lat="45.51301" lon="4.8535">
        <ele>156.173169</ele>
        <time>2021-09-14T07:42:58.000Z</time>
      </trkpt>
      <trkpt lat="45.51298" lon="4.85344">
        <ele>156.183763</ele>
        <time>2021-09-14T07:42:59.000Z</time>
      </trkpt>
      <trkpt lat="45.51295" lon="4.85339">
        <ele>156.194798</ele>
        <time>2021-09-14T07:43:00.000Z</time>
      </trkpt>
      <trkpt lat="45.51286" lon="4.85329">
        <ele>156.220275</ele>
        <time>2021-09-14T07:43:02.000Z</time>
      </trkpt>
      <trkpt lat="45.5128" lon="4.85327">
        <ele>156.234257</ele>
        <time>2021-09-14T07:43:03.000Z</time>
      </trkpt>
      <trkpt lat="45.51274" lon="4.85327">
        <ele>156.245986</ele>
        <time>2021-09-14T07:43:04.000Z</time>
      </trkpt>
      <trkpt lat="45.51264" lon="4.85332">
        <ele>156.271901</ele>
        <time>2021-09-14T07:43:06.000Z</time>
      </trkpt>
      <trkpt lat="45.51245" lon="4.85345">
        <ele>156.317906</ele>
        <time>2021-09-14T07:43:10.000Z</time>
      </trkpt>
      <trkpt lat="45.51241" lon="4.85347">
        <ele>156.327325</ele>
        <time>2021-09-14T07:43:11.000Z</time>
      </trkpt>
      <trkpt lat="45.51237" lon="4.85345">
        <ele>156.33747</ele>
        <time>2021-09-14T07:43:12.000Z</time>
      </trkpt>
      <trkpt lat="45.51232" lon="4.85338">
        <ele>156.353299</ele>
        <time>2021-09-14T07:43:14.000Z</time>
      </trkpt>
      <trkpt lat="45.51214" lon="4.85312">
        <ele>156.410465</ele>
        <time>2021-09-14T07:43:20.000Z</time>
      </trkpt>
      <trkpt lat="45.51195" lon="4.85296">
        <ele>156.459565</ele>
        <time>2021-09-14T07:43:25.000Z</time>
      </trkpt>
      <trkpt lat="45.51187" lon="4.85287">
        <ele>156.480632</ele>
        <time>2021-09-14T07:43:27.000Z</time>
      </trkpt>
      <trkpt lat="45.5116" lon="4.85252">
        <ele>156.559254</ele>
        <time>2021-09-14T07:43:34.000Z</time>
      </trkpt>
      <trkpt lat="45.51118" lon="4.85196">
        <ele>156.682065</ele>
        <time>2021-09-14T07:43:45.000Z</time>
      </trkpt>
      <trkpt lat="45.51076" lon="4.85141">
        <ele>156.80348</ele>
        <time>2021-09-14T07:43:56.000Z</time>
      </trkpt>
      <trkpt lat="45.51042" lon="4.85096">
        <ele>156.85811</ele>
        <time>2021-09-14T07:44:05.000Z</time>
      </trkpt>
      <trkpt lat="45.51" lon="4.85042">
        <ele>156.915441</ele>
        <time>2021-09-14T07:44:16.000Z</time>
      </trkpt>
      <trkpt lat="45.50966" lon="4.84997">
        <ele>156.96205</ele>
        <time>2021-09-14T07:44:25.000Z</time>
      </trkpt>
      <trkpt lat="45.50926" lon="4.84943">
        <ele>156.979444</ele>
        <time>2021-09-14T07:44:36.000Z</time>
      </trkpt>
      <trkpt lat="45.50893" lon="4.84899">
        <ele>156.930373</ele>
        <time>2021-09-14T07:44:45.000Z</time>
      </trkpt>
      <trkpt lat="45.50858" lon="4.84852">
        <ele>156.878817</ele>
        <time>2021-09-14T07:44:54.000Z</time>
      </trkpt>
      <trkpt lat="45.50821" lon="4.84801">
        <ele>156.822944</ele>
        <time>2021-09-14T07:45:04.000Z</time>
      </trkpt>
      <trkpt lat="45.50793" lon="4.84762">
        <ele>156.773014</ele>
        <time>2021-09-14T07:45:12.000Z</time>
      </trkpt>
      <trkpt lat="45.50757" lon="4.84713">
        <ele>156.701073</ele>
        <time>2021-09-14T07:45:22.000Z</time>
      </trkpt>
      <trkpt lat="45.50732" lon="4.84678">
        <ele>156.649812</ele>
        <time>2021-09-14T07:45:29.000Z</time>
      </trkpt>
      <trkpt lat="45.50695" lon="4.84628">
        <ele>156.576337</ele>
        <time>2021-09-14T07:45:39.000Z</time>
      </trkpt>
      <trkpt lat="45.50667" lon="4.84589">
        <ele>156.540858</ele>
        <time>2021-09-14T07:45:47.000Z</time>
      </trkpt>
      <trkpt lat="45.50634" lon="4.84544">
        <ele>156.53013</ele>
        <time>2021-09-14T07:45:56.000Z</time>
      </trkpt>
      <trkpt lat="45.50597" lon="4.84494">
        <ele>156.518253</ele>
        <time>2021-09-14T07:46:06.000Z</time>
      </trkpt>
      <trkpt lat="45.50564" lon="4.84451">
        <ele>156.507769</ele>
        <time>2021-09-14T07:46:15.000Z</time>
      </trkpt>
      <trkpt lat="45.50536" lon="4.84414">
        <ele>156.525296</ele>
        <time>2021-09-14T07:46:23.000Z</time>
      </trkpt>
      <trkpt lat="45.50513" lon="4.84384">
        <ele>156.567701</ele>
        <time>2021-09-14T07:46:30.000Z</time>
      </trkpt>
      <trkpt lat="45.50479" lon="4.84343">
        <ele>156.628511</ele>
        <time>2021-09-14T07:46:40.000Z</time>
      </trkpt>
      <trkpt lat="45.50446" lon="4.84305">
        <ele>156.685832</ele>
        <time>2021-09-14T07:46:49.000Z</time>
      </trkpt>
      <trkpt lat="45.50406" lon="4.84257">
        <ele>156.735285</ele>
        <time>2021-09-14T07:47:00.000Z</time>
      </trkpt>
      <trkpt lat="45.50373" lon="4.84219">
        <ele>156.665379</ele>
        <time>2021-09-14T07:47:09.000Z</time>
      </trkpt>
      <trkpt lat="45.50348" lon="4.84189">
        <ele>156.611082</ele>
        <time>2021-09-14T07:47:16.000Z</time>
      </trkpt>
      <trkpt lat="45.50331" lon="4.84169">
        <ele>156.575024</ele>
        <time>2021-09-14T07:47:21.000Z</time>
      </trkpt>
      <trkpt lat="45.5032" lon="4.84157">
        <ele>156.55275</ele>
        <time>2021-09-14T07:47:24.000Z</time>
      </trkpt>
      <trkpt lat="45.50289" lon="4.84119">
        <ele>156.484723</ele>
        <time>2021-09-14T07:47:33.000Z</time>
      </trkpt>
      <trkpt lat="45.50252" lon="4.84072">
        <ele>156.38443</ele>
        <time>2021-09-14T07:47:43.000Z</time>
      </trkpt>
      <trkpt lat="45.50221" lon="4.84026">
        <ele>156.278931</ele>
        <time>2021-09-14T07:47:52.000Z</time>
      </trkpt>
      <trkpt lat="45.50191" lon="4.83978">
        <ele>156.172414</ele>
        <time>2021-09-14T07:48:01.000Z</time>
      </trkpt>
      <trkpt lat="45.50161" lon="4.83919">
        <ele>156.053546</ele>
        <time>2021-09-14T07:48:11.000Z</time>
      </trkpt>
      <trkpt lat="45.50154" lon="4.83903">
        <ele>156.013464</ele>
        <time>2021-09-14T07:48:15.000Z</time>
      </trkpt>
      <trkpt lat="45.50151" lon="4.83885">
        <ele>155.951002</ele>
        <time>2021-09-14T07:48:18.000Z</time>
      </trkpt>
      <trkpt lat="45.50152" lon="4.83879">
        <ele>155.929387</ele>
        <time>2021-09-14T07:48:19.000Z</time>
      </trkpt>
      <trkpt lat="45.50156" lon="4.83866">
        <ele>155.882449</ele>
        <time>2021-09-14T07:48:21.000Z</time>
      </trkpt>
      <trkpt lat="45.50165" lon="4.83859">
        <ele>155.832287</ele>
        <time>2021-09-14T07:48:23.000Z</time>
      </trkpt>
      <trkpt lat="45.50178" lon="4.83863">
        <ele>155.769465</ele>
        <time>2021-09-14T07:48:25.000Z</time>
      </trkpt>
      <trkpt lat="45.50183" lon="4.83841">
        <ele>155.689719</ele>
        <time>2021-09-14T07:48:27.000Z</time>
      </trkpt>
      <trkpt lat="45.50185" lon="4.83825">
        <ele>155.633965</ele>
        <time>2021-09-14T07:48:29.000Z</time>
      </trkpt>
      <trkpt lat="45.50183" lon="4.83809">
        <ele>155.581657</ele>
        <time>2021-09-14T07:48:31.000Z</time>
      </trkpt>
      <trkpt lat="45.50174" lon="4.83788">
        <ele>155.495416</ele>
        <time>2021-09-14T07:48:34.000Z</time>
      </trkpt>
      <trkpt lat="45.50152" lon="4.83741">
        <ele>155.305574</ele>
        <time>2021-09-14T07:48:40.000Z</time>
      </trkpt>
      <trkpt lat="45.50133" lon="4.83672">
        <ele>155.055671</ele>
        <time>2021-09-14T07:48:48.000Z</time>
      </trkpt>
      <trkpt lat="45.50113" lon="4.83594">
        <ele>154.783427</ele>
        <time>2021-09-14T07:48:57.000Z</time>
      </trkpt>
      <trkpt lat="45.50093" lon="4.8352">
        <ele>154.525993</ele>
        <time>2021-09-14T07:49:06.000Z</time>
      </trkpt>
      <trkpt lat="45.50077" lon="4.83457">
        <ele>154.317428</ele>
        <time>2021-09-14T07:49:14.000Z</time>
      </trkpt>
      <trkpt lat="45.50065" lon="4.83411">
        <ele>154.298355</ele>
        <time>2021-09-14T07:49:20.000Z</time>
      </trkpt>
      <trkpt lat="45.50061" lon="4.83396">
        <ele>154.292292</ele>
        <time>2021-09-14T07:49:22.000Z</time>
      </trkpt>
      <trkpt lat="45.50058" lon="4.83382">
        <ele>154.286285</ele>
        <time>2021-09-14T07:49:24.000Z</time>
      </trkpt>
      <trkpt lat="45.50048" lon="4.83343">
        <ele>154.270198</ele>
        <time>2021-09-14T07:49:29.000Z</time>
      </trkpt>
      <trkpt lat="45.50035" lon="4.8329">
        <ele>154.248306</ele>
        <time>2021-09-14T07:49:36.000Z</time>
      </trkpt>
      <trkpt lat="45.50021" lon="4.83236">
        <ele>154.225656</ele>
        <time>2021-09-14T07:49:43.000Z</time>
      </trkpt>
      <trkpt lat="45.49999" lon="4.83177">
        <ele>154.103653</ele>
        <time>2021-09-14T07:49:51.000Z</time>
      </trkpt>
      <trkpt lat="45.49977" lon="4.83121">
        <ele>153.953997</ele>
        <time>2021-09-14T07:49:59.000Z</time>
      </trkpt>
      <trkpt lat="45.49945" lon="4.83055">
        <ele>153.767294</ele>
        <time>2021-09-14T07:50:09.000Z</time>
      </trkpt>
      <trkpt lat="45.49921" lon="4.83014">
        <ele>153.642204</ele>
        <time>2021-09-14T07:50:17.000Z</time>
      </trkpt>
      <trkpt lat="45.49889" lon="4.82961">
        <ele>153.615966</ele>
        <time>2021-09-14T07:50:27.000Z</time>
      </trkpt>
      <trkpt lat="45.49857" lon="4.82907">
        <ele>153.610197</ele>
        <time>2021-09-14T07:50:37.000Z</time>
      </trkpt>
      <trkpt lat="45.49824" lon="4.82852">
        <ele>153.604294</ele>
        <time>2021-09-14T07:50:47.000Z</time>
      </trkpt>
      <trkpt lat="45.49793" lon="4.82802">
        <ele>153.609074</ele>
        <time>2021-09-14T07:50:56.000Z</time>
      </trkpt>
      <trkpt lat="45.49762" lon="4.82751">
        <ele>153.652003</ele>
        <time>2021-09-14T07:51:05.000Z</time>
      </trkpt>
      <trkpt lat="45.49729" lon="4.82695">
        <ele>153.6996</ele>
        <time>2021-09-14T07:51:15.000Z</time>
      </trkpt>
      <trkpt lat="45.49702" lon="4.82652">
        <ele>153.736746</ele>
        <time>2021-09-14T07:51:23.000Z</time>
      </trkpt>
      <trkpt lat="45.49673" lon="4.82603">
        <ele>153.844317</ele>
        <time>2021-09-14T07:51:32.000Z</time>
      </trkpt>
      <trkpt lat="45.49667" lon="4.82592">
        <ele>153.899299</ele>
        <time>2021-09-14T07:51:34.000Z</time>
      </trkpt>
      <trkpt lat="45.49669" lon="4.82576">
        <ele>153.962712</ele>
        <time>2021-09-14T07:51:36.000Z</time>
      </trkpt>
      <trkpt lat="45.49672" lon="4.82574">
        <ele>153.982449</ele>
        <time>2021-09-14T07:51:37.000Z</time>
      </trkpt>
      <trkpt lat="45.49686" lon="4.82558">
        <ele>154.078686</ele>
        <time>2021-09-14T07:51:41.000Z</time>
      </trkpt>
      <trkpt lat="45.49689" lon="4.82555">
        <ele>154.103538</ele>
        <time>2021-09-14T07:51:42.000Z</time>
      </trkpt>
      <trkpt lat="45.49726" lon="4.82513">
        <ele>154.369446</ele>
        <time>2021-09-14T07:51:52.000Z</time>
      </trkpt>
      <trkpt lat="45.49748" lon="4.82488">
        <ele>154.524302</ele>
        <time>2021-09-14T07:51:58.000Z</time>
      </trkpt>
      <trkpt lat="45.49757" lon="4.82478">
        <ele>154.589744</ele>
        <time>2021-09-14T07:52:01.000Z</time>
      </trkpt>
      <trkpt lat="45.49765" lon="4.82469">
        <ele>154.642662</ele>
        <time>2021-09-14T07:52:04.000Z</time>
      </trkpt>
      <trkpt lat="45.49764" lon="4.82468">
        <ele>154.651334</ele>
        <time>2021-09-14T07:52:05.000Z</time>
      </trkpt>
      <trkpt lat="45.49752" lon="4.82445">
        <ele>154.763845</ele>
        <time>2021-09-14T07:52:10.000Z</time>
      </trkpt>
      <trkpt lat="45.49746" lon="4.82434">
        <ele>154.789562</ele>
        <time>2021-09-14T07:52:12.000Z</time>
      </trkpt>
      <trkpt lat="45.49732" lon="4.82408">
        <ele>154.843569</ele>
        <time>2021-09-14T07:52:17.000Z</time>
      </trkpt>
      <trkpt lat="45.49708" lon="4.82363">
        <ele>154.933001</ele>
        <time>2021-09-14T07:52:25.000Z</time>
      </trkpt>
      <trkpt lat="45.49689" lon="4.82327">
        <ele>155.006103</ele>
        <time>2021-09-14T07:52:32.000Z</time>
      </trkpt>
      <trkpt lat="45.49668" lon="4.82296">
        <ele>155.076091</ele>
        <time>2021-09-14T07:52:38.000Z</time>
      </trkpt>
      <trkpt lat="45.49639" lon="4.82253">
        <ele>155.171725</ele>
        <time>2021-09-14T07:52:45.000Z</time>
      </trkpt>
      <trkpt lat="45.49635" lon="4.82247">
        <ele>155.184108</ele>
        <time>2021-09-14T07:52:46.000Z</time>
      </trkpt>
      <trkpt lat="45.49615" lon="4.82218">
        <ele>155.077096</ele>
        <time>2021-09-14T07:52:51.000Z</time>
      </trkpt>
      <trkpt lat="45.49587" lon="4.8218">
        <ele>154.930396</ele>
        <time>2021-09-14T07:52:58.000Z</time>
      </trkpt>
      <trkpt lat="45.49554" lon="4.82136">
        <ele>154.759313</ele>
        <time>2021-09-14T07:53:06.000Z</time>
      </trkpt>
      <trkpt lat="45.49521" lon="4.82097">
        <ele>154.59834</ele>
        <time>2021-09-14T07:53:14.000Z</time>
      </trkpt>
      <trkpt lat="45.49487" lon="4.82061">
        <ele>154.448243</ele>
        <time>2021-09-14T07:53:22.000Z</time>
      </trkpt>
      <trkpt lat="45.49448" lon="4.82019">
        <ele>154.295014</ele>
        <time>2021-09-14T07:53:31.000Z</time>
      </trkpt>
      <trkpt lat="45.49409" lon="4.8198">
        <ele>154.146804</ele>
        <time>2021-09-14T07:53:40.000Z</time>
      </trkpt>
      <trkpt lat="45.49405" lon="4.81976">
        <ele>154.132264</ele>
        <time>2021-09-14T07:53:41.000Z</time>
      </trkpt>
      <trkpt lat="45.49394" lon="4.81964">
        <ele>154.088515</ele>
        <time>2021-09-14T07:53:44.000Z</time>
      </trkpt>
      <trkpt lat="45.49376" lon="4.81947">
        <ele>154.020146</ele>
        <time>2021-09-14T07:53:48.000Z</time>
      </trkpt>
      <trkpt lat="45.49368" lon="4.81939">
        <ele>153.989407</ele>
        <time>2021-09-14T07:53:50.000Z</time>
      </trkpt>
      <trkpt lat="45.49339" lon="4.8191">
        <ele>153.845705</ele>
        <time>2021-09-14T07:53:57.000Z</time>
      </trkpt>
      <trkpt lat="45.49335" lon="4.81906">
        <ele>153.821126</ele>
        <time>2021-09-14T07:53:58.000Z</time>
      </trkpt>
      <trkpt lat="45.49325" lon="4.81903">
        <ele>153.768809</ele>
        <time>2021-09-14T07:54:00.000Z</time>
      </trkpt>
      <trkpt lat="45.4931" lon="4.81923">
        <ele>153.672593</ele>
        <time>2021-09-14T07:54:04.000Z</time>
      </trkpt>
      <trkpt lat="45.49299" lon="4.81939">
        <ele>153.592494</ele>
        <time>2021-09-14T07:54:07.000Z</time>
      </trkpt>
      <trkpt lat="45.49291" lon="4.81948">
        <ele>153.543211</ele>
        <time>2021-09-14T07:54:09.000Z</time>
      </trkpt>
      <trkpt lat="45.49284" lon="4.81948">
        <ele>153.510498</ele>
        <time>2021-09-14T07:54:11.000Z</time>
      </trkpt>
      <trkpt lat="45.49275" lon="4.8194">
        <ele>153.458977</ele>
        <time>2021-09-14T07:54:12.000Z</time>
      </trkpt>
      <trkpt lat="45.49266" lon="4.81932">
        <ele>153.408049</ele>
        <time>2021-09-14T07:54:14.000Z</time>
      </trkpt>
      <trkpt lat="45.49249" lon="4.81918">
        <ele>153.31118</ele>
        <time>2021-09-14T07:54:18.000Z</time>
      </trkpt>
      <trkpt lat="45.49223" lon="4.81895">
        <ele>153.161612</ele>
        <time>2021-09-14T07:54:24.000Z</time>
      </trkpt>
      <trkpt lat="45.49192" lon="4.81865">
        <ele>153.045334</ele>
        <time>2021-09-14T07:54:31.000Z</time>
      </trkpt>
      <trkpt lat="45.49178" lon="4.81855">
        <ele>153.027671</ele>
        <time>2021-09-14T07:54:34.000Z</time>
      </trkpt>
      <trkpt lat="45.49163" lon="4.81846">
        <ele>153.009319</ele>
        <time>2021-09-14T07:54:37.000Z</time>
      </trkpt>
      <trkpt lat="45.49128" lon="4.81829">
        <ele>152.966987</ele>
        <time>2021-09-14T07:54:44.000Z</time>
      </trkpt>
      <trkpt lat="45.49109" lon="4.81818">
        <ele>152.943234</ele>
        <time>2021-09-14T07:54:48.000Z</time>
      </trkpt>
      <trkpt lat="45.491" lon="4.81812">
        <ele>152.931813</ele>
        <time>2021-09-14T07:54:50.000Z</time>
      </trkpt>
      <trkpt lat="45.49062" lon="4.81787">
        <ele>152.885169</ele>
        <time>2021-09-14T07:54:58.000Z</time>
      </trkpt>
      <trkpt lat="45.49031" lon="4.81758">
        <ele>152.92097</ele>
        <time>2021-09-14T07:55:05.000Z</time>
      </trkpt>
      <trkpt lat="45.49005" lon="4.81737">
        <ele>153.037079</ele>
        <time>2021-09-14T07:55:11.000Z</time>
      </trkpt>
      <trkpt lat="45.48977" lon="4.81713">
        <ele>153.162589</ele>
        <time>2021-09-14T07:55:18.000Z</time>
      </trkpt>
      <trkpt lat="45.48962" lon="4.81698">
        <ele>153.233156</ele>
        <time>2021-09-14T07:55:22.000Z</time>
      </trkpt>
      <trkpt lat="45.4895" lon="4.81686">
        <ele>153.290772</ele>
        <time>2021-09-14T07:55:25.000Z</time>
      </trkpt>
      <trkpt lat="45.48911" lon="4.81648">
        <ele>153.475778</ele>
        <time>2021-09-14T07:55:34.000Z</time>
      </trkpt>
      <trkpt lat="45.48875" lon="4.81615">
        <ele>153.590086</ele>
        <time>2021-09-14T07:55:42.000Z</time>
      </trkpt>
      <trkpt lat="45.48843" lon="4.81585">
        <ele>153.648767</ele>
        <time>2021-09-14T07:55:49.000Z</time>
      </trkpt>
      <trkpt lat="45.48826" lon="4.81569">
        <ele>153.680198</ele>
        <time>2021-09-14T07:55:53.000Z</time>
      </trkpt>
      <trkpt lat="45.48798" lon="4.81543">
        <ele>153.730766</ele>
        <time>2021-09-14T07:55:59.000Z</time>
      </trkpt>
      <trkpt lat="45.48775" lon="4.81523">
        <ele>153.772894</ele>
        <time>2021-09-14T07:56:04.000Z</time>
      </trkpt>
      <trkpt lat="45.48766" lon="4.81516">
        <ele>153.78877</ele>
        <time>2021-09-14T07:56:06.000Z</time>
      </trkpt>
      <trkpt lat="45.48729" lon="4.81497">
        <ele>153.811322</ele>
        <time>2021-09-14T07:56:13.000Z</time>
      </trkpt>
      <trkpt lat="45.48723" lon="4.81494">
        <ele>153.798661</ele>
        <time>2021-09-14T07:56:14.000Z</time>
      </trkpt>
      <trkpt lat="45.48709" lon="4.81479">
        <ele>153.760513</ele>
        <time>2021-09-14T07:56:17.000Z</time>
      </trkpt>
      <trkpt lat="45.48704" lon="4.81474">
        <ele>153.748081</ele>
        <time>2021-09-14T07:56:18.000Z</time>
      </trkpt>
      <trkpt lat="45.48692" lon="4.81455">
        <ele>153.709806</ele>
        <time>2021-09-14T07:56:21.000Z</time>
      </trkpt>
      <trkpt lat="45.48669" lon="4.81407">
        <ele>153.622462</ele>
        <time>2021-09-14T07:56:28.000Z</time>
      </trkpt>
      <trkpt lat="45.48647" lon="4.81361">
        <ele>153.539752</ele>
        <time>2021-09-14T07:56:35.000Z</time>
      </trkpt>
      <trkpt lat="45.48625" lon="4.81316">
        <ele>153.458019</ele>
        <time>2021-09-14T07:56:42.000Z</time>
      </trkpt>
      <trkpt lat="45.48603" lon="4.81271">
        <ele>153.432703</ele>
        <time>2021-09-14T07:56:49.000Z</time>
      </trkpt>
      <trkpt lat="45.48597" lon="4.81259">
        <ele>153.42701</ele>
        <time>2021-09-14T07:56:51.000Z</time>
      </trkpt>
      <trkpt lat="45.48594" lon="4.81253">
        <ele>153.424343</ele>
        <time>2021-09-14T07:56:53.000Z</time>
      </trkpt>
      <trkpt lat="45.48603" lon="4.81229">
        <ele>153.414308</ele>
        <time>2021-09-14T07:56:55.000Z</time>
      </trkpt>
      <trkpt lat="45.48608" lon="4.81224">
        <ele>153.411202</ele>
        <time>2021-09-14T07:56:56.000Z</time>
      </trkpt>
      <trkpt lat="45.4864" lon="4.81195">
        <ele>153.391442</ele>
        <time>2021-09-14T07:57:03.000Z</time>
      </trkpt>
      <trkpt lat="45.48655" lon="4.81181">
        <ele>153.382105</ele>
        <time>2021-09-14T07:57:05.000Z</time>
      </trkpt>
      <trkpt lat="45.48674" lon="4.81163">
        <ele>153.370236</ele>
        <time>2021-09-14T07:57:09.000Z</time>
      </trkpt>
      <trkpt lat="45.48683" lon="4.81155">
        <ele>153.364642</ele>
        <time>2021-09-14T07:57:11.000Z</time>
      </trkpt>
      <trkpt lat="45.48684" lon="4.81146">
        <ele>153.361306</ele>
        <time>2021-09-14T07:57:12.000Z</time>
      </trkpt>
      <trkpt lat="45.48681" lon="4.81141">
        <ele>153.359119</ele>
        <time>2021-09-14T07:57:13.000Z</time>
      </trkpt>
      <trkpt lat="45.48678" lon="4.81135">
        <ele>153.357191</ele>
        <time>2021-09-14T07:57:15.000Z</time>
      </trkpt>
      <trkpt lat="45.48658" lon="4.81093">
        <ele>153.396711</ele>
        <time>2021-09-14T07:57:21.000Z</time>
      </trkpt>
      <trkpt lat="45.48637" lon="4.81047">
        <ele>153.438579</ele>
        <time>2021-09-14T07:57:28.000Z</time>
      </trkpt>
      <trkpt lat="45.48634" lon="4.81041">
        <ele>153.444809</ele>
        <time>2021-09-14T07:57:29.000Z</time>
      </trkpt>
      <trkpt lat="45.48634" lon="4.81015">
        <ele>153.4643</ele>
        <time>2021-09-14T07:57:32.000Z</time>
      </trkpt>
      <trkpt lat="45.48634" lon="4.80977">
        <ele>153.493688</ele>
        <time>2021-09-14T07:57:37.000Z</time>
      </trkpt>
      <trkpt lat="45.48634" lon="4.8097">
        <ele>153.499064</ele>
        <time>2021-09-14T07:57:38.000Z</time>
      </trkpt>
      <trkpt lat="45.48635" lon="4.80957">
        <ele>153.508989</ele>
        <time>2021-09-14T07:57:40.000Z</time>
      </trkpt>
      <trkpt lat="45.48637" lon="4.80939">
        <ele>153.523276</ele>
        <time>2021-09-14T07:57:43.000Z</time>
      </trkpt>
      <trkpt lat="45.48639" lon="4.80918">
        <ele>153.538946</ele>
        <time>2021-09-14T07:57:46.000Z</time>
      </trkpt>
      <trkpt lat="45.48641" lon="4.80904">
        <ele>153.55042</ele>
        <time>2021-09-14T07:57:48.000Z</time>
      </trkpt>
      <trkpt lat="45.48642" lon="4.80896">
        <ele>153.548732</ele>
        <time>2021-09-14T07:57:49.000Z</time>
      </trkpt>
      <trkpt lat="45.48644" lon="4.80872">
        <ele>153.514488</ele>
        <time>2021-09-14T07:57:52.000Z</time>
      </trkpt>
      <trkpt lat="45.4865" lon="4.80817">
        <ele>153.436757</ele>
        <time>2021-09-14T07:57:59.000Z</time>
      </trkpt>
      <trkpt lat="45.48655" lon="4.80771">
        <ele>153.371012</ele>
        <time>2021-09-14T07:58:05.000Z</time>
      </trkpt>
      <trkpt lat="45.48656" lon="4.80755">
        <ele>153.348136</ele>
        <time>2021-09-14T07:58:07.000Z</time>
      </trkpt>
      <trkpt lat="45.48653" lon="4.80732">
        <ele>153.314715</ele>
        <time>2021-09-14T07:58:10.000Z</time>
      </trkpt>
      <trkpt lat="45.48643" lon="4.80685">
        <ele>153.245549</ele>
        <time>2021-09-14T07:58:16.000Z</time>
      </trkpt>
      <trkpt lat="45.48631" lon="4.80634">
        <ele>153.160341</ele>
        <time>2021-09-14T07:58:22.000Z</time>
      </trkpt>
      <trkpt lat="45.48615" lon="4.80585">
        <ele>153.050749</ele>
        <time>2021-09-14T07:58:28.000Z</time>
      </trkpt>
      <trkpt lat="45.48606" lon="4.8056">
        <ele>152.995953</ele>
        <time>2021-09-14T07:58:31.000Z</time>
      </trkpt>
      <trkpt lat="45.48598" lon="4.80536">
        <ele>152.941212</ele>
        <time>2021-09-14T07:58:34.000Z</time>
      </trkpt>
      <trkpt lat="45.48574" lon="4.80472">
        <ele>152.795988</ele>
        <time>2021-09-14T07:58:42.000Z</time>
      </trkpt>
      <trkpt lat="45.48554" lon="4.80419">
        <ele>152.67493</ele>
        <time>2021-09-14T07:58:49.000Z</time>
      </trkpt>
      <trkpt lat="45.48532" lon="4.8036">
        <ele>152.528995</ele>
        <time>2021-09-14T07:58:57.000Z</time>
      </trkpt>
      <trkpt lat="45.48514" lon="4.80312">
        <ele>152.412617</ele>
        <time>2021-09-14T07:59:04.000Z</time>
      </trkpt>
      <trkpt lat="45.48497" lon="4.80257">
        <ele>152.281135</ele>
        <time>2021-09-14T07:59:12.000Z</time>
      </trkpt>
      <trkpt lat="45.48482" lon="4.80207">
        <ele>152.163059</ele>
        <time>2021-09-14T07:59:19.000Z</time>
      </trkpt>
      <trkpt lat="45.4848" lon="4.802">
        <ele>152.147497</ele>
        <time>2021-09-14T07:59:20.000Z</time>
      </trkpt>
      <trkpt lat="45.48472" lon="4.80173">
        <ele>152.112368</ele>
        <time>2021-09-14T07:59:24.000Z</time>
      </trkpt>
      <trkpt lat="45.48463" lon="4.80143">
        <ele>152.096695</ele>
        <time>2021-09-14T07:59:29.000Z</time>
      </trkpt>
      <trkpt lat="45.48461" lon="4.80136">
        <ele>152.093529</ele>
        <time>2021-09-14T07:59:30.000Z</time>
      </trkpt>
      <trkpt lat="45.48448" lon="4.80102">
        <ele>152.075474</ele>
        <time>2021-09-14T07:59:35.000Z</time>
      </trkpt>
      <trkpt lat="45.48432" lon="4.8006">
        <ele>152.052867</ele>
        <time>2021-09-14T07:59:41.000Z</time>
      </trkpt>
      <trkpt lat="45.48401" lon="4.8">
        <ele>152.018078</ele>
        <time>2021-09-14T07:59:50.000Z</time>
      </trkpt>
      <trkpt lat="45.48367" lon="4.79933">
        <ele>151.988637</ele>
        <time>2021-09-14T08:00:00.000Z</time>
      </trkpt>
      <trkpt lat="45.48342" lon="4.79887">
        <ele>151.973828</ele>
        <time>2021-09-14T08:00:07.000Z</time>
      </trkpt>
      <trkpt lat="45.48332" lon="4.79866">
        <ele>151.967489</ele>
        <time>2021-09-14T08:00:10.000Z</time>
      </trkpt>
      <trkpt lat="45.48329" lon="4.79849">
        <ele>151.962915</ele>
        <time>2021-09-14T08:00:12.000Z</time>
      </trkpt>
      <trkpt lat="45.48328" lon="4.79832">
        <ele>151.958476</ele>
        <time>2021-09-14T08:00:14.000Z</time>
      </trkpt>
      <trkpt lat="45.48329" lon="4.79815">
        <ele>151.954037</ele>
        <time>2021-09-14T08:00:16.000Z</time>
      </trkpt>
      <trkpt lat="45.48336" lon="4.79738">
        <ele>151.935325</ele>
        <time>2021-09-14T08:00:25.000Z</time>
      </trkpt>
      <trkpt lat="45.48337" lon="4.79729">
        <ele>151.948845</ele>
        <time>2021-09-14T08:00:26.000Z</time>
      </trkpt>
      <trkpt lat="45.48344" lon="4.79656">
        <ele>152.066582</ele>
        <time>2021-09-14T08:00:35.000Z</time>
      </trkpt>
      <trkpt lat="45.48354" lon="4.79593">
        <ele>152.169447</ele>
        <time>2021-09-14T08:00:43.000Z</time>
      </trkpt>
      <trkpt lat="45.4837" lon="4.79527">
        <ele>152.281214</ele>
        <time>2021-09-14T08:00:52.000Z</time>
      </trkpt>
      <trkpt lat="45.48378" lon="4.79478">
        <ele>152.378678</ele>
        <time>2021-09-14T08:00:59.000Z</time>
      </trkpt>
      <trkpt lat="45.48378" lon="4.79464">
        <ele>152.421601</ele>
        <time>2021-09-14T08:01:01.000Z</time>
      </trkpt>
      <trkpt lat="45.48375" lon="4.7945">
        <ele>152.467596</ele>
        <time>2021-09-14T08:01:03.000Z</time>
      </trkpt>
      <trkpt lat="45.48369" lon="4.79422">
        <ele>152.560782</ele>
        <time>2021-09-14T08:01:07.000Z</time>
      </trkpt>
      <trkpt lat="45.48366" lon="4.79406">
        <ele>152.611403</ele>
        <time>2021-09-14T08:01:09.000Z</time>
      </trkpt>
      <trkpt lat="45.48358" lon="4.79369">
        <ele>152.735403</ele>
        <time>2021-09-14T08:01:14.000Z</time>
      </trkpt>
      <trkpt lat="45.48346" lon="4.7931">
        <ele>152.925282</ele>
        <time>2021-09-14T08:01:22.000Z</time>
      </trkpt>
      <trkpt lat="45.48334" lon="4.79255">
        <ele>153.107146</ele>
        <time>2021-09-14T08:01:30.000Z</time>
      </trkpt>
      <trkpt lat="45.48326" lon="4.79214">
        <ele>153.211065</ele>
        <time>2021-09-14T08:01:36.000Z</time>
      </trkpt>
      <trkpt lat="45.48321" lon="4.79161">
        <ele>153.323972</ele>
        <time>2021-09-14T08:01:43.000Z</time>
      </trkpt>
      <trkpt lat="45.48313" lon="4.79081">
        <ele>153.496544</ele>
        <time>2021-09-14T08:01:53.000Z</time>
      </trkpt>
      <trkpt lat="45.48307" lon="4.7902">
        <ele>153.628592</ele>
        <time>2021-09-14T08:02:01.000Z</time>
      </trkpt>
      <trkpt lat="45.48302" lon="4.7896">
        <ele>153.624888</ele>
        <time>2021-09-14T08:02:09.000Z</time>
      </trkpt>
      <trkpt lat="45.48292" lon="4.78916">
        <ele>153.516603</ele>
        <time>2021-09-14T08:02:15.000Z</time>
      </trkpt>
      <trkpt lat="45.48281" lon="4.78875">
        <ele>153.413903</ele>
        <time>2021-09-14T08:02:21.000Z</time>
      </trkpt>
      <trkpt lat="45.48269" lon="4.7887">
        <ele>153.3716</ele>
        <time>2021-09-14T08:02:23.000Z</time>
      </trkpt>
      <trkpt lat="45.48264" lon="4.78869">
        <ele>153.353067</ele>
        <time>2021-09-14T08:02:24.000Z</time>
      </trkpt>
      <trkpt lat="45.48258" lon="4.78869">
        <ele>153.334175</ele>
        <time>2021-09-14T08:02:25.000Z</time>
      </trkpt>
      <trkpt lat="45.48231" lon="4.78864">
        <ele>153.241793</ele>
        <time>2021-09-14T08:02:30.000Z</time>
      </trkpt>
      <trkpt lat="45.48211" lon="4.78862">
        <ele>153.174134</ele>
        <time>2021-09-14T08:02:34.000Z</time>
      </trkpt>
      <trkpt lat="45.48154" lon="4.78855">
        <ele>152.903929</ele>
        <time>2021-09-14T08:02:40.000Z</time>
      </trkpt>
      <trkpt lat="45.48138" lon="4.78852">
        <ele>152.814514</ele>
        <time>2021-09-14T08:02:42.000Z</time>
      </trkpt>
      <trkpt lat="45.48089" lon="4.78838">
        <ele>152.522891</ele>
        <time>2021-09-14T08:02:49.000Z</time>
      </trkpt>
      <trkpt lat="45.48064" lon="4.78831">
        <ele>152.374412</ele>
        <time>2021-09-14T08:02:53.000Z</time>
      </trkpt>
      <trkpt lat="45.48058" lon="4.7883">
        <ele>152.344407</ele>
        <time>2021-09-14T08:02:54.000Z</time>
      </trkpt>
      <trkpt lat="45.48058" lon="4.78819">
        <ele>152.301465</ele>
        <time>2021-09-14T08:02:55.000Z</time>
      </trkpt>
      <trkpt lat="45.4806" lon="4.78811">
        <ele>152.267806</ele>
        <time>2021-09-14T08:02:56.000Z</time>
      </trkpt>
      <trkpt lat="45.48072" lon="4.78756">
        <ele>152.046899</ele>
        <time>2021-09-14T08:03:03.000Z</time>
      </trkpt>
      <trkpt lat="45.48077" lon="4.787">
        <ele>151.976143</ele>
        <time>2021-09-14T08:03:10.000Z</time>
      </trkpt>
      <trkpt lat="45.4807" lon="4.78661">
        <ele>151.926658</ele>
        <time>2021-09-14T08:03:15.000Z</time>
      </trkpt>
      <trkpt lat="45.48068" lon="4.78653">
        <ele>151.916279</ele>
        <time>2021-09-14T08:03:16.000Z</time>
      </trkpt>
      <trkpt lat="45.48061" lon="4.78623">
        <ele>151.877405</ele>
        <time>2021-09-14T08:03:20.000Z</time>
      </trkpt>
      <trkpt lat="45.48057" lon="4.7861">
        <ele>151.859785</ele>
        <time>2021-09-14T08:03:22.000Z</time>
      </trkpt>
      <trkpt lat="45.48055" lon="4.78603">
        <ele>151.850319</ele>
        <time>2021-09-14T08:03:23.000Z</time>
      </trkpt>
      <trkpt lat="45.48046" lon="4.78578">
        <ele>151.815302</ele>
        <time>2021-09-14T08:03:26.000Z</time>
      </trkpt>
      <trkpt lat="45.48043" lon="4.78569">
        <ele>151.803667</ele>
        <time>2021-09-14T08:03:27.000Z</time>
      </trkpt>
      <trkpt lat="45.48036" lon="4.78555">
        <ele>151.78133</ele>
        <time>2021-09-14T08:03:29.000Z</time>
      </trkpt>
      <trkpt lat="45.48031" lon="4.78549">
        <ele>151.770258</ele>
        <time>2021-09-14T08:03:30.000Z</time>
      </trkpt>
      <trkpt lat="45.48006" lon="4.7851">
        <ele>151.673825</ele>
        <time>2021-09-14T08:03:36.000Z</time>
      </trkpt>
      <trkpt lat="45.47967" lon="4.78452">
        <ele>151.474985</ele>
        <time>2021-09-14T08:03:45.000Z</time>
      </trkpt>
      <trkpt lat="45.47963" lon="4.78446">
        <ele>151.451795</ele>
        <time>2021-09-14T08:03:46.000Z</time>
      </trkpt>
      <trkpt lat="45.47946" lon="4.78429">
        <ele>151.379231</ele>
        <time>2021-09-14T08:03:50.000Z</time>
      </trkpt>
      <trkpt lat="45.47944" lon="4.7842">
        <ele>151.356233</ele>
        <time>2021-09-14T08:03:52.000Z</time>
      </trkpt>
      <trkpt lat="45.47956" lon="4.78398">
        <ele>151.285603</ele>
        <time>2021-09-14T08:03:57.000Z</time>
      </trkpt>
      <trkpt lat="45.47957" lon="4.78396">
        <ele>151.279664</ele>
        <time>2021-09-14T08:03:58.000Z</time>
      </trkpt>
      <trkpt lat="45.47957" lon="4.78396">
        <ele>151.279664</ele>
        <time>2021-09-14T08:04:00.000Z</time>
      </trkpt>
      <trkpt lat="45.47957" lon="4.78381">
        <ele>151.24286</ele>
        <time>2021-09-14T08:04:02.000Z</time>
      </trkpt>
      <trkpt lat="45.47958" lon="4.78375">
        <ele>151.228345</ele>
        <time>2021-09-14T08:04:03.000Z</time>
      </trkpt>
      <trkpt lat="45.47957" lon="4.78362">
        <ele>151.196094</ele>
        <time>2021-09-14T08:04:05.000Z</time>
      </trkpt>
      <trkpt lat="45.47956" lon="4.78356">
        <ele>151.179705</ele>
        <time>2021-09-14T08:04:07.000Z</time>
      </trkpt>
      <trkpt lat="45.47955" lon="4.78345">
        <ele>151.151715</ele>
        <time>2021-09-14T08:04:08.000Z</time>
      </trkpt>
      <trkpt lat="45.4794" lon="4.78316">
        <ele>151.230219</ele>
        <time>2021-09-14T08:04:12.000Z</time>
      </trkpt>
      <trkpt lat="45.47936" lon="4.7831">
        <ele>151.312544</ele>
        <time>2021-09-14T08:04:13.000Z</time>
      </trkpt>
      <trkpt lat="45.47928" lon="4.78301">
        <ele>151.464606</ele>
        <time>2021-09-14T08:04:15.000Z</time>
      </trkpt>
      <trkpt lat="45.47914" lon="4.78289">
        <ele>151.72216</ele>
        <time>2021-09-14T08:04:18.000Z</time>
      </trkpt>
      <trkpt lat="45.47908" lon="4.78287">
        <ele>151.808468</ele>
        <time>2021-09-14T08:04:19.000Z</time>
      </trkpt>
      <trkpt lat="45.47903" lon="4.78285">
        <ele>151.893579</ele>
        <time>2021-09-14T08:04:20.000Z</time>
      </trkpt>
      <trkpt lat="45.47887" lon="4.78278">
        <ele>152.139356</ele>
        <time>2021-09-14T08:04:23.000Z</time>
      </trkpt>
      <trkpt lat="45.47883" lon="4.78274">
        <ele>152.216743</ele>
        <time>2021-09-14T08:04:24.000Z</time>
      </trkpt>
      <trkpt lat="45.47874" lon="4.78264">
        <ele>152.391314</ele>
        <time>2021-09-14T08:04:26.000Z</time>
      </trkpt>
      <trkpt lat="45.47866" lon="4.78256">
        <ele>152.539888</ele>
        <time>2021-09-14T08:04:28.000Z</time>
      </trkpt>
      <trkpt lat="45.47854" lon="4.78244">
        <ele>152.760889</ele>
        <time>2021-09-14T08:04:31.000Z</time>
      </trkpt>
      <trkpt lat="45.47849" lon="4.7824">
        <ele>152.854294</ele>
        <time>2021-09-14T08:04:32.000Z</time>
      </trkpt>
      <trkpt lat="45.47842" lon="4.78236">
        <ele>152.959594</ele>
        <time>2021-09-14T08:04:33.000Z</time>
      </trkpt>
      <trkpt lat="45.47821" lon="4.78231">
        <ele>153.280701</ele>
        <time>2021-09-14T08:04:36.000Z</time>
      </trkpt>
      <trkpt lat="45.47815" lon="4.7823">
        <ele>153.382013</ele>
        <time>2021-09-14T08:04:37.000Z</time>
      </trkpt>
      <trkpt lat="45.47802" lon="4.78227">
        <ele>153.584637</ele>
        <time>2021-09-14T08:04:39.000Z</time>
      </trkpt>
      <trkpt lat="45.47795" lon="4.78226">
        <ele>153.69212</ele>
        <time>2021-09-14T08:04:40.000Z</time>
      </trkpt>
      <trkpt lat="45.47763" lon="4.78213">
        <ele>153.911359</ele>
        <time>2021-09-14T08:04:45.000Z</time>
      </trkpt>
      <trkpt lat="45.47727" lon="4.78197">
        <ele>154.045716</ele>
        <time>2021-09-14T08:04:51.000Z</time>
      </trkpt>
      <trkpt lat="45.47678" lon="4.78187">
        <ele>154.219044</ele>
        <time>2021-09-14T08:04:59.000Z</time>
      </trkpt>
      <trkpt lat="45.47673" lon="4.78183">
        <ele>154.23934</ele>
        <time>2021-09-14T08:05:00.000Z</time>
      </trkpt>
      <trkpt lat="45.47666" lon="4.7817">
        <ele>154.277798</ele>
        <time>2021-09-14T08:05:02.000Z</time>
      </trkpt>
      <trkpt lat="45.47668" lon="4.78144">
        <ele>154.342779</ele>
        <time>2021-09-14T08:05:05.000Z</time>
      </trkpt>
      <trkpt lat="45.47668" lon="4.78104">
        <ele>154.441842</ele>
        <time>2021-09-14T08:05:10.000Z</time>
      </trkpt>
      <trkpt lat="45.47665" lon="4.78097">
        <ele>154.457697</ele>
        <time>2021-09-14T08:05:11.000Z</time>
      </trkpt>
      <trkpt lat="45.4766" lon="4.78094">
        <ele>154.437528</ele>
        <time>2021-09-14T08:05:12.000Z</time>
      </trkpt>
      <trkpt lat="45.47649" lon="4.78085">
        <ele>154.390971</ele>
        <time>2021-09-14T08:05:14.000Z</time>
      </trkpt>
      <trkpt lat="45.47634" lon="4.78073">
        <ele>154.331538</ele>
        <time>2021-09-14T08:05:17.000Z</time>
      </trkpt>
      <trkpt lat="45.4762" lon="4.78063">
        <ele>154.272385</ele>
        <time>2021-09-14T08:05:20.000Z</time>
      </trkpt>
      <trkpt lat="45.47614" lon="4.78058">
        <ele>154.24755</ele>
        <time>2021-09-14T08:05:21.000Z</time>
      </trkpt>
      <trkpt lat="45.47582" lon="4.78034">
        <ele>154.116083</ele>
        <time>2021-09-14T08:05:27.000Z</time>
      </trkpt>
      <trkpt lat="45.47564" lon="4.78026">
        <ele>154.047518</ele>
        <time>2021-09-14T08:05:31.000Z</time>
      </trkpt>
      <trkpt lat="45.47559" lon="4.78024">
        <ele>154.032078</ele>
        <time>2021-09-14T08:05:33.000Z</time>
      </trkpt>
      <trkpt lat="45.47544" lon="4.78015">
        <ele>153.973133</ele>
        <time>2021-09-14T08:05:38.000Z</time>
      </trkpt>
      <trkpt lat="45.47536" lon="4.78008">
        <ele>153.938136</ele>
        <time>2021-09-14T08:05:41.000Z</time>
      </trkpt>
      <trkpt lat="45.47522" lon="4.77998">
        <ele>153.882214</ele>
        <time>2021-09-14T08:05:45.000Z</time>
      </trkpt>
      <trkpt lat="45.47505" lon="4.77985">
        <ele>153.812022</ele>
        <time>2021-09-14T08:05:49.000Z</time>
      </trkpt>
      <trkpt lat="45.47487" lon="4.77971">
        <ele>153.970157</ele>
        <time>2021-09-14T08:05:53.000Z</time>
      </trkpt>
      <trkpt lat="45.47471" lon="4.77959">
        <ele>154.118983</ele>
        <time>2021-09-14T08:05:56.000Z</time>
      </trkpt>
      <trkpt lat="45.4746" lon="4.77951">
        <ele>154.221677</ele>
        <time>2021-09-14T08:05:59.000Z</time>
      </trkpt>
      <trkpt lat="45.47453" lon="4.77946">
        <ele>154.286158</ele>
        <time>2021-09-14T08:06:01.000Z</time>
      </trkpt>
      <trkpt lat="45.47443" lon="4.77939">
        <ele>154.378683</ele>
        <time>2021-09-14T08:06:03.000Z</time>
      </trkpt>
      <trkpt lat="45.4743" lon="4.7793">
        <ele>154.496981</ele>
        <time>2021-09-14T08:06:07.000Z</time>
      </trkpt>
      <trkpt lat="45.47413" lon="4.77921">
        <ele>154.647361</ele>
        <time>2021-09-14T08:06:12.000Z</time>
      </trkpt>
      <trkpt lat="45.47398" lon="4.77913">
        <ele>154.777365</ele>
        <time>2021-09-14T08:06:16.000Z</time>
      </trkpt>
      <trkpt lat="45.47385" lon="4.77906">
        <ele>154.889505</ele>
        <time>2021-09-14T08:06:19.000Z</time>
      </trkpt>
      <trkpt lat="45.47366" lon="4.77895">
        <ele>155.063962</ele>
        <time>2021-09-14T08:06:24.000Z</time>
      </trkpt>
      <trkpt lat="45.47358" lon="4.77891">
        <ele>155.130104</ele>
        <time>2021-09-14T08:06:26.000Z</time>
      </trkpt>
      <trkpt lat="45.47353" lon="4.77889">
        <ele>155.170846</ele>
        <time>2021-09-14T08:06:27.000Z</time>
      </trkpt>
      <trkpt lat="45.47339" lon="4.77882">
        <ele>155.304037</ele>
        <time>2021-09-14T08:06:32.000Z</time>
      </trkpt>
      <trkpt lat="45.47334" lon="4.7788">
        <ele>155.363747</ele>
        <time>2021-09-14T08:06:33.000Z</time>
      </trkpt>
      <trkpt lat="45.47318" lon="4.77872">
        <ele>155.57734</ele>
        <time>2021-09-14T08:06:36.000Z</time>
      </trkpt>
      <trkpt lat="45.47302" lon="4.77865">
        <ele>155.787062</ele>
        <time>2021-09-14T08:06:39.000Z</time>
      </trkpt>
      <trkpt lat="45.47292" lon="4.7786">
        <ele>155.916897</ele>
        <time>2021-09-14T08:06:41.000Z</time>
      </trkpt>
      <trkpt lat="45.47288" lon="4.77858">
        <ele>155.978082</ele>
        <time>2021-09-14T08:06:42.000Z</time>
      </trkpt>
      <trkpt lat="45.47275" lon="4.7785">
        <ele>156.158067</ele>
        <time>2021-09-14T08:06:45.000Z</time>
      </trkpt>
      <trkpt lat="45.47269" lon="4.77845">
        <ele>156.241625</ele>
        <time>2021-09-14T08:06:47.000Z</time>
      </trkpt>
      <trkpt lat="45.47264" lon="4.77842">
        <ele>156.305847</ele>
        <time>2021-09-14T08:06:48.000Z</time>
      </trkpt>
      <trkpt lat="45.47262" lon="4.77841">
        <ele>156.335466</ele>
        <time>2021-09-14T08:06:49.000Z</time>
      </trkpt>
      <trkpt lat="45.47257" lon="4.77836">
        <ele>156.414851</ele>
        <time>2021-09-14T08:06:51.000Z</time>
      </trkpt>
      <trkpt lat="45.47245" lon="4.77828">
        <ele>156.576672</ele>
        <time>2021-09-14T08:06:55.000Z</time>
      </trkpt>
      <trkpt lat="45.4723" lon="4.77817">
        <ele>156.790907</ele>
        <time>2021-09-14T08:07:00.000Z</time>
      </trkpt>
      <trkpt lat="45.47218" lon="4.77808">
        <ele>156.959954</ele>
        <time>2021-09-14T08:07:04.000Z</time>
      </trkpt>
      <trkpt lat="45.47204" lon="4.77798">
        <ele>157.162079</ele>
        <time>2021-09-14T08:07:09.000Z</time>
      </trkpt>
      <trkpt lat="45.47195" lon="4.77791">
        <ele>157.285531</ele>
        <time>2021-09-14T08:07:13.000Z</time>
      </trkpt>
      <trkpt lat="45.47189" lon="4.77787">
        <ele>157.370214</ele>
        <time>2021-09-14T08:07:15.000Z</time>
      </trkpt>
      <trkpt lat="45.47185" lon="4.77783">
        <ele>157.435553</ele>
        <time>2021-09-14T08:07:17.000Z</time>
      </trkpt>
      <trkpt lat="45.47178" lon="4.77779">
        <ele>157.525541</ele>
        <time>2021-09-14T08:07:21.000Z</time>
      </trkpt>
      <trkpt lat="45.4716" lon="4.77768">
        <ele>157.497305</ele>
        <time>2021-09-14T08:07:26.000Z</time>
      </trkpt>
      <trkpt lat="45.47151" lon="4.77764">
        <ele>157.464672</ele>
        <time>2021-09-14T08:07:28.000Z</time>
      </trkpt>
      <trkpt lat="45.47144" lon="4.7776">
        <ele>157.438566</ele>
        <time>2021-09-14T08:07:30.000Z</time>
      </trkpt>
      <trkpt lat="45.47136" lon="4.77754">
        <ele>157.408584</ele>
        <time>2021-09-14T08:07:31.000Z</time>
      </trkpt>
      <trkpt lat="45.4711" lon="4.77765">
        <ele>157.313827</ele>
        <time>2021-09-14T08:07:36.000Z</time>
      </trkpt>
      <trkpt lat="45.47091" lon="4.77778">
        <ele>157.240275</ele>
        <time>2021-09-14T08:07:40.000Z</time>
      </trkpt>
      <trkpt lat="45.47089" lon="4.77779">
        <ele>157.232605</ele>
        <time>2021-09-14T08:07:41.000Z</time>
      </trkpt>
      <trkpt lat="45.47085" lon="4.77777">
        <ele>157.220936</ele>
        <time>2021-09-14T08:07:43.000Z</time>
      </trkpt>
      <trkpt lat="45.47079" lon="4.77764">
        <ele>157.182944</ele>
        <time>2021-09-14T08:07:48.000Z</time>
      </trkpt>
      <trkpt lat="45.47075" lon="4.77756">
        <ele>157.157678</ele>
        <time>2021-09-14T08:07:51.000Z</time>
      </trkpt>
      <trkpt lat="45.47073" lon="4.77753">
        <ele>157.149921</ele>
        <time>2021-09-14T08:07:53.000Z</time>
      </trkpt>
      <trkpt lat="45.4706" lon="4.77755">
        <ele>157.104278</ele>
        <time>2021-09-14T08:07:56.000Z</time>
      </trkpt>
      <trkpt lat="45.47053" lon="4.77764">
        <ele>157.069787</ele>
        <time>2021-09-14T08:07:58.000Z</time>
      </trkpt>
      <trkpt lat="45.47048" lon="4.77769">
        <ele>157.049989</ele>
        <time>2021-09-14T08:07:59.000Z</time>
      </trkpt>
      <trkpt lat="45.47044" lon="4.77775">
        <ele>157.02977</ele>
        <time>2021-09-14T08:08:00.000Z</time>
      </trkpt>
      <trkpt lat="45.47026" lon="4.77795">
        <ele>156.951999</ele>
        <time>2021-09-14T08:08:04.000Z</time>
      </trkpt>
      <trkpt lat="45.47023" lon="4.778">
        <ele>156.935041</ele>
        <time>2021-09-14T08:08:06.000Z</time>
      </trkpt>
      <trkpt lat="45.47015" lon="4.77809">
        <ele>156.75615</ele>
        <time>2021-09-14T08:08:07.000Z</time>
      </trkpt>
      <trkpt lat="45.47011" lon="4.77814">
        <ele>156.661482</ele>
        <time>2021-09-14T08:08:08.000Z</time>
      </trkpt>
      <trkpt lat="45.47003" lon="4.77824">
        <ele>156.475981</ele>
        <time>2021-09-14T08:08:10.000Z</time>
      </trkpt>
      <trkpt lat="45.46981" lon="4.77857">
        <ele>155.908609</ele>
        <time>2021-09-14T08:08:16.000Z</time>
      </trkpt>
      <trkpt lat="45.46973" lon="4.77859">
        <ele>155.769121</ele>
        <time>2021-09-14T08:08:17.000Z</time>
      </trkpt>
      <trkpt lat="45.46963" lon="4.77861">
        <ele>155.574567</ele>
        <time>2021-09-14T08:08:19.000Z</time>
      </trkpt>
      <trkpt lat="45.46928" lon="4.77867">
        <ele>154.955104</ele>
        <time>2021-09-14T08:08:25.000Z</time>
      </trkpt>
      <trkpt lat="45.46869" lon="4.77877">
        <ele>153.908828</ele>
        <time>2021-09-14T08:08:34.000Z</time>
      </trkpt>
      <trkpt lat="45.46863" lon="4.77878">
        <ele>153.798197</ele>
        <time>2021-09-14T08:08:35.000Z</time>
      </trkpt>
      <trkpt lat="45.46827" lon="4.77884">
        <ele>153.457707</ele>
        <time>2021-09-14T08:08:41.000Z</time>
      </trkpt>
      <trkpt lat="45.46785" lon="4.77891">
        <ele>153.104999</ele>
        <time>2021-09-14T08:08:48.000Z</time>
      </trkpt>
      <trkpt lat="45.46758" lon="4.77896">
        <ele>152.868168</ele>
        <time>2021-09-14T08:08:53.000Z</time>
      </trkpt>
      <trkpt lat="45.46747" lon="4.77894">
        <ele>152.778168</ele>
        <time>2021-09-14T08:08:56.000Z</time>
      </trkpt>
      <trkpt lat="45.46744" lon="4.77892">
        <ele>152.748851</ele>
        <time>2021-09-14T08:08:57.000Z</time>
      </trkpt>
      <trkpt lat="45.4673" lon="4.7788">
        <ele>152.606404</ele>
        <time>2021-09-14T08:09:01.000Z</time>
      </trkpt>
      <trkpt lat="45.4672" lon="4.77872">
        <ele>152.509257</ele>
        <time>2021-09-14T08:09:03.000Z</time>
      </trkpt>
      <trkpt lat="45.46711" lon="4.77865">
        <ele>152.425446</ele>
        <time>2021-09-14T08:09:05.000Z</time>
      </trkpt>
      <trkpt lat="45.46699" lon="4.77847">
        <ele>152.277434</ele>
        <time>2021-09-14T08:09:09.000Z</time>
      </trkpt>
      <trkpt lat="45.46685" lon="4.77826">
        <ele>152.164813</ele>
        <time>2021-09-14T08:09:13.000Z</time>
      </trkpt>
      <trkpt lat="45.46653" lon="4.77777">
        <ele>151.989016</ele>
        <time>2021-09-14T08:09:20.000Z</time>
      </trkpt>
      <trkpt lat="45.46619" lon="4.77736">
        <ele>151.822733</ele>
        <time>2021-09-14T08:09:28.000Z</time>
      </trkpt>
      <trkpt lat="45.46606" lon="4.7772">
        <ele>151.761244</ele>
        <time>2021-09-14T08:09:31.000Z</time>
      </trkpt>
      <trkpt lat="45.46595" lon="4.77716">
        <ele>151.719194</ele>
        <time>2021-09-14T08:09:33.000Z</time>
      </trkpt>
      <trkpt lat="45.46591" lon="4.77722">
        <ele>151.699968</ele>
        <time>2021-09-14T08:09:35.000Z</time>
      </trkpt>
      <trkpt lat="45.46588" lon="4.77727">
        <ele>151.679476</ele>
        <time>2021-09-14T08:09:36.000Z</time>
      </trkpt>
      <trkpt lat="45.46576" lon="4.77745">
        <ele>151.617744</ele>
        <time>2021-09-14T08:09:38.000Z</time>
      </trkpt>
      <trkpt lat="45.46561" lon="4.77767">
        <ele>151.537974</ele>
        <time>2021-09-14T08:09:42.000Z</time>
      </trkpt>
      <trkpt lat="45.46529" lon="4.77815">
        <ele>151.363092</ele>
        <time>2021-09-14T08:09:51.000Z</time>
      </trkpt>
      <trkpt lat="45.46507" lon="4.77848">
        <ele>151.247684</ele>
        <time>2021-09-14T08:09:58.000Z</time>
      </trkpt>
      <trkpt lat="45.465" lon="4.77858">
        <ele>151.211675</ele>
        <time>2021-09-14T08:09:59.000Z</time>
      </trkpt>
      <trkpt lat="45.46497" lon="4.77863">
        <ele>151.193637</ele>
        <time>2021-09-14T08:10:00.000Z</time>
      </trkpt>
      <trkpt lat="45.46493" lon="4.77875">
        <ele>151.157343</ele>
        <time>2021-09-14T08:10:02.000Z</time>
      </trkpt>
      <trkpt lat="45.46492" lon="4.77883">
        <ele>151.13738</ele>
        <time>2021-09-14T08:10:03.000Z</time>
      </trkpt>
      <trkpt lat="45.46487" lon="4.77925">
        <ele>151.026783</ele>
        <time>2021-09-14T08:10:09.000Z</time>
      </trkpt>
      <trkpt lat="45.46485" lon="4.77937">
        <ele>150.994702</ele>
        <time>2021-09-14T08:10:11.000Z</time>
      </trkpt>
      <trkpt lat="45.4648" lon="4.7794">
        <ele>150.973392</ele>
        <time>2021-09-14T08:10:12.000Z</time>
      </trkpt>
      <trkpt lat="45.46471" lon="4.77941">
        <ele>150.941178</ele>
        <time>2021-09-14T08:10:14.000Z</time>
      </trkpt>
      <trkpt lat="45.46461" lon="4.77942">
        <ele>150.904137</ele>
        <time>2021-09-14T08:10:16.000Z</time>
      </trkpt>
      <trkpt lat="45.46451" lon="4.77941">
        <ele>150.872286</ele>
        <time>2021-09-14T08:10:18.000Z</time>
      </trkpt>
      <trkpt lat="45.46413" lon="4.77925">
        <ele>150.791003</ele>
        <time>2021-09-14T08:10:25.000Z</time>
      </trkpt>
      <trkpt lat="45.46382" lon="4.77919">
        <ele>150.726154</ele>
        <time>2021-09-14T08:10:31.000Z</time>
      </trkpt>
      <trkpt lat="45.46351" lon="4.77901">
        <ele>150.656188</ele>
        <time>2021-09-14T08:10:37.000Z</time>
      </trkpt>
      <trkpt lat="45.46299" lon="4.77872">
        <ele>150.539917</ele>
        <time>2021-09-14T08:10:47.000Z</time>
      </trkpt>
      <trkpt lat="45.46267" lon="4.77847">
        <ele>150.44794</ele>
        <time>2021-09-14T08:10:54.000Z</time>
      </trkpt>
      <trkpt lat="45.46236" lon="4.77817">
        <ele>150.341241</ele>
        <time>2021-09-14T08:11:01.000Z</time>
      </trkpt>
      <trkpt lat="45.46198" lon="4.77779">
        <ele>150.210942</ele>
        <time>2021-09-14T08:11:09.000Z</time>
      </trkpt>
      <trkpt lat="45.46161" lon="4.77744">
        <ele>150.084867</ele>
        <time>2021-09-14T08:11:17.000Z</time>
      </trkpt>
      <trkpt lat="45.46133" lon="4.77718">
        <ele>149.995077</ele>
        <time>2021-09-14T08:11:23.000Z</time>
      </trkpt>
      <trkpt lat="45.46089" lon="4.77687">
        <ele>149.930431</ele>
        <time>2021-09-14T08:11:32.000Z</time>
      </trkpt>
      <trkpt lat="45.4606" lon="4.77666">
        <ele>149.887917</ele>
        <time>2021-09-14T08:11:38.000Z</time>
      </trkpt>
      <trkpt lat="45.46051" lon="4.77658">
        <ele>149.874143</ele>
        <time>2021-09-14T08:11:40.000Z</time>
      </trkpt>
      <trkpt lat="45.46048" lon="4.7765">
        <ele>149.865557</ele>
        <time>2021-09-14T08:11:41.000Z</time>
      </trkpt>
      <trkpt lat="45.46046" lon="4.77642">
        <ele>149.858217</ele>
        <time>2021-09-14T08:11:42.000Z</time>
      </trkpt>
      <trkpt lat="45.46041" lon="4.77617">
        <ele>149.834854</ele>
        <time>2021-09-14T08:11:45.000Z</time>
      </trkpt>
      <trkpt lat="45.46036" lon="4.77563">
        <ele>149.784595</ele>
        <time>2021-09-14T08:11:52.000Z</time>
      </trkpt>
      <trkpt lat="45.46032" lon="4.77519">
        <ele>149.71545</ele>
        <time>2021-09-14T08:11:58.000Z</time>
      </trkpt>
      <trkpt lat="45.46029" lon="4.77505">
        <ele>149.680498</ele>
        <time>2021-09-14T08:12:00.000Z</time>
      </trkpt>
      <trkpt lat="45.46013" lon="4.77447">
        <ele>149.537776</ele>
        <time>2021-09-14T08:12:08.000Z</time>
      </trkpt>
      <trkpt lat="45.46" lon="4.77413">
        <ele>149.451181</ele>
        <time>2021-09-14T08:12:13.000Z</time>
      </trkpt>
      <trkpt lat="45.4599" lon="4.77387">
        <ele>149.381706</ele>
        <time>2021-09-14T08:12:17.000Z</time>
      </trkpt>
      <trkpt lat="45.45984" lon="4.77374">
        <ele>149.346969</ele>
        <time>2021-09-14T08:12:19.000Z</time>
      </trkpt>
      <trkpt lat="45.45966" lon="4.77323">
        <ele>149.216739</ele>
        <time>2021-09-14T08:12:26.000Z</time>
      </trkpt>
      <trkpt lat="45.45964" lon="4.77315">
        <ele>149.197732</ele>
        <time>2021-09-14T08:12:27.000Z</time>
      </trkpt>
      <trkpt lat="45.4596" lon="4.77301">
        <ele>149.17267</ele>
        <time>2021-09-14T08:12:29.000Z</time>
      </trkpt>
      <trkpt lat="45.45951" lon="4.77298">
        <ele>149.16352</ele>
        <time>2021-09-14T08:12:30.000Z</time>
      </trkpt>
      <trkpt lat="45.45949" lon="4.77291">
        <ele>149.15843</ele>
        <time>2021-09-14T08:12:31.000Z</time>
      </trkpt>
      <trkpt lat="45.45943" lon="4.7727">
        <ele>149.142471</ele>
        <time>2021-09-14T08:12:34.000Z</time>
      </trkpt>
      <trkpt lat="45.45934" lon="4.77234">
        <ele>149.116003</ele>
        <time>2021-09-14T08:12:39.000Z</time>
      </trkpt>
      <trkpt lat="45.45931" lon="4.77228">
        <ele>149.111019</ele>
        <time>2021-09-14T08:12:41.000Z</time>
      </trkpt>
      <trkpt lat="45.45921" lon="4.77212">
        <ele>149.096472</ele>
        <time>2021-09-14T08:12:43.000Z</time>
      </trkpt>
      <trkpt lat="45.45916" lon="4.77209">
        <ele>149.091244</ele>
        <time>2021-09-14T08:12:44.000Z</time>
      </trkpt>
      <trkpt lat="45.45884" lon="4.77185">
        <ele>149.055542</ele>
        <time>2021-09-14T08:12:51.000Z</time>
      </trkpt>
      <trkpt lat="45.45839" lon="4.77151">
        <ele>149.004897</ele>
        <time>2021-09-14T08:13:01.000Z</time>
      </trkpt>
      <trkpt lat="45.458" lon="4.77114">
        <ele>148.81514</ele>
        <time>2021-09-14T08:13:11.000Z</time>
      </trkpt>
      <trkpt lat="45.45794" lon="4.77104">
        <ele>148.773585</ele>
        <time>2021-09-14T08:13:13.000Z</time>
      </trkpt>
      <trkpt lat="45.45788" lon="4.77093">
        <ele>148.73002</ele>
        <time>2021-09-14T08:13:15.000Z</time>
      </trkpt>
      <trkpt lat="45.45781" lon="4.77083">
        <ele>148.686695</ele>
        <time>2021-09-14T08:13:17.000Z</time>
      </trkpt>
      <trkpt lat="45.45779" lon="4.77068">
        <ele>148.639253</ele>
        <time>2021-09-14T08:13:19.000Z</time>
      </trkpt>
      <trkpt lat="45.4578" lon="4.7706">
        <ele>148.615773</ele>
        <time>2021-09-14T08:13:20.000Z</time>
      </trkpt>
      <trkpt lat="45.45783" lon="4.76996">
        <ele>148.414296</ele>
        <time>2021-09-14T08:13:28.000Z</time>
      </trkpt>
      <trkpt lat="45.45784" lon="4.76963">
        <ele>148.311377</ele>
        <time>2021-09-14T08:13:33.000Z</time>
      </trkpt>
      <trkpt lat="45.45784" lon="4.76952">
        <ele>148.276727</ele>
        <time>2021-09-14T08:13:35.000Z</time>
      </trkpt>
      <trkpt lat="45.45788" lon="4.76947">
        <ele>148.254672</ele>
        <time>2021-09-14T08:13:36.000Z</time>
      </trkpt>
      <trkpt lat="45.45791" lon="4.76946">
        <ele>148.241898</ele>
        <time>2021-09-14T08:13:38.000Z</time>
      </trkpt>
      <trkpt lat="45.45791" lon="4.76942">
        <ele>148.228475</ele>
        <time>2021-09-14T08:13:39.000Z</time>
      </trkpt>
      <trkpt lat="45.45798" lon="4.76934">
        <ele>148.186434</ele>
        <time>2021-09-14T08:13:40.000Z</time>
      </trkpt>
      <trkpt lat="45.45796" lon="4.76922">
        <ele>148.128715</ele>
        <time>2021-09-14T08:13:42.000Z</time>
      </trkpt>
      <trkpt lat="45.45793" lon="4.76909">
        <ele>148.069991</ele>
        <time>2021-09-14T08:13:44.000Z</time>
      </trkpt>
      <trkpt lat="45.45791" lon="4.76891">
        <ele>147.9914</ele>
        <time>2021-09-14T08:13:47.000Z</time>
      </trkpt>
      <trkpt lat="45.45786" lon="4.7686">
        <ele>147.848024</ele>
        <time>2021-09-14T08:13:51.000Z</time>
      </trkpt>
      <trkpt lat="45.45785" lon="4.76853">
        <ele>147.815041</ele>
        <time>2021-09-14T08:13:52.000Z</time>
      </trkpt>
      <trkpt lat="45.45783" lon="4.76839">
        <ele>147.755529</ele>
        <time>2021-09-14T08:13:55.000Z</time>
      </trkpt>
      <trkpt lat="45.45781" lon="4.76824">
        <ele>147.6875</ele>
        <time>2021-09-14T08:13:59.000Z</time>
      </trkpt>
      <trkpt lat="45.45781" lon="4.76807">
        <ele>147.609009</ele>
        <time>2021-09-14T08:14:02.000Z</time>
      </trkpt>
      <trkpt lat="45.45783" lon="4.76794">
        <ele>147.554159</ele>
        <time>2021-09-14T08:14:04.000Z</time>
      </trkpt>
      <trkpt lat="45.45784" lon="4.76788">
        <ele>147.526517</ele>
        <time>2021-09-14T08:14:05.000Z</time>
      </trkpt>
      <trkpt lat="45.45789" lon="4.76758">
        <ele>147.386742</ele>
        <time>2021-09-14T08:14:10.000Z</time>
      </trkpt>
      <trkpt lat="45.45796" lon="4.76721">
        <ele>147.217659</ele>
        <time>2021-09-14T08:14:16.000Z</time>
      </trkpt>
      <trkpt lat="45.45801" lon="4.76694">
        <ele>147.094018</ele>
        <time>2021-09-14T08:14:21.000Z</time>
      </trkpt>
      <trkpt lat="45.45805" lon="4.76664">
        <ele>147.029461</ele>
        <time>2021-09-14T08:14:26.000Z</time>
      </trkpt>
      <trkpt lat="45.45806" lon="4.76659">
        <ele>147.021359</ele>
        <time>2021-09-14T08:14:27.000Z</time>
      </trkpt>
      <trkpt lat="45.45812" lon="4.76618">
        <ele>146.962763</ele>
        <time>2021-09-14T08:14:34.000Z</time>
      </trkpt>
      <trkpt lat="45.45812" lon="4.76612">
        <ele>146.953509</ele>
        <time>2021-09-14T08:14:35.000Z</time>
      </trkpt>
      <trkpt lat="45.45821" lon="4.76566">
        <ele>146.887275</ele>
        <time>2021-09-14T08:14:42.000Z</time>
      </trkpt>
      <trkpt lat="45.45826" lon="4.76536">
        <ele>146.843563</ele>
        <time>2021-09-14T08:14:47.000Z</time>
      </trkpt>
      <trkpt lat="45.45827" lon="4.76524">
        <ele>146.825865</ele>
        <time>2021-09-14T08:14:49.000Z</time>
      </trkpt>
      <trkpt lat="45.45828" lon="4.76512">
        <ele>146.808616</ele>
        <time>2021-09-14T08:14:51.000Z</time>
      </trkpt>
      <trkpt lat="45.45828" lon="4.765">
        <ele>146.790997</ele>
        <time>2021-09-14T08:14:53.000Z</time>
      </trkpt>
      <trkpt lat="45.45825" lon="4.76465">
        <ele>146.742045</ele>
        <time>2021-09-14T08:14:59.000Z</time>
      </trkpt>
      <trkpt lat="45.45824" lon="4.76459">
        <ele>146.733454</ele>
        <time>2021-09-14T08:15:00.000Z</time>
      </trkpt>
      <trkpt lat="45.45822" lon="4.76431">
        <ele>146.698701</ele>
        <time>2021-09-14T08:15:04.000Z</time>
      </trkpt>
      <trkpt lat="45.45819" lon="4.76403">
        <ele>146.699411</ele>
        <time>2021-09-14T08:15:08.000Z</time>
      </trkpt>
      <trkpt lat="45.45818" lon="4.76396">
        <ele>146.699587</ele>
        <time>2021-09-14T08:15:10.000Z</time>
      </trkpt>
      <trkpt lat="45.45815" lon="4.76361">
        <ele>146.700483</ele>
        <time>2021-09-14T08:15:14.000Z</time>
      </trkpt>
      <trkpt lat="45.45814" lon="4.76353">
        <ele>146.700692</ele>
        <time>2021-09-14T08:15:15.000Z</time>
      </trkpt>
      <trkpt lat="45.45808" lon="4.76301">
        <ele>146.702015</ele>
        <time>2021-09-14T08:15:22.000Z</time>
      </trkpt>
      <trkpt lat="45.45803" lon="4.76263">
        <ele>146.703009</ele>
        <time>2021-09-14T08:15:27.000Z</time>
      </trkpt>
      <trkpt lat="45.45802" lon="4.76255">
        <ele>146.703209</ele>
        <time>2021-09-14T08:15:28.000Z</time>
      </trkpt>
      <trkpt lat="45.45793" lon="4.76192">
        <ele>146.704813</ele>
        <time>2021-09-14T08:15:36.000Z</time>
      </trkpt>
      <trkpt lat="45.45792" lon="4.76185">
        <ele>146.705013</ele>
        <time>2021-09-14T08:15:37.000Z</time>
      </trkpt>
      <trkpt lat="45.45792" lon="4.76163">
        <ele>146.735641</ele>
        <time>2021-09-14T08:15:40.000Z</time>
      </trkpt>
      <trkpt lat="45.45793" lon="4.76159">
        <ele>146.743641</ele>
        <time>2021-09-14T08:15:41.000Z</time>
      </trkpt>
      <trkpt lat="45.458" lon="4.76154">
        <ele>146.761501</ele>
        <time>2021-09-14T08:15:43.000Z</time>
      </trkpt>
      <trkpt lat="45.45811" lon="4.76146">
        <ele>146.791131</ele>
        <time>2021-09-14T08:15:47.000Z</time>
      </trkpt>
      <trkpt lat="45.45817" lon="4.76161">
        <ele>146.819659</ele>
        <time>2021-09-14T08:15:51.000Z</time>
      </trkpt>
      <trkpt lat="45.45819" lon="4.76164">
        <ele>146.826233</ele>
        <time>2021-09-14T08:15:52.000Z</time>
      </trkpt>
      <trkpt lat="45.45824" lon="4.7616">
        <ele>146.839733</ele>
        <time>2021-09-14T08:15:54.000Z</time>
      </trkpt>
      <trkpt lat="45.45832" lon="4.76148">
        <ele>146.86814</ele>
        <time>2021-09-14T08:15:56.000Z</time>
      </trkpt>
      <trkpt lat="45.45845" lon="4.76129">
        <ele>146.909658</ele>
        <time>2021-09-14T08:16:00.000Z</time>
      </trkpt>
      <trkpt lat="45.4587" lon="4.76093">
        <ele>146.993295</ele>
        <time>2021-09-14T08:16:08.000Z</time>
      </trkpt>
      <trkpt lat="45.45872" lon="4.7609">
        <ele>147.000048</ele>
        <time>2021-09-14T08:16:09.000Z</time>
      </trkpt>
      <trkpt lat="45.45874" lon="4.76075">
        <ele>147.024001</ele>
        <time>2021-09-14T08:16:11.000Z</time>
      </trkpt>
      <trkpt lat="45.45866" lon="4.76058">
        <ele>147.058084</ele>
        <time>2021-09-14T08:16:15.000Z</time>
      </trkpt>
      <trkpt lat="45.45849" lon="4.76019">
        <ele>147.139593</ele>
        <time>2021-09-14T08:16:22.000Z</time>
      </trkpt>
      <trkpt lat="45.45845" lon="4.76008">
        <ele>147.182004</ele>
        <time>2021-09-14T08:16:24.000Z</time>
      </trkpt>
      <trkpt lat="45.4584" lon="4.75997">
        <ele>147.222828</ele>
        <time>2021-09-14T08:16:27.000Z</time>
      </trkpt>
      <trkpt lat="45.45837" lon="4.75988">
        <ele>147.258047</ele>
        <time>2021-09-14T08:16:28.000Z</time>
      </trkpt>
      <trkpt lat="45.45833" lon="4.75979">
        <ele>147.290603</ele>
        <time>2021-09-14T08:16:30.000Z</time>
      </trkpt>
      <trkpt lat="45.45825" lon="4.75981">
        <ele>147.330527</ele>
        <time>2021-09-14T08:16:31.000Z</time>
      </trkpt>
      <trkpt lat="45.4582" lon="4.75982">
        <ele>147.353748</ele>
        <time>2021-09-14T08:16:32.000Z</time>
      </trkpt>
      <trkpt lat="45.4581" lon="4.75983">
        <ele>147.399758</ele>
        <time>2021-09-14T08:16:34.000Z</time>
      </trkpt>
      <trkpt lat="45.45783" lon="4.75986">
        <ele>147.522031</ele>
        <time>2021-09-14T08:16:39.000Z</time>
      </trkpt>
      <trkpt lat="45.45763" lon="4.75989">
        <ele>147.619068</ele>
        <time>2021-09-14T08:16:43.000Z</time>
      </trkpt>
      <trkpt lat="45.45759" lon="4.75985">
        <ele>147.641494</ele>
        <time>2021-09-14T08:16:44.000Z</time>
      </trkpt>
      <trkpt lat="45.45754" lon="4.7598">
        <ele>147.666555</ele>
        <time>2021-09-14T08:16:45.000Z</time>
      </trkpt>
      <trkpt lat="45.45742" lon="4.75962">
        <ele>147.749335</ele>
        <time>2021-09-14T08:16:48.000Z</time>
      </trkpt>
      <trkpt lat="45.45732" lon="4.75947">
        <ele>147.815877</ele>
        <time>2021-09-14T08:16:51.000Z</time>
      </trkpt>
      <trkpt lat="45.45725" lon="4.75942">
        <ele>147.851589</ele>
        <time>2021-09-14T08:16:52.000Z</time>
      </trkpt>
      <trkpt lat="45.45721" lon="4.75943">
        <ele>147.870575</ele>
        <time>2021-09-14T08:16:53.000Z</time>
      </trkpt>
      <trkpt lat="45.45713" lon="4.75938">
        <ele>147.910871</ele>
        <time>2021-09-14T08:16:55.000Z</time>
      </trkpt>
      <trkpt lat="45.45709" lon="4.75919">
        <ele>147.957481</ele>
        <time>2021-09-14T08:16:58.000Z</time>
      </trkpt>
      <trkpt lat="45.45708" lon="4.75912">
        <ele>147.959359</ele>
        <time>2021-09-14T08:16:59.000Z</time>
      </trkpt>
      <trkpt lat="45.457" lon="4.75871">
        <ele>147.971006</ele>
        <time>2021-09-14T08:17:04.000Z</time>
      </trkpt>
      <trkpt lat="45.45694" lon="4.75839">
        <ele>147.980359</ele>
        <time>2021-09-14T08:17:08.000Z</time>
      </trkpt>
      <trkpt lat="45.45692" lon="4.7583">
        <ele>147.98277</ele>
        <time>2021-09-14T08:17:09.000Z</time>
      </trkpt>
      <trkpt lat="45.4568" lon="4.75768">
        <ele>148.000452</ele>
        <time>2021-09-14T08:17:17.000Z</time>
      </trkpt>
      <trkpt lat="45.45676" lon="4.75754">
        <ele>148.004457</ele>
        <time>2021-09-14T08:17:19.000Z</time>
      </trkpt>
      <trkpt lat="45.45668" lon="4.75734">
        <ele>148.010731</ele>
        <time>2021-09-14T08:17:22.000Z</time>
      </trkpt>
      <trkpt lat="45.45663" lon="4.75721">
        <ele>148.01498</ele>
        <time>2021-09-14T08:17:24.000Z</time>
      </trkpt>
      <trkpt lat="45.45655" lon="4.757">
        <ele>148.021369</ele>
        <time>2021-09-14T08:17:27.000Z</time>
      </trkpt>
      <trkpt lat="45.45642" lon="4.75663">
        <ele>148.034262</ele>
        <time>2021-09-14T08:17:33.000Z</time>
      </trkpt>
      <trkpt lat="45.4564" lon="4.75658">
        <ele>148.036317</ele>
        <time>2021-09-14T08:17:34.000Z</time>
      </trkpt>
      <trkpt lat="45.45632" lon="4.75636">
        <ele>148.044263</ele>
        <time>2021-09-14T08:17:38.000Z</time>
      </trkpt>
      <trkpt lat="45.45628" lon="4.75624">
        <ele>148.048771</ele>
        <time>2021-09-14T08:17:40.000Z</time>
      </trkpt>
      <trkpt lat="45.45621" lon="4.75604">
        <ele>148.056196</ele>
        <time>2021-09-14T08:17:43.000Z</time>
      </trkpt>
      <trkpt lat="45.45605" lon="4.75563">
        <ele>148.071965</ele>
        <time>2021-09-14T08:17:49.000Z</time>
      </trkpt>
      <trkpt lat="45.45586" lon="4.75525">
        <ele>148.08704</ele>
        <time>2021-09-14T08:17:55.000Z</time>
      </trkpt>
      <trkpt lat="45.45583" lon="4.7552">
        <ele>148.089544</ele>
        <time>2021-09-14T08:17:56.000Z</time>
      </trkpt>
      <trkpt lat="45.45576" lon="4.7551">
        <ele>148.094369</ele>
        <time>2021-09-14T08:17:58.000Z</time>
      </trkpt>
      <trkpt lat="45.45572" lon="4.75504">
        <ele>148.096849</ele>
        <time>2021-09-14T08:17:59.000Z</time>
      </trkpt>
      <trkpt lat="45.45551" lon="4.7548">
        <ele>148.109396</ele>
        <time>2021-09-14T08:18:04.000Z</time>
      </trkpt>
      <trkpt lat="45.45523" lon="4.75455">
        <ele>148.129737</ele>
        <time>2021-09-14T08:18:10.000Z</time>
      </trkpt>
      <trkpt lat="45.45499" lon="4.75437">
        <ele>148.147048</ele>
        <time>2021-09-14T08:18:15.000Z</time>
      </trkpt>
      <trkpt lat="45.45488" lon="4.75433">
        <ele>148.154069</ele>
        <time>2021-09-14T08:18:17.000Z</time>
      </trkpt>
      <trkpt lat="45.45444" lon="4.75422">
        <ele>148.181777</ele>
        <time>2021-09-14T08:18:25.000Z</time>
      </trkpt>
      <trkpt lat="45.45407" lon="4.75417">
        <ele>148.20532</ele>
        <time>2021-09-14T08:18:32.000Z</time>
      </trkpt>
      <trkpt lat="45.45397" lon="4.75416">
        <ele>148.211367</ele>
        <time>2021-09-14T08:18:34.000Z</time>
      </trkpt>
      <trkpt lat="45.45358" lon="4.75412">
        <ele>148.293157</ele>
        <time>2021-09-14T08:18:42.000Z</time>
      </trkpt>
      <trkpt lat="45.45325" lon="4.75411">
        <ele>148.413787</ele>
        <time>2021-09-14T08:18:48.000Z</time>
      </trkpt>
      <trkpt lat="45.45292" lon="4.75408">
        <ele>148.535356</ele>
        <time>2021-09-14T08:18:54.000Z</time>
      </trkpt>
      <trkpt lat="45.4526" lon="4.75404">
        <ele>148.651643</ele>
        <time>2021-09-14T08:19:00.000Z</time>
      </trkpt>
      <trkpt lat="45.45219" lon="4.754">
        <ele>148.801781</ele>
        <time>2021-09-14T08:19:08.000Z</time>
      </trkpt>
      <trkpt lat="45.45177" lon="4.75395">
        <ele>148.901405</ele>
        <time>2021-09-14T08:19:16.000Z</time>
      </trkpt>
      <trkpt lat="45.45135" lon="4.75391">
        <ele>148.942438</ele>
        <time>2021-09-14T08:19:24.000Z</time>
      </trkpt>
      <trkpt lat="45.45089" lon="4.75386">
        <ele>148.98845</ele>
        <time>2021-09-14T08:19:33.000Z</time>
      </trkpt>
      <trkpt lat="45.45046" lon="4.7538">
        <ele>149.029891</ele>
        <time>2021-09-14T08:19:41.000Z</time>
      </trkpt>
      <trkpt lat="45.45009" lon="4.75376">
        <ele>149.059964</ele>
        <time>2021-09-14T08:19:48.000Z</time>
      </trkpt>
      <trkpt lat="45.44971" lon="4.75373">
        <ele>149.069848</ele>
        <time>2021-09-14T08:19:55.000Z</time>
      </trkpt>
      <trkpt lat="45.44938" lon="4.75371">
        <ele>149.078485</ele>
        <time>2021-09-14T08:20:01.000Z</time>
      </trkpt>
      <trkpt lat="45.44882" lon="4.7537">
        <ele>149.093311</ele>
        <time>2021-09-14T08:20:11.000Z</time>
      </trkpt>
      <trkpt lat="45.44859" lon="4.75371">
        <ele>149.099191</ele>
        <time>2021-09-14T08:20:15.000Z</time>
      </trkpt>
      <trkpt lat="45.44848" lon="4.75371">
        <ele>149.102183</ele>
        <time>2021-09-14T08:20:17.000Z</time>
      </trkpt>
      <trkpt lat="45.44803" lon="4.75378">
        <ele>149.071331</ele>
        <time>2021-09-14T08:20:25.000Z</time>
      </trkpt>
      <trkpt lat="45.44763" lon="4.75387">
        <ele>149.034335</ele>
        <time>2021-09-14T08:20:32.000Z</time>
      </trkpt>
      <trkpt lat="45.44712" lon="4.75403">
        <ele>148.986093</ele>
        <time>2021-09-14T08:20:41.000Z</time>
      </trkpt>
      <trkpt lat="45.44662" lon="4.75423">
        <ele>148.938485</ele>
        <time>2021-09-14T08:20:50.000Z</time>
      </trkpt>
      <trkpt lat="45.44606" lon="4.75446">
        <ele>148.950242</ele>
        <time>2021-09-14T08:21:00.000Z</time>
      </trkpt>
      <trkpt lat="45.44561" lon="4.75464">
        <ele>148.959636</ele>
        <time>2021-09-14T08:21:08.000Z</time>
      </trkpt>
      <trkpt lat="45.44517" lon="4.75482">
        <ele>148.968698</ele>
        <time>2021-09-14T08:21:16.000Z</time>
      </trkpt>
      <trkpt lat="45.44473" lon="4.75494">
        <ele>148.903248</ele>
        <time>2021-09-14T08:21:24.000Z</time>
      </trkpt>
      <trkpt lat="45.44433" lon="4.75492">
        <ele>148.723663</ele>
        <time>2021-09-14T08:21:31.000Z</time>
      </trkpt>
      <trkpt lat="45.44428" lon="4.75491">
        <ele>148.699203</ele>
        <time>2021-09-14T08:21:32.000Z</time>
      </trkpt>
      <trkpt lat="45.44399" lon="4.75498">
        <ele>148.572858</ele>
        <time>2021-09-14T08:21:37.000Z</time>
      </trkpt>
      <trkpt lat="45.44388" lon="4.755">
        <ele>148.522843</ele>
        <time>2021-09-14T08:21:39.000Z</time>
      </trkpt>
      <trkpt lat="45.44378" lon="4.75507">
        <ele>148.471759</ele>
        <time>2021-09-14T08:21:41.000Z</time>
      </trkpt>
      <trkpt lat="45.44373" lon="4.75511">
        <ele>148.445513</ele>
        <time>2021-09-14T08:21:42.000Z</time>
      </trkpt>
      <trkpt lat="45.44342" lon="4.75535">
        <ele>148.290977</ele>
        <time>2021-09-14T08:21:48.000Z</time>
      </trkpt>
      <trkpt lat="45.44305" lon="4.75555">
        <ele>148.14813</ele>
        <time>2021-09-14T08:21:55.000Z</time>
      </trkpt>
      <trkpt lat="45.44267" lon="4.7557">
        <ele>148.065479</ele>
        <time>2021-09-14T08:22:02.000Z</time>
      </trkpt>
      <trkpt lat="45.44261" lon="4.75569">
        <ele>148.05427</ele>
        <time>2021-09-14T08:22:03.000Z</time>
      </trkpt>
      <trkpt lat="45.44256" lon="4.75567">
        <ele>148.042861</ele>
        <time>2021-09-14T08:22:04.000Z</time>
      </trkpt>
      <trkpt lat="45.44234" lon="4.75559">
        <ele>147.995893</ele>
        <time>2021-09-14T08:22:08.000Z</time>
      </trkpt>
      <trkpt lat="45.44204" lon="4.75535">
        <ele>147.925816</ele>
        <time>2021-09-14T08:22:14.000Z</time>
      </trkpt>
      <trkpt lat="45.44199" lon="4.75532">
        <ele>147.914623</ele>
        <time>2021-09-14T08:22:15.000Z</time>
      </trkpt>
      <trkpt lat="45.44181" lon="4.75528">
        <ele>147.878027</ele>
        <time>2021-09-14T08:22:18.000Z</time>
      </trkpt>
      <trkpt lat="45.44175" lon="4.75528">
        <ele>147.866332</ele>
        <time>2021-09-14T08:22:19.000Z</time>
      </trkpt>
      <trkpt lat="45.44153" lon="4.75531">
        <ele>147.81998</ele>
        <time>2021-09-14T08:22:23.000Z</time>
      </trkpt>
      <trkpt lat="45.44142" lon="4.75537">
        <ele>147.817123</ele>
        <time>2021-09-14T08:22:25.000Z</time>
      </trkpt>
      <trkpt lat="45.44137" lon="4.75541">
        <ele>147.829272</ele>
        <time>2021-09-14T08:22:26.000Z</time>
      </trkpt>
      <trkpt lat="45.44129" lon="4.75551">
        <ele>147.85156</ele>
        <time>2021-09-14T08:22:28.000Z</time>
      </trkpt>
      <trkpt lat="45.44126" lon="4.75558">
        <ele>147.863849</ele>
        <time>2021-09-14T08:22:29.000Z</time>
      </trkpt>
      <trkpt lat="45.44116" lon="4.75578">
        <ele>147.90012</ele>
        <time>2021-09-14T08:22:32.000Z</time>
      </trkpt>
      <trkpt lat="45.44109" lon="4.75592">
        <ele>147.924341</ele>
        <time>2021-09-14T08:22:34.000Z</time>
      </trkpt>
      <trkpt lat="45.44102" lon="4.75605">
        <ele>147.948084</ele>
        <time>2021-09-14T08:22:36.000Z</time>
      </trkpt>
      <trkpt lat="45.44094" lon="4.75615">
        <ele>147.971073</ele>
        <time>2021-09-14T08:22:38.000Z</time>
      </trkpt>
      <trkpt lat="45.44081" lon="4.7563">
        <ele>148.004461</ele>
        <time>2021-09-14T08:22:41.000Z</time>
      </trkpt>
      <trkpt lat="45.44072" lon="4.7564">
        <ele>148.028277</ele>
        <time>2021-09-14T08:22:43.000Z</time>
      </trkpt>
      <trkpt lat="45.44064" lon="4.7565">
        <ele>148.052001</ele>
        <time>2021-09-14T08:22:45.000Z</time>
      </trkpt>
      <trkpt lat="45.44055" lon="4.75658">
        <ele>148.07272</ele>
        <time>2021-09-14T08:22:47.000Z</time>
      </trkpt>
      <trkpt lat="45.44033" lon="4.75668">
        <ele>148.120372</ele>
        <time>2021-09-14T08:22:51.000Z</time>
      </trkpt>
      <trkpt lat="45.44028" lon="4.75671">
        <ele>148.132455</ele>
        <time>2021-09-14T08:22:52.000Z</time>
      </trkpt>
      <trkpt lat="45.44017" lon="4.75676">
        <ele>148.156136</ele>
        <time>2021-09-14T08:22:54.000Z</time>
      </trkpt>
      <trkpt lat="45.44006" lon="4.75678">
        <ele>148.179996</ele>
        <time>2021-09-14T08:22:56.000Z</time>
      </trkpt>
      <trkpt lat="45.44" lon="4.75677">
        <ele>148.187529</ele>
        <time>2021-09-14T08:22:57.000Z</time>
      </trkpt>
      <trkpt lat="45.43966" lon="4.7567">
        <ele>148.229989</ele>
        <time>2021-09-14T08:23:03.000Z</time>
      </trkpt>
      <trkpt lat="45.4396" lon="4.75669">
        <ele>148.237275</ele>
        <time>2021-09-14T08:23:04.000Z</time>
      </trkpt>
      <trkpt lat="45.43943" lon="4.75664">
        <ele>148.258349</ele>
        <time>2021-09-14T08:23:07.000Z</time>
      </trkpt>
      <trkpt lat="45.43927" lon="4.75656">
        <ele>148.27978</ele>
        <time>2021-09-14T08:23:10.000Z</time>
      </trkpt>
      <trkpt lat="45.439" lon="4.75642">
        <ele>148.315382</ele>
        <time>2021-09-14T08:23:15.000Z</time>
      </trkpt>
      <trkpt lat="45.43889" lon="4.75639">
        <ele>148.329957</ele>
        <time>2021-09-14T08:23:17.000Z</time>
      </trkpt>
      <trkpt lat="45.43861" lon="4.7564">
        <ele>148.363923</ele>
        <time>2021-09-14T08:23:22.000Z</time>
      </trkpt>
      <trkpt lat="45.43845" lon="4.75641">
        <ele>148.384702</ele>
        <time>2021-09-14T08:23:25.000Z</time>
      </trkpt>
      <trkpt lat="45.43833" lon="4.75642">
        <ele>148.399011</ele>
        <time>2021-09-14T08:23:27.000Z</time>
      </trkpt>
      <trkpt lat="45.43799" lon="4.75654">
        <ele>148.075024</ele>
        <time>2021-09-14T08:23:33.000Z</time>
      </trkpt>
      <trkpt lat="45.43783" lon="4.75662">
        <ele>147.893684</ele>
        <time>2021-09-14T08:23:36.000Z</time>
      </trkpt>
      <trkpt lat="45.43778" lon="4.75665">
        <ele>147.83523</ele>
        <time>2021-09-14T08:23:37.000Z</time>
      </trkpt>
      <trkpt lat="45.43756" lon="4.75677">
        <ele>147.589969</ele>
        <time>2021-09-14T08:23:41.000Z</time>
      </trkpt>
      <trkpt lat="45.43751" lon="4.75681">
        <ele>147.530479</ele>
        <time>2021-09-14T08:23:42.000Z</time>
      </trkpt>
      <trkpt lat="45.43735" lon="4.75702">
        <ele>147.297615</ele>
        <time>2021-09-14T08:23:46.000Z</time>
      </trkpt>
      <trkpt lat="45.43731" lon="4.75707">
        <ele>147.240431</ele>
        <time>2021-09-14T08:23:47.000Z</time>
      </trkpt>
      <trkpt lat="45.43716" lon="4.75731">
        <ele>147.003635</ele>
        <time>2021-09-14T08:23:51.000Z</time>
      </trkpt>
      <trkpt lat="45.4371" lon="4.75737">
        <ele>146.926184</ele>
        <time>2021-09-14T08:23:52.000Z</time>
      </trkpt>
      <trkpt lat="45.43679" lon="4.75752">
        <ele>146.575963</ele>
        <time>2021-09-14T08:23:58.000Z</time>
      </trkpt>
      <trkpt lat="45.43673" lon="4.75753">
        <ele>146.515391</ele>
        <time>2021-09-14T08:23:59.000Z</time>
      </trkpt>
      <trkpt lat="45.43636" lon="4.75754">
        <ele>146.292621</ele>
        <time>2021-09-14T08:24:06.000Z</time>
      </trkpt>
      <trkpt lat="45.43601" lon="4.75754">
        <ele>146.083093</ele>
        <time>2021-09-14T08:24:13.000Z</time>
      </trkpt>
      <trkpt lat="45.4357" lon="4.75748">
        <ele>145.901509</ele>
        <time>2021-09-14T08:24:19.000Z</time>
      </trkpt>
      <trkpt lat="45.43528" lon="4.75737">
        <ele>145.650233</ele>
        <time>2021-09-14T08:24:27.000Z</time>
      </trkpt>
      <trkpt lat="45.43481" lon="4.75721">
        <ele>145.513556</ele>
        <time>2021-09-14T08:24:36.000Z</time>
      </trkpt>
      <trkpt lat="45.43451" lon="4.75703">
        <ele>145.686042</ele>
        <time>2021-09-14T08:24:42.000Z</time>
      </trkpt>
      <trkpt lat="45.43446" lon="4.75699">
        <ele>145.714571</ele>
        <time>2021-09-14T08:24:43.000Z</time>
      </trkpt>
      <trkpt lat="45.43429" lon="4.7568">
        <ele>145.831281</ele>
        <time>2021-09-14T08:24:47.000Z</time>
      </trkpt>
      <trkpt lat="45.43407" lon="4.75647">
        <ele>146.000586</ele>
        <time>2021-09-14T08:24:53.000Z</time>
      </trkpt>
      <trkpt lat="45.4339" lon="4.75626">
        <ele>146.118213</ele>
        <time>2021-09-14T08:24:57.000Z</time>
      </trkpt>
      <trkpt lat="45.4338" lon="4.75618">
        <ele>146.181525</ele>
        <time>2021-09-14T08:24:59.000Z</time>
      </trkpt>
      <trkpt lat="45.43342" lon="4.75592">
        <ele>146.409805</ele>
        <time>2021-09-14T08:25:06.000Z</time>
      </trkpt>
      <trkpt lat="45.4331" lon="4.7557">
        <ele>146.721297</ele>
        <time>2021-09-14T08:25:12.000Z</time>
      </trkpt>
      <trkpt lat="45.43273" lon="4.75545">
        <ele>147.078457</ele>
        <time>2021-09-14T08:25:19.000Z</time>
      </trkpt>
      <trkpt lat="45.43247" lon="4.75527">
        <ele>147.335573</ele>
        <time>2021-09-14T08:25:24.000Z</time>
      </trkpt>
      <trkpt lat="45.43232" lon="4.75516">
        <ele>147.483399</ele>
        <time>2021-09-14T08:25:27.000Z</time>
      </trkpt>
      <trkpt lat="45.43226" lon="4.75511">
        <ele>147.537717</ele>
        <time>2021-09-14T08:25:28.000Z</time>
      </trkpt>
      <trkpt lat="45.43213" lon="4.75497">
        <ele>147.682347</ele>
        <time>2021-09-14T08:25:31.000Z</time>
      </trkpt>
      <trkpt lat="45.43209" lon="4.75492">
        <ele>147.732699</ele>
        <time>2021-09-14T08:25:32.000Z</time>
      </trkpt>
      <trkpt lat="45.43194" lon="4.75477">
        <ele>147.888738</ele>
        <time>2021-09-14T08:25:35.000Z</time>
      </trkpt>
      <trkpt lat="45.43185" lon="4.75467">
        <ele>147.987123</ele>
        <time>2021-09-14T08:25:37.000Z</time>
      </trkpt>
      <trkpt lat="45.43151" lon="4.75431">
        <ele>148.264591</ele>
        <time>2021-09-14T08:25:44.000Z</time>
      </trkpt>
      <trkpt lat="45.43121" lon="4.75396">
        <ele>148.524332</ele>
        <time>2021-09-14T08:25:51.000Z</time>
      </trkpt>
      <trkpt lat="45.43114" lon="4.75383">
        <ele>148.599837</ele>
        <time>2021-09-14T08:25:53.000Z</time>
      </trkpt>
      <trkpt lat="45.43087" lon="4.75332">
        <ele>148.893081</ele>
        <time>2021-09-14T08:26:01.000Z</time>
      </trkpt>
      <trkpt lat="45.43084" lon="4.75326">
        <ele>148.930265</ele>
        <time>2021-09-14T08:26:02.000Z</time>
      </trkpt>
      <trkpt lat="45.43067" lon="4.75294">
        <ele>149.114682</ele>
        <time>2021-09-14T08:26:07.000Z</time>
      </trkpt>
      <trkpt lat="45.43044" lon="4.75256">
        <ele>149.34278</ele>
        <time>2021-09-14T08:26:14.000Z</time>
      </trkpt>
      <trkpt lat="45.43041" lon="4.75251">
        <ele>149.371779</ele>
        <time>2021-09-14T08:26:15.000Z</time>
      </trkpt>
      <trkpt lat="45.4303" lon="4.75233">
        <ele>149.481326</ele>
        <time>2021-09-14T08:26:19.000Z</time>
      </trkpt>
      <trkpt lat="45.43027" lon="4.75229">
        <ele>149.508036</ele>
        <time>2021-09-14T08:26:20.000Z</time>
      </trkpt>
      <trkpt lat="45.43018" lon="4.75214">
        <ele>149.594945</ele>
        <time>2021-09-14T08:26:23.000Z</time>
      </trkpt>
      <trkpt lat="45.43004" lon="4.75192">
        <ele>149.728317</ele>
        <time>2021-09-14T08:26:27.000Z</time>
      </trkpt>
      <trkpt lat="45.42998" lon="4.75181">
        <ele>149.792164</ele>
        <time>2021-09-14T08:26:29.000Z</time>
      </trkpt>
      <trkpt lat="45.42982" lon="4.75155">
        <ele>149.94631</ele>
        <time>2021-09-14T08:26:34.000Z</time>
      </trkpt>
      <trkpt lat="45.42979" lon="4.7515">
        <ele>149.977853</ele>
        <time>2021-09-14T08:26:35.000Z</time>
      </trkpt>
      <trkpt lat="45.42967" lon="4.75135">
        <ele>150.077753</ele>
        <time>2021-09-14T08:26:38.000Z</time>
      </trkpt>
      <trkpt lat="45.4296" lon="4.75126">
        <ele>150.139516</ele>
        <time>2021-09-14T08:26:40.000Z</time>
      </trkpt>
      <trkpt lat="45.42932" lon="4.75091">
        <ele>150.359758</ele>
        <time>2021-09-14T08:26:47.000Z</time>
      </trkpt>
      <trkpt lat="45.42896" lon="4.75047">
        <ele>150.562443</ele>
        <time>2021-09-14T08:26:55.000Z</time>
      </trkpt>
      <trkpt lat="45.42873" lon="4.7502">
        <ele>150.689447</ele>
        <time>2021-09-14T08:27:00.000Z</time>
      </trkpt>
      <trkpt lat="45.42864" lon="4.75008">
        <ele>150.741812</ele>
        <time>2021-09-14T08:27:02.000Z</time>
      </trkpt>
      <trkpt lat="45.42828" lon="4.74965">
        <ele>150.944173</ele>
        <time>2021-09-14T08:27:10.000Z</time>
      </trkpt>
      <trkpt lat="45.42793" lon="4.74921">
        <ele>151.099949</ele>
        <time>2021-09-14T08:27:18.000Z</time>
      </trkpt>
      <trkpt lat="45.42766" lon="4.74888">
        <ele>151.132011</ele>
        <time>2021-09-14T08:27:24.000Z</time>
      </trkpt>
      <trkpt lat="45.42721" lon="4.74833">
        <ele>151.186113</ele>
        <time>2021-09-14T08:27:34.000Z</time>
      </trkpt>
      <trkpt lat="45.42689" lon="4.74795">
        <ele>151.223637</ele>
        <time>2021-09-14T08:27:41.000Z</time>
      </trkpt>
      <trkpt lat="45.4265" lon="4.74748">
        <ele>151.214723</ele>
        <time>2021-09-14T08:27:50.000Z</time>
      </trkpt>
      <trkpt lat="45.4261" lon="4.747">
        <ele>151.122873</ele>
        <time>2021-09-14T08:27:59.000Z</time>
      </trkpt>
      <trkpt lat="45.42571" lon="4.74652">
        <ele>151.033161</ele>
        <time>2021-09-14T08:28:08.000Z</time>
      </trkpt>
      <trkpt lat="45.42562" lon="4.74642">
        <ele>151.012562</ele>
        <time>2021-09-14T08:28:10.000Z</time>
      </trkpt>
      <trkpt lat="45.42553" lon="4.74631">
        <ele>150.992524</ele>
        <time>2021-09-14T08:28:12.000Z</time>
      </trkpt>
      <trkpt lat="45.42549" lon="4.74626">
        <ele>150.982399</ele>
        <time>2021-09-14T08:28:13.000Z</time>
      </trkpt>
      <trkpt lat="45.42526" lon="4.74598">
        <ele>150.929631</ele>
        <time>2021-09-14T08:28:18.000Z</time>
      </trkpt>
      <trkpt lat="45.425" lon="4.74566">
        <ele>150.861998</ele>
        <time>2021-09-14T08:28:24.000Z</time>
      </trkpt>
      <trkpt lat="45.42491" lon="4.74555">
        <ele>150.838654</ele>
        <time>2021-09-14T08:28:26.000Z</time>
      </trkpt>
      <trkpt lat="45.42459" lon="4.74517">
        <ele>150.757867</ele>
        <time>2021-09-14T08:28:33.000Z</time>
      </trkpt>
      <trkpt lat="45.42419" lon="4.74468">
        <ele>150.65501</ele>
        <time>2021-09-14T08:28:42.000Z</time>
      </trkpt>
      <trkpt lat="45.42375" lon="4.74414">
        <ele>150.548157</ele>
        <time>2021-09-14T08:28:52.000Z</time>
      </trkpt>
      <trkpt lat="45.42371" lon="4.74408">
        <ele>150.538608</ele>
        <time>2021-09-14T08:28:53.000Z</time>
      </trkpt>
      <trkpt lat="45.42349" lon="4.74382">
        <ele>150.491412</ele>
        <time>2021-09-14T08:28:58.000Z</time>
      </trkpt>
      <trkpt lat="45.42314" lon="4.7434">
        <ele>150.416919</ele>
        <time>2021-09-14T08:29:06.000Z</time>
      </trkpt>
      <trkpt lat="45.42281" lon="4.743">
        <ele>150.345525</ele>
        <time>2021-09-14T08:29:14.000Z</time>
      </trkpt>
      <trkpt lat="45.42246" lon="4.74261">
        <ele>150.294936</ele>
        <time>2021-09-14T08:29:22.000Z</time>
      </trkpt>
      <trkpt lat="45.42213" lon="4.74234">
        <ele>150.315391</ele>
        <time>2021-09-14T08:29:29.000Z</time>
      </trkpt>
      <trkpt lat="45.42185" lon="4.74211">
        <ele>150.332541</ele>
        <time>2021-09-14T08:29:35.000Z</time>
      </trkpt>
      <trkpt lat="45.42168" lon="4.74198">
        <ele>150.343035</ele>
        <time>2021-09-14T08:29:39.000Z</time>
      </trkpt>
      <trkpt lat="45.4216" lon="4.74191">
        <ele>150.348356</ele>
        <time>2021-09-14T08:29:41.000Z</time>
      </trkpt>
      <trkpt lat="45.42123" lon="4.74164">
        <ele>150.370285</ele>
        <time>2021-09-14T08:29:49.000Z</time>
      </trkpt>
      <trkpt lat="45.42091" lon="4.74147">
        <ele>150.373458</ele>
        <time>2021-09-14T08:29:57.000Z</time>
      </trkpt>
      <trkpt lat="45.42063" lon="4.74131">
        <ele>150.303654</ele>
        <time>2021-09-14T08:30:03.000Z</time>
      </trkpt>
      <trkpt lat="45.42059" lon="4.74129">
        <ele>150.291994</ele>
        <time>2021-09-14T08:30:04.000Z</time>
      </trkpt>
      <trkpt lat="45.42016" lon="4.74109">
        <ele>150.186667</ele>
        <time>2021-09-14T08:30:12.000Z</time>
      </trkpt>
      <trkpt lat="45.41979" lon="4.74091">
        <ele>150.094988</ele>
        <time>2021-09-14T08:30:19.000Z</time>
      </trkpt>
      <trkpt lat="45.41943" lon="4.74076">
        <ele>150.006672</ele>
        <time>2021-09-14T08:30:26.000Z</time>
      </trkpt>
      <trkpt lat="45.41899" lon="4.74061">
        <ele>149.909284</ele>
        <time>2021-09-14T08:30:34.000Z</time>
      </trkpt>
      <trkpt lat="45.4185" lon="4.74045">
        <ele>149.809562</ele>
        <time>2021-09-14T08:30:43.000Z</time>
      </trkpt>
      <trkpt lat="45.41807" lon="4.74036">
        <ele>149.72278</ele>
        <time>2021-09-14T08:30:51.000Z</time>
      </trkpt>
      <trkpt lat="45.41765" lon="4.74028">
        <ele>149.63943</ele>
        <time>2021-09-14T08:30:59.000Z</time>
      </trkpt>
      <trkpt lat="45.41724" lon="4.7402">
        <ele>149.511564</ele>
        <time>2021-09-14T08:31:08.000Z</time>
      </trkpt>
      <trkpt lat="45.41679" lon="4.74015">
        <ele>149.339688</ele>
        <time>2021-09-14T08:31:15.000Z</time>
      </trkpt>
      <trkpt lat="45.41635" lon="4.74009">
        <ele>149.175127</ele>
        <time>2021-09-14T08:31:23.000Z</time>
      </trkpt>
      <trkpt lat="45.41619" lon="4.74007">
        <ele>149.112576</ele>
        <time>2021-09-14T08:31:26.000Z</time>
      </trkpt>
      <trkpt lat="45.41608" lon="4.74008">
        <ele>149.071183</ele>
        <time>2021-09-14T08:31:28.000Z</time>
      </trkpt>
      <trkpt lat="45.41597" lon="4.74008">
        <ele>149.030532</ele>
        <time>2021-09-14T08:31:30.000Z</time>
      </trkpt>
      <trkpt lat="45.41575" lon="4.7401">
        <ele>148.946218</ele>
        <time>2021-09-14T08:31:34.000Z</time>
      </trkpt>
      <trkpt lat="45.4152" lon="4.74014">
        <ele>148.811441</ele>
        <time>2021-09-14T08:31:44.000Z</time>
      </trkpt>
      <trkpt lat="45.41515" lon="4.74015">
        <ele>148.798845</ele>
        <time>2021-09-14T08:31:45.000Z</time>
      </trkpt>
      <trkpt lat="45.41493" lon="4.74015">
        <ele>148.749896</ele>
        <time>2021-09-14T08:31:49.000Z</time>
      </trkpt>
      <trkpt lat="45.41484" lon="4.74011">
        <ele>148.727457</ele>
        <time>2021-09-14T08:31:51.000Z</time>
      </trkpt>
      <trkpt lat="45.41478" lon="4.74">
        <ele>148.704517</ele>
        <time>2021-09-14T08:31:53.000Z</time>
      </trkpt>
      <trkpt lat="45.41475" lon="4.73992">
        <ele>148.692056</ele>
        <time>2021-09-14T08:31:54.000Z</time>
      </trkpt>
      <trkpt lat="45.41475" lon="4.73985">
        <ele>148.67966</ele>
        <time>2021-09-14T08:31:55.000Z</time>
      </trkpt>
      <trkpt lat="45.41474" lon="4.73962">
        <ele>148.643072</ele>
        <time>2021-09-14T08:31:58.000Z</time>
      </trkpt>
      <trkpt lat="45.41472" lon="4.7394">
        <ele>148.606984</ele>
        <time>2021-09-14T08:32:01.000Z</time>
      </trkpt>
      <trkpt lat="45.41471" lon="4.73924">
        <ele>148.582332</ele>
        <time>2021-09-14T08:32:03.000Z</time>
      </trkpt>
      <trkpt lat="45.41466" lon="4.73878">
        <ele>148.510374</ele>
        <time>2021-09-14T08:32:09.000Z</time>
      </trkpt>
      <trkpt lat="45.41456" lon="4.73826">
        <ele>148.47889</ele>
        <time>2021-09-14T08:32:16.000Z</time>
      </trkpt>
      <trkpt lat="45.41443" lon="4.73768">
        <ele>148.442985</ele>
        <time>2021-09-14T08:32:24.000Z</time>
      </trkpt>
      <trkpt lat="45.41438" lon="4.73754">
        <ele>148.433755</ele>
        <time>2021-09-14T08:32:26.000Z</time>
      </trkpt>
      <trkpt lat="45.41429" lon="4.73748">
        <ele>148.425514</ele>
        <time>2021-09-14T08:32:28.000Z</time>
      </trkpt>
      <trkpt lat="45.41416" lon="4.73749">
        <ele>148.414496</ele>
        <time>2021-09-14T08:32:31.000Z</time>
      </trkpt>
      <trkpt lat="45.41411" lon="4.73749">
        <ele>148.41049</ele>
        <time>2021-09-14T08:32:32.000Z</time>
      </trkpt>
      <trkpt lat="45.41407" lon="4.73749">
        <ele>148.406641</ele>
        <time>2021-09-14T08:32:33.000Z</time>
      </trkpt>
      <trkpt lat="45.41402" lon="4.73762">
        <ele>148.398557</ele>
        <time>2021-09-14T08:32:35.000Z</time>
      </trkpt>
      <trkpt lat="45.41406" lon="4.73785">
        <ele>148.384642</ele>
        <time>2021-09-14T08:32:38.000Z</time>
      </trkpt>
      <trkpt lat="45.41416" lon="4.7385">
        <ele>148.346542</ele>
        <time>2021-09-14T08:32:47.000Z</time>
      </trkpt>
      <trkpt lat="45.41421" lon="4.73917">
        <ele>148.309412</ele>
        <time>2021-09-14T08:32:54.000Z</time>
      </trkpt>
      <trkpt lat="45.41419" lon="4.73972">
        <ele>148.278919</ele>
        <time>2021-09-14T08:33:01.000Z</time>
      </trkpt>
      <trkpt lat="45.41417" lon="4.73979">
        <ele>148.274635</ele>
        <time>2021-09-14T08:33:02.000Z</time>
      </trkpt>
      <trkpt lat="45.41412" lon="4.74002">
        <ele>148.260954</ele>
        <time>2021-09-14T08:33:05.000Z</time>
      </trkpt>
      <trkpt lat="45.41408" lon="4.74018">
        <ele>148.252156</ele>
        <time>2021-09-14T08:33:07.000Z</time>
      </trkpt>
      <trkpt lat="45.41397" lon="4.74027">
        <ele>148.241968</ele>
        <time>2021-09-14T08:33:09.000Z</time>
      </trkpt>
      <trkpt lat="45.4137" lon="4.74035">
        <ele>148.216868</ele>
        <time>2021-09-14T08:33:14.000Z</time>
      </trkpt>
      <trkpt lat="45.41326" lon="4.74044">
        <ele>148.049917</ele>
        <time>2021-09-14T08:33:22.000Z</time>
      </trkpt>
      <trkpt lat="45.41282" lon="4.74051">
        <ele>147.881606</ele>
        <time>2021-09-14T08:33:30.000Z</time>
      </trkpt>
      <trkpt lat="45.41245" lon="4.74056">
        <ele>147.740695</ele>
        <time>2021-09-14T08:33:37.000Z</time>
      </trkpt>
      <trkpt lat="45.41239" lon="4.74057">
        <ele>147.719725</ele>
        <time>2021-09-14T08:33:38.000Z</time>
      </trkpt>
      <trkpt lat="45.41229" lon="4.74052">
        <ele>147.677966</ele>
        <time>2021-09-14T08:33:40.000Z</time>
      </trkpt>
      <trkpt lat="45.41223" lon="4.74035">
        <ele>147.629543</ele>
        <time>2021-09-14T08:33:42.000Z</time>
      </trkpt>
      <trkpt lat="45.41223" lon="4.74026">
        <ele>147.604937</ele>
        <time>2021-09-14T08:33:43.000Z</time>
      </trkpt>
      <trkpt lat="45.4122" lon="4.74005">
        <ele>147.548684</ele>
        <time>2021-09-14T08:33:45.000Z</time>
      </trkpt>
      <trkpt lat="45.41211" lon="4.73993">
        <ele>147.448948</ele>
        <time>2021-09-14T08:33:47.000Z</time>
      </trkpt>
      <trkpt lat="45.41195" lon="4.73995">
        <ele>147.320743</ele>
        <time>2021-09-14T08:33:49.000Z</time>
      </trkpt>
      <trkpt lat="45.41149" lon="4.74007">
        <ele>146.919206</ele>
        <time>2021-09-14T08:33:56.000Z</time>
      </trkpt>
      <trkpt lat="45.41107" lon="4.74015">
        <ele>146.560143</ele>
        <time>2021-09-14T08:34:03.000Z</time>
      </trkpt>
      <trkpt lat="45.41062" lon="4.74023">
        <ele>146.179549</ele>
        <time>2021-09-14T08:34:11.000Z</time>
      </trkpt>
      <trkpt lat="45.41014" lon="4.74041">
        <ele>145.909674</ele>
        <time>2021-09-14T08:34:20.000Z</time>
      </trkpt>
      <trkpt lat="45.40973" lon="4.74057">
        <ele>145.751329</ele>
        <time>2021-09-14T08:34:28.000Z</time>
      </trkpt>
      <trkpt lat="45.40927" lon="4.74083">
        <ele>145.572451</ele>
        <time>2021-09-14T08:34:37.000Z</time>
      </trkpt>
      <trkpt lat="45.40888" lon="4.74105">
        <ele>145.419662</ele>
        <time>2021-09-14T08:34:45.000Z</time>
      </trkpt>
      <trkpt lat="45.4085" lon="4.74131">
        <ele>145.359663</ele>
        <time>2021-09-14T08:34:53.000Z</time>
      </trkpt>
      <trkpt lat="45.40826" lon="4.74146">
        <ele>145.357041</ele>
        <time>2021-09-14T08:34:58.000Z</time>
      </trkpt>
      <trkpt lat="45.40816" lon="4.74153">
        <ele>145.355987</ele>
        <time>2021-09-14T08:35:00.000Z</time>
      </trkpt>
      <trkpt lat="45.40793" lon="4.74168">
        <ele>145.35346</ele>
        <time>2021-09-14T08:35:04.000Z</time>
      </trkpt>
      <trkpt lat="45.40774" lon="4.74181">
        <ele>145.351309</ele>
        <time>2021-09-14T08:35:08.000Z</time>
      </trkpt>
      <trkpt lat="45.4077" lon="4.74184">
        <ele>145.350856</ele>
        <time>2021-09-14T08:35:09.000Z</time>
      </trkpt>
      <trkpt lat="45.40743" lon="4.74201">
        <ele>145.34795</ele>
        <time>2021-09-14T08:35:15.000Z</time>
      </trkpt>
      <trkpt lat="45.40701" lon="4.7423">
        <ele>145.321497</ele>
        <time>2021-09-14T08:35:24.000Z</time>
      </trkpt>
      <trkpt lat="45.40682" lon="4.74242">
        <ele>145.279762</ele>
        <time>2021-09-14T08:35:28.000Z</time>
      </trkpt>
      <trkpt lat="45.40667" lon="4.74252">
        <ele>145.247066</ele>
        <time>2021-09-14T08:35:31.000Z</time>
      </trkpt>
      <trkpt lat="45.40633" lon="4.74275">
        <ele>145.170149</ele>
        <time>2021-09-14T08:35:38.000Z</time>
      </trkpt>
      <trkpt lat="45.40599" lon="4.74298">
        <ele>145.094566</ele>
        <time>2021-09-14T08:35:45.000Z</time>
      </trkpt>
      <trkpt lat="45.40545" lon="4.74333">
        <ele>144.980672</ele>
        <time>2021-09-14T08:35:56.000Z</time>
      </trkpt>
      <trkpt lat="45.4051" lon="4.74357">
        <ele>144.965516</ele>
        <time>2021-09-14T08:36:03.000Z</time>
      </trkpt>
      <trkpt lat="45.40481" lon="4.74384">
        <ele>144.952161</ele>
        <time>2021-09-14T08:36:09.000Z</time>
      </trkpt>
      <trkpt lat="45.40441" lon="4.74425">
        <ele>144.932917</ele>
        <time>2021-09-14T08:36:18.000Z</time>
      </trkpt>
      <trkpt lat="45.40437" lon="4.7443">
        <ele>144.930803</ele>
        <time>2021-09-14T08:36:19.000Z</time>
      </trkpt>
      <trkpt lat="45.40397" lon="4.74471">
        <ele>144.911312</ele>
        <time>2021-09-14T08:36:28.000Z</time>
      </trkpt>
      <trkpt lat="45.40363" lon="4.74506">
        <ele>144.86432</ele>
        <time>2021-09-14T08:36:36.000Z</time>
      </trkpt>
      <trkpt lat="45.40337" lon="4.74533">
        <ele>144.82875</ele>
        <time>2021-09-14T08:36:42.000Z</time>
      </trkpt>
      <trkpt lat="45.40304" lon="4.74566">
        <ele>144.784231</ele>
        <time>2021-09-14T08:36:50.000Z</time>
      </trkpt>
      <trkpt lat="45.40262" lon="4.74606">
        <ele>144.728485</ele>
        <time>2021-09-14T08:37:00.000Z</time>
      </trkpt>
      <trkpt lat="45.40214" lon="4.74651">
        <ele>144.655459</ele>
        <time>2021-09-14T08:37:11.000Z</time>
      </trkpt>
      <trkpt lat="45.40169" lon="4.74693">
        <ele>144.584767</ele>
        <time>2021-09-14T08:37:21.000Z</time>
      </trkpt>
      <trkpt lat="45.4012" lon="4.74739">
        <ele>144.506844</ele>
        <time>2021-09-14T08:37:32.000Z</time>
      </trkpt>
      <trkpt lat="45.40116" lon="4.74744">
        <ele>144.499674</ele>
        <time>2021-09-14T08:37:33.000Z</time>
      </trkpt>
      <trkpt lat="45.40107" lon="4.74753">
        <ele>144.485338</ele>
        <time>2021-09-14T08:37:35.000Z</time>
      </trkpt>
      <trkpt lat="45.40099" lon="4.74763">
        <ele>144.490205</ele>
        <time>2021-09-14T08:37:37.000Z</time>
      </trkpt>
      <trkpt lat="45.40097" lon="4.74771">
        <ele>144.51945</ele>
        <time>2021-09-14T08:37:38.000Z</time>
      </trkpt>
      <trkpt lat="45.40097" lon="4.74778">
        <ele>144.542838</ele>
        <time>2021-09-14T08:37:39.000Z</time>
      </trkpt>
      <trkpt lat="45.40101" lon="4.74791">
        <ele>144.589709</ele>
        <time>2021-09-14T08:37:41.000Z</time>
      </trkpt>
      <trkpt lat="45.40105" lon="4.74802">
        <ele>144.631884</ele>
        <time>2021-09-14T08:37:43.000Z</time>
      </trkpt>
      <trkpt lat="45.40108" lon="4.74813">
        <ele>144.668927</ele>
        <time>2021-09-14T08:37:45.000Z</time>
      </trkpt>
      <trkpt lat="45.40107" lon="4.74819">
        <ele>144.686692</ele>
        <time>2021-09-14T08:37:46.000Z</time>
      </trkpt>
      <trkpt lat="45.40106" lon="4.74824">
        <ele>144.704133</ele>
        <time>2021-09-14T08:37:47.000Z</time>
      </trkpt>
      <trkpt lat="45.40105" lon="4.74834">
        <ele>144.738368</ele>
        <time>2021-09-14T08:37:49.000Z</time>
      </trkpt>
      <trkpt lat="45.40093" lon="4.74853">
        <ele>144.820944</ele>
        <time>2021-09-14T08:37:55.000Z</time>
      </trkpt>
      <trkpt lat="45.40077" lon="4.74874">
        <ele>144.92415</ele>
        <time>2021-09-14T08:38:03.000Z</time>
      </trkpt>
      <trkpt lat="45.40059" lon="4.74897">
        <ele>145.035806</ele>
        <time>2021-09-14T08:38:10.000Z</time>
      </trkpt>
      <trkpt lat="45.40031" lon="4.74924">
        <ele>145.195561</ele>
        <time>2021-09-14T08:38:18.000Z</time>
      </trkpt>
      <trkpt lat="45.39996" lon="4.74959">
        <ele>145.357931</ele>
        <time>2021-09-14T08:38:27.000Z</time>
      </trkpt>
      <trkpt lat="45.3995" lon="4.75004">
        <ele>145.487703</ele>
        <time>2021-09-14T08:38:38.000Z</time>
      </trkpt>
      <trkpt lat="45.39907" lon="4.75041">
        <ele>145.604717</ele>
        <time>2021-09-14T08:38:48.000Z</time>
      </trkpt>
      <trkpt lat="45.39872" lon="4.75069">
        <ele>145.698427</ele>
        <time>2021-09-14T08:38:56.000Z</time>
      </trkpt>
      <trkpt lat="45.39826" lon="4.75099">
        <ele>145.768908</ele>
        <time>2021-09-14T08:39:06.000Z</time>
      </trkpt>
      <trkpt lat="45.39807" lon="4.75111">
        <ele>145.787981</ele>
        <time>2021-09-14T08:39:10.000Z</time>
      </trkpt>
      <trkpt lat="45.39799" lon="4.7512">
        <ele>145.797669</ele>
        <time>2021-09-14T08:39:12.000Z</time>
      </trkpt>
      <trkpt lat="45.39796" lon="4.75126">
        <ele>145.802318</ele>
        <time>2021-09-14T08:39:13.000Z</time>
      </trkpt>
      <trkpt lat="45.3977" lon="4.7516">
        <ele>145.834847</ele>
        <time>2021-09-14T08:39:20.000Z</time>
      </trkpt>
      <trkpt lat="45.39752" lon="4.75175">
        <ele>145.854029</ele>
        <time>2021-09-14T08:39:24.000Z</time>
      </trkpt>
      <trkpt lat="45.39744" lon="4.75183">
        <ele>145.86362</ele>
        <time>2021-09-14T08:39:26.000Z</time>
      </trkpt>
      <trkpt lat="45.39731" lon="4.75194">
        <ele>145.877004</ele>
        <time>2021-09-14T08:39:29.000Z</time>
      </trkpt>
      <trkpt lat="45.39723" lon="4.752">
        <ele>145.885882</ele>
        <time>2021-09-14T08:39:31.000Z</time>
      </trkpt>
      <trkpt lat="45.39693" lon="4.7521">
        <ele>145.904873</ele>
        <time>2021-09-14T08:39:37.000Z</time>
      </trkpt>
      <trkpt lat="45.39651" lon="4.75218">
        <ele>145.905989</ele>
        <time>2021-09-14T08:39:45.000Z</time>
      </trkpt>
      <trkpt lat="45.39645" lon="4.75219">
        <ele>145.90613</ele>
        <time>2021-09-14T08:39:46.000Z</time>
      </trkpt>
      <trkpt lat="45.39635" lon="4.75225">
        <ele>145.906415</ele>
        <time>2021-09-14T08:39:48.000Z</time>
      </trkpt>
      <trkpt lat="45.39625" lon="4.75231">
        <ele>145.906704</ele>
        <time>2021-09-14T08:39:50.000Z</time>
      </trkpt>
      <trkpt lat="45.39578" lon="4.7526">
        <ele>145.90802</ele>
        <time>2021-09-14T08:39:59.000Z</time>
      </trkpt>
      <trkpt lat="45.39575" lon="4.75266">
        <ele>145.908156</ele>
        <time>2021-09-14T08:40:00.000Z</time>
      </trkpt>
      <trkpt lat="45.39559" lon="4.75288">
        <ele>145.908723</ele>
        <time>2021-09-14T08:40:04.000Z</time>
      </trkpt>
      <trkpt lat="45.39551" lon="4.75299">
        <ele>145.909005</ele>
        <time>2021-09-14T08:40:06.000Z</time>
      </trkpt>
      <trkpt lat="45.39538" lon="4.75311">
        <ele>145.912052</ele>
        <time>2021-09-14T08:40:09.000Z</time>
      </trkpt>
      <trkpt lat="45.39533" lon="4.75315">
        <ele>145.914591</ele>
        <time>2021-09-14T08:40:10.000Z</time>
      </trkpt>
      <trkpt lat="45.39507" lon="4.75329">
        <ele>145.926978</ele>
        <time>2021-09-14T08:40:15.000Z</time>
      </trkpt>
      <trkpt lat="45.39466" lon="4.75344">
        <ele>145.946421</ele>
        <time>2021-09-14T08:40:23.000Z</time>
      </trkpt>
      <trkpt lat="45.39421" lon="4.75358">
        <ele>145.967437</ele>
        <time>2021-09-14T08:40:32.000Z</time>
      </trkpt>
      <trkpt lat="45.39385" lon="4.75368">
        <ele>145.983722</ele>
        <time>2021-09-14T08:40:39.000Z</time>
      </trkpt>
      <trkpt lat="45.39352" lon="4.75382">
        <ele>145.977867</ele>
        <time>2021-09-14T08:40:46.000Z</time>
      </trkpt>
      <trkpt lat="45.39305" lon="4.75407">
        <ele>145.944849</ele>
        <time>2021-09-14T08:40:56.000Z</time>
      </trkpt>
      <trkpt lat="45.39301" lon="4.75411">
        <ele>145.941518</ele>
        <time>2021-09-14T08:40:57.000Z</time>
      </trkpt>
      <trkpt lat="45.39289" lon="4.75424">
        <ele>145.931524</ele>
        <time>2021-09-14T08:41:00.000Z</time>
      </trkpt>
      <trkpt lat="45.39285" lon="4.75427">
        <ele>145.928301</ele>
        <time>2021-09-14T08:41:01.000Z</time>
      </trkpt>
      <trkpt lat="45.39281" lon="4.75431">
        <ele>145.925078</ele>
        <time>2021-09-14T08:41:02.000Z</time>
      </trkpt>
      <trkpt lat="45.39259" lon="4.75449">
        <ele>145.908414</ele>
        <time>2021-09-14T08:41:07.000Z</time>
      </trkpt>
      <trkpt lat="45.39245" lon="4.75457">
        <ele>145.898345</ele>
        <time>2021-09-14T08:41:10.000Z</time>
      </trkpt>
      <trkpt lat="45.39226" lon="4.75466">
        <ele>145.884956</ele>
        <time>2021-09-14T08:41:14.000Z</time>
      </trkpt>
      <trkpt lat="45.39221" lon="4.75468">
        <ele>145.881574</ele>
        <time>2021-09-14T08:41:15.000Z</time>
      </trkpt>
      <trkpt lat="45.39201" lon="4.75471">
        <ele>145.874132</ele>
        <time>2021-09-14T08:41:19.000Z</time>
      </trkpt>
      <trkpt lat="45.39159" lon="4.75471">
        <ele>145.899072</ele>
        <time>2021-09-14T08:41:27.000Z</time>
      </trkpt>
      <trkpt lat="45.39122" lon="4.75482">
        <ele>145.921308</ele>
        <time>2021-09-14T08:41:34.000Z</time>
      </trkpt>
      <trkpt lat="45.39076" lon="4.75499">
        <ele>145.949487</ele>
        <time>2021-09-14T08:41:43.000Z</time>
      </trkpt>
      <trkpt lat="45.39057" lon="4.75509">
        <ele>145.961753</ele>
        <time>2021-09-14T08:41:47.000Z</time>
      </trkpt>
      <trkpt lat="45.39048" lon="4.75514">
        <ele>145.96763</ele>
        <time>2021-09-14T08:41:49.000Z</time>
      </trkpt>
      <trkpt lat="45.39043" lon="4.75517">
        <ele>145.970569</ele>
        <time>2021-09-14T08:41:50.000Z</time>
      </trkpt>
      <trkpt lat="45.39034" lon="4.75526">
        <ele>145.977123</ele>
        <time>2021-09-14T08:41:52.000Z</time>
      </trkpt>
      <trkpt lat="45.3903" lon="4.7553">
        <ele>145.974241</ele>
        <time>2021-09-14T08:41:53.000Z</time>
      </trkpt>
      <trkpt lat="45.39021" lon="4.75539">
        <ele>145.96367</ele>
        <time>2021-09-14T08:41:55.000Z</time>
      </trkpt>
      <trkpt lat="45.3901" lon="4.75543">
        <ele>145.952892</ele>
        <time>2021-09-14T08:41:57.000Z</time>
      </trkpt>
      <trkpt lat="45.3899" lon="4.75548">
        <ele>145.93213</ele>
        <time>2021-09-14T08:42:01.000Z</time>
      </trkpt>
      <trkpt lat="45.38985" lon="4.75549">
        <ele>145.92701</ele>
        <time>2021-09-14T08:42:02.000Z</time>
      </trkpt>
      <trkpt lat="45.38947" lon="4.75547">
        <ele>145.889934</ele>
        <time>2021-09-14T08:42:09.000Z</time>
      </trkpt>
      <trkpt lat="45.38915" lon="4.75552">
        <ele>145.857606</ele>
        <time>2021-09-14T08:42:15.000Z</time>
      </trkpt>
      <trkpt lat="45.38864" lon="4.75564">
        <ele>145.806906</ele>
        <time>2021-09-14T08:42:25.000Z</time>
      </trkpt>
      <trkpt lat="45.38821" lon="4.75574">
        <ele>145.763006</ele>
        <time>2021-09-14T08:42:34.000Z</time>
      </trkpt>
      <trkpt lat="45.38771" lon="4.75582">
        <ele>145.7111</ele>
        <time>2021-09-14T08:42:44.000Z</time>
      </trkpt>
      <trkpt lat="45.38735" lon="4.75587">
        <ele>145.674743</ele>
        <time>2021-09-14T08:42:51.000Z</time>
      </trkpt>
      <trkpt lat="45.38681" lon="4.75596">
        <ele>145.619086</ele>
        <time>2021-09-14T08:43:02.000Z</time>
      </trkpt>
      <trkpt lat="45.3864" lon="4.75597">
        <ele>145.576966</ele>
        <time>2021-09-14T08:43:10.000Z</time>
      </trkpt>
      <trkpt lat="45.38588" lon="4.75586">
        <ele>145.521044</ele>
        <time>2021-09-14T08:43:20.000Z</time>
      </trkpt>
      <trkpt lat="45.3855" lon="4.75576">
        <ele>145.480638</ele>
        <time>2021-09-14T08:43:27.000Z</time>
      </trkpt>
      <trkpt lat="45.385" lon="4.75556">
        <ele>145.426301</ele>
        <time>2021-09-14T08:43:37.000Z</time>
      </trkpt>
      <trkpt lat="45.3846" lon="4.75535">
        <ele>145.392198</ele>
        <time>2021-09-14T08:43:45.000Z</time>
      </trkpt>
      <trkpt lat="45.38425" lon="4.75513">
        <ele>145.361156</ele>
        <time>2021-09-14T08:43:52.000Z</time>
      </trkpt>
      <trkpt lat="45.38379" lon="4.75481">
        <ele>145.319794</ele>
        <time>2021-09-14T08:44:01.000Z</time>
      </trkpt>
      <trkpt lat="45.3834" lon="4.75453">
        <ele>145.284053</ele>
        <time>2021-09-14T08:44:09.000Z</time>
      </trkpt>
      <trkpt lat="45.38304" lon="4.75427">
        <ele>145.4022</ele>
        <time>2021-09-14T08:44:17.000Z</time>
      </trkpt>
      <trkpt lat="45.383" lon="4.75425">
        <ele>145.41667</ele>
        <time>2021-09-14T08:44:18.000Z</time>
      </trkpt>
      <trkpt lat="45.38283" lon="4.7542">
        <ele>145.470328</ele>
        <time>2021-09-14T08:44:22.000Z</time>
      </trkpt>
      <trkpt lat="45.3828" lon="4.75419">
        <ele>145.482464</ele>
        <time>2021-09-14T08:44:23.000Z</time>
      </trkpt>
      <trkpt lat="45.38259" lon="4.75424">
        <ele>145.547242</ele>
        <time>2021-09-14T08:44:29.000Z</time>
      </trkpt>
      <trkpt lat="45.3824" lon="4.75438">
        <ele>145.615464</ele>
        <time>2021-09-14T08:44:35.000Z</time>
      </trkpt>
      <trkpt lat="45.38212" lon="4.75461">
        <ele>145.717375</ele>
        <time>2021-09-14T08:44:43.000Z</time>
      </trkpt>
      <trkpt lat="45.38181" lon="4.75486">
        <ele>145.830542</ele>
        <time>2021-09-14T08:44:51.000Z</time>
      </trkpt>
      <trkpt lat="45.38149" lon="4.75512">
        <ele>145.9556</ele>
        <time>2021-09-14T08:44:59.000Z</time>
      </trkpt>
      <trkpt lat="45.38141" lon="4.7552">
        <ele>145.988763</ele>
        <time>2021-09-14T08:45:01.000Z</time>
      </trkpt>
      <trkpt lat="45.38135" lon="4.7553">
        <ele>146.019854</ele>
        <time>2021-09-14T08:45:03.000Z</time>
      </trkpt>
      <trkpt lat="45.38131" lon="4.75542">
        <ele>146.052495</ele>
        <time>2021-09-14T08:45:05.000Z</time>
      </trkpt>
      <trkpt lat="45.3813" lon="4.75554">
        <ele>146.081672</ele>
        <time>2021-09-14T08:45:07.000Z</time>
      </trkpt>
      <trkpt lat="45.38131" lon="4.75567">
        <ele>146.11278</ele>
        <time>2021-09-14T08:45:09.000Z</time>
      </trkpt>
      <trkpt lat="45.38134" lon="4.7558">
        <ele>146.145599</ele>
        <time>2021-09-14T08:45:11.000Z</time>
      </trkpt>
      <trkpt lat="45.38138" lon="4.756">
        <ele>146.196947</ele>
        <time>2021-09-14T08:45:14.000Z</time>
      </trkpt>
      <trkpt lat="45.38138" lon="4.75614">
        <ele>146.230913</ele>
        <time>2021-09-14T08:45:16.000Z</time>
      </trkpt>
      <trkpt lat="45.38135" lon="4.75625">
        <ele>146.261014</ele>
        <time>2021-09-14T08:45:18.000Z</time>
      </trkpt>
      <trkpt lat="45.38128" lon="4.75629">
        <ele>146.286779</ele>
        <time>2021-09-14T08:45:20.000Z</time>
      </trkpt>
      <trkpt lat="45.38124" lon="4.75627">
        <ele>146.300156</ele>
        <time>2021-09-14T08:45:21.000Z</time>
      </trkpt>
      <trkpt lat="45.3812" lon="4.75624">
        <ele>146.315754</ele>
        <time>2021-09-14T08:45:22.000Z</time>
      </trkpt>
      <trkpt lat="45.38116" lon="4.75613">
        <ele>146.345764</ele>
        <time>2021-09-14T08:45:24.000Z</time>
      </trkpt>
      <trkpt lat="45.38113" lon="4.7559">
        <ele>146.401387</ele>
        <time>2021-09-14T08:45:28.000Z</time>
      </trkpt>
      <trkpt lat="45.3811" lon="4.75588">
        <ele>146.414701</ele>
        <time>2021-09-14T08:45:29.000Z</time>
      </trkpt>
      <trkpt lat="45.38104" lon="4.75593">
        <ele>146.436769</ele>
        <time>2021-09-14T08:45:31.000Z</time>
      </trkpt>
      <trkpt lat="45.38097" lon="4.75618">
        <ele>146.559668</ele>
        <time>2021-09-14T08:45:37.000Z</time>
      </trkpt>
      <trkpt lat="45.38089" lon="4.75646">
        <ele>146.770243</ele>
        <time>2021-09-14T08:45:45.000Z</time>
      </trkpt>
      <trkpt lat="45.38083" lon="4.75669">
        <ele>146.938365</ele>
        <time>2021-09-14T08:45:52.000Z</time>
      </trkpt>
      <trkpt lat="45.38077" lon="4.75696">
        <ele>147.132284</ele>
        <time>2021-09-14T08:45:59.000Z</time>
      </trkpt>
      <trkpt lat="45.38072" lon="4.75723">
        <ele>147.323947</ele>
        <time>2021-09-14T08:46:06.000Z</time>
      </trkpt>
      <trkpt lat="45.38067" lon="4.75752">
        <ele>147.53555</ele>
        <time>2021-09-14T08:46:14.000Z</time>
      </trkpt>
      <trkpt lat="45.38062" lon="4.75779">
        <ele>147.728139</ele>
        <time>2021-09-14T08:46:20.000Z</time>
      </trkpt>
      <trkpt lat="45.38056" lon="4.7581">
        <ele>147.949175</ele>
        <time>2021-09-14T08:46:28.000Z</time>
      </trkpt>
      <trkpt lat="45.38051" lon="4.75835">
        <ele>148.125819</ele>
        <time>2021-09-14T08:46:35.000Z</time>
      </trkpt>
      <trkpt lat="45.38045" lon="4.75865">
        <ele>148.158898</ele>
        <time>2021-09-14T08:46:44.000Z</time>
      </trkpt>
      <trkpt lat="45.38041" lon="4.75889">
        <ele>148.026572</ele>
        <time>2021-09-14T08:46:50.000Z</time>
      </trkpt>
      <trkpt lat="45.38039" lon="4.75917">
        <ele>147.876369</ele>
        <time>2021-09-14T08:46:57.000Z</time>
      </trkpt>
      <trkpt lat="45.38038" lon="4.75939">
        <ele>147.755073</ele>
        <time>2021-09-14T08:47:01.000Z</time>
      </trkpt>
      <trkpt lat="45.38037" lon="4.75946">
        <ele>147.720535</ele>
        <time>2021-09-14T08:47:02.000Z</time>
      </trkpt>
      <trkpt lat="45.38034" lon="4.75952">
        <ele>147.680033</ele>
        <time>2021-09-14T08:47:03.000Z</time>
      </trkpt>
      <trkpt lat="45.38029" lon="4.75965">
        <ele>147.600965</ele>
        <time>2021-09-14T08:47:05.000Z</time>
      </trkpt>
      <trkpt lat="45.38022" lon="4.75976">
        <ele>147.51964</ele>
        <time>2021-09-14T08:47:07.000Z</time>
      </trkpt>
      <trkpt lat="45.38007" lon="4.76001">
        <ele>147.345726</ele>
        <time>2021-09-14T08:47:11.000Z</time>
      </trkpt>
      <trkpt lat="45.38002" lon="4.76006">
        <ele>147.300308</ele>
        <time>2021-09-14T08:47:12.000Z</time>
      </trkpt>
      <trkpt lat="45.37991" lon="4.76015">
        <ele>147.205021</ele>
        <time>2021-09-14T08:47:14.000Z</time>
      </trkpt>
      <trkpt lat="45.37979" lon="4.76022">
        <ele>147.101852</ele>
        <time>2021-09-14T08:47:16.000Z</time>
      </trkpt>
      <trkpt lat="45.37938" lon="4.76046">
        <ele>146.740777</ele>
        <time>2021-09-14T08:47:22.000Z</time>
      </trkpt>
      <trkpt lat="45.37897" lon="4.7607">
        <ele>146.31064</ele>
        <time>2021-09-14T08:47:28.000Z</time>
      </trkpt>
      <trkpt lat="45.37864" lon="4.76089">
        <ele>145.96032</ele>
        <time>2021-09-14T08:47:34.000Z</time>
      </trkpt>
      <trkpt lat="45.37827" lon="4.76111">
        <ele>145.571118</ele>
        <time>2021-09-14T08:47:41.000Z</time>
      </trkpt>
      <trkpt lat="45.37786" lon="4.76135">
        <ele>145.14098</ele>
        <time>2021-09-14T08:47:49.000Z</time>
      </trkpt>
      <trkpt lat="45.3776" lon="4.76151">
        <ele>145.069927</ele>
        <time>2021-09-14T08:47:54.000Z</time>
      </trkpt>
      <trkpt lat="45.3775" lon="4.76157">
        <ele>145.049366</ele>
        <time>2021-09-14T08:47:56.000Z</time>
      </trkpt>
      <trkpt lat="45.37698" lon="4.76187">
        <ele>144.941457</ele>
        <time>2021-09-14T08:48:06.000Z</time>
      </trkpt>
      <trkpt lat="45.37658" lon="4.7621">
        <ele>144.858033</ele>
        <time>2021-09-14T08:48:14.000Z</time>
      </trkpt>
      <trkpt lat="45.37619" lon="4.76233">
        <ele>144.7763</ele>
        <time>2021-09-14T08:48:23.000Z</time>
      </trkpt>
      <trkpt lat="45.37588" lon="4.76255">
        <ele>144.805116</ele>
        <time>2021-09-14T08:48:31.000Z</time>
      </trkpt>
      <trkpt lat="45.37564" lon="4.76272">
        <ele>144.830702</ele>
        <time>2021-09-14T08:48:37.000Z</time>
      </trkpt>
      <trkpt lat="45.37556" lon="4.76278">
        <ele>144.839636</ele>
        <time>2021-09-14T08:48:39.000Z</time>
      </trkpt>
      <trkpt lat="45.37541" lon="4.76289">
        <ele>144.856142</ele>
        <time>2021-09-14T08:48:43.000Z</time>
      </trkpt>
      <trkpt lat="45.37532" lon="4.76295">
        <ele>144.865076</ele>
        <time>2021-09-14T08:48:45.000Z</time>
      </trkpt>
      <trkpt lat="45.37499" lon="4.76319">
        <ele>144.901338</ele>
        <time>2021-09-14T08:48:53.000Z</time>
      </trkpt>
      <trkpt lat="45.37475" lon="4.76336">
        <ele>144.926575</ele>
        <time>2021-09-14T08:48:59.000Z</time>
      </trkpt>
      <trkpt lat="45.37467" lon="4.76342">
        <ele>144.935742</ele>
        <time>2021-09-14T08:49:01.000Z</time>
      </trkpt>
      <trkpt lat="45.37441" lon="4.76361">
        <ele>144.975347</ele>
        <time>2021-09-14T08:49:07.000Z</time>
      </trkpt>
      <trkpt lat="45.37423" lon="4.76374">
        <ele>145.010329</ele>
        <time>2021-09-14T08:49:11.000Z</time>
      </trkpt>
      <trkpt lat="45.37413" lon="4.76381">
        <ele>145.027715</ele>
        <time>2021-09-14T08:49:13.000Z</time>
      </trkpt>
      <trkpt lat="45.3738" lon="4.76407">
        <ele>145.09061</ele>
        <time>2021-09-14T08:49:20.000Z</time>
      </trkpt>
      <trkpt lat="45.37348" lon="4.76433">
        <ele>145.152407</ele>
        <time>2021-09-14T08:49:27.000Z</time>
      </trkpt>
      <trkpt lat="45.37312" lon="4.7646">
        <ele>145.220212</ele>
        <time>2021-09-14T08:49:35.000Z</time>
      </trkpt>
      <trkpt lat="45.37265" lon="4.76497">
        <ele>145.494628</ele>
        <time>2021-09-14T08:49:45.000Z</time>
      </trkpt>
      <trkpt lat="45.37232" lon="4.76525">
        <ele>145.743046</ele>
        <time>2021-09-14T08:49:53.000Z</time>
      </trkpt>
      <trkpt lat="45.37224" lon="4.76532">
        <ele>145.805953</ele>
        <time>2021-09-14T08:49:55.000Z</time>
      </trkpt>
      <trkpt lat="45.37203" lon="4.76551">
        <ele>145.967248</ele>
        <time>2021-09-14T08:50:00.000Z</time>
      </trkpt>
      <trkpt lat="45.37176" lon="4.76577">
        <ele>146.179571</ele>
        <time>2021-09-14T08:50:07.000Z</time>
      </trkpt>
      <trkpt lat="45.3715" lon="4.766">
        <ele>146.373928</ele>
        <time>2021-09-14T08:50:14.000Z</time>
      </trkpt>
      <trkpt lat="45.37126" lon="4.76622">
        <ele>146.430873</ele>
        <time>2021-09-14T08:50:21.000Z</time>
      </trkpt>
      <trkpt lat="45.37093" lon="4.76653">
        <ele>146.465708</ele>
        <time>2021-09-14T08:50:30.000Z</time>
      </trkpt>
      <trkpt lat="45.37049" lon="4.76693">
        <ele>146.510363</ele>
        <time>2021-09-14T08:50:40.000Z</time>
      </trkpt>
      <trkpt lat="45.37009" lon="4.7673">
        <ele>146.552155</ele>
        <time>2021-09-14T08:50:49.000Z</time>
      </trkpt>
      <trkpt lat="45.36963" lon="4.76772">
        <ele>146.344122</ele>
        <time>2021-09-14T08:50:59.000Z</time>
      </trkpt>
      <trkpt lat="45.36958" lon="4.76776">
        <ele>146.310678</ele>
        <time>2021-09-14T08:51:00.000Z</time>
      </trkpt>
      <trkpt lat="45.36913" lon="4.76818">
        <ele>145.988485</ele>
        <time>2021-09-14T08:51:10.000Z</time>
      </trkpt>
      <trkpt lat="45.36904" lon="4.76826">
        <ele>145.922831</ele>
        <time>2021-09-14T08:51:12.000Z</time>
      </trkpt>
      <trkpt lat="45.36886" lon="4.76843">
        <ele>145.79102</ele>
        <time>2021-09-14T08:51:16.000Z</time>
      </trkpt>
      <trkpt lat="45.3685" lon="4.76876">
        <ele>145.535941</ele>
        <time>2021-09-14T08:51:24.000Z</time>
      </trkpt>
      <trkpt lat="45.36804" lon="4.76918">
        <ele>145.285823</ele>
        <time>2021-09-14T08:51:34.000Z</time>
      </trkpt>
      <trkpt lat="45.36764" lon="4.76955">
        <ele>145.077766</ele>
        <time>2021-09-14T08:51:43.000Z</time>
      </trkpt>
      <trkpt lat="45.3672" lon="4.76996">
        <ele>144.84874</ele>
        <time>2021-09-14T08:51:53.000Z</time>
      </trkpt>
      <trkpt lat="45.36676" lon="4.77036">
        <ele>144.642118</ele>
        <time>2021-09-14T08:52:03.000Z</time>
      </trkpt>
      <trkpt lat="45.36636" lon="4.77073">
        <ele>144.487446</ele>
        <time>2021-09-14T08:52:12.000Z</time>
      </trkpt>
      <trkpt lat="45.36599" lon="4.77107">
        <ele>144.343807</ele>
        <time>2021-09-14T08:52:20.000Z</time>
      </trkpt>
      <trkpt lat="45.36557" lon="4.77145">
        <ele>144.183049</ele>
        <time>2021-09-14T08:52:29.000Z</time>
      </trkpt>
      <trkpt lat="45.36511" lon="4.77187">
        <ele>144.217373</ele>
        <time>2021-09-14T08:52:39.000Z</time>
      </trkpt>
      <trkpt lat="45.36507" lon="4.77191">
        <ele>144.232024</ele>
        <time>2021-09-14T08:52:40.000Z</time>
      </trkpt>
      <trkpt lat="45.36469" lon="4.77225">
        <ele>144.353058</ele>
        <time>2021-09-14T08:52:48.000Z</time>
      </trkpt>
      <trkpt lat="45.36422" lon="4.77268">
        <ele>144.504183</ele>
        <time>2021-09-14T08:52:58.000Z</time>
      </trkpt>
      <trkpt lat="45.36418" lon="4.77272">
        <ele>144.518502</ele>
        <time>2021-09-14T08:52:59.000Z</time>
      </trkpt>
      <trkpt lat="45.36383" lon="4.77305">
        <ele>144.597708</ele>
        <time>2021-09-14T08:53:07.000Z</time>
      </trkpt>
      <trkpt lat="45.3634" lon="4.77344">
        <ele>144.524197</ele>
        <time>2021-09-14T08:53:16.000Z</time>
      </trkpt>
      <trkpt lat="45.36293" lon="4.77388">
        <ele>144.442561</ele>
        <time>2021-09-14T08:53:26.000Z</time>
      </trkpt>
      <trkpt lat="45.36256" lon="4.77423">
        <ele>144.377318</ele>
        <time>2021-09-14T08:53:34.000Z</time>
      </trkpt>
      <trkpt lat="45.36208" lon="4.77463">
        <ele>144.19543</ele>
        <time>2021-09-14T08:53:44.000Z</time>
      </trkpt>
      <trkpt lat="45.36193" lon="4.77476">
        <ele>144.122928</ele>
        <time>2021-09-14T08:53:47.000Z</time>
      </trkpt>
      <trkpt lat="45.36153" lon="4.7751">
        <ele>143.924885</ele>
        <time>2021-09-14T08:53:55.000Z</time>
      </trkpt>
      <trkpt lat="45.36114" lon="4.77545">
        <ele>143.72865</ele>
        <time>2021-09-14T08:54:03.000Z</time>
      </trkpt>
      <trkpt lat="45.36067" lon="4.77587">
        <ele>143.553914</ele>
        <time>2021-09-14T08:54:13.000Z</time>
      </trkpt>
      <trkpt lat="45.36025" lon="4.77624">
        <ele>143.486426</ele>
        <time>2021-09-14T08:54:22.000Z</time>
      </trkpt>
      <trkpt lat="45.35993" lon="4.77654">
        <ele>143.432961</ele>
        <time>2021-09-14T08:54:29.000Z</time>
      </trkpt>
      <trkpt lat="45.35962" lon="4.77682">
        <ele>143.383414</ele>
        <time>2021-09-14T08:54:36.000Z</time>
      </trkpt>
      <trkpt lat="45.35927" lon="4.77713">
        <ele>143.340271</ele>
        <time>2021-09-14T08:54:44.000Z</time>
      </trkpt>
      <trkpt lat="45.35887" lon="4.7775">
        <ele>143.365825</ele>
        <time>2021-09-14T08:54:53.000Z</time>
      </trkpt>
      <trkpt lat="45.35851" lon="4.77782">
        <ele>143.388253</ele>
        <time>2021-09-14T08:55:01.000Z</time>
      </trkpt>
      <trkpt lat="45.35814" lon="4.77817">
        <ele>143.411962</ele>
        <time>2021-09-14T08:55:09.000Z</time>
      </trkpt>
      <trkpt lat="45.35767" lon="4.77859">
        <ele>143.387752</ele>
        <time>2021-09-14T08:55:19.000Z</time>
      </trkpt>
      <trkpt lat="45.3573" lon="4.77893">
        <ele>143.274999</ele>
        <time>2021-09-14T08:55:27.000Z</time>
      </trkpt>
      <trkpt lat="45.35692" lon="4.77924">
        <ele>143.164336</ele>
        <time>2021-09-14T08:55:35.000Z</time>
      </trkpt>
      <trkpt lat="45.3566" lon="4.7795">
        <ele>143.072595</ele>
        <time>2021-09-14T08:55:42.000Z</time>
      </trkpt>
      <trkpt lat="45.35615" lon="4.77987">
        <ele>142.961912</ele>
        <time>2021-09-14T08:55:52.000Z</time>
      </trkpt>
      <trkpt lat="45.35577" lon="4.78013">
        <ele>142.916866</ele>
        <time>2021-09-14T08:56:00.000Z</time>
      </trkpt>
      <trkpt lat="45.35534" lon="4.78042">
        <ele>142.86572</ele>
        <time>2021-09-14T08:56:09.000Z</time>
      </trkpt>
      <trkpt lat="45.35495" lon="4.78067">
        <ele>142.820156</ele>
        <time>2021-09-14T08:56:17.000Z</time>
      </trkpt>
      <trkpt lat="45.35455" lon="4.78087">
        <ele>142.780342</ele>
        <time>2021-09-14T08:56:25.000Z</time>
      </trkpt>
      <trkpt lat="45.35411" lon="4.7811">
        <ele>142.758357</ele>
        <time>2021-09-14T08:56:34.000Z</time>
      </trkpt>
      <trkpt lat="45.3537" lon="4.78127">
        <ele>142.7382</ele>
        <time>2021-09-14T08:56:42.000Z</time>
      </trkpt>
      <trkpt lat="45.35347" lon="4.78136">
        <ele>142.726458</ele>
        <time>2021-09-14T08:56:47.000Z</time>
      </trkpt>
      <trkpt lat="45.35342" lon="4.78138">
        <ele>142.724037</ele>
        <time>2021-09-14T08:56:48.000Z</time>
      </trkpt>
      <trkpt lat="45.35332" lon="4.78143">
        <ele>142.719326</ele>
        <time>2021-09-14T08:56:50.000Z</time>
      </trkpt>
      <trkpt lat="45.35321" lon="4.78154">
        <ele>142.712901</ele>
        <time>2021-09-14T08:56:53.000Z</time>
      </trkpt>
      <trkpt lat="45.35313" lon="4.78173">
        <ele>142.705441</ele>
        <time>2021-09-14T08:56:57.000Z</time>
      </trkpt>
      <trkpt lat="45.35299" lon="4.78206">
        <ele>142.747993</ele>
        <time>2021-09-14T08:57:03.000Z</time>
      </trkpt>
      <trkpt lat="45.35295" lon="4.7821">
        <ele>142.76339</ele>
        <time>2021-09-14T08:57:04.000Z</time>
      </trkpt>
      <trkpt lat="45.35291" lon="4.78212">
        <ele>142.777927</ele>
        <time>2021-09-14T08:57:05.000Z</time>
      </trkpt>
      <trkpt lat="45.35282" lon="4.78215">
        <ele>142.808949</ele>
        <time>2021-09-14T08:57:07.000Z</time>
      </trkpt>
      <trkpt lat="45.35277" lon="4.78215">
        <ele>142.825262</ele>
        <time>2021-09-14T08:57:08.000Z</time>
      </trkpt>
      <trkpt lat="45.35272" lon="4.78215">
        <ele>142.840587</ele>
        <time>2021-09-14T08:57:09.000Z</time>
      </trkpt>
      <trkpt lat="45.35264" lon="4.78209">
        <ele>142.870222</ele>
        <time>2021-09-14T08:57:11.000Z</time>
      </trkpt>
      <trkpt lat="45.3526" lon="4.78205">
        <ele>142.886578</ele>
        <time>2021-09-14T08:57:12.000Z</time>
      </trkpt>
      <trkpt lat="45.35239" lon="4.78183">
        <ele>142.971115</ele>
        <time>2021-09-14T08:57:17.000Z</time>
      </trkpt>
      <trkpt lat="45.35234" lon="4.7818">
        <ele>142.988328</ele>
        <time>2021-09-14T08:57:18.000Z</time>
      </trkpt>
      <trkpt lat="45.35229" lon="4.78177">
        <ele>143.004908</ele>
        <time>2021-09-14T08:57:19.000Z</time>
      </trkpt>
      <trkpt lat="45.35219" lon="4.78174">
        <ele>143.040416</ele>
        <time>2021-09-14T08:57:21.000Z</time>
      </trkpt>
      <trkpt lat="45.35198" lon="4.78174">
        <ele>143.108503</ele>
        <time>2021-09-14T08:57:25.000Z</time>
      </trkpt>
      <trkpt lat="45.35187" lon="4.78176">
        <ele>143.143203</ele>
        <time>2021-09-14T08:57:27.000Z</time>
      </trkpt>
      <trkpt lat="45.3514" lon="4.78182">
        <ele>143.294609</ele>
        <time>2021-09-14T08:57:35.000Z</time>
      </trkpt>
      <trkpt lat="45.3509" lon="4.78189">
        <ele>143.435362</ele>
        <time>2021-09-14T08:57:44.000Z</time>
      </trkpt>
      <trkpt lat="45.3504" lon="4.78196">
        <ele>143.57781</ele>
        <time>2021-09-14T08:57:53.000Z</time>
      </trkpt>
      <trkpt lat="45.34989" lon="4.78204">
        <ele>143.722213</ele>
        <time>2021-09-14T08:58:02.000Z</time>
      </trkpt>
      <trkpt lat="45.34932" lon="4.78211">
        <ele>143.822439</ele>
        <time>2021-09-14T08:58:12.000Z</time>
      </trkpt>
      <trkpt lat="45.3488" lon="4.78216">
        <ele>143.872832</ele>
        <time>2021-09-14T08:58:21.000Z</time>
      </trkpt>
      <trkpt lat="45.34852" lon="4.78218">
        <ele>143.900817</ele>
        <time>2021-09-14T08:58:26.000Z</time>
      </trkpt>
      <trkpt lat="45.34835" lon="4.7822">
        <ele>143.91696</ele>
        <time>2021-09-14T08:58:29.000Z</time>
      </trkpt>
      <trkpt lat="45.34786" lon="4.78226">
        <ele>143.965468</ele>
        <time>2021-09-14T08:58:38.000Z</time>
      </trkpt>
      <trkpt lat="45.34729" lon="4.78237">
        <ele>143.942924</ele>
        <time>2021-09-14T08:58:48.000Z</time>
      </trkpt>
      <trkpt lat="45.34724" lon="4.78238">
        <ele>143.940534</ele>
        <time>2021-09-14T08:58:49.000Z</time>
      </trkpt>
      <trkpt lat="45.34668" lon="4.78248">
        <ele>143.917485</ele>
        <time>2021-09-14T08:58:59.000Z</time>
      </trkpt>
      <trkpt lat="45.34617" lon="4.78258">
        <ele>143.896495</ele>
        <time>2021-09-14T08:59:08.000Z</time>
      </trkpt>
      <trkpt lat="45.34578" lon="4.78266">
        <ele>143.906618</ele>
        <time>2021-09-14T08:59:15.000Z</time>
      </trkpt>
      <trkpt lat="45.34533" lon="4.78274">
        <ele>143.928361</ele>
        <time>2021-09-14T08:59:23.000Z</time>
      </trkpt>
      <trkpt lat="45.34478" lon="4.78283">
        <ele>143.954981</ele>
        <time>2021-09-14T08:59:33.000Z</time>
      </trkpt>
      <trkpt lat="45.34423" lon="4.78291">
        <ele>143.962316</ele>
        <time>2021-09-14T08:59:43.000Z</time>
      </trkpt>
      <trkpt lat="45.34379" lon="4.78298">
        <ele>143.822224</ele>
        <time>2021-09-14T08:59:51.000Z</time>
      </trkpt>
      <trkpt lat="45.34336" lon="4.78305">
        <ele>143.683901</ele>
        <time>2021-09-14T08:59:59.000Z</time>
      </trkpt>
      <trkpt lat="45.34311" lon="4.7831">
        <ele>143.602886</ele>
        <time>2021-09-14T09:00:04.000Z</time>
      </trkpt>
      <trkpt lat="45.34274" lon="4.78316">
        <ele>143.486007</ele>
        <time>2021-09-14T09:00:11.000Z</time>
      </trkpt>
      <trkpt lat="45.34232" lon="4.78323">
        <ele>143.345982</ele>
        <time>2021-09-14T09:00:19.000Z</time>
      </trkpt>
      <trkpt lat="45.34184" lon="4.78331">
        <ele>143.180844</ele>
        <time>2021-09-14T09:00:28.000Z</time>
      </trkpt>
      <trkpt lat="45.34141" lon="4.78339">
        <ele>143.033574</ele>
        <time>2021-09-14T09:00:36.000Z</time>
      </trkpt>
      <trkpt lat="45.34119" lon="4.78342">
        <ele>142.957681</ele>
        <time>2021-09-14T09:00:40.000Z</time>
      </trkpt>
      <trkpt lat="45.34103" lon="4.78344">
        <ele>142.901425</ele>
        <time>2021-09-14T09:00:43.000Z</time>
      </trkpt>
      <trkpt lat="45.34071" lon="4.78352">
        <ele>142.792863</ele>
        <time>2021-09-14T09:00:49.000Z</time>
      </trkpt>
      <trkpt lat="45.34063" lon="4.78361">
        <ele>142.832271</ele>
        <time>2021-09-14T09:00:51.000Z</time>
      </trkpt>
      <trkpt lat="45.3406" lon="4.78367">
        <ele>142.851405</ele>
        <time>2021-09-14T09:00:52.000Z</time>
      </trkpt>
      <trkpt lat="45.34058" lon="4.78372">
        <ele>142.868576</ele>
        <time>2021-09-14T09:00:53.000Z</time>
      </trkpt>
      <trkpt lat="45.34054" lon="4.78386">
        <ele>142.909134</ele>
        <time>2021-09-14T09:00:56.000Z</time>
      </trkpt>
      <trkpt lat="45.34051" lon="4.78403">
        <ele>142.9575</ele>
        <time>2021-09-14T09:01:02.000Z</time>
      </trkpt>
      <trkpt lat="45.34048" lon="4.78427">
        <ele>143.024346</ele>
        <time>2021-09-14T09:01:11.000Z</time>
      </trkpt>
      <trkpt lat="45.3404" lon="4.78442">
        <ele>143.074021</ele>
        <time>2021-09-14T09:01:17.000Z</time>
      </trkpt>
      <trkpt lat="45.34024" lon="4.78447">
        <ele>143.137705</ele>
        <time>2021-09-14T09:01:23.000Z</time>
      </trkpt>
      <trkpt lat="45.34012" lon="4.78449">
        <ele>143.185831</ele>
        <time>2021-09-14T09:01:27.000Z</time>
      </trkpt>
      <trkpt lat="45.34009" lon="4.78449">
        <ele>143.195538</ele>
        <time>2021-09-14T09:01:28.000Z</time>
      </trkpt>
      <trkpt lat="45.34001" lon="4.78447">
        <ele>143.228633</ele>
        <time>2021-09-14T09:01:31.000Z</time>
      </trkpt>
      <trkpt lat="45.33992" lon="4.78441">
        <ele>143.267324</ele>
        <time>2021-09-14T09:01:34.000Z</time>
      </trkpt>
      <trkpt lat="45.33989" lon="4.78435">
        <ele>143.285866</ele>
        <time>2021-09-14T09:01:35.000Z</time>
      </trkpt>
      <trkpt lat="45.33983" lon="4.7842">
        <ele>143.332573</ele>
        <time>2021-09-14T09:01:37.000Z</time>
      </trkpt>
      <trkpt lat="45.33981" lon="4.78401">
        <ele>143.385713</ele>
        <time>2021-09-14T09:01:39.000Z</time>
      </trkpt>
      <trkpt lat="45.33977" lon="4.7838">
        <ele>143.443617</ele>
        <time>2021-09-14T09:01:41.000Z</time>
      </trkpt>
      <trkpt lat="45.33974" lon="4.78369">
        <ele>143.474692</ele>
        <time>2021-09-14T09:01:42.000Z</time>
      </trkpt>
      <trkpt lat="45.33966" lon="4.78366">
        <ele>143.447031</ele>
        <time>2021-09-14T09:01:43.000Z</time>
      </trkpt>
      <trkpt lat="45.33958" lon="4.78366">
        <ele>143.382648</ele>
        <time>2021-09-14T09:01:44.000Z</time>
      </trkpt>
      <trkpt lat="45.33916" lon="4.78373">
        <ele>143.031166</ele>
        <time>2021-09-14T09:01:50.000Z</time>
      </trkpt>
      <trkpt lat="45.33856" lon="4.78383">
        <ele>142.535452</ele>
        <time>2021-09-14T09:01:59.000Z</time>
      </trkpt>
      <trkpt lat="45.33808" lon="4.78392">
        <ele>142.133417</ele>
        <time>2021-09-14T09:02:07.000Z</time>
      </trkpt>
      <trkpt lat="45.33759" lon="4.784">
        <ele>141.846903</ele>
        <time>2021-09-14T09:02:15.000Z</time>
      </trkpt>
      <trkpt lat="45.33704" lon="4.78409">
        <ele>141.583548</ele>
        <time>2021-09-14T09:02:24.000Z</time>
      </trkpt>
      <trkpt lat="45.33645" lon="4.78419">
        <ele>141.302986</ele>
        <time>2021-09-14T09:02:34.000Z</time>
      </trkpt>
      <trkpt lat="45.33605" lon="4.78425">
        <ele>141.084927</ele>
        <time>2021-09-14T09:02:41.000Z</time>
      </trkpt>
      <trkpt lat="45.33567" lon="4.78432">
        <ele>140.784124</ele>
        <time>2021-09-14T09:02:48.000Z</time>
      </trkpt>
      <trkpt lat="45.3353" lon="4.78438">
        <ele>140.491215</ele>
        <time>2021-09-14T09:02:55.000Z</time>
      </trkpt>
      <trkpt lat="45.33488" lon="4.78445">
        <ele>140.15388</ele>
        <time>2021-09-14T09:03:03.000Z</time>
      </trkpt>
      <trkpt lat="45.3345" lon="4.78451">
        <ele>139.849098</ele>
        <time>2021-09-14T09:03:10.000Z</time>
      </trkpt>
      <trkpt lat="45.33417" lon="4.78457">
        <ele>139.535658</ele>
        <time>2021-09-14T09:03:16.000Z</time>
      </trkpt>
      <trkpt lat="45.33411" lon="4.78458">
        <ele>139.47446</ele>
        <time>2021-09-14T09:03:17.000Z</time>
      </trkpt>
      <trkpt lat="45.33389" lon="4.78461">
        <ele>139.235946</ele>
        <time>2021-09-14T09:03:21.000Z</time>
      </trkpt>
      <trkpt lat="45.33351" lon="4.78468">
        <ele>138.8255</ele>
        <time>2021-09-14T09:03:28.000Z</time>
      </trkpt>
      <trkpt lat="45.33345" lon="4.78469">
        <ele>138.763242</ele>
        <time>2021-09-14T09:03:29.000Z</time>
      </trkpt>
      <trkpt lat="45.33311" lon="4.78474">
        <ele>138.39898</ele>
        <time>2021-09-14T09:03:35.000Z</time>
      </trkpt>
      <trkpt lat="45.33275" lon="4.7848">
        <ele>138.018646</ele>
        <time>2021-09-14T09:03:41.000Z</time>
      </trkpt>
      <trkpt lat="45.33237" lon="4.78487">
        <ele>137.899495</ele>
        <time>2021-09-14T09:03:48.000Z</time>
      </trkpt>
      <trkpt lat="45.33178" lon="4.78496">
        <ele>138.139384</ele>
        <time>2021-09-14T09:03:58.000Z</time>
      </trkpt>
      <trkpt lat="45.33173" lon="4.78497">
        <ele>138.163753</ele>
        <time>2021-09-14T09:03:59.000Z</time>
      </trkpt>
      <trkpt lat="45.33131" lon="4.78504">
        <ele>138.335965</ele>
        <time>2021-09-14T09:04:06.000Z</time>
      </trkpt>
      <trkpt lat="45.33072" lon="4.78514">
        <ele>138.612194</ele>
        <time>2021-09-14T09:04:16.000Z</time>
      </trkpt>
      <trkpt lat="45.33021" lon="4.78522">
        <ele>139.067559</ele>
        <time>2021-09-14T09:04:25.000Z</time>
      </trkpt>
      <trkpt lat="45.32977" lon="4.78527">
        <ele>139.463753</ele>
        <time>2021-09-14T09:04:34.000Z</time>
      </trkpt>
      <trkpt lat="45.32964" lon="4.78526">
        <ele>139.581076</ele>
        <time>2021-09-14T09:04:37.000Z</time>
      </trkpt>
      <trkpt lat="45.32958" lon="4.78518">
        <ele>139.654999</ele>
        <time>2021-09-14T09:04:39.000Z</time>
      </trkpt>
      <trkpt lat="45.32939" lon="4.78481">
        <ele>139.938016</ele>
        <time>2021-09-14T09:04:45.000Z</time>
      </trkpt>
      <trkpt lat="45.32915" lon="4.7843">
        <ele>140.088299</ele>
        <time>2021-09-14T09:04:53.000Z</time>
      </trkpt>
      <trkpt lat="45.32888" lon="4.78379">
        <ele>139.91162</ele>
        <time>2021-09-14T09:05:01.000Z</time>
      </trkpt>
      <trkpt lat="45.32883" lon="4.78362">
        <ele>139.859646</ele>
        <time>2021-09-14T09:05:03.000Z</time>
      </trkpt>
      <trkpt lat="45.32878" lon="4.78343">
        <ele>139.803579</ele>
        <time>2021-09-14T09:05:05.000Z</time>
      </trkpt>
      <trkpt lat="45.32862" lon="4.78292">
        <ele>139.648778</ele>
        <time>2021-09-14T09:05:11.000Z</time>
      </trkpt>
      <trkpt lat="45.32842" lon="4.78223">
        <ele>139.434864</ele>
        <time>2021-09-14T09:05:20.000Z</time>
      </trkpt>
      <trkpt lat="45.32836" lon="4.78202">
        <ele>139.339358</ele>
        <time>2021-09-14T09:05:23.000Z</time>
      </trkpt>
      <trkpt lat="45.32832" lon="4.78189">
        <ele>139.279997</ele>
        <time>2021-09-14T09:05:25.000Z</time>
      </trkpt>
      <trkpt lat="45.3283" lon="4.78183">
        <ele>139.251017</ele>
        <time>2021-09-14T09:05:26.000Z</time>
      </trkpt>
      <trkpt lat="45.32824" lon="4.78163">
        <ele>139.160497</ele>
        <time>2021-09-14T09:05:30.000Z</time>
      </trkpt>
      <trkpt lat="45.32822" lon="4.78153">
        <ele>139.117272</ele>
        <time>2021-09-14T09:05:31.000Z</time>
      </trkpt>
      <trkpt lat="45.32821" lon="4.78146">
        <ele>139.087076</ele>
        <time>2021-09-14T09:05:32.000Z</time>
      </trkpt>
      <trkpt lat="45.32817" lon="4.78115">
        <ele>138.954381</ele>
        <time>2021-09-14T09:05:36.000Z</time>
      </trkpt>
      <trkpt lat="45.3281" lon="4.78041">
        <ele>138.638736</ele>
        <time>2021-09-14T09:05:45.000Z</time>
      </trkpt>
      <trkpt lat="45.32806" lon="4.77964">
        <ele>138.340146</ele>
        <time>2021-09-14T09:05:54.000Z</time>
      </trkpt>
      <trkpt lat="45.32806" lon="4.77897">
        <ele>138.187355</ele>
        <time>2021-09-14T09:06:02.000Z</time>
      </trkpt>
      <trkpt lat="45.32807" lon="4.77827">
        <ele>138.029131</ele>
        <time>2021-09-14T09:06:10.000Z</time>
      </trkpt>
      <trkpt lat="45.32812" lon="4.77748">
        <ele>137.851306</ele>
        <time>2021-09-14T09:06:19.000Z</time>
      </trkpt>
      <trkpt lat="45.32819" lon="4.77693">
        <ele>137.694533</ele>
        <time>2021-09-14T09:06:26.000Z</time>
      </trkpt>
      <trkpt lat="45.32826" lon="4.7765">
        <ele>137.555469</ele>
        <time>2021-09-14T09:06:32.000Z</time>
      </trkpt>
      <trkpt lat="45.32827" lon="4.77638">
        <ele>137.514553</ele>
        <time>2021-09-14T09:06:34.000Z</time>
      </trkpt>
      <trkpt lat="45.32829" lon="4.77625">
        <ele>137.474578</ele>
        <time>2021-09-14T09:06:36.000Z</time>
      </trkpt>
      <trkpt lat="45.3283" lon="4.77619">
        <ele>137.454493</ele>
        <time>2021-09-14T09:06:37.000Z</time>
      </trkpt>
      <trkpt lat="45.32831" lon="4.77613">
        <ele>137.434192</ele>
        <time>2021-09-14T09:06:38.000Z</time>
      </trkpt>
      <trkpt lat="45.32835" lon="4.77589">
        <ele>137.356028</ele>
        <time>2021-09-14T09:06:42.000Z</time>
      </trkpt>
      <trkpt lat="45.32836" lon="4.77584">
        <ele>137.338017</ele>
        <time>2021-09-14T09:06:43.000Z</time>
      </trkpt>
      <trkpt lat="45.32837" lon="4.77573">
        <ele>137.301274</ele>
        <time>2021-09-14T09:06:45.000Z</time>
      </trkpt>
      <trkpt lat="45.32838" lon="4.77567">
        <ele>137.281813</ele>
        <time>2021-09-14T09:06:46.000Z</time>
      </trkpt>
      <trkpt lat="45.32839" lon="4.77561">
        <ele>137.262453</ele>
        <time>2021-09-14T09:06:47.000Z</time>
      </trkpt>
      <trkpt lat="45.32841" lon="4.77549">
        <ele>137.224455</ele>
        <time>2021-09-14T09:06:49.000Z</time>
      </trkpt>
      <trkpt lat="45.32842" lon="4.77543">
        <ele>137.205409</ele>
        <time>2021-09-14T09:06:50.000Z</time>
      </trkpt>
      <trkpt lat="45.32848" lon="4.77505">
        <ele>137.078013</ele>
        <time>2021-09-14T09:06:57.000Z</time>
      </trkpt>
      <trkpt lat="45.32853" lon="4.77469">
        <ele>136.96145</ele>
        <time>2021-09-14T09:07:04.000Z</time>
      </trkpt>
      <trkpt lat="45.32859" lon="4.77439">
        <ele>136.869886</ele>
        <time>2021-09-14T09:07:10.000Z</time>
      </trkpt>
      <trkpt lat="45.32861" lon="4.77428">
        <ele>136.836705</ele>
        <time>2021-09-14T09:07:12.000Z</time>
      </trkpt>
      <trkpt lat="45.32863" lon="4.77404">
        <ele>136.7652</ele>
        <time>2021-09-14T09:07:16.000Z</time>
      </trkpt>
      <trkpt lat="45.32863" lon="4.77353">
        <ele>136.615122</ele>
        <time>2021-09-14T09:07:24.000Z</time>
      </trkpt>
      <trkpt lat="45.32863" lon="4.77321">
        <ele>136.519121</ele>
        <time>2021-09-14T09:07:29.000Z</time>
      </trkpt>
      <trkpt lat="45.32861" lon="4.77308">
        <ele>136.480484</ele>
        <time>2021-09-14T09:07:31.000Z</time>
      </trkpt>
      <trkpt lat="45.3286" lon="4.77302">
        <ele>136.462557</ele>
        <time>2021-09-14T09:07:32.000Z</time>
      </trkpt>
      <trkpt lat="45.32852" lon="4.77264">
        <ele>136.346638</ele>
        <time>2021-09-14T09:07:38.000Z</time>
      </trkpt>
      <trkpt lat="45.32851" lon="4.77258">
        <ele>136.326557</ele>
        <time>2021-09-14T09:07:39.000Z</time>
      </trkpt>
      <trkpt lat="45.32844" lon="4.77228">
        <ele>136.233139</ele>
        <time>2021-09-14T09:07:44.000Z</time>
      </trkpt>
      <trkpt lat="45.32834" lon="4.77181">
        <ele>136.200574</ele>
        <time>2021-09-14T09:07:53.000Z</time>
      </trkpt>
      <trkpt lat="45.32831" lon="4.77169">
        <ele>136.195549</ele>
        <time>2021-09-14T09:07:56.000Z</time>
      </trkpt>
      <trkpt lat="45.32838" lon="4.77156">
        <ele>136.18937</ele>
        <time>2021-09-14T09:07:58.000Z</time>
      </trkpt>
      <trkpt lat="45.32852" lon="4.77157">
        <ele>136.181767</ele>
        <time>2021-09-14T09:08:02.000Z</time>
      </trkpt>
      <trkpt lat="45.3289" lon="4.77162">
        <ele>136.161328</ele>
        <time>2021-09-14T09:08:11.000Z</time>
      </trkpt>
      <trkpt lat="45.32915" lon="4.77165">
        <ele>136.147848</ele>
        <time>2021-09-14T09:08:17.000Z</time>
      </trkpt>
      <trkpt lat="45.32942" lon="4.77169">
        <ele>136.13318</ele>
        <time>2021-09-14T09:08:23.000Z</time>
      </trkpt>
      <trkpt lat="45.32953" lon="4.7717">
        <ele>136.127573</ele>
        <time>2021-09-14T09:08:25.000Z</time>
      </trkpt>
      <trkpt lat="45.32961" lon="4.77162">
        <ele>136.122189</ele>
        <time>2021-09-14T09:08:27.000Z</time>
      </trkpt>
      <trkpt lat="45.32967" lon="4.77152">
        <ele>136.134425</ele>
        <time>2021-09-14T09:08:29.000Z</time>
      </trkpt>
      <trkpt lat="45.32971" lon="4.77139">
        <ele>136.157096</ele>
        <time>2021-09-14T09:08:31.000Z</time>
      </trkpt>
      <trkpt lat="45.32979" lon="4.77103">
        <ele>136.220986</ele>
        <time>2021-09-14T09:08:37.000Z</time>
      </trkpt>
      <trkpt lat="45.32981" lon="4.77098">
        <ele>136.23026</ele>
        <time>2021-09-14T09:08:38.000Z</time>
      </trkpt>
      <trkpt lat="45.3299" lon="4.77061">
        <ele>136.29629</ele>
        <time>2021-09-14T09:08:45.000Z</time>
      </trkpt>
      <trkpt lat="45.32991" lon="4.77055">
        <ele>136.306041</ele>
        <time>2021-09-14T09:08:46.000Z</time>
      </trkpt>
      <trkpt lat="45.32995" lon="4.77038">
        <ele>136.336321</ele>
        <time>2021-09-14T09:08:49.000Z</time>
      </trkpt>
      <trkpt lat="45.32998" lon="4.77027">
        <ele>136.356963</ele>
        <time>2021-09-14T09:08:51.000Z</time>
      </trkpt>
      <trkpt lat="45.33004" lon="4.76988">
        <ele>136.424153</ele>
        <time>2021-09-14T09:08:58.000Z</time>
      </trkpt>
      <trkpt lat="45.33006" lon="4.76975">
        <ele>136.446622</ele>
        <time>2021-09-14T09:09:01.000Z</time>
      </trkpt>
      <trkpt lat="45.33003" lon="4.76972">
        <ele>136.453733</ele>
        <time>2021-09-14T09:09:02.000Z</time>
      </trkpt>
      <trkpt lat="45.32986" lon="4.76954">
        <ele>136.504383</ele>
        <time>2021-09-14T09:09:08.000Z</time>
      </trkpt>
      <trkpt lat="45.32966" lon="4.76935">
        <ele>136.583976</ele>
        <time>2021-09-14T09:09:15.000Z</time>
      </trkpt>
      <trkpt lat="45.32944" lon="4.76916">
        <ele>136.747174</ele>
        <time>2021-09-14T09:09:22.000Z</time>
      </trkpt>
      <trkpt lat="45.3292" lon="4.76895">
        <ele>136.923087</ele>
        <time>2021-09-14T09:09:29.000Z</time>
      </trkpt>
      <trkpt lat="45.329" lon="4.76877">
        <ele>137.075661</ele>
        <time>2021-09-14T09:09:35.000Z</time>
      </trkpt>
      <trkpt lat="45.32873" lon="4.76854">
        <ele>137.274909</ele>
        <time>2021-09-14T09:09:43.000Z</time>
      </trkpt>
      <trkpt lat="45.32846" lon="4.76837">
        <ele>137.46145</ele>
        <time>2021-09-14T09:09:51.000Z</time>
      </trkpt>
      <trkpt lat="45.32825" lon="4.76825">
        <ele>137.605489</ele>
        <time>2021-09-14T09:09:57.000Z</time>
      </trkpt>
      <trkpt lat="45.32798" lon="4.76808">
        <ele>137.755516</ele>
        <time>2021-09-14T09:10:05.000Z</time>
      </trkpt>
      <trkpt lat="45.32775" lon="4.76784">
        <ele>137.869043</ele>
        <time>2021-09-14T09:10:13.000Z</time>
      </trkpt>
      <trkpt lat="45.32758" lon="4.76758">
        <ele>137.969252</ele>
        <time>2021-09-14T09:10:20.000Z</time>
      </trkpt>
      <trkpt lat="45.32744" lon="4.76737">
        <ele>138.047565</ele>
        <time>2021-09-14T09:10:26.000Z</time>
      </trkpt>
      <trkpt lat="45.32737" lon="4.76727">
        <ele>138.088243</ele>
        <time>2021-09-14T09:10:31.000Z</time>
      </trkpt>
      <trkpt lat="45.32734" lon="4.76723">
        <ele>138.102028</ele>
        <time>2021-09-14T09:10:53.000Z</time>
      </trkpt>
      <trkpt lat="45.32731" lon="4.76718">
        <ele>138.120081</ele>
        <time>2021-09-14T09:10:55.000Z</time>
      </trkpt>
      <trkpt lat="45.32721" lon="4.76724">
        <ele>138.164028</ele>
        <time>2021-09-14T09:10:59.000Z</time>
      </trkpt>
      <trkpt lat="45.32702" lon="4.76733">
        <ele>138.241944</ele>
        <time>2021-09-14T09:11:04.000Z</time>
      </trkpt>
      <trkpt lat="45.32698" lon="4.76735">
        <ele>138.259739</ele>
        <time>2021-09-14T09:11:05.000Z</time>
      </trkpt>
      <trkpt lat="45.32666" lon="4.76749">
        <ele>138.392265</ele>
        <time>2021-09-14T09:11:13.000Z</time>
      </trkpt>
      <trkpt lat="45.32627" lon="4.76765">
        <ele>138.254538</ele>
        <time>2021-09-14T09:11:21.000Z</time>
      </trkpt>
      <trkpt lat="45.32586" lon="4.76776">
        <ele>138.092002</ele>
        <time>2021-09-14T09:11:29.000Z</time>
      </trkpt>
      <trkpt lat="45.32547" lon="4.76786">
        <ele>137.936107</ele>
        <time>2021-09-14T09:11:37.000Z</time>
      </trkpt>
      <trkpt lat="45.32508" lon="4.76796">
        <ele>137.781084</ele>
        <time>2021-09-14T09:11:45.000Z</time>
      </trkpt>
      <trkpt lat="45.32467" lon="4.76802">
        <ele>137.601077</ele>
        <time>2021-09-14T09:11:53.000Z</time>
      </trkpt>
      <trkpt lat="45.32425" lon="4.76803">
        <ele>137.399752</ele>
        <time>2021-09-14T09:12:01.000Z</time>
      </trkpt>
      <trkpt lat="45.32393" lon="4.76801">
        <ele>137.244989</ele>
        <time>2021-09-14T09:12:07.000Z</time>
      </trkpt>
      <trkpt lat="45.3235" lon="4.76798">
        <ele>137.034256</ele>
        <time>2021-09-14T09:12:15.000Z</time>
      </trkpt>
      <trkpt lat="45.32298" lon="4.76791">
        <ele>136.810081</ele>
        <time>2021-09-14T09:12:24.000Z</time>
      </trkpt>
      <trkpt lat="45.32259" lon="4.76784">
        <ele>136.723233</ele>
        <time>2021-09-14T09:12:31.000Z</time>
      </trkpt>
      <trkpt lat="45.32248" lon="4.76781">
        <ele>136.69739</ele>
        <time>2021-09-14T09:12:33.000Z</time>
      </trkpt>
      <trkpt lat="45.32237" lon="4.76781">
        <ele>136.673532</ele>
        <time>2021-09-14T09:12:35.000Z</time>
      </trkpt>
      <trkpt lat="45.32234" lon="4.76781">
        <ele>136.666465</ele>
        <time>2021-09-14T09:12:36.000Z</time>
      </trkpt>
      <trkpt lat="45.32226" lon="4.76776">
        <ele>136.647901</ele>
        <time>2021-09-14T09:12:37.000Z</time>
      </trkpt>
      <trkpt lat="45.32205" lon="4.76768">
        <ele>136.600019</ele>
        <time>2021-09-14T09:12:41.000Z</time>
      </trkpt>
      <trkpt lat="45.322" lon="4.76767">
        <ele>136.588085</ele>
        <time>2021-09-14T09:12:42.000Z</time>
      </trkpt>
      <trkpt lat="45.32156" lon="4.7676">
        <ele>136.49026</ele>
        <time>2021-09-14T09:12:50.000Z</time>
      </trkpt>
      <trkpt lat="45.32116" lon="4.76757">
        <ele>136.41791</ele>
        <time>2021-09-14T09:12:57.000Z</time>
      </trkpt>
      <trkpt lat="45.32066" lon="4.76753">
        <ele>136.364654</ele>
        <time>2021-09-14T09:13:06.000Z</time>
      </trkpt>
      <trkpt lat="45.32038" lon="4.76757">
        <ele>136.33452</ele>
        <time>2021-09-14T09:13:12.000Z</time>
      </trkpt>
      <trkpt lat="45.32013" lon="4.76762">
        <ele>136.307644</ele>
        <time>2021-09-14T09:13:17.000Z</time>
      </trkpt>
      <trkpt lat="45.32004" lon="4.76767">
        <ele>136.29678</ele>
        <time>2021-09-14T09:13:19.000Z</time>
      </trkpt>
      <trkpt lat="45.31993" lon="4.7678">
        <ele>136.281048</ele>
        <time>2021-09-14T09:13:22.000Z</time>
      </trkpt>
      <trkpt lat="45.31985" lon="4.7679">
        <ele>136.270071</ele>
        <time>2021-09-14T09:13:24.000Z</time>
      </trkpt>
      <trkpt lat="45.3196" lon="4.76824">
        <ele>136.198537</ele>
        <time>2021-09-14T09:13:31.000Z</time>
      </trkpt>
      <trkpt lat="45.31953" lon="4.76831">
        <ele>136.147701</ele>
        <time>2021-09-14T09:13:33.000Z</time>
      </trkpt>
      <trkpt lat="45.31945" lon="4.76834">
        <ele>136.097938</ele>
        <time>2021-09-14T09:13:35.000Z</time>
      </trkpt>
      <trkpt lat="45.31936" lon="4.76833">
        <ele>136.042373</ele>
        <time>2021-09-14T09:13:37.000Z</time>
      </trkpt>
      <trkpt lat="45.31936" lon="4.76829">
        <ele>136.025935</ele>
        <time>2021-09-14T09:13:39.000Z</time>
      </trkpt>
      <trkpt lat="45.31935" lon="4.76826">
        <ele>136.012124</ele>
        <time>2021-09-14T09:13:40.000Z</time>
      </trkpt>
      <trkpt lat="45.31936" lon="4.76837">
        <ele>135.965477</ele>
        <time>2021-09-14T09:13:42.000Z</time>
      </trkpt>
      <trkpt lat="45.31924" lon="4.76818">
        <ele>135.861039</ele>
        <time>2021-09-14T09:13:44.000Z</time>
      </trkpt>
      <trkpt lat="45.31919" lon="4.7682">
        <ele>135.828074</ele>
        <time>2021-09-14T09:13:45.000Z</time>
      </trkpt>
      <trkpt lat="45.31907" lon="4.76824">
        <ele>135.752773</ele>
        <time>2021-09-14T09:13:47.000Z</time>
      </trkpt>
      <trkpt lat="45.31894" lon="4.76831">
        <ele>135.67021</ele>
        <time>2021-09-14T09:13:49.000Z</time>
      </trkpt>
      <trkpt lat="45.31886" lon="4.76839">
        <ele>135.60745</ele>
        <time>2021-09-14T09:13:51.000Z</time>
      </trkpt>
      <trkpt lat="45.31878" lon="4.76849">
        <ele>135.543687</ele>
        <time>2021-09-14T09:13:53.000Z</time>
      </trkpt>
      <trkpt lat="45.31863" lon="4.76867">
        <ele>135.42307</ele>
        <time>2021-09-14T09:13:58.000Z</time>
      </trkpt>
      <trkpt lat="45.31836" lon="4.76896">
        <ele>135.218405</ele>
        <time>2021-09-14T09:14:06.000Z</time>
      </trkpt>
      <trkpt lat="45.31833" lon="4.769">
        <ele>135.192291</ele>
        <time>2021-09-14T09:14:07.000Z</time>
      </trkpt>
      <trkpt lat="45.3182" lon="4.76925">
        <ele>135.197787</ele>
        <time>2021-09-14T09:14:12.000Z</time>
      </trkpt>
      <trkpt lat="45.31793" lon="4.76974">
        <ele>135.35734</ele>
        <time>2021-09-14T09:14:21.000Z</time>
      </trkpt>
      <trkpt lat="45.31782" lon="4.76995">
        <ele>135.425223</ele>
        <time>2021-09-14T09:14:25.000Z</time>
      </trkpt>
      <trkpt lat="45.31773" lon="4.77012">
        <ele>135.477594</ele>
        <time>2021-09-14T09:14:28.000Z</time>
      </trkpt>
      <trkpt lat="45.3175" lon="4.77057">
        <ele>135.620294</ele>
        <time>2021-09-14T09:14:36.000Z</time>
      </trkpt>
      <trkpt lat="45.31728" lon="4.77098">
        <ele>135.752959</ele>
        <time>2021-09-14T09:14:43.000Z</time>
      </trkpt>
      <trkpt lat="45.31694" lon="4.77148">
        <ele>135.924752</ele>
        <time>2021-09-14T09:14:52.000Z</time>
      </trkpt>
      <trkpt lat="45.31691" lon="4.77153">
        <ele>135.943429</ele>
        <time>2021-09-14T09:14:53.000Z</time>
      </trkpt>
      <trkpt lat="45.3168" lon="4.77178">
        <ele>136.015848</ele>
        <time>2021-09-14T09:14:57.000Z</time>
      </trkpt>
      <trkpt lat="45.31678" lon="4.77185">
        <ele>136.034095</ele>
        <time>2021-09-14T09:14:58.000Z</time>
      </trkpt>
      <trkpt lat="45.31671" lon="4.77204">
        <ele>136.088014</ele>
        <time>2021-09-14T09:15:01.000Z</time>
      </trkpt>
      <trkpt lat="45.31652" lon="4.77238">
        <ele>136.195625</ele>
        <time>2021-09-14T09:15:07.000Z</time>
      </trkpt>
      <trkpt lat="45.31624" lon="4.77284">
        <ele>136.345532</ele>
        <time>2021-09-14T09:15:15.000Z</time>
      </trkpt>
      <trkpt lat="45.31598" lon="4.77328">
        <ele>136.493934</ele>
        <time>2021-09-14T09:15:23.000Z</time>
      </trkpt>
      <trkpt lat="45.31574" lon="4.77369">
        <ele>136.63187</ele>
        <time>2021-09-14T09:15:31.000Z</time>
      </trkpt>
      <trkpt lat="45.31544" lon="4.7742">
        <ele>136.809437</ele>
        <time>2021-09-14T09:15:41.000Z</time>
      </trkpt>
      <trkpt lat="45.31514" lon="4.77472">
        <ele>136.986322</ele>
        <time>2021-09-14T09:15:51.000Z</time>
      </trkpt>
      <trkpt lat="45.31491" lon="4.77513">
        <ele>137.120401</ele>
        <time>2021-09-14T09:15:59.000Z</time>
      </trkpt>
      <trkpt lat="45.31471" lon="4.77547">
        <ele>137.203609</ele>
        <time>2021-09-14T09:16:06.000Z</time>
      </trkpt>
      <trkpt lat="45.31441" lon="4.776">
        <ele>137.33142</ele>
        <time>2021-09-14T09:16:16.000Z</time>
      </trkpt>
      <trkpt lat="45.31421" lon="4.77635">
        <ele>137.416193</ele>
        <time>2021-09-14T09:16:23.000Z</time>
      </trkpt>
      <trkpt lat="45.31418" lon="4.7764">
        <ele>137.427536</ele>
        <time>2021-09-14T09:16:24.000Z</time>
      </trkpt>
      <trkpt lat="45.31407" lon="4.77675">
        <ele>137.499039</ele>
        <time>2021-09-14T09:16:30.000Z</time>
      </trkpt>
      <trkpt lat="45.31406" lon="4.77681">
        <ele>137.511231</ele>
        <time>2021-09-14T09:16:31.000Z</time>
      </trkpt>
      <trkpt lat="45.31404" lon="4.77687">
        <ele>137.523149</ele>
        <time>2021-09-14T09:16:32.000Z</time>
      </trkpt>
      <trkpt lat="45.31395" lon="4.77718">
        <ele>137.585316</ele>
        <time>2021-09-14T09:16:37.000Z</time>
      </trkpt>
      <trkpt lat="45.31373" lon="4.7778">
        <ele>137.676179</ele>
        <time>2021-09-14T09:16:47.000Z</time>
      </trkpt>
      <trkpt lat="45.31366" lon="4.77807">
        <ele>137.713672</ele>
        <time>2021-09-14T09:16:51.000Z</time>
      </trkpt>
      <trkpt lat="45.31359" lon="4.77817">
        <ele>137.730654</ele>
        <time>2021-09-14T09:16:53.000Z</time>
      </trkpt>
      <trkpt lat="45.31339" lon="4.77841">
        <ele>137.779929</ele>
        <time>2021-09-14T09:16:59.000Z</time>
      </trkpt>
      <trkpt lat="45.31335" lon="4.77844">
        <ele>137.787922</ele>
        <time>2021-09-14T09:17:00.000Z</time>
      </trkpt>
      <trkpt lat="45.31316" lon="4.77859">
        <ele>137.828434</ele>
        <time>2021-09-14T09:17:05.000Z</time>
      </trkpt>
      <trkpt lat="45.31308" lon="4.77866">
        <ele>137.845029</ele>
        <time>2021-09-14T09:17:07.000Z</time>
      </trkpt>
      <trkpt lat="45.313" lon="4.77873">
        <ele>137.861906</ele>
        <time>2021-09-14T09:17:09.000Z</time>
      </trkpt>
      <trkpt lat="45.31297" lon="4.77877">
        <ele>137.870226</ele>
        <time>2021-09-14T09:17:10.000Z</time>
      </trkpt>
      <trkpt lat="45.31295" lon="4.77886">
        <ele>137.881655</ele>
        <time>2021-09-14T09:17:11.000Z</time>
      </trkpt>
      <trkpt lat="45.313" lon="4.77903">
        <ele>137.906181</ele>
        <time>2021-09-14T09:17:14.000Z</time>
      </trkpt>
      <trkpt lat="45.31302" lon="4.77916">
        <ele>137.926771</ele>
        <time>2021-09-14T09:17:16.000Z</time>
      </trkpt>
      <trkpt lat="45.313" lon="4.77922">
        <ele>137.944467</ele>
        <time>2021-09-14T09:17:17.000Z</time>
      </trkpt>
      <trkpt lat="45.31298" lon="4.77928">
        <ele>137.963547</ele>
        <time>2021-09-14T09:17:18.000Z</time>
      </trkpt>
      <trkpt lat="45.31292" lon="4.77941">
        <ele>138.004208</ele>
        <time>2021-09-14T09:17:20.000Z</time>
      </trkpt>
      <trkpt lat="45.31256" lon="4.77985">
        <ele>138.186859</ele>
        <time>2021-09-14T09:17:29.000Z</time>
      </trkpt>
      <trkpt lat="45.31222" lon="4.78034">
        <ele>138.373505</ele>
        <time>2021-09-14T09:17:38.000Z</time>
      </trkpt>
      <trkpt lat="45.31203" lon="4.78073">
        <ele>138.503086</ele>
        <time>2021-09-14T09:17:44.000Z</time>
      </trkpt>
      <trkpt lat="45.31189" lon="4.78122">
        <ele>138.615742</ele>
        <time>2021-09-14T09:17:51.000Z</time>
      </trkpt>
      <trkpt lat="45.31173" lon="4.78172">
        <ele>138.627696</ele>
        <time>2021-09-14T09:17:58.000Z</time>
      </trkpt>
      <trkpt lat="45.3115" lon="4.78233">
        <ele>138.643101</ele>
        <time>2021-09-14T09:18:07.000Z</time>
      </trkpt>
      <trkpt lat="45.31136" lon="4.78278">
        <ele>138.654006</ele>
        <time>2021-09-14T09:18:13.000Z</time>
      </trkpt>
      <trkpt lat="45.31119" lon="4.78336">
        <ele>138.668133</ele>
        <time>2021-09-14T09:18:21.000Z</time>
      </trkpt>
      <trkpt lat="45.31103" lon="4.78389">
        <ele>138.685141</ele>
        <time>2021-09-14T09:18:28.000Z</time>
      </trkpt>
      <trkpt lat="45.311" lon="4.78415">
        <ele>138.693551</ele>
        <time>2021-09-14T09:18:32.000Z</time>
      </trkpt>
      <trkpt lat="45.311" lon="4.78444">
        <ele>138.702514</ele>
        <time>2021-09-14T09:18:38.000Z</time>
      </trkpt>
      <trkpt lat="45.311" lon="4.7845">
        <ele>138.704377</ele>
        <time>2021-09-14T09:18:39.000Z</time>
      </trkpt>
      <trkpt lat="45.31102" lon="4.78464">
        <ele>138.708636</ele>
        <time>2021-09-14T09:18:41.000Z</time>
      </trkpt>
      <trkpt lat="45.31105" lon="4.78479">
        <ele>138.713458</ele>
        <time>2021-09-14T09:18:43.000Z</time>
      </trkpt>
      <trkpt lat="45.31103" lon="4.78485">
        <ele>138.715493</ele>
        <time>2021-09-14T09:18:44.000Z</time>
      </trkpt>
      <trkpt lat="45.31096" lon="4.78495">
        <ele>138.719857</ele>
        <time>2021-09-14T09:18:46.000Z</time>
      </trkpt>
      <trkpt lat="45.31084" lon="4.78511">
        <ele>138.727283</ele>
        <time>2021-09-14T09:18:49.000Z</time>
      </trkpt>
      <trkpt lat="45.31055" lon="4.78548">
        <ele>138.744303</ele>
        <time>2021-09-14T09:18:56.000Z</time>
      </trkpt>
      <trkpt lat="45.31051" lon="4.78553">
        <ele>138.746726</ele>
        <time>2021-09-14T09:18:57.000Z</time>
      </trkpt>
      <trkpt lat="45.31044" lon="4.78566">
        <ele>138.758586</ele>
        <time>2021-09-14T09:18:59.000Z</time>
      </trkpt>
      <trkpt lat="45.31041" lon="4.78572">
        <ele>138.767205</ele>
        <time>2021-09-14T09:19:00.000Z</time>
      </trkpt>
      <trkpt lat="45.31035" lon="4.78595">
        <ele>138.794289</ele>
        <time>2021-09-14T09:19:03.000Z</time>
      </trkpt>
      <trkpt lat="45.31034" lon="4.78603">
        <ele>138.802071</ele>
        <time>2021-09-14T09:19:04.000Z</time>
      </trkpt>
      <trkpt lat="45.31026" lon="4.78605">
        <ele>138.815254</ele>
        <time>2021-09-14T09:19:06.000Z</time>
      </trkpt>
      <trkpt lat="45.31021" lon="4.78601">
        <ele>138.822931</ele>
        <time>2021-09-14T09:19:07.000Z</time>
      </trkpt>
      <trkpt lat="45.31016" lon="4.78598">
        <ele>138.832312</ele>
        <time>2021-09-14T09:19:08.000Z</time>
      </trkpt>
      <trkpt lat="45.31005" lon="4.78609">
        <ele>138.852124</ele>
        <time>2021-09-14T09:19:10.000Z</time>
      </trkpt>
      <trkpt lat="45.30977" lon="4.78651">
        <ele>138.914782</ele>
        <time>2021-09-14T09:19:17.000Z</time>
      </trkpt>
      <trkpt lat="45.30942" lon="4.78703">
        <ele>138.992696</ele>
        <time>2021-09-14T09:19:26.000Z</time>
      </trkpt>
      <trkpt lat="45.30914" lon="4.78743">
        <ele>139.066972</ele>
        <time>2021-09-14T09:19:33.000Z</time>
      </trkpt>
      <trkpt lat="45.30885" lon="4.78784">
        <ele>139.15895</ele>
        <time>2021-09-14T09:19:40.000Z</time>
      </trkpt>
      <trkpt lat="45.30869" lon="4.78817">
        <ele>139.22141</ele>
        <time>2021-09-14T09:19:45.000Z</time>
      </trkpt>
      <trkpt lat="45.30849" lon="4.78866">
        <ele>139.309528</ele>
        <time>2021-09-14T09:19:52.000Z</time>
      </trkpt>
      <trkpt lat="45.30834" lon="4.78896">
        <ele>139.368507</ele>
        <time>2021-09-14T09:19:57.000Z</time>
      </trkpt>
      <trkpt lat="45.3083" lon="4.78902">
        <ele>139.380017</ele>
        <time>2021-09-14T09:19:58.000Z</time>
      </trkpt>
      <trkpt lat="45.30819" lon="4.78917">
        <ele>139.414117</ele>
        <time>2021-09-14T09:20:01.000Z</time>
      </trkpt>
      <trkpt lat="45.30794" lon="4.78951">
        <ele>139.775374</ele>
        <time>2021-09-14T09:20:07.000Z</time>
      </trkpt>
      <trkpt lat="45.30786" lon="4.78963">
        <ele>139.913548</ele>
        <time>2021-09-14T09:20:09.000Z</time>
      </trkpt>
      <trkpt lat="45.30776" lon="4.78981">
        <ele>140.113432</ele>
        <time>2021-09-14T09:20:12.000Z</time>
      </trkpt>
      <trkpt lat="45.30767" lon="4.79">
        <ele>140.308928</ele>
        <time>2021-09-14T09:20:15.000Z</time>
      </trkpt>
      <trkpt lat="45.30761" lon="4.79025">
        <ele>140.535134</ele>
        <time>2021-09-14T09:20:18.000Z</time>
      </trkpt>
      <trkpt lat="45.30751" lon="4.79091">
        <ele>141.116291</ele>
        <time>2021-09-14T09:20:26.000Z</time>
      </trkpt>
      <trkpt lat="45.30746" lon="4.79121">
        <ele>141.373652</ele>
        <time>2021-09-14T09:20:30.000Z</time>
      </trkpt>
      <trkpt lat="45.30738" lon="4.79163">
        <ele>141.659862</ele>
        <time>2021-09-14T09:20:36.000Z</time>
      </trkpt>
      <trkpt lat="45.30734" lon="4.79186">
        <ele>141.720644</ele>
        <time>2021-09-14T09:20:39.000Z</time>
      </trkpt>
      <trkpt lat="45.30733" lon="4.79208">
        <ele>141.779965</ele>
        <time>2021-09-14T09:20:42.000Z</time>
      </trkpt>
      <trkpt lat="45.30733" lon="4.79216">
        <ele>141.800674</ele>
        <time>2021-09-14T09:20:43.000Z</time>
      </trkpt>
      <trkpt lat="45.30738" lon="4.79249">
        <ele>141.889861</ele>
        <time>2021-09-14T09:20:48.000Z</time>
      </trkpt>
      <trkpt lat="45.30738" lon="4.79297">
        <ele>142.015714</ele>
        <time>2021-09-14T09:20:56.000Z</time>
      </trkpt>
      <trkpt lat="45.30737" lon="4.79345">
        <ele>142.143695</ele>
        <time>2021-09-14T09:21:04.000Z</time>
      </trkpt>
      <trkpt lat="45.30737" lon="4.79358">
        <ele>142.178597</ele>
        <time>2021-09-14T09:21:06.000Z</time>
      </trkpt>
      <trkpt lat="45.30741" lon="4.79375">
        <ele>142.224163</ele>
        <time>2021-09-14T09:21:09.000Z</time>
      </trkpt>
      <trkpt lat="45.30745" lon="4.79398">
        <ele>142.288356</ele>
        <time>2021-09-14T09:21:14.000Z</time>
      </trkpt>
      <trkpt lat="45.3075" lon="4.79418">
        <ele>142.407516</ele>
        <time>2021-09-14T09:21:18.000Z</time>
      </trkpt>
      <trkpt lat="45.30751" lon="4.79422">
        <ele>142.434443</ele>
        <time>2021-09-14T09:21:19.000Z</time>
      </trkpt>
      <trkpt lat="45.30741" lon="4.79432">
        <ele>142.539272</ele>
        <time>2021-09-14T09:21:23.000Z</time>
      </trkpt>
      <trkpt lat="45.30729" lon="4.79441">
        <ele>142.655954</ele>
        <time>2021-09-14T09:21:28.000Z</time>
      </trkpt>
      <trkpt lat="45.3071" lon="4.79455">
        <ele>142.843832</ele>
        <time>2021-09-14T09:21:35.000Z</time>
      </trkpt>
      <trkpt lat="45.30689" lon="4.7947">
        <ele>143.048259</ele>
        <time>2021-09-14T09:21:43.000Z</time>
      </trkpt>
      <trkpt lat="45.30662" lon="4.7949">
        <ele>143.313533</ele>
        <time>2021-09-14T09:21:53.000Z</time>
      </trkpt>
      <trkpt lat="45.3064" lon="4.79512">
        <ele>143.546686</ele>
        <time>2021-09-14T09:22:02.000Z</time>
      </trkpt>
      <trkpt lat="45.30628" lon="4.79537">
        <ele>143.729788</ele>
        <time>2021-09-14T09:22:09.000Z</time>
      </trkpt>
      <trkpt lat="45.30621" lon="4.79569">
        <ele>143.999927</ele>
        <time>2021-09-14T09:22:17.000Z</time>
      </trkpt>
      <trkpt lat="45.30622" lon="4.796">
        <ele>144.357824</ele>
        <time>2021-09-14T09:22:24.000Z</time>
      </trkpt>
      <trkpt lat="45.30631" lon="4.79634">
        <ele>144.778711</ele>
        <time>2021-09-14T09:22:31.000Z</time>
      </trkpt>
      <trkpt lat="45.30647" lon="4.79677">
        <ele>145.351477</ele>
        <time>2021-09-14T09:22:39.000Z</time>
      </trkpt>
      <trkpt lat="45.30664" lon="4.79722">
        <ele>145.938625</ele>
        <time>2021-09-14T09:22:47.000Z</time>
      </trkpt>
      <trkpt lat="45.30679" lon="4.79763">
        <ele>146.476972</ele>
        <time>2021-09-14T09:22:54.000Z</time>
      </trkpt>
      <trkpt lat="45.307" lon="4.79818">
        <ele>146.876721</ele>
        <time>2021-09-14T09:23:03.000Z</time>
      </trkpt>
      <trkpt lat="45.30716" lon="4.79862">
        <ele>146.943139</ele>
        <time>2021-09-14T09:23:10.000Z</time>
      </trkpt>
      <trkpt lat="45.30736" lon="4.79917">
        <ele>147.026287</ele>
        <time>2021-09-14T09:23:18.000Z</time>
      </trkpt>
      <trkpt lat="45.30755" lon="4.79967">
        <ele>147.102345</ele>
        <time>2021-09-14T09:23:25.000Z</time>
      </trkpt>
      <trkpt lat="45.30771" lon="4.80015">
        <ele>147.173079</ele>
        <time>2021-09-14T09:23:31.000Z</time>
      </trkpt>
      <trkpt lat="45.30784" lon="4.80074">
        <ele>146.264776</ele>
        <time>2021-09-14T09:23:38.000Z</time>
      </trkpt>
      <trkpt lat="45.30792" lon="4.80128">
        <ele>145.424015</ele>
        <time>2021-09-14T09:23:44.000Z</time>
      </trkpt>
      <trkpt lat="45.30793" lon="4.80143">
        <ele>145.194879</ele>
        <time>2021-09-14T09:23:46.000Z</time>
      </trkpt>
      <trkpt lat="45.30794" lon="4.80158">
        <ele>144.959098</ele>
        <time>2021-09-14T09:23:48.000Z</time>
      </trkpt>
      <trkpt lat="45.30786" lon="4.80172">
        <ele>144.688877</ele>
        <time>2021-09-14T09:23:50.000Z</time>
      </trkpt>
      <trkpt lat="45.30781" lon="4.80176">
        <ele>144.564368</ele>
        <time>2021-09-14T09:23:51.000Z</time>
      </trkpt>
      <trkpt lat="45.30776" lon="4.8018">
        <ele>144.437226</ele>
        <time>2021-09-14T09:23:52.000Z</time>
      </trkpt>
      <trkpt lat="45.30769" lon="4.80185">
        <ele>144.268813</ele>
        <time>2021-09-14T09:23:54.000Z</time>
      </trkpt>
      <trkpt lat="45.30769" lon="4.80181">
        <ele>144.201378</ele>
        <time>2021-09-14T09:23:56.000Z</time>
      </trkpt>
      <trkpt lat="45.30768" lon="4.80175">
        <ele>144.116972</ele>
        <time>2021-09-14T09:24:00.000Z</time>
      </trkpt>
      <trkpt lat="45.30768" lon="4.80165">
        <ele>143.957778</ele>
        <time>2021-09-14T09:24:04.000Z</time>
      </trkpt>
      <trkpt lat="45.30767" lon="4.80152">
        <ele>143.76171</ele>
        <time>2021-09-14T09:24:07.000Z</time>
      </trkpt>
      <trkpt lat="45.30767" lon="4.80149">
        <ele>143.70648</ele>
        <time>2021-09-14T09:24:08.000Z</time>
      </trkpt>
      <trkpt lat="45.30757" lon="4.80151">
        <ele>143.490481</ele>
        <time>2021-09-14T09:24:11.000Z</time>
      </trkpt>
      <trkpt lat="45.30739" lon="4.80163">
        <ele>143.01613</ele>
        <time>2021-09-14T09:24:16.000Z</time>
      </trkpt>
      <trkpt lat="45.30725" lon="4.80173">
        <ele>142.631159</ele>
        <time>2021-09-14T09:24:20.000Z</time>
      </trkpt>
      <trkpt lat="45.30717" lon="4.80178">
        <ele>142.425008</ele>
        <time>2021-09-14T09:24:22.000Z</time>
      </trkpt>
      <trkpt lat="45.30704" lon="4.80188">
        <ele>142.061432</ele>
        <time>2021-09-14T09:24:25.000Z</time>
      </trkpt>
      <trkpt lat="45.30685" lon="4.80201">
        <ele>141.553082</ele>
        <time>2021-09-14T09:24:29.000Z</time>
      </trkpt>
      <trkpt lat="45.30656" lon="4.80223">
        <ele>140.739565</ele>
        <time>2021-09-14T09:24:35.000Z</time>
      </trkpt>
      <trkpt lat="45.30625" lon="4.80246">
        <ele>139.876965</ele>
        <time>2021-09-14T09:24:41.000Z</time>
      </trkpt>
      <trkpt lat="45.3062" lon="4.80249">
        <ele>139.752803</ele>
        <time>2021-09-14T09:24:42.000Z</time>
      </trkpt>
      <trkpt lat="45.30601" lon="4.80263">
        <ele>139.230212</ele>
        <time>2021-09-14T09:24:46.000Z</time>
      </trkpt>
      <trkpt lat="45.30571" lon="4.80286">
        <ele>138.573677</ele>
        <time>2021-09-14T09:24:52.000Z</time>
      </trkpt>
      <trkpt lat="45.30539" lon="4.80309">
        <ele>138.041639</ele>
        <time>2021-09-14T09:24:58.000Z</time>
      </trkpt>
      <trkpt lat="45.30513" lon="4.80328">
        <ele>137.606858</ele>
        <time>2021-09-14T09:25:03.000Z</time>
      </trkpt>
      <trkpt lat="45.30497" lon="4.8034">
        <ele>137.346392</ele>
        <time>2021-09-14T09:25:06.000Z</time>
      </trkpt>
      <trkpt lat="45.30487" lon="4.80347">
        <ele>137.1796</ele>
        <time>2021-09-14T09:25:08.000Z</time>
      </trkpt>
      <trkpt lat="45.30469" lon="4.80361">
        <ele>136.8674</ele>
        <time>2021-09-14T09:25:12.000Z</time>
      </trkpt>
      <trkpt lat="45.30459" lon="4.80368">
        <ele>136.712196</ele>
        <time>2021-09-14T09:25:14.000Z</time>
      </trkpt>
      <trkpt lat="45.30442" lon="4.80379">
        <ele>136.435422</ele>
        <time>2021-09-14T09:25:18.000Z</time>
      </trkpt>
      <trkpt lat="45.30426" lon="4.80388">
        <ele>136.193118</ele>
        <time>2021-09-14T09:25:22.000Z</time>
      </trkpt>
      <trkpt lat="45.30414" lon="4.80393">
        <ele>136.188101</ele>
        <time>2021-09-14T09:25:25.000Z</time>
      </trkpt>
      <trkpt lat="45.30405" lon="4.80396">
        <ele>136.184731</ele>
        <time>2021-09-14T09:25:27.000Z</time>
      </trkpt>
      <trkpt lat="45.30396" lon="4.80397">
        <ele>136.181191</ele>
        <time>2021-09-14T09:25:29.000Z</time>
      </trkpt>
      <trkpt lat="45.30386" lon="4.80396">
        <ele>136.177558</ele>
        <time>2021-09-14T09:25:31.000Z</time>
      </trkpt>
      <trkpt lat="45.30376" lon="4.80395">
        <ele>136.173686</ele>
        <time>2021-09-14T09:25:33.000Z</time>
      </trkpt>
      <trkpt lat="45.30366" lon="4.80391">
        <ele>136.169612</ele>
        <time>2021-09-14T09:25:35.000Z</time>
      </trkpt>
      <trkpt lat="45.3036" lon="4.80389">
        <ele>136.167312</ele>
        <time>2021-09-14T09:25:36.000Z</time>
      </trkpt>
      <trkpt lat="45.30337" lon="4.80368">
        <ele>136.157087</ele>
        <time>2021-09-14T09:25:41.000Z</time>
      </trkpt>
      <trkpt lat="45.30291" lon="4.8033">
        <ele>136.136855</ele>
        <time>2021-09-14T09:25:51.000Z</time>
      </trkpt>
      <trkpt lat="45.30256" lon="4.80312">
        <ele>136.143584</ele>
        <time>2021-09-14T09:25:58.000Z</time>
      </trkpt>
      <trkpt lat="45.3024" lon="4.80307">
        <ele>136.192209</ele>
        <time>2021-09-14T09:26:01.000Z</time>
      </trkpt>
      <trkpt lat="45.3023" lon="4.80305">
        <ele>136.223499</ele>
        <time>2021-09-14T09:26:03.000Z</time>
      </trkpt>
      <trkpt lat="45.30205" lon="4.80303">
        <ele>136.298568</ele>
        <time>2021-09-14T09:26:08.000Z</time>
      </trkpt>
      <trkpt lat="45.30201" lon="4.80304">
        <ele>136.312069</ele>
        <time>2021-09-14T09:26:09.000Z</time>
      </trkpt>
      <trkpt lat="45.30178" lon="4.80312">
        <ele>136.384609</ele>
        <time>2021-09-14T09:26:14.000Z</time>
      </trkpt>
      <trkpt lat="45.30173" lon="4.80314">
        <ele>136.39921</ele>
        <time>2021-09-14T09:26:15.000Z</time>
      </trkpt>
      <trkpt lat="45.30156" lon="4.80328">
        <ele>136.458748</ele>
        <time>2021-09-14T09:26:19.000Z</time>
      </trkpt>
      <trkpt lat="45.30152" lon="4.80332">
        <ele>136.474266</ele>
        <time>2021-09-14T09:26:20.000Z</time>
      </trkpt>
      <trkpt lat="45.30139" lon="4.80345">
        <ele>136.52119</ele>
        <time>2021-09-14T09:26:23.000Z</time>
      </trkpt>
      <trkpt lat="45.3013" lon="4.80353">
        <ele>136.553335</ele>
        <time>2021-09-14T09:26:25.000Z</time>
      </trkpt>
      <trkpt lat="45.30105" lon="4.80378">
        <ele>136.644845</ele>
        <time>2021-09-14T09:26:30.000Z</time>
      </trkpt>
      <trkpt lat="45.30078" lon="4.80407">
        <ele>136.578539</ele>
        <time>2021-09-14T09:26:35.000Z</time>
      </trkpt>
      <trkpt lat="45.30051" lon="4.80434">
        <ele>136.466074</ele>
        <time>2021-09-14T09:26:40.000Z</time>
      </trkpt>
      <trkpt lat="45.3002" lon="4.80466">
        <ele>136.336553</ele>
        <time>2021-09-14T09:26:46.000Z</time>
      </trkpt>
      <trkpt lat="45.29985" lon="4.80502">
        <ele>136.189832</ele>
        <time>2021-09-14T09:26:53.000Z</time>
      </trkpt>
      <trkpt lat="45.29949" lon="4.80538">
        <ele>136.046984</ele>
        <time>2021-09-14T09:27:00.000Z</time>
      </trkpt>
      <trkpt lat="45.29916" lon="4.80573">
        <ele>135.966238</ele>
        <time>2021-09-14T09:27:07.000Z</time>
      </trkpt>
      <trkpt lat="45.29888" lon="4.80603">
        <ele>135.897894</ele>
        <time>2021-09-14T09:27:13.000Z</time>
      </trkpt>
      <trkpt lat="45.2988" lon="4.80612">
        <ele>135.876044</ele>
        <time>2021-09-14T09:27:15.000Z</time>
      </trkpt>
      <trkpt lat="45.29865" lon="4.80627">
        <ele>135.841471</ele>
        <time>2021-09-14T09:27:18.000Z</time>
      </trkpt>
      <trkpt lat="45.29842" lon="4.80654">
        <ele>135.782686</ele>
        <time>2021-09-14T09:27:23.000Z</time>
      </trkpt>
      <trkpt lat="45.29833" lon="4.80663">
        <ele>135.760679</ele>
        <time>2021-09-14T09:27:25.000Z</time>
      </trkpt>
      <trkpt lat="45.2982" lon="4.80676">
        <ele>135.729787</ele>
        <time>2021-09-14T09:27:28.000Z</time>
      </trkpt>
      <trkpt lat="45.29786" lon="4.80713">
        <ele>135.851115</ele>
        <time>2021-09-14T09:27:36.000Z</time>
      </trkpt>
      <trkpt lat="45.29778" lon="4.80722">
        <ele>135.904669</ele>
        <time>2021-09-14T09:27:38.000Z</time>
      </trkpt>
      <trkpt lat="45.2976" lon="4.8074">
        <ele>136.017784</ele>
        <time>2021-09-14T09:27:42.000Z</time>
      </trkpt>
      <trkpt lat="45.29733" lon="4.80768">
        <ele>136.186697</ele>
        <time>2021-09-14T09:27:48.000Z</time>
      </trkpt>
      <trkpt lat="45.29708" lon="4.80792">
        <ele>136.343026</ele>
        <time>2021-09-14T09:27:54.000Z</time>
      </trkpt>
      <trkpt lat="45.29681" lon="4.80817">
        <ele>136.504757</ele>
        <time>2021-09-14T09:28:01.000Z</time>
      </trkpt>
      <trkpt lat="45.29675" lon="4.80823">
        <ele>136.542743</ele>
        <time>2021-09-14T09:28:03.000Z</time>
      </trkpt>
      <trkpt lat="45.29669" lon="4.80836">
        <ele>136.59813</ele>
        <time>2021-09-14T09:28:04.000Z</time>
      </trkpt>
      <trkpt lat="45.29672" lon="4.80843">
        <ele>136.657414</ele>
        <time>2021-09-14T09:28:09.000Z</time>
      </trkpt>
      <trkpt lat="45.2967" lon="4.80828">
        <ele>136.875827</ele>
        <time>2021-09-14T09:28:11.000Z</time>
      </trkpt>
      <trkpt lat="45.29672" lon="4.80842">
        <ele>137.081593</ele>
        <time>2021-09-14T09:29:33.000Z</time>
      </trkpt>
      <trkpt lat="45.29673" lon="4.80844">
        <ele>137.107932</ele>
        <time>2021-09-14T09:29:34.000Z</time>
      </trkpt>
      <trkpt lat="45.29679" lon="4.80856">
        <ele>137.312781</ele>
        <time>2021-09-14T09:29:39.000Z</time>
      </trkpt>
      <trkpt lat="45.29686" lon="4.8087">
        <ele>137.569222</ele>
        <time>2021-09-14T09:29:45.000Z</time>
      </trkpt>
      <trkpt lat="45.29687" lon="4.80872">
        <ele>137.589821</ele>
        <time>2021-09-14T09:29:47.000Z</time>
      </trkpt>
      <trkpt lat="45.29689" lon="4.80875">
        <ele>137.645929</ele>
        <time>2021-09-14T09:29:53.000Z</time>
      </trkpt>
      <trkpt lat="45.29688" lon="4.8088">
        <ele>137.715235</ele>
        <time>2021-09-14T09:29:54.000Z</time>
      </trkpt>
      <trkpt lat="45.29685" lon="4.80882">
        <ele>137.779327</ele>
        <time>2021-09-14T09:29:57.000Z</time>
      </trkpt>
      <trkpt lat="45.2969" lon="4.80877">
        <ele>137.900987</ele>
        <time>2021-09-14T09:29:59.000Z</time>
      </trkpt>
      <trkpt lat="45.2969" lon="4.80877">
        <ele>137.900987</ele>
        <time>2021-09-14T09:30:04.000Z</time>
      </trkpt>
      <trkpt lat="45.2969" lon="4.80877">
        <ele>137.900987</ele>
        <time>2021-09-14T09:30:13.000Z</time>
      </trkpt>
      <trkpt lat="45.29697" lon="4.80917">
        <ele>138.4802</ele>
        <time>2021-09-14T09:30:21.000Z</time>
      </trkpt>
      <trkpt lat="45.29698" lon="4.80927">
        <ele>138.615709</ele>
        <time>2021-09-14T09:30:28.000Z</time>
      </trkpt>
      <trkpt lat="45.29699" lon="4.80935">
        <ele>138.729894</ele>
        <time>2021-09-14T09:30:34.000Z</time>
      </trkpt>
      <trkpt lat="45.29699" lon="4.80937">
        <ele>138.759277</ele>
        <time>2021-09-14T09:30:35.000Z</time>
      </trkpt>
      <trkpt lat="45.29697" lon="4.80947">
        <ele>138.909324</ele>
        <time>2021-09-14T09:30:39.000Z</time>
      </trkpt>
      <trkpt lat="45.29696" lon="4.80953">
        <ele>138.991061</ele>
        <time>2021-09-14T09:30:41.000Z</time>
      </trkpt>
      <trkpt lat="45.29693" lon="4.80952">
        <ele>139.045652</ele>
        <time>2021-09-14T09:30:43.000Z</time>
      </trkpt>
      <trkpt lat="45.29693" lon="4.80948">
        <ele>139.102182</ele>
        <time>2021-09-14T09:30:45.000Z</time>
      </trkpt>
      <trkpt lat="45.29694" lon="4.80947">
        <ele>139.133485</ele>
        <time>2021-09-14T09:30:46.000Z</time>
      </trkpt>
      <trkpt lat="45.29695" lon="4.80945">
        <ele>139.170266</ele>
        <time>2021-09-14T09:30:47.000Z</time>
      </trkpt>
      <trkpt lat="45.29699" lon="4.80931">
        <ele>139.37952</ele>
        <time>2021-09-14T09:30:52.000Z</time>
      </trkpt>
      <trkpt lat="45.29696" lon="4.80915">
        <ele>139.61472</ele>
        <time>2021-09-14T09:30:58.000Z</time>
      </trkpt>
      <trkpt lat="45.29695" lon="4.80911">
        <ele>139.664288</ele>
        <time>2021-09-14T09:30:59.000Z</time>
      </trkpt>
      <trkpt lat="45.29693" lon="4.80901">
        <ele>139.812445</ele>
        <time>2021-09-14T09:31:03.000Z</time>
      </trkpt>
      <trkpt lat="45.2969" lon="4.80877">
        <ele>140.150409</ele>
        <time>2021-09-14T09:31:10.000Z</time>
      </trkpt>
      <trkpt lat="45.29684" lon="4.80883">
        <ele>140.256218</ele>
        <time>2021-09-14T09:31:14.000Z</time>
      </trkpt>
      <trkpt lat="45.29672" lon="4.80895">
        <ele>140.421815</ele>
        <time>2021-09-14T09:31:19.000Z</time>
      </trkpt>
      <trkpt lat="45.29657" lon="4.80908">
        <ele>140.624171</ele>
        <time>2021-09-14T09:31:25.000Z</time>
      </trkpt>
      <trkpt lat="45.29643" lon="4.80921">
        <ele>140.811633</ele>
        <time>2021-09-14T09:31:30.000Z</time>
      </trkpt>
      <trkpt lat="45.29621" lon="4.80942">
        <ele>141.119129</ele>
        <time>2021-09-14T09:31:36.000Z</time>
      </trkpt>
      <trkpt lat="45.29607" lon="4.80955">
        <ele>141.305197</ele>
        <time>2021-09-14T09:31:41.000Z</time>
      </trkpt>
      <trkpt lat="45.29594" lon="4.80967">
        <ele>141.477716</ele>
        <time>2021-09-14T09:31:46.000Z</time>
      </trkpt>
      <trkpt lat="45.29579" lon="4.80983">
        <ele>141.698565</ele>
        <time>2021-09-14T09:31:52.000Z</time>
      </trkpt>
      <trkpt lat="45.29564" lon="4.80998">
        <ele>141.904071</ele>
        <time>2021-09-14T09:31:58.000Z</time>
      </trkpt>
      <trkpt lat="45.29542" lon="4.81019">
        <ele>142.203963</ele>
        <time>2021-09-14T09:32:06.000Z</time>
      </trkpt>
      <trkpt lat="45.29524" lon="4.81037">
        <ele>142.444779</ele>
        <time>2021-09-14T09:32:13.000Z</time>
      </trkpt>
      <trkpt lat="45.29498" lon="4.81059">
        <ele>142.758876</ele>
        <time>2021-09-14T09:32:22.000Z</time>
      </trkpt>
      <trkpt lat="45.29473" lon="4.81079">
        <ele>143.065906</ele>
        <time>2021-09-14T09:32:30.000Z</time>
      </trkpt>
      <trkpt lat="45.29453" lon="4.81096">
        <ele>143.309805</ele>
        <time>2021-09-14T09:32:36.000Z</time>
      </trkpt>
      <trkpt lat="45.29442" lon="4.81104">
        <ele>143.439555</ele>
        <time>2021-09-14T09:32:39.000Z</time>
      </trkpt>
      <trkpt lat="45.29428" lon="4.81116">
        <ele>143.611698</ele>
        <time>2021-09-14T09:32:43.000Z</time>
      </trkpt>
      <trkpt lat="45.29404" lon="4.81135">
        <ele>143.897991</ele>
        <time>2021-09-14T09:32:50.000Z</time>
      </trkpt>
      <trkpt lat="45.29383" lon="4.81151">
        <ele>144.146708</ele>
        <time>2021-09-14T09:32:57.000Z</time>
      </trkpt>
      <trkpt lat="45.2936" lon="4.81161">
        <ele>144.099487</ele>
        <time>2021-09-14T09:33:05.000Z</time>
      </trkpt>
      <trkpt lat="45.29334" lon="4.81171">
        <ele>144.048525</ele>
        <time>2021-09-14T09:33:13.000Z</time>
      </trkpt>
      <trkpt lat="45.29313" lon="4.81177">
        <ele>144.007195</ele>
        <time>2021-09-14T09:33:18.000Z</time>
      </trkpt>
      <trkpt lat="45.29308" lon="4.81179">
        <ele>143.998015</ele>
        <time>2021-09-14T09:33:19.000Z</time>
      </trkpt>
      <trkpt lat="45.29277" lon="4.81188">
        <ele>143.937581</ele>
        <time>2021-09-14T09:33:25.000Z</time>
      </trkpt>
      <trkpt lat="45.29237" lon="4.81201">
        <ele>143.860391</ele>
        <time>2021-09-14T09:33:32.000Z</time>
      </trkpt>
      <trkpt lat="45.29207" lon="4.8121">
        <ele>143.805924</ele>
        <time>2021-09-14T09:33:37.000Z</time>
      </trkpt>
      <trkpt lat="45.29165" lon="4.81223">
        <ele>143.852603</ele>
        <time>2021-09-14T09:33:45.000Z</time>
      </trkpt>
      <trkpt lat="45.29124" lon="4.81236">
        <ele>143.89688</ele>
        <time>2021-09-14T09:33:53.000Z</time>
      </trkpt>
      <trkpt lat="45.29115" lon="4.81239">
        <ele>143.907408</ele>
        <time>2021-09-14T09:33:55.000Z</time>
      </trkpt>
      <trkpt lat="45.29107" lon="4.81241">
        <ele>143.916524</ele>
        <time>2021-09-14T09:33:57.000Z</time>
      </trkpt>
      <trkpt lat="45.29103" lon="4.81242">
        <ele>143.92016</ele>
        <time>2021-09-14T09:33:58.000Z</time>
      </trkpt>
      <trkpt lat="45.29101" lon="4.81243">
        <ele>143.922143</ele>
        <time>2021-09-14T09:34:00.000Z</time>
      </trkpt>
      <trkpt lat="45.29103" lon="4.81266">
        <ele>143.939332</ele>
        <time>2021-09-14T09:34:04.000Z</time>
      </trkpt>
      <trkpt lat="45.29104" lon="4.81268">
        <ele>143.941469</ele>
        <time>2021-09-14T09:34:05.000Z</time>
      </trkpt>
      <trkpt lat="45.29105" lon="4.81276">
        <ele>143.947119</ele>
        <time>2021-09-14T09:34:07.000Z</time>
      </trkpt>
      <trkpt lat="45.29105" lon="4.81278">
        <ele>143.948662</ele>
        <time>2021-09-14T09:34:08.000Z</time>
      </trkpt>
      <trkpt lat="45.29105" lon="4.81286">
        <ele>143.954883</ele>
        <time>2021-09-14T09:34:11.000Z</time>
      </trkpt>
      <trkpt lat="45.29104" lon="4.81282">
        <ele>143.95814</ele>
        <time>2021-09-14T09:34:12.000Z</time>
      </trkpt>
      <trkpt lat="45.29105" lon="4.81282">
        <ele>143.958697</ele>
        <time>2021-09-14T09:34:14.000Z</time>
      </trkpt>
      <trkpt lat="45.29101" lon="4.81283">
        <ele>143.962632</ele>
        <time>2021-09-14T09:34:52.000Z</time>
      </trkpt>
      <trkpt lat="45.29099" lon="4.81283">
        <ele>143.964719</ele>
        <time>2021-09-14T09:34:53.000Z</time>
      </trkpt>
      <trkpt lat="45.29079" lon="4.81289">
        <ele>143.986614</ele>
        <time>2021-09-14T09:35:01.000Z</time>
      </trkpt>
      <trkpt lat="45.29062" lon="4.81297">
        <ele>144.306696</ele>
        <time>2021-09-14T09:35:08.000Z</time>
      </trkpt>
      <trkpt lat="45.2906" lon="4.8131">
        <ele>144.698843</ele>
        <time>2021-09-14T09:35:12.000Z</time>
      </trkpt>
      <trkpt lat="45.29064" lon="4.81339">
        <ele>145.527349</ele>
        <time>2021-09-14T09:35:20.000Z</time>
      </trkpt>
      <trkpt lat="45.29068" lon="4.81367">
        <ele>146.350235</ele>
        <time>2021-09-14T09:35:27.000Z</time>
      </trkpt>
      <trkpt lat="45.29072" lon="4.8139">
        <ele>147.025776</ele>
        <time>2021-09-14T09:35:33.000Z</time>
      </trkpt>
      <trkpt lat="45.29076" lon="4.81408">
        <ele>147.573262</ele>
        <time>2021-09-14T09:35:39.000Z</time>
      </trkpt>
      <trkpt lat="45.29077" lon="4.81411">
        <ele>147.669594</ele>
        <time>2021-09-14T09:35:44.000Z</time>
      </trkpt>
      <trkpt lat="45.2908" lon="4.8141">
        <ele>147.819458</ele>
        <time>2021-09-14T09:35:48.000Z</time>
      </trkpt>
      <trkpt lat="45.29082" lon="4.81409">
        <ele>147.879617</ele>
        <time>2021-09-14T09:35:49.000Z</time>
      </trkpt>
      <trkpt lat="45.29092" lon="4.81405">
        <ele>148.318867</ele>
        <time>2021-09-14T09:35:54.000Z</time>
      </trkpt>
      <trkpt lat="45.29106" lon="4.814">
        <ele>148.897087</ele>
        <time>2021-09-14T09:36:00.000Z</time>
      </trkpt>
      <trkpt lat="45.29119" lon="4.81396">
        <ele>149.445224</ele>
        <time>2021-09-14T09:36:05.000Z</time>
      </trkpt>
      <trkpt lat="45.29129" lon="4.81396">
        <ele>149.836608</ele>
        <time>2021-09-14T09:36:11.000Z</time>
      </trkpt>
      <trkpt lat="45.29129" lon="4.81395">
        <ele>149.869667</ele>
        <time>2021-09-14T09:36:13.000Z</time>
      </trkpt>
      <trkpt lat="45.29132" lon="4.81395">
        <ele>149.984199</ele>
        <time>2021-09-14T09:36:18.000Z</time>
      </trkpt>
      <trkpt lat="45.29134" lon="4.81395">
        <ele>150.041822</ele>
        <time>2021-09-14T09:36:19.000Z</time>
      </trkpt>
      <trkpt lat="45.29145" lon="4.81392">
        <ele>150.491181</ele>
        <time>2021-09-14T09:36:25.000Z</time>
      </trkpt>
      <trkpt lat="45.29164" lon="4.81388">
        <ele>151.280099</ele>
        <time>2021-09-14T09:36:33.000Z</time>
      </trkpt>
      <trkpt lat="45.29174" lon="4.81385">
        <ele>151.61904</ele>
        <time>2021-09-14T09:36:39.000Z</time>
      </trkpt>
      <trkpt lat="45.29188" lon="4.81381">
        <ele>152.080748</ele>
        <time>2021-09-14T09:36:45.000Z</time>
      </trkpt>
      <trkpt lat="45.29208" lon="4.81375">
        <ele>152.714357</ele>
        <time>2021-09-14T09:36:53.000Z</time>
      </trkpt>
      <trkpt lat="45.29223" lon="4.81371">
        <ele>153.18754</ele>
        <time>2021-09-14T09:36:59.000Z</time>
      </trkpt>
      <trkpt lat="45.2924" lon="4.81366">
        <ele>153.743972</ele>
        <time>2021-09-14T09:37:06.000Z</time>
      </trkpt>
      <trkpt lat="45.29253" lon="4.81363">
        <ele>154.16117</ele>
        <time>2021-09-14T09:37:11.000Z</time>
      </trkpt>
      <trkpt lat="45.29264" lon="4.81359">
        <ele>154.494422</ele>
        <time>2021-09-14T09:37:17.000Z</time>
      </trkpt>
      <trkpt lat="45.29283" lon="4.81353">
        <ele>155.125716</ele>
        <time>2021-09-14T09:37:25.000Z</time>
      </trkpt>
      <trkpt lat="45.29309" lon="4.81344">
        <ele>155.970848</ele>
        <time>2021-09-14T09:37:33.000Z</time>
      </trkpt>
      <trkpt lat="45.29332" lon="4.81336">
        <ele>156.725134</ele>
        <time>2021-09-14T09:37:39.000Z</time>
      </trkpt>
      <trkpt lat="45.29353" lon="4.81329">
        <ele>157.194544</ele>
        <time>2021-09-14T09:37:44.000Z</time>
      </trkpt>
      <trkpt lat="45.2935" lon="4.8132">
        <ele>157.299098</ele>
        <time>2021-09-14T09:37:46.000Z</time>
      </trkpt>
      <trkpt lat="45.29342" lon="4.8132">
        <ele>157.438174</ele>
        <time>2021-09-14T09:37:50.000Z</time>
      </trkpt>
      <trkpt lat="45.29329" lon="4.81324">
        <ele>157.659115</ele>
        <time>2021-09-14T09:37:55.000Z</time>
      </trkpt>
      <trkpt lat="45.29314" lon="4.8133">
        <ele>157.917771</ele>
        <time>2021-09-14T09:38:01.000Z</time>
      </trkpt>
      <trkpt lat="45.29297" lon="4.81336">
        <ele>158.212804</ele>
        <time>2021-09-14T09:38:07.000Z</time>
      </trkpt>
      <trkpt lat="45.2928" lon="4.81342">
        <ele>158.506214</ele>
        <time>2021-09-14T09:38:13.000Z</time>
      </trkpt>
      <trkpt lat="45.29277" lon="4.81343">
        <ele>158.561597</ele>
        <time>2021-09-14T09:38:16.000Z</time>
      </trkpt>
      <trkpt lat="45.29274" lon="4.81344">
        <ele>158.621847</ele>
        <time>2021-09-14T09:38:18.000Z</time>
      </trkpt>
      <trkpt lat="45.29271" lon="4.81345">
        <ele>158.665004</ele>
        <time>2021-09-14T09:38:20.000Z</time>
      </trkpt>
      <trkpt lat="45.29268" lon="4.81346">
        <ele>158.709785</ele>
        <time>2021-09-14T09:38:22.000Z</time>
      </trkpt>
      <trkpt lat="45.29255" lon="4.81352">
        <ele>158.938514</ele>
        <time>2021-09-14T09:38:28.000Z</time>
      </trkpt>
      <trkpt lat="45.29251" lon="4.81355">
        <ele>159.019187</ele>
        <time>2021-09-14T09:38:33.000Z</time>
      </trkpt>
      <trkpt lat="45.29246" lon="4.81358">
        <ele>159.105894</ele>
        <time>2021-09-14T09:38:38.000Z</time>
      </trkpt>
      <trkpt lat="45.29236" lon="4.81365">
        <ele>159.300994</ele>
        <time>2021-09-14T09:38:44.000Z</time>
      </trkpt>
      <trkpt lat="45.29221" lon="4.81372">
        <ele>159.561281</ele>
        <time>2021-09-14T09:38:50.000Z</time>
      </trkpt>
      <trkpt lat="45.29197" lon="4.81378">
        <ele>159.970356</ele>
        <time>2021-09-14T09:38:58.000Z</time>
      </trkpt>
      <trkpt lat="45.29178" lon="4.81383">
        <ele>159.102035</ele>
        <time>2021-09-14T09:39:05.000Z</time>
      </trkpt>
      <trkpt lat="45.29168" lon="4.81386">
        <ele>158.588863</ele>
        <time>2021-09-14T09:39:10.000Z</time>
      </trkpt>
      <trkpt lat="45.29163" lon="4.81388">
        <ele>158.344236</ele>
        <time>2021-09-14T09:39:12.000Z</time>
      </trkpt>
      <trkpt lat="45.29157" lon="4.81389">
        <ele>158.059646</ele>
        <time>2021-09-14T09:39:14.000Z</time>
      </trkpt>
      <trkpt lat="45.29144" lon="4.81392">
        <ele>157.40994</ele>
        <time>2021-09-14T09:39:19.000Z</time>
      </trkpt>
      <trkpt lat="45.29134" lon="4.81395">
        <ele>156.876996</ele>
        <time>2021-09-14T09:39:25.000Z</time>
      </trkpt>
      <trkpt lat="45.29128" lon="4.81396">
        <ele>156.599316</ele>
        <time>2021-09-14T09:39:32.000Z</time>
      </trkpt>
      <trkpt lat="45.29125" lon="4.81396">
        <ele>156.465759</ele>
        <time>2021-09-14T09:39:36.000Z</time>
      </trkpt>
      <trkpt lat="45.29125" lon="4.81396">
        <ele>156.426248</ele>
        <time>2021-09-14T09:45:40.000Z</time>
      </trkpt>
      <trkpt lat="45.29117" lon="4.81396">
        <ele>156.037514</ele>
        <time>2021-09-14T09:45:45.000Z</time>
      </trkpt>
      <trkpt lat="45.29108" lon="4.81399">
        <ele>155.612227</ele>
        <time>2021-09-14T09:45:51.000Z</time>
      </trkpt>
      <trkpt lat="45.29106" lon="4.81389">
        <ele>155.248081</ele>
        <time>2021-09-14T09:45:58.000Z</time>
      </trkpt>
      <trkpt lat="45.29102" lon="4.81387">
        <ele>155.033119</ele>
        <time>2021-09-14T09:46:04.000Z</time>
      </trkpt>
      <trkpt lat="45.29078" lon="4.81371">
        <ele>153.727216</ele>
        <time>2021-09-14T10:03:06.000Z</time>
      </trkpt>
      <trkpt lat="45.29073" lon="4.81368">
        <ele>153.468661</ele>
        <time>2021-09-14T10:03:08.000Z</time>
      </trkpt>
      <trkpt lat="45.29066" lon="4.81356">
        <ele>152.927494</ele>
        <time>2021-09-14T10:03:13.000Z</time>
      </trkpt>
      <trkpt lat="45.29063" lon="4.81334">
        <ele>152.166381</ele>
        <time>2021-09-14T10:03:18.000Z</time>
      </trkpt>
      <trkpt lat="45.2906" lon="4.81312">
        <ele>151.372815</ele>
        <time>2021-09-14T10:03:22.000Z</time>
      </trkpt>
      <trkpt lat="45.2906" lon="4.81307">
        <ele>151.185196</ele>
        <time>2021-09-14T10:03:23.000Z</time>
      </trkpt>
      <trkpt lat="45.29061" lon="4.81301">
        <ele>150.980285</ele>
        <time>2021-09-14T10:03:24.000Z</time>
      </trkpt>
      <trkpt lat="45.29066" lon="4.81293">
        <ele>150.598629</ele>
        <time>2021-09-14T10:03:26.000Z</time>
      </trkpt>
      <trkpt lat="45.29091" lon="4.81286">
        <ele>149.401862</ele>
        <time>2021-09-14T10:03:31.000Z</time>
      </trkpt>
      <trkpt lat="45.29101" lon="4.81283">
        <ele>148.925557</ele>
        <time>2021-09-14T10:03:33.000Z</time>
      </trkpt>
      <trkpt lat="45.29104" lon="4.81282">
        <ele>148.765445</ele>
        <time>2021-09-14T10:03:34.000Z</time>
      </trkpt>
      <trkpt lat="45.29104" lon="4.8127">
        <ele>148.366423</ele>
        <time>2021-09-14T10:03:36.000Z</time>
      </trkpt>
      <trkpt lat="45.29103" lon="4.8126">
        <ele>148.006522</ele>
        <time>2021-09-14T10:03:38.000Z</time>
      </trkpt>
      <trkpt lat="45.29102" lon="4.81251">
        <ele>147.731631</ele>
        <time>2021-09-14T10:03:40.000Z</time>
      </trkpt>
      <trkpt lat="45.29101" lon="4.81248">
        <ele>147.616074</ele>
        <time>2021-09-14T10:03:42.000Z</time>
      </trkpt>
      <trkpt lat="45.29101" lon="4.81243">
        <ele>147.446781</ele>
        <time>2021-09-14T10:03:57.000Z</time>
      </trkpt>
      <trkpt lat="45.29101" lon="4.81243">
        <ele>147.446781</ele>
        <time>2021-09-14T10:03:59.000Z</time>
      </trkpt>
      <trkpt lat="45.29101" lon="4.81243">
        <ele>147.446781</ele>
        <time>2021-09-14T10:04:05.000Z</time>
      </trkpt>
      <trkpt lat="45.29101" lon="4.81243">
        <ele>147.446781</ele>
        <time>2021-09-14T10:04:11.000Z</time>
      </trkpt>
      <trkpt lat="45.29088" lon="4.81177">
        <ele>145.147975</ele>
        <time>2021-09-14T10:04:17.000Z</time>
      </trkpt>
      <trkpt lat="45.29085" lon="4.81161">
        <ele>144.595482</ele>
        <time>2021-09-14T10:04:23.000Z</time>
      </trkpt>
      <trkpt lat="45.2908" lon="4.81145">
        <ele>144.000971</ele>
        <time>2021-09-14T10:04:29.000Z</time>
      </trkpt>
      <trkpt lat="45.29077" lon="4.81127">
        <ele>143.409021</ele>
        <time>2021-09-14T10:04:35.000Z</time>
      </trkpt>
      <trkpt lat="45.29075" lon="4.8111">
        <ele>142.825381</ele>
        <time>2021-09-14T10:04:41.000Z</time>
      </trkpt>
      <trkpt lat="45.29075" lon="4.81102">
        <ele>142.558645</ele>
        <time>2021-09-14T10:04:44.000Z</time>
      </trkpt>
      <trkpt lat="45.29075" lon="4.81103">
        <ele>142.547435</ele>
        <time>2021-09-14T10:04:45.000Z</time>
      </trkpt>
      <trkpt lat="45.29075" lon="4.81102">
        <ele>142.537501</ele>
        <time>2021-09-14T10:04:46.000Z</time>
      </trkpt>
      <trkpt lat="45.29072" lon="4.81102">
        <ele>142.497072</ele>
        <time>2021-09-14T10:04:48.000Z</time>
      </trkpt>
      <trkpt lat="45.29062" lon="4.81103">
        <ele>142.37182</ele>
        <time>2021-09-14T10:04:53.000Z</time>
      </trkpt>
      <trkpt lat="45.29048" lon="4.81105">
        <ele>142.189242</ele>
        <time>2021-09-14T10:04:59.000Z</time>
      </trkpt>
      <trkpt lat="45.29037" lon="4.81107">
        <ele>142.044422</ele>
        <time>2021-09-14T10:05:04.000Z</time>
      </trkpt>
      <trkpt lat="45.29023" lon="4.81108">
        <ele>141.863052</ele>
        <time>2021-09-14T10:05:09.000Z</time>
      </trkpt>
      <trkpt lat="45.28995" lon="4.8111">
        <ele>141.496328</ele>
        <time>2021-09-14T10:05:17.000Z</time>
      </trkpt>
      <trkpt lat="45.28963" lon="4.81112">
        <ele>141.07515</ele>
        <time>2021-09-14T10:05:25.000Z</time>
      </trkpt>
      <trkpt lat="45.28935" lon="4.81114">
        <ele>140.711147</ele>
        <time>2021-09-14T10:05:31.000Z</time>
      </trkpt>
      <trkpt lat="45.28896" lon="4.81116">
        <ele>140.216994</ele>
        <time>2021-09-14T10:05:39.000Z</time>
      </trkpt>
      <trkpt lat="45.28878" lon="4.81118">
        <ele>140.041643</ele>
        <time>2021-09-14T10:05:43.000Z</time>
      </trkpt>
      <trkpt lat="45.28869" lon="4.81118">
        <ele>139.947667</ele>
        <time>2021-09-14T10:05:45.000Z</time>
      </trkpt>
      <trkpt lat="45.28845" lon="4.8112">
        <ele>139.714206</ele>
        <time>2021-09-14T10:05:50.000Z</time>
      </trkpt>
      <trkpt lat="45.2883" lon="4.8112">
        <ele>139.573726</ele>
        <time>2021-09-14T10:05:53.000Z</time>
      </trkpt>
      <trkpt lat="45.28798" lon="4.81118">
        <ele>139.261631</ele>
        <time>2021-09-14T10:06:00.000Z</time>
      </trkpt>
      <trkpt lat="45.28794" lon="4.81118">
        <ele>139.219872</ele>
        <time>2021-09-14T10:06:01.000Z</time>
      </trkpt>
      <trkpt lat="45.28776" lon="4.81116">
        <ele>139.05299</ele>
        <time>2021-09-14T10:06:05.000Z</time>
      </trkpt>
      <trkpt lat="45.28772" lon="4.81115">
        <ele>139.01128</ele>
        <time>2021-09-14T10:06:06.000Z</time>
      </trkpt>
      <trkpt lat="45.28759" lon="4.81116">
        <ele>138.881493</ele>
        <time>2021-09-14T10:06:09.000Z</time>
      </trkpt>
      <trkpt lat="45.28749" lon="4.81117">
        <ele>138.789479</ele>
        <time>2021-09-14T10:06:11.000Z</time>
      </trkpt>
      <trkpt lat="45.28719" lon="4.81118">
        <ele>138.498876</ele>
        <time>2021-09-14T10:06:17.000Z</time>
      </trkpt>
      <trkpt lat="45.28714" lon="4.81119">
        <ele>138.463569</ele>
        <time>2021-09-14T10:06:18.000Z</time>
      </trkpt>
      <trkpt lat="45.28688" lon="4.8112">
        <ele>138.292736</ele>
        <time>2021-09-14T10:06:23.000Z</time>
      </trkpt>
      <trkpt lat="45.28664" lon="4.81122">
        <ele>138.133031</ele>
        <time>2021-09-14T10:06:28.000Z</time>
      </trkpt>
      <trkpt lat="45.28658" lon="4.81122">
        <ele>138.097034</ele>
        <time>2021-09-14T10:06:29.000Z</time>
      </trkpt>
      <trkpt lat="45.2863" lon="4.81123">
        <ele>137.911153</ele>
        <time>2021-09-14T10:06:35.000Z</time>
      </trkpt>
      <trkpt lat="45.28611" lon="4.81123">
        <ele>137.790817</ele>
        <time>2021-09-14T10:06:39.000Z</time>
      </trkpt>
      <trkpt lat="45.28598" lon="4.8112">
        <ele>137.702439</ele>
        <time>2021-09-14T10:06:42.000Z</time>
      </trkpt>
      <trkpt lat="45.28581" lon="4.81112">
        <ele>137.583118</ele>
        <time>2021-09-14T10:06:46.000Z</time>
      </trkpt>
      <trkpt lat="45.28571" lon="4.81112">
        <ele>137.519654</ele>
        <time>2021-09-14T10:06:48.000Z</time>
      </trkpt>
      <trkpt lat="45.28561" lon="4.81111">
        <ele>137.456189</ele>
        <time>2021-09-14T10:06:50.000Z</time>
      </trkpt>
      <trkpt lat="45.28553" lon="4.81111">
        <ele>137.399261</ele>
        <time>2021-09-14T10:06:52.000Z</time>
      </trkpt>
      <trkpt lat="45.28548" lon="4.81111">
        <ele>137.372432</ele>
        <time>2021-09-14T10:06:53.000Z</time>
      </trkpt>
      <trkpt lat="45.28544" lon="4.81111">
        <ele>137.346256</ele>
        <time>2021-09-14T10:06:54.000Z</time>
      </trkpt>
      <trkpt lat="45.28528" lon="4.8111">
        <ele>137.231275</ele>
        <time>2021-09-14T10:06:58.000Z</time>
      </trkpt>
      <trkpt lat="45.28498" lon="4.81108">
        <ele>137.01347</ele>
        <time>2021-09-14T10:07:05.000Z</time>
      </trkpt>
      <trkpt lat="45.28461" lon="4.81104">
        <ele>136.747683</ele>
        <time>2021-09-14T10:07:12.000Z</time>
      </trkpt>
      <trkpt lat="45.28426" lon="4.81102">
        <ele>136.498256</ele>
        <time>2021-09-14T10:07:18.000Z</time>
      </trkpt>
      <trkpt lat="45.2842" lon="4.81102">
        <ele>136.455009</ele>
        <time>2021-09-14T10:07:19.000Z</time>
      </trkpt>
      <trkpt lat="45.28403" lon="4.81107">
        <ele>136.326495</ele>
        <time>2021-09-14T10:07:22.000Z</time>
      </trkpt>
      <trkpt lat="45.28392" lon="4.8111">
        <ele>136.245197</ele>
        <time>2021-09-14T10:07:24.000Z</time>
      </trkpt>
      <trkpt lat="45.28363" lon="4.81113">
        <ele>136.033005</ele>
        <time>2021-09-14T10:07:30.000Z</time>
      </trkpt>
      <trkpt lat="45.28332" lon="4.81116">
        <ele>135.831566</ele>
        <time>2021-09-14T10:07:36.000Z</time>
      </trkpt>
      <trkpt lat="45.28304" lon="4.81119">
        <ele>135.652576</ele>
        <time>2021-09-14T10:07:41.000Z</time>
      </trkpt>
      <trkpt lat="45.28271" lon="4.81123">
        <ele>135.439128</ele>
        <time>2021-09-14T10:07:47.000Z</time>
      </trkpt>
      <trkpt lat="45.28245" lon="4.81128">
        <ele>135.267152</ele>
        <time>2021-09-14T10:07:52.000Z</time>
      </trkpt>
      <trkpt lat="45.28219" lon="4.81134">
        <ele>135.096207</ele>
        <time>2021-09-14T10:07:57.000Z</time>
      </trkpt>
      <trkpt lat="45.28196" lon="4.81136">
        <ele>134.945444</ele>
        <time>2021-09-14T10:08:02.000Z</time>
      </trkpt>
      <trkpt lat="45.28188" lon="4.81136">
        <ele>134.892289</ele>
        <time>2021-09-14T10:08:04.000Z</time>
      </trkpt>
      <trkpt lat="45.28179" lon="4.81137">
        <ele>134.837592</ele>
        <time>2021-09-14T10:08:06.000Z</time>
      </trkpt>
      <trkpt lat="45.28154" lon="4.81141">
        <ele>134.696913</ele>
        <time>2021-09-14T10:08:12.000Z</time>
      </trkpt>
      <trkpt lat="45.2815" lon="4.81142">
        <ele>134.671316</ele>
        <time>2021-09-14T10:08:13.000Z</time>
      </trkpt>
      <trkpt lat="45.2814" lon="4.81144">
        <ele>134.614488</ele>
        <time>2021-09-14T10:08:15.000Z</time>
      </trkpt>
      <trkpt lat="45.2813" lon="4.81145">
        <ele>134.56279</ele>
        <time>2021-09-14T10:08:17.000Z</time>
      </trkpt>
      <trkpt lat="45.28122" lon="4.81147">
        <ele>134.513936</ele>
        <time>2021-09-14T10:08:19.000Z</time>
      </trkpt>
      <trkpt lat="45.28114" lon="4.81149">
        <ele>134.467367</ele>
        <time>2021-09-14T10:08:21.000Z</time>
      </trkpt>
      <trkpt lat="45.2811" lon="4.81149">
        <ele>134.444056</ele>
        <time>2021-09-14T10:08:22.000Z</time>
      </trkpt>
      <trkpt lat="45.28101" lon="4.8115">
        <ele>134.394297</ele>
        <time>2021-09-14T10:08:24.000Z</time>
      </trkpt>
      <trkpt lat="45.28087" lon="4.81152">
        <ele>134.316308</ele>
        <time>2021-09-14T10:08:27.000Z</time>
      </trkpt>
      <trkpt lat="45.28062" lon="4.81157">
        <ele>134.17622</ele>
        <time>2021-09-14T10:08:32.000Z</time>
      </trkpt>
      <trkpt lat="45.28032" lon="4.81162">
        <ele>134.00212</ele>
        <time>2021-09-14T10:08:38.000Z</time>
      </trkpt>
      <trkpt lat="45.28022" lon="4.81163">
        <ele>133.949119</ele>
        <time>2021-09-14T10:08:40.000Z</time>
      </trkpt>
      <trkpt lat="45.28013" lon="4.81164">
        <ele>133.894993</ele>
        <time>2021-09-14T10:08:42.000Z</time>
      </trkpt>
      <trkpt lat="45.27988" lon="4.81171">
        <ele>133.718569</ele>
        <time>2021-09-14T10:08:47.000Z</time>
      </trkpt>
      <trkpt lat="45.27978" lon="4.81172">
        <ele>133.638953</ele>
        <time>2021-09-14T10:08:49.000Z</time>
      </trkpt>
      <trkpt lat="45.27969" lon="4.81173">
        <ele>133.567816</ele>
        <time>2021-09-14T10:08:51.000Z</time>
      </trkpt>
      <trkpt lat="45.27964" lon="4.81174">
        <ele>133.530822</ele>
        <time>2021-09-14T10:08:52.000Z</time>
      </trkpt>
      <trkpt lat="45.27941" lon="4.81182">
        <ele>133.344619</ele>
        <time>2021-09-14T10:08:57.000Z</time>
      </trkpt>
      <trkpt lat="45.27931" lon="4.81185">
        <ele>133.264471</ele>
        <time>2021-09-14T10:08:59.000Z</time>
      </trkpt>
      <trkpt lat="45.27922" lon="4.81185">
        <ele>133.188979</ele>
        <time>2021-09-14T10:09:01.000Z</time>
      </trkpt>
      <trkpt lat="45.279" lon="4.81183">
        <ele>133.021972</ele>
        <time>2021-09-14T10:09:05.000Z</time>
      </trkpt>
      <trkpt lat="45.27881" lon="4.81181">
        <ele>132.872067</ele>
        <time>2021-09-14T10:09:09.000Z</time>
      </trkpt>
      <trkpt lat="45.27846" lon="4.8118">
        <ele>132.595996</ele>
        <time>2021-09-14T10:09:16.000Z</time>
      </trkpt>
      <trkpt lat="45.27825" lon="4.8118">
        <ele>132.429277</ele>
        <time>2021-09-14T10:09:20.000Z</time>
      </trkpt>
      <trkpt lat="45.2782" lon="4.81181">
        <ele>132.384213</ele>
        <time>2021-09-14T10:09:21.000Z</time>
      </trkpt>
      <trkpt lat="45.27811" lon="4.81181">
        <ele>132.302051</ele>
        <time>2021-09-14T10:09:23.000Z</time>
      </trkpt>
      <trkpt lat="45.27801" lon="4.81181">
        <ele>132.217203</ele>
        <time>2021-09-14T10:09:25.000Z</time>
      </trkpt>
      <trkpt lat="45.2778" lon="4.81178">
        <ele>132.029731</ele>
        <time>2021-09-14T10:09:30.000Z</time>
      </trkpt>
      <trkpt lat="45.27762" lon="4.81175">
        <ele>131.863651</ele>
        <time>2021-09-14T10:09:34.000Z</time>
      </trkpt>
      <trkpt lat="45.27757" lon="4.81175">
        <ele>131.818783</ele>
        <time>2021-09-14T10:09:35.000Z</time>
      </trkpt>
      <trkpt lat="45.27747" lon="4.81174">
        <ele>131.730352</ele>
        <time>2021-09-14T10:09:37.000Z</time>
      </trkpt>
      <trkpt lat="45.27738" lon="4.81178">
        <ele>131.646635</ele>
        <time>2021-09-14T10:09:39.000Z</time>
      </trkpt>
      <trkpt lat="45.27729" lon="4.81181">
        <ele>131.560218</ele>
        <time>2021-09-14T10:09:41.000Z</time>
      </trkpt>
      <trkpt lat="45.27718" lon="4.81182">
        <ele>131.46367</ele>
        <time>2021-09-14T10:09:43.000Z</time>
      </trkpt>
      <trkpt lat="45.27712" lon="4.81181">
        <ele>131.410678</ele>
        <time>2021-09-14T10:09:44.000Z</time>
      </trkpt>
      <trkpt lat="45.2769" lon="4.81179">
        <ele>131.216202</ele>
        <time>2021-09-14T10:09:48.000Z</time>
      </trkpt>
      <trkpt lat="45.27665" lon="4.81178">
        <ele>130.994685</ele>
        <time>2021-09-14T10:09:53.000Z</time>
      </trkpt>
      <trkpt lat="45.27626" lon="4.81177">
        <ele>130.585447</ele>
        <time>2021-09-14T10:10:01.000Z</time>
      </trkpt>
      <trkpt lat="45.27584" lon="4.81177">
        <ele>130.078902</ele>
        <time>2021-09-14T10:10:09.000Z</time>
      </trkpt>
      <trkpt lat="45.27546" lon="4.81178">
        <ele>129.632958</ele>
        <time>2021-09-14T10:10:16.000Z</time>
      </trkpt>
      <trkpt lat="45.27541" lon="4.81178">
        <ele>129.569739</ele>
        <time>2021-09-14T10:10:17.000Z</time>
      </trkpt>
      <trkpt lat="45.27531" lon="4.81177">
        <ele>129.447892</ele>
        <time>2021-09-14T10:10:19.000Z</time>
      </trkpt>
      <trkpt lat="45.27526" lon="4.81175">
        <ele>129.388463</ele>
        <time>2021-09-14T10:10:20.000Z</time>
      </trkpt>
      <trkpt lat="45.2752" lon="4.81174">
        <ele>129.321709</ele>
        <time>2021-09-14T10:10:21.000Z</time>
      </trkpt>
      <trkpt lat="45.27504" lon="4.81172">
        <ele>129.123688</ele>
        <time>2021-09-14T10:10:24.000Z</time>
      </trkpt>
      <trkpt lat="45.2747" lon="4.81172">
        <ele>128.720597</ele>
        <time>2021-09-14T10:10:30.000Z</time>
      </trkpt>
      <trkpt lat="45.27454" lon="4.81172">
        <ele>128.691191</ele>
        <time>2021-09-14T10:10:33.000Z</time>
      </trkpt>
      <trkpt lat="45.27444" lon="4.81172">
        <ele>128.699386</ele>
        <time>2021-09-14T10:10:35.000Z</time>
      </trkpt>
      <trkpt lat="45.27418" lon="4.81171">
        <ele>128.720879</ele>
        <time>2021-09-14T10:10:40.000Z</time>
      </trkpt>
      <trkpt lat="45.27391" lon="4.81172">
        <ele>128.74413</ele>
        <time>2021-09-14T10:10:45.000Z</time>
      </trkpt>
      <trkpt lat="45.27363" lon="4.81173">
        <ele>128.766803</ele>
        <time>2021-09-14T10:10:51.000Z</time>
      </trkpt>
      <trkpt lat="45.27337" lon="4.81176">
        <ele>128.788933</ele>
        <time>2021-09-14T10:10:57.000Z</time>
      </trkpt>
      <trkpt lat="45.27304" lon="4.81179">
        <ele>128.816347</ele>
        <time>2021-09-14T10:11:06.000Z</time>
      </trkpt>
      <trkpt lat="45.27281" lon="4.81182">
        <ele>128.941504</ele>
        <time>2021-09-14T10:11:13.000Z</time>
      </trkpt>
      <trkpt lat="45.27257" lon="4.81184">
        <ele>129.443955</ele>
        <time>2021-09-14T10:11:21.000Z</time>
      </trkpt>
      <trkpt lat="45.2724" lon="4.81185">
        <ele>129.790652</ele>
        <time>2021-09-14T10:11:27.000Z</time>
      </trkpt>
      <trkpt lat="45.27218" lon="4.81187">
        <ele>130.239303</ele>
        <time>2021-09-14T10:11:35.000Z</time>
      </trkpt>
      <trkpt lat="45.27197" lon="4.81188">
        <ele>130.669638</ele>
        <time>2021-09-14T10:11:43.000Z</time>
      </trkpt>
      <trkpt lat="45.27185" lon="4.81188">
        <ele>130.906001</ele>
        <time>2021-09-14T10:11:48.000Z</time>
      </trkpt>
      <trkpt lat="45.27171" lon="4.81191">
        <ele>131.190376</ele>
        <time>2021-09-14T10:11:52.000Z</time>
      </trkpt>
      <trkpt lat="45.27141" lon="4.81189">
        <ele>131.798908</ele>
        <time>2021-09-14T10:11:58.000Z</time>
      </trkpt>
      <trkpt lat="45.27106" lon="4.81193">
        <ele>132.506171</ele>
        <time>2021-09-14T10:12:04.000Z</time>
      </trkpt>
      <trkpt lat="45.27064" lon="4.81197">
        <ele>132.766092</ele>
        <time>2021-09-14T10:12:11.000Z</time>
      </trkpt>
      <trkpt lat="45.27047" lon="4.81198">
        <ele>132.869085</ele>
        <time>2021-09-14T10:12:14.000Z</time>
      </trkpt>
      <trkpt lat="45.27032" lon="4.81199">
        <ele>132.966415</ele>
        <time>2021-09-14T10:12:17.000Z</time>
      </trkpt>
      <trkpt lat="45.27003" lon="4.81198">
        <ele>133.144365</ele>
        <time>2021-09-14T10:12:23.000Z</time>
      </trkpt>
      <trkpt lat="45.26983" lon="4.81194">
        <ele>133.267661</ele>
        <time>2021-09-14T10:12:27.000Z</time>
      </trkpt>
      <trkpt lat="45.26978" lon="4.81193">
        <ele>133.297121</ele>
        <time>2021-09-14T10:12:28.000Z</time>
      </trkpt>
      <trkpt lat="45.26971" lon="4.81196">
        <ele>133.343756</ele>
        <time>2021-09-14T10:12:30.000Z</time>
      </trkpt>
      <trkpt lat="45.26959" lon="4.81199">
        <ele>133.421192</ele>
        <time>2021-09-14T10:12:32.000Z</time>
      </trkpt>
      <trkpt lat="45.26918" lon="4.81197">
        <ele>133.670318</ele>
        <time>2021-09-14T10:12:39.000Z</time>
      </trkpt>
      <trkpt lat="45.26897" lon="4.81199">
        <ele>133.794532</ele>
        <time>2021-09-14T10:12:44.000Z</time>
      </trkpt>
      <trkpt lat="45.26876" lon="4.81202">
        <ele>133.92072</ele>
        <time>2021-09-14T10:12:48.000Z</time>
      </trkpt>
      <trkpt lat="45.26866" lon="4.81203">
        <ele>133.982295</ele>
        <time>2021-09-14T10:12:50.000Z</time>
      </trkpt>
      <trkpt lat="45.26833" lon="4.81209">
        <ele>134.176433</ele>
        <time>2021-09-14T10:12:56.000Z</time>
      </trkpt>
      <trkpt lat="45.26791" lon="4.81217">
        <ele>134.428564</ele>
        <time>2021-09-14T10:13:04.000Z</time>
      </trkpt>
      <trkpt lat="45.26748" lon="4.81225">
        <ele>134.667411</ele>
        <time>2021-09-14T10:13:12.000Z</time>
      </trkpt>
      <trkpt lat="45.26717" lon="4.81235">
        <ele>134.489191</ele>
        <time>2021-09-14T10:13:18.000Z</time>
      </trkpt>
      <trkpt lat="45.26683" lon="4.81253">
        <ele>134.285681</ele>
        <time>2021-09-14T10:13:25.000Z</time>
      </trkpt>
      <trkpt lat="45.26657" lon="4.81266">
        <ele>134.133599</ele>
        <time>2021-09-14T10:13:30.000Z</time>
      </trkpt>
      <trkpt lat="45.26646" lon="4.81271">
        <ele>134.071755</ele>
        <time>2021-09-14T10:13:32.000Z</time>
      </trkpt>
      <trkpt lat="45.26632" lon="4.81273">
        <ele>133.993217</ele>
        <time>2021-09-14T10:13:35.000Z</time>
      </trkpt>
      <trkpt lat="45.26628" lon="4.81273">
        <ele>133.966483</ele>
        <time>2021-09-14T10:13:36.000Z</time>
      </trkpt>
      <trkpt lat="45.26597" lon="4.81268">
        <ele>133.795349</ele>
        <time>2021-09-14T10:13:42.000Z</time>
      </trkpt>
      <trkpt lat="45.26581" lon="4.81261">
        <ele>133.700397</ele>
        <time>2021-09-14T10:13:46.000Z</time>
      </trkpt>
      <trkpt lat="45.2657" lon="4.81255">
        <ele>133.651716</ele>
        <time>2021-09-14T10:13:49.000Z</time>
      </trkpt>
      <trkpt lat="45.26565" lon="4.81252">
        <ele>133.634516</ele>
        <time>2021-09-14T10:13:50.000Z</time>
      </trkpt>
      <trkpt lat="45.26561" lon="4.8125">
        <ele>133.61691</ele>
        <time>2021-09-14T10:13:51.000Z</time>
      </trkpt>
      <trkpt lat="45.26551" lon="4.81246">
        <ele>133.58281</ele>
        <time>2021-09-14T10:13:53.000Z</time>
      </trkpt>
      <trkpt lat="45.26541" lon="4.81242">
        <ele>133.546065</ele>
        <time>2021-09-14T10:13:55.000Z</time>
      </trkpt>
      <trkpt lat="45.26506" lon="4.81234">
        <ele>133.426709</ele>
        <time>2021-09-14T10:14:01.000Z</time>
      </trkpt>
      <trkpt lat="45.26472" lon="4.81229">
        <ele>133.309898</ele>
        <time>2021-09-14T10:14:07.000Z</time>
      </trkpt>
      <trkpt lat="45.26439" lon="4.81224">
        <ele>133.193767</ele>
        <time>2021-09-14T10:14:13.000Z</time>
      </trkpt>
      <trkpt lat="45.26423" lon="4.81222">
        <ele>133.138284</ele>
        <time>2021-09-14T10:14:16.000Z</time>
      </trkpt>
      <trkpt lat="45.26418" lon="4.81222">
        <ele>133.12114</ele>
        <time>2021-09-14T10:14:17.000Z</time>
      </trkpt>
      <trkpt lat="45.2639" lon="4.81222">
        <ele>132.976358</ele>
        <time>2021-09-14T10:14:22.000Z</time>
      </trkpt>
      <trkpt lat="45.26385" lon="4.81222">
        <ele>132.925805</ele>
        <time>2021-09-14T10:14:23.000Z</time>
      </trkpt>
      <trkpt lat="45.26362" lon="4.81224">
        <ele>132.71866</ele>
        <time>2021-09-14T10:14:27.000Z</time>
      </trkpt>
      <trkpt lat="45.26335" lon="4.81225">
        <ele>132.464897</ele>
        <time>2021-09-14T10:14:32.000Z</time>
      </trkpt>
      <trkpt lat="45.26304" lon="4.81221">
        <ele>132.178572</ele>
        <time>2021-09-14T10:14:38.000Z</time>
      </trkpt>
      <trkpt lat="45.26277" lon="4.81217">
        <ele>131.934754</ele>
        <time>2021-09-14T10:14:43.000Z</time>
      </trkpt>
      <trkpt lat="45.26257" lon="4.81214">
        <ele>131.746374</ele>
        <time>2021-09-14T10:14:47.000Z</time>
      </trkpt>
      <trkpt lat="45.26231" lon="4.8121">
        <ele>131.509935</ele>
        <time>2021-09-14T10:14:52.000Z</time>
      </trkpt>
      <trkpt lat="45.26226" lon="4.81209">
        <ele>131.462537</ele>
        <time>2021-09-14T10:14:53.000Z</time>
      </trkpt>
      <trkpt lat="45.2621" lon="4.81203">
        <ele>131.40918</ele>
        <time>2021-09-14T10:14:56.000Z</time>
      </trkpt>
      <trkpt lat="45.26195" lon="4.81197">
        <ele>131.414002</ele>
        <time>2021-09-14T10:14:59.000Z</time>
      </trkpt>
      <trkpt lat="45.26184" lon="4.81194">
        <ele>131.417132</ele>
        <time>2021-09-14T10:15:01.000Z</time>
      </trkpt>
      <trkpt lat="45.26168" lon="4.8119">
        <ele>131.422181</ele>
        <time>2021-09-14T10:15:04.000Z</time>
      </trkpt>
      <trkpt lat="45.26152" lon="4.81186">
        <ele>131.427234</ele>
        <time>2021-09-14T10:15:07.000Z</time>
      </trkpt>
      <trkpt lat="45.26113" lon="4.81176">
        <ele>131.439058</ele>
        <time>2021-09-14T10:15:14.000Z</time>
      </trkpt>
      <trkpt lat="45.26089" lon="4.8117">
        <ele>131.446602</ele>
        <time>2021-09-14T10:15:19.000Z</time>
      </trkpt>
      <trkpt lat="45.26056" lon="4.8116">
        <ele>131.456676</ele>
        <time>2021-09-14T10:15:25.000Z</time>
      </trkpt>
      <trkpt lat="45.26051" lon="4.81159">
        <ele>131.458327</ele>
        <time>2021-09-14T10:15:26.000Z</time>
      </trkpt>
      <trkpt lat="45.26036" lon="4.81153">
        <ele>131.477423</ele>
        <time>2021-09-14T10:15:29.000Z</time>
      </trkpt>
      <trkpt lat="45.26027" lon="4.81148">
        <ele>131.498501</ele>
        <time>2021-09-14T10:15:31.000Z</time>
      </trkpt>
      <trkpt lat="45.26017" lon="4.81142">
        <ele>131.521071</ele>
        <time>2021-09-14T10:15:33.000Z</time>
      </trkpt>
      <trkpt lat="45.26013" lon="4.8114">
        <ele>131.530683</ele>
        <time>2021-09-14T10:15:34.000Z</time>
      </trkpt>
      <trkpt lat="45.26" lon="4.81132">
        <ele>131.561318</ele>
        <time>2021-09-14T10:15:37.000Z</time>
      </trkpt>
      <trkpt lat="45.25969" lon="4.81116">
        <ele>131.632214</ele>
        <time>2021-09-14T10:15:43.000Z</time>
      </trkpt>
      <trkpt lat="45.25942" lon="4.81102">
        <ele>131.691938</ele>
        <time>2021-09-14T10:15:48.000Z</time>
      </trkpt>
      <trkpt lat="45.25911" lon="4.81086">
        <ele>131.761815</ele>
        <time>2021-09-14T10:15:54.000Z</time>
      </trkpt>
      <trkpt lat="45.259" lon="4.81081">
        <ele>131.786174</ele>
        <time>2021-09-14T10:15:56.000Z</time>
      </trkpt>
      <trkpt lat="45.25884" lon="4.81074">
        <ele>131.821388</ele>
        <time>2021-09-14T10:15:59.000Z</time>
      </trkpt>
      <trkpt lat="45.2586" lon="4.81066">
        <ele>131.83007</ele>
        <time>2021-09-14T10:16:04.000Z</time>
      </trkpt>
      <trkpt lat="45.25834" lon="4.81056">
        <ele>131.808896</ele>
        <time>2021-09-14T10:16:09.000Z</time>
      </trkpt>
      <trkpt lat="45.25814" lon="4.81046">
        <ele>131.792029</ele>
        <time>2021-09-14T10:16:13.000Z</time>
      </trkpt>
      <trkpt lat="45.25787" lon="4.81036">
        <ele>131.769099</ele>
        <time>2021-09-14T10:16:18.000Z</time>
      </trkpt>
      <trkpt lat="45.25756" lon="4.81025">
        <ele>131.744156</ele>
        <time>2021-09-14T10:16:24.000Z</time>
      </trkpt>
      <trkpt lat="45.25734" lon="4.81012">
        <ele>131.724597</ele>
        <time>2021-09-14T10:16:29.000Z</time>
      </trkpt>
      <trkpt lat="45.25713" lon="4.80999">
        <ele>131.706961</ele>
        <time>2021-09-14T10:16:34.000Z</time>
      </trkpt>
      <trkpt lat="45.25705" lon="4.80994">
        <ele>131.699406</ele>
        <time>2021-09-14T10:16:36.000Z</time>
      </trkpt>
      <trkpt lat="45.25694" lon="4.80988">
        <ele>131.728203</ele>
        <time>2021-09-14T10:16:38.000Z</time>
      </trkpt>
      <trkpt lat="45.25681" lon="4.80982">
        <ele>131.766991</ele>
        <time>2021-09-14T10:16:41.000Z</time>
      </trkpt>
      <trkpt lat="45.25677" lon="4.8098">
        <ele>131.779069</ele>
        <time>2021-09-14T10:16:42.000Z</time>
      </trkpt>
      <trkpt lat="45.25673" lon="4.80977">
        <ele>131.793296</ele>
        <time>2021-09-14T10:16:43.000Z</time>
      </trkpt>
      <trkpt lat="45.25663" lon="4.80973">
        <ele>131.821011</ele>
        <time>2021-09-14T10:16:45.000Z</time>
      </trkpt>
      <trkpt lat="45.25658" lon="4.80971">
        <ele>131.836356</ele>
        <time>2021-09-14T10:16:46.000Z</time>
      </trkpt>
      <trkpt lat="45.2562" lon="4.80956">
        <ele>131.949139</ele>
        <time>2021-09-14T10:16:53.000Z</time>
      </trkpt>
      <trkpt lat="45.25587" lon="4.80943">
        <ele>132.045976</ele>
        <time>2021-09-14T10:16:59.000Z</time>
      </trkpt>
      <trkpt lat="45.25552" lon="4.8093">
        <ele>132.151362</ele>
        <time>2021-09-14T10:17:06.000Z</time>
      </trkpt>
      <trkpt lat="45.25523" lon="4.80917">
        <ele>132.275201</ele>
        <time>2021-09-14T10:17:12.000Z</time>
      </trkpt>
      <trkpt lat="45.25503" lon="4.8091">
        <ele>132.421009</ele>
        <time>2021-09-14T10:17:16.000Z</time>
      </trkpt>
      <trkpt lat="45.25493" lon="4.80908">
        <ele>132.492559</ele>
        <time>2021-09-14T10:17:18.000Z</time>
      </trkpt>
      <trkpt lat="45.25482" lon="4.80905">
        <ele>132.568366</ele>
        <time>2021-09-14T10:17:20.000Z</time>
      </trkpt>
      <trkpt lat="45.25466" lon="4.80903">
        <ele>132.67949</ele>
        <time>2021-09-14T10:17:23.000Z</time>
      </trkpt>
      <trkpt lat="45.25442" lon="4.80901">
        <ele>132.854264</ele>
        <time>2021-09-14T10:17:28.000Z</time>
      </trkpt>
      <trkpt lat="45.25423" lon="4.80899">
        <ele>132.987307</ele>
        <time>2021-09-14T10:17:32.000Z</time>
      </trkpt>
      <trkpt lat="45.25408" lon="4.80895">
        <ele>133.09489</ele>
        <time>2021-09-14T10:17:35.000Z</time>
      </trkpt>
      <trkpt lat="45.25399" lon="4.80892">
        <ele>133.159096</ele>
        <time>2021-09-14T10:17:37.000Z</time>
      </trkpt>
      <trkpt lat="45.2539" lon="4.8089">
        <ele>133.223363</ele>
        <time>2021-09-14T10:17:39.000Z</time>
      </trkpt>
      <trkpt lat="45.25378" lon="4.80889">
        <ele>133.308846</ele>
        <time>2021-09-14T10:17:41.000Z</time>
      </trkpt>
      <trkpt lat="45.25369" lon="4.80896">
        <ele>133.378902</ele>
        <time>2021-09-14T10:17:42.000Z</time>
      </trkpt>
      <trkpt lat="45.25366" lon="4.80902">
        <ele>133.415452</ele>
        <time>2021-09-14T10:17:43.000Z</time>
      </trkpt>
      <trkpt lat="45.2536" lon="4.80915">
        <ele>133.514954</ele>
        <time>2021-09-14T10:17:45.000Z</time>
      </trkpt>
      <trkpt lat="45.25352" lon="4.80926">
        <ele>133.693738</ele>
        <time>2021-09-14T10:17:47.000Z</time>
      </trkpt>
      <trkpt lat="45.25343" lon="4.80934">
        <ele>133.877853</ele>
        <time>2021-09-14T10:17:49.000Z</time>
      </trkpt>
      <trkpt lat="45.25326" lon="4.80948">
        <ele>134.212681</ele>
        <time>2021-09-14T10:17:53.000Z</time>
      </trkpt>
      <trkpt lat="45.25322" lon="4.8095">
        <ele>134.286535</ele>
        <time>2021-09-14T10:17:54.000Z</time>
      </trkpt>
      <trkpt lat="45.25309" lon="4.80955">
        <ele>134.511249</ele>
        <time>2021-09-14T10:17:57.000Z</time>
      </trkpt>
      <trkpt lat="45.25293" lon="4.80959">
        <ele>134.777376</ele>
        <time>2021-09-14T10:18:01.000Z</time>
      </trkpt>
      <trkpt lat="45.2528" lon="4.80963">
        <ele>135.010717</ele>
        <time>2021-09-14T10:18:06.000Z</time>
      </trkpt>
      <trkpt lat="45.25278" lon="4.80963">
        <ele>135.045163</ele>
        <time>2021-09-14T10:18:07.000Z</time>
      </trkpt>
      <trkpt lat="45.25269" lon="4.80964">
        <ele>135.1842</ele>
        <time>2021-09-14T10:18:11.000Z</time>
      </trkpt>
      <trkpt lat="45.25253" lon="4.80966">
        <ele>135.454134</ele>
        <time>2021-09-14T10:18:18.000Z</time>
      </trkpt>
      <trkpt lat="45.25235" lon="4.80967">
        <ele>135.764579</ele>
        <time>2021-09-14T10:18:25.000Z</time>
      </trkpt>
      <trkpt lat="45.25221" lon="4.80971">
        <ele>135.999799</ele>
        <time>2021-09-14T10:18:31.000Z</time>
      </trkpt>
      <trkpt lat="45.25215" lon="4.80984">
        <ele>136.193924</ele>
        <time>2021-09-14T10:18:35.000Z</time>
      </trkpt>
      <trkpt lat="45.25213" lon="4.81021">
        <ele>136.510789</ele>
        <time>2021-09-14T10:18:42.000Z</time>
      </trkpt>
      <trkpt lat="45.25212" lon="4.81027">
        <ele>136.510697</ele>
        <time>2021-09-14T10:18:43.000Z</time>
      </trkpt>
      <trkpt lat="45.25212" lon="4.81039">
        <ele>136.510507</ele>
        <time>2021-09-14T10:18:45.000Z</time>
      </trkpt>
      <trkpt lat="45.25208" lon="4.8105">
        <ele>136.510316</ele>
        <time>2021-09-14T10:18:47.000Z</time>
      </trkpt>
      <trkpt lat="45.25196" lon="4.81067">
        <ele>136.509952</ele>
        <time>2021-09-14T10:18:51.000Z</time>
      </trkpt>
      <trkpt lat="45.25167" lon="4.81095">
        <ele>136.509172</ele>
        <time>2021-09-14T10:19:00.000Z</time>
      </trkpt>
      <trkpt lat="45.2516" lon="4.81103">
        <ele>136.508981</ele>
        <time>2021-09-14T10:19:02.000Z</time>
      </trkpt>
      <trkpt lat="45.25157" lon="4.81108">
        <ele>136.508877</ele>
        <time>2021-09-14T10:19:03.000Z</time>
      </trkpt>
      <trkpt lat="45.25148" lon="4.81108">
        <ele>136.508692</ele>
        <time>2021-09-14T10:19:04.000Z</time>
      </trkpt>
      <trkpt lat="45.25139" lon="4.811">
        <ele>136.508458</ele>
        <time>2021-09-14T10:19:06.000Z</time>
      </trkpt>
      <trkpt lat="45.25106" lon="4.81072">
        <ele>136.507621</ele>
        <time>2021-09-14T10:19:13.000Z</time>
      </trkpt>
      <trkpt lat="45.25069" lon="4.81041">
        <ele>136.521545</ele>
        <time>2021-09-14T10:19:21.000Z</time>
      </trkpt>
      <trkpt lat="45.25037" lon="4.81018">
        <ele>136.557489</ele>
        <time>2021-09-14T10:19:28.000Z</time>
      </trkpt>
      <trkpt lat="45.25016" lon="4.81002">
        <ele>136.580939</ele>
        <time>2021-09-14T10:19:33.000Z</time>
      </trkpt>
      <trkpt lat="45.25012" lon="4.80999">
        <ele>136.585532</ele>
        <time>2021-09-14T10:19:34.000Z</time>
      </trkpt>
      <trkpt lat="45.25004" lon="4.80993">
        <ele>136.59451</ele>
        <time>2021-09-14T10:19:36.000Z</time>
      </trkpt>
      <trkpt lat="45.24989" lon="4.80982">
        <ele>136.611147</ele>
        <time>2021-09-14T10:19:40.000Z</time>
      </trkpt>
      <trkpt lat="45.24976" lon="4.8097">
        <ele>136.627069</ele>
        <time>2021-09-14T10:19:44.000Z</time>
      </trkpt>
      <trkpt lat="45.2497" lon="4.80962">
        <ele>136.635423</ele>
        <time>2021-09-14T10:19:46.000Z</time>
      </trkpt>
      <trkpt lat="45.24966" lon="4.80958">
        <ele>136.639698</ele>
        <time>2021-09-14T10:19:47.000Z</time>
      </trkpt>
      <trkpt lat="45.24959" lon="4.80953">
        <ele>136.647801</ele>
        <time>2021-09-14T10:19:49.000Z</time>
      </trkpt>
      <trkpt lat="45.24955" lon="4.8095">
        <ele>136.651882</ele>
        <time>2021-09-14T10:19:50.000Z</time>
      </trkpt>
      <trkpt lat="45.24928" lon="4.80932">
        <ele>136.682428</ele>
        <time>2021-09-14T10:19:56.000Z</time>
      </trkpt>
      <trkpt lat="45.24905" lon="4.80917">
        <ele>136.737373</ele>
        <time>2021-09-14T10:20:01.000Z</time>
      </trkpt>
      <trkpt lat="45.24882" lon="4.80901">
        <ele>136.799853</ele>
        <time>2021-09-14T10:20:06.000Z</time>
      </trkpt>
      <trkpt lat="45.2485" lon="4.80879">
        <ele>136.886893</ele>
        <time>2021-09-14T10:20:13.000Z</time>
      </trkpt>
      <trkpt lat="45.24837" lon="4.80869">
        <ele>136.923022</ele>
        <time>2021-09-14T10:20:16.000Z</time>
      </trkpt>
      <trkpt lat="45.24829" lon="4.80863">
        <ele>136.945877</ele>
        <time>2021-09-14T10:20:18.000Z</time>
      </trkpt>
      <trkpt lat="45.24807" lon="4.80846">
        <ele>137.007508</ele>
        <time>2021-09-14T10:20:23.000Z</time>
      </trkpt>
      <trkpt lat="45.24783" lon="4.80829">
        <ele>137.072024</ele>
        <time>2021-09-14T10:20:30.000Z</time>
      </trkpt>
      <trkpt lat="45.24765" lon="4.80815">
        <ele>137.123344</ele>
        <time>2021-09-14T10:20:35.000Z</time>
      </trkpt>
      <trkpt lat="45.24742" lon="4.80798">
        <ele>137.237618</ele>
        <time>2021-09-14T10:20:41.000Z</time>
      </trkpt>
      <trkpt lat="45.24727" lon="4.80787">
        <ele>137.315573</ele>
        <time>2021-09-14T10:20:45.000Z</time>
      </trkpt>
      <trkpt lat="45.24705" lon="4.8077">
        <ele>137.42803</ele>
        <time>2021-09-14T10:20:51.000Z</time>
      </trkpt>
      <trkpt lat="45.24687" lon="4.80757">
        <ele>137.520823</ele>
        <time>2021-09-14T10:20:56.000Z</time>
      </trkpt>
      <trkpt lat="45.24657" lon="4.80734">
        <ele>137.678092</ele>
        <time>2021-09-14T10:21:04.000Z</time>
      </trkpt>
      <trkpt lat="45.24641" lon="4.80722">
        <ele>137.757557</ele>
        <time>2021-09-14T10:21:08.000Z</time>
      </trkpt>
      <trkpt lat="45.2463" lon="4.80714">
        <ele>137.81791</ele>
        <time>2021-09-14T10:21:11.000Z</time>
      </trkpt>
      <trkpt lat="45.24618" lon="4.80705">
        <ele>137.879771</ele>
        <time>2021-09-14T10:21:15.000Z</time>
      </trkpt>
      <trkpt lat="45.24594" lon="4.80687">
        <ele>138.030999</ele>
        <time>2021-09-14T10:21:21.000Z</time>
      </trkpt>
      <trkpt lat="45.24579" lon="4.80676">
        <ele>138.144031</ele>
        <time>2021-09-14T10:21:25.000Z</time>
      </trkpt>
      <trkpt lat="45.24563" lon="4.80666">
        <ele>138.260694</ele>
        <time>2021-09-14T10:21:29.000Z</time>
      </trkpt>
      <trkpt lat="45.24555" lon="4.80661">
        <ele>138.318778</ele>
        <time>2021-09-14T10:21:31.000Z</time>
      </trkpt>
      <trkpt lat="45.24529" lon="4.80654">
        <ele>138.50212</ele>
        <time>2021-09-14T10:21:37.000Z</time>
      </trkpt>
      <trkpt lat="45.24503" lon="4.80646">
        <ele>138.684131</ele>
        <time>2021-09-14T10:21:43.000Z</time>
      </trkpt>
      <trkpt lat="45.2449" lon="4.80642">
        <ele>138.769564</ele>
        <time>2021-09-14T10:21:46.000Z</time>
      </trkpt>
      <trkpt lat="45.24465" lon="4.80635">
        <ele>138.945384</ele>
        <time>2021-09-14T10:21:52.000Z</time>
      </trkpt>
      <trkpt lat="45.24449" lon="4.8063">
        <ele>139.058062</ele>
        <time>2021-09-14T10:21:57.000Z</time>
      </trkpt>
      <trkpt lat="45.24436" lon="4.80626">
        <ele>139.147785</ele>
        <time>2021-09-14T10:22:03.000Z</time>
      </trkpt>
      <trkpt lat="45.24428" lon="4.80624">
        <ele>139.181955</ele>
        <time>2021-09-14T10:22:08.000Z</time>
      </trkpt>
      <trkpt lat="45.24425" lon="4.80623">
        <ele>139.187282</ele>
        <time>2021-09-14T10:22:11.000Z</time>
      </trkpt>
      <trkpt lat="45.24422" lon="4.80622">
        <ele>139.194702</ele>
        <time>2021-09-14T10:22:13.000Z</time>
      </trkpt>
      <trkpt lat="45.24403" lon="4.80616">
        <ele>139.238968</ele>
        <time>2021-09-14T10:22:19.000Z</time>
      </trkpt>
      <trkpt lat="45.24376" lon="4.80608">
        <ele>139.301563</ele>
        <time>2021-09-14T10:22:26.000Z</time>
      </trkpt>
      <trkpt lat="45.24345" lon="4.80598">
        <ele>139.373195</ele>
        <time>2021-09-14T10:22:33.000Z</time>
      </trkpt>
      <trkpt lat="45.24317" lon="4.80589">
        <ele>139.438735</ele>
        <time>2021-09-14T10:22:39.000Z</time>
      </trkpt>
      <trkpt lat="45.24312" lon="4.80588">
        <ele>139.450086</ele>
        <time>2021-09-14T10:22:40.000Z</time>
      </trkpt>
      <trkpt lat="45.24298" lon="4.80584">
        <ele>139.483156</ele>
        <time>2021-09-14T10:22:43.000Z</time>
      </trkpt>
      <trkpt lat="45.24288" lon="4.80581">
        <ele>139.505161</ele>
        <time>2021-09-14T10:22:45.000Z</time>
      </trkpt>
      <trkpt lat="45.24284" lon="4.80579">
        <ele>139.515561</ele>
        <time>2021-09-14T10:22:46.000Z</time>
      </trkpt>
      <trkpt lat="45.24245" lon="4.80568">
        <ele>139.577623</ele>
        <time>2021-09-14T10:22:54.000Z</time>
      </trkpt>
      <trkpt lat="45.24219" lon="4.8056">
        <ele>139.579209</ele>
        <time>2021-09-14T10:23:00.000Z</time>
      </trkpt>
      <trkpt lat="45.24198" lon="4.80557">
        <ele>139.580477</ele>
        <time>2021-09-14T10:23:05.000Z</time>
      </trkpt>
      <trkpt lat="45.24182" lon="4.80555">
        <ele>139.581435</ele>
        <time>2021-09-14T10:23:10.000Z</time>
      </trkpt>
      <trkpt lat="45.24173" lon="4.80554">
        <ele>139.581927</ele>
        <time>2021-09-14T10:23:12.000Z</time>
      </trkpt>
      <trkpt lat="45.24157" lon="4.80552">
        <ele>139.582909</ele>
        <time>2021-09-14T10:23:16.000Z</time>
      </trkpt>
      <trkpt lat="45.24128" lon="4.80551">
        <ele>139.584611</ele>
        <time>2021-09-14T10:23:23.000Z</time>
      </trkpt>
      <trkpt lat="45.24108" lon="4.80551">
        <ele>139.585817</ele>
        <time>2021-09-14T10:23:28.000Z</time>
      </trkpt>
      <trkpt lat="45.24096" lon="4.8055">
        <ele>139.586552</ele>
        <time>2021-09-14T10:23:31.000Z</time>
      </trkpt>
      <trkpt lat="45.24087" lon="4.8055">
        <ele>139.587095</ele>
        <time>2021-09-14T10:23:33.000Z</time>
      </trkpt>
      <trkpt lat="45.24077" lon="4.8055">
        <ele>139.582757</ele>
        <time>2021-09-14T10:23:34.000Z</time>
      </trkpt>
      <trkpt lat="45.24077" lon="4.8055">
        <ele>139.582757</ele>
        <time>2021-09-14T10:23:35.000Z</time>
      </trkpt>
      <trkpt lat="45.24058" lon="4.8055">
        <ele>139.471662</ele>
        <time>2021-09-14T10:23:39.000Z</time>
      </trkpt>
      <trkpt lat="45.24021" lon="4.8055">
        <ele>139.263716</ele>
        <time>2021-09-14T10:23:47.000Z</time>
      </trkpt>
      <trkpt lat="45.24002" lon="4.80551">
        <ele>139.154227</ele>
        <time>2021-09-14T10:23:51.000Z</time>
      </trkpt>
      <trkpt lat="45.23992" lon="4.80552">
        <ele>139.096619</ele>
        <time>2021-09-14T10:23:53.000Z</time>
      </trkpt>
      <trkpt lat="45.23987" lon="4.80552">
        <ele>139.067539</ele>
        <time>2021-09-14T10:23:54.000Z</time>
      </trkpt>
      <trkpt lat="45.23982" lon="4.80553">
        <ele>139.03844</ele>
        <time>2021-09-14T10:23:55.000Z</time>
      </trkpt>
      <trkpt lat="45.23972" lon="4.80556">
        <ele>138.980414</ele>
        <time>2021-09-14T10:23:57.000Z</time>
      </trkpt>
      <trkpt lat="45.23958" lon="4.80572">
        <ele>138.8765</ele>
        <time>2021-09-14T10:24:00.000Z</time>
      </trkpt>
      <trkpt lat="45.23948" lon="4.80583">
        <ele>138.805465</ele>
        <time>2021-09-14T10:24:02.000Z</time>
      </trkpt>
      <trkpt lat="45.23929" lon="4.80606">
        <ele>138.662541</ele>
        <time>2021-09-14T10:24:06.000Z</time>
      </trkpt>
      <trkpt lat="45.23924" lon="4.80612">
        <ele>138.627589</ele>
        <time>2021-09-14T10:24:07.000Z</time>
      </trkpt>
      <trkpt lat="45.23919" lon="4.80618">
        <ele>138.591424</ele>
        <time>2021-09-14T10:24:08.000Z</time>
      </trkpt>
      <trkpt lat="45.23916" lon="4.80623">
        <ele>138.561041</ele>
        <time>2021-09-14T10:24:09.000Z</time>
      </trkpt>
      <trkpt lat="45.23912" lon="4.80623">
        <ele>138.501281</ele>
        <time>2021-09-14T10:24:10.000Z</time>
      </trkpt>
      <trkpt lat="45.23904" lon="4.80614">
        <ele>138.321003</ele>
        <time>2021-09-14T10:24:12.000Z</time>
      </trkpt>
      <trkpt lat="45.23889" lon="4.80597">
        <ele>138.000437</ele>
        <time>2021-09-14T10:24:16.000Z</time>
      </trkpt>
      <trkpt lat="45.23887" lon="4.80596">
        <ele>137.963969</ele>
        <time>2021-09-14T10:24:17.000Z</time>
      </trkpt>
      <trkpt lat="45.23889" lon="4.80599">
        <ele>137.906487</ele>
        <time>2021-09-14T10:24:19.000Z</time>
      </trkpt>
      <trkpt lat="45.23896" lon="4.80605">
        <ele>137.775803</ele>
        <time>2021-09-14T10:24:23.000Z</time>
      </trkpt>
      <trkpt lat="45.23909" lon="4.8062">
        <ele>137.481407</ele>
        <time>2021-09-14T10:24:28.000Z</time>
      </trkpt>
      <trkpt lat="45.23911" lon="4.80622">
        <ele>137.444193</ele>
        <time>2021-09-14T10:24:31.000Z</time>
      </trkpt>
      <trkpt lat="45.2391" lon="4.80629">
        <ele>137.366268</ele>
        <time>2021-09-14T10:24:40.000Z</time>
      </trkpt>
      <trkpt lat="45.23896" lon="4.80639">
        <ele>137.103839</ele>
        <time>2021-09-14T10:24:45.000Z</time>
      </trkpt>
      <trkpt lat="45.23873" lon="4.80651">
        <ele>136.687213</ele>
        <time>2021-09-14T10:24:51.000Z</time>
      </trkpt>
      <trkpt lat="45.23865" lon="4.80655">
        <ele>136.543213</ele>
        <time>2021-09-14T10:24:53.000Z</time>
      </trkpt>
      <trkpt lat="45.23853" lon="4.80659">
        <ele>136.344725</ele>
        <time>2021-09-14T10:24:55.000Z</time>
      </trkpt>
      <trkpt lat="45.23848" lon="4.80647">
        <ele>136.172851</ele>
        <time>2021-09-14T10:24:57.000Z</time>
      </trkpt>
      <trkpt lat="45.23836" lon="4.80634">
        <ele>135.922633</ele>
        <time>2021-09-14T10:25:00.000Z</time>
      </trkpt>
      <trkpt lat="45.238" lon="4.80598">
        <ele>135.225001</ele>
        <time>2021-09-14T10:25:08.000Z</time>
      </trkpt>
      <trkpt lat="45.23777" lon="4.80575">
        <ele>134.820501</ele>
        <time>2021-09-14T10:25:13.000Z</time>
      </trkpt>
      <trkpt lat="45.23751" lon="4.80549">
        <ele>134.344727</ele>
        <time>2021-09-14T10:25:19.000Z</time>
      </trkpt>
      <trkpt lat="45.23731" lon="4.80537">
        <ele>134.036849</ele>
        <time>2021-09-14T10:25:23.000Z</time>
      </trkpt>
      <trkpt lat="45.23707" lon="4.80523">
        <ele>133.648806</ele>
        <time>2021-09-14T10:25:28.000Z</time>
      </trkpt>
      <trkpt lat="45.23685" lon="4.80514">
        <ele>133.322256</ele>
        <time>2021-09-14T10:25:32.000Z</time>
      </trkpt>
      <trkpt lat="45.23662" lon="4.80506">
        <ele>132.979163</ele>
        <time>2021-09-14T10:25:36.000Z</time>
      </trkpt>
      <trkpt lat="45.23628" lon="4.80495">
        <ele>132.599255</ele>
        <time>2021-09-14T10:25:42.000Z</time>
      </trkpt>
      <trkpt lat="45.23624" lon="4.80493">
        <ele>132.552879</ele>
        <time>2021-09-14T10:25:43.000Z</time>
      </trkpt>
      <trkpt lat="45.23614" lon="4.8049">
        <ele>132.456449</ele>
        <time>2021-09-14T10:25:45.000Z</time>
      </trkpt>
      <trkpt lat="45.23605" lon="4.80488">
        <ele>132.356789</ele>
        <time>2021-09-14T10:25:47.000Z</time>
      </trkpt>
      <trkpt lat="45.23595" lon="4.80486">
        <ele>132.251837</ele>
        <time>2021-09-14T10:25:49.000Z</time>
      </trkpt>
      <trkpt lat="45.23584" lon="4.80483">
        <ele>132.143852</ele>
        <time>2021-09-14T10:25:51.000Z</time>
      </trkpt>
      <trkpt lat="45.23574" lon="4.80481">
        <ele>132.038005</ele>
        <time>2021-09-14T10:25:53.000Z</time>
      </trkpt>
      <trkpt lat="45.23554" lon="4.80476">
        <ele>131.832383</ele>
        <time>2021-09-14T10:25:57.000Z</time>
      </trkpt>
      <trkpt lat="45.2355" lon="4.80475">
        <ele>131.786595</ele>
        <time>2021-09-14T10:25:58.000Z</time>
      </trkpt>
      <trkpt lat="45.23545" lon="4.80474">
        <ele>131.739914</ele>
        <time>2021-09-14T10:25:59.000Z</time>
      </trkpt>
      <trkpt lat="45.23536" lon="4.80472">
        <ele>131.645427</ele>
        <time>2021-09-14T10:26:01.000Z</time>
      </trkpt>
      <trkpt lat="45.23531" lon="4.80471">
        <ele>131.593457</ele>
        <time>2021-09-14T10:26:02.000Z</time>
      </trkpt>
      <trkpt lat="45.2349" lon="4.80461">
        <ele>131.165679</ele>
        <time>2021-09-14T10:26:09.000Z</time>
      </trkpt>
      <trkpt lat="45.23458" lon="4.80454">
        <ele>130.848141</ele>
        <time>2021-09-14T10:26:15.000Z</time>
      </trkpt>
      <trkpt lat="45.23439" lon="4.8045">
        <ele>130.66318</ele>
        <time>2021-09-14T10:26:19.000Z</time>
      </trkpt>
      <trkpt lat="45.23435" lon="4.80449">
        <ele>130.621444</ele>
        <time>2021-09-14T10:26:20.000Z</time>
      </trkpt>
      <trkpt lat="45.2343" lon="4.80448">
        <ele>130.579605</ele>
        <time>2021-09-14T10:26:21.000Z</time>
      </trkpt>
      <trkpt lat="45.23412" lon="4.80443">
        <ele>130.402443</ele>
        <time>2021-09-14T10:26:25.000Z</time>
      </trkpt>
      <trkpt lat="45.23409" lon="4.80443">
        <ele>130.366506</ele>
        <time>2021-09-14T10:26:26.000Z</time>
      </trkpt>
      <trkpt lat="45.234" lon="4.80441">
        <ele>130.285779</ele>
        <time>2021-09-14T10:26:28.000Z</time>
      </trkpt>
      <trkpt lat="45.23386" lon="4.80437">
        <ele>130.142656</ele>
        <time>2021-09-14T10:26:32.000Z</time>
      </trkpt>
      <trkpt lat="45.23375" lon="4.80435">
        <ele>130.035688</ele>
        <time>2021-09-14T10:26:34.000Z</time>
      </trkpt>
      <trkpt lat="45.23372" lon="4.80434">
        <ele>130.006495</ele>
        <time>2021-09-14T10:26:35.000Z</time>
      </trkpt>
      <trkpt lat="45.2336" lon="4.80431">
        <ele>129.893624</ele>
        <time>2021-09-14T10:26:38.000Z</time>
      </trkpt>
      <trkpt lat="45.23342" lon="4.80427">
        <ele>129.723423</ele>
        <time>2021-09-14T10:26:43.000Z</time>
      </trkpt>
      <trkpt lat="45.23322" lon="4.80423">
        <ele>129.52782</ele>
        <time>2021-09-14T10:26:48.000Z</time>
      </trkpt>
      <trkpt lat="45.23301" lon="4.80424">
        <ele>129.328598</ele>
        <time>2021-09-14T10:26:53.000Z</time>
      </trkpt>
      <trkpt lat="45.23284" lon="4.80427">
        <ele>129.225546</ele>
        <time>2021-09-14T10:26:57.000Z</time>
      </trkpt>
      <trkpt lat="45.23268" lon="4.80434">
        <ele>129.122644</ele>
        <time>2021-09-14T10:27:02.000Z</time>
      </trkpt>
      <trkpt lat="45.23245" lon="4.80435">
        <ele>128.978786</ele>
        <time>2021-09-14T10:27:08.000Z</time>
      </trkpt>
      <trkpt lat="45.23229" lon="4.80435">
        <ele>128.883557</ele>
        <time>2021-09-14T10:27:12.000Z</time>
      </trkpt>
      <trkpt lat="45.23219" lon="4.80434">
        <ele>128.819044</ele>
        <time>2021-09-14T10:27:15.000Z</time>
      </trkpt>
      <trkpt lat="45.23194" lon="4.80433">
        <ele>128.66544</ele>
        <time>2021-09-14T10:27:21.000Z</time>
      </trkpt>
      <trkpt lat="45.23181" lon="4.80432">
        <ele>128.586796</ele>
        <time>2021-09-14T10:27:24.000Z</time>
      </trkpt>
      <trkpt lat="45.23177" lon="4.80432">
        <ele>128.559763</ele>
        <time>2021-09-14T10:27:25.000Z</time>
      </trkpt>
      <trkpt lat="45.23172" lon="4.80432">
        <ele>128.530889</ele>
        <time>2021-09-14T10:27:26.000Z</time>
      </trkpt>
      <trkpt lat="45.23153" lon="4.80431">
        <ele>128.412311</ele>
        <time>2021-09-14T10:27:30.000Z</time>
      </trkpt>
      <trkpt lat="45.2314" lon="4.80431">
        <ele>128.33735</ele>
        <time>2021-09-14T10:27:33.000Z</time>
      </trkpt>
      <trkpt lat="45.23112" lon="4.80427">
        <ele>128.322396</ele>
        <time>2021-09-14T10:27:38.000Z</time>
      </trkpt>
      <trkpt lat="45.23082" lon="4.8042">
        <ele>128.554237</ele>
        <time>2021-09-14T10:27:44.000Z</time>
      </trkpt>
      <trkpt lat="45.23067" lon="4.80425">
        <ele>128.666617</ele>
        <time>2021-09-14T10:27:48.000Z</time>
      </trkpt>
      <trkpt lat="45.23046" lon="4.80419">
        <ele>128.826602</ele>
        <time>2021-09-14T10:27:55.000Z</time>
      </trkpt>
      <trkpt lat="45.23021" lon="4.80409">
        <ele>129.019807</ele>
        <time>2021-09-14T10:28:02.000Z</time>
      </trkpt>
      <trkpt lat="45.22991" lon="4.80408">
        <ele>129.250411</ele>
        <time>2021-09-14T10:28:09.000Z</time>
      </trkpt>
      <trkpt lat="45.22953" lon="4.80406">
        <ele>129.529678</ele>
        <time>2021-09-14T10:28:17.000Z</time>
      </trkpt>
      <trkpt lat="45.22921" lon="4.80404">
        <ele>129.80489</ele>
        <time>2021-09-14T10:28:24.000Z</time>
      </trkpt>
      <trkpt lat="45.2289" lon="4.80407">
        <ele>130.081559</ele>
        <time>2021-09-14T10:28:31.000Z</time>
      </trkpt>
      <trkpt lat="45.22855" lon="4.80411">
        <ele>130.398971</ele>
        <time>2021-09-14T10:28:39.000Z</time>
      </trkpt>
      <trkpt lat="45.22822" lon="4.80417">
        <ele>130.699918</ele>
        <time>2021-09-14T10:28:47.000Z</time>
      </trkpt>
      <trkpt lat="45.22787" lon="4.80428">
        <ele>131.017119</ele>
        <time>2021-09-14T10:28:55.000Z</time>
      </trkpt>
      <trkpt lat="45.22746" lon="4.8044">
        <ele>131.37329</ele>
        <time>2021-09-14T10:29:05.000Z</time>
      </trkpt>
      <trkpt lat="45.22718" lon="4.80451">
        <ele>131.614416</ele>
        <time>2021-09-14T10:29:13.000Z</time>
      </trkpt>
      <trkpt lat="45.22694" lon="4.8046">
        <ele>131.81316</ele>
        <time>2021-09-14T10:29:19.000Z</time>
      </trkpt>
      <trkpt lat="45.22662" lon="4.80473">
        <ele>132.083954</ele>
        <time>2021-09-14T10:29:26.000Z</time>
      </trkpt>
      <trkpt lat="45.22618" lon="4.8049">
        <ele>132.45789</ele>
        <time>2021-09-14T10:29:35.000Z</time>
      </trkpt>
      <trkpt lat="45.22579" lon="4.8051">
        <ele>132.69332</ele>
        <time>2021-09-14T10:29:43.000Z</time>
      </trkpt>
      <trkpt lat="45.22541" lon="4.80534">
        <ele>132.780458</ele>
        <time>2021-09-14T10:29:51.000Z</time>
      </trkpt>
      <trkpt lat="45.22501" lon="4.80555">
        <ele>132.872889</ele>
        <time>2021-09-14T10:29:59.000Z</time>
      </trkpt>
      <trkpt lat="45.22466" lon="4.80574">
        <ele>132.952332</ele>
        <time>2021-09-14T10:30:06.000Z</time>
      </trkpt>
      <trkpt lat="45.22426" lon="4.80595">
        <ele>133.031886</ele>
        <time>2021-09-14T10:30:14.000Z</time>
      </trkpt>
      <trkpt lat="45.22377" lon="4.80622">
        <ele>132.642098</ele>
        <time>2021-09-14T10:30:24.000Z</time>
      </trkpt>
      <trkpt lat="45.22361" lon="4.8063">
        <ele>132.518754</ele>
        <time>2021-09-14T10:30:27.000Z</time>
      </trkpt>
      <trkpt lat="45.2235" lon="4.80635">
        <ele>132.436476</ele>
        <time>2021-09-14T10:30:29.000Z</time>
      </trkpt>
      <trkpt lat="45.22308" lon="4.80658">
        <ele>132.102469</ele>
        <time>2021-09-14T10:30:37.000Z</time>
      </trkpt>
      <trkpt lat="45.2226" lon="4.80684">
        <ele>131.723266</ele>
        <time>2021-09-14T10:30:46.000Z</time>
      </trkpt>
      <trkpt lat="45.22234" lon="4.80698">
        <ele>131.197599</ele>
        <time>2021-09-14T10:30:51.000Z</time>
      </trkpt>
      <trkpt lat="45.22224" lon="4.80703">
        <ele>130.989576</ele>
        <time>2021-09-14T10:30:53.000Z</time>
      </trkpt>
      <trkpt lat="45.22191" lon="4.80716">
        <ele>130.344283</ele>
        <time>2021-09-14T10:30:59.000Z</time>
      </trkpt>
      <trkpt lat="45.2217" lon="4.80723">
        <ele>129.917221</ele>
        <time>2021-09-14T10:31:03.000Z</time>
      </trkpt>
      <trkpt lat="45.22165" lon="4.80725">
        <ele>129.814056</ele>
        <time>2021-09-14T10:31:04.000Z</time>
      </trkpt>
      <trkpt lat="45.22154" lon="4.80729">
        <ele>129.611468</ele>
        <time>2021-09-14T10:31:06.000Z</time>
      </trkpt>
      <trkpt lat="45.22138" lon="4.80735">
        <ele>129.283993</ele>
        <time>2021-09-14T10:31:09.000Z</time>
      </trkpt>
      <trkpt lat="45.22107" lon="4.80751">
        <ele>128.639145</ele>
        <time>2021-09-14T10:31:15.000Z</time>
      </trkpt>
      <trkpt lat="45.22075" lon="4.80767">
        <ele>128.156365</ele>
        <time>2021-09-14T10:31:21.000Z</time>
      </trkpt>
      <trkpt lat="45.22054" lon="4.80778">
        <ele>128.00819</ele>
        <time>2021-09-14T10:31:25.000Z</time>
      </trkpt>
      <trkpt lat="45.22045" lon="4.80782">
        <ele>127.941578</ele>
        <time>2021-09-14T10:31:27.000Z</time>
      </trkpt>
      <trkpt lat="45.22019" lon="4.80787">
        <ele>127.75667</ele>
        <time>2021-09-14T10:31:32.000Z</time>
      </trkpt>
      <trkpt lat="45.21987" lon="4.80799">
        <ele>127.528131</ele>
        <time>2021-09-14T10:31:38.000Z</time>
      </trkpt>
      <trkpt lat="45.21972" lon="4.80804">
        <ele>127.42063</ele>
        <time>2021-09-14T10:31:41.000Z</time>
      </trkpt>
      <trkpt lat="45.21962" lon="4.80808">
        <ele>127.350156</ele>
        <time>2021-09-14T10:31:43.000Z</time>
      </trkpt>
      <trkpt lat="45.21921" lon="4.80823">
        <ele>127.061276</ele>
        <time>2021-09-14T10:31:51.000Z</time>
      </trkpt>
      <trkpt lat="45.21904" lon="4.80838">
        <ele>126.942873</ele>
        <time>2021-09-14T10:31:55.000Z</time>
      </trkpt>
      <trkpt lat="45.219" lon="4.80843">
        <ele>126.916609</ele>
        <time>2021-09-14T10:31:56.000Z</time>
      </trkpt>
      <trkpt lat="45.21879" lon="4.80844">
        <ele>126.802255</ele>
        <time>2021-09-14T10:32:00.000Z</time>
      </trkpt>
      <trkpt lat="45.21874" lon="4.80844">
        <ele>126.772884</ele>
        <time>2021-09-14T10:32:01.000Z</time>
      </trkpt>
      <trkpt lat="45.21868" lon="4.80844">
        <ele>126.745649</ele>
        <time>2021-09-14T10:32:02.000Z</time>
      </trkpt>
      <trkpt lat="45.21855" lon="4.80846">
        <ele>126.67104</ele>
        <time>2021-09-14T10:32:05.000Z</time>
      </trkpt>
      <trkpt lat="45.21829" lon="4.80852">
        <ele>126.530839</ele>
        <time>2021-09-14T10:32:11.000Z</time>
      </trkpt>
      <trkpt lat="45.21806" lon="4.80857">
        <ele>126.40963</ele>
        <time>2021-09-14T10:32:17.000Z</time>
      </trkpt>
      <trkpt lat="45.21789" lon="4.80861">
        <ele>126.31544</ele>
        <time>2021-09-14T10:32:21.000Z</time>
      </trkpt>
      <trkpt lat="45.21784" lon="4.80862">
        <ele>126.290529</ele>
        <time>2021-09-14T10:32:22.000Z</time>
      </trkpt>
      <trkpt lat="45.21747" lon="4.80871">
        <ele>126.087028</ele>
        <time>2021-09-14T10:32:30.000Z</time>
      </trkpt>
      <trkpt lat="45.21711" lon="4.80879">
        <ele>125.871161</ele>
        <time>2021-09-14T10:32:37.000Z</time>
      </trkpt>
      <trkpt lat="45.21662" lon="4.8089">
        <ele>125.565806</ele>
        <time>2021-09-14T10:32:46.000Z</time>
      </trkpt>
      <trkpt lat="45.21646" lon="4.80894">
        <ele>125.466138</ele>
        <time>2021-09-14T10:32:49.000Z</time>
      </trkpt>
      <trkpt lat="45.21631" lon="4.80897">
        <ele>125.371469</ele>
        <time>2021-09-14T10:32:52.000Z</time>
      </trkpt>
      <trkpt lat="45.21594" lon="4.80905">
        <ele>125.142874</ele>
        <time>2021-09-14T10:33:00.000Z</time>
      </trkpt>
      <trkpt lat="45.21554" lon="4.80914">
        <ele>125.009452</ele>
        <time>2021-09-14T10:33:09.000Z</time>
      </trkpt>
      <trkpt lat="45.21515" lon="4.80922">
        <ele>125.303837</ele>
        <time>2021-09-14T10:33:18.000Z</time>
      </trkpt>
      <trkpt lat="45.2151" lon="4.80924">
        <ele>125.339284</ele>
        <time>2021-09-14T10:33:19.000Z</time>
      </trkpt>
      <trkpt lat="45.21491" lon="4.80929">
        <ele>125.48647</ele>
        <time>2021-09-14T10:33:23.000Z</time>
      </trkpt>
      <trkpt lat="45.21486" lon="4.80931">
        <ele>125.524986</ele>
        <time>2021-09-14T10:33:24.000Z</time>
      </trkpt>
      <trkpt lat="45.21451" lon="4.80941">
        <ele>125.797876</ele>
        <time>2021-09-14T10:33:31.000Z</time>
      </trkpt>
      <trkpt lat="45.2142" lon="4.80949">
        <ele>126.038283</ele>
        <time>2021-09-14T10:33:37.000Z</time>
      </trkpt>
      <trkpt lat="45.21388" lon="4.80958">
        <ele>126.281864</ele>
        <time>2021-09-14T10:33:43.000Z</time>
      </trkpt>
      <trkpt lat="45.21374" lon="4.80962">
        <ele>126.454235</ele>
        <time>2021-09-14T10:33:46.000Z</time>
      </trkpt>
      <trkpt lat="45.21356" lon="4.80967">
        <ele>126.684945</ele>
        <time>2021-09-14T10:33:50.000Z</time>
      </trkpt>
      <trkpt lat="45.21329" lon="4.80975">
        <ele>127.051367</ele>
        <time>2021-09-14T10:33:58.000Z</time>
      </trkpt>
      <trkpt lat="45.21302" lon="4.80983">
        <ele>127.4006</ele>
        <time>2021-09-14T10:34:06.000Z</time>
      </trkpt>
      <trkpt lat="45.2128" lon="4.80988">
        <ele>127.688554</ele>
        <time>2021-09-14T10:34:13.000Z</time>
      </trkpt>
      <trkpt lat="45.2125" lon="4.80993">
        <ele>128.082182</ele>
        <time>2021-09-14T10:34:21.000Z</time>
      </trkpt>
      <trkpt lat="45.21223" lon="4.81003">
        <ele>128.438536</ele>
        <time>2021-09-14T10:34:28.000Z</time>
      </trkpt>
      <trkpt lat="45.21195" lon="4.81013">
        <ele>128.765926</ele>
        <time>2021-09-14T10:34:35.000Z</time>
      </trkpt>
      <trkpt lat="45.21186" lon="4.81016">
        <ele>128.844794</ele>
        <time>2021-09-14T10:34:37.000Z</time>
      </trkpt>
      <trkpt lat="45.21168" lon="4.81023">
        <ele>129.025105</ele>
        <time>2021-09-14T10:34:42.000Z</time>
      </trkpt>
      <trkpt lat="45.21143" lon="4.81034">
        <ele>129.260679</ele>
        <time>2021-09-14T10:34:48.000Z</time>
      </trkpt>
      <trkpt lat="45.21114" lon="4.81048">
        <ele>129.552583</ele>
        <time>2021-09-14T10:34:56.000Z</time>
      </trkpt>
      <trkpt lat="45.2109" lon="4.8106">
        <ele>129.786245</ele>
        <time>2021-09-14T10:35:02.000Z</time>
      </trkpt>
      <trkpt lat="45.21061" lon="4.81074">
        <ele>130.070266</ele>
        <time>2021-09-14T10:35:09.000Z</time>
      </trkpt>
      <trkpt lat="45.21032" lon="4.81088">
        <ele>130.248977</ele>
        <time>2021-09-14T10:35:16.000Z</time>
      </trkpt>
      <trkpt lat="45.20999" lon="4.81104">
        <ele>129.97698</ele>
        <time>2021-09-14T10:35:23.000Z</time>
      </trkpt>
      <trkpt lat="45.2096" lon="4.81126">
        <ele>129.641077</ele>
        <time>2021-09-14T10:35:31.000Z</time>
      </trkpt>
      <trkpt lat="45.20925" lon="4.81147">
        <ele>129.340583</ele>
        <time>2021-09-14T10:35:38.000Z</time>
      </trkpt>
      <trkpt lat="45.20901" lon="4.81161">
        <ele>129.129329</ele>
        <time>2021-09-14T10:35:43.000Z</time>
      </trkpt>
      <trkpt lat="45.20893" lon="4.81171">
        <ele>129.044858</ele>
        <time>2021-09-14T10:35:45.000Z</time>
      </trkpt>
      <trkpt lat="45.20879" lon="4.81186">
        <ele>128.908642</ele>
        <time>2021-09-14T10:35:48.000Z</time>
      </trkpt>
      <trkpt lat="45.2087" lon="4.81196">
        <ele>128.800909</ele>
        <time>2021-09-14T10:35:50.000Z</time>
      </trkpt>
      <trkpt lat="45.20865" lon="4.81201">
        <ele>128.744116</ele>
        <time>2021-09-14T10:35:51.000Z</time>
      </trkpt>
      <trkpt lat="45.20853" lon="4.81216">
        <ele>128.580149</ele>
        <time>2021-09-14T10:35:54.000Z</time>
      </trkpt>
      <trkpt lat="45.20841" lon="4.81225">
        <ele>128.44877</ele>
        <time>2021-09-14T10:35:56.000Z</time>
      </trkpt>
      <trkpt lat="45.2083" lon="4.81231">
        <ele>128.328783</ele>
        <time>2021-09-14T10:35:58.000Z</time>
      </trkpt>
      <trkpt lat="45.20808" lon="4.81244">
        <ele>128.099335</ele>
        <time>2021-09-14T10:36:02.000Z</time>
      </trkpt>
      <trkpt lat="45.20792" lon="4.81253">
        <ele>127.919091</ele>
        <time>2021-09-14T10:36:05.000Z</time>
      </trkpt>
      <trkpt lat="45.20781" lon="4.81259">
        <ele>127.804125</ele>
        <time>2021-09-14T10:36:07.000Z</time>
      </trkpt>
      <trkpt lat="45.20745" lon="4.81273">
        <ele>127.438148</ele>
        <time>2021-09-14T10:36:14.000Z</time>
      </trkpt>
      <trkpt lat="45.20711" lon="4.81287">
        <ele>127.084979</ele>
        <time>2021-09-14T10:36:21.000Z</time>
      </trkpt>
      <trkpt lat="45.20668" lon="4.81311">
        <ele>126.914297</ele>
        <time>2021-09-14T10:36:30.000Z</time>
      </trkpt>
      <trkpt lat="45.20636" lon="4.81331">
        <ele>126.788047</ele>
        <time>2021-09-14T10:36:37.000Z</time>
      </trkpt>
      <trkpt lat="45.20627" lon="4.81338">
        <ele>126.752854</ele>
        <time>2021-09-14T10:36:39.000Z</time>
      </trkpt>
      <trkpt lat="45.2062" lon="4.81344">
        <ele>126.721611</ele>
        <time>2021-09-14T10:36:41.000Z</time>
      </trkpt>
      <trkpt lat="45.20616" lon="4.81347">
        <ele>126.704828</ele>
        <time>2021-09-14T10:36:42.000Z</time>
      </trkpt>
      <trkpt lat="45.20611" lon="4.81351">
        <ele>126.687145</ele>
        <time>2021-09-14T10:36:43.000Z</time>
      </trkpt>
      <trkpt lat="45.20596" lon="4.81354">
        <ele>126.630763</ele>
        <time>2021-09-14T10:36:46.000Z</time>
      </trkpt>
      <trkpt lat="45.20575" lon="4.81358">
        <ele>126.553319</ele>
        <time>2021-09-14T10:36:50.000Z</time>
      </trkpt>
      <trkpt lat="45.20569" lon="4.81362">
        <ele>126.531655</ele>
        <time>2021-09-14T10:36:51.000Z</time>
      </trkpt>
      <trkpt lat="45.20567" lon="4.81368">
        <ele>126.514437</ele>
        <time>2021-09-14T10:36:52.000Z</time>
      </trkpt>
      <trkpt lat="45.20563" lon="4.8138">
        <ele>126.482222</ele>
        <time>2021-09-14T10:36:54.000Z</time>
      </trkpt>
      <trkpt lat="45.20555" lon="4.81385">
        <ele>126.448241</ele>
        <time>2021-09-14T10:36:56.000Z</time>
      </trkpt>
      <trkpt lat="45.2055" lon="4.81386">
        <ele>126.432678</ele>
        <time>2021-09-14T10:36:57.000Z</time>
      </trkpt>
      <trkpt lat="45.20518" lon="4.81388">
        <ele>126.514427</ele>
        <time>2021-09-14T10:37:03.000Z</time>
      </trkpt>
      <trkpt lat="45.20485" lon="4.8139">
        <ele>126.599764</ele>
        <time>2021-09-14T10:37:09.000Z</time>
      </trkpt>
      <trkpt lat="45.20469" lon="4.81391">
        <ele>126.641282</ele>
        <time>2021-09-14T10:37:12.000Z</time>
      </trkpt>
      <trkpt lat="45.20448" lon="4.81393">
        <ele>126.695097</ele>
        <time>2021-09-14T10:37:16.000Z</time>
      </trkpt>
      <trkpt lat="45.20415" lon="4.81393">
        <ele>126.777766</ele>
        <time>2021-09-14T10:37:22.000Z</time>
      </trkpt>
      <trkpt lat="45.20367" lon="4.81392">
        <ele>126.919571</ele>
        <time>2021-09-14T10:37:31.000Z</time>
      </trkpt>
      <trkpt lat="45.20336" lon="4.81391">
        <ele>127.15734</ele>
        <time>2021-09-14T10:37:37.000Z</time>
      </trkpt>
      <trkpt lat="45.20311" lon="4.81384">
        <ele>127.348478</ele>
        <time>2021-09-14T10:37:42.000Z</time>
      </trkpt>
      <trkpt lat="45.20307" lon="4.81382">
        <ele>127.387688</ele>
        <time>2021-09-14T10:37:43.000Z</time>
      </trkpt>
      <trkpt lat="45.20289" lon="4.81373">
        <ele>127.533867</ele>
        <time>2021-09-14T10:37:47.000Z</time>
      </trkpt>
      <trkpt lat="45.20281" lon="4.81367">
        <ele>127.602267</ele>
        <time>2021-09-14T10:37:49.000Z</time>
      </trkpt>
      <trkpt lat="45.20262" lon="4.81352">
        <ele>127.769408</ele>
        <time>2021-09-14T10:37:54.000Z</time>
      </trkpt>
      <trkpt lat="45.20253" lon="4.81347">
        <ele>127.839204</ele>
        <time>2021-09-14T10:37:56.000Z</time>
      </trkpt>
      <trkpt lat="45.20244" lon="4.81344">
        <ele>127.913129</ele>
        <time>2021-09-14T10:37:58.000Z</time>
      </trkpt>
      <trkpt lat="45.20225" lon="4.81334">
        <ele>128.065092</ele>
        <time>2021-09-14T10:38:02.000Z</time>
      </trkpt>
      <trkpt lat="45.20213" lon="4.81323">
        <ele>128.177973</ele>
        <time>2021-09-14T10:38:05.000Z</time>
      </trkpt>
      <trkpt lat="45.20209" lon="4.81319">
        <ele>128.214295</ele>
        <time>2021-09-14T10:38:06.000Z</time>
      </trkpt>
      <trkpt lat="45.20189" lon="4.81301">
        <ele>128.420234</ele>
        <time>2021-09-14T10:38:11.000Z</time>
      </trkpt>
      <trkpt lat="45.20177" lon="4.81289">
        <ele>128.554592</ele>
        <time>2021-09-14T10:38:14.000Z</time>
      </trkpt>
      <trkpt lat="45.2017" lon="4.81279">
        <ele>128.645441</ele>
        <time>2021-09-14T10:38:16.000Z</time>
      </trkpt>
      <trkpt lat="45.20134" lon="4.81228">
        <ele>129.106897</ele>
        <time>2021-09-14T10:38:26.000Z</time>
      </trkpt>
      <trkpt lat="45.20119" lon="4.81207">
        <ele>129.298176</ele>
        <time>2021-09-14T10:38:30.000Z</time>
      </trkpt>
      <trkpt lat="45.20115" lon="4.81202">
        <ele>129.344902</ele>
        <time>2021-09-14T10:38:31.000Z</time>
      </trkpt>
      <trkpt lat="45.20104" lon="4.81188">
        <ele>129.480907</ele>
        <time>2021-09-14T10:38:34.000Z</time>
      </trkpt>
      <trkpt lat="45.20097" lon="4.81177">
        <ele>129.57199</ele>
        <time>2021-09-14T10:38:36.000Z</time>
      </trkpt>
      <trkpt lat="45.20072" lon="4.81128">
        <ele>129.930508</ele>
        <time>2021-09-14T10:38:44.000Z</time>
      </trkpt>
      <trkpt lat="45.20051" lon="4.81086">
        <ele>130.058968</ele>
        <time>2021-09-14T10:38:51.000Z</time>
      </trkpt>
      <trkpt lat="45.20033" lon="4.81049">
        <ele>130.167954</ele>
        <time>2021-09-14T10:38:57.000Z</time>
      </trkpt>
      <trkpt lat="45.20022" lon="4.81026">
        <ele>130.23879</ele>
        <time>2021-09-14T10:39:01.000Z</time>
      </trkpt>
      <trkpt lat="45.20012" lon="4.81008">
        <ele>130.295478</ele>
        <time>2021-09-14T10:39:04.000Z</time>
      </trkpt>
      <trkpt lat="45.20006" lon="4.80996">
        <ele>130.332466</ele>
        <time>2021-09-14T10:39:06.000Z</time>
      </trkpt>
      <trkpt lat="45.19984" lon="4.8096">
        <ele>130.45167</ele>
        <time>2021-09-14T10:39:12.000Z</time>
      </trkpt>
      <trkpt lat="45.19951" lon="4.80912">
        <ele>130.572032</ele>
        <time>2021-09-14T10:39:20.000Z</time>
      </trkpt>
      <trkpt lat="45.19916" lon="4.80872">
        <ele>130.633458</ele>
        <time>2021-09-14T10:39:28.000Z</time>
      </trkpt>
      <trkpt lat="45.19907" lon="4.80864">
        <ele>130.647999</ele>
        <time>2021-09-14T10:39:30.000Z</time>
      </trkpt>
      <trkpt lat="45.19895" lon="4.80848">
        <ele>130.671311</ele>
        <time>2021-09-14T10:39:33.000Z</time>
      </trkpt>
      <trkpt lat="45.19866" lon="4.80811">
        <ele>130.725256</ele>
        <time>2021-09-14T10:39:40.000Z</time>
      </trkpt>
      <trkpt lat="45.19854" lon="4.80801">
        <ele>130.745203</ele>
        <time>2021-09-14T10:39:43.000Z</time>
      </trkpt>
      <trkpt lat="45.19845" lon="4.80798">
        <ele>130.757133</ele>
        <time>2021-09-14T10:39:45.000Z</time>
      </trkpt>
      <trkpt lat="45.19841" lon="4.80797">
        <ele>130.763075</ele>
        <time>2021-09-14T10:39:46.000Z</time>
      </trkpt>
      <trkpt lat="45.19815" lon="4.80789">
        <ele>130.826072</ele>
        <time>2021-09-14T10:39:53.000Z</time>
      </trkpt>
      <trkpt lat="45.19794" lon="4.80786">
        <ele>130.942036</ele>
        <time>2021-09-14T10:39:59.000Z</time>
      </trkpt>
      <trkpt lat="45.19771" lon="4.80786">
        <ele>131.071194</ele>
        <time>2021-09-14T10:40:06.000Z</time>
      </trkpt>
      <trkpt lat="45.19754" lon="4.80784">
        <ele>131.162866</ele>
        <time>2021-09-14T10:40:10.000Z</time>
      </trkpt>
      <trkpt lat="45.19735" lon="4.80778">
        <ele>131.275734</ele>
        <time>2021-09-14T10:40:15.000Z</time>
      </trkpt>
      <trkpt lat="45.19712" lon="4.80771">
        <ele>131.405685</ele>
        <time>2021-09-14T10:40:20.000Z</time>
      </trkpt>
      <trkpt lat="45.19707" lon="4.80771">
        <ele>131.434677</ele>
        <time>2021-09-14T10:40:21.000Z</time>
      </trkpt>
      <trkpt lat="45.19702" lon="4.8077">
        <ele>131.461471</ele>
        <time>2021-09-14T10:40:22.000Z</time>
      </trkpt>
      <trkpt lat="45.19679" lon="4.80768">
        <ele>131.590867</ele>
        <time>2021-09-14T10:40:27.000Z</time>
      </trkpt>
      <trkpt lat="45.19651" lon="4.80766">
        <ele>131.744277</ele>
        <time>2021-09-14T10:40:33.000Z</time>
      </trkpt>
      <trkpt lat="45.19616" lon="4.80763">
        <ele>131.856634</ele>
        <time>2021-09-14T10:40:41.000Z</time>
      </trkpt>
      <trkpt lat="45.19578" lon="4.80762">
        <ele>131.951375</ele>
        <time>2021-09-14T10:40:50.000Z</time>
      </trkpt>
      <trkpt lat="45.19556" lon="4.80764">
        <ele>132.004696</ele>
        <time>2021-09-14T10:40:55.000Z</time>
      </trkpt>
      <trkpt lat="45.19543" lon="4.80765">
        <ele>132.037629</ele>
        <time>2021-09-14T10:40:58.000Z</time>
      </trkpt>
      <trkpt lat="45.19511" lon="4.80767">
        <ele>132.114805</ele>
        <time>2021-09-14T10:41:05.000Z</time>
      </trkpt>
      <trkpt lat="45.19507" lon="4.80768">
        <ele>132.125381</ele>
        <time>2021-09-14T10:41:06.000Z</time>
      </trkpt>
      <trkpt lat="45.19498" lon="4.80764">
        <ele>132.147593</ele>
        <time>2021-09-14T10:41:08.000Z</time>
      </trkpt>
      <trkpt lat="45.1949" lon="4.80759">
        <ele>132.169799</ele>
        <time>2021-09-14T10:41:10.000Z</time>
      </trkpt>
      <trkpt lat="45.19476" lon="4.80755">
        <ele>132.204752</ele>
        <time>2021-09-14T10:41:13.000Z</time>
      </trkpt>
      <trkpt lat="45.19463" lon="4.80757">
        <ele>132.237514</ele>
        <time>2021-09-14T10:41:16.000Z</time>
      </trkpt>
      <trkpt lat="45.19459" lon="4.80758">
        <ele>132.251441</ele>
        <time>2021-09-14T10:41:17.000Z</time>
      </trkpt>
      <trkpt lat="45.19446" lon="4.8076">
        <ele>132.29325</ele>
        <time>2021-09-14T10:41:20.000Z</time>
      </trkpt>
      <trkpt lat="45.19437" lon="4.80762">
        <ele>132.320466</ele>
        <time>2021-09-14T10:41:22.000Z</time>
      </trkpt>
      <trkpt lat="45.19425" lon="4.80765">
        <ele>132.362165</ele>
        <time>2021-09-14T10:41:25.000Z</time>
      </trkpt>
      <trkpt lat="45.19412" lon="4.8077">
        <ele>132.402819</ele>
        <time>2021-09-14T10:41:28.000Z</time>
      </trkpt>
      <trkpt lat="45.19383" lon="4.80781">
        <ele>132.50106</ele>
        <time>2021-09-14T10:41:35.000Z</time>
      </trkpt>
      <trkpt lat="45.19346" lon="4.80796">
        <ele>132.624014</ele>
        <time>2021-09-14T10:41:43.000Z</time>
      </trkpt>
      <trkpt lat="45.17168" lon="4.81346">
        <ele>156.860279</ele>
        <time>2021-09-14T10:54:22.000Z</time>
      </trkpt>
      <trkpt lat="45.17122" lon="4.81331">
        <ele>156.666893</ele>
        <time>2021-09-14T10:55:16.000Z</time>
      </trkpt>
      <trkpt lat="45.17122" lon="4.81331">
        <ele>156.66719</ele>
        <time>2021-09-14T10:55:17.000Z</time>
      </trkpt>
      <trkpt lat="45.17125" lon="4.81322">
        <ele>156.673927</ele>
        <time>2021-09-14T10:59:44.000Z</time>
      </trkpt>
      <trkpt lat="45.17128" lon="4.81322">
        <ele>156.676903</ele>
        <time>2021-09-14T10:59:46.000Z</time>
      </trkpt>
      <trkpt lat="45.17133" lon="4.81322">
        <ele>156.681762</ele>
        <time>2021-09-14T10:59:52.000Z</time>
      </trkpt>
      <trkpt lat="45.17134" lon="4.81322">
        <ele>156.683052</ele>
        <time>2021-09-14T10:59:54.000Z</time>
      </trkpt>
      <trkpt lat="45.1706" lon="4.81384">
        <ele>156.768282</ele>
        <time>2021-09-14T11:06:05.000Z</time>
      </trkpt>
      <trkpt lat="45.17059" lon="4.81381">
        <ele>156.770328</ele>
        <time>2021-09-14T11:06:07.000Z</time>
      </trkpt>
      <trkpt lat="45.17058" lon="4.81374">
        <ele>156.775606</ele>
        <time>2021-09-14T11:06:14.000Z</time>
      </trkpt>
      <trkpt lat="45.17053" lon="4.81375">
        <ele>156.780793</ele>
        <time>2021-09-14T11:06:20.000Z</time>
      </trkpt>
      <trkpt lat="45.17053" lon="4.81376">
        <ele>156.781453</ele>
        <time>2021-09-14T11:06:22.000Z</time>
      </trkpt>
      <trkpt lat="45.1706" lon="4.81405">
        <ele>156.803182</ele>
        <time>2021-09-14T11:06:57.000Z</time>
      </trkpt>
      <trkpt lat="45.1706" lon="4.81405">
        <ele>156.803182</ele>
        <time>2021-09-14T11:06:58.000Z</time>
      </trkpt>
      <trkpt lat="45.17058" lon="4.81396">
        <ele>156.463261</ele>
        <time>2021-09-14T11:07:00.000Z</time>
      </trkpt>
      <trkpt lat="45.17059" lon="4.81354">
        <ele>154.930837</ele>
        <time>2021-09-14T11:09:34.000Z</time>
      </trkpt>
      <trkpt lat="45.17062" lon="4.81415">
        <ele>152.719193</ele>
        <time>2021-09-14T11:09:36.000Z</time>
      </trkpt>
      <trkpt lat="45.17057" lon="4.81343">
        <ele>150.134726</ele>
        <time>2021-09-14T11:09:46.000Z</time>
      </trkpt>
      <trkpt lat="45.17124" lon="4.81336">
        <ele>146.145399</ele>
        <time>2021-09-14T11:14:09.000Z</time>
      </trkpt>
      <trkpt lat="45.17121" lon="4.81333">
        <ele>145.793419</ele>
        <time>2021-09-14T11:14:14.000Z</time>
      </trkpt>
      <trkpt lat="45.17121" lon="4.81333">
        <ele>145.78226</ele>
        <time>2021-09-14T11:20:37.000Z</time>
      </trkpt>
      <trkpt lat="45.17121" lon="4.81328">
        <ele>145.525109</ele>
        <time>2021-09-14T11:20:39.000Z</time>
      </trkpt>
      <trkpt lat="45.17121" lon="4.81325">
        <ele>145.32362</ele>
        <time>2021-09-14T11:20:41.000Z</time>
      </trkpt>
      <trkpt lat="45.17138" lon="4.81323">
        <ele>144.005086</ele>
        <time>2021-09-14T11:20:46.000Z</time>
      </trkpt>
      <trkpt lat="45.17158" lon="4.81323">
        <ele>142.382379</ele>
        <time>2021-09-14T11:20:51.000Z</time>
      </trkpt>
      <trkpt lat="45.17166" lon="4.81323">
        <ele>141.75711</ele>
        <time>2021-09-14T11:20:53.000Z</time>
      </trkpt>
      <trkpt lat="45.17195" lon="4.81324">
        <ele>139.484971</ele>
        <time>2021-09-14T11:21:00.000Z</time>
      </trkpt>
      <trkpt lat="45.17211" lon="4.81325">
        <ele>138.218347</ele>
        <time>2021-09-14T11:21:04.000Z</time>
      </trkpt>
      <trkpt lat="45.17225" lon="4.81325">
        <ele>137.102058</ele>
        <time>2021-09-14T11:21:09.000Z</time>
      </trkpt>
      <trkpt lat="45.17245" lon="4.81325">
        <ele>135.511248</ele>
        <time>2021-09-14T11:21:14.000Z</time>
      </trkpt>
      <trkpt lat="45.17249" lon="4.81325">
        <ele>135.177159</ele>
        <time>2021-09-14T11:21:15.000Z</time>
      </trkpt>
      <trkpt lat="45.17268" lon="4.81318">
        <ele>133.642996</ele>
        <time>2021-09-14T11:21:20.000Z</time>
      </trkpt>
      <trkpt lat="45.17271" lon="4.81317">
        <ele>133.394729</ele>
        <time>2021-09-14T11:21:21.000Z</time>
      </trkpt>
      <trkpt lat="45.17282" lon="4.81318">
        <ele>133.300308</ele>
        <time>2021-09-14T11:21:23.000Z</time>
      </trkpt>
      <trkpt lat="45.17274" lon="4.81295">
        <ele>133.17593</ele>
        <time>2021-09-14T11:21:27.000Z</time>
      </trkpt>
      <trkpt lat="45.17273" lon="4.81283">
        <ele>133.117309</ele>
        <time>2021-09-14T11:21:29.000Z</time>
      </trkpt>
      <trkpt lat="45.17272" lon="4.81271">
        <ele>133.057444</ele>
        <time>2021-09-14T11:21:31.000Z</time>
      </trkpt>
      <trkpt lat="45.17277" lon="4.81259">
        <ele>132.99342</ele>
        <time>2021-09-14T11:21:33.000Z</time>
      </trkpt>
      <trkpt lat="45.17281" lon="4.81256">
        <ele>132.957591</ele>
        <time>2021-09-14T11:21:34.000Z</time>
      </trkpt>
      <trkpt lat="45.17291" lon="4.81253">
        <ele>132.888885</ele>
        <time>2021-09-14T11:21:35.000Z</time>
      </trkpt>
      <trkpt lat="45.17307" lon="4.81253">
        <ele>132.781611</ele>
        <time>2021-09-14T11:21:39.000Z</time>
      </trkpt>
      <trkpt lat="45.17356" lon="4.81254">
        <ele>132.448185</ele>
        <time>2021-09-14T11:21:47.000Z</time>
      </trkpt>
      <trkpt lat="45.17393" lon="4.81248">
        <ele>132.192751</ele>
        <time>2021-09-14T11:21:53.000Z</time>
      </trkpt>
      <trkpt lat="45.17431" lon="4.81241">
        <ele>132.210834</ele>
        <time>2021-09-14T11:21:59.000Z</time>
      </trkpt>
      <trkpt lat="45.17449" lon="4.81238">
        <ele>132.247781</ele>
        <time>2021-09-14T11:22:02.000Z</time>
      </trkpt>
      <trkpt lat="45.17455" lon="4.81239">
        <ele>132.260691</ele>
        <time>2021-09-14T11:22:04.000Z</time>
      </trkpt>
      <trkpt lat="45.17492" lon="4.81248">
        <ele>132.336474</ele>
        <time>2021-09-14T11:22:10.000Z</time>
      </trkpt>
      <trkpt lat="45.17526" lon="4.81263">
        <ele>132.409786</ele>
        <time>2021-09-14T11:22:16.000Z</time>
      </trkpt>
      <trkpt lat="45.17579" lon="4.81285">
        <ele>132.525119</ele>
        <time>2021-09-14T11:22:25.000Z</time>
      </trkpt>
      <trkpt lat="45.17614" lon="4.81285">
        <ele>132.618995</ele>
        <time>2021-09-14T11:22:31.000Z</time>
      </trkpt>
      <trkpt lat="45.17626" lon="4.81283">
        <ele>132.648912</ele>
        <time>2021-09-14T11:22:35.000Z</time>
      </trkpt>
      <trkpt lat="45.17651" lon="4.81287">
        <ele>132.717687</ele>
        <time>2021-09-14T11:22:37.000Z</time>
      </trkpt>
      <trkpt lat="45.17651" lon="4.81287">
        <ele>132.717875</ele>
        <time>2021-09-14T11:22:38.000Z</time>
      </trkpt>
      <trkpt lat="45.17659" lon="4.81295">
        <ele>132.743796</ele>
        <time>2021-09-14T11:22:40.000Z</time>
      </trkpt>
      <trkpt lat="45.17665" lon="4.81305">
        <ele>132.768845</ele>
        <time>2021-09-14T11:22:42.000Z</time>
      </trkpt>
      <trkpt lat="45.17671" lon="4.81318">
        <ele>132.797544</ele>
        <time>2021-09-14T11:22:45.000Z</time>
      </trkpt>
      <trkpt lat="45.17672" lon="4.81322">
        <ele>132.805063</ele>
        <time>2021-09-14T11:22:49.000Z</time>
      </trkpt>
      <trkpt lat="45.17673" lon="4.81324">
        <ele>132.809814</ele>
        <time>2021-09-14T11:22:52.000Z</time>
      </trkpt>
      <trkpt lat="45.17675" lon="4.81327">
        <ele>132.816118</ele>
        <time>2021-09-14T11:22:56.000Z</time>
      </trkpt>
      <trkpt lat="45.17676" lon="4.81329">
        <ele>132.820725</ele>
        <time>2021-09-14T11:22:57.000Z</time>
      </trkpt>
      <trkpt lat="45.17679" lon="4.81334">
        <ele>132.833492</ele>
        <time>2021-09-14T11:23:00.000Z</time>
      </trkpt>
      <trkpt lat="45.17706" lon="4.81329">
        <ele>132.905714</ele>
        <time>2021-09-14T11:23:06.000Z</time>
      </trkpt>
      <trkpt lat="45.17744" lon="4.81321">
        <ele>132.97278</ele>
        <time>2021-09-14T11:23:13.000Z</time>
      </trkpt>
      <trkpt lat="45.17788" lon="4.81315">
        <ele>132.832506</ele>
        <time>2021-09-14T11:23:20.000Z</time>
      </trkpt>
      <trkpt lat="45.17826" lon="4.81319">
        <ele>132.71508</ele>
        <time>2021-09-14T11:23:25.000Z</time>
      </trkpt>
      <trkpt lat="45.17881" lon="4.81339">
        <ele>132.534552</ele>
        <time>2021-09-14T11:23:32.000Z</time>
      </trkpt>
      <trkpt lat="45.17889" lon="4.81343">
        <ele>132.508623</ele>
        <time>2021-09-14T11:23:33.000Z</time>
      </trkpt>
      <trkpt lat="45.17937" lon="4.81362">
        <ele>132.381841</ele>
        <time>2021-09-14T11:23:39.000Z</time>
      </trkpt>
      <trkpt lat="45.17992" lon="4.81379">
        <ele>132.269902</ele>
        <time>2021-09-14T11:23:45.000Z</time>
      </trkpt>
      <trkpt lat="45.18044" lon="4.81394">
        <ele>132.16541</ele>
        <time>2021-09-14T11:23:53.000Z</time>
      </trkpt>
      <trkpt lat="45.18102" lon="4.81403">
        <ele>132.054336</ele>
        <time>2021-09-14T11:24:01.000Z</time>
      </trkpt>
      <trkpt lat="45.18115" lon="4.81404">
        <ele>132.030326</ele>
        <time>2021-09-14T11:24:03.000Z</time>
      </trkpt>
      <trkpt lat="45.18137" lon="4.81403">
        <ele>131.993764</ele>
        <time>2021-09-14T11:24:06.000Z</time>
      </trkpt>
      <trkpt lat="45.18158" lon="4.81399">
        <ele>131.95743</ele>
        <time>2021-09-14T11:24:09.000Z</time>
      </trkpt>
      <trkpt lat="45.18206" lon="4.81391">
        <ele>131.872742</ele>
        <time>2021-09-14T11:24:16.000Z</time>
      </trkpt>
      <trkpt lat="45.18265" lon="4.81387">
        <ele>131.772117</ele>
        <time>2021-09-14T11:24:24.000Z</time>
      </trkpt>
      <trkpt lat="45.18307" lon="4.81386">
        <ele>132.09119</ele>
        <time>2021-09-14T11:24:30.000Z</time>
      </trkpt>
      <trkpt lat="45.1835" lon="4.8138">
        <ele>132.470031</ele>
        <time>2021-09-14T11:24:37.000Z</time>
      </trkpt>
      <trkpt lat="45.18381" lon="4.81379">
        <ele>132.743748</ele>
        <time>2021-09-14T11:24:44.000Z</time>
      </trkpt>
      <trkpt lat="45.18413" lon="4.81382">
        <ele>133.020647</ele>
        <time>2021-09-14T11:24:52.000Z</time>
      </trkpt>
      <trkpt lat="45.18425" lon="4.8139">
        <ele>133.139856</ele>
        <time>2021-09-14T11:24:56.000Z</time>
      </trkpt>
      <trkpt lat="45.18429" lon="4.81395">
        <ele>133.189574</ele>
        <time>2021-09-14T11:24:57.000Z</time>
      </trkpt>
      <trkpt lat="45.18437" lon="4.81395">
        <ele>133.259764</ele>
        <time>2021-09-14T11:24:59.000Z</time>
      </trkpt>
      <trkpt lat="45.18445" lon="4.81388">
        <ele>133.339546</ele>
        <time>2021-09-14T11:25:01.000Z</time>
      </trkpt>
      <trkpt lat="45.18446" lon="4.8138">
        <ele>133.414515</ele>
        <time>2021-09-14T11:25:02.000Z</time>
      </trkpt>
      <trkpt lat="45.18432" lon="4.81328">
        <ele>133.989141</ele>
        <time>2021-09-14T11:25:10.000Z</time>
      </trkpt>
      <trkpt lat="45.18423" lon="4.81285">
        <ele>134.440829</ele>
        <time>2021-09-14T11:25:17.000Z</time>
      </trkpt>
      <trkpt lat="45.18412" lon="4.81225">
        <ele>135.061096</ele>
        <time>2021-09-14T11:25:27.000Z</time>
      </trkpt>
      <trkpt lat="45.18401" lon="4.81167">
        <ele>135.67512</ele>
        <time>2021-09-14T11:25:36.000Z</time>
      </trkpt>
      <trkpt lat="45.18392" lon="4.81116">
        <ele>135.879379</ele>
        <time>2021-09-14T11:25:43.000Z</time>
      </trkpt>
      <trkpt lat="45.18381" lon="4.8106">
        <ele>135.782444</ele>
        <time>2021-09-14T11:25:50.000Z</time>
      </trkpt>
      <trkpt lat="45.18371" lon="4.81002">
        <ele>135.682545</ele>
        <time>2021-09-14T11:25:57.000Z</time>
      </trkpt>
      <trkpt lat="45.18366" lon="4.80952">
        <ele>135.598292</ele>
        <time>2021-09-14T11:26:03.000Z</time>
      </trkpt>
      <trkpt lat="45.18366" lon="4.80922">
        <ele>135.547908</ele>
        <time>2021-09-14T11:26:06.000Z</time>
      </trkpt>
      <trkpt lat="45.18366" lon="4.80914">
        <ele>135.534296</ele>
        <time>2021-09-14T11:26:08.000Z</time>
      </trkpt>
      <trkpt lat="45.18371" lon="4.80869">
        <ele>135.208074</ele>
        <time>2021-09-14T11:26:14.000Z</time>
      </trkpt>
      <trkpt lat="45.18366" lon="4.80861">
        <ele>135.074448</ele>
        <time>2021-09-14T11:26:17.000Z</time>
      </trkpt>
      <trkpt lat="45.18361" lon="4.80868">
        <ele>134.955708</ele>
        <time>2021-09-14T11:26:20.000Z</time>
      </trkpt>
      <trkpt lat="45.1836" lon="4.80872">
        <ele>134.895787</ele>
        <time>2021-09-14T11:26:21.000Z</time>
      </trkpt>
      <trkpt lat="45.18353" lon="4.80888">
        <ele>134.673091</ele>
        <time>2021-09-14T11:26:23.000Z</time>
      </trkpt>
      <trkpt lat="45.18351" lon="4.80893">
        <ele>134.592151</ele>
        <time>2021-09-14T11:26:24.000Z</time>
      </trkpt>
      <trkpt lat="45.18342" lon="4.80913">
        <ele>134.305358</ele>
        <time>2021-09-14T11:26:29.000Z</time>
      </trkpt>
      <trkpt lat="45.18328" lon="4.80945">
        <ele>133.842629</ele>
        <time>2021-09-14T11:26:35.000Z</time>
      </trkpt>
      <trkpt lat="45.18323" lon="4.80956">
        <ele>133.682041</ele>
        <time>2021-09-14T11:26:38.000Z</time>
      </trkpt>
      <trkpt lat="45.18315" lon="4.80972">
        <ele>133.456691</ele>
        <time>2021-09-14T11:26:41.000Z</time>
      </trkpt>
      <trkpt lat="45.18305" lon="4.81">
        <ele>133.068975</ele>
        <time>2021-09-14T11:26:46.000Z</time>
      </trkpt>
      <trkpt lat="45.18299" lon="4.81024">
        <ele>132.764281</ele>
        <time>2021-09-14T11:26:51.000Z</time>
      </trkpt>
      <trkpt lat="45.18298" lon="4.81065">
        <ele>132.378413</ele>
        <time>2021-09-14T11:26:56.000Z</time>
      </trkpt>
      <trkpt lat="45.183" lon="4.81085">
        <ele>132.361794</ele>
        <time>2021-09-14T11:27:00.000Z</time>
      </trkpt>
      <trkpt lat="45.18303" lon="4.81109">
        <ele>132.341378</ele>
        <time>2021-09-14T11:27:04.000Z</time>
      </trkpt>
      <trkpt lat="45.18298" lon="4.81117">
        <ele>132.332857</ele>
        <time>2021-09-14T11:27:06.000Z</time>
      </trkpt>
      <trkpt lat="45.18289" lon="4.81118">
        <ele>132.322295</ele>
        <time>2021-09-14T11:27:07.000Z</time>
      </trkpt>
      <trkpt lat="45.18262" lon="4.8112">
        <ele>132.290345</ele>
        <time>2021-09-14T11:27:13.000Z</time>
      </trkpt>
      <trkpt lat="45.18231" lon="4.8112">
        <ele>132.253341</ele>
        <time>2021-09-14T11:27:19.000Z</time>
      </trkpt>
      <trkpt lat="45.18196" lon="4.8112">
        <ele>132.212436</ele>
        <time>2021-09-14T11:27:26.000Z</time>
      </trkpt>
      <trkpt lat="45.18163" lon="4.81116">
        <ele>132.172978</ele>
        <time>2021-09-14T11:27:33.000Z</time>
      </trkpt>
      <trkpt lat="45.18125" lon="4.81108">
        <ele>132.134266</ele>
        <time>2021-09-14T11:27:41.000Z</time>
      </trkpt>
      <trkpt lat="45.18088" lon="4.81099">
        <ele>132.096332</ele>
        <time>2021-09-14T11:27:49.000Z</time>
      </trkpt>
      <trkpt lat="45.18049" lon="4.81087">
        <ele>132.057194</ele>
        <time>2021-09-14T11:27:57.000Z</time>
      </trkpt>
      <trkpt lat="45.18005" lon="4.8107">
        <ele>132.01139</ele>
        <time>2021-09-14T11:28:06.000Z</time>
      </trkpt>
      <trkpt lat="45.17962" lon="4.81053">
        <ele>131.930399</ele>
        <time>2021-09-14T11:28:15.000Z</time>
      </trkpt>
      <trkpt lat="45.17924" lon="4.81033">
        <ele>131.839143</ele>
        <time>2021-09-14T11:28:23.000Z</time>
      </trkpt>
      <trkpt lat="45.17881" lon="4.81011">
        <ele>131.734163</ele>
        <time>2021-09-14T11:28:32.000Z</time>
      </trkpt>
      <trkpt lat="45.17843" lon="4.8099">
        <ele>131.641556</ele>
        <time>2021-09-14T11:28:40.000Z</time>
      </trkpt>
      <trkpt lat="45.17805" lon="4.8097">
        <ele>131.549497</ele>
        <time>2021-09-14T11:28:48.000Z</time>
      </trkpt>
      <trkpt lat="45.17765" lon="4.80949">
        <ele>131.460641</ele>
        <time>2021-09-14T11:28:56.000Z</time>
      </trkpt>
      <trkpt lat="45.17726" lon="4.80928">
        <ele>131.371178</ele>
        <time>2021-09-14T11:29:04.000Z</time>
      </trkpt>
      <trkpt lat="45.17676" lon="4.80901">
        <ele>131.258573</ele>
        <time>2021-09-14T11:29:14.000Z</time>
      </trkpt>
      <trkpt lat="45.17631" lon="4.80876">
        <ele>131.194569</ele>
        <time>2021-09-14T11:29:23.000Z</time>
      </trkpt>
      <trkpt lat="45.17594" lon="4.80857">
        <ele>131.182812</ele>
        <time>2021-09-14T11:29:30.000Z</time>
      </trkpt>
      <trkpt lat="45.17559" lon="4.80837">
        <ele>131.171434</ele>
        <time>2021-09-14T11:29:37.000Z</time>
      </trkpt>
      <trkpt lat="45.17518" lon="4.80815">
        <ele>131.158118</ele>
        <time>2021-09-14T11:29:45.000Z</time>
      </trkpt>
      <trkpt lat="45.17478" lon="4.80793">
        <ele>131.154535</ele>
        <time>2021-09-14T11:29:53.000Z</time>
      </trkpt>
      <trkpt lat="45.17468" lon="4.80788">
        <ele>131.169303</ele>
        <time>2021-09-14T11:29:55.000Z</time>
      </trkpt>
      <trkpt lat="45.17454" lon="4.8078">
        <ele>131.190876</ele>
        <time>2021-09-14T11:29:58.000Z</time>
      </trkpt>
      <trkpt lat="45.17425" lon="4.80764">
        <ele>131.234655</ele>
        <time>2021-09-14T11:30:04.000Z</time>
      </trkpt>
      <trkpt lat="45.17416" lon="4.80759">
        <ele>131.24914</ele>
        <time>2021-09-14T11:30:06.000Z</time>
      </trkpt>
      <trkpt lat="45.17403" lon="4.80752">
        <ele>131.268007</ele>
        <time>2021-09-14T11:30:09.000Z</time>
      </trkpt>
      <trkpt lat="45.17366" lon="4.80732">
        <ele>131.32333</ele>
        <time>2021-09-14T11:30:17.000Z</time>
      </trkpt>
      <trkpt lat="45.17316" lon="4.80707">
        <ele>131.398414</ele>
        <time>2021-09-14T11:30:27.000Z</time>
      </trkpt>
      <trkpt lat="45.17266" lon="4.80682">
        <ele>131.373041</ele>
        <time>2021-09-14T11:30:37.000Z</time>
      </trkpt>
      <trkpt lat="45.17221" lon="4.80664">
        <ele>131.348905</ele>
        <time>2021-09-14T11:30:46.000Z</time>
      </trkpt>
      <trkpt lat="45.1718" lon="4.8065">
        <ele>131.327503</ele>
        <time>2021-09-14T11:30:54.000Z</time>
      </trkpt>
      <trkpt lat="45.17128" lon="4.80636">
        <ele>131.379158</ele>
        <time>2021-09-14T11:31:04.000Z</time>
      </trkpt>
      <trkpt lat="45.17082" lon="4.80627">
        <ele>131.623319</ele>
        <time>2021-09-14T11:31:13.000Z</time>
      </trkpt>
      <trkpt lat="45.17072" lon="4.80625">
        <ele>131.677401</ele>
        <time>2021-09-14T11:31:15.000Z</time>
      </trkpt>
      <trkpt lat="45.17052" lon="4.80622">
        <ele>131.782341</ele>
        <time>2021-09-14T11:31:19.000Z</time>
      </trkpt>
      <trkpt lat="45.17012" lon="4.80617">
        <ele>131.992747</ele>
        <time>2021-09-14T11:31:27.000Z</time>
      </trkpt>
      <trkpt lat="45.1698" lon="4.80617">
        <ele>132.161261</ele>
        <time>2021-09-14T11:31:34.000Z</time>
      </trkpt>
      <trkpt lat="45.16961" lon="4.80625">
        <ele>132.344128</ele>
        <time>2021-09-14T11:31:40.000Z</time>
      </trkpt>
      <trkpt lat="45.16946" lon="4.80629">
        <ele>132.870062</ele>
        <time>2021-09-14T11:31:46.000Z</time>
      </trkpt>
      <trkpt lat="45.16924" lon="4.80623">
        <ele>133.629454</ele>
        <time>2021-09-14T11:31:55.000Z</time>
      </trkpt>
      <trkpt lat="45.16909" lon="4.8063">
        <ele>134.187814</ele>
        <time>2021-09-14T11:32:02.000Z</time>
      </trkpt>
      <trkpt lat="45.16893" lon="4.8064">
        <ele>134.801563</ele>
        <time>2021-09-14T11:32:11.000Z</time>
      </trkpt>
      <trkpt lat="45.16886" lon="4.80643">
        <ele>135.056991</ele>
        <time>2021-09-14T11:32:15.000Z</time>
      </trkpt>
      <trkpt lat="45.16881" lon="4.80644">
        <ele>135.224129</ele>
        <time>2021-09-14T11:32:17.000Z</time>
      </trkpt>
      <trkpt lat="45.1688" lon="4.80638">
        <ele>135.382036</ele>
        <time>2021-09-14T11:32:19.000Z</time>
      </trkpt>
      <trkpt lat="45.16881" lon="4.80636">
        <ele>135.453652</ele>
        <time>2021-09-14T11:32:20.000Z</time>
      </trkpt>
      <trkpt lat="45.16893" lon="4.80625">
        <ele>135.933127</ele>
        <time>2021-09-14T11:32:26.000Z</time>
      </trkpt>
      <trkpt lat="45.16904" lon="4.80615">
        <ele>136.373343</ele>
        <time>2021-09-14T11:32:31.000Z</time>
      </trkpt>
      <trkpt lat="45.16903" lon="4.80606">
        <ele>136.594659</ele>
        <time>2021-09-14T11:32:34.000Z</time>
      </trkpt>
      <trkpt lat="45.16885" lon="4.8062">
        <ele>137.303768</ele>
        <time>2021-09-14T11:32:40.000Z</time>
      </trkpt>
      <trkpt lat="45.16869" lon="4.80633">
        <ele>137.943952</ele>
        <time>2021-09-14T11:32:47.000Z</time>
      </trkpt>
      <trkpt lat="45.16852" lon="4.80647">
        <ele>138.601189</ele>
        <time>2021-09-14T11:32:55.000Z</time>
      </trkpt>
      <trkpt lat="45.16826" lon="4.80658">
        <ele>139.326039</ele>
        <time>2021-09-14T11:33:04.000Z</time>
      </trkpt>
      <trkpt lat="45.16808" lon="4.80665">
        <ele>139.853005</ele>
        <time>2021-09-14T11:33:11.000Z</time>
      </trkpt>
      <trkpt lat="45.1679" lon="4.80679">
        <ele>140.393898</ele>
        <time>2021-09-14T11:33:17.000Z</time>
      </trkpt>
      <trkpt lat="45.16779" lon="4.80684">
        <ele>140.715849</ele>
        <time>2021-09-14T11:33:20.000Z</time>
      </trkpt>
      <trkpt lat="45.16763" lon="4.80693">
        <ele>141.177391</ele>
        <time>2021-09-14T11:33:24.000Z</time>
      </trkpt>
      <trkpt lat="45.16748" lon="4.80697">
        <ele>141.603367</ele>
        <time>2021-09-14T11:33:28.000Z</time>
      </trkpt>
      <trkpt lat="45.16744" lon="4.80697">
        <ele>141.710835</ele>
        <time>2021-09-14T11:33:29.000Z</time>
      </trkpt>
      <trkpt lat="45.16729" lon="4.80706">
        <ele>142.162563</ele>
        <time>2021-09-14T11:33:33.000Z</time>
      </trkpt>
      <trkpt lat="45.16721" lon="4.80712">
        <ele>142.398437</ele>
        <time>2021-09-14T11:33:35.000Z</time>
      </trkpt>
      <trkpt lat="45.1669" lon="4.80732">
        <ele>143.323027</ele>
        <time>2021-09-14T11:33:42.000Z</time>
      </trkpt>
      <trkpt lat="45.16663" lon="4.80753">
        <ele>143.574479</ele>
        <time>2021-09-14T11:33:48.000Z</time>
      </trkpt>
      <trkpt lat="45.16659" lon="4.80756">
        <ele>143.609482</ele>
        <time>2021-09-14T11:33:49.000Z</time>
      </trkpt>
      <trkpt lat="45.16648" lon="4.80766">
        <ele>143.710907</ele>
        <time>2021-09-14T11:33:52.000Z</time>
      </trkpt>
      <trkpt lat="45.16642" lon="4.80776">
        <ele>143.774533</ele>
        <time>2021-09-14T11:33:54.000Z</time>
      </trkpt>
      <trkpt lat="45.16633" lon="4.80784">
        <ele>143.851184</ele>
        <time>2021-09-14T11:33:56.000Z</time>
      </trkpt>
      <trkpt lat="45.16628" lon="4.80783">
        <ele>143.888368</ele>
        <time>2021-09-14T11:33:57.000Z</time>
      </trkpt>
      <trkpt lat="45.16619" lon="4.80787">
        <ele>143.962948</ele>
        <time>2021-09-14T11:33:59.000Z</time>
      </trkpt>
      <trkpt lat="45.16606" lon="4.80796">
        <ele>144.071921</ele>
        <time>2021-09-14T11:34:02.000Z</time>
      </trkpt>
      <trkpt lat="45.16571" lon="4.8082">
        <ele>144.355467</ele>
        <time>2021-09-14T11:34:09.000Z</time>
      </trkpt>
      <trkpt lat="45.16524" lon="4.80853">
        <ele>144.697544</ele>
        <time>2021-09-14T11:34:18.000Z</time>
      </trkpt>
      <trkpt lat="45.16519" lon="4.80857">
        <ele>144.701202</ele>
        <time>2021-09-14T11:34:19.000Z</time>
      </trkpt>
      <trkpt lat="45.16483" lon="4.80882">
        <ele>144.725974</ele>
        <time>2021-09-14T11:34:27.000Z</time>
      </trkpt>
      <trkpt lat="45.16449" lon="4.80906">
        <ele>144.749654</ele>
        <time>2021-09-14T11:34:33.000Z</time>
      </trkpt>
      <trkpt lat="45.16407" lon="4.80935">
        <ele>144.779135</ele>
        <time>2021-09-14T11:34:41.000Z</time>
      </trkpt>
      <trkpt lat="45.16359" lon="4.80964">
        <ele>144.752511</ele>
        <time>2021-09-14T11:34:49.000Z</time>
      </trkpt>
      <trkpt lat="45.16315" lon="4.80991">
        <ele>144.495738</ele>
        <time>2021-09-14T11:34:56.000Z</time>
      </trkpt>
      <trkpt lat="45.16293" lon="4.8101">
        <ele>144.352626</ele>
        <time>2021-09-14T11:35:00.000Z</time>
      </trkpt>
      <trkpt lat="45.16287" lon="4.81016">
        <ele>144.316323</ele>
        <time>2021-09-14T11:35:01.000Z</time>
      </trkpt>
      <trkpt lat="45.16276" lon="4.81027">
        <ele>144.243017</ele>
        <time>2021-09-14T11:35:03.000Z</time>
      </trkpt>
      <trkpt lat="45.16253" lon="4.81047">
        <ele>144.097281</ele>
        <time>2021-09-14T11:35:07.000Z</time>
      </trkpt>
      <trkpt lat="45.16247" lon="4.81052">
        <ele>144.06061</ele>
        <time>2021-09-14T11:35:08.000Z</time>
      </trkpt>
      <trkpt lat="45.16238" lon="4.81066">
        <ele>143.987639</ele>
        <time>2021-09-14T11:35:10.000Z</time>
      </trkpt>
      <trkpt lat="45.16233" lon="4.81072">
        <ele>143.952197</ele>
        <time>2021-09-14T11:35:11.000Z</time>
      </trkpt>
      <trkpt lat="45.16213" lon="4.81097">
        <ele>143.781979</ele>
        <time>2021-09-14T11:35:15.000Z</time>
      </trkpt>
      <trkpt lat="45.16208" lon="4.81101">
        <ele>143.706628</ele>
        <time>2021-09-14T11:35:16.000Z</time>
      </trkpt>
      <trkpt lat="45.16167" lon="4.81127">
        <ele>143.153916</ele>
        <time>2021-09-14T11:35:24.000Z</time>
      </trkpt>
      <trkpt lat="45.16143" lon="4.81158">
        <ele>142.761815</ele>
        <time>2021-09-14T11:35:30.000Z</time>
      </trkpt>
      <trkpt lat="45.16123" lon="4.81187">
        <ele>142.416313</ele>
        <time>2021-09-14T11:35:35.000Z</time>
      </trkpt>
      <trkpt lat="45.16101" lon="4.81223">
        <ele>142.00665</ele>
        <time>2021-09-14T11:35:41.000Z</time>
      </trkpt>
      <trkpt lat="45.16076" lon="4.81266">
        <ele>141.52953</ele>
        <time>2021-09-14T11:35:48.000Z</time>
      </trkpt>
      <trkpt lat="45.16073" lon="4.81272">
        <ele>141.467202</ele>
        <time>2021-09-14T11:35:49.000Z</time>
      </trkpt>
      <trkpt lat="45.16062" lon="4.81295">
        <ele>141.226433</ele>
        <time>2021-09-14T11:35:53.000Z</time>
      </trkpt>
      <trkpt lat="45.16047" lon="4.81325">
        <ele>140.907765</ele>
        <time>2021-09-14T11:35:58.000Z</time>
      </trkpt>
      <trkpt lat="45.16045" lon="4.81332">
        <ele>140.840252</ele>
        <time>2021-09-14T11:35:59.000Z</time>
      </trkpt>
      <trkpt lat="45.16039" lon="4.81364">
        <ele>140.551862</ele>
        <time>2021-09-14T11:36:03.000Z</time>
      </trkpt>
      <trkpt lat="45.16037" lon="4.81373">
        <ele>140.471635</ele>
        <time>2021-09-14T11:36:04.000Z</time>
      </trkpt>
      <trkpt lat="45.16032" lon="4.81401">
        <ele>140.222519</ele>
        <time>2021-09-14T11:36:07.000Z</time>
      </trkpt>
      <trkpt lat="45.16028" lon="4.81418">
        <ele>140.061501</ele>
        <time>2021-09-14T11:36:09.000Z</time>
      </trkpt>
      <trkpt lat="45.16003" lon="4.81478">
        <ele>139.460483</ele>
        <time>2021-09-14T11:36:16.000Z</time>
      </trkpt>
      <trkpt lat="45.15982" lon="4.8153">
        <ele>138.86768</ele>
        <time>2021-09-14T11:36:22.000Z</time>
      </trkpt>
      <trkpt lat="45.15954" lon="4.81606">
        <ele>138.02921</ele>
        <time>2021-09-14T11:36:28.000Z</time>
      </trkpt>
      <trkpt lat="45.15934" lon="4.81661">
        <ele>137.410551</ele>
        <time>2021-09-14T11:36:34.000Z</time>
      </trkpt>
      <trkpt lat="45.15924" lon="4.81688">
        <ele>137.113549</ele>
        <time>2021-09-14T11:36:37.000Z</time>
      </trkpt>
      <trkpt lat="45.15924" lon="4.81708">
        <ele>136.91842</ele>
        <time>2021-09-14T11:36:39.000Z</time>
      </trkpt>
      <trkpt lat="45.1593" lon="4.81748">
        <ele>136.729712</ele>
        <time>2021-09-14T11:36:43.000Z</time>
      </trkpt>
      <trkpt lat="45.15932" lon="4.81758">
        <ele>136.681606</ele>
        <time>2021-09-14T11:36:44.000Z</time>
      </trkpt>
      <trkpt lat="45.15934" lon="4.81789">
        <ele>136.53542</ele>
        <time>2021-09-14T11:36:47.000Z</time>
      </trkpt>
      <trkpt lat="45.15933" lon="4.81799">
        <ele>136.48795</ele>
        <time>2021-09-14T11:36:48.000Z</time>
      </trkpt>
      <trkpt lat="45.15929" lon="4.81819">
        <ele>136.393744</ele>
        <time>2021-09-14T11:36:50.000Z</time>
      </trkpt>
      <trkpt lat="45.15927" lon="4.81829">
        <ele>136.345355</ele>
        <time>2021-09-14T11:36:51.000Z</time>
      </trkpt>
      <trkpt lat="45.15919" lon="4.8189">
        <ele>136.056078</ele>
        <time>2021-09-14T11:36:57.000Z</time>
      </trkpt>
      <trkpt lat="45.1591" lon="4.81957">
        <ele>135.741698</ele>
        <time>2021-09-14T11:37:04.000Z</time>
      </trkpt>
      <trkpt lat="45.15904" lon="4.82011">
        <ele>135.556961</ele>
        <time>2021-09-14T11:37:10.000Z</time>
      </trkpt>
      <trkpt lat="45.1589" lon="4.82087">
        <ele>135.294705</ele>
        <time>2021-09-14T11:37:19.000Z</time>
      </trkpt>
      <trkpt lat="45.15875" lon="4.8215">
        <ele>135.072187</ele>
        <time>2021-09-14T11:37:27.000Z</time>
      </trkpt>
      <trkpt lat="45.15859" lon="4.82209">
        <ele>134.835629</ele>
        <time>2021-09-14T11:37:35.000Z</time>
      </trkpt>
      <trkpt lat="45.1584" lon="4.82266">
        <ele>134.399963</ele>
        <time>2021-09-14T11:37:43.000Z</time>
      </trkpt>
      <trkpt lat="45.15815" lon="4.82327">
        <ele>133.926591</ele>
        <time>2021-09-14T11:37:52.000Z</time>
      </trkpt>
      <trkpt lat="45.15791" lon="4.82374">
        <ele>133.525316</ele>
        <time>2021-09-14T11:38:00.000Z</time>
      </trkpt>
      <trkpt lat="45.15762" lon="4.8241">
        <ele>133.14776</ele>
        <time>2021-09-14T11:38:08.000Z</time>
      </trkpt>
      <trkpt lat="45.15731" lon="4.82441">
        <ele>132.649879</ele>
        <time>2021-09-14T11:38:16.000Z</time>
      </trkpt>
      <trkpt lat="45.15697" lon="4.82469">
        <ele>132.145319</ele>
        <time>2021-09-14T11:38:24.000Z</time>
      </trkpt>
      <trkpt lat="45.1566" lon="4.82489">
        <ele>131.620514</ele>
        <time>2021-09-14T11:38:32.000Z</time>
      </trkpt>
      <trkpt lat="45.15619" lon="4.82502">
        <ele>131.073408</ele>
        <time>2021-09-14T11:38:40.000Z</time>
      </trkpt>
      <trkpt lat="45.15582" lon="4.82509">
        <ele>130.697922</ele>
        <time>2021-09-14T11:38:47.000Z</time>
      </trkpt>
      <trkpt lat="45.15546" lon="4.8251">
        <ele>130.503991</ele>
        <time>2021-09-14T11:38:54.000Z</time>
      </trkpt>
      <trkpt lat="45.15502" lon="4.82507">
        <ele>130.267089</ele>
        <time>2021-09-14T11:39:03.000Z</time>
      </trkpt>
      <trkpt lat="45.15466" lon="4.82501">
        <ele>130.074156</ele>
        <time>2021-09-14T11:39:10.000Z</time>
      </trkpt>
      <trkpt lat="45.15426" lon="4.82489">
        <ele>129.859325</ele>
        <time>2021-09-14T11:39:18.000Z</time>
      </trkpt>
      <trkpt lat="45.15381" lon="4.8247">
        <ele>129.778998</ele>
        <time>2021-09-14T11:39:27.000Z</time>
      </trkpt>
      <trkpt lat="45.15341" lon="4.82445">
        <ele>129.73622</ele>
        <time>2021-09-14T11:39:35.000Z</time>
      </trkpt>
      <trkpt lat="45.15297" lon="4.8241">
        <ele>129.68719</ele>
        <time>2021-09-14T11:39:44.000Z</time>
      </trkpt>
      <trkpt lat="45.15251" lon="4.82372">
        <ele>129.635013</ele>
        <time>2021-09-14T11:39:54.000Z</time>
      </trkpt>
      <trkpt lat="45.15213" lon="4.82342">
        <ele>129.592795</ele>
        <time>2021-09-14T11:40:02.000Z</time>
      </trkpt>
      <trkpt lat="45.15171" lon="4.82306">
        <ele>129.545198</ele>
        <time>2021-09-14T11:40:11.000Z</time>
      </trkpt>
      <trkpt lat="45.15133" lon="4.82274">
        <ele>129.502213</ele>
        <time>2021-09-14T11:40:19.000Z</time>
      </trkpt>
      <trkpt lat="45.15096" lon="4.82243">
        <ele>129.457128</ele>
        <time>2021-09-14T11:40:27.000Z</time>
      </trkpt>
      <trkpt lat="45.15059" lon="4.82213">
        <ele>129.393841</ele>
        <time>2021-09-14T11:40:35.000Z</time>
      </trkpt>
      <trkpt lat="45.15013" lon="4.82173">
        <ele>129.313881</ele>
        <time>2021-09-14T11:40:45.000Z</time>
      </trkpt>
      <trkpt lat="45.15008" lon="4.82168">
        <ele>129.306246</ele>
        <time>2021-09-14T11:40:46.000Z</time>
      </trkpt>
      <trkpt lat="45.14992" lon="4.82153">
        <ele>129.277083</ele>
        <time>2021-09-14T11:40:50.000Z</time>
      </trkpt>
      <trkpt lat="45.14979" lon="4.82142">
        <ele>129.254184</ele>
        <time>2021-09-14T11:40:53.000Z</time>
      </trkpt>
      <trkpt lat="45.14953" lon="4.82121">
        <ele>129.211018</ele>
        <time>2021-09-14T11:40:59.000Z</time>
      </trkpt>
      <trkpt lat="45.14929" lon="4.821">
        <ele>129.231794</ele>
        <time>2021-09-14T11:41:05.000Z</time>
      </trkpt>
      <trkpt lat="45.14901" lon="4.82074">
        <ele>129.277684</ele>
        <time>2021-09-14T11:41:12.000Z</time>
      </trkpt>
      <trkpt lat="45.14871" lon="4.82046">
        <ele>129.326683</ele>
        <time>2021-09-14T11:41:19.000Z</time>
      </trkpt>
      <trkpt lat="45.1484" lon="4.82017">
        <ele>129.376936</ele>
        <time>2021-09-14T11:41:26.000Z</time>
      </trkpt>
      <trkpt lat="45.14805" lon="4.81984">
        <ele>129.434065</ele>
        <time>2021-09-14T11:41:34.000Z</time>
      </trkpt>
      <trkpt lat="45.14764" lon="4.81944">
        <ele>129.727419</ele>
        <time>2021-09-14T11:41:43.000Z</time>
      </trkpt>
      <trkpt lat="45.14728" lon="4.81907">
        <ele>130.033597</ele>
        <time>2021-09-14T11:41:51.000Z</time>
      </trkpt>
      <trkpt lat="45.14706" lon="4.81884">
        <ele>130.221689</ele>
        <time>2021-09-14T11:41:56.000Z</time>
      </trkpt>
      <trkpt lat="45.14697" lon="4.81875">
        <ele>130.297321</ele>
        <time>2021-09-14T11:41:58.000Z</time>
      </trkpt>
      <trkpt lat="45.14692" lon="4.81871">
        <ele>130.336402</ele>
        <time>2021-09-14T11:41:59.000Z</time>
      </trkpt>
      <trkpt lat="45.14675" lon="4.81853">
        <ele>130.482883</ele>
        <time>2021-09-14T11:42:03.000Z</time>
      </trkpt>
      <trkpt lat="45.14639" lon="4.81816">
        <ele>130.780217</ele>
        <time>2021-09-14T11:42:11.000Z</time>
      </trkpt>
      <trkpt lat="45.14604" lon="4.81781">
        <ele>131.040706</ele>
        <time>2021-09-14T11:42:19.000Z</time>
      </trkpt>
      <trkpt lat="45.14568" lon="4.81745">
        <ele>131.312227</ele>
        <time>2021-09-14T11:42:27.000Z</time>
      </trkpt>
      <trkpt lat="45.14536" lon="4.81712">
        <ele>131.554956</ele>
        <time>2021-09-14T11:42:34.000Z</time>
      </trkpt>
      <trkpt lat="45.14505" lon="4.81678">
        <ele>131.792139</ele>
        <time>2021-09-14T11:42:41.000Z</time>
      </trkpt>
      <trkpt lat="45.14476" lon="4.81646">
        <ele>131.800977</ele>
        <time>2021-09-14T11:42:48.000Z</time>
      </trkpt>
      <trkpt lat="45.14445" lon="4.81618">
        <ele>131.809627</ele>
        <time>2021-09-14T11:42:55.000Z</time>
      </trkpt>
      <trkpt lat="45.14408" lon="4.81583">
        <ele>131.820338</ele>
        <time>2021-09-14T11:43:03.000Z</time>
      </trkpt>
      <trkpt lat="45.14371" lon="4.81545">
        <ele>131.831147</ele>
        <time>2021-09-14T11:43:11.000Z</time>
      </trkpt>
      <trkpt lat="45.14339" lon="4.81511">
        <ele>131.934015</ele>
        <time>2021-09-14T11:43:18.000Z</time>
      </trkpt>
      <trkpt lat="45.14311" lon="4.81484">
        <ele>132.07299</ele>
        <time>2021-09-14T11:43:24.000Z</time>
      </trkpt>
      <trkpt lat="45.14285" lon="4.81456">
        <ele>132.208467</ele>
        <time>2021-09-14T11:43:30.000Z</time>
      </trkpt>
      <trkpt lat="45.14261" lon="4.8143">
        <ele>132.335053</ele>
        <time>2021-09-14T11:43:36.000Z</time>
      </trkpt>
      <trkpt lat="45.14231" lon="4.81398">
        <ele>132.487961</ele>
        <time>2021-09-14T11:43:44.000Z</time>
      </trkpt>
      <trkpt lat="45.14228" lon="4.81394">
        <ele>132.503795</ele>
        <time>2021-09-14T11:43:45.000Z</time>
      </trkpt>
      <trkpt lat="45.14207" lon="4.81368">
        <ele>132.644906</ele>
        <time>2021-09-14T11:43:52.000Z</time>
      </trkpt>
      <trkpt lat="45.14192" lon="4.81347">
        <ele>132.778217</ele>
        <time>2021-09-14T11:43:57.000Z</time>
      </trkpt>
      <trkpt lat="45.14189" lon="4.81342">
        <ele>132.805507</ele>
        <time>2021-09-14T11:43:58.000Z</time>
      </trkpt>
      <trkpt lat="45.1418" lon="4.8132">
        <ele>132.923532</ele>
        <time>2021-09-14T11:44:01.000Z</time>
      </trkpt>
      <trkpt lat="45.14176" lon="4.81312">
        <ele>132.968161</ele>
        <time>2021-09-14T11:44:02.000Z</time>
      </trkpt>
      <trkpt lat="45.14165" lon="4.81297">
        <ele>133.063385</ele>
        <time>2021-09-14T11:44:04.000Z</time>
      </trkpt>
      <trkpt lat="45.14148" lon="4.8128">
        <ele>133.198177</ele>
        <time>2021-09-14T11:44:07.000Z</time>
      </trkpt>
      <trkpt lat="45.14141" lon="4.81267">
        <ele>133.272225</ele>
        <time>2021-09-14T11:44:09.000Z</time>
      </trkpt>
      <trkpt lat="45.14138" lon="4.8126">
        <ele>133.306486</ele>
        <time>2021-09-14T11:44:10.000Z</time>
      </trkpt>
      <trkpt lat="45.14135" lon="4.81255">
        <ele>133.338977</ele>
        <time>2021-09-14T11:44:11.000Z</time>
      </trkpt>
      <trkpt lat="45.14128" lon="4.81254">
        <ele>133.380764</ele>
        <time>2021-09-14T11:44:14.000Z</time>
      </trkpt>
      <trkpt lat="45.14118" lon="4.81252">
        <ele>133.446354</ele>
        <time>2021-09-14T11:44:20.000Z</time>
      </trkpt>
      <trkpt lat="45.14114" lon="4.8125">
        <ele>133.476363</ele>
        <time>2021-09-14T11:44:23.000Z</time>
      </trkpt>
      <trkpt lat="45.1411" lon="4.81247">
        <ele>133.501922</ele>
        <time>2021-09-14T11:44:25.000Z</time>
      </trkpt>
      <trkpt lat="45.14107" lon="4.81243">
        <ele>133.528262</ele>
        <time>2021-09-14T11:44:27.000Z</time>
      </trkpt>
      <trkpt lat="45.141" lon="4.81236">
        <ele>133.585123</ele>
        <time>2021-09-14T11:44:30.000Z</time>
      </trkpt>
      <trkpt lat="45.14082" lon="4.81211">
        <ele>133.703899</ele>
        <time>2021-09-14T11:44:37.000Z</time>
      </trkpt>
      <trkpt lat="45.14061" lon="4.81184">
        <ele>133.561222</ele>
        <time>2021-09-14T11:44:44.000Z</time>
      </trkpt>
      <trkpt lat="45.14039" lon="4.81155">
        <ele>133.408714</ele>
        <time>2021-09-14T11:44:51.000Z</time>
      </trkpt>
      <trkpt lat="45.14024" lon="4.81135">
        <ele>133.304256</ele>
        <time>2021-09-14T11:44:56.000Z</time>
      </trkpt>
      <trkpt lat="45.14004" lon="4.81107">
        <ele>133.161578</ele>
        <time>2021-09-14T11:45:02.000Z</time>
      </trkpt>
      <trkpt lat="45.13983" lon="4.81078">
        <ele>133.011821</ele>
        <time>2021-09-14T11:45:08.000Z</time>
      </trkpt>
      <trkpt lat="45.13966" lon="4.81053">
        <ele>132.889813</ele>
        <time>2021-09-14T11:45:13.000Z</time>
      </trkpt>
      <trkpt lat="45.13942" lon="4.81019">
        <ele>132.7486</ele>
        <time>2021-09-14T11:45:20.000Z</time>
      </trkpt>
      <trkpt lat="45.1392" lon="4.80987">
        <ele>132.643519</ele>
        <time>2021-09-14T11:45:27.000Z</time>
      </trkpt>
      <trkpt lat="45.13907" lon="4.80965">
        <ele>132.574177</ele>
        <time>2021-09-14T11:45:33.000Z</time>
      </trkpt>
      <trkpt lat="45.13893" lon="4.80941">
        <ele>132.500997</ele>
        <time>2021-09-14T11:45:40.000Z</time>
      </trkpt>
      <trkpt lat="45.13882" lon="4.80923">
        <ele>132.445091</ele>
        <time>2021-09-14T11:45:45.000Z</time>
      </trkpt>
      <trkpt lat="45.1387" lon="4.80904">
        <ele>132.385464</ele>
        <time>2021-09-14T11:45:51.000Z</time>
      </trkpt>
      <trkpt lat="45.13864" lon="4.8088">
        <ele>132.325804</ele>
        <time>2021-09-14T11:45:57.000Z</time>
      </trkpt>
      <trkpt lat="45.13859" lon="4.80871">
        <ele>132.297755</ele>
        <time>2021-09-14T11:46:01.000Z</time>
      </trkpt>
      <trkpt lat="45.13858" lon="4.80869">
        <ele>132.293465</ele>
        <time>2021-09-14T11:46:02.000Z</time>
      </trkpt>
      <trkpt lat="45.13856" lon="4.80861">
        <ele>132.272382</ele>
        <time>2021-09-14T11:46:05.000Z</time>
      </trkpt>
      <trkpt lat="45.13854" lon="4.80857">
        <ele>132.262233</ele>
        <time>2021-09-14T11:46:06.000Z</time>
      </trkpt>
      <trkpt lat="45.13844" lon="4.8083">
        <ele>132.18568</ele>
        <time>2021-09-14T11:46:13.000Z</time>
      </trkpt>
      <trkpt lat="45.1384" lon="4.80801">
        <ele>132.111171</ele>
        <time>2021-09-14T11:46:21.000Z</time>
      </trkpt>
      <trkpt lat="45.13835" lon="4.80793">
        <ele>132.081053</ele>
        <time>2021-09-14T11:46:24.000Z</time>
      </trkpt>
      <trkpt lat="45.13832" lon="4.80783">
        <ele>132.053719</ele>
        <time>2021-09-14T11:46:26.000Z</time>
      </trkpt>
      <trkpt lat="45.13829" lon="4.80773">
        <ele>132.023304</ele>
        <time>2021-09-14T11:46:28.000Z</time>
      </trkpt>
      <trkpt lat="45.13809" lon="4.80721">
        <ele>131.871141</ele>
        <time>2021-09-14T11:46:38.000Z</time>
      </trkpt>
      <trkpt lat="45.13799" lon="4.807">
        <ele>131.804982</ele>
        <time>2021-09-14T11:46:42.000Z</time>
      </trkpt>
      <trkpt lat="45.13794" lon="4.80689">
        <ele>131.768278</ele>
        <time>2021-09-14T11:46:44.000Z</time>
      </trkpt>
      <trkpt lat="45.13787" lon="4.80679">
        <ele>131.732754</ele>
        <time>2021-09-14T11:46:46.000Z</time>
      </trkpt>
      <trkpt lat="45.13779" lon="4.80674">
        <ele>131.700597</ele>
        <time>2021-09-14T11:46:48.000Z</time>
      </trkpt>
      <trkpt lat="45.13775" lon="4.80672">
        <ele>131.68506</ele>
        <time>2021-09-14T11:46:49.000Z</time>
      </trkpt>
      <trkpt lat="45.13771" lon="4.8067">
        <ele>131.669178</ele>
        <time>2021-09-14T11:46:50.000Z</time>
      </trkpt>
      <trkpt lat="45.13765" lon="4.80661">
        <ele>131.637539</ele>
        <time>2021-09-14T11:46:52.000Z</time>
      </trkpt>
      <trkpt lat="45.13749" lon="4.80621">
        <ele>131.504807</ele>
        <time>2021-09-14T11:46:58.000Z</time>
      </trkpt>
      <trkpt lat="45.13725" lon="4.80577">
        <ele>131.278852</ele>
        <time>2021-09-14T11:47:05.000Z</time>
      </trkpt>
      <trkpt lat="45.13699" lon="4.80527">
        <ele>131.027738</ele>
        <time>2021-09-14T11:47:13.000Z</time>
      </trkpt>
      <trkpt lat="45.1367" lon="4.80483">
        <ele>130.784311</ele>
        <time>2021-09-14T11:47:21.000Z</time>
      </trkpt>
      <trkpt lat="45.13637" lon="4.80446">
        <ele>130.539548</ele>
        <time>2021-09-14T11:47:29.000Z</time>
      </trkpt>
      <trkpt lat="45.13601" lon="4.80415">
        <ele>130.243442</ele>
        <time>2021-09-14T11:47:37.000Z</time>
      </trkpt>
      <trkpt lat="45.13565" lon="4.80388">
        <ele>129.942867</ele>
        <time>2021-09-14T11:47:45.000Z</time>
      </trkpt>
      <trkpt lat="45.13533" lon="4.80365">
        <ele>129.682086</ele>
        <time>2021-09-14T11:47:52.000Z</time>
      </trkpt>
      <trkpt lat="45.13522" lon="4.8035">
        <ele>129.570044</ele>
        <time>2021-09-14T11:47:55.000Z</time>
      </trkpt>
      <trkpt lat="45.13511" lon="4.80335">
        <ele>129.457663</ele>
        <time>2021-09-14T11:47:58.000Z</time>
      </trkpt>
      <trkpt lat="45.135" lon="4.8032">
        <ele>129.344751</ele>
        <time>2021-09-14T11:48:01.000Z</time>
      </trkpt>
      <trkpt lat="45.13492" lon="4.80312">
        <ele>129.276745</ele>
        <time>2021-09-14T11:48:03.000Z</time>
      </trkpt>
      <trkpt lat="45.13488" lon="4.80309">
        <ele>129.240913</ele>
        <time>2021-09-14T11:48:04.000Z</time>
      </trkpt>
      <trkpt lat="45.13483" lon="4.80305">
        <ele>129.202408</ele>
        <time>2021-09-14T11:48:05.000Z</time>
      </trkpt>
      <trkpt lat="45.13466" lon="4.80297">
        <ele>129.106907</ele>
        <time>2021-09-14T11:48:08.000Z</time>
      </trkpt>
      <trkpt lat="45.13448" lon="4.80296">
        <ele>129.015117</ele>
        <time>2021-09-14T11:48:12.000Z</time>
      </trkpt>
      <trkpt lat="45.13433" lon="4.80296">
        <ele>128.938502</ele>
        <time>2021-09-14T11:48:16.000Z</time>
      </trkpt>
      <trkpt lat="45.13424" lon="4.80296">
        <ele>128.896132</ele>
        <time>2021-09-14T11:48:18.000Z</time>
      </trkpt>
      <trkpt lat="45.13402" lon="4.80282">
        <ele>128.771232</ele>
        <time>2021-09-14T11:48:24.000Z</time>
      </trkpt>
      <trkpt lat="45.13398" lon="4.80279">
        <ele>128.750872</ele>
        <time>2021-09-14T11:48:25.000Z</time>
      </trkpt>
      <trkpt lat="45.1339" lon="4.80274">
        <ele>128.707271</ele>
        <time>2021-09-14T11:48:27.000Z</time>
      </trkpt>
      <trkpt lat="45.13376" lon="4.80269">
        <ele>128.636553</ele>
        <time>2021-09-14T11:48:30.000Z</time>
      </trkpt>
      <trkpt lat="45.13372" lon="4.80268">
        <ele>128.611989</ele>
        <time>2021-09-14T11:48:31.000Z</time>
      </trkpt>
      <trkpt lat="45.1334" lon="4.80268">
        <ele>128.450722</ele>
        <time>2021-09-14T11:48:38.000Z</time>
      </trkpt>
      <trkpt lat="45.13335" lon="4.80268">
        <ele>128.42904</ele>
        <time>2021-09-14T11:48:39.000Z</time>
      </trkpt>
      <trkpt lat="45.13311" lon="4.80265">
        <ele>128.306374</ele>
        <time>2021-09-14T11:48:44.000Z</time>
      </trkpt>
      <trkpt lat="45.13287" lon="4.80259">
        <ele>128.189976</ele>
        <time>2021-09-14T11:48:49.000Z</time>
      </trkpt>
      <trkpt lat="45.13267" lon="4.80255">
        <ele>128.099865</ele>
        <time>2021-09-14T11:48:53.000Z</time>
      </trkpt>
      <trkpt lat="45.13236" lon="4.80252">
        <ele>127.957023</ele>
        <time>2021-09-14T11:48:59.000Z</time>
      </trkpt>
      <trkpt lat="45.13226" lon="4.80249">
        <ele>127.909314</ele>
        <time>2021-09-14T11:49:01.000Z</time>
      </trkpt>
      <trkpt lat="45.13205" lon="4.80245">
        <ele>127.814898</ele>
        <time>2021-09-14T11:49:05.000Z</time>
      </trkpt>
      <trkpt lat="45.13186" lon="4.80243">
        <ele>127.724894</ele>
        <time>2021-09-14T11:49:09.000Z</time>
      </trkpt>
      <trkpt lat="45.13143" lon="4.80249">
        <ele>127.527841</ele>
        <time>2021-09-14T11:49:17.000Z</time>
      </trkpt>
      <trkpt lat="45.13106" lon="4.80245">
        <ele>127.372534</ele>
        <time>2021-09-14T11:49:24.000Z</time>
      </trkpt>
      <trkpt lat="45.13071" lon="4.8024">
        <ele>127.235965</ele>
        <time>2021-09-14T11:49:31.000Z</time>
      </trkpt>
      <trkpt lat="45.13062" lon="4.80238">
        <ele>127.199186</ele>
        <time>2021-09-14T11:49:33.000Z</time>
      </trkpt>
      <trkpt lat="45.13043" lon="4.80235">
        <ele>127.124001</ele>
        <time>2021-09-14T11:49:37.000Z</time>
      </trkpt>
      <trkpt lat="45.13008" lon="4.80229">
        <ele>126.985525</ele>
        <time>2021-09-14T11:49:44.000Z</time>
      </trkpt>
      <trkpt lat="45.12978" lon="4.80223">
        <ele>126.866447</ele>
        <time>2021-09-14T11:49:50.000Z</time>
      </trkpt>
      <trkpt lat="45.12967" lon="4.80221">
        <ele>126.82489</ele>
        <time>2021-09-14T11:49:52.000Z</time>
      </trkpt>
      <trkpt lat="45.12957" lon="4.8022">
        <ele>126.784147</ele>
        <time>2021-09-14T11:49:54.000Z</time>
      </trkpt>
      <trkpt lat="45.12947" lon="4.80218">
        <ele>126.752119</ele>
        <time>2021-09-14T11:49:56.000Z</time>
      </trkpt>
      <trkpt lat="45.12914" lon="4.80212">
        <ele>126.71305</ele>
        <time>2021-09-14T11:50:03.000Z</time>
      </trkpt>
      <trkpt lat="45.12894" lon="4.80209">
        <ele>126.690004</ele>
        <time>2021-09-14T11:50:07.000Z</time>
      </trkpt>
      <trkpt lat="45.12884" lon="4.80206">
        <ele>126.678384</ele>
        <time>2021-09-14T11:50:09.000Z</time>
      </trkpt>
      <trkpt lat="45.12865" lon="4.80198">
        <ele>126.655534</ele>
        <time>2021-09-14T11:50:13.000Z</time>
      </trkpt>
      <trkpt lat="45.12856" lon="4.80195">
        <ele>126.643852</ele>
        <time>2021-09-14T11:50:15.000Z</time>
      </trkpt>
      <trkpt lat="45.12821" lon="4.80181">
        <ele>126.601861</ele>
        <time>2021-09-14T11:50:22.000Z</time>
      </trkpt>
      <trkpt lat="45.12802" lon="4.80177">
        <ele>126.579858</ele>
        <time>2021-09-14T11:50:25.000Z</time>
      </trkpt>
      <trkpt lat="45.12797" lon="4.80177">
        <ele>126.573938</ele>
        <time>2021-09-14T11:50:26.000Z</time>
      </trkpt>
      <trkpt lat="45.12769" lon="4.80172">
        <ele>126.515474</ele>
        <time>2021-09-14T11:50:32.000Z</time>
      </trkpt>
      <trkpt lat="45.12745" lon="4.80167">
        <ele>126.337751</ele>
        <time>2021-09-14T11:50:36.000Z</time>
      </trkpt>
      <trkpt lat="45.12721" lon="4.8017">
        <ele>126.16173</ele>
        <time>2021-09-14T11:50:40.000Z</time>
      </trkpt>
      <trkpt lat="45.12716" lon="4.8017">
        <ele>126.128729</ele>
        <time>2021-09-14T11:50:41.000Z</time>
      </trkpt>
      <trkpt lat="45.12707" lon="4.80171">
        <ele>126.062146</ele>
        <time>2021-09-14T11:50:43.000Z</time>
      </trkpt>
      <trkpt lat="45.12698" lon="4.80169">
        <ele>125.996342</ele>
        <time>2021-09-14T11:50:45.000Z</time>
      </trkpt>
      <trkpt lat="45.12694" lon="4.80168">
        <ele>125.964634</ele>
        <time>2021-09-14T11:50:46.000Z</time>
      </trkpt>
      <trkpt lat="45.12681" lon="4.80165">
        <ele>125.868573</ele>
        <time>2021-09-14T11:50:49.000Z</time>
      </trkpt>
      <trkpt lat="45.12653" lon="4.8016">
        <ele>125.657992</ele>
        <time>2021-09-14T11:50:55.000Z</time>
      </trkpt>
      <trkpt lat="45.12643" lon="4.80158">
        <ele>125.589295</ele>
        <time>2021-09-14T11:50:57.000Z</time>
      </trkpt>
      <trkpt lat="45.12624" lon="4.80154">
        <ele>125.443719</ele>
        <time>2021-09-14T11:51:01.000Z</time>
      </trkpt>
      <trkpt lat="45.12619" lon="4.80153">
        <ele>125.408248</ele>
        <time>2021-09-14T11:51:02.000Z</time>
      </trkpt>
      <trkpt lat="45.12601" lon="4.80149">
        <ele>125.273025</ele>
        <time>2021-09-14T11:51:06.000Z</time>
      </trkpt>
      <trkpt lat="45.12577" lon="4.80144">
        <ele>125.175776</ele>
        <time>2021-09-14T11:51:11.000Z</time>
      </trkpt>
      <trkpt lat="45.12567" lon="4.80142">
        <ele>125.14565</ele>
        <time>2021-09-14T11:51:13.000Z</time>
      </trkpt>
      <trkpt lat="45.12538" lon="4.80136">
        <ele>125.055882</ele>
        <time>2021-09-14T11:51:19.000Z</time>
      </trkpt>
      <trkpt lat="45.12534" lon="4.80135">
        <ele>125.040667</ele>
        <time>2021-09-14T11:51:20.000Z</time>
      </trkpt>
      <trkpt lat="45.12518" lon="4.80132">
        <ele>124.993167</ele>
        <time>2021-09-14T11:51:23.000Z</time>
      </trkpt>
      <trkpt lat="45.12502" lon="4.80128">
        <ele>124.944018</ele>
        <time>2021-09-14T11:51:26.000Z</time>
      </trkpt>
      <trkpt lat="45.12492" lon="4.80126">
        <ele>124.910993</ele>
        <time>2021-09-14T11:51:28.000Z</time>
      </trkpt>
      <trkpt lat="45.12482" lon="4.80123">
        <ele>124.879785</ele>
        <time>2021-09-14T11:51:30.000Z</time>
      </trkpt>
      <trkpt lat="45.12447" lon="4.80115">
        <ele>124.76974</ele>
        <time>2021-09-14T11:51:37.000Z</time>
      </trkpt>
      <trkpt lat="45.12412" lon="4.80104">
        <ele>124.718273</ele>
        <time>2021-09-14T11:51:44.000Z</time>
      </trkpt>
      <trkpt lat="45.1238" lon="4.80103">
        <ele>124.924274</ele>
        <time>2021-09-14T11:51:50.000Z</time>
      </trkpt>
      <trkpt lat="45.12356" lon="4.80099">
        <ele>125.08392</ele>
        <time>2021-09-14T11:51:56.000Z</time>
      </trkpt>
      <trkpt lat="45.12321" lon="4.80094">
        <ele>125.319303</ele>
        <time>2021-09-14T11:52:05.000Z</time>
      </trkpt>
      <trkpt lat="45.1228" lon="4.80098">
        <ele>125.591871</ele>
        <time>2021-09-14T11:52:15.000Z</time>
      </trkpt>
      <trkpt lat="45.12242" lon="4.80104">
        <ele>125.843583</ele>
        <time>2021-09-14T11:52:24.000Z</time>
      </trkpt>
      <trkpt lat="45.12215" lon="4.80111">
        <ele>125.995573</ele>
        <time>2021-09-14T11:52:31.000Z</time>
      </trkpt>
      <trkpt lat="45.12187" lon="4.80124">
        <ele>126.158981</ele>
        <time>2021-09-14T11:52:38.000Z</time>
      </trkpt>
      <trkpt lat="45.12166" lon="4.80139">
        <ele>126.288547</ele>
        <time>2021-09-14T11:52:44.000Z</time>
      </trkpt>
      <trkpt lat="45.12148" lon="4.8015">
        <ele>126.393663</ele>
        <time>2021-09-14T11:52:50.000Z</time>
      </trkpt>
      <trkpt lat="45.12127" lon="4.80156">
        <ele>126.514089</ele>
        <time>2021-09-14T11:52:56.000Z</time>
      </trkpt>
      <trkpt lat="45.12123" lon="4.80157">
        <ele>126.537606</ele>
        <time>2021-09-14T11:52:57.000Z</time>
      </trkpt>
      <trkpt lat="45.12119" lon="4.80159">
        <ele>126.560585</ele>
        <time>2021-09-14T11:52:58.000Z</time>
      </trkpt>
      <trkpt lat="45.12104" lon="4.80168">
        <ele>126.647784</ele>
        <time>2021-09-14T11:53:02.000Z</time>
      </trkpt>
      <trkpt lat="45.12088" lon="4.80177">
        <ele>126.741182</ele>
        <time>2021-09-14T11:53:07.000Z</time>
      </trkpt>
      <trkpt lat="45.12084" lon="4.8017">
        <ele>126.775973</ele>
        <time>2021-09-14T11:53:09.000Z</time>
      </trkpt>
      <trkpt lat="45.12084" lon="4.80168">
        <ele>126.787417</ele>
        <time>2021-09-14T11:53:10.000Z</time>
      </trkpt>
      <trkpt lat="45.12088" lon="4.80145">
        <ele>126.853006</ele>
        <time>2021-09-14T11:53:17.000Z</time>
      </trkpt>
      <trkpt lat="45.1209" lon="4.80124">
        <ele>126.853006</ele>
        <time>2021-09-14T11:53:24.000Z</time>
      </trkpt>
      <trkpt lat="45.12101" lon="4.80098">
        <ele>126.853006</ele>
        <time>2021-09-14T11:53:29.000Z</time>
      </trkpt>
      <trkpt lat="45.12103" lon="4.80097">
        <ele>126.853006</ele>
        <time>2021-09-14T11:53:30.000Z</time>
      </trkpt>
      <trkpt lat="45.12109" lon="4.80095">
        <ele>126.853006</ele>
        <time>2021-09-14T11:53:32.000Z</time>
      </trkpt>
      <trkpt lat="45.12115" lon="4.80081">
        <ele>126.853006</ele>
        <time>2021-09-14T11:53:36.000Z</time>
      </trkpt>
      <trkpt lat="45.12116" lon="4.80071">
        <ele>126.853006</ele>
        <time>2021-09-14T11:53:42.000Z</time>
      </trkpt>
      <trkpt lat="45.12116" lon="4.80065">
        <ele>126.853006</ele>
        <time>2021-09-14T11:53:49.000Z</time>
      </trkpt>
      <trkpt lat="45.12116" lon="4.8006">
        <ele>126.853006</ele>
        <time>2021-09-14T11:53:51.000Z</time>
      </trkpt>
      <trkpt lat="45.12117" lon="4.80041">
        <ele>126.853006</ele>
        <time>2021-09-14T11:53:59.000Z</time>
      </trkpt>
      <trkpt lat="45.12117" lon="4.80039">
        <ele>126.853006</ele>
        <time>2021-09-14T11:54:00.000Z</time>
      </trkpt>
      <trkpt lat="45.12117" lon="4.8003">
        <ele>126.853006</ele>
        <time>2021-09-14T11:54:05.000Z</time>
      </trkpt>
      <trkpt lat="45.12118" lon="4.80026">
        <ele>126.853006</ele>
        <time>2021-09-14T11:54:07.000Z</time>
      </trkpt>
      <trkpt lat="45.12119" lon="4.80024">
        <ele>126.853006</ele>
        <time>2021-09-14T11:54:10.000Z</time>
      </trkpt>
      <trkpt lat="45.12122" lon="4.8001">
        <ele>126.853006</ele>
        <time>2021-09-14T11:54:24.000Z</time>
      </trkpt>
      <trkpt lat="45.12123" lon="4.80008">
        <ele>126.853006</ele>
        <time>2021-09-14T11:54:25.000Z</time>
      </trkpt>
      <trkpt lat="45.12123" lon="4.80007">
        <ele>126.853006</ele>
        <time>2021-09-14T11:54:26.000Z</time>
      </trkpt>
      <trkpt lat="45.12131" lon="4.80035">
        <ele>126.853006</ele>
        <time>2021-09-14T11:54:28.000Z</time>
      </trkpt>
      <trkpt lat="45.12134" lon="4.80036">
        <ele>126.853006</ele>
        <time>2021-09-14T11:54:31.000Z</time>
      </trkpt>
      <trkpt lat="45.12134" lon="4.80036">
        <ele>126.853006</ele>
        <time>2021-09-14T11:54:33.000Z</time>
      </trkpt>
    </trkseg>
  </trk>
  <trk>
    <name><![CDATA[Étape 11 : Vion - Viviers]]></name>
    <extensions>
      <line xmlns="http://www.topografix.com/GPX/gpx_style/0/2">
        <color>880088</color>
        <width>4</width>
      </line>
    </extensions>
    <trkseg>
      <trkpt lat="45.12119" lon="4.79875">
        <ele>143.695669</ele>
        <time>2021-09-15T04:39:58.000Z</time>
      </trkpt>
      <trkpt lat="45.12119" lon="4.79875">
        <ele>143.695669</ele>
        <time>2021-09-15T04:39:59.000Z</time>
      </trkpt>
      <trkpt lat="45.12123" lon="4.79874">
        <ele>143.695669</ele>
        <time>2021-09-15T05:00:20.000Z</time>
      </trkpt>
      <trkpt lat="45.12123" lon="4.79875">
        <ele>143.695669</ele>
        <time>2021-09-15T05:00:23.000Z</time>
      </trkpt>
      <trkpt lat="45.12123" lon="4.79886">
        <ele>143.695669</ele>
        <time>2021-09-15T05:00:30.000Z</time>
      </trkpt>
      <trkpt lat="45.12145" lon="4.7989">
        <ele>143.695669</ele>
        <time>2021-09-15T05:00:36.000Z</time>
      </trkpt>
      <trkpt lat="45.12144" lon="4.79886">
        <ele>143.695669</ele>
        <time>2021-09-15T05:00:41.000Z</time>
      </trkpt>
      <trkpt lat="45.12144" lon="4.79884">
        <ele>143.695669</ele>
        <time>2021-09-15T05:00:43.000Z</time>
      </trkpt>
      <trkpt lat="45.12145" lon="4.79883">
        <ele>143.695669</ele>
        <time>2021-09-15T05:00:46.000Z</time>
      </trkpt>
      <trkpt lat="45.12138" lon="4.79897">
        <ele>143.695669</ele>
        <time>2021-09-15T05:03:59.000Z</time>
      </trkpt>
      <trkpt lat="45.12128" lon="4.79903">
        <ele>143.695669</ele>
        <time>2021-09-15T05:04:05.000Z</time>
      </trkpt>
      <trkpt lat="45.12124" lon="4.79905">
        <ele>143.695669</ele>
        <time>2021-09-15T05:04:08.000Z</time>
      </trkpt>
      <trkpt lat="45.12125" lon="4.79912">
        <ele>143.695669</ele>
        <time>2021-09-15T05:04:11.000Z</time>
      </trkpt>
      <trkpt lat="45.12126" lon="4.79938">
        <ele>143.64053</ele>
        <time>2021-09-15T05:04:17.000Z</time>
      </trkpt>
      <trkpt lat="45.12129" lon="4.7997">
        <ele>142.644805</ele>
        <time>2021-09-15T05:04:24.000Z</time>
      </trkpt>
      <trkpt lat="45.12131" lon="4.79989">
        <ele>142.069963</ele>
        <time>2021-09-15T05:04:29.000Z</time>
      </trkpt>
      <trkpt lat="45.12124" lon="4.80006">
        <ele>141.454407</ele>
        <time>2021-09-15T05:04:34.000Z</time>
      </trkpt>
      <trkpt lat="45.1212" lon="4.80016">
        <ele>141.103797</ele>
        <time>2021-09-15T05:04:37.000Z</time>
      </trkpt>
      <trkpt lat="45.12119" lon="4.8002">
        <ele>140.968204</ele>
        <time>2021-09-15T05:04:38.000Z</time>
      </trkpt>
      <trkpt lat="45.12119" lon="4.8002">
        <ele>140.968204</ele>
        <time>2021-09-15T05:04:39.000Z</time>
      </trkpt>
      <trkpt lat="45.12116" lon="4.80031">
        <ele>140.61516</ele>
        <time>2021-09-15T05:04:42.000Z</time>
      </trkpt>
      <trkpt lat="45.12117" lon="4.80032">
        <ele>140.561543</ele>
        <time>2021-09-15T05:04:46.000Z</time>
      </trkpt>
      <trkpt lat="45.12116" lon="4.80065">
        <ele>139.531039</ele>
        <time>2021-09-15T05:04:52.000Z</time>
      </trkpt>
      <trkpt lat="45.12114" lon="4.80093">
        <ele>138.651398</ele>
        <time>2021-09-15T05:04:57.000Z</time>
      </trkpt>
      <trkpt lat="45.12106" lon="4.80096">
        <ele>138.308885</ele>
        <time>2021-09-15T05:05:02.000Z</time>
      </trkpt>
      <trkpt lat="45.12094" lon="4.801">
        <ele>137.745369</ele>
        <time>2021-09-15T05:05:06.000Z</time>
      </trkpt>
      <trkpt lat="45.1209" lon="4.80123">
        <ele>137.011066</ele>
        <time>2021-09-15T05:05:08.000Z</time>
      </trkpt>
      <trkpt lat="45.12088" lon="4.8014">
        <ele>136.505723</ele>
        <time>2021-09-15T05:05:11.000Z</time>
      </trkpt>
      <trkpt lat="45.12087" lon="4.80149">
        <ele>136.193605</ele>
        <time>2021-09-15T05:05:13.000Z</time>
      </trkpt>
      <trkpt lat="45.12086" lon="4.80154">
        <ele>136.042915</ele>
        <time>2021-09-15T05:05:14.000Z</time>
      </trkpt>
      <trkpt lat="45.12082" lon="4.80181">
        <ele>135.517023</ele>
        <time>2021-09-15T05:05:18.000Z</time>
      </trkpt>
      <trkpt lat="45.12077" lon="4.80206">
        <ele>135.111531</ele>
        <time>2021-09-15T05:05:23.000Z</time>
      </trkpt>
      <trkpt lat="45.12066" lon="4.80253">
        <ele>134.351116</ele>
        <time>2021-09-15T05:05:29.000Z</time>
      </trkpt>
      <trkpt lat="45.12052" lon="4.80324">
        <ele>133.217357</ele>
        <time>2021-09-15T05:05:37.000Z</time>
      </trkpt>
      <trkpt lat="45.1205" lon="4.8034">
        <ele>132.974719</ele>
        <time>2021-09-15T05:05:40.000Z</time>
      </trkpt>
      <trkpt lat="45.12048" lon="4.80355">
        <ele>132.733592</ele>
        <time>2021-09-15T05:05:42.000Z</time>
      </trkpt>
      <trkpt lat="45.12046" lon="4.80362">
        <ele>132.621225</ele>
        <time>2021-09-15T05:05:43.000Z</time>
      </trkpt>
      <trkpt lat="45.12043" lon="4.80368">
        <ele>132.503355</ele>
        <time>2021-09-15T05:05:44.000Z</time>
      </trkpt>
      <trkpt lat="45.12037" lon="4.80381">
        <ele>132.276268</ele>
        <time>2021-09-15T05:05:46.000Z</time>
      </trkpt>
      <trkpt lat="45.12034" lon="4.80387">
        <ele>132.162211</ele>
        <time>2021-09-15T05:05:47.000Z</time>
      </trkpt>
      <trkpt lat="45.12024" lon="4.80401">
        <ele>131.863552</ele>
        <time>2021-09-15T05:05:50.000Z</time>
      </trkpt>
      <trkpt lat="45.12018" lon="4.80409">
        <ele>131.717144</ele>
        <time>2021-09-15T05:05:52.000Z</time>
      </trkpt>
      <trkpt lat="45.12015" lon="4.80413">
        <ele>131.643305</ele>
        <time>2021-09-15T05:05:53.000Z</time>
      </trkpt>
      <trkpt lat="45.12002" lon="4.80431">
        <ele>131.320489</ele>
        <time>2021-09-15T05:05:57.000Z</time>
      </trkpt>
      <trkpt lat="45.11998" lon="4.80435">
        <ele>131.238481</ele>
        <time>2021-09-15T05:05:58.000Z</time>
      </trkpt>
      <trkpt lat="45.11989" lon="4.80449">
        <ele>131.001716</ele>
        <time>2021-09-15T05:06:01.000Z</time>
      </trkpt>
      <trkpt lat="45.11987" lon="4.80454">
        <ele>130.925769</ele>
        <time>2021-09-15T05:06:02.000Z</time>
      </trkpt>
      <trkpt lat="45.11984" lon="4.80459">
        <ele>130.848653</ele>
        <time>2021-09-15T05:06:03.000Z</time>
      </trkpt>
      <trkpt lat="45.11974" lon="4.80474">
        <ele>130.59293</ele>
        <time>2021-09-15T05:06:06.000Z</time>
      </trkpt>
      <trkpt lat="45.11955" lon="4.80498">
        <ele>130.134295</ele>
        <time>2021-09-15T05:06:11.000Z</time>
      </trkpt>
      <trkpt lat="45.1195" lon="4.80503">
        <ele>130.040866</ele>
        <time>2021-09-15T05:06:12.000Z</time>
      </trkpt>
      <trkpt lat="45.11942" lon="4.80513">
        <ele>129.840819</ele>
        <time>2021-09-15T05:06:14.000Z</time>
      </trkpt>
      <trkpt lat="45.11928" lon="4.80529">
        <ele>129.517646</ele>
        <time>2021-09-15T05:06:17.000Z</time>
      </trkpt>
      <trkpt lat="45.11913" lon="4.80546">
        <ele>129.187191</ele>
        <time>2021-09-15T05:06:20.000Z</time>
      </trkpt>
      <trkpt lat="45.11894" lon="4.80566">
        <ele>128.760744</ele>
        <time>2021-09-15T05:06:23.000Z</time>
      </trkpt>
      <trkpt lat="45.11879" lon="4.8058">
        <ele>128.638401</ele>
        <time>2021-09-15T05:06:27.000Z</time>
      </trkpt>
      <trkpt lat="45.11868" lon="4.80589">
        <ele>128.573504</ele>
        <time>2021-09-15T05:06:29.000Z</time>
      </trkpt>
      <trkpt lat="45.11833" lon="4.80621">
        <ele>128.348544</ele>
        <time>2021-09-15T05:06:36.000Z</time>
      </trkpt>
      <trkpt lat="45.11795" lon="4.8065">
        <ele>128.121872</ele>
        <time>2021-09-15T05:06:43.000Z</time>
      </trkpt>
      <trkpt lat="45.11756" lon="4.80677">
        <ele>127.889702</ele>
        <time>2021-09-15T05:06:50.000Z</time>
      </trkpt>
      <trkpt lat="45.11729" lon="4.80696">
        <ele>127.777145</ele>
        <time>2021-09-15T05:06:55.000Z</time>
      </trkpt>
      <trkpt lat="45.11701" lon="4.80716">
        <ele>127.838505</ele>
        <time>2021-09-15T05:07:00.000Z</time>
      </trkpt>
      <trkpt lat="45.11672" lon="4.80736">
        <ele>127.902678</ele>
        <time>2021-09-15T05:07:05.000Z</time>
      </trkpt>
      <trkpt lat="45.11634" lon="4.80766">
        <ele>127.989275</ele>
        <time>2021-09-15T05:07:12.000Z</time>
      </trkpt>
      <trkpt lat="45.1162" lon="4.80777">
        <ele>128.020899</ele>
        <time>2021-09-15T05:07:15.000Z</time>
      </trkpt>
      <trkpt lat="45.11606" lon="4.80789">
        <ele>128.054249</ele>
        <time>2021-09-15T05:07:18.000Z</time>
      </trkpt>
      <trkpt lat="45.1158" lon="4.80812">
        <ele>128.1142</ele>
        <time>2021-09-15T05:07:23.000Z</time>
      </trkpt>
      <trkpt lat="45.11537" lon="4.80851">
        <ele>128.311519</ele>
        <time>2021-09-15T05:07:31.000Z</time>
      </trkpt>
      <trkpt lat="45.115" lon="4.80883">
        <ele>128.484381</ele>
        <time>2021-09-15T05:07:38.000Z</time>
      </trkpt>
      <trkpt lat="45.11472" lon="4.80908">
        <ele>128.617268</ele>
        <time>2021-09-15T05:07:43.000Z</time>
      </trkpt>
      <trkpt lat="45.11438" lon="4.80938">
        <ele>128.777894</ele>
        <time>2021-09-15T05:07:49.000Z</time>
      </trkpt>
      <trkpt lat="45.11409" lon="4.80963">
        <ele>128.874769</ele>
        <time>2021-09-15T05:07:54.000Z</time>
      </trkpt>
      <trkpt lat="45.11403" lon="4.80968">
        <ele>128.887818</ele>
        <time>2021-09-15T05:07:55.000Z</time>
      </trkpt>
      <trkpt lat="45.11391" lon="4.80978">
        <ele>128.915423</ele>
        <time>2021-09-15T05:07:57.000Z</time>
      </trkpt>
      <trkpt lat="45.11385" lon="4.80983">
        <ele>128.92895</ele>
        <time>2021-09-15T05:07:58.000Z</time>
      </trkpt>
      <trkpt lat="45.11365" lon="4.81009">
        <ele>128.982509</ele>
        <time>2021-09-15T05:08:02.000Z</time>
      </trkpt>
      <trkpt lat="45.1136" lon="4.81016">
        <ele>128.995991</ele>
        <time>2021-09-15T05:08:03.000Z</time>
      </trkpt>
      <trkpt lat="45.11351" lon="4.8103">
        <ele>129.023054</ele>
        <time>2021-09-15T05:08:05.000Z</time>
      </trkpt>
      <trkpt lat="45.11339" lon="4.81042">
        <ele>129.050367</ele>
        <time>2021-09-15T05:08:07.000Z</time>
      </trkpt>
      <trkpt lat="45.11307" lon="4.81055">
        <ele>129.115155</ele>
        <time>2021-09-15T05:08:12.000Z</time>
      </trkpt>
      <trkpt lat="45.11271" lon="4.81075">
        <ele>129.189196</ele>
        <time>2021-09-15T05:08:18.000Z</time>
      </trkpt>
      <trkpt lat="45.11241" lon="4.81095">
        <ele>129.097112</ele>
        <time>2021-09-15T05:08:23.000Z</time>
      </trkpt>
      <trkpt lat="45.1123" lon="4.81105">
        <ele>129.05949</ele>
        <time>2021-09-15T05:08:25.000Z</time>
      </trkpt>
      <trkpt lat="45.11209" lon="4.81129">
        <ele>128.985791</ele>
        <time>2021-09-15T05:08:29.000Z</time>
      </trkpt>
      <trkpt lat="45.112" lon="4.81142">
        <ele>128.95002</ele>
        <time>2021-09-15T05:08:31.000Z</time>
      </trkpt>
      <trkpt lat="45.11189" lon="4.81164">
        <ele>128.896581</ele>
        <time>2021-09-15T05:08:34.000Z</time>
      </trkpt>
      <trkpt lat="45.1117" lon="4.81202">
        <ele>128.804743</ele>
        <time>2021-09-15T05:08:39.000Z</time>
      </trkpt>
      <trkpt lat="45.11166" lon="4.8121">
        <ele>128.785863</ele>
        <time>2021-09-15T05:08:40.000Z</time>
      </trkpt>
      <trkpt lat="45.11162" lon="4.81218">
        <ele>128.767624</ele>
        <time>2021-09-15T05:08:41.000Z</time>
      </trkpt>
      <trkpt lat="45.1115" lon="4.81228">
        <ele>128.729269</ele>
        <time>2021-09-15T05:08:43.000Z</time>
      </trkpt>
      <trkpt lat="45.1111" lon="4.8124">
        <ele>128.584907</ele>
        <time>2021-09-15T05:08:49.000Z</time>
      </trkpt>
      <trkpt lat="45.1107" lon="4.81248">
        <ele>128.429144</ele>
        <time>2021-09-15T05:08:55.000Z</time>
      </trkpt>
      <trkpt lat="45.11024" lon="4.81261">
        <ele>128.249075</ele>
        <time>2021-09-15T05:09:02.000Z</time>
      </trkpt>
      <trkpt lat="45.10982" lon="4.81293">
        <ele>128.066862</ele>
        <time>2021-09-15T05:09:09.000Z</time>
      </trkpt>
      <trkpt lat="45.10966" lon="4.81309">
        <ele>127.989177</ele>
        <time>2021-09-15T05:09:12.000Z</time>
      </trkpt>
      <trkpt lat="45.10956" lon="4.81322">
        <ele>127.938903</ele>
        <time>2021-09-15T05:09:14.000Z</time>
      </trkpt>
      <trkpt lat="45.10951" lon="4.81328">
        <ele>127.914143</ele>
        <time>2021-09-15T05:09:15.000Z</time>
      </trkpt>
      <trkpt lat="45.10942" lon="4.81341">
        <ele>127.864623</ele>
        <time>2021-09-15T05:09:17.000Z</time>
      </trkpt>
      <trkpt lat="45.10929" lon="4.81363">
        <ele>127.791457</ele>
        <time>2021-09-15T05:09:20.000Z</time>
      </trkpt>
      <trkpt lat="45.10902" lon="4.81424">
        <ele>127.597115</ele>
        <time>2021-09-15T05:09:28.000Z</time>
      </trkpt>
      <trkpt lat="45.10871" lon="4.81483">
        <ele>127.402303</ele>
        <time>2021-09-15T05:09:36.000Z</time>
      </trkpt>
      <trkpt lat="45.10836" lon="4.81549">
        <ele>127.102439</ele>
        <time>2021-09-15T05:09:45.000Z</time>
      </trkpt>
      <trkpt lat="45.10824" lon="4.81572">
        <ele>126.984957</ele>
        <time>2021-09-15T05:09:48.000Z</time>
      </trkpt>
      <trkpt lat="45.10816" lon="4.81586">
        <ele>126.908585</ele>
        <time>2021-09-15T05:09:50.000Z</time>
      </trkpt>
      <trkpt lat="45.10782" lon="4.81654">
        <ele>126.559714</ele>
        <time>2021-09-15T05:09:59.000Z</time>
      </trkpt>
      <trkpt lat="45.10754" lon="4.81694">
        <ele>126.322554</ele>
        <time>2021-09-15T05:10:05.000Z</time>
      </trkpt>
      <trkpt lat="45.10728" lon="4.81722">
        <ele>126.202828</ele>
        <time>2021-09-15T05:10:10.000Z</time>
      </trkpt>
      <trkpt lat="45.10696" lon="4.81752">
        <ele>126.111153</ele>
        <time>2021-09-15T05:10:16.000Z</time>
      </trkpt>
      <trkpt lat="45.10649" lon="4.81799">
        <ele>125.972484</ele>
        <time>2021-09-15T05:10:25.000Z</time>
      </trkpt>
      <trkpt lat="45.10612" lon="4.81838">
        <ele>125.862083</ele>
        <time>2021-09-15T05:10:32.000Z</time>
      </trkpt>
      <trkpt lat="45.10596" lon="4.81855">
        <ele>125.825734</ele>
        <time>2021-09-15T05:10:35.000Z</time>
      </trkpt>
      <trkpt lat="45.1058" lon="4.81874">
        <ele>125.864198</ele>
        <time>2021-09-15T05:10:38.000Z</time>
      </trkpt>
      <trkpt lat="45.10555" lon="4.81905">
        <ele>125.925574</ele>
        <time>2021-09-15T05:10:43.000Z</time>
      </trkpt>
      <trkpt lat="45.10518" lon="4.81942">
        <ele>126.010716</ele>
        <time>2021-09-15T05:10:50.000Z</time>
      </trkpt>
      <trkpt lat="45.10473" lon="4.81982">
        <ele>126.109451</ele>
        <time>2021-09-15T05:10:58.000Z</time>
      </trkpt>
      <trkpt lat="45.10434" lon="4.82018">
        <ele>126.102021</ele>
        <time>2021-09-15T05:11:05.000Z</time>
      </trkpt>
      <trkpt lat="45.10418" lon="4.82033">
        <ele>126.055998</ele>
        <time>2021-09-15T05:11:08.000Z</time>
      </trkpt>
      <trkpt lat="45.10408" lon="4.82045">
        <ele>126.024987</ele>
        <time>2021-09-15T05:11:10.000Z</time>
      </trkpt>
      <trkpt lat="45.10378" lon="4.82079">
        <ele>125.932803</ele>
        <time>2021-09-15T05:11:16.000Z</time>
      </trkpt>
      <trkpt lat="45.1035" lon="4.82113">
        <ele>125.843655</ele>
        <time>2021-09-15T05:11:22.000Z</time>
      </trkpt>
      <trkpt lat="45.10333" lon="4.82132">
        <ele>125.791436</ele>
        <time>2021-09-15T05:11:26.000Z</time>
      </trkpt>
      <trkpt lat="45.10331" lon="4.82135">
        <ele>125.784376</ele>
        <time>2021-09-15T05:11:27.000Z</time>
      </trkpt>
      <trkpt lat="45.10344" lon="4.82147">
        <ele>125.746812</ele>
        <time>2021-09-15T05:11:29.000Z</time>
      </trkpt>
      <trkpt lat="45.10339" lon="4.82126">
        <ele>125.629451</ele>
        <time>2021-09-15T05:11:33.000Z</time>
      </trkpt>
      <trkpt lat="45.10344" lon="4.8212">
        <ele>125.518151</ele>
        <time>2021-09-15T05:11:35.000Z</time>
      </trkpt>
      <trkpt lat="45.10352" lon="4.8211">
        <ele>125.347813</ele>
        <time>2021-09-15T05:11:36.000Z</time>
      </trkpt>
      <trkpt lat="45.10349" lon="4.82134">
        <ele>125.064294</ele>
        <time>2021-09-15T05:11:39.000Z</time>
      </trkpt>
      <trkpt lat="45.10346" lon="4.8214">
        <ele>124.98961</ele>
        <time>2021-09-15T05:11:40.000Z</time>
      </trkpt>
      <trkpt lat="45.10341" lon="4.82153">
        <ele>124.81682</ele>
        <time>2021-09-15T05:11:42.000Z</time>
      </trkpt>
      <trkpt lat="45.10313" lon="4.82186">
        <ele>124.239147</ele>
        <time>2021-09-15T05:11:48.000Z</time>
      </trkpt>
      <trkpt lat="45.10284" lon="4.82219">
        <ele>123.647072</ele>
        <time>2021-09-15T05:11:54.000Z</time>
      </trkpt>
      <trkpt lat="45.10279" lon="4.82224">
        <ele>123.545547</ele>
        <time>2021-09-15T05:11:55.000Z</time>
      </trkpt>
      <trkpt lat="45.10269" lon="4.82236">
        <ele>123.345168</ele>
        <time>2021-09-15T05:11:57.000Z</time>
      </trkpt>
      <trkpt lat="45.10261" lon="4.8225">
        <ele>123.132996</ele>
        <time>2021-09-15T05:11:59.000Z</time>
      </trkpt>
      <trkpt lat="45.10259" lon="4.82258">
        <ele>123.034855</ele>
        <time>2021-09-15T05:12:00.000Z</time>
      </trkpt>
      <trkpt lat="45.10256" lon="4.82274">
        <ele>122.847534</ele>
        <time>2021-09-15T05:12:02.000Z</time>
      </trkpt>
      <trkpt lat="45.10251" lon="4.82291">
        <ele>122.582542</ele>
        <time>2021-09-15T05:12:04.000Z</time>
      </trkpt>
      <trkpt lat="45.10222" lon="4.82303">
        <ele>121.928327</ele>
        <time>2021-09-15T05:12:09.000Z</time>
      </trkpt>
      <trkpt lat="45.10191" lon="4.82318">
        <ele>121.235958</ele>
        <time>2021-09-15T05:12:14.000Z</time>
      </trkpt>
      <trkpt lat="45.10162" lon="4.82335">
        <ele>120.561469</ele>
        <time>2021-09-15T05:12:19.000Z</time>
      </trkpt>
      <trkpt lat="45.10156" lon="4.82338">
        <ele>120.425324</ele>
        <time>2021-09-15T05:12:20.000Z</time>
      </trkpt>
      <trkpt lat="45.10126" lon="4.82356">
        <ele>119.743785</ele>
        <time>2021-09-15T05:12:25.000Z</time>
      </trkpt>
      <trkpt lat="45.10115" lon="4.82364">
        <ele>119.467699</ele>
        <time>2021-09-15T05:12:27.000Z</time>
      </trkpt>
      <trkpt lat="45.10099" lon="4.82377">
        <ele>119.078065</ele>
        <time>2021-09-15T05:12:30.000Z</time>
      </trkpt>
      <trkpt lat="45.10053" lon="4.82404">
        <ele>118.137688</ele>
        <time>2021-09-15T05:12:38.000Z</time>
      </trkpt>
      <trkpt lat="45.10014" lon="4.82422">
        <ele>117.360981</ele>
        <time>2021-09-15T05:12:45.000Z</time>
      </trkpt>
      <trkpt lat="45.09972" lon="4.82439">
        <ele>116.531557</ele>
        <time>2021-09-15T05:12:52.000Z</time>
      </trkpt>
      <trkpt lat="45.0993" lon="4.82456">
        <ele>115.707575</ele>
        <time>2021-09-15T05:12:59.000Z</time>
      </trkpt>
      <trkpt lat="45.09889" lon="4.82472">
        <ele>114.839659</ele>
        <time>2021-09-15T05:13:06.000Z</time>
      </trkpt>
      <trkpt lat="45.09855" lon="4.82486">
        <ele>114.109448</ele>
        <time>2021-09-15T05:13:12.000Z</time>
      </trkpt>
      <trkpt lat="45.09813" lon="4.82507">
        <ele>113.202525</ele>
        <time>2021-09-15T05:13:18.000Z</time>
      </trkpt>
      <trkpt lat="45.09789" lon="4.82519">
        <ele>112.678719</ele>
        <time>2021-09-15T05:13:22.000Z</time>
      </trkpt>
      <trkpt lat="45.09778" lon="4.82524">
        <ele>112.427038</ele>
        <time>2021-09-15T05:13:24.000Z</time>
      </trkpt>
      <trkpt lat="45.09736" lon="4.82545">
        <ele>111.423267</ele>
        <time>2021-09-15T05:13:31.000Z</time>
      </trkpt>
      <trkpt lat="45.097" lon="4.82565">
        <ele>110.432176</ele>
        <time>2021-09-15T05:13:37.000Z</time>
      </trkpt>
      <trkpt lat="45.09697" lon="4.82571">
        <ele>110.293399</ele>
        <time>2021-09-15T05:13:38.000Z</time>
      </trkpt>
      <trkpt lat="45.0969" lon="4.82583">
        <ele>110.015635</ele>
        <time>2021-09-15T05:13:40.000Z</time>
      </trkpt>
      <trkpt lat="45.09684" lon="4.82594">
        <ele>109.758523</ele>
        <time>2021-09-15T05:13:42.000Z</time>
      </trkpt>
      <trkpt lat="45.09678" lon="4.82604">
        <ele>109.525079</ele>
        <time>2021-09-15T05:13:44.000Z</time>
      </trkpt>
      <trkpt lat="45.09674" lon="4.82608">
        <ele>109.412153</ele>
        <time>2021-09-15T05:13:45.000Z</time>
      </trkpt>
      <trkpt lat="45.09671" lon="4.82612">
        <ele>109.310864</ele>
        <time>2021-09-15T05:13:46.000Z</time>
      </trkpt>
      <trkpt lat="45.09659" lon="4.82614">
        <ele>108.993857</ele>
        <time>2021-09-15T05:13:48.000Z</time>
      </trkpt>
      <trkpt lat="45.0965" lon="4.82611">
        <ele>108.755918</ele>
        <time>2021-09-15T05:13:50.000Z</time>
      </trkpt>
      <trkpt lat="45.09646" lon="4.8261">
        <ele>108.664314</ele>
        <time>2021-09-15T05:13:51.000Z</time>
      </trkpt>
      <trkpt lat="45.09641" lon="4.82614">
        <ele>108.506032</ele>
        <time>2021-09-15T05:13:52.000Z</time>
      </trkpt>
      <trkpt lat="45.09639" lon="4.8262">
        <ele>108.380071</ele>
        <time>2021-09-15T05:13:53.000Z</time>
      </trkpt>
      <trkpt lat="45.09639" lon="4.8262">
        <ele>108.376943</ele>
        <time>2021-09-15T05:13:54.000Z</time>
      </trkpt>
      <trkpt lat="45.0963" lon="4.82643">
        <ele>107.905768</ele>
        <time>2021-09-15T05:13:57.000Z</time>
      </trkpt>
      <trkpt lat="45.09603" lon="4.82703">
        <ele>106.722708</ele>
        <time>2021-09-15T05:14:04.000Z</time>
      </trkpt>
      <trkpt lat="45.096" lon="4.8271">
        <ele>106.586329</ele>
        <time>2021-09-15T05:14:06.000Z</time>
      </trkpt>
      <trkpt lat="45.09588" lon="4.8273">
        <ele>106.169767</ele>
        <time>2021-09-15T05:14:09.000Z</time>
      </trkpt>
      <trkpt lat="45.09556" lon="4.82761">
        <ele>105.310188</ele>
        <time>2021-09-15T05:14:15.000Z</time>
      </trkpt>
      <trkpt lat="45.09529" lon="4.82787">
        <ele>104.575348</ele>
        <time>2021-09-15T05:14:20.000Z</time>
      </trkpt>
      <trkpt lat="45.09496" lon="4.82821">
        <ele>103.678498</ele>
        <time>2021-09-15T05:14:26.000Z</time>
      </trkpt>
      <trkpt lat="45.09485" lon="4.82833">
        <ele>103.372871</ele>
        <time>2021-09-15T05:14:28.000Z</time>
      </trkpt>
      <trkpt lat="45.09468" lon="4.82846">
        <ele>103.160325</ele>
        <time>2021-09-15T05:14:31.000Z</time>
      </trkpt>
      <trkpt lat="45.09455" lon="4.82854">
        <ele>103.041031</ele>
        <time>2021-09-15T05:14:33.000Z</time>
      </trkpt>
      <trkpt lat="45.09438" lon="4.82856">
        <ele>102.895359</ele>
        <time>2021-09-15T05:14:36.000Z</time>
      </trkpt>
      <trkpt lat="45.09397" lon="4.82863">
        <ele>102.542937</ele>
        <time>2021-09-15T05:14:43.000Z</time>
      </trkpt>
      <trkpt lat="45.09374" lon="4.82867">
        <ele>102.340075</ele>
        <time>2021-09-15T05:14:47.000Z</time>
      </trkpt>
      <trkpt lat="45.0935" lon="4.82875">
        <ele>102.132738</ele>
        <time>2021-09-15T05:14:51.000Z</time>
      </trkpt>
      <trkpt lat="45.09344" lon="4.82877">
        <ele>102.0808</ele>
        <time>2021-09-15T05:14:52.000Z</time>
      </trkpt>
      <trkpt lat="45.09297" lon="4.82894">
        <ele>101.607774</ele>
        <time>2021-09-15T05:15:00.000Z</time>
      </trkpt>
      <trkpt lat="45.09261" lon="4.8291">
        <ele>101.110008</ele>
        <time>2021-09-15T05:15:06.000Z</time>
      </trkpt>
      <trkpt lat="45.09225" lon="4.82929">
        <ele>100.60727</ele>
        <time>2021-09-15T05:15:12.000Z</time>
      </trkpt>
      <trkpt lat="45.09179" lon="4.82962">
        <ele>99.925381</ele>
        <time>2021-09-15T05:15:20.000Z</time>
      </trkpt>
      <trkpt lat="45.09141" lon="4.82976">
        <ele>99.417702</ele>
        <time>2021-09-15T05:15:26.000Z</time>
      </trkpt>
      <trkpt lat="45.09102" lon="4.82987">
        <ele>98.887478</ele>
        <time>2021-09-15T05:15:32.000Z</time>
      </trkpt>
      <trkpt lat="45.09051" lon="4.82999">
        <ele>98.199196</ele>
        <time>2021-09-15T05:15:40.000Z</time>
      </trkpt>
      <trkpt lat="45.08996" lon="4.83023">
        <ele>97.440003</ele>
        <time>2021-09-15T05:15:49.000Z</time>
      </trkpt>
      <trkpt lat="45.0899" lon="4.83026">
        <ele>97.359964</ele>
        <time>2021-09-15T05:15:50.000Z</time>
      </trkpt>
      <trkpt lat="45.08941" lon="4.83034">
        <ele>96.871953</ele>
        <time>2021-09-15T05:15:58.000Z</time>
      </trkpt>
      <trkpt lat="45.08898" lon="4.83039">
        <ele>96.59742</ele>
        <time>2021-09-15T05:16:05.000Z</time>
      </trkpt>
      <trkpt lat="45.08855" lon="4.83043">
        <ele>96.328568</ele>
        <time>2021-09-15T05:16:12.000Z</time>
      </trkpt>
      <trkpt lat="45.08812" lon="4.83045">
        <ele>96.057155</ele>
        <time>2021-09-15T05:16:19.000Z</time>
      </trkpt>
      <trkpt lat="45.08768" lon="4.83041">
        <ele>95.966778</ele>
        <time>2021-09-15T05:16:26.000Z</time>
      </trkpt>
      <trkpt lat="45.08731" lon="4.83035">
        <ele>96.145305</ele>
        <time>2021-09-15T05:16:32.000Z</time>
      </trkpt>
      <trkpt lat="45.08689" lon="4.83023">
        <ele>96.348131</ele>
        <time>2021-09-15T05:16:39.000Z</time>
      </trkpt>
      <trkpt lat="45.08653" lon="4.83009">
        <ele>96.52456</ele>
        <time>2021-09-15T05:16:45.000Z</time>
      </trkpt>
      <trkpt lat="45.08618" lon="4.82996">
        <ele>96.694706</ele>
        <time>2021-09-15T05:16:51.000Z</time>
      </trkpt>
      <trkpt lat="45.0857" lon="4.82976">
        <ele>98.021432</ele>
        <time>2021-09-15T05:16:59.000Z</time>
      </trkpt>
      <trkpt lat="45.08534" lon="4.82953">
        <ele>99.256741</ele>
        <time>2021-09-15T05:17:05.000Z</time>
      </trkpt>
      <trkpt lat="45.08498" lon="4.82928">
        <ele>100.510339</ele>
        <time>2021-09-15T05:17:11.000Z</time>
      </trkpt>
      <trkpt lat="45.08452" lon="4.82887">
        <ele>102.208685</ele>
        <time>2021-09-15T05:17:19.000Z</time>
      </trkpt>
      <trkpt lat="45.08441" lon="4.82878">
        <ele>102.65155</ele>
        <time>2021-09-15T05:17:21.000Z</time>
      </trkpt>
      <trkpt lat="45.08419" lon="4.82861">
        <ele>103.537504</ele>
        <time>2021-09-15T05:17:25.000Z</time>
      </trkpt>
      <trkpt lat="45.08403" lon="4.82851">
        <ele>104.17905</ele>
        <time>2021-09-15T05:17:28.000Z</time>
      </trkpt>
      <trkpt lat="45.08387" lon="4.82841">
        <ele>104.805463</ele>
        <time>2021-09-15T05:17:31.000Z</time>
      </trkpt>
      <trkpt lat="45.08335" lon="4.8281">
        <ele>106.816822</ele>
        <time>2021-09-15T05:17:40.000Z</time>
      </trkpt>
      <trkpt lat="45.08329" lon="4.82807">
        <ele>107.038776</ele>
        <time>2021-09-15T05:17:41.000Z</time>
      </trkpt>
      <trkpt lat="45.08295" lon="4.82786">
        <ele>108.364752</ele>
        <time>2021-09-15T05:17:47.000Z</time>
      </trkpt>
      <trkpt lat="45.08259" lon="4.82764">
        <ele>109.646774</ele>
        <time>2021-09-15T05:17:53.000Z</time>
      </trkpt>
      <trkpt lat="45.08218" lon="4.82739">
        <ele>111.086648</ele>
        <time>2021-09-15T05:18:00.000Z</time>
      </trkpt>
      <trkpt lat="45.08183" lon="4.82715">
        <ele>112.319701</ele>
        <time>2021-09-15T05:18:06.000Z</time>
      </trkpt>
      <trkpt lat="45.08141" lon="4.82694">
        <ele>113.744363</ele>
        <time>2021-09-15T05:18:13.000Z</time>
      </trkpt>
      <trkpt lat="45.08094" lon="4.82673">
        <ele>115.149195</ele>
        <time>2021-09-15T05:18:21.000Z</time>
      </trkpt>
      <trkpt lat="45.08088" lon="4.8267">
        <ele>115.307516</ele>
        <time>2021-09-15T05:18:22.000Z</time>
      </trkpt>
      <trkpt lat="45.08076" lon="4.82665">
        <ele>115.617027</ele>
        <time>2021-09-15T05:18:24.000Z</time>
      </trkpt>
      <trkpt lat="45.08071" lon="4.82662">
        <ele>115.770596</ele>
        <time>2021-09-15T05:18:25.000Z</time>
      </trkpt>
      <trkpt lat="45.08065" lon="4.82657">
        <ele>115.927312</ele>
        <time>2021-09-15T05:18:26.000Z</time>
      </trkpt>
      <trkpt lat="45.08053" lon="4.82637">
        <ele>116.390403</ele>
        <time>2021-09-15T05:18:28.000Z</time>
      </trkpt>
      <trkpt lat="45.08053" lon="4.82637">
        <ele>116.390403</ele>
        <time>2021-09-15T05:18:29.000Z</time>
      </trkpt>
      <trkpt lat="45.08048" lon="4.82632">
        <ele>116.542801</ele>
        <time>2021-09-15T05:18:30.000Z</time>
      </trkpt>
      <trkpt lat="45.08034" lon="4.82625">
        <ele>116.933784</ele>
        <time>2021-09-15T05:18:33.000Z</time>
      </trkpt>
      <trkpt lat="45.08018" lon="4.8262">
        <ele>117.333397</ele>
        <time>2021-09-15T05:18:35.000Z</time>
      </trkpt>
      <trkpt lat="45.08012" lon="4.82621">
        <ele>117.483623</ele>
        <time>2021-09-15T05:18:37.000Z</time>
      </trkpt>
      <trkpt lat="45.08" lon="4.82624">
        <ele>117.783469</ele>
        <time>2021-09-15T05:18:39.000Z</time>
      </trkpt>
      <trkpt lat="45.07988" lon="4.82624">
        <ele>118.094229</ele>
        <time>2021-09-15T05:18:41.000Z</time>
      </trkpt>
      <trkpt lat="45.07937" lon="4.82619">
        <ele>119.092339</ele>
        <time>2021-09-15T05:18:49.000Z</time>
      </trkpt>
      <trkpt lat="45.07898" lon="4.82614">
        <ele>119.229252</ele>
        <time>2021-09-15T05:18:55.000Z</time>
      </trkpt>
      <trkpt lat="45.07853" lon="4.82609">
        <ele>119.388352</ele>
        <time>2021-09-15T05:19:02.000Z</time>
      </trkpt>
      <trkpt lat="45.07802" lon="4.82604">
        <ele>119.569183</ele>
        <time>2021-09-15T05:19:10.000Z</time>
      </trkpt>
      <trkpt lat="45.07783" lon="4.82602">
        <ele>119.635361</ele>
        <time>2021-09-15T05:19:13.000Z</time>
      </trkpt>
      <trkpt lat="45.07771" lon="4.826">
        <ele>119.679057</ele>
        <time>2021-09-15T05:19:15.000Z</time>
      </trkpt>
      <trkpt lat="45.0774" lon="4.82585">
        <ele>119.937757</ele>
        <time>2021-09-15T05:19:21.000Z</time>
      </trkpt>
      <trkpt lat="45.07708" lon="4.82569">
        <ele>120.210849</ele>
        <time>2021-09-15T05:19:26.000Z</time>
      </trkpt>
      <trkpt lat="45.07683" lon="4.82545">
        <ele>120.453337</ele>
        <time>2021-09-15T05:19:32.000Z</time>
      </trkpt>
      <trkpt lat="45.07653" lon="4.8252">
        <ele>120.728839</ele>
        <time>2021-09-15T05:19:38.000Z</time>
      </trkpt>
      <trkpt lat="45.07616" lon="4.82496">
        <ele>121.051957</ele>
        <time>2021-09-15T05:19:45.000Z</time>
      </trkpt>
      <trkpt lat="45.07598" lon="4.8248">
        <ele>121.225268</ele>
        <time>2021-09-15T05:19:49.000Z</time>
      </trkpt>
      <trkpt lat="45.07592" lon="4.82475">
        <ele>121.274537</ele>
        <time>2021-09-15T05:19:50.000Z</time>
      </trkpt>
      <trkpt lat="45.07587" lon="4.8247">
        <ele>121.322841</ele>
        <time>2021-09-15T05:19:51.000Z</time>
      </trkpt>
      <trkpt lat="45.07585" lon="4.82461">
        <ele>121.378271</ele>
        <time>2021-09-15T05:19:52.000Z</time>
      </trkpt>
      <trkpt lat="45.07603" lon="4.82403">
        <ele>121.733844</ele>
        <time>2021-09-15T05:19:58.000Z</time>
      </trkpt>
      <trkpt lat="45.07603" lon="4.82403">
        <ele>121.733844</ele>
        <time>2021-09-15T05:19:59.000Z</time>
      </trkpt>
      <trkpt lat="45.07612" lon="4.82389">
        <ele>121.834177</ele>
        <time>2021-09-15T05:20:01.000Z</time>
      </trkpt>
      <trkpt lat="45.07616" lon="4.82382">
        <ele>121.884081</ele>
        <time>2021-09-15T05:20:02.000Z</time>
      </trkpt>
      <trkpt lat="45.07632" lon="4.82326">
        <ele>122.225165</ele>
        <time>2021-09-15T05:20:08.000Z</time>
      </trkpt>
      <trkpt lat="45.07634" lon="4.82318">
        <ele>122.271978</ele>
        <time>2021-09-15T05:20:10.000Z</time>
      </trkpt>
      <trkpt lat="45.0764" lon="4.82303">
        <ele>122.370009</ele>
        <time>2021-09-15T05:20:12.000Z</time>
      </trkpt>
      <trkpt lat="45.07648" lon="4.8229">
        <ele>122.464774</ele>
        <time>2021-09-15T05:20:14.000Z</time>
      </trkpt>
      <trkpt lat="45.07672" lon="4.82256">
        <ele>122.778822</ele>
        <time>2021-09-15T05:20:19.000Z</time>
      </trkpt>
      <trkpt lat="45.07672" lon="4.82256">
        <ele>122.779512</ele>
        <time>2021-09-15T05:20:20.000Z</time>
      </trkpt>
      <trkpt lat="45.07675" lon="4.8225">
        <ele>122.829074</ele>
        <time>2021-09-15T05:20:21.000Z</time>
      </trkpt>
      <trkpt lat="45.07681" lon="4.82241">
        <ele>122.916813</ele>
        <time>2021-09-15T05:20:23.000Z</time>
      </trkpt>
      <trkpt lat="45.07677" lon="4.82208">
        <ele>123.148395</ele>
        <time>2021-09-15T05:20:28.000Z</time>
      </trkpt>
      <trkpt lat="45.07658" lon="4.82136">
        <ele>123.677965</ele>
        <time>2021-09-15T05:20:37.000Z</time>
      </trkpt>
      <trkpt lat="45.07643" lon="4.82078">
        <ele>124.106372</ele>
        <time>2021-09-15T05:20:46.000Z</time>
      </trkpt>
      <trkpt lat="45.07625" lon="4.82007">
        <ele>124.45575</ele>
        <time>2021-09-15T05:20:56.000Z</time>
      </trkpt>
      <trkpt lat="45.07606" lon="4.81935">
        <ele>124.719466</ele>
        <time>2021-09-15T05:21:06.000Z</time>
      </trkpt>
      <trkpt lat="45.07587" lon="4.81864">
        <ele>124.978973</ele>
        <time>2021-09-15T05:21:16.000Z</time>
      </trkpt>
      <trkpt lat="45.07574" lon="4.81812">
        <ele>125.171712</ele>
        <time>2021-09-15T05:21:23.000Z</time>
      </trkpt>
      <trkpt lat="45.07555" lon="4.81746">
        <ele>125.563296</ele>
        <time>2021-09-15T05:21:32.000Z</time>
      </trkpt>
      <trkpt lat="45.07536" lon="4.81681">
        <ele>125.952332</ele>
        <time>2021-09-15T05:21:41.000Z</time>
      </trkpt>
      <trkpt lat="45.0753" lon="4.81659">
        <ele>126.080212</ele>
        <time>2021-09-15T05:21:45.000Z</time>
      </trkpt>
      <trkpt lat="45.07528" lon="4.81654">
        <ele>126.113701</ele>
        <time>2021-09-15T05:21:47.000Z</time>
      </trkpt>
      <trkpt lat="45.07526" lon="4.81651">
        <ele>126.1336</ele>
        <time>2021-09-15T05:21:49.000Z</time>
      </trkpt>
      <trkpt lat="45.07515" lon="4.81659">
        <ele>126.230913</ele>
        <time>2021-09-15T05:21:54.000Z</time>
      </trkpt>
      <trkpt lat="45.07491" lon="4.81676">
        <ele>126.440312</ele>
        <time>2021-09-15T05:22:01.000Z</time>
      </trkpt>
      <trkpt lat="45.07462" lon="4.81696">
        <ele>126.596266</ele>
        <time>2021-09-15T05:22:08.000Z</time>
      </trkpt>
      <trkpt lat="45.07426" lon="4.81722">
        <ele>126.677642</ele>
        <time>2021-09-15T05:22:16.000Z</time>
      </trkpt>
      <trkpt lat="45.074" lon="4.81747">
        <ele>126.741093</ele>
        <time>2021-09-15T05:22:22.000Z</time>
      </trkpt>
      <trkpt lat="45.07389" lon="4.81758">
        <ele>126.766946</ele>
        <time>2021-09-15T05:22:25.000Z</time>
      </trkpt>
      <trkpt lat="45.07388" lon="4.81759">
        <ele>126.770477</ele>
        <time>2021-09-15T05:22:27.000Z</time>
      </trkpt>
      <trkpt lat="45.07385" lon="4.81756">
        <ele>126.777536</ele>
        <time>2021-09-15T05:22:30.000Z</time>
      </trkpt>
      <trkpt lat="45.07382" lon="4.81755">
        <ele>126.784506</ele>
        <time>2021-09-15T05:22:31.000Z</time>
      </trkpt>
      <trkpt lat="45.07387" lon="4.8176">
        <ele>126.797473</ele>
        <time>2021-09-15T05:22:32.000Z</time>
      </trkpt>
      <trkpt lat="45.07384" lon="4.81765">
        <ele>126.806177</ele>
        <time>2021-09-15T05:22:34.000Z</time>
      </trkpt>
      <trkpt lat="45.07363" lon="4.81792">
        <ele>126.864019</ele>
        <time>2021-09-15T05:22:40.000Z</time>
      </trkpt>
      <trkpt lat="45.07353" lon="4.81819">
        <ele>126.907626</ele>
        <time>2021-09-15T05:22:44.000Z</time>
      </trkpt>
      <trkpt lat="45.07351" lon="4.81826">
        <ele>126.918849</ele>
        <time>2021-09-15T05:22:45.000Z</time>
      </trkpt>
      <trkpt lat="45.07334" lon="4.8189">
        <ele>126.932222</ele>
        <time>2021-09-15T05:22:53.000Z</time>
      </trkpt>
      <trkpt lat="45.07321" lon="4.81957">
        <ele>126.941396</ele>
        <time>2021-09-15T05:23:01.000Z</time>
      </trkpt>
      <trkpt lat="45.07302" lon="4.82024">
        <ele>126.950821</ele>
        <time>2021-09-15T05:23:09.000Z</time>
      </trkpt>
      <trkpt lat="45.07282" lon="4.82089">
        <ele>126.940309</ele>
        <time>2021-09-15T05:23:17.000Z</time>
      </trkpt>
      <trkpt lat="45.07275" lon="4.82113">
        <ele>126.92066</ele>
        <time>2021-09-15T05:23:20.000Z</time>
      </trkpt>
      <trkpt lat="45.07266" lon="4.82143">
        <ele>126.895145</ele>
        <time>2021-09-15T05:23:24.000Z</time>
      </trkpt>
      <trkpt lat="45.07262" lon="4.82158">
        <ele>126.883257</ele>
        <time>2021-09-15T05:23:26.000Z</time>
      </trkpt>
      <trkpt lat="45.07259" lon="4.82173">
        <ele>126.870772</ele>
        <time>2021-09-15T05:23:28.000Z</time>
      </trkpt>
      <trkpt lat="45.07262" lon="4.82188">
        <ele>126.859131</ele>
        <time>2021-09-15T05:23:30.000Z</time>
      </trkpt>
      <trkpt lat="45.07264" lon="4.82195">
        <ele>126.853123</ele>
        <time>2021-09-15T05:23:31.000Z</time>
      </trkpt>
      <trkpt lat="45.0727" lon="4.82202">
        <ele>126.844854</ele>
        <time>2021-09-15T05:23:33.000Z</time>
      </trkpt>
      <trkpt lat="45.0727" lon="4.82203">
        <ele>126.843908</ele>
        <time>2021-09-15T05:23:34.000Z</time>
      </trkpt>
      <trkpt lat="45.07268" lon="4.82208">
        <ele>126.839903</ele>
        <time>2021-09-15T05:23:35.000Z</time>
      </trkpt>
      <trkpt lat="45.07268" lon="4.82222">
        <ele>126.829461</ele>
        <time>2021-09-15T05:23:37.000Z</time>
      </trkpt>
      <trkpt lat="45.0727" lon="4.82226">
        <ele>126.824945</ele>
        <time>2021-09-15T05:23:38.000Z</time>
      </trkpt>
      <trkpt lat="45.07275" lon="4.82238">
        <ele>126.814152</ele>
        <time>2021-09-15T05:23:42.000Z</time>
      </trkpt>
      <trkpt lat="45.07276" lon="4.8224">
        <ele>126.812595</ele>
        <time>2021-09-15T05:23:43.000Z</time>
      </trkpt>
      <trkpt lat="45.07277" lon="4.82242">
        <ele>126.810856</ele>
        <time>2021-09-15T05:23:44.000Z</time>
      </trkpt>
      <trkpt lat="45.07279" lon="4.8225">
        <ele>126.804084</ele>
        <time>2021-09-15T05:23:46.000Z</time>
      </trkpt>
      <trkpt lat="45.0728" lon="4.82256">
        <ele>126.799447</ele>
        <time>2021-09-15T05:23:47.000Z</time>
      </trkpt>
      <trkpt lat="45.07285" lon="4.82273">
        <ele>126.785583</ele>
        <time>2021-09-15T05:23:49.000Z</time>
      </trkpt>
      <trkpt lat="45.07285" lon="4.82273">
        <ele>126.785583</ele>
        <time>2021-09-15T05:23:50.000Z</time>
      </trkpt>
      <trkpt lat="45.07287" lon="4.82285">
        <ele>126.776126</ele>
        <time>2021-09-15T05:23:52.000Z</time>
      </trkpt>
      <trkpt lat="45.07289" lon="4.82303">
        <ele>126.761579</ele>
        <time>2021-09-15T05:23:55.000Z</time>
      </trkpt>
      <trkpt lat="45.0729" lon="4.82315">
        <ele>126.748062</ele>
        <time>2021-09-15T05:23:57.000Z</time>
      </trkpt>
      <trkpt lat="45.07291" lon="4.8233">
        <ele>126.732164</ele>
        <time>2021-09-15T05:23:59.000Z</time>
      </trkpt>
      <trkpt lat="45.07291" lon="4.82337">
        <ele>126.723884</ele>
        <time>2021-09-15T05:24:00.000Z</time>
      </trkpt>
      <trkpt lat="45.07288" lon="4.82387">
        <ele>126.668108</ele>
        <time>2021-09-15T05:24:06.000Z</time>
      </trkpt>
      <trkpt lat="45.07284" lon="4.82426">
        <ele>126.623127</ele>
        <time>2021-09-15T05:24:11.000Z</time>
      </trkpt>
      <trkpt lat="45.07281" lon="4.8245">
        <ele>126.59594</ele>
        <time>2021-09-15T05:24:14.000Z</time>
      </trkpt>
      <trkpt lat="45.07276" lon="4.82475">
        <ele>126.567688</ele>
        <time>2021-09-15T05:24:17.000Z</time>
      </trkpt>
      <trkpt lat="45.07259" lon="4.82543">
        <ele>126.487038</ele>
        <time>2021-09-15T05:24:25.000Z</time>
      </trkpt>
      <trkpt lat="45.07249" lon="4.82576">
        <ele>126.371256</ele>
        <time>2021-09-15T05:24:29.000Z</time>
      </trkpt>
      <trkpt lat="45.07244" lon="4.8259">
        <ele>126.306348</ele>
        <time>2021-09-15T05:24:31.000Z</time>
      </trkpt>
      <trkpt lat="45.07236" lon="4.82613">
        <ele>126.207121</ele>
        <time>2021-09-15T05:24:34.000Z</time>
      </trkpt>
      <trkpt lat="45.07234" lon="4.8262">
        <ele>126.174398</ele>
        <time>2021-09-15T05:24:35.000Z</time>
      </trkpt>
      <trkpt lat="45.07231" lon="4.82628">
        <ele>126.138429</ele>
        <time>2021-09-15T05:24:36.000Z</time>
      </trkpt>
      <trkpt lat="45.07221" lon="4.82652">
        <ele>126.028341</ele>
        <time>2021-09-15T05:24:39.000Z</time>
      </trkpt>
      <trkpt lat="45.07211" lon="4.82673">
        <ele>125.928265</ele>
        <time>2021-09-15T05:24:42.000Z</time>
      </trkpt>
      <trkpt lat="45.07206" lon="4.82686">
        <ele>125.870118</ele>
        <time>2021-09-15T05:24:44.000Z</time>
      </trkpt>
      <trkpt lat="45.07203" lon="4.82692">
        <ele>125.839922</ele>
        <time>2021-09-15T05:24:45.000Z</time>
      </trkpt>
      <trkpt lat="45.07183" lon="4.82722">
        <ele>125.678213</ele>
        <time>2021-09-15T05:24:50.000Z</time>
      </trkpt>
      <trkpt lat="45.07153" lon="4.82765">
        <ele>125.39938</ele>
        <time>2021-09-15T05:24:57.000Z</time>
      </trkpt>
      <trkpt lat="45.07145" lon="4.82777">
        <ele>125.240748</ele>
        <time>2021-09-15T05:24:59.000Z</time>
      </trkpt>
      <trkpt lat="45.07132" lon="4.82793">
        <ele>125.013914</ele>
        <time>2021-09-15T05:25:02.000Z</time>
      </trkpt>
      <trkpt lat="45.07095" lon="4.82834">
        <ele>124.396227</ele>
        <time>2021-09-15T05:25:10.000Z</time>
      </trkpt>
      <trkpt lat="45.07074" lon="4.82853">
        <ele>124.060534</ele>
        <time>2021-09-15T05:25:15.000Z</time>
      </trkpt>
      <trkpt lat="45.07068" lon="4.82857">
        <ele>123.976929</ele>
        <time>2021-09-15T05:25:17.000Z</time>
      </trkpt>
      <trkpt lat="45.07068" lon="4.82857">
        <ele>123.976929</ele>
        <time>2021-09-15T05:25:18.000Z</time>
      </trkpt>
      <trkpt lat="45.07057" lon="4.82859">
        <ele>123.832134</ele>
        <time>2021-09-15T05:25:19.000Z</time>
      </trkpt>
      <trkpt lat="45.07086" lon="4.82861">
        <ele>123.448165</ele>
        <time>2021-09-15T05:25:21.000Z</time>
      </trkpt>
      <trkpt lat="45.07095" lon="4.82871">
        <ele>123.298851</ele>
        <time>2021-09-15T05:25:23.000Z</time>
      </trkpt>
      <trkpt lat="45.07099" lon="4.82877">
        <ele>123.224194</ele>
        <time>2021-09-15T05:25:24.000Z</time>
      </trkpt>
      <trkpt lat="45.07099" lon="4.82934">
        <ele>122.705915</ele>
        <time>2021-09-15T05:25:25.000Z</time>
      </trkpt>
      <trkpt lat="45.07095" lon="4.82938">
        <ele>122.643161</ele>
        <time>2021-09-15T05:25:26.000Z</time>
      </trkpt>
      <trkpt lat="45.0706" lon="4.82958">
        <ele>122.161446</ele>
        <time>2021-09-15T05:25:32.000Z</time>
      </trkpt>
      <trkpt lat="45.0703" lon="4.82996">
        <ele>121.650301</ele>
        <time>2021-09-15T05:25:39.000Z</time>
      </trkpt>
      <trkpt lat="45.07008" lon="4.83023">
        <ele>121.285803</ele>
        <time>2021-09-15T05:25:44.000Z</time>
      </trkpt>
      <trkpt lat="45.06973" lon="4.83068">
        <ele>120.782481</ele>
        <time>2021-09-15T05:25:52.000Z</time>
      </trkpt>
      <trkpt lat="45.06947" lon="4.83105">
        <ele>120.730998</ele>
        <time>2021-09-15T05:25:58.000Z</time>
      </trkpt>
      <trkpt lat="45.06916" lon="4.83168">
        <ele>120.655575</ele>
        <time>2021-09-15T05:26:06.000Z</time>
      </trkpt>
      <trkpt lat="45.06916" lon="4.83168">
        <ele>120.655575</ele>
        <time>2021-09-15T05:26:07.000Z</time>
      </trkpt>
      <trkpt lat="45.06898" lon="4.83203">
        <ele>120.613038</ele>
        <time>2021-09-15T05:26:13.000Z</time>
      </trkpt>
      <trkpt lat="45.06883" lon="4.83237">
        <ele>120.572884</ele>
        <time>2021-09-15T05:26:20.000Z</time>
      </trkpt>
      <trkpt lat="45.06874" lon="4.83267">
        <ele>120.553999</ele>
        <time>2021-09-15T05:26:25.000Z</time>
      </trkpt>
      <trkpt lat="45.06871" lon="4.83279">
        <ele>120.590898</ele>
        <time>2021-09-15T05:26:27.000Z</time>
      </trkpt>
      <trkpt lat="45.06868" lon="4.83285">
        <ele>120.610519</ele>
        <time>2021-09-15T05:26:28.000Z</time>
      </trkpt>
      <trkpt lat="45.06854" lon="4.83323">
        <ele>120.737667</ele>
        <time>2021-09-15T05:26:35.000Z</time>
      </trkpt>
      <trkpt lat="45.06838" lon="4.83356">
        <ele>120.855617</ele>
        <time>2021-09-15T05:26:42.000Z</time>
      </trkpt>
      <trkpt lat="45.0682" lon="4.83391">
        <ele>120.982719</ele>
        <time>2021-09-15T05:26:48.000Z</time>
      </trkpt>
      <trkpt lat="45.06796" lon="4.83434">
        <ele>121.145057</ele>
        <time>2021-09-15T05:26:56.000Z</time>
      </trkpt>
      <trkpt lat="45.06787" lon="4.83459">
        <ele>121.226858</ele>
        <time>2021-09-15T05:27:01.000Z</time>
      </trkpt>
      <trkpt lat="45.06786" lon="4.83463">
        <ele>121.24079</ele>
        <time>2021-09-15T05:27:02.000Z</time>
      </trkpt>
      <trkpt lat="45.0678" lon="4.83471">
        <ele>121.273205</ele>
        <time>2021-09-15T05:27:04.000Z</time>
      </trkpt>
      <trkpt lat="45.06772" lon="4.83487">
        <ele>121.338312</ele>
        <time>2021-09-15T05:27:07.000Z</time>
      </trkpt>
      <trkpt lat="45.06764" lon="4.83505">
        <ele>121.409551</ele>
        <time>2021-09-15T05:27:10.000Z</time>
      </trkpt>
      <trkpt lat="45.06737" lon="4.83564">
        <ele>121.643063</ele>
        <time>2021-09-15T05:27:19.000Z</time>
      </trkpt>
      <trkpt lat="45.06707" lon="4.83633">
        <ele>121.91467</ele>
        <time>2021-09-15T05:27:29.000Z</time>
      </trkpt>
      <trkpt lat="45.06679" lon="4.83694">
        <ele>122.153968</ele>
        <time>2021-09-15T05:27:38.000Z</time>
      </trkpt>
      <trkpt lat="45.06653" lon="4.83754">
        <ele>122.322339</ele>
        <time>2021-09-15T05:27:47.000Z</time>
      </trkpt>
      <trkpt lat="45.06632" lon="4.83805">
        <ele>122.462465</ele>
        <time>2021-09-15T05:27:55.000Z</time>
      </trkpt>
      <trkpt lat="45.06605" lon="4.83874">
        <ele>122.650145</ele>
        <time>2021-09-15T05:28:04.000Z</time>
      </trkpt>
      <trkpt lat="45.06585" lon="4.83924">
        <ele>122.800842</ele>
        <time>2021-09-15T05:28:12.000Z</time>
      </trkpt>
      <trkpt lat="45.06566" lon="4.83975">
        <ele>123.005795</ele>
        <time>2021-09-15T05:28:20.000Z</time>
      </trkpt>
      <trkpt lat="45.06565" lon="4.83992">
        <ele>123.066159</ele>
        <time>2021-09-15T05:28:23.000Z</time>
      </trkpt>
      <trkpt lat="45.06568" lon="4.84001">
        <ele>123.103404</ele>
        <time>2021-09-15T05:28:27.000Z</time>
      </trkpt>
      <trkpt lat="45.06566" lon="4.8401">
        <ele>123.135583</ele>
        <time>2021-09-15T05:28:31.000Z</time>
      </trkpt>
      <trkpt lat="45.06565" lon="4.84012">
        <ele>123.142585</ele>
        <time>2021-09-15T05:28:32.000Z</time>
      </trkpt>
      <trkpt lat="45.06564" lon="4.84015">
        <ele>123.155022</ele>
        <time>2021-09-15T05:28:33.000Z</time>
      </trkpt>
      <trkpt lat="45.06562" lon="4.84019">
        <ele>123.172839</ele>
        <time>2021-09-15T05:28:35.000Z</time>
      </trkpt>
      <trkpt lat="45.06554" lon="4.84028">
        <ele>123.223126</ele>
        <time>2021-09-15T05:28:38.000Z</time>
      </trkpt>
      <trkpt lat="45.06546" lon="4.84042">
        <ele>123.287015</ele>
        <time>2021-09-15T05:28:42.000Z</time>
      </trkpt>
      <trkpt lat="45.06541" lon="4.84067">
        <ele>123.380411</ele>
        <time>2021-09-15T05:28:47.000Z</time>
      </trkpt>
      <trkpt lat="45.06531" lon="4.84113">
        <ele>123.548353</ele>
        <time>2021-09-15T05:28:53.000Z</time>
      </trkpt>
      <trkpt lat="45.06516" lon="4.84175">
        <ele>123.66846</ele>
        <time>2021-09-15T05:29:01.000Z</time>
      </trkpt>
      <trkpt lat="45.06501" lon="4.8423">
        <ele>123.701913</ele>
        <time>2021-09-15T05:29:08.000Z</time>
      </trkpt>
      <trkpt lat="45.06487" lon="4.84287">
        <ele>123.735764</ele>
        <time>2021-09-15T05:29:15.000Z</time>
      </trkpt>
      <trkpt lat="45.06486" lon="4.84295">
        <ele>123.740557</ele>
        <time>2021-09-15T05:29:16.000Z</time>
      </trkpt>
      <trkpt lat="45.06474" lon="4.84352">
        <ele>123.774315</ele>
        <time>2021-09-15T05:29:23.000Z</time>
      </trkpt>
      <trkpt lat="45.0646" lon="4.84419">
        <ele>123.769619</ele>
        <time>2021-09-15T05:29:31.000Z</time>
      </trkpt>
      <trkpt lat="45.06456" lon="4.84469">
        <ele>123.742427</ele>
        <time>2021-09-15T05:29:37.000Z</time>
      </trkpt>
      <trkpt lat="45.06447" lon="4.8453">
        <ele>123.708766</ele>
        <time>2021-09-15T05:29:43.000Z</time>
      </trkpt>
      <trkpt lat="45.06436" lon="4.846">
        <ele>123.669948</ele>
        <time>2021-09-15T05:29:52.000Z</time>
      </trkpt>
      <trkpt lat="45.06423" lon="4.8466">
        <ele>123.605021</ele>
        <time>2021-09-15T05:29:59.000Z</time>
      </trkpt>
      <trkpt lat="45.06407" lon="4.84727">
        <ele>123.497709</ele>
        <time>2021-09-15T05:30:07.000Z</time>
      </trkpt>
      <trkpt lat="45.06391" lon="4.84786">
        <ele>123.403246</ele>
        <time>2021-09-15T05:30:14.000Z</time>
      </trkpt>
      <trkpt lat="45.06376" lon="4.84845">
        <ele>123.309564</ele>
        <time>2021-09-15T05:30:21.000Z</time>
      </trkpt>
      <trkpt lat="45.06364" lon="4.84891">
        <ele>123.238057</ele>
        <time>2021-09-15T05:30:27.000Z</time>
      </trkpt>
      <trkpt lat="45.0636" lon="4.84906">
        <ele>123.214294</ele>
        <time>2021-09-15T05:30:29.000Z</time>
      </trkpt>
      <trkpt lat="45.06342" lon="4.84981">
        <ele>123.10349</ele>
        <time>2021-09-15T05:30:38.000Z</time>
      </trkpt>
      <trkpt lat="45.06325" lon="4.85032">
        <ele>123.02393</ele>
        <time>2021-09-15T05:30:45.000Z</time>
      </trkpt>
      <trkpt lat="45.06306" lon="4.85089">
        <ele>122.935644</ele>
        <time>2021-09-15T05:30:53.000Z</time>
      </trkpt>
      <trkpt lat="45.06284" lon="4.85145">
        <ele>122.89116</ele>
        <time>2021-09-15T05:31:01.000Z</time>
      </trkpt>
      <trkpt lat="45.06267" lon="4.8519">
        <ele>122.868724</ele>
        <time>2021-09-15T05:31:07.000Z</time>
      </trkpt>
      <trkpt lat="45.06244" lon="4.85241">
        <ele>122.842127</ele>
        <time>2021-09-15T05:31:14.000Z</time>
      </trkpt>
      <trkpt lat="45.06223" lon="4.85285">
        <ele>122.818998</ele>
        <time>2021-09-15T05:31:20.000Z</time>
      </trkpt>
      <trkpt lat="45.06191" lon="4.85352">
        <ele>122.790298</ele>
        <time>2021-09-15T05:31:29.000Z</time>
      </trkpt>
      <trkpt lat="45.06187" lon="4.85359">
        <ele>122.787938</ele>
        <time>2021-09-15T05:31:30.000Z</time>
      </trkpt>
      <trkpt lat="45.06152" lon="4.85424">
        <ele>122.766506</ele>
        <time>2021-09-15T05:31:39.000Z</time>
      </trkpt>
      <trkpt lat="45.06114" lon="4.85484">
        <ele>122.745678</ele>
        <time>2021-09-15T05:31:48.000Z</time>
      </trkpt>
      <trkpt lat="45.0611" lon="4.8549">
        <ele>122.743343</ele>
        <time>2021-09-15T05:31:49.000Z</time>
      </trkpt>
      <trkpt lat="45.06072" lon="4.85549">
        <ele>122.712075</ele>
        <time>2021-09-15T05:31:58.000Z</time>
      </trkpt>
      <trkpt lat="45.06068" lon="4.85555">
        <ele>122.707589</ele>
        <time>2021-09-15T05:31:59.000Z</time>
      </trkpt>
      <trkpt lat="45.0603" lon="4.856">
        <ele>122.671474</ele>
        <time>2021-09-15T05:32:07.000Z</time>
      </trkpt>
      <trkpt lat="45.0599" lon="4.8564">
        <ele>122.636169</ele>
        <time>2021-09-15T05:32:15.000Z</time>
      </trkpt>
      <trkpt lat="45.05953" lon="4.85669">
        <ele>122.605105</ele>
        <time>2021-09-15T05:32:22.000Z</time>
      </trkpt>
      <trkpt lat="45.05908" lon="4.85695">
        <ele>122.539817</ele>
        <time>2021-09-15T05:32:30.000Z</time>
      </trkpt>
      <trkpt lat="45.05855" lon="4.8572">
        <ele>122.463745</ele>
        <time>2021-09-15T05:32:39.000Z</time>
      </trkpt>
      <trkpt lat="45.05806" lon="4.85731">
        <ele>122.395324</ele>
        <time>2021-09-15T05:32:47.000Z</time>
      </trkpt>
      <trkpt lat="45.05756" lon="4.85736">
        <ele>122.337452</ele>
        <time>2021-09-15T05:32:55.000Z</time>
      </trkpt>
      <trkpt lat="45.05701" lon="4.85732">
        <ele>122.289244</ele>
        <time>2021-09-15T05:33:04.000Z</time>
      </trkpt>
      <trkpt lat="45.05646" lon="4.85722">
        <ele>122.241506</ele>
        <time>2021-09-15T05:33:13.000Z</time>
      </trkpt>
      <trkpt lat="45.05634" lon="4.8572">
        <ele>122.230963</ele>
        <time>2021-09-15T05:33:15.000Z</time>
      </trkpt>
      <trkpt lat="45.0558" lon="4.85707">
        <ele>122.200006</ele>
        <time>2021-09-15T05:33:24.000Z</time>
      </trkpt>
      <trkpt lat="45.05573" lon="4.85705">
        <ele>122.200006</ele>
        <time>2021-09-15T05:33:25.000Z</time>
      </trkpt>
      <trkpt lat="45.05518" lon="4.85691">
        <ele>122.200006</ele>
        <time>2021-09-15T05:33:34.000Z</time>
      </trkpt>
      <trkpt lat="45.055" lon="4.85684">
        <ele>122.200006</ele>
        <time>2021-09-15T05:33:37.000Z</time>
      </trkpt>
      <trkpt lat="45.05452" lon="4.85664">
        <ele>122.200006</ele>
        <time>2021-09-15T05:33:45.000Z</time>
      </trkpt>
      <trkpt lat="45.05411" lon="4.85643">
        <ele>122.208587</ele>
        <time>2021-09-15T05:33:52.000Z</time>
      </trkpt>
      <trkpt lat="45.05358" lon="4.85612">
        <ele>122.243186</ele>
        <time>2021-09-15T05:34:01.000Z</time>
      </trkpt>
      <trkpt lat="45.05307" lon="4.85579">
        <ele>122.277103</ele>
        <time>2021-09-15T05:34:10.000Z</time>
      </trkpt>
      <trkpt lat="45.05262" lon="4.8555">
        <ele>122.306927</ele>
        <time>2021-09-15T05:34:18.000Z</time>
      </trkpt>
      <trkpt lat="45.05221" lon="4.85515">
        <ele>122.323781</ele>
        <time>2021-09-15T05:34:26.000Z</time>
      </trkpt>
      <trkpt lat="45.05178" lon="4.85478">
        <ele>122.340051</ele>
        <time>2021-09-15T05:34:34.000Z</time>
      </trkpt>
      <trkpt lat="45.05136" lon="4.85442">
        <ele>122.356185</ele>
        <time>2021-09-15T05:34:42.000Z</time>
      </trkpt>
      <trkpt lat="45.05095" lon="4.85403">
        <ele>122.393358</ele>
        <time>2021-09-15T05:34:50.000Z</time>
      </trkpt>
      <trkpt lat="45.05051" lon="4.85355">
        <ele>122.49373</ele>
        <time>2021-09-15T05:34:59.000Z</time>
      </trkpt>
      <trkpt lat="45.05041" lon="4.85345">
        <ele>122.516145</ele>
        <time>2021-09-15T05:35:01.000Z</time>
      </trkpt>
      <trkpt lat="45.04998" lon="4.85297">
        <ele>122.616818</ele>
        <time>2021-09-15T05:35:10.000Z</time>
      </trkpt>
      <trkpt lat="45.04954" lon="4.85249">
        <ele>122.692292</ele>
        <time>2021-09-15T05:35:19.000Z</time>
      </trkpt>
      <trkpt lat="45.04949" lon="4.85244">
        <ele>122.691153</ele>
        <time>2021-09-15T05:35:20.000Z</time>
      </trkpt>
      <trkpt lat="45.04906" lon="4.85196">
        <ele>122.68068</ele>
        <time>2021-09-15T05:35:29.000Z</time>
      </trkpt>
      <trkpt lat="45.04873" lon="4.8516">
        <ele>122.672812</ele>
        <time>2021-09-15T05:35:36.000Z</time>
      </trkpt>
      <trkpt lat="45.04826" lon="4.85109">
        <ele>122.66145</ele>
        <time>2021-09-15T05:35:46.000Z</time>
      </trkpt>
      <trkpt lat="45.04794" lon="4.85073">
        <ele>122.609534</ele>
        <time>2021-09-15T05:35:53.000Z</time>
      </trkpt>
      <trkpt lat="45.04751" lon="4.85026">
        <ele>122.531747</ele>
        <time>2021-09-15T05:36:02.000Z</time>
      </trkpt>
      <trkpt lat="45.04746" lon="4.85021">
        <ele>122.52323</ele>
        <time>2021-09-15T05:36:03.000Z</time>
      </trkpt>
      <trkpt lat="45.04713" lon="4.84985">
        <ele>122.462416</ele>
        <time>2021-09-15T05:36:10.000Z</time>
      </trkpt>
      <trkpt lat="45.04674" lon="4.84941">
        <ele>122.390671</ele>
        <time>2021-09-15T05:36:18.000Z</time>
      </trkpt>
      <trkpt lat="45.04632" lon="4.84893">
        <ele>122.301163</ele>
        <time>2021-09-15T05:36:27.000Z</time>
      </trkpt>
      <trkpt lat="45.04617" lon="4.84877">
        <ele>122.270925</ele>
        <time>2021-09-15T05:36:30.000Z</time>
      </trkpt>
      <trkpt lat="45.04577" lon="4.84825">
        <ele>122.180526</ele>
        <time>2021-09-15T05:36:39.000Z</time>
      </trkpt>
      <trkpt lat="45.04572" lon="4.84819">
        <ele>122.170442</ele>
        <time>2021-09-15T05:36:40.000Z</time>
      </trkpt>
      <trkpt lat="45.04532" lon="4.84765">
        <ele>122.067517</ele>
        <time>2021-09-15T05:36:49.000Z</time>
      </trkpt>
      <trkpt lat="45.04527" lon="4.84759">
        <ele>122.053088</ele>
        <time>2021-09-15T05:36:50.000Z</time>
      </trkpt>
      <trkpt lat="45.04488" lon="4.84703">
        <ele>121.92111</ele>
        <time>2021-09-15T05:36:59.000Z</time>
      </trkpt>
      <trkpt lat="45.04452" lon="4.84651">
        <ele>121.801699</ele>
        <time>2021-09-15T05:37:07.000Z</time>
      </trkpt>
      <trkpt lat="45.04412" lon="4.84594">
        <ele>121.652776</ele>
        <time>2021-09-15T05:37:16.000Z</time>
      </trkpt>
      <trkpt lat="45.04374" lon="4.84544">
        <ele>121.424092</ele>
        <time>2021-09-15T05:37:24.000Z</time>
      </trkpt>
      <trkpt lat="45.0433" lon="4.84493">
        <ele>121.169261</ele>
        <time>2021-09-15T05:37:33.000Z</time>
      </trkpt>
      <trkpt lat="45.04292" lon="4.8445">
        <ele>120.950569</ele>
        <time>2021-09-15T05:37:40.000Z</time>
      </trkpt>
      <trkpt lat="45.04283" lon="4.8444">
        <ele>120.899988</ele>
        <time>2021-09-15T05:37:43.000Z</time>
      </trkpt>
      <trkpt lat="45.04275" lon="4.84432">
        <ele>120.840594</ele>
        <time>2021-09-15T05:37:44.000Z</time>
      </trkpt>
      <trkpt lat="45.04277" lon="4.84428">
        <ele>120.815969</ele>
        <time>2021-09-15T05:37:45.000Z</time>
      </trkpt>
      <trkpt lat="45.04288" lon="4.84407">
        <ele>120.666838</ele>
        <time>2021-09-15T05:37:47.000Z</time>
      </trkpt>
      <trkpt lat="45.04299" lon="4.84384">
        <ele>120.507943</ele>
        <time>2021-09-15T05:37:51.000Z</time>
      </trkpt>
      <trkpt lat="45.04302" lon="4.84377">
        <ele>120.462411</ele>
        <time>2021-09-15T05:37:52.000Z</time>
      </trkpt>
      <trkpt lat="45.04298" lon="4.84369">
        <ele>120.404179</ele>
        <time>2021-09-15T05:37:53.000Z</time>
      </trkpt>
      <trkpt lat="45.04294" lon="4.84366">
        <ele>120.368692</ele>
        <time>2021-09-15T05:37:54.000Z</time>
      </trkpt>
      <trkpt lat="45.04268" lon="4.84339">
        <ele>120.108121</ele>
        <time>2021-09-15T05:38:00.000Z</time>
      </trkpt>
      <trkpt lat="45.04223" lon="4.84295">
        <ele>119.668796</ele>
        <time>2021-09-15T05:38:09.000Z</time>
      </trkpt>
      <trkpt lat="45.04177" lon="4.8425">
        <ele>119.36691</ele>
        <time>2021-09-15T05:38:18.000Z</time>
      </trkpt>
      <trkpt lat="45.04167" lon="4.8424">
        <ele>119.334855</ele>
        <time>2021-09-15T05:38:20.000Z</time>
      </trkpt>
      <trkpt lat="45.04131" lon="4.84204">
        <ele>119.223289</ele>
        <time>2021-09-15T05:38:27.000Z</time>
      </trkpt>
      <trkpt lat="45.04095" lon="4.84168">
        <ele>119.110889</ele>
        <time>2021-09-15T05:38:34.000Z</time>
      </trkpt>
      <trkpt lat="45.04055" lon="4.84128">
        <ele>118.985167</ele>
        <time>2021-09-15T05:38:42.000Z</time>
      </trkpt>
      <trkpt lat="45.04009" lon="4.84083">
        <ele>119.334426</ele>
        <time>2021-09-15T05:38:51.000Z</time>
      </trkpt>
      <trkpt lat="45.03968" lon="4.84042">
        <ele>119.672999</ele>
        <time>2021-09-15T05:38:59.000Z</time>
      </trkpt>
      <trkpt lat="45.03932" lon="4.84006">
        <ele>119.974513</ele>
        <time>2021-09-15T05:39:06.000Z</time>
      </trkpt>
      <trkpt lat="45.03891" lon="4.83966">
        <ele>120.340385</ele>
        <time>2021-09-15T05:39:14.000Z</time>
      </trkpt>
      <trkpt lat="45.03886" lon="4.83961">
        <ele>120.393943</ele>
        <time>2021-09-15T05:39:15.000Z</time>
      </trkpt>
      <trkpt lat="45.03865" lon="4.8394">
        <ele>120.610239</ele>
        <time>2021-09-15T05:39:19.000Z</time>
      </trkpt>
      <trkpt lat="45.03829" lon="4.83904">
        <ele>120.982367</ele>
        <time>2021-09-15T05:39:26.000Z</time>
      </trkpt>
      <trkpt lat="45.03793" lon="4.83869">
        <ele>121.352424</ele>
        <time>2021-09-15T05:39:33.000Z</time>
      </trkpt>
      <trkpt lat="45.03756" lon="4.83836">
        <ele>121.725918</ele>
        <time>2021-09-15T05:39:40.000Z</time>
      </trkpt>
      <trkpt lat="45.0372" lon="4.83805">
        <ele>121.658999</ele>
        <time>2021-09-15T05:39:47.000Z</time>
      </trkpt>
      <trkpt lat="45.03682" lon="4.83775">
        <ele>121.589475</ele>
        <time>2021-09-15T05:39:54.000Z</time>
      </trkpt>
      <trkpt lat="45.03635" lon="4.83744">
        <ele>121.506438</ele>
        <time>2021-09-15T05:40:02.000Z</time>
      </trkpt>
      <trkpt lat="45.03583" lon="4.83709">
        <ele>121.368791</ele>
        <time>2021-09-15T05:40:11.000Z</time>
      </trkpt>
      <trkpt lat="45.0355" lon="4.83688">
        <ele>121.204217</ele>
        <time>2021-09-15T05:40:17.000Z</time>
      </trkpt>
      <trkpt lat="45.03503" lon="4.83665">
        <ele>120.977621</ele>
        <time>2021-09-15T05:40:25.000Z</time>
      </trkpt>
      <trkpt lat="45.03455" lon="4.83646">
        <ele>120.748381</ele>
        <time>2021-09-15T05:40:33.000Z</time>
      </trkpt>
      <trkpt lat="45.03414" lon="4.8363">
        <ele>120.613328</ele>
        <time>2021-09-15T05:40:40.000Z</time>
      </trkpt>
      <trkpt lat="45.03358" lon="4.83611">
        <ele>120.607218</ele>
        <time>2021-09-15T05:40:49.000Z</time>
      </trkpt>
      <trkpt lat="45.03322" lon="4.83598">
        <ele>120.603364</ele>
        <time>2021-09-15T05:40:55.000Z</time>
      </trkpt>
      <trkpt lat="45.03292" lon="4.83587">
        <ele>120.600105</ele>
        <time>2021-09-15T05:41:00.000Z</time>
      </trkpt>
      <trkpt lat="45.03257" lon="4.83575">
        <ele>120.5962</ele>
        <time>2021-09-15T05:41:06.000Z</time>
      </trkpt>
      <trkpt lat="45.0322" lon="4.8357">
        <ele>120.645708</ele>
        <time>2021-09-15T05:41:12.000Z</time>
      </trkpt>
      <trkpt lat="45.03184" lon="4.83571">
        <ele>120.699384</ele>
        <time>2021-09-15T05:41:18.000Z</time>
      </trkpt>
      <trkpt lat="45.03148" lon="4.83571">
        <ele>120.754585</ele>
        <time>2021-09-15T05:41:24.000Z</time>
      </trkpt>
      <trkpt lat="45.03102" lon="4.83574">
        <ele>120.82555</ele>
        <time>2021-09-15T05:41:31.000Z</time>
      </trkpt>
      <trkpt lat="45.03066" lon="4.83578">
        <ele>120.861069</ele>
        <time>2021-09-15T05:41:37.000Z</time>
      </trkpt>
      <trkpt lat="45.03054" lon="4.83579">
        <ele>120.844322</ele>
        <time>2021-09-15T05:41:39.000Z</time>
      </trkpt>
      <trkpt lat="45.03037" lon="4.83581">
        <ele>120.819278</ele>
        <time>2021-09-15T05:41:42.000Z</time>
      </trkpt>
      <trkpt lat="45.03" lon="4.83589">
        <ele>120.767258</ele>
        <time>2021-09-15T05:41:48.000Z</time>
      </trkpt>
      <trkpt lat="45.02964" lon="4.83597">
        <ele>120.715702</ele>
        <time>2021-09-15T05:41:53.000Z</time>
      </trkpt>
      <trkpt lat="45.02926" lon="4.83607">
        <ele>120.661713</ele>
        <time>2021-09-15T05:42:00.000Z</time>
      </trkpt>
      <trkpt lat="45.02894" lon="4.83617">
        <ele>120.617633</ele>
        <time>2021-09-15T05:42:05.000Z</time>
      </trkpt>
      <trkpt lat="45.02845" lon="4.83635">
        <ele>120.612003</ele>
        <time>2021-09-15T05:42:13.000Z</time>
      </trkpt>
      <trkpt lat="45.02796" lon="4.83657">
        <ele>120.606455</ele>
        <time>2021-09-15T05:42:21.000Z</time>
      </trkpt>
      <trkpt lat="45.0275" lon="4.83683">
        <ele>120.601019</ele>
        <time>2021-09-15T05:42:29.000Z</time>
      </trkpt>
      <trkpt lat="45.02713" lon="4.83713">
        <ele>120.567906</ele>
        <time>2021-09-15T05:42:36.000Z</time>
      </trkpt>
      <trkpt lat="45.02683" lon="4.83742">
        <ele>120.498404</ele>
        <time>2021-09-15T05:42:42.000Z</time>
      </trkpt>
      <trkpt lat="45.02645" lon="4.83768">
        <ele>120.418174</ele>
        <time>2021-09-15T05:42:49.000Z</time>
      </trkpt>
      <trkpt lat="45.02605" lon="4.83806">
        <ele>120.325959</ele>
        <time>2021-09-15T05:42:57.000Z</time>
      </trkpt>
      <trkpt lat="45.02564" lon="4.83845">
        <ele>120.236993</ele>
        <time>2021-09-15T05:43:05.000Z</time>
      </trkpt>
      <trkpt lat="45.02528" lon="4.83879">
        <ele>120.176288</ele>
        <time>2021-09-15T05:43:12.000Z</time>
      </trkpt>
      <trkpt lat="45.02524" lon="4.83885">
        <ele>120.167783</ele>
        <time>2021-09-15T05:43:13.000Z</time>
      </trkpt>
      <trkpt lat="45.02497" lon="4.83919">
        <ele>120.116843</ele>
        <time>2021-09-15T05:43:19.000Z</time>
      </trkpt>
      <trkpt lat="45.02475" lon="4.83947">
        <ele>120.0752</ele>
        <time>2021-09-15T05:43:24.000Z</time>
      </trkpt>
      <trkpt lat="45.02461" lon="4.83963">
        <ele>120.050053</ele>
        <time>2021-09-15T05:43:27.000Z</time>
      </trkpt>
      <trkpt lat="45.02422" lon="4.84014">
        <ele>119.974976</ele>
        <time>2021-09-15T05:43:36.000Z</time>
      </trkpt>
      <trkpt lat="45.02386" lon="4.84062">
        <ele>119.904202</ele>
        <time>2021-09-15T05:43:44.000Z</time>
      </trkpt>
      <trkpt lat="45.02358" lon="4.841">
        <ele>119.848742</ele>
        <time>2021-09-15T05:43:50.000Z</time>
      </trkpt>
      <trkpt lat="45.02322" lon="4.84143">
        <ele>119.782207</ele>
        <time>2021-09-15T05:43:57.000Z</time>
      </trkpt>
      <trkpt lat="45.02279" lon="4.84187">
        <ele>119.702536</ele>
        <time>2021-09-15T05:44:05.000Z</time>
      </trkpt>
      <trkpt lat="45.02252" lon="4.8421">
        <ele>119.653318</ele>
        <time>2021-09-15T05:44:10.000Z</time>
      </trkpt>
      <trkpt lat="45.02241" lon="4.84218">
        <ele>119.633946</ele>
        <time>2021-09-15T05:44:12.000Z</time>
      </trkpt>
      <trkpt lat="45.02207" lon="4.84241">
        <ele>119.575021</ele>
        <time>2021-09-15T05:44:18.000Z</time>
      </trkpt>
      <trkpt lat="45.02164" lon="4.84261">
        <ele>119.504204</ele>
        <time>2021-09-15T05:44:25.000Z</time>
      </trkpt>
      <trkpt lat="45.02106" lon="4.84285">
        <ele>119.245211</ele>
        <time>2021-09-15T05:44:34.000Z</time>
      </trkpt>
      <trkpt lat="45.02061" lon="4.84296">
        <ele>118.942099</ele>
        <time>2021-09-15T05:44:41.000Z</time>
      </trkpt>
      <trkpt lat="45.02047" lon="4.84298">
        <ele>118.855547</ele>
        <time>2021-09-15T05:44:43.000Z</time>
      </trkpt>
      <trkpt lat="45.02028" lon="4.84301">
        <ele>118.731675</ele>
        <time>2021-09-15T05:44:46.000Z</time>
      </trkpt>
      <trkpt lat="45.01981" lon="4.84302">
        <ele>118.422143</ele>
        <time>2021-09-15T05:44:54.000Z</time>
      </trkpt>
      <trkpt lat="45.01944" lon="4.84298">
        <ele>118.111155</ele>
        <time>2021-09-15T05:45:00.000Z</time>
      </trkpt>
      <trkpt lat="45.019" lon="4.84289">
        <ele>117.628166</ele>
        <time>2021-09-15T05:45:07.000Z</time>
      </trkpt>
      <trkpt lat="45.01855" lon="4.84277">
        <ele>117.145508</ele>
        <time>2021-09-15T05:45:14.000Z</time>
      </trkpt>
      <trkpt lat="45.01821" lon="4.8426">
        <ele>116.75663</ele>
        <time>2021-09-15T05:45:20.000Z</time>
      </trkpt>
      <trkpt lat="45.01786" lon="4.84242">
        <ele>116.356325</ele>
        <time>2021-09-15T05:45:26.000Z</time>
      </trkpt>
      <trkpt lat="45.01751" lon="4.8422">
        <ele>116.205509</ele>
        <time>2021-09-15T05:45:32.000Z</time>
      </trkpt>
      <trkpt lat="45.01724" lon="4.84198">
        <ele>116.081051</ele>
        <time>2021-09-15T05:45:37.000Z</time>
      </trkpt>
      <trkpt lat="45.01687" lon="4.84163">
        <ele>115.906476</ele>
        <time>2021-09-15T05:45:44.000Z</time>
      </trkpt>
      <trkpt lat="45.01651" lon="4.84128">
        <ele>115.733201</ele>
        <time>2021-09-15T05:45:51.000Z</time>
      </trkpt>
      <trkpt lat="45.01626" lon="4.84094">
        <ele>115.645945</ele>
        <time>2021-09-15T05:45:57.000Z</time>
      </trkpt>
      <trkpt lat="45.01599" lon="4.84082">
        <ele>115.646905</ele>
        <time>2021-09-15T05:46:02.000Z</time>
      </trkpt>
      <trkpt lat="45.01562" lon="4.84057">
        <ele>115.648328</ele>
        <time>2021-09-15T05:46:09.000Z</time>
      </trkpt>
      <trkpt lat="45.0154" lon="4.8403">
        <ele>115.649357</ele>
        <time>2021-09-15T05:46:14.000Z</time>
      </trkpt>
      <trkpt lat="45.01535" lon="4.84024">
        <ele>115.649561</ele>
        <time>2021-09-15T05:46:15.000Z</time>
      </trkpt>
      <trkpt lat="45.01527" lon="4.84014">
        <ele>115.649951</ele>
        <time>2021-09-15T05:46:17.000Z</time>
      </trkpt>
      <trkpt lat="45.01519" lon="4.84003">
        <ele>115.650332</ele>
        <time>2021-09-15T05:46:19.000Z</time>
      </trkpt>
      <trkpt lat="45.01499" lon="4.83979">
        <ele>115.651255</ele>
        <time>2021-09-15T05:46:24.000Z</time>
      </trkpt>
      <trkpt lat="45.01494" lon="4.83974">
        <ele>115.651448</ele>
        <time>2021-09-15T05:46:25.000Z</time>
      </trkpt>
      <trkpt lat="45.01471" lon="4.83951">
        <ele>115.745262</ele>
        <time>2021-09-15T05:46:30.000Z</time>
      </trkpt>
      <trkpt lat="45.01466" lon="4.83946">
        <ele>115.771748</ele>
        <time>2021-09-15T05:46:31.000Z</time>
      </trkpt>
      <trkpt lat="45.01446" lon="4.83917">
        <ele>115.905038</ele>
        <time>2021-09-15T05:46:36.000Z</time>
      </trkpt>
      <trkpt lat="45.01415" lon="4.83862">
        <ele>116.130258</ele>
        <time>2021-09-15T05:46:44.000Z</time>
      </trkpt>
      <trkpt lat="45.01392" lon="4.83811">
        <ele>116.325036</ele>
        <time>2021-09-15T05:46:50.000Z</time>
      </trkpt>
      <trkpt lat="45.01381" lon="4.83781">
        <ele>116.434696</ele>
        <time>2021-09-15T05:46:55.000Z</time>
      </trkpt>
      <trkpt lat="45.01366" lon="4.83744">
        <ele>116.716983</ele>
        <time>2021-09-15T05:47:00.000Z</time>
      </trkpt>
      <trkpt lat="45.01363" lon="4.83736">
        <ele>116.784033</ele>
        <time>2021-09-15T05:47:01.000Z</time>
      </trkpt>
      <trkpt lat="45.01356" lon="4.83711">
        <ele>116.997449</ele>
        <time>2021-09-15T05:47:03.000Z</time>
      </trkpt>
      <trkpt lat="45.01357" lon="4.83695">
        <ele>117.128895</ele>
        <time>2021-09-15T05:47:05.000Z</time>
      </trkpt>
      <trkpt lat="45.01359" lon="4.83688">
        <ele>117.188071</ele>
        <time>2021-09-15T05:47:07.000Z</time>
      </trkpt>
      <trkpt lat="45.01362" lon="4.83667">
        <ele>117.353321</ele>
        <time>2021-09-15T05:47:09.000Z</time>
      </trkpt>
      <trkpt lat="45.01361" lon="4.8366">
        <ele>117.407586</ele>
        <time>2021-09-15T05:47:11.000Z</time>
      </trkpt>
      <trkpt lat="45.01358" lon="4.83656">
        <ele>117.456429</ele>
        <time>2021-09-15T05:47:12.000Z</time>
      </trkpt>
      <trkpt lat="45.01354" lon="4.83654">
        <ele>117.503709</ele>
        <time>2021-09-15T05:47:13.000Z</time>
      </trkpt>
      <trkpt lat="45.01346" lon="4.83655">
        <ele>117.587815</ele>
        <time>2021-09-15T05:47:15.000Z</time>
      </trkpt>
      <trkpt lat="45.01335" lon="4.8367">
        <ele>117.757731</ele>
        <time>2021-09-15T05:47:19.000Z</time>
      </trkpt>
      <trkpt lat="45.0133" lon="4.83691">
        <ele>117.937057</ele>
        <time>2021-09-15T05:47:23.000Z</time>
      </trkpt>
      <trkpt lat="45.01321" lon="4.83694">
        <ele>118.042224</ele>
        <time>2021-09-15T05:47:25.000Z</time>
      </trkpt>
      <trkpt lat="45.01321" lon="4.83693">
        <ele>118.044165</ele>
        <time>2021-09-15T05:47:26.000Z</time>
      </trkpt>
      <trkpt lat="45.01317" lon="4.8369">
        <ele>118.092253</ele>
        <time>2021-09-15T05:47:27.000Z</time>
      </trkpt>
      <trkpt lat="45.0131" lon="4.83683">
        <ele>118.188369</ele>
        <time>2021-09-15T05:47:30.000Z</time>
      </trkpt>
      <trkpt lat="45.01281" lon="4.83647">
        <ele>118.558134</ele>
        <time>2021-09-15T05:47:38.000Z</time>
      </trkpt>
      <trkpt lat="45.01266" lon="4.83628">
        <ele>118.678571</ele>
        <time>2021-09-15T05:47:42.000Z</time>
      </trkpt>
      <trkpt lat="45.0125" lon="4.83609">
        <ele>118.80443</ele>
        <time>2021-09-15T05:47:46.000Z</time>
      </trkpt>
      <trkpt lat="45.01223" lon="4.83589">
        <ele>118.980545</ele>
        <time>2021-09-15T05:47:51.000Z</time>
      </trkpt>
      <trkpt lat="45.01219" lon="4.83587">
        <ele>119.010493</ele>
        <time>2021-09-15T05:47:52.000Z</time>
      </trkpt>
      <trkpt lat="45.01209" lon="4.83584">
        <ele>119.070716</ele>
        <time>2021-09-15T05:47:55.000Z</time>
      </trkpt>
      <trkpt lat="45.01198" lon="4.83583">
        <ele>119.132328</ele>
        <time>2021-09-15T05:47:57.000Z</time>
      </trkpt>
      <trkpt lat="45.01172" lon="4.83593">
        <ele>119.293742</ele>
        <time>2021-09-15T05:48:01.000Z</time>
      </trkpt>
      <trkpt lat="45.01146" lon="4.83622">
        <ele>119.487699</ele>
        <time>2021-09-15T05:48:08.000Z</time>
      </trkpt>
      <trkpt lat="45.01126" lon="4.83659">
        <ele>119.762845</ele>
        <time>2021-09-15T05:48:15.000Z</time>
      </trkpt>
      <trkpt lat="45.01117" lon="4.83675">
        <ele>119.897333</ele>
        <time>2021-09-15T05:48:19.000Z</time>
      </trkpt>
      <trkpt lat="45.01112" lon="4.83686">
        <ele>119.986094</ele>
        <time>2021-09-15T05:48:22.000Z</time>
      </trkpt>
      <trkpt lat="45.0111" lon="4.83686">
        <ele>119.999359</ele>
        <time>2021-09-15T05:48:23.000Z</time>
      </trkpt>
      <trkpt lat="45.01102" lon="4.83685">
        <ele>120.079535</ele>
        <time>2021-09-15T05:48:27.000Z</time>
      </trkpt>
      <trkpt lat="45.01087" lon="4.83714">
        <ele>120.316339</ele>
        <time>2021-09-15T05:48:34.000Z</time>
      </trkpt>
      <trkpt lat="45.01074" lon="4.83741">
        <ele>120.536793</ele>
        <time>2021-09-15T05:48:41.000Z</time>
      </trkpt>
      <trkpt lat="45.01065" lon="4.83769">
        <ele>120.738584</ele>
        <time>2021-09-15T05:48:47.000Z</time>
      </trkpt>
      <trkpt lat="45.01058" lon="4.83805">
        <ele>120.990398</ele>
        <time>2021-09-15T05:48:55.000Z</time>
      </trkpt>
      <trkpt lat="45.01052" lon="4.83839">
        <ele>121.219904</ele>
        <time>2021-09-15T05:49:03.000Z</time>
      </trkpt>
      <trkpt lat="45.01046" lon="4.83874">
        <ele>121.448815</ele>
        <time>2021-09-15T05:49:10.000Z</time>
      </trkpt>
      <trkpt lat="45.01043" lon="4.83895">
        <ele>121.586228</ele>
        <time>2021-09-15T05:49:14.000Z</time>
      </trkpt>
      <trkpt lat="45.0104" lon="4.83912">
        <ele>121.699429</ele>
        <time>2021-09-15T05:49:17.000Z</time>
      </trkpt>
      <trkpt lat="45.01032" lon="4.83959">
        <ele>122.010264</ele>
        <time>2021-09-15T05:49:24.000Z</time>
      </trkpt>
      <trkpt lat="45.01025" lon="4.84003">
        <ele>122.298131</ele>
        <time>2021-09-15T05:49:32.000Z</time>
      </trkpt>
      <trkpt lat="45.01018" lon="4.84046">
        <ele>122.578755</ele>
        <time>2021-09-15T05:49:40.000Z</time>
      </trkpt>
      <trkpt lat="45.01012" lon="4.84085">
        <ele>122.831465</ele>
        <time>2021-09-15T05:49:47.000Z</time>
      </trkpt>
      <trkpt lat="45.0101" lon="4.84111">
        <ele>122.808185</ele>
        <time>2021-09-15T05:49:52.000Z</time>
      </trkpt>
      <trkpt lat="45.01011" lon="4.84122">
        <ele>122.76898</ele>
        <time>2021-09-15T05:49:54.000Z</time>
      </trkpt>
      <trkpt lat="45.01012" lon="4.84129">
        <ele>122.747749</ele>
        <time>2021-09-15T05:49:56.000Z</time>
      </trkpt>
      <trkpt lat="45.01017" lon="4.84141">
        <ele>122.700086</ele>
        <time>2021-09-15T05:49:58.000Z</time>
      </trkpt>
      <trkpt lat="45.01022" lon="4.84145">
        <ele>122.675619</ele>
        <time>2021-09-15T05:49:59.000Z</time>
      </trkpt>
      <trkpt lat="45.01027" lon="4.84148">
        <ele>122.650135</ele>
        <time>2021-09-15T05:50:00.000Z</time>
      </trkpt>
      <trkpt lat="45.01039" lon="4.8415">
        <ele>122.592748</ele>
        <time>2021-09-15T05:50:02.000Z</time>
      </trkpt>
      <trkpt lat="45.01052" lon="4.84152">
        <ele>122.532874</ele>
        <time>2021-09-15T05:50:03.000Z</time>
      </trkpt>
      <trkpt lat="45.01058" lon="4.84155">
        <ele>122.503761</ele>
        <time>2021-09-15T05:50:05.000Z</time>
      </trkpt>
      <trkpt lat="45.01066" lon="4.8417">
        <ele>122.442075</ele>
        <time>2021-09-15T05:50:07.000Z</time>
      </trkpt>
      <trkpt lat="45.01066" lon="4.842">
        <ele>122.34129</ele>
        <time>2021-09-15T05:50:09.000Z</time>
      </trkpt>
      <trkpt lat="45.01066" lon="4.842">
        <ele>122.34129</ele>
        <time>2021-09-15T05:50:10.000Z</time>
      </trkpt>
      <trkpt lat="45.01072" lon="4.84204">
        <ele>122.312572</ele>
        <time>2021-09-15T05:50:11.000Z</time>
      </trkpt>
      <trkpt lat="45.01078" lon="4.84203">
        <ele>122.282635</ele>
        <time>2021-09-15T05:50:12.000Z</time>
      </trkpt>
      <trkpt lat="45.01083" lon="4.84196">
        <ele>122.249751</ele>
        <time>2021-09-15T05:50:13.000Z</time>
      </trkpt>
      <trkpt lat="45.01105" lon="4.8419">
        <ele>122.148772</ele>
        <time>2021-09-15T05:50:16.000Z</time>
      </trkpt>
      <trkpt lat="45.01125" lon="4.84195">
        <ele>122.05193</ele>
        <time>2021-09-15T05:50:18.000Z</time>
      </trkpt>
      <trkpt lat="45.01138" lon="4.842">
        <ele>121.996914</ele>
        <time>2021-09-15T05:50:21.000Z</time>
      </trkpt>
      <trkpt lat="45.01157" lon="4.84208">
        <ele>121.922533</ele>
        <time>2021-09-15T05:50:24.000Z</time>
      </trkpt>
      <trkpt lat="45.01175" lon="4.84215">
        <ele>121.851255</ele>
        <time>2021-09-15T05:50:26.000Z</time>
      </trkpt>
      <trkpt lat="45.01214" lon="4.84239">
        <ele>121.688533</ele>
        <time>2021-09-15T05:50:33.000Z</time>
      </trkpt>
      <trkpt lat="45.01254" lon="4.84264">
        <ele>121.521205</ele>
        <time>2021-09-15T05:50:40.000Z</time>
      </trkpt>
      <trkpt lat="45.01272" lon="4.84273">
        <ele>121.447365</ele>
        <time>2021-09-15T05:50:44.000Z</time>
      </trkpt>
      <trkpt lat="45.01289" lon="4.84277">
        <ele>121.378082</ele>
        <time>2021-09-15T05:50:46.000Z</time>
      </trkpt>
      <trkpt lat="45.01313" lon="4.8427">
        <ele>121.314449</ele>
        <time>2021-09-15T05:50:51.000Z</time>
      </trkpt>
      <trkpt lat="45.01318" lon="4.84269">
        <ele>121.305128</ele>
        <time>2021-09-15T05:50:52.000Z</time>
      </trkpt>
      <trkpt lat="45.01325" lon="4.84274">
        <ele>121.288888</ele>
        <time>2021-09-15T05:50:53.000Z</time>
      </trkpt>
      <trkpt lat="45.01344" lon="4.84281">
        <ele>121.249093</ele>
        <time>2021-09-15T05:50:56.000Z</time>
      </trkpt>
      <trkpt lat="45.01351" lon="4.84281">
        <ele>121.235615</ele>
        <time>2021-09-15T05:50:57.000Z</time>
      </trkpt>
      <trkpt lat="45.01368" lon="4.84294">
        <ele>121.195242</ele>
        <time>2021-09-15T05:51:00.000Z</time>
      </trkpt>
      <trkpt lat="45.01393" lon="4.84318">
        <ele>121.135199</ele>
        <time>2021-09-15T05:51:05.000Z</time>
      </trkpt>
      <trkpt lat="45.01398" lon="4.84322">
        <ele>121.124536</ele>
        <time>2021-09-15T05:51:06.000Z</time>
      </trkpt>
      <trkpt lat="45.01418" lon="4.8434">
        <ele>121.076823</ele>
        <time>2021-09-15T05:51:11.000Z</time>
      </trkpt>
      <trkpt lat="45.01434" lon="4.84344">
        <ele>121.044357</ele>
        <time>2021-09-15T05:51:16.000Z</time>
      </trkpt>
      <trkpt lat="45.01457" lon="4.84368">
        <ele>120.98702</ele>
        <time>2021-09-15T05:51:23.000Z</time>
      </trkpt>
      <trkpt lat="45.01484" lon="4.84403">
        <ele>120.924436</ele>
        <time>2021-09-15T05:51:29.000Z</time>
      </trkpt>
      <trkpt lat="45.01488" lon="4.84408">
        <ele>120.915033</ele>
        <time>2021-09-15T05:51:31.000Z</time>
      </trkpt>
      <trkpt lat="45.01516" lon="4.84444">
        <ele>120.849795</ele>
        <time>2021-09-15T05:51:38.000Z</time>
      </trkpt>
      <trkpt lat="45.01545" lon="4.8448">
        <ele>120.783518</ele>
        <time>2021-09-15T05:51:45.000Z</time>
      </trkpt>
      <trkpt lat="45.01577" lon="4.84518">
        <ele>120.713301</ele>
        <time>2021-09-15T05:51:52.000Z</time>
      </trkpt>
      <trkpt lat="45.01606" lon="4.84546">
        <ele>120.69926</ele>
        <time>2021-09-15T05:51:58.000Z</time>
      </trkpt>
      <trkpt lat="45.01642" lon="4.84575">
        <ele>120.763605</ele>
        <time>2021-09-15T05:52:05.000Z</time>
      </trkpt>
      <trkpt lat="45.01687" lon="4.84605">
        <ele>120.839907</ele>
        <time>2021-09-15T05:52:13.000Z</time>
      </trkpt>
      <trkpt lat="45.01739" lon="4.84633">
        <ele>120.925873</ele>
        <time>2021-09-15T05:52:22.000Z</time>
      </trkpt>
      <trkpt lat="45.01745" lon="4.84636">
        <ele>120.93538</ele>
        <time>2021-09-15T05:52:23.000Z</time>
      </trkpt>
      <trkpt lat="45.01798" lon="4.84662">
        <ele>120.985693</ele>
        <time>2021-09-15T05:52:32.000Z</time>
      </trkpt>
      <trkpt lat="45.01804" lon="4.84665">
        <ele>120.990263</ele>
        <time>2021-09-15T05:52:33.000Z</time>
      </trkpt>
      <trkpt lat="45.01844" lon="4.84685">
        <ele>121.020775</ele>
        <time>2021-09-15T05:52:40.000Z</time>
      </trkpt>
      <trkpt lat="45.01849" lon="4.84688">
        <ele>121.024994</ele>
        <time>2021-09-15T05:52:41.000Z</time>
      </trkpt>
      <trkpt lat="45.01854" lon="4.84691">
        <ele>121.029254</ele>
        <time>2021-09-15T05:52:42.000Z</time>
      </trkpt>
      <trkpt lat="45.01864" lon="4.847">
        <ele>121.037383</ele>
        <time>2021-09-15T05:52:44.000Z</time>
      </trkpt>
      <trkpt lat="45.01872" lon="4.84714">
        <ele>121.046451</ele>
        <time>2021-09-15T05:52:46.000Z</time>
      </trkpt>
      <trkpt lat="45.01867" lon="4.84732">
        <ele>121.056636</ele>
        <time>2021-09-15T05:52:48.000Z</time>
      </trkpt>
      <trkpt lat="45.01871" lon="4.84749">
        <ele>121.065755</ele>
        <time>2021-09-15T05:52:50.000Z</time>
      </trkpt>
      <trkpt lat="45.01863" lon="4.84772">
        <ele>121.078554</ele>
        <time>2021-09-15T05:52:52.000Z</time>
      </trkpt>
      <trkpt lat="45.01838" lon="4.84824">
        <ele>121.0944</ele>
        <time>2021-09-15T05:52:59.000Z</time>
      </trkpt>
      <trkpt lat="45.01805" lon="4.84877">
        <ele>121.108822</ele>
        <time>2021-09-15T05:53:08.000Z</time>
      </trkpt>
      <trkpt lat="45.01766" lon="4.84935">
        <ele>121.125004</ele>
        <time>2021-09-15T05:53:16.000Z</time>
      </trkpt>
      <trkpt lat="45.01731" lon="4.84985">
        <ele>121.113263</ele>
        <time>2021-09-15T05:53:24.000Z</time>
      </trkpt>
      <trkpt lat="45.01697" lon="4.85024">
        <ele>121.04162</ele>
        <time>2021-09-15T05:53:31.000Z</time>
      </trkpt>
      <trkpt lat="45.01659" lon="4.85067">
        <ele>120.961198</ele>
        <time>2021-09-15T05:53:39.000Z</time>
      </trkpt>
      <trkpt lat="45.01633" lon="4.85096">
        <ele>120.906202</ele>
        <time>2021-09-15T05:53:46.000Z</time>
      </trkpt>
      <trkpt lat="45.01597" lon="4.8513">
        <ele>120.839121</ele>
        <time>2021-09-15T05:53:52.000Z</time>
      </trkpt>
      <trkpt lat="45.01551" lon="4.85174">
        <ele>120.844154</ele>
        <time>2021-09-15T05:54:01.000Z</time>
      </trkpt>
      <trkpt lat="45.01509" lon="4.85212">
        <ele>120.848608</ele>
        <time>2021-09-15T05:54:09.000Z</time>
      </trkpt>
      <trkpt lat="45.01466" lon="4.85247">
        <ele>120.853018</ele>
        <time>2021-09-15T05:54:17.000Z</time>
      </trkpt>
      <trkpt lat="45.01447" lon="4.85263">
        <ele>120.855068</ele>
        <time>2021-09-15T05:54:21.000Z</time>
      </trkpt>
      <trkpt lat="45.01443" lon="4.85266">
        <ele>120.933955</ele>
        <time>2021-09-15T05:54:22.000Z</time>
      </trkpt>
      <trkpt lat="45.01437" lon="4.85262">
        <ele>121.056526</ele>
        <time>2021-09-15T05:54:23.000Z</time>
      </trkpt>
      <trkpt lat="45.01433" lon="4.85248">
        <ele>121.271212</ele>
        <time>2021-09-15T05:54:25.000Z</time>
      </trkpt>
      <trkpt lat="45.01427" lon="4.85234">
        <ele>121.490191</ele>
        <time>2021-09-15T05:54:27.000Z</time>
      </trkpt>
      <trkpt lat="45.01421" lon="4.85216">
        <ele>121.778699</ele>
        <time>2021-09-15T05:54:30.000Z</time>
      </trkpt>
      <trkpt lat="45.01409" lon="4.85191">
        <ele>122.203504</ele>
        <time>2021-09-15T05:54:35.000Z</time>
      </trkpt>
      <trkpt lat="45.01406" lon="4.85185">
        <ele>122.303985</ele>
        <time>2021-09-15T05:54:37.000Z</time>
      </trkpt>
      <trkpt lat="45.01403" lon="4.85178">
        <ele>122.415891</ele>
        <time>2021-09-15T05:54:39.000Z</time>
      </trkpt>
      <trkpt lat="45.01397" lon="4.85166">
        <ele>122.629429</ele>
        <time>2021-09-15T05:54:42.000Z</time>
      </trkpt>
      <trkpt lat="45.01394" lon="4.85161">
        <ele>122.711673</ele>
        <time>2021-09-15T05:54:43.000Z</time>
      </trkpt>
      <trkpt lat="45.01387" lon="4.85145">
        <ele>122.967586</ele>
        <time>2021-09-15T05:54:47.000Z</time>
      </trkpt>
      <trkpt lat="45.0138" lon="4.8513">
        <ele>123.220076</ele>
        <time>2021-09-15T05:54:49.000Z</time>
      </trkpt>
      <trkpt lat="45.01367" lon="4.85102">
        <ele>123.691909</ele>
        <time>2021-09-15T05:54:55.000Z</time>
      </trkpt>
      <trkpt lat="45.01356" lon="4.85095">
        <ele>123.934101</ele>
        <time>2021-09-15T05:54:59.000Z</time>
      </trkpt>
      <trkpt lat="45.01353" lon="4.85096">
        <ele>123.995401</ele>
        <time>2021-09-15T05:55:02.000Z</time>
      </trkpt>
      <trkpt lat="45.01351" lon="4.85097">
        <ele>124.038418</ele>
        <time>2021-09-15T05:55:03.000Z</time>
      </trkpt>
      <trkpt lat="45.01347" lon="4.85108">
        <ele>124.208331</ele>
        <time>2021-09-15T05:55:05.000Z</time>
      </trkpt>
      <trkpt lat="45.01356" lon="4.85111">
        <ele>124.409695</ele>
        <time>2021-09-15T05:55:07.000Z</time>
      </trkpt>
      <trkpt lat="45.01368" lon="4.85143">
        <ele>124.798258</ele>
        <time>2021-09-15T05:55:14.000Z</time>
      </trkpt>
      <trkpt lat="45.01384" lon="4.85184">
        <ele>125.296151</ele>
        <time>2021-09-15T05:55:24.000Z</time>
      </trkpt>
      <trkpt lat="45.01392" lon="4.85206">
        <ele>125.562368</ele>
        <time>2021-09-15T05:55:30.000Z</time>
      </trkpt>
      <trkpt lat="45.01402" lon="4.85231">
        <ele>125.86811</ele>
        <time>2021-09-15T05:55:37.000Z</time>
      </trkpt>
      <trkpt lat="45.01412" lon="4.85258">
        <ele>126.197747</ele>
        <time>2021-09-15T05:55:45.000Z</time>
      </trkpt>
      <trkpt lat="45.01427" lon="4.85296">
        <ele>126.660886</ele>
        <time>2021-09-15T05:55:53.000Z</time>
      </trkpt>
      <trkpt lat="45.0144" lon="4.85328">
        <ele>127.053307</ele>
        <time>2021-09-15T05:56:00.000Z</time>
      </trkpt>
      <trkpt lat="45.01457" lon="4.85374">
        <ele>127.222093</ele>
        <time>2021-09-15T05:56:09.000Z</time>
      </trkpt>
      <trkpt lat="45.01478" lon="4.85426">
        <ele>127.335988</ele>
        <time>2021-09-15T05:56:18.000Z</time>
      </trkpt>
      <trkpt lat="45.01504" lon="4.85493">
        <ele>127.478201</ele>
        <time>2021-09-15T05:56:28.000Z</time>
      </trkpt>
      <trkpt lat="45.01506" lon="4.855">
        <ele>127.49319</ele>
        <time>2021-09-15T05:56:29.000Z</time>
      </trkpt>
      <trkpt lat="45.01508" lon="4.85526">
        <ele>127.543451</ele>
        <time>2021-09-15T05:56:32.000Z</time>
      </trkpt>
      <trkpt lat="45.01517" lon="4.85563">
        <ele>127.617481</ele>
        <time>2021-09-15T05:56:37.000Z</time>
      </trkpt>
      <trkpt lat="45.01512" lon="4.85557">
        <ele>127.553926</ele>
        <time>2021-09-15T05:56:39.000Z</time>
      </trkpt>
      <trkpt lat="45.01505" lon="4.85544">
        <ele>127.435139</ele>
        <time>2021-09-15T05:56:42.000Z</time>
      </trkpt>
      <trkpt lat="45.01502" lon="4.85538">
        <ele>127.377439</ele>
        <time>2021-09-15T05:56:43.000Z</time>
      </trkpt>
      <trkpt lat="45.01498" lon="4.85532">
        <ele>127.317796</ele>
        <time>2021-09-15T05:56:44.000Z</time>
      </trkpt>
      <trkpt lat="45.01493" lon="4.85517">
        <ele>127.188099</ele>
        <time>2021-09-15T05:56:46.000Z</time>
      </trkpt>
      <trkpt lat="45.01488" lon="4.85499">
        <ele>127.049862</ele>
        <time>2021-09-15T05:56:48.000Z</time>
      </trkpt>
      <trkpt lat="45.01484" lon="4.85491">
        <ele>126.972509</ele>
        <time>2021-09-15T05:56:49.000Z</time>
      </trkpt>
      <trkpt lat="45.01479" lon="4.85482">
        <ele>126.891474</ele>
        <time>2021-09-15T05:56:50.000Z</time>
      </trkpt>
      <trkpt lat="45.01465" lon="4.85471">
        <ele>126.720244</ele>
        <time>2021-09-15T05:56:52.000Z</time>
      </trkpt>
      <trkpt lat="45.01452" lon="4.8548">
        <ele>126.563436</ele>
        <time>2021-09-15T05:56:54.000Z</time>
      </trkpt>
      <trkpt lat="45.01415" lon="4.85507">
        <ele>126.11769</ele>
        <time>2021-09-15T05:57:00.000Z</time>
      </trkpt>
      <trkpt lat="45.01372" lon="4.85537">
        <ele>125.645135</ele>
        <time>2021-09-15T05:57:07.000Z</time>
      </trkpt>
      <trkpt lat="45.01329" lon="4.85564">
        <ele>125.322273</ele>
        <time>2021-09-15T05:57:14.000Z</time>
      </trkpt>
      <trkpt lat="45.01274" lon="4.85596">
        <ele>124.910639</ele>
        <time>2021-09-15T05:57:23.000Z</time>
      </trkpt>
      <trkpt lat="45.01267" lon="4.856">
        <ele>124.863788</ele>
        <time>2021-09-15T05:57:24.000Z</time>
      </trkpt>
      <trkpt lat="45.01213" lon="4.85632">
        <ele>124.461489</ele>
        <time>2021-09-15T05:57:33.000Z</time>
      </trkpt>
      <trkpt lat="45.01164" lon="4.8566">
        <ele>124.204344</ele>
        <time>2021-09-15T05:57:41.000Z</time>
      </trkpt>
      <trkpt lat="45.0111" lon="4.85691">
        <ele>123.923187</ele>
        <time>2021-09-15T05:57:50.000Z</time>
      </trkpt>
      <trkpt lat="45.01098" lon="4.85698">
        <ele>123.862</ele>
        <time>2021-09-15T05:57:52.000Z</time>
      </trkpt>
      <trkpt lat="45.01044" lon="4.85728">
        <ele>123.590305</ele>
        <time>2021-09-15T05:58:01.000Z</time>
      </trkpt>
      <trkpt lat="45.01038" lon="4.85731">
        <ele>123.574379</ele>
        <time>2021-09-15T05:58:02.000Z</time>
      </trkpt>
      <trkpt lat="45.00985" lon="4.85762">
        <ele>123.43332</ele>
        <time>2021-09-15T05:58:11.000Z</time>
      </trkpt>
      <trkpt lat="45.00979" lon="4.85765">
        <ele>123.418271</ele>
        <time>2021-09-15T05:58:12.000Z</time>
      </trkpt>
      <trkpt lat="45.00933" lon="4.85791">
        <ele>123.296714</ele>
        <time>2021-09-15T05:58:20.000Z</time>
      </trkpt>
      <trkpt lat="45.00891" lon="4.85815">
        <ele>123.184419</ele>
        <time>2021-09-15T05:58:27.000Z</time>
      </trkpt>
      <trkpt lat="45.00836" lon="4.85846">
        <ele>123.000705</ele>
        <time>2021-09-15T05:58:36.000Z</time>
      </trkpt>
      <trkpt lat="45.0083" lon="4.85849">
        <ele>122.979341</ele>
        <time>2021-09-15T05:58:37.000Z</time>
      </trkpt>
      <trkpt lat="45.0078" lon="4.85877">
        <ele>122.806013</ele>
        <time>2021-09-15T05:58:45.000Z</time>
      </trkpt>
      <trkpt lat="45.00725" lon="4.85908">
        <ele>122.612143</ele>
        <time>2021-09-15T05:58:54.000Z</time>
      </trkpt>
      <trkpt lat="45.00719" lon="4.85912">
        <ele>122.590778</ele>
        <time>2021-09-15T05:58:55.000Z</time>
      </trkpt>
      <trkpt lat="45.00665" lon="4.85943">
        <ele>122.246453</ele>
        <time>2021-09-15T05:59:04.000Z</time>
      </trkpt>
      <trkpt lat="45.00653" lon="4.8595">
        <ele>122.164492</ele>
        <time>2021-09-15T05:59:06.000Z</time>
      </trkpt>
      <trkpt lat="45.00597" lon="4.85981">
        <ele>121.794807</ele>
        <time>2021-09-15T05:59:15.000Z</time>
      </trkpt>
      <trkpt lat="45.00542" lon="4.86013">
        <ele>121.429186</ele>
        <time>2021-09-15T05:59:24.000Z</time>
      </trkpt>
      <trkpt lat="45.00535" lon="4.86016">
        <ele>121.3927</ele>
        <time>2021-09-15T05:59:25.000Z</time>
      </trkpt>
      <trkpt lat="45.0048" lon="4.86048">
        <ele>121.065198</ele>
        <time>2021-09-15T05:59:34.000Z</time>
      </trkpt>
      <trkpt lat="45.00425" lon="4.86079">
        <ele>120.742472</ele>
        <time>2021-09-15T05:59:43.000Z</time>
      </trkpt>
      <trkpt lat="45.00419" lon="4.86082">
        <ele>120.707145</ele>
        <time>2021-09-15T05:59:44.000Z</time>
      </trkpt>
      <trkpt lat="45.00366" lon="4.86113">
        <ele>120.429695</ele>
        <time>2021-09-15T05:59:53.000Z</time>
      </trkpt>
      <trkpt lat="45.00319" lon="4.86139">
        <ele>120.276678</ele>
        <time>2021-09-15T06:00:01.000Z</time>
      </trkpt>
      <trkpt lat="45.0027" lon="4.86167">
        <ele>120.116476</ele>
        <time>2021-09-15T06:00:09.000Z</time>
      </trkpt>
      <trkpt lat="45.00216" lon="4.86198">
        <ele>119.9386</ele>
        <time>2021-09-15T06:00:18.000Z</time>
      </trkpt>
      <trkpt lat="45.0021" lon="4.86201">
        <ele>119.923334</ele>
        <time>2021-09-15T06:00:19.000Z</time>
      </trkpt>
      <trkpt lat="45.00155" lon="4.86232">
        <ele>119.821383</ele>
        <time>2021-09-15T06:00:28.000Z</time>
      </trkpt>
      <trkpt lat="45.00101" lon="4.86263">
        <ele>119.719799</ele>
        <time>2021-09-15T06:00:37.000Z</time>
      </trkpt>
      <trkpt lat="45.00077" lon="4.86277">
        <ele>119.674424</ele>
        <time>2021-09-15T06:00:41.000Z</time>
      </trkpt>
      <trkpt lat="45.00022" lon="4.86308">
        <ele>119.579301</ele>
        <time>2021-09-15T06:00:50.000Z</time>
      </trkpt>
      <trkpt lat="44.99968" lon="4.86338">
        <ele>119.494669</ele>
        <time>2021-09-15T06:00:59.000Z</time>
      </trkpt>
      <trkpt lat="44.99962" lon="4.86342">
        <ele>119.485201</ele>
        <time>2021-09-15T06:01:00.000Z</time>
      </trkpt>
      <trkpt lat="44.99908" lon="4.86372">
        <ele>119.399851</ele>
        <time>2021-09-15T06:01:09.000Z</time>
      </trkpt>
      <trkpt lat="44.99862" lon="4.86398">
        <ele>119.384931</ele>
        <time>2021-09-15T06:01:17.000Z</time>
      </trkpt>
      <trkpt lat="44.99809" lon="4.86426">
        <ele>119.481194</ele>
        <time>2021-09-15T06:01:26.000Z</time>
      </trkpt>
      <trkpt lat="44.99803" lon="4.86429">
        <ele>119.492237</ele>
        <time>2021-09-15T06:01:27.000Z</time>
      </trkpt>
      <trkpt lat="44.9975" lon="4.86459">
        <ele>119.588404</ele>
        <time>2021-09-15T06:01:36.000Z</time>
      </trkpt>
      <trkpt lat="44.99738" lon="4.86466">
        <ele>119.609545</ele>
        <time>2021-09-15T06:01:38.000Z</time>
      </trkpt>
      <trkpt lat="44.99692" lon="4.86492">
        <ele>119.709111</ele>
        <time>2021-09-15T06:01:46.000Z</time>
      </trkpt>
      <trkpt lat="44.9964" lon="4.86522">
        <ele>119.848031</ele>
        <time>2021-09-15T06:01:55.000Z</time>
      </trkpt>
      <trkpt lat="44.99629" lon="4.86528">
        <ele>119.878228</ele>
        <time>2021-09-15T06:01:57.000Z</time>
      </trkpt>
      <trkpt lat="44.99577" lon="4.86557">
        <ele>120.01617</ele>
        <time>2021-09-15T06:02:06.000Z</time>
      </trkpt>
      <trkpt lat="44.99565" lon="4.86564">
        <ele>120.046204</ele>
        <time>2021-09-15T06:02:08.000Z</time>
      </trkpt>
      <trkpt lat="44.99554" lon="4.86571">
        <ele>120.07751</ele>
        <time>2021-09-15T06:02:10.000Z</time>
      </trkpt>
      <trkpt lat="44.9953" lon="4.86584">
        <ele>120.120676</ele>
        <time>2021-09-15T06:02:14.000Z</time>
      </trkpt>
      <trkpt lat="44.99478" lon="4.86614">
        <ele>120.19052</ele>
        <time>2021-09-15T06:02:23.000Z</time>
      </trkpt>
      <trkpt lat="44.99466" lon="4.86621">
        <ele>120.206108</ele>
        <time>2021-09-15T06:02:25.000Z</time>
      </trkpt>
      <trkpt lat="44.9942" lon="4.86647">
        <ele>120.266743</ele>
        <time>2021-09-15T06:02:33.000Z</time>
      </trkpt>
      <trkpt lat="44.99374" lon="4.86674">
        <ele>120.324847</ele>
        <time>2021-09-15T06:02:41.000Z</time>
      </trkpt>
      <trkpt lat="44.99329" lon="4.867">
        <ele>120.345946</ele>
        <time>2021-09-15T06:02:49.000Z</time>
      </trkpt>
      <trkpt lat="44.99291" lon="4.86719">
        <ele>120.363193</ele>
        <time>2021-09-15T06:02:56.000Z</time>
      </trkpt>
      <trkpt lat="44.99286" lon="4.86721">
        <ele>120.36531</ele>
        <time>2021-09-15T06:02:57.000Z</time>
      </trkpt>
      <trkpt lat="44.99282" lon="4.86735">
        <ele>120.369815</ele>
        <time>2021-09-15T06:02:59.000Z</time>
      </trkpt>
      <trkpt lat="44.9929" lon="4.86743">
        <ele>120.37411</ele>
        <time>2021-09-15T06:03:01.000Z</time>
      </trkpt>
      <trkpt lat="44.99294" lon="4.86747">
        <ele>120.37609</ele>
        <time>2021-09-15T06:03:02.000Z</time>
      </trkpt>
      <trkpt lat="44.99316" lon="4.86758">
        <ele>120.385787</ele>
        <time>2021-09-15T06:03:06.000Z</time>
      </trkpt>
      <trkpt lat="44.99362" lon="4.86784">
        <ele>120.44978</ele>
        <time>2021-09-15T06:03:15.000Z</time>
      </trkpt>
      <trkpt lat="44.99396" lon="4.86803">
        <ele>120.557445</ele>
        <time>2021-09-15T06:03:22.000Z</time>
      </trkpt>
      <trkpt lat="44.9943" lon="4.86824">
        <ele>120.667093</ele>
        <time>2021-09-15T06:03:29.000Z</time>
      </trkpt>
      <trkpt lat="44.99444" lon="4.86834">
        <ele>120.714402</ele>
        <time>2021-09-15T06:03:32.000Z</time>
      </trkpt>
      <trkpt lat="44.99464" lon="4.8685">
        <ele>120.780876</ele>
        <time>2021-09-15T06:03:36.000Z</time>
      </trkpt>
      <trkpt lat="44.99494" lon="4.86873">
        <ele>120.883193</ele>
        <time>2021-09-15T06:03:42.000Z</time>
      </trkpt>
      <trkpt lat="44.9952" lon="4.8689">
        <ele>121.046705</ele>
        <time>2021-09-15T06:03:48.000Z</time>
      </trkpt>
      <trkpt lat="44.99519" lon="4.86901">
        <ele>121.117387</ele>
        <time>2021-09-15T06:03:51.000Z</time>
      </trkpt>
      <trkpt lat="44.99507" lon="4.86925">
        <ele>121.320915</ele>
        <time>2021-09-15T06:03:58.000Z</time>
      </trkpt>
      <trkpt lat="44.99496" lon="4.86947">
        <ele>121.500112</ele>
        <time>2021-09-15T06:04:04.000Z</time>
      </trkpt>
      <trkpt lat="44.99483" lon="4.86975">
        <ele>121.729084</ele>
        <time>2021-09-15T06:04:11.000Z</time>
      </trkpt>
      <trkpt lat="44.9947" lon="4.87001">
        <ele>121.944783</ele>
        <time>2021-09-15T06:04:17.000Z</time>
      </trkpt>
      <trkpt lat="44.99454" lon="4.87033">
        <ele>122.210257</ele>
        <time>2021-09-15T06:04:23.000Z</time>
      </trkpt>
      <trkpt lat="44.99446" lon="4.87048">
        <ele>122.333592</ele>
        <time>2021-09-15T06:04:26.000Z</time>
      </trkpt>
      <trkpt lat="44.99438" lon="4.87065">
        <ele>122.471311</ele>
        <time>2021-09-15T06:04:29.000Z</time>
      </trkpt>
      <trkpt lat="44.99421" lon="4.871">
        <ele>122.649348</ele>
        <time>2021-09-15T06:04:36.000Z</time>
      </trkpt>
      <trkpt lat="44.99416" lon="4.87111">
        <ele>122.643777</ele>
        <time>2021-09-15T06:04:38.000Z</time>
      </trkpt>
      <trkpt lat="44.994" lon="4.87104">
        <ele>122.633803</ele>
        <time>2021-09-15T06:04:40.000Z</time>
      </trkpt>
      <trkpt lat="44.994" lon="4.87105">
        <ele>122.633496</ele>
        <time>2021-09-15T06:04:41.000Z</time>
      </trkpt>
      <trkpt lat="44.99389" lon="4.87095">
        <ele>122.625336</ele>
        <time>2021-09-15T06:04:43.000Z</time>
      </trkpt>
      <trkpt lat="44.99383" lon="4.87091">
        <ele>122.620953</ele>
        <time>2021-09-15T06:04:44.000Z</time>
      </trkpt>
      <trkpt lat="44.99336" lon="4.87072">
        <ele>122.590812</ele>
        <time>2021-09-15T06:04:51.000Z</time>
      </trkpt>
      <trkpt lat="44.99282" lon="4.87057">
        <ele>122.556864</ele>
        <time>2021-09-15T06:04:59.000Z</time>
      </trkpt>
      <trkpt lat="44.99276" lon="4.87055">
        <ele>122.552802</ele>
        <time>2021-09-15T06:05:00.000Z</time>
      </trkpt>
      <trkpt lat="44.99224" lon="4.87035">
        <ele>122.330551</ele>
        <time>2021-09-15T06:05:08.000Z</time>
      </trkpt>
      <trkpt lat="44.99168" lon="4.87014">
        <ele>122.025526</ele>
        <time>2021-09-15T06:05:17.000Z</time>
      </trkpt>
      <trkpt lat="44.99114" lon="4.86988">
        <ele>121.722064</ele>
        <time>2021-09-15T06:05:26.000Z</time>
      </trkpt>
      <trkpt lat="44.99068" lon="4.86962">
        <ele>121.530075</ele>
        <time>2021-09-15T06:05:34.000Z</time>
      </trkpt>
      <trkpt lat="44.99029" lon="4.86932">
        <ele>121.41145</ele>
        <time>2021-09-15T06:05:41.000Z</time>
      </trkpt>
      <trkpt lat="44.9899" lon="4.86887">
        <ele>121.273975</ele>
        <time>2021-09-15T06:05:49.000Z</time>
      </trkpt>
      <trkpt lat="44.98954" lon="4.86849">
        <ele>121.154433</ele>
        <time>2021-09-15T06:05:56.000Z</time>
      </trkpt>
      <trkpt lat="44.98902" lon="4.86818">
        <ele>121.022635</ele>
        <time>2021-09-15T06:06:05.000Z</time>
      </trkpt>
      <trkpt lat="44.98896" lon="4.86814">
        <ele>121.008258</ele>
        <time>2021-09-15T06:06:06.000Z</time>
      </trkpt>
      <trkpt lat="44.98855" lon="4.86791">
        <ele>120.911586</ele>
        <time>2021-09-15T06:06:13.000Z</time>
      </trkpt>
      <trkpt lat="44.98809" lon="4.86765">
        <ele>120.801934</ele>
        <time>2021-09-15T06:06:21.000Z</time>
      </trkpt>
      <trkpt lat="44.98757" lon="4.86737">
        <ele>120.708295</ele>
        <time>2021-09-15T06:06:30.000Z</time>
      </trkpt>
      <trkpt lat="44.9874" lon="4.86727">
        <ele>120.69571</ele>
        <time>2021-09-15T06:06:33.000Z</time>
      </trkpt>
      <trkpt lat="44.9869" lon="4.86689">
        <ele>120.658174</ele>
        <time>2021-09-15T06:06:42.000Z</time>
      </trkpt>
      <trkpt lat="44.98647" lon="4.86654">
        <ele>120.624861</ele>
        <time>2021-09-15T06:06:50.000Z</time>
      </trkpt>
      <trkpt lat="44.98603" lon="4.86605">
        <ele>120.608607</ele>
        <time>2021-09-15T06:06:59.000Z</time>
      </trkpt>
      <trkpt lat="44.98593" lon="4.86594">
        <ele>120.614196</ele>
        <time>2021-09-15T06:07:01.000Z</time>
      </trkpt>
      <trkpt lat="44.98553" lon="4.86541">
        <ele>120.638917</ele>
        <time>2021-09-15T06:07:10.000Z</time>
      </trkpt>
      <trkpt lat="44.98515" lon="4.86485">
        <ele>120.663443</ele>
        <time>2021-09-15T06:07:19.000Z</time>
      </trkpt>
      <trkpt lat="44.98477" lon="4.86426">
        <ele>120.698644</ele>
        <time>2021-09-15T06:07:28.000Z</time>
      </trkpt>
      <trkpt lat="44.98473" lon="4.86419">
        <ele>120.704831</ele>
        <time>2021-09-15T06:07:29.000Z</time>
      </trkpt>
      <trkpt lat="44.98445" lon="4.86363">
        <ele>120.753863</ele>
        <time>2021-09-15T06:07:37.000Z</time>
      </trkpt>
      <trkpt lat="44.98412" lon="4.86299">
        <ele>120.809545</ele>
        <time>2021-09-15T06:07:46.000Z</time>
      </trkpt>
      <trkpt lat="44.9838" lon="4.86235">
        <ele>120.870311</ele>
        <time>2021-09-15T06:07:55.000Z</time>
      </trkpt>
      <trkpt lat="44.98346" lon="4.86163">
        <ele>120.99029</ele>
        <time>2021-09-15T06:08:04.000Z</time>
      </trkpt>
      <trkpt lat="44.98317" lon="4.86097">
        <ele>121.098723</ele>
        <time>2021-09-15T06:08:14.000Z</time>
      </trkpt>
      <trkpt lat="44.98284" lon="4.86035">
        <ele>121.207088</ele>
        <time>2021-09-15T06:08:23.000Z</time>
      </trkpt>
      <trkpt lat="44.98279" lon="4.86029">
        <ele>121.219687</ele>
        <time>2021-09-15T06:08:24.000Z</time>
      </trkpt>
      <trkpt lat="44.98239" lon="4.85977">
        <ele>121.33557</ele>
        <time>2021-09-15T06:08:33.000Z</time>
      </trkpt>
      <trkpt lat="44.98199" lon="4.85938">
        <ele>121.437997</ele>
        <time>2021-09-15T06:08:41.000Z</time>
      </trkpt>
      <trkpt lat="44.98157" lon="4.85903">
        <ele>121.541646</ele>
        <time>2021-09-15T06:08:49.000Z</time>
      </trkpt>
      <trkpt lat="44.98119" lon="4.8588">
        <ele>121.58488</ele>
        <time>2021-09-15T06:08:56.000Z</time>
      </trkpt>
      <trkpt lat="44.98074" lon="4.85857">
        <ele>121.547025</ele>
        <time>2021-09-15T06:09:04.000Z</time>
      </trkpt>
      <trkpt lat="44.98017" lon="4.85843">
        <ele>121.502091</ele>
        <time>2021-09-15T06:09:12.000Z</time>
      </trkpt>
      <trkpt lat="44.9798" lon="4.85836">
        <ele>121.47204</ele>
        <time>2021-09-15T06:09:18.000Z</time>
      </trkpt>
      <trkpt lat="44.97973" lon="4.85835">
        <ele>121.467018</ele>
        <time>2021-09-15T06:09:19.000Z</time>
      </trkpt>
      <trkpt lat="44.97923" lon="4.85836">
        <ele>121.433173</ele>
        <time>2021-09-15T06:09:27.000Z</time>
      </trkpt>
      <trkpt lat="44.97878" lon="4.85836">
        <ele>121.405775</ele>
        <time>2021-09-15T06:09:34.000Z</time>
      </trkpt>
      <trkpt lat="44.9782" lon="4.85842">
        <ele>121.369949</ele>
        <time>2021-09-15T06:09:43.000Z</time>
      </trkpt>
      <trkpt lat="44.97777" lon="4.85848">
        <ele>121.345903</ele>
        <time>2021-09-15T06:09:51.000Z</time>
      </trkpt>
      <trkpt lat="44.97722" lon="4.85863">
        <ele>121.388879</ele>
        <time>2021-09-15T06:09:59.000Z</time>
      </trkpt>
      <trkpt lat="44.97665" lon="4.8588">
        <ele>121.433155</ele>
        <time>2021-09-15T06:10:08.000Z</time>
      </trkpt>
      <trkpt lat="44.97616" lon="4.85902">
        <ele>121.472181</ele>
        <time>2021-09-15T06:10:16.000Z</time>
      </trkpt>
      <trkpt lat="44.97561" lon="4.85928">
        <ele>121.537621</ele>
        <time>2021-09-15T06:10:25.000Z</time>
      </trkpt>
      <trkpt lat="44.97556" lon="4.85932">
        <ele>121.545079</ele>
        <time>2021-09-15T06:10:26.000Z</time>
      </trkpt>
      <trkpt lat="44.97517" lon="4.85956">
        <ele>121.597057</ele>
        <time>2021-09-15T06:10:34.000Z</time>
      </trkpt>
      <trkpt lat="44.97479" lon="4.85981">
        <ele>121.649446</ele>
        <time>2021-09-15T06:10:41.000Z</time>
      </trkpt>
      <trkpt lat="44.97434" lon="4.86009">
        <ele>121.707491</ele>
        <time>2021-09-15T06:10:48.000Z</time>
      </trkpt>
      <trkpt lat="44.97401" lon="4.86031">
        <ele>121.73576</ele>
        <time>2021-09-15T06:10:55.000Z</time>
      </trkpt>
      <trkpt lat="44.97403" lon="4.86043">
        <ele>121.742766</ele>
        <time>2021-09-15T06:10:57.000Z</time>
      </trkpt>
      <trkpt lat="44.97412" lon="4.86075">
        <ele>121.761509</ele>
        <time>2021-09-15T06:11:02.000Z</time>
      </trkpt>
      <trkpt lat="44.97426" lon="4.86128">
        <ele>121.792406</ele>
        <time>2021-09-15T06:11:10.000Z</time>
      </trkpt>
      <trkpt lat="44.97429" lon="4.8615">
        <ele>121.804755</ele>
        <time>2021-09-15T06:11:13.000Z</time>
      </trkpt>
      <trkpt lat="44.97428" lon="4.86158">
        <ele>121.809341</ele>
        <time>2021-09-15T06:11:14.000Z</time>
      </trkpt>
      <trkpt lat="44.97412" lon="4.86172">
        <ele>121.82328</ele>
        <time>2021-09-15T06:11:17.000Z</time>
      </trkpt>
      <trkpt lat="44.97402" lon="4.86181">
        <ele>121.832725</ele>
        <time>2021-09-15T06:11:20.000Z</time>
      </trkpt>
      <trkpt lat="44.97389" lon="4.86198">
        <ele>121.825853</ele>
        <time>2021-09-15T06:11:23.000Z</time>
      </trkpt>
      <trkpt lat="44.94484" lon="4.88868">
        <ele>113.239548</ele>
        <time>2021-09-15T06:24:55.000Z</time>
      </trkpt>
      <trkpt lat="44.94465" lon="4.88899">
        <ele>113.586168</ele>
        <time>2021-09-15T06:25:03.000Z</time>
      </trkpt>
      <trkpt lat="44.94449" lon="4.88922">
        <ele>113.8526</ele>
        <time>2021-09-15T06:25:09.000Z</time>
      </trkpt>
      <trkpt lat="44.94445" lon="4.88927">
        <ele>113.909851</ele>
        <time>2021-09-15T06:25:10.000Z</time>
      </trkpt>
      <trkpt lat="44.94433" lon="4.88975">
        <ele>114.333296</ele>
        <time>2021-09-15T06:25:18.000Z</time>
      </trkpt>
      <trkpt lat="44.94428" lon="4.88993">
        <ele>114.487729</ele>
        <time>2021-09-15T06:25:20.000Z</time>
      </trkpt>
      <trkpt lat="44.94422" lon="4.89007">
        <ele>114.626692</ele>
        <time>2021-09-15T06:25:24.000Z</time>
      </trkpt>
      <trkpt lat="44.94409" lon="4.89039">
        <ele>114.834055</ele>
        <time>2021-09-15T06:25:31.000Z</time>
      </trkpt>
      <trkpt lat="44.94394" lon="4.89073">
        <ele>115.013737</ele>
        <time>2021-09-15T06:25:38.000Z</time>
      </trkpt>
      <trkpt lat="44.94389" lon="4.89079">
        <ele>115.060028</ele>
        <time>2021-09-15T06:25:40.000Z</time>
      </trkpt>
      <trkpt lat="44.94379" lon="4.89098">
        <ele>115.164088</ele>
        <time>2021-09-15T06:25:43.000Z</time>
      </trkpt>
      <trkpt lat="44.94375" lon="4.89113">
        <ele>115.235519</ele>
        <time>2021-09-15T06:25:48.000Z</time>
      </trkpt>
      <trkpt lat="44.94377" lon="4.89129">
        <ele>115.310994</ele>
        <time>2021-09-15T06:25:52.000Z</time>
      </trkpt>
      <trkpt lat="44.94374" lon="4.89177">
        <ele>115.528841</ele>
        <time>2021-09-15T06:25:58.000Z</time>
      </trkpt>
      <trkpt lat="44.94373" lon="4.89184">
        <ele>115.559227</ele>
        <time>2021-09-15T06:26:00.000Z</time>
      </trkpt>
      <trkpt lat="44.94368" lon="4.89213">
        <ele>115.69211</ele>
        <time>2021-09-15T06:26:04.000Z</time>
      </trkpt>
      <trkpt lat="44.94364" lon="4.89226">
        <ele>115.757255</ele>
        <time>2021-09-15T06:26:05.000Z</time>
      </trkpt>
      <trkpt lat="44.94362" lon="4.89232">
        <ele>115.789147</ele>
        <time>2021-09-15T06:26:07.000Z</time>
      </trkpt>
      <trkpt lat="44.94359" lon="4.89237">
        <ele>115.82058</ele>
        <time>2021-09-15T06:26:08.000Z</time>
      </trkpt>
      <trkpt lat="44.94355" lon="4.89242">
        <ele>115.852458</ele>
        <time>2021-09-15T06:26:09.000Z</time>
      </trkpt>
      <trkpt lat="44.94342" lon="4.89254">
        <ele>115.847405</ele>
        <time>2021-09-15T06:26:12.000Z</time>
      </trkpt>
      <trkpt lat="44.94301" lon="4.89276">
        <ele>115.781093</ele>
        <time>2021-09-15T06:26:20.000Z</time>
      </trkpt>
      <trkpt lat="44.94295" lon="4.89278">
        <ele>115.772956</ele>
        <time>2021-09-15T06:26:21.000Z</time>
      </trkpt>
      <trkpt lat="44.94274" lon="4.89289">
        <ele>115.738414</ele>
        <time>2021-09-15T06:26:25.000Z</time>
      </trkpt>
      <trkpt lat="44.94268" lon="4.89291">
        <ele>115.729991</ele>
        <time>2021-09-15T06:26:26.000Z</time>
      </trkpt>
      <trkpt lat="44.94235" lon="4.89307">
        <ele>115.676473</ele>
        <time>2021-09-15T06:26:32.000Z</time>
      </trkpt>
      <trkpt lat="44.94195" lon="4.89327">
        <ele>115.613221</ele>
        <time>2021-09-15T06:26:39.000Z</time>
      </trkpt>
      <trkpt lat="44.94156" lon="4.89346">
        <ele>115.371642</ele>
        <time>2021-09-15T06:26:46.000Z</time>
      </trkpt>
      <trkpt lat="44.94128" lon="4.89358">
        <ele>115.155817</ele>
        <time>2021-09-15T06:26:50.000Z</time>
      </trkpt>
      <trkpt lat="44.94121" lon="4.89359">
        <ele>115.105633</ele>
        <time>2021-09-15T06:26:52.000Z</time>
      </trkpt>
      <trkpt lat="44.94111" lon="4.89345">
        <ele>115.003293</ele>
        <time>2021-09-15T06:26:54.000Z</time>
      </trkpt>
      <trkpt lat="44.94102" lon="4.89339">
        <ele>114.931007</ele>
        <time>2021-09-15T06:26:56.000Z</time>
      </trkpt>
      <trkpt lat="44.94088" lon="4.89338">
        <ele>114.826468</ele>
        <time>2021-09-15T06:26:58.000Z</time>
      </trkpt>
      <trkpt lat="44.94082" lon="4.89351">
        <ele>114.747366</ele>
        <time>2021-09-15T06:27:00.000Z</time>
      </trkpt>
      <trkpt lat="44.94077" lon="4.8937">
        <ele>114.64005</ele>
        <time>2021-09-15T06:27:02.000Z</time>
      </trkpt>
      <trkpt lat="44.94064" lon="4.89374">
        <ele>114.54007</ele>
        <time>2021-09-15T06:27:04.000Z</time>
      </trkpt>
      <trkpt lat="44.94057" lon="4.89372">
        <ele>114.491709</ele>
        <time>2021-09-15T06:27:05.000Z</time>
      </trkpt>
      <trkpt lat="44.94026" lon="4.89362">
        <ele>114.263384</ele>
        <time>2021-09-15T06:27:10.000Z</time>
      </trkpt>
      <trkpt lat="44.9402" lon="4.8936">
        <ele>114.240979</ele>
        <time>2021-09-15T06:27:11.000Z</time>
      </trkpt>
      <trkpt lat="44.93991" lon="4.8935">
        <ele>114.136386</ele>
        <time>2021-09-15T06:27:16.000Z</time>
      </trkpt>
      <trkpt lat="44.93944" lon="4.89335">
        <ele>113.968581</ele>
        <time>2021-09-15T06:27:24.000Z</time>
      </trkpt>
      <trkpt lat="44.93899" lon="4.89321">
        <ele>113.803513</ele>
        <time>2021-09-15T06:27:32.000Z</time>
      </trkpt>
      <trkpt lat="44.93858" lon="4.89308">
        <ele>113.65757</ele>
        <time>2021-09-15T06:27:38.000Z</time>
      </trkpt>
      <trkpt lat="44.93835" lon="4.89301">
        <ele>113.722781</ele>
        <time>2021-09-15T06:27:43.000Z</time>
      </trkpt>
      <trkpt lat="44.93824" lon="4.89298">
        <ele>113.775894</ele>
        <time>2021-09-15T06:27:45.000Z</time>
      </trkpt>
      <trkpt lat="44.93814" lon="4.89299">
        <ele>113.822838</ele>
        <time>2021-09-15T06:27:47.000Z</time>
      </trkpt>
      <trkpt lat="44.93773" lon="4.89316">
        <ele>114.015405</ele>
        <time>2021-09-15T06:27:55.000Z</time>
      </trkpt>
      <trkpt lat="44.93755" lon="4.89323">
        <ele>114.105275</ele>
        <time>2021-09-15T06:27:59.000Z</time>
      </trkpt>
      <trkpt lat="44.93746" lon="4.89327">
        <ele>114.147337</ele>
        <time>2021-09-15T06:28:01.000Z</time>
      </trkpt>
      <trkpt lat="44.93717" lon="4.89335">
        <ele>114.280232</ele>
        <time>2021-09-15T06:28:08.000Z</time>
      </trkpt>
      <trkpt lat="44.93695" lon="4.89337">
        <ele>114.382077</ele>
        <time>2021-09-15T06:28:15.000Z</time>
      </trkpt>
      <trkpt lat="44.93676" lon="4.8933">
        <ele>114.507814</ele>
        <time>2021-09-15T06:28:22.000Z</time>
      </trkpt>
      <trkpt lat="44.93662" lon="4.89311">
        <ele>115.014757</ele>
        <time>2021-09-15T06:28:29.000Z</time>
      </trkpt>
      <trkpt lat="44.93649" lon="4.89291">
        <ele>115.50497</ele>
        <time>2021-09-15T06:28:36.000Z</time>
      </trkpt>
      <trkpt lat="44.93639" lon="4.89276">
        <ele>115.870438</ele>
        <time>2021-09-15T06:28:41.000Z</time>
      </trkpt>
      <trkpt lat="44.93625" lon="4.89255">
        <ele>116.403963</ele>
        <time>2021-09-15T06:28:48.000Z</time>
      </trkpt>
      <trkpt lat="44.93612" lon="4.89236">
        <ele>116.873587</ele>
        <time>2021-09-15T06:28:55.000Z</time>
      </trkpt>
      <trkpt lat="44.93606" lon="4.89225">
        <ele>117.12308</ele>
        <time>2021-09-15T06:28:59.000Z</time>
      </trkpt>
      <trkpt lat="44.93606" lon="4.89225">
        <ele>117.12308</ele>
        <time>2021-09-15T06:29:00.000Z</time>
      </trkpt>
      <trkpt lat="44.936" lon="4.89211">
        <ele>117.413401</ele>
        <time>2021-09-15T06:29:01.000Z</time>
      </trkpt>
      <trkpt lat="44.93597" lon="4.89227">
        <ele>117.703697</ele>
        <time>2021-09-15T06:29:03.000Z</time>
      </trkpt>
      <trkpt lat="44.93583" lon="4.89257">
        <ele>118.351787</ele>
        <time>2021-09-15T06:29:11.000Z</time>
      </trkpt>
      <trkpt lat="44.93573" lon="4.89281">
        <ele>118.850623</ele>
        <time>2021-09-15T06:29:18.000Z</time>
      </trkpt>
      <trkpt lat="44.93562" lon="4.89304">
        <ele>119.492388</ele>
        <time>2021-09-15T06:29:26.000Z</time>
      </trkpt>
      <trkpt lat="44.93547" lon="4.89317">
        <ele>120.136761</ele>
        <time>2021-09-15T06:29:32.000Z</time>
      </trkpt>
      <trkpt lat="44.93542" lon="4.89329">
        <ele>120.507179</ele>
        <time>2021-09-15T06:29:36.000Z</time>
      </trkpt>
      <trkpt lat="44.93541" lon="4.89351">
        <ele>121.088151</ele>
        <time>2021-09-15T06:29:41.000Z</time>
      </trkpt>
      <trkpt lat="44.93537" lon="4.89368">
        <ele>121.56119</ele>
        <time>2021-09-15T06:29:45.000Z</time>
      </trkpt>
      <trkpt lat="44.93531" lon="4.89389">
        <ele>122.161788</ele>
        <time>2021-09-15T06:29:50.000Z</time>
      </trkpt>
      <trkpt lat="44.93523" lon="4.89415">
        <ele>122.897244</ele>
        <time>2021-09-15T06:29:56.000Z</time>
      </trkpt>
      <trkpt lat="44.93514" lon="4.89447">
        <ele>123.797447</ele>
        <time>2021-09-15T06:30:03.000Z</time>
      </trkpt>
      <trkpt lat="44.93512" lon="4.89456">
        <ele>124.048744</ele>
        <time>2021-09-15T06:30:08.000Z</time>
      </trkpt>
      <trkpt lat="44.9351" lon="4.89462">
        <ele>124.220798</ele>
        <time>2021-09-15T06:30:47.000Z</time>
      </trkpt>
      <trkpt lat="44.93509" lon="4.89466">
        <ele>124.323706</ele>
        <time>2021-09-15T06:30:49.000Z</time>
      </trkpt>
      <trkpt lat="44.93499" lon="4.89492">
        <ele>125.101628</ele>
        <time>2021-09-15T06:30:55.000Z</time>
      </trkpt>
      <trkpt lat="44.93495" lon="4.89502">
        <ele>125.395883</ele>
        <time>2021-09-15T06:30:57.000Z</time>
      </trkpt>
      <trkpt lat="44.93491" lon="4.89512">
        <ele>125.709369</ele>
        <time>2021-09-15T06:30:59.000Z</time>
      </trkpt>
      <trkpt lat="44.93477" lon="4.89531">
        <ele>126.133855</ele>
        <time>2021-09-15T06:31:03.000Z</time>
      </trkpt>
      <trkpt lat="44.93472" lon="4.89534">
        <ele>126.237902</ele>
        <time>2021-09-15T06:31:04.000Z</time>
      </trkpt>
      <trkpt lat="44.93452" lon="4.89551">
        <ele>126.749168</ele>
        <time>2021-09-15T06:31:09.000Z</time>
      </trkpt>
      <trkpt lat="44.93439" lon="4.89559">
        <ele>127.046221</ele>
        <time>2021-09-15T06:31:12.000Z</time>
      </trkpt>
      <trkpt lat="44.93427" lon="4.89566">
        <ele>127.326301</ele>
        <time>2021-09-15T06:31:15.000Z</time>
      </trkpt>
      <trkpt lat="44.93411" lon="4.89577">
        <ele>127.70551</ele>
        <time>2021-09-15T06:31:20.000Z</time>
      </trkpt>
      <trkpt lat="44.93396" lon="4.89599">
        <ele>128.164004</ele>
        <time>2021-09-15T06:31:26.000Z</time>
      </trkpt>
      <trkpt lat="44.93386" lon="4.8961">
        <ele>128.450247</ele>
        <time>2021-09-15T06:31:31.000Z</time>
      </trkpt>
      <trkpt lat="44.93375" lon="4.89632">
        <ele>128.855233</ele>
        <time>2021-09-15T06:31:36.000Z</time>
      </trkpt>
      <trkpt lat="44.93367" lon="4.89638">
        <ele>129.050636</ele>
        <time>2021-09-15T06:31:38.000Z</time>
      </trkpt>
      <trkpt lat="44.93362" lon="4.89639">
        <ele>129.169643</ele>
        <time>2021-09-15T06:31:39.000Z</time>
      </trkpt>
      <trkpt lat="44.93356" lon="4.89637">
        <ele>129.28646</ele>
        <time>2021-09-15T06:31:40.000Z</time>
      </trkpt>
      <trkpt lat="44.93344" lon="4.89627">
        <ele>129.591202</ele>
        <time>2021-09-15T06:31:43.000Z</time>
      </trkpt>
      <trkpt lat="44.93309" lon="4.89597">
        <ele>129.850707</ele>
        <time>2021-09-15T06:31:51.000Z</time>
      </trkpt>
      <trkpt lat="44.93282" lon="4.89576">
        <ele>130.047814</ele>
        <time>2021-09-15T06:31:57.000Z</time>
      </trkpt>
      <trkpt lat="44.93273" lon="4.8957">
        <ele>130.114774</ele>
        <time>2021-09-15T06:31:59.000Z</time>
      </trkpt>
      <trkpt lat="44.9324" lon="4.89549">
        <ele>130.341682</ele>
        <time>2021-09-15T06:32:06.000Z</time>
      </trkpt>
      <trkpt lat="44.93204" lon="4.89526">
        <ele>130.596879</ele>
        <time>2021-09-15T06:32:14.000Z</time>
      </trkpt>
      <trkpt lat="44.93172" lon="4.8951">
        <ele>130.77727</ele>
        <time>2021-09-15T06:32:21.000Z</time>
      </trkpt>
      <trkpt lat="44.93163" lon="4.89506">
        <ele>130.809191</ele>
        <time>2021-09-15T06:32:23.000Z</time>
      </trkpt>
      <trkpt lat="44.93156" lon="4.89502">
        <ele>130.837879</ele>
        <time>2021-09-15T06:32:25.000Z</time>
      </trkpt>
      <trkpt lat="44.93152" lon="4.895">
        <ele>130.851697</ele>
        <time>2021-09-15T06:32:26.000Z</time>
      </trkpt>
      <trkpt lat="44.9314" lon="4.89494">
        <ele>130.894285</ele>
        <time>2021-09-15T06:32:29.000Z</time>
      </trkpt>
      <trkpt lat="44.93128" lon="4.89489">
        <ele>130.938439</ele>
        <time>2021-09-15T06:32:31.000Z</time>
      </trkpt>
      <trkpt lat="44.93128" lon="4.89489">
        <ele>130.938439</ele>
        <time>2021-09-15T06:32:32.000Z</time>
      </trkpt>
      <trkpt lat="44.93094" lon="4.89475">
        <ele>131.059379</ele>
        <time>2021-09-15T06:32:39.000Z</time>
      </trkpt>
      <trkpt lat="44.93068" lon="4.89465">
        <ele>131.152013</ele>
        <time>2021-09-15T06:32:45.000Z</time>
      </trkpt>
      <trkpt lat="44.93059" lon="4.89461">
        <ele>131.18363</ele>
        <time>2021-09-15T06:32:48.000Z</time>
      </trkpt>
      <trkpt lat="44.93057" lon="4.8946">
        <ele>131.191227</ele>
        <time>2021-09-15T06:33:14.000Z</time>
      </trkpt>
      <trkpt lat="44.93053" lon="4.89458">
        <ele>131.205618</ele>
        <time>2021-09-15T06:33:15.000Z</time>
      </trkpt>
      <trkpt lat="44.93044" lon="4.89449">
        <ele>131.241469</ele>
        <time>2021-09-15T06:33:19.000Z</time>
      </trkpt>
      <trkpt lat="44.93042" lon="4.89444">
        <ele>131.257279</ele>
        <time>2021-09-15T06:33:20.000Z</time>
      </trkpt>
      <trkpt lat="44.93042" lon="4.8943">
        <ele>131.289432</ele>
        <time>2021-09-15T06:33:22.000Z</time>
      </trkpt>
      <trkpt lat="44.93042" lon="4.89424">
        <ele>131.305211</ele>
        <time>2021-09-15T06:33:23.000Z</time>
      </trkpt>
      <trkpt lat="44.93043" lon="4.89375">
        <ele>131.338211</ele>
        <time>2021-09-15T06:33:30.000Z</time>
      </trkpt>
      <trkpt lat="44.93044" lon="4.89326">
        <ele>131.312916</ele>
        <time>2021-09-15T06:33:36.000Z</time>
      </trkpt>
      <trkpt lat="44.93045" lon="4.89253">
        <ele>131.274373</ele>
        <time>2021-09-15T06:33:45.000Z</time>
      </trkpt>
      <trkpt lat="44.93046" lon="4.89202">
        <ele>131.247767</ele>
        <time>2021-09-15T06:33:51.000Z</time>
      </trkpt>
      <trkpt lat="44.93047" lon="4.8916">
        <ele>131.226082</ele>
        <time>2021-09-15T06:33:56.000Z</time>
      </trkpt>
      <trkpt lat="44.93047" lon="4.89152">
        <ele>131.221787</ele>
        <time>2021-09-15T06:33:57.000Z</time>
      </trkpt>
      <trkpt lat="44.93048" lon="4.89136">
        <ele>131.161024</ele>
        <time>2021-09-15T06:33:59.000Z</time>
      </trkpt>
      <trkpt lat="44.93048" lon="4.8912">
        <ele>131.093842</ele>
        <time>2021-09-15T06:34:01.000Z</time>
      </trkpt>
      <trkpt lat="44.9305" lon="4.8907">
        <ele>130.886435</ele>
        <time>2021-09-15T06:34:08.000Z</time>
      </trkpt>
      <trkpt lat="44.93051" lon="4.89048">
        <ele>130.791106</ele>
        <time>2021-09-15T06:34:12.000Z</time>
      </trkpt>
      <trkpt lat="44.93051" lon="4.89043">
        <ele>130.771782</ele>
        <time>2021-09-15T06:34:13.000Z</time>
      </trkpt>
      <trkpt lat="44.93052" lon="4.89024">
        <ele>130.693264</ele>
        <time>2021-09-15T06:34:18.000Z</time>
      </trkpt>
      <trkpt lat="44.93052" lon="4.89017">
        <ele>130.660134</ele>
        <time>2021-09-15T06:34:21.000Z</time>
      </trkpt>
      <trkpt lat="44.93052" lon="4.89007">
        <ele>130.620649</ele>
        <time>2021-09-15T06:34:24.000Z</time>
      </trkpt>
      <trkpt lat="44.93045" lon="4.89">
        <ele>130.565192</ele>
        <time>2021-09-15T06:34:28.000Z</time>
      </trkpt>
      <trkpt lat="44.93039" lon="4.88997">
        <ele>130.527453</ele>
        <time>2021-09-15T06:34:35.000Z</time>
      </trkpt>
      <trkpt lat="44.93037" lon="4.88993">
        <ele>130.510335</ele>
        <time>2021-09-15T06:34:37.000Z</time>
      </trkpt>
      <trkpt lat="44.93037" lon="4.88988">
        <ele>130.487243</ele>
        <time>2021-09-15T06:34:39.000Z</time>
      </trkpt>
      <trkpt lat="44.93033" lon="4.88976">
        <ele>130.434002</ele>
        <time>2021-09-15T06:34:44.000Z</time>
      </trkpt>
      <trkpt lat="44.93033" lon="4.88976">
        <ele>130.434002</ele>
        <time>2021-09-15T06:34:48.000Z</time>
      </trkpt>
      <trkpt lat="44.93024" lon="4.88987">
        <ele>130.368396</ele>
        <time>2021-09-15T06:34:52.000Z</time>
      </trkpt>
      <trkpt lat="44.93028" lon="4.88987">
        <ele>130.344023</ele>
        <time>2021-09-15T06:34:54.000Z</time>
      </trkpt>
      <trkpt lat="44.93009" lon="4.8898">
        <ele>130.224589</ele>
        <time>2021-09-15T06:34:59.000Z</time>
      </trkpt>
      <trkpt lat="44.92998" lon="4.88974">
        <ele>130.157733</ele>
        <time>2021-09-15T06:35:03.000Z</time>
      </trkpt>
      <trkpt lat="44.92991" lon="4.8897">
        <ele>130.157876</ele>
        <time>2021-09-15T06:35:04.000Z</time>
      </trkpt>
      <trkpt lat="44.92966" lon="4.88957">
        <ele>130.166754</ele>
        <time>2021-09-15T06:35:10.000Z</time>
      </trkpt>
      <trkpt lat="44.92937" lon="4.88942">
        <ele>130.177279</ele>
        <time>2021-09-15T06:35:17.000Z</time>
      </trkpt>
      <trkpt lat="44.92909" lon="4.88927">
        <ele>130.187214</ele>
        <time>2021-09-15T06:35:24.000Z</time>
      </trkpt>
      <trkpt lat="44.92912" lon="4.88903">
        <ele>130.192946</ele>
        <time>2021-09-15T06:35:28.000Z</time>
      </trkpt>
      <trkpt lat="44.92913" lon="4.889">
        <ele>130.193642</ele>
        <time>2021-09-15T06:35:30.000Z</time>
      </trkpt>
      <trkpt lat="44.92915" lon="4.88892">
        <ele>130.19574</ele>
        <time>2021-09-15T06:35:33.000Z</time>
      </trkpt>
      <trkpt lat="44.92917" lon="4.88882">
        <ele>130.198175</ele>
        <time>2021-09-15T06:35:36.000Z</time>
      </trkpt>
      <trkpt lat="44.92918" lon="4.88878">
        <ele>130.19915</ele>
        <time>2021-09-15T06:35:37.000Z</time>
      </trkpt>
      <trkpt lat="44.92911" lon="4.88855">
        <ele>130.204994</ele>
        <time>2021-09-15T06:35:41.000Z</time>
      </trkpt>
      <trkpt lat="44.92927" lon="4.88839">
        <ele>130.211487</ele>
        <time>2021-09-15T06:35:46.000Z</time>
      </trkpt>
      <trkpt lat="44.92935" lon="4.88807">
        <ele>129.881105</ele>
        <time>2021-09-15T06:35:53.000Z</time>
      </trkpt>
      <trkpt lat="44.92941" lon="4.88787">
        <ele>129.423223</ele>
        <time>2021-09-15T06:35:59.000Z</time>
      </trkpt>
      <trkpt lat="44.92943" lon="4.88779">
        <ele>129.233667</ele>
        <time>2021-09-15T06:36:03.000Z</time>
      </trkpt>
      <trkpt lat="44.92944" lon="4.88775">
        <ele>129.154864</ele>
        <time>2021-09-15T06:36:05.000Z</time>
      </trkpt>
      <trkpt lat="44.9294" lon="4.88783">
        <ele>128.956714</ele>
        <time>2021-09-15T06:36:07.000Z</time>
      </trkpt>
      <trkpt lat="44.92944" lon="4.88775">
        <ele>128.752981</ele>
        <time>2021-09-15T06:36:11.000Z</time>
      </trkpt>
      <trkpt lat="44.92947" lon="4.88787">
        <ele>128.484486</ele>
        <time>2021-09-15T06:36:30.000Z</time>
      </trkpt>
      <trkpt lat="44.9294" lon="4.88788">
        <ele>128.286074</ele>
        <time>2021-09-15T06:36:35.000Z</time>
      </trkpt>
      <trkpt lat="44.92938" lon="4.88792">
        <ele>128.180544</ele>
        <time>2021-09-15T06:36:37.000Z</time>
      </trkpt>
      <trkpt lat="44.92923" lon="4.88785">
        <ele>127.708429</ele>
        <time>2021-09-15T06:36:42.000Z</time>
      </trkpt>
      <trkpt lat="44.92916" lon="4.88781">
        <ele>127.473781</ele>
        <time>2021-09-15T06:36:44.000Z</time>
      </trkpt>
      <trkpt lat="44.92914" lon="4.88777">
        <ele>127.368522</ele>
        <time>2021-09-15T06:36:45.000Z</time>
      </trkpt>
      <trkpt lat="44.9292" lon="4.88779">
        <ele>127.207155</ele>
        <time>2021-09-15T06:36:48.000Z</time>
      </trkpt>
      <trkpt lat="44.92924" lon="4.88781">
        <ele>127.080318</ele>
        <time>2021-09-15T06:36:49.000Z</time>
      </trkpt>
      <trkpt lat="44.92931" lon="4.88785">
        <ele>126.829461</ele>
        <time>2021-09-15T06:36:51.000Z</time>
      </trkpt>
      <trkpt lat="44.92934" lon="4.88786">
        <ele>126.756876</ele>
        <time>2021-09-15T06:36:52.000Z</time>
      </trkpt>
      <trkpt lat="44.92934" lon="4.88786">
        <ele>126.756876</ele>
        <time>2021-09-15T06:36:53.000Z</time>
      </trkpt>
      <trkpt lat="44.92935" lon="4.88785">
        <ele>126.723503</ele>
        <time>2021-09-15T06:37:23.000Z</time>
      </trkpt>
      <trkpt lat="44.92934" lon="4.8878">
        <ele>126.612447</ele>
        <time>2021-09-15T06:37:24.000Z</time>
      </trkpt>
      <trkpt lat="44.92933" lon="4.88777">
        <ele>126.528803</ele>
        <time>2021-09-15T06:37:26.000Z</time>
      </trkpt>
      <trkpt lat="44.92931" lon="4.88772">
        <ele>126.411978</ele>
        <time>2021-09-15T06:37:27.000Z</time>
      </trkpt>
      <trkpt lat="44.92928" lon="4.88767">
        <ele>126.285194</ele>
        <time>2021-09-15T06:37:28.000Z</time>
      </trkpt>
      <trkpt lat="44.92911" lon="4.88755">
        <ele>125.698228</ele>
        <time>2021-09-15T06:37:32.000Z</time>
      </trkpt>
      <trkpt lat="44.92901" lon="4.88748">
        <ele>125.378149</ele>
        <time>2021-09-15T06:37:34.000Z</time>
      </trkpt>
      <trkpt lat="44.92885" lon="4.88737">
        <ele>124.846238</ele>
        <time>2021-09-15T06:37:37.000Z</time>
      </trkpt>
      <trkpt lat="44.92849" lon="4.88708">
        <ele>123.951001</ele>
        <time>2021-09-15T06:37:43.000Z</time>
      </trkpt>
      <trkpt lat="44.92816" lon="4.88675">
        <ele>123.098245</ele>
        <time>2021-09-15T06:37:48.000Z</time>
      </trkpt>
      <trkpt lat="44.92809" lon="4.88668">
        <ele>122.914344</ele>
        <time>2021-09-15T06:37:49.000Z</time>
      </trkpt>
      <trkpt lat="44.92799" lon="4.88649">
        <ele>122.55607</ele>
        <time>2021-09-15T06:37:51.000Z</time>
      </trkpt>
      <trkpt lat="44.92791" lon="4.88629">
        <ele>122.19681</ele>
        <time>2021-09-15T06:37:53.000Z</time>
      </trkpt>
      <trkpt lat="44.92792" lon="4.88605">
        <ele>121.844171</ele>
        <time>2021-09-15T06:37:55.000Z</time>
      </trkpt>
      <trkpt lat="44.92805" lon="4.88575">
        <ele>121.304381</ele>
        <time>2021-09-15T06:37:58.000Z</time>
      </trkpt>
      <trkpt lat="44.92816" lon="4.88562">
        <ele>120.994211</ele>
        <time>2021-09-15T06:38:00.000Z</time>
      </trkpt>
      <trkpt lat="44.92831" lon="4.8854">
        <ele>120.587414</ele>
        <time>2021-09-15T06:38:03.000Z</time>
      </trkpt>
      <trkpt lat="44.92849" lon="4.8851">
        <ele>120.039084</ele>
        <time>2021-09-15T06:38:07.000Z</time>
      </trkpt>
      <trkpt lat="44.92854" lon="4.88503">
        <ele>119.90258</ele>
        <time>2021-09-15T06:38:08.000Z</time>
      </trkpt>
      <trkpt lat="44.92872" lon="4.88476">
        <ele>119.401347</ele>
        <time>2021-09-15T06:38:12.000Z</time>
      </trkpt>
      <trkpt lat="44.92876" lon="4.8847">
        <ele>119.286635</ele>
        <time>2021-09-15T06:38:13.000Z</time>
      </trkpt>
      <trkpt lat="44.92879" lon="4.88464">
        <ele>119.174217</ele>
        <time>2021-09-15T06:38:14.000Z</time>
      </trkpt>
      <trkpt lat="44.92884" lon="4.88431">
        <ele>118.71141</ele>
        <time>2021-09-15T06:38:18.000Z</time>
      </trkpt>
      <trkpt lat="44.92887" lon="4.88415">
        <ele>118.485143</ele>
        <time>2021-09-15T06:38:20.000Z</time>
      </trkpt>
      <trkpt lat="44.92892" lon="4.88385">
        <ele>118.060264</ele>
        <time>2021-09-15T06:38:24.000Z</time>
      </trkpt>
      <trkpt lat="44.92902" lon="4.88323">
        <ele>117.222656</ele>
        <time>2021-09-15T06:38:32.000Z</time>
      </trkpt>
      <trkpt lat="44.92906" lon="4.88302">
        <ele>116.970029</ele>
        <time>2021-09-15T06:38:35.000Z</time>
      </trkpt>
      <trkpt lat="44.92908" lon="4.88291">
        <ele>116.829495</ele>
        <time>2021-09-15T06:38:37.000Z</time>
      </trkpt>
      <trkpt lat="44.92916" lon="4.8828">
        <ele>116.647106</ele>
        <time>2021-09-15T06:38:39.000Z</time>
      </trkpt>
      <trkpt lat="44.92921" lon="4.88284">
        <ele>116.547944</ele>
        <time>2021-09-15T06:38:40.000Z</time>
      </trkpt>
      <trkpt lat="44.92935" lon="4.88293">
        <ele>116.293895</ele>
        <time>2021-09-15T06:38:44.000Z</time>
      </trkpt>
      <trkpt lat="44.92942" lon="4.88298">
        <ele>116.16253</ele>
        <time>2021-09-15T06:38:46.000Z</time>
      </trkpt>
      <trkpt lat="44.92947" lon="4.88291">
        <ele>116.038305</ele>
        <time>2021-09-15T06:38:48.000Z</time>
      </trkpt>
      <trkpt lat="44.9295" lon="4.88285">
        <ele>115.958874</ele>
        <time>2021-09-15T06:38:49.000Z</time>
      </trkpt>
      <trkpt lat="44.9296" lon="4.88268">
        <ele>115.690192</ele>
        <time>2021-09-15T06:38:51.000Z</time>
      </trkpt>
      <trkpt lat="44.92959" lon="4.88252">
        <ele>115.498493</ele>
        <time>2021-09-15T06:38:52.000Z</time>
      </trkpt>
      <trkpt lat="44.92944" lon="4.88239">
        <ele>115.207407</ele>
        <time>2021-09-15T06:38:56.000Z</time>
      </trkpt>
      <trkpt lat="44.92934" lon="4.88231">
        <ele>115.016753</ele>
        <time>2021-09-15T06:38:58.000Z</time>
      </trkpt>
      <trkpt lat="44.9292" lon="4.88219">
        <ele>114.731653</ele>
        <time>2021-09-15T06:39:01.000Z</time>
      </trkpt>
      <trkpt lat="44.92873" lon="4.8818">
        <ele>114.086639</ele>
        <time>2021-09-15T06:39:10.000Z</time>
      </trkpt>
      <trkpt lat="44.92867" lon="4.88176">
        <ele>114.02909</ele>
        <time>2021-09-15T06:39:11.000Z</time>
      </trkpt>
      <trkpt lat="44.92841" lon="4.88153">
        <ele>113.73719</ele>
        <time>2021-09-15T06:39:16.000Z</time>
      </trkpt>
      <trkpt lat="44.92831" lon="4.88145">
        <ele>113.625432</ele>
        <time>2021-09-15T06:39:18.000Z</time>
      </trkpt>
      <trkpt lat="44.92782" lon="4.88104">
        <ele>113.089953</ele>
        <time>2021-09-15T06:39:27.000Z</time>
      </trkpt>
      <trkpt lat="44.92733" lon="4.88063">
        <ele>112.673541</ele>
        <time>2021-09-15T06:39:35.000Z</time>
      </trkpt>
      <trkpt lat="44.9269" lon="4.88027">
        <ele>112.504124</ele>
        <time>2021-09-15T06:39:44.000Z</time>
      </trkpt>
      <trkpt lat="44.92657" lon="4.87999">
        <ele>112.372924</ele>
        <time>2021-09-15T06:39:51.000Z</time>
      </trkpt>
      <trkpt lat="44.92621" lon="4.87968">
        <ele>112.228654</ele>
        <time>2021-09-15T06:39:59.000Z</time>
      </trkpt>
      <trkpt lat="44.92584" lon="4.87935">
        <ele>112.04572</ele>
        <time>2021-09-15T06:40:06.000Z</time>
      </trkpt>
      <trkpt lat="44.92534" lon="4.87893">
        <ele>111.718966</ele>
        <time>2021-09-15T06:40:15.000Z</time>
      </trkpt>
      <trkpt lat="44.92498" lon="4.87858">
        <ele>111.474455</ele>
        <time>2021-09-15T06:40:22.000Z</time>
      </trkpt>
      <trkpt lat="44.92469" lon="4.87824">
        <ele>111.262241</ele>
        <time>2021-09-15T06:40:28.000Z</time>
      </trkpt>
      <trkpt lat="44.92464" lon="4.87819">
        <ele>111.226811</ele>
        <time>2021-09-15T06:40:29.000Z</time>
      </trkpt>
      <trkpt lat="44.92455" lon="4.87808">
        <ele>111.160508</ele>
        <time>2021-09-15T06:40:31.000Z</time>
      </trkpt>
      <trkpt lat="44.9245" lon="4.87803">
        <ele>111.126199</ele>
        <time>2021-09-15T06:40:32.000Z</time>
      </trkpt>
      <trkpt lat="44.92446" lon="4.87797">
        <ele>111.072222</ele>
        <time>2021-09-15T06:40:33.000Z</time>
      </trkpt>
      <trkpt lat="44.9243" lon="4.87782">
        <ele>110.876421</ele>
        <time>2021-09-15T06:40:36.000Z</time>
      </trkpt>
      <trkpt lat="44.92424" lon="4.87776">
        <ele>110.807556</ele>
        <time>2021-09-15T06:40:37.000Z</time>
      </trkpt>
      <trkpt lat="44.92391" lon="4.87745">
        <ele>110.403888</ele>
        <time>2021-09-15T06:40:43.000Z</time>
      </trkpt>
      <trkpt lat="44.92381" lon="4.87735">
        <ele>110.281492</ele>
        <time>2021-09-15T06:40:45.000Z</time>
      </trkpt>
      <trkpt lat="44.92365" lon="4.8772">
        <ele>110.08734</ele>
        <time>2021-09-15T06:40:48.000Z</time>
      </trkpt>
      <trkpt lat="44.92322" lon="4.87678">
        <ele>109.551321</ele>
        <time>2021-09-15T06:40:56.000Z</time>
      </trkpt>
      <trkpt lat="44.92288" lon="4.87656">
        <ele>109.225766</ele>
        <time>2021-09-15T06:41:02.000Z</time>
      </trkpt>
      <trkpt lat="44.92264" lon="4.87642">
        <ele>109.085899</ele>
        <time>2021-09-15T06:41:06.000Z</time>
      </trkpt>
      <trkpt lat="44.92253" lon="4.87635">
        <ele>109.017969</ele>
        <time>2021-09-15T06:41:08.000Z</time>
      </trkpt>
      <trkpt lat="44.92222" lon="4.87606">
        <ele>108.816014</ele>
        <time>2021-09-15T06:41:14.000Z</time>
      </trkpt>
      <trkpt lat="44.92186" lon="4.87573">
        <ele>108.579205</ele>
        <time>2021-09-15T06:41:21.000Z</time>
      </trkpt>
      <trkpt lat="44.92154" lon="4.87544">
        <ele>108.367925</ele>
        <time>2021-09-15T06:41:27.000Z</time>
      </trkpt>
      <trkpt lat="44.92132" lon="4.87526">
        <ele>108.192186</ele>
        <time>2021-09-15T06:41:31.000Z</time>
      </trkpt>
      <trkpt lat="44.92127" lon="4.87522">
        <ele>108.141607</ele>
        <time>2021-09-15T06:41:32.000Z</time>
      </trkpt>
      <trkpt lat="44.92085" lon="4.87489">
        <ele>107.724596</ele>
        <time>2021-09-15T06:41:40.000Z</time>
      </trkpt>
      <trkpt lat="44.92059" lon="4.87469">
        <ele>107.46853</ele>
        <time>2021-09-15T06:41:45.000Z</time>
      </trkpt>
      <trkpt lat="44.92054" lon="4.87465">
        <ele>107.415444</ele>
        <time>2021-09-15T06:41:46.000Z</time>
      </trkpt>
      <trkpt lat="44.92007" lon="4.87436">
        <ele>106.970993</ele>
        <time>2021-09-15T06:41:54.000Z</time>
      </trkpt>
      <trkpt lat="44.91972" lon="4.87416">
        <ele>106.658992</ele>
        <time>2021-09-15T06:42:00.000Z</time>
      </trkpt>
      <trkpt lat="44.91931" lon="4.87393">
        <ele>106.331408</ele>
        <time>2021-09-15T06:42:07.000Z</time>
      </trkpt>
      <trkpt lat="44.91888" lon="4.87376">
        <ele>106.003438</ele>
        <time>2021-09-15T06:42:14.000Z</time>
      </trkpt>
      <trkpt lat="44.91877" lon="4.87372">
        <ele>105.914212</ele>
        <time>2021-09-15T06:42:16.000Z</time>
      </trkpt>
      <trkpt lat="44.91859" lon="4.87364">
        <ele>105.774223</ele>
        <time>2021-09-15T06:42:19.000Z</time>
      </trkpt>
      <trkpt lat="44.91841" lon="4.87356">
        <ele>105.636811</ele>
        <time>2021-09-15T06:42:22.000Z</time>
      </trkpt>
      <trkpt lat="44.91829" lon="4.8735">
        <ele>105.545493</ele>
        <time>2021-09-15T06:42:24.000Z</time>
      </trkpt>
      <trkpt lat="44.91812" lon="4.87342">
        <ele>105.411501</ele>
        <time>2021-09-15T06:42:27.000Z</time>
      </trkpt>
      <trkpt lat="44.918" lon="4.87338">
        <ele>105.408877</ele>
        <time>2021-09-15T06:42:29.000Z</time>
      </trkpt>
      <trkpt lat="44.91776" lon="4.87331">
        <ele>105.403581</ele>
        <time>2021-09-15T06:42:33.000Z</time>
      </trkpt>
      <trkpt lat="44.91763" lon="4.87327">
        <ele>105.400889</ele>
        <time>2021-09-15T06:42:35.000Z</time>
      </trkpt>
      <trkpt lat="44.91757" lon="4.87326">
        <ele>105.399531</ele>
        <time>2021-09-15T06:42:36.000Z</time>
      </trkpt>
      <trkpt lat="44.91732" lon="4.8733">
        <ele>105.394132</ele>
        <time>2021-09-15T06:42:40.000Z</time>
      </trkpt>
      <trkpt lat="44.91713" lon="4.87334">
        <ele>105.38997</ele>
        <time>2021-09-15T06:42:43.000Z</time>
      </trkpt>
      <trkpt lat="44.91703" lon="4.87342">
        <ele>105.387527</ele>
        <time>2021-09-15T06:42:45.000Z</time>
      </trkpt>
      <trkpt lat="44.91676" lon="4.87363">
        <ele>105.380854</ele>
        <time>2021-09-15T06:42:51.000Z</time>
      </trkpt>
      <trkpt lat="44.91662" lon="4.87372">
        <ele>105.377603</ele>
        <time>2021-09-15T06:42:54.000Z</time>
      </trkpt>
      <trkpt lat="44.91658" lon="4.87374">
        <ele>105.376682</ele>
        <time>2021-09-15T06:42:55.000Z</time>
      </trkpt>
      <trkpt lat="44.91654" lon="4.87376">
        <ele>105.375826</ele>
        <time>2021-09-15T06:42:56.000Z</time>
      </trkpt>
      <trkpt lat="44.91646" lon="4.87384">
        <ele>105.373643</ele>
        <time>2021-09-15T06:42:58.000Z</time>
      </trkpt>
      <trkpt lat="44.91643" lon="4.87389">
        <ele>105.389641</ele>
        <time>2021-09-15T06:42:59.000Z</time>
      </trkpt>
      <trkpt lat="44.91625" lon="4.87428">
        <ele>105.721738</ele>
        <time>2021-09-15T06:43:05.000Z</time>
      </trkpt>
      <trkpt lat="44.91614" lon="4.87457">
        <ele>105.959916</ele>
        <time>2021-09-15T06:43:09.000Z</time>
      </trkpt>
      <trkpt lat="44.91608" lon="4.87472">
        <ele>106.07995</ele>
        <time>2021-09-15T06:43:11.000Z</time>
      </trkpt>
      <trkpt lat="44.91591" lon="4.87514">
        <ele>106.434892</ele>
        <time>2021-09-15T06:43:17.000Z</time>
      </trkpt>
      <trkpt lat="44.91583" lon="4.87535">
        <ele>106.601906</ele>
        <time>2021-09-15T06:43:21.000Z</time>
      </trkpt>
      <trkpt lat="44.91572" lon="4.87562">
        <ele>106.827427</ele>
        <time>2021-09-15T06:43:27.000Z</time>
      </trkpt>
      <trkpt lat="44.9157" lon="4.87567">
        <ele>106.869903</ele>
        <time>2021-09-15T06:43:28.000Z</time>
      </trkpt>
      <trkpt lat="44.91566" lon="4.87577">
        <ele>106.951343</ele>
        <time>2021-09-15T06:43:30.000Z</time>
      </trkpt>
      <trkpt lat="44.91555" lon="4.87578">
        <ele>107.064648</ele>
        <time>2021-09-15T06:43:32.000Z</time>
      </trkpt>
      <trkpt lat="44.91546" lon="4.87572">
        <ele>107.159124</ele>
        <time>2021-09-15T06:43:34.000Z</time>
      </trkpt>
      <trkpt lat="44.91515" lon="4.8755">
        <ele>107.51681</ele>
        <time>2021-09-15T06:43:41.000Z</time>
      </trkpt>
      <trkpt lat="44.91478" lon="4.87524">
        <ele>107.935274</ele>
        <time>2021-09-15T06:43:49.000Z</time>
      </trkpt>
      <trkpt lat="44.91465" lon="4.87515">
        <ele>108.081919</ele>
        <time>2021-09-15T06:43:52.000Z</time>
      </trkpt>
      <trkpt lat="44.91457" lon="4.87509">
        <ele>108.172593</ele>
        <time>2021-09-15T06:43:54.000Z</time>
      </trkpt>
      <trkpt lat="44.91446" lon="4.87499">
        <ele>108.31118</ele>
        <time>2021-09-15T06:43:57.000Z</time>
      </trkpt>
      <trkpt lat="44.91434" lon="4.87487">
        <ele>108.461133</ele>
        <time>2021-09-15T06:44:00.000Z</time>
      </trkpt>
      <trkpt lat="44.91429" lon="4.87483">
        <ele>108.515696</ele>
        <time>2021-09-15T06:44:01.000Z</time>
      </trkpt>
      <trkpt lat="44.91406" lon="4.87465">
        <ele>108.785441</ele>
        <time>2021-09-15T06:44:06.000Z</time>
      </trkpt>
      <trkpt lat="44.91376" lon="4.87442">
        <ele>109.072909</ele>
        <time>2021-09-15T06:44:12.000Z</time>
      </trkpt>
      <trkpt lat="44.91325" lon="4.87406">
        <ele>109.320042</ele>
        <time>2021-09-15T06:44:21.000Z</time>
      </trkpt>
      <trkpt lat="44.91283" lon="4.87376">
        <ele>109.523136</ele>
        <time>2021-09-15T06:44:30.000Z</time>
      </trkpt>
      <trkpt lat="44.91246" lon="4.87351">
        <ele>109.700306</ele>
        <time>2021-09-15T06:44:37.000Z</time>
      </trkpt>
      <trkpt lat="44.91208" lon="4.87326">
        <ele>109.847575</ele>
        <time>2021-09-15T06:44:44.000Z</time>
      </trkpt>
      <trkpt lat="44.91166" lon="4.87297">
        <ele>109.965925</ele>
        <time>2021-09-15T06:44:52.000Z</time>
      </trkpt>
      <trkpt lat="44.9112" lon="4.87262">
        <ele>110.098391</ele>
        <time>2021-09-15T06:45:01.000Z</time>
      </trkpt>
      <trkpt lat="44.91068" lon="4.87224">
        <ele>110.245266</ele>
        <time>2021-09-15T06:45:11.000Z</time>
      </trkpt>
      <trkpt lat="44.91058" lon="4.87216">
        <ele>110.278662</ele>
        <time>2021-09-15T06:45:13.000Z</time>
      </trkpt>
      <trkpt lat="44.91005" lon="4.87178">
        <ele>110.464162</ele>
        <time>2021-09-15T06:45:23.000Z</time>
      </trkpt>
      <trkpt lat="44.90956" lon="4.87142">
        <ele>110.635649</ele>
        <time>2021-09-15T06:45:32.000Z</time>
      </trkpt>
      <trkpt lat="44.90951" lon="4.87138">
        <ele>110.655051</ele>
        <time>2021-09-15T06:45:33.000Z</time>
      </trkpt>
      <trkpt lat="44.90908" lon="4.87105">
        <ele>110.807124</ele>
        <time>2021-09-15T06:45:41.000Z</time>
      </trkpt>
      <trkpt lat="44.90867" lon="4.87069">
        <ele>110.949696</ele>
        <time>2021-09-15T06:45:49.000Z</time>
      </trkpt>
      <trkpt lat="44.9082" lon="4.87027">
        <ele>111.111826</ele>
        <time>2021-09-15T06:45:58.000Z</time>
      </trkpt>
      <trkpt lat="44.90814" lon="4.87022">
        <ele>111.129988</ele>
        <time>2021-09-15T06:45:59.000Z</time>
      </trkpt>
      <trkpt lat="44.90778" lon="4.8699">
        <ele>111.252842</ele>
        <time>2021-09-15T06:46:06.000Z</time>
      </trkpt>
      <trkpt lat="44.90758" lon="4.86972">
        <ele>111.321916</ele>
        <time>2021-09-15T06:46:10.000Z</time>
      </trkpt>
      <trkpt lat="44.90749" lon="4.86964">
        <ele>111.3461</ele>
        <time>2021-09-15T06:46:12.000Z</time>
      </trkpt>
      <trkpt lat="44.90734" lon="4.86956">
        <ele>111.358053</ele>
        <time>2021-09-15T06:46:15.000Z</time>
      </trkpt>
      <trkpt lat="44.90729" lon="4.86952">
        <ele>111.362101</ele>
        <time>2021-09-15T06:46:16.000Z</time>
      </trkpt>
      <trkpt lat="44.90723" lon="4.86951">
        <ele>111.366478</ele>
        <time>2021-09-15T06:46:17.000Z</time>
      </trkpt>
      <trkpt lat="44.90717" lon="4.86954">
        <ele>111.370889</ele>
        <time>2021-09-15T06:46:18.000Z</time>
      </trkpt>
      <trkpt lat="44.90713" lon="4.8696">
        <ele>111.37547</ele>
        <time>2021-09-15T06:46:19.000Z</time>
      </trkpt>
      <trkpt lat="44.907" lon="4.86978">
        <ele>111.388615</ele>
        <time>2021-09-15T06:46:22.000Z</time>
      </trkpt>
      <trkpt lat="44.90688" lon="4.86999">
        <ele>111.402289</ele>
        <time>2021-09-15T06:46:24.000Z</time>
      </trkpt>
      <trkpt lat="44.90685" lon="4.87007">
        <ele>111.406859</ele>
        <time>2021-09-15T06:46:26.000Z</time>
      </trkpt>
      <trkpt lat="44.90674" lon="4.87035">
        <ele>111.423529</ele>
        <time>2021-09-15T06:46:30.000Z</time>
      </trkpt>
      <trkpt lat="44.90655" lon="4.87078">
        <ele>111.449135</ele>
        <time>2021-09-15T06:46:36.000Z</time>
      </trkpt>
      <trkpt lat="44.90652" lon="4.87084">
        <ele>111.453116</ele>
        <time>2021-09-15T06:46:37.000Z</time>
      </trkpt>
      <trkpt lat="44.90649" lon="4.8709">
        <ele>111.456931</ele>
        <time>2021-09-15T06:46:38.000Z</time>
      </trkpt>
      <trkpt lat="44.90642" lon="4.87104">
        <ele>111.465607</ele>
        <time>2021-09-15T06:46:41.000Z</time>
      </trkpt>
      <trkpt lat="44.90634" lon="4.87115">
        <ele>111.474963</ele>
        <time>2021-09-15T06:46:44.000Z</time>
      </trkpt>
      <trkpt lat="44.9063" lon="4.87119">
        <ele>111.487395</ele>
        <time>2021-09-15T06:46:45.000Z</time>
      </trkpt>
      <trkpt lat="44.90625" lon="4.87139">
        <ele>111.529462</ele>
        <time>2021-09-15T06:46:48.000Z</time>
      </trkpt>
      <trkpt lat="44.90622" lon="4.87162">
        <ele>111.574936</ele>
        <time>2021-09-15T06:46:51.000Z</time>
      </trkpt>
      <trkpt lat="44.90617" lon="4.87199">
        <ele>111.649888</ele>
        <time>2021-09-15T06:46:56.000Z</time>
      </trkpt>
      <trkpt lat="44.90612" lon="4.87238">
        <ele>111.726439</ele>
        <time>2021-09-15T06:47:01.000Z</time>
      </trkpt>
      <trkpt lat="44.90611" lon="4.87245">
        <ele>111.740888</ele>
        <time>2021-09-15T06:47:02.000Z</time>
      </trkpt>
      <trkpt lat="44.90602" lon="4.8725">
        <ele>111.767221</ele>
        <time>2021-09-15T06:47:04.000Z</time>
      </trkpt>
      <trkpt lat="44.90569" lon="4.87221">
        <ele>111.876479</ele>
        <time>2021-09-15T06:47:11.000Z</time>
      </trkpt>
      <trkpt lat="44.90526" lon="4.87185">
        <ele>112.242633</ele>
        <time>2021-09-15T06:47:20.000Z</time>
      </trkpt>
      <trkpt lat="44.9052" lon="4.87175">
        <ele>112.406087</ele>
        <time>2021-09-15T06:47:22.000Z</time>
      </trkpt>
      <trkpt lat="44.90528" lon="4.87162">
        <ele>112.627279</ele>
        <time>2021-09-15T06:47:25.000Z</time>
      </trkpt>
      <trkpt lat="44.90533" lon="4.87153">
        <ele>112.783914</ele>
        <time>2021-09-15T06:47:27.000Z</time>
      </trkpt>
      <trkpt lat="44.90553" lon="4.87121">
        <ele>113.336993</ele>
        <time>2021-09-15T06:47:34.000Z</time>
      </trkpt>
      <trkpt lat="44.9057" lon="4.87093">
        <ele>113.814208</ele>
        <time>2021-09-15T06:47:41.000Z</time>
      </trkpt>
      <trkpt lat="44.90588" lon="4.87064">
        <ele>114.312816</ele>
        <time>2021-09-15T06:47:49.000Z</time>
      </trkpt>
      <trkpt lat="44.9061" lon="4.87029">
        <ele>114.919158</ele>
        <time>2021-09-15T06:47:59.000Z</time>
      </trkpt>
      <trkpt lat="44.90632" lon="4.86993">
        <ele>115.770006</ele>
        <time>2021-09-15T06:48:10.000Z</time>
      </trkpt>
      <trkpt lat="44.9065" lon="4.86964">
        <ele>116.693455</ele>
        <time>2021-09-15T06:48:19.000Z</time>
      </trkpt>
      <trkpt lat="44.90665" lon="4.8694">
        <ele>117.462779</ele>
        <time>2021-09-15T06:48:27.000Z</time>
      </trkpt>
      <trkpt lat="44.90683" lon="4.86912">
        <ele>118.363736</ele>
        <time>2021-09-15T06:48:36.000Z</time>
      </trkpt>
      <trkpt lat="44.90701" lon="4.86883">
        <ele>119.292098</ele>
        <time>2021-09-15T06:48:45.000Z</time>
      </trkpt>
      <trkpt lat="44.90722" lon="4.86849">
        <ele>120.376389</ele>
        <time>2021-09-15T06:48:55.000Z</time>
      </trkpt>
      <trkpt lat="44.90737" lon="4.86826">
        <ele>121.141184</ele>
        <time>2021-09-15T06:49:02.000Z</time>
      </trkpt>
      <trkpt lat="44.90751" lon="4.86804">
        <ele>121.658364</ele>
        <time>2021-09-15T06:49:08.000Z</time>
      </trkpt>
      <trkpt lat="44.90774" lon="4.86767">
        <ele>122.381566</ele>
        <time>2021-09-15T06:49:17.000Z</time>
      </trkpt>
      <trkpt lat="44.90796" lon="4.86732">
        <ele>123.079169</ele>
        <time>2021-09-15T06:49:25.000Z</time>
      </trkpt>
      <trkpt lat="44.90822" lon="4.86692">
        <ele>123.866208</ele>
        <time>2021-09-15T06:49:33.000Z</time>
      </trkpt>
      <trkpt lat="44.90825" lon="4.86687">
        <ele>123.965281</ele>
        <time>2021-09-15T06:49:34.000Z</time>
      </trkpt>
      <trkpt lat="44.90841" lon="4.86662">
        <ele>124.455391</ele>
        <time>2021-09-15T06:49:39.000Z</time>
      </trkpt>
      <trkpt lat="44.90867" lon="4.86619">
        <ele>125.100186</ele>
        <time>2021-09-15T06:49:47.000Z</time>
      </trkpt>
      <trkpt lat="44.90903" lon="4.86563">
        <ele>125.080582</ele>
        <time>2021-09-15T06:49:56.000Z</time>
      </trkpt>
      <trkpt lat="44.90935" lon="4.86513">
        <ele>125.062847</ele>
        <time>2021-09-15T06:50:05.000Z</time>
      </trkpt>
      <trkpt lat="44.90962" lon="4.86469">
        <ele>125.047545</ele>
        <time>2021-09-15T06:50:11.000Z</time>
      </trkpt>
      <trkpt lat="44.90997" lon="4.86421">
        <ele>124.758693</ele>
        <time>2021-09-15T06:50:17.000Z</time>
      </trkpt>
      <trkpt lat="44.9104" lon="4.86374">
        <ele>124.001706</ele>
        <time>2021-09-15T06:50:23.000Z</time>
      </trkpt>
      <trkpt lat="44.91091" lon="4.86331">
        <ele>123.183991</ele>
        <time>2021-09-15T06:50:29.000Z</time>
      </trkpt>
      <trkpt lat="44.91146" lon="4.863">
        <ele>122.381584</ele>
        <time>2021-09-15T06:50:35.000Z</time>
      </trkpt>
      <trkpt lat="44.91192" lon="4.86285">
        <ele>121.811954</ele>
        <time>2021-09-15T06:50:40.000Z</time>
      </trkpt>
      <trkpt lat="44.91243" lon="4.86278">
        <ele>121.189914</ele>
        <time>2021-09-15T06:50:46.000Z</time>
      </trkpt>
      <trkpt lat="44.91299" lon="4.86282">
        <ele>120.516367</ele>
        <time>2021-09-15T06:50:52.000Z</time>
      </trkpt>
      <trkpt lat="44.91348" lon="4.86295">
        <ele>120.133881</ele>
        <time>2021-09-15T06:50:59.000Z</time>
      </trkpt>
      <trkpt lat="44.91406" lon="4.8631">
        <ele>119.77011</ele>
        <time>2021-09-15T06:51:08.000Z</time>
      </trkpt>
      <trkpt lat="44.91418" lon="4.86313">
        <ele>119.692084</ele>
        <time>2021-09-15T06:51:10.000Z</time>
      </trkpt>
      <trkpt lat="44.91468" lon="4.86326">
        <ele>119.380586</ele>
        <time>2021-09-15T06:51:18.000Z</time>
      </trkpt>
      <trkpt lat="44.91516" lon="4.86338">
        <ele>119.078839</ele>
        <time>2021-09-15T06:51:26.000Z</time>
      </trkpt>
      <trkpt lat="44.91557" lon="4.86348">
        <ele>118.821989</ele>
        <time>2021-09-15T06:51:34.000Z</time>
      </trkpt>
      <trkpt lat="44.91605" lon="4.86354">
        <ele>118.5223</ele>
        <time>2021-09-15T06:51:41.000Z</time>
      </trkpt>
      <trkpt lat="44.91628" lon="4.86354">
        <ele>118.378382</ele>
        <time>2021-09-15T06:51:45.000Z</time>
      </trkpt>
      <trkpt lat="44.9165" lon="4.86352">
        <ele>118.242828</ele>
        <time>2021-09-15T06:51:49.000Z</time>
      </trkpt>
      <trkpt lat="44.91666" lon="4.8635">
        <ele>118.147477</ele>
        <time>2021-09-15T06:51:52.000Z</time>
      </trkpt>
      <trkpt lat="44.91674" lon="4.86348">
        <ele>118.031018</ele>
        <time>2021-09-15T06:51:54.000Z</time>
      </trkpt>
      <trkpt lat="44.91674" lon="4.86351">
        <ele>118.003892</ele>
        <time>2021-09-15T06:51:55.000Z</time>
      </trkpt>
      <trkpt lat="44.91673" lon="4.86354">
        <ele>117.966786</ele>
        <time>2021-09-15T06:51:56.000Z</time>
      </trkpt>
      <trkpt lat="44.91665" lon="4.86356">
        <ele>117.849921</ele>
        <time>2021-09-15T06:51:59.000Z</time>
      </trkpt>
      <trkpt lat="44.91658" lon="4.86359">
        <ele>117.73742</ele>
        <time>2021-09-15T06:52:01.000Z</time>
      </trkpt>
      <trkpt lat="44.91649" lon="4.86361">
        <ele>117.607653</ele>
        <time>2021-09-15T06:52:03.000Z</time>
      </trkpt>
      <trkpt lat="44.91644" lon="4.86363">
        <ele>117.535919</ele>
        <time>2021-09-15T06:52:04.000Z</time>
      </trkpt>
      <trkpt lat="44.91638" lon="4.86366">
        <ele>117.457071</ele>
        <time>2021-09-15T06:52:05.000Z</time>
      </trkpt>
      <trkpt lat="44.9162" lon="4.86379">
        <ele>117.164211</ele>
        <time>2021-09-15T06:52:08.000Z</time>
      </trkpt>
      <trkpt lat="44.91598" lon="4.86377">
        <ele>116.850781</ele>
        <time>2021-09-15T06:52:12.000Z</time>
      </trkpt>
      <trkpt lat="44.91545" lon="4.86374">
        <ele>116.103432</ele>
        <time>2021-09-15T06:52:19.000Z</time>
      </trkpt>
      <trkpt lat="44.91544" lon="4.86374">
        <ele>116.083572</ele>
        <time>2021-09-15T06:52:20.000Z</time>
      </trkpt>
      <trkpt lat="44.91534" lon="4.86373">
        <ele>115.942949</ele>
        <time>2021-09-15T06:52:21.000Z</time>
      </trkpt>
      <trkpt lat="44.91547" lon="4.86374">
        <ele>115.762612</ele>
        <time>2021-09-15T06:52:25.000Z</time>
      </trkpt>
      <trkpt lat="44.91547" lon="4.86374">
        <ele>115.754052</ele>
        <time>2021-09-15T06:52:26.000Z</time>
      </trkpt>
      <trkpt lat="44.91535" lon="4.86369">
        <ele>115.571022</ele>
        <time>2021-09-15T06:52:51.000Z</time>
      </trkpt>
      <trkpt lat="44.91541" lon="4.86374">
        <ele>115.482779</ele>
        <time>2021-09-15T06:52:53.000Z</time>
      </trkpt>
      <trkpt lat="44.91527" lon="4.86377">
        <ele>115.314565</ele>
        <time>2021-09-15T06:52:58.000Z</time>
      </trkpt>
      <trkpt lat="44.91501" lon="4.86393">
        <ele>114.96781</ele>
        <time>2021-09-15T06:53:04.000Z</time>
      </trkpt>
      <trkpt lat="44.91477" lon="4.8641">
        <ele>114.632388</ele>
        <time>2021-09-15T06:53:09.000Z</time>
      </trkpt>
      <trkpt lat="44.9147" lon="4.86412">
        <ele>114.552186</ele>
        <time>2021-09-15T06:53:10.000Z</time>
      </trkpt>
      <trkpt lat="44.91465" lon="4.86409">
        <ele>114.485296</ele>
        <time>2021-09-15T06:53:11.000Z</time>
      </trkpt>
      <trkpt lat="44.91444" lon="4.86399">
        <ele>114.218887</ele>
        <time>2021-09-15T06:53:15.000Z</time>
      </trkpt>
      <trkpt lat="44.91416" lon="4.86389">
        <ele>113.863438</ele>
        <time>2021-09-15T06:53:20.000Z</time>
      </trkpt>
      <trkpt lat="44.91393" lon="4.86387">
        <ele>113.579899</ele>
        <time>2021-09-15T06:53:24.000Z</time>
      </trkpt>
      <trkpt lat="44.91382" lon="4.86387">
        <ele>113.449421</ele>
        <time>2021-09-15T06:53:26.000Z</time>
      </trkpt>
      <trkpt lat="44.91376" lon="4.86388">
        <ele>113.392076</ele>
        <time>2021-09-15T06:53:27.000Z</time>
      </trkpt>
      <trkpt lat="44.91365" lon="4.86388">
        <ele>113.313616</ele>
        <time>2021-09-15T06:53:29.000Z</time>
      </trkpt>
      <trkpt lat="44.9136" lon="4.86387">
        <ele>113.271864</ele>
        <time>2021-09-15T06:53:30.000Z</time>
      </trkpt>
      <trkpt lat="44.91354" lon="4.86383">
        <ele>113.228605</ele>
        <time>2021-09-15T06:53:31.000Z</time>
      </trkpt>
      <trkpt lat="44.91338" lon="4.86369">
        <ele>113.095094</ele>
        <time>2021-09-15T06:53:34.000Z</time>
      </trkpt>
      <trkpt lat="44.91327" lon="4.8636">
        <ele>113.009084</ele>
        <time>2021-09-15T06:53:36.000Z</time>
      </trkpt>
      <trkpt lat="44.91305" lon="4.86347">
        <ele>112.839943</ele>
        <time>2021-09-15T06:53:40.000Z</time>
      </trkpt>
      <trkpt lat="44.9127" lon="4.86341">
        <ele>112.590794</ele>
        <time>2021-09-15T06:53:46.000Z</time>
      </trkpt>
      <trkpt lat="44.91224" lon="4.86336">
        <ele>112.265549</ele>
        <time>2021-09-15T06:53:54.000Z</time>
      </trkpt>
      <trkpt lat="44.91184" lon="4.86332">
        <ele>112.097357</ele>
        <time>2021-09-15T06:54:01.000Z</time>
      </trkpt>
      <trkpt lat="44.9116" lon="4.86331">
        <ele>112.055709</ele>
        <time>2021-09-15T06:54:05.000Z</time>
      </trkpt>
      <trkpt lat="44.91155" lon="4.86335">
        <ele>112.04621</ele>
        <time>2021-09-15T06:54:06.000Z</time>
      </trkpt>
      <trkpt lat="44.91152" lon="4.86341">
        <ele>112.036704</ele>
        <time>2021-09-15T06:54:07.000Z</time>
      </trkpt>
      <trkpt lat="44.91149" lon="4.86356">
        <ele>112.016716</ele>
        <time>2021-09-15T06:54:09.000Z</time>
      </trkpt>
      <trkpt lat="44.91143" lon="4.8638">
        <ele>111.985224</ele>
        <time>2021-09-15T06:54:12.000Z</time>
      </trkpt>
      <trkpt lat="44.91138" lon="4.86397">
        <ele>111.963075</ele>
        <time>2021-09-15T06:54:14.000Z</time>
      </trkpt>
      <trkpt lat="44.91127" lon="4.86419">
        <ele>111.930189</ele>
        <time>2021-09-15T06:54:17.000Z</time>
      </trkpt>
      <trkpt lat="44.91123" lon="4.86425">
        <ele>111.919399</ele>
        <time>2021-09-15T06:54:18.000Z</time>
      </trkpt>
      <trkpt lat="44.91115" lon="4.86435">
        <ele>111.900586</ele>
        <time>2021-09-15T06:54:20.000Z</time>
      </trkpt>
      <trkpt lat="44.91105" lon="4.86441">
        <ele>111.881347</ele>
        <time>2021-09-15T06:54:22.000Z</time>
      </trkpt>
      <trkpt lat="44.91071" lon="4.86451">
        <ele>111.81953</ele>
        <time>2021-09-15T06:54:29.000Z</time>
      </trkpt>
      <trkpt lat="44.9106" lon="4.86444">
        <ele>111.775346</ele>
        <time>2021-09-15T06:54:32.000Z</time>
      </trkpt>
      <trkpt lat="44.91048" lon="4.86418">
        <ele>111.694209</ele>
        <time>2021-09-15T06:54:37.000Z</time>
      </trkpt>
      <trkpt lat="44.91032" lon="4.86383">
        <ele>111.587883</ele>
        <time>2021-09-15T06:54:42.000Z</time>
      </trkpt>
      <trkpt lat="44.91029" lon="4.86376">
        <ele>111.56399</ele>
        <time>2021-09-15T06:54:43.000Z</time>
      </trkpt>
      <trkpt lat="44.91016" lon="4.86348">
        <ele>111.475874</ele>
        <time>2021-09-15T06:54:47.000Z</time>
      </trkpt>
      <trkpt lat="44.90997" lon="4.86301">
        <ele>111.337036</ele>
        <time>2021-09-15T06:54:54.000Z</time>
      </trkpt>
      <trkpt lat="44.90993" lon="4.86289">
        <ele>111.301838</ele>
        <time>2021-09-15T06:54:56.000Z</time>
      </trkpt>
      <trkpt lat="44.90988" lon="4.86277">
        <ele>111.266409</ele>
        <time>2021-09-15T06:54:58.000Z</time>
      </trkpt>
      <trkpt lat="44.90986" lon="4.86272">
        <ele>111.249266</ele>
        <time>2021-09-15T06:54:59.000Z</time>
      </trkpt>
      <trkpt lat="44.90979" lon="4.86254">
        <ele>111.195954</ele>
        <time>2021-09-15T06:55:02.000Z</time>
      </trkpt>
      <trkpt lat="44.90977" lon="4.86239">
        <ele>111.155849</ele>
        <time>2021-09-15T06:55:04.000Z</time>
      </trkpt>
      <trkpt lat="44.90971" lon="4.86199">
        <ele>111.032516</ele>
        <time>2021-09-15T06:55:09.000Z</time>
      </trkpt>
      <trkpt lat="44.90972" lon="4.86174">
        <ele>110.954912</ele>
        <time>2021-09-15T06:55:12.000Z</time>
      </trkpt>
      <trkpt lat="44.90972" lon="4.86158">
        <ele>110.905747</ele>
        <time>2021-09-15T06:55:14.000Z</time>
      </trkpt>
      <trkpt lat="44.90974" lon="4.8612">
        <ele>110.788971</ele>
        <time>2021-09-15T06:55:19.000Z</time>
      </trkpt>
      <trkpt lat="44.90974" lon="4.86113">
        <ele>110.767157</ele>
        <time>2021-09-15T06:55:20.000Z</time>
      </trkpt>
      <trkpt lat="44.90975" lon="4.86092">
        <ele>110.702021</ele>
        <time>2021-09-15T06:55:23.000Z</time>
      </trkpt>
      <trkpt lat="44.90977" lon="4.86053">
        <ele>110.581572</ele>
        <time>2021-09-15T06:55:28.000Z</time>
      </trkpt>
      <trkpt lat="44.90977" lon="4.86044">
        <ele>110.556057</ele>
        <time>2021-09-15T06:55:29.000Z</time>
      </trkpt>
      <trkpt lat="44.90979" lon="4.8601">
        <ele>110.451885</ele>
        <time>2021-09-15T06:55:33.000Z</time>
      </trkpt>
      <trkpt lat="44.90979" lon="4.86002">
        <ele>110.426064</ele>
        <time>2021-09-15T06:55:34.000Z</time>
      </trkpt>
      <trkpt lat="44.9098" lon="4.85994">
        <ele>110.40055</ele>
        <time>2021-09-15T06:55:35.000Z</time>
      </trkpt>
      <trkpt lat="44.9098" lon="4.85977">
        <ele>110.370505</ele>
        <time>2021-09-15T06:55:37.000Z</time>
      </trkpt>
      <trkpt lat="44.90981" lon="4.8596">
        <ele>110.355052</ele>
        <time>2021-09-15T06:55:39.000Z</time>
      </trkpt>
      <trkpt lat="44.90982" lon="4.85943">
        <ele>110.33979</ele>
        <time>2021-09-15T06:55:41.000Z</time>
      </trkpt>
      <trkpt lat="44.90983" lon="4.85918">
        <ele>110.316987</ele>
        <time>2021-09-15T06:55:44.000Z</time>
      </trkpt>
      <trkpt lat="44.90984" lon="4.85894">
        <ele>110.294545</ele>
        <time>2021-09-15T06:55:47.000Z</time>
      </trkpt>
      <trkpt lat="44.90985" lon="4.85886">
        <ele>110.287185</ele>
        <time>2021-09-15T06:55:48.000Z</time>
      </trkpt>
      <trkpt lat="44.90985" lon="4.85877">
        <ele>110.279825</ele>
        <time>2021-09-15T06:55:49.000Z</time>
      </trkpt>
      <trkpt lat="44.90987" lon="4.85844">
        <ele>110.249752</ele>
        <time>2021-09-15T06:55:53.000Z</time>
      </trkpt>
      <trkpt lat="44.90988" lon="4.85819">
        <ele>110.226949</ele>
        <time>2021-09-15T06:55:56.000Z</time>
      </trkpt>
      <trkpt lat="44.90989" lon="4.85803">
        <ele>110.21241</ele>
        <time>2021-09-15T06:55:58.000Z</time>
      </trkpt>
      <trkpt lat="44.90989" lon="4.85795">
        <ele>110.204869</ele>
        <time>2021-09-15T06:55:59.000Z</time>
      </trkpt>
      <trkpt lat="44.90991" lon="4.85761">
        <ele>110.174435</ele>
        <time>2021-09-15T06:56:03.000Z</time>
      </trkpt>
      <trkpt lat="44.90993" lon="4.85721">
        <ele>110.144344</ele>
        <time>2021-09-15T06:56:08.000Z</time>
      </trkpt>
      <trkpt lat="44.90994" lon="4.85705">
        <ele>110.138211</ele>
        <time>2021-09-15T06:56:10.000Z</time>
      </trkpt>
      <trkpt lat="44.90995" lon="4.85689">
        <ele>110.131884</ele>
        <time>2021-09-15T06:56:12.000Z</time>
      </trkpt>
      <trkpt lat="44.90998" lon="4.85639">
        <ele>110.112596</ele>
        <time>2021-09-15T06:56:18.000Z</time>
      </trkpt>
      <trkpt lat="44.91004" lon="4.85601">
        <ele>110.097695</ele>
        <time>2021-09-15T06:56:23.000Z</time>
      </trkpt>
      <trkpt lat="44.91007" lon="4.85589">
        <ele>110.092809</ele>
        <time>2021-09-15T06:56:25.000Z</time>
      </trkpt>
      <trkpt lat="44.91015" lon="4.85563">
        <ele>110.081956</ele>
        <time>2021-09-15T06:56:29.000Z</time>
      </trkpt>
      <trkpt lat="44.91031" lon="4.85514">
        <ele>110.061509</ele>
        <time>2021-09-15T06:56:36.000Z</time>
      </trkpt>
      <trkpt lat="44.91035" lon="4.85499">
        <ele>110.055255</ele>
        <time>2021-09-15T06:56:39.000Z</time>
      </trkpt>
      <trkpt lat="44.91033" lon="4.85489">
        <ele>110.050701</ele>
        <time>2021-09-15T06:56:40.000Z</time>
      </trkpt>
      <trkpt lat="44.91031" lon="4.85487">
        <ele>110.047026</ele>
        <time>2021-09-15T06:56:41.000Z</time>
      </trkpt>
      <trkpt lat="44.91024" lon="4.85483">
        <ele>110.037119</ele>
        <time>2021-09-15T06:56:43.000Z</time>
      </trkpt>
      <trkpt lat="44.91" lon="4.85467">
        <ele>110.002606</ele>
        <time>2021-09-15T06:56:48.000Z</time>
      </trkpt>
      <trkpt lat="44.90967" lon="4.85446">
        <ele>109.954311</ele>
        <time>2021-09-15T06:56:54.000Z</time>
      </trkpt>
      <trkpt lat="44.90944" lon="4.85431">
        <ele>109.920277</ele>
        <time>2021-09-15T06:56:58.000Z</time>
      </trkpt>
      <trkpt lat="44.90933" lon="4.85424">
        <ele>109.904214</ele>
        <time>2021-09-15T06:57:00.000Z</time>
      </trkpt>
      <trkpt lat="44.90891" lon="4.85409">
        <ele>109.846863</ele>
        <time>2021-09-15T06:57:07.000Z</time>
      </trkpt>
      <trkpt lat="44.90873" lon="4.85403">
        <ele>109.823162</ele>
        <time>2021-09-15T06:57:10.000Z</time>
      </trkpt>
      <trkpt lat="44.90856" lon="4.85399">
        <ele>109.837711</ele>
        <time>2021-09-15T06:57:13.000Z</time>
      </trkpt>
      <trkpt lat="44.90845" lon="4.85397">
        <ele>109.862644</ele>
        <time>2021-09-15T06:57:15.000Z</time>
      </trkpt>
      <trkpt lat="44.90827" lon="4.85394">
        <ele>109.90128</ele>
        <time>2021-09-15T06:57:18.000Z</time>
      </trkpt>
      <trkpt lat="44.90785" lon="4.85388">
        <ele>109.995361</ele>
        <time>2021-09-15T06:57:25.000Z</time>
      </trkpt>
      <trkpt lat="44.90762" lon="4.85385">
        <ele>110.04806</ele>
        <time>2021-09-15T06:57:29.000Z</time>
      </trkpt>
      <trkpt lat="44.90751" lon="4.85383">
        <ele>110.072515</ele>
        <time>2021-09-15T06:57:31.000Z</time>
      </trkpt>
      <trkpt lat="44.90735" lon="4.85381">
        <ele>110.107721</ele>
        <time>2021-09-15T06:57:34.000Z</time>
      </trkpt>
      <trkpt lat="44.90719" lon="4.85379">
        <ele>110.143329</ele>
        <time>2021-09-15T06:57:37.000Z</time>
      </trkpt>
      <trkpt lat="44.90715" lon="4.85379">
        <ele>110.153605</ele>
        <time>2021-09-15T06:57:38.000Z</time>
      </trkpt>
      <trkpt lat="44.90711" lon="4.85378">
        <ele>110.163206</ele>
        <time>2021-09-15T06:57:39.000Z</time>
      </trkpt>
      <trkpt lat="44.90686" lon="4.85377">
        <ele>110.226373</ele>
        <time>2021-09-15T06:57:43.000Z</time>
      </trkpt>
      <trkpt lat="44.90679" lon="4.85377">
        <ele>110.271829</ele>
        <time>2021-09-15T06:57:44.000Z</time>
      </trkpt>
      <trkpt lat="44.90653" lon="4.85376">
        <ele>110.447548</ele>
        <time>2021-09-15T06:57:48.000Z</time>
      </trkpt>
      <trkpt lat="44.90605" lon="4.85375">
        <ele>110.76749</ele>
        <time>2021-09-15T06:57:56.000Z</time>
      </trkpt>
      <trkpt lat="44.90574" lon="4.85374">
        <ele>110.97321</ele>
        <time>2021-09-15T06:58:02.000Z</time>
      </trkpt>
      <trkpt lat="44.90531" lon="4.85374">
        <ele>111.259081</ele>
        <time>2021-09-15T06:58:11.000Z</time>
      </trkpt>
      <trkpt lat="44.90479" lon="4.85371">
        <ele>111.511201</ele>
        <time>2021-09-15T06:58:21.000Z</time>
      </trkpt>
      <trkpt lat="44.90468" lon="4.85369">
        <ele>111.547029</ele>
        <time>2021-09-15T06:58:23.000Z</time>
      </trkpt>
      <trkpt lat="44.90439" lon="4.85364">
        <ele>111.641691</ele>
        <time>2021-09-15T06:58:28.000Z</time>
      </trkpt>
      <trkpt lat="44.9039" lon="4.85355">
        <ele>111.801879</ele>
        <time>2021-09-15T06:58:36.000Z</time>
      </trkpt>
      <trkpt lat="44.90371" lon="4.8535">
        <ele>111.867203</ele>
        <time>2021-09-15T06:58:39.000Z</time>
      </trkpt>
      <trkpt lat="44.90359" lon="4.85347">
        <ele>111.907842</ele>
        <time>2021-09-15T06:58:41.000Z</time>
      </trkpt>
      <trkpt lat="44.90323" lon="4.85335">
        <ele>112.015596</ele>
        <time>2021-09-15T06:58:47.000Z</time>
      </trkpt>
      <trkpt lat="44.90275" lon="4.85316">
        <ele>112.097613</ele>
        <time>2021-09-15T06:58:55.000Z</time>
      </trkpt>
      <trkpt lat="44.90235" lon="4.85299">
        <ele>112.166908</ele>
        <time>2021-09-15T06:59:02.000Z</time>
      </trkpt>
      <trkpt lat="44.90189" lon="4.85279">
        <ele>112.246166</ele>
        <time>2021-09-15T06:59:10.000Z</time>
      </trkpt>
      <trkpt lat="44.90153" lon="4.85265">
        <ele>112.293141</ele>
        <time>2021-09-15T06:59:16.000Z</time>
      </trkpt>
      <trkpt lat="44.9011" lon="4.85253">
        <ele>112.217586</ele>
        <time>2021-09-15T06:59:23.000Z</time>
      </trkpt>
      <trkpt lat="44.90057" lon="4.85243">
        <ele>112.126168</ele>
        <time>2021-09-15T06:59:31.000Z</time>
      </trkpt>
      <trkpt lat="44.90002" lon="4.85233">
        <ele>112.031679</ele>
        <time>2021-09-15T06:59:40.000Z</time>
      </trkpt>
      <trkpt lat="44.89996" lon="4.85232">
        <ele>112.02138</ele>
        <time>2021-09-15T06:59:41.000Z</time>
      </trkpt>
      <trkpt lat="44.89939" lon="4.85226">
        <ele>111.949572</ele>
        <time>2021-09-15T06:59:50.000Z</time>
      </trkpt>
      <trkpt lat="44.89893" lon="4.85221">
        <ele>111.901658</ele>
        <time>2021-09-15T06:59:57.000Z</time>
      </trkpt>
      <trkpt lat="44.89848" lon="4.85217">
        <ele>111.853848</ele>
        <time>2021-09-15T07:00:04.000Z</time>
      </trkpt>
      <trkpt lat="44.8979" lon="4.8521">
        <ele>111.810747</ele>
        <time>2021-09-15T07:00:13.000Z</time>
      </trkpt>
      <trkpt lat="44.89734" lon="4.85205">
        <ele>111.858575</ele>
        <time>2021-09-15T07:00:22.000Z</time>
      </trkpt>
      <trkpt lat="44.89727" lon="4.85204">
        <ele>111.863892</ele>
        <time>2021-09-15T07:00:23.000Z</time>
      </trkpt>
      <trkpt lat="44.8967" lon="4.85198">
        <ele>111.912634</ele>
        <time>2021-09-15T07:00:32.000Z</time>
      </trkpt>
      <trkpt lat="44.89663" lon="4.85198">
        <ele>111.917942</ele>
        <time>2021-09-15T07:00:33.000Z</time>
      </trkpt>
      <trkpt lat="44.89608" lon="4.85193">
        <ele>111.980431</ele>
        <time>2021-09-15T07:00:42.000Z</time>
      </trkpt>
      <trkpt lat="44.89552" lon="4.85188">
        <ele>112.095456</ele>
        <time>2021-09-15T07:00:51.000Z</time>
      </trkpt>
      <trkpt lat="44.89497" lon="4.85183">
        <ele>112.208208</ele>
        <time>2021-09-15T07:01:00.000Z</time>
      </trkpt>
      <trkpt lat="44.89485" lon="4.85182">
        <ele>112.231668</ele>
        <time>2021-09-15T07:01:02.000Z</time>
      </trkpt>
      <trkpt lat="44.89441" lon="4.85179">
        <ele>112.32361</ele>
        <time>2021-09-15T07:01:10.000Z</time>
      </trkpt>
      <trkpt lat="44.89392" lon="4.85177">
        <ele>112.121608</ele>
        <time>2021-09-15T07:01:18.000Z</time>
      </trkpt>
      <trkpt lat="44.89347" lon="4.85175">
        <ele>111.936014</ele>
        <time>2021-09-15T07:01:25.000Z</time>
      </trkpt>
      <trkpt lat="44.89295" lon="4.85173">
        <ele>111.721081</ele>
        <time>2021-09-15T07:01:32.000Z</time>
      </trkpt>
      <trkpt lat="44.89235" lon="4.85177">
        <ele>111.429317</ele>
        <time>2021-09-15T07:01:40.000Z</time>
      </trkpt>
      <trkpt lat="44.89177" lon="4.85191">
        <ele>111.082555</ele>
        <time>2021-09-15T07:01:48.000Z</time>
      </trkpt>
      <trkpt lat="44.89163" lon="4.85195">
        <ele>110.998305</ele>
        <time>2021-09-15T07:01:50.000Z</time>
      </trkpt>
      <trkpt lat="44.89107" lon="4.85207">
        <ele>110.665422</ele>
        <time>2021-09-15T07:01:58.000Z</time>
      </trkpt>
      <trkpt lat="44.891" lon="4.85209">
        <ele>110.623876</ele>
        <time>2021-09-15T07:01:59.000Z</time>
      </trkpt>
      <trkpt lat="44.89047" lon="4.85221">
        <ele>110.444877</ele>
        <time>2021-09-15T07:02:07.000Z</time>
      </trkpt>
      <trkpt lat="44.89003" lon="4.85231">
        <ele>110.347102</ele>
        <time>2021-09-15T07:02:14.000Z</time>
      </trkpt>
      <trkpt lat="44.88992" lon="4.85233">
        <ele>110.323063</ele>
        <time>2021-09-15T07:02:16.000Z</time>
      </trkpt>
      <trkpt lat="44.88982" lon="4.85235">
        <ele>110.300134</ele>
        <time>2021-09-15T07:02:18.000Z</time>
      </trkpt>
      <trkpt lat="44.88974" lon="4.85235">
        <ele>110.281183</ele>
        <time>2021-09-15T07:02:20.000Z</time>
      </trkpt>
      <trkpt lat="44.88967" lon="4.85232">
        <ele>110.265268</ele>
        <time>2021-09-15T07:02:22.000Z</time>
      </trkpt>
      <trkpt lat="44.88961" lon="4.8524">
        <ele>110.248848</ele>
        <time>2021-09-15T07:02:23.000Z</time>
      </trkpt>
      <trkpt lat="44.88953" lon="4.85244">
        <ele>110.228775</ele>
        <time>2021-09-15T07:02:25.000Z</time>
      </trkpt>
      <trkpt lat="44.88944" lon="4.85246">
        <ele>110.208571</ele>
        <time>2021-09-15T07:02:27.000Z</time>
      </trkpt>
      <trkpt lat="44.88939" lon="4.85247">
        <ele>110.197725</ele>
        <time>2021-09-15T07:02:28.000Z</time>
      </trkpt>
      <trkpt lat="44.88934" lon="4.85247">
        <ele>110.186287</ele>
        <time>2021-09-15T07:02:29.000Z</time>
      </trkpt>
      <trkpt lat="44.88923" lon="4.85251">
        <ele>110.162714</ele>
        <time>2021-09-15T07:02:31.000Z</time>
      </trkpt>
      <trkpt lat="44.88913" lon="4.85256">
        <ele>110.138717</ele>
        <time>2021-09-15T07:02:33.000Z</time>
      </trkpt>
      <trkpt lat="44.88908" lon="4.85258">
        <ele>110.136887</ele>
        <time>2021-09-15T07:02:34.000Z</time>
      </trkpt>
      <trkpt lat="44.88891" lon="4.85264">
        <ele>110.223629</ele>
        <time>2021-09-15T07:02:37.000Z</time>
      </trkpt>
      <trkpt lat="44.88864" lon="4.85276">
        <ele>110.371782</ele>
        <time>2021-09-15T07:02:42.000Z</time>
      </trkpt>
      <trkpt lat="44.88852" lon="4.8528">
        <ele>110.430826</ele>
        <time>2021-09-15T07:02:44.000Z</time>
      </trkpt>
      <trkpt lat="44.88843" lon="4.85284">
        <ele>110.483562</ele>
        <time>2021-09-15T07:02:46.000Z</time>
      </trkpt>
      <trkpt lat="44.88838" lon="4.85286">
        <ele>110.509091</ele>
        <time>2021-09-15T07:02:47.000Z</time>
      </trkpt>
      <trkpt lat="44.88828" lon="4.8529">
        <ele>110.562912</ele>
        <time>2021-09-15T07:02:49.000Z</time>
      </trkpt>
      <trkpt lat="44.88817" lon="4.85294">
        <ele>110.618901</ele>
        <time>2021-09-15T07:02:50.000Z</time>
      </trkpt>
      <trkpt lat="44.88803" lon="4.853">
        <ele>110.696082</ele>
        <time>2021-09-15T07:02:54.000Z</time>
      </trkpt>
      <trkpt lat="44.88792" lon="4.85306">
        <ele>110.756448</ele>
        <time>2021-09-15T07:02:55.000Z</time>
      </trkpt>
      <trkpt lat="44.88786" lon="4.85309">
        <ele>110.787477</ele>
        <time>2021-09-15T07:02:57.000Z</time>
      </trkpt>
      <trkpt lat="44.88752" lon="4.85326">
        <ele>110.974629</ele>
        <time>2021-09-15T07:03:02.000Z</time>
      </trkpt>
      <trkpt lat="44.88735" lon="4.85335">
        <ele>111.060319</ele>
        <time>2021-09-15T07:03:05.000Z</time>
      </trkpt>
      <trkpt lat="44.88716" lon="4.85345">
        <ele>111.117156</ele>
        <time>2021-09-15T07:03:08.000Z</time>
      </trkpt>
      <trkpt lat="44.887" lon="4.85355">
        <ele>111.170582</ele>
        <time>2021-09-15T07:03:11.000Z</time>
      </trkpt>
      <trkpt lat="44.88689" lon="4.85363">
        <ele>111.205262</ele>
        <time>2021-09-15T07:03:13.000Z</time>
      </trkpt>
      <trkpt lat="44.88664" lon="4.85381">
        <ele>111.289566</ele>
        <time>2021-09-15T07:03:18.000Z</time>
      </trkpt>
      <trkpt lat="44.88648" lon="4.85392">
        <ele>111.341145</ele>
        <time>2021-09-15T07:03:21.000Z</time>
      </trkpt>
      <trkpt lat="44.88639" lon="4.85399">
        <ele>111.371916</ele>
        <time>2021-09-15T07:03:23.000Z</time>
      </trkpt>
      <trkpt lat="44.88612" lon="4.85418">
        <ele>111.462085</ele>
        <time>2021-09-15T07:03:28.000Z</time>
      </trkpt>
      <trkpt lat="44.88576" lon="4.85445">
        <ele>111.579929</ele>
        <time>2021-09-15T07:03:35.000Z</time>
      </trkpt>
      <trkpt lat="44.88545" lon="4.85467">
        <ele>111.491435</ele>
        <time>2021-09-15T07:03:42.000Z</time>
      </trkpt>
      <trkpt lat="44.88527" lon="4.85468">
        <ele>111.446668</ele>
        <time>2021-09-15T07:03:44.000Z</time>
      </trkpt>
      <trkpt lat="44.88522" lon="4.85468">
        <ele>111.431502</ele>
        <time>2021-09-15T07:03:45.000Z</time>
      </trkpt>
      <trkpt lat="44.88515" lon="4.85467">
        <ele>111.41582</ele>
        <time>2021-09-15T07:03:46.000Z</time>
      </trkpt>
      <trkpt lat="44.88503" lon="4.85467">
        <ele>111.383687</ele>
        <time>2021-09-15T07:03:48.000Z</time>
      </trkpt>
      <trkpt lat="44.88497" lon="4.85469">
        <ele>111.367993</ele>
        <time>2021-09-15T07:03:49.000Z</time>
      </trkpt>
      <trkpt lat="44.88484" lon="4.85473">
        <ele>111.334548</ele>
        <time>2021-09-15T07:03:51.000Z</time>
      </trkpt>
      <trkpt lat="44.88466" lon="4.85479">
        <ele>111.286301</ele>
        <time>2021-09-15T07:03:54.000Z</time>
      </trkpt>
      <trkpt lat="44.8846" lon="4.85481">
        <ele>111.269413</ele>
        <time>2021-09-15T07:03:55.000Z</time>
      </trkpt>
      <trkpt lat="44.88432" lon="4.85487">
        <ele>111.198508</ele>
        <time>2021-09-15T07:03:59.000Z</time>
      </trkpt>
      <trkpt lat="44.88397" lon="4.8549">
        <ele>111.108071</ele>
        <time>2021-09-15T07:04:05.000Z</time>
      </trkpt>
      <trkpt lat="44.88378" lon="4.85492">
        <ele>111.064766</ele>
        <time>2021-09-15T07:04:09.000Z</time>
      </trkpt>
      <trkpt lat="44.88367" lon="4.85493">
        <ele>111.040356</ele>
        <time>2021-09-15T07:04:11.000Z</time>
      </trkpt>
      <trkpt lat="44.88332" lon="4.85496">
        <ele>110.959981</ele>
        <time>2021-09-15T07:04:17.000Z</time>
      </trkpt>
      <trkpt lat="44.88315" lon="4.85493">
        <ele>110.918792</ele>
        <time>2021-09-15T07:04:20.000Z</time>
      </trkpt>
      <trkpt lat="44.88302" lon="4.85489">
        <ele>110.889925</ele>
        <time>2021-09-15T07:04:22.000Z</time>
      </trkpt>
      <trkpt lat="44.88263" lon="4.85466">
        <ele>110.79213</ele>
        <time>2021-09-15T07:04:29.000Z</time>
      </trkpt>
      <trkpt lat="44.88221" lon="4.85443">
        <ele>110.671245</ele>
        <time>2021-09-15T07:04:36.000Z</time>
      </trkpt>
      <trkpt lat="44.88175" lon="4.85418">
        <ele>110.422972</ele>
        <time>2021-09-15T07:04:44.000Z</time>
      </trkpt>
      <trkpt lat="44.88138" lon="4.85409">
        <ele>110.239869</ele>
        <time>2021-09-15T07:04:50.000Z</time>
      </trkpt>
      <trkpt lat="44.88101" lon="4.85399">
        <ele>110.051698</ele>
        <time>2021-09-15T07:04:56.000Z</time>
      </trkpt>
      <trkpt lat="44.88095" lon="4.85398">
        <ele>110.022453</ele>
        <time>2021-09-15T07:04:57.000Z</time>
      </trkpt>
      <trkpt lat="44.88091" lon="4.8539">
        <ele>109.98706</ele>
        <time>2021-09-15T07:04:58.000Z</time>
      </trkpt>
      <trkpt lat="44.88084" lon="4.85377">
        <ele>109.931718</ele>
        <time>2021-09-15T07:05:00.000Z</time>
      </trkpt>
      <trkpt lat="44.88081" lon="4.85371">
        <ele>109.904191</ele>
        <time>2021-09-15T07:05:01.000Z</time>
      </trkpt>
      <trkpt lat="44.88072" lon="4.85353">
        <ele>109.829639</ele>
        <time>2021-09-15T07:05:04.000Z</time>
      </trkpt>
      <trkpt lat="44.88062" lon="4.85333">
        <ele>109.77831</ele>
        <time>2021-09-15T07:05:07.000Z</time>
      </trkpt>
      <trkpt lat="44.88058" lon="4.85326">
        <ele>109.763072</ele>
        <time>2021-09-15T07:05:08.000Z</time>
      </trkpt>
      <trkpt lat="44.88055" lon="4.85319">
        <ele>109.747834</ele>
        <time>2021-09-15T07:05:09.000Z</time>
      </trkpt>
      <trkpt lat="44.88041" lon="4.85292">
        <ele>109.690126</ele>
        <time>2021-09-15T07:05:13.000Z</time>
      </trkpt>
      <trkpt lat="44.88027" lon="4.85263">
        <ele>109.629172</ele>
        <time>2021-09-15T07:05:17.000Z</time>
      </trkpt>
      <trkpt lat="44.88023" lon="4.85255">
        <ele>109.612664</ele>
        <time>2021-09-15T07:05:18.000Z</time>
      </trkpt>
      <trkpt lat="44.88005" lon="4.85238">
        <ele>109.559419</ele>
        <time>2021-09-15T07:05:21.000Z</time>
      </trkpt>
      <trkpt lat="44.87992" lon="4.85238">
        <ele>109.52889</ele>
        <time>2021-09-15T07:05:23.000Z</time>
      </trkpt>
      <trkpt lat="44.87974" lon="4.8524">
        <ele>109.48345</ele>
        <time>2021-09-15T07:05:26.000Z</time>
      </trkpt>
      <trkpt lat="44.87962" lon="4.85238">
        <ele>109.455173</ele>
        <time>2021-09-15T07:05:28.000Z</time>
      </trkpt>
      <trkpt lat="44.87952" lon="4.85229">
        <ele>109.426099</ele>
        <time>2021-09-15T07:05:30.000Z</time>
      </trkpt>
      <trkpt lat="44.87945" lon="4.85218">
        <ele>109.400041</ele>
        <time>2021-09-15T07:05:32.000Z</time>
      </trkpt>
      <trkpt lat="44.8794" lon="4.85203">
        <ele>109.39394</ele>
        <time>2021-09-15T07:05:34.000Z</time>
      </trkpt>
      <trkpt lat="44.87938" lon="4.85195">
        <ele>109.498501</ele>
        <time>2021-09-15T07:05:35.000Z</time>
      </trkpt>
      <trkpt lat="44.87938" lon="4.85184">
        <ele>109.621632</ele>
        <time>2021-09-15T07:05:36.000Z</time>
      </trkpt>
      <trkpt lat="44.87939" lon="4.85152">
        <ele>110.020425</ele>
        <time>2021-09-15T07:05:40.000Z</time>
      </trkpt>
      <trkpt lat="44.87944" lon="4.85139">
        <ele>110.203252</ele>
        <time>2021-09-15T07:05:42.000Z</time>
      </trkpt>
      <trkpt lat="44.87947" lon="4.85136">
        <ele>110.267216</ele>
        <time>2021-09-15T07:05:43.000Z</time>
      </trkpt>
      <trkpt lat="44.87961" lon="4.85121">
        <ele>110.57578</ele>
        <time>2021-09-15T07:05:48.000Z</time>
      </trkpt>
      <trkpt lat="44.87965" lon="4.85117">
        <ele>110.646795</ele>
        <time>2021-09-15T07:05:49.000Z</time>
      </trkpt>
      <trkpt lat="44.87972" lon="4.8511">
        <ele>110.7972</ele>
        <time>2021-09-15T07:05:51.000Z</time>
      </trkpt>
      <trkpt lat="44.87983" lon="4.851">
        <ele>111.021798</ele>
        <time>2021-09-15T07:05:54.000Z</time>
      </trkpt>
      <trkpt lat="44.87987" lon="4.85097">
        <ele>111.095207</ele>
        <time>2021-09-15T07:05:55.000Z</time>
      </trkpt>
      <trkpt lat="44.88001" lon="4.85085">
        <ele>111.387097</ele>
        <time>2021-09-15T07:05:59.000Z</time>
      </trkpt>
      <trkpt lat="44.88024" lon="4.85071">
        <ele>111.820549</ele>
        <time>2021-09-15T07:06:05.000Z</time>
      </trkpt>
      <trkpt lat="44.88042" lon="4.85071">
        <ele>112.128485</ele>
        <time>2021-09-15T07:06:10.000Z</time>
      </trkpt>
      <trkpt lat="44.88059" lon="4.85072">
        <ele>112.426347</ele>
        <time>2021-09-15T07:06:16.000Z</time>
      </trkpt>
      <trkpt lat="44.88069" lon="4.85067">
        <ele>112.566341</ele>
        <time>2021-09-15T07:06:19.000Z</time>
      </trkpt>
      <trkpt lat="44.8807" lon="4.85066">
        <ele>112.578002</ele>
        <time>2021-09-15T07:06:20.000Z</time>
      </trkpt>
      <trkpt lat="44.88058" lon="4.85064">
        <ele>112.727773</ele>
        <time>2021-09-15T07:06:24.000Z</time>
      </trkpt>
      <trkpt lat="44.88037" lon="4.8506">
        <ele>112.983268</ele>
        <time>2021-09-15T07:06:30.000Z</time>
      </trkpt>
      <trkpt lat="44.8801" lon="4.85055">
        <ele>113.325917</ele>
        <time>2021-09-15T07:06:37.000Z</time>
      </trkpt>
      <trkpt lat="44.87974" lon="4.85046">
        <ele>113.777176</ele>
        <time>2021-09-15T07:06:45.000Z</time>
      </trkpt>
      <trkpt lat="44.87933" lon="4.85036">
        <ele>114.280883</ele>
        <time>2021-09-15T07:06:53.000Z</time>
      </trkpt>
      <trkpt lat="44.8789" lon="4.85026">
        <ele>114.659461</ele>
        <time>2021-09-15T07:07:01.000Z</time>
      </trkpt>
      <trkpt lat="44.87852" lon="4.85013">
        <ele>114.578789</ele>
        <time>2021-09-15T07:07:08.000Z</time>
      </trkpt>
      <trkpt lat="44.87818" lon="4.85004">
        <ele>114.507748</ele>
        <time>2021-09-15T07:07:14.000Z</time>
      </trkpt>
      <trkpt lat="44.87777" lon="4.84999">
        <ele>114.423265</ele>
        <time>2021-09-15T07:07:21.000Z</time>
      </trkpt>
      <trkpt lat="44.87759" lon="4.85002">
        <ele>114.385803</ele>
        <time>2021-09-15T07:07:24.000Z</time>
      </trkpt>
      <trkpt lat="44.87747" lon="4.85008">
        <ele>114.360796</ele>
        <time>2021-09-15T07:07:26.000Z</time>
      </trkpt>
      <trkpt lat="44.87708" lon="4.85026">
        <ele>114.292555</ele>
        <time>2021-09-15T07:07:33.000Z</time>
      </trkpt>
      <trkpt lat="44.87702" lon="4.85028">
        <ele>114.286119</ele>
        <time>2021-09-15T07:07:34.000Z</time>
      </trkpt>
      <trkpt lat="44.87685" lon="4.85036">
        <ele>114.26609</ele>
        <time>2021-09-15T07:07:37.000Z</time>
      </trkpt>
      <trkpt lat="44.87643" lon="4.85053">
        <ele>114.21578</ele>
        <time>2021-09-15T07:07:45.000Z</time>
      </trkpt>
      <trkpt lat="44.8761" lon="4.8506">
        <ele>114.178236</ele>
        <time>2021-09-15T07:07:51.000Z</time>
      </trkpt>
      <trkpt lat="44.87581" lon="4.8506">
        <ele>114.146071</ele>
        <time>2021-09-15T07:07:56.000Z</time>
      </trkpt>
      <trkpt lat="44.87535" lon="4.85059">
        <ele>114.059233</ele>
        <time>2021-09-15T07:08:04.000Z</time>
      </trkpt>
      <trkpt lat="44.87499" lon="4.85054">
        <ele>113.933453</ele>
        <time>2021-09-15T07:08:10.000Z</time>
      </trkpt>
      <trkpt lat="44.87463" lon="4.85044">
        <ele>113.806884</ele>
        <time>2021-09-15T07:08:17.000Z</time>
      </trkpt>
      <trkpt lat="44.87411" lon="4.85028">
        <ele>113.619085</ele>
        <time>2021-09-15T07:08:25.000Z</time>
      </trkpt>
      <trkpt lat="44.87365" lon="4.85014">
        <ele>113.476554</ele>
        <time>2021-09-15T07:08:33.000Z</time>
      </trkpt>
      <trkpt lat="44.8734" lon="4.85003">
        <ele>113.456521</ele>
        <time>2021-09-15T07:08:37.000Z</time>
      </trkpt>
      <trkpt lat="44.87324" lon="4.8499">
        <ele>113.442147</ele>
        <time>2021-09-15T07:08:40.000Z</time>
      </trkpt>
      <trkpt lat="44.87313" lon="4.84981">
        <ele>113.432748</ele>
        <time>2021-09-15T07:08:42.000Z</time>
      </trkpt>
      <trkpt lat="44.87292" lon="4.84966">
        <ele>113.414259</ele>
        <time>2021-09-15T07:08:46.000Z</time>
      </trkpt>
      <trkpt lat="44.87286" lon="4.84964">
        <ele>113.409654</ele>
        <time>2021-09-15T07:08:47.000Z</time>
      </trkpt>
      <trkpt lat="44.87264" lon="4.84957">
        <ele>113.392628</ele>
        <time>2021-09-15T07:08:51.000Z</time>
      </trkpt>
      <trkpt lat="44.87252" lon="4.84954">
        <ele>113.38317</ele>
        <time>2021-09-15T07:08:53.000Z</time>
      </trkpt>
      <trkpt lat="44.87217" lon="4.84945">
        <ele>113.355479</ele>
        <time>2021-09-15T07:08:59.000Z</time>
      </trkpt>
      <trkpt lat="44.87173" lon="4.8493">
        <ele>113.105367</ele>
        <time>2021-09-15T07:09:06.000Z</time>
      </trkpt>
      <trkpt lat="44.8714" lon="4.84921">
        <ele>112.849683</ele>
        <time>2021-09-15T07:09:11.000Z</time>
      </trkpt>
      <trkpt lat="44.87108" lon="4.84915">
        <ele>112.59437</ele>
        <time>2021-09-15T07:09:16.000Z</time>
      </trkpt>
      <trkpt lat="44.87085" lon="4.84911">
        <ele>112.417181</ele>
        <time>2021-09-15T07:09:20.000Z</time>
      </trkpt>
      <trkpt lat="44.87062" lon="4.84906">
        <ele>112.235244</ele>
        <time>2021-09-15T07:09:24.000Z</time>
      </trkpt>
      <trkpt lat="44.87026" lon="4.84899">
        <ele>111.955182</ele>
        <time>2021-09-15T07:09:30.000Z</time>
      </trkpt>
      <trkpt lat="44.87002" lon="4.84894">
        <ele>111.852613</ele>
        <time>2021-09-15T07:09:34.000Z</time>
      </trkpt>
      <trkpt lat="44.86972" lon="4.84887">
        <ele>111.723662</ele>
        <time>2021-09-15T07:09:39.000Z</time>
      </trkpt>
      <trkpt lat="44.8693" lon="4.84874">
        <ele>111.547143</ele>
        <time>2021-09-15T07:09:46.000Z</time>
      </trkpt>
      <trkpt lat="44.86914" lon="4.84863">
        <ele>111.473879</ele>
        <time>2021-09-15T07:09:49.000Z</time>
      </trkpt>
      <trkpt lat="44.86903" lon="4.84863">
        <ele>111.427976</ele>
        <time>2021-09-15T07:09:51.000Z</time>
      </trkpt>
      <trkpt lat="44.86893" lon="4.84863">
        <ele>111.385411</ele>
        <time>2021-09-15T07:09:53.000Z</time>
      </trkpt>
      <trkpt lat="44.86888" lon="4.84862">
        <ele>111.364886</ele>
        <time>2021-09-15T07:09:54.000Z</time>
      </trkpt>
      <trkpt lat="44.86885" lon="4.8486">
        <ele>111.35028</ele>
        <time>2021-09-15T07:09:55.000Z</time>
      </trkpt>
      <trkpt lat="44.86888" lon="4.84851">
        <ele>111.318458</ele>
        <time>2021-09-15T07:09:56.000Z</time>
      </trkpt>
      <trkpt lat="44.86899" lon="4.84829">
        <ele>111.240983</ele>
        <time>2021-09-15T07:10:00.000Z</time>
      </trkpt>
      <trkpt lat="44.86918" lon="4.84788">
        <ele>111.188436</ele>
        <time>2021-09-15T07:10:07.000Z</time>
      </trkpt>
      <trkpt lat="44.86945" lon="4.84733">
        <ele>111.164361</ele>
        <time>2021-09-15T07:10:16.000Z</time>
      </trkpt>
      <trkpt lat="44.86974" lon="4.84673">
        <ele>111.138621</ele>
        <time>2021-09-15T07:10:26.000Z</time>
      </trkpt>
      <trkpt lat="44.86993" lon="4.84632">
        <ele>111.120769</ele>
        <time>2021-09-15T07:10:33.000Z</time>
      </trkpt>
      <trkpt lat="44.87019" lon="4.84579">
        <ele>111.193105</ele>
        <time>2021-09-15T07:10:42.000Z</time>
      </trkpt>
      <trkpt lat="44.87042" lon="4.84536">
        <ele>111.318428</ele>
        <time>2021-09-15T07:10:50.000Z</time>
      </trkpt>
      <trkpt lat="44.87044" lon="4.84531">
        <ele>111.333076</ele>
        <time>2021-09-15T07:10:51.000Z</time>
      </trkpt>
      <trkpt lat="44.87073" lon="4.84479">
        <ele>111.489074</ele>
        <time>2021-09-15T07:11:01.000Z</time>
      </trkpt>
      <trkpt lat="44.87078" lon="4.84468">
        <ele>111.519737</ele>
        <time>2021-09-15T07:11:03.000Z</time>
      </trkpt>
      <trkpt lat="44.87083" lon="4.84459">
        <ele>111.546731</ele>
        <time>2021-09-15T07:11:05.000Z</time>
      </trkpt>
      <trkpt lat="44.87076" lon="4.84448">
        <ele>111.580989</ele>
        <time>2021-09-15T07:11:07.000Z</time>
      </trkpt>
      <trkpt lat="44.87072" lon="4.84445">
        <ele>111.596785</ele>
        <time>2021-09-15T07:11:08.000Z</time>
      </trkpt>
      <trkpt lat="44.87051" lon="4.84424">
        <ele>111.684096</ele>
        <time>2021-09-15T07:11:14.000Z</time>
      </trkpt>
      <trkpt lat="44.87007" lon="4.84388">
        <ele>111.784514</ele>
        <time>2021-09-15T07:11:23.000Z</time>
      </trkpt>
      <trkpt lat="44.8696" lon="4.84351">
        <ele>111.876991</ele>
        <time>2021-09-15T07:11:31.000Z</time>
      </trkpt>
      <trkpt lat="44.86912" lon="4.84313">
        <ele>111.972812</ele>
        <time>2021-09-15T07:11:40.000Z</time>
      </trkpt>
      <trkpt lat="44.86874" lon="4.84283">
        <ele>112.047609</ele>
        <time>2021-09-15T07:11:47.000Z</time>
      </trkpt>
      <trkpt lat="44.86836" lon="4.84253">
        <ele>112.125771</ele>
        <time>2021-09-15T07:11:54.000Z</time>
      </trkpt>
      <trkpt lat="44.86786" lon="4.84213">
        <ele>112.228749</ele>
        <time>2021-09-15T07:12:03.000Z</time>
      </trkpt>
      <trkpt lat="44.86743" lon="4.84179">
        <ele>112.318398</ele>
        <time>2021-09-15T07:12:11.000Z</time>
      </trkpt>
      <trkpt lat="44.86701" lon="4.84145">
        <ele>112.368783</ele>
        <time>2021-09-15T07:12:19.000Z</time>
      </trkpt>
      <trkpt lat="44.86669" lon="4.8412">
        <ele>112.395902</ele>
        <time>2021-09-15T07:12:25.000Z</time>
      </trkpt>
      <trkpt lat="44.86618" lon="4.84084">
        <ele>112.438782</ele>
        <time>2021-09-15T07:12:34.000Z</time>
      </trkpt>
      <trkpt lat="44.86593" lon="4.84067">
        <ele>112.45976</ele>
        <time>2021-09-15T07:12:39.000Z</time>
      </trkpt>
      <trkpt lat="44.86584" lon="4.84063">
        <ele>112.46691</ele>
        <time>2021-09-15T07:12:41.000Z</time>
      </trkpt>
      <trkpt lat="44.8657" lon="4.84052">
        <ele>112.481103</ele>
        <time>2021-09-15T07:12:44.000Z</time>
      </trkpt>
      <trkpt lat="44.86527" lon="4.84017">
        <ele>112.590113</ele>
        <time>2021-09-15T07:12:53.000Z</time>
      </trkpt>
      <trkpt lat="44.865" lon="4.83995">
        <ele>112.661595</ele>
        <time>2021-09-15T07:12:59.000Z</time>
      </trkpt>
      <trkpt lat="44.8649" lon="4.83987">
        <ele>112.687314</ele>
        <time>2021-09-15T07:13:01.000Z</time>
      </trkpt>
      <trkpt lat="44.86451" lon="4.83955">
        <ele>112.786884</ele>
        <time>2021-09-15T07:13:09.000Z</time>
      </trkpt>
      <trkpt lat="44.86432" lon="4.8394">
        <ele>112.835678</ele>
        <time>2021-09-15T07:13:13.000Z</time>
      </trkpt>
      <trkpt lat="44.86422" lon="4.83932">
        <ele>112.861669</ele>
        <time>2021-09-15T07:13:15.000Z</time>
      </trkpt>
      <trkpt lat="44.86377" lon="4.83896">
        <ele>112.998559</ele>
        <time>2021-09-15T07:13:24.000Z</time>
      </trkpt>
      <trkpt lat="44.86343" lon="4.83864">
        <ele>113.1084</ele>
        <time>2021-09-15T07:13:31.000Z</time>
      </trkpt>
      <trkpt lat="44.86338" lon="4.83861">
        <ele>113.123229</ele>
        <time>2021-09-15T07:13:32.000Z</time>
      </trkpt>
      <trkpt lat="44.86318" lon="4.83849">
        <ele>113.182394</ele>
        <time>2021-09-15T07:13:36.000Z</time>
      </trkpt>
      <trkpt lat="44.86313" lon="4.83846">
        <ele>113.198015</ele>
        <time>2021-09-15T07:13:37.000Z</time>
      </trkpt>
      <trkpt lat="44.86279" lon="4.83818">
        <ele>113.302763</ele>
        <time>2021-09-15T07:13:44.000Z</time>
      </trkpt>
      <trkpt lat="44.86243" lon="4.83789">
        <ele>113.463362</ele>
        <time>2021-09-15T07:13:52.000Z</time>
      </trkpt>
      <trkpt lat="44.86218" lon="4.83768">
        <ele>113.619626</ele>
        <time>2021-09-15T07:13:58.000Z</time>
      </trkpt>
      <trkpt lat="44.86214" lon="4.83765">
        <ele>113.645037</ele>
        <time>2021-09-15T07:13:59.000Z</time>
      </trkpt>
      <trkpt lat="44.86197" lon="4.83749">
        <ele>113.7547</ele>
        <time>2021-09-15T07:14:03.000Z</time>
      </trkpt>
      <trkpt lat="44.86184" lon="4.83743">
        <ele>113.825753</ele>
        <time>2021-09-15T07:14:05.000Z</time>
      </trkpt>
      <trkpt lat="44.86176" lon="4.83751">
        <ele>113.879263</ele>
        <time>2021-09-15T07:14:07.000Z</time>
      </trkpt>
      <trkpt lat="44.86172" lon="4.83756">
        <ele>113.906335</ele>
        <time>2021-09-15T07:14:08.000Z</time>
      </trkpt>
      <trkpt lat="44.86162" lon="4.83768">
        <ele>113.978371</ele>
        <time>2021-09-15T07:14:12.000Z</time>
      </trkpt>
      <trkpt lat="44.86152" lon="4.83771">
        <ele>114.032633</ele>
        <time>2021-09-15T07:14:13.000Z</time>
      </trkpt>
      <trkpt lat="44.86137" lon="4.83757">
        <ele>114.129829</ele>
        <time>2021-09-15T07:14:17.000Z</time>
      </trkpt>
      <trkpt lat="44.86106" lon="4.83728">
        <ele>114.327789</ele>
        <time>2021-09-15T07:14:25.000Z</time>
      </trkpt>
      <trkpt lat="44.86079" lon="4.83702">
        <ele>114.666092</ele>
        <time>2021-09-15T07:14:32.000Z</time>
      </trkpt>
      <trkpt lat="44.86071" lon="4.83688">
        <ele>114.803528</ele>
        <time>2021-09-15T07:14:35.000Z</time>
      </trkpt>
      <trkpt lat="44.8606" lon="4.83678">
        <ele>114.941024</ele>
        <time>2021-09-15T07:14:38.000Z</time>
      </trkpt>
      <trkpt lat="44.86038" lon="4.83661">
        <ele>115.209763</ele>
        <time>2021-09-15T07:14:45.000Z</time>
      </trkpt>
      <trkpt lat="44.86035" lon="4.83659">
        <ele>115.243209</ele>
        <time>2021-09-15T07:14:47.000Z</time>
      </trkpt>
      <trkpt lat="44.86028" lon="4.83654">
        <ele>115.322466</ele>
        <time>2021-09-15T07:14:49.000Z</time>
      </trkpt>
      <trkpt lat="44.86021" lon="4.83649">
        <ele>115.406499</ele>
        <time>2021-09-15T07:14:51.000Z</time>
      </trkpt>
      <trkpt lat="44.86014" lon="4.83642">
        <ele>115.498838</ele>
        <time>2021-09-15T07:14:53.000Z</time>
      </trkpt>
      <trkpt lat="44.86005" lon="4.83627">
        <ele>115.645563</ele>
        <time>2021-09-15T07:14:56.000Z</time>
      </trkpt>
      <trkpt lat="44.86001" lon="4.83622">
        <ele>115.697571</ele>
        <time>2021-09-15T07:14:58.000Z</time>
      </trkpt>
      <trkpt lat="44.85993" lon="4.83615">
        <ele>115.798151</ele>
        <time>2021-09-15T07:14:59.000Z</time>
      </trkpt>
      <trkpt lat="44.85968" lon="4.83593">
        <ele>116.111506</ele>
        <time>2021-09-15T07:15:05.000Z</time>
      </trkpt>
      <trkpt lat="44.85964" lon="4.83587">
        <ele>116.168196</ele>
        <time>2021-09-15T07:15:06.000Z</time>
      </trkpt>
      <trkpt lat="44.85961" lon="4.83582">
        <ele>116.222901</ele>
        <time>2021-09-15T07:15:08.000Z</time>
      </trkpt>
      <trkpt lat="44.85952" lon="4.83565">
        <ele>116.268468</ele>
        <time>2021-09-15T07:15:10.000Z</time>
      </trkpt>
      <trkpt lat="44.85947" lon="4.83554">
        <ele>116.295863</ele>
        <time>2021-09-15T07:15:12.000Z</time>
      </trkpt>
      <trkpt lat="44.85937" lon="4.83552">
        <ele>116.327136</ele>
        <time>2021-09-15T07:15:14.000Z</time>
      </trkpt>
      <trkpt lat="44.85928" lon="4.83558">
        <ele>116.356604</ele>
        <time>2021-09-15T07:15:16.000Z</time>
      </trkpt>
      <trkpt lat="44.85918" lon="4.83565">
        <ele>116.388869</ele>
        <time>2021-09-15T07:15:18.000Z</time>
      </trkpt>
      <trkpt lat="44.85881" lon="4.83592">
        <ele>116.513816</ele>
        <time>2021-09-15T07:15:25.000Z</time>
      </trkpt>
      <trkpt lat="44.85853" lon="4.83611">
        <ele>116.607199</ele>
        <time>2021-09-15T07:15:30.000Z</time>
      </trkpt>
      <trkpt lat="44.85847" lon="4.83615">
        <ele>116.626325</ele>
        <time>2021-09-15T07:15:31.000Z</time>
      </trkpt>
      <trkpt lat="44.85801" lon="4.83646">
        <ele>116.728863</ele>
        <time>2021-09-15T07:15:39.000Z</time>
      </trkpt>
      <trkpt lat="44.85757" lon="4.83679">
        <ele>116.434292</ele>
        <time>2021-09-15T07:15:47.000Z</time>
      </trkpt>
      <trkpt lat="44.85713" lon="4.83713">
        <ele>116.140999</ele>
        <time>2021-09-15T07:15:55.000Z</time>
      </trkpt>
      <trkpt lat="44.85691" lon="4.83728">
        <ele>116.00128</ele>
        <time>2021-09-15T07:15:59.000Z</time>
      </trkpt>
      <trkpt lat="44.85652" lon="4.83756">
        <ele>115.743744</ele>
        <time>2021-09-15T07:16:06.000Z</time>
      </trkpt>
      <trkpt lat="44.85635" lon="4.83768">
        <ele>115.721713</ele>
        <time>2021-09-15T07:16:09.000Z</time>
      </trkpt>
      <trkpt lat="44.85624" lon="4.83776">
        <ele>115.732806</ele>
        <time>2021-09-15T07:16:11.000Z</time>
      </trkpt>
      <trkpt lat="44.85612" lon="4.83782">
        <ele>115.744042</ele>
        <time>2021-09-15T07:16:13.000Z</time>
      </trkpt>
      <trkpt lat="44.856" lon="4.83787">
        <ele>115.755773</ele>
        <time>2021-09-15T07:16:15.000Z</time>
      </trkpt>
      <trkpt lat="44.8556" lon="4.83792">
        <ele>115.791082</ele>
        <time>2021-09-15T07:16:22.000Z</time>
      </trkpt>
      <trkpt lat="44.85555" lon="4.83792">
        <ele>115.795644</ele>
        <time>2021-09-15T07:16:23.000Z</time>
      </trkpt>
      <trkpt lat="44.85548" lon="4.83793">
        <ele>115.802444</ele>
        <time>2021-09-15T07:16:25.000Z</time>
      </trkpt>
      <trkpt lat="44.85543" lon="4.83788">
        <ele>115.807478</ele>
        <time>2021-09-15T07:16:26.000Z</time>
      </trkpt>
      <trkpt lat="44.85533" lon="4.83791">
        <ele>115.81698</ele>
        <time>2021-09-15T07:16:28.000Z</time>
      </trkpt>
      <trkpt lat="44.85505" lon="4.83797">
        <ele>115.841947</ele>
        <time>2021-09-15T07:16:34.000Z</time>
      </trkpt>
      <trkpt lat="44.85491" lon="4.83805">
        <ele>115.854887</ele>
        <time>2021-09-15T07:16:40.000Z</time>
      </trkpt>
      <trkpt lat="44.85482" lon="4.83815">
        <ele>115.865635</ele>
        <time>2021-09-15T07:16:44.000Z</time>
      </trkpt>
      <trkpt lat="44.85479" lon="4.83816">
        <ele>115.868472</ele>
        <time>2021-09-15T07:16:46.000Z</time>
      </trkpt>
      <trkpt lat="44.85474" lon="4.8381">
        <ele>115.852537</ele>
        <time>2021-09-15T07:16:49.000Z</time>
      </trkpt>
      <trkpt lat="44.8547" lon="4.83808">
        <ele>115.834407</ele>
        <time>2021-09-15T07:16:51.000Z</time>
      </trkpt>
      <trkpt lat="44.85461" lon="4.83807">
        <ele>115.795622</ele>
        <time>2021-09-15T07:16:56.000Z</time>
      </trkpt>
      <trkpt lat="44.85461" lon="4.83796">
        <ele>115.763163</ele>
        <time>2021-09-15T07:16:59.000Z</time>
      </trkpt>
      <trkpt lat="44.85465" lon="4.83761">
        <ele>115.656574</ele>
        <time>2021-09-15T07:17:05.000Z</time>
      </trkpt>
      <trkpt lat="44.85471" lon="4.83717">
        <ele>115.522715</ele>
        <time>2021-09-15T07:17:11.000Z</time>
      </trkpt>
      <trkpt lat="44.85477" lon="4.8367">
        <ele>115.381736</ele>
        <time>2021-09-15T07:17:17.000Z</time>
      </trkpt>
      <trkpt lat="44.85478" lon="4.83663">
        <ele>115.359887</ele>
        <time>2021-09-15T07:17:18.000Z</time>
      </trkpt>
      <trkpt lat="44.85478" lon="4.83656">
        <ele>115.336923</ele>
        <time>2021-09-15T07:17:19.000Z</time>
      </trkpt>
      <trkpt lat="44.85473" lon="4.83649">
        <ele>115.308933</ele>
        <time>2021-09-15T07:17:20.000Z</time>
      </trkpt>
      <trkpt lat="44.85468" lon="4.83648">
        <ele>115.286013</ele>
        <time>2021-09-15T07:17:21.000Z</time>
      </trkpt>
      <trkpt lat="44.85461" lon="4.83646">
        <ele>115.255938</ele>
        <time>2021-09-15T07:17:22.000Z</time>
      </trkpt>
      <trkpt lat="44.85407" lon="4.83636">
        <ele>114.951632</ele>
        <time>2021-09-15T07:17:29.000Z</time>
      </trkpt>
      <trkpt lat="44.85367" lon="4.8363">
        <ele>114.633221</ele>
        <time>2021-09-15T07:17:36.000Z</time>
      </trkpt>
      <trkpt lat="44.85335" lon="4.83624">
        <ele>114.385344</ele>
        <time>2021-09-15T07:17:40.000Z</time>
      </trkpt>
      <trkpt lat="44.85327" lon="4.83621">
        <ele>114.320408</ele>
        <time>2021-09-15T07:17:42.000Z</time>
      </trkpt>
      <trkpt lat="44.85293" lon="4.83598">
        <ele>114.025038</ele>
        <time>2021-09-15T07:17:48.000Z</time>
      </trkpt>
      <trkpt lat="44.85285" lon="4.83588">
        <ele>113.941513</ele>
        <time>2021-09-15T07:17:50.000Z</time>
      </trkpt>
      <trkpt lat="44.85271" lon="4.83567">
        <ele>113.781423</ele>
        <time>2021-09-15T07:17:54.000Z</time>
      </trkpt>
      <trkpt lat="44.85244" lon="4.83525">
        <ele>113.465491</ele>
        <time>2021-09-15T07:18:02.000Z</time>
      </trkpt>
      <trkpt lat="44.85211" lon="4.83475">
        <ele>113.08675</ele>
        <time>2021-09-15T07:18:11.000Z</time>
      </trkpt>
      <trkpt lat="44.85204" lon="4.83464">
        <ele>113.00333</ele>
        <time>2021-09-15T07:18:13.000Z</time>
      </trkpt>
      <trkpt lat="44.85198" lon="4.83455">
        <ele>112.935825</ele>
        <time>2021-09-15T07:18:15.000Z</time>
      </trkpt>
      <trkpt lat="44.85176" lon="4.83419">
        <ele>112.671001</ele>
        <time>2021-09-15T07:18:21.000Z</time>
      </trkpt>
      <trkpt lat="44.85143" lon="4.83366">
        <ele>112.280418</ele>
        <time>2021-09-15T07:18:29.000Z</time>
      </trkpt>
      <trkpt lat="44.85113" lon="4.83317">
        <ele>111.915528</ele>
        <time>2021-09-15T07:18:36.000Z</time>
      </trkpt>
      <trkpt lat="44.85083" lon="4.83269">
        <ele>111.54873</ele>
        <time>2021-09-15T07:18:43.000Z</time>
      </trkpt>
      <trkpt lat="44.85054" lon="4.83222">
        <ele>111.197309</ele>
        <time>2021-09-15T07:18:50.000Z</time>
      </trkpt>
      <trkpt lat="44.8503" lon="4.83183">
        <ele>110.903488</ele>
        <time>2021-09-15T07:18:56.000Z</time>
      </trkpt>
      <trkpt lat="44.85002" lon="4.83138">
        <ele>110.484034</ele>
        <time>2021-09-15T07:19:03.000Z</time>
      </trkpt>
      <trkpt lat="44.84973" lon="4.83091">
        <ele>110.022808</ele>
        <time>2021-09-15T07:19:10.000Z</time>
      </trkpt>
      <trkpt lat="44.8494" lon="4.83039">
        <ele>109.515092</ele>
        <time>2021-09-15T07:19:17.000Z</time>
      </trkpt>
      <trkpt lat="44.84907" lon="4.82988">
        <ele>109.011908</ele>
        <time>2021-09-15T07:19:24.000Z</time>
      </trkpt>
      <trkpt lat="44.8488" lon="4.82944">
        <ele>107.85037</ele>
        <time>2021-09-15T07:19:30.000Z</time>
      </trkpt>
      <trkpt lat="44.84856" lon="4.82907">
        <ele>106.833112</ele>
        <time>2021-09-15T07:19:35.000Z</time>
      </trkpt>
      <trkpt lat="44.84848" lon="4.82892">
        <ele>106.462105</ele>
        <time>2021-09-15T07:19:37.000Z</time>
      </trkpt>
      <trkpt lat="44.84845" lon="4.82887">
        <ele>106.328731</ele>
        <time>2021-09-15T07:19:38.000Z</time>
      </trkpt>
      <trkpt lat="44.84841" lon="4.82881">
        <ele>106.162253</ele>
        <time>2021-09-15T07:19:39.000Z</time>
      </trkpt>
      <trkpt lat="44.84833" lon="4.82867">
        <ele>105.793049</ele>
        <time>2021-09-15T07:19:41.000Z</time>
      </trkpt>
      <trkpt lat="44.84823" lon="4.82849">
        <ele>105.341502</ele>
        <time>2021-09-15T07:19:44.000Z</time>
      </trkpt>
      <trkpt lat="44.84802" lon="4.82814">
        <ele>104.414684</ele>
        <time>2021-09-15T07:19:49.000Z</time>
      </trkpt>
      <trkpt lat="44.84773" lon="4.82767">
        <ele>103.639598</ele>
        <time>2021-09-15T07:19:56.000Z</time>
      </trkpt>
      <trkpt lat="44.84739" lon="4.82712">
        <ele>103.138326</ele>
        <time>2021-09-15T07:20:04.000Z</time>
      </trkpt>
      <trkpt lat="44.84704" lon="4.82656">
        <ele>102.623056</ele>
        <time>2021-09-15T07:20:13.000Z</time>
      </trkpt>
      <trkpt lat="44.84676" lon="4.82612">
        <ele>102.222424</ele>
        <time>2021-09-15T07:20:20.000Z</time>
      </trkpt>
      <trkpt lat="44.84646" lon="4.82563">
        <ele>102.522038</ele>
        <time>2021-09-15T07:20:28.000Z</time>
      </trkpt>
      <trkpt lat="44.84621" lon="4.82523">
        <ele>102.884157</ele>
        <time>2021-09-15T07:20:35.000Z</time>
      </trkpt>
      <trkpt lat="44.84599" lon="4.82488">
        <ele>103.200563</ele>
        <time>2021-09-15T07:20:41.000Z</time>
      </trkpt>
      <trkpt lat="44.84571" lon="4.82445">
        <ele>103.595857</ele>
        <time>2021-09-15T07:20:48.000Z</time>
      </trkpt>
      <trkpt lat="44.84547" lon="4.8241">
        <ele>104.037635</ele>
        <time>2021-09-15T07:20:54.000Z</time>
      </trkpt>
      <trkpt lat="44.84516" lon="4.82367">
        <ele>105.160943</ele>
        <time>2021-09-15T07:21:01.000Z</time>
      </trkpt>
      <trkpt lat="44.84486" lon="4.82325">
        <ele>106.28612</ele>
        <time>2021-09-15T07:21:08.000Z</time>
      </trkpt>
      <trkpt lat="44.84457" lon="4.82277">
        <ele>107.469193</ele>
        <time>2021-09-15T07:21:15.000Z</time>
      </trkpt>
      <trkpt lat="44.84443" lon="4.82255">
        <ele>108.000805</ele>
        <time>2021-09-15T07:21:18.000Z</time>
      </trkpt>
      <trkpt lat="44.84432" lon="4.82245">
        <ele>108.352646</ele>
        <time>2021-09-15T07:21:20.000Z</time>
      </trkpt>
      <trkpt lat="44.84421" lon="4.82237">
        <ele>108.703588</ele>
        <time>2021-09-15T07:21:22.000Z</time>
      </trkpt>
      <trkpt lat="44.84415" lon="4.82224">
        <ele>109.091086</ele>
        <time>2021-09-15T07:21:24.000Z</time>
      </trkpt>
      <trkpt lat="44.84416" lon="4.82206">
        <ele>109.541652</ele>
        <time>2021-09-15T07:21:27.000Z</time>
      </trkpt>
      <trkpt lat="44.84421" lon="4.82199">
        <ele>109.767681</ele>
        <time>2021-09-15T07:21:31.000Z</time>
      </trkpt>
      <trkpt lat="44.84423" lon="4.82196">
        <ele>109.885761</ele>
        <time>2021-09-15T07:21:34.000Z</time>
      </trkpt>
      <trkpt lat="44.84425" lon="4.82193">
        <ele>109.993711</ele>
        <time>2021-09-15T07:21:36.000Z</time>
      </trkpt>
      <trkpt lat="44.8443" lon="4.82186">
        <ele>110.245759</ele>
        <time>2021-09-15T07:21:40.000Z</time>
      </trkpt>
      <trkpt lat="44.84439" lon="4.82176">
        <ele>110.620444</ele>
        <time>2021-09-15T07:21:46.000Z</time>
      </trkpt>
      <trkpt lat="44.84445" lon="4.82167">
        <ele>110.933202</ele>
        <time>2021-09-15T07:21:51.000Z</time>
      </trkpt>
      <trkpt lat="44.84446" lon="4.82165">
        <ele>110.99752</ele>
        <time>2021-09-15T07:21:52.000Z</time>
      </trkpt>
      <trkpt lat="44.84451" lon="4.82148">
        <ele>111.445354</ele>
        <time>2021-09-15T07:21:59.000Z</time>
      </trkpt>
      <trkpt lat="44.84446" lon="4.82129">
        <ele>111.942951</ele>
        <time>2021-09-15T07:22:05.000Z</time>
      </trkpt>
      <trkpt lat="44.84431" lon="4.82116">
        <ele>112.545235</ele>
        <time>2021-09-15T07:22:11.000Z</time>
      </trkpt>
      <trkpt lat="44.84407" lon="4.82099">
        <ele>113.493036</ele>
        <time>2021-09-15T07:22:18.000Z</time>
      </trkpt>
      <trkpt lat="44.84375" lon="4.82077">
        <ele>114.726736</ele>
        <time>2021-09-15T07:22:26.000Z</time>
      </trkpt>
      <trkpt lat="44.84366" lon="4.8207">
        <ele>114.892435</ele>
        <time>2021-09-15T07:22:28.000Z</time>
      </trkpt>
      <trkpt lat="44.84345" lon="4.82053">
        <ele>115.046951</ele>
        <time>2021-09-15T07:22:33.000Z</time>
      </trkpt>
      <trkpt lat="44.84316" lon="4.82026">
        <ele>115.270079</ele>
        <time>2021-09-15T07:22:40.000Z</time>
      </trkpt>
      <trkpt lat="44.84297" lon="4.82007">
        <ele>115.414905</ele>
        <time>2021-09-15T07:22:45.000Z</time>
      </trkpt>
      <trkpt lat="44.84293" lon="4.82004">
        <ele>115.442202</ele>
        <time>2021-09-15T07:22:46.000Z</time>
      </trkpt>
      <trkpt lat="44.84268" lon="4.81985">
        <ele>115.621335</ele>
        <time>2021-09-15T07:22:52.000Z</time>
      </trkpt>
      <trkpt lat="44.84246" lon="4.81971">
        <ele>115.774765</ele>
        <time>2021-09-15T07:22:57.000Z</time>
      </trkpt>
      <trkpt lat="44.84241" lon="4.81969">
        <ele>115.806345</ele>
        <time>2021-09-15T07:22:58.000Z</time>
      </trkpt>
      <trkpt lat="44.84237" lon="4.81966">
        <ele>115.838579</ele>
        <time>2021-09-15T07:22:59.000Z</time>
      </trkpt>
      <trkpt lat="44.84217" lon="4.81954">
        <ele>115.974732</ele>
        <time>2021-09-15T07:23:03.000Z</time>
      </trkpt>
      <trkpt lat="44.84181" lon="4.81929">
        <ele>116.033588</ele>
        <time>2021-09-15T07:23:10.000Z</time>
      </trkpt>
      <trkpt lat="44.84136" lon="4.81898">
        <ele>116.087834</ele>
        <time>2021-09-15T07:23:19.000Z</time>
      </trkpt>
      <trkpt lat="44.84097" lon="4.81867">
        <ele>116.13664</ele>
        <time>2021-09-15T07:23:27.000Z</time>
      </trkpt>
      <trkpt lat="44.84063" lon="4.81846">
        <ele>116.177156</ele>
        <time>2021-09-15T07:23:34.000Z</time>
      </trkpt>
      <trkpt lat="44.84028" lon="4.81829">
        <ele>116.051808</ele>
        <time>2021-09-15T07:23:41.000Z</time>
      </trkpt>
      <trkpt lat="44.83988" lon="4.81804">
        <ele>115.824723</ele>
        <time>2021-09-15T07:23:49.000Z</time>
      </trkpt>
      <trkpt lat="44.83954" lon="4.81778">
        <ele>115.622206</ele>
        <time>2021-09-15T07:23:56.000Z</time>
      </trkpt>
      <trkpt lat="44.8391" lon="4.81745">
        <ele>115.360618</ele>
        <time>2021-09-15T07:24:05.000Z</time>
      </trkpt>
      <trkpt lat="44.83859" lon="4.81713">
        <ele>115.032891</ele>
        <time>2021-09-15T07:24:15.000Z</time>
      </trkpt>
      <trkpt lat="44.83843" lon="4.81705">
        <ele>114.92859</ele>
        <time>2021-09-15T07:24:18.000Z</time>
      </trkpt>
      <trkpt lat="44.83792" lon="4.81677">
        <ele>114.585637</ele>
        <time>2021-09-15T07:24:28.000Z</time>
      </trkpt>
      <trkpt lat="44.83787" lon="4.81675">
        <ele>114.55235</ele>
        <time>2021-09-15T07:24:29.000Z</time>
      </trkpt>
      <trkpt lat="44.83747" lon="4.81655">
        <ele>114.285491</ele>
        <time>2021-09-15T07:24:37.000Z</time>
      </trkpt>
      <trkpt lat="44.83705" lon="4.81638">
        <ele>114.060662</ele>
        <time>2021-09-15T07:24:45.000Z</time>
      </trkpt>
      <trkpt lat="44.83664" lon="4.81622">
        <ele>113.901391</ele>
        <time>2021-09-15T07:24:53.000Z</time>
      </trkpt>
      <trkpt lat="44.83621" lon="4.81605">
        <ele>113.73551</ele>
        <time>2021-09-15T07:25:01.000Z</time>
      </trkpt>
      <trkpt lat="44.83573" lon="4.81585">
        <ele>113.546634</ele>
        <time>2021-09-15T07:25:10.000Z</time>
      </trkpt>
      <trkpt lat="44.83521" lon="4.81563">
        <ele>113.304074</ele>
        <time>2021-09-15T07:25:20.000Z</time>
      </trkpt>
      <trkpt lat="44.8348" lon="4.81544">
        <ele>113.087373</ele>
        <time>2021-09-15T07:25:28.000Z</time>
      </trkpt>
      <trkpt lat="44.8346" lon="4.81535">
        <ele>112.978717</ele>
        <time>2021-09-15T07:25:32.000Z</time>
      </trkpt>
      <trkpt lat="44.83445" lon="4.81528">
        <ele>112.900626</ele>
        <time>2021-09-15T07:25:35.000Z</time>
      </trkpt>
      <trkpt lat="44.83402" lon="4.81505">
        <ele>112.666836</ele>
        <time>2021-09-15T07:25:44.000Z</time>
      </trkpt>
      <trkpt lat="44.83365" lon="4.81481">
        <ele>112.503319</ele>
        <time>2021-09-15T07:25:52.000Z</time>
      </trkpt>
      <trkpt lat="44.83325" lon="4.81454">
        <ele>112.393827</ele>
        <time>2021-09-15T07:26:01.000Z</time>
      </trkpt>
      <trkpt lat="44.83285" lon="4.81421">
        <ele>112.27948</ele>
        <time>2021-09-15T07:26:10.000Z</time>
      </trkpt>
      <trkpt lat="44.83237" lon="4.8138">
        <ele>112.138718</ele>
        <time>2021-09-15T07:26:21.000Z</time>
      </trkpt>
      <trkpt lat="44.83232" lon="4.81376">
        <ele>112.125724</ele>
        <time>2021-09-15T07:26:22.000Z</time>
      </trkpt>
      <trkpt lat="44.8319" lon="4.81334">
        <ele>112.108082</ele>
        <time>2021-09-15T07:26:32.000Z</time>
      </trkpt>
      <trkpt lat="44.83157" lon="4.81301">
        <ele>112.118774</ele>
        <time>2021-09-15T07:26:40.000Z</time>
      </trkpt>
      <trkpt lat="44.83123" lon="4.81267">
        <ele>112.129413</ele>
        <time>2021-09-15T07:26:48.000Z</time>
      </trkpt>
      <trkpt lat="44.83094" lon="4.81239">
        <ele>112.138446</ele>
        <time>2021-09-15T07:26:55.000Z</time>
      </trkpt>
      <trkpt lat="44.83056" lon="4.81202">
        <ele>112.110241</ele>
        <time>2021-09-15T07:27:04.000Z</time>
      </trkpt>
      <trkpt lat="44.8302" lon="4.81168">
        <ele>112.050354</ele>
        <time>2021-09-15T07:27:12.000Z</time>
      </trkpt>
      <trkpt lat="44.82987" lon="4.81142">
        <ele>111.997726</ele>
        <time>2021-09-15T07:27:19.000Z</time>
      </trkpt>
      <trkpt lat="44.82947" lon="4.81116">
        <ele>111.936966</ele>
        <time>2021-09-15T07:27:27.000Z</time>
      </trkpt>
      <trkpt lat="44.82906" lon="4.81091">
        <ele>111.826825</ele>
        <time>2021-09-15T07:27:35.000Z</time>
      </trkpt>
      <trkpt lat="44.8287" lon="4.81073">
        <ele>111.641564</ele>
        <time>2021-09-15T07:27:42.000Z</time>
      </trkpt>
      <trkpt lat="44.82832" lon="4.81056">
        <ele>111.451091</ele>
        <time>2021-09-15T07:27:49.000Z</time>
      </trkpt>
      <trkpt lat="44.82796" lon="4.8104">
        <ele>111.267099</ele>
        <time>2021-09-15T07:27:56.000Z</time>
      </trkpt>
      <trkpt lat="44.82744" lon="4.81017">
        <ele>111.011068</ele>
        <time>2021-09-15T07:28:06.000Z</time>
      </trkpt>
      <trkpt lat="44.82708" lon="4.81001">
        <ele>110.905508</ele>
        <time>2021-09-15T07:28:13.000Z</time>
      </trkpt>
      <trkpt lat="44.82666" lon="4.80982">
        <ele>110.779901</ele>
        <time>2021-09-15T07:28:21.000Z</time>
      </trkpt>
      <trkpt lat="44.82648" lon="4.80978">
        <ele>110.731062</ele>
        <time>2021-09-15T07:28:24.000Z</time>
      </trkpt>
      <trkpt lat="44.82637" lon="4.8098">
        <ele>110.699502</ele>
        <time>2021-09-15T07:28:26.000Z</time>
      </trkpt>
      <trkpt lat="44.82623" lon="4.80984">
        <ele>110.657305</ele>
        <time>2021-09-15T07:28:29.000Z</time>
      </trkpt>
      <trkpt lat="44.82614" lon="4.80991">
        <ele>110.630614</ele>
        <time>2021-09-15T07:28:31.000Z</time>
      </trkpt>
      <trkpt lat="44.82607" lon="4.80998">
        <ele>110.605607</ele>
        <time>2021-09-15T07:28:33.000Z</time>
      </trkpt>
      <trkpt lat="44.82593" lon="4.81013">
        <ele>110.555383</ele>
        <time>2021-09-15T07:28:37.000Z</time>
      </trkpt>
      <trkpt lat="44.82568" lon="4.81021">
        <ele>110.481171</ele>
        <time>2021-09-15T07:28:42.000Z</time>
      </trkpt>
      <trkpt lat="44.82558" lon="4.81018">
        <ele>110.450931</ele>
        <time>2021-09-15T07:28:44.000Z</time>
      </trkpt>
      <trkpt lat="44.82548" lon="4.81015">
        <ele>110.419695</ele>
        <time>2021-09-15T07:28:46.000Z</time>
      </trkpt>
      <trkpt lat="44.8253" lon="4.81009">
        <ele>110.361364</ele>
        <time>2021-09-15T07:28:49.000Z</time>
      </trkpt>
      <trkpt lat="44.82511" lon="4.81003">
        <ele>110.300837</ele>
        <time>2021-09-15T07:28:52.000Z</time>
      </trkpt>
      <trkpt lat="44.82504" lon="4.81001">
        <ele>110.279381</ele>
        <time>2021-09-15T07:28:53.000Z</time>
      </trkpt>
      <trkpt lat="44.82498" lon="4.80992">
        <ele>110.254236</ele>
        <time>2021-09-15T07:28:55.000Z</time>
      </trkpt>
      <trkpt lat="44.82458" lon="4.8094">
        <ele>110.086232</ele>
        <time>2021-09-15T07:29:02.000Z</time>
      </trkpt>
      <trkpt lat="44.82448" lon="4.8093">
        <ele>110.047386</ele>
        <time>2021-09-15T07:29:04.000Z</time>
      </trkpt>
      <trkpt lat="44.82428" lon="4.80912">
        <ele>109.97396</ele>
        <time>2021-09-15T07:29:08.000Z</time>
      </trkpt>
      <trkpt lat="44.8242" lon="4.80894">
        <ele>109.866625</ele>
        <time>2021-09-15T07:29:11.000Z</time>
      </trkpt>
      <trkpt lat="44.82419" lon="4.80888">
        <ele>109.830649</ele>
        <time>2021-09-15T07:29:12.000Z</time>
      </trkpt>
      <trkpt lat="44.82413" lon="4.80874">
        <ele>109.732048</ele>
        <time>2021-09-15T07:29:15.000Z</time>
      </trkpt>
      <trkpt lat="44.82413" lon="4.80874">
        <ele>109.732048</ele>
        <time>2021-09-15T07:29:16.000Z</time>
      </trkpt>
      <trkpt lat="44.82413" lon="4.80864">
        <ele>109.672659</ele>
        <time>2021-09-15T07:29:18.000Z</time>
      </trkpt>
      <trkpt lat="44.82414" lon="4.80859">
        <ele>109.642098</ele>
        <time>2021-09-15T07:29:19.000Z</time>
      </trkpt>
      <trkpt lat="44.82415" lon="4.80848">
        <ele>109.576264</ele>
        <time>2021-09-15T07:29:21.000Z</time>
      </trkpt>
      <trkpt lat="44.82405" lon="4.80839">
        <ele>109.472375</ele>
        <time>2021-09-15T07:29:24.000Z</time>
      </trkpt>
      <trkpt lat="44.82395" lon="4.80836">
        <ele>109.385547</ele>
        <time>2021-09-15T07:29:26.000Z</time>
      </trkpt>
      <trkpt lat="44.82384" lon="4.80834">
        <ele>109.291779</ele>
        <time>2021-09-15T07:29:28.000Z</time>
      </trkpt>
      <trkpt lat="44.82367" lon="4.80833">
        <ele>109.149563</ele>
        <time>2021-09-15T07:29:31.000Z</time>
      </trkpt>
      <trkpt lat="44.82356" lon="4.80833">
        <ele>109.053982</ele>
        <time>2021-09-15T07:29:33.000Z</time>
      </trkpt>
      <trkpt lat="44.82332" lon="4.80819">
        <ele>108.832689</ele>
        <time>2021-09-15T07:29:37.000Z</time>
      </trkpt>
      <trkpt lat="44.82309" lon="4.8081">
        <ele>108.630888</ele>
        <time>2021-09-15T07:29:41.000Z</time>
      </trkpt>
      <trkpt lat="44.82298" lon="4.80806">
        <ele>108.532907</ele>
        <time>2021-09-15T07:29:43.000Z</time>
      </trkpt>
      <trkpt lat="44.82269" lon="4.80795">
        <ele>108.270614</ele>
        <time>2021-09-15T07:29:48.000Z</time>
      </trkpt>
      <trkpt lat="44.82264" lon="4.80793">
        <ele>108.220341</ele>
        <time>2021-09-15T07:29:49.000Z</time>
      </trkpt>
      <trkpt lat="44.82248" lon="4.80796">
        <ele>108.063402</ele>
        <time>2021-09-15T07:29:52.000Z</time>
      </trkpt>
      <trkpt lat="44.82238" lon="4.80792">
        <ele>107.967527</ele>
        <time>2021-09-15T07:29:54.000Z</time>
      </trkpt>
      <trkpt lat="44.82231" lon="4.80793">
        <ele>107.907309</ele>
        <time>2021-09-15T07:29:55.000Z</time>
      </trkpt>
      <trkpt lat="44.82228" lon="4.808">
        <ele>107.853566</ele>
        <time>2021-09-15T07:29:56.000Z</time>
      </trkpt>
      <trkpt lat="44.82226" lon="4.80812">
        <ele>107.77282</ele>
        <time>2021-09-15T07:29:58.000Z</time>
      </trkpt>
      <trkpt lat="44.82222" lon="4.80811">
        <ele>107.737409</ele>
        <time>2021-09-15T07:29:59.000Z</time>
      </trkpt>
      <trkpt lat="44.82218" lon="4.80809">
        <ele>107.698213</ele>
        <time>2021-09-15T07:30:00.000Z</time>
      </trkpt>
      <trkpt lat="44.82213" lon="4.80808">
        <ele>107.651445</ele>
        <time>2021-09-15T07:30:01.000Z</time>
      </trkpt>
      <trkpt lat="44.82186" lon="4.80799">
        <ele>107.396143</ele>
        <time>2021-09-15T07:30:06.000Z</time>
      </trkpt>
      <trkpt lat="44.82171" lon="4.80794">
        <ele>107.246929</ele>
        <time>2021-09-15T07:30:09.000Z</time>
      </trkpt>
      <trkpt lat="44.82165" lon="4.80793">
        <ele>107.195322</ele>
        <time>2021-09-15T07:30:10.000Z</time>
      </trkpt>
      <trkpt lat="44.82146" lon="4.80788">
        <ele>107.011496</ele>
        <time>2021-09-15T07:30:14.000Z</time>
      </trkpt>
      <trkpt lat="44.82134" lon="4.80787">
        <ele>106.901239</ele>
        <time>2021-09-15T07:30:16.000Z</time>
      </trkpt>
      <trkpt lat="44.82116" lon="4.80785">
        <ele>106.770432</ele>
        <time>2021-09-15T07:30:19.000Z</time>
      </trkpt>
      <trkpt lat="44.82105" lon="4.80779">
        <ele>106.787171</ele>
        <time>2021-09-15T07:30:21.000Z</time>
      </trkpt>
      <trkpt lat="44.821" lon="4.80775">
        <ele>106.794765</ele>
        <time>2021-09-15T07:30:23.000Z</time>
      </trkpt>
      <trkpt lat="44.82079" lon="4.8076">
        <ele>106.826386</ele>
        <time>2021-09-15T07:30:27.000Z</time>
      </trkpt>
      <trkpt lat="44.82075" lon="4.80759">
        <ele>106.832519</ele>
        <time>2021-09-15T07:30:28.000Z</time>
      </trkpt>
      <trkpt lat="44.82069" lon="4.8076">
        <ele>106.83963</ele>
        <time>2021-09-15T07:30:29.000Z</time>
      </trkpt>
      <trkpt lat="44.82053" lon="4.80767">
        <ele>106.862357</ele>
        <time>2021-09-15T07:30:32.000Z</time>
      </trkpt>
      <trkpt lat="44.82014" lon="4.80778">
        <ele>106.917001</ele>
        <time>2021-09-15T07:30:38.000Z</time>
      </trkpt>
      <trkpt lat="44.82006" lon="4.80778">
        <ele>106.927261</ele>
        <time>2021-09-15T07:30:39.000Z</time>
      </trkpt>
      <trkpt lat="44.81978" lon="4.80778">
        <ele>106.964787</ele>
        <time>2021-09-15T07:30:43.000Z</time>
      </trkpt>
      <trkpt lat="44.81953" lon="4.80777">
        <ele>106.99921</ele>
        <time>2021-09-15T07:30:47.000Z</time>
      </trkpt>
      <trkpt lat="44.8194" lon="4.80776">
        <ele>107.076992</ele>
        <time>2021-09-15T07:30:49.000Z</time>
      </trkpt>
      <trkpt lat="44.81934" lon="4.80775">
        <ele>107.161402</ele>
        <time>2021-09-15T07:30:50.000Z</time>
      </trkpt>
      <trkpt lat="44.81899" lon="4.80755">
        <ele>107.624482</ele>
        <time>2021-09-15T07:30:56.000Z</time>
      </trkpt>
      <trkpt lat="44.81884" lon="4.80744">
        <ele>107.845359</ele>
        <time>2021-09-15T07:30:59.000Z</time>
      </trkpt>
      <trkpt lat="44.81878" lon="4.8074">
        <ele>107.922665</ele>
        <time>2021-09-15T07:31:00.000Z</time>
      </trkpt>
      <trkpt lat="44.81856" lon="4.80724">
        <ele>108.239031</ele>
        <time>2021-09-15T07:31:04.000Z</time>
      </trkpt>
      <trkpt lat="44.81845" lon="4.80714">
        <ele>108.398636</ele>
        <time>2021-09-15T07:31:06.000Z</time>
      </trkpt>
      <trkpt lat="44.81838" lon="4.80701">
        <ele>108.542058</ele>
        <time>2021-09-15T07:31:08.000Z</time>
      </trkpt>
      <trkpt lat="44.81835" lon="4.80688">
        <ele>108.671376</ele>
        <time>2021-09-15T07:31:10.000Z</time>
      </trkpt>
      <trkpt lat="44.81833" lon="4.80663">
        <ele>108.895608</ele>
        <time>2021-09-15T07:31:14.000Z</time>
      </trkpt>
      <trkpt lat="44.81831" lon="4.80651">
        <ele>108.997895</ele>
        <time>2021-09-15T07:31:16.000Z</time>
      </trkpt>
      <trkpt lat="44.81829" lon="4.80638">
        <ele>109.118389</ele>
        <time>2021-09-15T07:31:18.000Z</time>
      </trkpt>
      <trkpt lat="44.81817" lon="4.80636">
        <ele>109.263257</ele>
        <time>2021-09-15T07:31:20.000Z</time>
      </trkpt>
      <trkpt lat="44.81784" lon="4.80632">
        <ele>109.266646</ele>
        <time>2021-09-15T07:31:26.000Z</time>
      </trkpt>
      <trkpt lat="44.81726" lon="4.80624">
        <ele>109.265061</ele>
        <time>2021-09-15T07:31:36.000Z</time>
      </trkpt>
      <trkpt lat="44.81672" lon="4.80618">
        <ele>109.263598</ele>
        <time>2021-09-15T07:31:45.000Z</time>
      </trkpt>
      <trkpt lat="44.81637" lon="4.80606">
        <ele>109.246548</ele>
        <time>2021-09-15T07:31:51.000Z</time>
      </trkpt>
      <trkpt lat="44.816" lon="4.80587">
        <ele>108.919442</ele>
        <time>2021-09-15T07:31:57.000Z</time>
      </trkpt>
      <trkpt lat="44.81562" lon="4.80575">
        <ele>108.598293</ele>
        <time>2021-09-15T07:32:02.000Z</time>
      </trkpt>
      <trkpt lat="44.81525" lon="4.80565">
        <ele>108.286924</ele>
        <time>2021-09-15T07:32:07.000Z</time>
      </trkpt>
      <trkpt lat="44.81482" lon="4.80556">
        <ele>107.922993</ele>
        <time>2021-09-15T07:32:14.000Z</time>
      </trkpt>
      <trkpt lat="44.81458" lon="4.80546">
        <ele>107.788825</ele>
        <time>2021-09-15T07:32:18.000Z</time>
      </trkpt>
      <trkpt lat="44.81424" lon="4.80525">
        <ele>107.893518</ele>
        <time>2021-09-15T07:32:24.000Z</time>
      </trkpt>
      <trkpt lat="44.81387" lon="4.80494">
        <ele>108.013901</ele>
        <time>2021-09-15T07:32:31.000Z</time>
      </trkpt>
      <trkpt lat="44.81377" lon="4.80483">
        <ele>108.048735</ele>
        <time>2021-09-15T07:32:33.000Z</time>
      </trkpt>
      <trkpt lat="44.81356" lon="4.80461">
        <ele>108.120412</ele>
        <time>2021-09-15T07:32:37.000Z</time>
      </trkpt>
      <trkpt lat="44.81322" lon="4.80422">
        <ele>108.243272</ele>
        <time>2021-09-15T07:32:44.000Z</time>
      </trkpt>
      <trkpt lat="44.81293" lon="4.8039">
        <ele>108.198113</ele>
        <time>2021-09-15T07:32:50.000Z</time>
      </trkpt>
      <trkpt lat="44.81251" lon="4.8034">
        <ele>108.038684</ele>
        <time>2021-09-15T07:32:59.000Z</time>
      </trkpt>
      <trkpt lat="44.81229" lon="4.80313">
        <ele>107.953723</ele>
        <time>2021-09-15T07:33:04.000Z</time>
      </trkpt>
      <trkpt lat="44.81224" lon="4.80307">
        <ele>107.934686</ele>
        <time>2021-09-15T07:33:05.000Z</time>
      </trkpt>
      <trkpt lat="44.81212" lon="4.80288">
        <ele>107.88071</ele>
        <time>2021-09-15T07:33:08.000Z</time>
      </trkpt>
      <trkpt lat="44.81213" lon="4.80271">
        <ele>107.845847</ele>
        <time>2021-09-15T07:33:10.000Z</time>
      </trkpt>
      <trkpt lat="44.81217" lon="4.80268">
        <ele>107.832806</ele>
        <time>2021-09-15T07:33:11.000Z</time>
      </trkpt>
      <trkpt lat="44.81222" lon="4.80268">
        <ele>107.819759</ele>
        <time>2021-09-15T07:33:12.000Z</time>
      </trkpt>
      <trkpt lat="44.81232" lon="4.80269">
        <ele>107.789812</ele>
        <time>2021-09-15T07:33:14.000Z</time>
      </trkpt>
      <trkpt lat="44.81243" lon="4.8027">
        <ele>107.757231</ele>
        <time>2021-09-15T07:33:16.000Z</time>
      </trkpt>
      <trkpt lat="44.8126" lon="4.80272">
        <ele>107.645048</ele>
        <time>2021-09-15T07:33:19.000Z</time>
      </trkpt>
      <trkpt lat="44.81304" lon="4.80277">
        <ele>107.334931</ele>
        <time>2021-09-15T07:33:27.000Z</time>
      </trkpt>
      <trkpt lat="44.8132" lon="4.80279">
        <ele>107.216178</ele>
        <time>2021-09-15T07:33:30.000Z</time>
      </trkpt>
      <trkpt lat="44.81332" lon="4.8028">
        <ele>107.133777</ele>
        <time>2021-09-15T07:33:32.000Z</time>
      </trkpt>
      <trkpt lat="44.81374" lon="4.80284">
        <ele>106.83325</ele>
        <time>2021-09-15T07:33:39.000Z</time>
      </trkpt>
      <trkpt lat="44.81422" lon="4.80288">
        <ele>106.490783</ele>
        <time>2021-09-15T07:33:47.000Z</time>
      </trkpt>
      <trkpt lat="44.81451" lon="4.80291">
        <ele>106.689427</ele>
        <time>2021-09-15T07:33:52.000Z</time>
      </trkpt>
      <trkpt lat="44.81487" lon="4.80294">
        <ele>106.968319</ele>
        <time>2021-09-15T07:33:58.000Z</time>
      </trkpt>
      <trkpt lat="44.81514" lon="4.80296">
        <ele>107.178893</ele>
        <time>2021-09-15T07:34:03.000Z</time>
      </trkpt>
      <trkpt lat="44.81542" lon="4.80296">
        <ele>107.399986</ele>
        <time>2021-09-15T07:34:08.000Z</time>
      </trkpt>
      <trkpt lat="44.81574" lon="4.80295">
        <ele>107.652499</ele>
        <time>2021-09-15T07:34:14.000Z</time>
      </trkpt>
      <trkpt lat="44.81615" lon="4.80294">
        <ele>107.939624</ele>
        <time>2021-09-15T07:34:21.000Z</time>
      </trkpt>
      <trkpt lat="44.81621" lon="4.80294">
        <ele>107.966391</ele>
        <time>2021-09-15T07:34:22.000Z</time>
      </trkpt>
      <trkpt lat="44.81652" lon="4.80291">
        <ele>108.10755</ele>
        <time>2021-09-15T07:34:27.000Z</time>
      </trkpt>
      <trkpt lat="44.81692" lon="4.80285">
        <ele>108.294452</ele>
        <time>2021-09-15T07:34:34.000Z</time>
      </trkpt>
      <trkpt lat="44.81737" lon="4.80276">
        <ele>108.505882</ele>
        <time>2021-09-15T07:34:42.000Z</time>
      </trkpt>
      <trkpt lat="44.81749" lon="4.80273">
        <ele>108.560427</ele>
        <time>2021-09-15T07:34:44.000Z</time>
      </trkpt>
      <trkpt lat="44.81761" lon="4.8027">
        <ele>108.615035</ele>
        <time>2021-09-15T07:34:46.000Z</time>
      </trkpt>
      <trkpt lat="44.81793" lon="4.8026">
        <ele>108.60684</ele>
        <time>2021-09-15T07:34:52.000Z</time>
      </trkpt>
      <trkpt lat="44.81833" lon="4.80251">
        <ele>108.216207</ele>
        <time>2021-09-15T07:34:59.000Z</time>
      </trkpt>
      <trkpt lat="44.81878" lon="4.80247">
        <ele>107.77178</ele>
        <time>2021-09-15T07:35:07.000Z</time>
      </trkpt>
      <trkpt lat="44.81923" lon="4.80243">
        <ele>107.323438</ele>
        <time>2021-09-15T07:35:15.000Z</time>
      </trkpt>
      <trkpt lat="44.81962" lon="4.80239">
        <ele>106.939914</ele>
        <time>2021-09-15T07:35:22.000Z</time>
      </trkpt>
      <trkpt lat="44.82001" lon="4.80236">
        <ele>106.526596</ele>
        <time>2021-09-15T07:35:29.000Z</time>
      </trkpt>
      <trkpt lat="44.82033" lon="4.80233">
        <ele>106.180908</ele>
        <time>2021-09-15T07:35:35.000Z</time>
      </trkpt>
      <trkpt lat="44.82065" lon="4.8023">
        <ele>105.840615</ele>
        <time>2021-09-15T07:35:41.000Z</time>
      </trkpt>
      <trkpt lat="44.82101" lon="4.80225">
        <ele>105.448248</ele>
        <time>2021-09-15T07:35:48.000Z</time>
      </trkpt>
      <trkpt lat="44.82106" lon="4.80224">
        <ele>105.396384</ele>
        <time>2021-09-15T07:35:49.000Z</time>
      </trkpt>
      <trkpt lat="44.82147" lon="4.80213">
        <ele>104.999761</ele>
        <time>2021-09-15T07:35:57.000Z</time>
      </trkpt>
      <trkpt lat="44.8218" lon="4.80194">
        <ele>104.865095</ele>
        <time>2021-09-15T07:36:04.000Z</time>
      </trkpt>
      <trkpt lat="44.82219" lon="4.8017">
        <ele>104.708044</ele>
        <time>2021-09-15T07:36:12.000Z</time>
      </trkpt>
      <trkpt lat="44.82246" lon="4.80147">
        <ele>104.58876</ele>
        <time>2021-09-15T07:36:18.000Z</time>
      </trkpt>
      <trkpt lat="44.82283" lon="4.80121">
        <ele>104.434376</ele>
        <time>2021-09-15T07:36:26.000Z</time>
      </trkpt>
      <trkpt lat="44.82323" lon="4.80091">
        <ele>104.564032</ele>
        <time>2021-09-15T07:36:34.000Z</time>
      </trkpt>
      <trkpt lat="44.82334" lon="4.80088">
        <ele>104.662507</ele>
        <time>2021-09-15T07:36:36.000Z</time>
      </trkpt>
      <trkpt lat="44.82349" lon="4.80082">
        <ele>104.802962</ele>
        <time>2021-09-15T07:36:39.000Z</time>
      </trkpt>
      <trkpt lat="44.82367" lon="4.80075">
        <ele>104.967932</ele>
        <time>2021-09-15T07:36:44.000Z</time>
      </trkpt>
      <trkpt lat="44.82386" lon="4.80061">
        <ele>105.154299</ele>
        <time>2021-09-15T07:36:50.000Z</time>
      </trkpt>
      <trkpt lat="44.8241" lon="4.80043">
        <ele>105.397431</ele>
        <time>2021-09-15T07:36:56.000Z</time>
      </trkpt>
      <trkpt lat="44.82437" lon="4.80022">
        <ele>105.673754</ele>
        <time>2021-09-15T07:37:03.000Z</time>
      </trkpt>
      <trkpt lat="44.8246" lon="4.80004">
        <ele>105.904065</ele>
        <time>2021-09-15T07:37:09.000Z</time>
      </trkpt>
      <trkpt lat="44.82464" lon="4.80001">
        <ele>105.943429</ele>
        <time>2021-09-15T07:37:10.000Z</time>
      </trkpt>
      <trkpt lat="44.82477" lon="4.79998">
        <ele>106.096466</ele>
        <time>2021-09-15T07:37:14.000Z</time>
      </trkpt>
      <trkpt lat="44.82479" lon="4.79993">
        <ele>106.135001</ele>
        <time>2021-09-15T07:37:15.000Z</time>
      </trkpt>
      <trkpt lat="44.82483" lon="4.7999">
        <ele>106.189369</ele>
        <time>2021-09-15T07:37:23.000Z</time>
      </trkpt>
      <trkpt lat="44.82482" lon="4.79988">
        <ele>106.210716</ele>
        <time>2021-09-15T07:37:24.000Z</time>
      </trkpt>
      <trkpt lat="44.82481" lon="4.79986">
        <ele>106.228182</ele>
        <time>2021-09-15T07:37:25.000Z</time>
      </trkpt>
      <trkpt lat="44.82473" lon="4.7997">
        <ele>106.383438</ele>
        <time>2021-09-15T07:37:30.000Z</time>
      </trkpt>
      <trkpt lat="44.82458" lon="4.7994">
        <ele>106.673257</ele>
        <time>2021-09-15T07:37:37.000Z</time>
      </trkpt>
      <trkpt lat="44.82446" lon="4.79918">
        <ele>106.893849</ele>
        <time>2021-09-15T07:37:43.000Z</time>
      </trkpt>
      <trkpt lat="44.82431" lon="4.79889">
        <ele>107.17655</ele>
        <time>2021-09-15T07:37:49.000Z</time>
      </trkpt>
      <trkpt lat="44.82411" lon="4.7985">
        <ele>107.558874</ele>
        <time>2021-09-15T07:37:56.000Z</time>
      </trkpt>
      <trkpt lat="44.82389" lon="4.79806">
        <ele>107.943292</ele>
        <time>2021-09-15T07:38:04.000Z</time>
      </trkpt>
      <trkpt lat="44.82385" lon="4.79798">
        <ele>107.884202</ele>
        <time>2021-09-15T07:38:06.000Z</time>
      </trkpt>
      <trkpt lat="44.82379" lon="4.79801">
        <ele>107.833721</ele>
        <time>2021-09-15T07:38:07.000Z</time>
      </trkpt>
      <trkpt lat="44.82373" lon="4.79812">
        <ele>107.753545</ele>
        <time>2021-09-15T07:38:09.000Z</time>
      </trkpt>
      <trkpt lat="44.82373" lon="4.79823">
        <ele>107.690967</ele>
        <time>2021-09-15T07:38:10.000Z</time>
      </trkpt>
      <trkpt lat="44.82366" lon="4.79841">
        <ele>107.572873</ele>
        <time>2021-09-15T07:38:13.000Z</time>
      </trkpt>
      <trkpt lat="44.82361" lon="4.79855">
        <ele>107.482369</ele>
        <time>2021-09-15T07:38:15.000Z</time>
      </trkpt>
      <trkpt lat="44.82346" lon="4.79887">
        <ele>107.256953</ele>
        <time>2021-09-15T07:38:19.000Z</time>
      </trkpt>
      <trkpt lat="44.82329" lon="4.79914">
        <ele>107.040503</ele>
        <time>2021-09-15T07:38:22.000Z</time>
      </trkpt>
      <trkpt lat="44.82323" lon="4.79923">
        <ele>106.970203</ele>
        <time>2021-09-15T07:38:23.000Z</time>
      </trkpt>
      <trkpt lat="44.82304" lon="4.7994">
        <ele>106.787996</ele>
        <time>2021-09-15T07:38:26.000Z</time>
      </trkpt>
      <trkpt lat="44.82286" lon="4.79958">
        <ele>106.606955</ele>
        <time>2021-09-15T07:38:29.000Z</time>
      </trkpt>
      <trkpt lat="44.82279" lon="4.7996">
        <ele>106.548144</ele>
        <time>2021-09-15T07:38:30.000Z</time>
      </trkpt>
      <trkpt lat="44.82242" lon="4.79977">
        <ele>106.161694</ele>
        <time>2021-09-15T07:38:36.000Z</time>
      </trkpt>
      <trkpt lat="44.8221" lon="4.80002">
        <ele>105.787671</ele>
        <time>2021-09-15T07:38:42.000Z</time>
      </trkpt>
      <trkpt lat="44.82206" lon="4.80008">
        <ele>105.7249</ele>
        <time>2021-09-15T07:38:43.000Z</time>
      </trkpt>
      <trkpt lat="44.8219" lon="4.80045">
        <ele>105.410639</ele>
        <time>2021-09-15T07:38:48.000Z</time>
      </trkpt>
      <trkpt lat="44.82186" lon="4.80051">
        <ele>105.350568</ele>
        <time>2021-09-15T07:38:49.000Z</time>
      </trkpt>
      <trkpt lat="44.8218" lon="4.80055">
        <ele>105.284937</ele>
        <time>2021-09-15T07:38:50.000Z</time>
      </trkpt>
      <trkpt lat="44.82158" lon="4.80069">
        <ele>105.040674</ele>
        <time>2021-09-15T07:38:54.000Z</time>
      </trkpt>
      <trkpt lat="44.82118" lon="4.80091">
        <ele>104.590666</ele>
        <time>2021-09-15T07:39:01.000Z</time>
      </trkpt>
      <trkpt lat="44.82074" lon="4.80102">
        <ele>104.037034</ele>
        <time>2021-09-15T07:39:08.000Z</time>
      </trkpt>
      <trkpt lat="44.82036" lon="4.80107">
        <ele>103.564487</ele>
        <time>2021-09-15T07:39:14.000Z</time>
      </trkpt>
      <trkpt lat="44.81994" lon="4.80112">
        <ele>103.038579</ele>
        <time>2021-09-15T07:39:21.000Z</time>
      </trkpt>
      <trkpt lat="44.81988" lon="4.80113">
        <ele>102.968946</ele>
        <time>2021-09-15T07:39:22.000Z</time>
      </trkpt>
      <trkpt lat="44.8197" lon="4.80115">
        <ele>102.744376</ele>
        <time>2021-09-15T07:39:25.000Z</time>
      </trkpt>
      <trkpt lat="44.8192" lon="4.8012">
        <ele>102.218438</ele>
        <time>2021-09-15T07:39:33.000Z</time>
      </trkpt>
      <trkpt lat="44.81873" lon="4.80128">
        <ele>101.823249</ele>
        <time>2021-09-15T07:39:41.000Z</time>
      </trkpt>
      <trkpt lat="44.81834" lon="4.80134">
        <ele>101.498873</ele>
        <time>2021-09-15T07:39:48.000Z</time>
      </trkpt>
      <trkpt lat="44.81795" lon="4.80139">
        <ele>101.176117</ele>
        <time>2021-09-15T07:39:55.000Z</time>
      </trkpt>
      <trkpt lat="44.81741" lon="4.80146">
        <ele>100.805134</ele>
        <time>2021-09-15T07:40:05.000Z</time>
      </trkpt>
      <trkpt lat="44.81708" lon="4.80149">
        <ele>100.648889</ele>
        <time>2021-09-15T07:40:11.000Z</time>
      </trkpt>
      <trkpt lat="44.81676" lon="4.80149">
        <ele>100.496433</ele>
        <time>2021-09-15T07:40:17.000Z</time>
      </trkpt>
      <trkpt lat="44.8167" lon="4.80148">
        <ele>100.470768</ele>
        <time>2021-09-15T07:40:18.000Z</time>
      </trkpt>
      <trkpt lat="44.81624" lon="4.80146">
        <ele>100.25028</ele>
        <time>2021-09-15T07:40:26.000Z</time>
      </trkpt>
      <trkpt lat="44.81588" lon="4.80144">
        <ele>100.077644</ele>
        <time>2021-09-15T07:40:32.000Z</time>
      </trkpt>
      <trkpt lat="44.81552" lon="4.8014">
        <ele>100.162166</ele>
        <time>2021-09-15T07:40:38.000Z</time>
      </trkpt>
      <trkpt lat="44.81517" lon="4.80133">
        <ele>100.274053</ele>
        <time>2021-09-15T07:40:44.000Z</time>
      </trkpt>
      <trkpt lat="44.8148" lon="4.80127">
        <ele>100.390142</ele>
        <time>2021-09-15T07:40:50.000Z</time>
      </trkpt>
      <trkpt lat="44.81437" lon="4.80121">
        <ele>100.526695</ele>
        <time>2021-09-15T07:40:57.000Z</time>
      </trkpt>
      <trkpt lat="44.81413" lon="4.80118">
        <ele>100.600011</ele>
        <time>2021-09-15T07:41:01.000Z</time>
      </trkpt>
      <trkpt lat="44.81408" lon="4.80117">
        <ele>100.617907</ele>
        <time>2021-09-15T07:41:02.000Z</time>
      </trkpt>
      <trkpt lat="44.81367" lon="4.80113">
        <ele>100.899208</ele>
        <time>2021-09-15T07:41:09.000Z</time>
      </trkpt>
      <trkpt lat="44.81325" lon="4.80098">
        <ele>101.198349</ele>
        <time>2021-09-15T07:41:16.000Z</time>
      </trkpt>
      <trkpt lat="44.8132" lon="4.80096">
        <ele>101.239885</ele>
        <time>2021-09-15T07:41:17.000Z</time>
      </trkpt>
      <trkpt lat="44.81301" lon="4.80094">
        <ele>101.36893</ele>
        <time>2021-09-15T07:41:20.000Z</time>
      </trkpt>
      <trkpt lat="44.81289" lon="4.80095">
        <ele>101.45496</ele>
        <time>2021-09-15T07:41:22.000Z</time>
      </trkpt>
      <trkpt lat="44.81259" lon="4.80099">
        <ele>101.666492</ele>
        <time>2021-09-15T07:41:27.000Z</time>
      </trkpt>
      <trkpt lat="44.81225" lon="4.80097">
        <ele>101.887947</ele>
        <time>2021-09-15T07:41:33.000Z</time>
      </trkpt>
      <trkpt lat="44.81207" lon="4.80095">
        <ele>101.878326</ele>
        <time>2021-09-15T07:41:36.000Z</time>
      </trkpt>
      <trkpt lat="44.8119" lon="4.80092">
        <ele>101.868752</ele>
        <time>2021-09-15T07:41:39.000Z</time>
      </trkpt>
      <trkpt lat="44.81158" lon="4.80087">
        <ele>101.85119</ele>
        <time>2021-09-15T07:41:45.000Z</time>
      </trkpt>
      <trkpt lat="44.81123" lon="4.80081">
        <ele>101.832369</ele>
        <time>2021-09-15T07:41:51.000Z</time>
      </trkpt>
      <trkpt lat="44.81088" lon="4.80074">
        <ele>101.8128</ele>
        <time>2021-09-15T07:41:57.000Z</time>
      </trkpt>
      <trkpt lat="44.81046" lon="4.80064">
        <ele>101.771139</ele>
        <time>2021-09-15T07:42:04.000Z</time>
      </trkpt>
      <trkpt lat="44.81034" lon="4.80061">
        <ele>101.702399</ele>
        <time>2021-09-15T07:42:06.000Z</time>
      </trkpt>
      <trkpt lat="44.81016" lon="4.80057">
        <ele>101.599604</ele>
        <time>2021-09-15T07:42:09.000Z</time>
      </trkpt>
      <trkpt lat="44.80981" lon="4.8004">
        <ele>101.388479</ele>
        <time>2021-09-15T07:42:15.000Z</time>
      </trkpt>
      <trkpt lat="44.80942" lon="4.80015">
        <ele>101.144401</ele>
        <time>2021-09-15T07:42:22.000Z</time>
      </trkpt>
      <trkpt lat="44.8092" lon="4.80002">
        <ele>101.009225</ele>
        <time>2021-09-15T07:42:26.000Z</time>
      </trkpt>
      <trkpt lat="44.80894" lon="4.79985">
        <ele>100.850702</ele>
        <time>2021-09-15T07:42:31.000Z</time>
      </trkpt>
      <trkpt lat="44.80874" lon="4.79971">
        <ele>100.678797</ele>
        <time>2021-09-15T07:42:35.000Z</time>
      </trkpt>
      <trkpt lat="44.80861" lon="4.79957">
        <ele>100.498661</ele>
        <time>2021-09-15T07:42:38.000Z</time>
      </trkpt>
      <trkpt lat="44.80853" lon="4.79949">
        <ele>100.391564</ele>
        <time>2021-09-15T07:42:40.000Z</time>
      </trkpt>
      <trkpt lat="44.80846" lon="4.79942">
        <ele>100.297728</ele>
        <time>2021-09-15T07:42:42.000Z</time>
      </trkpt>
      <trkpt lat="44.80825" lon="4.79925">
        <ele>100.039818</ele>
        <time>2021-09-15T07:42:47.000Z</time>
      </trkpt>
      <trkpt lat="44.80804" lon="4.79908">
        <ele>99.776464</ele>
        <time>2021-09-15T07:42:52.000Z</time>
      </trkpt>
      <trkpt lat="44.80795" lon="4.799">
        <ele>99.664587</ele>
        <time>2021-09-15T07:42:54.000Z</time>
      </trkpt>
      <trkpt lat="44.80786" lon="4.79892">
        <ele>99.546485</ele>
        <time>2021-09-15T07:42:56.000Z</time>
      </trkpt>
      <trkpt lat="44.80766" lon="4.79882">
        <ele>99.313858</ele>
        <time>2021-09-15T07:43:00.000Z</time>
      </trkpt>
      <trkpt lat="44.80761" lon="4.79878">
        <ele>99.261031</ele>
        <time>2021-09-15T07:43:01.000Z</time>
      </trkpt>
      <trkpt lat="44.80753" lon="4.79871">
        <ele>99.150085</ele>
        <time>2021-09-15T07:43:03.000Z</time>
      </trkpt>
      <trkpt lat="44.80748" lon="4.79866">
        <ele>99.089239</ele>
        <time>2021-09-15T07:43:04.000Z</time>
      </trkpt>
      <trkpt lat="44.80744" lon="4.7986">
        <ele>99.025249</ele>
        <time>2021-09-15T07:43:05.000Z</time>
      </trkpt>
      <trkpt lat="44.80738" lon="4.79846">
        <ele>98.897368</ele>
        <time>2021-09-15T07:43:07.000Z</time>
      </trkpt>
      <trkpt lat="44.80729" lon="4.79836">
        <ele>98.852108</ele>
        <time>2021-09-15T07:43:09.000Z</time>
      </trkpt>
      <trkpt lat="44.80703" lon="4.79809">
        <ele>99.115964</ele>
        <time>2021-09-15T07:43:15.000Z</time>
      </trkpt>
      <trkpt lat="44.80685" lon="4.79787">
        <ele>99.30894</ele>
        <time>2021-09-15T07:43:19.000Z</time>
      </trkpt>
      <trkpt lat="44.80665" lon="4.79766">
        <ele>99.514677</ele>
        <time>2021-09-15T07:43:24.000Z</time>
      </trkpt>
      <trkpt lat="44.80656" lon="4.79758">
        <ele>99.598964</ele>
        <time>2021-09-15T07:43:26.000Z</time>
      </trkpt>
      <trkpt lat="44.80648" lon="4.7975">
        <ele>99.678272</ele>
        <time>2021-09-15T07:43:28.000Z</time>
      </trkpt>
      <trkpt lat="44.80632" lon="4.79733">
        <ele>99.841867</ele>
        <time>2021-09-15T07:43:32.000Z</time>
      </trkpt>
      <trkpt lat="44.80614" lon="4.79716">
        <ele>100.020065</ele>
        <time>2021-09-15T07:43:36.000Z</time>
      </trkpt>
      <trkpt lat="44.80596" lon="4.79695">
        <ele>100.208282</ele>
        <time>2021-09-15T07:43:40.000Z</time>
      </trkpt>
      <trkpt lat="44.80591" lon="4.79688">
        <ele>100.262697</ele>
        <time>2021-09-15T07:43:41.000Z</time>
      </trkpt>
      <trkpt lat="44.80584" lon="4.79673">
        <ele>100.312174</ele>
        <time>2021-09-15T07:43:43.000Z</time>
      </trkpt>
      <trkpt lat="44.80582" lon="4.79669">
        <ele>100.322576</ele>
        <time>2021-09-15T07:43:44.000Z</time>
      </trkpt>
      <trkpt lat="44.8058" lon="4.79664">
        <ele>100.333841</ele>
        <time>2021-09-15T07:43:45.000Z</time>
      </trkpt>
      <trkpt lat="44.80573" lon="4.79649">
        <ele>100.372396</ele>
        <time>2021-09-15T07:43:47.000Z</time>
      </trkpt>
      <trkpt lat="44.80559" lon="4.796">
        <ele>100.485211</ele>
        <time>2021-09-15T07:43:52.000Z</time>
      </trkpt>
      <trkpt lat="44.80555" lon="4.79587">
        <ele>100.514294</ele>
        <time>2021-09-15T07:43:54.000Z</time>
      </trkpt>
      <trkpt lat="44.80553" lon="4.7958">
        <ele>100.532159</ele>
        <time>2021-09-15T07:43:55.000Z</time>
      </trkpt>
      <trkpt lat="44.80551" lon="4.79571">
        <ele>100.550579</ele>
        <time>2021-09-15T07:43:56.000Z</time>
      </trkpt>
      <trkpt lat="44.80548" lon="4.79556">
        <ele>100.583891</ele>
        <time>2021-09-15T07:43:58.000Z</time>
      </trkpt>
      <trkpt lat="44.80548" lon="4.79549">
        <ele>100.598376</ele>
        <time>2021-09-15T07:43:59.000Z</time>
      </trkpt>
      <trkpt lat="44.80545" lon="4.79529">
        <ele>100.642249</ele>
        <time>2021-09-15T07:44:02.000Z</time>
      </trkpt>
      <trkpt lat="44.80543" lon="4.79513">
        <ele>100.676188</ele>
        <time>2021-09-15T07:44:04.000Z</time>
      </trkpt>
      <trkpt lat="44.80542" lon="4.79505">
        <ele>100.693706</ele>
        <time>2021-09-15T07:44:05.000Z</time>
      </trkpt>
      <trkpt lat="44.80538" lon="4.79488">
        <ele>100.732377</ele>
        <time>2021-09-15T07:44:07.000Z</time>
      </trkpt>
      <trkpt lat="44.80536" lon="4.7948">
        <ele>100.749661</ele>
        <time>2021-09-15T07:44:08.000Z</time>
      </trkpt>
      <trkpt lat="44.80527" lon="4.79446">
        <ele>100.806655</ele>
        <time>2021-09-15T07:44:12.000Z</time>
      </trkpt>
      <trkpt lat="44.80526" lon="4.79437">
        <ele>100.776171</ele>
        <time>2021-09-15T07:44:13.000Z</time>
      </trkpt>
      <trkpt lat="44.80526" lon="4.79428">
        <ele>100.749314</ele>
        <time>2021-09-15T07:44:14.000Z</time>
      </trkpt>
      <trkpt lat="44.8052" lon="4.79413">
        <ele>100.693141</ele>
        <time>2021-09-15T07:44:16.000Z</time>
      </trkpt>
      <trkpt lat="44.80512" lon="4.79405">
        <ele>100.647294</ele>
        <time>2021-09-15T07:44:18.000Z</time>
      </trkpt>
      <trkpt lat="44.8051" lon="4.79398">
        <ele>100.620745</ele>
        <time>2021-09-15T07:44:19.000Z</time>
      </trkpt>
      <trkpt lat="44.80506" lon="4.79384">
        <ele>100.572261</ele>
        <time>2021-09-15T07:44:21.000Z</time>
      </trkpt>
      <trkpt lat="44.80502" lon="4.79372">
        <ele>100.527437</ele>
        <time>2021-09-15T07:44:23.000Z</time>
      </trkpt>
      <trkpt lat="44.8049" lon="4.79342">
        <ele>100.415414</ele>
        <time>2021-09-15T07:44:27.000Z</time>
      </trkpt>
      <trkpt lat="44.80485" lon="4.79336">
        <ele>100.387604</ele>
        <time>2021-09-15T07:44:28.000Z</time>
      </trkpt>
      <trkpt lat="44.80467" lon="4.79313">
        <ele>100.276129</ele>
        <time>2021-09-15T07:44:32.000Z</time>
      </trkpt>
      <trkpt lat="44.80464" lon="4.79309">
        <ele>100.253476</ele>
        <time>2021-09-15T07:44:33.000Z</time>
      </trkpt>
      <trkpt lat="44.80461" lon="4.79302">
        <ele>100.2281</ele>
        <time>2021-09-15T07:44:34.000Z</time>
      </trkpt>
      <trkpt lat="44.80457" lon="4.79287">
        <ele>100.177311</ele>
        <time>2021-09-15T07:44:36.000Z</time>
      </trkpt>
      <trkpt lat="44.80456" lon="4.7928">
        <ele>100.151263</ele>
        <time>2021-09-15T07:44:37.000Z</time>
      </trkpt>
      <trkpt lat="44.80456" lon="4.79272">
        <ele>100.125351</ele>
        <time>2021-09-15T07:44:38.000Z</time>
      </trkpt>
      <trkpt lat="44.80455" lon="4.79257">
        <ele>100.078785</ele>
        <time>2021-09-15T07:44:40.000Z</time>
      </trkpt>
      <trkpt lat="44.80437" lon="4.79233">
        <ele>100.050389</ele>
        <time>2021-09-15T07:44:44.000Z</time>
      </trkpt>
      <trkpt lat="44.80427" lon="4.79211">
        <ele>100.255154</ele>
        <time>2021-09-15T07:44:47.000Z</time>
      </trkpt>
      <trkpt lat="44.80424" lon="4.79204">
        <ele>100.314517</ele>
        <time>2021-09-15T07:44:48.000Z</time>
      </trkpt>
      <trkpt lat="44.80422" lon="4.79191">
        <ele>100.416187</ele>
        <time>2021-09-15T07:44:50.000Z</time>
      </trkpt>
      <trkpt lat="44.8042" lon="4.79177">
        <ele>100.526622</ele>
        <time>2021-09-15T07:44:52.000Z</time>
      </trkpt>
      <trkpt lat="44.80417" lon="4.79162">
        <ele>100.644066</ele>
        <time>2021-09-15T07:44:54.000Z</time>
      </trkpt>
      <trkpt lat="44.80414" lon="4.79144">
        <ele>100.788144</ele>
        <time>2021-09-15T07:44:56.000Z</time>
      </trkpt>
      <trkpt lat="44.80409" lon="4.79132">
        <ele>100.899404</ele>
        <time>2021-09-15T07:44:58.000Z</time>
      </trkpt>
      <trkpt lat="44.80404" lon="4.79118">
        <ele>101.015092</ele>
        <time>2021-09-15T07:45:00.000Z</time>
      </trkpt>
      <trkpt lat="44.804" lon="4.79106">
        <ele>101.124482</ele>
        <time>2021-09-15T07:45:02.000Z</time>
      </trkpt>
      <trkpt lat="44.80397" lon="4.791">
        <ele>101.178491</ele>
        <time>2021-09-15T07:45:03.000Z</time>
      </trkpt>
      <trkpt lat="44.80395" lon="4.79093">
        <ele>101.2383</ele>
        <time>2021-09-15T07:45:04.000Z</time>
      </trkpt>
      <trkpt lat="44.80386" lon="4.79068">
        <ele>101.454522</ele>
        <time>2021-09-15T07:45:07.000Z</time>
      </trkpt>
      <trkpt lat="44.8038" lon="4.79051">
        <ele>101.597467</ele>
        <time>2021-09-15T07:45:09.000Z</time>
      </trkpt>
      <trkpt lat="44.80377" lon="4.79045">
        <ele>101.648423</ele>
        <time>2021-09-15T07:45:10.000Z</time>
      </trkpt>
      <trkpt lat="44.80375" lon="4.79039">
        <ele>101.704989</ele>
        <time>2021-09-15T07:45:11.000Z</time>
      </trkpt>
      <trkpt lat="44.80369" lon="4.79024">
        <ele>101.836864</ele>
        <time>2021-09-15T07:45:13.000Z</time>
      </trkpt>
      <trkpt lat="44.80363" lon="4.79008">
        <ele>101.996066</ele>
        <time>2021-09-15T07:45:15.000Z</time>
      </trkpt>
      <trkpt lat="44.80356" lon="4.78992">
        <ele>102.218151</ele>
        <time>2021-09-15T07:45:17.000Z</time>
      </trkpt>
      <trkpt lat="44.80353" lon="4.78985">
        <ele>102.314433</ele>
        <time>2021-09-15T07:45:18.000Z</time>
      </trkpt>
      <trkpt lat="44.80351" lon="4.78979">
        <ele>102.406713</ele>
        <time>2021-09-15T07:45:19.000Z</time>
      </trkpt>
      <trkpt lat="44.80345" lon="4.78965">
        <ele>102.594431</ele>
        <time>2021-09-15T07:45:21.000Z</time>
      </trkpt>
      <trkpt lat="44.80343" lon="4.78958">
        <ele>102.684714</ele>
        <time>2021-09-15T07:45:22.000Z</time>
      </trkpt>
      <trkpt lat="44.80339" lon="4.78943">
        <ele>102.884684</ele>
        <time>2021-09-15T07:45:24.000Z</time>
      </trkpt>
      <trkpt lat="44.80332" lon="4.78919">
        <ele>103.205245</ele>
        <time>2021-09-15T07:45:27.000Z</time>
      </trkpt>
      <trkpt lat="44.80314" lon="4.78863">
        <ele>103.949218</ele>
        <time>2021-09-15T07:45:33.000Z</time>
      </trkpt>
      <trkpt lat="44.80308" lon="4.78846">
        <ele>104.171518</ele>
        <time>2021-09-15T07:45:36.000Z</time>
      </trkpt>
      <trkpt lat="44.80306" lon="4.78837">
        <ele>104.292352</ele>
        <time>2021-09-15T07:45:37.000Z</time>
      </trkpt>
      <trkpt lat="44.80304" lon="4.78826">
        <ele>104.423197</ele>
        <time>2021-09-15T07:45:38.000Z</time>
      </trkpt>
      <trkpt lat="44.80301" lon="4.78808">
        <ele>104.645223</ele>
        <time>2021-09-15T07:45:40.000Z</time>
      </trkpt>
      <trkpt lat="44.803" lon="4.788">
        <ele>104.745453</ele>
        <time>2021-09-15T07:45:41.000Z</time>
      </trkpt>
      <trkpt lat="44.80297" lon="4.78784">
        <ele>104.949003</ele>
        <time>2021-09-15T07:45:43.000Z</time>
      </trkpt>
      <trkpt lat="44.80293" lon="4.78769">
        <ele>105.136823</ele>
        <time>2021-09-15T07:45:45.000Z</time>
      </trkpt>
      <trkpt lat="44.80287" lon="4.78755">
        <ele>105.311186</ele>
        <time>2021-09-15T07:45:47.000Z</time>
      </trkpt>
      <trkpt lat="44.80282" lon="4.78741">
        <ele>105.480894</ele>
        <time>2021-09-15T07:45:49.000Z</time>
      </trkpt>
      <trkpt lat="44.8028" lon="4.78734">
        <ele>105.565749</ele>
        <time>2021-09-15T07:45:50.000Z</time>
      </trkpt>
      <trkpt lat="44.80275" lon="4.78721">
        <ele>105.739127</ele>
        <time>2021-09-15T07:45:52.000Z</time>
      </trkpt>
      <trkpt lat="44.8027" lon="4.78706">
        <ele>105.916175</ele>
        <time>2021-09-15T07:45:54.000Z</time>
      </trkpt>
      <trkpt lat="44.80267" lon="4.787">
        <ele>106.001029</ele>
        <time>2021-09-15T07:45:55.000Z</time>
      </trkpt>
      <trkpt lat="44.80265" lon="4.78693">
        <ele>106.080515</ele>
        <time>2021-09-15T07:45:56.000Z</time>
      </trkpt>
      <trkpt lat="44.8026" lon="4.78681">
        <ele>106.235546</ele>
        <time>2021-09-15T07:45:58.000Z</time>
      </trkpt>
      <trkpt lat="44.80258" lon="4.78675">
        <ele>106.305009</ele>
        <time>2021-09-15T07:45:59.000Z</time>
      </trkpt>
      <trkpt lat="44.80253" lon="4.7866">
        <ele>106.490116</ele>
        <time>2021-09-15T07:46:01.000Z</time>
      </trkpt>
      <trkpt lat="44.80247" lon="4.78645">
        <ele>106.676478</ele>
        <time>2021-09-15T07:46:03.000Z</time>
      </trkpt>
      <trkpt lat="44.80242" lon="4.78631">
        <ele>106.860606</ele>
        <time>2021-09-15T07:46:05.000Z</time>
      </trkpt>
      <trkpt lat="44.80225" lon="4.78586">
        <ele>107.420127</ele>
        <time>2021-09-15T07:46:10.000Z</time>
      </trkpt>
      <trkpt lat="44.80209" lon="4.78542">
        <ele>107.719951</ele>
        <time>2021-09-15T07:46:16.000Z</time>
      </trkpt>
      <trkpt lat="44.8019" lon="4.78495">
        <ele>107.262577</ele>
        <time>2021-09-15T07:46:23.000Z</time>
      </trkpt>
      <trkpt lat="44.80186" lon="4.78485">
        <ele>107.165765</ele>
        <time>2021-09-15T07:46:25.000Z</time>
      </trkpt>
      <trkpt lat="44.80184" lon="4.7848">
        <ele>107.11561</ele>
        <time>2021-09-15T07:46:26.000Z</time>
      </trkpt>
      <trkpt lat="44.80169" lon="4.78457">
        <ele>106.857079</ele>
        <time>2021-09-15T07:46:32.000Z</time>
      </trkpt>
      <trkpt lat="44.80166" lon="4.78452">
        <ele>106.798599</ele>
        <time>2021-09-15T07:46:38.000Z</time>
      </trkpt>
      <trkpt lat="44.80164" lon="4.78449">
        <ele>106.763478</ele>
        <time>2021-09-15T07:46:42.000Z</time>
      </trkpt>
      <trkpt lat="44.80161" lon="4.78444">
        <ele>106.716756</ele>
        <time>2021-09-15T07:46:44.000Z</time>
      </trkpt>
      <trkpt lat="44.8015" lon="4.78426">
        <ele>106.512769</ele>
        <time>2021-09-15T07:46:49.000Z</time>
      </trkpt>
      <trkpt lat="44.80145" lon="4.78418">
        <ele>106.421364</ele>
        <time>2021-09-15T07:46:51.000Z</time>
      </trkpt>
      <trkpt lat="44.80142" lon="4.78413">
        <ele>106.367877</ele>
        <time>2021-09-15T07:46:52.000Z</time>
      </trkpt>
      <trkpt lat="44.80136" lon="4.78403">
        <ele>106.25452</ele>
        <time>2021-09-15T07:46:54.000Z</time>
      </trkpt>
      <trkpt lat="44.8012" lon="4.78384">
        <ele>106.014819</ele>
        <time>2021-09-15T07:46:58.000Z</time>
      </trkpt>
      <trkpt lat="44.80113" lon="4.78374">
        <ele>105.891038</ele>
        <time>2021-09-15T07:47:00.000Z</time>
      </trkpt>
      <trkpt lat="44.80104" lon="4.78363">
        <ele>105.756952</ele>
        <time>2021-09-15T07:47:02.000Z</time>
      </trkpt>
      <trkpt lat="44.80089" lon="4.78344">
        <ele>105.466979</ele>
        <time>2021-09-15T07:47:06.000Z</time>
      </trkpt>
      <trkpt lat="44.80063" lon="4.78309">
        <ele>104.942759</ele>
        <time>2021-09-15T07:47:12.000Z</time>
      </trkpt>
      <trkpt lat="44.80053" lon="4.78293">
        <ele>104.718651</ele>
        <time>2021-09-15T07:47:15.000Z</time>
      </trkpt>
      <trkpt lat="44.80049" lon="4.78286">
        <ele>104.623089</ele>
        <time>2021-09-15T07:47:17.000Z</time>
      </trkpt>
      <trkpt lat="44.80043" lon="4.78256">
        <ele>104.29773</ele>
        <time>2021-09-15T07:47:22.000Z</time>
      </trkpt>
      <trkpt lat="44.80026" lon="4.78232">
        <ele>103.941143</ele>
        <time>2021-09-15T07:47:29.000Z</time>
      </trkpt>
      <trkpt lat="44.80014" lon="4.78214">
        <ele>103.688411</ele>
        <time>2021-09-15T07:47:34.000Z</time>
      </trkpt>
      <trkpt lat="44.80009" lon="4.782">
        <ele>103.519435</ele>
        <time>2021-09-15T07:47:40.000Z</time>
      </trkpt>
      <trkpt lat="44.80008" lon="4.78194">
        <ele>103.458809</ele>
        <time>2021-09-15T07:47:42.000Z</time>
      </trkpt>
      <trkpt lat="44.80005" lon="4.78191">
        <ele>103.408208</ele>
        <time>2021-09-15T07:47:44.000Z</time>
      </trkpt>
      <trkpt lat="44.8001" lon="4.78186">
        <ele>103.313029</ele>
        <time>2021-09-15T07:47:47.000Z</time>
      </trkpt>
      <trkpt lat="44.80015" lon="4.78188">
        <ele>103.24489</ele>
        <time>2021-09-15T07:47:48.000Z</time>
      </trkpt>
      <trkpt lat="44.80015" lon="4.78191">
        <ele>103.212336</ele>
        <time>2021-09-15T07:47:49.000Z</time>
      </trkpt>
      <trkpt lat="44.80018" lon="4.78202">
        <ele>103.089622</ele>
        <time>2021-09-15T07:47:52.000Z</time>
      </trkpt>
      <trkpt lat="44.80031" lon="4.78226">
        <ele>103.072116</ele>
        <time>2021-09-15T07:47:58.000Z</time>
      </trkpt>
      <trkpt lat="44.80054" lon="4.78258">
        <ele>103.110142</ele>
        <time>2021-09-15T07:48:06.000Z</time>
      </trkpt>
      <trkpt lat="44.8006" lon="4.78266">
        <ele>103.120177</ele>
        <time>2021-09-15T07:48:08.000Z</time>
      </trkpt>
      <trkpt lat="44.80073" lon="4.78282">
        <ele>103.141045</ele>
        <time>2021-09-15T07:48:12.000Z</time>
      </trkpt>
      <trkpt lat="44.80088" lon="4.783">
        <ele>103.164385</ele>
        <time>2021-09-15T07:48:17.000Z</time>
      </trkpt>
      <trkpt lat="44.801" lon="4.78316">
        <ele>103.184118</ele>
        <time>2021-09-15T07:48:21.000Z</time>
      </trkpt>
      <trkpt lat="44.80108" lon="4.78321">
        <ele>103.194921</ele>
        <time>2021-09-15T07:48:23.000Z</time>
      </trkpt>
      <trkpt lat="44.80113" lon="4.78323">
        <ele>103.201238</ele>
        <time>2021-09-15T07:48:25.000Z</time>
      </trkpt>
      <trkpt lat="44.80118" lon="4.7833">
        <ele>103.209295</ele>
        <time>2021-09-15T07:48:27.000Z</time>
      </trkpt>
      <trkpt lat="44.80114" lon="4.78334">
        <ele>103.215958</ele>
        <time>2021-09-15T07:48:30.000Z</time>
      </trkpt>
      <trkpt lat="44.8011" lon="4.78339">
        <ele>103.221835</ele>
        <time>2021-09-15T07:48:33.000Z</time>
      </trkpt>
      <trkpt lat="44.8011" lon="4.78339">
        <ele>103.222329</ele>
        <time>2021-09-15T07:48:35.000Z</time>
      </trkpt>
      <trkpt lat="44.80106" lon="4.78342">
        <ele>103.227224</ele>
        <time>2021-09-15T07:48:42.000Z</time>
      </trkpt>
      <trkpt lat="44.80103" lon="4.78346">
        <ele>103.23305</ele>
        <time>2021-09-15T07:48:44.000Z</time>
      </trkpt>
      <trkpt lat="44.801" lon="4.7835">
        <ele>103.237607</ele>
        <time>2021-09-15T07:48:46.000Z</time>
      </trkpt>
      <trkpt lat="44.80095" lon="4.78354">
        <ele>103.243726</ele>
        <time>2021-09-15T07:48:49.000Z</time>
      </trkpt>
      <trkpt lat="44.80084" lon="4.78366">
        <ele>103.261255</ele>
        <time>2021-09-15T07:48:56.000Z</time>
      </trkpt>
      <trkpt lat="44.80077" lon="4.78374">
        <ele>103.332748</ele>
        <time>2021-09-15T07:49:00.000Z</time>
      </trkpt>
      <trkpt lat="44.80071" lon="4.7838">
        <ele>103.40959</ele>
        <time>2021-09-15T07:49:03.000Z</time>
      </trkpt>
      <trkpt lat="44.8007" lon="4.78381">
        <ele>103.426224</ele>
        <time>2021-09-15T07:49:04.000Z</time>
      </trkpt>
      <trkpt lat="44.80068" lon="4.78383">
        <ele>103.446899</ele>
        <time>2021-09-15T07:49:05.000Z</time>
      </trkpt>
      <trkpt lat="44.80062" lon="4.7839">
        <ele>103.537213</ele>
        <time>2021-09-15T07:49:07.000Z</time>
      </trkpt>
      <trkpt lat="44.80047" lon="4.78405">
        <ele>103.738102</ele>
        <time>2021-09-15T07:49:12.000Z</time>
      </trkpt>
      <trkpt lat="44.8003" lon="4.78424">
        <ele>103.977178</ele>
        <time>2021-09-15T07:49:18.000Z</time>
      </trkpt>
      <trkpt lat="44.80014" lon="4.78441">
        <ele>104.196927</ele>
        <time>2021-09-15T07:49:24.000Z</time>
      </trkpt>
      <trkpt lat="44.79993" lon="4.78462">
        <ele>104.476475</ele>
        <time>2021-09-15T07:49:31.000Z</time>
      </trkpt>
      <trkpt lat="44.79973" lon="4.78483">
        <ele>104.751983</ele>
        <time>2021-09-15T07:49:37.000Z</time>
      </trkpt>
      <trkpt lat="44.79953" lon="4.78505">
        <ele>105.034226</ele>
        <time>2021-09-15T07:49:44.000Z</time>
      </trkpt>
      <trkpt lat="44.79939" lon="4.7852">
        <ele>105.225687</ele>
        <time>2021-09-15T07:49:47.000Z</time>
      </trkpt>
      <trkpt lat="44.79931" lon="4.78528">
        <ele>105.173451</ele>
        <time>2021-09-15T07:49:49.000Z</time>
      </trkpt>
      <trkpt lat="44.79904" lon="4.78557">
        <ele>104.899481</ele>
        <time>2021-09-15T07:49:56.000Z</time>
      </trkpt>
      <trkpt lat="44.79886" lon="4.78568">
        <ele>104.744749</ele>
        <time>2021-09-15T07:49:58.000Z</time>
      </trkpt>
      <trkpt lat="44.7988" lon="4.78562">
        <ele>104.691354</ele>
        <time>2021-09-15T07:49:59.000Z</time>
      </trkpt>
      <trkpt lat="44.79847" lon="4.78531">
        <ele>104.365668</ele>
        <time>2021-09-15T07:50:04.000Z</time>
      </trkpt>
      <trkpt lat="44.79805" lon="4.78496">
        <ele>103.981023</ele>
        <time>2021-09-15T07:50:10.000Z</time>
      </trkpt>
      <trkpt lat="44.79768" lon="4.78464">
        <ele>103.60563</ele>
        <time>2021-09-15T07:50:16.000Z</time>
      </trkpt>
      <trkpt lat="44.79722" lon="4.78424">
        <ele>103.099821</ele>
        <time>2021-09-15T07:50:24.000Z</time>
      </trkpt>
      <trkpt lat="44.79671" lon="4.78381">
        <ele>102.55128</ele>
        <time>2021-09-15T07:50:33.000Z</time>
      </trkpt>
      <trkpt lat="44.79632" lon="4.78352">
        <ele>102.142675</ele>
        <time>2021-09-15T07:50:40.000Z</time>
      </trkpt>
      <trkpt lat="44.79592" lon="4.78326">
        <ele>101.843583</ele>
        <time>2021-09-15T07:50:47.000Z</time>
      </trkpt>
      <trkpt lat="44.7954" lon="4.78297">
        <ele>101.463516</ele>
        <time>2021-09-15T07:50:56.000Z</time>
      </trkpt>
      <trkpt lat="44.79499" lon="4.78274">
        <ele>101.161523</ele>
        <time>2021-09-15T07:51:03.000Z</time>
      </trkpt>
      <trkpt lat="44.7949" lon="4.78264">
        <ele>101.081887</ele>
        <time>2021-09-15T07:51:05.000Z</time>
      </trkpt>
      <trkpt lat="44.79478" lon="4.78252">
        <ele>100.982181</ele>
        <time>2021-09-15T07:51:08.000Z</time>
      </trkpt>
      <trkpt lat="44.79463" lon="4.78233">
        <ele>100.844558</ele>
        <time>2021-09-15T07:51:12.000Z</time>
      </trkpt>
      <trkpt lat="44.79455" lon="4.78223">
        <ele>100.77682</ele>
        <time>2021-09-15T07:51:14.000Z</time>
      </trkpt>
      <trkpt lat="44.79448" lon="4.78214">
        <ele>100.711037</ele>
        <time>2021-09-15T07:51:16.000Z</time>
      </trkpt>
      <trkpt lat="44.79435" lon="4.78197">
        <ele>100.592381</ele>
        <time>2021-09-15T07:51:19.000Z</time>
      </trkpt>
      <trkpt lat="44.7942" lon="4.78188">
        <ele>100.48188</ele>
        <time>2021-09-15T07:51:22.000Z</time>
      </trkpt>
      <trkpt lat="44.79405" lon="4.78179">
        <ele>100.370762</ele>
        <time>2021-09-15T07:51:25.000Z</time>
      </trkpt>
      <trkpt lat="44.7938" lon="4.78164">
        <ele>100.190719</ele>
        <time>2021-09-15T07:51:30.000Z</time>
      </trkpt>
      <trkpt lat="44.79371" lon="4.78158">
        <ele>100.120559</ele>
        <time>2021-09-15T07:51:32.000Z</time>
      </trkpt>
      <trkpt lat="44.79348" lon="4.78144">
        <ele>99.955156</ele>
        <time>2021-09-15T07:51:37.000Z</time>
      </trkpt>
      <trkpt lat="44.79344" lon="4.7814">
        <ele>99.92262</ele>
        <time>2021-09-15T07:51:38.000Z</time>
      </trkpt>
      <trkpt lat="44.79336" lon="4.78132">
        <ele>99.853981</ele>
        <time>2021-09-15T07:51:40.000Z</time>
      </trkpt>
      <trkpt lat="44.79326" lon="4.78121">
        <ele>99.770475</ele>
        <time>2021-09-15T07:51:42.000Z</time>
      </trkpt>
      <trkpt lat="44.79306" lon="4.78104">
        <ele>99.635354</ele>
        <time>2021-09-15T07:51:46.000Z</time>
      </trkpt>
      <trkpt lat="44.79269" lon="4.78077">
        <ele>99.427494</ele>
        <time>2021-09-15T07:51:53.000Z</time>
      </trkpt>
      <trkpt lat="44.79223" lon="4.78048">
        <ele>99.171697</ele>
        <time>2021-09-15T07:52:02.000Z</time>
      </trkpt>
      <trkpt lat="44.7918" lon="4.78013">
        <ele>98.92513</ele>
        <time>2021-09-15T07:52:11.000Z</time>
      </trkpt>
      <trkpt lat="44.79137" lon="4.77977">
        <ele>98.772634</ele>
        <time>2021-09-15T07:52:20.000Z</time>
      </trkpt>
      <trkpt lat="44.79099" lon="4.77945">
        <ele>98.727976</ele>
        <time>2021-09-15T07:52:28.000Z</time>
      </trkpt>
      <trkpt lat="44.79059" lon="4.77913">
        <ele>98.6822</ele>
        <time>2021-09-15T07:52:36.000Z</time>
      </trkpt>
      <trkpt lat="44.79021" lon="4.77879">
        <ele>98.636411</ele>
        <time>2021-09-15T07:52:44.000Z</time>
      </trkpt>
      <trkpt lat="44.78988" lon="4.77848">
        <ele>98.660895</ele>
        <time>2021-09-15T07:52:51.000Z</time>
      </trkpt>
      <trkpt lat="44.78945" lon="4.7781">
        <ele>98.772043</ele>
        <time>2021-09-15T07:53:00.000Z</time>
      </trkpt>
      <trkpt lat="44.78908" lon="4.77776">
        <ele>98.86971</ele>
        <time>2021-09-15T07:53:08.000Z</time>
      </trkpt>
      <trkpt lat="44.78874" lon="4.77747">
        <ele>98.956066</ele>
        <time>2021-09-15T07:53:15.000Z</time>
      </trkpt>
      <trkpt lat="44.78847" lon="4.77723">
        <ele>99.030899</ele>
        <time>2021-09-15T07:53:21.000Z</time>
      </trkpt>
      <trkpt lat="44.78814" lon="4.77695">
        <ele>99.139586</ele>
        <time>2021-09-15T07:53:28.000Z</time>
      </trkpt>
      <trkpt lat="44.78779" lon="4.77669">
        <ele>99.250282</ele>
        <time>2021-09-15T07:53:35.000Z</time>
      </trkpt>
      <trkpt lat="44.78745" lon="4.77648">
        <ele>99.354692</ele>
        <time>2021-09-15T07:53:42.000Z</time>
      </trkpt>
      <trkpt lat="44.78719" lon="4.77631">
        <ele>99.435243</ele>
        <time>2021-09-15T07:53:47.000Z</time>
      </trkpt>
      <trkpt lat="44.78688" lon="4.77611">
        <ele>99.528183</ele>
        <time>2021-09-15T07:53:53.000Z</time>
      </trkpt>
      <trkpt lat="44.78649" lon="4.77583">
        <ele>99.622173</ele>
        <time>2021-09-15T07:54:01.000Z</time>
      </trkpt>
      <trkpt lat="44.78603" lon="4.77553">
        <ele>99.731189</ele>
        <time>2021-09-15T07:54:10.000Z</time>
      </trkpt>
      <trkpt lat="44.78563" lon="4.77532">
        <ele>99.825559</ele>
        <time>2021-09-15T07:54:18.000Z</time>
      </trkpt>
      <trkpt lat="44.78514" lon="4.77516">
        <ele>99.915046</ele>
        <time>2021-09-15T07:54:27.000Z</time>
      </trkpt>
      <trkpt lat="44.78457" lon="4.77497">
        <ele>99.953589</ele>
        <time>2021-09-15T07:54:38.000Z</time>
      </trkpt>
      <trkpt lat="44.78425" lon="4.77487">
        <ele>99.974948</ele>
        <time>2021-09-15T07:54:44.000Z</time>
      </trkpt>
      <trkpt lat="44.7842" lon="4.77485">
        <ele>99.978364</ele>
        <time>2021-09-15T07:54:45.000Z</time>
      </trkpt>
      <trkpt lat="44.78402" lon="4.77479">
        <ele>99.990006</ele>
        <time>2021-09-15T07:54:49.000Z</time>
      </trkpt>
      <trkpt lat="44.78387" lon="4.77474">
        <ele>100.000242</ele>
        <time>2021-09-15T07:54:52.000Z</time>
      </trkpt>
      <trkpt lat="44.78382" lon="4.77473">
        <ele>100.003922</ele>
        <time>2021-09-15T07:54:53.000Z</time>
      </trkpt>
      <trkpt lat="44.78359" lon="4.77465">
        <ele>100.019276</ele>
        <time>2021-09-15T07:54:57.000Z</time>
      </trkpt>
      <trkpt lat="44.78353" lon="4.77463">
        <ele>100.022914</ele>
        <time>2021-09-15T07:54:58.000Z</time>
      </trkpt>
      <trkpt lat="44.78327" lon="4.77453">
        <ele>99.784302</ele>
        <time>2021-09-15T07:55:03.000Z</time>
      </trkpt>
      <trkpt lat="44.78305" lon="4.77444">
        <ele>99.55331</ele>
        <time>2021-09-15T07:55:07.000Z</time>
      </trkpt>
      <trkpt lat="44.78282" lon="4.77436">
        <ele>99.318505</ele>
        <time>2021-09-15T07:55:11.000Z</time>
      </trkpt>
      <trkpt lat="44.78253" lon="4.77425">
        <ele>99.028244</ele>
        <time>2021-09-15T07:55:16.000Z</time>
      </trkpt>
      <trkpt lat="44.78229" lon="4.77416">
        <ele>98.78527</ele>
        <time>2021-09-15T07:55:21.000Z</time>
      </trkpt>
      <trkpt lat="44.78225" lon="4.77414">
        <ele>98.739112</ele>
        <time>2021-09-15T07:55:22.000Z</time>
      </trkpt>
      <trkpt lat="44.78218" lon="4.77411">
        <ele>98.666916</ele>
        <time>2021-09-15T07:55:23.000Z</time>
      </trkpt>
      <trkpt lat="44.7821" lon="4.77399">
        <ele>98.552286</ele>
        <time>2021-09-15T07:55:25.000Z</time>
      </trkpt>
      <trkpt lat="44.78206" lon="4.77396">
        <ele>98.504136</ele>
        <time>2021-09-15T07:55:26.000Z</time>
      </trkpt>
      <trkpt lat="44.78187" lon="4.77381">
        <ele>98.291459</ele>
        <time>2021-09-15T07:55:31.000Z</time>
      </trkpt>
      <trkpt lat="44.78179" lon="4.77373">
        <ele>98.216114</ele>
        <time>2021-09-15T07:55:33.000Z</time>
      </trkpt>
      <trkpt lat="44.78169" lon="4.77366">
        <ele>98.144482</ele>
        <time>2021-09-15T07:55:35.000Z</time>
      </trkpt>
      <trkpt lat="44.78156" lon="4.77372">
        <ele>98.06089</ele>
        <time>2021-09-15T07:55:37.000Z</time>
      </trkpt>
      <trkpt lat="44.78152" lon="4.7738">
        <ele>98.019571</ele>
        <time>2021-09-15T07:55:38.000Z</time>
      </trkpt>
      <trkpt lat="44.78153" lon="4.77388">
        <ele>97.980381</ele>
        <time>2021-09-15T07:55:39.000Z</time>
      </trkpt>
      <trkpt lat="44.78155" lon="4.77401">
        <ele>97.922552</ele>
        <time>2021-09-15T07:55:41.000Z</time>
      </trkpt>
      <trkpt lat="44.78159" lon="4.77413">
        <ele>97.863474</ele>
        <time>2021-09-15T07:55:44.000Z</time>
      </trkpt>
      <trkpt lat="44.78159" lon="4.77418">
        <ele>97.841034</ele>
        <time>2021-09-15T07:55:45.000Z</time>
      </trkpt>
      <trkpt lat="44.78152" lon="4.77427">
        <ele>97.779233</ele>
        <time>2021-09-15T07:55:47.000Z</time>
      </trkpt>
      <trkpt lat="44.78149" lon="4.77424">
        <ele>97.75543</ele>
        <time>2021-09-15T07:55:48.000Z</time>
      </trkpt>
      <trkpt lat="44.78141" lon="4.77413">
        <ele>97.687274</ele>
        <time>2021-09-15T07:55:52.000Z</time>
      </trkpt>
      <trkpt lat="44.78136" lon="4.77413">
        <ele>97.656478</ele>
        <time>2021-09-15T07:55:53.000Z</time>
      </trkpt>
      <trkpt lat="44.78128" lon="4.77415">
        <ele>97.6071</ele>
        <time>2021-09-15T07:55:55.000Z</time>
      </trkpt>
      <trkpt lat="44.78125" lon="4.77418">
        <ele>97.581743</ele>
        <time>2021-09-15T07:55:56.000Z</time>
      </trkpt>
      <trkpt lat="44.78114" lon="4.77427">
        <ele>97.50615</ele>
        <time>2021-09-15T07:55:59.000Z</time>
      </trkpt>
      <trkpt lat="44.78103" lon="4.77434">
        <ele>97.430937</ele>
        <time>2021-09-15T07:56:02.000Z</time>
      </trkpt>
      <trkpt lat="44.781" lon="4.77435">
        <ele>97.409971</ele>
        <time>2021-09-15T07:56:03.000Z</time>
      </trkpt>
      <trkpt lat="44.78092" lon="4.77429">
        <ele>97.35335</ele>
        <time>2021-09-15T07:56:04.000Z</time>
      </trkpt>
      <trkpt lat="44.7809" lon="4.77418">
        <ele>97.301595</ele>
        <time>2021-09-15T07:56:06.000Z</time>
      </trkpt>
      <trkpt lat="44.78088" lon="4.77412">
        <ele>97.274788</ele>
        <time>2021-09-15T07:56:07.000Z</time>
      </trkpt>
      <trkpt lat="44.78075" lon="4.77377">
        <ele>97.129479</ele>
        <time>2021-09-15T07:56:13.000Z</time>
      </trkpt>
      <trkpt lat="44.7806" lon="4.77343">
        <ele>97.169778</ele>
        <time>2021-09-15T07:56:19.000Z</time>
      </trkpt>
      <trkpt lat="44.78054" lon="4.77331">
        <ele>97.183609</ele>
        <time>2021-09-15T07:56:21.000Z</time>
      </trkpt>
      <trkpt lat="44.78045" lon="4.77314">
        <ele>97.205169</ele>
        <time>2021-09-15T07:56:24.000Z</time>
      </trkpt>
      <trkpt lat="44.78027" lon="4.77276">
        <ele>97.250405</ele>
        <time>2021-09-15T07:56:30.000Z</time>
      </trkpt>
      <trkpt lat="44.78003" lon="4.77224">
        <ele>97.312209</ele>
        <time>2021-09-15T07:56:38.000Z</time>
      </trkpt>
      <trkpt lat="44.77981" lon="4.77173">
        <ele>97.3722</ele>
        <time>2021-09-15T07:56:46.000Z</time>
      </trkpt>
      <trkpt lat="44.77973" lon="4.77155">
        <ele>97.416872</ele>
        <time>2021-09-15T07:56:49.000Z</time>
      </trkpt>
      <trkpt lat="44.7796" lon="4.77129">
        <ele>97.490683</ele>
        <time>2021-09-15T07:56:53.000Z</time>
      </trkpt>
      <trkpt lat="44.77936" lon="4.77088">
        <ele>97.614772</ele>
        <time>2021-09-15T07:57:00.000Z</time>
      </trkpt>
      <trkpt lat="44.77915" lon="4.77054">
        <ele>97.721418</ele>
        <time>2021-09-15T07:57:06.000Z</time>
      </trkpt>
      <trkpt lat="44.77907" lon="4.77044">
        <ele>97.756435</ele>
        <time>2021-09-15T07:57:08.000Z</time>
      </trkpt>
      <trkpt lat="44.77882" lon="4.77009">
        <ele>97.874668</ele>
        <time>2021-09-15T07:57:15.000Z</time>
      </trkpt>
      <trkpt lat="44.7785" lon="4.76972">
        <ele>97.996551</ele>
        <time>2021-09-15T07:57:23.000Z</time>
      </trkpt>
      <trkpt lat="44.77816" lon="4.76937">
        <ele>98.083301</ele>
        <time>2021-09-15T07:57:31.000Z</time>
      </trkpt>
      <trkpt lat="44.77782" lon="4.76904">
        <ele>98.167777</ele>
        <time>2021-09-15T07:57:39.000Z</time>
      </trkpt>
      <trkpt lat="44.7775" lon="4.76872">
        <ele>98.248464</ele>
        <time>2021-09-15T07:57:47.000Z</time>
      </trkpt>
      <trkpt lat="44.77716" lon="4.76839">
        <ele>98.333698</ele>
        <time>2021-09-15T07:57:55.000Z</time>
      </trkpt>
      <trkpt lat="44.77683" lon="4.76805">
        <ele>98.652196</ele>
        <time>2021-09-15T07:58:03.000Z</time>
      </trkpt>
      <trkpt lat="44.77657" lon="4.76781">
        <ele>98.912239</ele>
        <time>2021-09-15T07:58:09.000Z</time>
      </trkpt>
      <trkpt lat="44.77644" lon="4.76769">
        <ele>99.045698</ele>
        <time>2021-09-15T07:58:12.000Z</time>
      </trkpt>
      <trkpt lat="44.77636" lon="4.76761">
        <ele>99.127087</ele>
        <time>2021-09-15T07:58:14.000Z</time>
      </trkpt>
      <trkpt lat="44.77632" lon="4.76758">
        <ele>99.165713</ele>
        <time>2021-09-15T07:58:15.000Z</time>
      </trkpt>
      <trkpt lat="44.77629" lon="4.76754">
        <ele>99.199506</ele>
        <time>2021-09-15T07:58:16.000Z</time>
      </trkpt>
      <trkpt lat="44.7762" lon="4.76747">
        <ele>99.283284</ele>
        <time>2021-09-15T07:58:18.000Z</time>
      </trkpt>
      <trkpt lat="44.77609" lon="4.76746">
        <ele>99.377285</ele>
        <time>2021-09-15T07:58:20.000Z</time>
      </trkpt>
      <trkpt lat="44.77598" lon="4.76747">
        <ele>99.472182</ele>
        <time>2021-09-15T07:58:22.000Z</time>
      </trkpt>
      <trkpt lat="44.7757" lon="4.76757">
        <ele>99.712265</ele>
        <time>2021-09-15T07:58:27.000Z</time>
      </trkpt>
      <trkpt lat="44.77545" lon="4.76769">
        <ele>99.918417</ele>
        <time>2021-09-15T07:58:32.000Z</time>
      </trkpt>
      <trkpt lat="44.77516" lon="4.76779">
        <ele>100.100844</ele>
        <time>2021-09-15T07:58:37.000Z</time>
      </trkpt>
      <trkpt lat="44.77478" lon="4.76785">
        <ele>100.336113</ele>
        <time>2021-09-15T07:58:43.000Z</time>
      </trkpt>
      <trkpt lat="44.77472" lon="4.76785">
        <ele>100.370579</ele>
        <time>2021-09-15T07:58:44.000Z</time>
      </trkpt>
      <trkpt lat="44.77456" lon="4.76786">
        <ele>100.472765</ele>
        <time>2021-09-15T07:58:47.000Z</time>
      </trkpt>
      <trkpt lat="44.77421" lon="4.76781">
        <ele>100.686252</ele>
        <time>2021-09-15T07:58:53.000Z</time>
      </trkpt>
      <trkpt lat="44.77387" lon="4.76774">
        <ele>100.896056</ele>
        <time>2021-09-15T07:58:59.000Z</time>
      </trkpt>
      <trkpt lat="44.77382" lon="4.76773">
        <ele>100.93211</ele>
        <time>2021-09-15T07:59:00.000Z</time>
      </trkpt>
      <trkpt lat="44.7737" lon="4.7677">
        <ele>100.969261</ele>
        <time>2021-09-15T07:59:02.000Z</time>
      </trkpt>
      <trkpt lat="44.77364" lon="4.76768">
        <ele>100.972061</ele>
        <time>2021-09-15T07:59:03.000Z</time>
      </trkpt>
      <trkpt lat="44.77334" lon="4.76767">
        <ele>100.986664</ele>
        <time>2021-09-15T07:59:08.000Z</time>
      </trkpt>
      <trkpt lat="44.77293" lon="4.76765">
        <ele>101.006858</ele>
        <time>2021-09-15T07:59:15.000Z</time>
      </trkpt>
      <trkpt lat="44.77282" lon="4.76764">
        <ele>101.012672</ele>
        <time>2021-09-15T07:59:17.000Z</time>
      </trkpt>
      <trkpt lat="44.7727" lon="4.76768">
        <ele>101.018521</ele>
        <time>2021-09-15T07:59:19.000Z</time>
      </trkpt>
      <trkpt lat="44.77267" lon="4.76784">
        <ele>101.024512</ele>
        <time>2021-09-15T07:59:22.000Z</time>
      </trkpt>
      <trkpt lat="44.77263" lon="4.76803">
        <ele>101.031342</ele>
        <time>2021-09-15T07:59:27.000Z</time>
      </trkpt>
      <trkpt lat="44.77259" lon="4.76821">
        <ele>101.037823</ele>
        <time>2021-09-15T07:59:33.000Z</time>
      </trkpt>
      <trkpt lat="44.77257" lon="4.76837">
        <ele>101.0436</ele>
        <time>2021-09-15T07:59:38.000Z</time>
      </trkpt>
      <trkpt lat="44.77255" lon="4.76869">
        <ele>101.060154</ele>
        <time>2021-09-15T07:59:46.000Z</time>
      </trkpt>
      <trkpt lat="44.7725" lon="4.76904">
        <ele>101.28956</ele>
        <time>2021-09-15T07:59:54.000Z</time>
      </trkpt>
      <trkpt lat="44.77239" lon="4.76903">
        <ele>101.383727</ele>
        <time>2021-09-15T07:59:58.000Z</time>
      </trkpt>
      <trkpt lat="44.77214" lon="4.76902">
        <ele>101.607943</ele>
        <time>2021-09-15T08:00:07.000Z</time>
      </trkpt>
      <trkpt lat="44.77198" lon="4.76901">
        <ele>101.755024</ele>
        <time>2021-09-15T08:00:14.000Z</time>
      </trkpt>
      <trkpt lat="44.77183" lon="4.769">
        <ele>101.885938</ele>
        <time>2021-09-15T08:00:20.000Z</time>
      </trkpt>
      <trkpt lat="44.7716" lon="4.76898">
        <ele>102.091333</ele>
        <time>2021-09-15T08:00:27.000Z</time>
      </trkpt>
      <trkpt lat="44.77132" lon="4.76896">
        <ele>102.342424</ele>
        <time>2021-09-15T08:00:35.000Z</time>
      </trkpt>
      <trkpt lat="44.77112" lon="4.76895">
        <ele>102.520884</ele>
        <time>2021-09-15T08:00:40.000Z</time>
      </trkpt>
      <trkpt lat="44.77104" lon="4.76894">
        <ele>102.599808</ele>
        <time>2021-09-15T08:00:42.000Z</time>
      </trkpt>
      <trkpt lat="44.77085" lon="4.76893">
        <ele>102.617602</ele>
        <time>2021-09-15T08:00:46.000Z</time>
      </trkpt>
      <trkpt lat="44.77077" lon="4.76889">
        <ele>102.581667</ele>
        <time>2021-09-15T08:00:48.000Z</time>
      </trkpt>
      <trkpt lat="44.77078" lon="4.76876">
        <ele>102.543114</ele>
        <time>2021-09-15T08:00:50.000Z</time>
      </trkpt>
      <trkpt lat="44.77078" lon="4.76869">
        <ele>102.521987</ele>
        <time>2021-09-15T08:00:51.000Z</time>
      </trkpt>
      <trkpt lat="44.77079" lon="4.76813">
        <ele>102.354692</ele>
        <time>2021-09-15T08:00:58.000Z</time>
      </trkpt>
      <trkpt lat="44.77078" lon="4.76741">
        <ele>102.137562</ele>
        <time>2021-09-15T08:01:07.000Z</time>
      </trkpt>
      <trkpt lat="44.77077" lon="4.76681">
        <ele>101.957219</ele>
        <time>2021-09-15T08:01:15.000Z</time>
      </trkpt>
      <trkpt lat="44.77076" lon="4.7666">
        <ele>101.879827</ele>
        <time>2021-09-15T08:01:18.000Z</time>
      </trkpt>
      <trkpt lat="44.77076" lon="4.76652">
        <ele>101.813306</ele>
        <time>2021-09-15T08:01:19.000Z</time>
      </trkpt>
      <trkpt lat="44.7707" lon="4.76652">
        <ele>101.751637</ele>
        <time>2021-09-15T08:01:21.000Z</time>
      </trkpt>
      <trkpt lat="44.77069" lon="4.76668">
        <ele>101.621594</ele>
        <time>2021-09-15T08:01:22.000Z</time>
      </trkpt>
      <trkpt lat="44.77067" lon="4.76683">
        <ele>101.495568</ele>
        <time>2021-09-15T08:01:24.000Z</time>
      </trkpt>
      <trkpt lat="44.77066" lon="4.76699">
        <ele>101.366975</ele>
        <time>2021-09-15T08:01:26.000Z</time>
      </trkpt>
      <trkpt lat="44.77063" lon="4.76708">
        <ele>101.284156</ele>
        <time>2021-09-15T08:01:28.000Z</time>
      </trkpt>
      <trkpt lat="44.7706" lon="4.76702">
        <ele>101.217953</ele>
        <time>2021-09-15T08:01:30.000Z</time>
      </trkpt>
      <trkpt lat="44.77056" lon="4.76648">
        <ele>100.785795</ele>
        <time>2021-09-15T08:01:37.000Z</time>
      </trkpt>
      <trkpt lat="44.7705" lon="4.76594">
        <ele>100.336329</ele>
        <time>2021-09-15T08:01:45.000Z</time>
      </trkpt>
      <trkpt lat="44.77041" lon="4.76535">
        <ele>99.849137</ele>
        <time>2021-09-15T08:01:54.000Z</time>
      </trkpt>
      <trkpt lat="44.7703" lon="4.76466">
        <ele>99.561925</ele>
        <time>2021-09-15T08:02:04.000Z</time>
      </trkpt>
      <trkpt lat="44.77015" lon="4.76402">
        <ele>99.281544</ele>
        <time>2021-09-15T08:02:14.000Z</time>
      </trkpt>
      <trkpt lat="44.77001" lon="4.76349">
        <ele>99.049866</ele>
        <time>2021-09-15T08:02:22.000Z</time>
      </trkpt>
      <trkpt lat="44.76986" lon="4.76294">
        <ele>98.811747</ele>
        <time>2021-09-15T08:02:30.000Z</time>
      </trkpt>
      <trkpt lat="44.76968" lon="4.76238">
        <ele>98.630169</ele>
        <time>2021-09-15T08:02:38.000Z</time>
      </trkpt>
      <trkpt lat="44.76943" lon="4.76178">
        <ele>98.426729</ele>
        <time>2021-09-15T08:02:47.000Z</time>
      </trkpt>
      <trkpt lat="44.76918" lon="4.76126">
        <ele>98.241085</ele>
        <time>2021-09-15T08:02:55.000Z</time>
      </trkpt>
      <trkpt lat="44.76884" lon="4.76075">
        <ele>98.048821</ele>
        <time>2021-09-15T08:03:04.000Z</time>
      </trkpt>
      <trkpt lat="44.76845" lon="4.76032">
        <ele>97.923177</ele>
        <time>2021-09-15T08:03:13.000Z</time>
      </trkpt>
      <trkpt lat="44.76808" lon="4.76">
        <ele>97.814403</ele>
        <time>2021-09-15T08:03:21.000Z</time>
      </trkpt>
      <trkpt lat="44.76769" lon="4.75974">
        <ele>97.707412</ele>
        <time>2021-09-15T08:03:29.000Z</time>
      </trkpt>
      <trkpt lat="44.76728" lon="4.75954">
        <ele>97.591221</ele>
        <time>2021-09-15T08:03:37.000Z</time>
      </trkpt>
      <trkpt lat="44.76675" lon="4.7593">
        <ele>97.387992</ele>
        <time>2021-09-15T08:03:47.000Z</time>
      </trkpt>
      <trkpt lat="44.76622" lon="4.75906">
        <ele>97.183483</ele>
        <time>2021-09-15T08:03:57.000Z</time>
      </trkpt>
      <trkpt lat="44.76575" lon="4.75884">
        <ele>97.00323</ele>
        <time>2021-09-15T08:04:06.000Z</time>
      </trkpt>
      <trkpt lat="44.76523" lon="4.7586">
        <ele>96.753774</ele>
        <time>2021-09-15T08:04:16.000Z</time>
      </trkpt>
      <trkpt lat="44.76512" lon="4.75855">
        <ele>96.700192</ele>
        <time>2021-09-15T08:04:18.000Z</time>
      </trkpt>
      <trkpt lat="44.76459" lon="4.75831">
        <ele>96.435207</ele>
        <time>2021-09-15T08:04:28.000Z</time>
      </trkpt>
      <trkpt lat="44.76443" lon="4.75824">
        <ele>96.356122</ele>
        <time>2021-09-15T08:04:31.000Z</time>
      </trkpt>
      <trkpt lat="44.76427" lon="4.75816">
        <ele>96.27547</ele>
        <time>2021-09-15T08:04:34.000Z</time>
      </trkpt>
      <trkpt lat="44.76373" lon="4.75792">
        <ele>96.040047</ele>
        <time>2021-09-15T08:04:44.000Z</time>
      </trkpt>
      <trkpt lat="44.7632" lon="4.75767">
        <ele>95.863043</ele>
        <time>2021-09-15T08:04:54.000Z</time>
      </trkpt>
      <trkpt lat="44.76294" lon="4.75755">
        <ele>95.775209</ele>
        <time>2021-09-15T08:04:59.000Z</time>
      </trkpt>
      <trkpt lat="44.76283" lon="4.7575">
        <ele>95.741355</ele>
        <time>2021-09-15T08:05:01.000Z</time>
      </trkpt>
      <trkpt lat="44.7623" lon="4.75725">
        <ele>95.563015</ele>
        <time>2021-09-15T08:05:11.000Z</time>
      </trkpt>
      <trkpt lat="44.76187" lon="4.75705">
        <ele>95.474852</ele>
        <time>2021-09-15T08:05:19.000Z</time>
      </trkpt>
      <trkpt lat="44.7614" lon="4.75683">
        <ele>95.388507</ele>
        <time>2021-09-15T08:05:28.000Z</time>
      </trkpt>
      <trkpt lat="44.76087" lon="4.75658">
        <ele>95.291782</ele>
        <time>2021-09-15T08:05:38.000Z</time>
      </trkpt>
      <trkpt lat="44.76045" lon="4.75639">
        <ele>95.227302</ele>
        <time>2021-09-15T08:05:46.000Z</time>
      </trkpt>
      <trkpt lat="44.76002" lon="4.7562">
        <ele>95.225157</ele>
        <time>2021-09-15T08:05:54.000Z</time>
      </trkpt>
      <trkpt lat="44.75948" lon="4.75595">
        <ele>95.222419</ele>
        <time>2021-09-15T08:06:04.000Z</time>
      </trkpt>
      <trkpt lat="44.75904" lon="4.7558">
        <ele>95.220255</ele>
        <time>2021-09-15T08:06:12.000Z</time>
      </trkpt>
      <trkpt lat="44.75849" lon="4.75565">
        <ele>95.179269</ele>
        <time>2021-09-15T08:06:22.000Z</time>
      </trkpt>
      <trkpt lat="44.75797" lon="4.75555">
        <ele>95.111187</ele>
        <time>2021-09-15T08:06:31.000Z</time>
      </trkpt>
      <trkpt lat="44.75759" lon="4.7555">
        <ele>95.060849</ele>
        <time>2021-09-15T08:06:39.000Z</time>
      </trkpt>
      <trkpt lat="44.75743" lon="4.75549">
        <ele>95.039564</ele>
        <time>2021-09-15T08:06:44.000Z</time>
      </trkpt>
      <trkpt lat="44.7574" lon="4.75549">
        <ele>95.035185</ele>
        <time>2021-09-15T08:06:46.000Z</time>
      </trkpt>
      <trkpt lat="44.7574" lon="4.75549">
        <ele>95.035185</ele>
        <time>2021-09-15T08:06:48.000Z</time>
      </trkpt>
      <trkpt lat="44.75737" lon="4.7555">
        <ele>95.031325</ele>
        <time>2021-09-15T08:06:54.000Z</time>
      </trkpt>
      <trkpt lat="44.75733" lon="4.7555">
        <ele>95.027125</ele>
        <time>2021-09-15T08:06:56.000Z</time>
      </trkpt>
      <trkpt lat="44.7572" lon="4.75548">
        <ele>95.009855</ele>
        <time>2021-09-15T08:07:01.000Z</time>
      </trkpt>
      <trkpt lat="44.75698" lon="4.7555">
        <ele>95.001569</ele>
        <time>2021-09-15T08:07:08.000Z</time>
      </trkpt>
      <trkpt lat="44.75693" lon="4.75558">
        <ele>95.064169</ele>
        <time>2021-09-15T08:07:10.000Z</time>
      </trkpt>
      <trkpt lat="44.75692" lon="4.75565">
        <ele>95.10586</ele>
        <time>2021-09-15T08:07:11.000Z</time>
      </trkpt>
      <trkpt lat="44.75691" lon="4.75571">
        <ele>95.147365</ele>
        <time>2021-09-15T08:07:12.000Z</time>
      </trkpt>
      <trkpt lat="44.75689" lon="4.75585">
        <ele>95.23429</ele>
        <time>2021-09-15T08:07:14.000Z</time>
      </trkpt>
      <trkpt lat="44.75688" lon="4.75591">
        <ele>95.26906</ele>
        <time>2021-09-15T08:07:15.000Z</time>
      </trkpt>
      <trkpt lat="44.75686" lon="4.75604">
        <ele>95.34968</ele>
        <time>2021-09-15T08:07:19.000Z</time>
      </trkpt>
      <trkpt lat="44.75684" lon="4.75625">
        <ele>95.478108</ele>
        <time>2021-09-15T08:07:24.000Z</time>
      </trkpt>
      <trkpt lat="44.75681" lon="4.7564">
        <ele>95.572532</ele>
        <time>2021-09-15T08:07:28.000Z</time>
      </trkpt>
      <trkpt lat="44.75681" lon="4.75644">
        <ele>95.59861</ele>
        <time>2021-09-15T08:07:29.000Z</time>
      </trkpt>
      <trkpt lat="44.75671" lon="4.75667">
        <ele>95.760762</ele>
        <time>2021-09-15T08:07:34.000Z</time>
      </trkpt>
      <trkpt lat="44.75657" lon="4.75673">
        <ele>95.882482</ele>
        <time>2021-09-15T08:07:37.000Z</time>
      </trkpt>
      <trkpt lat="44.75649" lon="4.75679">
        <ele>95.964479</ele>
        <time>2021-09-15T08:07:39.000Z</time>
      </trkpt>
      <trkpt lat="44.75642" lon="4.7568">
        <ele>96.019353</ele>
        <time>2021-09-15T08:07:41.000Z</time>
      </trkpt>
      <trkpt lat="44.75636" lon="4.75698">
        <ele>96.142272</ele>
        <time>2021-09-15T08:07:43.000Z</time>
      </trkpt>
      <trkpt lat="44.75628" lon="4.75696">
        <ele>96.207389</ele>
        <time>2021-09-15T08:07:45.000Z</time>
      </trkpt>
      <trkpt lat="44.75627" lon="4.75699">
        <ele>96.227739</ele>
        <time>2021-09-15T08:07:47.000Z</time>
      </trkpt>
      <trkpt lat="44.75624" lon="4.75705">
        <ele>96.273895</ele>
        <time>2021-09-15T08:08:46.000Z</time>
      </trkpt>
      <trkpt lat="44.75623" lon="4.75707">
        <ele>96.285806</ele>
        <time>2021-09-15T08:08:47.000Z</time>
      </trkpt>
      <trkpt lat="44.75612" lon="4.75722">
        <ele>96.419129</ele>
        <time>2021-09-15T08:08:51.000Z</time>
      </trkpt>
      <trkpt lat="44.75607" lon="4.75722">
        <ele>96.460279</ele>
        <time>2021-09-15T08:08:52.000Z</time>
      </trkpt>
      <trkpt lat="44.75592" lon="4.75721">
        <ele>96.42964</ele>
        <time>2021-09-15T08:08:55.000Z</time>
      </trkpt>
      <trkpt lat="44.75586" lon="4.75721">
        <ele>96.36518</ele>
        <time>2021-09-15T08:08:56.000Z</time>
      </trkpt>
      <trkpt lat="44.75559" lon="4.75723">
        <ele>96.021473</ele>
        <time>2021-09-15T08:09:01.000Z</time>
      </trkpt>
      <trkpt lat="44.75553" lon="4.75726">
        <ele>95.946543</ele>
        <time>2021-09-15T08:09:02.000Z</time>
      </trkpt>
      <trkpt lat="44.75541" lon="4.75731">
        <ele>95.793804</ele>
        <time>2021-09-15T08:09:04.000Z</time>
      </trkpt>
      <trkpt lat="44.75525" lon="4.75742">
        <ele>95.567498</ele>
        <time>2021-09-15T08:09:07.000Z</time>
      </trkpt>
      <trkpt lat="44.75516" lon="4.75752">
        <ele>95.425819</ele>
        <time>2021-09-15T08:09:09.000Z</time>
      </trkpt>
      <trkpt lat="44.75507" lon="4.75762">
        <ele>95.284264</ele>
        <time>2021-09-15T08:09:11.000Z</time>
      </trkpt>
      <trkpt lat="44.75482" lon="4.75789">
        <ele>94.896469</ele>
        <time>2021-09-15T08:09:17.000Z</time>
      </trkpt>
      <trkpt lat="44.75458" lon="4.75817">
        <ele>94.508247</ele>
        <time>2021-09-15T08:09:24.000Z</time>
      </trkpt>
      <trkpt lat="44.75449" lon="4.75825">
        <ele>94.377506</ele>
        <time>2021-09-15T08:09:27.000Z</time>
      </trkpt>
      <trkpt lat="44.75434" lon="4.7584">
        <ele>94.149734</ele>
        <time>2021-09-15T08:09:32.000Z</time>
      </trkpt>
      <trkpt lat="44.75413" lon="4.75861">
        <ele>93.842683</ele>
        <time>2021-09-15T08:09:38.000Z</time>
      </trkpt>
      <trkpt lat="44.75409" lon="4.75865">
        <ele>93.79118</ele>
        <time>2021-09-15T08:09:39.000Z</time>
      </trkpt>
      <trkpt lat="44.75399" lon="4.75875">
        <ele>93.64403</ele>
        <time>2021-09-15T08:09:42.000Z</time>
      </trkpt>
      <trkpt lat="44.75389" lon="4.75885">
        <ele>93.486541</ele>
        <time>2021-09-15T08:09:45.000Z</time>
      </trkpt>
      <trkpt lat="44.75361" lon="4.75909">
        <ele>93.097589</ele>
        <time>2021-09-15T08:09:53.000Z</time>
      </trkpt>
      <trkpt lat="44.75351" lon="4.7592">
        <ele>92.944037</ele>
        <time>2021-09-15T08:09:58.000Z</time>
      </trkpt>
      <trkpt lat="44.75347" lon="4.75923">
        <ele>92.892036</ele>
        <time>2021-09-15T08:10:54.000Z</time>
      </trkpt>
      <trkpt lat="44.75345" lon="4.75925">
        <ele>92.868492</ele>
        <time>2021-09-15T08:10:55.000Z</time>
      </trkpt>
      <trkpt lat="44.75333" lon="4.75937">
        <ele>92.690419</ele>
        <time>2021-09-15T08:11:00.000Z</time>
      </trkpt>
      <trkpt lat="44.75318" lon="4.75953">
        <ele>92.460346</ele>
        <time>2021-09-15T08:11:05.000Z</time>
      </trkpt>
      <trkpt lat="44.75304" lon="4.7597">
        <ele>92.239569</ele>
        <time>2021-09-15T08:11:09.000Z</time>
      </trkpt>
      <trkpt lat="44.75288" lon="4.75996">
        <ele>91.94919</ele>
        <time>2021-09-15T08:11:14.000Z</time>
      </trkpt>
      <trkpt lat="44.7528" lon="4.76007">
        <ele>91.824122</ele>
        <time>2021-09-15T08:11:17.000Z</time>
      </trkpt>
      <trkpt lat="44.75265" lon="4.7603">
        <ele>91.559727</ele>
        <time>2021-09-15T08:11:23.000Z</time>
      </trkpt>
      <trkpt lat="44.75248" lon="4.76047">
        <ele>91.318817</ele>
        <time>2021-09-15T08:11:29.000Z</time>
      </trkpt>
      <trkpt lat="44.75235" lon="4.76057">
        <ele>91.149377</ele>
        <time>2021-09-15T08:11:34.000Z</time>
      </trkpt>
      <trkpt lat="44.75223" lon="4.76063">
        <ele>90.999345</ele>
        <time>2021-09-15T08:11:38.000Z</time>
      </trkpt>
      <trkpt lat="44.75205" lon="4.76073">
        <ele>90.770275</ele>
        <time>2021-09-15T08:11:43.000Z</time>
      </trkpt>
      <trkpt lat="44.75185" lon="4.76083">
        <ele>90.521318</ele>
        <time>2021-09-15T08:11:48.000Z</time>
      </trkpt>
      <trkpt lat="44.75159" lon="4.76097">
        <ele>90.190838</ele>
        <time>2021-09-15T08:11:54.000Z</time>
      </trkpt>
      <trkpt lat="44.7515" lon="4.76102">
        <ele>90.080872</ele>
        <time>2021-09-15T08:11:56.000Z</time>
      </trkpt>
      <trkpt lat="44.7513" lon="4.76112">
        <ele>90.127425</ele>
        <time>2021-09-15T08:12:00.000Z</time>
      </trkpt>
      <trkpt lat="44.75118" lon="4.76119">
        <ele>90.201962</ele>
        <time>2021-09-15T08:12:03.000Z</time>
      </trkpt>
      <trkpt lat="44.75113" lon="4.76121">
        <ele>90.230191</ele>
        <time>2021-09-15T08:12:04.000Z</time>
      </trkpt>
      <trkpt lat="44.75108" lon="4.76124">
        <ele>90.260029</ele>
        <time>2021-09-15T08:12:05.000Z</time>
      </trkpt>
      <trkpt lat="44.75094" lon="4.76132">
        <ele>90.350646</ele>
        <time>2021-09-15T08:12:08.000Z</time>
      </trkpt>
      <trkpt lat="44.7506" lon="4.7615">
        <ele>90.554766</ele>
        <time>2021-09-15T08:12:16.000Z</time>
      </trkpt>
      <trkpt lat="44.75045" lon="4.76158">
        <ele>90.649465</ele>
        <time>2021-09-15T08:12:21.000Z</time>
      </trkpt>
      <trkpt lat="44.75045" lon="4.76158">
        <ele>90.649465</ele>
        <time>2021-09-15T08:12:23.000Z</time>
      </trkpt>
      <trkpt lat="44.75037" lon="4.76162">
        <ele>90.700364</ele>
        <time>2021-09-15T08:13:21.000Z</time>
      </trkpt>
      <trkpt lat="44.75034" lon="4.76163">
        <ele>90.71348</ele>
        <time>2021-09-15T08:13:22.000Z</time>
      </trkpt>
      <trkpt lat="44.75017" lon="4.76171">
        <ele>90.819622</ele>
        <time>2021-09-15T08:13:28.000Z</time>
      </trkpt>
      <trkpt lat="44.75006" lon="4.76175">
        <ele>90.884769</ele>
        <time>2021-09-15T08:13:31.000Z</time>
      </trkpt>
      <trkpt lat="44.74993" lon="4.7618">
        <ele>90.959941</ele>
        <time>2021-09-15T08:13:34.000Z</time>
      </trkpt>
      <trkpt lat="44.74965" lon="4.76191">
        <ele>90.947568</ele>
        <time>2021-09-15T08:13:40.000Z</time>
      </trkpt>
      <trkpt lat="44.74951" lon="4.76196">
        <ele>90.79634</ele>
        <time>2021-09-15T08:13:43.000Z</time>
      </trkpt>
      <trkpt lat="44.74941" lon="4.76199">
        <ele>90.693353</ele>
        <time>2021-09-15T08:13:45.000Z</time>
      </trkpt>
      <trkpt lat="44.74909" lon="4.7621">
        <ele>90.367987</ele>
        <time>2021-09-15T08:13:51.000Z</time>
      </trkpt>
      <trkpt lat="44.74877" lon="4.76221">
        <ele>90.035309</ele>
        <time>2021-09-15T08:13:57.000Z</time>
      </trkpt>
      <trkpt lat="44.74866" lon="4.76224">
        <ele>89.92615</ele>
        <time>2021-09-15T08:13:59.000Z</time>
      </trkpt>
      <trkpt lat="44.74846" lon="4.76234">
        <ele>89.711046</ele>
        <time>2021-09-15T08:14:03.000Z</time>
      </trkpt>
      <trkpt lat="44.74825" lon="4.76246">
        <ele>89.485623</ele>
        <time>2021-09-15T08:14:07.000Z</time>
      </trkpt>
      <trkpt lat="44.74799" lon="4.76261">
        <ele>89.189334</ele>
        <time>2021-09-15T08:14:12.000Z</time>
      </trkpt>
      <trkpt lat="44.74768" lon="4.7628">
        <ele>88.767077</ele>
        <time>2021-09-15T08:14:18.000Z</time>
      </trkpt>
      <trkpt lat="44.74733" lon="4.76302">
        <ele>88.289568</ele>
        <time>2021-09-15T08:14:25.000Z</time>
      </trkpt>
      <trkpt lat="44.7472" lon="4.7631">
        <ele>88.111864</ele>
        <time>2021-09-15T08:14:28.000Z</time>
      </trkpt>
      <trkpt lat="44.74715" lon="4.76313">
        <ele>88.054765</ele>
        <time>2021-09-15T08:14:29.000Z</time>
      </trkpt>
      <trkpt lat="44.74696" lon="4.76324">
        <ele>87.794401</ele>
        <time>2021-09-15T08:14:33.000Z</time>
      </trkpt>
      <trkpt lat="44.74687" lon="4.7633">
        <ele>87.669312</ele>
        <time>2021-09-15T08:14:35.000Z</time>
      </trkpt>
      <trkpt lat="44.74673" lon="4.76339">
        <ele>87.473951</ele>
        <time>2021-09-15T08:14:38.000Z</time>
      </trkpt>
      <trkpt lat="44.74647" lon="4.76354">
        <ele>87.133563</ele>
        <time>2021-09-15T08:14:43.000Z</time>
      </trkpt>
      <trkpt lat="44.74617" lon="4.76373">
        <ele>86.861322</ele>
        <time>2021-09-15T08:14:49.000Z</time>
      </trkpt>
      <trkpt lat="44.74611" lon="4.76376">
        <ele>86.825327</ele>
        <time>2021-09-15T08:14:50.000Z</time>
      </trkpt>
      <trkpt lat="44.74598" lon="4.76385">
        <ele>86.727725</ele>
        <time>2021-09-15T08:14:53.000Z</time>
      </trkpt>
      <trkpt lat="44.74573" lon="4.764">
        <ele>86.552463</ele>
        <time>2021-09-15T08:14:58.000Z</time>
      </trkpt>
      <trkpt lat="44.7455" lon="4.76414">
        <ele>86.392314</ele>
        <time>2021-09-15T08:15:02.000Z</time>
      </trkpt>
      <trkpt lat="44.74546" lon="4.7642">
        <ele>86.350106</ele>
        <time>2021-09-15T08:15:03.000Z</time>
      </trkpt>
      <trkpt lat="44.74541" lon="4.76426">
        <ele>86.309786</ele>
        <time>2021-09-15T08:15:04.000Z</time>
      </trkpt>
      <trkpt lat="44.74528" lon="4.76443">
        <ele>86.192769</ele>
        <time>2021-09-15T08:15:07.000Z</time>
      </trkpt>
      <trkpt lat="44.74524" lon="4.7645">
        <ele>86.151779</ele>
        <time>2021-09-15T08:15:08.000Z</time>
      </trkpt>
      <trkpt lat="44.74514" lon="4.76474">
        <ele>86.026547</ele>
        <time>2021-09-15T08:15:11.000Z</time>
      </trkpt>
      <trkpt lat="44.7451" lon="4.76481">
        <ele>85.985552</ele>
        <time>2021-09-15T08:15:12.000Z</time>
      </trkpt>
      <trkpt lat="44.74497" lon="4.76511">
        <ele>85.850689</ele>
        <time>2021-09-15T08:15:16.000Z</time>
      </trkpt>
      <trkpt lat="44.74494" lon="4.76518">
        <ele>85.844733</ele>
        <time>2021-09-15T08:15:17.000Z</time>
      </trkpt>
      <trkpt lat="44.74482" lon="4.76546">
        <ele>85.821384</ele>
        <time>2021-09-15T08:15:21.000Z</time>
      </trkpt>
      <trkpt lat="44.74466" lon="4.76581">
        <ele>85.792252</ele>
        <time>2021-09-15T08:15:26.000Z</time>
      </trkpt>
      <trkpt lat="44.74461" lon="4.76595">
        <ele>85.781212</ele>
        <time>2021-09-15T08:15:28.000Z</time>
      </trkpt>
      <trkpt lat="44.74451" lon="4.76617">
        <ele>85.762775</ele>
        <time>2021-09-15T08:15:31.000Z</time>
      </trkpt>
      <trkpt lat="44.74432" lon="4.76661">
        <ele>85.726246</ele>
        <time>2021-09-15T08:15:37.000Z</time>
      </trkpt>
      <trkpt lat="44.74407" lon="4.7672">
        <ele>85.677861</ele>
        <time>2021-09-15T08:15:45.000Z</time>
      </trkpt>
      <trkpt lat="44.74386" lon="4.7677">
        <ele>85.859963</ele>
        <time>2021-09-15T08:15:52.000Z</time>
      </trkpt>
      <trkpt lat="44.74358" lon="4.7681">
        <ele>86.046346</ele>
        <time>2021-09-15T08:15:59.000Z</time>
      </trkpt>
      <trkpt lat="44.74325" lon="4.76845">
        <ele>86.238625</ele>
        <time>2021-09-15T08:16:06.000Z</time>
      </trkpt>
      <trkpt lat="44.74286" lon="4.76883">
        <ele>86.456379</ele>
        <time>2021-09-15T08:16:14.000Z</time>
      </trkpt>
      <trkpt lat="44.74249" lon="4.76921">
        <ele>86.725603</ele>
        <time>2021-09-15T08:16:22.000Z</time>
      </trkpt>
      <trkpt lat="44.74213" lon="4.76965">
        <ele>87.028054</ele>
        <time>2021-09-15T08:16:30.000Z</time>
      </trkpt>
      <trkpt lat="44.74171" lon="4.77013">
        <ele>87.363089</ele>
        <time>2021-09-15T08:16:39.000Z</time>
      </trkpt>
      <trkpt lat="44.74142" lon="4.77039">
        <ele>87.58102</ele>
        <time>2021-09-15T08:16:45.000Z</time>
      </trkpt>
      <trkpt lat="44.74102" lon="4.77074">
        <ele>87.913385</ele>
        <time>2021-09-15T08:16:53.000Z</time>
      </trkpt>
      <trkpt lat="44.74055" lon="4.77115">
        <ele>88.31838</ele>
        <time>2021-09-15T08:17:02.000Z</time>
      </trkpt>
      <trkpt lat="44.74009" lon="4.77155">
        <ele>88.71558</ele>
        <time>2021-09-15T08:17:11.000Z</time>
      </trkpt>
      <trkpt lat="44.73963" lon="4.77195">
        <ele>89.060139</ele>
        <time>2021-09-15T08:17:20.000Z</time>
      </trkpt>
      <trkpt lat="44.73958" lon="4.772">
        <ele>89.088352</ele>
        <time>2021-09-15T08:17:21.000Z</time>
      </trkpt>
      <trkpt lat="44.73916" lon="4.77235">
        <ele>89.320763</ele>
        <time>2021-09-15T08:17:29.000Z</time>
      </trkpt>
      <trkpt lat="44.73869" lon="4.77271">
        <ele>89.577106</ele>
        <time>2021-09-15T08:17:38.000Z</time>
      </trkpt>
      <trkpt lat="44.73828" lon="4.77303">
        <ele>89.800759</ele>
        <time>2021-09-15T08:17:46.000Z</time>
      </trkpt>
      <trkpt lat="44.73785" lon="4.77332">
        <ele>89.968716</ele>
        <time>2021-09-15T08:17:54.000Z</time>
      </trkpt>
      <trkpt lat="44.73745" lon="4.77357">
        <ele>90.118037</ele>
        <time>2021-09-15T08:18:01.000Z</time>
      </trkpt>
      <trkpt lat="44.73692" lon="4.77382">
        <ele>90.309049</ele>
        <time>2021-09-15T08:18:10.000Z</time>
      </trkpt>
      <trkpt lat="44.7365" lon="4.77396">
        <ele>90.439441</ele>
        <time>2021-09-15T08:18:17.000Z</time>
      </trkpt>
      <trkpt lat="44.73597" lon="4.77414">
        <ele>90.493343</ele>
        <time>2021-09-15T08:18:26.000Z</time>
      </trkpt>
      <trkpt lat="44.7359" lon="4.77416">
        <ele>90.499486</ele>
        <time>2021-09-15T08:18:27.000Z</time>
      </trkpt>
      <trkpt lat="44.73542" lon="4.7743">
        <ele>90.547627</ele>
        <time>2021-09-15T08:18:35.000Z</time>
      </trkpt>
      <trkpt lat="44.73531" lon="4.77433">
        <ele>90.558998</ele>
        <time>2021-09-15T08:18:37.000Z</time>
      </trkpt>
      <trkpt lat="44.73519" lon="4.77437">
        <ele>90.570766</ele>
        <time>2021-09-15T08:18:39.000Z</time>
      </trkpt>
      <trkpt lat="44.73483" lon="4.77447">
        <ele>90.606249</ele>
        <time>2021-09-15T08:18:45.000Z</time>
      </trkpt>
      <trkpt lat="44.73448" lon="4.77456">
        <ele>90.662562</ele>
        <time>2021-09-15T08:18:51.000Z</time>
      </trkpt>
      <trkpt lat="44.73424" lon="4.77456">
        <ele>90.702028</ele>
        <time>2021-09-15T08:18:55.000Z</time>
      </trkpt>
      <trkpt lat="44.73417" lon="4.77454">
        <ele>90.712207</ele>
        <time>2021-09-15T08:18:56.000Z</time>
      </trkpt>
      <trkpt lat="44.73377" lon="4.77436">
        <ele>90.780936</ele>
        <time>2021-09-15T08:19:03.000Z</time>
      </trkpt>
      <trkpt lat="44.73327" lon="4.77409">
        <ele>90.866996</ele>
        <time>2021-09-15T08:19:12.000Z</time>
      </trkpt>
      <trkpt lat="44.73293" lon="4.77391">
        <ele>90.81933</ele>
        <time>2021-09-15T08:19:18.000Z</time>
      </trkpt>
      <trkpt lat="44.73262" lon="4.77377">
        <ele>90.671774</ele>
        <time>2021-09-15T08:19:23.000Z</time>
      </trkpt>
      <trkpt lat="44.73224" lon="4.7737">
        <ele>90.494536</ele>
        <time>2021-09-15T08:19:29.000Z</time>
      </trkpt>
      <trkpt lat="44.7318" lon="4.77365">
        <ele>90.297859</ele>
        <time>2021-09-15T08:19:36.000Z</time>
      </trkpt>
      <trkpt lat="44.73144" lon="4.77361">
        <ele>90.133068</ele>
        <time>2021-09-15T08:19:42.000Z</time>
      </trkpt>
      <trkpt lat="44.73138" lon="4.77361">
        <ele>90.105305</ele>
        <time>2021-09-15T08:19:43.000Z</time>
      </trkpt>
      <trkpt lat="44.73102" lon="4.77357">
        <ele>89.834829</ele>
        <time>2021-09-15T08:19:49.000Z</time>
      </trkpt>
      <trkpt lat="44.73067" lon="4.77353">
        <ele>89.556753</ele>
        <time>2021-09-15T08:19:55.000Z</time>
      </trkpt>
      <trkpt lat="44.73013" lon="4.77348">
        <ele>89.129769</ele>
        <time>2021-09-15T08:20:04.000Z</time>
      </trkpt>
      <trkpt lat="44.72977" lon="4.77344">
        <ele>88.847754</ele>
        <time>2021-09-15T08:20:10.000Z</time>
      </trkpt>
      <trkpt lat="44.72971" lon="4.77343">
        <ele>88.797868</ele>
        <time>2021-09-15T08:20:11.000Z</time>
      </trkpt>
      <trkpt lat="44.72959" lon="4.77342">
        <ele>88.705978</ele>
        <time>2021-09-15T08:20:13.000Z</time>
      </trkpt>
      <trkpt lat="44.72936" lon="4.7734">
        <ele>88.613445</ele>
        <time>2021-09-15T08:20:17.000Z</time>
      </trkpt>
      <trkpt lat="44.72895" lon="4.77335">
        <ele>88.507404</ele>
        <time>2021-09-15T08:20:24.000Z</time>
      </trkpt>
      <trkpt lat="44.72849" lon="4.77331">
        <ele>88.385971</ele>
        <time>2021-09-15T08:20:32.000Z</time>
      </trkpt>
      <trkpt lat="44.72807" lon="4.77326">
        <ele>88.277853</ele>
        <time>2021-09-15T08:20:39.000Z</time>
      </trkpt>
      <trkpt lat="44.72778" lon="4.77323">
        <ele>88.20212</ele>
        <time>2021-09-15T08:20:44.000Z</time>
      </trkpt>
      <trkpt lat="44.72724" lon="4.77318">
        <ele>88.717715</ele>
        <time>2021-09-15T08:20:53.000Z</time>
      </trkpt>
      <trkpt lat="44.72718" lon="4.77317">
        <ele>88.780023</ele>
        <time>2021-09-15T08:20:54.000Z</time>
      </trkpt>
      <trkpt lat="44.72694" lon="4.77322">
        <ele>89.041001</ele>
        <time>2021-09-15T08:20:59.000Z</time>
      </trkpt>
      <trkpt lat="44.72676" lon="4.77335">
        <ele>89.251641</ele>
        <time>2021-09-15T08:21:04.000Z</time>
      </trkpt>
      <trkpt lat="44.72662" lon="4.7735">
        <ele>89.436844</ele>
        <time>2021-09-15T08:21:10.000Z</time>
      </trkpt>
      <trkpt lat="44.72651" lon="4.77373">
        <ele>89.642842</ele>
        <time>2021-09-15T08:21:17.000Z</time>
      </trkpt>
      <trkpt lat="44.72639" lon="4.774">
        <ele>89.880618</ele>
        <time>2021-09-15T08:21:25.000Z</time>
      </trkpt>
      <trkpt lat="44.72624" lon="4.77426">
        <ele>90.081086</ele>
        <time>2021-09-15T08:21:32.000Z</time>
      </trkpt>
      <trkpt lat="44.72621" lon="4.77431">
        <ele>90.076832</ele>
        <time>2021-09-15T08:21:33.000Z</time>
      </trkpt>
      <trkpt lat="44.72607" lon="4.77442">
        <ele>90.062066</ele>
        <time>2021-09-15T08:21:36.000Z</time>
      </trkpt>
      <trkpt lat="44.72589" lon="4.77446">
        <ele>90.0454</ele>
        <time>2021-09-15T08:21:39.000Z</time>
      </trkpt>
      <trkpt lat="44.72575" lon="4.77447">
        <ele>90.033023</ele>
        <time>2021-09-15T08:21:41.000Z</time>
      </trkpt>
      <trkpt lat="44.7252" lon="4.77449">
        <ele>89.982541</ele>
        <time>2021-09-15T08:21:49.000Z</time>
      </trkpt>
      <trkpt lat="44.72514" lon="4.77449">
        <ele>89.976679</ele>
        <time>2021-09-15T08:21:50.000Z</time>
      </trkpt>
      <trkpt lat="44.72464" lon="4.7745">
        <ele>89.930778</ele>
        <time>2021-09-15T08:21:58.000Z</time>
      </trkpt>
      <trkpt lat="44.72414" lon="4.77452">
        <ele>89.842379</ele>
        <time>2021-09-15T08:22:06.000Z</time>
      </trkpt>
      <trkpt lat="44.72367" lon="4.77453">
        <ele>89.744773</ele>
        <time>2021-09-15T08:22:14.000Z</time>
      </trkpt>
      <trkpt lat="44.72313" lon="4.77455">
        <ele>89.633579</ele>
        <time>2021-09-15T08:22:23.000Z</time>
      </trkpt>
      <trkpt lat="44.72265" lon="4.77456">
        <ele>89.565879</ele>
        <time>2021-09-15T08:22:31.000Z</time>
      </trkpt>
      <trkpt lat="44.72212" lon="4.77458">
        <ele>89.674219</ele>
        <time>2021-09-15T08:22:40.000Z</time>
      </trkpt>
      <trkpt lat="44.72173" lon="4.77468">
        <ele>89.754644</ele>
        <time>2021-09-15T08:22:47.000Z</time>
      </trkpt>
      <trkpt lat="44.72129" lon="4.77489">
        <ele>89.850493</ele>
        <time>2021-09-15T08:22:55.000Z</time>
      </trkpt>
      <trkpt lat="44.72075" lon="4.77518">
        <ele>89.85908</ele>
        <time>2021-09-15T08:23:05.000Z</time>
      </trkpt>
      <trkpt lat="44.72027" lon="4.77544">
        <ele>89.734014</ele>
        <time>2021-09-15T08:23:14.000Z</time>
      </trkpt>
      <trkpt lat="44.71994" lon="4.77562">
        <ele>89.648902</ele>
        <time>2021-09-15T08:23:20.000Z</time>
      </trkpt>
      <trkpt lat="44.71944" lon="4.77591">
        <ele>89.517138</ele>
        <time>2021-09-15T08:23:29.000Z</time>
      </trkpt>
      <trkpt lat="44.71907" lon="4.7762">
        <ele>89.414278</ele>
        <time>2021-09-15T08:23:36.000Z</time>
      </trkpt>
      <trkpt lat="44.71861" lon="4.77661">
        <ele>89.278932</ele>
        <time>2021-09-15T08:23:45.000Z</time>
      </trkpt>
      <trkpt lat="44.71817" lon="4.77704">
        <ele>89.147465</ele>
        <time>2021-09-15T08:23:54.000Z</time>
      </trkpt>
      <trkpt lat="44.71771" lon="4.77754">
        <ele>89.043564</ele>
        <time>2021-09-15T08:24:04.000Z</time>
      </trkpt>
      <trkpt lat="44.71739" lon="4.77788">
        <ele>89.056698</ele>
        <time>2021-09-15T08:24:11.000Z</time>
      </trkpt>
      <trkpt lat="44.71706" lon="4.77822">
        <ele>89.07002</ele>
        <time>2021-09-15T08:24:18.000Z</time>
      </trkpt>
      <trkpt lat="44.71663" lon="4.77866">
        <ele>89.087107</ele>
        <time>2021-09-15T08:24:27.000Z</time>
      </trkpt>
      <trkpt lat="44.71614" lon="4.77913">
        <ele>89.146902</ele>
        <time>2021-09-15T08:24:37.000Z</time>
      </trkpt>
      <trkpt lat="44.71584" lon="4.77932">
        <ele>89.207342</ele>
        <time>2021-09-15T08:24:43.000Z</time>
      </trkpt>
      <trkpt lat="44.71549" lon="4.77955">
        <ele>89.276852</ele>
        <time>2021-09-15T08:24:50.000Z</time>
      </trkpt>
      <trkpt lat="44.71543" lon="4.77967">
        <ele>89.294939</ele>
        <time>2021-09-15T08:24:52.000Z</time>
      </trkpt>
      <trkpt lat="44.71539" lon="4.77981">
        <ele>89.314875</ele>
        <time>2021-09-15T08:24:54.000Z</time>
      </trkpt>
      <trkpt lat="44.71536" lon="4.7802">
        <ele>89.364557</ele>
        <time>2021-09-15T08:24:59.000Z</time>
      </trkpt>
      <trkpt lat="44.71534" lon="4.78042">
        <ele>89.393363</ele>
        <time>2021-09-15T08:25:02.000Z</time>
      </trkpt>
      <trkpt lat="44.71533" lon="4.78064">
        <ele>89.421644</ele>
        <time>2021-09-15T08:25:05.000Z</time>
      </trkpt>
      <trkpt lat="44.71533" lon="4.78071">
        <ele>89.435132</ele>
        <time>2021-09-15T08:25:06.000Z</time>
      </trkpt>
      <trkpt lat="44.7153" lon="4.78113">
        <ele>89.51916</ele>
        <time>2021-09-15T08:25:12.000Z</time>
      </trkpt>
      <trkpt lat="44.71528" lon="4.78126">
        <ele>89.546369</ele>
        <time>2021-09-15T08:25:14.000Z</time>
      </trkpt>
      <trkpt lat="44.71526" lon="4.7814">
        <ele>89.573824</ele>
        <time>2021-09-15T08:25:16.000Z</time>
      </trkpt>
      <trkpt lat="44.71522" lon="4.78147">
        <ele>89.591039</ele>
        <time>2021-09-15T08:25:17.000Z</time>
      </trkpt>
      <trkpt lat="44.71518" lon="4.78151">
        <ele>89.604999</ele>
        <time>2021-09-15T08:25:18.000Z</time>
      </trkpt>
      <trkpt lat="44.7151" lon="4.7816">
        <ele>89.63432</ele>
        <time>2021-09-15T08:25:20.000Z</time>
      </trkpt>
      <trkpt lat="44.71506" lon="4.78165">
        <ele>89.64828</ele>
        <time>2021-09-15T08:25:21.000Z</time>
      </trkpt>
      <trkpt lat="44.71501" lon="4.78167">
        <ele>89.664157</ele>
        <time>2021-09-15T08:25:22.000Z</time>
      </trkpt>
      <trkpt lat="44.71484" lon="4.78168">
        <ele>89.710289</ele>
        <time>2021-09-15T08:25:25.000Z</time>
      </trkpt>
      <trkpt lat="44.71437" lon="4.78179">
        <ele>89.842581</ele>
        <time>2021-09-15T08:25:33.000Z</time>
      </trkpt>
      <trkpt lat="44.71399" lon="4.7819">
        <ele>89.933402</ele>
        <time>2021-09-15T08:25:40.000Z</time>
      </trkpt>
      <trkpt lat="44.71354" lon="4.78203">
        <ele>89.97554</ele>
        <time>2021-09-15T08:25:48.000Z</time>
      </trkpt>
      <trkpt lat="44.71308" lon="4.78217">
        <ele>90.01899</ele>
        <time>2021-09-15T08:25:56.000Z</time>
      </trkpt>
      <trkpt lat="44.71255" lon="4.78233">
        <ele>90.06891</ele>
        <time>2021-09-15T08:26:05.000Z</time>
      </trkpt>
      <trkpt lat="44.71249" lon="4.78235">
        <ele>90.074455</ele>
        <time>2021-09-15T08:26:06.000Z</time>
      </trkpt>
      <trkpt lat="44.71195" lon="4.78251">
        <ele>90.009611</ele>
        <time>2021-09-15T08:26:15.000Z</time>
      </trkpt>
      <trkpt lat="44.71189" lon="4.78252">
        <ele>89.997303</ele>
        <time>2021-09-15T08:26:16.000Z</time>
      </trkpt>
      <trkpt lat="44.71138" lon="4.78267">
        <ele>89.890854</ele>
        <time>2021-09-15T08:26:25.000Z</time>
      </trkpt>
      <trkpt lat="44.711" lon="4.78279">
        <ele>89.812731</ele>
        <time>2021-09-15T08:26:32.000Z</time>
      </trkpt>
      <trkpt lat="44.71077" lon="4.78269">
        <ele>89.762805</ele>
        <time>2021-09-15T08:26:36.000Z</time>
      </trkpt>
      <trkpt lat="44.71071" lon="4.78267">
        <ele>89.751815</ele>
        <time>2021-09-15T08:26:37.000Z</time>
      </trkpt>
      <trkpt lat="44.71061" lon="4.78262">
        <ele>89.729684</ele>
        <time>2021-09-15T08:26:39.000Z</time>
      </trkpt>
      <trkpt lat="44.71041" lon="4.78249">
        <ele>89.790561</ele>
        <time>2021-09-15T08:26:43.000Z</time>
      </trkpt>
      <trkpt lat="44.71013" lon="4.78245">
        <ele>89.895142</ele>
        <time>2021-09-15T08:26:48.000Z</time>
      </trkpt>
      <trkpt lat="44.70978" lon="4.78249">
        <ele>90.023619</ele>
        <time>2021-09-15T08:26:54.000Z</time>
      </trkpt>
      <trkpt lat="44.7095" lon="4.78252">
        <ele>90.128025</ele>
        <time>2021-09-15T08:26:59.000Z</time>
      </trkpt>
      <trkpt lat="44.70944" lon="4.78252">
        <ele>90.149868</ele>
        <time>2021-09-15T08:27:00.000Z</time>
      </trkpt>
      <trkpt lat="44.70903" lon="4.78256">
        <ele>90.301293</ele>
        <time>2021-09-15T08:27:08.000Z</time>
      </trkpt>
      <trkpt lat="44.70884" lon="4.78258">
        <ele>90.373487</ele>
        <time>2021-09-15T08:27:12.000Z</time>
      </trkpt>
      <trkpt lat="44.70879" lon="4.78259">
        <ele>90.399013</ele>
        <time>2021-09-15T08:27:13.000Z</time>
      </trkpt>
      <trkpt lat="44.70852" lon="4.78262">
        <ele>90.616449</ele>
        <time>2021-09-15T08:27:18.000Z</time>
      </trkpt>
      <trkpt lat="44.70842" lon="4.78262">
        <ele>90.699284</ele>
        <time>2021-09-15T08:27:20.000Z</time>
      </trkpt>
      <trkpt lat="44.70819" lon="4.78264">
        <ele>90.881807</ele>
        <time>2021-09-15T08:27:24.000Z</time>
      </trkpt>
      <trkpt lat="44.70814" lon="4.78264">
        <ele>90.92281</ele>
        <time>2021-09-15T08:27:25.000Z</time>
      </trkpt>
      <trkpt lat="44.70778" lon="4.78268">
        <ele>91.208803</ele>
        <time>2021-09-15T08:27:31.000Z</time>
      </trkpt>
      <trkpt lat="44.70768" lon="4.7827">
        <ele>91.29039</ele>
        <time>2021-09-15T08:27:33.000Z</time>
      </trkpt>
      <trkpt lat="44.70764" lon="4.78271">
        <ele>91.326289</ele>
        <time>2021-09-15T08:27:34.000Z</time>
      </trkpt>
      <trkpt lat="44.70748" lon="4.78276">
        <ele>91.454812</ele>
        <time>2021-09-15T08:27:37.000Z</time>
      </trkpt>
      <trkpt lat="44.70733" lon="4.78284">
        <ele>91.58573</ele>
        <time>2021-09-15T08:27:40.000Z</time>
      </trkpt>
      <trkpt lat="44.70718" lon="4.78294">
        <ele>91.714948</ele>
        <time>2021-09-15T08:27:43.000Z</time>
      </trkpt>
      <trkpt lat="44.7071" lon="4.78303">
        <ele>91.79773</ele>
        <time>2021-09-15T08:27:45.000Z</time>
      </trkpt>
      <trkpt lat="44.70706" lon="4.78307">
        <ele>91.838801</ele>
        <time>2021-09-15T08:27:46.000Z</time>
      </trkpt>
      <trkpt lat="44.70702" lon="4.78311">
        <ele>91.885455</ele>
        <time>2021-09-15T08:27:47.000Z</time>
      </trkpt>
      <trkpt lat="44.70689" lon="4.78324">
        <ele>92.02443</ele>
        <time>2021-09-15T08:27:50.000Z</time>
      </trkpt>
      <trkpt lat="44.70657" lon="4.78361">
        <ele>92.394547</ele>
        <time>2021-09-15T08:27:58.000Z</time>
      </trkpt>
      <trkpt lat="44.70626" lon="4.78397">
        <ele>92.748318</ele>
        <time>2021-09-15T08:28:06.000Z</time>
      </trkpt>
      <trkpt lat="44.70615" lon="4.78409">
        <ele>92.870647</ele>
        <time>2021-09-15T08:28:09.000Z</time>
      </trkpt>
      <trkpt lat="44.70603" lon="4.7842">
        <ele>92.99905</ele>
        <time>2021-09-15T08:28:12.000Z</time>
      </trkpt>
      <trkpt lat="44.70574" lon="4.78439">
        <ele>93.278776</ele>
        <time>2021-09-15T08:28:18.000Z</time>
      </trkpt>
      <trkpt lat="44.70569" lon="4.7844">
        <ele>93.322023</ele>
        <time>2021-09-15T08:28:19.000Z</time>
      </trkpt>
      <trkpt lat="44.70546" lon="4.7845">
        <ele>93.532939</ele>
        <time>2021-09-15T08:28:24.000Z</time>
      </trkpt>
      <trkpt lat="44.70541" lon="4.78452">
        <ele>93.575791</ele>
        <time>2021-09-15T08:28:25.000Z</time>
      </trkpt>
      <trkpt lat="44.70508" lon="4.78466">
        <ele>93.868199</ele>
        <time>2021-09-15T08:28:32.000Z</time>
      </trkpt>
      <trkpt lat="44.70477" lon="4.7848">
        <ele>94.151885</ele>
        <time>2021-09-15T08:28:39.000Z</time>
      </trkpt>
      <trkpt lat="44.70444" lon="4.78494">
        <ele>94.446108</ele>
        <time>2021-09-15T08:28:46.000Z</time>
      </trkpt>
      <trkpt lat="44.70414" lon="4.78507">
        <ele>94.708909</ele>
        <time>2021-09-15T08:28:52.000Z</time>
      </trkpt>
      <trkpt lat="44.70373" lon="4.78526">
        <ele>95.016267</ele>
        <time>2021-09-15T08:29:00.000Z</time>
      </trkpt>
      <trkpt lat="44.70325" lon="4.78547">
        <ele>95.213277</ele>
        <time>2021-09-15T08:29:09.000Z</time>
      </trkpt>
      <trkpt lat="44.70286" lon="4.78565">
        <ele>95.374452</ele>
        <time>2021-09-15T08:29:17.000Z</time>
      </trkpt>
      <trkpt lat="44.70277" lon="4.78569">
        <ele>95.408545</ele>
        <time>2021-09-15T08:29:19.000Z</time>
      </trkpt>
      <trkpt lat="44.70261" lon="4.78576">
        <ele>95.474987</ele>
        <time>2021-09-15T08:29:23.000Z</time>
      </trkpt>
      <trkpt lat="44.70229" lon="4.78591">
        <ele>95.60547</ele>
        <time>2021-09-15T08:29:30.000Z</time>
      </trkpt>
      <trkpt lat="44.70188" lon="4.78609">
        <ele>95.506106</ele>
        <time>2021-09-15T08:29:38.000Z</time>
      </trkpt>
      <trkpt lat="44.70164" lon="4.7862">
        <ele>95.359224</ele>
        <time>2021-09-15T08:29:43.000Z</time>
      </trkpt>
      <trkpt lat="44.70153" lon="4.78624">
        <ele>95.297589</ele>
        <time>2021-09-15T08:29:45.000Z</time>
      </trkpt>
      <trkpt lat="44.70099" lon="4.78641">
        <ele>94.986172</ele>
        <time>2021-09-15T08:29:55.000Z</time>
      </trkpt>
      <trkpt lat="44.7005" lon="4.78657">
        <ele>94.700723</ele>
        <time>2021-09-15T08:30:04.000Z</time>
      </trkpt>
      <trkpt lat="44.69995" lon="4.78675">
        <ele>94.368079</ele>
        <time>2021-09-15T08:30:14.000Z</time>
      </trkpt>
      <trkpt lat="44.6999" lon="4.78676">
        <ele>94.333318</ele>
        <time>2021-09-15T08:30:15.000Z</time>
      </trkpt>
      <trkpt lat="44.69953" lon="4.78688">
        <ele>94.104911</ele>
        <time>2021-09-15T08:30:22.000Z</time>
      </trkpt>
      <trkpt lat="44.6992" lon="4.78698">
        <ele>93.897991</ele>
        <time>2021-09-15T08:30:28.000Z</time>
      </trkpt>
      <trkpt lat="44.69886" lon="4.78704">
        <ele>93.692736</ele>
        <time>2021-09-15T08:30:34.000Z</time>
      </trkpt>
      <trkpt lat="44.6985" lon="4.78711">
        <ele>93.479859</ele>
        <time>2021-09-15T08:30:40.000Z</time>
      </trkpt>
      <trkpt lat="44.69814" lon="4.78726">
        <ele>93.267345</ele>
        <time>2021-09-15T08:30:46.000Z</time>
      </trkpt>
      <trkpt lat="44.69757" lon="4.78747">
        <ele>92.930067</ele>
        <time>2021-09-15T08:30:55.000Z</time>
      </trkpt>
      <trkpt lat="44.69751" lon="4.78749">
        <ele>92.894311</ele>
        <time>2021-09-15T08:30:56.000Z</time>
      </trkpt>
      <trkpt lat="44.69707" lon="4.78764">
        <ele>92.641485</ele>
        <time>2021-09-15T08:31:03.000Z</time>
      </trkpt>
      <trkpt lat="44.69655" lon="4.7878">
        <ele>92.396427</ele>
        <time>2021-09-15T08:31:12.000Z</time>
      </trkpt>
      <trkpt lat="44.69607" lon="4.78795">
        <ele>92.193956</ele>
        <time>2021-09-15T08:31:21.000Z</time>
      </trkpt>
      <trkpt lat="44.69564" lon="4.78809">
        <ele>92.01518</ele>
        <time>2021-09-15T08:31:29.000Z</time>
      </trkpt>
      <trkpt lat="44.69534" lon="4.78818">
        <ele>91.890312</ele>
        <time>2021-09-15T08:31:35.000Z</time>
      </trkpt>
      <trkpt lat="44.69504" lon="4.78827">
        <ele>91.791141</ele>
        <time>2021-09-15T08:31:40.000Z</time>
      </trkpt>
      <trkpt lat="44.69481" lon="4.78834">
        <ele>91.750292</ele>
        <time>2021-09-15T08:31:45.000Z</time>
      </trkpt>
      <trkpt lat="44.69438" lon="4.78848">
        <ele>91.675944</ele>
        <time>2021-09-15T08:31:54.000Z</time>
      </trkpt>
      <trkpt lat="44.69396" lon="4.78863">
        <ele>91.60154</ele>
        <time>2021-09-15T08:32:02.000Z</time>
      </trkpt>
      <trkpt lat="44.6934" lon="4.78881">
        <ele>91.503683</ele>
        <time>2021-09-15T08:32:12.000Z</time>
      </trkpt>
      <trkpt lat="44.69334" lon="4.78883">
        <ele>91.501371</ele>
        <time>2021-09-15T08:32:13.000Z</time>
      </trkpt>
      <trkpt lat="44.69295" lon="4.78895">
        <ele>91.491196</ele>
        <time>2021-09-15T08:32:20.000Z</time>
      </trkpt>
      <trkpt lat="44.69239" lon="4.78913">
        <ele>91.476342</ele>
        <time>2021-09-15T08:32:30.000Z</time>
      </trkpt>
      <trkpt lat="44.69192" lon="4.78928">
        <ele>91.463933</ele>
        <time>2021-09-15T08:32:38.000Z</time>
      </trkpt>
      <trkpt lat="44.69139" lon="4.78945">
        <ele>91.440622</ele>
        <time>2021-09-15T08:32:47.000Z</time>
      </trkpt>
      <trkpt lat="44.6909" lon="4.7896">
        <ele>91.408101</ele>
        <time>2021-09-15T08:32:56.000Z</time>
      </trkpt>
      <trkpt lat="44.69039" lon="4.78976">
        <ele>91.374607</ele>
        <time>2021-09-15T08:33:05.000Z</time>
      </trkpt>
      <trkpt lat="44.68993" lon="4.78991">
        <ele>91.344635</ele>
        <time>2021-09-15T08:33:14.000Z</time>
      </trkpt>
      <trkpt lat="44.68978" lon="4.78995">
        <ele>91.311258</ele>
        <time>2021-09-15T08:33:17.000Z</time>
      </trkpt>
      <trkpt lat="44.6896" lon="4.78999">
        <ele>91.255158</ele>
        <time>2021-09-15T08:33:21.000Z</time>
      </trkpt>
      <trkpt lat="44.68926" lon="4.79006">
        <ele>91.152424</ele>
        <time>2021-09-15T08:33:27.000Z</time>
      </trkpt>
      <trkpt lat="44.68882" lon="4.79017">
        <ele>91.016985</ele>
        <time>2021-09-15T08:33:34.000Z</time>
      </trkpt>
      <trkpt lat="44.68846" lon="4.79033">
        <ele>90.901975</ele>
        <time>2021-09-15T08:33:40.000Z</time>
      </trkpt>
      <trkpt lat="44.68794" lon="4.79053">
        <ele>90.792759</ele>
        <time>2021-09-15T08:33:49.000Z</time>
      </trkpt>
      <trkpt lat="44.68736" lon="4.7907">
        <ele>90.772115</ele>
        <time>2021-09-15T08:33:59.000Z</time>
      </trkpt>
      <trkpt lat="44.6873" lon="4.79071">
        <ele>90.77005</ele>
        <time>2021-09-15T08:34:00.000Z</time>
      </trkpt>
      <trkpt lat="44.68673" lon="4.79088">
        <ele>90.749812</ele>
        <time>2021-09-15T08:34:10.000Z</time>
      </trkpt>
      <trkpt lat="44.68668" lon="4.79089">
        <ele>90.747855</ele>
        <time>2021-09-15T08:34:11.000Z</time>
      </trkpt>
      <trkpt lat="44.6862" lon="4.79103">
        <ele>90.774032</ele>
        <time>2021-09-15T08:34:20.000Z</time>
      </trkpt>
      <trkpt lat="44.68589" lon="4.79111">
        <ele>90.84167</ele>
        <time>2021-09-15T08:34:26.000Z</time>
      </trkpt>
      <trkpt lat="44.68559" lon="4.7912">
        <ele>90.908281</ele>
        <time>2021-09-15T08:34:32.000Z</time>
      </trkpt>
      <trkpt lat="44.68512" lon="4.79136">
        <ele>91.012442</ele>
        <time>2021-09-15T08:34:41.000Z</time>
      </trkpt>
      <trkpt lat="44.68459" lon="4.79154">
        <ele>91.120619</ele>
        <time>2021-09-15T08:34:51.000Z</time>
      </trkpt>
      <trkpt lat="44.6842" lon="4.79167">
        <ele>91.056605</ele>
        <time>2021-09-15T08:34:59.000Z</time>
      </trkpt>
      <trkpt lat="44.68387" lon="4.79178">
        <ele>91.001363</ele>
        <time>2021-09-15T08:35:06.000Z</time>
      </trkpt>
      <trkpt lat="44.68344" lon="4.79192">
        <ele>90.930743</ele>
        <time>2021-09-15T08:35:14.000Z</time>
      </trkpt>
      <trkpt lat="44.68294" lon="4.79209">
        <ele>90.848715</ele>
        <time>2021-09-15T08:35:23.000Z</time>
      </trkpt>
      <trkpt lat="44.68252" lon="4.79223">
        <ele>90.756869</ele>
        <time>2021-09-15T08:35:31.000Z</time>
      </trkpt>
      <trkpt lat="44.68236" lon="4.79228">
        <ele>90.722771</ele>
        <time>2021-09-15T08:35:34.000Z</time>
      </trkpt>
      <trkpt lat="44.6823" lon="4.79227">
        <ele>90.708266</ele>
        <time>2021-09-15T08:35:35.000Z</time>
      </trkpt>
      <trkpt lat="44.68225" lon="4.7922">
        <ele>90.693728</ele>
        <time>2021-09-15T08:35:36.000Z</time>
      </trkpt>
      <trkpt lat="44.68221" lon="4.79206">
        <ele>90.66975</ele>
        <time>2021-09-15T08:35:38.000Z</time>
      </trkpt>
      <trkpt lat="44.68208" lon="4.79171">
        <ele>90.607443</ele>
        <time>2021-09-15T08:35:43.000Z</time>
      </trkpt>
      <trkpt lat="44.68205" lon="4.79165">
        <ele>90.595082</ele>
        <time>2021-09-15T08:35:44.000Z</time>
      </trkpt>
      <trkpt lat="44.68178" lon="4.79135">
        <ele>90.520967</ele>
        <time>2021-09-15T08:35:50.000Z</time>
      </trkpt>
      <trkpt lat="44.68164" lon="4.79126">
        <ele>90.486205</ele>
        <time>2021-09-15T08:35:53.000Z</time>
      </trkpt>
      <trkpt lat="44.68149" lon="4.79121">
        <ele>90.45197</ele>
        <time>2021-09-15T08:35:56.000Z</time>
      </trkpt>
      <trkpt lat="44.68127" lon="4.79119">
        <ele>90.411553</ele>
        <time>2021-09-15T08:36:00.000Z</time>
      </trkpt>
      <trkpt lat="44.68121" lon="4.7912">
        <ele>90.402252</ele>
        <time>2021-09-15T08:36:01.000Z</time>
      </trkpt>
      <trkpt lat="44.68104" lon="4.79125">
        <ele>90.372452</ele>
        <time>2021-09-15T08:36:04.000Z</time>
      </trkpt>
      <trkpt lat="44.68089" lon="4.79137">
        <ele>90.342537</ele>
        <time>2021-09-15T08:36:07.000Z</time>
      </trkpt>
      <trkpt lat="44.68063" lon="4.79166">
        <ele>90.285554</ele>
        <time>2021-09-15T08:36:13.000Z</time>
      </trkpt>
      <trkpt lat="44.68025" lon="4.79211">
        <ele>90.20013</ele>
        <time>2021-09-15T08:36:22.000Z</time>
      </trkpt>
      <trkpt lat="44.67991" lon="4.7925">
        <ele>90.125112</ele>
        <time>2021-09-15T08:36:30.000Z</time>
      </trkpt>
      <trkpt lat="44.67957" lon="4.79289">
        <ele>90.059283</ele>
        <time>2021-09-15T08:36:38.000Z</time>
      </trkpt>
      <trkpt lat="44.67925" lon="4.79317">
        <ele>90.002194</ele>
        <time>2021-09-15T08:36:45.000Z</time>
      </trkpt>
      <trkpt lat="44.67892" lon="4.79329">
        <ele>89.952533</ele>
        <time>2021-09-15T08:36:51.000Z</time>
      </trkpt>
      <trkpt lat="44.67844" lon="4.79333">
        <ele>89.879281</ele>
        <time>2021-09-15T08:37:00.000Z</time>
      </trkpt>
      <trkpt lat="44.67795" lon="4.79336">
        <ele>89.878461</ele>
        <time>2021-09-15T08:37:09.000Z</time>
      </trkpt>
      <trkpt lat="44.67751" lon="4.7934">
        <ele>89.898419</ele>
        <time>2021-09-15T08:37:17.000Z</time>
      </trkpt>
      <trkpt lat="44.67746" lon="4.79339">
        <ele>89.900757</ele>
        <time>2021-09-15T08:37:18.000Z</time>
      </trkpt>
      <trkpt lat="44.67722" lon="4.79333">
        <ele>89.912123</ele>
        <time>2021-09-15T08:37:23.000Z</time>
      </trkpt>
      <trkpt lat="44.67697" lon="4.79322">
        <ele>89.924004</ele>
        <time>2021-09-15T08:37:28.000Z</time>
      </trkpt>
      <trkpt lat="44.67693" lon="4.79319">
        <ele>89.926275</ele>
        <time>2021-09-15T08:37:29.000Z</time>
      </trkpt>
      <trkpt lat="44.67671" lon="4.79304">
        <ele>89.937289</ele>
        <time>2021-09-15T08:37:34.000Z</time>
      </trkpt>
      <trkpt lat="44.67663" lon="4.79296">
        <ele>89.941824</ele>
        <time>2021-09-15T08:37:36.000Z</time>
      </trkpt>
      <trkpt lat="44.67636" lon="4.79261">
        <ele>89.958393</ele>
        <time>2021-09-15T08:37:43.000Z</time>
      </trkpt>
      <trkpt lat="44.67614" lon="4.79215">
        <ele>89.975582</ele>
        <time>2021-09-15T08:37:50.000Z</time>
      </trkpt>
      <trkpt lat="44.67601" lon="4.79163">
        <ele>89.99312</ele>
        <time>2021-09-15T08:37:57.000Z</time>
      </trkpt>
      <trkpt lat="44.67596" lon="4.791">
        <ele>90.013128</ele>
        <time>2021-09-15T08:38:05.000Z</time>
      </trkpt>
      <trkpt lat="44.67596" lon="4.79093">
        <ele>90.015537</ele>
        <time>2021-09-15T08:38:06.000Z</time>
      </trkpt>
      <trkpt lat="44.67595" lon="4.79085">
        <ele>90.017883</ele>
        <time>2021-09-15T08:38:07.000Z</time>
      </trkpt>
      <trkpt lat="44.67594" lon="4.79049">
        <ele>90.00969</ele>
        <time>2021-09-15T08:38:12.000Z</time>
      </trkpt>
      <trkpt lat="44.67594" lon="4.79">
        <ele>89.968239</ele>
        <time>2021-09-15T08:38:19.000Z</time>
      </trkpt>
      <trkpt lat="44.6759" lon="4.78977">
        <ele>89.948551</ele>
        <time>2021-09-15T08:38:24.000Z</time>
      </trkpt>
      <trkpt lat="44.67589" lon="4.78978">
        <ele>89.947835</ele>
        <time>2021-09-15T08:39:44.000Z</time>
      </trkpt>
      <trkpt lat="44.67589" lon="4.78979">
        <ele>89.946862</ele>
        <time>2021-09-15T08:39:45.000Z</time>
      </trkpt>
      <trkpt lat="44.67585" lon="4.78983">
        <ele>89.941035</ele>
        <time>2021-09-15T08:39:47.000Z</time>
      </trkpt>
      <trkpt lat="44.67578" lon="4.78987">
        <ele>89.932931</ele>
        <time>2021-09-15T08:39:49.000Z</time>
      </trkpt>
      <trkpt lat="44.67567" lon="4.78987">
        <ele>89.918902</ele>
        <time>2021-09-15T08:39:52.000Z</time>
      </trkpt>
      <trkpt lat="44.67558" lon="4.78988">
        <ele>89.908329</ele>
        <time>2021-09-15T08:39:54.000Z</time>
      </trkpt>
      <trkpt lat="44.67522" lon="4.7899">
        <ele>89.865794</ele>
        <time>2021-09-15T08:40:01.000Z</time>
      </trkpt>
      <trkpt lat="44.67478" lon="4.78993">
        <ele>89.813757</ele>
        <time>2021-09-15T08:40:09.000Z</time>
      </trkpt>
      <trkpt lat="44.67446" lon="4.78994">
        <ele>89.841566</ele>
        <time>2021-09-15T08:40:15.000Z</time>
      </trkpt>
      <trkpt lat="44.67395" lon="4.78997">
        <ele>89.895452</ele>
        <time>2021-09-15T08:40:24.000Z</time>
      </trkpt>
      <trkpt lat="44.6735" lon="4.79">
        <ele>89.942694</ele>
        <time>2021-09-15T08:40:32.000Z</time>
      </trkpt>
      <trkpt lat="44.67334" lon="4.79002">
        <ele>89.959179</ele>
        <time>2021-09-15T08:40:35.000Z</time>
      </trkpt>
      <trkpt lat="44.67324" lon="4.79004">
        <ele>89.970736</ele>
        <time>2021-09-15T08:40:37.000Z</time>
      </trkpt>
      <trkpt lat="44.67309" lon="4.79011">
        <ele>89.987264</ele>
        <time>2021-09-15T08:40:40.000Z</time>
      </trkpt>
      <trkpt lat="44.67294" lon="4.79022">
        <ele>90.000006</ele>
        <time>2021-09-15T08:40:43.000Z</time>
      </trkpt>
      <trkpt lat="44.67261" lon="4.7905">
        <ele>90.000006</ele>
        <time>2021-09-15T08:40:50.000Z</time>
      </trkpt>
      <trkpt lat="44.67214" lon="4.79089">
        <ele>90.000006</ele>
        <time>2021-09-15T08:41:00.000Z</time>
      </trkpt>
      <trkpt lat="44.67167" lon="4.79127">
        <ele>90.000006</ele>
        <time>2021-09-15T08:41:10.000Z</time>
      </trkpt>
      <trkpt lat="44.67125" lon="4.79161">
        <ele>89.998685</ele>
        <time>2021-09-15T08:41:19.000Z</time>
      </trkpt>
      <trkpt lat="44.67078" lon="4.79202">
        <ele>89.995059</ele>
        <time>2021-09-15T08:41:29.000Z</time>
      </trkpt>
      <trkpt lat="44.67029" lon="4.79243">
        <ele>89.991372</ele>
        <time>2021-09-15T08:41:39.000Z</time>
      </trkpt>
      <trkpt lat="44.66991" lon="4.79269">
        <ele>89.988664</ele>
        <time>2021-09-15T08:41:47.000Z</time>
      </trkpt>
      <trkpt lat="44.66987" lon="4.79272">
        <ele>89.988344</ele>
        <time>2021-09-15T08:41:48.000Z</time>
      </trkpt>
      <trkpt lat="44.66967" lon="4.79281">
        <ele>89.960224</ele>
        <time>2021-09-15T08:41:52.000Z</time>
      </trkpt>
      <trkpt lat="44.66929" lon="4.79287">
        <ele>89.905937</ele>
        <time>2021-09-15T08:41:59.000Z</time>
      </trkpt>
      <trkpt lat="44.66884" lon="4.79281">
        <ele>89.843729</ele>
        <time>2021-09-15T08:42:07.000Z</time>
      </trkpt>
      <trkpt lat="44.66851" lon="4.79271">
        <ele>89.797096</ele>
        <time>2021-09-15T08:42:13.000Z</time>
      </trkpt>
      <trkpt lat="44.66811" lon="4.7926">
        <ele>89.73985</ele>
        <time>2021-09-15T08:42:20.000Z</time>
      </trkpt>
      <trkpt lat="44.66789" lon="4.79252">
        <ele>89.772123</ele>
        <time>2021-09-15T08:42:24.000Z</time>
      </trkpt>
      <trkpt lat="44.66778" lon="4.79248">
        <ele>89.790098</ele>
        <time>2021-09-15T08:42:26.000Z</time>
      </trkpt>
      <trkpt lat="44.66756" lon="4.7924">
        <ele>89.825386</ele>
        <time>2021-09-15T08:42:30.000Z</time>
      </trkpt>
      <trkpt lat="44.6675" lon="4.79238">
        <ele>89.834629</ele>
        <time>2021-09-15T08:42:31.000Z</time>
      </trkpt>
      <trkpt lat="44.66745" lon="4.79236">
        <ele>89.84357</ele>
        <time>2021-09-15T08:42:32.000Z</time>
      </trkpt>
      <trkpt lat="44.66727" lon="4.79228">
        <ele>89.872133</ele>
        <time>2021-09-15T08:42:35.000Z</time>
      </trkpt>
      <trkpt lat="44.66676" lon="4.79202">
        <ele>89.957823</ele>
        <time>2021-09-15T08:42:44.000Z</time>
      </trkpt>
      <trkpt lat="44.66646" lon="4.79183">
        <ele>90.008774</ele>
        <time>2021-09-15T08:42:50.000Z</time>
      </trkpt>
      <trkpt lat="44.66616" lon="4.79164">
        <ele>90.157794</ele>
        <time>2021-09-15T08:42:56.000Z</time>
      </trkpt>
      <trkpt lat="44.66611" lon="4.7916">
        <ele>90.185843</ele>
        <time>2021-09-15T08:42:57.000Z</time>
      </trkpt>
      <trkpt lat="44.66597" lon="4.79151">
        <ele>90.271439</ele>
        <time>2021-09-15T08:43:00.000Z</time>
      </trkpt>
      <trkpt lat="44.6656" lon="4.79125">
        <ele>90.490217</ele>
        <time>2021-09-15T08:43:07.000Z</time>
      </trkpt>
      <trkpt lat="44.66555" lon="4.7912">
        <ele>90.519993</ele>
        <time>2021-09-15T08:43:08.000Z</time>
      </trkpt>
      <trkpt lat="44.6654" lon="4.79106">
        <ele>90.620598</ele>
        <time>2021-09-15T08:43:11.000Z</time>
      </trkpt>
      <trkpt lat="44.66509" lon="4.79075">
        <ele>90.819993</ele>
        <time>2021-09-15T08:43:17.000Z</time>
      </trkpt>
      <trkpt lat="44.66482" lon="4.79045">
        <ele>91.028418</ele>
        <time>2021-09-15T08:43:23.000Z</time>
      </trkpt>
      <trkpt lat="44.66466" lon="4.79027">
        <ele>91.253118</ele>
        <time>2021-09-15T08:43:28.000Z</time>
      </trkpt>
      <trkpt lat="44.66449" lon="4.79008">
        <ele>91.490732</ele>
        <time>2021-09-15T08:43:35.000Z</time>
      </trkpt>
      <trkpt lat="44.66432" lon="4.78994">
        <ele>91.70206</ele>
        <time>2021-09-15T08:43:42.000Z</time>
      </trkpt>
      <trkpt lat="44.66416" lon="4.78993">
        <ele>91.871269</ele>
        <time>2021-09-15T08:43:48.000Z</time>
      </trkpt>
      <trkpt lat="44.66403" lon="4.79">
        <ele>92.029297</ele>
        <time>2021-09-15T08:43:54.000Z</time>
      </trkpt>
      <trkpt lat="44.66381" lon="4.79012">
        <ele>92.279902</ele>
        <time>2021-09-15T08:44:01.000Z</time>
      </trkpt>
      <trkpt lat="44.66368" lon="4.79021">
        <ele>92.4397</ele>
        <time>2021-09-15T08:44:05.000Z</time>
      </trkpt>
      <trkpt lat="44.66357" lon="4.79034">
        <ele>92.589357</ele>
        <time>2021-09-15T08:44:08.000Z</time>
      </trkpt>
      <trkpt lat="44.66354" lon="4.79037">
        <ele>92.629975</ele>
        <time>2021-09-15T08:44:09.000Z</time>
      </trkpt>
      <trkpt lat="44.6635" lon="4.79051">
        <ele>92.749347</ele>
        <time>2021-09-15T08:44:12.000Z</time>
      </trkpt>
      <trkpt lat="44.66343" lon="4.7907">
        <ele>92.912149</ele>
        <time>2021-09-15T08:44:17.000Z</time>
      </trkpt>
      <trkpt lat="44.6633" lon="4.7907">
        <ele>92.961279</ele>
        <time>2021-09-15T08:44:19.000Z</time>
      </trkpt>
      <trkpt lat="44.66323" lon="4.79066">
        <ele>92.982122</ele>
        <time>2021-09-15T08:44:21.000Z</time>
      </trkpt>
      <trkpt lat="44.66291" lon="4.79049">
        <ele>93.083314</ele>
        <time>2021-09-15T08:44:29.000Z</time>
      </trkpt>
      <trkpt lat="44.66239" lon="4.79022">
        <ele>93.245452</ele>
        <time>2021-09-15T08:44:41.000Z</time>
      </trkpt>
      <trkpt lat="44.66198" lon="4.79">
        <ele>93.372166</ele>
        <time>2021-09-15T08:44:50.000Z</time>
      </trkpt>
      <trkpt lat="44.66168" lon="4.78985">
        <ele>93.46457</ele>
        <time>2021-09-15T08:44:56.000Z</time>
      </trkpt>
      <trkpt lat="44.66154" lon="4.78977">
        <ele>93.508582</ele>
        <time>2021-09-15T08:44:59.000Z</time>
      </trkpt>
      <trkpt lat="44.66144" lon="4.78972">
        <ele>93.54141</ele>
        <time>2021-09-15T08:45:01.000Z</time>
      </trkpt>
      <trkpt lat="44.66112" lon="4.78954">
        <ele>93.642998</ele>
        <time>2021-09-15T08:45:07.000Z</time>
      </trkpt>
      <trkpt lat="44.66059" lon="4.78925">
        <ele>93.812612</ele>
        <time>2021-09-15T08:45:17.000Z</time>
      </trkpt>
      <trkpt lat="44.66053" lon="4.78922">
        <ele>93.830358</ele>
        <time>2021-09-15T08:45:18.000Z</time>
      </trkpt>
      <trkpt lat="44.66006" lon="4.78898">
        <ele>93.979361</ele>
        <time>2021-09-15T08:45:26.000Z</time>
      </trkpt>
      <trkpt lat="44.65952" lon="4.78868">
        <ele>93.68279</ele>
        <time>2021-09-15T08:45:35.000Z</time>
      </trkpt>
      <trkpt lat="44.65899" lon="4.78841">
        <ele>93.386584</ele>
        <time>2021-09-15T08:45:44.000Z</time>
      </trkpt>
      <trkpt lat="44.65852" lon="4.78817">
        <ele>93.121538</ele>
        <time>2021-09-15T08:45:52.000Z</time>
      </trkpt>
      <trkpt lat="44.65795" lon="4.78788">
        <ele>92.833111</ele>
        <time>2021-09-15T08:46:01.000Z</time>
      </trkpt>
      <trkpt lat="44.65789" lon="4.78784">
        <ele>92.802041</ele>
        <time>2021-09-15T08:46:02.000Z</time>
      </trkpt>
      <trkpt lat="44.65732" lon="4.78755">
        <ele>92.52488</ele>
        <time>2021-09-15T08:46:11.000Z</time>
      </trkpt>
      <trkpt lat="44.65725" lon="4.78752">
        <ele>92.494348</ele>
        <time>2021-09-15T08:46:12.000Z</time>
      </trkpt>
      <trkpt lat="44.65676" lon="4.78726">
        <ele>92.254063</ele>
        <time>2021-09-15T08:46:20.000Z</time>
      </trkpt>
      <trkpt lat="44.65624" lon="4.78699">
        <ele>92.209333</ele>
        <time>2021-09-15T08:46:29.000Z</time>
      </trkpt>
      <trkpt lat="44.65618" lon="4.78696">
        <ele>92.208892</ele>
        <time>2021-09-15T08:46:30.000Z</time>
      </trkpt>
      <trkpt lat="44.6557" lon="4.78671">
        <ele>92.205303</ele>
        <time>2021-09-15T08:46:39.000Z</time>
      </trkpt>
      <trkpt lat="44.6553" lon="4.78651">
        <ele>92.202362</ele>
        <time>2021-09-15T08:46:47.000Z</time>
      </trkpt>
      <trkpt lat="44.65489" lon="4.78631">
        <ele>92.20752</ele>
        <time>2021-09-15T08:46:55.000Z</time>
      </trkpt>
      <trkpt lat="44.65437" lon="4.78606">
        <ele>92.248283</ele>
        <time>2021-09-15T08:47:04.000Z</time>
      </trkpt>
      <trkpt lat="44.65432" lon="4.78603">
        <ele>92.253064</ele>
        <time>2021-09-15T08:47:05.000Z</time>
      </trkpt>
      <trkpt lat="44.65388" lon="4.78575">
        <ele>92.288754</ele>
        <time>2021-09-15T08:47:12.000Z</time>
      </trkpt>
      <trkpt lat="44.65334" lon="4.78537">
        <ele>92.333966</ele>
        <time>2021-09-15T08:47:21.000Z</time>
      </trkpt>
      <trkpt lat="44.65304" lon="4.78508">
        <ele>92.317234</ele>
        <time>2021-09-15T08:47:27.000Z</time>
      </trkpt>
      <trkpt lat="44.65257" lon="4.78457">
        <ele>92.287196</ele>
        <time>2021-09-15T08:47:36.000Z</time>
      </trkpt>
      <trkpt lat="44.65252" lon="4.78451">
        <ele>92.283781</ele>
        <time>2021-09-15T08:47:37.000Z</time>
      </trkpt>
      <trkpt lat="44.65207" lon="4.78402">
        <ele>92.255384</ele>
        <time>2021-09-15T08:47:45.000Z</time>
      </trkpt>
      <trkpt lat="44.65164" lon="4.78355">
        <ele>92.323396</ele>
        <time>2021-09-15T08:47:53.000Z</time>
      </trkpt>
      <trkpt lat="44.65159" lon="4.7835">
        <ele>92.339259</ele>
        <time>2021-09-15T08:47:54.000Z</time>
      </trkpt>
      <trkpt lat="44.65118" lon="4.7831">
        <ele>92.458633</ele>
        <time>2021-09-15T08:48:02.000Z</time>
      </trkpt>
      <trkpt lat="44.65074" lon="4.78283">
        <ele>92.572971</ele>
        <time>2021-09-15T08:48:10.000Z</time>
      </trkpt>
      <trkpt lat="44.65032" lon="4.78268">
        <ele>92.677885</ele>
        <time>2021-09-15T08:48:18.000Z</time>
      </trkpt>
      <trkpt lat="44.64997" lon="4.78263">
        <ele>92.99025</ele>
        <time>2021-09-15T08:48:25.000Z</time>
      </trkpt>
      <trkpt lat="44.64947" lon="4.78257">
        <ele>93.42461</ele>
        <time>2021-09-15T08:48:35.000Z</time>
      </trkpt>
      <trkpt lat="44.64934" lon="4.78255">
        <ele>93.544307</ele>
        <time>2021-09-15T08:48:38.000Z</time>
      </trkpt>
      <trkpt lat="44.64926" lon="4.78253">
        <ele>93.610195</ele>
        <time>2021-09-15T08:48:41.000Z</time>
      </trkpt>
      <trkpt lat="44.64913" lon="4.78249">
        <ele>93.728956</ele>
        <time>2021-09-15T08:48:45.000Z</time>
      </trkpt>
      <trkpt lat="44.64892" lon="4.7824">
        <ele>93.917027</ele>
        <time>2021-09-15T08:48:50.000Z</time>
      </trkpt>
      <trkpt lat="44.64888" lon="4.78238">
        <ele>93.954361</ele>
        <time>2021-09-15T08:48:51.000Z</time>
      </trkpt>
      <trkpt lat="44.64858" lon="4.78222">
        <ele>94.235733</ele>
        <time>2021-09-15T08:48:58.000Z</time>
      </trkpt>
      <trkpt lat="44.64836" lon="4.7821">
        <ele>94.384688</ele>
        <time>2021-09-15T08:49:03.000Z</time>
      </trkpt>
      <trkpt lat="44.64813" lon="4.78198">
        <ele>94.532644</ele>
        <time>2021-09-15T08:49:08.000Z</time>
      </trkpt>
      <trkpt lat="44.64805" lon="4.78193">
        <ele>94.585362</ele>
        <time>2021-09-15T08:49:10.000Z</time>
      </trkpt>
      <trkpt lat="44.64801" lon="4.78191">
        <ele>94.61116</ele>
        <time>2021-09-15T08:49:11.000Z</time>
      </trkpt>
      <trkpt lat="44.64774" lon="4.78176">
        <ele>94.785628</ele>
        <time>2021-09-15T08:49:17.000Z</time>
      </trkpt>
      <trkpt lat="44.64746" lon="4.78161">
        <ele>94.965348</ele>
        <time>2021-09-15T08:49:23.000Z</time>
      </trkpt>
      <trkpt lat="44.64741" lon="4.78159">
        <ele>94.99497</ele>
        <time>2021-09-15T08:49:24.000Z</time>
      </trkpt>
      <trkpt lat="44.64731" lon="4.78153">
        <ele>95.058037</ele>
        <time>2021-09-15T08:49:26.000Z</time>
      </trkpt>
      <trkpt lat="44.6471" lon="4.78142">
        <ele>95.192534</ele>
        <time>2021-09-15T08:49:30.000Z</time>
      </trkpt>
      <trkpt lat="44.6468" lon="4.78123">
        <ele>95.364075</ele>
        <time>2021-09-15T08:49:36.000Z</time>
      </trkpt>
      <trkpt lat="44.64675" lon="4.78119">
        <ele>95.382079</ele>
        <time>2021-09-15T08:49:37.000Z</time>
      </trkpt>
      <trkpt lat="44.6464" lon="4.7809">
        <ele>95.514572</ele>
        <time>2021-09-15T08:49:44.000Z</time>
      </trkpt>
      <trkpt lat="44.64589" lon="4.78051">
        <ele>95.701746</ele>
        <time>2021-09-15T08:49:53.000Z</time>
      </trkpt>
      <trkpt lat="44.64544" lon="4.78016">
        <ele>95.868867</ele>
        <time>2021-09-15T08:50:02.000Z</time>
      </trkpt>
      <trkpt lat="44.64522" lon="4.77998">
        <ele>95.947304</ele>
        <time>2021-09-15T08:50:07.000Z</time>
      </trkpt>
      <trkpt lat="44.64501" lon="4.77979">
        <ele>96.02005</ele>
        <time>2021-09-15T08:50:12.000Z</time>
      </trkpt>
      <trkpt lat="44.64469" lon="4.77953">
        <ele>96.124771</ele>
        <time>2021-09-15T08:50:19.000Z</time>
      </trkpt>
      <trkpt lat="44.64447" lon="4.77935">
        <ele>96.199062</ele>
        <time>2021-09-15T08:50:24.000Z</time>
      </trkpt>
      <trkpt lat="44.64401" lon="4.77896">
        <ele>96.352199</ele>
        <time>2021-09-15T08:50:34.000Z</time>
      </trkpt>
      <trkpt lat="44.64373" lon="4.77873">
        <ele>96.440286</ele>
        <time>2021-09-15T08:50:40.000Z</time>
      </trkpt>
      <trkpt lat="44.64336" lon="4.77841">
        <ele>96.531955</ele>
        <time>2021-09-15T08:50:48.000Z</time>
      </trkpt>
      <trkpt lat="44.64301" lon="4.77812">
        <ele>96.615417</ele>
        <time>2021-09-15T08:50:55.000Z</time>
      </trkpt>
      <trkpt lat="44.64265" lon="4.77782">
        <ele>96.702219</ele>
        <time>2021-09-15T08:51:02.000Z</time>
      </trkpt>
      <trkpt lat="44.64235" lon="4.77757">
        <ele>96.775513</ele>
        <time>2021-09-15T08:51:08.000Z</time>
      </trkpt>
      <trkpt lat="44.64216" lon="4.77741">
        <ele>96.813623</ele>
        <time>2021-09-15T08:51:12.000Z</time>
      </trkpt>
      <trkpt lat="44.64211" lon="4.77737">
        <ele>96.819244</ele>
        <time>2021-09-15T08:51:13.000Z</time>
      </trkpt>
      <trkpt lat="44.64181" lon="4.77711">
        <ele>96.857915</ele>
        <time>2021-09-15T08:51:20.000Z</time>
      </trkpt>
      <trkpt lat="44.64156" lon="4.7769">
        <ele>96.890112</ele>
        <time>2021-09-15T08:51:26.000Z</time>
      </trkpt>
      <trkpt lat="44.64128" lon="4.77667">
        <ele>96.925253</ele>
        <time>2021-09-15T08:51:32.000Z</time>
      </trkpt>
      <trkpt lat="44.64092" lon="4.77636">
        <ele>96.971358</ele>
        <time>2021-09-15T08:51:39.000Z</time>
      </trkpt>
      <trkpt lat="44.64059" lon="4.77608">
        <ele>97.011421</ele>
        <time>2021-09-15T08:51:45.000Z</time>
      </trkpt>
      <trkpt lat="44.64038" lon="4.7759">
        <ele>97.035067</ele>
        <time>2021-09-15T08:51:49.000Z</time>
      </trkpt>
      <trkpt lat="44.64" lon="4.77557">
        <ele>97.079044</ele>
        <time>2021-09-15T08:51:56.000Z</time>
      </trkpt>
      <trkpt lat="44.63951" lon="4.77515">
        <ele>97.134527</ele>
        <time>2021-09-15T08:52:05.000Z</time>
      </trkpt>
      <trkpt lat="44.63907" lon="4.77477">
        <ele>97.153986</ele>
        <time>2021-09-15T08:52:13.000Z</time>
      </trkpt>
      <trkpt lat="44.63856" lon="4.77434">
        <ele>97.028353</ele>
        <time>2021-09-15T08:52:22.000Z</time>
      </trkpt>
      <trkpt lat="44.63851" lon="4.77429">
        <ele>97.014288</ele>
        <time>2021-09-15T08:52:23.000Z</time>
      </trkpt>
      <trkpt lat="44.6381" lon="4.77394">
        <ele>96.914029</ele>
        <time>2021-09-15T08:52:30.000Z</time>
      </trkpt>
      <trkpt lat="44.6377" lon="4.77359">
        <ele>96.814285</ele>
        <time>2021-09-15T08:52:37.000Z</time>
      </trkpt>
      <trkpt lat="44.63722" lon="4.77318">
        <ele>96.601613</ele>
        <time>2021-09-15T08:52:45.000Z</time>
      </trkpt>
      <trkpt lat="44.63698" lon="4.77298">
        <ele>96.487087</ele>
        <time>2021-09-15T08:52:49.000Z</time>
      </trkpt>
      <trkpt lat="44.63663" lon="4.77269">
        <ele>96.31715</ele>
        <time>2021-09-15T08:52:55.000Z</time>
      </trkpt>
      <trkpt lat="44.63615" lon="4.77232">
        <ele>96.094735</ele>
        <time>2021-09-15T08:53:03.000Z</time>
      </trkpt>
      <trkpt lat="44.63569" lon="4.77196">
        <ele>95.742284</ele>
        <time>2021-09-15T08:53:11.000Z</time>
      </trkpt>
      <trkpt lat="44.63528" lon="4.77164">
        <ele>95.408863</ele>
        <time>2021-09-15T08:53:18.000Z</time>
      </trkpt>
      <trkpt lat="44.63477" lon="4.77124">
        <ele>94.989624</ele>
        <time>2021-09-15T08:53:27.000Z</time>
      </trkpt>
      <trkpt lat="44.63439" lon="4.77095">
        <ele>94.691342</ele>
        <time>2021-09-15T08:53:34.000Z</time>
      </trkpt>
      <trkpt lat="44.63391" lon="4.77057">
        <ele>94.369273</ele>
        <time>2021-09-15T08:53:43.000Z</time>
      </trkpt>
      <trkpt lat="44.63385" lon="4.77053">
        <ele>94.33309</ele>
        <time>2021-09-15T08:53:44.000Z</time>
      </trkpt>
      <trkpt lat="44.63336" lon="4.77015">
        <ele>94.001103</ele>
        <time>2021-09-15T08:53:53.000Z</time>
      </trkpt>
      <trkpt lat="44.63324" lon="4.77006">
        <ele>93.923422</ele>
        <time>2021-09-15T08:53:55.000Z</time>
      </trkpt>
      <trkpt lat="44.63273" lon="4.76966">
        <ele>93.533208</ele>
        <time>2021-09-15T08:54:04.000Z</time>
      </trkpt>
      <trkpt lat="44.63223" lon="4.76928">
        <ele>93.081895</ele>
        <time>2021-09-15T08:54:12.000Z</time>
      </trkpt>
      <trkpt lat="44.63176" lon="4.76891">
        <ele>92.658894</ele>
        <time>2021-09-15T08:54:19.000Z</time>
      </trkpt>
      <trkpt lat="44.63129" lon="4.76855">
        <ele>92.249298</ele>
        <time>2021-09-15T08:54:26.000Z</time>
      </trkpt>
      <trkpt lat="44.63078" lon="4.76815">
        <ele>91.959267</ele>
        <time>2021-09-15T08:54:34.000Z</time>
      </trkpt>
      <trkpt lat="44.63031" lon="4.76778">
        <ele>91.693299</ele>
        <time>2021-09-15T08:54:42.000Z</time>
      </trkpt>
      <trkpt lat="44.62985" lon="4.76742">
        <ele>91.432589</ele>
        <time>2021-09-15T08:54:51.000Z</time>
      </trkpt>
      <trkpt lat="44.62936" lon="4.76704">
        <ele>91.340083</ele>
        <time>2021-09-15T08:55:01.000Z</time>
      </trkpt>
      <trkpt lat="44.62889" lon="4.76667">
        <ele>91.283857</ele>
        <time>2021-09-15T08:55:10.000Z</time>
      </trkpt>
      <trkpt lat="44.62838" lon="4.76626">
        <ele>91.221734</ele>
        <time>2021-09-15T08:55:20.000Z</time>
      </trkpt>
      <trkpt lat="44.62833" lon="4.76622">
        <ele>91.215874</ele>
        <time>2021-09-15T08:55:21.000Z</time>
      </trkpt>
      <trkpt lat="44.62789" lon="4.76587">
        <ele>91.154294</ele>
        <time>2021-09-15T08:55:30.000Z</time>
      </trkpt>
      <trkpt lat="44.62738" lon="4.76547">
        <ele>91.079444</ele>
        <time>2021-09-15T08:55:40.000Z</time>
      </trkpt>
      <trkpt lat="44.62694" lon="4.76512">
        <ele>91.015069</ele>
        <time>2021-09-15T08:55:48.000Z</time>
      </trkpt>
      <trkpt lat="44.62648" lon="4.76476">
        <ele>90.987235</ele>
        <time>2021-09-15T08:55:56.000Z</time>
      </trkpt>
      <trkpt lat="44.62595" lon="4.76434">
        <ele>91.040828</ele>
        <time>2021-09-15T08:56:05.000Z</time>
      </trkpt>
      <trkpt lat="44.62584" lon="4.76425">
        <ele>91.052672</ele>
        <time>2021-09-15T08:56:07.000Z</time>
      </trkpt>
      <trkpt lat="44.62533" lon="4.76385">
        <ele>91.104867</ele>
        <time>2021-09-15T08:56:16.000Z</time>
      </trkpt>
      <trkpt lat="44.62527" lon="4.76381">
        <ele>91.110478</ele>
        <time>2021-09-15T08:56:17.000Z</time>
      </trkpt>
      <trkpt lat="44.62479" lon="4.76343">
        <ele>91.124835</ele>
        <time>2021-09-15T08:56:26.000Z</time>
      </trkpt>
      <trkpt lat="44.62474" lon="4.76338">
        <ele>91.12361</ele>
        <time>2021-09-15T08:56:27.000Z</time>
      </trkpt>
      <trkpt lat="44.62425" lon="4.763">
        <ele>91.112512</ele>
        <time>2021-09-15T08:56:36.000Z</time>
      </trkpt>
      <trkpt lat="44.6242" lon="4.76295">
        <ele>91.111255</ele>
        <time>2021-09-15T08:56:37.000Z</time>
      </trkpt>
      <trkpt lat="44.6237" lon="4.76256">
        <ele>91.099887</ele>
        <time>2021-09-15T08:56:46.000Z</time>
      </trkpt>
      <trkpt lat="44.62325" lon="4.7622">
        <ele>90.973088</ele>
        <time>2021-09-15T08:56:54.000Z</time>
      </trkpt>
      <trkpt lat="44.62292" lon="4.76193">
        <ele>90.814088</ele>
        <time>2021-09-15T08:57:00.000Z</time>
      </trkpt>
      <trkpt lat="44.62263" lon="4.76171">
        <ele>90.678607</ele>
        <time>2021-09-15T08:57:05.000Z</time>
      </trkpt>
      <trkpt lat="44.62258" lon="4.76166">
        <ele>90.651395</ele>
        <time>2021-09-15T08:57:06.000Z</time>
      </trkpt>
      <trkpt lat="44.62209" lon="4.76128">
        <ele>90.419548</ele>
        <time>2021-09-15T08:57:14.000Z</time>
      </trkpt>
      <trkpt lat="44.62158" lon="4.76087">
        <ele>90.043553</ele>
        <time>2021-09-15T08:57:22.000Z</time>
      </trkpt>
      <trkpt lat="44.62132" lon="4.76067">
        <ele>89.823584</ele>
        <time>2021-09-15T08:57:26.000Z</time>
      </trkpt>
      <trkpt lat="44.62085" lon="4.76032">
        <ele>89.435305</ele>
        <time>2021-09-15T08:57:33.000Z</time>
      </trkpt>
      <trkpt lat="44.6204" lon="4.76">
        <ele>89.065835</ele>
        <time>2021-09-15T08:57:40.000Z</time>
      </trkpt>
      <trkpt lat="44.61997" lon="4.75974">
        <ele>88.842312</ele>
        <time>2021-09-15T08:57:47.000Z</time>
      </trkpt>
      <trkpt lat="44.61949" lon="4.75945">
        <ele>88.610599</ele>
        <time>2021-09-15T08:57:55.000Z</time>
      </trkpt>
      <trkpt lat="44.61898" lon="4.75917">
        <ele>88.365297</ele>
        <time>2021-09-15T08:58:04.000Z</time>
      </trkpt>
      <trkpt lat="44.61849" lon="4.75889">
        <ele>88.15257</ele>
        <time>2021-09-15T08:58:13.000Z</time>
      </trkpt>
      <trkpt lat="44.61804" lon="4.75862">
        <ele>87.981067</ele>
        <time>2021-09-15T08:58:21.000Z</time>
      </trkpt>
      <trkpt lat="44.61751" lon="4.75834">
        <ele>87.785761</ele>
        <time>2021-09-15T08:58:30.000Z</time>
      </trkpt>
      <trkpt lat="44.61705" lon="4.7581">
        <ele>87.61497</ele>
        <time>2021-09-15T08:58:38.000Z</time>
      </trkpt>
      <trkpt lat="44.61658" lon="4.75787">
        <ele>87.404314</ele>
        <time>2021-09-15T08:58:46.000Z</time>
      </trkpt>
      <trkpt lat="44.61602" lon="4.75763">
        <ele>87.156671</ele>
        <time>2021-09-15T08:58:55.000Z</time>
      </trkpt>
      <trkpt lat="44.61589" lon="4.75758">
        <ele>87.100363</ele>
        <time>2021-09-15T08:58:57.000Z</time>
      </trkpt>
      <trkpt lat="44.61545" lon="4.75741">
        <ele>86.907505</ele>
        <time>2021-09-15T08:59:04.000Z</time>
      </trkpt>
      <trkpt lat="44.61489" lon="4.75721">
        <ele>86.585009</ele>
        <time>2021-09-15T08:59:12.000Z</time>
      </trkpt>
      <trkpt lat="44.61437" lon="4.757">
        <ele>86.253051</ele>
        <time>2021-09-15T08:59:19.000Z</time>
      </trkpt>
      <trkpt lat="44.61415" lon="4.75692">
        <ele>86.114991</ele>
        <time>2021-09-15T08:59:22.000Z</time>
      </trkpt>
      <trkpt lat="44.61356" lon="4.75667">
        <ele>85.737768</ele>
        <time>2021-09-15T08:59:30.000Z</time>
      </trkpt>
      <trkpt lat="44.61341" lon="4.75661">
        <ele>85.675138</ele>
        <time>2021-09-15T08:59:32.000Z</time>
      </trkpt>
      <trkpt lat="44.61288" lon="4.75639">
        <ele>85.458616</ele>
        <time>2021-09-15T08:59:39.000Z</time>
      </trkpt>
      <trkpt lat="44.61266" lon="4.7563">
        <ele>85.36977</ele>
        <time>2021-09-15T08:59:42.000Z</time>
      </trkpt>
      <trkpt lat="44.61213" lon="4.75609">
        <ele>85.151976</ele>
        <time>2021-09-15T08:59:50.000Z</time>
      </trkpt>
      <trkpt lat="44.61206" lon="4.75607">
        <ele>85.125364</ele>
        <time>2021-09-15T08:59:51.000Z</time>
      </trkpt>
      <trkpt lat="44.61169" lon="4.75595">
        <ele>84.994151</ele>
        <time>2021-09-15T08:59:57.000Z</time>
      </trkpt>
      <trkpt lat="44.61113" lon="4.75579">
        <ele>84.846467</ele>
        <time>2021-09-15T09:00:06.000Z</time>
      </trkpt>
      <trkpt lat="44.61054" lon="4.75563">
        <ele>84.690905</ele>
        <time>2021-09-15T09:00:15.000Z</time>
      </trkpt>
      <trkpt lat="44.60999" lon="4.75549">
        <ele>84.517842</ele>
        <time>2021-09-15T09:00:23.000Z</time>
      </trkpt>
      <trkpt lat="44.60945" lon="4.75535">
        <ele>84.157427</ele>
        <time>2021-09-15T09:00:31.000Z</time>
      </trkpt>
      <trkpt lat="44.60932" lon="4.75531">
        <ele>84.06785</ele>
        <time>2021-09-15T09:00:33.000Z</time>
      </trkpt>
      <trkpt lat="44.60885" lon="4.75519">
        <ele>83.755668</ele>
        <time>2021-09-15T09:00:40.000Z</time>
      </trkpt>
      <trkpt lat="44.60832" lon="4.75505">
        <ele>83.399947</ele>
        <time>2021-09-15T09:00:48.000Z</time>
      </trkpt>
      <trkpt lat="44.60806" lon="4.75498">
        <ele>83.272173</ele>
        <time>2021-09-15T09:00:52.000Z</time>
      </trkpt>
      <trkpt lat="44.60754" lon="4.75484">
        <ele>83.030533</ele>
        <time>2021-09-15T09:01:00.000Z</time>
      </trkpt>
      <trkpt lat="44.60704" lon="4.75471">
        <ele>82.798208</ele>
        <time>2021-09-15T09:01:08.000Z</time>
      </trkpt>
      <trkpt lat="44.60672" lon="4.75463">
        <ele>82.649384</ele>
        <time>2021-09-15T09:01:14.000Z</time>
      </trkpt>
      <trkpt lat="44.60647" lon="4.75456">
        <ele>82.525405</ele>
        <time>2021-09-15T09:01:19.000Z</time>
      </trkpt>
      <trkpt lat="44.60641" lon="4.75455">
        <ele>82.495975</ele>
        <time>2021-09-15T09:01:20.000Z</time>
      </trkpt>
      <trkpt lat="44.60596" lon="4.75443">
        <ele>82.243332</ele>
        <time>2021-09-15T09:01:28.000Z</time>
      </trkpt>
      <trkpt lat="44.60549" lon="4.75431">
        <ele>81.985183</ele>
        <time>2021-09-15T09:01:36.000Z</time>
      </trkpt>
      <trkpt lat="44.60519" lon="4.75423">
        <ele>81.816933</ele>
        <time>2021-09-15T09:01:41.000Z</time>
      </trkpt>
      <trkpt lat="44.60513" lon="4.75421">
        <ele>81.78246</ele>
        <time>2021-09-15T09:01:42.000Z</time>
      </trkpt>
      <trkpt lat="44.60463" lon="4.75408">
        <ele>81.551533</ele>
        <time>2021-09-15T09:01:50.000Z</time>
      </trkpt>
      <trkpt lat="44.60415" lon="4.75395">
        <ele>81.451165</ele>
        <time>2021-09-15T09:01:58.000Z</time>
      </trkpt>
      <trkpt lat="44.60362" lon="4.75382">
        <ele>81.342094</ele>
        <time>2021-09-15T09:02:07.000Z</time>
      </trkpt>
      <trkpt lat="44.60316" lon="4.7537">
        <ele>81.245648</ele>
        <time>2021-09-15T09:02:15.000Z</time>
      </trkpt>
      <trkpt lat="44.60273" lon="4.75358">
        <ele>81.269196</ele>
        <time>2021-09-15T09:02:23.000Z</time>
      </trkpt>
      <trkpt lat="44.60252" lon="4.75353">
        <ele>81.315167</ele>
        <time>2021-09-15T09:02:27.000Z</time>
      </trkpt>
      <trkpt lat="44.60246" lon="4.75351">
        <ele>81.327499</ele>
        <time>2021-09-15T09:02:28.000Z</time>
      </trkpt>
      <trkpt lat="44.60199" lon="4.75339">
        <ele>81.430922</ele>
        <time>2021-09-15T09:02:36.000Z</time>
      </trkpt>
      <trkpt lat="44.60142" lon="4.75324">
        <ele>81.556558</ele>
        <time>2021-09-15T09:02:45.000Z</time>
      </trkpt>
      <trkpt lat="44.60091" lon="4.75311">
        <ele>81.657558</ele>
        <time>2021-09-15T09:02:53.000Z</time>
      </trkpt>
      <trkpt lat="44.60043" lon="4.75298">
        <ele>81.744454</ele>
        <time>2021-09-15T09:03:01.000Z</time>
      </trkpt>
      <trkpt lat="44.59989" lon="4.75284">
        <ele>81.843121</ele>
        <time>2021-09-15T09:03:10.000Z</time>
      </trkpt>
      <trkpt lat="44.59976" lon="4.75281">
        <ele>81.866028</ele>
        <time>2021-09-15T09:03:12.000Z</time>
      </trkpt>
      <trkpt lat="44.59923" lon="4.75267">
        <ele>81.836843</ele>
        <time>2021-09-15T09:03:20.000Z</time>
      </trkpt>
      <trkpt lat="44.59916" lon="4.75266">
        <ele>81.810966</ele>
        <time>2021-09-15T09:03:21.000Z</time>
      </trkpt>
      <trkpt lat="44.5986" lon="4.75254">
        <ele>81.604595</ele>
        <time>2021-09-15T09:03:29.000Z</time>
      </trkpt>
      <trkpt lat="44.59853" lon="4.75252">
        <ele>81.578357</ele>
        <time>2021-09-15T09:03:30.000Z</time>
      </trkpt>
      <trkpt lat="44.59812" lon="4.75243">
        <ele>81.427831</ele>
        <time>2021-09-15T09:03:36.000Z</time>
      </trkpt>
      <trkpt lat="44.5976" lon="4.75232">
        <ele>81.221232</ele>
        <time>2021-09-15T09:03:44.000Z</time>
      </trkpt>
      <trkpt lat="44.59716" lon="4.75222">
        <ele>80.991007</ele>
        <time>2021-09-15T09:03:51.000Z</time>
      </trkpt>
      <trkpt lat="44.5971" lon="4.75221">
        <ele>80.960429</ele>
        <time>2021-09-15T09:03:52.000Z</time>
      </trkpt>
      <trkpt lat="44.59693" lon="4.75217">
        <ele>80.86875</ele>
        <time>2021-09-15T09:03:55.000Z</time>
      </trkpt>
      <trkpt lat="44.59649" lon="4.75208">
        <ele>80.635896</ele>
        <time>2021-09-15T09:04:03.000Z</time>
      </trkpt>
      <trkpt lat="44.59611" lon="4.75199">
        <ele>80.434649</ele>
        <time>2021-09-15T09:04:10.000Z</time>
      </trkpt>
      <trkpt lat="44.59562" lon="4.75189">
        <ele>80.371635</ele>
        <time>2021-09-15T09:04:19.000Z</time>
      </trkpt>
      <trkpt lat="44.59521" lon="4.7519">
        <ele>80.436154</ele>
        <time>2021-09-15T09:04:27.000Z</time>
      </trkpt>
      <trkpt lat="44.5948" lon="4.75191">
        <ele>80.499127</ele>
        <time>2021-09-15T09:04:35.000Z</time>
      </trkpt>
      <trkpt lat="44.59436" lon="4.75192">
        <ele>80.567843</ele>
        <time>2021-09-15T09:04:44.000Z</time>
      </trkpt>
      <trkpt lat="44.59408" lon="4.75193">
        <ele>80.634157</ele>
        <time>2021-09-15T09:04:50.000Z</time>
      </trkpt>
      <trkpt lat="44.59379" lon="4.75194">
        <ele>80.912218</ele>
        <time>2021-09-15T09:04:57.000Z</time>
      </trkpt>
      <trkpt lat="44.59352" lon="4.75194">
        <ele>81.182449</ele>
        <time>2021-09-15T09:05:06.000Z</time>
      </trkpt>
      <trkpt lat="44.59327" lon="4.75194">
        <ele>81.426325</ele>
        <time>2021-09-15T09:05:14.000Z</time>
      </trkpt>
      <trkpt lat="44.59332" lon="4.75194">
        <ele>81.477165</ele>
        <time>2021-09-15T09:05:50.000Z</time>
      </trkpt>
      <trkpt lat="44.59342" lon="4.75195">
        <ele>81.57775</ele>
        <time>2021-09-15T09:05:55.000Z</time>
      </trkpt>
      <trkpt lat="44.59356" lon="4.75188">
        <ele>81.722473</ele>
        <time>2021-09-15T09:06:01.000Z</time>
      </trkpt>
      <trkpt lat="44.59355" lon="4.7518">
        <ele>81.77926</ele>
        <time>2021-09-15T09:06:05.000Z</time>
      </trkpt>
      <trkpt lat="44.59351" lon="4.7515">
        <ele>81.99561</ele>
        <time>2021-09-15T09:06:11.000Z</time>
      </trkpt>
      <trkpt lat="44.59347" lon="4.75127">
        <ele>82.156534</ele>
        <time>2021-09-15T09:06:17.000Z</time>
      </trkpt>
      <trkpt lat="44.59344" lon="4.75106">
        <ele>82.306982</ele>
        <time>2021-09-15T09:06:21.000Z</time>
      </trkpt>
      <trkpt lat="44.59343" lon="4.7509">
        <ele>82.3471</ele>
        <time>2021-09-15T09:06:23.000Z</time>
      </trkpt>
      <trkpt lat="44.59341" lon="4.75074">
        <ele>82.319225</ele>
        <time>2021-09-15T09:06:25.000Z</time>
      </trkpt>
      <trkpt lat="44.59339" lon="4.7505">
        <ele>82.278266</ele>
        <time>2021-09-15T09:06:29.000Z</time>
      </trkpt>
      <trkpt lat="44.59337" lon="4.75034">
        <ele>82.25039</ele>
        <time>2021-09-15T09:06:32.000Z</time>
      </trkpt>
      <trkpt lat="44.59337" lon="4.75028">
        <ele>82.239937</ele>
        <time>2021-09-15T09:06:33.000Z</time>
      </trkpt>
      <trkpt lat="44.59336" lon="4.75022">
        <ele>82.228595</ele>
        <time>2021-09-15T09:06:34.000Z</time>
      </trkpt>
      <trkpt lat="44.59331" lon="4.74992">
        <ele>82.176388</ele>
        <time>2021-09-15T09:06:38.000Z</time>
      </trkpt>
      <trkpt lat="44.59318" lon="4.74941">
        <ele>82.082604</ele>
        <time>2021-09-15T09:06:44.000Z</time>
      </trkpt>
      <trkpt lat="44.59295" lon="4.74872">
        <ele>81.951626</ele>
        <time>2021-09-15T09:06:52.000Z</time>
      </trkpt>
      <trkpt lat="44.59271" lon="4.74798">
        <ele>81.741649</ele>
        <time>2021-09-15T09:07:00.000Z</time>
      </trkpt>
      <trkpt lat="44.59249" lon="4.74733">
        <ele>81.546282</ele>
        <time>2021-09-15T09:07:07.000Z</time>
      </trkpt>
      <trkpt lat="44.59239" lon="4.74718">
        <ele>81.488556</ele>
        <time>2021-09-15T09:07:09.000Z</time>
      </trkpt>
      <trkpt lat="44.59223" lon="4.74699">
        <ele>81.408275</ele>
        <time>2021-09-15T09:07:12.000Z</time>
      </trkpt>
      <trkpt lat="44.59192" lon="4.74659">
        <ele>81.244529</ele>
        <time>2021-09-15T09:07:18.000Z</time>
      </trkpt>
      <trkpt lat="44.59148" lon="4.74604">
        <ele>80.708174</ele>
        <time>2021-09-15T09:07:26.000Z</time>
      </trkpt>
      <trkpt lat="44.5911" lon="4.74541">
        <ele>80.157117</ele>
        <time>2021-09-15T09:07:34.000Z</time>
      </trkpt>
      <trkpt lat="44.59105" lon="4.74533">
        <ele>80.088643</ele>
        <time>2021-09-15T09:07:35.000Z</time>
      </trkpt>
      <trkpt lat="44.59067" lon="4.74469">
        <ele>79.527235</ele>
        <time>2021-09-15T09:07:43.000Z</time>
      </trkpt>
      <trkpt lat="44.59057" lon="4.74453">
        <ele>79.39957</ele>
        <time>2021-09-15T09:07:45.000Z</time>
      </trkpt>
      <trkpt lat="44.59026" lon="4.74401">
        <ele>78.971897</ele>
        <time>2021-09-15T09:07:52.000Z</time>
      </trkpt>
      <trkpt lat="44.58992" lon="4.74345">
        <ele>78.520371</ele>
        <time>2021-09-15T09:07:59.000Z</time>
      </trkpt>
      <trkpt lat="44.58955" lon="4.74282">
        <ele>78.01161</ele>
        <time>2021-09-15T09:08:07.000Z</time>
      </trkpt>
      <trkpt lat="44.58918" lon="4.7422">
        <ele>77.622263</ele>
        <time>2021-09-15T09:08:15.000Z</time>
      </trkpt>
      <trkpt lat="44.58884" lon="4.74167">
        <ele>77.283286</ele>
        <time>2021-09-15T09:08:22.000Z</time>
      </trkpt>
      <trkpt lat="44.58845" lon="4.7413">
        <ele>76.972107</ele>
        <time>2021-09-15T09:08:29.000Z</time>
      </trkpt>
      <trkpt lat="44.58807" lon="4.7409">
        <ele>76.76787</ele>
        <time>2021-09-15T09:08:36.000Z</time>
      </trkpt>
      <trkpt lat="44.58761" lon="4.74042">
        <ele>76.719947</ele>
        <time>2021-09-15T09:08:45.000Z</time>
      </trkpt>
      <trkpt lat="44.58737" lon="4.74008">
        <ele>76.691547</ele>
        <time>2021-09-15T09:08:50.000Z</time>
      </trkpt>
      <trkpt lat="44.58711" lon="4.73964">
        <ele>76.657455</ele>
        <time>2021-09-15T09:08:56.000Z</time>
      </trkpt>
      <trkpt lat="44.58691" lon="4.7392">
        <ele>76.6511</ele>
        <time>2021-09-15T09:09:02.000Z</time>
      </trkpt>
      <trkpt lat="44.58677" lon="4.73883">
        <ele>76.718802</ele>
        <time>2021-09-15T09:09:07.000Z</time>
      </trkpt>
      <trkpt lat="44.58656" lon="4.73829">
        <ele>76.816177</ele>
        <time>2021-09-15T09:09:14.000Z</time>
      </trkpt>
      <trkpt lat="44.5865" lon="4.73813">
        <ele>76.84557</ele>
        <time>2021-09-15T09:09:16.000Z</time>
      </trkpt>
      <trkpt lat="44.58641" lon="4.73789">
        <ele>76.888166</ele>
        <time>2021-09-15T09:09:19.000Z</time>
      </trkpt>
      <trkpt lat="44.5862" lon="4.73735">
        <ele>76.986981</ele>
        <time>2021-09-15T09:09:26.000Z</time>
      </trkpt>
      <trkpt lat="44.58593" lon="4.73662">
        <ele>77.226474</ele>
        <time>2021-09-15T09:09:35.000Z</time>
      </trkpt>
      <trkpt lat="44.5859" lon="4.73654">
        <ele>77.260523</ele>
        <time>2021-09-15T09:09:36.000Z</time>
      </trkpt>
      <trkpt lat="44.58568" lon="4.73595">
        <ele>77.50926</ele>
        <time>2021-09-15T09:09:43.000Z</time>
      </trkpt>
      <trkpt lat="44.5855" lon="4.73544">
        <ele>77.720151</ele>
        <time>2021-09-15T09:09:49.000Z</time>
      </trkpt>
      <trkpt lat="44.58533" lon="4.73483">
        <ele>77.966692</ele>
        <time>2021-09-15T09:09:56.000Z</time>
      </trkpt>
      <trkpt lat="44.5852" lon="4.73422">
        <ele>78.222089</ele>
        <time>2021-09-15T09:10:03.000Z</time>
      </trkpt>
      <trkpt lat="44.58512" lon="4.73376">
        <ele>78.409914</ele>
        <time>2021-09-15T09:10:08.000Z</time>
      </trkpt>
      <trkpt lat="44.58502" lon="4.7332">
        <ele>78.642449</ele>
        <time>2021-09-15T09:10:14.000Z</time>
      </trkpt>
      <trkpt lat="44.58488" lon="4.73271">
        <ele>78.855587</ele>
        <time>2021-09-15T09:10:20.000Z</time>
      </trkpt>
      <trkpt lat="44.58466" lon="4.73198">
        <ele>79.005473</ele>
        <time>2021-09-15T09:10:29.000Z</time>
      </trkpt>
      <trkpt lat="44.58452" lon="4.73151">
        <ele>79.020444</ele>
        <time>2021-09-15T09:10:35.000Z</time>
      </trkpt>
      <trkpt lat="44.58438" lon="4.73101">
        <ele>79.036061</ele>
        <time>2021-09-15T09:10:41.000Z</time>
      </trkpt>
      <trkpt lat="44.58418" lon="4.73035">
        <ele>79.056941</ele>
        <time>2021-09-15T09:10:49.000Z</time>
      </trkpt>
      <trkpt lat="44.58406" lon="4.72975">
        <ele>78.963979</ele>
        <time>2021-09-15T09:10:56.000Z</time>
      </trkpt>
      <trkpt lat="44.58404" lon="4.72967">
        <ele>78.934541</ele>
        <time>2021-09-15T09:10:57.000Z</time>
      </trkpt>
      <trkpt lat="44.58384" lon="4.72894">
        <ele>78.674444</ele>
        <time>2021-09-15T09:11:06.000Z</time>
      </trkpt>
      <trkpt lat="44.58382" lon="4.72886">
        <ele>78.646103</ele>
        <time>2021-09-15T09:11:07.000Z</time>
      </trkpt>
      <trkpt lat="44.58364" lon="4.72818">
        <ele>78.406204</ele>
        <time>2021-09-15T09:11:16.000Z</time>
      </trkpt>
      <trkpt lat="44.58358" lon="4.72796">
        <ele>78.328848</ele>
        <time>2021-09-15T09:11:20.000Z</time>
      </trkpt>
      <trkpt lat="44.58355" lon="4.72785">
        <ele>78.287041</ele>
        <time>2021-09-15T09:11:22.000Z</time>
      </trkpt>
      <trkpt lat="44.58349" lon="4.72774">
        <ele>78.239682</ele>
        <time>2021-09-15T09:11:24.000Z</time>
      </trkpt>
      <trkpt lat="44.58339" lon="4.72767">
        <ele>78.158247</ele>
        <time>2021-09-15T09:11:26.000Z</time>
      </trkpt>
      <trkpt lat="44.58314" lon="4.72758">
        <ele>77.91861</ele>
        <time>2021-09-15T09:11:31.000Z</time>
      </trkpt>
      <trkpt lat="44.58289" lon="4.72749">
        <ele>77.686433</ele>
        <time>2021-09-15T09:11:37.000Z</time>
      </trkpt>
      <trkpt lat="44.58278" lon="4.72745">
        <ele>77.583598</ele>
        <time>2021-09-15T09:11:40.000Z</time>
      </trkpt>
      <trkpt lat="44.58276" lon="4.72744">
        <ele>77.559325</ele>
        <time>2021-09-15T09:11:41.000Z</time>
      </trkpt>
      <trkpt lat="44.58271" lon="4.72742">
        <ele>77.520198</ele>
        <time>2021-09-15T09:11:43.000Z</time>
      </trkpt>
      <trkpt lat="44.58267" lon="4.72743">
        <ele>77.482107</ele>
        <time>2021-09-15T09:11:45.000Z</time>
      </trkpt>
      <trkpt lat="44.58264" lon="4.72744">
        <ele>77.449171</ele>
        <time>2021-09-15T09:11:48.000Z</time>
      </trkpt>
      <trkpt lat="44.58263" lon="4.72745">
        <ele>77.438474</ele>
        <time>2021-09-15T09:11:49.000Z</time>
      </trkpt>
      <trkpt lat="44.58256" lon="4.72748">
        <ele>77.375373</ele>
        <time>2021-09-15T09:11:52.000Z</time>
      </trkpt>
      <trkpt lat="44.58241" lon="4.72739">
        <ele>77.2202</ele>
        <time>2021-09-15T09:11:56.000Z</time>
      </trkpt>
      <trkpt lat="44.58237" lon="4.72737">
        <ele>77.181925</ele>
        <time>2021-09-15T09:11:57.000Z</time>
      </trkpt>
      <trkpt lat="44.58223" lon="4.72729">
        <ele>77.046104</ele>
        <time>2021-09-15T09:12:00.000Z</time>
      </trkpt>
      <trkpt lat="44.58218" lon="4.72726">
        <ele>77.002046</ele>
        <time>2021-09-15T09:12:01.000Z</time>
      </trkpt>
      <trkpt lat="44.58187" lon="4.72706">
        <ele>76.694187</ele>
        <time>2021-09-15T09:12:08.000Z</time>
      </trkpt>
      <trkpt lat="44.58159" lon="4.72682">
        <ele>76.531227</ele>
        <time>2021-09-15T09:12:14.000Z</time>
      </trkpt>
      <trkpt lat="44.58137" lon="4.72647">
        <ele>76.434303</ele>
        <time>2021-09-15T09:12:20.000Z</time>
      </trkpt>
      <trkpt lat="44.58117" lon="4.72619">
        <ele>76.351736</ele>
        <time>2021-09-15T09:12:25.000Z</time>
      </trkpt>
      <trkpt lat="44.58115" lon="4.72612">
        <ele>76.334339</ele>
        <time>2021-09-15T09:12:26.000Z</time>
      </trkpt>
      <trkpt lat="44.58114" lon="4.72604">
        <ele>76.317422</ele>
        <time>2021-09-15T09:12:27.000Z</time>
      </trkpt>
      <trkpt lat="44.58114" lon="4.72587">
        <ele>76.28191</ele>
        <time>2021-09-15T09:12:29.000Z</time>
      </trkpt>
      <trkpt lat="44.58116" lon="4.72536">
        <ele>76.176478</ele>
        <time>2021-09-15T09:12:35.000Z</time>
      </trkpt>
      <trkpt lat="44.58115" lon="4.72528">
        <ele>76.15936</ele>
        <time>2021-09-15T09:12:36.000Z</time>
      </trkpt>
      <trkpt lat="44.58114" lon="4.7246">
        <ele>75.99211</ele>
        <time>2021-09-15T09:12:44.000Z</time>
      </trkpt>
      <trkpt lat="44.58113" lon="4.72418">
        <ele>75.863909</ele>
        <time>2021-09-15T09:12:50.000Z</time>
      </trkpt>
      <trkpt lat="44.58111" lon="4.72358">
        <ele>75.677615</ele>
        <time>2021-09-15T09:12:58.000Z</time>
      </trkpt>
      <trkpt lat="44.58111" lon="4.72351">
        <ele>75.656914</ele>
        <time>2021-09-15T09:12:59.000Z</time>
      </trkpt>
      <trkpt lat="44.5811" lon="4.72335">
        <ele>75.605213</ele>
        <time>2021-09-15T09:13:01.000Z</time>
      </trkpt>
      <trkpt lat="44.58106" lon="4.72333">
        <ele>75.586572</ele>
        <time>2021-09-15T09:13:02.000Z</time>
      </trkpt>
      <trkpt lat="44.58101" lon="4.72332">
        <ele>75.564836</ele>
        <time>2021-09-15T09:13:03.000Z</time>
      </trkpt>
      <trkpt lat="44.58091" lon="4.72329">
        <ele>75.51996</ele>
        <time>2021-09-15T09:13:05.000Z</time>
      </trkpt>
      <trkpt lat="44.58075" lon="4.72324">
        <ele>75.44807</ele>
        <time>2021-09-15T09:13:08.000Z</time>
      </trkpt>
      <trkpt lat="44.58064" lon="4.7232">
        <ele>75.399608</ele>
        <time>2021-09-15T09:13:10.000Z</time>
      </trkpt>
      <trkpt lat="44.58058" lon="4.72319">
        <ele>75.376112</ele>
        <time>2021-09-15T09:13:11.000Z</time>
      </trkpt>
      <trkpt lat="44.58026" lon="4.72309">
        <ele>75.262855</ele>
        <time>2021-09-15T09:13:17.000Z</time>
      </trkpt>
      <trkpt lat="44.57987" lon="4.72296">
        <ele>75.180865</ele>
        <time>2021-09-15T09:13:24.000Z</time>
      </trkpt>
      <trkpt lat="44.57954" lon="4.72286">
        <ele>75.112329</ele>
        <time>2021-09-15T09:13:30.000Z</time>
      </trkpt>
      <trkpt lat="44.57949" lon="4.72283">
        <ele>75.100806</ele>
        <time>2021-09-15T09:13:31.000Z</time>
      </trkpt>
      <trkpt lat="44.57936" lon="4.72272">
        <ele>75.070061</ele>
        <time>2021-09-15T09:13:34.000Z</time>
      </trkpt>
      <trkpt lat="44.5791" lon="4.72251">
        <ele>75.008068</ele>
        <time>2021-09-15T09:13:40.000Z</time>
      </trkpt>
      <trkpt lat="44.57897" lon="4.72241">
        <ele>74.976597</ele>
        <time>2021-09-15T09:13:43.000Z</time>
      </trkpt>
      <trkpt lat="44.57882" lon="4.72232">
        <ele>74.943698</ele>
        <time>2021-09-15T09:13:46.000Z</time>
      </trkpt>
      <trkpt lat="44.57867" lon="4.72224">
        <ele>74.923592</ele>
        <time>2021-09-15T09:13:49.000Z</time>
      </trkpt>
      <trkpt lat="44.57853" lon="4.72218">
        <ele>74.93244</ele>
        <time>2021-09-15T09:13:52.000Z</time>
      </trkpt>
      <trkpt lat="44.57811" lon="4.72198">
        <ele>74.957554</ele>
        <time>2021-09-15T09:14:00.000Z</time>
      </trkpt>
      <trkpt lat="44.57768" lon="4.72176">
        <ele>74.983767</ele>
        <time>2021-09-15T09:14:08.000Z</time>
      </trkpt>
      <trkpt lat="44.57736" lon="4.72157">
        <ele>75.004164</ele>
        <time>2021-09-15T09:14:14.000Z</time>
      </trkpt>
      <trkpt lat="44.57724" lon="4.72149">
        <ele>75.011749</ele>
        <time>2021-09-15T09:14:16.000Z</time>
      </trkpt>
      <trkpt lat="44.57708" lon="4.72138">
        <ele>75.02203</ele>
        <time>2021-09-15T09:14:19.000Z</time>
      </trkpt>
      <trkpt lat="44.57675" lon="4.72115">
        <ele>75.535484</ele>
        <time>2021-09-15T09:14:25.000Z</time>
      </trkpt>
      <trkpt lat="44.5765" lon="4.72101">
        <ele>75.961925</ele>
        <time>2021-09-15T09:14:30.000Z</time>
      </trkpt>
      <trkpt lat="44.57627" lon="4.72089">
        <ele>76.36146</ele>
        <time>2021-09-15T09:14:36.000Z</time>
      </trkpt>
      <trkpt lat="44.5761" lon="4.7208">
        <ele>76.645856</ele>
        <time>2021-09-15T09:14:41.000Z</time>
      </trkpt>
      <trkpt lat="44.57595" lon="4.7206">
        <ele>76.97913</ele>
        <time>2021-09-15T09:14:47.000Z</time>
      </trkpt>
      <trkpt lat="44.57585" lon="4.72036">
        <ele>77.294988</ele>
        <time>2021-09-15T09:14:52.000Z</time>
      </trkpt>
      <trkpt lat="44.57589" lon="4.72016">
        <ele>77.531298</ele>
        <time>2021-09-15T09:14:57.000Z</time>
      </trkpt>
      <trkpt lat="44.57596" lon="4.7199">
        <ele>77.84975</ele>
        <time>2021-09-15T09:15:04.000Z</time>
      </trkpt>
      <trkpt lat="44.576" lon="4.71972">
        <ele>78.202593</ele>
        <time>2021-09-15T09:15:09.000Z</time>
      </trkpt>
      <trkpt lat="44.57607" lon="4.71935">
        <ele>78.980696</ele>
        <time>2021-09-15T09:15:17.000Z</time>
      </trkpt>
      <trkpt lat="44.57611" lon="4.71903">
        <ele>79.644768</ele>
        <time>2021-09-15T09:15:24.000Z</time>
      </trkpt>
      <trkpt lat="44.57615" lon="4.71858">
        <ele>80.579074</ele>
        <time>2021-09-15T09:15:34.000Z</time>
      </trkpt>
      <trkpt lat="44.57617" lon="4.71825">
        <ele>81.244826</ele>
        <time>2021-09-15T09:15:41.000Z</time>
      </trkpt>
      <trkpt lat="44.57619" lon="4.71786">
        <ele>82.051862</ele>
        <time>2021-09-15T09:15:49.000Z</time>
      </trkpt>
      <trkpt lat="44.57621" lon="4.71755">
        <ele>82.680769</ele>
        <time>2021-09-15T09:15:55.000Z</time>
      </trkpt>
      <trkpt lat="44.57623" lon="4.71716">
        <ele>83.030231</ele>
        <time>2021-09-15T09:16:01.000Z</time>
      </trkpt>
      <trkpt lat="44.57626" lon="4.71667">
        <ele>83.014158</ele>
        <time>2021-09-15T09:16:07.000Z</time>
      </trkpt>
      <trkpt lat="44.57631" lon="4.71598">
        <ele>82.991611</ele>
        <time>2021-09-15T09:16:14.000Z</time>
      </trkpt>
      <trkpt lat="44.57641" lon="4.71547">
        <ele>82.974176</ele>
        <time>2021-09-15T09:16:19.000Z</time>
      </trkpt>
      <trkpt lat="44.57652" lon="4.71509">
        <ele>82.960553</ele>
        <time>2021-09-15T09:16:23.000Z</time>
      </trkpt>
      <trkpt lat="44.57655" lon="4.71501">
        <ele>82.957849</ele>
        <time>2021-09-15T09:16:24.000Z</time>
      </trkpt>
      <trkpt lat="44.57654" lon="4.71488">
        <ele>82.932843</ele>
        <time>2021-09-15T09:16:25.000Z</time>
      </trkpt>
      <trkpt lat="44.57646" lon="4.7148">
        <ele>82.849126</ele>
        <time>2021-09-15T09:16:27.000Z</time>
      </trkpt>
      <trkpt lat="44.57636" lon="4.71479">
        <ele>82.764731</ele>
        <time>2021-09-15T09:16:29.000Z</time>
      </trkpt>
      <trkpt lat="44.57625" lon="4.71478">
        <ele>82.670218</ele>
        <time>2021-09-15T09:16:32.000Z</time>
      </trkpt>
      <trkpt lat="44.57624" lon="4.71482">
        <ele>82.643385</ele>
        <time>2021-09-15T09:16:34.000Z</time>
      </trkpt>
      <trkpt lat="44.57623" lon="4.71486">
        <ele>82.616735</ele>
        <time>2021-09-15T09:16:35.000Z</time>
      </trkpt>
      <trkpt lat="44.57619" lon="4.71509">
        <ele>82.476714</ele>
        <time>2021-09-15T09:16:40.000Z</time>
      </trkpt>
      <trkpt lat="44.57618" lon="4.71518">
        <ele>82.419947</ele>
        <time>2021-09-15T09:16:44.000Z</time>
      </trkpt>
      <trkpt lat="44.57618" lon="4.71522">
        <ele>82.399999</ele>
        <time>2021-09-15T09:16:46.000Z</time>
      </trkpt>
      <trkpt lat="44.57617" lon="4.71527">
        <ele>82.364966</ele>
        <time>2021-09-15T09:16:48.000Z</time>
      </trkpt>
      <trkpt lat="44.57615" lon="4.71553">
        <ele>82.209155</ele>
        <time>2021-09-15T09:16:53.000Z</time>
      </trkpt>
      <trkpt lat="44.57612" lon="4.71587">
        <ele>82.006898</ele>
        <time>2021-09-15T09:16:59.000Z</time>
      </trkpt>
      <trkpt lat="44.5761" lon="4.71618">
        <ele>81.820321</ele>
        <time>2021-09-15T09:17:05.000Z</time>
      </trkpt>
      <trkpt lat="44.57607" lon="4.71651">
        <ele>81.619255</ele>
        <time>2021-09-15T09:17:11.000Z</time>
      </trkpt>
      <trkpt lat="44.57604" lon="4.71659">
        <ele>81.566879</ele>
        <time>2021-09-15T09:17:12.000Z</time>
      </trkpt>
      <trkpt lat="44.57596" lon="4.71658">
        <ele>81.501783</ele>
        <time>2021-09-15T09:17:14.000Z</time>
      </trkpt>
      <trkpt lat="44.57567" lon="4.71654">
        <ele>81.358362</ele>
        <time>2021-09-15T09:17:20.000Z</time>
      </trkpt>
      <trkpt lat="44.57531" lon="4.71649">
        <ele>81.221845</ele>
        <time>2021-09-15T09:17:27.000Z</time>
      </trkpt>
      <trkpt lat="44.57498" lon="4.71645">
        <ele>81.097384</ele>
        <time>2021-09-15T09:17:33.000Z</time>
      </trkpt>
      <trkpt lat="44.57471" lon="4.71641">
        <ele>80.994699</ele>
        <time>2021-09-15T09:17:38.000Z</time>
      </trkpt>
      <trkpt lat="44.57465" lon="4.71641">
        <ele>80.974763</ele>
        <time>2021-09-15T09:17:39.000Z</time>
      </trkpt>
      <trkpt lat="44.57425" lon="4.71636">
        <ele>80.821716</ele>
        <time>2021-09-15T09:17:46.000Z</time>
      </trkpt>
      <trkpt lat="44.57389" lon="4.71631">
        <ele>80.741811</ele>
        <time>2021-09-15T09:17:52.000Z</time>
      </trkpt>
      <trkpt lat="44.57342" lon="4.71625">
        <ele>80.686429</ele>
        <time>2021-09-15T09:18:00.000Z</time>
      </trkpt>
      <trkpt lat="44.57298" lon="4.71619">
        <ele>80.634605</ele>
        <time>2021-09-15T09:18:08.000Z</time>
      </trkpt>
      <trkpt lat="44.5725" lon="4.71613">
        <ele>80.577318</ele>
        <time>2021-09-15T09:18:17.000Z</time>
      </trkpt>
      <trkpt lat="44.57214" lon="4.71608">
        <ele>80.542221</ele>
        <time>2021-09-15T09:18:24.000Z</time>
      </trkpt>
      <trkpt lat="44.57167" lon="4.71602">
        <ele>80.508704</ele>
        <time>2021-09-15T09:18:32.000Z</time>
      </trkpt>
      <trkpt lat="44.57128" lon="4.71596">
        <ele>80.480169</ele>
        <time>2021-09-15T09:18:39.000Z</time>
      </trkpt>
      <trkpt lat="44.57094" lon="4.71592">
        <ele>80.45575</ele>
        <time>2021-09-15T09:18:45.000Z</time>
      </trkpt>
      <trkpt lat="44.57057" lon="4.71587">
        <ele>80.429096</ele>
        <time>2021-09-15T09:18:52.000Z</time>
      </trkpt>
      <trkpt lat="44.57019" lon="4.71582">
        <ele>80.36573</ele>
        <time>2021-09-15T09:18:59.000Z</time>
      </trkpt>
      <trkpt lat="44.56983" lon="4.71577">
        <ele>80.299089</ele>
        <time>2021-09-15T09:19:06.000Z</time>
      </trkpt>
      <trkpt lat="44.56944" lon="4.71573">
        <ele>80.228358</ele>
        <time>2021-09-15T09:19:14.000Z</time>
      </trkpt>
      <trkpt lat="44.56922" lon="4.71571">
        <ele>80.187446</ele>
        <time>2021-09-15T09:19:19.000Z</time>
      </trkpt>
      <trkpt lat="44.56913" lon="4.7157">
        <ele>80.172108</ele>
        <time>2021-09-15T09:19:21.000Z</time>
      </trkpt>
      <trkpt lat="44.56884" lon="4.71566">
        <ele>80.118086</ele>
        <time>2021-09-15T09:19:28.000Z</time>
      </trkpt>
      <trkpt lat="44.56852" lon="4.71562">
        <ele>80.084933</ele>
        <time>2021-09-15T09:19:35.000Z</time>
      </trkpt>
      <trkpt lat="44.56812" lon="4.71556">
        <ele>80.060979</ele>
        <time>2021-09-15T09:19:43.000Z</time>
      </trkpt>
      <trkpt lat="44.56776" lon="4.71551">
        <ele>80.039652</ele>
        <time>2021-09-15T09:19:50.000Z</time>
      </trkpt>
      <trkpt lat="44.56737" lon="4.71545">
        <ele>80.016234</ele>
        <time>2021-09-15T09:19:58.000Z</time>
      </trkpt>
      <trkpt lat="44.567" lon="4.7154">
        <ele>79.99413</ele>
        <time>2021-09-15T09:20:06.000Z</time>
      </trkpt>
      <trkpt lat="44.56673" lon="4.71536">
        <ele>80.003603</ele>
        <time>2021-09-15T09:20:12.000Z</time>
      </trkpt>
      <trkpt lat="44.56664" lon="4.71535">
        <ele>80.008918</ele>
        <time>2021-09-15T09:20:14.000Z</time>
      </trkpt>
      <trkpt lat="44.56638" lon="4.71531">
        <ele>80.025675</ele>
        <time>2021-09-15T09:20:20.000Z</time>
      </trkpt>
      <trkpt lat="44.566" lon="4.71527">
        <ele>80.048842</ele>
        <time>2021-09-15T09:20:28.000Z</time>
      </trkpt>
      <trkpt lat="44.56569" lon="4.71523">
        <ele>80.068449</ele>
        <time>2021-09-15T09:20:35.000Z</time>
      </trkpt>
      <trkpt lat="44.56533" lon="4.71518">
        <ele>80.09074</ele>
        <time>2021-09-15T09:20:43.000Z</time>
      </trkpt>
      <trkpt lat="44.565" lon="4.71514">
        <ele>80.110308</ele>
        <time>2021-09-15T09:20:50.000Z</time>
      </trkpt>
      <trkpt lat="44.56466" lon="4.7151">
        <ele>80.128925</ele>
        <time>2021-09-15T09:20:57.000Z</time>
      </trkpt>
      <trkpt lat="44.56444" lon="4.71508">
        <ele>80.141137</ele>
        <time>2021-09-15T09:21:02.000Z</time>
      </trkpt>
      <trkpt lat="44.56435" lon="4.71506">
        <ele>80.14612</ele>
        <time>2021-09-15T09:21:04.000Z</time>
      </trkpt>
      <trkpt lat="44.56392" lon="4.71501">
        <ele>80.169448</ele>
        <time>2021-09-15T09:21:12.000Z</time>
      </trkpt>
      <trkpt lat="44.56346" lon="4.71496">
        <ele>80.194584</ele>
        <time>2021-09-15T09:21:20.000Z</time>
      </trkpt>
      <trkpt lat="44.56299" lon="4.7149">
        <ele>80.260768</ele>
        <time>2021-09-15T09:21:28.000Z</time>
      </trkpt>
      <trkpt lat="44.56253" lon="4.71484">
        <ele>80.336134</ele>
        <time>2021-09-15T09:21:36.000Z</time>
      </trkpt>
      <trkpt lat="44.56201" lon="4.71478">
        <ele>80.422046</ele>
        <time>2021-09-15T09:21:45.000Z</time>
      </trkpt>
      <trkpt lat="44.56142" lon="4.71471">
        <ele>80.498981</ele>
        <time>2021-09-15T09:21:55.000Z</time>
      </trkpt>
      <trkpt lat="44.56089" lon="4.71464">
        <ele>80.512389</ele>
        <time>2021-09-15T09:22:04.000Z</time>
      </trkpt>
      <trkpt lat="44.56042" lon="4.71459">
        <ele>80.524137</ele>
        <time>2021-09-15T09:22:12.000Z</time>
      </trkpt>
      <trkpt lat="44.55984" lon="4.71452">
        <ele>80.538803</ele>
        <time>2021-09-15T09:22:22.000Z</time>
      </trkpt>
      <trkpt lat="44.55926" lon="4.71445">
        <ele>80.538751</ele>
        <time>2021-09-15T09:22:32.000Z</time>
      </trkpt>
      <trkpt lat="44.55874" lon="4.71438">
        <ele>80.53692</ele>
        <time>2021-09-15T09:22:41.000Z</time>
      </trkpt>
      <trkpt lat="44.55832" lon="4.71439">
        <ele>80.535455</ele>
        <time>2021-09-15T09:22:48.000Z</time>
      </trkpt>
      <trkpt lat="44.55772" lon="4.71439">
        <ele>80.551482</ele>
        <time>2021-09-15T09:22:58.000Z</time>
      </trkpt>
      <trkpt lat="44.55717" lon="4.7144">
        <ele>80.588676</ele>
        <time>2021-09-15T09:23:07.000Z</time>
      </trkpt>
      <trkpt lat="44.55669" lon="4.71443">
        <ele>80.621165</ele>
        <time>2021-09-15T09:23:15.000Z</time>
      </trkpt>
      <trkpt lat="44.55615" lon="4.7145">
        <ele>80.657978</ele>
        <time>2021-09-15T09:23:24.000Z</time>
      </trkpt>
      <trkpt lat="44.55603" lon="4.71451">
        <ele>80.665462</ele>
        <time>2021-09-15T09:23:26.000Z</time>
      </trkpt>
      <trkpt lat="44.55554" lon="4.71457">
        <ele>80.695399</ele>
        <time>2021-09-15T09:23:34.000Z</time>
      </trkpt>
      <trkpt lat="44.55514" lon="4.71464">
        <ele>80.720633</ele>
        <time>2021-09-15T09:23:41.000Z</time>
      </trkpt>
      <trkpt lat="44.5548" lon="4.71469">
        <ele>80.741518</ele>
        <time>2021-09-15T09:23:47.000Z</time>
      </trkpt>
      <trkpt lat="44.55474" lon="4.71468">
        <ele>80.74504</ele>
        <time>2021-09-15T09:23:48.000Z</time>
      </trkpt>
      <trkpt lat="44.55469" lon="4.71467">
        <ele>80.748139</ele>
        <time>2021-09-15T09:23:49.000Z</time>
      </trkpt>
      <trkpt lat="44.55465" lon="4.71463">
        <ele>80.751367</ele>
        <time>2021-09-15T09:23:50.000Z</time>
      </trkpt>
      <trkpt lat="44.55462" lon="4.71456">
        <ele>80.754892</ele>
        <time>2021-09-15T09:23:51.000Z</time>
      </trkpt>
      <trkpt lat="44.55461" lon="4.71437">
        <ele>80.762907</ele>
        <time>2021-09-15T09:23:53.000Z</time>
      </trkpt>
      <trkpt lat="44.55455" lon="4.71388">
        <ele>80.394177</ele>
        <time>2021-09-15T09:23:58.000Z</time>
      </trkpt>
      <trkpt lat="44.5545" lon="4.71368">
        <ele>80.19986</ele>
        <time>2021-09-15T09:24:00.000Z</time>
      </trkpt>
      <trkpt lat="44.55447" lon="4.71357">
        <ele>80.096481</ele>
        <time>2021-09-15T09:24:01.000Z</time>
      </trkpt>
      <trkpt lat="44.55434" lon="4.71313">
        <ele>79.66055</ele>
        <time>2021-09-15T09:24:05.000Z</time>
      </trkpt>
      <trkpt lat="44.55431" lon="4.71303">
        <ele>79.557848</ele>
        <time>2021-09-15T09:24:06.000Z</time>
      </trkpt>
      <trkpt lat="44.55425" lon="4.71294">
        <ele>79.440228</ele>
        <time>2021-09-15T09:24:07.000Z</time>
      </trkpt>
      <trkpt lat="44.55416" lon="4.71288">
        <ele>79.322037</ele>
        <time>2021-09-15T09:24:08.000Z</time>
      </trkpt>
      <trkpt lat="44.55409" lon="4.7129">
        <ele>79.225952</ele>
        <time>2021-09-15T09:24:09.000Z</time>
      </trkpt>
      <trkpt lat="44.55405" lon="4.71292">
        <ele>79.170249</ele>
        <time>2021-09-15T09:24:10.000Z</time>
      </trkpt>
      <trkpt lat="44.55405" lon="4.713">
        <ele>79.099649</ele>
        <time>2021-09-15T09:24:11.000Z</time>
      </trkpt>
      <trkpt lat="44.55408" lon="4.71308">
        <ele>79.012908</ele>
        <time>2021-09-15T09:24:12.000Z</time>
      </trkpt>
      <trkpt lat="44.55411" lon="4.7132">
        <ele>78.893961</ele>
        <time>2021-09-15T09:24:14.000Z</time>
      </trkpt>
      <trkpt lat="44.55414" lon="4.71332">
        <ele>78.775761</ele>
        <time>2021-09-15T09:24:16.000Z</time>
      </trkpt>
      <trkpt lat="44.55414" lon="4.71338">
        <ele>78.718934</ele>
        <time>2021-09-15T09:24:17.000Z</time>
      </trkpt>
      <trkpt lat="44.55413" lon="4.71345">
        <ele>78.661717</ele>
        <time>2021-09-15T09:24:18.000Z</time>
      </trkpt>
      <trkpt lat="44.55407" lon="4.71356">
        <ele>78.535816</ele>
        <time>2021-09-15T09:24:20.000Z</time>
      </trkpt>
      <trkpt lat="44.55396" lon="4.7136">
        <ele>78.36078</ele>
        <time>2021-09-15T09:24:22.000Z</time>
      </trkpt>
      <trkpt lat="44.55391" lon="4.71361">
        <ele>78.253545</ele>
        <time>2021-09-15T09:24:23.000Z</time>
      </trkpt>
      <trkpt lat="44.5538" lon="4.71363">
        <ele>78.04279</ele>
        <time>2021-09-15T09:24:25.000Z</time>
      </trkpt>
      <trkpt lat="44.55358" lon="4.71366">
        <ele>77.62901</ele>
        <time>2021-09-15T09:24:29.000Z</time>
      </trkpt>
      <trkpt lat="44.55347" lon="4.71368">
        <ele>77.423826</ele>
        <time>2021-09-15T09:24:31.000Z</time>
      </trkpt>
      <trkpt lat="44.55336" lon="4.71371">
        <ele>77.212744</ele>
        <time>2021-09-15T09:24:33.000Z</time>
      </trkpt>
      <trkpt lat="44.5533" lon="4.71373">
        <ele>77.105629</ele>
        <time>2021-09-15T09:24:34.000Z</time>
      </trkpt>
      <trkpt lat="44.55288" lon="4.71389">
        <ele>76.296003</ele>
        <time>2021-09-15T09:24:41.000Z</time>
      </trkpt>
      <trkpt lat="44.55241" lon="4.71408">
        <ele>75.383393</ele>
        <time>2021-09-15T09:24:49.000Z</time>
      </trkpt>
      <trkpt lat="44.55186" lon="4.7143">
        <ele>74.71734</ele>
        <time>2021-09-15T09:24:58.000Z</time>
      </trkpt>
      <trkpt lat="44.55145" lon="4.71444">
        <ele>74.339518</ele>
        <time>2021-09-15T09:25:05.000Z</time>
      </trkpt>
      <trkpt lat="44.55103" lon="4.71457">
        <ele>73.96409</ele>
        <time>2021-09-15T09:25:12.000Z</time>
      </trkpt>
      <trkpt lat="44.55057" lon="4.71473">
        <ele>73.537772</ele>
        <time>2021-09-15T09:25:20.000Z</time>
      </trkpt>
      <trkpt lat="44.55047" lon="4.71482">
        <ele>73.485113</ele>
        <time>2021-09-15T09:25:22.000Z</time>
      </trkpt>
      <trkpt lat="44.55034" lon="4.71498">
        <ele>73.464919</ele>
        <time>2021-09-15T09:25:25.000Z</time>
      </trkpt>
      <trkpt lat="44.55008" lon="4.71541">
        <ele>73.418117</ele>
        <time>2021-09-15T09:25:33.000Z</time>
      </trkpt>
      <trkpt lat="44.55001" lon="4.7155">
        <ele>73.406796</ele>
        <time>2021-09-15T09:25:35.000Z</time>
      </trkpt>
      <trkpt lat="44.5499" lon="4.71564">
        <ele>73.389501</ele>
        <time>2021-09-15T09:25:38.000Z</time>
      </trkpt>
      <trkpt lat="44.54985" lon="4.71569">
        <ele>73.382807</ele>
        <time>2021-09-15T09:25:39.000Z</time>
      </trkpt>
      <trkpt lat="44.54976" lon="4.71574">
        <ele>73.370536</ele>
        <time>2021-09-15T09:25:41.000Z</time>
      </trkpt>
      <trkpt lat="44.54965" lon="4.7158">
        <ele>73.357521</ele>
        <time>2021-09-15T09:25:43.000Z</time>
      </trkpt>
      <trkpt lat="44.54934" lon="4.71597">
        <ele>73.317952</ele>
        <time>2021-09-15T09:25:49.000Z</time>
      </trkpt>
      <trkpt lat="44.54908" lon="4.7161">
        <ele>73.286159</ele>
        <time>2021-09-15T09:25:54.000Z</time>
      </trkpt>
      <trkpt lat="44.54905" lon="4.71617">
        <ele>73.283708</ele>
        <time>2021-09-15T09:25:55.000Z</time>
      </trkpt>
      <trkpt lat="44.54898" lon="4.71628">
        <ele>73.286528</ele>
        <time>2021-09-15T09:25:57.000Z</time>
      </trkpt>
      <trkpt lat="44.54891" lon="4.71638">
        <ele>73.28932</ele>
        <time>2021-09-15T09:25:59.000Z</time>
      </trkpt>
      <trkpt lat="44.54887" lon="4.71643">
        <ele>73.290766</ele>
        <time>2021-09-15T09:26:00.000Z</time>
      </trkpt>
      <trkpt lat="44.54869" lon="4.71661">
        <ele>73.296968</ele>
        <time>2021-09-15T09:26:04.000Z</time>
      </trkpt>
      <trkpt lat="44.54858" lon="4.71667">
        <ele>73.300181</ele>
        <time>2021-09-15T09:26:06.000Z</time>
      </trkpt>
      <trkpt lat="44.5483" lon="4.71676">
        <ele>73.308162</ele>
        <time>2021-09-15T09:26:11.000Z</time>
      </trkpt>
      <trkpt lat="44.54825" lon="4.71677">
        <ele>73.309805</ele>
        <time>2021-09-15T09:26:12.000Z</time>
      </trkpt>
      <trkpt lat="44.54771" lon="4.71674">
        <ele>73.324578</ele>
        <time>2021-09-15T09:26:21.000Z</time>
      </trkpt>
      <trkpt lat="44.54765" lon="4.71674">
        <ele>73.326219</ele>
        <time>2021-09-15T09:26:22.000Z</time>
      </trkpt>
      <trkpt lat="44.5473" lon="4.71676">
        <ele>73.304093</ele>
        <time>2021-09-15T09:26:28.000Z</time>
      </trkpt>
      <trkpt lat="44.54689" lon="4.71692">
        <ele>73.199497</ele>
        <time>2021-09-15T09:26:35.000Z</time>
      </trkpt>
      <trkpt lat="44.54679" lon="4.71697">
        <ele>73.17254</ele>
        <time>2021-09-15T09:26:37.000Z</time>
      </trkpt>
      <trkpt lat="44.54662" lon="4.71703">
        <ele>73.128974</ele>
        <time>2021-09-15T09:26:40.000Z</time>
      </trkpt>
      <trkpt lat="44.5461" lon="4.71725">
        <ele>72.995931</ele>
        <time>2021-09-15T09:26:49.000Z</time>
      </trkpt>
      <trkpt lat="44.54563" lon="4.71752">
        <ele>72.850979</ele>
        <time>2021-09-15T09:26:58.000Z</time>
      </trkpt>
      <trkpt lat="44.54519" lon="4.71778">
        <ele>72.602868</ele>
        <time>2021-09-15T09:27:06.000Z</time>
      </trkpt>
      <trkpt lat="44.54472" lon="4.71806">
        <ele>72.336703</ele>
        <time>2021-09-15T09:27:14.000Z</time>
      </trkpt>
      <trkpt lat="44.54438" lon="4.71826">
        <ele>72.143712</ele>
        <time>2021-09-15T09:27:20.000Z</time>
      </trkpt>
      <trkpt lat="44.54406" lon="4.71844">
        <ele>71.964225</ele>
        <time>2021-09-15T09:27:26.000Z</time>
      </trkpt>
      <trkpt lat="44.54355" lon="4.71874">
        <ele>71.591511</ele>
        <time>2021-09-15T09:27:35.000Z</time>
      </trkpt>
      <trkpt lat="44.54345" lon="4.7188">
        <ele>71.514381</ele>
        <time>2021-09-15T09:27:37.000Z</time>
      </trkpt>
      <trkpt lat="44.54334" lon="4.71886">
        <ele>71.429937</ele>
        <time>2021-09-15T09:27:39.000Z</time>
      </trkpt>
      <trkpt lat="44.54284" lon="4.71915">
        <ele>71.057127</ele>
        <time>2021-09-15T09:27:48.000Z</time>
      </trkpt>
      <trkpt lat="44.54278" lon="4.71919">
        <ele>71.016049</ele>
        <time>2021-09-15T09:27:49.000Z</time>
      </trkpt>
      <trkpt lat="44.54229" lon="4.71947">
        <ele>70.720288</ele>
        <time>2021-09-15T09:27:58.000Z</time>
      </trkpt>
      <trkpt lat="44.54193" lon="4.71969">
        <ele>70.746699</ele>
        <time>2021-09-15T09:28:05.000Z</time>
      </trkpt>
      <trkpt lat="44.54182" lon="4.71974">
        <ele>70.754371</ele>
        <time>2021-09-15T09:28:07.000Z</time>
      </trkpt>
      <trkpt lat="44.5416" lon="4.71986">
        <ele>70.76981</ele>
        <time>2021-09-15T09:28:11.000Z</time>
      </trkpt>
      <trkpt lat="44.54118" lon="4.7201">
        <ele>70.799935</ele>
        <time>2021-09-15T09:28:19.000Z</time>
      </trkpt>
      <trkpt lat="44.54086" lon="4.72027">
        <ele>70.822686</ele>
        <time>2021-09-15T09:28:25.000Z</time>
      </trkpt>
      <trkpt lat="44.5405" lon="4.72047">
        <ele>70.922855</ele>
        <time>2021-09-15T09:28:32.000Z</time>
      </trkpt>
      <trkpt lat="44.54019" lon="4.72066">
        <ele>71.060954</ele>
        <time>2021-09-15T09:28:38.000Z</time>
      </trkpt>
      <trkpt lat="44.53982" lon="4.72087">
        <ele>71.220942</ele>
        <time>2021-09-15T09:28:45.000Z</time>
      </trkpt>
      <trkpt lat="44.53941" lon="4.72111">
        <ele>71.39785</ele>
        <time>2021-09-15T09:28:53.000Z</time>
      </trkpt>
      <trkpt lat="44.53931" lon="4.72115">
        <ele>71.442735</ele>
        <time>2021-09-15T09:28:55.000Z</time>
      </trkpt>
      <trkpt lat="44.5392" lon="4.72115">
        <ele>71.486613</ele>
        <time>2021-09-15T09:28:57.000Z</time>
      </trkpt>
      <trkpt lat="44.53914" lon="4.72114">
        <ele>71.509462</ele>
        <time>2021-09-15T09:28:58.000Z</time>
      </trkpt>
      <trkpt lat="44.53904" lon="4.72108">
        <ele>71.552972</ele>
        <time>2021-09-15T09:29:00.000Z</time>
      </trkpt>
      <trkpt lat="44.53884" lon="4.72098">
        <ele>71.646872</ele>
        <time>2021-09-15T09:29:04.000Z</time>
      </trkpt>
      <trkpt lat="44.53853" lon="4.72085">
        <ele>71.79162</ele>
        <time>2021-09-15T09:29:11.000Z</time>
      </trkpt>
      <trkpt lat="44.53834" lon="4.72081">
        <ele>71.879516</ele>
        <time>2021-09-15T09:29:16.000Z</time>
      </trkpt>
      <trkpt lat="44.53829" lon="4.7208">
        <ele>71.897861</ele>
        <time>2021-09-15T09:29:17.000Z</time>
      </trkpt>
      <trkpt lat="44.538" lon="4.72081">
        <ele>72.029377</ele>
        <time>2021-09-15T09:29:24.000Z</time>
      </trkpt>
      <trkpt lat="44.53762" lon="4.72086">
        <ele>72.19783</ele>
        <time>2021-09-15T09:29:32.000Z</time>
      </trkpt>
      <trkpt lat="44.53748" lon="4.72088">
        <ele>72.262335</ele>
        <time>2021-09-15T09:29:35.000Z</time>
      </trkpt>
      <trkpt lat="44.53738" lon="4.72089">
        <ele>72.30802</ele>
        <time>2021-09-15T09:29:37.000Z</time>
      </trkpt>
      <trkpt lat="44.53696" lon="4.72102">
        <ele>72.426513</ele>
        <time>2021-09-15T09:29:45.000Z</time>
      </trkpt>
      <trkpt lat="44.53671" lon="4.7212">
        <ele>72.486839</ele>
        <time>2021-09-15T09:29:50.000Z</time>
      </trkpt>
      <trkpt lat="44.53666" lon="4.72125">
        <ele>72.499154</ele>
        <time>2021-09-15T09:29:51.000Z</time>
      </trkpt>
      <trkpt lat="44.53637" lon="4.72162">
        <ele>72.584564</ele>
        <time>2021-09-15T09:29:58.000Z</time>
      </trkpt>
      <trkpt lat="44.53604" lon="4.72204">
        <ele>72.679373</ele>
        <time>2021-09-15T09:30:06.000Z</time>
      </trkpt>
      <trkpt lat="44.53578" lon="4.72236">
        <ele>72.790101</ele>
        <time>2021-09-15T09:30:12.000Z</time>
      </trkpt>
      <trkpt lat="44.53563" lon="4.72255">
        <ele>73.048874</ele>
        <time>2021-09-15T09:30:16.000Z</time>
      </trkpt>
      <trkpt lat="44.53559" lon="4.7226">
        <ele>73.110322</ele>
        <time>2021-09-15T09:30:17.000Z</time>
      </trkpt>
      <trkpt lat="44.53533" lon="4.7229">
        <ele>73.532355</ele>
        <time>2021-09-15T09:30:23.000Z</time>
      </trkpt>
      <trkpt lat="44.53505" lon="4.72336">
        <ele>74.071523</ele>
        <time>2021-09-15T09:30:31.000Z</time>
      </trkpt>
      <trkpt lat="44.53496" lon="4.72354">
        <ele>74.259372</ele>
        <time>2021-09-15T09:30:34.000Z</time>
      </trkpt>
      <trkpt lat="44.53491" lon="4.72367">
        <ele>74.394547</ele>
        <time>2021-09-15T09:30:36.000Z</time>
      </trkpt>
      <trkpt lat="44.53489" lon="4.72381">
        <ele>74.516105</ele>
        <time>2021-09-15T09:30:38.000Z</time>
      </trkpt>
      <trkpt lat="44.53483" lon="4.72388">
        <ele>74.612956</ele>
        <time>2021-09-15T09:30:40.000Z</time>
      </trkpt>
      <trkpt lat="44.53476" lon="4.72391">
        <ele>74.704161</ele>
        <time>2021-09-15T09:30:42.000Z</time>
      </trkpt>
      <trkpt lat="44.53472" lon="4.72391">
        <ele>74.755121</ele>
        <time>2021-09-15T09:30:43.000Z</time>
      </trkpt>
      <trkpt lat="44.53468" lon="4.72386">
        <ele>74.820931</ele>
        <time>2021-09-15T09:30:44.000Z</time>
      </trkpt>
      <trkpt lat="44.53459" lon="4.72373">
        <ele>74.98388</ele>
        <time>2021-09-15T09:30:47.000Z</time>
      </trkpt>
      <trkpt lat="44.53437" lon="4.72341">
        <ele>75.338785</ele>
        <time>2021-09-15T09:30:55.000Z</time>
      </trkpt>
      <trkpt lat="44.53416" lon="4.72311">
        <ele>75.668665</ele>
        <time>2021-09-15T09:31:03.000Z</time>
      </trkpt>
      <trkpt lat="44.53406" lon="4.72301">
        <ele>75.805432</ele>
        <time>2021-09-15T09:31:08.000Z</time>
      </trkpt>
      <trkpt lat="44.53397" lon="4.72304">
        <ele>75.910074</ele>
        <time>2021-09-15T09:31:13.000Z</time>
      </trkpt>
      <trkpt lat="44.53392" lon="4.72305">
        <ele>75.972899</ele>
        <time>2021-09-15T09:31:15.000Z</time>
      </trkpt>
      <trkpt lat="44.53385" lon="4.72304">
        <ele>76.051702</ele>
        <time>2021-09-15T09:31:17.000Z</time>
      </trkpt>
      <trkpt lat="44.53377" lon="4.72299">
        <ele>76.144492</ele>
        <time>2021-09-15T09:31:19.000Z</time>
      </trkpt>
      <trkpt lat="44.53365" lon="4.72291">
        <ele>76.293967</ele>
        <time>2021-09-15T09:31:22.000Z</time>
      </trkpt>
      <trkpt lat="44.5336" lon="4.72291">
        <ele>76.354644</ele>
        <time>2021-09-15T09:31:23.000Z</time>
      </trkpt>
      <trkpt lat="44.53355" lon="4.72293">
        <ele>76.404566</ele>
        <time>2021-09-15T09:31:24.000Z</time>
      </trkpt>
      <trkpt lat="44.53342" lon="4.72298">
        <ele>76.55735</ele>
        <time>2021-09-15T09:31:27.000Z</time>
      </trkpt>
      <trkpt lat="44.53309" lon="4.72311">
        <ele>76.940599</ele>
        <time>2021-09-15T09:31:34.000Z</time>
      </trkpt>
      <trkpt lat="44.53262" lon="4.72329">
        <ele>77.221963</ele>
        <time>2021-09-15T09:31:43.000Z</time>
      </trkpt>
      <trkpt lat="44.53212" lon="4.72347">
        <ele>77.493472</ele>
        <time>2021-09-15T09:31:52.000Z</time>
      </trkpt>
      <trkpt lat="44.53173" lon="4.7236">
        <ele>77.704924</ele>
        <time>2021-09-15T09:31:59.000Z</time>
      </trkpt>
      <trkpt lat="44.53128" lon="4.72375">
        <ele>77.948657</ele>
        <time>2021-09-15T09:32:07.000Z</time>
      </trkpt>
      <trkpt lat="44.53078" lon="4.72391">
        <ele>78.239553</ele>
        <time>2021-09-15T09:32:16.000Z</time>
      </trkpt>
      <trkpt lat="44.53039" lon="4.72403">
        <ele>78.468317</ele>
        <time>2021-09-15T09:32:23.000Z</time>
      </trkpt>
      <trkpt lat="44.53002" lon="4.72413">
        <ele>78.689871</ele>
        <time>2021-09-15T09:32:30.000Z</time>
      </trkpt>
      <trkpt lat="44.52997" lon="4.72412">
        <ele>78.715258</ele>
        <time>2021-09-15T09:32:31.000Z</time>
      </trkpt>
      <trkpt lat="44.52993" lon="4.72412">
        <ele>78.739039</ele>
        <time>2021-09-15T09:32:32.000Z</time>
      </trkpt>
      <trkpt lat="44.52983" lon="4.7241">
        <ele>78.796571</ele>
        <time>2021-09-15T09:32:34.000Z</time>
      </trkpt>
      <trkpt lat="44.52979" lon="4.72409">
        <ele>78.823883</ele>
        <time>2021-09-15T09:32:35.000Z</time>
      </trkpt>
      <trkpt lat="44.52948" lon="4.724">
        <ele>78.997523</ele>
        <time>2021-09-15T09:32:42.000Z</time>
      </trkpt>
      <trkpt lat="44.5293" lon="4.72395">
        <ele>79.080061</ele>
        <time>2021-09-15T09:32:46.000Z</time>
      </trkpt>
      <trkpt lat="44.52916" lon="4.72391">
        <ele>79.14701</ele>
        <time>2021-09-15T09:32:49.000Z</time>
      </trkpt>
      <trkpt lat="44.52874" lon="4.72382">
        <ele>79.342754</ele>
        <time>2021-09-15T09:32:57.000Z</time>
      </trkpt>
      <trkpt lat="44.5282" lon="4.72371">
        <ele>79.595287</ele>
        <time>2021-09-15T09:33:07.000Z</time>
      </trkpt>
      <trkpt lat="44.52793" lon="4.72365">
        <ele>79.719907</ele>
        <time>2021-09-15T09:33:12.000Z</time>
      </trkpt>
      <trkpt lat="44.52777" lon="4.72362">
        <ele>79.794131</ele>
        <time>2021-09-15T09:33:15.000Z</time>
      </trkpt>
      <trkpt lat="44.52723" lon="4.72348">
        <ele>79.999038</ele>
        <time>2021-09-15T09:33:25.000Z</time>
      </trkpt>
      <trkpt lat="44.52677" lon="4.72336">
        <ele>80.173991</ele>
        <time>2021-09-15T09:33:34.000Z</time>
      </trkpt>
      <trkpt lat="44.5263" lon="4.72324">
        <ele>80.352018</ele>
        <time>2021-09-15T09:33:43.000Z</time>
      </trkpt>
      <trkpt lat="44.52583" lon="4.72312">
        <ele>80.505749</ele>
        <time>2021-09-15T09:33:52.000Z</time>
      </trkpt>
      <trkpt lat="44.52545" lon="4.72306">
        <ele>80.591032</ele>
        <time>2021-09-15T09:33:59.000Z</time>
      </trkpt>
      <trkpt lat="44.52519" lon="4.72305">
        <ele>80.64958</ele>
        <time>2021-09-15T09:34:04.000Z</time>
      </trkpt>
      <trkpt lat="44.52514" lon="4.72307">
        <ele>80.660604</ele>
        <time>2021-09-15T09:34:05.000Z</time>
      </trkpt>
      <trkpt lat="44.52484" lon="4.72325">
        <ele>80.733438</ele>
        <time>2021-09-15T09:34:11.000Z</time>
      </trkpt>
      <trkpt lat="44.52444" lon="4.72349">
        <ele>80.830986</ele>
        <time>2021-09-15T09:34:19.000Z</time>
      </trkpt>
      <trkpt lat="44.52414" lon="4.72368">
        <ele>80.754968</ele>
        <time>2021-09-15T09:34:25.000Z</time>
      </trkpt>
      <trkpt lat="44.52363" lon="4.72399">
        <ele>80.34654</ele>
        <time>2021-09-15T09:34:35.000Z</time>
      </trkpt>
      <trkpt lat="44.52317" lon="4.72421">
        <ele>79.996081</ele>
        <time>2021-09-15T09:34:43.000Z</time>
      </trkpt>
      <trkpt lat="44.52284" lon="4.72426">
        <ele>79.748418</ele>
        <time>2021-09-15T09:34:49.000Z</time>
      </trkpt>
      <trkpt lat="44.52248" lon="4.72425">
        <ele>79.362198</ele>
        <time>2021-09-15T09:34:54.000Z</time>
      </trkpt>
      <trkpt lat="44.5219" lon="4.72423">
        <ele>78.194154</ele>
        <time>2021-09-15T09:35:01.000Z</time>
      </trkpt>
      <trkpt lat="44.52182" lon="4.72423">
        <ele>78.033117</ele>
        <time>2021-09-15T09:35:02.000Z</time>
      </trkpt>
      <trkpt lat="44.52167" lon="4.72429">
        <ele>77.699691</ele>
        <time>2021-09-15T09:35:04.000Z</time>
      </trkpt>
      <trkpt lat="44.52136" lon="4.72455">
        <ele>76.96672</ele>
        <time>2021-09-15T09:35:09.000Z</time>
      </trkpt>
      <trkpt lat="44.52122" lon="4.72466">
        <ele>76.650316</ele>
        <time>2021-09-15T09:35:11.000Z</time>
      </trkpt>
      <trkpt lat="44.5211" lon="4.72479">
        <ele>76.330385</ele>
        <time>2021-09-15T09:35:13.000Z</time>
      </trkpt>
      <trkpt lat="44.52098" lon="4.72492">
        <ele>76.029564</ele>
        <time>2021-09-15T09:35:15.000Z</time>
      </trkpt>
      <trkpt lat="44.52087" lon="4.72504">
        <ele>75.793032</ele>
        <time>2021-09-15T09:35:17.000Z</time>
      </trkpt>
      <trkpt lat="44.52065" lon="4.72528">
        <ele>75.431061</ele>
        <time>2021-09-15T09:35:21.000Z</time>
      </trkpt>
      <trkpt lat="44.5206" lon="4.72533">
        <ele>75.344981</ele>
        <time>2021-09-15T09:35:22.000Z</time>
      </trkpt>
      <trkpt lat="44.52054" lon="4.72537">
        <ele>75.262335</ele>
        <time>2021-09-15T09:35:23.000Z</time>
      </trkpt>
      <trkpt lat="44.52043" lon="4.72539">
        <ele>75.115391</ele>
        <time>2021-09-15T09:35:25.000Z</time>
      </trkpt>
      <trkpt lat="44.52016" lon="4.72538">
        <ele>74.77432</ele>
        <time>2021-09-15T09:35:29.000Z</time>
      </trkpt>
      <trkpt lat="44.51967" lon="4.72537">
        <ele>74.132397</ele>
        <time>2021-09-15T09:35:37.000Z</time>
      </trkpt>
      <trkpt lat="44.51912" lon="4.72529">
        <ele>73.534149</ele>
        <time>2021-09-15T09:35:47.000Z</time>
      </trkpt>
      <trkpt lat="44.51879" lon="4.72522">
        <ele>73.466823</ele>
        <time>2021-09-15T09:35:54.000Z</time>
      </trkpt>
      <trkpt lat="44.51842" lon="4.72515">
        <ele>73.393499</ele>
        <time>2021-09-15T09:36:02.000Z</time>
      </trkpt>
      <trkpt lat="44.51808" lon="4.72508">
        <ele>73.32715</ele>
        <time>2021-09-15T09:36:09.000Z</time>
      </trkpt>
      <trkpt lat="44.51784" lon="4.72503">
        <ele>73.278026</ele>
        <time>2021-09-15T09:36:14.000Z</time>
      </trkpt>
      <trkpt lat="44.51775" lon="4.72495">
        <ele>73.256889</ele>
        <time>2021-09-15T09:36:16.000Z</time>
      </trkpt>
      <trkpt lat="44.51751" lon="4.72475">
        <ele>73.203456</ele>
        <time>2021-09-15T09:36:21.000Z</time>
      </trkpt>
      <trkpt lat="44.51746" lon="4.72473">
        <ele>73.166922</ele>
        <time>2021-09-15T09:36:22.000Z</time>
      </trkpt>
      <trkpt lat="44.51726" lon="4.72465">
        <ele>72.957901</ele>
        <time>2021-09-15T09:36:26.000Z</time>
      </trkpt>
      <trkpt lat="44.51715" lon="4.7246">
        <ele>72.852261</ele>
        <time>2021-09-15T09:36:28.000Z</time>
      </trkpt>
      <trkpt lat="44.51676" lon="4.72445">
        <ele>72.452261</ele>
        <time>2021-09-15T09:36:35.000Z</time>
      </trkpt>
      <trkpt lat="44.51659" lon="4.72438">
        <ele>72.283841</ele>
        <time>2021-09-15T09:36:38.000Z</time>
      </trkpt>
      <trkpt lat="44.51648" lon="4.72434">
        <ele>72.173125</ele>
        <time>2021-09-15T09:36:40.000Z</time>
      </trkpt>
      <trkpt lat="44.51609" lon="4.72418">
        <ele>71.770118</ele>
        <time>2021-09-15T09:36:47.000Z</time>
      </trkpt>
      <trkpt lat="44.51555" lon="4.72396">
        <ele>71.085529</ele>
        <time>2021-09-15T09:36:56.000Z</time>
      </trkpt>
      <trkpt lat="44.51543" lon="4.72391">
        <ele>70.895311</ele>
        <time>2021-09-15T09:36:58.000Z</time>
      </trkpt>
      <trkpt lat="44.51502" lon="4.72373">
        <ele>70.21194</ele>
        <time>2021-09-15T09:37:05.000Z</time>
      </trkpt>
      <trkpt lat="44.51457" lon="4.72353">
        <ele>69.454659</ele>
        <time>2021-09-15T09:37:13.000Z</time>
      </trkpt>
      <trkpt lat="44.5143" lon="4.72341">
        <ele>69.000759</ele>
        <time>2021-09-15T09:37:18.000Z</time>
      </trkpt>
      <trkpt lat="44.51424" lon="4.72339">
        <ele>68.909137</ele>
        <time>2021-09-15T09:37:19.000Z</time>
      </trkpt>
      <trkpt lat="44.5138" lon="4.72319">
        <ele>68.094924</ele>
        <time>2021-09-15T09:37:27.000Z</time>
      </trkpt>
      <trkpt lat="44.5137" lon="4.72315">
        <ele>67.890534</ele>
        <time>2021-09-15T09:37:29.000Z</time>
      </trkpt>
      <trkpt lat="44.51354" lon="4.72308">
        <ele>67.575995</ele>
        <time>2021-09-15T09:37:32.000Z</time>
      </trkpt>
      <trkpt lat="44.51337" lon="4.723">
        <ele>67.247737</ele>
        <time>2021-09-15T09:37:35.000Z</time>
      </trkpt>
      <trkpt lat="44.51326" lon="4.72295">
        <ele>67.035393</ele>
        <time>2021-09-15T09:37:37.000Z</time>
      </trkpt>
      <trkpt lat="44.51287" lon="4.72278">
        <ele>66.276682</ele>
        <time>2021-09-15T09:37:44.000Z</time>
      </trkpt>
      <trkpt lat="44.5125" lon="4.72262">
        <ele>65.547597</ele>
        <time>2021-09-15T09:37:51.000Z</time>
      </trkpt>
      <trkpt lat="44.5124" lon="4.72251">
        <ele>65.309387</ele>
        <time>2021-09-15T09:37:53.000Z</time>
      </trkpt>
      <trkpt lat="44.51237" lon="4.72237">
        <ele>65.199985</ele>
        <time>2021-09-15T09:37:55.000Z</time>
      </trkpt>
      <trkpt lat="44.51231" lon="4.72193">
        <ele>65.127909</ele>
        <time>2021-09-15T09:38:01.000Z</time>
      </trkpt>
      <trkpt lat="44.51223" lon="4.72145">
        <ele>65.048624</ele>
        <time>2021-09-15T09:38:07.000Z</time>
      </trkpt>
      <trkpt lat="44.51215" lon="4.72092">
        <ele>64.962795</ele>
        <time>2021-09-15T09:38:14.000Z</time>
      </trkpt>
      <trkpt lat="44.51213" lon="4.72079">
        <ele>64.94065</ele>
        <time>2021-09-15T09:38:16.000Z</time>
      </trkpt>
      <trkpt lat="44.51213" lon="4.72065">
        <ele>64.917916</ele>
        <time>2021-09-15T09:38:18.000Z</time>
      </trkpt>
      <trkpt lat="44.51214" lon="4.72057">
        <ele>64.904985</ele>
        <time>2021-09-15T09:38:19.000Z</time>
      </trkpt>
      <trkpt lat="44.51217" lon="4.72039">
        <ele>64.87632</ele>
        <time>2021-09-15T09:38:21.000Z</time>
      </trkpt>
      <trkpt lat="44.51215" lon="4.72025">
        <ele>64.852788</ele>
        <time>2021-09-15T09:38:23.000Z</time>
      </trkpt>
      <trkpt lat="44.51213" lon="4.72002">
        <ele>64.816428</ele>
        <time>2021-09-15T09:38:26.000Z</time>
      </trkpt>
      <trkpt lat="44.51212" lon="4.71986">
        <ele>64.847543</ele>
        <time>2021-09-15T09:38:28.000Z</time>
      </trkpt>
      <trkpt lat="44.51207" lon="4.71947">
        <ele>65.00332</ele>
        <time>2021-09-15T09:38:33.000Z</time>
      </trkpt>
      <trkpt lat="44.51206" lon="4.71939">
        <ele>65.034172</ele>
        <time>2021-09-15T09:38:34.000Z</time>
      </trkpt>
      <trkpt lat="44.51205" lon="4.71931">
        <ele>65.064646</ele>
        <time>2021-09-15T09:38:35.000Z</time>
      </trkpt>
      <trkpt lat="44.51193" lon="4.71903">
        <ele>65.188842</ele>
        <time>2021-09-15T09:38:39.000Z</time>
      </trkpt>
      <trkpt lat="44.5118" lon="4.71876">
        <ele>65.311886</ele>
        <time>2021-09-15T09:38:43.000Z</time>
      </trkpt>
      <trkpt lat="44.51168" lon="4.71861">
        <ele>65.402925</ele>
        <time>2021-09-15T09:38:46.000Z</time>
      </trkpt>
      <trkpt lat="44.51121" lon="4.71818">
        <ele>65.702142</ele>
        <time>2021-09-15T09:38:56.000Z</time>
      </trkpt>
      <trkpt lat="44.51085" lon="4.71784">
        <ele>65.925945</ele>
        <time>2021-09-15T09:39:04.000Z</time>
      </trkpt>
      <trkpt lat="44.51053" lon="4.71753">
        <ele>66.123315</ele>
        <time>2021-09-15T09:39:11.000Z</time>
      </trkpt>
      <trkpt lat="44.51023" lon="4.71721">
        <ele>66.314631</ele>
        <time>2021-09-15T09:39:18.000Z</time>
      </trkpt>
      <trkpt lat="44.5101" lon="4.71707">
        <ele>66.393575</ele>
        <time>2021-09-15T09:39:21.000Z</time>
      </trkpt>
      <trkpt lat="44.50998" lon="4.71693">
        <ele>66.474867</ele>
        <time>2021-09-15T09:39:24.000Z</time>
      </trkpt>
      <trkpt lat="44.50967" lon="4.71651">
        <ele>66.691583</ele>
        <time>2021-09-15T09:39:32.000Z</time>
      </trkpt>
      <trkpt lat="44.5096" lon="4.71641">
        <ele>66.741562</ele>
        <time>2021-09-15T09:39:34.000Z</time>
      </trkpt>
      <trkpt lat="44.50948" lon="4.71625">
        <ele>66.820177</ele>
        <time>2021-09-15T09:39:37.000Z</time>
      </trkpt>
      <trkpt lat="44.50923" lon="4.71596">
        <ele>66.976906</ele>
        <time>2021-09-15T09:39:43.000Z</time>
      </trkpt>
      <trkpt lat="44.50884" lon="4.71565">
        <ele>67.192538</ele>
        <time>2021-09-15T09:39:51.000Z</time>
      </trkpt>
      <trkpt lat="44.50865" lon="4.71552">
        <ele>67.29806</ele>
        <time>2021-09-15T09:39:55.000Z</time>
      </trkpt>
      <trkpt lat="44.50828" lon="4.71534">
        <ele>67.484866</ele>
        <time>2021-09-15T09:40:02.000Z</time>
      </trkpt>
      <trkpt lat="44.50797" lon="4.7152">
        <ele>67.629514</ele>
        <time>2021-09-15T09:40:08.000Z</time>
      </trkpt>
      <trkpt lat="44.50792" lon="4.71517">
        <ele>67.650322</ele>
        <time>2021-09-15T09:40:09.000Z</time>
      </trkpt>
      <trkpt lat="44.50771" lon="4.71507">
        <ele>67.742262</ele>
        <time>2021-09-15T09:40:13.000Z</time>
      </trkpt>
      <trkpt lat="44.50755" lon="4.71499">
        <ele>67.811652</ele>
        <time>2021-09-15T09:40:16.000Z</time>
      </trkpt>
      <trkpt lat="44.50739" lon="4.71491">
        <ele>67.883268</ele>
        <time>2021-09-15T09:40:19.000Z</time>
      </trkpt>
      <trkpt lat="44.50728" lon="4.71486">
        <ele>67.929238</ele>
        <time>2021-09-15T09:40:21.000Z</time>
      </trkpt>
      <trkpt lat="44.5072" lon="4.71476">
        <ele>67.97269</ele>
        <time>2021-09-15T09:40:23.000Z</time>
      </trkpt>
      <trkpt lat="44.50717" lon="4.7147">
        <ele>67.996565</ele>
        <time>2021-09-15T09:40:24.000Z</time>
      </trkpt>
      <trkpt lat="44.50713" lon="4.71463">
        <ele>68.020927</ele>
        <time>2021-09-15T09:40:25.000Z</time>
      </trkpt>
      <trkpt lat="44.50703" lon="4.71443">
        <ele>68.091469</ele>
        <time>2021-09-15T09:40:28.000Z</time>
      </trkpt>
      <trkpt lat="44.50682" lon="4.71385">
        <ele>68.283854</ele>
        <time>2021-09-15T09:40:36.000Z</time>
      </trkpt>
      <trkpt lat="44.50664" lon="4.71336">
        <ele>68.346877</ele>
        <time>2021-09-15T09:40:43.000Z</time>
      </trkpt>
      <trkpt lat="44.50638" lon="4.71267">
        <ele>68.428846</ele>
        <time>2021-09-15T09:40:53.000Z</time>
      </trkpt>
      <trkpt lat="44.50612" lon="4.71197">
        <ele>68.510562</ele>
        <time>2021-09-15T09:41:03.000Z</time>
      </trkpt>
      <trkpt lat="44.50609" lon="4.7119">
        <ele>68.518786</ele>
        <time>2021-09-15T09:41:04.000Z</time>
      </trkpt>
      <trkpt lat="44.50588" lon="4.71135">
        <ele>68.503784</ele>
        <time>2021-09-15T09:41:12.000Z</time>
      </trkpt>
      <trkpt lat="44.5057" lon="4.71086">
        <ele>68.399693</ele>
        <time>2021-09-15T09:41:19.000Z</time>
      </trkpt>
      <trkpt lat="44.50556" lon="4.71052">
        <ele>68.324596</ele>
        <time>2021-09-15T09:41:24.000Z</time>
      </trkpt>
      <trkpt lat="44.50551" lon="4.71038">
        <ele>68.295408</ele>
        <time>2021-09-15T09:41:26.000Z</time>
      </trkpt>
      <trkpt lat="44.50525" lon="4.70979">
        <ele>68.164618</ele>
        <time>2021-09-15T09:41:35.000Z</time>
      </trkpt>
      <trkpt lat="44.50516" lon="4.7096">
        <ele>68.120071</ele>
        <time>2021-09-15T09:41:38.000Z</time>
      </trkpt>
      <trkpt lat="44.50504" lon="4.70943">
        <ele>68.075178</ele>
        <time>2021-09-15T09:41:41.000Z</time>
      </trkpt>
      <trkpt lat="44.50484" lon="4.70893">
        <ele>67.985899</ele>
        <time>2021-09-15T09:41:48.000Z</time>
      </trkpt>
      <trkpt lat="44.50459" lon="4.7083">
        <ele>67.873081</ele>
        <time>2021-09-15T09:41:57.000Z</time>
      </trkpt>
      <trkpt lat="44.50449" lon="4.7081">
        <ele>67.835679</ele>
        <time>2021-09-15T09:42:00.000Z</time>
      </trkpt>
      <trkpt lat="44.50438" lon="4.70793">
        <ele>67.799184</ele>
        <time>2021-09-15T09:42:03.000Z</time>
      </trkpt>
      <trkpt lat="44.50435" lon="4.70787">
        <ele>67.787073</ele>
        <time>2021-09-15T09:42:04.000Z</time>
      </trkpt>
      <trkpt lat="44.50426" lon="4.70768">
        <ele>67.751673</ele>
        <time>2021-09-15T09:42:07.000Z</time>
      </trkpt>
      <trkpt lat="44.50424" lon="4.7076">
        <ele>67.738353</ele>
        <time>2021-09-15T09:42:08.000Z</time>
      </trkpt>
      <trkpt lat="44.50419" lon="4.70755">
        <ele>67.725966</ele>
        <time>2021-09-15T09:42:09.000Z</time>
      </trkpt>
      <trkpt lat="44.50411" lon="4.70745">
        <ele>67.701459</ele>
        <time>2021-09-15T09:42:11.000Z</time>
      </trkpt>
      <trkpt lat="44.50406" lon="4.70741">
        <ele>67.689164</ele>
        <time>2021-09-15T09:42:12.000Z</time>
      </trkpt>
      <trkpt lat="44.50377" lon="4.70719">
        <ele>67.743651</ele>
        <time>2021-09-15T09:42:18.000Z</time>
      </trkpt>
      <trkpt lat="44.50372" lon="4.70715">
        <ele>67.754502</ele>
        <time>2021-09-15T09:42:19.000Z</time>
      </trkpt>
      <trkpt lat="44.50367" lon="4.70716">
        <ele>67.766341</ele>
        <time>2021-09-15T09:42:20.000Z</time>
      </trkpt>
      <trkpt lat="44.50358" lon="4.70725">
        <ele>67.788573</ele>
        <time>2021-09-15T09:42:22.000Z</time>
      </trkpt>
      <trkpt lat="44.50342" lon="4.70754">
        <ele>67.841887</ele>
        <time>2021-09-15T09:42:27.000Z</time>
      </trkpt>
      <trkpt lat="44.50322" lon="4.70786">
        <ele>67.904027</ele>
        <time>2021-09-15T09:42:33.000Z</time>
      </trkpt>
      <trkpt lat="44.50315" lon="4.70796">
        <ele>67.924054</ele>
        <time>2021-09-15T09:42:35.000Z</time>
      </trkpt>
      <trkpt lat="44.50306" lon="4.70796">
        <ele>67.942608</ele>
        <time>2021-09-15T09:42:37.000Z</time>
      </trkpt>
      <trkpt lat="44.50298" lon="4.70782">
        <ele>67.969871</ele>
        <time>2021-09-15T09:42:40.000Z</time>
      </trkpt>
      <trkpt lat="44.50295" lon="4.70777">
        <ele>67.978888</ele>
        <time>2021-09-15T09:42:41.000Z</time>
      </trkpt>
      <trkpt lat="44.50292" lon="4.70772">
        <ele>67.987905</ele>
        <time>2021-09-15T09:42:42.000Z</time>
      </trkpt>
      <trkpt lat="44.50282" lon="4.70778">
        <ele>68.01151</ele>
        <time>2021-09-15T09:42:44.000Z</time>
      </trkpt>
      <trkpt lat="44.50274" lon="4.70787">
        <ele>68.031764</ele>
        <time>2021-09-15T09:42:46.000Z</time>
      </trkpt>
      <trkpt lat="44.5027" lon="4.70791">
        <ele>68.041379</ele>
        <time>2021-09-15T09:42:47.000Z</time>
      </trkpt>
      <trkpt lat="44.50266" lon="4.70795">
        <ele>68.050939</ele>
        <time>2021-09-15T09:42:48.000Z</time>
      </trkpt>
      <trkpt lat="44.50256" lon="4.70798">
        <ele>68.06811</ele>
        <time>2021-09-15T09:42:50.000Z</time>
      </trkpt>
      <trkpt lat="44.50246" lon="4.7079">
        <ele>68.085325</ele>
        <time>2021-09-15T09:42:52.000Z</time>
      </trkpt>
      <trkpt lat="44.50237" lon="4.70781">
        <ele>68.10252</ele>
        <time>2021-09-15T09:42:54.000Z</time>
      </trkpt>
      <trkpt lat="44.50219" lon="4.70764">
        <ele>68.137622</ele>
        <time>2021-09-15T09:42:58.000Z</time>
      </trkpt>
      <trkpt lat="44.50215" lon="4.70751">
        <ele>68.154023</ele>
        <time>2021-09-15T09:43:00.000Z</time>
      </trkpt>
      <trkpt lat="44.5021" lon="4.70708">
        <ele>68.202543</ele>
        <time>2021-09-15T09:43:06.000Z</time>
      </trkpt>
      <trkpt lat="44.50206" lon="4.70697">
        <ele>68.217145</ele>
        <time>2021-09-15T09:43:08.000Z</time>
      </trkpt>
      <trkpt lat="44.50201" lon="4.70686">
        <ele>68.231184</ele>
        <time>2021-09-15T09:43:10.000Z</time>
      </trkpt>
      <trkpt lat="44.5019" lon="4.70661">
        <ele>68.264719</ele>
        <time>2021-09-15T09:43:15.000Z</time>
      </trkpt>
      <trkpt lat="44.50185" lon="4.70646">
        <ele>68.283407</ele>
        <time>2021-09-15T09:43:18.000Z</time>
      </trkpt>
      <trkpt lat="44.50178" lon="4.70626">
        <ele>68.308198</ele>
        <time>2021-09-15T09:43:22.000Z</time>
      </trkpt>
      <trkpt lat="44.50173" lon="4.70616">
        <ele>68.322139</ele>
        <time>2021-09-15T09:43:24.000Z</time>
      </trkpt>
      <trkpt lat="44.50166" lon="4.70607">
        <ele>68.333698</ele>
        <time>2021-09-15T09:43:26.000Z</time>
      </trkpt>
      <trkpt lat="44.50158" lon="4.70597">
        <ele>68.329131</ele>
        <time>2021-09-15T09:43:28.000Z</time>
      </trkpt>
      <trkpt lat="44.50144" lon="4.70579">
        <ele>68.320314</ele>
        <time>2021-09-15T09:43:32.000Z</time>
      </trkpt>
      <trkpt lat="44.50138" lon="4.70567">
        <ele>68.315829</ele>
        <time>2021-09-15T09:43:34.000Z</time>
      </trkpt>
      <trkpt lat="44.50133" lon="4.70554">
        <ele>68.311225</ele>
        <time>2021-09-15T09:43:36.000Z</time>
      </trkpt>
      <trkpt lat="44.50128" lon="4.70541">
        <ele>68.30667</ele>
        <time>2021-09-15T09:43:38.000Z</time>
      </trkpt>
      <trkpt lat="44.50124" lon="4.70529">
        <ele>68.302221</ele>
        <time>2021-09-15T09:43:40.000Z</time>
      </trkpt>
      <trkpt lat="44.50117" lon="4.70512">
        <ele>68.295995</ele>
        <time>2021-09-15T09:43:43.000Z</time>
      </trkpt>
      <trkpt lat="44.50114" lon="4.70502">
        <ele>68.292437</ele>
        <time>2021-09-15T09:43:45.000Z</time>
      </trkpt>
      <trkpt lat="44.50104" lon="4.70484">
        <ele>68.285361</ele>
        <time>2021-09-15T09:43:50.000Z</time>
      </trkpt>
      <trkpt lat="44.50097" lon="4.70483">
        <ele>68.282176</ele>
        <time>2021-09-15T09:43:52.000Z</time>
      </trkpt>
      <trkpt lat="44.50095" lon="4.70486">
        <ele>68.280621</ele>
        <time>2021-09-15T09:43:53.000Z</time>
      </trkpt>
      <trkpt lat="44.50079" lon="4.70507">
        <ele>68.271174</ele>
        <time>2021-09-15T09:43:58.000Z</time>
      </trkpt>
      <trkpt lat="44.50053" lon="4.70542">
        <ele>68.254695</ele>
        <time>2021-09-15T09:44:06.000Z</time>
      </trkpt>
      <trkpt lat="44.50049" lon="4.70547">
        <ele>68.314577</ele>
        <time>2021-09-15T09:44:07.000Z</time>
      </trkpt>
      <trkpt lat="44.50033" lon="4.70569">
        <ele>68.663146</ele>
        <time>2021-09-15T09:44:12.000Z</time>
      </trkpt>
      <trkpt lat="44.50013" lon="4.70592">
        <ele>69.045745</ele>
        <time>2021-09-15T09:44:18.000Z</time>
      </trkpt>
      <trkpt lat="44.49997" lon="4.70609">
        <ele>69.36108</ele>
        <time>2021-09-15T09:44:24.000Z</time>
      </trkpt>
      <trkpt lat="44.49987" lon="4.70621">
        <ele>69.562766</ele>
        <time>2021-09-15T09:44:29.000Z</time>
      </trkpt>
      <trkpt lat="44.49984" lon="4.70634">
        <ele>69.715507</ele>
        <time>2021-09-15T09:44:34.000Z</time>
      </trkpt>
      <trkpt lat="44.49983" lon="4.70639">
        <ele>69.768715</ele>
        <time>2021-09-15T09:45:04.000Z</time>
      </trkpt>
      <trkpt lat="44.49983" lon="4.70643">
        <ele>69.808496</ele>
        <time>2021-09-15T09:45:05.000Z</time>
      </trkpt>
      <trkpt lat="44.49982" lon="4.70646">
        <ele>69.846122</ele>
        <time>2021-09-15T09:45:06.000Z</time>
      </trkpt>
      <trkpt lat="44.4998" lon="4.70649">
        <ele>69.888624</ele>
        <time>2021-09-15T09:45:07.000Z</time>
      </trkpt>
      <trkpt lat="44.49976" lon="4.70655">
        <ele>69.988603</ele>
        <time>2021-09-15T09:45:09.000Z</time>
      </trkpt>
      <trkpt lat="44.49955" lon="4.70685">
        <ele>70.442138</ele>
        <time>2021-09-15T09:45:17.000Z</time>
      </trkpt>
      <trkpt lat="44.49934" lon="4.70713">
        <ele>70.886712</ele>
        <time>2021-09-15T09:45:26.000Z</time>
      </trkpt>
      <trkpt lat="44.49915" lon="4.7074">
        <ele>71.039188</ele>
        <time>2021-09-15T09:45:32.000Z</time>
      </trkpt>
      <trkpt lat="44.49886" lon="4.7078">
        <ele>71.104943</ele>
        <time>2021-09-15T09:45:40.000Z</time>
      </trkpt>
      <trkpt lat="44.49865" lon="4.70809">
        <ele>71.151517</ele>
        <time>2021-09-15T09:45:47.000Z</time>
      </trkpt>
      <trkpt lat="44.49853" lon="4.70827">
        <ele>71.180412</ele>
        <time>2021-09-15T09:45:52.000Z</time>
      </trkpt>
      <trkpt lat="44.49838" lon="4.70847">
        <ele>71.214672</ele>
        <time>2021-09-15T09:45:57.000Z</time>
      </trkpt>
      <trkpt lat="44.49832" lon="4.70856">
        <ele>71.228605</ele>
        <time>2021-09-15T09:45:59.000Z</time>
      </trkpt>
      <trkpt lat="44.49828" lon="4.7086">
        <ele>71.236063</ele>
        <time>2021-09-15T09:46:00.000Z</time>
      </trkpt>
      <trkpt lat="44.49812" lon="4.70883">
        <ele>71.273364</ele>
        <time>2021-09-15T09:46:05.000Z</time>
      </trkpt>
      <trkpt lat="44.49811" lon="4.70885">
        <ele>71.276994</ele>
        <time>2021-09-15T09:46:11.000Z</time>
      </trkpt>
      <trkpt lat="44.49777" lon="4.70938">
        <ele>71.202636</ele>
        <time>2021-09-15T09:46:17.000Z</time>
      </trkpt>
      <trkpt lat="44.49751" lon="4.70975">
        <ele>71.106912</ele>
        <time>2021-09-15T09:46:25.000Z</time>
      </trkpt>
      <trkpt lat="44.49735" lon="4.70999">
        <ele>71.045832</ele>
        <time>2021-09-15T09:46:30.000Z</time>
      </trkpt>
      <trkpt lat="44.49732" lon="4.71004">
        <ele>71.033869</ele>
        <time>2021-09-15T09:46:31.000Z</time>
      </trkpt>
      <trkpt lat="44.49729" lon="4.71009">
        <ele>71.021735</ele>
        <time>2021-09-15T09:46:32.000Z</time>
      </trkpt>
      <trkpt lat="44.4971" lon="4.71031">
        <ele>70.958319</ele>
        <time>2021-09-15T09:46:37.000Z</time>
      </trkpt>
      <trkpt lat="44.49691" lon="4.71063">
        <ele>70.881414</ele>
        <time>2021-09-15T09:46:43.000Z</time>
      </trkpt>
      <trkpt lat="44.49687" lon="4.71066">
        <ele>70.868724</ele>
        <time>2021-09-15T09:46:44.000Z</time>
      </trkpt>
      <trkpt lat="44.49682" lon="4.71068">
        <ele>70.854669</ele>
        <time>2021-09-15T09:46:45.000Z</time>
      </trkpt>
      <trkpt lat="44.49671" lon="4.7107">
        <ele>70.822549</ele>
        <time>2021-09-15T09:46:47.000Z</time>
      </trkpt>
      <trkpt lat="44.49665" lon="4.71077">
        <ele>70.781495</ele>
        <time>2021-09-15T09:46:48.000Z</time>
      </trkpt>
      <trkpt lat="44.49665" lon="4.71083">
        <ele>70.756461</ele>
        <time>2021-09-15T09:46:49.000Z</time>
      </trkpt>
      <trkpt lat="44.49663" lon="4.71092">
        <ele>70.722063</ele>
        <time>2021-09-15T09:46:51.000Z</time>
      </trkpt>
      <trkpt lat="44.49662" lon="4.71094">
        <ele>70.710629</ele>
        <time>2021-09-15T09:46:54.000Z</time>
      </trkpt>
      <trkpt lat="44.49659" lon="4.71099">
        <ele>70.686502</ele>
        <time>2021-09-15T09:47:08.000Z</time>
      </trkpt>
      <trkpt lat="44.49656" lon="4.71104">
        <ele>70.660442</ele>
        <time>2021-09-15T09:47:10.000Z</time>
      </trkpt>
      <trkpt lat="44.49644" lon="4.71112">
        <ele>70.586207</ele>
        <time>2021-09-15T09:47:13.000Z</time>
      </trkpt>
      <trkpt lat="44.49639" lon="4.71113">
        <ele>70.559301</ele>
        <time>2021-09-15T09:47:14.000Z</time>
      </trkpt>
      <trkpt lat="44.49634" lon="4.71114">
        <ele>70.53352</ele>
        <time>2021-09-15T09:47:15.000Z</time>
      </trkpt>
      <trkpt lat="44.49626" lon="4.71115">
        <ele>70.485257</ele>
        <time>2021-09-15T09:47:17.000Z</time>
      </trkpt>
      <trkpt lat="44.49621" lon="4.71114">
        <ele>70.45899</ele>
        <time>2021-09-15T09:47:18.000Z</time>
      </trkpt>
      <trkpt lat="44.49606" lon="4.71108">
        <ele>70.373146</ele>
        <time>2021-09-15T09:47:22.000Z</time>
      </trkpt>
      <trkpt lat="44.49586" lon="4.71106">
        <ele>70.265189</ele>
        <time>2021-09-15T09:47:27.000Z</time>
      </trkpt>
      <trkpt lat="44.49555" lon="4.71109">
        <ele>70.094237</ele>
        <time>2021-09-15T09:47:33.000Z</time>
      </trkpt>
      <trkpt lat="44.4955" lon="4.71112">
        <ele>70.066009</ele>
        <time>2021-09-15T09:47:34.000Z</time>
      </trkpt>
      <trkpt lat="44.49535" lon="4.71118">
        <ele>69.98053</ele>
        <time>2021-09-15T09:47:37.000Z</time>
      </trkpt>
      <trkpt lat="44.4953" lon="4.71119">
        <ele>69.951535</ele>
        <time>2021-09-15T09:47:38.000Z</time>
      </trkpt>
      <trkpt lat="44.49484" lon="4.71122">
        <ele>69.734666</ele>
        <time>2021-09-15T09:47:46.000Z</time>
      </trkpt>
      <trkpt lat="44.49457" lon="4.71127">
        <ele>69.613335</ele>
        <time>2021-09-15T09:47:51.000Z</time>
      </trkpt>
      <trkpt lat="44.49446" lon="4.71131">
        <ele>69.564527</ele>
        <time>2021-09-15T09:47:53.000Z</time>
      </trkpt>
      <trkpt lat="44.49413" lon="4.71158">
        <ele>69.399333</ele>
        <time>2021-09-15T09:48:00.000Z</time>
      </trkpt>
      <trkpt lat="44.49402" lon="4.71159">
        <ele>69.352169</ele>
        <time>2021-09-15T09:48:02.000Z</time>
      </trkpt>
      <trkpt lat="44.49391" lon="4.71159">
        <ele>69.306833</ele>
        <time>2021-09-15T09:48:04.000Z</time>
      </trkpt>
      <trkpt lat="44.49377" lon="4.71159">
        <ele>69.245953</ele>
        <time>2021-09-15T09:48:07.000Z</time>
      </trkpt>
      <trkpt lat="44.4937" lon="4.71161">
        <ele>69.213777</ele>
        <time>2021-09-15T09:48:09.000Z</time>
      </trkpt>
      <trkpt lat="44.49362" lon="4.71164">
        <ele>69.179101</ele>
        <time>2021-09-15T09:48:11.000Z</time>
      </trkpt>
      <trkpt lat="44.49359" lon="4.71168">
        <ele>69.162058</ele>
        <time>2021-09-15T09:48:12.000Z</time>
      </trkpt>
      <trkpt lat="44.49335" lon="4.71211">
        <ele>68.995445</ele>
        <time>2021-09-15T09:48:20.000Z</time>
      </trkpt>
      <trkpt lat="44.49319" lon="4.71246">
        <ele>68.873403</ele>
        <time>2021-09-15T09:48:26.000Z</time>
      </trkpt>
      <trkpt lat="44.49317" lon="4.71251">
        <ele>68.854359</ele>
        <time>2021-09-15T09:48:27.000Z</time>
      </trkpt>
      <trkpt lat="44.49315" lon="4.71256">
        <ele>68.837496</ele>
        <time>2021-09-15T09:48:28.000Z</time>
      </trkpt>
      <trkpt lat="44.49303" lon="4.7126">
        <ele>68.787544</ele>
        <time>2021-09-15T09:48:30.000Z</time>
      </trkpt>
      <trkpt lat="44.49296" lon="4.71248">
        <ele>68.738436</ele>
        <time>2021-09-15T09:48:32.000Z</time>
      </trkpt>
      <trkpt lat="44.49292" lon="4.71242">
        <ele>68.715016</ele>
        <time>2021-09-15T09:48:33.000Z</time>
      </trkpt>
      <trkpt lat="44.49277" lon="4.71228">
        <ele>68.641281</ele>
        <time>2021-09-15T09:48:36.000Z</time>
      </trkpt>
      <trkpt lat="44.49237" lon="4.71194">
        <ele>68.443757</ele>
        <time>2021-09-15T09:48:44.000Z</time>
      </trkpt>
      <trkpt lat="44.49192" lon="4.71156">
        <ele>68.256614</ele>
        <time>2021-09-15T09:48:53.000Z</time>
      </trkpt>
      <trkpt lat="44.49187" lon="4.71152">
        <ele>68.241057</ele>
        <time>2021-09-15T09:48:54.000Z</time>
      </trkpt>
      <trkpt lat="44.49157" lon="4.71127">
        <ele>68.146377</ele>
        <time>2021-09-15T09:49:00.000Z</time>
      </trkpt>
      <trkpt lat="44.49147" lon="4.71119">
        <ele>68.115263</ele>
        <time>2021-09-15T09:49:02.000Z</time>
      </trkpt>
      <trkpt lat="44.49132" lon="4.71106">
        <ele>68.066688</ele>
        <time>2021-09-15T09:49:05.000Z</time>
      </trkpt>
      <trkpt lat="44.49092" lon="4.71072">
        <ele>67.938756</ele>
        <time>2021-09-15T09:49:13.000Z</time>
      </trkpt>
      <trkpt lat="44.49046" lon="4.71034">
        <ele>67.806549</ele>
        <time>2021-09-15T09:49:22.000Z</time>
      </trkpt>
      <trkpt lat="44.49" lon="4.70996">
        <ele>67.710075</ele>
        <time>2021-09-15T09:49:31.000Z</time>
      </trkpt>
      <trkpt lat="44.4897" lon="4.70971">
        <ele>67.646686</ele>
        <time>2021-09-15T09:49:37.000Z</time>
      </trkpt>
      <trkpt lat="44.4894" lon="4.70945">
        <ele>67.582855</ele>
        <time>2021-09-15T09:49:43.000Z</time>
      </trkpt>
      <trkpt lat="44.4891" lon="4.7092">
        <ele>67.519997</ele>
        <time>2021-09-15T09:49:49.000Z</time>
      </trkpt>
      <trkpt lat="44.48877" lon="4.70887">
        <ele>67.384739</ele>
        <time>2021-09-15T09:49:56.000Z</time>
      </trkpt>
      <trkpt lat="44.48842" lon="4.70845">
        <ele>67.209675</ele>
        <time>2021-09-15T09:50:04.000Z</time>
      </trkpt>
      <trkpt lat="44.48808" lon="4.70802">
        <ele>67.037567</ele>
        <time>2021-09-15T09:50:12.000Z</time>
      </trkpt>
      <trkpt lat="44.48781" lon="4.70763">
        <ele>66.890961</ele>
        <time>2021-09-15T09:50:19.000Z</time>
      </trkpt>
      <trkpt lat="44.48754" lon="4.70723">
        <ele>66.778937</ele>
        <time>2021-09-15T09:50:26.000Z</time>
      </trkpt>
      <trkpt lat="44.48718" lon="4.70672">
        <ele>66.669517</ele>
        <time>2021-09-15T09:50:35.000Z</time>
      </trkpt>
      <trkpt lat="44.48682" lon="4.7062">
        <ele>66.5591</ele>
        <time>2021-09-15T09:50:44.000Z</time>
      </trkpt>
      <trkpt lat="44.48647" lon="4.7057">
        <ele>66.451194</ele>
        <time>2021-09-15T09:50:53.000Z</time>
      </trkpt>
      <trkpt lat="44.48615" lon="4.70523">
        <ele>66.385692</ele>
        <time>2021-09-15T09:51:01.000Z</time>
      </trkpt>
      <trkpt lat="44.48579" lon="4.70472">
        <ele>66.317202</ele>
        <time>2021-09-15T09:51:10.000Z</time>
      </trkpt>
      <trkpt lat="44.48548" lon="4.70426">
        <ele>66.25633</ele>
        <time>2021-09-15T09:51:18.000Z</time>
      </trkpt>
      <trkpt lat="44.48516" lon="4.70381">
        <ele>66.206367</ele>
        <time>2021-09-15T09:51:26.000Z</time>
      </trkpt>
      <trkpt lat="44.48487" lon="4.70343">
        <ele>66.296159</ele>
        <time>2021-09-15T09:51:33.000Z</time>
      </trkpt>
      <trkpt lat="44.48458" lon="4.70304">
        <ele>66.38771</ele>
        <time>2021-09-15T09:51:40.000Z</time>
      </trkpt>
      <trkpt lat="44.48432" lon="4.70272">
        <ele>66.465918</ele>
        <time>2021-09-15T09:51:46.000Z</time>
      </trkpt>
      <trkpt lat="44.48428" lon="4.70266">
        <ele>66.478769</ele>
        <time>2021-09-15T09:51:47.000Z</time>
      </trkpt>
      <trkpt lat="44.48398" lon="4.70228">
        <ele>66.568729</ele>
        <time>2021-09-15T09:51:54.000Z</time>
      </trkpt>
      <trkpt lat="44.48374" lon="4.70197">
        <ele>66.60604</ele>
        <time>2021-09-15T09:52:00.000Z</time>
      </trkpt>
      <trkpt lat="44.48348" lon="4.70164">
        <ele>66.606818</ele>
        <time>2021-09-15T09:52:06.000Z</time>
      </trkpt>
      <trkpt lat="44.48317" lon="4.70129">
        <ele>66.607725</ele>
        <time>2021-09-15T09:52:13.000Z</time>
      </trkpt>
      <trkpt lat="44.48307" lon="4.70122">
        <ele>66.607976</ele>
        <time>2021-09-15T09:52:15.000Z</time>
      </trkpt>
      <trkpt lat="44.4829" lon="4.70118">
        <ele>66.608375</ele>
        <time>2021-09-15T09:52:18.000Z</time>
      </trkpt>
      <trkpt lat="44.4825" lon="4.70113">
        <ele>66.609281</ele>
        <time>2021-09-15T09:52:25.000Z</time>
      </trkpt>
      <trkpt lat="44.48239" lon="4.70117">
        <ele>66.609529</ele>
        <time>2021-09-15T09:52:27.000Z</time>
      </trkpt>
      <trkpt lat="44.4823" lon="4.70121">
        <ele>66.622306</ele>
        <time>2021-09-15T09:52:29.000Z</time>
      </trkpt>
      <trkpt lat="44.48212" lon="4.70145">
        <ele>67.015149</ele>
        <time>2021-09-15T09:52:34.000Z</time>
      </trkpt>
      <trkpt lat="44.48193" lon="4.70151">
        <ele>67.330625</ele>
        <time>2021-09-15T09:52:38.000Z</time>
      </trkpt>
      <trkpt lat="44.4818" lon="4.70156">
        <ele>67.547998</ele>
        <time>2021-09-15T09:52:41.000Z</time>
      </trkpt>
      <trkpt lat="44.48179" lon="4.70152">
        <ele>67.588006</ele>
        <time>2021-09-15T09:52:42.000Z</time>
      </trkpt>
      <trkpt lat="44.48178" lon="4.70138">
        <ele>67.747322</ele>
        <time>2021-09-15T09:52:46.000Z</time>
      </trkpt>
      <trkpt lat="44.48175" lon="4.70108">
        <ele>68.091618</ele>
        <time>2021-09-15T09:52:53.000Z</time>
      </trkpt>
      <trkpt lat="44.48173" lon="4.70078">
        <ele>68.439292</ele>
        <time>2021-09-15T09:53:00.000Z</time>
      </trkpt>
      <trkpt lat="44.48169" lon="4.70042">
        <ele>68.85327</ele>
        <time>2021-09-15T09:53:08.000Z</time>
      </trkpt>
      <trkpt lat="44.48167" lon="4.70018">
        <ele>69.120737</ele>
        <time>2021-09-15T09:53:14.000Z</time>
      </trkpt>
      <trkpt lat="44.48165" lon="4.69996">
        <ele>69.378066</ele>
        <time>2021-09-15T09:53:20.000Z</time>
      </trkpt>
      <trkpt lat="44.48162" lon="4.6996">
        <ele>69.703715</ele>
        <time>2021-09-15T09:53:28.000Z</time>
      </trkpt>
      <trkpt lat="44.48159" lon="4.69921">
        <ele>70.032503</ele>
        <time>2021-09-15T09:53:36.000Z</time>
      </trkpt>
      <trkpt lat="44.48155" lon="4.69879">
        <ele>70.393443</ele>
        <time>2021-09-15T09:53:44.000Z</time>
      </trkpt>
      <trkpt lat="44.48151" lon="4.69834">
        <ele>70.770533</ele>
        <time>2021-09-15T09:53:52.000Z</time>
      </trkpt>
      <trkpt lat="44.4815" lon="4.69816">
        <ele>70.923931</ele>
        <time>2021-09-15T09:53:55.000Z</time>
      </trkpt>
      <trkpt lat="44.48148" lon="4.69796">
        <ele>71.098486</ele>
        <time>2021-09-15T09:53:58.000Z</time>
      </trkpt>
      <trkpt lat="44.48143" lon="4.69737">
        <ele>71.586579</ele>
        <time>2021-09-15T09:54:06.000Z</time>
      </trkpt>
      <trkpt lat="44.48138" lon="4.69683">
        <ele>71.304873</ele>
        <time>2021-09-15T09:54:13.000Z</time>
      </trkpt>
      <trkpt lat="44.48137" lon="4.69675">
        <ele>71.261648</ele>
        <time>2021-09-15T09:54:14.000Z</time>
      </trkpt>
      <trkpt lat="44.48132" lon="4.6961">
        <ele>70.921218</ele>
        <time>2021-09-15T09:54:22.000Z</time>
      </trkpt>
      <trkpt lat="44.48126" lon="4.69541">
        <ele>70.556098</ele>
        <time>2021-09-15T09:54:31.000Z</time>
      </trkpt>
      <trkpt lat="44.48124" lon="4.69519">
        <ele>70.438114</ele>
        <time>2021-09-15T09:54:34.000Z</time>
      </trkpt>
      <trkpt lat="44.48122" lon="4.69497">
        <ele>70.324111</ele>
        <time>2021-09-15T09:54:37.000Z</time>
      </trkpt>
      <trkpt lat="44.48115" lon="4.69417">
        <ele>70.186025</ele>
        <time>2021-09-15T09:54:48.000Z</time>
      </trkpt>
      <trkpt lat="44.48111" lon="4.6937">
        <ele>70.129327</ele>
        <time>2021-09-15T09:54:55.000Z</time>
      </trkpt>
      <trkpt lat="44.4811" lon="4.69357">
        <ele>70.112779</ele>
        <time>2021-09-15T09:54:57.000Z</time>
      </trkpt>
      <trkpt lat="44.48109" lon="4.69343">
        <ele>70.096471</ele>
        <time>2021-09-15T09:54:59.000Z</time>
      </trkpt>
      <trkpt lat="44.48108" lon="4.69337">
        <ele>70.088437</ele>
        <time>2021-09-15T09:55:00.000Z</time>
      </trkpt>
      <trkpt lat="44.48107" lon="4.69323">
        <ele>70.072389</ele>
        <time>2021-09-15T09:55:02.000Z</time>
      </trkpt>
      <trkpt lat="44.48105" lon="4.69304">
        <ele>70.048526</ele>
        <time>2021-09-15T09:55:05.000Z</time>
      </trkpt>
      <trkpt lat="44.48104" lon="4.69284">
        <ele>70.024803</ele>
        <time>2021-09-15T09:55:08.000Z</time>
      </trkpt>
      <trkpt lat="44.48101" lon="4.69272">
        <ele>70.009563</ele>
        <time>2021-09-15T09:55:10.000Z</time>
      </trkpt>
      <trkpt lat="44.48099" lon="4.69267">
        <ele>70.002227</ele>
        <time>2021-09-15T09:55:11.000Z</time>
      </trkpt>
      <trkpt lat="44.48098" lon="4.69261">
        <ele>69.994947</ele>
        <time>2021-09-15T09:55:12.000Z</time>
      </trkpt>
      <trkpt lat="44.48095" lon="4.6925">
        <ele>69.981298</ele>
        <time>2021-09-15T09:55:14.000Z</time>
      </trkpt>
      <trkpt lat="44.48087" lon="4.69219">
        <ele>70.423259</ele>
        <time>2021-09-15T09:55:21.000Z</time>
      </trkpt>
      <trkpt lat="44.48079" lon="4.69191">
        <ele>71.078299</ele>
        <time>2021-09-15T09:55:29.000Z</time>
      </trkpt>
      <trkpt lat="44.48073" lon="4.69166">
        <ele>71.644797</ele>
        <time>2021-09-15T09:55:37.000Z</time>
      </trkpt>
      <trkpt lat="44.48067" lon="4.69142">
        <ele>72.187128</ele>
        <time>2021-09-15T09:55:45.000Z</time>
      </trkpt>
      <trkpt lat="44.48061" lon="4.69123">
        <ele>72.627199</ele>
        <time>2021-09-15T09:55:51.000Z</time>
      </trkpt>
      <trkpt lat="44.48056" lon="4.69104">
        <ele>73.062187</ele>
        <time>2021-09-15T09:55:57.000Z</time>
      </trkpt>
      <trkpt lat="44.48047" lon="4.69073">
        <ele>73.772177</ele>
        <time>2021-09-15T09:56:07.000Z</time>
      </trkpt>
      <trkpt lat="44.48041" lon="4.69048">
        <ele>74.333853</ele>
        <time>2021-09-15T09:56:15.000Z</time>
      </trkpt>
      <trkpt lat="44.48044" lon="4.69028">
        <ele>74.777712</ele>
        <time>2021-09-15T09:56:21.000Z</time>
      </trkpt>
      <trkpt lat="44.48052" lon="4.69014">
        <ele>75.16498</ele>
        <time>2021-09-15T09:56:26.000Z</time>
      </trkpt>
      <trkpt lat="44.48068" lon="4.68994">
        <ele>75.757276</ele>
        <time>2021-09-15T09:56:33.000Z</time>
      </trkpt>
      <trkpt lat="44.48089" lon="4.68972">
        <ele>76.461128</ele>
        <time>2021-09-15T09:56:41.000Z</time>
      </trkpt>
      <trkpt lat="44.48104" lon="4.68957">
        <ele>76.940133</ele>
        <time>2021-09-15T09:56:46.000Z</time>
      </trkpt>
      <trkpt lat="44.48129" lon="4.68931">
        <ele>77.748097</ele>
        <time>2021-09-15T09:56:54.000Z</time>
      </trkpt>
      <trkpt lat="44.48153" lon="4.68913">
        <ele>78.488745</ele>
        <time>2021-09-15T09:57:02.000Z</time>
      </trkpt>
      <trkpt lat="44.48171" lon="4.68903">
        <ele>78.99744</ele>
        <time>2021-09-15T09:57:08.000Z</time>
      </trkpt>
      <trkpt lat="44.48195" lon="4.6889">
        <ele>79.69165</ele>
        <time>2021-09-15T09:57:17.000Z</time>
      </trkpt>
      <trkpt lat="44.48221" lon="4.68875">
        <ele>80.122746</ele>
        <time>2021-09-15T09:57:26.000Z</time>
      </trkpt>
      <trkpt lat="44.48245" lon="4.68862">
        <ele>80.122746</ele>
        <time>2021-09-15T09:57:35.000Z</time>
      </trkpt>
      <trkpt lat="44.48261" lon="4.68852">
        <ele>80.122746</ele>
        <time>2021-09-15T09:57:42.000Z</time>
      </trkpt>
      <trkpt lat="44.48277" lon="4.68842">
        <ele>80.122746</ele>
        <time>2021-09-15T09:57:49.000Z</time>
      </trkpt>
      <trkpt lat="44.48295" lon="4.68819">
        <ele>80.122746</ele>
        <time>2021-09-15T09:57:59.000Z</time>
      </trkpt>
      <trkpt lat="44.48305" lon="4.68797">
        <ele>80.122746</ele>
        <time>2021-09-15T09:58:05.000Z</time>
      </trkpt>
      <trkpt lat="44.4832" lon="4.68764">
        <ele>80.122746</ele>
        <time>2021-09-15T09:58:12.000Z</time>
      </trkpt>
      <trkpt lat="44.48324" lon="4.68753">
        <ele>80.122746</ele>
        <time>2021-09-15T09:58:14.000Z</time>
      </trkpt>
      <trkpt lat="44.4833" lon="4.6874">
        <ele>80.122746</ele>
        <time>2021-09-15T09:58:17.000Z</time>
      </trkpt>
      <trkpt lat="44.48341" lon="4.68716">
        <ele>80.122746</ele>
        <time>2021-09-15T09:58:23.000Z</time>
      </trkpt>
      <trkpt lat="44.48348" lon="4.68701">
        <ele>80.122746</ele>
        <time>2021-09-15T09:58:28.000Z</time>
      </trkpt>
      <trkpt lat="44.4835" lon="4.68697">
        <ele>80.122746</ele>
        <time>2021-09-15T09:58:33.000Z</time>
      </trkpt>
      <trkpt lat="44.48354" lon="4.68703">
        <ele>80.122746</ele>
        <time>2021-09-15T09:58:39.000Z</time>
      </trkpt>
      <trkpt lat="44.48358" lon="4.68704">
        <ele>80.122746</ele>
        <time>2021-09-15T09:58:41.000Z</time>
      </trkpt>
      <trkpt lat="44.48361" lon="4.68705">
        <ele>80.122746</ele>
        <time>2021-09-15T09:58:44.000Z</time>
      </trkpt>
      <trkpt lat="44.48362" lon="4.68705">
        <ele>80.122746</ele>
        <time>2021-09-15T09:58:46.000Z</time>
      </trkpt>
      <trkpt lat="44.48362" lon="4.68705">
        <ele>80.122746</ele>
        <time>2021-09-15T09:58:48.000Z</time>
      </trkpt>
      <trkpt lat="44.48369" lon="4.68706">
        <ele>80.122746</ele>
        <time>2021-09-15T09:59:05.000Z</time>
      </trkpt>
      <trkpt lat="44.48373" lon="4.68707">
        <ele>80.122746</ele>
        <time>2021-09-15T09:59:07.000Z</time>
      </trkpt>
      <trkpt lat="44.48386" lon="4.6871">
        <ele>80.122746</ele>
        <time>2021-09-15T09:59:12.000Z</time>
      </trkpt>
      <trkpt lat="44.48401" lon="4.68713">
        <ele>80.122746</ele>
        <time>2021-09-15T09:59:18.000Z</time>
      </trkpt>
      <trkpt lat="44.48401" lon="4.68713">
        <ele>80.122746</ele>
        <time>2021-09-15T09:59:21.000Z</time>
      </trkpt>
    </trkseg>
  </trk>
  <trk>
    <name><![CDATA[Étape 12 : Viviers - Avignon]]></name>
    <extensions>
      <line xmlns="http://www.topografix.com/GPX/gpx_style/0/2">
        <color>0000FF</color>
        <width>4</width>
      </line>
    </extensions>
    <trkseg>
      <trkpt lat="44.48346" lon="4.68715">
        <ele>99.313376</ele>
        <time>2021-09-16T05:56:37.000Z</time>
      </trkpt>
      <trkpt lat="44.48346" lon="4.68715">
        <ele>99.313376</ele>
        <time>2021-09-16T05:56:40.000Z</time>
      </trkpt>
      <trkpt lat="44.48347" lon="4.68714">
        <ele>99.313376</ele>
        <time>2021-09-16T05:56:41.000Z</time>
      </trkpt>
      <trkpt lat="44.48346" lon="4.68715">
        <ele>99.313376</ele>
        <time>2021-09-16T05:56:42.000Z</time>
      </trkpt>
      <trkpt lat="44.48346" lon="4.68715">
        <ele>99.313376</ele>
        <time>2021-09-16T05:56:45.000Z</time>
      </trkpt>
      <trkpt lat="44.48352" lon="4.68738">
        <ele>99.313376</ele>
        <time>2021-09-16T05:56:49.000Z</time>
      </trkpt>
      <trkpt lat="44.48354" lon="4.68753">
        <ele>99.313376</ele>
        <time>2021-09-16T05:56:53.000Z</time>
      </trkpt>
      <trkpt lat="44.48356" lon="4.68772">
        <ele>99.313376</ele>
        <time>2021-09-16T05:56:57.000Z</time>
      </trkpt>
      <trkpt lat="44.48361" lon="4.68808">
        <ele>99.313376</ele>
        <time>2021-09-16T05:57:03.000Z</time>
      </trkpt>
      <trkpt lat="44.48362" lon="4.68829">
        <ele>99.313376</ele>
        <time>2021-09-16T05:57:08.000Z</time>
      </trkpt>
      <trkpt lat="44.48361" lon="4.68835">
        <ele>99.307493</ele>
        <time>2021-09-16T05:57:09.000Z</time>
      </trkpt>
      <trkpt lat="44.48363" lon="4.68845">
        <ele>98.694522</ele>
        <time>2021-09-16T05:57:11.000Z</time>
      </trkpt>
      <trkpt lat="44.48369" lon="4.68864">
        <ele>97.497951</ele>
        <time>2021-09-16T05:57:16.000Z</time>
      </trkpt>
      <trkpt lat="44.48371" lon="4.68879">
        <ele>96.596733</ele>
        <time>2021-09-16T05:57:20.000Z</time>
      </trkpt>
      <trkpt lat="44.48371" lon="4.68903">
        <ele>95.17959</ele>
        <time>2021-09-16T05:57:24.000Z</time>
      </trkpt>
      <trkpt lat="44.48372" lon="4.68923">
        <ele>93.970731</ele>
        <time>2021-09-16T05:57:28.000Z</time>
      </trkpt>
      <trkpt lat="44.48375" lon="4.68939">
        <ele>93.015371</ele>
        <time>2021-09-16T05:57:31.000Z</time>
      </trkpt>
      <trkpt lat="44.48376" lon="4.68946">
        <ele>92.568664</ele>
        <time>2021-09-16T05:57:32.000Z</time>
      </trkpt>
      <trkpt lat="44.48378" lon="4.68955">
        <ele>92.066538</ele>
        <time>2021-09-16T05:57:33.000Z</time>
      </trkpt>
      <trkpt lat="44.48383" lon="4.68983">
        <ele>90.326889</ele>
        <time>2021-09-16T05:57:37.000Z</time>
      </trkpt>
      <trkpt lat="44.48386" lon="4.68999">
        <ele>89.390318</ele>
        <time>2021-09-16T05:57:41.000Z</time>
      </trkpt>
      <trkpt lat="44.4838" lon="4.69001">
        <ele>88.861718</ele>
        <time>2021-09-16T05:57:45.000Z</time>
      </trkpt>
      <trkpt lat="44.48377" lon="4.69003">
        <ele>88.565395</ele>
        <time>2021-09-16T05:57:46.000Z</time>
      </trkpt>
      <trkpt lat="44.48362" lon="4.69019">
        <ele>87.061761</ele>
        <time>2021-09-16T05:57:51.000Z</time>
      </trkpt>
      <trkpt lat="44.48349" lon="4.69033">
        <ele>85.696099</ele>
        <time>2021-09-16T05:57:56.000Z</time>
      </trkpt>
      <trkpt lat="44.48332" lon="4.69055">
        <ele>84.046503</ele>
        <time>2021-09-16T05:58:02.000Z</time>
      </trkpt>
      <trkpt lat="44.4832" lon="4.69072">
        <ele>83.1481</ele>
        <time>2021-09-16T05:58:06.000Z</time>
      </trkpt>
      <trkpt lat="44.48315" lon="4.69081">
        <ele>82.709771</ele>
        <time>2021-09-16T05:58:08.000Z</time>
      </trkpt>
      <trkpt lat="44.48309" lon="4.69089">
        <ele>82.259684</ele>
        <time>2021-09-16T05:58:10.000Z</time>
      </trkpt>
      <trkpt lat="44.483" lon="4.69103">
        <ele>81.571401</ele>
        <time>2021-09-16T05:58:13.000Z</time>
      </trkpt>
      <trkpt lat="44.48297" lon="4.69107">
        <ele>81.349526</ele>
        <time>2021-09-16T05:58:14.000Z</time>
      </trkpt>
      <trkpt lat="44.48295" lon="4.69112">
        <ele>81.114701</ele>
        <time>2021-09-16T05:58:15.000Z</time>
      </trkpt>
      <trkpt lat="44.48286" lon="4.69138">
        <ele>80.05928</ele>
        <time>2021-09-16T05:58:20.000Z</time>
      </trkpt>
      <trkpt lat="44.4828" lon="4.69153">
        <ele>79.406794</ele>
        <time>2021-09-16T05:58:24.000Z</time>
      </trkpt>
      <trkpt lat="44.48271" lon="4.6918">
        <ele>78.292668</ele>
        <time>2021-09-16T05:58:30.000Z</time>
      </trkpt>
      <trkpt lat="44.48267" lon="4.69191">
        <ele>77.847838</ele>
        <time>2021-09-16T05:58:32.000Z</time>
      </trkpt>
      <trkpt lat="44.48257" lon="4.692">
        <ele>77.20419</ele>
        <time>2021-09-16T05:58:35.000Z</time>
      </trkpt>
      <trkpt lat="44.48244" lon="4.69209">
        <ele>76.419969</ele>
        <time>2021-09-16T05:58:38.000Z</time>
      </trkpt>
      <trkpt lat="44.48234" lon="4.69215">
        <ele>75.879758</ele>
        <time>2021-09-16T05:58:40.000Z</time>
      </trkpt>
      <trkpt lat="44.48204" lon="4.69232">
        <ele>74.444512</ele>
        <time>2021-09-16T05:58:46.000Z</time>
      </trkpt>
      <trkpt lat="44.48179" lon="4.69247">
        <ele>73.442697</ele>
        <time>2021-09-16T05:58:51.000Z</time>
      </trkpt>
      <trkpt lat="44.48173" lon="4.6925">
        <ele>73.237106</ele>
        <time>2021-09-16T05:58:52.000Z</time>
      </trkpt>
      <trkpt lat="44.48147" lon="4.69263">
        <ele>72.211988</ele>
        <time>2021-09-16T05:58:57.000Z</time>
      </trkpt>
      <trkpt lat="44.48142" lon="4.69265">
        <ele>72.019296</ele>
        <time>2021-09-16T05:58:58.000Z</time>
      </trkpt>
      <trkpt lat="44.48137" lon="4.69267">
        <ele>71.831728</ele>
        <time>2021-09-16T05:58:59.000Z</time>
      </trkpt>
      <trkpt lat="44.48118" lon="4.69277">
        <ele>71.116637</ele>
        <time>2021-09-16T05:59:03.000Z</time>
      </trkpt>
      <trkpt lat="44.48108" lon="4.69281">
        <ele>70.725255</ele>
        <time>2021-09-16T05:59:07.000Z</time>
      </trkpt>
      <trkpt lat="44.48108" lon="4.69281">
        <ele>70.725255</ele>
        <time>2021-09-16T05:59:09.000Z</time>
      </trkpt>
      <trkpt lat="44.48104" lon="4.69284">
        <ele>70.552263</ele>
        <time>2021-09-16T05:59:33.000Z</time>
      </trkpt>
      <trkpt lat="44.48104" lon="4.69288">
        <ele>70.450223</ele>
        <time>2021-09-16T05:59:34.000Z</time>
      </trkpt>
      <trkpt lat="44.48106" lon="4.69306">
        <ele>69.977887</ele>
        <time>2021-09-16T05:59:38.000Z</time>
      </trkpt>
      <trkpt lat="44.48111" lon="4.6937">
        <ele>68.45296</ele>
        <time>2021-09-16T05:59:47.000Z</time>
      </trkpt>
      <trkpt lat="44.48116" lon="4.69426">
        <ele>68.09391</ele>
        <time>2021-09-16T05:59:55.000Z</time>
      </trkpt>
      <trkpt lat="44.48121" lon="4.69481">
        <ele>67.7355</ele>
        <time>2021-09-16T06:00:02.000Z</time>
      </trkpt>
      <trkpt lat="44.48124" lon="4.69514">
        <ele>67.517317</ele>
        <time>2021-09-16T06:00:06.000Z</time>
      </trkpt>
      <trkpt lat="44.48119" lon="4.69545">
        <ele>67.314838</ele>
        <time>2021-09-16T06:00:10.000Z</time>
      </trkpt>
      <trkpt lat="44.48119" lon="4.69575">
        <ele>67.120251</ele>
        <time>2021-09-16T06:00:15.000Z</time>
      </trkpt>
      <trkpt lat="44.48122" lon="4.69605">
        <ele>66.926779</ele>
        <time>2021-09-16T06:00:20.000Z</time>
      </trkpt>
      <trkpt lat="44.48125" lon="4.69641">
        <ele>66.846782</ele>
        <time>2021-09-16T06:00:26.000Z</time>
      </trkpt>
      <trkpt lat="44.48126" lon="4.69656">
        <ele>66.829049</ele>
        <time>2021-09-16T06:00:29.000Z</time>
      </trkpt>
      <trkpt lat="44.48126" lon="4.69662">
        <ele>66.821795</ele>
        <time>2021-09-16T06:00:30.000Z</time>
      </trkpt>
      <trkpt lat="44.48127" lon="4.69669">
        <ele>66.81396</ele>
        <time>2021-09-16T06:00:31.000Z</time>
      </trkpt>
      <trkpt lat="44.48128" lon="4.69695">
        <ele>66.782073</ele>
        <time>2021-09-16T06:00:35.000Z</time>
      </trkpt>
      <trkpt lat="44.48125" lon="4.69719">
        <ele>66.75284</ele>
        <time>2021-09-16T06:00:39.000Z</time>
      </trkpt>
      <trkpt lat="44.48106" lon="4.69753">
        <ele>66.701599</ele>
        <time>2021-09-16T06:00:45.000Z</time>
      </trkpt>
      <trkpt lat="44.48096" lon="4.69753">
        <ele>66.683757</ele>
        <time>2021-09-16T06:00:48.000Z</time>
      </trkpt>
      <trkpt lat="44.48085" lon="4.69753">
        <ele>66.665901</ele>
        <time>2021-09-16T06:00:49.000Z</time>
      </trkpt>
      <trkpt lat="44.48059" lon="4.69754">
        <ele>66.62091</ele>
        <time>2021-09-16T06:00:54.000Z</time>
      </trkpt>
      <trkpt lat="44.48047" lon="4.69756">
        <ele>66.601173</ele>
        <time>2021-09-16T06:00:56.000Z</time>
      </trkpt>
      <trkpt lat="44.48041" lon="4.69756">
        <ele>66.591057</ele>
        <time>2021-09-16T06:00:57.000Z</time>
      </trkpt>
      <trkpt lat="44.48022" lon="4.69758">
        <ele>66.654653</ele>
        <time>2021-09-16T06:01:01.000Z</time>
      </trkpt>
      <trkpt lat="44.47992" lon="4.69761">
        <ele>66.845117</ele>
        <time>2021-09-16T06:01:05.000Z</time>
      </trkpt>
      <trkpt lat="44.47981" lon="4.69763">
        <ele>66.910671</ele>
        <time>2021-09-16T06:01:07.000Z</time>
      </trkpt>
      <trkpt lat="44.47971" lon="4.69766">
        <ele>66.97561</ele>
        <time>2021-09-16T06:01:09.000Z</time>
      </trkpt>
      <trkpt lat="44.4794" lon="4.69772">
        <ele>67.1735</ele>
        <time>2021-09-16T06:01:14.000Z</time>
      </trkpt>
      <trkpt lat="44.47902" lon="4.6977">
        <ele>67.41169</ele>
        <time>2021-09-16T06:01:20.000Z</time>
      </trkpt>
      <trkpt lat="44.4787" lon="4.69772">
        <ele>67.609325</ele>
        <time>2021-09-16T06:01:25.000Z</time>
      </trkpt>
      <trkpt lat="44.47851" lon="4.69774">
        <ele>67.681951</ele>
        <time>2021-09-16T06:01:28.000Z</time>
      </trkpt>
      <trkpt lat="44.47846" lon="4.69775">
        <ele>67.657988</ele>
        <time>2021-09-16T06:01:29.000Z</time>
      </trkpt>
      <trkpt lat="44.4784" lon="4.69776">
        <ele>67.634458</ele>
        <time>2021-09-16T06:01:30.000Z</time>
      </trkpt>
      <trkpt lat="44.4783" lon="4.69777">
        <ele>67.589989</ele>
        <time>2021-09-16T06:01:32.000Z</time>
      </trkpt>
      <trkpt lat="44.47819" lon="4.69779">
        <ele>67.539444</ele>
        <time>2021-09-16T06:01:34.000Z</time>
      </trkpt>
      <trkpt lat="44.47812" lon="4.6978">
        <ele>67.510209</ele>
        <time>2021-09-16T06:01:35.000Z</time>
      </trkpt>
      <trkpt lat="44.47753" lon="4.69788">
        <ele>67.2524</ele>
        <time>2021-09-16T06:01:44.000Z</time>
      </trkpt>
      <trkpt lat="44.47727" lon="4.6979">
        <ele>67.142414</ele>
        <time>2021-09-16T06:01:48.000Z</time>
      </trkpt>
      <trkpt lat="44.47689" lon="4.69794">
        <ele>66.973301</ele>
        <time>2021-09-16T06:01:54.000Z</time>
      </trkpt>
      <trkpt lat="44.47642" lon="4.698">
        <ele>66.203176</ele>
        <time>2021-09-16T06:02:01.000Z</time>
      </trkpt>
      <trkpt lat="44.47617" lon="4.69805">
        <ele>65.676629</ele>
        <time>2021-09-16T06:02:05.000Z</time>
      </trkpt>
      <trkpt lat="44.47611" lon="4.69807">
        <ele>65.540117</ele>
        <time>2021-09-16T06:02:06.000Z</time>
      </trkpt>
      <trkpt lat="44.47578" lon="4.69817">
        <ele>64.847827</ele>
        <time>2021-09-16T06:02:11.000Z</time>
      </trkpt>
      <trkpt lat="44.47553" lon="4.69822">
        <ele>64.310536</ele>
        <time>2021-09-16T06:02:15.000Z</time>
      </trkpt>
      <trkpt lat="44.47509" lon="4.69824">
        <ele>63.394168</ele>
        <time>2021-09-16T06:02:22.000Z</time>
      </trkpt>
      <trkpt lat="44.4748" lon="4.69823">
        <ele>62.810383</ele>
        <time>2021-09-16T06:02:28.000Z</time>
      </trkpt>
      <trkpt lat="44.47435" lon="4.69821">
        <ele>61.941047</ele>
        <time>2021-09-16T06:02:35.000Z</time>
      </trkpt>
      <trkpt lat="44.4737" lon="4.69818">
        <ele>60.688021</ele>
        <time>2021-09-16T06:02:44.000Z</time>
      </trkpt>
      <trkpt lat="44.4732" lon="4.69815">
        <ele>59.724774</ele>
        <time>2021-09-16T06:02:52.000Z</time>
      </trkpt>
      <trkpt lat="44.47316" lon="4.69815">
        <ele>59.683721</ele>
        <time>2021-09-16T06:02:55.000Z</time>
      </trkpt>
      <trkpt lat="44.47315" lon="4.69808">
        <ele>59.681493</ele>
        <time>2021-09-16T06:02:56.000Z</time>
      </trkpt>
      <trkpt lat="44.47315" lon="4.69805">
        <ele>59.680365</ele>
        <time>2021-09-16T06:02:58.000Z</time>
      </trkpt>
      <trkpt lat="44.47316" lon="4.69802">
        <ele>59.679311</ele>
        <time>2021-09-16T06:02:59.000Z</time>
      </trkpt>
      <trkpt lat="44.47319" lon="4.69782">
        <ele>59.672601</ele>
        <time>2021-09-16T06:03:03.000Z</time>
      </trkpt>
      <trkpt lat="44.47322" lon="4.69769">
        <ele>59.668265</ele>
        <time>2021-09-16T06:03:05.000Z</time>
      </trkpt>
      <trkpt lat="44.47322" lon="4.69762">
        <ele>59.665729</ele>
        <time>2021-09-16T06:03:06.000Z</time>
      </trkpt>
      <trkpt lat="44.47323" lon="4.69706">
        <ele>59.647225</ele>
        <time>2021-09-16T06:03:14.000Z</time>
      </trkpt>
      <trkpt lat="44.47319" lon="4.69687">
        <ele>59.640846</ele>
        <time>2021-09-16T06:03:17.000Z</time>
      </trkpt>
      <trkpt lat="44.47315" lon="4.69673">
        <ele>59.635785</ele>
        <time>2021-09-16T06:03:20.000Z</time>
      </trkpt>
      <trkpt lat="44.47299" lon="4.69649">
        <ele>59.624957</ele>
        <time>2021-09-16T06:03:26.000Z</time>
      </trkpt>
      <trkpt lat="44.47298" lon="4.69645">
        <ele>59.623291</ele>
        <time>2021-09-16T06:03:27.000Z</time>
      </trkpt>
      <trkpt lat="44.47297" lon="4.69638">
        <ele>59.620968</ele>
        <time>2021-09-16T06:03:29.000Z</time>
      </trkpt>
      <trkpt lat="44.47286" lon="4.69638">
        <ele>59.616089</ele>
        <time>2021-09-16T06:03:32.000Z</time>
      </trkpt>
      <trkpt lat="44.47265" lon="4.6964">
        <ele>59.606205</ele>
        <time>2021-09-16T06:03:38.000Z</time>
      </trkpt>
      <trkpt lat="44.47228" lon="4.69642">
        <ele>59.70821</ele>
        <time>2021-09-16T06:03:44.000Z</time>
      </trkpt>
      <trkpt lat="44.47198" lon="4.69643">
        <ele>59.832936</ele>
        <time>2021-09-16T06:03:50.000Z</time>
      </trkpt>
      <trkpt lat="44.47141" lon="4.69648">
        <ele>60.066847</ele>
        <time>2021-09-16T06:03:58.000Z</time>
      </trkpt>
      <trkpt lat="44.47103" lon="4.69644">
        <ele>60.22289</ele>
        <time>2021-09-16T06:04:04.000Z</time>
      </trkpt>
      <trkpt lat="44.47069" lon="4.69645">
        <ele>60.362913</ele>
        <time>2021-09-16T06:04:09.000Z</time>
      </trkpt>
      <trkpt lat="44.47042" lon="4.69647">
        <ele>60.478885</ele>
        <time>2021-09-16T06:04:13.000Z</time>
      </trkpt>
      <trkpt lat="44.46985" lon="4.69651">
        <ele>60.721491</ele>
        <time>2021-09-16T06:04:21.000Z</time>
      </trkpt>
      <trkpt lat="44.46943" lon="4.69653">
        <ele>60.898852</ele>
        <time>2021-09-16T06:04:27.000Z</time>
      </trkpt>
      <trkpt lat="44.46895" lon="4.69657">
        <ele>61.103935</ele>
        <time>2021-09-16T06:04:34.000Z</time>
      </trkpt>
      <trkpt lat="44.46846" lon="4.6966">
        <ele>61.392875</ele>
        <time>2021-09-16T06:04:41.000Z</time>
      </trkpt>
      <trkpt lat="44.46832" lon="4.69663">
        <ele>61.471772</ele>
        <time>2021-09-16T06:04:43.000Z</time>
      </trkpt>
      <trkpt lat="44.46812" lon="4.6967">
        <ele>61.59299</ele>
        <time>2021-09-16T06:04:46.000Z</time>
      </trkpt>
      <trkpt lat="44.46773" lon="4.69683">
        <ele>61.830381</ele>
        <time>2021-09-16T06:04:52.000Z</time>
      </trkpt>
      <trkpt lat="44.46766" lon="4.69686">
        <ele>61.869585</ele>
        <time>2021-09-16T06:04:53.000Z</time>
      </trkpt>
      <trkpt lat="44.46753" lon="4.6969">
        <ele>61.94856</ele>
        <time>2021-09-16T06:04:55.000Z</time>
      </trkpt>
      <trkpt lat="44.46747" lon="4.69693">
        <ele>61.987764</ele>
        <time>2021-09-16T06:04:56.000Z</time>
      </trkpt>
      <trkpt lat="44.46734" lon="4.69697">
        <ele>62.067874</ele>
        <time>2021-09-16T06:04:58.000Z</time>
      </trkpt>
      <trkpt lat="44.46714" lon="4.69704">
        <ele>62.164019</ele>
        <time>2021-09-16T06:05:01.000Z</time>
      </trkpt>
      <trkpt lat="44.46668" lon="4.6972">
        <ele>62.234668</ele>
        <time>2021-09-16T06:05:08.000Z</time>
      </trkpt>
      <trkpt lat="44.46622" lon="4.69736">
        <ele>62.303954</ele>
        <time>2021-09-16T06:05:15.000Z</time>
      </trkpt>
      <trkpt lat="44.46603" lon="4.69743">
        <ele>62.333404</ele>
        <time>2021-09-16T06:05:18.000Z</time>
      </trkpt>
      <trkpt lat="44.46589" lon="4.69748">
        <ele>62.353309</ele>
        <time>2021-09-16T06:05:20.000Z</time>
      </trkpt>
      <trkpt lat="44.4655" lon="4.69758">
        <ele>62.411968</ele>
        <time>2021-09-16T06:05:26.000Z</time>
      </trkpt>
      <trkpt lat="44.4653" lon="4.69761">
        <ele>62.406525</ele>
        <time>2021-09-16T06:05:29.000Z</time>
      </trkpt>
      <trkpt lat="44.46516" lon="4.69763">
        <ele>62.390662</ele>
        <time>2021-09-16T06:05:31.000Z</time>
      </trkpt>
      <trkpt lat="44.46475" lon="4.69768">
        <ele>62.343307</ele>
        <time>2021-09-16T06:05:37.000Z</time>
      </trkpt>
      <trkpt lat="44.4644" lon="4.69772">
        <ele>62.304067</ele>
        <time>2021-09-16T06:05:42.000Z</time>
      </trkpt>
      <trkpt lat="44.464" lon="4.69776">
        <ele>62.257852</ele>
        <time>2021-09-16T06:05:48.000Z</time>
      </trkpt>
      <trkpt lat="44.46369" lon="4.69778">
        <ele>62.222802</ele>
        <time>2021-09-16T06:05:53.000Z</time>
      </trkpt>
      <trkpt lat="44.46363" lon="4.69778">
        <ele>62.225221</ele>
        <time>2021-09-16T06:05:54.000Z</time>
      </trkpt>
      <trkpt lat="44.46324" lon="4.69782">
        <ele>62.402733</ele>
        <time>2021-09-16T06:06:00.000Z</time>
      </trkpt>
      <trkpt lat="44.46291" lon="4.69784">
        <ele>62.55723</ele>
        <time>2021-09-16T06:06:05.000Z</time>
      </trkpt>
      <trkpt lat="44.46256" lon="4.69785">
        <ele>62.716731</ele>
        <time>2021-09-16T06:06:10.000Z</time>
      </trkpt>
      <trkpt lat="44.46229" lon="4.69785">
        <ele>62.842025</ele>
        <time>2021-09-16T06:06:14.000Z</time>
      </trkpt>
      <trkpt lat="44.46216" lon="4.69786">
        <ele>62.903051</ele>
        <time>2021-09-16T06:06:16.000Z</time>
      </trkpt>
      <trkpt lat="44.46196" lon="4.69789">
        <ele>62.997099</ele>
        <time>2021-09-16T06:06:19.000Z</time>
      </trkpt>
      <trkpt lat="44.46189" lon="4.69791">
        <ele>63.027727</ele>
        <time>2021-09-16T06:06:20.000Z</time>
      </trkpt>
      <trkpt lat="44.46163" lon="4.69798">
        <ele>63.172864</ele>
        <time>2021-09-16T06:06:24.000Z</time>
      </trkpt>
      <trkpt lat="44.46122" lon="4.69809">
        <ele>63.401739</ele>
        <time>2021-09-16T06:06:30.000Z</time>
      </trkpt>
      <trkpt lat="44.46075" lon="4.69816">
        <ele>63.666641</ele>
        <time>2021-09-16T06:06:37.000Z</time>
      </trkpt>
      <trkpt lat="44.46027" lon="4.69815">
        <ele>63.933446</ele>
        <time>2021-09-16T06:06:44.000Z</time>
      </trkpt>
      <trkpt lat="44.45978" lon="4.69808">
        <ele>64.048749</ele>
        <time>2021-09-16T06:06:51.000Z</time>
      </trkpt>
      <trkpt lat="44.45931" lon="4.698">
        <ele>64.055962</ele>
        <time>2021-09-16T06:06:58.000Z</time>
      </trkpt>
      <trkpt lat="44.45918" lon="4.69798">
        <ele>64.057901</ele>
        <time>2021-09-16T06:07:00.000Z</time>
      </trkpt>
      <trkpt lat="44.45905" lon="4.69796">
        <ele>64.059795</ele>
        <time>2021-09-16T06:07:02.000Z</time>
      </trkpt>
      <trkpt lat="44.45867" lon="4.69787">
        <ele>64.065644</ele>
        <time>2021-09-16T06:07:08.000Z</time>
      </trkpt>
      <trkpt lat="44.45861" lon="4.69786">
        <ele>64.066638</ele>
        <time>2021-09-16T06:07:09.000Z</time>
      </trkpt>
      <trkpt lat="44.45847" lon="4.69782">
        <ele>64.068735</ele>
        <time>2021-09-16T06:07:11.000Z</time>
      </trkpt>
      <trkpt lat="44.45833" lon="4.69778">
        <ele>64.070816</ele>
        <time>2021-09-16T06:07:13.000Z</time>
      </trkpt>
      <trkpt lat="44.4582" lon="4.69775">
        <ele>64.061535</ele>
        <time>2021-09-16T06:07:15.000Z</time>
      </trkpt>
      <trkpt lat="44.45801" lon="4.6977">
        <ele>64.039982</ele>
        <time>2021-09-16T06:07:18.000Z</time>
      </trkpt>
      <trkpt lat="44.45795" lon="4.69769">
        <ele>64.033</ele>
        <time>2021-09-16T06:07:19.000Z</time>
      </trkpt>
      <trkpt lat="44.45771" lon="4.69762">
        <ele>64.003984</ele>
        <time>2021-09-16T06:07:23.000Z</time>
      </trkpt>
      <trkpt lat="44.45739" lon="4.69753">
        <ele>63.966626</ele>
        <time>2021-09-16T06:07:28.000Z</time>
      </trkpt>
      <trkpt lat="44.45707" lon="4.69744">
        <ele>63.929411</ele>
        <time>2021-09-16T06:07:33.000Z</time>
      </trkpt>
      <trkpt lat="44.45694" lon="4.6974">
        <ele>63.914439</ele>
        <time>2021-09-16T06:07:35.000Z</time>
      </trkpt>
      <trkpt lat="44.45675" lon="4.69735">
        <ele>63.892325</ele>
        <time>2021-09-16T06:07:38.000Z</time>
      </trkpt>
      <trkpt lat="44.45634" lon="4.69722">
        <ele>63.855008</ele>
        <time>2021-09-16T06:07:44.000Z</time>
      </trkpt>
      <trkpt lat="44.45595" lon="4.69707">
        <ele>63.832617</ele>
        <time>2021-09-16T06:07:50.000Z</time>
      </trkpt>
      <trkpt lat="44.45577" lon="4.697">
        <ele>63.822091</ele>
        <time>2021-09-16T06:07:53.000Z</time>
      </trkpt>
      <trkpt lat="44.45571" lon="4.69698">
        <ele>63.818308</ele>
        <time>2021-09-16T06:07:54.000Z</time>
      </trkpt>
      <trkpt lat="44.45557" lon="4.69693">
        <ele>63.810516</ele>
        <time>2021-09-16T06:07:56.000Z</time>
      </trkpt>
      <trkpt lat="44.45544" lon="4.69688">
        <ele>63.80266</ele>
        <time>2021-09-16T06:07:58.000Z</time>
      </trkpt>
      <trkpt lat="44.45531" lon="4.69681">
        <ele>63.795034</ele>
        <time>2021-09-16T06:08:00.000Z</time>
      </trkpt>
      <trkpt lat="44.45515" lon="4.69672">
        <ele>63.784971</ele>
        <time>2021-09-16T06:08:03.000Z</time>
      </trkpt>
      <trkpt lat="44.45503" lon="4.69665">
        <ele>63.777879</ele>
        <time>2021-09-16T06:08:05.000Z</time>
      </trkpt>
      <trkpt lat="44.45491" lon="4.69658">
        <ele>63.770667</ele>
        <time>2021-09-16T06:08:07.000Z</time>
      </trkpt>
      <trkpt lat="44.45456" lon="4.69638">
        <ele>63.745014</ele>
        <time>2021-09-16T06:08:13.000Z</time>
      </trkpt>
      <trkpt lat="44.45427" lon="4.69621">
        <ele>63.722706</ele>
        <time>2021-09-16T06:08:18.000Z</time>
      </trkpt>
      <trkpt lat="44.4542" lon="4.69618">
        <ele>63.71778</ele>
        <time>2021-09-16T06:08:19.000Z</time>
      </trkpt>
      <trkpt lat="44.45414" lon="4.69614">
        <ele>63.712618</ele>
        <time>2021-09-16T06:08:20.000Z</time>
      </trkpt>
      <trkpt lat="44.45402" lon="4.69611">
        <ele>63.704154</ele>
        <time>2021-09-16T06:08:22.000Z</time>
      </trkpt>
      <trkpt lat="44.45389" lon="4.69608">
        <ele>63.694704</ele>
        <time>2021-09-16T06:08:24.000Z</time>
      </trkpt>
      <trkpt lat="44.45374" lon="4.69609">
        <ele>63.684113</ele>
        <time>2021-09-16T06:08:26.000Z</time>
      </trkpt>
      <trkpt lat="44.45332" lon="4.69613">
        <ele>63.653843</ele>
        <time>2021-09-16T06:08:33.000Z</time>
      </trkpt>
      <trkpt lat="44.45322" lon="4.69614">
        <ele>63.646544</ele>
        <time>2021-09-16T06:08:35.000Z</time>
      </trkpt>
      <trkpt lat="44.45302" lon="4.69614">
        <ele>63.612508</ele>
        <time>2021-09-16T06:08:39.000Z</time>
      </trkpt>
      <trkpt lat="44.45291" lon="4.69614">
        <ele>63.56646</ele>
        <time>2021-09-16T06:08:41.000Z</time>
      </trkpt>
      <trkpt lat="44.45281" lon="4.6961">
        <ele>63.516515</ele>
        <time>2021-09-16T06:08:43.000Z</time>
      </trkpt>
      <trkpt lat="44.45273" lon="4.696">
        <ele>63.468248</ele>
        <time>2021-09-16T06:08:46.000Z</time>
      </trkpt>
      <trkpt lat="44.45264" lon="4.69583">
        <ele>63.403299</ele>
        <time>2021-09-16T06:08:51.000Z</time>
      </trkpt>
      <trkpt lat="44.45263" lon="4.69581">
        <ele>63.394728</ele>
        <time>2021-09-16T06:08:52.000Z</time>
      </trkpt>
      <trkpt lat="44.45252" lon="4.69582">
        <ele>63.343594</ele>
        <time>2021-09-16T06:08:55.000Z</time>
      </trkpt>
      <trkpt lat="44.45244" lon="4.69592">
        <ele>63.296653</ele>
        <time>2021-09-16T06:09:01.000Z</time>
      </trkpt>
      <trkpt lat="44.45238" lon="4.696">
        <ele>63.257333</ele>
        <time>2021-09-16T06:09:03.000Z</time>
      </trkpt>
      <trkpt lat="44.45232" lon="4.69603">
        <ele>63.231363</ele>
        <time>2021-09-16T06:09:04.000Z</time>
      </trkpt>
      <trkpt lat="44.45224" lon="4.69607">
        <ele>63.192702</ele>
        <time>2021-09-16T06:09:05.000Z</time>
      </trkpt>
      <trkpt lat="44.45213" lon="4.69598">
        <ele>63.136694</ele>
        <time>2021-09-16T06:09:07.000Z</time>
      </trkpt>
      <trkpt lat="44.45204" lon="4.69591">
        <ele>63.090826</ele>
        <time>2021-09-16T06:09:09.000Z</time>
      </trkpt>
      <trkpt lat="44.45188" lon="4.69579">
        <ele>63.007442</ele>
        <time>2021-09-16T06:09:12.000Z</time>
      </trkpt>
      <trkpt lat="44.4515" lon="4.69548">
        <ele>62.804325</ele>
        <time>2021-09-16T06:09:18.000Z</time>
      </trkpt>
      <trkpt lat="44.45118" lon="4.69526">
        <ele>62.600928</ele>
        <time>2021-09-16T06:09:23.000Z</time>
      </trkpt>
      <trkpt lat="44.45065" lon="4.69498">
        <ele>62.278549</ele>
        <time>2021-09-16T06:09:31.000Z</time>
      </trkpt>
      <trkpt lat="44.45014" lon="4.69471">
        <ele>61.965043</ele>
        <time>2021-09-16T06:09:39.000Z</time>
      </trkpt>
      <trkpt lat="44.44963" lon="4.69446">
        <ele>61.728863</ele>
        <time>2021-09-16T06:09:47.000Z</time>
      </trkpt>
      <trkpt lat="44.44957" lon="4.69442">
        <ele>61.71007</ele>
        <time>2021-09-16T06:09:48.000Z</time>
      </trkpt>
      <trkpt lat="44.4492" lon="4.69424">
        <ele>61.600834</ele>
        <time>2021-09-16T06:09:54.000Z</time>
      </trkpt>
      <trkpt lat="44.44914" lon="4.69417">
        <ele>61.580885</ele>
        <time>2021-09-16T06:09:55.000Z</time>
      </trkpt>
      <trkpt lat="44.44909" lon="4.69409">
        <ele>61.561033</ele>
        <time>2021-09-16T06:09:56.000Z</time>
      </trkpt>
      <trkpt lat="44.44907" lon="4.69394">
        <ele>61.528893</ele>
        <time>2021-09-16T06:09:58.000Z</time>
      </trkpt>
      <trkpt lat="44.44904" lon="4.69342">
        <ele>61.425941</ele>
        <time>2021-09-16T06:10:04.000Z</time>
      </trkpt>
      <trkpt lat="44.44902" lon="4.69287">
        <ele>61.317452</ele>
        <time>2021-09-16T06:10:10.000Z</time>
      </trkpt>
      <trkpt lat="44.44902" lon="4.69278">
        <ele>61.298489</ele>
        <time>2021-09-16T06:10:11.000Z</time>
      </trkpt>
      <trkpt lat="44.44891" lon="4.69264">
        <ele>61.240727</ele>
        <time>2021-09-16T06:10:13.000Z</time>
      </trkpt>
      <trkpt lat="44.44878" lon="4.69261">
        <ele>61.188593</ele>
        <time>2021-09-16T06:10:15.000Z</time>
      </trkpt>
      <trkpt lat="44.44871" lon="4.69261">
        <ele>61.161595</ele>
        <time>2021-09-16T06:10:16.000Z</time>
      </trkpt>
      <trkpt lat="44.4483" lon="4.69267">
        <ele>60.997543</ele>
        <time>2021-09-16T06:10:22.000Z</time>
      </trkpt>
      <trkpt lat="44.44805" lon="4.69271">
        <ele>60.897739</ele>
        <time>2021-09-16T06:10:26.000Z</time>
      </trkpt>
      <trkpt lat="44.44799" lon="4.69272">
        <ele>60.872688</ele>
        <time>2021-09-16T06:10:27.000Z</time>
      </trkpt>
      <trkpt lat="44.44793" lon="4.6927">
        <ele>60.848584</ele>
        <time>2021-09-16T06:10:28.000Z</time>
      </trkpt>
      <trkpt lat="44.44781" lon="4.69268">
        <ele>60.800333</ele>
        <time>2021-09-16T06:10:30.000Z</time>
      </trkpt>
      <trkpt lat="44.4477" lon="4.69261">
        <ele>60.752996</ele>
        <time>2021-09-16T06:10:32.000Z</time>
      </trkpt>
      <trkpt lat="44.44753" lon="4.69249">
        <ele>60.676938</ele>
        <time>2021-09-16T06:10:35.000Z</time>
      </trkpt>
      <trkpt lat="44.44731" lon="4.6923">
        <ele>60.560369</ele>
        <time>2021-09-16T06:10:39.000Z</time>
      </trkpt>
      <trkpt lat="44.44721" lon="4.69222">
        <ele>60.477306</ele>
        <time>2021-09-16T06:10:41.000Z</time>
      </trkpt>
      <trkpt lat="44.44709" lon="4.69213">
        <ele>60.377217</ele>
        <time>2021-09-16T06:10:43.000Z</time>
      </trkpt>
      <trkpt lat="44.44679" lon="4.6919">
        <ele>60.119825</ele>
        <time>2021-09-16T06:10:48.000Z</time>
      </trkpt>
      <trkpt lat="44.44653" lon="4.69171">
        <ele>59.899058</ele>
        <time>2021-09-16T06:10:52.000Z</time>
      </trkpt>
      <trkpt lat="44.4464" lon="4.69163">
        <ele>59.795515</ele>
        <time>2021-09-16T06:10:54.000Z</time>
      </trkpt>
      <trkpt lat="44.44628" lon="4.69155">
        <ele>59.695745</ele>
        <time>2021-09-16T06:10:56.000Z</time>
      </trkpt>
      <trkpt lat="44.44621" lon="4.69152">
        <ele>59.642651</ele>
        <time>2021-09-16T06:10:57.000Z</time>
      </trkpt>
      <trkpt lat="44.446" lon="4.69142">
        <ele>59.473951</ele>
        <time>2021-09-16T06:11:00.000Z</time>
      </trkpt>
      <trkpt lat="44.44573" lon="4.69131">
        <ele>59.267934</ele>
        <time>2021-09-16T06:11:04.000Z</time>
      </trkpt>
      <trkpt lat="44.44567" lon="4.69128">
        <ele>59.225631</ele>
        <time>2021-09-16T06:11:05.000Z</time>
      </trkpt>
      <trkpt lat="44.44534" lon="4.69114">
        <ele>59.037479</ele>
        <time>2021-09-16T06:11:10.000Z</time>
      </trkpt>
      <trkpt lat="44.44493" lon="4.69096">
        <ele>58.806949</ele>
        <time>2021-09-16T06:11:16.000Z</time>
      </trkpt>
      <trkpt lat="44.44458" lon="4.69074">
        <ele>58.599112</ele>
        <time>2021-09-16T06:11:21.000Z</time>
      </trkpt>
      <trkpt lat="44.44452" lon="4.69069">
        <ele>58.561226</ele>
        <time>2021-09-16T06:11:22.000Z</time>
      </trkpt>
      <trkpt lat="44.4443" lon="4.69046">
        <ele>58.413963</ele>
        <time>2021-09-16T06:11:26.000Z</time>
      </trkpt>
      <trkpt lat="44.44421" lon="4.69036">
        <ele>58.350479</ele>
        <time>2021-09-16T06:11:28.000Z</time>
      </trkpt>
      <trkpt lat="44.44416" lon="4.69032">
        <ele>58.320749</ele>
        <time>2021-09-16T06:11:29.000Z</time>
      </trkpt>
      <trkpt lat="44.44412" lon="4.69029">
        <ele>58.294133</ele>
        <time>2021-09-16T06:11:30.000Z</time>
      </trkpt>
      <trkpt lat="44.44397" lon="4.69038">
        <ele>58.322443</ele>
        <time>2021-09-16T06:11:32.000Z</time>
      </trkpt>
      <trkpt lat="44.44395" lon="4.69042">
        <ele>58.338787</ele>
        <time>2021-09-16T06:11:34.000Z</time>
      </trkpt>
      <trkpt lat="44.44386" lon="4.69056">
        <ele>58.395441</ele>
        <time>2021-09-16T06:11:35.000Z</time>
      </trkpt>
      <trkpt lat="44.44377" lon="4.69047">
        <ele>58.443011</ele>
        <time>2021-09-16T06:11:37.000Z</time>
      </trkpt>
      <trkpt lat="44.44373" lon="4.69042">
        <ele>58.467431</ele>
        <time>2021-09-16T06:11:38.000Z</time>
      </trkpt>
      <trkpt lat="44.4437" lon="4.69035">
        <ele>58.49238</ele>
        <time>2021-09-16T06:11:39.000Z</time>
      </trkpt>
      <trkpt lat="44.44364" lon="4.6902">
        <ele>58.544528</ele>
        <time>2021-09-16T06:11:41.000Z</time>
      </trkpt>
      <trkpt lat="44.44358" lon="4.69006">
        <ele>58.59566</ele>
        <time>2021-09-16T06:11:43.000Z</time>
      </trkpt>
      <trkpt lat="44.44351" lon="4.68993">
        <ele>58.646945</ele>
        <time>2021-09-16T06:11:45.000Z</time>
      </trkpt>
      <trkpt lat="44.44334" lon="4.68973">
        <ele>58.74133</ele>
        <time>2021-09-16T06:11:49.000Z</time>
      </trkpt>
      <trkpt lat="44.44312" lon="4.6894">
        <ele>58.880138</ele>
        <time>2021-09-16T06:11:54.000Z</time>
      </trkpt>
      <trkpt lat="44.4429" lon="4.68906">
        <ele>59.020391</ele>
        <time>2021-09-16T06:11:59.000Z</time>
      </trkpt>
      <trkpt lat="44.44283" lon="4.68896">
        <ele>59.045788</ele>
        <time>2021-09-16T06:12:01.000Z</time>
      </trkpt>
      <trkpt lat="44.44279" lon="4.6889">
        <ele>59.042575</ele>
        <time>2021-09-16T06:12:02.000Z</time>
      </trkpt>
      <trkpt lat="44.44275" lon="4.68884">
        <ele>59.039078</ele>
        <time>2021-09-16T06:12:03.000Z</time>
      </trkpt>
      <trkpt lat="44.44258" lon="4.68859">
        <ele>59.02435</ele>
        <time>2021-09-16T06:12:07.000Z</time>
      </trkpt>
      <trkpt lat="44.44236" lon="4.68826">
        <ele>59.00558</ele>
        <time>2021-09-16T06:12:12.000Z</time>
      </trkpt>
      <trkpt lat="44.44229" lon="4.68813">
        <ele>58.998601</ele>
        <time>2021-09-16T06:12:14.000Z</time>
      </trkpt>
      <trkpt lat="44.44217" lon="4.68792">
        <ele>58.98721</ele>
        <time>2021-09-16T06:12:17.000Z</time>
      </trkpt>
      <trkpt lat="44.44212" lon="4.68784">
        <ele>58.983004</ele>
        <time>2021-09-16T06:12:18.000Z</time>
      </trkpt>
      <trkpt lat="44.44203" lon="4.68768">
        <ele>58.974416</ele>
        <time>2021-09-16T06:12:20.000Z</time>
      </trkpt>
      <trkpt lat="44.44199" lon="4.6876">
        <ele>58.970415</ele>
        <time>2021-09-16T06:12:21.000Z</time>
      </trkpt>
      <trkpt lat="44.44195" lon="4.68754">
        <ele>58.966892</ele>
        <time>2021-09-16T06:12:22.000Z</time>
      </trkpt>
      <trkpt lat="44.44187" lon="4.68741">
        <ele>58.959623</ele>
        <time>2021-09-16T06:12:24.000Z</time>
      </trkpt>
      <trkpt lat="44.44171" lon="4.68723">
        <ele>58.94751</ele>
        <time>2021-09-16T06:12:27.000Z</time>
      </trkpt>
      <trkpt lat="44.44167" lon="4.68715">
        <ele>58.943461</ele>
        <time>2021-09-16T06:12:28.000Z</time>
      </trkpt>
      <trkpt lat="44.44163" lon="4.68708">
        <ele>58.947103</ele>
        <time>2021-09-16T06:12:29.000Z</time>
      </trkpt>
      <trkpt lat="44.44157" lon="4.68695">
        <ele>58.960412</ele>
        <time>2021-09-16T06:12:31.000Z</time>
      </trkpt>
      <trkpt lat="44.4414" lon="4.68655">
        <ele>58.997287</ele>
        <time>2021-09-16T06:12:36.000Z</time>
      </trkpt>
      <trkpt lat="44.44133" lon="4.6864">
        <ele>59.011554</ele>
        <time>2021-09-16T06:12:38.000Z</time>
      </trkpt>
      <trkpt lat="44.44121" lon="4.68621">
        <ele>59.032749</ele>
        <time>2021-09-16T06:12:41.000Z</time>
      </trkpt>
      <trkpt lat="44.44116" lon="4.68615">
        <ele>59.039539</ele>
        <time>2021-09-16T06:12:42.000Z</time>
      </trkpt>
      <trkpt lat="44.44112" lon="4.6861">
        <ele>59.046285</ele>
        <time>2021-09-16T06:12:43.000Z</time>
      </trkpt>
      <trkpt lat="44.44098" lon="4.68596">
        <ele>59.065189</ele>
        <time>2021-09-16T06:12:46.000Z</time>
      </trkpt>
      <trkpt lat="44.44083" lon="4.68577">
        <ele>59.088305</ele>
        <time>2021-09-16T06:12:49.000Z</time>
      </trkpt>
      <trkpt lat="44.44078" lon="4.68571">
        <ele>59.095532</ele>
        <time>2021-09-16T06:12:50.000Z</time>
      </trkpt>
      <trkpt lat="44.44062" lon="4.68565">
        <ele>59.114391</ele>
        <time>2021-09-16T06:12:52.000Z</time>
      </trkpt>
      <trkpt lat="44.44054" lon="4.68551">
        <ele>59.128172</ele>
        <time>2021-09-16T06:12:54.000Z</time>
      </trkpt>
      <trkpt lat="44.44047" lon="4.68533">
        <ele>59.145197</ele>
        <time>2021-09-16T06:12:56.000Z</time>
      </trkpt>
      <trkpt lat="44.44043" lon="4.68514">
        <ele>59.277535</ele>
        <time>2021-09-16T06:12:58.000Z</time>
      </trkpt>
      <trkpt lat="44.44031" lon="4.68453">
        <ele>59.700928</ele>
        <time>2021-09-16T06:13:05.000Z</time>
      </trkpt>
      <trkpt lat="44.44037" lon="4.68421">
        <ele>59.916819</ele>
        <time>2021-09-16T06:13:09.000Z</time>
      </trkpt>
      <trkpt lat="44.44039" lon="4.68415">
        <ele>59.961489</ele>
        <time>2021-09-16T06:13:10.000Z</time>
      </trkpt>
      <trkpt lat="44.44045" lon="4.68402">
        <ele>60.064854</ele>
        <time>2021-09-16T06:13:12.000Z</time>
      </trkpt>
      <trkpt lat="44.44048" lon="4.68395">
        <ele>60.120719</ele>
        <time>2021-09-16T06:13:13.000Z</time>
      </trkpt>
      <trkpt lat="44.44055" lon="4.68385">
        <ele>60.213438</ele>
        <time>2021-09-16T06:13:15.000Z</time>
      </trkpt>
      <trkpt lat="44.44055" lon="4.6837">
        <ele>60.310059</ele>
        <time>2021-09-16T06:13:17.000Z</time>
      </trkpt>
      <trkpt lat="44.44054" lon="4.68363">
        <ele>60.358281</ele>
        <time>2021-09-16T06:13:18.000Z</time>
      </trkpt>
      <trkpt lat="44.44052" lon="4.68349">
        <ele>60.454727</ele>
        <time>2021-09-16T06:13:20.000Z</time>
      </trkpt>
      <trkpt lat="44.44049" lon="4.6833">
        <ele>60.587086</ele>
        <time>2021-09-16T06:13:23.000Z</time>
      </trkpt>
      <trkpt lat="44.44047" lon="4.68298">
        <ele>60.796487</ele>
        <time>2021-09-16T06:13:27.000Z</time>
      </trkpt>
      <trkpt lat="44.44047" lon="4.68288">
        <ele>60.86986</ele>
        <time>2021-09-16T06:13:28.000Z</time>
      </trkpt>
      <trkpt lat="44.44044" lon="4.68282">
        <ele>60.929805</ele>
        <time>2021-09-16T06:13:29.000Z</time>
      </trkpt>
      <trkpt lat="44.44036" lon="4.6827">
        <ele>61.050786</ele>
        <time>2021-09-16T06:13:31.000Z</time>
      </trkpt>
      <trkpt lat="44.44023" lon="4.68259">
        <ele>61.214305</ele>
        <time>2021-09-16T06:13:34.000Z</time>
      </trkpt>
      <trkpt lat="44.44018" lon="4.68257">
        <ele>61.271174</ele>
        <time>2021-09-16T06:13:35.000Z</time>
      </trkpt>
      <trkpt lat="44.44013" lon="4.68255">
        <ele>61.331387</ele>
        <time>2021-09-16T06:13:36.000Z</time>
      </trkpt>
      <trkpt lat="44.44003" lon="4.68248">
        <ele>61.452753</ele>
        <time>2021-09-16T06:13:38.000Z</time>
      </trkpt>
      <trkpt lat="44.43999" lon="4.68244">
        <ele>61.502124</ele>
        <time>2021-09-16T06:13:39.000Z</time>
      </trkpt>
      <trkpt lat="44.43996" lon="4.68237">
        <ele>61.563896</ele>
        <time>2021-09-16T06:13:40.000Z</time>
      </trkpt>
      <trkpt lat="44.43997" lon="4.68233">
        <ele>61.598216</ele>
        <time>2021-09-16T06:13:41.000Z</time>
      </trkpt>
      <trkpt lat="44.44011" lon="4.68209">
        <ele>61.837172</ele>
        <time>2021-09-16T06:13:47.000Z</time>
      </trkpt>
      <trkpt lat="44.44017" lon="4.68201">
        <ele>61.927576</ele>
        <time>2021-09-16T06:13:49.000Z</time>
      </trkpt>
      <trkpt lat="44.44028" lon="4.68193">
        <ele>62.060629</ele>
        <time>2021-09-16T06:13:52.000Z</time>
      </trkpt>
      <trkpt lat="44.44049" lon="4.68187">
        <ele>62.292818</ele>
        <time>2021-09-16T06:13:57.000Z</time>
      </trkpt>
      <trkpt lat="44.44057" lon="4.68186">
        <ele>62.379198</ele>
        <time>2021-09-16T06:13:59.000Z</time>
      </trkpt>
      <trkpt lat="44.4406" lon="4.68185">
        <ele>62.419699</ele>
        <time>2021-09-16T06:14:00.000Z</time>
      </trkpt>
      <trkpt lat="44.44066" lon="4.68177">
        <ele>62.509029</ele>
        <time>2021-09-16T06:14:02.000Z</time>
      </trkpt>
      <trkpt lat="44.44068" lon="4.68151">
        <ele>62.712885</ele>
        <time>2021-09-16T06:14:07.000Z</time>
      </trkpt>
      <trkpt lat="44.44064" lon="4.68144">
        <ele>62.776736</ele>
        <time>2021-09-16T06:14:08.000Z</time>
      </trkpt>
      <trkpt lat="44.44058" lon="4.68141">
        <ele>62.794519</ele>
        <time>2021-09-16T06:14:10.000Z</time>
      </trkpt>
      <trkpt lat="44.44039" lon="4.68134">
        <ele>62.846071</ele>
        <time>2021-09-16T06:14:14.000Z</time>
      </trkpt>
      <trkpt lat="44.44022" lon="4.68127">
        <ele>62.890579</ele>
        <time>2021-09-16T06:14:17.000Z</time>
      </trkpt>
      <trkpt lat="44.44011" lon="4.68121">
        <ele>62.920823</ele>
        <time>2021-09-16T06:14:19.000Z</time>
      </trkpt>
      <trkpt lat="44.43993" lon="4.68126">
        <ele>62.969623</ele>
        <time>2021-09-16T06:14:22.000Z</time>
      </trkpt>
      <trkpt lat="44.43983" lon="4.68133">
        <ele>62.997828</ele>
        <time>2021-09-16T06:14:24.000Z</time>
      </trkpt>
      <trkpt lat="44.4398" lon="4.68138">
        <ele>63.010209</ele>
        <time>2021-09-16T06:14:25.000Z</time>
      </trkpt>
      <trkpt lat="44.43975" lon="4.68146">
        <ele>63.030133</ele>
        <time>2021-09-16T06:14:28.000Z</time>
      </trkpt>
      <trkpt lat="44.43985" lon="4.68146">
        <ele>63.054777</ele>
        <time>2021-09-16T06:14:36.000Z</time>
      </trkpt>
      <trkpt lat="44.4398" lon="4.68137">
        <ele>63.074521</ele>
        <time>2021-09-16T06:14:37.000Z</time>
      </trkpt>
      <trkpt lat="44.43986" lon="4.6813">
        <ele>63.094871</ele>
        <time>2021-09-16T06:14:40.000Z</time>
      </trkpt>
      <trkpt lat="44.43989" lon="4.68128">
        <ele>63.103336</ele>
        <time>2021-09-16T06:14:41.000Z</time>
      </trkpt>
      <trkpt lat="44.44" lon="4.68122">
        <ele>63.134091</ele>
        <time>2021-09-16T06:14:45.000Z</time>
      </trkpt>
      <trkpt lat="44.44002" lon="4.68121">
        <ele>63.138873</ele>
        <time>2021-09-16T06:14:46.000Z</time>
      </trkpt>
      <trkpt lat="44.44005" lon="4.68116">
        <ele>63.150377</ele>
        <time>2021-09-16T06:14:48.000Z</time>
      </trkpt>
      <trkpt lat="44.43996" lon="4.68105">
        <ele>63.180836</ele>
        <time>2021-09-16T06:14:53.000Z</time>
      </trkpt>
      <trkpt lat="44.43981" lon="4.68081">
        <ele>63.240127</ele>
        <time>2021-09-16T06:14:58.000Z</time>
      </trkpt>
      <trkpt lat="44.43959" lon="4.68038">
        <ele>63.101528</ele>
        <time>2021-09-16T06:15:05.000Z</time>
      </trkpt>
      <trkpt lat="44.43947" lon="4.68015">
        <ele>63.02575</ele>
        <time>2021-09-16T06:15:08.000Z</time>
      </trkpt>
      <trkpt lat="44.43943" lon="4.68005">
        <ele>62.995216</ele>
        <time>2021-09-16T06:15:09.000Z</time>
      </trkpt>
      <trkpt lat="44.43931" lon="4.67953">
        <ele>62.851331</ele>
        <time>2021-09-16T06:15:14.000Z</time>
      </trkpt>
      <trkpt lat="44.43931" lon="4.67933">
        <ele>62.797392</ele>
        <time>2021-09-16T06:15:16.000Z</time>
      </trkpt>
      <trkpt lat="44.43931" lon="4.67913">
        <ele>62.744022</ele>
        <time>2021-09-16T06:15:18.000Z</time>
      </trkpt>
      <trkpt lat="44.4393" lon="4.67895">
        <ele>62.694652</ele>
        <time>2021-09-16T06:15:20.000Z</time>
      </trkpt>
      <trkpt lat="44.43929" lon="4.67878">
        <ele>62.648467</ele>
        <time>2021-09-16T06:15:22.000Z</time>
      </trkpt>
      <trkpt lat="44.43916" lon="4.67827">
        <ele>62.466965</ele>
        <time>2021-09-16T06:15:28.000Z</time>
      </trkpt>
      <trkpt lat="44.4391" lon="4.67782">
        <ele>62.274904</ele>
        <time>2021-09-16T06:15:33.000Z</time>
      </trkpt>
      <trkpt lat="44.43905" lon="4.67733">
        <ele>62.067008</ele>
        <time>2021-09-16T06:15:38.000Z</time>
      </trkpt>
      <trkpt lat="44.43903" lon="4.67713">
        <ele>61.983314</ele>
        <time>2021-09-16T06:15:40.000Z</time>
      </trkpt>
      <trkpt lat="44.43901" lon="4.67693">
        <ele>61.898788</ele>
        <time>2021-09-16T06:15:42.000Z</time>
      </trkpt>
      <trkpt lat="44.43894" lon="4.67649">
        <ele>61.712846</ele>
        <time>2021-09-16T06:15:47.000Z</time>
      </trkpt>
      <trkpt lat="44.43881" lon="4.67613">
        <ele>61.539664</ele>
        <time>2021-09-16T06:15:52.000Z</time>
      </trkpt>
      <trkpt lat="44.43867" lon="4.67582">
        <ele>61.508997</ele>
        <time>2021-09-16T06:15:56.000Z</time>
      </trkpt>
      <trkpt lat="44.43842" lon="4.67526">
        <ele>61.499713</ele>
        <time>2021-09-16T06:16:03.000Z</time>
      </trkpt>
      <trkpt lat="44.43811" lon="4.67455">
        <ele>61.488205</ele>
        <time>2021-09-16T06:16:12.000Z</time>
      </trkpt>
      <trkpt lat="44.43785" lon="4.67392">
        <ele>61.476114</ele>
        <time>2021-09-16T06:16:20.000Z</time>
      </trkpt>
      <trkpt lat="44.43782" lon="4.67384">
        <ele>61.441993</ele>
        <time>2021-09-16T06:16:21.000Z</time>
      </trkpt>
      <trkpt lat="44.43769" lon="4.67352">
        <ele>61.307334</ele>
        <time>2021-09-16T06:16:25.000Z</time>
      </trkpt>
      <trkpt lat="44.43744" lon="4.67291">
        <ele>61.041407</ele>
        <time>2021-09-16T06:16:33.000Z</time>
      </trkpt>
      <trkpt lat="44.43734" lon="4.67266">
        <ele>60.933824</ele>
        <time>2021-09-16T06:16:37.000Z</time>
      </trkpt>
      <trkpt lat="44.43725" lon="4.6725">
        <ele>60.855359</ele>
        <time>2021-09-16T06:16:40.000Z</time>
      </trkpt>
      <trkpt lat="44.43721" lon="4.67244">
        <ele>60.824947</ele>
        <time>2021-09-16T06:16:41.000Z</time>
      </trkpt>
      <trkpt lat="44.43696" lon="4.67204">
        <ele>60.626509</ele>
        <time>2021-09-16T06:16:47.000Z</time>
      </trkpt>
      <trkpt lat="44.43676" lon="4.67174">
        <ele>60.464991</ele>
        <time>2021-09-16T06:16:52.000Z</time>
      </trkpt>
      <trkpt lat="44.43671" lon="4.67167">
        <ele>60.426227</ele>
        <time>2021-09-16T06:16:53.000Z</time>
      </trkpt>
      <trkpt lat="44.43667" lon="4.67161">
        <ele>60.38775</ele>
        <time>2021-09-16T06:16:54.000Z</time>
      </trkpt>
      <trkpt lat="44.43649" lon="4.67138">
        <ele>60.242459</ele>
        <time>2021-09-16T06:16:58.000Z</time>
      </trkpt>
      <trkpt lat="44.43626" lon="4.67108">
        <ele>60.060414</ele>
        <time>2021-09-16T06:17:03.000Z</time>
      </trkpt>
      <trkpt lat="44.43592" lon="4.67064">
        <ele>59.789929</ele>
        <time>2021-09-16T06:17:10.000Z</time>
      </trkpt>
      <trkpt lat="44.43564" lon="4.67031">
        <ele>59.571758</ele>
        <time>2021-09-16T06:17:16.000Z</time>
      </trkpt>
      <trkpt lat="44.43553" lon="4.67022">
        <ele>59.497602</ele>
        <time>2021-09-16T06:17:18.000Z</time>
      </trkpt>
      <trkpt lat="44.43542" lon="4.67012">
        <ele>59.430972</ele>
        <time>2021-09-16T06:17:20.000Z</time>
      </trkpt>
      <trkpt lat="44.43536" lon="4.67006">
        <ele>59.396892</ele>
        <time>2021-09-16T06:17:21.000Z</time>
      </trkpt>
      <trkpt lat="44.43515" lon="4.66983">
        <ele>59.271142</ele>
        <time>2021-09-16T06:17:25.000Z</time>
      </trkpt>
      <trkpt lat="44.43497" lon="4.66961">
        <ele>59.160584</ele>
        <time>2021-09-16T06:17:29.000Z</time>
      </trkpt>
      <trkpt lat="44.43474" lon="4.66933">
        <ele>59.016221</ele>
        <time>2021-09-16T06:17:34.000Z</time>
      </trkpt>
      <trkpt lat="44.43448" lon="4.66904">
        <ele>58.860124</ele>
        <time>2021-09-16T06:17:39.000Z</time>
      </trkpt>
      <trkpt lat="44.43426" lon="4.66882">
        <ele>58.732177</ele>
        <time>2021-09-16T06:17:43.000Z</time>
      </trkpt>
      <trkpt lat="44.4342" lon="4.66876">
        <ele>58.697348</ele>
        <time>2021-09-16T06:17:44.000Z</time>
      </trkpt>
      <trkpt lat="44.43414" lon="4.6687">
        <ele>58.662714</ele>
        <time>2021-09-16T06:17:45.000Z</time>
      </trkpt>
      <trkpt lat="44.43395" lon="4.66854">
        <ele>58.589973</ele>
        <time>2021-09-16T06:17:48.000Z</time>
      </trkpt>
      <trkpt lat="44.43356" lon="4.66826">
        <ele>58.481192</ele>
        <time>2021-09-16T06:17:54.000Z</time>
      </trkpt>
      <trkpt lat="44.43338" lon="4.66809">
        <ele>58.425942</ele>
        <time>2021-09-16T06:17:57.000Z</time>
      </trkpt>
      <trkpt lat="44.43325" lon="4.66798">
        <ele>58.38941</ele>
        <time>2021-09-16T06:17:59.000Z</time>
      </trkpt>
      <trkpt lat="44.43288" lon="4.66769">
        <ele>58.283801</ele>
        <time>2021-09-16T06:18:05.000Z</time>
      </trkpt>
      <trkpt lat="44.4326" lon="4.66747">
        <ele>58.201382</ele>
        <time>2021-09-16T06:18:10.000Z</time>
      </trkpt>
      <trkpt lat="44.43231" lon="4.66729">
        <ele>58.143535</ele>
        <time>2021-09-16T06:18:15.000Z</time>
      </trkpt>
      <trkpt lat="44.43204" lon="4.66713">
        <ele>58.096036</ele>
        <time>2021-09-16T06:18:20.000Z</time>
      </trkpt>
      <trkpt lat="44.43166" lon="4.6669">
        <ele>58.030293</ele>
        <time>2021-09-16T06:18:26.000Z</time>
      </trkpt>
      <trkpt lat="44.43136" lon="4.66672">
        <ele>57.977833</ele>
        <time>2021-09-16T06:18:31.000Z</time>
      </trkpt>
      <trkpt lat="44.431" lon="4.66649">
        <ele>57.914244</ele>
        <time>2021-09-16T06:18:37.000Z</time>
      </trkpt>
      <trkpt lat="44.43089" lon="4.66642">
        <ele>57.894934</ele>
        <time>2021-09-16T06:18:39.000Z</time>
      </trkpt>
      <trkpt lat="44.43072" lon="4.66631">
        <ele>57.873674</ele>
        <time>2021-09-16T06:18:42.000Z</time>
      </trkpt>
      <trkpt lat="44.43032" lon="4.66606">
        <ele>57.829142</ele>
        <time>2021-09-16T06:18:49.000Z</time>
      </trkpt>
      <trkpt lat="44.43004" lon="4.66589">
        <ele>57.797827</ele>
        <time>2021-09-16T06:18:54.000Z</time>
      </trkpt>
      <trkpt lat="44.42987" lon="4.66578">
        <ele>57.778688</ele>
        <time>2021-09-16T06:18:57.000Z</time>
      </trkpt>
      <trkpt lat="44.42975" lon="4.66572">
        <ele>57.766289</ele>
        <time>2021-09-16T06:18:59.000Z</time>
      </trkpt>
      <trkpt lat="44.42957" lon="4.66563">
        <ele>57.746975</ele>
        <time>2021-09-16T06:19:02.000Z</time>
      </trkpt>
      <trkpt lat="44.42947" lon="4.66558">
        <ele>57.736043</ele>
        <time>2021-09-16T06:19:04.000Z</time>
      </trkpt>
      <trkpt lat="44.42942" lon="4.66556">
        <ele>57.730491</ele>
        <time>2021-09-16T06:19:05.000Z</time>
      </trkpt>
      <trkpt lat="44.42925" lon="4.66551">
        <ele>57.712694</ele>
        <time>2021-09-16T06:19:08.000Z</time>
      </trkpt>
      <trkpt lat="44.42909" lon="4.66544">
        <ele>57.779467</ele>
        <time>2021-09-16T06:19:11.000Z</time>
      </trkpt>
      <trkpt lat="44.42898" lon="4.6654">
        <ele>57.854156</ele>
        <time>2021-09-16T06:19:13.000Z</time>
      </trkpt>
      <trkpt lat="44.42886" lon="4.66535">
        <ele>57.935296</ele>
        <time>2021-09-16T06:19:15.000Z</time>
      </trkpt>
      <trkpt lat="44.42876" lon="4.66529">
        <ele>58.008656</ele>
        <time>2021-09-16T06:19:17.000Z</time>
      </trkpt>
      <trkpt lat="44.42831" lon="4.66505">
        <ele>58.333926</ele>
        <time>2021-09-16T06:19:25.000Z</time>
      </trkpt>
      <trkpt lat="44.42791" lon="4.66485">
        <ele>58.614243</ele>
        <time>2021-09-16T06:19:32.000Z</time>
      </trkpt>
      <trkpt lat="44.42757" lon="4.66469">
        <ele>58.853732</ele>
        <time>2021-09-16T06:19:38.000Z</time>
      </trkpt>
      <trkpt lat="44.42745" lon="4.66464">
        <ele>58.923421</ele>
        <time>2021-09-16T06:19:40.000Z</time>
      </trkpt>
      <trkpt lat="44.42734" lon="4.66459">
        <ele>58.964561</ele>
        <time>2021-09-16T06:19:42.000Z</time>
      </trkpt>
      <trkpt lat="44.42723" lon="4.66454">
        <ele>59.003911</ele>
        <time>2021-09-16T06:19:44.000Z</time>
      </trkpt>
      <trkpt lat="44.42712" lon="4.6645">
        <ele>59.041799</ele>
        <time>2021-09-16T06:19:46.000Z</time>
      </trkpt>
      <trkpt lat="44.42707" lon="4.66448">
        <ele>59.060837</ele>
        <time>2021-09-16T06:19:47.000Z</time>
      </trkpt>
      <trkpt lat="44.42669" lon="4.66433">
        <ele>59.197202</ele>
        <time>2021-09-16T06:19:53.000Z</time>
      </trkpt>
      <trkpt lat="44.42634" lon="4.66416">
        <ele>59.324867</ele>
        <time>2021-09-16T06:19:59.000Z</time>
      </trkpt>
      <trkpt lat="44.42628" lon="4.66414">
        <ele>59.345263</ele>
        <time>2021-09-16T06:20:00.000Z</time>
      </trkpt>
      <trkpt lat="44.42611" lon="4.66406">
        <ele>59.406316</ele>
        <time>2021-09-16T06:20:03.000Z</time>
      </trkpt>
      <trkpt lat="44.42605" lon="4.66404">
        <ele>59.42701</ele>
        <time>2021-09-16T06:20:04.000Z</time>
      </trkpt>
      <trkpt lat="44.42568" lon="4.6639">
        <ele>59.451408</ele>
        <time>2021-09-16T06:20:10.000Z</time>
      </trkpt>
      <trkpt lat="44.42563" lon="4.66388">
        <ele>59.408232</ele>
        <time>2021-09-16T06:20:11.000Z</time>
      </trkpt>
      <trkpt lat="44.42545" lon="4.66381">
        <ele>59.252708</ele>
        <time>2021-09-16T06:20:14.000Z</time>
      </trkpt>
      <trkpt lat="44.42515" lon="4.6637">
        <ele>58.993656</ele>
        <time>2021-09-16T06:20:19.000Z</time>
      </trkpt>
      <trkpt lat="44.42509" lon="4.66367">
        <ele>58.941815</ele>
        <time>2021-09-16T06:20:20.000Z</time>
      </trkpt>
      <trkpt lat="44.42492" lon="4.66361">
        <ele>58.797617</ele>
        <time>2021-09-16T06:20:23.000Z</time>
      </trkpt>
      <trkpt lat="44.42469" lon="4.66354">
        <ele>58.596622</ele>
        <time>2021-09-16T06:20:27.000Z</time>
      </trkpt>
      <trkpt lat="44.42463" lon="4.66352">
        <ele>58.545223</ele>
        <time>2021-09-16T06:20:28.000Z</time>
      </trkpt>
      <trkpt lat="44.42446" lon="4.66346">
        <ele>58.398872</ele>
        <time>2021-09-16T06:20:31.000Z</time>
      </trkpt>
      <trkpt lat="44.42439" lon="4.66344">
        <ele>58.340574</ele>
        <time>2021-09-16T06:20:32.000Z</time>
      </trkpt>
      <trkpt lat="44.42429" lon="4.66341">
        <ele>58.252084</ele>
        <time>2021-09-16T06:20:34.000Z</time>
      </trkpt>
      <trkpt lat="44.42418" lon="4.66338">
        <ele>58.160209</ele>
        <time>2021-09-16T06:20:36.000Z</time>
      </trkpt>
      <trkpt lat="44.42405" lon="4.66334">
        <ele>58.048598</ele>
        <time>2021-09-16T06:20:38.000Z</time>
      </trkpt>
      <trkpt lat="44.42371" lon="4.66324">
        <ele>57.751601</ele>
        <time>2021-09-16T06:20:43.000Z</time>
      </trkpt>
      <trkpt lat="44.42339" lon="4.66315">
        <ele>57.459879</ele>
        <time>2021-09-16T06:20:48.000Z</time>
      </trkpt>
      <trkpt lat="44.42328" lon="4.66312">
        <ele>57.362436</ele>
        <time>2021-09-16T06:20:50.000Z</time>
      </trkpt>
      <trkpt lat="44.42316" lon="4.66309">
        <ele>57.255752</ele>
        <time>2021-09-16T06:20:52.000Z</time>
      </trkpt>
      <trkpt lat="44.42292" lon="4.66303">
        <ele>57.039794</ele>
        <time>2021-09-16T06:20:56.000Z</time>
      </trkpt>
      <trkpt lat="44.42258" lon="4.66295">
        <ele>56.745416</ele>
        <time>2021-09-16T06:21:01.000Z</time>
      </trkpt>
      <trkpt lat="44.42222" lon="4.66286">
        <ele>56.437632</ele>
        <time>2021-09-16T06:21:07.000Z</time>
      </trkpt>
      <trkpt lat="44.42198" lon="4.66281">
        <ele>56.328359</ele>
        <time>2021-09-16T06:21:11.000Z</time>
      </trkpt>
      <trkpt lat="44.42159" lon="4.66271">
        <ele>56.148156</ele>
        <time>2021-09-16T06:21:17.000Z</time>
      </trkpt>
      <trkpt lat="44.42136" lon="4.66267">
        <ele>56.041486</ele>
        <time>2021-09-16T06:21:21.000Z</time>
      </trkpt>
      <trkpt lat="44.42099" lon="4.66259">
        <ele>55.868579</ele>
        <time>2021-09-16T06:21:27.000Z</time>
      </trkpt>
      <trkpt lat="44.42053" lon="4.66249">
        <ele>55.658435</ele>
        <time>2021-09-16T06:21:34.000Z</time>
      </trkpt>
      <trkpt lat="44.42014" lon="4.66242">
        <ele>55.326618</ele>
        <time>2021-09-16T06:21:40.000Z</time>
      </trkpt>
      <trkpt lat="44.4197" lon="4.66235">
        <ele>54.937431</ele>
        <time>2021-09-16T06:21:47.000Z</time>
      </trkpt>
      <trkpt lat="44.41933" lon="4.6623">
        <ele>54.60553</ele>
        <time>2021-09-16T06:21:53.000Z</time>
      </trkpt>
      <trkpt lat="44.41928" lon="4.66229">
        <ele>54.558951</ele>
        <time>2021-09-16T06:21:54.000Z</time>
      </trkpt>
      <trkpt lat="44.41916" lon="4.66228">
        <ele>54.453333</ele>
        <time>2021-09-16T06:21:56.000Z</time>
      </trkpt>
      <trkpt lat="44.41904" lon="4.66227">
        <ele>54.347716</ele>
        <time>2021-09-16T06:21:58.000Z</time>
      </trkpt>
      <trkpt lat="44.41893" lon="4.66226">
        <ele>54.242098</ele>
        <time>2021-09-16T06:22:00.000Z</time>
      </trkpt>
      <trkpt lat="44.41874" lon="4.66224">
        <ele>54.074721</ele>
        <time>2021-09-16T06:22:03.000Z</time>
      </trkpt>
      <trkpt lat="44.41848" lon="4.66221">
        <ele>54.044862</ele>
        <time>2021-09-16T06:22:07.000Z</time>
      </trkpt>
      <trkpt lat="44.41806" lon="4.66217">
        <ele>54.073829</ele>
        <time>2021-09-16T06:22:13.000Z</time>
      </trkpt>
      <trkpt lat="44.4176" lon="4.66212">
        <ele>54.105851</ele>
        <time>2021-09-16T06:22:20.000Z</time>
      </trkpt>
      <trkpt lat="44.41735" lon="4.66209">
        <ele>54.123287</ele>
        <time>2021-09-16T06:22:24.000Z</time>
      </trkpt>
      <trkpt lat="44.4169" lon="4.66208">
        <ele>54.154261</ele>
        <time>2021-09-16T06:22:31.000Z</time>
      </trkpt>
      <trkpt lat="44.41683" lon="4.6622">
        <ele>54.239431</ele>
        <time>2021-09-16T06:22:33.000Z</time>
      </trkpt>
      <trkpt lat="44.41682" lon="4.66241">
        <ele>54.357134</ele>
        <time>2021-09-16T06:22:35.000Z</time>
      </trkpt>
      <trkpt lat="44.41683" lon="4.66251">
        <ele>54.409956</ele>
        <time>2021-09-16T06:22:36.000Z</time>
      </trkpt>
      <trkpt lat="44.41684" lon="4.66259">
        <ele>54.455442</ele>
        <time>2021-09-16T06:22:37.000Z</time>
      </trkpt>
      <trkpt lat="44.41685" lon="4.66276">
        <ele>54.551411</ele>
        <time>2021-09-16T06:22:39.000Z</time>
      </trkpt>
      <trkpt lat="44.41686" lon="4.66284">
        <ele>54.596896</ele>
        <time>2021-09-16T06:22:40.000Z</time>
      </trkpt>
      <trkpt lat="44.41688" lon="4.66296">
        <ele>54.670303</ele>
        <time>2021-09-16T06:22:42.000Z</time>
      </trkpt>
      <trkpt lat="44.4168" lon="4.66298">
        <ele>54.733771</ele>
        <time>2021-09-16T06:22:43.000Z</time>
      </trkpt>
      <trkpt lat="44.41674" lon="4.66299">
        <ele>54.77647</ele>
        <time>2021-09-16T06:22:44.000Z</time>
      </trkpt>
      <trkpt lat="44.41668" lon="4.663">
        <ele>54.826326</ele>
        <time>2021-09-16T06:22:45.000Z</time>
      </trkpt>
      <trkpt lat="44.41662" lon="4.66301">
        <ele>54.873776</ele>
        <time>2021-09-16T06:22:46.000Z</time>
      </trkpt>
      <trkpt lat="44.41653" lon="4.66302">
        <ele>54.948108</ele>
        <time>2021-09-16T06:22:48.000Z</time>
      </trkpt>
      <trkpt lat="44.41648" lon="4.66302">
        <ele>54.981995</ele>
        <time>2021-09-16T06:22:49.000Z</time>
      </trkpt>
      <trkpt lat="44.41639" lon="4.66303">
        <ele>55.056046</ele>
        <time>2021-09-16T06:22:51.000Z</time>
      </trkpt>
      <trkpt lat="44.41628" lon="4.66304">
        <ele>55.139519</ele>
        <time>2021-09-16T06:22:53.000Z</time>
      </trkpt>
      <trkpt lat="44.41588" lon="4.66307">
        <ele>55.460028</ele>
        <time>2021-09-16T06:23:00.000Z</time>
      </trkpt>
      <trkpt lat="44.41558" lon="4.66309">
        <ele>55.674467</ele>
        <time>2021-09-16T06:23:05.000Z</time>
      </trkpt>
      <trkpt lat="44.41523" lon="4.66311">
        <ele>55.915316</ele>
        <time>2021-09-16T06:23:11.000Z</time>
      </trkpt>
      <trkpt lat="44.41499" lon="4.66312">
        <ele>56.079054</ele>
        <time>2021-09-16T06:23:15.000Z</time>
      </trkpt>
      <trkpt lat="44.41461" lon="4.66314">
        <ele>56.336839</ele>
        <time>2021-09-16T06:23:21.000Z</time>
      </trkpt>
      <trkpt lat="44.41423" lon="4.66308">
        <ele>56.601929</ele>
        <time>2021-09-16T06:23:27.000Z</time>
      </trkpt>
      <trkpt lat="44.41385" lon="4.66303">
        <ele>56.740282</ele>
        <time>2021-09-16T06:23:33.000Z</time>
      </trkpt>
      <trkpt lat="44.41366" lon="4.66301">
        <ele>56.630193</ele>
        <time>2021-09-16T06:23:36.000Z</time>
      </trkpt>
      <trkpt lat="44.41348" lon="4.66298">
        <ele>56.523546</ele>
        <time>2021-09-16T06:23:39.000Z</time>
      </trkpt>
      <trkpt lat="44.41325" lon="4.66294">
        <ele>56.389401</ele>
        <time>2021-09-16T06:23:43.000Z</time>
      </trkpt>
      <trkpt lat="44.413" lon="4.66289">
        <ele>56.24588</ele>
        <time>2021-09-16T06:23:47.000Z</time>
      </trkpt>
      <trkpt lat="44.41271" lon="4.66284">
        <ele>56.07423</ele>
        <time>2021-09-16T06:23:52.000Z</time>
      </trkpt>
      <trkpt lat="44.41264" lon="4.66283">
        <ele>56.034421</ele>
        <time>2021-09-16T06:23:53.000Z</time>
      </trkpt>
      <trkpt lat="44.41251" lon="4.6628">
        <ele>55.954751</ele>
        <time>2021-09-16T06:23:55.000Z</time>
      </trkpt>
      <trkpt lat="44.41231" lon="4.66277">
        <ele>55.838206</ele>
        <time>2021-09-16T06:23:58.000Z</time>
      </trkpt>
      <trkpt lat="44.41201" lon="4.66271">
        <ele>55.522906</ele>
        <time>2021-09-16T06:24:02.000Z</time>
      </trkpt>
      <trkpt lat="44.41182" lon="4.66265">
        <ele>55.237218</ele>
        <time>2021-09-16T06:24:05.000Z</time>
      </trkpt>
      <trkpt lat="44.41146" lon="4.66254">
        <ele>54.690492</ele>
        <time>2021-09-16T06:24:11.000Z</time>
      </trkpt>
      <trkpt lat="44.41135" lon="4.6625">
        <ele>54.517917</ele>
        <time>2021-09-16T06:24:14.000Z</time>
      </trkpt>
      <trkpt lat="44.41118" lon="4.66247">
        <ele>54.270659</ele>
        <time>2021-09-16T06:24:17.000Z</time>
      </trkpt>
      <trkpt lat="44.41087" lon="4.66247">
        <ele>53.797116</ele>
        <time>2021-09-16T06:24:22.000Z</time>
      </trkpt>
      <trkpt lat="44.41061" lon="4.66245">
        <ele>53.410656</ele>
        <time>2021-09-16T06:24:26.000Z</time>
      </trkpt>
      <trkpt lat="44.41048" lon="4.66243">
        <ele>53.223738</ele>
        <time>2021-09-16T06:24:28.000Z</time>
      </trkpt>
      <trkpt lat="44.41035" lon="4.66242">
        <ele>53.026422</ele>
        <time>2021-09-16T06:24:30.000Z</time>
      </trkpt>
      <trkpt lat="44.4103" lon="4.66241">
        <ele>52.926808</ele>
        <time>2021-09-16T06:24:31.000Z</time>
      </trkpt>
      <trkpt lat="44.41026" lon="4.66241">
        <ele>52.861499</ele>
        <time>2021-09-16T06:24:32.000Z</time>
      </trkpt>
      <trkpt lat="44.41019" lon="4.66217">
        <ele>52.548941</ele>
        <time>2021-09-16T06:24:34.000Z</time>
      </trkpt>
      <trkpt lat="44.41019" lon="4.66201">
        <ele>52.354468</ele>
        <time>2021-09-16T06:24:36.000Z</time>
      </trkpt>
      <trkpt lat="44.41019" lon="4.66185">
        <ele>52.161269</ele>
        <time>2021-09-16T06:24:38.000Z</time>
      </trkpt>
      <trkpt lat="44.41017" lon="4.6617">
        <ele>51.972895</ele>
        <time>2021-09-16T06:24:40.000Z</time>
      </trkpt>
      <trkpt lat="44.4098" lon="4.66153">
        <ele>51.308683</ele>
        <time>2021-09-16T06:24:45.000Z</time>
      </trkpt>
      <trkpt lat="44.4097" lon="4.66149">
        <ele>51.120377</ele>
        <time>2021-09-16T06:24:47.000Z</time>
      </trkpt>
      <trkpt lat="44.40966" lon="4.66149">
        <ele>51.058583</ele>
        <time>2021-09-16T06:24:48.000Z</time>
      </trkpt>
      <trkpt lat="44.40949" lon="4.66161">
        <ele>50.743263</ele>
        <time>2021-09-16T06:24:52.000Z</time>
      </trkpt>
      <trkpt lat="44.40943" lon="4.66162">
        <ele>50.630538</ele>
        <time>2021-09-16T06:24:53.000Z</time>
      </trkpt>
      <trkpt lat="44.40936" lon="4.66159">
        <ele>50.49937</ele>
        <time>2021-09-16T06:24:54.000Z</time>
      </trkpt>
      <trkpt lat="44.40914" lon="4.6614">
        <ele>50.055902</ele>
        <time>2021-09-16T06:24:58.000Z</time>
      </trkpt>
      <trkpt lat="44.40908" lon="4.66136">
        <ele>50.01177</ele>
        <time>2021-09-16T06:24:59.000Z</time>
      </trkpt>
      <trkpt lat="44.40898" lon="4.66128">
        <ele>50.081295</ele>
        <time>2021-09-16T06:25:01.000Z</time>
      </trkpt>
      <trkpt lat="44.40891" lon="4.6612">
        <ele>50.136268</ele>
        <time>2021-09-16T06:25:03.000Z</time>
      </trkpt>
      <trkpt lat="44.40882" lon="4.66116">
        <ele>50.190641</ele>
        <time>2021-09-16T06:25:05.000Z</time>
      </trkpt>
      <trkpt lat="44.40873" lon="4.66113">
        <ele>50.242702</ele>
        <time>2021-09-16T06:25:07.000Z</time>
      </trkpt>
      <trkpt lat="44.40864" lon="4.66112">
        <ele>50.297325</ele>
        <time>2021-09-16T06:25:09.000Z</time>
      </trkpt>
      <trkpt lat="44.4085" lon="4.66112">
        <ele>50.38404</ele>
        <time>2021-09-16T06:25:12.000Z</time>
      </trkpt>
      <trkpt lat="44.4084" lon="4.66114">
        <ele>50.444826</ele>
        <time>2021-09-16T06:25:14.000Z</time>
      </trkpt>
      <trkpt lat="44.40803" lon="4.66126">
        <ele>50.669442</ele>
        <time>2021-09-16T06:25:20.000Z</time>
      </trkpt>
      <trkpt lat="44.40793" lon="4.6613">
        <ele>50.733599</ele>
        <time>2021-09-16T06:25:22.000Z</time>
      </trkpt>
      <trkpt lat="44.40787" lon="4.66133">
        <ele>50.771036</ele>
        <time>2021-09-16T06:25:23.000Z</time>
      </trkpt>
      <trkpt lat="44.40781" lon="4.66135">
        <ele>50.807087</ele>
        <time>2021-09-16T06:25:24.000Z</time>
      </trkpt>
      <trkpt lat="44.40763" lon="4.66142">
        <ele>50.919271</ele>
        <time>2021-09-16T06:25:27.000Z</time>
      </trkpt>
      <trkpt lat="44.40751" lon="4.66145">
        <ele>50.990564</ele>
        <time>2021-09-16T06:25:29.000Z</time>
      </trkpt>
      <trkpt lat="44.40745" lon="4.66147">
        <ele>51.030108</ele>
        <time>2021-09-16T06:25:30.000Z</time>
      </trkpt>
      <trkpt lat="44.4071" lon="4.66155">
        <ele>51.119019</ele>
        <time>2021-09-16T06:25:35.000Z</time>
      </trkpt>
      <trkpt lat="44.40683" lon="4.66161">
        <ele>51.164056</ele>
        <time>2021-09-16T06:25:39.000Z</time>
      </trkpt>
      <trkpt lat="44.40677" lon="4.66163">
        <ele>51.174852</ele>
        <time>2021-09-16T06:25:40.000Z</time>
      </trkpt>
      <trkpt lat="44.40665" lon="4.66166">
        <ele>51.195904</ele>
        <time>2021-09-16T06:25:42.000Z</time>
      </trkpt>
      <trkpt lat="44.40654" lon="4.66168">
        <ele>51.21527</ele>
        <time>2021-09-16T06:25:44.000Z</time>
      </trkpt>
      <trkpt lat="44.40609" lon="4.66179">
        <ele>51.291634</ele>
        <time>2021-09-16T06:25:51.000Z</time>
      </trkpt>
      <trkpt lat="44.40577" lon="4.66186">
        <ele>51.34626</ele>
        <time>2021-09-16T06:25:56.000Z</time>
      </trkpt>
      <trkpt lat="44.40571" lon="4.66188">
        <ele>51.357056</ele>
        <time>2021-09-16T06:25:57.000Z</time>
      </trkpt>
      <trkpt lat="44.40545" lon="4.66192">
        <ele>51.190785</ele>
        <time>2021-09-16T06:26:01.000Z</time>
      </trkpt>
      <trkpt lat="44.4051" lon="4.66197">
        <ele>50.767999</ele>
        <time>2021-09-16T06:26:06.000Z</time>
      </trkpt>
      <trkpt lat="44.40504" lon="4.66184">
        <ele>50.630022</ele>
        <time>2021-09-16T06:26:09.000Z</time>
      </trkpt>
      <trkpt lat="44.40496" lon="4.6617">
        <ele>50.481456</ele>
        <time>2021-09-16T06:26:11.000Z</time>
      </trkpt>
      <trkpt lat="44.40487" lon="4.66156">
        <ele>50.329421</ele>
        <time>2021-09-16T06:26:13.000Z</time>
      </trkpt>
      <trkpt lat="44.40485" lon="4.66133">
        <ele>50.128801</ele>
        <time>2021-09-16T06:26:16.000Z</time>
      </trkpt>
      <trkpt lat="44.40484" lon="4.66124">
        <ele>50.052722</ele>
        <time>2021-09-16T06:26:17.000Z</time>
      </trkpt>
      <trkpt lat="44.40482" lon="4.66115">
        <ele>49.968085</ele>
        <time>2021-09-16T06:26:18.000Z</time>
      </trkpt>
      <trkpt lat="44.40474" lon="4.66101">
        <ele>49.826736</ele>
        <time>2021-09-16T06:26:20.000Z</time>
      </trkpt>
      <trkpt lat="44.40464" lon="4.66097">
        <ele>49.698975</ele>
        <time>2021-09-16T06:26:22.000Z</time>
      </trkpt>
      <trkpt lat="44.40459" lon="4.66094">
        <ele>49.636353</ele>
        <time>2021-09-16T06:26:23.000Z</time>
      </trkpt>
      <trkpt lat="44.40454" lon="4.66092">
        <ele>49.572608</ele>
        <time>2021-09-16T06:26:24.000Z</time>
      </trkpt>
      <trkpt lat="44.40445" lon="4.66084">
        <ele>49.448348</ele>
        <time>2021-09-16T06:26:26.000Z</time>
      </trkpt>
      <trkpt lat="44.40442" lon="4.66079">
        <ele>49.391673</ele>
        <time>2021-09-16T06:26:27.000Z</time>
      </trkpt>
      <trkpt lat="44.40436" lon="4.66069">
        <ele>49.278965</ele>
        <time>2021-09-16T06:26:29.000Z</time>
      </trkpt>
      <trkpt lat="44.40429" lon="4.66059">
        <ele>49.268447</ele>
        <time>2021-09-16T06:26:31.000Z</time>
      </trkpt>
      <trkpt lat="44.40424" lon="4.66049">
        <ele>49.302349</ele>
        <time>2021-09-16T06:26:33.000Z</time>
      </trkpt>
      <trkpt lat="44.40417" lon="4.66039">
        <ele>49.338475</ele>
        <time>2021-09-16T06:26:35.000Z</time>
      </trkpt>
      <trkpt lat="44.40399" lon="4.66008">
        <ele>49.447034</ele>
        <time>2021-09-16T06:26:40.000Z</time>
      </trkpt>
      <trkpt lat="44.40384" lon="4.65976">
        <ele>49.550834</ele>
        <time>2021-09-16T06:26:45.000Z</time>
      </trkpt>
      <trkpt lat="44.40382" lon="4.65971">
        <ele>49.5685</ele>
        <time>2021-09-16T06:26:46.000Z</time>
      </trkpt>
      <trkpt lat="44.40379" lon="4.6597">
        <ele>49.578374</ele>
        <time>2021-09-16T06:26:48.000Z</time>
      </trkpt>
      <trkpt lat="44.40371" lon="4.65972">
        <ele>49.608164</ele>
        <time>2021-09-16T06:26:52.000Z</time>
      </trkpt>
      <trkpt lat="44.40369" lon="4.65973">
        <ele>49.616675</ele>
        <time>2021-09-16T06:26:54.000Z</time>
      </trkpt>
      <trkpt lat="44.40364" lon="4.65974">
        <ele>49.638806</ele>
        <time>2021-09-16T06:26:57.000Z</time>
      </trkpt>
      <trkpt lat="44.40355" lon="4.65977">
        <ele>49.673703</ele>
        <time>2021-09-16T06:27:00.000Z</time>
      </trkpt>
      <trkpt lat="44.40351" lon="4.65978">
        <ele>49.686283</ele>
        <time>2021-09-16T06:27:01.000Z</time>
      </trkpt>
      <trkpt lat="44.40348" lon="4.65976">
        <ele>49.701071</ele>
        <time>2021-09-16T06:27:02.000Z</time>
      </trkpt>
      <trkpt lat="44.40344" lon="4.65967">
        <ele>49.730058</ele>
        <time>2021-09-16T06:27:04.000Z</time>
      </trkpt>
      <trkpt lat="44.40322" lon="4.65917">
        <ele>49.889401</ele>
        <time>2021-09-16T06:27:10.000Z</time>
      </trkpt>
      <trkpt lat="44.40301" lon="4.65874">
        <ele>50.212291</ele>
        <time>2021-09-16T06:27:17.000Z</time>
      </trkpt>
      <trkpt lat="44.40276" lon="4.65824">
        <ele>50.670025</ele>
        <time>2021-09-16T06:27:23.000Z</time>
      </trkpt>
      <trkpt lat="44.40276" lon="4.65824">
        <ele>50.670025</ele>
        <time>2021-09-16T06:27:24.000Z</time>
      </trkpt>
      <trkpt lat="44.40263" lon="4.65784">
        <ele>50.995748</ele>
        <time>2021-09-16T06:27:29.000Z</time>
      </trkpt>
      <trkpt lat="44.40254" lon="4.6577">
        <ele>51.140874</ele>
        <time>2021-09-16T06:27:31.000Z</time>
      </trkpt>
      <trkpt lat="44.40244" lon="4.65775">
        <ele>51.251269</ele>
        <time>2021-09-16T06:27:33.000Z</time>
      </trkpt>
      <trkpt lat="44.40239" lon="4.65778">
        <ele>51.311175</ele>
        <time>2021-09-16T06:27:34.000Z</time>
      </trkpt>
      <trkpt lat="44.40233" lon="4.65782">
        <ele>51.373294</ele>
        <time>2021-09-16T06:27:35.000Z</time>
      </trkpt>
      <trkpt lat="44.40226" lon="4.65794">
        <ele>51.497217</ele>
        <time>2021-09-16T06:27:37.000Z</time>
      </trkpt>
      <trkpt lat="44.40216" lon="4.65833">
        <ele>51.798588</ele>
        <time>2021-09-16T06:27:42.000Z</time>
      </trkpt>
      <trkpt lat="44.40199" lon="4.65906">
        <ele>52.234754</ele>
        <time>2021-09-16T06:27:51.000Z</time>
      </trkpt>
      <trkpt lat="44.40185" lon="4.65964">
        <ele>52.576872</ele>
        <time>2021-09-16T06:27:58.000Z</time>
      </trkpt>
      <trkpt lat="44.40183" lon="4.65972">
        <ele>52.625731</ele>
        <time>2021-09-16T06:27:59.000Z</time>
      </trkpt>
      <trkpt lat="44.4018" lon="4.65979">
        <ele>52.673481</ele>
        <time>2021-09-16T06:28:00.000Z</time>
      </trkpt>
      <trkpt lat="44.40174" lon="4.65983">
        <ele>52.725309</ele>
        <time>2021-09-16T06:28:01.000Z</time>
      </trkpt>
      <trkpt lat="44.40168" lon="4.65984">
        <ele>52.773572</ele>
        <time>2021-09-16T06:28:02.000Z</time>
      </trkpt>
      <trkpt lat="44.40137" lon="4.65979">
        <ele>53.021429</ele>
        <time>2021-09-16T06:28:07.000Z</time>
      </trkpt>
      <trkpt lat="44.4008" lon="4.6597">
        <ele>53.338505</ele>
        <time>2021-09-16T06:28:16.000Z</time>
      </trkpt>
      <trkpt lat="44.40068" lon="4.65969">
        <ele>53.385022</ele>
        <time>2021-09-16T06:28:18.000Z</time>
      </trkpt>
      <trkpt lat="44.40056" lon="4.65971">
        <ele>53.428847</ele>
        <time>2021-09-16T06:28:20.000Z</time>
      </trkpt>
      <trkpt lat="44.4005" lon="4.65973">
        <ele>53.448895</ele>
        <time>2021-09-16T06:28:21.000Z</time>
      </trkpt>
      <trkpt lat="44.40031" lon="4.65988">
        <ele>53.531641</ele>
        <time>2021-09-16T06:28:25.000Z</time>
      </trkpt>
      <trkpt lat="44.40026" lon="4.65991">
        <ele>53.553029</ele>
        <time>2021-09-16T06:28:26.000Z</time>
      </trkpt>
      <trkpt lat="44.4002" lon="4.65995">
        <ele>53.574861</ele>
        <time>2021-09-16T06:28:27.000Z</time>
      </trkpt>
      <trkpt lat="44.4" lon="4.65997">
        <ele>53.648872</ele>
        <time>2021-09-16T06:28:30.000Z</time>
      </trkpt>
      <trkpt lat="44.39954" lon="4.65981">
        <ele>53.822691</ele>
        <time>2021-09-16T06:28:37.000Z</time>
      </trkpt>
      <trkpt lat="44.399" lon="4.6596">
        <ele>54.025297</ele>
        <time>2021-09-16T06:28:45.000Z</time>
      </trkpt>
      <trkpt lat="44.39894" lon="4.65958">
        <ele>54.048815</ele>
        <time>2021-09-16T06:28:46.000Z</time>
      </trkpt>
      <trkpt lat="44.39881" lon="4.65953">
        <ele>54.094884</ele>
        <time>2021-09-16T06:28:48.000Z</time>
      </trkpt>
      <trkpt lat="44.39869" lon="4.65947">
        <ele>54.141531</ele>
        <time>2021-09-16T06:28:50.000Z</time>
      </trkpt>
      <trkpt lat="44.39864" lon="4.65942">
        <ele>54.163114</ele>
        <time>2021-09-16T06:28:51.000Z</time>
      </trkpt>
      <trkpt lat="44.39848" lon="4.65932">
        <ele>54.224292</ele>
        <time>2021-09-16T06:28:54.000Z</time>
      </trkpt>
      <trkpt lat="44.39826" lon="4.65927">
        <ele>54.304485</ele>
        <time>2021-09-16T06:28:58.000Z</time>
      </trkpt>
      <trkpt lat="44.39821" lon="4.65926">
        <ele>54.322076</ele>
        <time>2021-09-16T06:28:59.000Z</time>
      </trkpt>
      <trkpt lat="44.3981" lon="4.65921">
        <ele>54.363996</ele>
        <time>2021-09-16T06:29:01.000Z</time>
      </trkpt>
      <trkpt lat="44.3978" lon="4.65902">
        <ele>54.48098</ele>
        <time>2021-09-16T06:29:06.000Z</time>
      </trkpt>
      <trkpt lat="44.39756" lon="4.65878">
        <ele>54.52361</ele>
        <time>2021-09-16T06:29:11.000Z</time>
      </trkpt>
      <trkpt lat="44.39735" lon="4.65858">
        <ele>54.521703</ele>
        <time>2021-09-16T06:29:15.000Z</time>
      </trkpt>
      <trkpt lat="44.3973" lon="4.65853">
        <ele>54.521243</ele>
        <time>2021-09-16T06:29:16.000Z</time>
      </trkpt>
      <trkpt lat="44.39714" lon="4.65842">
        <ele>54.519903</ele>
        <time>2021-09-16T06:29:19.000Z</time>
      </trkpt>
      <trkpt lat="44.39686" lon="4.65823">
        <ele>54.517566</ele>
        <time>2021-09-16T06:29:24.000Z</time>
      </trkpt>
      <trkpt lat="44.39638" lon="4.65791">
        <ele>54.513556</ele>
        <time>2021-09-16T06:29:32.000Z</time>
      </trkpt>
      <trkpt lat="44.39618" lon="4.65777">
        <ele>54.511899</ele>
        <time>2021-09-16T06:29:36.000Z</time>
      </trkpt>
      <trkpt lat="44.39588" lon="4.65756">
        <ele>54.465264</ele>
        <time>2021-09-16T06:29:41.000Z</time>
      </trkpt>
      <trkpt lat="44.39582" lon="4.65752">
        <ele>54.45335</ele>
        <time>2021-09-16T06:29:42.000Z</time>
      </trkpt>
      <trkpt lat="44.39565" lon="4.6574">
        <ele>54.420469</ele>
        <time>2021-09-16T06:29:45.000Z</time>
      </trkpt>
      <trkpt lat="44.39554" lon="4.65732">
        <ele>54.399502</ele>
        <time>2021-09-16T06:29:47.000Z</time>
      </trkpt>
      <trkpt lat="44.39543" lon="4.65723">
        <ele>54.378027</ele>
        <time>2021-09-16T06:29:49.000Z</time>
      </trkpt>
      <trkpt lat="44.39533" lon="4.65711">
        <ele>54.355031</ele>
        <time>2021-09-16T06:29:51.000Z</time>
      </trkpt>
      <trkpt lat="44.39528" lon="4.65693">
        <ele>54.33157</ele>
        <time>2021-09-16T06:29:53.000Z</time>
      </trkpt>
      <trkpt lat="44.39529" lon="4.65683">
        <ele>54.319125</ele>
        <time>2021-09-16T06:29:54.000Z</time>
      </trkpt>
      <trkpt lat="44.39534" lon="4.65647">
        <ele>54.273798</ele>
        <time>2021-09-16T06:29:58.000Z</time>
      </trkpt>
      <trkpt lat="44.39544" lon="4.65572">
        <ele>54.208712</ele>
        <time>2021-09-16T06:30:06.000Z</time>
      </trkpt>
      <trkpt lat="44.39545" lon="4.65563">
        <ele>54.212201</ele>
        <time>2021-09-16T06:30:07.000Z</time>
      </trkpt>
      <trkpt lat="44.39554" lon="4.65497">
        <ele>54.238823</ele>
        <time>2021-09-16T06:30:14.000Z</time>
      </trkpt>
      <trkpt lat="44.39563" lon="4.6544">
        <ele>54.261652</ele>
        <time>2021-09-16T06:30:20.000Z</time>
      </trkpt>
      <trkpt lat="44.39572" lon="4.65386">
        <ele>54.283653</ele>
        <time>2021-09-16T06:30:26.000Z</time>
      </trkpt>
      <trkpt lat="44.39581" lon="4.65324">
        <ele>54.267614</ele>
        <time>2021-09-16T06:30:33.000Z</time>
      </trkpt>
      <trkpt lat="44.39586" lon="4.6529">
        <ele>54.207735</ele>
        <time>2021-09-16T06:30:37.000Z</time>
      </trkpt>
      <trkpt lat="44.39588" lon="4.65273">
        <ele>54.179225</ele>
        <time>2021-09-16T06:30:39.000Z</time>
      </trkpt>
      <trkpt lat="44.39599" lon="4.65208">
        <ele>54.06457</ele>
        <time>2021-09-16T06:30:47.000Z</time>
      </trkpt>
      <trkpt lat="44.39603" lon="4.65183">
        <ele>54.021889</ele>
        <time>2021-09-16T06:30:50.000Z</time>
      </trkpt>
      <trkpt lat="44.39605" lon="4.65167">
        <ele>53.99393</ele>
        <time>2021-09-16T06:30:52.000Z</time>
      </trkpt>
      <trkpt lat="44.39607" lon="4.65153">
        <ele>53.969127</ele>
        <time>2021-09-16T06:30:54.000Z</time>
      </trkpt>
      <trkpt lat="44.39609" lon="4.65145">
        <ele>53.955121</ele>
        <time>2021-09-16T06:30:55.000Z</time>
      </trkpt>
      <trkpt lat="44.3961" lon="4.65137">
        <ele>53.941501</ele>
        <time>2021-09-16T06:30:56.000Z</time>
      </trkpt>
      <trkpt lat="44.39612" lon="4.65122">
        <ele>53.914543</ele>
        <time>2021-09-16T06:30:58.000Z</time>
      </trkpt>
      <trkpt lat="44.39614" lon="4.65114">
        <ele>53.900371</ele>
        <time>2021-09-16T06:30:59.000Z</time>
      </trkpt>
      <trkpt lat="44.39624" lon="4.65051">
        <ele>53.6191</ele>
        <time>2021-09-16T06:31:07.000Z</time>
      </trkpt>
      <trkpt lat="44.39624" lon="4.65043">
        <ele>53.578745</ele>
        <time>2021-09-16T06:31:08.000Z</time>
      </trkpt>
      <trkpt lat="44.39623" lon="4.65028">
        <ele>53.501319</ele>
        <time>2021-09-16T06:31:10.000Z</time>
      </trkpt>
      <trkpt lat="44.39622" lon="4.65021">
        <ele>53.462227</ele>
        <time>2021-09-16T06:31:11.000Z</time>
      </trkpt>
      <trkpt lat="44.39618" lon="4.65007">
        <ele>53.383775</ele>
        <time>2021-09-16T06:31:13.000Z</time>
      </trkpt>
      <trkpt lat="44.39612" lon="4.6499">
        <ele>53.283992</ele>
        <time>2021-09-16T06:31:16.000Z</time>
      </trkpt>
      <trkpt lat="44.39606" lon="4.64974">
        <ele>53.186432</ele>
        <time>2021-09-16T06:31:21.000Z</time>
      </trkpt>
      <trkpt lat="44.39601" lon="4.64957">
        <ele>53.087138</ele>
        <time>2021-09-16T06:31:26.000Z</time>
      </trkpt>
      <trkpt lat="44.39597" lon="4.64938">
        <ele>52.982376</ele>
        <time>2021-09-16T06:31:30.000Z</time>
      </trkpt>
      <trkpt lat="44.39596" lon="4.64918">
        <ele>52.878947</ele>
        <time>2021-09-16T06:31:34.000Z</time>
      </trkpt>
      <trkpt lat="44.39596" lon="4.64913">
        <ele>52.85189</ele>
        <time>2021-09-16T06:31:35.000Z</time>
      </trkpt>
      <trkpt lat="44.39589" lon="4.64903">
        <ele>52.77545</ele>
        <time>2021-09-16T06:31:37.000Z</time>
      </trkpt>
      <trkpt lat="44.39585" lon="4.64904">
        <ele>52.74409</ele>
        <time>2021-09-16T06:31:38.000Z</time>
      </trkpt>
      <trkpt lat="44.3958" lon="4.64906">
        <ele>52.70637</ele>
        <time>2021-09-16T06:31:39.000Z</time>
      </trkpt>
      <trkpt lat="44.39569" lon="4.64915">
        <ele>52.616226</ele>
        <time>2021-09-16T06:31:42.000Z</time>
      </trkpt>
      <trkpt lat="44.39564" lon="4.64923">
        <ele>52.559178</ele>
        <time>2021-09-16T06:31:45.000Z</time>
      </trkpt>
      <trkpt lat="44.39562" lon="4.64928">
        <ele>52.533546</ele>
        <time>2021-09-16T06:31:46.000Z</time>
      </trkpt>
      <trkpt lat="44.39558" lon="4.64943">
        <ele>52.494226</ele>
        <time>2021-09-16T06:31:48.000Z</time>
      </trkpt>
      <trkpt lat="44.39554" lon="4.64965">
        <ele>52.438393</ele>
        <time>2021-09-16T06:31:51.000Z</time>
      </trkpt>
      <trkpt lat="44.39548" lon="4.6499">
        <ele>52.373243</ele>
        <time>2021-09-16T06:31:54.000Z</time>
      </trkpt>
      <trkpt lat="44.39546" lon="4.64998">
        <ele>52.35277</ele>
        <time>2021-09-16T06:31:55.000Z</time>
      </trkpt>
      <trkpt lat="44.39523" lon="4.65033">
        <ele>52.237326</ele>
        <time>2021-09-16T06:32:00.000Z</time>
      </trkpt>
      <trkpt lat="44.39519" lon="4.6504">
        <ele>52.214383</ele>
        <time>2021-09-16T06:32:01.000Z</time>
      </trkpt>
      <trkpt lat="44.39514" lon="4.65046">
        <ele>52.1918</ele>
        <time>2021-09-16T06:32:02.000Z</time>
      </trkpt>
      <trkpt lat="44.39506" lon="4.65058">
        <ele>52.152073</ele>
        <time>2021-09-16T06:32:04.000Z</time>
      </trkpt>
      <trkpt lat="44.39502" lon="4.65062">
        <ele>52.134804</ele>
        <time>2021-09-16T06:32:05.000Z</time>
      </trkpt>
      <trkpt lat="44.39498" lon="4.65067">
        <ele>52.116113</ele>
        <time>2021-09-16T06:32:06.000Z</time>
      </trkpt>
      <trkpt lat="44.39494" lon="4.65089">
        <ele>52.062262</ele>
        <time>2021-09-16T06:32:08.000Z</time>
      </trkpt>
      <trkpt lat="44.39494" lon="4.65097">
        <ele>52.041852</ele>
        <time>2021-09-16T06:32:09.000Z</time>
      </trkpt>
      <trkpt lat="44.39493" lon="4.65105">
        <ele>52.020661</ele>
        <time>2021-09-16T06:32:10.000Z</time>
      </trkpt>
      <trkpt lat="44.39485" lon="4.6512">
        <ele>51.975414</ele>
        <time>2021-09-16T06:32:12.000Z</time>
      </trkpt>
      <trkpt lat="44.39476" lon="4.65129">
        <ele>51.936127</ele>
        <time>2021-09-16T06:32:14.000Z</time>
      </trkpt>
      <trkpt lat="44.39473" lon="4.65133">
        <ele>51.922749</ele>
        <time>2021-09-16T06:32:15.000Z</time>
      </trkpt>
      <trkpt lat="44.39459" lon="4.65154">
        <ele>52.101602</ele>
        <time>2021-09-16T06:32:18.000Z</time>
      </trkpt>
      <trkpt lat="44.3945" lon="4.65167">
        <ele>52.21692</ele>
        <time>2021-09-16T06:32:20.000Z</time>
      </trkpt>
      <trkpt lat="44.39446" lon="4.65173">
        <ele>52.270561</ele>
        <time>2021-09-16T06:32:21.000Z</time>
      </trkpt>
      <trkpt lat="44.39432" lon="4.65193">
        <ele>52.455148</ele>
        <time>2021-09-16T06:32:24.000Z</time>
      </trkpt>
      <trkpt lat="44.39407" lon="4.65208">
        <ele>52.696201</ele>
        <time>2021-09-16T06:32:28.000Z</time>
      </trkpt>
      <trkpt lat="44.3938" lon="4.65225">
        <ele>52.966512</ele>
        <time>2021-09-16T06:32:33.000Z</time>
      </trkpt>
      <trkpt lat="44.39351" lon="4.65242">
        <ele>53.246062</ele>
        <time>2021-09-16T06:32:38.000Z</time>
      </trkpt>
      <trkpt lat="44.39338" lon="4.65247">
        <ele>53.361811</ele>
        <time>2021-09-16T06:32:40.000Z</time>
      </trkpt>
      <trkpt lat="44.39326" lon="4.65253">
        <ele>53.47461</ele>
        <time>2021-09-16T06:32:42.000Z</time>
      </trkpt>
      <trkpt lat="44.39303" lon="4.65264">
        <ele>53.672573</ele>
        <time>2021-09-16T06:32:46.000Z</time>
      </trkpt>
      <trkpt lat="44.39298" lon="4.65268">
        <ele>53.720003</ele>
        <time>2021-09-16T06:32:47.000Z</time>
      </trkpt>
      <trkpt lat="44.39275" lon="4.65284">
        <ele>53.918887</ele>
        <time>2021-09-16T06:32:51.000Z</time>
      </trkpt>
      <trkpt lat="44.3927" lon="4.65288">
        <ele>53.965368</ele>
        <time>2021-09-16T06:32:52.000Z</time>
      </trkpt>
      <trkpt lat="44.39236" lon="4.65312">
        <ele>54.260755</ele>
        <time>2021-09-16T06:32:58.000Z</time>
      </trkpt>
      <trkpt lat="44.39206" lon="4.65329">
        <ele>54.511931</ele>
        <time>2021-09-16T06:33:03.000Z</time>
      </trkpt>
      <trkpt lat="44.39195" lon="4.65335">
        <ele>54.603484</ele>
        <time>2021-09-16T06:33:05.000Z</time>
      </trkpt>
      <trkpt lat="44.39178" lon="4.65339">
        <ele>54.742567</ele>
        <time>2021-09-16T06:33:08.000Z</time>
      </trkpt>
      <trkpt lat="44.39134" lon="4.65342">
        <ele>55.010565</ele>
        <time>2021-09-16T06:33:15.000Z</time>
      </trkpt>
      <trkpt lat="44.39084" lon="4.65333">
        <ele>55.209322</ele>
        <time>2021-09-16T06:33:23.000Z</time>
      </trkpt>
      <trkpt lat="44.3904" lon="4.65329">
        <ele>55.379766</ele>
        <time>2021-09-16T06:33:30.000Z</time>
      </trkpt>
      <trkpt lat="44.39034" lon="4.6533">
        <ele>55.402791</ele>
        <time>2021-09-16T06:33:31.000Z</time>
      </trkpt>
      <trkpt lat="44.38993" lon="4.65331">
        <ele>55.563949</ele>
        <time>2021-09-16T06:33:38.000Z</time>
      </trkpt>
      <trkpt lat="44.38958" lon="4.65332">
        <ele>55.65286</ele>
        <time>2021-09-16T06:33:44.000Z</time>
      </trkpt>
      <trkpt lat="44.38951" lon="4.65332">
        <ele>55.658206</ele>
        <time>2021-09-16T06:33:45.000Z</time>
      </trkpt>
      <trkpt lat="44.38928" lon="4.65326">
        <ele>55.678437</ele>
        <time>2021-09-16T06:33:49.000Z</time>
      </trkpt>
      <trkpt lat="44.389" lon="4.65319">
        <ele>55.701804</ele>
        <time>2021-09-16T06:33:54.000Z</time>
      </trkpt>
      <trkpt lat="44.38883" lon="4.65315">
        <ele>55.716388</ele>
        <time>2021-09-16T06:33:57.000Z</time>
      </trkpt>
      <trkpt lat="44.38878" lon="4.65314">
        <ele>55.720765</ele>
        <time>2021-09-16T06:33:58.000Z</time>
      </trkpt>
      <trkpt lat="44.38849" lon="4.65305">
        <ele>55.745074</ele>
        <time>2021-09-16T06:34:02.000Z</time>
      </trkpt>
      <trkpt lat="44.38849" lon="4.65305">
        <ele>55.745074</ele>
        <time>2021-09-16T06:34:03.000Z</time>
      </trkpt>
      <trkpt lat="44.38838" lon="4.65295">
        <ele>55.755982</ele>
        <time>2021-09-16T06:34:05.000Z</time>
      </trkpt>
      <trkpt lat="44.38822" lon="4.65278">
        <ele>55.772896</ele>
        <time>2021-09-16T06:34:08.000Z</time>
      </trkpt>
      <trkpt lat="44.38786" lon="4.65238">
        <ele>55.770393</ele>
        <time>2021-09-16T06:34:15.000Z</time>
      </trkpt>
      <trkpt lat="44.38757" lon="4.65203">
        <ele>55.740725</ele>
        <time>2021-09-16T06:34:21.000Z</time>
      </trkpt>
      <trkpt lat="44.38728" lon="4.65168">
        <ele>55.711506</ele>
        <time>2021-09-16T06:34:27.000Z</time>
      </trkpt>
      <trkpt lat="44.38694" lon="4.65129">
        <ele>55.676958</ele>
        <time>2021-09-16T06:34:34.000Z</time>
      </trkpt>
      <trkpt lat="44.38672" lon="4.6511">
        <ele>55.657199</ele>
        <time>2021-09-16T06:34:38.000Z</time>
      </trkpt>
      <trkpt lat="44.38661" lon="4.65101">
        <ele>55.639925</ele>
        <time>2021-09-16T06:34:40.000Z</time>
      </trkpt>
      <trkpt lat="44.38623" lon="4.6507">
        <ele>55.534246</ele>
        <time>2021-09-16T06:34:47.000Z</time>
      </trkpt>
      <trkpt lat="44.38583" lon="4.65043">
        <ele>55.42885</ele>
        <time>2021-09-16T06:34:54.000Z</time>
      </trkpt>
      <trkpt lat="44.38536" lon="4.65011">
        <ele>55.305308</ele>
        <time>2021-09-16T06:35:02.000Z</time>
      </trkpt>
      <trkpt lat="44.38485" lon="4.64974">
        <ele>55.222137</ele>
        <time>2021-09-16T06:35:11.000Z</time>
      </trkpt>
      <trkpt lat="44.38437" lon="4.64931">
        <ele>55.220262</ele>
        <time>2021-09-16T06:35:20.000Z</time>
      </trkpt>
      <trkpt lat="44.38425" lon="4.64925">
        <ele>55.219869</ele>
        <time>2021-09-16T06:35:22.000Z</time>
      </trkpt>
      <trkpt lat="44.38413" lon="4.64925">
        <ele>55.219478</ele>
        <time>2021-09-16T06:35:24.000Z</time>
      </trkpt>
      <trkpt lat="44.38378" lon="4.64924">
        <ele>55.218337</ele>
        <time>2021-09-16T06:35:30.000Z</time>
      </trkpt>
      <trkpt lat="44.38372" lon="4.64923">
        <ele>55.218144</ele>
        <time>2021-09-16T06:35:31.000Z</time>
      </trkpt>
      <trkpt lat="44.38361" lon="4.64922">
        <ele>55.217755</ele>
        <time>2021-09-16T06:35:33.000Z</time>
      </trkpt>
      <trkpt lat="44.38349" lon="4.6492">
        <ele>55.217363</ele>
        <time>2021-09-16T06:35:35.000Z</time>
      </trkpt>
      <trkpt lat="44.38306" lon="4.64904">
        <ele>55.144081</ele>
        <time>2021-09-16T06:35:42.000Z</time>
      </trkpt>
      <trkpt lat="44.38271" lon="4.64889">
        <ele>55.066237</ele>
        <time>2021-09-16T06:35:48.000Z</time>
      </trkpt>
      <trkpt lat="44.38259" lon="4.64884">
        <ele>55.040054</ele>
        <time>2021-09-16T06:35:50.000Z</time>
      </trkpt>
      <trkpt lat="44.38248" lon="4.64876">
        <ele>55.012861</ele>
        <time>2021-09-16T06:35:52.000Z</time>
      </trkpt>
      <trkpt lat="44.38232" lon="4.64863">
        <ele>54.973263</ele>
        <time>2021-09-16T06:35:55.000Z</time>
      </trkpt>
      <trkpt lat="44.38218" lon="4.64846">
        <ele>54.934485</ele>
        <time>2021-09-16T06:35:58.000Z</time>
      </trkpt>
      <trkpt lat="44.38196" lon="4.64819">
        <ele>54.870837</ele>
        <time>2021-09-16T06:36:03.000Z</time>
      </trkpt>
      <trkpt lat="44.38191" lon="4.64814">
        <ele>54.857615</ele>
        <time>2021-09-16T06:36:04.000Z</time>
      </trkpt>
      <trkpt lat="44.38177" lon="4.64797">
        <ele>54.798717</ele>
        <time>2021-09-16T06:36:07.000Z</time>
      </trkpt>
      <trkpt lat="44.38168" lon="4.64786">
        <ele>54.736803</ele>
        <time>2021-09-16T06:36:09.000Z</time>
      </trkpt>
      <trkpt lat="44.38153" lon="4.64769">
        <ele>54.640562</ele>
        <time>2021-09-16T06:36:12.000Z</time>
      </trkpt>
      <trkpt lat="44.38125" lon="4.64734">
        <ele>54.447513</ele>
        <time>2021-09-16T06:36:18.000Z</time>
      </trkpt>
      <trkpt lat="44.38114" lon="4.64725">
        <ele>54.382004</ele>
        <time>2021-09-16T06:36:20.000Z</time>
      </trkpt>
      <trkpt lat="44.38107" lon="4.64722">
        <ele>54.343056</ele>
        <time>2021-09-16T06:36:21.000Z</time>
      </trkpt>
      <trkpt lat="44.38057" lon="4.64738">
        <ele>54.080801</ele>
        <time>2021-09-16T06:36:29.000Z</time>
      </trkpt>
      <trkpt lat="44.38045" lon="4.64742">
        <ele>54.017854</ele>
        <time>2021-09-16T06:36:31.000Z</time>
      </trkpt>
      <trkpt lat="44.38027" lon="4.64748">
        <ele>53.92443</ele>
        <time>2021-09-16T06:36:34.000Z</time>
      </trkpt>
      <trkpt lat="44.38013" lon="4.64746">
        <ele>53.966179</ele>
        <time>2021-09-16T06:36:36.000Z</time>
      </trkpt>
      <trkpt lat="44.38002" lon="4.6474">
        <ele>54.025157</ele>
        <time>2021-09-16T06:36:38.000Z</time>
      </trkpt>
      <trkpt lat="44.37986" lon="4.64728">
        <ele>54.11346</ele>
        <time>2021-09-16T06:36:41.000Z</time>
      </trkpt>
      <trkpt lat="44.37977" lon="4.6472">
        <ele>54.164977</ele>
        <time>2021-09-16T06:36:43.000Z</time>
      </trkpt>
      <trkpt lat="44.37967" lon="4.6471">
        <ele>54.224815</ele>
        <time>2021-09-16T06:36:45.000Z</time>
      </trkpt>
      <trkpt lat="44.37951" lon="4.64697">
        <ele>54.311026</ele>
        <time>2021-09-16T06:36:48.000Z</time>
      </trkpt>
      <trkpt lat="44.37946" lon="4.64697">
        <ele>54.33531</ele>
        <time>2021-09-16T06:36:49.000Z</time>
      </trkpt>
      <trkpt lat="44.37931" lon="4.64698">
        <ele>54.4101</ele>
        <time>2021-09-16T06:36:53.000Z</time>
      </trkpt>
      <trkpt lat="44.37914" lon="4.64704">
        <ele>54.497139</ele>
        <time>2021-09-16T06:37:00.000Z</time>
      </trkpt>
      <trkpt lat="44.37902" lon="4.64717">
        <ele>54.568955</ele>
        <time>2021-09-16T06:37:06.000Z</time>
      </trkpt>
      <trkpt lat="44.37902" lon="4.64717">
        <ele>54.571219</ele>
        <time>2021-09-16T06:37:07.000Z</time>
      </trkpt>
      <trkpt lat="44.37894" lon="4.64719">
        <ele>54.610175</ele>
        <time>2021-09-16T06:37:10.000Z</time>
      </trkpt>
      <trkpt lat="44.3789" lon="4.6472">
        <ele>54.627442</ele>
        <time>2021-09-16T06:37:11.000Z</time>
      </trkpt>
      <trkpt lat="44.37878" lon="4.64724">
        <ele>54.689642</ele>
        <time>2021-09-16T06:37:14.000Z</time>
      </trkpt>
      <trkpt lat="44.37844" lon="4.64732">
        <ele>54.787619</ele>
        <time>2021-09-16T06:37:20.000Z</time>
      </trkpt>
      <trkpt lat="44.37796" lon="4.64742">
        <ele>54.798526</ele>
        <time>2021-09-16T06:37:27.000Z</time>
      </trkpt>
      <trkpt lat="44.37755" lon="4.6475">
        <ele>54.808109</ele>
        <time>2021-09-16T06:37:33.000Z</time>
      </trkpt>
      <trkpt lat="44.37748" lon="4.64751">
        <ele>54.809618</ele>
        <time>2021-09-16T06:37:34.000Z</time>
      </trkpt>
      <trkpt lat="44.37729" lon="4.64749">
        <ele>54.813846</ele>
        <time>2021-09-16T06:37:37.000Z</time>
      </trkpt>
      <trkpt lat="44.37717" lon="4.64754">
        <ele>54.816817</ele>
        <time>2021-09-16T06:37:39.000Z</time>
      </trkpt>
      <trkpt lat="44.37711" lon="4.64757">
        <ele>54.818261</ele>
        <time>2021-09-16T06:37:40.000Z</time>
      </trkpt>
      <trkpt lat="44.3769" lon="4.64767">
        <ele>54.823126</ele>
        <time>2021-09-16T06:37:44.000Z</time>
      </trkpt>
      <trkpt lat="44.37646" lon="4.6477">
        <ele>54.873677</ele>
        <time>2021-09-16T06:37:52.000Z</time>
      </trkpt>
      <trkpt lat="44.37602" lon="4.64773">
        <ele>54.932821</ele>
        <time>2021-09-16T06:38:00.000Z</time>
      </trkpt>
      <trkpt lat="44.37567" lon="4.64771">
        <ele>54.981001</ele>
        <time>2021-09-16T06:38:06.000Z</time>
      </trkpt>
      <trkpt lat="44.37561" lon="4.6477">
        <ele>54.98872</ele>
        <time>2021-09-16T06:38:07.000Z</time>
      </trkpt>
      <trkpt lat="44.37516" lon="4.64768">
        <ele>55.049042</ele>
        <time>2021-09-16T06:38:14.000Z</time>
      </trkpt>
      <trkpt lat="44.3747" lon="4.64766">
        <ele>55.082463</ele>
        <time>2021-09-16T06:38:21.000Z</time>
      </trkpt>
      <trkpt lat="44.3742" lon="4.64768">
        <ele>55.105162</ele>
        <time>2021-09-16T06:38:29.000Z</time>
      </trkpt>
      <trkpt lat="44.37366" lon="4.64771">
        <ele>55.129584</ele>
        <time>2021-09-16T06:38:37.000Z</time>
      </trkpt>
      <trkpt lat="44.37359" lon="4.64771">
        <ele>55.132738</ele>
        <time>2021-09-16T06:38:38.000Z</time>
      </trkpt>
      <trkpt lat="44.37304" lon="4.64774">
        <ele>55.086816</ele>
        <time>2021-09-16T06:38:46.000Z</time>
      </trkpt>
      <trkpt lat="44.37252" lon="4.64777">
        <ele>54.904452</ele>
        <time>2021-09-16T06:38:54.000Z</time>
      </trkpt>
      <trkpt lat="44.37239" lon="4.64778">
        <ele>54.858606</ele>
        <time>2021-09-16T06:38:56.000Z</time>
      </trkpt>
      <trkpt lat="44.37226" lon="4.64778">
        <ele>54.813485</ele>
        <time>2021-09-16T06:38:58.000Z</time>
      </trkpt>
      <trkpt lat="44.3722" lon="4.64777">
        <ele>54.792755</ele>
        <time>2021-09-16T06:38:59.000Z</time>
      </trkpt>
      <trkpt lat="44.37208" lon="4.64777">
        <ele>54.752804</ele>
        <time>2021-09-16T06:39:01.000Z</time>
      </trkpt>
      <trkpt lat="44.37198" lon="4.64782">
        <ele>54.714473</ele>
        <time>2021-09-16T06:39:03.000Z</time>
      </trkpt>
      <trkpt lat="44.37186" lon="4.64784">
        <ele>54.672185</ele>
        <time>2021-09-16T06:39:05.000Z</time>
      </trkpt>
      <trkpt lat="44.3718" lon="4.64785">
        <ele>54.652041</ele>
        <time>2021-09-16T06:39:06.000Z</time>
      </trkpt>
      <trkpt lat="44.37153" lon="4.64786">
        <ele>54.557575</ele>
        <time>2021-09-16T06:39:11.000Z</time>
      </trkpt>
      <trkpt lat="44.37122" lon="4.64786">
        <ele>54.494071</ele>
        <time>2021-09-16T06:39:17.000Z</time>
      </trkpt>
      <trkpt lat="44.37117" lon="4.64786">
        <ele>54.486701</ele>
        <time>2021-09-16T06:39:18.000Z</time>
      </trkpt>
      <trkpt lat="44.3708" lon="4.6478">
        <ele>54.431092</ele>
        <time>2021-09-16T06:39:25.000Z</time>
      </trkpt>
      <trkpt lat="44.37034" lon="4.6477">
        <ele>54.362401</ele>
        <time>2021-09-16T06:39:33.000Z</time>
      </trkpt>
      <trkpt lat="44.36998" lon="4.64763">
        <ele>54.309918</ele>
        <time>2021-09-16T06:39:39.000Z</time>
      </trkpt>
      <trkpt lat="44.36956" lon="4.64754">
        <ele>54.414106</ele>
        <time>2021-09-16T06:39:46.000Z</time>
      </trkpt>
      <trkpt lat="44.3692" lon="4.64744">
        <ele>55.031249</ele>
        <time>2021-09-16T06:39:52.000Z</time>
      </trkpt>
      <trkpt lat="44.36893" lon="4.64737">
        <ele>55.508395</ele>
        <time>2021-09-16T06:39:57.000Z</time>
      </trkpt>
      <trkpt lat="44.36889" lon="4.64725">
        <ele>55.670462</ele>
        <time>2021-09-16T06:40:00.000Z</time>
      </trkpt>
      <trkpt lat="44.36884" lon="4.64719">
        <ele>55.776162</ele>
        <time>2021-09-16T06:40:04.000Z</time>
      </trkpt>
      <trkpt lat="44.36882" lon="4.64718">
        <ele>55.808538</ele>
        <time>2021-09-16T06:40:05.000Z</time>
      </trkpt>
      <trkpt lat="44.36875" lon="4.64718">
        <ele>55.927657</ele>
        <time>2021-09-16T06:40:08.000Z</time>
      </trkpt>
      <trkpt lat="44.36868" lon="4.6473">
        <ele>56.11497</ele>
        <time>2021-09-16T06:40:13.000Z</time>
      </trkpt>
      <trkpt lat="44.36862" lon="4.6473">
        <ele>56.215286</ele>
        <time>2021-09-16T06:40:17.000Z</time>
      </trkpt>
      <trkpt lat="44.36861" lon="4.6473">
        <ele>56.242491</ele>
        <time>2021-09-16T06:40:18.000Z</time>
      </trkpt>
      <trkpt lat="44.36859" lon="4.64729">
        <ele>56.278212</ele>
        <time>2021-09-16T06:40:19.000Z</time>
      </trkpt>
      <trkpt lat="44.36861" lon="4.6473">
        <ele>56.313934</ele>
        <time>2021-09-16T06:40:21.000Z</time>
      </trkpt>
      <trkpt lat="44.36859" lon="4.64755">
        <ele>56.618729</ele>
        <time>2021-09-16T06:40:27.000Z</time>
      </trkpt>
      <trkpt lat="44.36857" lon="4.64783">
        <ele>56.955671</ele>
        <time>2021-09-16T06:40:35.000Z</time>
      </trkpt>
      <trkpt lat="44.36855" lon="4.64807">
        <ele>57.257004</ele>
        <time>2021-09-16T06:40:43.000Z</time>
      </trkpt>
      <trkpt lat="44.36852" lon="4.64838">
        <ele>57.711462</ele>
        <time>2021-09-16T06:40:52.000Z</time>
      </trkpt>
      <trkpt lat="44.36849" lon="4.64866">
        <ele>58.161274</ele>
        <time>2021-09-16T06:41:00.000Z</time>
      </trkpt>
      <trkpt lat="44.36848" lon="4.64883">
        <ele>58.418349</ele>
        <time>2021-09-16T06:41:05.000Z</time>
      </trkpt>
      <trkpt lat="44.36846" lon="4.64908">
        <ele>58.821342</ele>
        <time>2021-09-16T06:41:11.000Z</time>
      </trkpt>
      <trkpt lat="44.36842" lon="4.64945">
        <ele>59.400402</ele>
        <time>2021-09-16T06:41:18.000Z</time>
      </trkpt>
      <trkpt lat="44.36837" lon="4.64995">
        <ele>60.175275</ele>
        <time>2021-09-16T06:41:26.000Z</time>
      </trkpt>
      <trkpt lat="44.36833" lon="4.65043">
        <ele>60.93753</ele>
        <time>2021-09-16T06:41:33.000Z</time>
      </trkpt>
      <trkpt lat="44.36827" lon="4.65106">
        <ele>61.235476</ele>
        <time>2021-09-16T06:41:41.000Z</time>
      </trkpt>
      <trkpt lat="44.36822" lon="4.65156">
        <ele>61.240749</ele>
        <time>2021-09-16T06:41:47.000Z</time>
      </trkpt>
      <trkpt lat="44.36817" lon="4.65209">
        <ele>61.246367</ele>
        <time>2021-09-16T06:41:53.000Z</time>
      </trkpt>
      <trkpt lat="44.3681" lon="4.65289">
        <ele>61.254863</ele>
        <time>2021-09-16T06:42:01.000Z</time>
      </trkpt>
      <trkpt lat="44.36804" lon="4.65348">
        <ele>61.251517</ele>
        <time>2021-09-16T06:42:07.000Z</time>
      </trkpt>
      <trkpt lat="44.36798" lon="4.65418">
        <ele>61.240681</ele>
        <time>2021-09-16T06:42:14.000Z</time>
      </trkpt>
      <trkpt lat="44.36791" lon="4.65494">
        <ele>61.228724</ele>
        <time>2021-09-16T06:42:22.000Z</time>
      </trkpt>
      <trkpt lat="44.36786" lon="4.65552">
        <ele>61.219666</ele>
        <time>2021-09-16T06:42:28.000Z</time>
      </trkpt>
      <trkpt lat="44.36781" lon="4.65612">
        <ele>60.889733</ele>
        <time>2021-09-16T06:42:34.000Z</time>
      </trkpt>
      <trkpt lat="44.3678" lon="4.65622">
        <ele>60.826011</ele>
        <time>2021-09-16T06:42:35.000Z</time>
      </trkpt>
      <trkpt lat="44.36772" lon="4.65636">
        <ele>60.713255</ele>
        <time>2021-09-16T06:42:37.000Z</time>
      </trkpt>
      <trkpt lat="44.3676" lon="4.65648">
        <ele>60.581853</ele>
        <time>2021-09-16T06:42:39.000Z</time>
      </trkpt>
      <trkpt lat="44.36758" lon="4.65647">
        <ele>60.565574</ele>
        <time>2021-09-16T06:42:40.000Z</time>
      </trkpt>
      <trkpt lat="44.3673" lon="4.65641">
        <ele>60.312364</ele>
        <time>2021-09-16T06:42:46.000Z</time>
      </trkpt>
      <trkpt lat="44.36677" lon="4.65627">
        <ele>59.825217</ele>
        <time>2021-09-16T06:42:55.000Z</time>
      </trkpt>
      <trkpt lat="44.36646" lon="4.65621">
        <ele>59.546595</ele>
        <time>2021-09-16T06:43:00.000Z</time>
      </trkpt>
      <trkpt lat="44.36593" lon="4.65616">
        <ele>59.024231</ele>
        <time>2021-09-16T06:43:08.000Z</time>
      </trkpt>
      <trkpt lat="44.36553" lon="4.65612">
        <ele>58.629288</ele>
        <time>2021-09-16T06:43:14.000Z</time>
      </trkpt>
      <trkpt lat="44.36502" lon="4.65607">
        <ele>58.130524</ele>
        <time>2021-09-16T06:43:22.000Z</time>
      </trkpt>
      <trkpt lat="44.36471" lon="4.65604">
        <ele>57.840247</ele>
        <time>2021-09-16T06:43:27.000Z</time>
      </trkpt>
      <trkpt lat="44.36416" lon="4.65599">
        <ele>57.500478</ele>
        <time>2021-09-16T06:43:36.000Z</time>
      </trkpt>
      <trkpt lat="44.36372" lon="4.65595">
        <ele>57.227914</ele>
        <time>2021-09-16T06:43:43.000Z</time>
      </trkpt>
      <trkpt lat="44.36329" lon="4.65589">
        <ele>56.961958</ele>
        <time>2021-09-16T06:43:50.000Z</time>
      </trkpt>
      <trkpt lat="44.36281" lon="4.65579">
        <ele>56.699256</ele>
        <time>2021-09-16T06:43:58.000Z</time>
      </trkpt>
      <trkpt lat="44.36234" lon="4.65566">
        <ele>56.527633</ele>
        <time>2021-09-16T06:44:06.000Z</time>
      </trkpt>
      <trkpt lat="44.36194" lon="4.65556">
        <ele>56.38243</ele>
        <time>2021-09-16T06:44:13.000Z</time>
      </trkpt>
      <trkpt lat="44.36159" lon="4.65553">
        <ele>56.258993</ele>
        <time>2021-09-16T06:44:19.000Z</time>
      </trkpt>
      <trkpt lat="44.36118" lon="4.65556">
        <ele>56.112144</ele>
        <time>2021-09-16T06:44:26.000Z</time>
      </trkpt>
      <trkpt lat="44.36069" lon="4.65561">
        <ele>55.930834</ele>
        <time>2021-09-16T06:44:34.000Z</time>
      </trkpt>
      <trkpt lat="44.3602" lon="4.65565">
        <ele>55.74732</ele>
        <time>2021-09-16T06:44:42.000Z</time>
      </trkpt>
      <trkpt lat="44.35966" lon="4.65572">
        <ele>55.5471</ele>
        <time>2021-09-16T06:44:51.000Z</time>
      </trkpt>
      <trkpt lat="44.35927" lon="4.65585">
        <ele>55.385491</ele>
        <time>2021-09-16T06:44:58.000Z</time>
      </trkpt>
      <trkpt lat="44.35921" lon="4.65587">
        <ele>55.357111</ele>
        <time>2021-09-16T06:44:59.000Z</time>
      </trkpt>
      <trkpt lat="44.35903" lon="4.65594">
        <ele>55.267163</ele>
        <time>2021-09-16T06:45:02.000Z</time>
      </trkpt>
      <trkpt lat="44.35897" lon="4.65596">
        <ele>55.237394</ele>
        <time>2021-09-16T06:45:03.000Z</time>
      </trkpt>
      <trkpt lat="44.35859" lon="4.65611">
        <ele>55.047514</ele>
        <time>2021-09-16T06:45:09.000Z</time>
      </trkpt>
      <trkpt lat="44.35801" lon="4.65633">
        <ele>54.759736</ele>
        <time>2021-09-16T06:45:18.000Z</time>
      </trkpt>
      <trkpt lat="44.35782" lon="4.6564">
        <ele>54.664797</ele>
        <time>2021-09-16T06:45:21.000Z</time>
      </trkpt>
      <trkpt lat="44.35775" lon="4.65642">
        <ele>54.632996</ele>
        <time>2021-09-16T06:45:22.000Z</time>
      </trkpt>
      <trkpt lat="44.35768" lon="4.65647">
        <ele>54.593962</ele>
        <time>2021-09-16T06:45:23.000Z</time>
      </trkpt>
      <trkpt lat="44.35759" lon="4.65663">
        <ele>54.549022</ele>
        <time>2021-09-16T06:45:25.000Z</time>
      </trkpt>
      <trkpt lat="44.35755" lon="4.65669">
        <ele>54.533427</ele>
        <time>2021-09-16T06:45:26.000Z</time>
      </trkpt>
      <trkpt lat="44.35749" lon="4.65674">
        <ele>54.516862</ele>
        <time>2021-09-16T06:45:27.000Z</time>
      </trkpt>
      <trkpt lat="44.35735" lon="4.65677">
        <ele>54.482053</ele>
        <time>2021-09-16T06:45:29.000Z</time>
      </trkpt>
      <trkpt lat="44.357" lon="4.65675">
        <ele>54.396556</ele>
        <time>2021-09-16T06:45:34.000Z</time>
      </trkpt>
      <trkpt lat="44.35652" lon="4.6567">
        <ele>54.276305</ele>
        <time>2021-09-16T06:45:41.000Z</time>
      </trkpt>
      <trkpt lat="44.35598" lon="4.65666">
        <ele>54.143252</ele>
        <time>2021-09-16T06:45:49.000Z</time>
      </trkpt>
      <trkpt lat="44.35551" lon="4.65667">
        <ele>54.103138</ele>
        <time>2021-09-16T06:45:56.000Z</time>
      </trkpt>
      <trkpt lat="44.35518" lon="4.65665">
        <ele>54.080053</ele>
        <time>2021-09-16T06:46:01.000Z</time>
      </trkpt>
      <trkpt lat="44.3548" lon="4.65646">
        <ele>54.052176</ele>
        <time>2021-09-16T06:46:07.000Z</time>
      </trkpt>
      <trkpt lat="44.35436" lon="4.65622">
        <ele>54.01952</ele>
        <time>2021-09-16T06:46:14.000Z</time>
      </trkpt>
      <trkpt lat="44.35397" lon="4.65597">
        <ele>54.013999</ele>
        <time>2021-09-16T06:46:20.000Z</time>
      </trkpt>
      <trkpt lat="44.35378" lon="4.65584">
        <ele>54.019164</ele>
        <time>2021-09-16T06:46:23.000Z</time>
      </trkpt>
      <trkpt lat="44.35372" lon="4.65581">
        <ele>54.020857</ele>
        <time>2021-09-16T06:46:24.000Z</time>
      </trkpt>
      <trkpt lat="44.35365" lon="4.65581">
        <ele>54.022552</ele>
        <time>2021-09-16T06:46:25.000Z</time>
      </trkpt>
      <trkpt lat="44.35352" lon="4.65583">
        <ele>54.025957</ele>
        <time>2021-09-16T06:46:27.000Z</time>
      </trkpt>
      <trkpt lat="44.35303" lon="4.65617">
        <ele>54.039436</ele>
        <time>2021-09-16T06:46:35.000Z</time>
      </trkpt>
      <trkpt lat="44.35251" lon="4.65656">
        <ele>54.049762</ele>
        <time>2021-09-16T06:46:44.000Z</time>
      </trkpt>
      <trkpt lat="44.35199" lon="4.65695">
        <ele>54.029614</ele>
        <time>2021-09-16T06:46:53.000Z</time>
      </trkpt>
      <trkpt lat="44.35157" lon="4.65726">
        <ele>54.013383</ele>
        <time>2021-09-16T06:47:00.000Z</time>
      </trkpt>
      <trkpt lat="44.35115" lon="4.65757">
        <ele>53.997338</ele>
        <time>2021-09-16T06:47:07.000Z</time>
      </trkpt>
      <trkpt lat="44.35067" lon="4.65793">
        <ele>53.872735</ele>
        <time>2021-09-16T06:47:15.000Z</time>
      </trkpt>
      <trkpt lat="44.35055" lon="4.65803">
        <ele>53.827002</ele>
        <time>2021-09-16T06:47:17.000Z</time>
      </trkpt>
      <trkpt lat="44.35006" lon="4.65839">
        <ele>53.647541</ele>
        <time>2021-09-16T06:47:25.000Z</time>
      </trkpt>
      <trkpt lat="44.34983" lon="4.65857">
        <ele>53.561425</ele>
        <time>2021-09-16T06:47:29.000Z</time>
      </trkpt>
      <trkpt lat="44.34941" lon="4.65888">
        <ele>53.406612</ele>
        <time>2021-09-16T06:47:36.000Z</time>
      </trkpt>
      <trkpt lat="44.34911" lon="4.65902">
        <ele>53.290447</ele>
        <time>2021-09-16T06:47:41.000Z</time>
      </trkpt>
      <trkpt lat="44.34898" lon="4.65906">
        <ele>53.243743</ele>
        <time>2021-09-16T06:47:43.000Z</time>
      </trkpt>
      <trkpt lat="44.34886" lon="4.65909">
        <ele>53.200784</ele>
        <time>2021-09-16T06:47:45.000Z</time>
      </trkpt>
      <trkpt lat="44.34855" lon="4.65915">
        <ele>53.086053</ele>
        <time>2021-09-16T06:47:50.000Z</time>
      </trkpt>
      <trkpt lat="44.34814" lon="4.6592">
        <ele>52.935369</ele>
        <time>2021-09-16T06:47:56.000Z</time>
      </trkpt>
      <trkpt lat="44.34793" lon="4.65919">
        <ele>52.862596</ele>
        <time>2021-09-16T06:47:59.000Z</time>
      </trkpt>
      <trkpt lat="44.34787" lon="4.65918">
        <ele>52.839824</ele>
        <time>2021-09-16T06:48:00.000Z</time>
      </trkpt>
      <trkpt lat="44.34744" lon="4.65894">
        <ele>52.803529</ele>
        <time>2021-09-16T06:48:07.000Z</time>
      </trkpt>
      <trkpt lat="44.34703" lon="4.65864">
        <ele>52.906855</ele>
        <time>2021-09-16T06:48:14.000Z</time>
      </trkpt>
      <trkpt lat="44.34675" lon="4.65843">
        <ele>52.977319</ele>
        <time>2021-09-16T06:48:19.000Z</time>
      </trkpt>
      <trkpt lat="44.34664" lon="4.65834">
        <ele>53.005658</ele>
        <time>2021-09-16T06:48:21.000Z</time>
      </trkpt>
      <trkpt lat="44.34653" lon="4.65827">
        <ele>53.032205</ele>
        <time>2021-09-16T06:48:23.000Z</time>
      </trkpt>
      <trkpt lat="44.34631" lon="4.65823">
        <ele>53.080967</ele>
        <time>2021-09-16T06:48:27.000Z</time>
      </trkpt>
      <trkpt lat="44.34626" lon="4.65823">
        <ele>53.093421</ele>
        <time>2021-09-16T06:48:28.000Z</time>
      </trkpt>
      <trkpt lat="44.34613" lon="4.65826">
        <ele>53.121435</ele>
        <time>2021-09-16T06:48:30.000Z</time>
      </trkpt>
      <trkpt lat="44.34608" lon="4.6583">
        <ele>53.134808</ele>
        <time>2021-09-16T06:48:31.000Z</time>
      </trkpt>
      <trkpt lat="44.34567" lon="4.65855">
        <ele>53.120816</ele>
        <time>2021-09-16T06:48:37.000Z</time>
      </trkpt>
      <trkpt lat="44.34514" lon="4.65887">
        <ele>53.069809</ele>
        <time>2021-09-16T06:48:45.000Z</time>
      </trkpt>
      <trkpt lat="44.34463" lon="4.65917">
        <ele>53.02099</ele>
        <time>2021-09-16T06:48:53.000Z</time>
      </trkpt>
      <trkpt lat="44.34427" lon="4.65939">
        <ele>52.977318</ele>
        <time>2021-09-16T06:48:59.000Z</time>
      </trkpt>
      <trkpt lat="44.34414" lon="4.65947">
        <ele>52.952932</ele>
        <time>2021-09-16T06:49:01.000Z</time>
      </trkpt>
      <trkpt lat="44.34364" lon="4.65977">
        <ele>52.855542</ele>
        <time>2021-09-16T06:49:09.000Z</time>
      </trkpt>
      <trkpt lat="44.34352" lon="4.65985">
        <ele>52.831586</ele>
        <time>2021-09-16T06:49:11.000Z</time>
      </trkpt>
      <trkpt lat="44.34296" lon="4.66019">
        <ele>52.722867</ele>
        <time>2021-09-16T06:49:20.000Z</time>
      </trkpt>
      <trkpt lat="44.3429" lon="4.66022">
        <ele>52.710618</ele>
        <time>2021-09-16T06:49:21.000Z</time>
      </trkpt>
      <trkpt lat="44.3424" lon="4.66052">
        <ele>52.657209</ele>
        <time>2021-09-16T06:49:29.000Z</time>
      </trkpt>
      <trkpt lat="44.34182" lon="4.66076">
        <ele>52.629572</ele>
        <time>2021-09-16T06:49:38.000Z</time>
      </trkpt>
      <trkpt lat="44.34123" lon="4.66099">
        <ele>52.60174</ele>
        <time>2021-09-16T06:49:47.000Z</time>
      </trkpt>
      <trkpt lat="44.34104" lon="4.66107">
        <ele>52.592542</ele>
        <time>2021-09-16T06:49:50.000Z</time>
      </trkpt>
      <trkpt lat="44.34046" lon="4.6613">
        <ele>52.543065</ele>
        <time>2021-09-16T06:49:59.000Z</time>
      </trkpt>
      <trkpt lat="44.3404" lon="4.66132">
        <ele>52.537316</ele>
        <time>2021-09-16T06:50:00.000Z</time>
      </trkpt>
      <trkpt lat="44.33994" lon="4.66148">
        <ele>52.496789</ele>
        <time>2021-09-16T06:50:09.000Z</time>
      </trkpt>
      <trkpt lat="44.33966" lon="4.66152">
        <ele>52.472428</ele>
        <time>2021-09-16T06:50:11.000Z</time>
      </trkpt>
      <trkpt lat="44.33952" lon="4.66154">
        <ele>52.460088</ele>
        <time>2021-09-16T06:50:13.000Z</time>
      </trkpt>
      <trkpt lat="44.33917" lon="4.66136">
        <ele>52.462148</ele>
        <time>2021-09-16T06:50:18.000Z</time>
      </trkpt>
      <trkpt lat="44.3387" lon="4.66109">
        <ele>52.653943</ele>
        <time>2021-09-16T06:50:25.000Z</time>
      </trkpt>
      <trkpt lat="44.33839" lon="4.66091">
        <ele>52.778112</ele>
        <time>2021-09-16T06:50:30.000Z</time>
      </trkpt>
      <trkpt lat="44.33804" lon="4.66074">
        <ele>52.917148</ele>
        <time>2021-09-16T06:50:36.000Z</time>
      </trkpt>
      <trkpt lat="44.33772" lon="4.6606">
        <ele>53.044437</ele>
        <time>2021-09-16T06:50:41.000Z</time>
      </trkpt>
      <trkpt lat="44.33713" lon="4.66041">
        <ele>53.199294</ele>
        <time>2021-09-16T06:50:49.000Z</time>
      </trkpt>
      <trkpt lat="44.33706" lon="4.66038">
        <ele>53.213748</ele>
        <time>2021-09-16T06:50:50.000Z</time>
      </trkpt>
      <trkpt lat="44.33651" lon="4.66012">
        <ele>53.33571</ele>
        <time>2021-09-16T06:50:58.000Z</time>
      </trkpt>
      <trkpt lat="44.33593" lon="4.65984">
        <ele>53.463809</ele>
        <time>2021-09-16T06:51:06.000Z</time>
      </trkpt>
      <trkpt lat="44.33571" lon="4.65973">
        <ele>53.472</ele>
        <time>2021-09-16T06:51:09.000Z</time>
      </trkpt>
      <trkpt lat="44.33523" lon="4.65956">
        <ele>53.427934</ele>
        <time>2021-09-16T06:51:16.000Z</time>
      </trkpt>
      <trkpt lat="44.33502" lon="4.6595">
        <ele>53.408515</ele>
        <time>2021-09-16T06:51:20.000Z</time>
      </trkpt>
      <trkpt lat="44.33484" lon="4.65944">
        <ele>53.392189</ele>
        <time>2021-09-16T06:51:25.000Z</time>
      </trkpt>
      <trkpt lat="44.33463" lon="4.65938">
        <ele>53.373577</ele>
        <time>2021-09-16T06:51:29.000Z</time>
      </trkpt>
      <trkpt lat="44.33422" lon="4.65926">
        <ele>53.336105</ele>
        <time>2021-09-16T06:51:35.000Z</time>
      </trkpt>
      <trkpt lat="44.33385" lon="4.65919">
        <ele>53.383769</ele>
        <time>2021-09-16T06:51:40.000Z</time>
      </trkpt>
      <trkpt lat="44.3335" lon="4.65919">
        <ele>53.472665</ele>
        <time>2021-09-16T06:51:45.000Z</time>
      </trkpt>
      <trkpt lat="44.33328" lon="4.65922">
        <ele>53.52884</ele>
        <time>2021-09-16T06:51:49.000Z</time>
      </trkpt>
      <trkpt lat="44.33318" lon="4.65925">
        <ele>53.555718</ele>
        <time>2021-09-16T06:51:51.000Z</time>
      </trkpt>
      <trkpt lat="44.33314" lon="4.65927">
        <ele>53.566931</ele>
        <time>2021-09-16T06:51:52.000Z</time>
      </trkpt>
      <trkpt lat="44.33301" lon="4.65931">
        <ele>53.601106</ele>
        <time>2021-09-16T06:51:55.000Z</time>
      </trkpt>
      <trkpt lat="44.33281" lon="4.65938">
        <ele>53.653337</ele>
        <time>2021-09-16T06:51:59.000Z</time>
      </trkpt>
      <trkpt lat="44.33276" lon="4.65939">
        <ele>53.6669</ele>
        <time>2021-09-16T06:52:00.000Z</time>
      </trkpt>
      <trkpt lat="44.33258" lon="4.65945">
        <ele>53.711546</ele>
        <time>2021-09-16T06:52:03.000Z</time>
      </trkpt>
      <trkpt lat="44.33223" lon="4.65957">
        <ele>53.685102</ele>
        <time>2021-09-16T06:52:07.000Z</time>
      </trkpt>
      <trkpt lat="44.3317" lon="4.65974">
        <ele>53.098388</ele>
        <time>2021-09-16T06:52:13.000Z</time>
      </trkpt>
      <trkpt lat="44.33145" lon="4.65982">
        <ele>52.820562</ele>
        <time>2021-09-16T06:52:16.000Z</time>
      </trkpt>
      <trkpt lat="44.3312" lon="4.65983">
        <ele>52.54474</ele>
        <time>2021-09-16T06:52:20.000Z</time>
      </trkpt>
      <trkpt lat="44.33113" lon="4.65983">
        <ele>52.473229</ele>
        <time>2021-09-16T06:52:21.000Z</time>
      </trkpt>
      <trkpt lat="44.3306" lon="4.65974">
        <ele>51.890959</ele>
        <time>2021-09-16T06:52:29.000Z</time>
      </trkpt>
      <trkpt lat="44.33008" lon="4.65965">
        <ele>51.306454</ele>
        <time>2021-09-16T06:52:37.000Z</time>
      </trkpt>
      <trkpt lat="44.32975" lon="4.65967">
        <ele>50.938283</ele>
        <time>2021-09-16T06:52:42.000Z</time>
      </trkpt>
      <trkpt lat="44.32947" lon="4.65967">
        <ele>50.629525</ele>
        <time>2021-09-16T06:52:46.000Z</time>
      </trkpt>
      <trkpt lat="44.32941" lon="4.65967">
        <ele>50.561535</ele>
        <time>2021-09-16T06:52:47.000Z</time>
      </trkpt>
      <trkpt lat="44.32886" lon="4.65959">
        <ele>49.950701</ele>
        <time>2021-09-16T06:52:55.000Z</time>
      </trkpt>
      <trkpt lat="44.32844" lon="4.6595">
        <ele>49.819701</ele>
        <time>2021-09-16T06:53:01.000Z</time>
      </trkpt>
      <trkpt lat="44.32796" lon="4.65939">
        <ele>49.800904</ele>
        <time>2021-09-16T06:53:08.000Z</time>
      </trkpt>
      <trkpt lat="44.32747" lon="4.65929">
        <ele>49.782068</ele>
        <time>2021-09-16T06:53:15.000Z</time>
      </trkpt>
      <trkpt lat="44.327" lon="4.65918">
        <ele>49.763973</ele>
        <time>2021-09-16T06:53:22.000Z</time>
      </trkpt>
      <trkpt lat="44.32674" lon="4.65911">
        <ele>49.814462</ele>
        <time>2021-09-16T06:53:26.000Z</time>
      </trkpt>
      <trkpt lat="44.32661" lon="4.6591">
        <ele>49.840615</ele>
        <time>2021-09-16T06:53:28.000Z</time>
      </trkpt>
      <trkpt lat="44.32624" lon="4.65917">
        <ele>49.918158</ele>
        <time>2021-09-16T06:53:34.000Z</time>
      </trkpt>
      <trkpt lat="44.32604" lon="4.6592">
        <ele>49.959128</ele>
        <time>2021-09-16T06:53:38.000Z</time>
      </trkpt>
      <trkpt lat="44.32584" lon="4.65925">
        <ele>50.002273</ele>
        <time>2021-09-16T06:53:41.000Z</time>
      </trkpt>
      <trkpt lat="44.32576" lon="4.65928">
        <ele>50.018787</ele>
        <time>2021-09-16T06:53:42.000Z</time>
      </trkpt>
      <trkpt lat="44.32568" lon="4.65931">
        <ele>50.037495</ele>
        <time>2021-09-16T06:53:43.000Z</time>
      </trkpt>
      <trkpt lat="44.32543" lon="4.65955">
        <ele>50.099415</ele>
        <time>2021-09-16T06:53:47.000Z</time>
      </trkpt>
      <trkpt lat="44.32503" lon="4.66007">
        <ele>50.215879</ele>
        <time>2021-09-16T06:53:55.000Z</time>
      </trkpt>
      <trkpt lat="44.32493" lon="4.6602">
        <ele>50.244406</ele>
        <time>2021-09-16T06:53:57.000Z</time>
      </trkpt>
      <trkpt lat="44.32456" lon="4.66071">
        <ele>50.357729</ele>
        <time>2021-09-16T06:54:05.000Z</time>
      </trkpt>
      <trkpt lat="44.32432" lon="4.66104">
        <ele>50.430175</ele>
        <time>2021-09-16T06:54:10.000Z</time>
      </trkpt>
      <trkpt lat="44.32399" lon="4.66152">
        <ele>50.515379</ele>
        <time>2021-09-16T06:54:17.000Z</time>
      </trkpt>
      <trkpt lat="44.32367" lon="4.66201">
        <ele>50.406467</ele>
        <time>2021-09-16T06:54:24.000Z</time>
      </trkpt>
      <trkpt lat="44.32336" lon="4.66247">
        <ele>50.303619</ele>
        <time>2021-09-16T06:54:31.000Z</time>
      </trkpt>
      <trkpt lat="44.32306" lon="4.66296">
        <ele>50.198312</ele>
        <time>2021-09-16T06:54:38.000Z</time>
      </trkpt>
      <trkpt lat="44.32283" lon="4.66327">
        <ele>50.127117</ele>
        <time>2021-09-16T06:54:43.000Z</time>
      </trkpt>
      <trkpt lat="44.32249" lon="4.66372">
        <ele>50.136548</ele>
        <time>2021-09-16T06:54:50.000Z</time>
      </trkpt>
      <trkpt lat="44.32226" lon="4.66402">
        <ele>50.153759</ele>
        <time>2021-09-16T06:54:55.000Z</time>
      </trkpt>
      <trkpt lat="44.32194" lon="4.66439">
        <ele>50.175674</ele>
        <time>2021-09-16T06:55:01.000Z</time>
      </trkpt>
      <trkpt lat="44.32181" lon="4.66457">
        <ele>50.185542</ele>
        <time>2021-09-16T06:55:04.000Z</time>
      </trkpt>
      <trkpt lat="44.32177" lon="4.66463">
        <ele>50.188875</ele>
        <time>2021-09-16T06:55:05.000Z</time>
      </trkpt>
      <trkpt lat="44.32164" lon="4.66484">
        <ele>50.199718</ele>
        <time>2021-09-16T06:55:08.000Z</time>
      </trkpt>
      <trkpt lat="44.32156" lon="4.665">
        <ele>50.20698</ele>
        <time>2021-09-16T06:55:10.000Z</time>
      </trkpt>
      <trkpt lat="44.32141" lon="4.66536">
        <ele>50.573975</ele>
        <time>2021-09-16T06:55:15.000Z</time>
      </trkpt>
      <trkpt lat="44.3213" lon="4.66567">
        <ele>50.952406</ele>
        <time>2021-09-16T06:55:19.000Z</time>
      </trkpt>
      <trkpt lat="44.32119" lon="4.66609">
        <ele>51.458444</ele>
        <time>2021-09-16T06:55:24.000Z</time>
      </trkpt>
      <trkpt lat="44.32117" lon="4.66617">
        <ele>51.556221</ele>
        <time>2021-09-16T06:55:25.000Z</time>
      </trkpt>
      <trkpt lat="44.32114" lon="4.66633">
        <ele>51.742269</ele>
        <time>2021-09-16T06:55:27.000Z</time>
      </trkpt>
      <trkpt lat="44.3211" lon="4.6665">
        <ele>51.935209</ele>
        <time>2021-09-16T06:55:29.000Z</time>
      </trkpt>
      <trkpt lat="44.32097" lon="4.66698">
        <ele>52.515819</ele>
        <time>2021-09-16T06:55:34.000Z</time>
      </trkpt>
      <trkpt lat="44.32073" lon="4.66751">
        <ele>53.127462</ele>
        <time>2021-09-16T06:55:40.000Z</time>
      </trkpt>
      <trkpt lat="44.32069" lon="4.66758">
        <ele>53.179524</ele>
        <time>2021-09-16T06:55:41.000Z</time>
      </trkpt>
      <trkpt lat="44.32049" lon="4.66782">
        <ele>53.389811</ele>
        <time>2021-09-16T06:55:45.000Z</time>
      </trkpt>
      <trkpt lat="44.32013" lon="4.66818">
        <ele>53.74785</ele>
        <time>2021-09-16T06:55:52.000Z</time>
      </trkpt>
      <trkpt lat="44.31997" lon="4.66831">
        <ele>53.897527</ele>
        <time>2021-09-16T06:55:55.000Z</time>
      </trkpt>
      <trkpt lat="44.31987" lon="4.6684">
        <ele>53.992626</ele>
        <time>2021-09-16T06:55:57.000Z</time>
      </trkpt>
      <trkpt lat="44.31982" lon="4.66844">
        <ele>54.04067</ele>
        <time>2021-09-16T06:55:58.000Z</time>
      </trkpt>
      <trkpt lat="44.31967" lon="4.66857">
        <ele>54.183122</ele>
        <time>2021-09-16T06:56:01.000Z</time>
      </trkpt>
      <trkpt lat="44.31941" lon="4.66879">
        <ele>54.428284</ele>
        <time>2021-09-16T06:56:06.000Z</time>
      </trkpt>
      <trkpt lat="44.31903" lon="4.66905">
        <ele>54.310056</ele>
        <time>2021-09-16T06:56:12.000Z</time>
      </trkpt>
      <trkpt lat="44.31893" lon="4.66912">
        <ele>54.256252</ele>
        <time>2021-09-16T06:56:14.000Z</time>
      </trkpt>
      <trkpt lat="44.3188" lon="4.66915">
        <ele>54.188065</ele>
        <time>2021-09-16T06:56:16.000Z</time>
      </trkpt>
      <trkpt lat="44.31859" lon="4.66918">
        <ele>54.085331</ele>
        <time>2021-09-16T06:56:19.000Z</time>
      </trkpt>
      <trkpt lat="44.31847" lon="4.6692">
        <ele>54.027828</ele>
        <time>2021-09-16T06:56:21.000Z</time>
      </trkpt>
      <trkpt lat="44.31833" lon="4.66934">
        <ele>53.941785</ele>
        <time>2021-09-16T06:56:24.000Z</time>
      </trkpt>
      <trkpt lat="44.31818" lon="4.66989">
        <ele>53.736569</ele>
        <time>2021-09-16T06:56:30.000Z</time>
      </trkpt>
      <trkpt lat="44.31805" lon="4.67034">
        <ele>53.578772</ele>
        <time>2021-09-16T06:56:35.000Z</time>
      </trkpt>
      <trkpt lat="44.31797" lon="4.67062">
        <ele>53.512293</ele>
        <time>2021-09-16T06:56:38.000Z</time>
      </trkpt>
      <trkpt lat="44.3179" lon="4.67088">
        <ele>53.44763</ele>
        <time>2021-09-16T06:56:41.000Z</time>
      </trkpt>
      <trkpt lat="44.3177" lon="4.67157">
        <ele>53.277376</ele>
        <time>2021-09-16T06:56:49.000Z</time>
      </trkpt>
      <trkpt lat="44.31748" lon="4.67236">
        <ele>53.084891</ele>
        <time>2021-09-16T06:56:58.000Z</time>
      </trkpt>
      <trkpt lat="44.31727" lon="4.67314">
        <ele>52.899668</ele>
        <time>2021-09-16T06:57:07.000Z</time>
      </trkpt>
      <trkpt lat="44.31717" lon="4.6735">
        <ele>52.817256</ele>
        <time>2021-09-16T06:57:11.000Z</time>
      </trkpt>
      <trkpt lat="44.31712" lon="4.67368">
        <ele>52.77559</ele>
        <time>2021-09-16T06:57:13.000Z</time>
      </trkpt>
      <trkpt lat="44.31691" lon="4.67441">
        <ele>52.605256</ele>
        <time>2021-09-16T06:57:21.000Z</time>
      </trkpt>
      <trkpt lat="44.31689" lon="4.6745">
        <ele>52.583808</ele>
        <time>2021-09-16T06:57:22.000Z</time>
      </trkpt>
      <trkpt lat="44.31681" lon="4.67469">
        <ele>52.535851</ele>
        <time>2021-09-16T06:57:24.000Z</time>
      </trkpt>
      <trkpt lat="44.31638" lon="4.67504">
        <ele>52.436522</ele>
        <time>2021-09-16T06:57:31.000Z</time>
      </trkpt>
      <trkpt lat="44.31589" lon="4.67544">
        <ele>52.352687</ele>
        <time>2021-09-16T06:57:39.000Z</time>
      </trkpt>
      <trkpt lat="44.31583" lon="4.67549">
        <ele>52.342026</ele>
        <time>2021-09-16T06:57:40.000Z</time>
      </trkpt>
      <trkpt lat="44.31534" lon="4.67589">
        <ele>52.25739</ele>
        <time>2021-09-16T06:57:48.000Z</time>
      </trkpt>
      <trkpt lat="44.31478" lon="4.67635">
        <ele>52.305628</ele>
        <time>2021-09-16T06:57:56.000Z</time>
      </trkpt>
      <trkpt lat="44.31472" lon="4.6764">
        <ele>52.322155</ele>
        <time>2021-09-16T06:57:58.000Z</time>
      </trkpt>
      <trkpt lat="44.31424" lon="4.67678">
        <ele>52.452429</ele>
        <time>2021-09-16T06:58:06.000Z</time>
      </trkpt>
      <trkpt lat="44.31394" lon="4.67701">
        <ele>52.532799</ele>
        <time>2021-09-16T06:58:11.000Z</time>
      </trkpt>
      <trkpt lat="44.31365" lon="4.67724">
        <ele>52.612309</ele>
        <time>2021-09-16T06:58:16.000Z</time>
      </trkpt>
      <trkpt lat="44.31331" lon="4.67752">
        <ele>52.589364</ele>
        <time>2021-09-16T06:58:22.000Z</time>
      </trkpt>
      <trkpt lat="44.31284" lon="4.67789">
        <ele>52.490773</ele>
        <time>2021-09-16T06:58:30.000Z</time>
      </trkpt>
      <trkpt lat="44.31237" lon="4.67828">
        <ele>52.390148</ele>
        <time>2021-09-16T06:58:38.000Z</time>
      </trkpt>
      <trkpt lat="44.3122" lon="4.67842">
        <ele>52.352555</ele>
        <time>2021-09-16T06:58:41.000Z</time>
      </trkpt>
      <trkpt lat="44.31168" lon="4.67884">
        <ele>52.237629</ele>
        <time>2021-09-16T06:58:50.000Z</time>
      </trkpt>
      <trkpt lat="44.31162" lon="4.67889">
        <ele>52.225465</ele>
        <time>2021-09-16T06:58:51.000Z</time>
      </trkpt>
      <trkpt lat="44.31152" lon="4.67897">
        <ele>52.202365</ele>
        <time>2021-09-16T06:58:53.000Z</time>
      </trkpt>
      <trkpt lat="44.31142" lon="4.67905">
        <ele>52.178377</ele>
        <time>2021-09-16T06:58:55.000Z</time>
      </trkpt>
      <trkpt lat="44.31136" lon="4.6791">
        <ele>52.166144</ele>
        <time>2021-09-16T06:58:56.000Z</time>
      </trkpt>
      <trkpt lat="44.31114" lon="4.67927">
        <ele>52.116362</ele>
        <time>2021-09-16T06:59:00.000Z</time>
      </trkpt>
      <trkpt lat="44.31075" lon="4.67959">
        <ele>52.028822</ele>
        <time>2021-09-16T06:59:07.000Z</time>
      </trkpt>
      <trkpt lat="44.31032" lon="4.67994">
        <ele>51.910783</ele>
        <time>2021-09-16T06:59:14.000Z</time>
      </trkpt>
      <trkpt lat="44.30984" lon="4.68033">
        <ele>51.709459</ele>
        <time>2021-09-16T06:59:22.000Z</time>
      </trkpt>
      <trkpt lat="44.30979" lon="4.68039">
        <ele>51.684445</ele>
        <time>2021-09-16T06:59:23.000Z</time>
      </trkpt>
      <trkpt lat="44.30939" lon="4.68075">
        <ele>51.513321</ele>
        <time>2021-09-16T06:59:30.000Z</time>
      </trkpt>
      <trkpt lat="44.30905" lon="4.6812">
        <ele>51.344444</ele>
        <time>2021-09-16T06:59:37.000Z</time>
      </trkpt>
      <trkpt lat="44.30882" lon="4.68153">
        <ele>51.283772</ele>
        <time>2021-09-16T06:59:42.000Z</time>
      </trkpt>
      <trkpt lat="44.30877" lon="4.6816">
        <ele>51.277136</ele>
        <time>2021-09-16T06:59:43.000Z</time>
      </trkpt>
      <trkpt lat="44.30841" lon="4.682">
        <ele>51.23044</ele>
        <time>2021-09-16T06:59:50.000Z</time>
      </trkpt>
      <trkpt lat="44.30811" lon="4.68227">
        <ele>51.194114</ele>
        <time>2021-09-16T06:59:55.000Z</time>
      </trkpt>
      <trkpt lat="44.30757" lon="4.68255">
        <ele>51.135312</ele>
        <time>2021-09-16T07:00:03.000Z</time>
      </trkpt>
      <trkpt lat="44.3075" lon="4.68258">
        <ele>51.128322</ele>
        <time>2021-09-16T07:00:04.000Z</time>
      </trkpt>
      <trkpt lat="44.30744" lon="4.68262">
        <ele>51.122694</ele>
        <time>2021-09-16T07:00:05.000Z</time>
      </trkpt>
      <trkpt lat="44.30726" lon="4.68277">
        <ele>51.109935</ele>
        <time>2021-09-16T07:00:08.000Z</time>
      </trkpt>
      <trkpt lat="44.30713" lon="4.68298">
        <ele>51.097598</ele>
        <time>2021-09-16T07:00:11.000Z</time>
      </trkpt>
      <trkpt lat="44.30709" lon="4.68306">
        <ele>51.093633</ele>
        <time>2021-09-16T07:00:12.000Z</time>
      </trkpt>
      <trkpt lat="44.30708" lon="4.68314">
        <ele>51.089998</ele>
        <time>2021-09-16T07:00:13.000Z</time>
      </trkpt>
      <trkpt lat="44.30706" lon="4.68321">
        <ele>51.086775</ele>
        <time>2021-09-16T07:00:14.000Z</time>
      </trkpt>
      <trkpt lat="44.30697" lon="4.68328">
        <ele>51.080174</ele>
        <time>2021-09-16T07:00:15.000Z</time>
      </trkpt>
      <trkpt lat="44.30692" lon="4.68324">
        <ele>51.077011</ele>
        <time>2021-09-16T07:00:16.000Z</time>
      </trkpt>
      <trkpt lat="44.30688" lon="4.68318">
        <ele>51.07319</ele>
        <time>2021-09-16T07:00:17.000Z</time>
      </trkpt>
      <trkpt lat="44.30672" lon="4.68289">
        <ele>51.057018</ele>
        <time>2021-09-16T07:00:21.000Z</time>
      </trkpt>
      <trkpt lat="44.30663" lon="4.68275">
        <ele>51.048897</ele>
        <time>2021-09-16T07:00:23.000Z</time>
      </trkpt>
      <trkpt lat="44.30652" lon="4.68264">
        <ele>51.040901</ele>
        <time>2021-09-16T07:00:25.000Z</time>
      </trkpt>
      <trkpt lat="44.30616" lon="4.68248">
        <ele>51.017747</ele>
        <time>2021-09-16T07:00:31.000Z</time>
      </trkpt>
      <trkpt lat="44.30563" lon="4.68226">
        <ele>50.769095</ele>
        <time>2021-09-16T07:00:39.000Z</time>
      </trkpt>
      <trkpt lat="44.30509" lon="4.68205">
        <ele>50.496956</ele>
        <time>2021-09-16T07:00:47.000Z</time>
      </trkpt>
      <trkpt lat="44.30503" lon="4.68203">
        <ele>50.463411</ele>
        <time>2021-09-16T07:00:48.000Z</time>
      </trkpt>
      <trkpt lat="44.30476" lon="4.68197">
        <ele>50.32998</ele>
        <time>2021-09-16T07:00:52.000Z</time>
      </trkpt>
      <trkpt lat="44.30456" lon="4.68196">
        <ele>50.233482</ele>
        <time>2021-09-16T07:00:55.000Z</time>
      </trkpt>
      <trkpt lat="44.30409" lon="4.68199">
        <ele>50.091395</ele>
        <time>2021-09-16T07:01:02.000Z</time>
      </trkpt>
      <trkpt lat="44.30353" lon="4.68212">
        <ele>50.002152</ele>
        <time>2021-09-16T07:01:10.000Z</time>
      </trkpt>
      <trkpt lat="44.30346" lon="4.68214">
        <ele>49.990985</ele>
        <time>2021-09-16T07:01:11.000Z</time>
      </trkpt>
      <trkpt lat="44.30304" lon="4.68226">
        <ele>49.923423</ele>
        <time>2021-09-16T07:01:17.000Z</time>
      </trkpt>
      <trkpt lat="44.30298" lon="4.68228">
        <ele>49.912721</ele>
        <time>2021-09-16T07:01:18.000Z</time>
      </trkpt>
      <trkpt lat="44.30254" lon="4.68233">
        <ele>49.837524</ele>
        <time>2021-09-16T07:01:24.000Z</time>
      </trkpt>
      <trkpt lat="44.30198" lon="4.68226">
        <ele>49.662061</ele>
        <time>2021-09-16T07:01:32.000Z</time>
      </trkpt>
      <trkpt lat="44.30185" lon="4.68224">
        <ele>49.619533</ele>
        <time>2021-09-16T07:01:34.000Z</time>
      </trkpt>
      <trkpt lat="44.30136" lon="4.68232">
        <ele>49.468181</ele>
        <time>2021-09-16T07:01:41.000Z</time>
      </trkpt>
      <trkpt lat="44.30081" lon="4.68247">
        <ele>49.290665</ele>
        <time>2021-09-16T07:01:49.000Z</time>
      </trkpt>
      <trkpt lat="44.30054" lon="4.68258">
        <ele>49.179826</ele>
        <time>2021-09-16T07:01:53.000Z</time>
      </trkpt>
      <trkpt lat="44.30048" lon="4.68261">
        <ele>49.154992</ele>
        <time>2021-09-16T07:01:54.000Z</time>
      </trkpt>
      <trkpt lat="44.30015" lon="4.68277">
        <ele>49.014835</ele>
        <time>2021-09-16T07:01:59.000Z</time>
      </trkpt>
      <trkpt lat="44.2998" lon="4.68289">
        <ele>48.871948</ele>
        <time>2021-09-16T07:02:04.000Z</time>
      </trkpt>
      <trkpt lat="44.29973" lon="4.6829">
        <ele>48.842786</ele>
        <time>2021-09-16T07:02:05.000Z</time>
      </trkpt>
      <trkpt lat="44.29951" lon="4.68288">
        <ele>48.756167</ele>
        <time>2021-09-16T07:02:08.000Z</time>
      </trkpt>
      <trkpt lat="44.29905" lon="4.68263">
        <ele>48.578119</ele>
        <time>2021-09-16T07:02:15.000Z</time>
      </trkpt>
      <trkpt lat="44.29864" lon="4.68224">
        <ele>48.683812</ele>
        <time>2021-09-16T07:02:22.000Z</time>
      </trkpt>
      <trkpt lat="44.29833" lon="4.68204">
        <ele>48.757499</ele>
        <time>2021-09-16T07:02:27.000Z</time>
      </trkpt>
      <trkpt lat="44.29827" lon="4.682">
        <ele>48.772397</ele>
        <time>2021-09-16T07:02:28.000Z</time>
      </trkpt>
      <trkpt lat="44.2979" lon="4.68175">
        <ele>48.861059</ele>
        <time>2021-09-16T07:02:34.000Z</time>
      </trkpt>
      <trkpt lat="44.29754" lon="4.68147">
        <ele>48.950314</ele>
        <time>2021-09-16T07:02:40.000Z</time>
      </trkpt>
      <trkpt lat="44.29712" lon="4.68112">
        <ele>49.244806</ele>
        <time>2021-09-16T07:02:47.000Z</time>
      </trkpt>
      <trkpt lat="44.2968" lon="4.68077">
        <ele>49.503987</ele>
        <time>2021-09-16T07:02:53.000Z</time>
      </trkpt>
      <trkpt lat="44.29653" lon="4.68039">
        <ele>49.750287</ele>
        <time>2021-09-16T07:02:59.000Z</time>
      </trkpt>
      <trkpt lat="44.2964" lon="4.68018">
        <ele>49.874853</ele>
        <time>2021-09-16T07:03:02.000Z</time>
      </trkpt>
      <trkpt lat="44.29631" lon="4.68005">
        <ele>49.957592</ele>
        <time>2021-09-16T07:03:04.000Z</time>
      </trkpt>
      <trkpt lat="44.29607" lon="4.67966">
        <ele>50.126353</ele>
        <time>2021-09-16T07:03:10.000Z</time>
      </trkpt>
      <trkpt lat="44.296" lon="4.67953">
        <ele>50.144199</ele>
        <time>2021-09-16T07:03:12.000Z</time>
      </trkpt>
      <trkpt lat="44.29594" lon="4.67939">
        <ele>50.162989</ele>
        <time>2021-09-16T07:03:14.000Z</time>
      </trkpt>
      <trkpt lat="44.29588" lon="4.67923">
        <ele>50.182037</ele>
        <time>2021-09-16T07:03:16.000Z</time>
      </trkpt>
      <trkpt lat="44.29589" lon="4.67905">
        <ele>50.201741</ele>
        <time>2021-09-16T07:03:18.000Z</time>
      </trkpt>
      <trkpt lat="44.29588" lon="4.67844">
        <ele>50.269925</ele>
        <time>2021-09-16T07:03:25.000Z</time>
      </trkpt>
      <trkpt lat="44.29585" lon="4.67782">
        <ele>50.338188</ele>
        <time>2021-09-16T07:03:32.000Z</time>
      </trkpt>
      <trkpt lat="44.29588" lon="4.67719">
        <ele>50.343389</ele>
        <time>2021-09-16T07:03:39.000Z</time>
      </trkpt>
      <trkpt lat="44.2959" lon="4.67705">
        <ele>50.317319</ele>
        <time>2021-09-16T07:03:41.000Z</time>
      </trkpt>
      <trkpt lat="44.29592" lon="4.67683">
        <ele>50.278335</ele>
        <time>2021-09-16T07:03:44.000Z</time>
      </trkpt>
      <trkpt lat="44.29597" lon="4.67614">
        <ele>50.153245</ele>
        <time>2021-09-16T07:03:51.000Z</time>
      </trkpt>
      <trkpt lat="44.29592" lon="4.67561">
        <ele>50.057938</ele>
        <time>2021-09-16T07:03:57.000Z</time>
      </trkpt>
      <trkpt lat="44.29583" lon="4.6752">
        <ele>49.981392</ele>
        <time>2021-09-16T07:04:02.000Z</time>
      </trkpt>
      <trkpt lat="44.2958" lon="4.67503">
        <ele>49.950092</ele>
        <time>2021-09-16T07:04:04.000Z</time>
      </trkpt>
      <trkpt lat="44.2957" lon="4.6749">
        <ele>49.909153</ele>
        <time>2021-09-16T07:04:06.000Z</time>
      </trkpt>
      <trkpt lat="44.29564" lon="4.67487">
        <ele>49.886662</ele>
        <time>2021-09-16T07:04:07.000Z</time>
      </trkpt>
      <trkpt lat="44.29524" lon="4.67487">
        <ele>49.744273</ele>
        <time>2021-09-16T07:04:13.000Z</time>
      </trkpt>
      <trkpt lat="44.29468" lon="4.67491">
        <ele>49.545119</ele>
        <time>2021-09-16T07:04:21.000Z</time>
      </trkpt>
      <trkpt lat="44.29461" lon="4.67491">
        <ele>49.519113</ele>
        <time>2021-09-16T07:04:22.000Z</time>
      </trkpt>
      <trkpt lat="44.29417" lon="4.67483">
        <ele>49.36306</ele>
        <time>2021-09-16T07:04:28.000Z</time>
      </trkpt>
      <trkpt lat="44.29362" lon="4.67457">
        <ele>49.17505</ele>
        <time>2021-09-16T07:04:36.000Z</time>
      </trkpt>
      <trkpt lat="44.29307" lon="4.67434">
        <ele>49.001941</ele>
        <time>2021-09-16T07:04:44.000Z</time>
      </trkpt>
      <trkpt lat="44.293" lon="4.67432">
        <ele>48.980538</ele>
        <time>2021-09-16T07:04:45.000Z</time>
      </trkpt>
      <trkpt lat="44.29244" lon="4.67418">
        <ele>48.808802</ele>
        <time>2021-09-16T07:04:53.000Z</time>
      </trkpt>
      <trkpt lat="44.29237" lon="4.67416">
        <ele>48.787918</ele>
        <time>2021-09-16T07:04:54.000Z</time>
      </trkpt>
      <trkpt lat="44.29181" lon="4.67401">
        <ele>48.616728</ele>
        <time>2021-09-16T07:05:02.000Z</time>
      </trkpt>
      <trkpt lat="44.29174" lon="4.67399">
        <ele>48.594772</ele>
        <time>2021-09-16T07:05:03.000Z</time>
      </trkpt>
      <trkpt lat="44.29118" lon="4.67382">
        <ele>48.421065</ele>
        <time>2021-09-16T07:05:11.000Z</time>
      </trkpt>
      <trkpt lat="44.29104" lon="4.67377">
        <ele>48.377846</ele>
        <time>2021-09-16T07:05:13.000Z</time>
      </trkpt>
      <trkpt lat="44.29051" lon="4.67359">
        <ele>48.211613</ele>
        <time>2021-09-16T07:05:21.000Z</time>
      </trkpt>
      <trkpt lat="44.29044" lon="4.67357">
        <ele>48.194592</ele>
        <time>2021-09-16T07:05:22.000Z</time>
      </trkpt>
      <trkpt lat="44.28989" lon="4.67345">
        <ele>48.079578</ele>
        <time>2021-09-16T07:05:30.000Z</time>
      </trkpt>
      <trkpt lat="44.28975" lon="4.67342">
        <ele>48.050752</ele>
        <time>2021-09-16T07:05:32.000Z</time>
      </trkpt>
      <trkpt lat="44.2892" lon="4.67332">
        <ele>47.935855</ele>
        <time>2021-09-16T07:05:40.000Z</time>
      </trkpt>
      <trkpt lat="44.28864" lon="4.67321">
        <ele>47.859198</ele>
        <time>2021-09-16T07:05:48.000Z</time>
      </trkpt>
      <trkpt lat="44.2881" lon="4.67311">
        <ele>48.032922</ele>
        <time>2021-09-16T07:05:56.000Z</time>
      </trkpt>
      <trkpt lat="44.28763" lon="4.67304">
        <ele>48.185143</ele>
        <time>2021-09-16T07:06:03.000Z</time>
      </trkpt>
      <trkpt lat="44.28721" lon="4.67299">
        <ele>48.318552</ele>
        <time>2021-09-16T07:06:09.000Z</time>
      </trkpt>
      <trkpt lat="44.28667" lon="4.67291">
        <ele>48.476484</ele>
        <time>2021-09-16T07:06:17.000Z</time>
      </trkpt>
      <trkpt lat="44.2866" lon="4.67291">
        <ele>48.493586</ele>
        <time>2021-09-16T07:06:18.000Z</time>
      </trkpt>
      <trkpt lat="44.28612" lon="4.67287">
        <ele>48.615116</ele>
        <time>2021-09-16T07:06:25.000Z</time>
      </trkpt>
      <trkpt lat="44.28598" lon="4.67281">
        <ele>48.652062</ele>
        <time>2021-09-16T07:06:27.000Z</time>
      </trkpt>
      <trkpt lat="44.28588" lon="4.67237">
        <ele>48.735984</ele>
        <time>2021-09-16T07:06:32.000Z</time>
      </trkpt>
      <trkpt lat="44.28577" lon="4.67191">
        <ele>48.823418</ele>
        <time>2021-09-16T07:06:37.000Z</time>
      </trkpt>
      <trkpt lat="44.28575" lon="4.67183">
        <ele>48.83902</ele>
        <time>2021-09-16T07:06:38.000Z</time>
      </trkpt>
      <trkpt lat="44.28571" lon="4.67176">
        <ele>48.85501</ele>
        <time>2021-09-16T07:06:39.000Z</time>
      </trkpt>
      <trkpt lat="44.28566" lon="4.67172">
        <ele>48.868085</ele>
        <time>2021-09-16T07:06:40.000Z</time>
      </trkpt>
      <trkpt lat="44.28529" lon="4.67171">
        <ele>48.83091</ele>
        <time>2021-09-16T07:06:45.000Z</time>
      </trkpt>
      <trkpt lat="44.28521" lon="4.67171">
        <ele>48.823652</ele>
        <time>2021-09-16T07:06:46.000Z</time>
      </trkpt>
      <trkpt lat="44.28492" lon="4.67172">
        <ele>48.795308</ele>
        <time>2021-09-16T07:06:50.000Z</time>
      </trkpt>
      <trkpt lat="44.28485" lon="4.67172">
        <ele>48.788344</ele>
        <time>2021-09-16T07:06:51.000Z</time>
      </trkpt>
      <trkpt lat="44.28457" lon="4.67172">
        <ele>48.761177</ele>
        <time>2021-09-16T07:06:55.000Z</time>
      </trkpt>
      <trkpt lat="44.28417" lon="4.67173">
        <ele>48.721455</ele>
        <time>2021-09-16T07:07:01.000Z</time>
      </trkpt>
      <trkpt lat="44.2841" lon="4.67173">
        <ele>48.714884</ele>
        <time>2021-09-16T07:07:02.000Z</time>
      </trkpt>
      <trkpt lat="44.28376" lon="4.67173">
        <ele>48.672777</ele>
        <time>2021-09-16T07:07:07.000Z</time>
      </trkpt>
      <trkpt lat="44.28362" lon="4.67173">
        <ele>48.649384</ele>
        <time>2021-09-16T07:07:09.000Z</time>
      </trkpt>
      <trkpt lat="44.28349" lon="4.6717">
        <ele>48.627154</ele>
        <time>2021-09-16T07:07:11.000Z</time>
      </trkpt>
      <trkpt lat="44.28332" lon="4.67153">
        <ele>48.592687</ele>
        <time>2021-09-16T07:07:14.000Z</time>
      </trkpt>
      <trkpt lat="44.28327" lon="4.67147">
        <ele>48.580979</ele>
        <time>2021-09-16T07:07:15.000Z</time>
      </trkpt>
      <trkpt lat="44.28321" lon="4.67141">
        <ele>48.568814</ele>
        <time>2021-09-16T07:07:16.000Z</time>
      </trkpt>
      <trkpt lat="44.28315" lon="4.67139">
        <ele>48.557059</ele>
        <time>2021-09-16T07:07:17.000Z</time>
      </trkpt>
      <trkpt lat="44.28308" lon="4.67141">
        <ele>48.545694</ele>
        <time>2021-09-16T07:07:18.000Z</time>
      </trkpt>
      <trkpt lat="44.28291" lon="4.67155">
        <ele>48.51151</ele>
        <time>2021-09-16T07:07:21.000Z</time>
      </trkpt>
      <trkpt lat="44.28246" lon="4.67195">
        <ele>48.421823</ele>
        <time>2021-09-16T07:07:29.000Z</time>
      </trkpt>
      <trkpt lat="44.28207" lon="4.67229">
        <ele>48.41029</ele>
        <time>2021-09-16T07:07:36.000Z</time>
      </trkpt>
      <trkpt lat="44.28201" lon="4.67233">
        <ele>48.416083</ele>
        <time>2021-09-16T07:07:37.000Z</time>
      </trkpt>
      <trkpt lat="44.28195" lon="4.67235">
        <ele>48.422002</ele>
        <time>2021-09-16T07:07:38.000Z</time>
      </trkpt>
      <trkpt lat="44.28181" lon="4.67234">
        <ele>48.434035</ele>
        <time>2021-09-16T07:07:40.000Z</time>
      </trkpt>
      <trkpt lat="44.28158" lon="4.67217">
        <ele>48.458162</ele>
        <time>2021-09-16T07:07:44.000Z</time>
      </trkpt>
      <trkpt lat="44.28127" lon="4.67183">
        <ele>48.493731</ele>
        <time>2021-09-16T07:07:50.000Z</time>
      </trkpt>
      <trkpt lat="44.28115" lon="4.67175">
        <ele>48.505422</ele>
        <time>2021-09-16T07:07:52.000Z</time>
      </trkpt>
      <trkpt lat="44.2807" lon="4.67162">
        <ele>48.546709</ele>
        <time>2021-09-16T07:07:59.000Z</time>
      </trkpt>
      <trkpt lat="44.28014" lon="4.67147">
        <ele>48.536358</ele>
        <time>2021-09-16T07:08:07.000Z</time>
      </trkpt>
      <trkpt lat="44.27958" lon="4.6713">
        <ele>48.522209</ele>
        <time>2021-09-16T07:08:15.000Z</time>
      </trkpt>
      <trkpt lat="44.27937" lon="4.67123">
        <ele>48.516798</ele>
        <time>2021-09-16T07:08:18.000Z</time>
      </trkpt>
      <trkpt lat="44.27917" lon="4.67113">
        <ele>48.511633</ele>
        <time>2021-09-16T07:08:21.000Z</time>
      </trkpt>
      <trkpt lat="44.2788" lon="4.67088">
        <ele>48.493517</ele>
        <time>2021-09-16T07:08:27.000Z</time>
      </trkpt>
      <trkpt lat="44.27837" lon="4.67059">
        <ele>48.45773</ele>
        <time>2021-09-16T07:08:34.000Z</time>
      </trkpt>
      <trkpt lat="44.27785" lon="4.67038">
        <ele>48.416832</ele>
        <time>2021-09-16T07:08:42.000Z</time>
      </trkpt>
      <trkpt lat="44.2774" lon="4.67019">
        <ele>48.381462</ele>
        <time>2021-09-16T07:08:49.000Z</time>
      </trkpt>
      <trkpt lat="44.27721" lon="4.67012">
        <ele>48.368385</ele>
        <time>2021-09-16T07:08:52.000Z</time>
      </trkpt>
      <trkpt lat="44.27709" lon="4.67001">
        <ele>48.363481</ele>
        <time>2021-09-16T07:08:54.000Z</time>
      </trkpt>
      <trkpt lat="44.27678" lon="4.66961">
        <ele>48.349084</ele>
        <time>2021-09-16T07:09:00.000Z</time>
      </trkpt>
      <trkpt lat="44.27639" lon="4.66905">
        <ele>48.329675</ele>
        <time>2021-09-16T07:09:08.000Z</time>
      </trkpt>
      <trkpt lat="44.27619" lon="4.66877">
        <ele>48.320035</ele>
        <time>2021-09-16T07:09:12.000Z</time>
      </trkpt>
      <trkpt lat="44.2758" lon="4.66821">
        <ele>48.356745</ele>
        <time>2021-09-16T07:09:20.000Z</time>
      </trkpt>
      <trkpt lat="44.27569" lon="4.66808">
        <ele>48.388471</ele>
        <time>2021-09-16T07:09:22.000Z</time>
      </trkpt>
      <trkpt lat="44.2753" lon="4.6677">
        <ele>48.498823</ele>
        <time>2021-09-16T07:09:29.000Z</time>
      </trkpt>
      <trkpt lat="44.27486" lon="4.66727">
        <ele>48.622639</ele>
        <time>2021-09-16T07:09:37.000Z</time>
      </trkpt>
      <trkpt lat="44.27481" lon="4.66722">
        <ele>48.636574</ele>
        <time>2021-09-16T07:09:38.000Z</time>
      </trkpt>
      <trkpt lat="44.27463" lon="4.66704">
        <ele>48.687419</ele>
        <time>2021-09-16T07:09:42.000Z</time>
      </trkpt>
      <trkpt lat="44.27459" lon="4.66699">
        <ele>48.699945</ele>
        <time>2021-09-16T07:09:43.000Z</time>
      </trkpt>
      <trkpt lat="44.27439" lon="4.6668">
        <ele>48.726402</ele>
        <time>2021-09-16T07:09:47.000Z</time>
      </trkpt>
      <trkpt lat="44.27406" lon="4.66654">
        <ele>48.740281</ele>
        <time>2021-09-16T07:09:53.000Z</time>
      </trkpt>
      <trkpt lat="44.27399" lon="4.66651">
        <ele>48.742675</ele>
        <time>2021-09-16T07:09:54.000Z</time>
      </trkpt>
      <trkpt lat="44.27393" lon="4.66648">
        <ele>48.744993</ele>
        <time>2021-09-16T07:09:55.000Z</time>
      </trkpt>
      <trkpt lat="44.27375" lon="4.66642">
        <ele>48.751881</ele>
        <time>2021-09-16T07:09:58.000Z</time>
      </trkpt>
      <trkpt lat="44.27341" lon="4.6664">
        <ele>48.763941</ele>
        <time>2021-09-16T07:10:03.000Z</time>
      </trkpt>
      <trkpt lat="44.273" lon="4.66639">
        <ele>48.778988</ele>
        <time>2021-09-16T07:10:09.000Z</time>
      </trkpt>
      <trkpt lat="44.2726" lon="4.66658">
        <ele>48.721822</ele>
        <time>2021-09-16T07:10:15.000Z</time>
      </trkpt>
      <trkpt lat="44.27226" lon="4.66673">
        <ele>48.621319</ele>
        <time>2021-09-16T07:10:20.000Z</time>
      </trkpt>
      <trkpt lat="44.27219" lon="4.66673">
        <ele>48.601375</ele>
        <time>2021-09-16T07:10:21.000Z</time>
      </trkpt>
      <trkpt lat="44.27212" lon="4.66673">
        <ele>48.581146</ele>
        <time>2021-09-16T07:10:22.000Z</time>
      </trkpt>
      <trkpt lat="44.27184" lon="4.66668">
        <ele>48.49923</ele>
        <time>2021-09-16T07:10:26.000Z</time>
      </trkpt>
      <trkpt lat="44.27127" lon="4.66652">
        <ele>48.335976</ele>
        <time>2021-09-16T07:10:34.000Z</time>
      </trkpt>
      <trkpt lat="44.2712" lon="4.6665">
        <ele>48.315856</ele>
        <time>2021-09-16T07:10:35.000Z</time>
      </trkpt>
      <trkpt lat="44.27065" lon="4.66633">
        <ele>48.182674</ele>
        <time>2021-09-16T07:10:43.000Z</time>
      </trkpt>
      <trkpt lat="44.27058" lon="4.66634">
        <ele>48.166383</ele>
        <time>2021-09-16T07:10:44.000Z</time>
      </trkpt>
      <trkpt lat="44.27044" lon="4.66639">
        <ele>48.135915</ele>
        <time>2021-09-16T07:10:46.000Z</time>
      </trkpt>
      <trkpt lat="44.27038" lon="4.66642">
        <ele>48.121376</ele>
        <time>2021-09-16T07:10:47.000Z</time>
      </trkpt>
      <trkpt lat="44.2702" lon="4.66658">
        <ele>48.075371</ele>
        <time>2021-09-16T07:10:50.000Z</time>
      </trkpt>
      <trkpt lat="44.27007" lon="4.66669">
        <ele>48.040748</ele>
        <time>2021-09-16T07:10:52.000Z</time>
      </trkpt>
      <trkpt lat="44.26996" lon="4.66663">
        <ele>48.014195</ele>
        <time>2021-09-16T07:10:54.000Z</time>
      </trkpt>
      <trkpt lat="44.26985" lon="4.66657">
        <ele>47.989818</ele>
        <time>2021-09-16T07:10:56.000Z</time>
      </trkpt>
      <trkpt lat="44.26968" lon="4.66644">
        <ele>47.947789</ele>
        <time>2021-09-16T07:11:00.000Z</time>
      </trkpt>
      <trkpt lat="44.2695" lon="4.66617">
        <ele>47.889373</ele>
        <time>2021-09-16T07:11:05.000Z</time>
      </trkpt>
      <trkpt lat="44.26926" lon="4.6658">
        <ele>47.844486</ele>
        <time>2021-09-16T07:11:10.000Z</time>
      </trkpt>
      <trkpt lat="44.26888" lon="4.66527">
        <ele>47.782501</ele>
        <time>2021-09-16T07:11:17.000Z</time>
      </trkpt>
      <trkpt lat="44.26851" lon="4.66496">
        <ele>47.732917</ele>
        <time>2021-09-16T07:11:23.000Z</time>
      </trkpt>
      <trkpt lat="44.26801" lon="4.66464">
        <ele>47.666341</ele>
        <time>2021-09-16T07:11:31.000Z</time>
      </trkpt>
      <trkpt lat="44.26794" lon="4.6646">
        <ele>47.653799</ele>
        <time>2021-09-16T07:11:32.000Z</time>
      </trkpt>
      <trkpt lat="44.26754" lon="4.66427">
        <ele>47.568956</ele>
        <time>2021-09-16T07:11:39.000Z</time>
      </trkpt>
      <trkpt lat="44.26736" lon="4.66417">
        <ele>47.53514</ele>
        <time>2021-09-16T07:11:42.000Z</time>
      </trkpt>
      <trkpt lat="44.26718" lon="4.66408">
        <ele>47.499933</ele>
        <time>2021-09-16T07:11:45.000Z</time>
      </trkpt>
      <trkpt lat="44.26674" lon="4.66403">
        <ele>47.418842</ele>
        <time>2021-09-16T07:11:52.000Z</time>
      </trkpt>
      <trkpt lat="44.26635" lon="4.66406">
        <ele>47.348266</ele>
        <time>2021-09-16T07:11:58.000Z</time>
      </trkpt>
      <trkpt lat="44.26582" lon="4.6641">
        <ele>47.182829</ele>
        <time>2021-09-16T07:12:06.000Z</time>
      </trkpt>
      <trkpt lat="44.26522" lon="4.66413">
        <ele>46.996818</ele>
        <time>2021-09-16T07:12:15.000Z</time>
      </trkpt>
      <trkpt lat="44.26463" lon="4.66415">
        <ele>46.810813</ele>
        <time>2021-09-16T07:12:24.000Z</time>
      </trkpt>
      <trkpt lat="44.26456" lon="4.66415">
        <ele>46.790179</ele>
        <time>2021-09-16T07:12:25.000Z</time>
      </trkpt>
      <trkpt lat="44.26412" lon="4.66422">
        <ele>46.753516</ele>
        <time>2021-09-16T07:12:32.000Z</time>
      </trkpt>
      <trkpt lat="44.26367" lon="4.66434">
        <ele>46.719172</ele>
        <time>2021-09-16T07:12:39.000Z</time>
      </trkpt>
      <trkpt lat="44.26361" lon="4.66437">
        <ele>46.714312</ele>
        <time>2021-09-16T07:12:40.000Z</time>
      </trkpt>
      <trkpt lat="44.26348" lon="4.66442">
        <ele>46.704609</ele>
        <time>2021-09-16T07:12:42.000Z</time>
      </trkpt>
      <trkpt lat="44.26315" lon="4.66423">
        <ele>46.677691</ele>
        <time>2021-09-16T07:12:47.000Z</time>
      </trkpt>
      <trkpt lat="44.2626" lon="4.6639">
        <ele>46.717943</ele>
        <time>2021-09-16T07:12:56.000Z</time>
      </trkpt>
      <trkpt lat="44.2622" lon="4.66356">
        <ele>46.842916</ele>
        <time>2021-09-16T07:13:03.000Z</time>
      </trkpt>
      <trkpt lat="44.26185" lon="4.66307">
        <ele>46.978282</ele>
        <time>2021-09-16T07:13:11.000Z</time>
      </trkpt>
      <trkpt lat="44.26181" lon="4.66301">
        <ele>46.993586</ele>
        <time>2021-09-16T07:13:12.000Z</time>
      </trkpt>
      <trkpt lat="44.26168" lon="4.66289">
        <ele>47.035593</ele>
        <time>2021-09-16T07:13:15.000Z</time>
      </trkpt>
      <trkpt lat="44.26164" lon="4.66286">
        <ele>47.050096</ele>
        <time>2021-09-16T07:13:16.000Z</time>
      </trkpt>
      <trkpt lat="44.26148" lon="4.66284">
        <ele>47.092021</ele>
        <time>2021-09-16T07:13:19.000Z</time>
      </trkpt>
      <trkpt lat="44.26142" lon="4.66281">
        <ele>47.109552</ele>
        <time>2021-09-16T07:13:20.000Z</time>
      </trkpt>
      <trkpt lat="44.26137" lon="4.66278">
        <ele>47.123154</ele>
        <time>2021-09-16T07:13:21.000Z</time>
      </trkpt>
      <trkpt lat="44.26131" lon="4.6627">
        <ele>47.151974</ele>
        <time>2021-09-16T07:13:23.000Z</time>
      </trkpt>
      <trkpt lat="44.26126" lon="4.6626">
        <ele>47.18535</ele>
        <time>2021-09-16T07:13:25.000Z</time>
      </trkpt>
      <trkpt lat="44.26124" lon="4.66247">
        <ele>47.224071</ele>
        <time>2021-09-16T07:13:27.000Z</time>
      </trkpt>
      <trkpt lat="44.26119" lon="4.66227">
        <ele>47.282457</ele>
        <time>2021-09-16T07:13:30.000Z</time>
      </trkpt>
      <trkpt lat="44.26118" lon="4.66219">
        <ele>47.305231</ele>
        <time>2021-09-16T07:13:31.000Z</time>
      </trkpt>
      <trkpt lat="44.26115" lon="4.66203">
        <ele>47.352762</ele>
        <time>2021-09-16T07:13:33.000Z</time>
      </trkpt>
      <trkpt lat="44.26106" lon="4.6618">
        <ele>47.426522</ele>
        <time>2021-09-16T07:13:36.000Z</time>
      </trkpt>
      <trkpt lat="44.26098" lon="4.66143">
        <ele>47.535492</ele>
        <time>2021-09-16T07:13:41.000Z</time>
      </trkpt>
      <trkpt lat="44.26091" lon="4.66113">
        <ele>47.625997</ele>
        <time>2021-09-16T07:13:45.000Z</time>
      </trkpt>
      <trkpt lat="44.26088" lon="4.66099">
        <ele>47.666963</ele>
        <time>2021-09-16T07:13:47.000Z</time>
      </trkpt>
      <trkpt lat="44.26093" lon="4.66078">
        <ele>47.729811</ele>
        <time>2021-09-16T07:13:50.000Z</time>
      </trkpt>
      <trkpt lat="44.26095" lon="4.66071">
        <ele>47.749705</ele>
        <time>2021-09-16T07:13:51.000Z</time>
      </trkpt>
      <trkpt lat="44.26097" lon="4.66027">
        <ele>47.857234</ele>
        <time>2021-09-16T07:13:56.000Z</time>
      </trkpt>
      <trkpt lat="44.26099" lon="4.65986">
        <ele>47.880953</ele>
        <time>2021-09-16T07:14:01.000Z</time>
      </trkpt>
      <trkpt lat="44.26103" lon="4.65959">
        <ele>47.897306</ele>
        <time>2021-09-16T07:14:06.000Z</time>
      </trkpt>
      <trkpt lat="44.26104" lon="4.65954">
        <ele>47.90073</ele>
        <time>2021-09-16T07:14:07.000Z</time>
      </trkpt>
      <trkpt lat="44.26105" lon="4.65939">
        <ele>47.909102</ele>
        <time>2021-09-16T07:14:09.000Z</time>
      </trkpt>
      <trkpt lat="44.26097" lon="4.65929">
        <ele>47.918143</ele>
        <time>2021-09-16T07:14:10.000Z</time>
      </trkpt>
      <trkpt lat="44.2609" lon="4.6593">
        <ele>47.923826</ele>
        <time>2021-09-16T07:14:11.000Z</time>
      </trkpt>
      <trkpt lat="44.26084" lon="4.65933">
        <ele>47.928764</ele>
        <time>2021-09-16T07:14:12.000Z</time>
      </trkpt>
      <trkpt lat="44.26067" lon="4.65945">
        <ele>47.944455</ele>
        <time>2021-09-16T07:14:15.000Z</time>
      </trkpt>
      <trkpt lat="44.26057" lon="4.65953">
        <ele>47.954518</ele>
        <time>2021-09-16T07:14:17.000Z</time>
      </trkpt>
      <trkpt lat="44.26045" lon="4.65963">
        <ele>47.96543</ele>
        <time>2021-09-16T07:14:19.000Z</time>
      </trkpt>
      <trkpt lat="44.26039" lon="4.65967">
        <ele>47.971037</ele>
        <time>2021-09-16T07:14:20.000Z</time>
      </trkpt>
      <trkpt lat="44.26013" lon="4.65973">
        <ele>47.992777</ele>
        <time>2021-09-16T07:14:24.000Z</time>
      </trkpt>
      <trkpt lat="44.25973" lon="4.65978">
        <ele>48.085076</ele>
        <time>2021-09-16T07:14:30.000Z</time>
      </trkpt>
      <trkpt lat="44.25955" lon="4.65983">
        <ele>48.135543</ele>
        <time>2021-09-16T07:14:33.000Z</time>
      </trkpt>
      <trkpt lat="44.25943" lon="4.65981">
        <ele>48.168315</ele>
        <time>2021-09-16T07:14:35.000Z</time>
      </trkpt>
      <trkpt lat="44.25923" lon="4.6596">
        <ele>48.238934</ele>
        <time>2021-09-16T07:14:39.000Z</time>
      </trkpt>
      <trkpt lat="44.25912" lon="4.65952">
        <ele>48.271537</ele>
        <time>2021-09-16T07:14:41.000Z</time>
      </trkpt>
      <trkpt lat="44.25906" lon="4.65952">
        <ele>48.288288</ele>
        <time>2021-09-16T07:14:42.000Z</time>
      </trkpt>
      <trkpt lat="44.25875" lon="4.6596">
        <ele>48.374276</ele>
        <time>2021-09-16T07:14:47.000Z</time>
      </trkpt>
      <trkpt lat="44.25869" lon="4.65962">
        <ele>48.392749</ele>
        <time>2021-09-16T07:14:48.000Z</time>
      </trkpt>
      <trkpt lat="44.25848" lon="4.65965">
        <ele>48.449818</ele>
        <time>2021-09-16T07:14:51.000Z</time>
      </trkpt>
      <trkpt lat="44.25821" lon="4.65967">
        <ele>48.50598</ele>
        <time>2021-09-16T07:14:55.000Z</time>
      </trkpt>
      <trkpt lat="44.25815" lon="4.65968">
        <ele>48.513301</ele>
        <time>2021-09-16T07:14:56.000Z</time>
      </trkpt>
      <trkpt lat="44.25809" lon="4.6597">
        <ele>48.520847</ele>
        <time>2021-09-16T07:14:57.000Z</time>
      </trkpt>
      <trkpt lat="44.25798" lon="4.65981">
        <ele>48.536324</ele>
        <time>2021-09-16T07:14:59.000Z</time>
      </trkpt>
      <trkpt lat="44.25793" lon="4.65986">
        <ele>48.544061</ele>
        <time>2021-09-16T07:15:00.000Z</time>
      </trkpt>
      <trkpt lat="44.25763" lon="4.66025">
        <ele>48.592382</ele>
        <time>2021-09-16T07:15:06.000Z</time>
      </trkpt>
      <trkpt lat="44.25754" lon="4.66036">
        <ele>48.606283</ele>
        <time>2021-09-16T07:15:08.000Z</time>
      </trkpt>
      <trkpt lat="44.25725" lon="4.66059">
        <ele>48.645809</ele>
        <time>2021-09-16T07:15:13.000Z</time>
      </trkpt>
      <trkpt lat="44.25719" lon="4.66063">
        <ele>48.653831</ele>
        <time>2021-09-16T07:15:14.000Z</time>
      </trkpt>
      <trkpt lat="44.25701" lon="4.66076">
        <ele>48.677898</ele>
        <time>2021-09-16T07:15:17.000Z</time>
      </trkpt>
      <trkpt lat="44.25649" lon="4.66091">
        <ele>48.551865</ele>
        <time>2021-09-16T07:15:25.000Z</time>
      </trkpt>
      <trkpt lat="44.25619" lon="4.66098">
        <ele>48.395545</ele>
        <time>2021-09-16T07:15:30.000Z</time>
      </trkpt>
      <trkpt lat="44.25607" lon="4.661">
        <ele>48.334125</ele>
        <time>2021-09-16T07:15:32.000Z</time>
      </trkpt>
      <trkpt lat="44.25575" lon="4.66087">
        <ele>48.156784</ele>
        <time>2021-09-16T07:15:38.000Z</time>
      </trkpt>
      <trkpt lat="44.25559" lon="4.66079">
        <ele>48.073706</ele>
        <time>2021-09-16T07:15:41.000Z</time>
      </trkpt>
      <trkpt lat="44.25555" lon="4.66077">
        <ele>48.046664</ele>
        <time>2021-09-16T07:15:42.000Z</time>
      </trkpt>
      <trkpt lat="44.25547" lon="4.66084">
        <ele>47.997146</ele>
        <time>2021-09-16T07:15:44.000Z</time>
      </trkpt>
      <trkpt lat="44.25553" lon="4.66122">
        <ele>47.855225</ele>
        <time>2021-09-16T07:15:49.000Z</time>
      </trkpt>
      <trkpt lat="44.25564" lon="4.66184">
        <ele>47.623746</ele>
        <time>2021-09-16T07:15:57.000Z</time>
      </trkpt>
      <trkpt lat="44.25567" lon="4.66206">
        <ele>47.53922</ele>
        <time>2021-09-16T07:16:00.000Z</time>
      </trkpt>
      <trkpt lat="44.2557" lon="4.66221">
        <ele>47.484266</ele>
        <time>2021-09-16T07:16:04.000Z</time>
      </trkpt>
      <trkpt lat="44.25571" lon="4.6623">
        <ele>47.452246</ele>
        <time>2021-09-16T07:16:06.000Z</time>
      </trkpt>
      <trkpt lat="44.25573" lon="4.66242">
        <ele>47.408114</ele>
        <time>2021-09-16T07:16:08.000Z</time>
      </trkpt>
      <trkpt lat="44.25578" lon="4.66287">
        <ele>47.245733</ele>
        <time>2021-09-16T07:16:13.000Z</time>
      </trkpt>
      <trkpt lat="44.25585" lon="4.66364">
        <ele>46.966261</ele>
        <time>2021-09-16T07:16:21.000Z</time>
      </trkpt>
      <trkpt lat="44.25586" lon="4.66373">
        <ele>46.93178</ele>
        <time>2021-09-16T07:16:22.000Z</time>
      </trkpt>
      <trkpt lat="44.25592" lon="4.66427">
        <ele>46.784313</ele>
        <time>2021-09-16T07:16:28.000Z</time>
      </trkpt>
      <trkpt lat="44.25593" lon="4.66444">
        <ele>46.74579</ele>
        <time>2021-09-16T07:16:30.000Z</time>
      </trkpt>
      <trkpt lat="44.25591" lon="4.6646">
        <ele>46.708579</ele>
        <time>2021-09-16T07:16:32.000Z</time>
      </trkpt>
      <trkpt lat="44.25563" lon="4.66474">
        <ele>46.612427</ele>
        <time>2021-09-16T07:16:37.000Z</time>
      </trkpt>
      <trkpt lat="44.25519" lon="4.66496">
        <ele>46.462445</ele>
        <time>2021-09-16T07:16:44.000Z</time>
      </trkpt>
      <trkpt lat="44.25462" lon="4.66524">
        <ele>46.286714</ele>
        <time>2021-09-16T07:16:53.000Z</time>
      </trkpt>
      <trkpt lat="44.25418" lon="4.66546">
        <ele>46.26304</ele>
        <time>2021-09-16T07:17:00.000Z</time>
      </trkpt>
      <trkpt lat="44.25367" lon="4.66572">
        <ele>46.235845</ele>
        <time>2021-09-16T07:17:08.000Z</time>
      </trkpt>
      <trkpt lat="44.25315" lon="4.66598">
        <ele>46.208425</ele>
        <time>2021-09-16T07:17:16.000Z</time>
      </trkpt>
      <trkpt lat="44.25264" lon="4.66622">
        <ele>46.14298</ele>
        <time>2021-09-16T07:17:24.000Z</time>
      </trkpt>
      <trkpt lat="44.25258" lon="4.66625">
        <ele>46.132759</ele>
        <time>2021-09-16T07:17:25.000Z</time>
      </trkpt>
      <trkpt lat="44.25226" lon="4.6664">
        <ele>46.081546</ele>
        <time>2021-09-16T07:17:30.000Z</time>
      </trkpt>
      <trkpt lat="44.25221" lon="4.66644">
        <ele>46.071514</ele>
        <time>2021-09-16T07:17:31.000Z</time>
      </trkpt>
      <trkpt lat="44.25215" lon="4.66649">
        <ele>46.061496</ele>
        <time>2021-09-16T07:17:32.000Z</time>
      </trkpt>
      <trkpt lat="44.25208" lon="4.66664">
        <ele>46.04163</ele>
        <time>2021-09-16T07:17:34.000Z</time>
      </trkpt>
      <trkpt lat="44.25205" lon="4.66673">
        <ele>46.031767</ele>
        <time>2021-09-16T07:17:35.000Z</time>
      </trkpt>
      <trkpt lat="44.25181" lon="4.66748">
        <ele>45.94126</ele>
        <time>2021-09-16T07:17:44.000Z</time>
      </trkpt>
      <trkpt lat="44.2516" lon="4.66815">
        <ele>45.895344</ele>
        <time>2021-09-16T07:17:52.000Z</time>
      </trkpt>
      <trkpt lat="44.25135" lon="4.66892">
        <ele>45.854291</ele>
        <time>2021-09-16T07:18:01.000Z</time>
      </trkpt>
      <trkpt lat="44.25113" lon="4.6696">
        <ele>45.817788</ele>
        <time>2021-09-16T07:18:09.000Z</time>
      </trkpt>
      <trkpt lat="44.25093" lon="4.67021">
        <ele>45.763683</ele>
        <time>2021-09-16T07:18:16.000Z</time>
      </trkpt>
      <trkpt lat="44.25081" lon="4.67057">
        <ele>45.720089</ele>
        <time>2021-09-16T07:18:20.000Z</time>
      </trkpt>
      <trkpt lat="44.25071" lon="4.6708">
        <ele>45.688542</ele>
        <time>2021-09-16T07:18:23.000Z</time>
      </trkpt>
      <trkpt lat="44.2505" lon="4.67104">
        <ele>45.645646</ele>
        <time>2021-09-16T07:18:27.000Z</time>
      </trkpt>
      <trkpt lat="44.2504" lon="4.67112">
        <ele>45.627765</ele>
        <time>2021-09-16T07:18:29.000Z</time>
      </trkpt>
      <trkpt lat="44.25036" lon="4.67123">
        <ele>45.614684</ele>
        <time>2021-09-16T07:18:30.000Z</time>
      </trkpt>
      <trkpt lat="44.25021" lon="4.67168">
        <ele>45.558726</ele>
        <time>2021-09-16T07:18:35.000Z</time>
      </trkpt>
      <trkpt lat="44.24998" lon="4.67237">
        <ele>45.479537</ele>
        <time>2021-09-16T07:18:43.000Z</time>
      </trkpt>
      <trkpt lat="44.24981" lon="4.67297">
        <ele>45.418099</ele>
        <time>2021-09-16T07:18:50.000Z</time>
      </trkpt>
      <trkpt lat="44.24975" lon="4.67314">
        <ele>45.40036</ele>
        <time>2021-09-16T07:18:52.000Z</time>
      </trkpt>
      <trkpt lat="44.24964" lon="4.67337">
        <ele>45.374426</ele>
        <time>2021-09-16T07:18:55.000Z</time>
      </trkpt>
      <trkpt lat="44.24938" lon="4.6738">
        <ele>45.321426</ele>
        <time>2021-09-16T07:19:01.000Z</time>
      </trkpt>
      <trkpt lat="44.24916" lon="4.674">
        <ele>45.286089</ele>
        <time>2021-09-16T07:19:05.000Z</time>
      </trkpt>
      <trkpt lat="44.24905" lon="4.67411">
        <ele>45.27094</ele>
        <time>2021-09-16T07:19:07.000Z</time>
      </trkpt>
      <trkpt lat="44.24855" lon="4.67438">
        <ele>45.215471</ele>
        <time>2021-09-16T07:19:15.000Z</time>
      </trkpt>
      <trkpt lat="44.24812" lon="4.67464">
        <ele>45.167264</ele>
        <time>2021-09-16T07:19:22.000Z</time>
      </trkpt>
      <trkpt lat="44.24772" lon="4.67493">
        <ele>45.119721</ele>
        <time>2021-09-16T07:19:29.000Z</time>
      </trkpt>
      <trkpt lat="44.2474" lon="4.67524">
        <ele>45.071221</ele>
        <time>2021-09-16T07:19:35.000Z</time>
      </trkpt>
      <trkpt lat="44.24717" lon="4.67542">
        <ele>45.028743</ele>
        <time>2021-09-16T07:19:39.000Z</time>
      </trkpt>
      <trkpt lat="44.24711" lon="4.67546">
        <ele>45.018294</ele>
        <time>2021-09-16T07:19:40.000Z</time>
      </trkpt>
      <trkpt lat="44.24706" lon="4.67551">
        <ele>45.008044</ele>
        <time>2021-09-16T07:19:41.000Z</time>
      </trkpt>
      <trkpt lat="44.24679" lon="4.67554">
        <ele>44.965268</ele>
        <time>2021-09-16T07:19:45.000Z</time>
      </trkpt>
      <trkpt lat="44.24667" lon="4.67556">
        <ele>44.944176</ele>
        <time>2021-09-16T07:19:46.000Z</time>
      </trkpt>
      <trkpt lat="44.2466" lon="4.67559">
        <ele>44.933452</ele>
        <time>2021-09-16T07:19:48.000Z</time>
      </trkpt>
      <trkpt lat="44.24653" lon="4.67574">
        <ele>44.912051</ele>
        <time>2021-09-16T07:19:50.000Z</time>
      </trkpt>
      <trkpt lat="44.24653" lon="4.67583">
        <ele>44.90144</ele>
        <time>2021-09-16T07:19:51.000Z</time>
      </trkpt>
      <trkpt lat="44.24653" lon="4.67649">
        <ele>44.825253</ele>
        <time>2021-09-16T07:19:58.000Z</time>
      </trkpt>
      <trkpt lat="44.24655" lon="4.67685">
        <ele>44.80063</ele>
        <time>2021-09-16T07:20:02.000Z</time>
      </trkpt>
      <trkpt lat="44.24653" lon="4.67703">
        <ele>44.799759</ele>
        <time>2021-09-16T07:20:04.000Z</time>
      </trkpt>
      <trkpt lat="44.2464" lon="4.67765">
        <ele>44.796778</ele>
        <time>2021-09-16T07:20:11.000Z</time>
      </trkpt>
      <trkpt lat="44.24624" lon="4.67825">
        <ele>44.793775</ele>
        <time>2021-09-16T07:20:18.000Z</time>
      </trkpt>
      <trkpt lat="44.24609" lon="4.67876">
        <ele>44.791206</ele>
        <time>2021-09-16T07:20:24.000Z</time>
      </trkpt>
      <trkpt lat="44.24606" lon="4.67884">
        <ele>44.790785</ele>
        <time>2021-09-16T07:20:25.000Z</time>
      </trkpt>
      <trkpt lat="44.24599" lon="4.67908">
        <ele>44.788032</ele>
        <time>2021-09-16T07:20:28.000Z</time>
      </trkpt>
      <trkpt lat="44.2459" lon="4.67962">
        <ele>44.742021</ele>
        <time>2021-09-16T07:20:34.000Z</time>
      </trkpt>
      <trkpt lat="44.24594" lon="4.68026">
        <ele>44.688822</ele>
        <time>2021-09-16T07:20:41.000Z</time>
      </trkpt>
      <trkpt lat="44.24608" lon="4.68086">
        <ele>44.636753</ele>
        <time>2021-09-16T07:20:48.000Z</time>
      </trkpt>
      <trkpt lat="44.24618" lon="4.68128">
        <ele>44.599981</ele>
        <time>2021-09-16T07:20:53.000Z</time>
      </trkpt>
      <trkpt lat="44.24619" lon="4.68145">
        <ele>44.5858</ele>
        <time>2021-09-16T07:20:55.000Z</time>
      </trkpt>
      <trkpt lat="44.24619" lon="4.68162">
        <ele>44.565499</ele>
        <time>2021-09-16T07:20:57.000Z</time>
      </trkpt>
      <trkpt lat="44.24617" lon="4.68179">
        <ele>44.541562</ele>
        <time>2021-09-16T07:20:59.000Z</time>
      </trkpt>
      <trkpt lat="44.24613" lon="4.68197">
        <ele>44.516041</ele>
        <time>2021-09-16T07:21:00.000Z</time>
      </trkpt>
      <trkpt lat="44.24606" lon="4.68212">
        <ele>44.49113</ele>
        <time>2021-09-16T07:21:03.000Z</time>
      </trkpt>
      <trkpt lat="44.24602" lon="4.68229">
        <ele>44.466042</ele>
        <time>2021-09-16T07:21:05.000Z</time>
      </trkpt>
      <trkpt lat="44.24607" lon="4.68284">
        <ele>44.390521</ele>
        <time>2021-09-16T07:21:11.000Z</time>
      </trkpt>
      <trkpt lat="44.24621" lon="4.68344">
        <ele>44.303305</ele>
        <time>2021-09-16T07:21:18.000Z</time>
      </trkpt>
      <trkpt lat="44.24642" lon="4.68419">
        <ele>44.246826</ele>
        <time>2021-09-16T07:21:27.000Z</time>
      </trkpt>
      <trkpt lat="44.24645" lon="4.68427">
        <ele>44.250008</ele>
        <time>2021-09-16T07:21:28.000Z</time>
      </trkpt>
      <trkpt lat="44.24662" lon="4.68485">
        <ele>44.272606</ele>
        <time>2021-09-16T07:21:35.000Z</time>
      </trkpt>
      <trkpt lat="44.24678" lon="4.68545">
        <ele>44.29569</ele>
        <time>2021-09-16T07:21:42.000Z</time>
      </trkpt>
      <trkpt lat="44.24695" lon="4.68616">
        <ele>44.322463</ele>
        <time>2021-09-16T07:21:50.000Z</time>
      </trkpt>
      <trkpt lat="44.24701" lon="4.68649">
        <ele>44.299928</ele>
        <time>2021-09-16T07:21:54.000Z</time>
      </trkpt>
      <trkpt lat="44.24703" lon="4.68666">
        <ele>44.282179</ele>
        <time>2021-09-16T07:21:56.000Z</time>
      </trkpt>
      <trkpt lat="44.24704" lon="4.68683">
        <ele>44.263706</ele>
        <time>2021-09-16T07:21:58.000Z</time>
      </trkpt>
      <trkpt lat="44.24702" lon="4.68709">
        <ele>44.235983</ele>
        <time>2021-09-16T07:22:01.000Z</time>
      </trkpt>
      <trkpt lat="44.24694" lon="4.68765">
        <ele>44.174934</ele>
        <time>2021-09-16T07:22:08.000Z</time>
      </trkpt>
      <trkpt lat="44.24682" lon="4.68841">
        <ele>44.091947</ele>
        <time>2021-09-16T07:22:17.000Z</time>
      </trkpt>
      <trkpt lat="44.24675" lon="4.68912">
        <ele>44.017238</ele>
        <time>2021-09-16T07:22:25.000Z</time>
      </trkpt>
      <trkpt lat="44.24675" lon="4.68965">
        <ele>43.962926</ele>
        <time>2021-09-16T07:22:31.000Z</time>
      </trkpt>
      <trkpt lat="44.24674" lon="4.69028">
        <ele>43.898083</ele>
        <time>2021-09-16T07:22:38.000Z</time>
      </trkpt>
      <trkpt lat="44.24673" lon="4.69104">
        <ele>43.818963</ele>
        <time>2021-09-16T07:22:47.000Z</time>
      </trkpt>
      <trkpt lat="44.24666" lon="4.69173">
        <ele>43.808075</ele>
        <time>2021-09-16T07:22:55.000Z</time>
      </trkpt>
      <trkpt lat="44.24658" lon="4.69252">
        <ele>43.820521</ele>
        <time>2021-09-16T07:23:03.000Z</time>
      </trkpt>
      <trkpt lat="44.24656" lon="4.6927">
        <ele>43.823313</ele>
        <time>2021-09-16T07:23:06.000Z</time>
      </trkpt>
      <trkpt lat="44.24648" lon="4.6934">
        <ele>43.834499</ele>
        <time>2021-09-16T07:23:14.000Z</time>
      </trkpt>
      <trkpt lat="44.24642" lon="4.69421">
        <ele>43.772499</ele>
        <time>2021-09-16T07:23:22.000Z</time>
      </trkpt>
      <trkpt lat="44.24641" lon="4.6943">
        <ele>43.76028</ele>
        <time>2021-09-16T07:23:24.000Z</time>
      </trkpt>
      <trkpt lat="44.24635" lon="4.69511">
        <ele>43.650682</ele>
        <time>2021-09-16T07:23:32.000Z</time>
      </trkpt>
      <trkpt lat="44.24629" lon="4.69584">
        <ele>43.553569</ele>
        <time>2021-09-16T07:23:41.000Z</time>
      </trkpt>
      <trkpt lat="44.24623" lon="4.69665">
        <ele>43.484494</ele>
        <time>2021-09-16T07:23:50.000Z</time>
      </trkpt>
      <trkpt lat="44.24622" lon="4.69674">
        <ele>43.480394</ele>
        <time>2021-09-16T07:23:51.000Z</time>
      </trkpt>
      <trkpt lat="44.24616" lon="4.69754">
        <ele>43.444608</ele>
        <time>2021-09-16T07:23:59.000Z</time>
      </trkpt>
      <trkpt lat="44.24616" lon="4.69754">
        <ele>43.444608</ele>
        <time>2021-09-16T07:24:00.000Z</time>
      </trkpt>
      <trkpt lat="44.2461" lon="4.69825">
        <ele>43.413121</ele>
        <time>2021-09-16T07:24:08.000Z</time>
      </trkpt>
      <trkpt lat="44.24608" lon="4.6985">
        <ele>43.401793</ele>
        <time>2021-09-16T07:24:12.000Z</time>
      </trkpt>
      <trkpt lat="44.24607" lon="4.69861">
        <ele>43.397019</ele>
        <time>2021-09-16T07:24:16.000Z</time>
      </trkpt>
      <trkpt lat="44.24604" lon="4.6988">
        <ele>43.391117</ele>
        <time>2021-09-16T07:24:20.000Z</time>
      </trkpt>
      <trkpt lat="44.24602" lon="4.69886">
        <ele>43.389977</ele>
        <time>2021-09-16T07:24:21.000Z</time>
      </trkpt>
      <trkpt lat="44.24601" lon="4.69899">
        <ele>43.38771</ele>
        <time>2021-09-16T07:24:23.000Z</time>
      </trkpt>
      <trkpt lat="44.24605" lon="4.6991">
        <ele>43.385417</ele>
        <time>2021-09-16T07:24:25.000Z</time>
      </trkpt>
      <trkpt lat="44.24605" lon="4.69916">
        <ele>43.384357</ele>
        <time>2021-09-16T07:24:26.000Z</time>
      </trkpt>
      <trkpt lat="44.24605" lon="4.69923">
        <ele>43.383154</ele>
        <time>2021-09-16T07:24:27.000Z</time>
      </trkpt>
      <trkpt lat="44.246" lon="4.69932">
        <ele>43.381024</ele>
        <time>2021-09-16T07:24:29.000Z</time>
      </trkpt>
      <trkpt lat="44.24589" lon="4.69951">
        <ele>43.37669</ele>
        <time>2021-09-16T07:24:32.000Z</time>
      </trkpt>
      <trkpt lat="44.24578" lon="4.69972">
        <ele>43.372061</ele>
        <time>2021-09-16T07:24:35.000Z</time>
      </trkpt>
      <trkpt lat="44.24571" lon="4.69988">
        <ele>43.368836</ele>
        <time>2021-09-16T07:24:37.000Z</time>
      </trkpt>
      <trkpt lat="44.24561" lon="4.70009">
        <ele>43.364387</ele>
        <time>2021-09-16T07:24:40.000Z</time>
      </trkpt>
      <trkpt lat="44.24544" lon="4.70044">
        <ele>43.356939</ele>
        <time>2021-09-16T07:24:46.000Z</time>
      </trkpt>
      <trkpt lat="44.24537" lon="4.70057">
        <ele>43.35406</ele>
        <time>2021-09-16T07:24:49.000Z</time>
      </trkpt>
      <trkpt lat="44.24535" lon="4.7006">
        <ele>43.353254</ele>
        <time>2021-09-16T07:24:50.000Z</time>
      </trkpt>
      <trkpt lat="44.24538" lon="4.70068">
        <ele>43.351738</ele>
        <time>2021-09-16T07:24:53.000Z</time>
      </trkpt>
      <trkpt lat="44.24548" lon="4.70073">
        <ele>43.349209</ele>
        <time>2021-09-16T07:24:58.000Z</time>
      </trkpt>
      <trkpt lat="44.24546" lon="4.70091">
        <ele>43.379116</ele>
        <time>2021-09-16T07:25:03.000Z</time>
      </trkpt>
      <trkpt lat="44.2454" lon="4.70107">
        <ele>43.412728</ele>
        <time>2021-09-16T07:25:08.000Z</time>
      </trkpt>
      <trkpt lat="44.24531" lon="4.70132">
        <ele>43.468054</ele>
        <time>2021-09-16T07:25:15.000Z</time>
      </trkpt>
      <trkpt lat="44.24518" lon="4.70167">
        <ele>43.545644</ele>
        <time>2021-09-16T07:25:22.000Z</time>
      </trkpt>
      <trkpt lat="44.24502" lon="4.70209">
        <ele>43.636563</ele>
        <time>2021-09-16T07:25:29.000Z</time>
      </trkpt>
      <trkpt lat="44.24491" lon="4.7024">
        <ele>43.705342</ele>
        <time>2021-09-16T07:25:34.000Z</time>
      </trkpt>
      <trkpt lat="44.24486" lon="4.70251">
        <ele>43.73096</ele>
        <time>2021-09-16T07:25:36.000Z</time>
      </trkpt>
      <trkpt lat="44.24473" lon="4.70288">
        <ele>43.810738</ele>
        <time>2021-09-16T07:25:42.000Z</time>
      </trkpt>
      <trkpt lat="44.24454" lon="4.70339">
        <ele>43.745157</ele>
        <time>2021-09-16T07:25:49.000Z</time>
      </trkpt>
      <trkpt lat="44.24436" lon="4.70387">
        <ele>43.626962</ele>
        <time>2021-09-16T07:25:55.000Z</time>
      </trkpt>
      <trkpt lat="44.24415" lon="4.70444">
        <ele>43.490621</ele>
        <time>2021-09-16T07:26:02.000Z</time>
      </trkpt>
      <trkpt lat="44.24406" lon="4.70469">
        <ele>43.427853</ele>
        <time>2021-09-16T07:26:05.000Z</time>
      </trkpt>
      <trkpt lat="44.24397" lon="4.70486">
        <ele>43.383565</ele>
        <time>2021-09-16T07:26:07.000Z</time>
      </trkpt>
      <trkpt lat="44.24382" lon="4.70507">
        <ele>43.319666</ele>
        <time>2021-09-16T07:26:10.000Z</time>
      </trkpt>
      <trkpt lat="44.24371" lon="4.7052">
        <ele>43.313711</ele>
        <time>2021-09-16T07:26:12.000Z</time>
      </trkpt>
      <trkpt lat="44.24358" lon="4.70529">
        <ele>43.353824</ele>
        <time>2021-09-16T07:26:14.000Z</time>
      </trkpt>
      <trkpt lat="44.24344" lon="4.70535">
        <ele>43.394743</ele>
        <time>2021-09-16T07:26:16.000Z</time>
      </trkpt>
      <trkpt lat="44.24307" lon="4.70538">
        <ele>43.497289</ele>
        <time>2021-09-16T07:26:21.000Z</time>
      </trkpt>
      <trkpt lat="44.24251" lon="4.70531">
        <ele>43.651539</ele>
        <time>2021-09-16T07:26:29.000Z</time>
      </trkpt>
      <trkpt lat="44.24238" lon="4.70529">
        <ele>43.688579</ele>
        <time>2021-09-16T07:26:31.000Z</time>
      </trkpt>
      <trkpt lat="44.24194" lon="4.70525">
        <ele>43.818658</ele>
        <time>2021-09-16T07:26:38.000Z</time>
      </trkpt>
      <trkpt lat="44.2416" lon="4.70532">
        <ele>43.950523</ele>
        <time>2021-09-16T07:26:44.000Z</time>
      </trkpt>
      <trkpt lat="44.24141" lon="4.70542">
        <ele>44.029518</ele>
        <time>2021-09-16T07:26:48.000Z</time>
      </trkpt>
      <trkpt lat="44.24124" lon="4.70533">
        <ele>44.102465</ele>
        <time>2021-09-16T07:26:51.000Z</time>
      </trkpt>
      <trkpt lat="44.24093" lon="4.70536">
        <ele>44.224344</ele>
        <time>2021-09-16T07:26:57.000Z</time>
      </trkpt>
      <trkpt lat="44.24054" lon="4.7054">
        <ele>44.376539</ele>
        <time>2021-09-16T07:27:03.000Z</time>
      </trkpt>
      <trkpt lat="44.23994" lon="4.70546">
        <ele>44.440274</ele>
        <time>2021-09-16T07:27:11.000Z</time>
      </trkpt>
      <trkpt lat="44.23933" lon="4.70552">
        <ele>44.329116</ele>
        <time>2021-09-16T07:27:19.000Z</time>
      </trkpt>
      <trkpt lat="44.23918" lon="4.70553">
        <ele>44.301864</ele>
        <time>2021-09-16T07:27:21.000Z</time>
      </trkpt>
      <trkpt lat="44.23859" lon="4.70559">
        <ele>44.194773</ele>
        <time>2021-09-16T07:27:29.000Z</time>
      </trkpt>
      <trkpt lat="44.23845" lon="4.70561">
        <ele>44.168902</ele>
        <time>2021-09-16T07:27:31.000Z</time>
      </trkpt>
      <trkpt lat="44.23803" lon="4.70567">
        <ele>44.13759</ele>
        <time>2021-09-16T07:27:37.000Z</time>
      </trkpt>
      <trkpt lat="44.23796" lon="4.70568">
        <ele>44.132641</ele>
        <time>2021-09-16T07:27:38.000Z</time>
      </trkpt>
      <trkpt lat="44.2379" lon="4.70569">
        <ele>44.127914</ele>
        <time>2021-09-16T07:27:39.000Z</time>
      </trkpt>
      <trkpt lat="44.23783" lon="4.70576">
        <ele>44.121353</ele>
        <time>2021-09-16T07:27:40.000Z</time>
      </trkpt>
      <trkpt lat="44.23785" lon="4.70583">
        <ele>44.117373</ele>
        <time>2021-09-16T07:27:41.000Z</time>
      </trkpt>
      <trkpt lat="44.2379" lon="4.70601">
        <ele>44.107348</ele>
        <time>2021-09-16T07:27:43.000Z</time>
      </trkpt>
      <trkpt lat="44.23798" lon="4.70627">
        <ele>44.092359</ele>
        <time>2021-09-16T07:27:46.000Z</time>
      </trkpt>
      <trkpt lat="44.238" lon="4.70635">
        <ele>44.087649</ele>
        <time>2021-09-16T07:27:47.000Z</time>
      </trkpt>
      <trkpt lat="44.238" lon="4.70644">
        <ele>44.08305</ele>
        <time>2021-09-16T07:27:48.000Z</time>
      </trkpt>
      <trkpt lat="44.23797" lon="4.70652">
        <ele>44.078383</ele>
        <time>2021-09-16T07:27:49.000Z</time>
      </trkpt>
      <trkpt lat="44.23791" lon="4.70654">
        <ele>44.073996</ele>
        <time>2021-09-16T07:27:50.000Z</time>
      </trkpt>
      <trkpt lat="44.23779" lon="4.70654">
        <ele>44.064815</ele>
        <time>2021-09-16T07:27:52.000Z</time>
      </trkpt>
      <trkpt lat="44.23721" lon="4.70654">
        <ele>44.024406</ele>
        <time>2021-09-16T07:28:01.000Z</time>
      </trkpt>
      <trkpt lat="44.23661" lon="4.70657">
        <ele>43.989961</ele>
        <time>2021-09-16T07:28:10.000Z</time>
      </trkpt>
      <trkpt lat="44.23648" lon="4.70658">
        <ele>43.982218</ele>
        <time>2021-09-16T07:28:12.000Z</time>
      </trkpt>
      <trkpt lat="44.23588" lon="4.70664">
        <ele>43.947536</ele>
        <time>2021-09-16T07:28:21.000Z</time>
      </trkpt>
      <trkpt lat="44.23536" lon="4.70672">
        <ele>43.883317</ele>
        <time>2021-09-16T07:28:29.000Z</time>
      </trkpt>
      <trkpt lat="44.2348" lon="4.70685">
        <ele>43.765704</ele>
        <time>2021-09-16T07:28:38.000Z</time>
      </trkpt>
      <trkpt lat="44.23442" lon="4.70695">
        <ele>43.686541</ele>
        <time>2021-09-16T07:28:44.000Z</time>
      </trkpt>
      <trkpt lat="44.23397" lon="4.7071">
        <ele>43.591437</ele>
        <time>2021-09-16T07:28:51.000Z</time>
      </trkpt>
      <trkpt lat="44.23364" lon="4.70722">
        <ele>43.565286</ele>
        <time>2021-09-16T07:28:56.000Z</time>
      </trkpt>
      <trkpt lat="44.23331" lon="4.70734">
        <ele>43.574737</ele>
        <time>2021-09-16T07:29:01.000Z</time>
      </trkpt>
      <trkpt lat="44.23299" lon="4.70748">
        <ele>43.583851</ele>
        <time>2021-09-16T07:29:06.000Z</time>
      </trkpt>
      <trkpt lat="44.23262" lon="4.70765">
        <ele>43.594661</ele>
        <time>2021-09-16T07:29:12.000Z</time>
      </trkpt>
      <trkpt lat="44.23206" lon="4.70794">
        <ele>43.569114</ele>
        <time>2021-09-16T07:29:21.000Z</time>
      </trkpt>
      <trkpt lat="44.23181" lon="4.70807">
        <ele>43.374391</ele>
        <time>2021-09-16T07:29:25.000Z</time>
      </trkpt>
      <trkpt lat="44.23168" lon="4.70814">
        <ele>43.277394</ele>
        <time>2021-09-16T07:29:27.000Z</time>
      </trkpt>
      <trkpt lat="44.23153" lon="4.70813">
        <ele>43.169897</ele>
        <time>2021-09-16T07:29:29.000Z</time>
      </trkpt>
      <trkpt lat="44.23148" lon="4.70808">
        <ele>43.123191</ele>
        <time>2021-09-16T07:29:30.000Z</time>
      </trkpt>
      <trkpt lat="44.23137" lon="4.70797">
        <ele>43.031842</ele>
        <time>2021-09-16T07:29:32.000Z</time>
      </trkpt>
      <trkpt lat="44.23132" lon="4.70792">
        <ele>42.98395</ele>
        <time>2021-09-16T07:29:33.000Z</time>
      </trkpt>
      <trkpt lat="44.23122" lon="4.70788">
        <ele>42.91195</ele>
        <time>2021-09-16T07:29:34.000Z</time>
      </trkpt>
      <trkpt lat="44.23115" lon="4.70798">
        <ele>42.834362</ele>
        <time>2021-09-16T07:29:36.000Z</time>
      </trkpt>
      <trkpt lat="44.23105" lon="4.70814">
        <ele>42.725237</ele>
        <time>2021-09-16T07:29:39.000Z</time>
      </trkpt>
      <trkpt lat="44.231" lon="4.70819">
        <ele>42.682632</ele>
        <time>2021-09-16T07:29:40.000Z</time>
      </trkpt>
      <trkpt lat="44.23094" lon="4.70822">
        <ele>42.638388</ele>
        <time>2021-09-16T07:29:41.000Z</time>
      </trkpt>
      <trkpt lat="44.23076" lon="4.70828">
        <ele>42.505551</ele>
        <time>2021-09-16T07:29:44.000Z</time>
      </trkpt>
      <trkpt lat="44.2307" lon="4.7083">
        <ele>42.458732</ele>
        <time>2021-09-16T07:29:45.000Z</time>
      </trkpt>
      <trkpt lat="44.23064" lon="4.70832">
        <ele>42.410514</ele>
        <time>2021-09-16T07:29:46.000Z</time>
      </trkpt>
      <trkpt lat="44.23058" lon="4.70838">
        <ele>42.35873</ele>
        <time>2021-09-16T07:29:47.000Z</time>
      </trkpt>
      <trkpt lat="44.23053" lon="4.70845">
        <ele>42.311724</ele>
        <time>2021-09-16T07:29:48.000Z</time>
      </trkpt>
      <trkpt lat="44.23053" lon="4.7087">
        <ele>42.254882</ele>
        <time>2021-09-16T07:29:50.000Z</time>
      </trkpt>
      <trkpt lat="44.23042" lon="4.70879">
        <ele>42.214483</ele>
        <time>2021-09-16T07:29:52.000Z</time>
      </trkpt>
      <trkpt lat="44.23035" lon="4.70882">
        <ele>42.19276</ele>
        <time>2021-09-16T07:29:53.000Z</time>
      </trkpt>
      <trkpt lat="44.23003" lon="4.709">
        <ele>42.084061</ele>
        <time>2021-09-16T07:29:58.000Z</time>
      </trkpt>
      <trkpt lat="44.22957" lon="4.70925">
        <ele>41.927972</ele>
        <time>2021-09-16T07:30:05.000Z</time>
      </trkpt>
      <trkpt lat="44.22906" lon="4.70953">
        <ele>41.754774</ele>
        <time>2021-09-16T07:30:13.000Z</time>
      </trkpt>
      <trkpt lat="44.229" lon="4.70956">
        <ele>41.748343</ele>
        <time>2021-09-16T07:30:14.000Z</time>
      </trkpt>
      <trkpt lat="44.22848" lon="4.70985">
        <ele>41.807139</ele>
        <time>2021-09-16T07:30:22.000Z</time>
      </trkpt>
      <trkpt lat="44.22842" lon="4.70989">
        <ele>41.814609</ele>
        <time>2021-09-16T07:30:23.000Z</time>
      </trkpt>
      <trkpt lat="44.22816" lon="4.71003">
        <ele>41.843944</ele>
        <time>2021-09-16T07:30:27.000Z</time>
      </trkpt>
      <trkpt lat="44.22809" lon="4.71006">
        <ele>41.851414</ele>
        <time>2021-09-16T07:30:28.000Z</time>
      </trkpt>
      <trkpt lat="44.22796" lon="4.71012">
        <ele>41.865836</ele>
        <time>2021-09-16T07:30:30.000Z</time>
      </trkpt>
      <trkpt lat="44.22789" lon="4.71013">
        <ele>41.873166</ele>
        <time>2021-09-16T07:30:31.000Z</time>
      </trkpt>
      <trkpt lat="44.22748" lon="4.71008">
        <ele>41.917007</ele>
        <time>2021-09-16T07:30:37.000Z</time>
      </trkpt>
      <trkpt lat="44.22694" lon="4.71">
        <ele>41.882296</ele>
        <time>2021-09-16T07:30:45.000Z</time>
      </trkpt>
      <trkpt lat="44.22687" lon="4.70999">
        <ele>41.872808</ele>
        <time>2021-09-16T07:30:46.000Z</time>
      </trkpt>
      <trkpt lat="44.22666" lon="4.70996">
        <ele>41.844607</ele>
        <time>2021-09-16T07:30:49.000Z</time>
      </trkpt>
      <trkpt lat="44.22655" lon="4.70995">
        <ele>41.828784</ele>
        <time>2021-09-16T07:30:51.000Z</time>
      </trkpt>
      <trkpt lat="44.226" lon="4.70987">
        <ele>41.753951</ele>
        <time>2021-09-16T07:30:59.000Z</time>
      </trkpt>
      <trkpt lat="44.22594" lon="4.70986">
        <ele>41.74459</ele>
        <time>2021-09-16T07:31:00.000Z</time>
      </trkpt>
      <trkpt lat="44.22541" lon="4.70979">
        <ele>41.662082</ele>
        <time>2021-09-16T07:31:08.000Z</time>
      </trkpt>
      <trkpt lat="44.22528" lon="4.70984">
        <ele>41.632397</ele>
        <time>2021-09-16T07:31:10.000Z</time>
      </trkpt>
      <trkpt lat="44.22514" lon="4.71034">
        <ele>41.547706</ele>
        <time>2021-09-16T07:31:16.000Z</time>
      </trkpt>
      <trkpt lat="44.22495" lon="4.71103">
        <ele>41.431746</ele>
        <time>2021-09-16T07:31:24.000Z</time>
      </trkpt>
      <trkpt lat="44.22478" lon="4.71164">
        <ele>41.32941</ele>
        <time>2021-09-16T07:31:31.000Z</time>
      </trkpt>
      <trkpt lat="44.22462" lon="4.71225">
        <ele>41.253747</ele>
        <time>2021-09-16T07:31:38.000Z</time>
      </trkpt>
      <trkpt lat="44.22459" lon="4.71233">
        <ele>41.245201</ele>
        <time>2021-09-16T07:31:39.000Z</time>
      </trkpt>
      <trkpt lat="44.22451" lon="4.71248">
        <ele>41.227309</ele>
        <time>2021-09-16T07:31:41.000Z</time>
      </trkpt>
      <trkpt lat="44.22446" lon="4.71253">
        <ele>41.218731</ele>
        <time>2021-09-16T07:31:42.000Z</time>
      </trkpt>
      <trkpt lat="44.2244" lon="4.71258">
        <ele>41.209719</ele>
        <time>2021-09-16T07:31:43.000Z</time>
      </trkpt>
      <trkpt lat="44.22417" lon="4.71278">
        <ele>41.174455</ele>
        <time>2021-09-16T07:31:47.000Z</time>
      </trkpt>
      <trkpt lat="44.22364" lon="4.71323">
        <ele>41.09353</ele>
        <time>2021-09-16T07:31:55.000Z</time>
      </trkpt>
      <trkpt lat="44.22326" lon="4.71361">
        <ele>41.071671</ele>
        <time>2021-09-16T07:32:02.000Z</time>
      </trkpt>
      <trkpt lat="44.22282" lon="4.71403">
        <ele>41.110623</ele>
        <time>2021-09-16T07:32:11.000Z</time>
      </trkpt>
      <trkpt lat="44.22245" lon="4.71441">
        <ele>41.14407</ele>
        <time>2021-09-16T07:32:18.000Z</time>
      </trkpt>
      <trkpt lat="44.22209" lon="4.71479">
        <ele>41.177535</ele>
        <time>2021-09-16T07:32:25.000Z</time>
      </trkpt>
      <trkpt lat="44.22174" lon="4.71517">
        <ele>41.269391</ele>
        <time>2021-09-16T07:32:32.000Z</time>
      </trkpt>
      <trkpt lat="44.2214" lon="4.71556">
        <ele>41.396505</ele>
        <time>2021-09-16T07:32:39.000Z</time>
      </trkpt>
      <trkpt lat="44.22106" lon="4.71595">
        <ele>41.519773</ele>
        <time>2021-09-16T07:32:46.000Z</time>
      </trkpt>
      <trkpt lat="44.22101" lon="4.71601">
        <ele>41.538514</ele>
        <time>2021-09-16T07:32:47.000Z</time>
      </trkpt>
      <trkpt lat="44.22072" lon="4.71634">
        <ele>41.64501</ele>
        <time>2021-09-16T07:32:53.000Z</time>
      </trkpt>
      <trkpt lat="44.22054" lon="4.71655">
        <ele>41.755636</ele>
        <time>2021-09-16T07:32:57.000Z</time>
      </trkpt>
      <trkpt lat="44.22045" lon="4.71665">
        <ele>41.895653</ele>
        <time>2021-09-16T07:32:59.000Z</time>
      </trkpt>
      <trkpt lat="44.22021" lon="4.71692">
        <ele>42.280435</ele>
        <time>2021-09-16T07:33:05.000Z</time>
      </trkpt>
      <trkpt lat="44.21997" lon="4.7172">
        <ele>42.674998</ele>
        <time>2021-09-16T07:33:12.000Z</time>
      </trkpt>
      <trkpt lat="44.21979" lon="4.71735">
        <ele>42.938303</ele>
        <time>2021-09-16T07:33:18.000Z</time>
      </trkpt>
      <trkpt lat="44.21952" lon="4.7175">
        <ele>43.302455</ele>
        <time>2021-09-16T07:33:26.000Z</time>
      </trkpt>
      <trkpt lat="44.21919" lon="4.71771">
        <ele>43.753827</ele>
        <time>2021-09-16T07:33:36.000Z</time>
      </trkpt>
      <trkpt lat="44.21901" lon="4.71788">
        <ele>43.973481</ele>
        <time>2021-09-16T07:33:42.000Z</time>
      </trkpt>
      <trkpt lat="44.21899" lon="4.71792">
        <ele>43.989367</ele>
        <time>2021-09-16T07:33:43.000Z</time>
      </trkpt>
      <trkpt lat="44.2188" lon="4.71826">
        <ele>44.113995</ele>
        <time>2021-09-16T07:33:49.000Z</time>
      </trkpt>
      <trkpt lat="44.21859" lon="4.71868">
        <ele>44.26584</ele>
        <time>2021-09-16T07:33:55.000Z</time>
      </trkpt>
      <trkpt lat="44.21829" lon="4.71907">
        <ele>44.435651</ele>
        <time>2021-09-16T07:34:01.000Z</time>
      </trkpt>
      <trkpt lat="44.21792" lon="4.71946">
        <ele>44.624893</ele>
        <time>2021-09-16T07:34:07.000Z</time>
      </trkpt>
      <trkpt lat="44.21743" lon="4.71993">
        <ele>44.610316</ele>
        <time>2021-09-16T07:34:14.000Z</time>
      </trkpt>
      <trkpt lat="44.21715" lon="4.72018">
        <ele>44.549555</ele>
        <time>2021-09-16T07:34:18.000Z</time>
      </trkpt>
      <trkpt lat="44.21708" lon="4.72024">
        <ele>44.535146</ele>
        <time>2021-09-16T07:34:19.000Z</time>
      </trkpt>
      <trkpt lat="44.21669" lon="4.72058">
        <ele>44.451544</ele>
        <time>2021-09-16T07:34:25.000Z</time>
      </trkpt>
      <trkpt lat="44.21663" lon="4.72064">
        <ele>44.437805</ele>
        <time>2021-09-16T07:34:26.000Z</time>
      </trkpt>
      <trkpt lat="44.21633" lon="4.7209">
        <ele>44.372716</ele>
        <time>2021-09-16T07:34:31.000Z</time>
      </trkpt>
      <trkpt lat="44.21586" lon="4.72129">
        <ele>44.288539</ele>
        <time>2021-09-16T07:34:39.000Z</time>
      </trkpt>
      <trkpt lat="44.2158" lon="4.72134">
        <ele>44.278341</ele>
        <time>2021-09-16T07:34:40.000Z</time>
      </trkpt>
      <trkpt lat="44.21532" lon="4.72168">
        <ele>44.198126</ele>
        <time>2021-09-16T07:34:48.000Z</time>
      </trkpt>
      <trkpt lat="44.2149" lon="4.72199">
        <ele>44.126639</ele>
        <time>2021-09-16T07:34:55.000Z</time>
      </trkpt>
      <trkpt lat="44.21448" lon="4.72227">
        <ele>44.062409</ele>
        <time>2021-09-16T07:35:02.000Z</time>
      </trkpt>
      <trkpt lat="44.21418" lon="4.72246">
        <ele>44.021895</ele>
        <time>2021-09-16T07:35:07.000Z</time>
      </trkpt>
      <trkpt lat="44.21367" lon="4.72272">
        <ele>43.954269</ele>
        <time>2021-09-16T07:35:15.000Z</time>
      </trkpt>
      <trkpt lat="44.21354" lon="4.72278">
        <ele>43.937215</ele>
        <time>2021-09-16T07:35:17.000Z</time>
      </trkpt>
      <trkpt lat="44.21316" lon="4.72297">
        <ele>43.886115</ele>
        <time>2021-09-16T07:35:23.000Z</time>
      </trkpt>
      <trkpt lat="44.2127" lon="4.72317">
        <ele>44.040231</ele>
        <time>2021-09-16T07:35:30.000Z</time>
      </trkpt>
      <trkpt lat="44.21225" lon="4.72334">
        <ele>44.287311</ele>
        <time>2021-09-16T07:35:38.000Z</time>
      </trkpt>
      <trkpt lat="44.21195" lon="4.72345">
        <ele>44.444263</ele>
        <time>2021-09-16T07:35:44.000Z</time>
      </trkpt>
      <trkpt lat="44.21187" lon="4.72348">
        <ele>44.49018</ele>
        <time>2021-09-16T07:35:45.000Z</time>
      </trkpt>
      <trkpt lat="44.21165" lon="4.72349">
        <ele>44.604994</ele>
        <time>2021-09-16T07:35:52.000Z</time>
      </trkpt>
      <trkpt lat="44.21135" lon="4.72344">
        <ele>44.761965</ele>
        <time>2021-09-16T07:36:01.000Z</time>
      </trkpt>
      <trkpt lat="44.21104" lon="4.72339">
        <ele>44.858569</ele>
        <time>2021-09-16T07:36:11.000Z</time>
      </trkpt>
      <trkpt lat="44.21083" lon="4.72339">
        <ele>44.906811</ele>
        <time>2021-09-16T07:36:18.000Z</time>
      </trkpt>
      <trkpt lat="44.21063" lon="4.72347">
        <ele>44.953017</ele>
        <time>2021-09-16T07:36:23.000Z</time>
      </trkpt>
      <trkpt lat="44.21029" lon="4.72364">
        <ele>45.035157</ele>
        <time>2021-09-16T07:36:28.000Z</time>
      </trkpt>
      <trkpt lat="44.20996" lon="4.72378">
        <ele>45.114331</ele>
        <time>2021-09-16T07:36:34.000Z</time>
      </trkpt>
      <trkpt lat="44.20949" lon="4.72381">
        <ele>45.195486</ele>
        <time>2021-09-16T07:36:39.000Z</time>
      </trkpt>
      <trkpt lat="44.20897" lon="4.7238">
        <ele>44.777818</ele>
        <time>2021-09-16T07:36:46.000Z</time>
      </trkpt>
      <trkpt lat="44.20841" lon="4.72378">
        <ele>44.318733</ele>
        <time>2021-09-16T07:36:53.000Z</time>
      </trkpt>
      <trkpt lat="44.20833" lon="4.72378">
        <ele>44.255361</ele>
        <time>2021-09-16T07:36:54.000Z</time>
      </trkpt>
      <trkpt lat="44.20774" lon="4.72377">
        <ele>43.773531</ele>
        <time>2021-09-16T07:37:02.000Z</time>
      </trkpt>
      <trkpt lat="44.20725" lon="4.72376">
        <ele>43.494187</ele>
        <time>2021-09-16T07:37:09.000Z</time>
      </trkpt>
      <trkpt lat="44.20676" lon="4.72375">
        <ele>43.221411</ele>
        <time>2021-09-16T07:37:16.000Z</time>
      </trkpt>
      <trkpt lat="44.20621" lon="4.72374">
        <ele>42.912869</ele>
        <time>2021-09-16T07:37:24.000Z</time>
      </trkpt>
      <trkpt lat="44.20614" lon="4.72374">
        <ele>42.874305</ele>
        <time>2021-09-16T07:37:25.000Z</time>
      </trkpt>
      <trkpt lat="44.20558" lon="4.72376">
        <ele>42.63302</ele>
        <time>2021-09-16T07:37:33.000Z</time>
      </trkpt>
      <trkpt lat="44.20502" lon="4.72384">
        <ele>42.436886</ele>
        <time>2021-09-16T07:37:41.000Z</time>
      </trkpt>
      <trkpt lat="44.20446" lon="4.72398">
        <ele>42.24089</ele>
        <time>2021-09-16T07:37:48.000Z</time>
      </trkpt>
      <trkpt lat="44.20446" lon="4.72398">
        <ele>42.24089</ele>
        <time>2021-09-16T07:37:49.000Z</time>
      </trkpt>
      <trkpt lat="44.20391" lon="4.72414">
        <ele>42.068996</ele>
        <time>2021-09-16T07:37:57.000Z</time>
      </trkpt>
      <trkpt lat="44.20384" lon="4.72417">
        <ele>42.051676</ele>
        <time>2021-09-16T07:37:58.000Z</time>
      </trkpt>
      <trkpt lat="44.20328" lon="4.72437">
        <ele>41.912033</ele>
        <time>2021-09-16T07:38:06.000Z</time>
      </trkpt>
      <trkpt lat="44.20289" lon="4.72455">
        <ele>41.81086</ele>
        <time>2021-09-16T07:38:12.000Z</time>
      </trkpt>
      <trkpt lat="44.20275" lon="4.72459">
        <ele>41.77654</ele>
        <time>2021-09-16T07:38:14.000Z</time>
      </trkpt>
      <trkpt lat="44.20261" lon="4.72461">
        <ele>41.742085</ele>
        <time>2021-09-16T07:38:16.000Z</time>
      </trkpt>
      <trkpt lat="44.20227" lon="4.7245">
        <ele>41.614897</ele>
        <time>2021-09-16T07:38:21.000Z</time>
      </trkpt>
      <trkpt lat="44.20174" lon="4.72427">
        <ele>41.306823</ele>
        <time>2021-09-16T07:38:29.000Z</time>
      </trkpt>
      <trkpt lat="44.20161" lon="4.72421">
        <ele>41.230646</ele>
        <time>2021-09-16T07:38:31.000Z</time>
      </trkpt>
      <trkpt lat="44.20109" lon="4.72398">
        <ele>40.927815</ele>
        <time>2021-09-16T07:38:38.000Z</time>
      </trkpt>
      <trkpt lat="44.20102" lon="4.72395">
        <ele>40.890581</ele>
        <time>2021-09-16T07:38:39.000Z</time>
      </trkpt>
      <trkpt lat="44.20058" lon="4.72375">
        <ele>40.68265</ele>
        <time>2021-09-16T07:38:46.000Z</time>
      </trkpt>
      <trkpt lat="44.20058" lon="4.72375">
        <ele>40.68265</ele>
        <time>2021-09-16T07:38:47.000Z</time>
      </trkpt>
      <trkpt lat="44.20053" lon="4.72372">
        <ele>40.678432</ele>
        <time>2021-09-16T07:38:48.000Z</time>
      </trkpt>
      <trkpt lat="44.20042" lon="4.72377">
        <ele>40.6702</ele>
        <time>2021-09-16T07:38:50.000Z</time>
      </trkpt>
      <trkpt lat="44.20042" lon="4.72383">
        <ele>40.666827</ele>
        <time>2021-09-16T07:38:51.000Z</time>
      </trkpt>
      <trkpt lat="44.20044" lon="4.72407">
        <ele>40.654415</ele>
        <time>2021-09-16T07:38:54.000Z</time>
      </trkpt>
      <trkpt lat="44.20051" lon="4.72464">
        <ele>40.624047</ele>
        <time>2021-09-16T07:39:01.000Z</time>
      </trkpt>
      <trkpt lat="44.20057" lon="4.72511">
        <ele>40.598924</ele>
        <time>2021-09-16T07:39:08.000Z</time>
      </trkpt>
      <trkpt lat="44.20059" lon="4.72551">
        <ele>40.577674</ele>
        <time>2021-09-16T07:39:16.000Z</time>
      </trkpt>
      <trkpt lat="44.20054" lon="4.72594">
        <ele>40.551441</ele>
        <time>2021-09-16T07:39:25.000Z</time>
      </trkpt>
      <trkpt lat="44.20051" lon="4.72603">
        <ele>40.540429</ele>
        <time>2021-09-16T07:39:27.000Z</time>
      </trkpt>
      <trkpt lat="44.20043" lon="4.72625">
        <ele>40.513801</ele>
        <time>2021-09-16T07:39:30.000Z</time>
      </trkpt>
      <trkpt lat="44.2004" lon="4.72631">
        <ele>40.505868</ele>
        <time>2021-09-16T07:39:32.000Z</time>
      </trkpt>
      <trkpt lat="44.20029" lon="4.72651">
        <ele>40.477861</ele>
        <time>2021-09-16T07:39:35.000Z</time>
      </trkpt>
      <trkpt lat="44.20019" lon="4.72663">
        <ele>40.457638</ele>
        <time>2021-09-16T07:39:37.000Z</time>
      </trkpt>
      <trkpt lat="44.20015" lon="4.72667">
        <ele>40.449364</ele>
        <time>2021-09-16T07:39:38.000Z</time>
      </trkpt>
      <trkpt lat="44.19996" lon="4.72651">
        <ele>40.416435</ele>
        <time>2021-09-16T07:39:41.000Z</time>
      </trkpt>
      <trkpt lat="44.19986" lon="4.72645">
        <ele>40.399599</ele>
        <time>2021-09-16T07:39:44.000Z</time>
      </trkpt>
      <trkpt lat="44.19976" lon="4.72641">
        <ele>40.382842</ele>
        <time>2021-09-16T07:39:46.000Z</time>
      </trkpt>
      <trkpt lat="44.19937" lon="4.72629">
        <ele>40.321745</ele>
        <time>2021-09-16T07:39:53.000Z</time>
      </trkpt>
      <trkpt lat="44.19896" lon="4.72619">
        <ele>40.253562</ele>
        <time>2021-09-16T07:40:00.000Z</time>
      </trkpt>
      <trkpt lat="44.19846" lon="4.72607">
        <ele>40.162016</ele>
        <time>2021-09-16T07:40:08.000Z</time>
      </trkpt>
      <trkpt lat="44.1984" lon="4.72605">
        <ele>40.150987</ele>
        <time>2021-09-16T07:40:09.000Z</time>
      </trkpt>
      <trkpt lat="44.19834" lon="4.72604">
        <ele>40.140895</ele>
        <time>2021-09-16T07:40:10.000Z</time>
      </trkpt>
      <trkpt lat="44.19811" lon="4.72599">
        <ele>40.098838</ele>
        <time>2021-09-16T07:40:14.000Z</time>
      </trkpt>
      <trkpt lat="44.19769" lon="4.72596">
        <ele>40.022362</ele>
        <time>2021-09-16T07:40:21.000Z</time>
      </trkpt>
      <trkpt lat="44.19738" lon="4.726">
        <ele>39.966332</ele>
        <time>2021-09-16T07:40:26.000Z</time>
      </trkpt>
      <trkpt lat="44.19721" lon="4.72611">
        <ele>39.940742</ele>
        <time>2021-09-16T07:40:29.000Z</time>
      </trkpt>
      <trkpt lat="44.19705" lon="4.72622">
        <ele>39.919964</ele>
        <time>2021-09-16T07:40:31.000Z</time>
      </trkpt>
      <trkpt lat="44.19696" lon="4.72629">
        <ele>39.906758</ele>
        <time>2021-09-16T07:40:34.000Z</time>
      </trkpt>
      <trkpt lat="44.19683" lon="4.72632">
        <ele>39.892048</ele>
        <time>2021-09-16T07:40:36.000Z</time>
      </trkpt>
      <trkpt lat="44.19675" lon="4.72624">
        <ele>39.880343</ele>
        <time>2021-09-16T07:40:38.000Z</time>
      </trkpt>
      <trkpt lat="44.19664" lon="4.72596">
        <ele>39.853283</ele>
        <time>2021-09-16T07:40:41.000Z</time>
      </trkpt>
      <trkpt lat="44.1966" lon="4.72591">
        <ele>39.846456</ele>
        <time>2021-09-16T07:40:43.000Z</time>
      </trkpt>
      <trkpt lat="44.19623" lon="4.72584">
        <ele>39.803004</ele>
        <time>2021-09-16T07:40:48.000Z</time>
      </trkpt>
      <trkpt lat="44.19567" lon="4.7258">
        <ele>39.728326</ele>
        <time>2021-09-16T07:40:58.000Z</time>
      </trkpt>
      <trkpt lat="44.19516" lon="4.72581">
        <ele>39.613571</ele>
        <time>2021-09-16T07:41:06.000Z</time>
      </trkpt>
      <trkpt lat="44.19478" lon="4.72585">
        <ele>39.526627</ele>
        <time>2021-09-16T07:41:12.000Z</time>
      </trkpt>
      <trkpt lat="44.19452" lon="4.72586">
        <ele>39.468306</ele>
        <time>2021-09-16T07:41:16.000Z</time>
      </trkpt>
      <trkpt lat="44.19433" lon="4.72582">
        <ele>39.424496</ele>
        <time>2021-09-16T07:41:18.000Z</time>
      </trkpt>
      <trkpt lat="44.19389" lon="4.72568">
        <ele>39.335691</ele>
        <time>2021-09-16T07:41:26.000Z</time>
      </trkpt>
      <trkpt lat="44.19366" lon="4.7256">
        <ele>39.329263</ele>
        <time>2021-09-16T07:41:29.000Z</time>
      </trkpt>
      <trkpt lat="44.19366" lon="4.7256">
        <ele>39.329263</ele>
        <time>2021-09-16T07:41:30.000Z</time>
      </trkpt>
      <trkpt lat="44.19361" lon="4.72558">
        <ele>39.327909</ele>
        <time>2021-09-16T07:41:31.000Z</time>
      </trkpt>
      <trkpt lat="44.19354" lon="4.72546">
        <ele>39.325047</ele>
        <time>2021-09-16T07:41:32.000Z</time>
      </trkpt>
      <trkpt lat="44.19356" lon="4.72532">
        <ele>39.322354</ele>
        <time>2021-09-16T07:41:34.000Z</time>
      </trkpt>
      <trkpt lat="44.19359" lon="4.72519">
        <ele>39.319703</ele>
        <time>2021-09-16T07:41:36.000Z</time>
      </trkpt>
      <trkpt lat="44.19352" lon="4.72497">
        <ele>39.315208</ele>
        <time>2021-09-16T07:41:39.000Z</time>
      </trkpt>
      <trkpt lat="44.19348" lon="4.72482">
        <ele>39.312103</ele>
        <time>2021-09-16T07:41:41.000Z</time>
      </trkpt>
      <trkpt lat="44.19338" lon="4.7245">
        <ele>39.305622</ele>
        <time>2021-09-16T07:41:45.000Z</time>
      </trkpt>
      <trkpt lat="44.19335" lon="4.72443">
        <ele>39.304005</ele>
        <time>2021-09-16T07:41:46.000Z</time>
      </trkpt>
      <trkpt lat="44.19333" lon="4.72435">
        <ele>39.302434</ele>
        <time>2021-09-16T07:41:47.000Z</time>
      </trkpt>
      <trkpt lat="44.19323" lon="4.72405">
        <ele>39.296158</ele>
        <time>2021-09-16T07:41:51.000Z</time>
      </trkpt>
      <trkpt lat="44.19303" lon="4.72342">
        <ele>39.371501</ele>
        <time>2021-09-16T07:41:59.000Z</time>
      </trkpt>
      <trkpt lat="44.19281" lon="4.72276">
        <ele>39.544143</ele>
        <time>2021-09-16T07:42:08.000Z</time>
      </trkpt>
      <trkpt lat="44.19259" lon="4.72209">
        <ele>39.717993</ele>
        <time>2021-09-16T07:42:17.000Z</time>
      </trkpt>
      <trkpt lat="44.19237" lon="4.7214">
        <ele>39.903942</ele>
        <time>2021-09-16T07:42:26.000Z</time>
      </trkpt>
      <trkpt lat="44.19235" lon="4.72132">
        <ele>39.933347</ele>
        <time>2021-09-16T07:42:27.000Z</time>
      </trkpt>
      <trkpt lat="44.1921" lon="4.72057">
        <ele>40.230585</ele>
        <time>2021-09-16T07:42:37.000Z</time>
      </trkpt>
      <trkpt lat="44.19197" lon="4.71993">
        <ele>40.46709</ele>
        <time>2021-09-16T07:42:45.000Z</time>
      </trkpt>
      <trkpt lat="44.19185" lon="4.71939">
        <ele>40.669866</ele>
        <time>2021-09-16T07:42:52.000Z</time>
      </trkpt>
      <trkpt lat="44.19184" lon="4.71932">
        <ele>40.696367</ele>
        <time>2021-09-16T07:42:53.000Z</time>
      </trkpt>
      <trkpt lat="44.19182" lon="4.71925">
        <ele>40.722524</ele>
        <time>2021-09-16T07:42:54.000Z</time>
      </trkpt>
      <trkpt lat="44.19178" lon="4.71911">
        <ele>40.776199</ele>
        <time>2021-09-16T07:42:56.000Z</time>
      </trkpt>
      <trkpt lat="44.19144" lon="4.71885">
        <ele>41.191771</ele>
        <time>2021-09-16T07:43:03.000Z</time>
      </trkpt>
      <trkpt lat="44.19115" lon="4.7186">
        <ele>41.552972</ele>
        <time>2021-09-16T07:43:09.000Z</time>
      </trkpt>
      <trkpt lat="44.19099" lon="4.71839">
        <ele>41.781133</ele>
        <time>2021-09-16T07:43:13.000Z</time>
      </trkpt>
      <trkpt lat="44.19093" lon="4.71831">
        <ele>41.874059</ele>
        <time>2021-09-16T07:43:15.000Z</time>
      </trkpt>
      <trkpt lat="44.19083" lon="4.71824">
        <ele>41.987907</ele>
        <time>2021-09-16T07:43:17.000Z</time>
      </trkpt>
      <trkpt lat="44.19072" lon="4.71824">
        <ele>42.110186</ele>
        <time>2021-09-16T07:43:19.000Z</time>
      </trkpt>
      <trkpt lat="44.19068" lon="4.71827">
        <ele>42.160805</ele>
        <time>2021-09-16T07:43:20.000Z</time>
      </trkpt>
      <trkpt lat="44.19031" lon="4.7186">
        <ele>42.621188</ele>
        <time>2021-09-16T07:43:28.000Z</time>
      </trkpt>
      <trkpt lat="44.19013" lon="4.71876">
        <ele>42.714266</ele>
        <time>2021-09-16T07:43:32.000Z</time>
      </trkpt>
      <trkpt lat="44.18999" lon="4.71889">
        <ele>42.740076</ele>
        <time>2021-09-16T07:43:35.000Z</time>
      </trkpt>
      <trkpt lat="44.1899" lon="4.71897">
        <ele>42.757532</ele>
        <time>2021-09-16T07:43:37.000Z</time>
      </trkpt>
      <trkpt lat="44.1898" lon="4.71906">
        <ele>42.775117</ele>
        <time>2021-09-16T07:43:39.000Z</time>
      </trkpt>
      <trkpt lat="44.18978" lon="4.71914">
        <ele>42.784599</ele>
        <time>2021-09-16T07:43:40.000Z</time>
      </trkpt>
      <trkpt lat="44.18975" lon="4.71929">
        <ele>42.801448</ele>
        <time>2021-09-16T07:43:42.000Z</time>
      </trkpt>
      <trkpt lat="44.18974" lon="4.71935">
        <ele>42.808693</ele>
        <time>2021-09-16T07:43:43.000Z</time>
      </trkpt>
      <trkpt lat="44.18972" lon="4.71941">
        <ele>42.816003</ele>
        <time>2021-09-16T07:43:44.000Z</time>
      </trkpt>
      <trkpt lat="44.1897" lon="4.71953">
        <ele>42.829984</ele>
        <time>2021-09-16T07:43:46.000Z</time>
      </trkpt>
      <trkpt lat="44.18964" lon="4.71979">
        <ele>42.859624</ele>
        <time>2021-09-16T07:43:51.000Z</time>
      </trkpt>
      <trkpt lat="44.1896" lon="4.7199">
        <ele>42.873143</ele>
        <time>2021-09-16T07:43:53.000Z</time>
      </trkpt>
      <trkpt lat="44.18957" lon="4.71996">
        <ele>42.881428</ele>
        <time>2021-09-16T07:43:54.000Z</time>
      </trkpt>
      <trkpt lat="44.18939" lon="4.72024">
        <ele>42.922948</ele>
        <time>2021-09-16T07:43:58.000Z</time>
      </trkpt>
      <trkpt lat="44.18926" lon="4.72042">
        <ele>42.951448</ele>
        <time>2021-09-16T07:44:01.000Z</time>
      </trkpt>
      <trkpt lat="44.18922" lon="4.72048">
        <ele>42.960745</ele>
        <time>2021-09-16T07:44:02.000Z</time>
      </trkpt>
      <trkpt lat="44.18912" lon="4.72061">
        <ele>42.897815</ele>
        <time>2021-09-16T07:44:04.000Z</time>
      </trkpt>
      <trkpt lat="44.18902" lon="4.72075">
        <ele>42.791144</ele>
        <time>2021-09-16T07:44:06.000Z</time>
      </trkpt>
      <trkpt lat="44.18894" lon="4.72087">
        <ele>42.693444</ele>
        <time>2021-09-16T07:44:08.000Z</time>
      </trkpt>
      <trkpt lat="44.18889" lon="4.72093">
        <ele>42.63922</ele>
        <time>2021-09-16T07:44:09.000Z</time>
      </trkpt>
      <trkpt lat="44.18871" lon="4.72118">
        <ele>42.437758</ele>
        <time>2021-09-16T07:44:13.000Z</time>
      </trkpt>
      <trkpt lat="44.18866" lon="4.72124">
        <ele>42.387816</ele>
        <time>2021-09-16T07:44:14.000Z</time>
      </trkpt>
      <trkpt lat="44.18862" lon="4.72131">
        <ele>42.333995</ele>
        <time>2021-09-16T07:44:15.000Z</time>
      </trkpt>
      <trkpt lat="44.18848" lon="4.72149">
        <ele>42.184414</ele>
        <time>2021-09-16T07:44:18.000Z</time>
      </trkpt>
      <trkpt lat="44.1884" lon="4.7216">
        <ele>42.094309</ele>
        <time>2021-09-16T07:44:20.000Z</time>
      </trkpt>
      <trkpt lat="44.18837" lon="4.72166">
        <ele>42.051802</ele>
        <time>2021-09-16T07:44:21.000Z</time>
      </trkpt>
      <trkpt lat="44.18816" lon="4.72172">
        <ele>41.881868</ele>
        <time>2021-09-16T07:44:22.000Z</time>
      </trkpt>
      <trkpt lat="44.18798" lon="4.72147">
        <ele>41.677023</ele>
        <time>2021-09-16T07:44:26.000Z</time>
      </trkpt>
      <trkpt lat="44.18794" lon="4.7214">
        <ele>41.625968</ele>
        <time>2021-09-16T07:44:27.000Z</time>
      </trkpt>
      <trkpt lat="44.18785" lon="4.72125">
        <ele>41.525264</ele>
        <time>2021-09-16T07:44:29.000Z</time>
      </trkpt>
      <trkpt lat="44.18782" lon="4.72118">
        <ele>41.505822</ele>
        <time>2021-09-16T07:44:30.000Z</time>
      </trkpt>
      <trkpt lat="44.18776" lon="4.72074">
        <ele>41.402331</ele>
        <time>2021-09-16T07:44:35.000Z</time>
      </trkpt>
      <trkpt lat="44.18772" lon="4.72032">
        <ele>41.304477</ele>
        <time>2021-09-16T07:44:40.000Z</time>
      </trkpt>
      <trkpt lat="44.18771" lon="4.72024">
        <ele>41.285536</ele>
        <time>2021-09-16T07:44:41.000Z</time>
      </trkpt>
      <trkpt lat="44.18769" lon="4.72009">
        <ele>41.251288</ele>
        <time>2021-09-16T07:44:43.000Z</time>
      </trkpt>
      <trkpt lat="44.18766" lon="4.71994">
        <ele>41.214259</ele>
        <time>2021-09-16T07:44:45.000Z</time>
      </trkpt>
      <trkpt lat="44.18764" lon="4.7198">
        <ele>41.182405</ele>
        <time>2021-09-16T07:44:47.000Z</time>
      </trkpt>
      <trkpt lat="44.18763" lon="4.71972">
        <ele>41.164489</ele>
        <time>2021-09-16T07:44:48.000Z</time>
      </trkpt>
      <trkpt lat="44.18756" lon="4.71923">
        <ele>41.048843</ele>
        <time>2021-09-16T07:44:53.000Z</time>
      </trkpt>
      <trkpt lat="44.18748" lon="4.71871">
        <ele>40.949597</ele>
        <time>2021-09-16T07:44:59.000Z</time>
      </trkpt>
      <trkpt lat="44.18743" lon="4.71838">
        <ele>40.940342</ele>
        <time>2021-09-16T07:45:03.000Z</time>
      </trkpt>
      <trkpt lat="44.1874" lon="4.71814">
        <ele>40.933828</ele>
        <time>2021-09-16T07:45:05.000Z</time>
      </trkpt>
      <trkpt lat="44.18731" lon="4.71747">
        <ele>40.915717</ele>
        <time>2021-09-16T07:45:13.000Z</time>
      </trkpt>
      <trkpt lat="44.18721" lon="4.71674">
        <ele>40.895689</ele>
        <time>2021-09-16T07:45:22.000Z</time>
      </trkpt>
      <trkpt lat="44.18713" lon="4.71618">
        <ele>40.870755</ele>
        <time>2021-09-16T07:45:29.000Z</time>
      </trkpt>
      <trkpt lat="44.18711" lon="4.71603">
        <ele>40.859003</ele>
        <time>2021-09-16T07:45:31.000Z</time>
      </trkpt>
      <trkpt lat="44.18708" lon="4.71575">
        <ele>40.836394</ele>
        <time>2021-09-16T07:45:35.000Z</time>
      </trkpt>
      <trkpt lat="44.18702" lon="4.71531">
        <ele>40.80106</ele>
        <time>2021-09-16T07:45:41.000Z</time>
      </trkpt>
      <trkpt lat="44.187" lon="4.71524">
        <ele>40.795215</ele>
        <time>2021-09-16T07:45:42.000Z</time>
      </trkpt>
      <trkpt lat="44.18698" lon="4.71509">
        <ele>40.78245</ele>
        <time>2021-09-16T07:45:44.000Z</time>
      </trkpt>
      <trkpt lat="44.18696" lon="4.715">
        <ele>40.775709</ele>
        <time>2021-09-16T07:45:45.000Z</time>
      </trkpt>
      <trkpt lat="44.18695" lon="4.71492">
        <ele>40.769044</ele>
        <time>2021-09-16T07:45:46.000Z</time>
      </trkpt>
      <trkpt lat="44.18692" lon="4.71475">
        <ele>40.7553</ele>
        <time>2021-09-16T07:45:48.000Z</time>
      </trkpt>
      <trkpt lat="44.18688" lon="4.71452">
        <ele>40.736788</ele>
        <time>2021-09-16T07:45:51.000Z</time>
      </trkpt>
      <trkpt lat="44.18687" lon="4.71446">
        <ele>40.731609</ele>
        <time>2021-09-16T07:45:53.000Z</time>
      </trkpt>
      <trkpt lat="44.18685" lon="4.71431">
        <ele>40.719758</ele>
        <time>2021-09-16T07:45:54.000Z</time>
      </trkpt>
      <trkpt lat="44.18682" lon="4.71409">
        <ele>40.701467</ele>
        <time>2021-09-16T07:45:57.000Z</time>
      </trkpt>
      <trkpt lat="44.18682" lon="4.71408">
        <ele>40.701387</ele>
        <time>2021-09-16T07:45:58.000Z</time>
      </trkpt>
      <trkpt lat="44.18675" lon="4.71388">
        <ele>40.679687</ele>
        <time>2021-09-16T07:46:00.000Z</time>
      </trkpt>
      <trkpt lat="44.18667" lon="4.71393">
        <ele>40.659759</ele>
        <time>2021-09-16T07:46:02.000Z</time>
      </trkpt>
      <trkpt lat="44.18652" lon="4.71402">
        <ele>40.624048</ele>
        <time>2021-09-16T07:46:04.000Z</time>
      </trkpt>
      <trkpt lat="44.18632" lon="4.71413">
        <ele>40.576297</ele>
        <time>2021-09-16T07:46:08.000Z</time>
      </trkpt>
      <trkpt lat="44.18621" lon="4.71419">
        <ele>40.550196</ele>
        <time>2021-09-16T07:46:10.000Z</time>
      </trkpt>
      <trkpt lat="44.18604" lon="4.71429">
        <ele>40.508939</ele>
        <time>2021-09-16T07:46:13.000Z</time>
      </trkpt>
      <trkpt lat="44.18558" lon="4.71455">
        <ele>40.396262</ele>
        <time>2021-09-16T07:46:21.000Z</time>
      </trkpt>
      <trkpt lat="44.18522" lon="4.71476">
        <ele>40.309894</ele>
        <time>2021-09-16T07:46:27.000Z</time>
      </trkpt>
      <trkpt lat="44.18506" lon="4.71485">
        <ele>40.300326</ele>
        <time>2021-09-16T07:46:30.000Z</time>
      </trkpt>
      <trkpt lat="44.1849" lon="4.71494">
        <ele>40.341759</ele>
        <time>2021-09-16T07:46:33.000Z</time>
      </trkpt>
      <trkpt lat="44.18471" lon="4.71505">
        <ele>40.393477</ele>
        <time>2021-09-16T07:46:36.000Z</time>
      </trkpt>
      <trkpt lat="44.18464" lon="4.71508">
        <ele>40.410415</ele>
        <time>2021-09-16T07:46:37.000Z</time>
      </trkpt>
      <trkpt lat="44.18433" lon="4.71526">
        <ele>40.492469</ele>
        <time>2021-09-16T07:46:42.000Z</time>
      </trkpt>
      <trkpt lat="44.18409" lon="4.71541">
        <ele>40.557214</ele>
        <time>2021-09-16T07:46:46.000Z</time>
      </trkpt>
      <trkpt lat="44.18385" lon="4.71557">
        <ele>40.622466</ele>
        <time>2021-09-16T07:46:50.000Z</time>
      </trkpt>
      <trkpt lat="44.18349" lon="4.71575">
        <ele>40.715805</ele>
        <time>2021-09-16T07:46:56.000Z</time>
      </trkpt>
      <trkpt lat="44.18345" lon="4.71578">
        <ele>40.726708</ele>
        <time>2021-09-16T07:46:57.000Z</time>
      </trkpt>
      <trkpt lat="44.18327" lon="4.71589">
        <ele>40.771193</ele>
        <time>2021-09-16T07:47:00.000Z</time>
      </trkpt>
      <trkpt lat="44.18296" lon="4.71609">
        <ele>40.850016</ele>
        <time>2021-09-16T07:47:05.000Z</time>
      </trkpt>
      <trkpt lat="44.18264" lon="4.71637">
        <ele>40.936711</ele>
        <time>2021-09-16T07:47:11.000Z</time>
      </trkpt>
      <trkpt lat="44.18237" lon="4.7166">
        <ele>41.009661</ele>
        <time>2021-09-16T07:47:16.000Z</time>
      </trkpt>
      <trkpt lat="44.18205" lon="4.71687">
        <ele>41.095965</ele>
        <time>2021-09-16T07:47:22.000Z</time>
      </trkpt>
      <trkpt lat="44.18185" lon="4.71705">
        <ele>41.122749</ele>
        <time>2021-09-16T07:47:26.000Z</time>
      </trkpt>
      <trkpt lat="44.18149" lon="4.71728">
        <ele>41.009328</ele>
        <time>2021-09-16T07:47:32.000Z</time>
      </trkpt>
      <trkpt lat="44.18123" lon="4.71755">
        <ele>40.915013</ele>
        <time>2021-09-16T07:47:37.000Z</time>
      </trkpt>
      <trkpt lat="44.18096" lon="4.71776">
        <ele>40.82766</ele>
        <time>2021-09-16T07:47:42.000Z</time>
      </trkpt>
      <trkpt lat="44.18068" lon="4.71798">
        <ele>40.733657</ele>
        <time>2021-09-16T07:47:47.000Z</time>
      </trkpt>
      <trkpt lat="44.18038" lon="4.71822">
        <ele>40.635121</ele>
        <time>2021-09-16T07:47:52.000Z</time>
      </trkpt>
      <trkpt lat="44.18028" lon="4.7183">
        <ele>40.638436</ele>
        <time>2021-09-16T07:47:54.000Z</time>
      </trkpt>
      <trkpt lat="44.18015" lon="4.71839">
        <ele>40.676145</ele>
        <time>2021-09-16T07:47:56.000Z</time>
      </trkpt>
      <trkpt lat="44.17973" lon="4.71872">
        <ele>40.806966</ele>
        <time>2021-09-16T07:48:03.000Z</time>
      </trkpt>
      <trkpt lat="44.17957" lon="4.71884">
        <ele>40.857082</ele>
        <time>2021-09-16T07:48:06.000Z</time>
      </trkpt>
      <trkpt lat="44.17953" lon="4.71887">
        <ele>40.870799</ele>
        <time>2021-09-16T07:48:07.000Z</time>
      </trkpt>
      <trkpt lat="44.17943" lon="4.71894">
        <ele>40.900943</ele>
        <time>2021-09-16T07:48:09.000Z</time>
      </trkpt>
      <trkpt lat="44.17938" lon="4.71898">
        <ele>40.916224</ele>
        <time>2021-09-16T07:48:10.000Z</time>
      </trkpt>
      <trkpt lat="44.17921" lon="4.71904">
        <ele>40.961549</ele>
        <time>2021-09-16T07:48:13.000Z</time>
      </trkpt>
      <trkpt lat="44.17917" lon="4.71907">
        <ele>40.975266</ele>
        <time>2021-09-16T07:48:14.000Z</time>
      </trkpt>
      <trkpt lat="44.17905" lon="4.71914">
        <ele>41.009499</ele>
        <time>2021-09-16T07:48:16.000Z</time>
      </trkpt>
      <trkpt lat="44.17893" lon="4.71921">
        <ele>41.04538</ele>
        <time>2021-09-16T07:48:18.000Z</time>
      </trkpt>
      <trkpt lat="44.17864" lon="4.71945">
        <ele>41.275407</ele>
        <time>2021-09-16T07:48:23.000Z</time>
      </trkpt>
      <trkpt lat="44.17841" lon="4.71958">
        <ele>41.654762</ele>
        <time>2021-09-16T07:48:27.000Z</time>
      </trkpt>
      <trkpt lat="44.17835" lon="4.71961">
        <ele>41.746268</ele>
        <time>2021-09-16T07:48:28.000Z</time>
      </trkpt>
      <trkpt lat="44.1783" lon="4.71964">
        <ele>41.830287</ele>
        <time>2021-09-16T07:48:29.000Z</time>
      </trkpt>
      <trkpt lat="44.17817" lon="4.71972">
        <ele>42.050845</ele>
        <time>2021-09-16T07:48:31.000Z</time>
      </trkpt>
      <trkpt lat="44.17782" lon="4.71994">
        <ele>42.645658</ele>
        <time>2021-09-16T07:48:37.000Z</time>
      </trkpt>
      <trkpt lat="44.1776" lon="4.72007">
        <ele>43.012967</ele>
        <time>2021-09-16T07:48:41.000Z</time>
      </trkpt>
      <trkpt lat="44.17756" lon="4.72009">
        <ele>43.075168</ele>
        <time>2021-09-16T07:48:42.000Z</time>
      </trkpt>
      <trkpt lat="44.1774" lon="4.72015">
        <ele>43.328459</ele>
        <time>2021-09-16T07:48:45.000Z</time>
      </trkpt>
      <trkpt lat="44.17709" lon="4.72032">
        <ele>43.838302</ele>
        <time>2021-09-16T07:48:50.000Z</time>
      </trkpt>
      <trkpt lat="44.17668" lon="4.72049">
        <ele>44.398933</ele>
        <time>2021-09-16T07:48:56.000Z</time>
      </trkpt>
      <trkpt lat="44.17645" lon="4.72058">
        <ele>44.706247</ele>
        <time>2021-09-16T07:49:00.000Z</time>
      </trkpt>
      <trkpt lat="44.17616" lon="4.72071">
        <ele>45.101226</ele>
        <time>2021-09-16T07:49:05.000Z</time>
      </trkpt>
      <trkpt lat="44.17602" lon="4.72076">
        <ele>45.288763</ele>
        <time>2021-09-16T07:49:08.000Z</time>
      </trkpt>
      <trkpt lat="44.1759" lon="4.72081">
        <ele>45.450646</ele>
        <time>2021-09-16T07:49:10.000Z</time>
      </trkpt>
      <trkpt lat="44.17576" lon="4.72087">
        <ele>45.642164</ele>
        <time>2021-09-16T07:49:12.000Z</time>
      </trkpt>
      <trkpt lat="44.17564" lon="4.72092">
        <ele>45.805287</ele>
        <time>2021-09-16T07:49:14.000Z</time>
      </trkpt>
      <trkpt lat="44.17559" lon="4.72094">
        <ele>45.867298</ele>
        <time>2021-09-16T07:49:15.000Z</time>
      </trkpt>
      <trkpt lat="44.17539" lon="4.72098">
        <ele>46.131918</ele>
        <time>2021-09-16T07:49:18.000Z</time>
      </trkpt>
      <trkpt lat="44.17523" lon="4.72104">
        <ele>46.210717</ele>
        <time>2021-09-16T07:49:21.000Z</time>
      </trkpt>
      <trkpt lat="44.17511" lon="4.72112">
        <ele>46.230245</ele>
        <time>2021-09-16T07:49:23.000Z</time>
      </trkpt>
      <trkpt lat="44.17506" lon="4.72113">
        <ele>46.23829</ele>
        <time>2021-09-16T07:49:24.000Z</time>
      </trkpt>
      <trkpt lat="44.17493" lon="4.72117">
        <ele>46.256835</ele>
        <time>2021-09-16T07:49:26.000Z</time>
      </trkpt>
      <trkpt lat="44.17465" lon="4.72124">
        <ele>46.297424</ele>
        <time>2021-09-16T07:49:31.000Z</time>
      </trkpt>
      <trkpt lat="44.17433" lon="4.72132">
        <ele>46.34445</ele>
        <time>2021-09-16T07:49:36.000Z</time>
      </trkpt>
      <trkpt lat="44.17409" lon="4.72139">
        <ele>46.379648</ele>
        <time>2021-09-16T07:49:40.000Z</time>
      </trkpt>
      <trkpt lat="44.17376" lon="4.72147">
        <ele>46.426956</ele>
        <time>2021-09-16T07:49:45.000Z</time>
      </trkpt>
      <trkpt lat="44.17356" lon="4.72152">
        <ele>46.433823</ele>
        <time>2021-09-16T07:49:49.000Z</time>
      </trkpt>
      <trkpt lat="44.17323" lon="4.72153">
        <ele>46.183562</ele>
        <time>2021-09-16T07:49:54.000Z</time>
      </trkpt>
      <trkpt lat="44.17301" lon="4.72161">
        <ele>46.006725</ele>
        <time>2021-09-16T07:49:58.000Z</time>
      </trkpt>
      <trkpt lat="44.1727" lon="4.72165">
        <ele>45.769092</ele>
        <time>2021-09-16T07:50:03.000Z</time>
      </trkpt>
      <trkpt lat="44.17233" lon="4.7217">
        <ele>45.489269</ele>
        <time>2021-09-16T07:50:08.000Z</time>
      </trkpt>
      <trkpt lat="44.17204" lon="4.72173">
        <ele>45.268202</ele>
        <time>2021-09-16T07:50:12.000Z</time>
      </trkpt>
      <trkpt lat="44.17197" lon="4.72174">
        <ele>45.212409</ele>
        <time>2021-09-16T07:50:13.000Z</time>
      </trkpt>
      <trkpt lat="44.17154" lon="4.72177">
        <ele>44.772315</ele>
        <time>2021-09-16T07:50:19.000Z</time>
      </trkpt>
      <trkpt lat="44.171" lon="4.72179">
        <ele>44.110659</ele>
        <time>2021-09-16T07:50:27.000Z</time>
      </trkpt>
      <trkpt lat="44.17086" lon="4.72179">
        <ele>43.944974</ele>
        <time>2021-09-16T07:50:29.000Z</time>
      </trkpt>
      <trkpt lat="44.17079" lon="4.72179">
        <ele>43.859118</ele>
        <time>2021-09-16T07:50:30.000Z</time>
      </trkpt>
      <trkpt lat="44.17058" lon="4.72178">
        <ele>43.611103</ele>
        <time>2021-09-16T07:50:33.000Z</time>
      </trkpt>
      <trkpt lat="44.17052" lon="4.72178">
        <ele>43.528834</ele>
        <time>2021-09-16T07:50:34.000Z</time>
      </trkpt>
      <trkpt lat="44.17004" lon="4.72176">
        <ele>42.950476</ele>
        <time>2021-09-16T07:50:41.000Z</time>
      </trkpt>
      <trkpt lat="44.16949" lon="4.72172">
        <ele>42.432569</ele>
        <time>2021-09-16T07:50:49.000Z</time>
      </trkpt>
      <trkpt lat="44.169" lon="4.72166">
        <ele>41.983784</ele>
        <time>2021-09-16T07:50:56.000Z</time>
      </trkpt>
      <trkpt lat="44.16844" lon="4.72158">
        <ele>41.468803</ele>
        <time>2021-09-16T07:51:04.000Z</time>
      </trkpt>
      <trkpt lat="44.16789" lon="4.72151">
        <ele>41.069109</ele>
        <time>2021-09-16T07:51:12.000Z</time>
      </trkpt>
      <trkpt lat="44.16776" lon="4.7215">
        <ele>40.987418</ele>
        <time>2021-09-16T07:51:14.000Z</time>
      </trkpt>
      <trkpt lat="44.16721" lon="4.72143">
        <ele>40.657557</ele>
        <time>2021-09-16T07:51:22.000Z</time>
      </trkpt>
      <trkpt lat="44.16661" lon="4.72135">
        <ele>40.29946</ele>
        <time>2021-09-16T07:51:31.000Z</time>
      </trkpt>
      <trkpt lat="44.16655" lon="4.72134">
        <ele>40.259825</ele>
        <time>2021-09-16T07:51:32.000Z</time>
      </trkpt>
      <trkpt lat="44.16595" lon="4.72126">
        <ele>39.914443</ele>
        <time>2021-09-16T07:51:41.000Z</time>
      </trkpt>
      <trkpt lat="44.16589" lon="4.72126">
        <ele>39.875744</ele>
        <time>2021-09-16T07:51:42.000Z</time>
      </trkpt>
      <trkpt lat="44.16537" lon="4.72119">
        <ele>39.574936</ele>
        <time>2021-09-16T07:51:50.000Z</time>
      </trkpt>
      <trkpt lat="44.16477" lon="4.72111">
        <ele>39.232567</ele>
        <time>2021-09-16T07:51:59.000Z</time>
      </trkpt>
      <trkpt lat="44.16471" lon="4.7211">
        <ele>39.195013</ele>
        <time>2021-09-16T07:52:00.000Z</time>
      </trkpt>
      <trkpt lat="44.16424" lon="4.72104">
        <ele>38.929623</ele>
        <time>2021-09-16T07:52:07.000Z</time>
      </trkpt>
      <trkpt lat="44.16373" lon="4.72098">
        <ele>38.634292</ele>
        <time>2021-09-16T07:52:15.000Z</time>
      </trkpt>
      <trkpt lat="44.16332" lon="4.72093">
        <ele>38.401878</ele>
        <time>2021-09-16T07:52:22.000Z</time>
      </trkpt>
      <trkpt lat="44.16322" lon="4.72091">
        <ele>38.340625</ele>
        <time>2021-09-16T07:52:24.000Z</time>
      </trkpt>
      <trkpt lat="44.16316" lon="4.72091">
        <ele>38.310886</ele>
        <time>2021-09-16T07:52:25.000Z</time>
      </trkpt>
      <trkpt lat="44.16291" lon="4.72087">
        <ele>38.167799</ele>
        <time>2021-09-16T07:52:29.000Z</time>
      </trkpt>
      <trkpt lat="44.16235" lon="4.72082">
        <ele>38.160156</ele>
        <time>2021-09-16T07:52:38.000Z</time>
      </trkpt>
      <trkpt lat="44.16229" lon="4.72082">
        <ele>38.164662</ele>
        <time>2021-09-16T07:52:39.000Z</time>
      </trkpt>
      <trkpt lat="44.16169" lon="4.72078">
        <ele>38.209414</ele>
        <time>2021-09-16T07:52:49.000Z</time>
      </trkpt>
      <trkpt lat="44.16127" lon="4.72077">
        <ele>38.241404</ele>
        <time>2021-09-16T07:52:56.000Z</time>
      </trkpt>
      <trkpt lat="44.1609" lon="4.72077">
        <ele>38.292895</ele>
        <time>2021-09-16T07:53:02.000Z</time>
      </trkpt>
      <trkpt lat="44.16078" lon="4.72077">
        <ele>38.322033</ele>
        <time>2021-09-16T07:53:04.000Z</time>
      </trkpt>
      <trkpt lat="44.16055" lon="4.72077">
        <ele>38.379811</ele>
        <time>2021-09-16T07:53:08.000Z</time>
      </trkpt>
      <trkpt lat="44.16044" lon="4.7208">
        <ele>38.408248</ele>
        <time>2021-09-16T07:53:10.000Z</time>
      </trkpt>
      <trkpt lat="44.16035" lon="4.72069">
        <ele>38.436891</ele>
        <time>2021-09-16T07:53:12.000Z</time>
      </trkpt>
      <trkpt lat="44.15995" lon="4.72069">
        <ele>38.53651</ele>
        <time>2021-09-16T07:53:19.000Z</time>
      </trkpt>
      <trkpt lat="44.15939" lon="4.72072">
        <ele>38.676775</ele>
        <time>2021-09-16T07:53:28.000Z</time>
      </trkpt>
      <trkpt lat="44.15889" lon="4.72078">
        <ele>38.722918</ele>
        <time>2021-09-16T07:53:36.000Z</time>
      </trkpt>
      <trkpt lat="44.15837" lon="4.72085">
        <ele>38.744956</ele>
        <time>2021-09-16T07:53:44.000Z</time>
      </trkpt>
      <trkpt lat="44.1579" lon="4.72091">
        <ele>38.764924</ele>
        <time>2021-09-16T07:53:51.000Z</time>
      </trkpt>
      <trkpt lat="44.15737" lon="4.72098">
        <ele>38.880047</ele>
        <time>2021-09-16T07:53:59.000Z</time>
      </trkpt>
      <trkpt lat="44.15717" lon="4.72101">
        <ele>39.044148</ele>
        <time>2021-09-16T07:54:02.000Z</time>
      </trkpt>
      <trkpt lat="44.15704" lon="4.721">
        <ele>39.155913</ele>
        <time>2021-09-16T07:54:04.000Z</time>
      </trkpt>
      <trkpt lat="44.15695" lon="4.72088">
        <ele>39.257276</ele>
        <time>2021-09-16T07:54:06.000Z</time>
      </trkpt>
      <trkpt lat="44.15693" lon="4.72065">
        <ele>39.398191</ele>
        <time>2021-09-16T07:54:09.000Z</time>
      </trkpt>
      <trkpt lat="44.15694" lon="4.72059">
        <ele>39.436774</ele>
        <time>2021-09-16T07:54:10.000Z</time>
      </trkpt>
      <trkpt lat="44.15695" lon="4.72053">
        <ele>39.473026</ele>
        <time>2021-09-16T07:54:11.000Z</time>
      </trkpt>
      <trkpt lat="44.15705" lon="4.72035">
        <ele>39.608909</ele>
        <time>2021-09-16T07:54:15.000Z</time>
      </trkpt>
      <trkpt lat="44.15726" lon="4.72019">
        <ele>39.80401</ele>
        <time>2021-09-16T07:54:23.000Z</time>
      </trkpt>
      <trkpt lat="44.1573" lon="4.72015">
        <ele>39.848799</ele>
        <time>2021-09-16T07:54:25.000Z</time>
      </trkpt>
      <trkpt lat="44.15732" lon="4.72008">
        <ele>39.894115</ele>
        <time>2021-09-16T07:54:27.000Z</time>
      </trkpt>
      <trkpt lat="44.15726" lon="4.72002">
        <ele>39.960788</ele>
        <time>2021-09-16T07:54:30.000Z</time>
      </trkpt>
      <trkpt lat="44.15702" lon="4.72007">
        <ele>40.161579</ele>
        <time>2021-09-16T07:54:36.000Z</time>
      </trkpt>
      <trkpt lat="44.15668" lon="4.72014">
        <ele>40.427795</ele>
        <time>2021-09-16T07:54:43.000Z</time>
      </trkpt>
      <trkpt lat="44.1563" lon="4.72023">
        <ele>40.718195</ele>
        <time>2021-09-16T07:54:50.000Z</time>
      </trkpt>
      <trkpt lat="44.15619" lon="4.72025">
        <ele>40.803482</ele>
        <time>2021-09-16T07:54:52.000Z</time>
      </trkpt>
      <trkpt lat="44.15607" lon="4.7203">
        <ele>40.896844</ele>
        <time>2021-09-16T07:54:54.000Z</time>
      </trkpt>
      <trkpt lat="44.15602" lon="4.72037">
        <ele>40.945927</ele>
        <time>2021-09-16T07:54:55.000Z</time>
      </trkpt>
      <trkpt lat="44.15553" lon="4.7205">
        <ele>41.318374</ele>
        <time>2021-09-16T07:55:03.000Z</time>
      </trkpt>
      <trkpt lat="44.15509" lon="4.72063">
        <ele>41.634514</ele>
        <time>2021-09-16T07:55:10.000Z</time>
      </trkpt>
      <trkpt lat="44.15457" lon="4.72078">
        <ele>41.778544</ele>
        <time>2021-09-16T07:55:18.000Z</time>
      </trkpt>
      <trkpt lat="44.15404" lon="4.72095">
        <ele>41.925876</ele>
        <time>2021-09-16T07:55:26.000Z</time>
      </trkpt>
      <trkpt lat="44.15344" lon="4.72113">
        <ele>42.092922</ele>
        <time>2021-09-16T07:55:34.000Z</time>
      </trkpt>
      <trkpt lat="44.15337" lon="4.72115">
        <ele>42.111071</ele>
        <time>2021-09-16T07:55:36.000Z</time>
      </trkpt>
      <trkpt lat="44.15283" lon="4.72132">
        <ele>42.203372</ele>
        <time>2021-09-16T07:55:44.000Z</time>
      </trkpt>
      <trkpt lat="44.15229" lon="4.72148">
        <ele>42.295319</ele>
        <time>2021-09-16T07:55:52.000Z</time>
      </trkpt>
      <trkpt lat="44.15174" lon="4.72165">
        <ele>42.390336</ele>
        <time>2021-09-16T07:56:00.000Z</time>
      </trkpt>
      <trkpt lat="44.15167" lon="4.72167">
        <ele>42.402203</ele>
        <time>2021-09-16T07:56:01.000Z</time>
      </trkpt>
      <trkpt lat="44.15112" lon="4.72185">
        <ele>42.53531</ele>
        <time>2021-09-16T07:56:09.000Z</time>
      </trkpt>
      <trkpt lat="44.15059" lon="4.72202">
        <ele>42.668801</ele>
        <time>2021-09-16T07:56:17.000Z</time>
      </trkpt>
      <trkpt lat="44.15052" lon="4.72204">
        <ele>42.684838</ele>
        <time>2021-09-16T07:56:18.000Z</time>
      </trkpt>
      <trkpt lat="44.15035" lon="4.72203">
        <ele>42.728292</ele>
        <time>2021-09-16T07:56:21.000Z</time>
      </trkpt>
      <trkpt lat="44.15021" lon="4.72202">
        <ele>42.762517</ele>
        <time>2021-09-16T07:56:24.000Z</time>
      </trkpt>
      <trkpt lat="44.15017" lon="4.72203">
        <ele>42.772061</ele>
        <time>2021-09-16T07:56:25.000Z</time>
      </trkpt>
      <trkpt lat="44.1499" lon="4.72212">
        <ele>42.838193</ele>
        <time>2021-09-16T07:56:29.000Z</time>
      </trkpt>
      <trkpt lat="44.14955" lon="4.72228">
        <ele>42.800732</ele>
        <time>2021-09-16T07:56:34.000Z</time>
      </trkpt>
      <trkpt lat="44.14925" lon="4.72239">
        <ele>42.754486</ele>
        <time>2021-09-16T07:56:39.000Z</time>
      </trkpt>
      <trkpt lat="44.14872" lon="4.72254">
        <ele>42.673357</ele>
        <time>2021-09-16T07:56:46.000Z</time>
      </trkpt>
      <trkpt lat="44.14864" lon="4.72256">
        <ele>42.662058</ele>
        <time>2021-09-16T07:56:47.000Z</time>
      </trkpt>
      <trkpt lat="44.14804" lon="4.72272">
        <ele>42.573428</ele>
        <time>2021-09-16T07:56:54.000Z</time>
      </trkpt>
      <trkpt lat="44.14744" lon="4.72285">
        <ele>42.510194</ele>
        <time>2021-09-16T07:57:02.000Z</time>
      </trkpt>
      <trkpt lat="44.14729" lon="4.72287">
        <ele>42.494435</ele>
        <time>2021-09-16T07:57:04.000Z</time>
      </trkpt>
      <trkpt lat="44.14671" lon="4.72294">
        <ele>42.433841</ele>
        <time>2021-09-16T07:57:12.000Z</time>
      </trkpt>
      <trkpt lat="44.14614" lon="4.72299">
        <ele>42.369328</ele>
        <time>2021-09-16T07:57:20.000Z</time>
      </trkpt>
      <trkpt lat="44.14599" lon="4.723">
        <ele>42.350574</ele>
        <time>2021-09-16T07:57:22.000Z</time>
      </trkpt>
      <trkpt lat="44.14542" lon="4.72305">
        <ele>42.274894</ele>
        <time>2021-09-16T07:57:30.000Z</time>
      </trkpt>
      <trkpt lat="44.14527" lon="4.72306">
        <ele>42.255879</ele>
        <time>2021-09-16T07:57:32.000Z</time>
      </trkpt>
      <trkpt lat="44.14471" lon="4.72309">
        <ele>42.181871</ele>
        <time>2021-09-16T07:57:40.000Z</time>
      </trkpt>
      <trkpt lat="44.14464" lon="4.72309">
        <ele>42.172838</ele>
        <time>2021-09-16T07:57:41.000Z</time>
      </trkpt>
      <trkpt lat="44.14407" lon="4.7231">
        <ele>42.159415</ele>
        <time>2021-09-16T07:57:49.000Z</time>
      </trkpt>
      <trkpt lat="44.14393" lon="4.7231">
        <ele>42.159816</ele>
        <time>2021-09-16T07:57:51.000Z</time>
      </trkpt>
      <trkpt lat="44.14337" lon="4.72307">
        <ele>42.161439</ele>
        <time>2021-09-16T07:57:59.000Z</time>
      </trkpt>
      <trkpt lat="44.14329" lon="4.72306">
        <ele>42.161645</ele>
        <time>2021-09-16T07:58:00.000Z</time>
      </trkpt>
      <trkpt lat="44.14273" lon="4.72301">
        <ele>42.16327</ele>
        <time>2021-09-16T07:58:08.000Z</time>
      </trkpt>
      <trkpt lat="44.14266" lon="4.723">
        <ele>42.149345</ele>
        <time>2021-09-16T07:58:09.000Z</time>
      </trkpt>
      <trkpt lat="44.14209" lon="4.72292">
        <ele>42.039166</ele>
        <time>2021-09-16T07:58:17.000Z</time>
      </trkpt>
      <trkpt lat="44.14202" lon="4.72291">
        <ele>42.025416</ele>
        <time>2021-09-16T07:58:18.000Z</time>
      </trkpt>
      <trkpt lat="44.14153" lon="4.72281">
        <ele>41.931057</ele>
        <time>2021-09-16T07:58:25.000Z</time>
      </trkpt>
      <trkpt lat="44.14099" lon="4.72267">
        <ele>41.824282</ele>
        <time>2021-09-16T07:58:33.000Z</time>
      </trkpt>
      <trkpt lat="44.14085" lon="4.72264">
        <ele>41.796172</ele>
        <time>2021-09-16T07:58:35.000Z</time>
      </trkpt>
      <trkpt lat="44.14032" lon="4.72248">
        <ele>41.684783</ele>
        <time>2021-09-16T07:58:43.000Z</time>
      </trkpt>
      <trkpt lat="44.14025" lon="4.72246">
        <ele>41.670444</ele>
        <time>2021-09-16T07:58:44.000Z</time>
      </trkpt>
      <trkpt lat="44.13972" lon="4.72228">
        <ele>41.558627</ele>
        <time>2021-09-16T07:58:52.000Z</time>
      </trkpt>
      <trkpt lat="44.13959" lon="4.72223">
        <ele>41.530749</ele>
        <time>2021-09-16T07:58:54.000Z</time>
      </trkpt>
      <trkpt lat="44.13906" lon="4.722">
        <ele>41.434372</ele>
        <time>2021-09-16T07:59:02.000Z</time>
      </trkpt>
      <trkpt lat="44.139" lon="4.72197">
        <ele>41.428396</ele>
        <time>2021-09-16T07:59:03.000Z</time>
      </trkpt>
      <trkpt lat="44.13849" lon="4.72175">
        <ele>41.381404</ele>
        <time>2021-09-16T07:59:11.000Z</time>
      </trkpt>
      <trkpt lat="44.13798" lon="4.72149">
        <ele>41.333932</ele>
        <time>2021-09-16T07:59:19.000Z</time>
      </trkpt>
      <trkpt lat="44.13785" lon="4.72142">
        <ele>41.321937</ele>
        <time>2021-09-16T07:59:21.000Z</time>
      </trkpt>
      <trkpt lat="44.13733" lon="4.72115">
        <ele>41.262569</ele>
        <time>2021-09-16T07:59:29.000Z</time>
      </trkpt>
      <trkpt lat="44.13683" lon="4.72086">
        <ele>41.182989</ele>
        <time>2021-09-16T07:59:37.000Z</time>
      </trkpt>
      <trkpt lat="44.1367" lon="4.72079">
        <ele>41.163355</ele>
        <time>2021-09-16T07:59:39.000Z</time>
      </trkpt>
      <trkpt lat="44.1362" lon="4.7205">
        <ele>41.083713</ele>
        <time>2021-09-16T07:59:47.000Z</time>
      </trkpt>
      <trkpt lat="44.13614" lon="4.72047">
        <ele>41.073876</ele>
        <time>2021-09-16T07:59:48.000Z</time>
      </trkpt>
      <trkpt lat="44.13559" lon="4.72015">
        <ele>40.99483</ele>
        <time>2021-09-16T07:59:57.000Z</time>
      </trkpt>
      <trkpt lat="44.13503" lon="4.71984">
        <ele>40.926085</ele>
        <time>2021-09-16T08:00:06.000Z</time>
      </trkpt>
      <trkpt lat="44.13491" lon="4.71976">
        <ele>40.910372</ele>
        <time>2021-09-16T08:00:08.000Z</time>
      </trkpt>
      <trkpt lat="44.1344" lon="4.71948">
        <ele>40.847385</ele>
        <time>2021-09-16T08:00:16.000Z</time>
      </trkpt>
      <trkpt lat="44.13428" lon="4.71941">
        <ele>40.832408</ele>
        <time>2021-09-16T08:00:18.000Z</time>
      </trkpt>
      <trkpt lat="44.13379" lon="4.71912">
        <ele>40.733777</ele>
        <time>2021-09-16T08:00:26.000Z</time>
      </trkpt>
      <trkpt lat="44.13328" lon="4.71883">
        <ele>40.621676</ele>
        <time>2021-09-16T08:00:34.000Z</time>
      </trkpt>
      <trkpt lat="44.13315" lon="4.71876">
        <ele>40.594245</ele>
        <time>2021-09-16T08:00:36.000Z</time>
      </trkpt>
      <trkpt lat="44.13266" lon="4.71847">
        <ele>40.484862</ele>
        <time>2021-09-16T08:00:44.000Z</time>
      </trkpt>
      <trkpt lat="44.13217" lon="4.71819">
        <ele>40.429843</ele>
        <time>2021-09-16T08:00:52.000Z</time>
      </trkpt>
      <trkpt lat="44.13166" lon="4.71789">
        <ele>40.39411</ele>
        <time>2021-09-16T08:01:01.000Z</time>
      </trkpt>
      <trkpt lat="44.1316" lon="4.71785">
        <ele>40.390077</ele>
        <time>2021-09-16T08:01:02.000Z</time>
      </trkpt>
      <trkpt lat="44.1311" lon="4.71756">
        <ele>40.354847</ele>
        <time>2021-09-16T08:01:11.000Z</time>
      </trkpt>
      <trkpt lat="44.13057" lon="4.71726">
        <ele>40.326223</ele>
        <time>2021-09-16T08:01:20.000Z</time>
      </trkpt>
      <trkpt lat="44.13016" lon="4.71702">
        <ele>40.308763</ele>
        <time>2021-09-16T08:01:27.000Z</time>
      </trkpt>
      <trkpt lat="44.12973" lon="4.71681">
        <ele>40.291067</ele>
        <time>2021-09-16T08:01:34.000Z</time>
      </trkpt>
      <trkpt lat="44.12917" lon="4.71661">
        <ele>40.268357</ele>
        <time>2021-09-16T08:01:43.000Z</time>
      </trkpt>
      <trkpt lat="44.12911" lon="4.71659">
        <ele>40.272943</ele>
        <time>2021-09-16T08:01:44.000Z</time>
      </trkpt>
      <trkpt lat="44.1286" lon="4.71642">
        <ele>40.330899</ele>
        <time>2021-09-16T08:01:53.000Z</time>
      </trkpt>
      <trkpt lat="44.12847" lon="4.71637">
        <ele>40.345219</ele>
        <time>2021-09-16T08:01:54.000Z</time>
      </trkpt>
      <trkpt lat="44.12836" lon="4.71628">
        <ele>40.359183</ele>
        <time>2021-09-16T08:01:56.000Z</time>
      </trkpt>
      <trkpt lat="44.1283" lon="4.71612">
        <ele>40.373189</ele>
        <time>2021-09-16T08:01:58.000Z</time>
      </trkpt>
      <trkpt lat="44.12829" lon="4.71604">
        <ele>40.380152</ele>
        <time>2021-09-16T08:01:59.000Z</time>
      </trkpt>
      <trkpt lat="44.12829" lon="4.71595">
        <ele>40.38668</ele>
        <time>2021-09-16T08:02:00.000Z</time>
      </trkpt>
      <trkpt lat="44.12829" lon="4.71587">
        <ele>40.393286</ele>
        <time>2021-09-16T08:02:02.000Z</time>
      </trkpt>
      <trkpt lat="44.12828" lon="4.71572">
        <ele>40.405446</ele>
        <time>2021-09-16T08:02:03.000Z</time>
      </trkpt>
      <trkpt lat="44.12822" lon="4.71566">
        <ele>40.412638</ele>
        <time>2021-09-16T08:02:04.000Z</time>
      </trkpt>
      <trkpt lat="44.12816" lon="4.71563">
        <ele>40.419604</ele>
        <time>2021-09-16T08:02:06.000Z</time>
      </trkpt>
      <trkpt lat="44.12797" lon="4.71565">
        <ele>40.440507</ele>
        <time>2021-09-16T08:02:08.000Z</time>
      </trkpt>
      <trkpt lat="44.12793" lon="4.71581">
        <ele>40.453723</ele>
        <time>2021-09-16T08:02:10.000Z</time>
      </trkpt>
      <trkpt lat="44.12785" lon="4.71623">
        <ele>40.473775</ele>
        <time>2021-09-16T08:02:15.000Z</time>
      </trkpt>
      <trkpt lat="44.1278" lon="4.71627">
        <ele>40.476354</ele>
        <time>2021-09-16T08:02:16.000Z</time>
      </trkpt>
      <trkpt lat="44.12774" lon="4.71629">
        <ele>40.478947</ele>
        <time>2021-09-16T08:02:17.000Z</time>
      </trkpt>
      <trkpt lat="44.12768" lon="4.71628">
        <ele>40.481599</ele>
        <time>2021-09-16T08:02:18.000Z</time>
      </trkpt>
      <trkpt lat="44.12722" lon="4.71625">
        <ele>40.501066</ele>
        <time>2021-09-16T08:02:25.000Z</time>
      </trkpt>
      <trkpt lat="44.12663" lon="4.71628">
        <ele>40.52633</ele>
        <time>2021-09-16T08:02:34.000Z</time>
      </trkpt>
      <trkpt lat="44.12656" lon="4.71628">
        <ele>40.529149</ele>
        <time>2021-09-16T08:02:35.000Z</time>
      </trkpt>
      <trkpt lat="44.12604" lon="4.71629">
        <ele>40.525517</ele>
        <time>2021-09-16T08:02:43.000Z</time>
      </trkpt>
      <trkpt lat="44.12551" lon="4.7163">
        <ele>40.489237</ele>
        <time>2021-09-16T08:02:51.000Z</time>
      </trkpt>
      <trkpt lat="44.12492" lon="4.7163">
        <ele>40.447912</ele>
        <time>2021-09-16T08:03:00.000Z</time>
      </trkpt>
      <trkpt lat="44.12485" lon="4.71631">
        <ele>40.44342</ele>
        <time>2021-09-16T08:03:01.000Z</time>
      </trkpt>
      <trkpt lat="44.12425" lon="4.71631">
        <ele>40.422516</ele>
        <time>2021-09-16T08:03:10.000Z</time>
      </trkpt>
      <trkpt lat="44.12419" lon="4.71632">
        <ele>40.424058</ele>
        <time>2021-09-16T08:03:11.000Z</time>
      </trkpt>
      <trkpt lat="44.12359" lon="4.71634">
        <ele>40.438346</ele>
        <time>2021-09-16T08:03:20.000Z</time>
      </trkpt>
      <trkpt lat="44.12306" lon="4.71641">
        <ele>40.450959</ele>
        <time>2021-09-16T08:03:28.000Z</time>
      </trkpt>
      <trkpt lat="44.12253" lon="4.71654">
        <ele>40.469922</ele>
        <time>2021-09-16T08:03:36.000Z</time>
      </trkpt>
      <trkpt lat="44.12196" lon="4.71674">
        <ele>40.508531</ele>
        <time>2021-09-16T08:03:45.000Z</time>
      </trkpt>
      <trkpt lat="44.1219" lon="4.71676">
        <ele>40.512812</ele>
        <time>2021-09-16T08:03:46.000Z</time>
      </trkpt>
      <trkpt lat="44.12135" lon="4.71697">
        <ele>40.550141</ele>
        <time>2021-09-16T08:03:55.000Z</time>
      </trkpt>
      <trkpt lat="44.12081" lon="4.71718">
        <ele>40.593948</ele>
        <time>2021-09-16T08:04:04.000Z</time>
      </trkpt>
      <trkpt lat="44.12027" lon="4.71739">
        <ele>40.660126</ele>
        <time>2021-09-16T08:04:13.000Z</time>
      </trkpt>
      <trkpt lat="44.12021" lon="4.71741">
        <ele>40.667439</ele>
        <time>2021-09-16T08:04:14.000Z</time>
      </trkpt>
      <trkpt lat="44.11978" lon="4.71758">
        <ele>40.71924</ele>
        <time>2021-09-16T08:04:21.000Z</time>
      </trkpt>
      <trkpt lat="44.11922" lon="4.71775">
        <ele>40.786512</ele>
        <time>2021-09-16T08:04:30.000Z</time>
      </trkpt>
      <trkpt lat="44.11895" lon="4.71779">
        <ele>40.901918</ele>
        <time>2021-09-16T08:04:35.000Z</time>
      </trkpt>
      <trkpt lat="44.11854" lon="4.71794">
        <ele>41.086403</ele>
        <time>2021-09-16T08:04:43.000Z</time>
      </trkpt>
      <trkpt lat="44.11807" lon="4.71811">
        <ele>41.29997</ele>
        <time>2021-09-16T08:04:52.000Z</time>
      </trkpt>
      <trkpt lat="44.11757" lon="4.7183">
        <ele>41.526845</ele>
        <time>2021-09-16T08:05:01.000Z</time>
      </trkpt>
      <trkpt lat="44.11705" lon="4.71849">
        <ele>41.717346</ele>
        <time>2021-09-16T08:05:10.000Z</time>
      </trkpt>
      <trkpt lat="44.1165" lon="4.7187">
        <ele>41.900365</ele>
        <time>2021-09-16T08:05:19.000Z</time>
      </trkpt>
      <trkpt lat="44.11644" lon="4.71872">
        <ele>41.92072</ele>
        <time>2021-09-16T08:05:20.000Z</time>
      </trkpt>
      <trkpt lat="44.11589" lon="4.71892">
        <ele>42.103502</ele>
        <time>2021-09-16T08:05:29.000Z</time>
      </trkpt>
      <trkpt lat="44.11533" lon="4.71911">
        <ele>42.322368</ele>
        <time>2021-09-16T08:05:38.000Z</time>
      </trkpt>
      <trkpt lat="44.11527" lon="4.71913">
        <ele>42.347939</ele>
        <time>2021-09-16T08:05:39.000Z</time>
      </trkpt>
      <trkpt lat="44.11474" lon="4.71931">
        <ele>42.574372</ele>
        <time>2021-09-16T08:05:48.000Z</time>
      </trkpt>
      <trkpt lat="44.11421" lon="4.71951">
        <ele>42.801908</ele>
        <time>2021-09-16T08:05:57.000Z</time>
      </trkpt>
      <trkpt lat="44.11373" lon="4.71971">
        <ele>42.750518</ele>
        <time>2021-09-16T08:06:05.000Z</time>
      </trkpt>
      <trkpt lat="44.11331" lon="4.71988">
        <ele>42.492191</ele>
        <time>2021-09-16T08:06:12.000Z</time>
      </trkpt>
      <trkpt lat="44.1129" lon="4.72005">
        <ele>42.238488</ele>
        <time>2021-09-16T08:06:19.000Z</time>
      </trkpt>
      <trkpt lat="44.11243" lon="4.72021">
        <ele>41.948282</ele>
        <time>2021-09-16T08:06:25.000Z</time>
      </trkpt>
      <trkpt lat="44.1122" lon="4.72027">
        <ele>41.800219</ele>
        <time>2021-09-16T08:06:28.000Z</time>
      </trkpt>
      <trkpt lat="44.1121" lon="4.72032">
        <ele>41.700452</ele>
        <time>2021-09-16T08:06:29.000Z</time>
      </trkpt>
      <trkpt lat="44.11209" lon="4.7204">
        <ele>41.645779</ele>
        <time>2021-09-16T08:06:30.000Z</time>
      </trkpt>
      <trkpt lat="44.11209" lon="4.7204">
        <ele>41.645779</ele>
        <time>2021-09-16T08:06:31.000Z</time>
      </trkpt>
      <trkpt lat="44.11209" lon="4.72047">
        <ele>41.600864</ele>
        <time>2021-09-16T08:06:32.000Z</time>
      </trkpt>
      <trkpt lat="44.11204" lon="4.72056">
        <ele>41.530074</ele>
        <time>2021-09-16T08:06:33.000Z</time>
      </trkpt>
      <trkpt lat="44.11186" lon="4.72059">
        <ele>41.358838</ele>
        <time>2021-09-16T08:06:37.000Z</time>
      </trkpt>
      <trkpt lat="44.11153" lon="4.72066">
        <ele>41.051147</ele>
        <time>2021-09-16T08:06:43.000Z</time>
      </trkpt>
      <trkpt lat="44.11116" lon="4.72079">
        <ele>40.698729</ele>
        <time>2021-09-16T08:06:49.000Z</time>
      </trkpt>
      <trkpt lat="44.11067" lon="4.72104">
        <ele>40.215233</ele>
        <time>2021-09-16T08:06:57.000Z</time>
      </trkpt>
      <trkpt lat="44.1102" lon="4.7213">
        <ele>39.961445</ele>
        <time>2021-09-16T08:07:05.000Z</time>
      </trkpt>
      <trkpt lat="44.10992" lon="4.7215">
        <ele>39.82467</ele>
        <time>2021-09-16T08:07:10.000Z</time>
      </trkpt>
      <trkpt lat="44.10982" lon="4.72159">
        <ele>39.77144</ele>
        <time>2021-09-16T08:07:12.000Z</time>
      </trkpt>
      <trkpt lat="44.10968" lon="4.72171">
        <ele>39.696147</ele>
        <time>2021-09-16T08:07:15.000Z</time>
      </trkpt>
      <trkpt lat="44.10947" lon="4.72191">
        <ele>39.585436</ele>
        <time>2021-09-16T08:07:19.000Z</time>
      </trkpt>
      <trkpt lat="44.10943" lon="4.72196">
        <ele>39.558467</ele>
        <time>2021-09-16T08:07:20.000Z</time>
      </trkpt>
      <trkpt lat="44.1092" lon="4.72222">
        <ele>39.426562</ele>
        <time>2021-09-16T08:07:25.000Z</time>
      </trkpt>
      <trkpt lat="44.10897" lon="4.7225">
        <ele>39.640551</ele>
        <time>2021-09-16T08:07:30.000Z</time>
      </trkpt>
      <trkpt lat="44.10881" lon="4.72271">
        <ele>40.026067</ele>
        <time>2021-09-16T08:07:34.000Z</time>
      </trkpt>
      <trkpt lat="44.10873" lon="4.72282">
        <ele>40.209707</ele>
        <time>2021-09-16T08:07:36.000Z</time>
      </trkpt>
      <trkpt lat="44.1086" lon="4.72299">
        <ele>40.512193</ele>
        <time>2021-09-16T08:07:39.000Z</time>
      </trkpt>
      <trkpt lat="44.10847" lon="4.72316">
        <ele>40.817979</ele>
        <time>2021-09-16T08:07:42.000Z</time>
      </trkpt>
      <trkpt lat="44.10839" lon="4.72327">
        <ele>41.000395</ele>
        <time>2021-09-16T08:07:44.000Z</time>
      </trkpt>
      <trkpt lat="44.10815" lon="4.72358">
        <ele>41.562527</ele>
        <time>2021-09-16T08:07:49.000Z</time>
      </trkpt>
      <trkpt lat="44.10811" lon="4.72365">
        <ele>41.671393</ele>
        <time>2021-09-16T08:07:50.000Z</time>
      </trkpt>
      <trkpt lat="44.10793" lon="4.72389">
        <ele>42.103089</ele>
        <time>2021-09-16T08:07:54.000Z</time>
      </trkpt>
      <trkpt lat="44.10788" lon="4.72395">
        <ele>42.209036</ele>
        <time>2021-09-16T08:07:55.000Z</time>
      </trkpt>
      <trkpt lat="44.10779" lon="4.72407">
        <ele>42.426539</ele>
        <time>2021-09-16T08:07:57.000Z</time>
      </trkpt>
      <trkpt lat="44.10774" lon="4.72413">
        <ele>42.537121</ele>
        <time>2021-09-16T08:07:58.000Z</time>
      </trkpt>
      <trkpt lat="44.10763" lon="4.72428">
        <ele>42.82167</ele>
        <time>2021-09-16T08:08:01.000Z</time>
      </trkpt>
      <trkpt lat="44.10754" lon="4.72439">
        <ele>43.043737</ele>
        <time>2021-09-16T08:08:03.000Z</time>
      </trkpt>
      <trkpt lat="44.10746" lon="4.72451">
        <ele>43.261313</ele>
        <time>2021-09-16T08:08:05.000Z</time>
      </trkpt>
      <trkpt lat="44.10736" lon="4.72463">
        <ele>43.505405</ele>
        <time>2021-09-16T08:08:07.000Z</time>
      </trkpt>
      <trkpt lat="44.10731" lon="4.7247">
        <ele>43.629026</ele>
        <time>2021-09-16T08:08:08.000Z</time>
      </trkpt>
      <trkpt lat="44.10716" lon="4.72489">
        <ele>44.008874</ele>
        <time>2021-09-16T08:08:11.000Z</time>
      </trkpt>
      <trkpt lat="44.10707" lon="4.72501">
        <ele>44.24083</ele>
        <time>2021-09-16T08:08:13.000Z</time>
      </trkpt>
      <trkpt lat="44.10692" lon="4.72521">
        <ele>44.623828</ele>
        <time>2021-09-16T08:08:16.000Z</time>
      </trkpt>
      <trkpt lat="44.1068" lon="4.72536">
        <ele>44.907037</ele>
        <time>2021-09-16T08:08:18.000Z</time>
      </trkpt>
      <trkpt lat="44.10652" lon="4.72573">
        <ele>45.630329</ele>
        <time>2021-09-16T08:08:24.000Z</time>
      </trkpt>
      <trkpt lat="44.10642" lon="4.72585">
        <ele>45.74944</ele>
        <time>2021-09-16T08:08:26.000Z</time>
      </trkpt>
      <trkpt lat="44.10626" lon="4.72599">
        <ele>45.793177</ele>
        <time>2021-09-16T08:08:29.000Z</time>
      </trkpt>
      <trkpt lat="44.10612" lon="4.72617">
        <ele>45.835635</ele>
        <time>2021-09-16T08:08:32.000Z</time>
      </trkpt>
      <trkpt lat="44.10598" lon="4.72634">
        <ele>45.87695</ele>
        <time>2021-09-16T08:08:35.000Z</time>
      </trkpt>
      <trkpt lat="44.10577" lon="4.72668">
        <ele>45.947336</ele>
        <time>2021-09-16T08:08:40.000Z</time>
      </trkpt>
      <trkpt lat="44.10548" lon="4.72697">
        <ele>46.027095</ele>
        <time>2021-09-16T08:08:46.000Z</time>
      </trkpt>
      <trkpt lat="44.10513" lon="4.72725">
        <ele>46.117622</ele>
        <time>2021-09-16T08:08:53.000Z</time>
      </trkpt>
      <trkpt lat="44.10492" lon="4.7274">
        <ele>46.07467</ele>
        <time>2021-09-16T08:08:57.000Z</time>
      </trkpt>
      <trkpt lat="44.10444" lon="4.72761">
        <ele>45.884665</ele>
        <time>2021-09-16T08:09:05.000Z</time>
      </trkpt>
      <trkpt lat="44.10395" lon="4.72772">
        <ele>45.697238</ele>
        <time>2021-09-16T08:09:13.000Z</time>
      </trkpt>
      <trkpt lat="44.10358" lon="4.72774">
        <ele>45.560747</ele>
        <time>2021-09-16T08:09:19.000Z</time>
      </trkpt>
      <trkpt lat="44.10309" lon="4.72771">
        <ele>45.401433</ele>
        <time>2021-09-16T08:09:27.000Z</time>
      </trkpt>
      <trkpt lat="44.10266" lon="4.7276">
        <ele>45.291118</ele>
        <time>2021-09-16T08:09:34.000Z</time>
      </trkpt>
      <trkpt lat="44.10225" lon="4.72743">
        <ele>45.183797</ele>
        <time>2021-09-16T08:09:41.000Z</time>
      </trkpt>
      <trkpt lat="44.10197" lon="4.72727">
        <ele>45.108368</ele>
        <time>2021-09-16T08:09:46.000Z</time>
      </trkpt>
      <trkpt lat="44.10182" lon="4.72718">
        <ele>45.067762</ele>
        <time>2021-09-16T08:09:49.000Z</time>
      </trkpt>
      <trkpt lat="44.10147" lon="4.72698">
        <ele>44.922423</ele>
        <time>2021-09-16T08:09:55.000Z</time>
      </trkpt>
      <trkpt lat="44.10103" lon="4.72673">
        <ele>44.611274</ele>
        <time>2021-09-16T08:10:03.000Z</time>
      </trkpt>
      <trkpt lat="44.10059" lon="4.72647">
        <ele>44.300124</ele>
        <time>2021-09-16T08:10:11.000Z</time>
      </trkpt>
      <trkpt lat="44.1002" lon="4.7263">
        <ele>44.035644</ele>
        <time>2021-09-16T08:10:18.000Z</time>
      </trkpt>
      <trkpt lat="44.10004" lon="4.72624">
        <ele>43.926975</ele>
        <time>2021-09-16T08:10:21.000Z</time>
      </trkpt>
      <trkpt lat="44.09993" lon="4.72624">
        <ele>43.856062</ele>
        <time>2021-09-16T08:10:23.000Z</time>
      </trkpt>
      <trkpt lat="44.09988" lon="4.72627">
        <ele>43.815774</ele>
        <time>2021-09-16T08:10:24.000Z</time>
      </trkpt>
      <trkpt lat="44.0998" lon="4.72632">
        <ele>43.720785</ele>
        <time>2021-09-16T08:10:26.000Z</time>
      </trkpt>
      <trkpt lat="44.0997" lon="4.72632">
        <ele>43.624779</ele>
        <time>2021-09-16T08:10:28.000Z</time>
      </trkpt>
      <trkpt lat="44.09929" lon="4.72618">
        <ele>43.215606</ele>
        <time>2021-09-16T08:10:36.000Z</time>
      </trkpt>
      <trkpt lat="44.0989" lon="4.72611">
        <ele>42.835183</ele>
        <time>2021-09-16T08:10:43.000Z</time>
      </trkpt>
      <trkpt lat="44.09873" lon="4.72609">
        <ele>42.676454</ele>
        <time>2021-09-16T08:10:46.000Z</time>
      </trkpt>
      <trkpt lat="44.09829" lon="4.72606">
        <ele>42.245237</ele>
        <time>2021-09-16T08:10:54.000Z</time>
      </trkpt>
      <trkpt lat="44.09791" lon="4.72606">
        <ele>41.907994</ele>
        <time>2021-09-16T08:11:01.000Z</time>
      </trkpt>
      <trkpt lat="44.09742" lon="4.72607">
        <ele>41.497711</ele>
        <time>2021-09-16T08:11:10.000Z</time>
      </trkpt>
      <trkpt lat="44.09689" lon="4.72608">
        <ele>41.052321</ele>
        <time>2021-09-16T08:11:20.000Z</time>
      </trkpt>
      <trkpt lat="44.09681" lon="4.72617">
        <ele>40.966764</ele>
        <time>2021-09-16T08:11:22.000Z</time>
      </trkpt>
      <trkpt lat="44.09682" lon="4.72637">
        <ele>40.845919</ele>
        <time>2021-09-16T08:11:26.000Z</time>
      </trkpt>
      <trkpt lat="44.09684" lon="4.72707">
        <ele>40.548236</ele>
        <time>2021-09-16T08:11:34.000Z</time>
      </trkpt>
      <trkpt lat="44.09684" lon="4.72715">
        <ele>40.536964</ele>
        <time>2021-09-16T08:11:35.000Z</time>
      </trkpt>
      <trkpt lat="44.09686" lon="4.72752">
        <ele>40.481372</ele>
        <time>2021-09-16T08:11:40.000Z</time>
      </trkpt>
      <trkpt lat="44.09688" lon="4.72804">
        <ele>40.404979</ele>
        <time>2021-09-16T08:11:47.000Z</time>
      </trkpt>
      <trkpt lat="44.09688" lon="4.72814">
        <ele>40.38985</ele>
        <time>2021-09-16T08:13:00.000Z</time>
      </trkpt>
      <trkpt lat="44.09689" lon="4.72838">
        <ele>40.353803</ele>
        <time>2021-09-16T08:13:07.000Z</time>
      </trkpt>
      <trkpt lat="44.0969" lon="4.72859">
        <ele>40.322826</ele>
        <time>2021-09-16T08:13:14.000Z</time>
      </trkpt>
      <trkpt lat="44.0969" lon="4.72884">
        <ele>40.286209</ele>
        <time>2021-09-16T08:13:19.000Z</time>
      </trkpt>
      <trkpt lat="44.09692" lon="4.7292">
        <ele>40.232993</ele>
        <time>2021-09-16T08:13:28.000Z</time>
      </trkpt>
      <trkpt lat="44.09692" lon="4.72942">
        <ele>40.207942</ele>
        <time>2021-09-16T08:13:33.000Z</time>
      </trkpt>
      <trkpt lat="44.09693" lon="4.7297">
        <ele>40.184499</ele>
        <time>2021-09-16T08:13:39.000Z</time>
      </trkpt>
      <trkpt lat="44.09695" lon="4.73013">
        <ele>40.149758</ele>
        <time>2021-09-16T08:13:47.000Z</time>
      </trkpt>
      <trkpt lat="44.0969" lon="4.73048">
        <ele>40.120931</ele>
        <time>2021-09-16T08:13:54.000Z</time>
      </trkpt>
      <trkpt lat="44.09725" lon="4.7307">
        <ele>40.07803</ele>
        <time>2021-09-16T08:14:01.000Z</time>
      </trkpt>
      <trkpt lat="44.09719" lon="4.73092">
        <ele>40.058856</ele>
        <time>2021-09-16T08:14:07.000Z</time>
      </trkpt>
      <trkpt lat="44.09715" lon="4.73097">
        <ele>40.053453</ele>
        <time>2021-09-16T08:14:09.000Z</time>
      </trkpt>
      <trkpt lat="44.09707" lon="4.73102">
        <ele>40.042907</ele>
        <time>2021-09-16T08:14:12.000Z</time>
      </trkpt>
      <trkpt lat="44.09686" lon="4.73112">
        <ele>40.017712</ele>
        <time>2021-09-16T08:14:18.000Z</time>
      </trkpt>
      <trkpt lat="44.09681" lon="4.73113">
        <ele>40.014728</ele>
        <time>2021-09-16T08:14:19.000Z</time>
      </trkpt>
      <trkpt lat="44.09668" lon="4.73113">
        <ele>40.036837</ele>
        <time>2021-09-16T08:14:22.000Z</time>
      </trkpt>
      <trkpt lat="44.09642" lon="4.73114">
        <ele>40.079095</ele>
        <time>2021-09-16T08:14:28.000Z</time>
      </trkpt>
      <trkpt lat="44.09619" lon="4.73111">
        <ele>40.116564</ele>
        <time>2021-09-16T08:14:34.000Z</time>
      </trkpt>
      <trkpt lat="44.09614" lon="4.73111">
        <ele>40.123762</ele>
        <time>2021-09-16T08:14:35.000Z</time>
      </trkpt>
      <trkpt lat="44.09605" lon="4.73109">
        <ele>40.13945</ele>
        <time>2021-09-16T08:14:37.000Z</time>
      </trkpt>
      <trkpt lat="44.0959" lon="4.73107">
        <ele>40.162845</ele>
        <time>2021-09-16T08:14:40.000Z</time>
      </trkpt>
      <trkpt lat="44.09556" lon="4.73099">
        <ele>40.21851</ele>
        <time>2021-09-16T08:14:47.000Z</time>
      </trkpt>
      <trkpt lat="44.09533" lon="4.73087">
        <ele>40.259456</ele>
        <time>2021-09-16T08:14:52.000Z</time>
      </trkpt>
      <trkpt lat="44.09519" lon="4.73078">
        <ele>40.283733</ele>
        <time>2021-09-16T08:14:55.000Z</time>
      </trkpt>
      <trkpt lat="44.09492" lon="4.73064">
        <ele>40.342585</ele>
        <time>2021-09-16T08:15:01.000Z</time>
      </trkpt>
      <trkpt lat="44.09462" lon="4.73056">
        <ele>40.410586</ele>
        <time>2021-09-16T08:15:07.000Z</time>
      </trkpt>
      <trkpt lat="44.09452" lon="4.73055">
        <ele>40.434351</ele>
        <time>2021-09-16T08:15:09.000Z</time>
      </trkpt>
      <trkpt lat="44.09432" lon="4.73054">
        <ele>40.480717</ele>
        <time>2021-09-16T08:15:13.000Z</time>
      </trkpt>
      <trkpt lat="44.0941" lon="4.73058">
        <ele>40.531451</ele>
        <time>2021-09-16T08:15:17.000Z</time>
      </trkpt>
      <trkpt lat="44.09405" lon="4.73062">
        <ele>40.544248</ele>
        <time>2021-09-16T08:15:18.000Z</time>
      </trkpt>
      <trkpt lat="44.0939" lon="4.73073">
        <ele>40.581591</ele>
        <time>2021-09-16T08:15:21.000Z</time>
      </trkpt>
      <trkpt lat="44.09381" lon="4.73078">
        <ele>40.604337</ele>
        <time>2021-09-16T08:15:23.000Z</time>
      </trkpt>
      <trkpt lat="44.09371" lon="4.73084">
        <ele>40.628561</ele>
        <time>2021-09-16T08:15:25.000Z</time>
      </trkpt>
      <trkpt lat="44.09362" lon="4.73094">
        <ele>40.654428</ele>
        <time>2021-09-16T08:15:27.000Z</time>
      </trkpt>
      <trkpt lat="44.09358" lon="4.731">
        <ele>40.668988</ele>
        <time>2021-09-16T08:15:28.000Z</time>
      </trkpt>
      <trkpt lat="44.09349" lon="4.73112">
        <ele>40.69633</ele>
        <time>2021-09-16T08:15:30.000Z</time>
      </trkpt>
      <trkpt lat="44.09346" lon="4.73117">
        <ele>40.707654</ele>
        <time>2021-09-16T08:15:31.000Z</time>
      </trkpt>
      <trkpt lat="44.09332" lon="4.73145">
        <ele>40.380985</ele>
        <time>2021-09-16T08:15:35.000Z</time>
      </trkpt>
      <trkpt lat="44.09318" lon="4.73173">
        <ele>39.997045</ele>
        <time>2021-09-16T08:15:39.000Z</time>
      </trkpt>
      <trkpt lat="44.09315" lon="4.73179">
        <ele>39.909859</ele>
        <time>2021-09-16T08:15:40.000Z</time>
      </trkpt>
      <trkpt lat="44.09294" lon="4.73218">
        <ele>39.358112</ele>
        <time>2021-09-16T08:15:46.000Z</time>
      </trkpt>
      <trkpt lat="44.09274" lon="4.73256">
        <ele>38.815559</ele>
        <time>2021-09-16T08:15:52.000Z</time>
      </trkpt>
      <trkpt lat="44.09271" lon="4.73262">
        <ele>38.72559</ele>
        <time>2021-09-16T08:15:53.000Z</time>
      </trkpt>
      <trkpt lat="44.09261" lon="4.73281">
        <ele>38.459417</ele>
        <time>2021-09-16T08:15:56.000Z</time>
      </trkpt>
      <trkpt lat="44.09251" lon="4.733">
        <ele>38.199694</ele>
        <time>2021-09-16T08:15:59.000Z</time>
      </trkpt>
      <trkpt lat="44.09248" lon="4.73307">
        <ele>38.10966</ele>
        <time>2021-09-16T08:16:00.000Z</time>
      </trkpt>
      <trkpt lat="44.09242" lon="4.7332">
        <ele>37.924984</ele>
        <time>2021-09-16T08:16:02.000Z</time>
      </trkpt>
      <trkpt lat="44.09237" lon="4.73333">
        <ele>37.838333</ele>
        <time>2021-09-16T08:16:04.000Z</time>
      </trkpt>
      <trkpt lat="44.09232" lon="4.73357">
        <ele>37.785327</ele>
        <time>2021-09-16T08:16:07.000Z</time>
      </trkpt>
      <trkpt lat="44.09229" lon="4.73373">
        <ele>37.751614</ele>
        <time>2021-09-16T08:16:09.000Z</time>
      </trkpt>
      <trkpt lat="44.09227" lon="4.73429">
        <ele>37.63192</ele>
        <time>2021-09-16T08:16:16.000Z</time>
      </trkpt>
      <trkpt lat="44.09225" lon="4.73495">
        <ele>37.494141</ele>
        <time>2021-09-16T08:16:24.000Z</time>
      </trkpt>
      <trkpt lat="44.09225" lon="4.73503">
        <ele>37.476808</ele>
        <time>2021-09-16T08:16:25.000Z</time>
      </trkpt>
      <trkpt lat="44.09224" lon="4.73533">
        <ele>37.411932</ele>
        <time>2021-09-16T08:16:29.000Z</time>
      </trkpt>
      <trkpt lat="44.09224" lon="4.73554">
        <ele>37.368381</ele>
        <time>2021-09-16T08:16:32.000Z</time>
      </trkpt>
      <trkpt lat="44.09227" lon="4.73579">
        <ele>37.334379</ele>
        <time>2021-09-16T08:16:35.000Z</time>
      </trkpt>
      <trkpt lat="44.09234" lon="4.73645">
        <ele>37.398402</ele>
        <time>2021-09-16T08:16:43.000Z</time>
      </trkpt>
      <trkpt lat="44.09239" lon="4.73701">
        <ele>37.45233</ele>
        <time>2021-09-16T08:16:50.000Z</time>
      </trkpt>
      <trkpt lat="44.09244" lon="4.73749">
        <ele>37.498885</ele>
        <time>2021-09-16T08:16:56.000Z</time>
      </trkpt>
      <trkpt lat="44.0925" lon="4.73804">
        <ele>37.552604</ele>
        <time>2021-09-16T08:17:03.000Z</time>
      </trkpt>
      <trkpt lat="44.09255" lon="4.73858">
        <ele>37.659773</ele>
        <time>2021-09-16T08:17:10.000Z</time>
      </trkpt>
      <trkpt lat="44.09261" lon="4.73912">
        <ele>37.789852</ele>
        <time>2021-09-16T08:17:17.000Z</time>
      </trkpt>
      <trkpt lat="44.09266" lon="4.73968">
        <ele>37.924236</ele>
        <time>2021-09-16T08:17:24.000Z</time>
      </trkpt>
      <trkpt lat="44.09272" lon="4.74024">
        <ele>38.060323</ele>
        <time>2021-09-16T08:17:31.000Z</time>
      </trkpt>
      <trkpt lat="44.09289" lon="4.74076">
        <ele>38.144105</ele>
        <time>2021-09-16T08:17:38.000Z</time>
      </trkpt>
      <trkpt lat="44.09309" lon="4.7412">
        <ele>38.037329</ele>
        <time>2021-09-16T08:17:45.000Z</time>
      </trkpt>
      <trkpt lat="44.09312" lon="4.74126">
        <ele>38.023521</ele>
        <time>2021-09-16T08:17:46.000Z</time>
      </trkpt>
      <trkpt lat="44.09318" lon="4.74138">
        <ele>37.993663</ele>
        <time>2021-09-16T08:17:48.000Z</time>
      </trkpt>
      <trkpt lat="44.09321" lon="4.74143">
        <ele>37.980348</ele>
        <time>2021-09-16T08:17:49.000Z</time>
      </trkpt>
      <trkpt lat="44.09324" lon="4.74148">
        <ele>37.96817</ele>
        <time>2021-09-16T08:17:50.000Z</time>
      </trkpt>
      <trkpt lat="44.09333" lon="4.74163">
        <ele>37.927402</ele>
        <time>2021-09-16T08:17:53.000Z</time>
      </trkpt>
      <trkpt lat="44.0936" lon="4.74209">
        <ele>37.807061</ele>
        <time>2021-09-16T08:18:00.000Z</time>
      </trkpt>
      <trkpt lat="44.09365" lon="4.74217">
        <ele>37.787992</ele>
        <time>2021-09-16T08:18:01.000Z</time>
      </trkpt>
      <trkpt lat="44.0938" lon="4.74242">
        <ele>37.721733</ele>
        <time>2021-09-16T08:18:05.000Z</time>
      </trkpt>
      <trkpt lat="44.09401" lon="4.74279">
        <ele>37.586298</ele>
        <time>2021-09-16T08:18:11.000Z</time>
      </trkpt>
      <trkpt lat="44.09431" lon="4.74325">
        <ele>37.327052</ele>
        <time>2021-09-16T08:18:19.000Z</time>
      </trkpt>
      <trkpt lat="44.09463" lon="4.74366">
        <ele>37.072259</ele>
        <time>2021-09-16T08:18:27.000Z</time>
      </trkpt>
      <trkpt lat="44.09497" lon="4.74402">
        <ele>36.821632</ele>
        <time>2021-09-16T08:18:35.000Z</time>
      </trkpt>
      <trkpt lat="44.09526" lon="4.74434">
        <ele>36.603432</ele>
        <time>2021-09-16T08:18:42.000Z</time>
      </trkpt>
      <trkpt lat="44.09562" lon="4.74472">
        <ele>36.480831</ele>
        <time>2021-09-16T08:18:50.000Z</time>
      </trkpt>
      <trkpt lat="44.09603" lon="4.74517">
        <ele>36.33772</ele>
        <time>2021-09-16T08:19:00.000Z</time>
      </trkpt>
      <trkpt lat="44.09632" lon="4.74548">
        <ele>36.236352</ele>
        <time>2021-09-16T08:19:07.000Z</time>
      </trkpt>
      <trkpt lat="44.09672" lon="4.74593">
        <ele>36.088586</ele>
        <time>2021-09-16T08:19:17.000Z</time>
      </trkpt>
      <trkpt lat="44.09704" lon="4.74627">
        <ele>35.937595</ele>
        <time>2021-09-16T08:19:25.000Z</time>
      </trkpt>
      <trkpt lat="44.09746" lon="4.74673">
        <ele>35.738048</ele>
        <time>2021-09-16T08:19:35.000Z</time>
      </trkpt>
      <trkpt lat="44.09754" lon="4.74684">
        <ele>35.698617</ele>
        <time>2021-09-16T08:19:37.000Z</time>
      </trkpt>
      <trkpt lat="44.09766" lon="4.74708">
        <ele>35.619613</ele>
        <time>2021-09-16T08:19:41.000Z</time>
      </trkpt>
      <trkpt lat="44.09797" lon="4.74768">
        <ele>35.432925</ele>
        <time>2021-09-16T08:19:51.000Z</time>
      </trkpt>
      <trkpt lat="44.09822" lon="4.74816">
        <ele>35.361224</ele>
        <time>2021-09-16T08:19:59.000Z</time>
      </trkpt>
      <trkpt lat="44.09825" lon="4.74819">
        <ele>35.353397</ele>
        <time>2021-09-16T08:20:00.000Z</time>
      </trkpt>
      <trkpt lat="44.0983" lon="4.74823">
        <ele>35.344518</ele>
        <time>2021-09-16T08:20:01.000Z</time>
      </trkpt>
      <trkpt lat="44.09849" lon="4.74841">
        <ele>35.304945</ele>
        <time>2021-09-16T08:20:05.000Z</time>
      </trkpt>
      <trkpt lat="44.09896" lon="4.74885">
        <ele>35.209584</ele>
        <time>2021-09-16T08:20:15.000Z</time>
      </trkpt>
      <trkpt lat="44.099" lon="4.74889">
        <ele>35.200386</ele>
        <time>2021-09-16T08:20:16.000Z</time>
      </trkpt>
      <trkpt lat="44.09935" lon="4.74928">
        <ele>35.116061</ele>
        <time>2021-09-16T08:20:24.000Z</time>
      </trkpt>
      <trkpt lat="44.09974" lon="4.74972">
        <ele>34.976445</ele>
        <time>2021-09-16T08:20:33.000Z</time>
      </trkpt>
      <trkpt lat="44.09992" lon="4.74992">
        <ele>34.913366</ele>
        <time>2021-09-16T08:20:37.000Z</time>
      </trkpt>
      <trkpt lat="44.09998" lon="4.75004">
        <ele>34.883174</ele>
        <time>2021-09-16T08:20:39.000Z</time>
      </trkpt>
      <trkpt lat="44.10028" lon="4.75051">
        <ele>34.758504</ele>
        <time>2021-09-16T08:20:47.000Z</time>
      </trkpt>
      <trkpt lat="44.10042" lon="4.75074">
        <ele>34.698508</ele>
        <time>2021-09-16T08:20:51.000Z</time>
      </trkpt>
      <trkpt lat="44.10046" lon="4.75088">
        <ele>34.669132</ele>
        <time>2021-09-16T08:20:53.000Z</time>
      </trkpt>
      <trkpt lat="44.10048" lon="4.75122">
        <ele>34.687023</ele>
        <time>2021-09-16T08:20:58.000Z</time>
      </trkpt>
      <trkpt lat="44.10048" lon="4.75129">
        <ele>34.707166</ele>
        <time>2021-09-16T08:20:59.000Z</time>
      </trkpt>
      <trkpt lat="44.10048" lon="4.75136">
        <ele>34.728633</ele>
        <time>2021-09-16T08:21:00.000Z</time>
      </trkpt>
      <trkpt lat="44.10044" lon="4.7515">
        <ele>34.768998</ele>
        <time>2021-09-16T08:21:02.000Z</time>
      </trkpt>
      <trkpt lat="44.10042" lon="4.75156">
        <ele>34.789646</ele>
        <time>2021-09-16T08:21:03.000Z</time>
      </trkpt>
      <trkpt lat="44.1003" lon="4.75191">
        <ele>34.90073</ele>
        <time>2021-09-16T08:21:08.000Z</time>
      </trkpt>
      <trkpt lat="44.10028" lon="4.75198">
        <ele>34.922511</ele>
        <time>2021-09-16T08:21:09.000Z</time>
      </trkpt>
      <trkpt lat="44.10019" lon="4.75264">
        <ele>35.11509</ele>
        <time>2021-09-16T08:21:18.000Z</time>
      </trkpt>
      <trkpt lat="44.10013" lon="4.75318">
        <ele>35.270807</ele>
        <time>2021-09-16T08:21:25.000Z</time>
      </trkpt>
      <trkpt lat="44.10005" lon="4.75379">
        <ele>35.379842</ele>
        <time>2021-09-16T08:21:33.000Z</time>
      </trkpt>
      <trkpt lat="44.10004" lon="4.75386">
        <ele>35.385475</ele>
        <time>2021-09-16T08:21:34.000Z</time>
      </trkpt>
      <trkpt lat="44.10002" lon="4.754">
        <ele>35.397049</ele>
        <time>2021-09-16T08:21:36.000Z</time>
      </trkpt>
      <trkpt lat="44.10001" lon="4.75408">
        <ele>35.403009</ele>
        <time>2021-09-16T08:21:37.000Z</time>
      </trkpt>
      <trkpt lat="44.09998" lon="4.75436">
        <ele>35.425367</ele>
        <time>2021-09-16T08:21:41.000Z</time>
      </trkpt>
      <trkpt lat="44.09997" lon="4.75442">
        <ele>35.429885</ele>
        <time>2021-09-16T08:21:42.000Z</time>
      </trkpt>
      <trkpt lat="44.09996" lon="4.75452">
        <ele>35.437575</ele>
        <time>2021-09-16T08:21:44.000Z</time>
      </trkpt>
      <trkpt lat="44.09996" lon="4.75453">
        <ele>35.438519</ele>
        <time>2021-09-16T08:21:45.000Z</time>
      </trkpt>
      <trkpt lat="44.09988" lon="4.75467">
        <ele>35.452872</ele>
        <time>2021-09-16T08:21:49.000Z</time>
      </trkpt>
      <trkpt lat="44.09977" lon="4.75475">
        <ele>35.466159</ele>
        <time>2021-09-16T08:21:51.000Z</time>
      </trkpt>
      <trkpt lat="44.0997" lon="4.75493">
        <ele>35.48235</ele>
        <time>2021-09-16T08:21:53.000Z</time>
      </trkpt>
      <trkpt lat="44.09953" lon="4.75532">
        <ele>35.517703</ele>
        <time>2021-09-16T08:21:59.000Z</time>
      </trkpt>
      <trkpt lat="44.09941" lon="4.75561">
        <ele>35.543381</ele>
        <time>2021-09-16T08:22:05.000Z</time>
      </trkpt>
      <trkpt lat="44.09936" lon="4.75571">
        <ele>35.560793</ele>
        <time>2021-09-16T08:22:06.000Z</time>
      </trkpt>
      <trkpt lat="44.09934" lon="4.75576">
        <ele>35.57573</ele>
        <time>2021-09-16T08:22:07.000Z</time>
      </trkpt>
      <trkpt lat="44.09945" lon="4.75596">
        <ele>35.640048</ele>
        <time>2021-09-16T08:22:10.000Z</time>
      </trkpt>
      <trkpt lat="44.09925" lon="4.75598">
        <ele>35.711661</ele>
        <time>2021-09-16T08:22:15.000Z</time>
      </trkpt>
      <trkpt lat="44.09917" lon="4.75618">
        <ele>35.772081</ele>
        <time>2021-09-16T08:22:20.000Z</time>
      </trkpt>
      <trkpt lat="44.09906" lon="4.75644">
        <ele>35.847887</ele>
        <time>2021-09-16T08:22:25.000Z</time>
      </trkpt>
      <trkpt lat="44.0989" lon="4.75685">
        <ele>35.969044</ele>
        <time>2021-09-16T08:22:32.000Z</time>
      </trkpt>
      <trkpt lat="44.09886" lon="4.75697">
        <ele>36.002462</ele>
        <time>2021-09-16T08:22:34.000Z</time>
      </trkpt>
      <trkpt lat="44.09881" lon="4.75714">
        <ele>36.049917</ele>
        <time>2021-09-16T08:22:37.000Z</time>
      </trkpt>
      <trkpt lat="44.0988" lon="4.75719">
        <ele>36.064495</ele>
        <time>2021-09-16T08:22:39.000Z</time>
      </trkpt>
      <trkpt lat="44.09877" lon="4.75735">
        <ele>36.106538</ele>
        <time>2021-09-16T08:22:41.000Z</time>
      </trkpt>
      <trkpt lat="44.09876" lon="4.7574">
        <ele>36.119777</ele>
        <time>2021-09-16T08:22:42.000Z</time>
      </trkpt>
      <trkpt lat="44.09873" lon="4.75754">
        <ele>36.15707</ele>
        <time>2021-09-16T08:22:45.000Z</time>
      </trkpt>
      <trkpt lat="44.09871" lon="4.75765">
        <ele>36.186583</ele>
        <time>2021-09-16T08:22:47.000Z</time>
      </trkpt>
      <trkpt lat="44.09865" lon="4.75796">
        <ele>36.222697</ele>
        <time>2021-09-16T08:22:52.000Z</time>
      </trkpt>
      <trkpt lat="44.09845" lon="4.75844">
        <ele>36.274001</ele>
        <time>2021-09-16T08:23:00.000Z</time>
      </trkpt>
      <trkpt lat="44.09823" lon="4.7589">
        <ele>36.326278</ele>
        <time>2021-09-16T08:23:08.000Z</time>
      </trkpt>
      <trkpt lat="44.09804" lon="4.75925">
        <ele>36.367055</ele>
        <time>2021-09-16T08:23:14.000Z</time>
      </trkpt>
      <trkpt lat="44.09789" lon="4.75953">
        <ele>36.399487</ele>
        <time>2021-09-16T08:23:19.000Z</time>
      </trkpt>
      <trkpt lat="44.09763" lon="4.75996">
        <ele>36.36917</ele>
        <time>2021-09-16T08:23:26.000Z</time>
      </trkpt>
      <trkpt lat="44.09734" lon="4.76039">
        <ele>36.218486</ele>
        <time>2021-09-16T08:23:34.000Z</time>
      </trkpt>
      <trkpt lat="44.09722" lon="4.76056">
        <ele>36.156167</ele>
        <time>2021-09-16T08:23:38.000Z</time>
      </trkpt>
      <trkpt lat="44.09719" lon="4.76059">
        <ele>36.144664</ele>
        <time>2021-09-16T08:23:39.000Z</time>
      </trkpt>
      <trkpt lat="44.09713" lon="4.76067">
        <ele>36.114766</ele>
        <time>2021-09-16T08:23:42.000Z</time>
      </trkpt>
      <trkpt lat="44.0971" lon="4.76071">
        <ele>36.100035</ele>
        <time>2021-09-16T08:23:43.000Z</time>
      </trkpt>
      <trkpt lat="44.09705" lon="4.76077">
        <ele>36.075721</ele>
        <time>2021-09-16T08:23:45.000Z</time>
      </trkpt>
      <trkpt lat="44.09708" lon="4.76074">
        <ele>36.062681</ele>
        <time>2021-09-16T08:23:47.000Z</time>
      </trkpt>
      <trkpt lat="44.09712" lon="4.76075">
        <ele>36.049636</ele>
        <time>2021-09-16T08:23:49.000Z</time>
      </trkpt>
      <trkpt lat="44.09707" lon="4.76074">
        <ele>36.034087</ele>
        <time>2021-09-16T08:23:50.000Z</time>
      </trkpt>
      <trkpt lat="44.09707" lon="4.76074">
        <ele>36.034087</ele>
        <time>2021-09-16T08:23:51.000Z</time>
      </trkpt>
      <trkpt lat="44.09693" lon="4.76088">
        <ele>35.971295</ele>
        <time>2021-09-16T08:23:52.000Z</time>
      </trkpt>
      <trkpt lat="44.09686" lon="4.76094">
        <ele>35.94348</ele>
        <time>2021-09-16T08:23:54.000Z</time>
      </trkpt>
      <trkpt lat="44.0967" lon="4.76108">
        <ele>35.874525</ele>
        <time>2021-09-16T08:23:58.000Z</time>
      </trkpt>
      <trkpt lat="44.09651" lon="4.76122">
        <ele>35.798606</ele>
        <time>2021-09-16T08:24:02.000Z</time>
      </trkpt>
      <trkpt lat="44.09646" lon="4.76125">
        <ele>35.779843</ele>
        <time>2021-09-16T08:24:03.000Z</time>
      </trkpt>
      <trkpt lat="44.09616" lon="4.76144">
        <ele>35.674259</ele>
        <time>2021-09-16T08:24:09.000Z</time>
      </trkpt>
      <trkpt lat="44.09586" lon="4.76163">
        <ele>35.569634</ele>
        <time>2021-09-16T08:24:15.000Z</time>
      </trkpt>
      <trkpt lat="44.09581" lon="4.76167">
        <ele>35.552213</ele>
        <time>2021-09-16T08:24:16.000Z</time>
      </trkpt>
      <trkpt lat="44.09565" lon="4.76175">
        <ele>35.499474</ele>
        <time>2021-09-16T08:24:19.000Z</time>
      </trkpt>
      <trkpt lat="44.09555" lon="4.7618">
        <ele>35.4656</ele>
        <time>2021-09-16T08:24:21.000Z</time>
      </trkpt>
      <trkpt lat="44.0955" lon="4.76183">
        <ele>35.449</ele>
        <time>2021-09-16T08:24:22.000Z</time>
      </trkpt>
      <trkpt lat="44.09523" lon="4.76194">
        <ele>35.360957</ele>
        <time>2021-09-16T08:24:27.000Z</time>
      </trkpt>
      <trkpt lat="44.09518" lon="4.76196">
        <ele>35.342777</ele>
        <time>2021-09-16T08:24:28.000Z</time>
      </trkpt>
      <trkpt lat="44.09503" lon="4.76201">
        <ele>35.29364</ele>
        <time>2021-09-16T08:24:31.000Z</time>
      </trkpt>
      <trkpt lat="44.09481" lon="4.76207">
        <ele>35.223813</ele>
        <time>2021-09-16T08:24:35.000Z</time>
      </trkpt>
      <trkpt lat="44.09454" lon="4.76212">
        <ele>35.163125</ele>
        <time>2021-09-16T08:24:40.000Z</time>
      </trkpt>
      <trkpt lat="44.09427" lon="4.76217">
        <ele>35.103491</ele>
        <time>2021-09-16T08:24:45.000Z</time>
      </trkpt>
      <trkpt lat="44.09388" lon="4.76224">
        <ele>35.017565</ele>
        <time>2021-09-16T08:24:52.000Z</time>
      </trkpt>
      <trkpt lat="44.09335" lon="4.76233">
        <ele>34.89962</ele>
        <time>2021-09-16T08:25:02.000Z</time>
      </trkpt>
      <trkpt lat="44.0933" lon="4.76234">
        <ele>34.887907</ele>
        <time>2021-09-16T08:25:03.000Z</time>
      </trkpt>
      <trkpt lat="44.09314" lon="4.76237">
        <ele>34.852786</ele>
        <time>2021-09-16T08:25:06.000Z</time>
      </trkpt>
      <trkpt lat="44.09271" lon="4.76245">
        <ele>34.743461</ele>
        <time>2021-09-16T08:25:14.000Z</time>
      </trkpt>
      <trkpt lat="44.09238" lon="4.76251">
        <ele>34.653026</ele>
        <time>2021-09-16T08:25:20.000Z</time>
      </trkpt>
      <trkpt lat="44.09226" lon="4.76253">
        <ele>34.622429</ele>
        <time>2021-09-16T08:25:22.000Z</time>
      </trkpt>
      <trkpt lat="44.09204" lon="4.76257">
        <ele>34.562516</ele>
        <time>2021-09-16T08:25:26.000Z</time>
      </trkpt>
      <trkpt lat="44.09193" lon="4.7626">
        <ele>34.531455</ele>
        <time>2021-09-16T08:25:28.000Z</time>
      </trkpt>
      <trkpt lat="44.09183" lon="4.76262">
        <ele>34.504495</ele>
        <time>2021-09-16T08:25:30.000Z</time>
      </trkpt>
      <trkpt lat="44.09178" lon="4.76264">
        <ele>34.489361</ele>
        <time>2021-09-16T08:25:31.000Z</time>
      </trkpt>
      <trkpt lat="44.09156" lon="4.7627">
        <ele>34.429395</ele>
        <time>2021-09-16T08:25:35.000Z</time>
      </trkpt>
      <trkpt lat="44.09123" lon="4.76278">
        <ele>34.340819</ele>
        <time>2021-09-16T08:25:41.000Z</time>
      </trkpt>
      <trkpt lat="44.09093" lon="4.76282">
        <ele>34.298553</ele>
        <time>2021-09-16T08:25:46.000Z</time>
      </trkpt>
      <trkpt lat="44.09054" lon="4.76284">
        <ele>34.242453</ele>
        <time>2021-09-16T08:25:53.000Z</time>
      </trkpt>
      <trkpt lat="44.09021" lon="4.76283">
        <ele>34.195524</ele>
        <time>2021-09-16T08:25:59.000Z</time>
      </trkpt>
      <trkpt lat="44.0899" lon="4.76283">
        <ele>34.150448</ele>
        <time>2021-09-16T08:26:05.000Z</time>
      </trkpt>
      <trkpt lat="44.08985" lon="4.76283">
        <ele>34.144172</ele>
        <time>2021-09-16T08:26:06.000Z</time>
      </trkpt>
      <trkpt lat="44.08981" lon="4.76283">
        <ele>34.138323</ele>
        <time>2021-09-16T08:26:07.000Z</time>
      </trkpt>
      <trkpt lat="44.08966" lon="4.76282">
        <ele>34.117496</ele>
        <time>2021-09-16T08:26:10.000Z</time>
      </trkpt>
      <trkpt lat="44.08962" lon="4.76282">
        <ele>34.111648</ele>
        <time>2021-09-16T08:26:11.000Z</time>
      </trkpt>
      <trkpt lat="44.08949" lon="4.76282">
        <ele>34.091963</ele>
        <time>2021-09-16T08:26:14.000Z</time>
      </trkpt>
      <trkpt lat="44.0893" lon="4.76282">
        <ele>34.124474</ele>
        <time>2021-09-16T08:26:18.000Z</time>
      </trkpt>
      <trkpt lat="44.08918" lon="4.76282">
        <ele>34.156455</ele>
        <time>2021-09-16T08:26:20.000Z</time>
      </trkpt>
      <trkpt lat="44.08901" lon="4.76281">
        <ele>34.203875</ele>
        <time>2021-09-16T08:26:23.000Z</time>
      </trkpt>
      <trkpt lat="44.08885" lon="4.76281">
        <ele>34.248812</ele>
        <time>2021-09-16T08:26:26.000Z</time>
      </trkpt>
      <trkpt lat="44.08873" lon="4.76281">
        <ele>34.282172</ele>
        <time>2021-09-16T08:26:28.000Z</time>
      </trkpt>
      <trkpt lat="44.08833" lon="4.7628">
        <ele>34.390522</ele>
        <time>2021-09-16T08:26:35.000Z</time>
      </trkpt>
      <trkpt lat="44.08828" lon="4.7628">
        <ele>34.403756</ele>
        <time>2021-09-16T08:26:36.000Z</time>
      </trkpt>
      <trkpt lat="44.08819" lon="4.7628">
        <ele>34.430498</ele>
        <time>2021-09-16T08:26:38.000Z</time>
      </trkpt>
      <trkpt lat="44.08814" lon="4.7628">
        <ele>34.444833</ele>
        <time>2021-09-16T08:26:39.000Z</time>
      </trkpt>
      <trkpt lat="44.08808" lon="4.7628">
        <ele>34.459168</ele>
        <time>2021-09-16T08:26:40.000Z</time>
      </trkpt>
      <trkpt lat="44.08798" lon="4.7628">
        <ele>34.487288</ele>
        <time>2021-09-16T08:26:42.000Z</time>
      </trkpt>
      <trkpt lat="44.08793" lon="4.7628">
        <ele>34.500796</ele>
        <time>2021-09-16T08:26:43.000Z</time>
      </trkpt>
      <trkpt lat="44.08774" lon="4.76279">
        <ele>34.55375</ele>
        <time>2021-09-16T08:26:47.000Z</time>
      </trkpt>
      <trkpt lat="44.08769" lon="4.76279">
        <ele>34.568366</ele>
        <time>2021-09-16T08:26:48.000Z</time>
      </trkpt>
      <trkpt lat="44.08752" lon="4.76278">
        <ele>34.608032</ele>
        <time>2021-09-16T08:26:51.000Z</time>
      </trkpt>
      <trkpt lat="44.0874" lon="4.76277">
        <ele>34.634751</ele>
        <time>2021-09-16T08:26:53.000Z</time>
      </trkpt>
      <trkpt lat="44.08717" lon="4.76275">
        <ele>34.687193</ele>
        <time>2021-09-16T08:26:57.000Z</time>
      </trkpt>
      <trkpt lat="44.08706" lon="4.76272">
        <ele>34.710266</ele>
        <time>2021-09-16T08:26:59.000Z</time>
      </trkpt>
      <trkpt lat="44.08696" lon="4.7627">
        <ele>34.734681</ele>
        <time>2021-09-16T08:27:01.000Z</time>
      </trkpt>
      <trkpt lat="44.08679" lon="4.76266">
        <ele>34.7711</ele>
        <time>2021-09-16T08:27:04.000Z</time>
      </trkpt>
      <trkpt lat="44.08652" lon="4.76258">
        <ele>34.833173</ele>
        <time>2021-09-16T08:27:09.000Z</time>
      </trkpt>
      <trkpt lat="44.08625" lon="4.7625">
        <ele>34.894152</ele>
        <time>2021-09-16T08:27:14.000Z</time>
      </trkpt>
      <trkpt lat="44.08582" lon="4.76233">
        <ele>34.987746</ele>
        <time>2021-09-16T08:27:22.000Z</time>
      </trkpt>
      <trkpt lat="44.08545" lon="4.76218">
        <ele>35.034297</ele>
        <time>2021-09-16T08:27:29.000Z</time>
      </trkpt>
      <trkpt lat="44.08519" lon="4.76207">
        <ele>35.066932</ele>
        <time>2021-09-16T08:27:34.000Z</time>
      </trkpt>
      <trkpt lat="44.08478" lon="4.7619">
        <ele>35.119078</ele>
        <time>2021-09-16T08:27:42.000Z</time>
      </trkpt>
      <trkpt lat="44.0845" lon="4.76178">
        <ele>35.154523</ele>
        <time>2021-09-16T08:27:48.000Z</time>
      </trkpt>
      <trkpt lat="44.0844" lon="4.76174">
        <ele>35.166981</ele>
        <time>2021-09-16T08:27:50.000Z</time>
      </trkpt>
      <trkpt lat="44.08425" lon="4.76168">
        <ele>35.1857</ele>
        <time>2021-09-16T08:27:53.000Z</time>
      </trkpt>
      <trkpt lat="44.08388" lon="4.76154">
        <ele>35.133401</ele>
        <time>2021-09-16T08:28:00.000Z</time>
      </trkpt>
      <trkpt lat="44.08346" lon="4.76138">
        <ele>35.030367</ele>
        <time>2021-09-16T08:28:08.000Z</time>
      </trkpt>
      <trkpt lat="44.08303" lon="4.76125">
        <ele>34.928087</ele>
        <time>2021-09-16T08:28:16.000Z</time>
      </trkpt>
      <trkpt lat="44.0827" lon="4.76118">
        <ele>34.850639</ele>
        <time>2021-09-16T08:28:22.000Z</time>
      </trkpt>
      <trkpt lat="44.08231" lon="4.76112">
        <ele>34.681552</ele>
        <time>2021-09-16T08:28:29.000Z</time>
      </trkpt>
      <trkpt lat="44.08198" lon="4.76111">
        <ele>34.280191</ele>
        <time>2021-09-16T08:28:35.000Z</time>
      </trkpt>
      <trkpt lat="44.08192" lon="4.76111">
        <ele>34.20382</ele>
        <time>2021-09-16T08:28:36.000Z</time>
      </trkpt>
      <trkpt lat="44.08182" lon="4.76111">
        <ele>34.077731</ele>
        <time>2021-09-16T08:28:38.000Z</time>
      </trkpt>
      <trkpt lat="44.08171" lon="4.76111">
        <ele>33.94924</ele>
        <time>2021-09-16T08:28:40.000Z</time>
      </trkpt>
      <trkpt lat="44.08161" lon="4.76112">
        <ele>33.824166</ele>
        <time>2021-09-16T08:28:42.000Z</time>
      </trkpt>
      <trkpt lat="44.0815" lon="4.76113">
        <ele>33.692927</ele>
        <time>2021-09-16T08:28:44.000Z</time>
      </trkpt>
      <trkpt lat="44.08144" lon="4.76115">
        <ele>33.623062</ele>
        <time>2021-09-16T08:28:46.000Z</time>
      </trkpt>
      <trkpt lat="44.08128" lon="4.76119">
        <ele>33.41874</ele>
        <time>2021-09-16T08:28:48.000Z</time>
      </trkpt>
      <trkpt lat="44.08122" lon="4.7612">
        <ele>33.350979</ele>
        <time>2021-09-16T08:28:49.000Z</time>
      </trkpt>
      <trkpt lat="44.08102" lon="4.76125">
        <ele>33.10248</ele>
        <time>2021-09-16T08:28:53.000Z</time>
      </trkpt>
      <trkpt lat="44.08093" lon="4.76127">
        <ele>32.988006</ele>
        <time>2021-09-16T08:28:55.000Z</time>
      </trkpt>
      <trkpt lat="44.08081" lon="4.7613">
        <ele>32.842633</ele>
        <time>2021-09-16T08:28:57.000Z</time>
      </trkpt>
      <trkpt lat="44.08063" lon="4.76135">
        <ele>32.627267</ele>
        <time>2021-09-16T08:29:00.000Z</time>
      </trkpt>
      <trkpt lat="44.08041" lon="4.76142">
        <ele>32.590737</ele>
        <time>2021-09-16T08:29:04.000Z</time>
      </trkpt>
      <trkpt lat="44.08003" lon="4.76159">
        <ele>32.576006</ele>
        <time>2021-09-16T08:29:11.000Z</time>
      </trkpt>
      <trkpt lat="44.07981" lon="4.76173">
        <ele>32.566941</ele>
        <time>2021-09-16T08:29:16.000Z</time>
      </trkpt>
      <trkpt lat="44.07978" lon="4.76176">
        <ele>32.565551</ele>
        <time>2021-09-16T08:29:17.000Z</time>
      </trkpt>
      <trkpt lat="44.07967" lon="4.76186">
        <ele>32.560718</ele>
        <time>2021-09-16T08:29:21.000Z</time>
      </trkpt>
      <trkpt lat="44.07966" lon="4.76187">
        <ele>32.560048</ele>
        <time>2021-09-16T08:29:22.000Z</time>
      </trkpt>
      <trkpt lat="44.07961" lon="4.76191">
        <ele>32.558035</ele>
        <time>2021-09-16T08:29:25.000Z</time>
      </trkpt>
      <trkpt lat="44.07943" lon="4.76189">
        <ele>32.55116</ele>
        <time>2021-09-16T08:29:31.000Z</time>
      </trkpt>
      <trkpt lat="44.07926" lon="4.76204">
        <ele>32.543766</ele>
        <time>2021-09-16T08:29:37.000Z</time>
      </trkpt>
      <trkpt lat="44.07909" lon="4.7622">
        <ele>32.536098</ele>
        <time>2021-09-16T08:29:42.000Z</time>
      </trkpt>
      <trkpt lat="44.07881" lon="4.76247">
        <ele>32.617077</ele>
        <time>2021-09-16T08:29:50.000Z</time>
      </trkpt>
      <trkpt lat="44.07851" lon="4.76275">
        <ele>32.760621</ele>
        <time>2021-09-16T08:29:56.000Z</time>
      </trkpt>
      <trkpt lat="44.07847" lon="4.76279">
        <ele>32.778705</ele>
        <time>2021-09-16T08:29:57.000Z</time>
      </trkpt>
      <trkpt lat="44.07834" lon="4.76291">
        <ele>32.840547</ele>
        <time>2021-09-16T08:30:00.000Z</time>
      </trkpt>
      <trkpt lat="44.07797" lon="4.76326">
        <ele>33.016386</ele>
        <time>2021-09-16T08:30:08.000Z</time>
      </trkpt>
      <trkpt lat="44.0776" lon="4.76361">
        <ele>33.192709</ele>
        <time>2021-09-16T08:30:16.000Z</time>
      </trkpt>
      <trkpt lat="44.07756" lon="4.76365">
        <ele>33.21273</ele>
        <time>2021-09-16T08:30:17.000Z</time>
      </trkpt>
      <trkpt lat="44.07737" lon="4.76383">
        <ele>33.272546</ele>
        <time>2021-09-16T08:30:21.000Z</time>
      </trkpt>
      <trkpt lat="44.07696" lon="4.76428">
        <ele>33.380844</ele>
        <time>2021-09-16T08:30:30.000Z</time>
      </trkpt>
      <trkpt lat="44.07658" lon="4.76475">
        <ele>33.485466</ele>
        <time>2021-09-16T08:30:39.000Z</time>
      </trkpt>
      <trkpt lat="44.07617" lon="4.76528">
        <ele>33.601531</ele>
        <time>2021-09-16T08:30:49.000Z</time>
      </trkpt>
      <trkpt lat="44.07613" lon="4.76534">
        <ele>33.613403</ele>
        <time>2021-09-16T08:30:50.000Z</time>
      </trkpt>
      <trkpt lat="44.07583" lon="4.76578">
        <ele>33.719321</ele>
        <time>2021-09-16T08:30:58.000Z</time>
      </trkpt>
      <trkpt lat="44.07556" lon="4.76624">
        <ele>33.821924</ele>
        <time>2021-09-16T08:31:06.000Z</time>
      </trkpt>
      <trkpt lat="44.0753" lon="4.7667">
        <ele>33.924536</ele>
        <time>2021-09-16T08:31:14.000Z</time>
      </trkpt>
      <trkpt lat="44.07505" lon="4.7672">
        <ele>34.029914</ele>
        <time>2021-09-16T08:31:22.000Z</time>
      </trkpt>
      <trkpt lat="44.075" lon="4.76732">
        <ele>34.020544</ele>
        <time>2021-09-16T08:31:24.000Z</time>
      </trkpt>
      <trkpt lat="44.07492" lon="4.7675">
        <ele>33.896523</ele>
        <time>2021-09-16T08:31:27.000Z</time>
      </trkpt>
      <trkpt lat="44.0749" lon="4.76756">
        <ele>33.854043</ele>
        <time>2021-09-16T08:31:28.000Z</time>
      </trkpt>
      <trkpt lat="44.0748" lon="4.76781">
        <ele>33.686776</ele>
        <time>2021-09-16T08:31:32.000Z</time>
      </trkpt>
      <trkpt lat="44.07474" lon="4.76798">
        <ele>33.571846</ele>
        <time>2021-09-16T08:31:35.000Z</time>
      </trkpt>
      <trkpt lat="44.0747" lon="4.76807">
        <ele>33.504909</ele>
        <time>2021-09-16T08:31:37.000Z</time>
      </trkpt>
      <trkpt lat="44.075" lon="4.76826">
        <ele>33.228738</ele>
        <time>2021-09-16T08:31:40.000Z</time>
      </trkpt>
      <trkpt lat="44.07502" lon="4.76833">
        <ele>33.183752</ele>
        <time>2021-09-16T08:31:42.000Z</time>
      </trkpt>
      <trkpt lat="44.07507" lon="4.76853">
        <ele>33.058279</ele>
        <time>2021-09-16T08:31:44.000Z</time>
      </trkpt>
      <trkpt lat="44.07511" lon="4.76864">
        <ele>32.986601</ele>
        <time>2021-09-16T08:31:46.000Z</time>
      </trkpt>
      <trkpt lat="44.07514" lon="4.76869">
        <ele>32.945466</ele>
        <time>2021-09-16T08:31:47.000Z</time>
      </trkpt>
      <trkpt lat="44.0754" lon="4.76898">
        <ele>32.668651</ele>
        <time>2021-09-16T08:31:53.000Z</time>
      </trkpt>
      <trkpt lat="44.07571" lon="4.7691">
        <ele>32.446046</ele>
        <time>2021-09-16T08:31:59.000Z</time>
      </trkpt>
      <trkpt lat="44.0759" lon="4.76915">
        <ele>32.33515</ele>
        <time>2021-09-16T08:32:03.000Z</time>
      </trkpt>
      <trkpt lat="44.07605" lon="4.76918">
        <ele>32.246804</ele>
        <time>2021-09-16T08:32:06.000Z</time>
      </trkpt>
      <trkpt lat="44.07628" lon="4.76924">
        <ele>32.107858</ele>
        <time>2021-09-16T08:32:11.000Z</time>
      </trkpt>
      <trkpt lat="44.0765" lon="4.7693">
        <ele>31.977648</ele>
        <time>2021-09-16T08:32:15.000Z</time>
      </trkpt>
      <trkpt lat="44.07655" lon="4.76931">
        <ele>31.945981</ele>
        <time>2021-09-16T08:32:16.000Z</time>
      </trkpt>
      <trkpt lat="44.07681" lon="4.76946">
        <ele>31.779136</ele>
        <time>2021-09-16T08:32:21.000Z</time>
      </trkpt>
      <trkpt lat="44.07691" lon="4.76957">
        <ele>31.705423</ele>
        <time>2021-09-16T08:32:24.000Z</time>
      </trkpt>
      <trkpt lat="44.07695" lon="4.76962">
        <ele>31.675015</ele>
        <time>2021-09-16T08:32:25.000Z</time>
      </trkpt>
      <trkpt lat="44.07701" lon="4.76978">
        <ele>31.598154</ele>
        <time>2021-09-16T08:32:27.000Z</time>
      </trkpt>
      <trkpt lat="44.07705" lon="4.76989">
        <ele>31.547265</ele>
        <time>2021-09-16T08:32:29.000Z</time>
      </trkpt>
      <trkpt lat="44.07707" lon="4.77004">
        <ele>31.50479</ele>
        <time>2021-09-16T08:32:31.000Z</time>
      </trkpt>
      <trkpt lat="44.07705" lon="4.77036">
        <ele>31.622695</ele>
        <time>2021-09-16T08:32:34.000Z</time>
      </trkpt>
      <trkpt lat="44.07703" lon="4.77042">
        <ele>31.650008</ele>
        <time>2021-09-16T08:32:35.000Z</time>
      </trkpt>
      <trkpt lat="44.07692" lon="4.77076">
        <ele>31.786704</ele>
        <time>2021-09-16T08:32:40.000Z</time>
      </trkpt>
      <trkpt lat="44.07684" lon="4.77095">
        <ele>31.866629</ele>
        <time>2021-09-16T08:32:43.000Z</time>
      </trkpt>
      <trkpt lat="44.07666" lon="4.77131">
        <ele>32.028153</ele>
        <time>2021-09-16T08:32:49.000Z</time>
      </trkpt>
      <trkpt lat="44.07661" lon="4.77142">
        <ele>32.078591</ele>
        <time>2021-09-16T08:32:51.000Z</time>
      </trkpt>
      <trkpt lat="44.07645" lon="4.77164">
        <ele>32.192568</ele>
        <time>2021-09-16T08:32:56.000Z</time>
      </trkpt>
      <trkpt lat="44.07628" lon="4.7718">
        <ele>32.300293</ele>
        <time>2021-09-16T08:33:01.000Z</time>
      </trkpt>
      <trkpt lat="44.07617" lon="4.77186">
        <ele>32.359121</ele>
        <time>2021-09-16T08:33:06.000Z</time>
      </trkpt>
      <trkpt lat="44.07607" lon="4.77169">
        <ele>32.447267</ele>
        <time>2021-09-16T08:33:09.000Z</time>
      </trkpt>
      <trkpt lat="44.07594" lon="4.77154">
        <ele>32.555774</ele>
        <time>2021-09-16T08:33:14.000Z</time>
      </trkpt>
      <trkpt lat="44.07583" lon="4.77141">
        <ele>32.654011</ele>
        <time>2021-09-16T08:33:20.000Z</time>
      </trkpt>
      <trkpt lat="44.07573" lon="4.7713">
        <ele>32.73356</ele>
        <time>2021-09-16T08:33:25.000Z</time>
      </trkpt>
      <trkpt lat="44.07561" lon="4.77118">
        <ele>32.829988</ele>
        <time>2021-09-16T08:33:30.000Z</time>
      </trkpt>
      <trkpt lat="44.07541" lon="4.77101">
        <ele>32.986894</ele>
        <time>2021-09-16T08:33:37.000Z</time>
      </trkpt>
      <trkpt lat="44.0752" lon="4.77086">
        <ele>33.139363</ele>
        <time>2021-09-16T08:33:41.000Z</time>
      </trkpt>
      <trkpt lat="44.07512" lon="4.7708">
        <ele>33.198206</ele>
        <time>2021-09-16T08:33:43.000Z</time>
      </trkpt>
      <trkpt lat="44.07493" lon="4.77069">
        <ele>33.328685</ele>
        <time>2021-09-16T08:33:48.000Z</time>
      </trkpt>
      <trkpt lat="44.0748" lon="4.7706">
        <ele>33.423938</ele>
        <time>2021-09-16T08:33:50.000Z</time>
      </trkpt>
      <trkpt lat="44.07467" lon="4.77052">
        <ele>33.518425</ele>
        <time>2021-09-16T08:33:53.000Z</time>
      </trkpt>
      <trkpt lat="44.07444" lon="4.77039">
        <ele>33.628026</ele>
        <time>2021-09-16T08:33:58.000Z</time>
      </trkpt>
      <trkpt lat="44.07414" lon="4.77021">
        <ele>33.71699</ele>
        <time>2021-09-16T08:34:05.000Z</time>
      </trkpt>
      <trkpt lat="44.07394" lon="4.7701">
        <ele>33.773725</ele>
        <time>2021-09-16T08:34:10.000Z</time>
      </trkpt>
      <trkpt lat="44.07387" lon="4.77006">
        <ele>33.796279</ele>
        <time>2021-09-16T08:34:12.000Z</time>
      </trkpt>
      <trkpt lat="44.07374" lon="4.76999">
        <ele>33.83236</ele>
        <time>2021-09-16T08:34:15.000Z</time>
      </trkpt>
      <trkpt lat="44.07362" lon="4.76992">
        <ele>33.868116</ele>
        <time>2021-09-16T08:34:18.000Z</time>
      </trkpt>
      <trkpt lat="44.0733" lon="4.7698">
        <ele>33.958575</ele>
        <time>2021-09-16T08:34:23.000Z</time>
      </trkpt>
      <trkpt lat="44.07328" lon="4.76985">
        <ele>33.969231</ele>
        <time>2021-09-16T08:34:25.000Z</time>
      </trkpt>
      <trkpt lat="44.07324" lon="4.77002">
        <ele>34.004044</ele>
        <time>2021-09-16T08:34:26.000Z</time>
      </trkpt>
      <trkpt lat="44.07315" lon="4.7705">
        <ele>34.06345</ele>
        <time>2021-09-16T08:34:34.000Z</time>
      </trkpt>
      <trkpt lat="44.073" lon="4.7711">
        <ele>33.973876</ele>
        <time>2021-09-16T08:34:43.000Z</time>
      </trkpt>
      <trkpt lat="44.07292" lon="4.77135">
        <ele>33.934823</ele>
        <time>2021-09-16T08:34:47.000Z</time>
      </trkpt>
      <trkpt lat="44.07286" lon="4.77146">
        <ele>33.915209</ele>
        <time>2021-09-16T08:34:49.000Z</time>
      </trkpt>
      <trkpt lat="44.07274" lon="4.77168">
        <ele>33.876388</ele>
        <time>2021-09-16T08:34:53.000Z</time>
      </trkpt>
      <trkpt lat="44.07271" lon="4.77175">
        <ele>33.865215</ele>
        <time>2021-09-16T08:34:54.000Z</time>
      </trkpt>
      <trkpt lat="44.07268" lon="4.77183">
        <ele>33.853112</ele>
        <time>2021-09-16T08:34:55.000Z</time>
      </trkpt>
      <trkpt lat="44.07264" lon="4.77199">
        <ele>33.828683</ele>
        <time>2021-09-16T08:34:58.000Z</time>
      </trkpt>
      <trkpt lat="44.07248" lon="4.77276">
        <ele>33.724014</ele>
        <time>2021-09-16T08:35:06.000Z</time>
      </trkpt>
      <trkpt lat="44.07237" lon="4.77341">
        <ele>33.706486</ele>
        <time>2021-09-16T08:35:14.000Z</time>
      </trkpt>
      <trkpt lat="44.07237" lon="4.77373">
        <ele>33.697987</ele>
        <time>2021-09-16T08:35:19.000Z</time>
      </trkpt>
      <trkpt lat="44.07236" lon="4.77407">
        <ele>33.689018</ele>
        <time>2021-09-16T08:35:25.000Z</time>
      </trkpt>
      <trkpt lat="44.0723" lon="4.77446">
        <ele>33.678286</ele>
        <time>2021-09-16T08:35:31.000Z</time>
      </trkpt>
      <trkpt lat="44.07216" lon="4.7752">
        <ele>33.665089</ele>
        <time>2021-09-16T08:35:41.000Z</time>
      </trkpt>
      <trkpt lat="44.07215" lon="4.77527">
        <ele>33.67217</ele>
        <time>2021-09-16T08:35:42.000Z</time>
      </trkpt>
      <trkpt lat="44.07203" lon="4.77593">
        <ele>33.737668</ele>
        <time>2021-09-16T08:35:51.000Z</time>
      </trkpt>
      <trkpt lat="44.07189" lon="4.77669">
        <ele>33.812411</ele>
        <time>2021-09-16T08:36:01.000Z</time>
      </trkpt>
      <trkpt lat="44.07187" lon="4.77677">
        <ele>33.82002</ele>
        <time>2021-09-16T08:36:02.000Z</time>
      </trkpt>
      <trkpt lat="44.07174" lon="4.77745">
        <ele>33.887483</ele>
        <time>2021-09-16T08:36:11.000Z</time>
      </trkpt>
      <trkpt lat="44.07159" lon="4.77822">
        <ele>33.88109</ele>
        <time>2021-09-16T08:36:21.000Z</time>
      </trkpt>
      <trkpt lat="44.07156" lon="4.77838">
        <ele>33.876982</ele>
        <time>2021-09-16T08:36:23.000Z</time>
      </trkpt>
      <trkpt lat="44.07141" lon="4.77915">
        <ele>33.856708</ele>
        <time>2021-09-16T08:36:33.000Z</time>
      </trkpt>
      <trkpt lat="44.0714" lon="4.77923">
        <ele>33.854713</ele>
        <time>2021-09-16T08:36:34.000Z</time>
      </trkpt>
      <trkpt lat="44.07126" lon="4.77999">
        <ele>33.835171</ele>
        <time>2021-09-16T08:36:44.000Z</time>
      </trkpt>
      <trkpt lat="44.07112" lon="4.78075">
        <ele>33.869077</ele>
        <time>2021-09-16T08:36:54.000Z</time>
      </trkpt>
      <trkpt lat="44.07099" lon="4.78143">
        <ele>33.899501</ele>
        <time>2021-09-16T08:37:04.000Z</time>
      </trkpt>
      <trkpt lat="44.07084" lon="4.7821">
        <ele>33.930199</ele>
        <time>2021-09-16T08:37:12.000Z</time>
      </trkpt>
      <trkpt lat="44.07073" lon="4.78254">
        <ele>33.968604</ele>
        <time>2021-09-16T08:37:18.000Z</time>
      </trkpt>
      <trkpt lat="44.07069" lon="4.78269">
        <ele>33.994085</ele>
        <time>2021-09-16T08:37:20.000Z</time>
      </trkpt>
      <trkpt lat="44.07061" lon="4.783">
        <ele>34.046177</ele>
        <time>2021-09-16T08:37:25.000Z</time>
      </trkpt>
      <trkpt lat="44.07051" lon="4.78336">
        <ele>34.108868</ele>
        <time>2021-09-16T08:37:31.000Z</time>
      </trkpt>
      <trkpt lat="44.07037" lon="4.78376">
        <ele>34.179235</ele>
        <time>2021-09-16T08:37:36.000Z</time>
      </trkpt>
      <trkpt lat="44.07015" lon="4.78435">
        <ele>34.286624</ele>
        <time>2021-09-16T08:37:44.000Z</time>
      </trkpt>
      <trkpt lat="44.0699" lon="4.78494">
        <ele>34.375597</ele>
        <time>2021-09-16T08:37:53.000Z</time>
      </trkpt>
      <trkpt lat="44.06963" lon="4.78552">
        <ele>34.441655</ele>
        <time>2021-09-16T08:38:00.000Z</time>
      </trkpt>
      <trkpt lat="44.06931" lon="4.78614">
        <ele>34.516061</ele>
        <time>2021-09-16T08:38:09.000Z</time>
      </trkpt>
      <trkpt lat="44.06897" lon="4.78671">
        <ele>34.584897</ele>
        <time>2021-09-16T08:38:18.000Z</time>
      </trkpt>
      <trkpt lat="44.06858" lon="4.78732">
        <ele>34.56214</ele>
        <time>2021-09-16T08:38:28.000Z</time>
      </trkpt>
      <trkpt lat="44.06815" lon="4.78789">
        <ele>34.539037</ele>
        <time>2021-09-16T08:38:38.000Z</time>
      </trkpt>
      <trkpt lat="44.06807" lon="4.78801">
        <ele>34.534338</ele>
        <time>2021-09-16T08:38:40.000Z</time>
      </trkpt>
      <trkpt lat="44.06766" lon="4.78847">
        <ele>34.500285</ele>
        <time>2021-09-16T08:38:49.000Z</time>
      </trkpt>
      <trkpt lat="44.0675" lon="4.78865">
        <ele>34.41661</ele>
        <time>2021-09-16T08:38:53.000Z</time>
      </trkpt>
      <trkpt lat="44.06743" lon="4.78872">
        <ele>34.379091</ele>
        <time>2021-09-16T08:38:55.000Z</time>
      </trkpt>
      <trkpt lat="44.0674" lon="4.78876">
        <ele>34.361257</ele>
        <time>2021-09-16T08:38:56.000Z</time>
      </trkpt>
      <trkpt lat="44.06729" lon="4.78888">
        <ele>34.305863</ele>
        <time>2021-09-16T08:38:59.000Z</time>
      </trkpt>
      <trkpt lat="44.06727" lon="4.78893">
        <ele>34.287777</ele>
        <time>2021-09-16T08:39:00.000Z</time>
      </trkpt>
      <trkpt lat="44.06724" lon="4.78899">
        <ele>34.267009</ele>
        <time>2021-09-16T08:39:01.000Z</time>
      </trkpt>
      <trkpt lat="44.06721" lon="4.78911">
        <ele>34.228007</ele>
        <time>2021-09-16T08:39:03.000Z</time>
      </trkpt>
      <trkpt lat="44.06726" lon="4.78924">
        <ele>34.183573</ele>
        <time>2021-09-16T08:39:05.000Z</time>
      </trkpt>
      <trkpt lat="44.06729" lon="4.7893">
        <ele>34.161381</ele>
        <time>2021-09-16T08:39:06.000Z</time>
      </trkpt>
      <trkpt lat="44.06743" lon="4.78959">
        <ele>34.056711</ele>
        <time>2021-09-16T08:39:11.000Z</time>
      </trkpt>
      <trkpt lat="44.06745" lon="4.78964">
        <ele>34.040551</ele>
        <time>2021-09-16T08:39:12.000Z</time>
      </trkpt>
      <trkpt lat="44.06733" lon="4.78982">
        <ele>33.965801</ele>
        <time>2021-09-16T08:39:15.000Z</time>
      </trkpt>
      <trkpt lat="44.06707" lon="4.79002">
        <ele>33.844202</ele>
        <time>2021-09-16T08:39:19.000Z</time>
      </trkpt>
      <trkpt lat="44.0666" lon="4.79038">
        <ele>33.443327</ele>
        <time>2021-09-16T08:39:26.000Z</time>
      </trkpt>
      <trkpt lat="44.06622" lon="4.79061">
        <ele>33.060203</ele>
        <time>2021-09-16T08:39:32.000Z</time>
      </trkpt>
      <trkpt lat="44.06604" lon="4.79073">
        <ele>32.877517</ele>
        <time>2021-09-16T08:39:35.000Z</time>
      </trkpt>
      <trkpt lat="44.06598" lon="4.79077">
        <ele>32.814311</ele>
        <time>2021-09-16T08:39:36.000Z</time>
      </trkpt>
      <trkpt lat="44.06563" lon="4.79098">
        <ele>32.463074</ele>
        <time>2021-09-16T08:39:42.000Z</time>
      </trkpt>
      <trkpt lat="44.06552" lon="4.79105">
        <ele>32.351901</ele>
        <time>2021-09-16T08:39:44.000Z</time>
      </trkpt>
      <trkpt lat="44.06534" lon="4.79115">
        <ele>32.181026</ele>
        <time>2021-09-16T08:39:47.000Z</time>
      </trkpt>
      <trkpt lat="44.06511" lon="4.79127">
        <ele>32.041363</ele>
        <time>2021-09-16T08:39:51.000Z</time>
      </trkpt>
      <trkpt lat="44.06506" lon="4.79129">
        <ele>32.015721</ele>
        <time>2021-09-16T08:39:52.000Z</time>
      </trkpt>
      <trkpt lat="44.06483" lon="4.79141">
        <ele>31.907959</ele>
        <time>2021-09-16T08:39:56.000Z</time>
      </trkpt>
      <trkpt lat="44.06478" lon="4.79143">
        <ele>31.88221</ele>
        <time>2021-09-16T08:39:57.000Z</time>
      </trkpt>
      <trkpt lat="44.06468" lon="4.79148">
        <ele>31.833258</ele>
        <time>2021-09-16T08:39:59.000Z</time>
      </trkpt>
      <trkpt lat="44.06462" lon="4.79151">
        <ele>31.808774</ele>
        <time>2021-09-16T08:40:00.000Z</time>
      </trkpt>
      <trkpt lat="44.06457" lon="4.79153">
        <ele>31.785242</ele>
        <time>2021-09-16T08:40:01.000Z</time>
      </trkpt>
      <trkpt lat="44.06441" lon="4.7916">
        <ele>31.706496</ele>
        <time>2021-09-16T08:40:04.000Z</time>
      </trkpt>
      <trkpt lat="44.06414" lon="4.79172">
        <ele>31.581115</ele>
        <time>2021-09-16T08:40:09.000Z</time>
      </trkpt>
      <trkpt lat="44.06409" lon="4.79175">
        <ele>31.55663</ele>
        <time>2021-09-16T08:40:10.000Z</time>
      </trkpt>
      <trkpt lat="44.06404" lon="4.79177">
        <ele>31.53267</ele>
        <time>2021-09-16T08:40:11.000Z</time>
      </trkpt>
      <trkpt lat="44.06396" lon="4.79182">
        <ele>31.492624</ele>
        <time>2021-09-16T08:40:13.000Z</time>
      </trkpt>
      <trkpt lat="44.06392" lon="4.79184">
        <ele>31.476341</ele>
        <time>2021-09-16T08:40:14.000Z</time>
      </trkpt>
      <trkpt lat="44.06387" lon="4.79187">
        <ele>31.448117</ele>
        <time>2021-09-16T08:40:16.000Z</time>
      </trkpt>
      <trkpt lat="44.06384" lon="4.79188">
        <ele>31.438197</ele>
        <time>2021-09-16T08:40:17.000Z</time>
      </trkpt>
      <trkpt lat="44.06376" lon="4.79189">
        <ele>31.402054</ele>
        <time>2021-09-16T08:40:19.000Z</time>
      </trkpt>
      <trkpt lat="44.06367" lon="4.79191">
        <ele>31.359112</ele>
        <time>2021-09-16T08:40:21.000Z</time>
      </trkpt>
      <trkpt lat="44.0635" lon="4.79193">
        <ele>31.348824</ele>
        <time>2021-09-16T08:40:24.000Z</time>
      </trkpt>
      <trkpt lat="44.06338" lon="4.79195">
        <ele>31.398218</ele>
        <time>2021-09-16T08:40:26.000Z</time>
      </trkpt>
      <trkpt lat="44.06302" lon="4.79205">
        <ele>31.550345</ele>
        <time>2021-09-16T08:40:32.000Z</time>
      </trkpt>
      <trkpt lat="44.06261" lon="4.79214">
        <ele>31.723215</ele>
        <time>2021-09-16T08:40:39.000Z</time>
      </trkpt>
      <trkpt lat="44.06217" lon="4.79219">
        <ele>31.907132</ele>
        <time>2021-09-16T08:40:47.000Z</time>
      </trkpt>
      <trkpt lat="44.06192" lon="4.79221">
        <ele>32.011378</ele>
        <time>2021-09-16T08:40:52.000Z</time>
      </trkpt>
      <trkpt lat="44.06187" lon="4.79222">
        <ele>32.031832</ele>
        <time>2021-09-16T08:40:53.000Z</time>
      </trkpt>
      <trkpt lat="44.06152" lon="4.79223">
        <ele>32.084135</ele>
        <time>2021-09-16T08:41:00.000Z</time>
      </trkpt>
      <trkpt lat="44.06136" lon="4.79223">
        <ele>32.095631</ele>
        <time>2021-09-16T08:41:03.000Z</time>
      </trkpt>
      <trkpt lat="44.0612" lon="4.79224">
        <ele>32.107493</ele>
        <time>2021-09-16T08:41:06.000Z</time>
      </trkpt>
      <trkpt lat="44.06093" lon="4.79221">
        <ele>32.127115</ele>
        <time>2021-09-16T08:41:11.000Z</time>
      </trkpt>
      <trkpt lat="44.06046" lon="4.79212">
        <ele>32.16224</ele>
        <time>2021-09-16T08:41:20.000Z</time>
      </trkpt>
      <trkpt lat="44.0604" lon="4.79211">
        <ele>32.166301</ele>
        <time>2021-09-16T08:41:21.000Z</time>
      </trkpt>
      <trkpt lat="44.06023" lon="4.79208">
        <ele>32.178921</ele>
        <time>2021-09-16T08:41:24.000Z</time>
      </trkpt>
      <trkpt lat="44.05971" lon="4.79198">
        <ele>32.001059</ele>
        <time>2021-09-16T08:41:33.000Z</time>
      </trkpt>
      <trkpt lat="44.05932" lon="4.79188">
        <ele>31.73209</ele>
        <time>2021-09-16T08:41:40.000Z</time>
      </trkpt>
      <trkpt lat="44.05881" lon="4.79176">
        <ele>31.387845</ele>
        <time>2021-09-16T08:41:49.000Z</time>
      </trkpt>
      <trkpt lat="44.05836" lon="4.79165">
        <ele>31.087648</ele>
        <time>2021-09-16T08:41:57.000Z</time>
      </trkpt>
      <trkpt lat="44.05805" lon="4.79157">
        <ele>30.895947</ele>
        <time>2021-09-16T08:42:03.000Z</time>
      </trkpt>
      <trkpt lat="44.05773" lon="4.79149">
        <ele>30.721782</ele>
        <time>2021-09-16T08:42:09.000Z</time>
      </trkpt>
      <trkpt lat="44.05724" lon="4.79138">
        <ele>30.457133</ele>
        <time>2021-09-16T08:42:18.000Z</time>
      </trkpt>
      <trkpt lat="44.05691" lon="4.79132">
        <ele>30.28096</ele>
        <time>2021-09-16T08:42:24.000Z</time>
      </trkpt>
      <trkpt lat="44.05655" lon="4.79125">
        <ele>30.084244</ele>
        <time>2021-09-16T08:42:31.000Z</time>
      </trkpt>
      <trkpt lat="44.0564" lon="4.79123">
        <ele>30.016073</ele>
        <time>2021-09-16T08:42:34.000Z</time>
      </trkpt>
      <trkpt lat="44.05627" lon="4.79125">
        <ele>29.973888</ele>
        <time>2021-09-16T08:42:37.000Z</time>
      </trkpt>
      <trkpt lat="44.05616" lon="4.79127">
        <ele>29.939313</ele>
        <time>2021-09-16T08:42:41.000Z</time>
      </trkpt>
      <trkpt lat="44.05611" lon="4.79127">
        <ele>29.924406</ele>
        <time>2021-09-16T08:42:43.000Z</time>
      </trkpt>
      <trkpt lat="44.05607" lon="4.79128">
        <ele>29.912036</ele>
        <time>2021-09-16T08:42:45.000Z</time>
      </trkpt>
      <trkpt lat="44.05604" lon="4.79128">
        <ele>29.901573</ele>
        <time>2021-09-16T08:42:47.000Z</time>
      </trkpt>
      <trkpt lat="44.056" lon="4.79124">
        <ele>29.887313</ele>
        <time>2021-09-16T08:42:49.000Z</time>
      </trkpt>
      <trkpt lat="44.05592" lon="4.79099">
        <ele>29.824779</ele>
        <time>2021-09-16T08:42:54.000Z</time>
      </trkpt>
      <trkpt lat="44.05587" lon="4.79089">
        <ele>29.795808</ele>
        <time>2021-09-16T08:42:56.000Z</time>
      </trkpt>
      <trkpt lat="44.05583" lon="4.7908">
        <ele>29.772745</ele>
        <time>2021-09-16T08:42:58.000Z</time>
      </trkpt>
      <trkpt lat="44.05577" lon="4.79069">
        <ele>29.740701</ele>
        <time>2021-09-16T08:43:01.000Z</time>
      </trkpt>
      <trkpt lat="44.05573" lon="4.79083">
        <ele>29.708444</ele>
        <time>2021-09-16T08:43:02.000Z</time>
      </trkpt>
      <trkpt lat="44.05571" lon="4.79086">
        <ele>29.698197</ele>
        <time>2021-09-16T08:43:06.000Z</time>
      </trkpt>
      <trkpt lat="44.04885" lon="4.79986">
        <ele>29.866581</ele>
        <time>2021-09-16T08:48:16.000Z</time>
      </trkpt>
      <trkpt lat="44.04879" lon="4.80001">
        <ele>29.863395</ele>
        <time>2021-09-16T08:48:17.000Z</time>
      </trkpt>
      <trkpt lat="44.0487" lon="4.80021">
        <ele>29.858901</ele>
        <time>2021-09-16T08:48:20.000Z</time>
      </trkpt>
      <trkpt lat="44.04866" lon="4.80033">
        <ele>29.850175</ele>
        <time>2021-09-16T08:48:22.000Z</time>
      </trkpt>
      <trkpt lat="44.04859" lon="4.80052">
        <ele>29.83468</ele>
        <time>2021-09-16T08:48:25.000Z</time>
      </trkpt>
      <trkpt lat="44.04857" lon="4.80057">
        <ele>29.830248</ele>
        <time>2021-09-16T08:48:26.000Z</time>
      </trkpt>
      <trkpt lat="44.04854" lon="4.80063">
        <ele>29.82516</ele>
        <time>2021-09-16T08:48:27.000Z</time>
      </trkpt>
      <trkpt lat="44.04844" lon="4.80084">
        <ele>29.80626</ele>
        <time>2021-09-16T08:48:31.000Z</time>
      </trkpt>
      <trkpt lat="44.04839" lon="4.80094">
        <ele>29.79753</ele>
        <time>2021-09-16T08:48:33.000Z</time>
      </trkpt>
      <trkpt lat="44.04834" lon="4.80102">
        <ele>29.789576</ele>
        <time>2021-09-16T08:48:35.000Z</time>
      </trkpt>
      <trkpt lat="44.04814" lon="4.80133">
        <ele>29.758962</ele>
        <time>2021-09-16T08:48:42.000Z</time>
      </trkpt>
      <trkpt lat="44.0479" lon="4.80169">
        <ele>29.72309</ele>
        <time>2021-09-16T08:48:49.000Z</time>
      </trkpt>
      <trkpt lat="44.04768" lon="4.80203">
        <ele>29.689859</ele>
        <time>2021-09-16T08:48:55.000Z</time>
      </trkpt>
      <trkpt lat="44.04765" lon="4.80208">
        <ele>29.684506</ele>
        <time>2021-09-16T08:48:56.000Z</time>
      </trkpt>
      <trkpt lat="44.04758" lon="4.80218">
        <ele>29.674885</ele>
        <time>2021-09-16T08:48:59.000Z</time>
      </trkpt>
      <trkpt lat="44.04748" lon="4.80234">
        <ele>29.716081</ele>
        <time>2021-09-16T08:49:01.000Z</time>
      </trkpt>
      <trkpt lat="44.04744" lon="4.80239">
        <ele>29.730664</ele>
        <time>2021-09-16T08:49:02.000Z</time>
      </trkpt>
      <trkpt lat="44.04718" lon="4.80279">
        <ele>29.836937</ele>
        <time>2021-09-16T08:49:09.000Z</time>
      </trkpt>
      <trkpt lat="44.04682" lon="4.80335">
        <ele>29.983933</ele>
        <time>2021-09-16T08:49:18.000Z</time>
      </trkpt>
      <trkpt lat="44.04661" lon="4.80366">
        <ele>30.067129</ele>
        <time>2021-09-16T08:49:23.000Z</time>
      </trkpt>
      <trkpt lat="44.04653" lon="4.80378">
        <ele>30.099977</ele>
        <time>2021-09-16T08:49:25.000Z</time>
      </trkpt>
      <trkpt lat="44.04625" lon="4.80421">
        <ele>30.173783</ele>
        <time>2021-09-16T08:49:32.000Z</time>
      </trkpt>
      <trkpt lat="44.04593" lon="4.80468">
        <ele>30.197182</ele>
        <time>2021-09-16T08:49:40.000Z</time>
      </trkpt>
      <trkpt lat="44.04589" lon="4.80474">
        <ele>30.200029</ele>
        <time>2021-09-16T08:49:41.000Z</time>
      </trkpt>
      <trkpt lat="44.04574" lon="4.80497">
        <ele>30.211405</ele>
        <time>2021-09-16T08:49:45.000Z</time>
      </trkpt>
      <trkpt lat="44.04555" lon="4.80525">
        <ele>30.225505</ele>
        <time>2021-09-16T08:49:50.000Z</time>
      </trkpt>
      <trkpt lat="44.04547" lon="4.80537">
        <ele>30.231652</ele>
        <time>2021-09-16T08:49:52.000Z</time>
      </trkpt>
      <trkpt lat="44.04514" lon="4.80586">
        <ele>30.256034</ele>
        <time>2021-09-16T08:50:00.000Z</time>
      </trkpt>
      <trkpt lat="44.04491" lon="4.80621">
        <ele>30.311261</ele>
        <time>2021-09-16T08:50:06.000Z</time>
      </trkpt>
      <trkpt lat="44.04465" lon="4.80665">
        <ele>30.378275</ele>
        <time>2021-09-16T08:50:13.000Z</time>
      </trkpt>
      <trkpt lat="44.04451" lon="4.80686">
        <ele>30.411453</ele>
        <time>2021-09-16T08:50:17.000Z</time>
      </trkpt>
      <trkpt lat="44.04444" lon="4.80698">
        <ele>30.429097</ele>
        <time>2021-09-16T08:50:19.000Z</time>
      </trkpt>
      <trkpt lat="44.04426" lon="4.80727">
        <ele>30.47457</ele>
        <time>2021-09-16T08:50:24.000Z</time>
      </trkpt>
      <trkpt lat="44.04402" lon="4.80766">
        <ele>30.533966</ele>
        <time>2021-09-16T08:50:30.000Z</time>
      </trkpt>
      <trkpt lat="44.0437" lon="4.80818">
        <ele>30.680709</ele>
        <time>2021-09-16T08:50:39.000Z</time>
      </trkpt>
      <trkpt lat="44.04341" lon="4.80864">
        <ele>30.821178</ele>
        <time>2021-09-16T08:50:47.000Z</time>
      </trkpt>
      <trkpt lat="44.04309" lon="4.80916">
        <ele>30.981549</ele>
        <time>2021-09-16T08:50:56.000Z</time>
      </trkpt>
      <trkpt lat="44.04302" lon="4.80928">
        <ele>31.018709</ele>
        <time>2021-09-16T08:50:58.000Z</time>
      </trkpt>
      <trkpt lat="44.04295" lon="4.8094">
        <ele>31.053017</ele>
        <time>2021-09-16T08:51:00.000Z</time>
      </trkpt>
      <trkpt lat="44.04287" lon="4.8095">
        <ele>31.088169</ele>
        <time>2021-09-16T08:51:02.000Z</time>
      </trkpt>
      <trkpt lat="44.04272" lon="4.80972">
        <ele>31.135178</ele>
        <time>2021-09-16T08:51:06.000Z</time>
      </trkpt>
      <trkpt lat="44.04241" lon="4.81015">
        <ele>31.16061</ele>
        <time>2021-09-16T08:51:14.000Z</time>
      </trkpt>
      <trkpt lat="44.04213" lon="4.81054">
        <ele>31.183161</ele>
        <time>2021-09-16T08:51:21.000Z</time>
      </trkpt>
      <trkpt lat="44.04184" lon="4.8109">
        <ele>31.205305</ele>
        <time>2021-09-16T08:51:28.000Z</time>
      </trkpt>
      <trkpt lat="44.04152" lon="4.81132">
        <ele>31.230732</ele>
        <time>2021-09-16T08:51:36.000Z</time>
      </trkpt>
      <trkpt lat="44.04122" lon="4.81167">
        <ele>31.234796</ele>
        <time>2021-09-16T08:51:43.000Z</time>
      </trkpt>
      <trkpt lat="44.04091" lon="4.812">
        <ele>31.236195</ele>
        <time>2021-09-16T08:51:50.000Z</time>
      </trkpt>
      <trkpt lat="44.04061" lon="4.81233">
        <ele>31.237571</ele>
        <time>2021-09-16T08:51:57.000Z</time>
      </trkpt>
      <trkpt lat="44.04026" lon="4.8127">
        <ele>31.239183</ele>
        <time>2021-09-16T08:52:05.000Z</time>
      </trkpt>
      <trkpt lat="44.03992" lon="4.81298">
        <ele>31.27081</ele>
        <time>2021-09-16T08:52:12.000Z</time>
      </trkpt>
      <trkpt lat="44.03973" lon="4.81308">
        <ele>31.311657</ele>
        <time>2021-09-16T08:52:16.000Z</time>
      </trkpt>
      <trkpt lat="44.03968" lon="4.81311">
        <ele>31.321517</ele>
        <time>2021-09-16T08:52:17.000Z</time>
      </trkpt>
      <trkpt lat="44.03964" lon="4.81313">
        <ele>31.330902</ele>
        <time>2021-09-16T08:52:18.000Z</time>
      </trkpt>
      <trkpt lat="44.03941" lon="4.81326">
        <ele>31.380152</ele>
        <time>2021-09-16T08:52:23.000Z</time>
      </trkpt>
      <trkpt lat="44.03907" lon="4.8135">
        <ele>31.456516</ele>
        <time>2021-09-16T08:52:31.000Z</time>
      </trkpt>
      <trkpt lat="44.03879" lon="4.8137">
        <ele>31.518385</ele>
        <time>2021-09-16T08:52:37.000Z</time>
      </trkpt>
      <trkpt lat="44.03845" lon="4.81402">
        <ele>31.599339</ele>
        <time>2021-09-16T08:52:45.000Z</time>
      </trkpt>
      <trkpt lat="44.03812" lon="4.81433">
        <ele>31.609362</ele>
        <time>2021-09-16T08:52:53.000Z</time>
      </trkpt>
      <trkpt lat="44.03781" lon="4.81463">
        <ele>31.619043</ele>
        <time>2021-09-16T08:53:01.000Z</time>
      </trkpt>
      <trkpt lat="44.03752" lon="4.8149">
        <ele>31.627687</ele>
        <time>2021-09-16T08:53:08.000Z</time>
      </trkpt>
      <trkpt lat="44.03724" lon="4.81517">
        <ele>31.636258</ele>
        <time>2021-09-16T08:53:15.000Z</time>
      </trkpt>
      <trkpt lat="44.03686" lon="4.81554">
        <ele>31.613749</ele>
        <time>2021-09-16T08:53:24.000Z</time>
      </trkpt>
      <trkpt lat="44.0365" lon="4.81588">
        <ele>31.516718</ele>
        <time>2021-09-16T08:53:32.000Z</time>
      </trkpt>
      <trkpt lat="44.03619" lon="4.81617">
        <ele>31.434461</ele>
        <time>2021-09-16T08:53:39.000Z</time>
      </trkpt>
      <trkpt lat="44.0361" lon="4.81626">
        <ele>31.410477</ele>
        <time>2021-09-16T08:53:41.000Z</time>
      </trkpt>
      <trkpt lat="44.03592" lon="4.81643">
        <ele>31.36114</ele>
        <time>2021-09-16T08:53:45.000Z</time>
      </trkpt>
      <trkpt lat="44.03565" lon="4.8167">
        <ele>31.286909</ele>
        <time>2021-09-16T08:53:51.000Z</time>
      </trkpt>
      <trkpt lat="44.03524" lon="4.81711">
        <ele>30.827701</ele>
        <time>2021-09-16T08:54:00.000Z</time>
      </trkpt>
      <trkpt lat="44.03501" lon="4.81746">
        <ele>30.370188</ele>
        <time>2021-09-16T08:54:06.000Z</time>
      </trkpt>
      <trkpt lat="44.03487" lon="4.81769">
        <ele>30.083062</ele>
        <time>2021-09-16T08:54:10.000Z</time>
      </trkpt>
      <trkpt lat="44.03483" lon="4.81774">
        <ele>30.0144</ele>
        <time>2021-09-16T08:54:11.000Z</time>
      </trkpt>
      <trkpt lat="44.03475" lon="4.81789">
        <ele>29.833983</ele>
        <time>2021-09-16T08:54:14.000Z</time>
      </trkpt>
      <trkpt lat="44.03472" lon="4.81793">
        <ele>29.778537</ele>
        <time>2021-09-16T08:54:15.000Z</time>
      </trkpt>
      <trkpt lat="44.03469" lon="4.81797">
        <ele>29.725532</ele>
        <time>2021-09-16T08:54:16.000Z</time>
      </trkpt>
      <trkpt lat="44.03462" lon="4.81809">
        <ele>29.578645</ele>
        <time>2021-09-16T08:54:19.000Z</time>
      </trkpt>
      <trkpt lat="44.0346" lon="4.81813">
        <ele>29.522467</ele>
        <time>2021-09-16T08:54:20.000Z</time>
      </trkpt>
      <trkpt lat="44.03458" lon="4.81849">
        <ele>29.184767</ele>
        <time>2021-09-16T08:54:24.000Z</time>
      </trkpt>
      <trkpt lat="44.03435" lon="4.81864">
        <ele>28.843431</ele>
        <time>2021-09-16T08:54:29.000Z</time>
      </trkpt>
      <trkpt lat="44.03398" lon="4.81888">
        <ele>28.4485</ele>
        <time>2021-09-16T08:54:36.000Z</time>
      </trkpt>
      <trkpt lat="44.03348" lon="4.8192">
        <ele>27.914042</ele>
        <time>2021-09-16T08:54:45.000Z</time>
      </trkpt>
      <trkpt lat="44.03297" lon="4.81953">
        <ele>27.375497</ele>
        <time>2021-09-16T08:54:54.000Z</time>
      </trkpt>
      <trkpt lat="44.03292" lon="4.81956">
        <ele>27.317403</ele>
        <time>2021-09-16T08:54:55.000Z</time>
      </trkpt>
      <trkpt lat="44.03247" lon="4.81984">
        <ele>26.833812</ele>
        <time>2021-09-16T08:55:03.000Z</time>
      </trkpt>
      <trkpt lat="44.03198" lon="4.82014">
        <ele>26.306716</ele>
        <time>2021-09-16T08:55:12.000Z</time>
      </trkpt>
      <trkpt lat="44.03157" lon="4.82046">
        <ele>25.842994</ele>
        <time>2021-09-16T08:55:20.000Z</time>
      </trkpt>
      <trkpt lat="44.03135" lon="4.82067">
        <ele>25.577923</ele>
        <time>2021-09-16T08:55:25.000Z</time>
      </trkpt>
      <trkpt lat="44.03121" lon="4.82077">
        <ele>25.418333</ele>
        <time>2021-09-16T08:55:28.000Z</time>
      </trkpt>
      <trkpt lat="44.03109" lon="4.82082">
        <ele>25.256299</ele>
        <time>2021-09-16T08:55:30.000Z</time>
      </trkpt>
      <trkpt lat="44.03098" lon="4.82088">
        <ele>24.947169</ele>
        <time>2021-09-16T08:55:32.000Z</time>
      </trkpt>
      <trkpt lat="44.03087" lon="4.82093">
        <ele>24.661448</ele>
        <time>2021-09-16T08:55:34.000Z</time>
      </trkpt>
      <trkpt lat="44.03083" lon="4.82095">
        <ele>24.543198</ele>
        <time>2021-09-16T08:55:35.000Z</time>
      </trkpt>
      <trkpt lat="44.03058" lon="4.82107">
        <ele>23.864917</ele>
        <time>2021-09-16T08:55:40.000Z</time>
      </trkpt>
      <trkpt lat="44.03044" lon="4.8211">
        <ele>23.509574</ele>
        <time>2021-09-16T08:55:43.000Z</time>
      </trkpt>
      <trkpt lat="44.03028" lon="4.8211">
        <ele>23.100274</ele>
        <time>2021-09-16T08:55:46.000Z</time>
      </trkpt>
      <trkpt lat="44.03016" lon="4.82109">
        <ele>22.804446</ele>
        <time>2021-09-16T08:55:48.000Z</time>
      </trkpt>
      <trkpt lat="44.03004" lon="4.82109">
        <ele>22.504467</ele>
        <time>2021-09-16T08:55:50.000Z</time>
      </trkpt>
      <trkpt lat="44.02995" lon="4.82113">
        <ele>22.23971</ele>
        <time>2021-09-16T08:55:52.000Z</time>
      </trkpt>
      <trkpt lat="44.02984" lon="4.82119">
        <ele>21.9434</ele>
        <time>2021-09-16T08:55:54.000Z</time>
      </trkpt>
      <trkpt lat="44.02973" lon="4.82127">
        <ele>21.637441</ele>
        <time>2021-09-16T08:55:56.000Z</time>
      </trkpt>
      <trkpt lat="44.02966" lon="4.82138">
        <ele>21.363446</ele>
        <time>2021-09-16T08:55:58.000Z</time>
      </trkpt>
      <trkpt lat="44.0296" lon="4.82151">
        <ele>21.079728</ele>
        <time>2021-09-16T08:56:00.000Z</time>
      </trkpt>
      <trkpt lat="44.02956" lon="4.82158">
        <ele>20.923817</ele>
        <time>2021-09-16T08:56:01.000Z</time>
      </trkpt>
      <trkpt lat="44.02943" lon="4.82187">
        <ele>20.500108</ele>
        <time>2021-09-16T08:56:05.000Z</time>
      </trkpt>
      <trkpt lat="44.0293" lon="4.82206">
        <ele>20.248362</ele>
        <time>2021-09-16T08:56:08.000Z</time>
      </trkpt>
      <trkpt lat="44.02927" lon="4.82211">
        <ele>20.18483</ele>
        <time>2021-09-16T08:56:09.000Z</time>
      </trkpt>
      <trkpt lat="44.02911" lon="4.82236">
        <ele>19.863143</ele>
        <time>2021-09-16T08:56:13.000Z</time>
      </trkpt>
      <trkpt lat="44.02897" lon="4.8225">
        <ele>19.614659</ele>
        <time>2021-09-16T08:56:16.000Z</time>
      </trkpt>
      <trkpt lat="44.02882" lon="4.82262">
        <ele>19.382003</ele>
        <time>2021-09-16T08:56:19.000Z</time>
      </trkpt>
      <trkpt lat="44.02866" lon="4.82269">
        <ele>19.160798</ele>
        <time>2021-09-16T08:56:22.000Z</time>
      </trkpt>
      <trkpt lat="44.02862" lon="4.82271">
        <ele>19.094494</ele>
        <time>2021-09-16T08:56:23.000Z</time>
      </trkpt>
      <trkpt lat="44.02857" lon="4.82273">
        <ele>19.028189</ele>
        <time>2021-09-16T08:56:24.000Z</time>
      </trkpt>
      <trkpt lat="44.02844" lon="4.82279">
        <ele>18.829949</ele>
        <time>2021-09-16T08:56:27.000Z</time>
      </trkpt>
      <trkpt lat="44.02834" lon="4.82284">
        <ele>18.685702</ele>
        <time>2021-09-16T08:56:29.000Z</time>
      </trkpt>
      <trkpt lat="44.02823" lon="4.82289">
        <ele>18.536934</ele>
        <time>2021-09-16T08:56:31.000Z</time>
      </trkpt>
      <trkpt lat="44.02814" lon="4.82293">
        <ele>18.402082</ele>
        <time>2021-09-16T08:56:33.000Z</time>
      </trkpt>
      <trkpt lat="44.02805" lon="4.82298">
        <ele>18.27164</ele>
        <time>2021-09-16T08:56:35.000Z</time>
      </trkpt>
      <trkpt lat="44.02779" lon="4.8231">
        <ele>17.859428</ele>
        <time>2021-09-16T08:56:41.000Z</time>
      </trkpt>
      <trkpt lat="44.0276" lon="4.8232">
        <ele>17.56872</ele>
        <time>2021-09-16T08:56:45.000Z</time>
      </trkpt>
      <trkpt lat="44.02755" lon="4.82322">
        <ele>17.490734</ele>
        <time>2021-09-16T08:56:46.000Z</time>
      </trkpt>
      <trkpt lat="44.02737" lon="4.82331">
        <ele>17.209775</ele>
        <time>2021-09-16T08:56:50.000Z</time>
      </trkpt>
      <trkpt lat="44.02721" lon="4.82338">
        <ele>16.959802</ele>
        <time>2021-09-16T08:56:53.000Z</time>
      </trkpt>
      <trkpt lat="44.0271" lon="4.82344">
        <ele>16.789555</ele>
        <time>2021-09-16T08:56:55.000Z</time>
      </trkpt>
      <trkpt lat="44.02698" lon="4.82351">
        <ele>16.591844</ele>
        <time>2021-09-16T08:56:57.000Z</time>
      </trkpt>
      <trkpt lat="44.02691" lon="4.82355">
        <ele>16.486171</ele>
        <time>2021-09-16T08:56:58.000Z</time>
      </trkpt>
      <trkpt lat="44.02686" lon="4.82361">
        <ele>16.389039</ele>
        <time>2021-09-16T08:56:59.000Z</time>
      </trkpt>
      <trkpt lat="44.0268" lon="4.82371">
        <ele>16.248255</ele>
        <time>2021-09-16T08:57:01.000Z</time>
      </trkpt>
      <trkpt lat="44.02678" lon="4.82406">
        <ele>15.879097</ele>
        <time>2021-09-16T08:57:03.000Z</time>
      </trkpt>
      <trkpt lat="44.0268" lon="4.82421">
        <ele>15.708941</ele>
        <time>2021-09-16T08:57:05.000Z</time>
      </trkpt>
      <trkpt lat="44.02681" lon="4.82429">
        <ele>15.629885</ele>
        <time>2021-09-16T08:57:06.000Z</time>
      </trkpt>
      <trkpt lat="44.02685" lon="4.82454">
        <ele>15.385583</ele>
        <time>2021-09-16T08:57:09.000Z</time>
      </trkpt>
      <trkpt lat="44.02691" lon="4.82483">
        <ele>15.099415</ele>
        <time>2021-09-16T08:57:13.000Z</time>
      </trkpt>
      <trkpt lat="44.02694" lon="4.825">
        <ele>14.927649</ele>
        <time>2021-09-16T08:57:15.000Z</time>
      </trkpt>
      <trkpt lat="44.02698" lon="4.82521">
        <ele>14.722403</ele>
        <time>2021-09-16T08:57:18.000Z</time>
      </trkpt>
      <trkpt lat="44.027" lon="4.82535">
        <ele>14.582263</ele>
        <time>2021-09-16T08:57:20.000Z</time>
      </trkpt>
      <trkpt lat="44.02704" lon="4.82553">
        <ele>14.400573</ele>
        <time>2021-09-16T08:57:22.000Z</time>
      </trkpt>
      <trkpt lat="44.02706" lon="4.82566">
        <ele>14.274392</ele>
        <time>2021-09-16T08:57:24.000Z</time>
      </trkpt>
      <trkpt lat="44.02698" lon="4.82579">
        <ele>14.11183</ele>
        <time>2021-09-16T08:57:26.000Z</time>
      </trkpt>
      <trkpt lat="44.02681" lon="4.82587">
        <ele>13.865524</ele>
        <time>2021-09-16T08:57:30.000Z</time>
      </trkpt>
      <trkpt lat="44.02671" lon="4.8259">
        <ele>13.727637</ele>
        <time>2021-09-16T08:57:32.000Z</time>
      </trkpt>
      <trkpt lat="44.0265" lon="4.82598">
        <ele>13.444432</ele>
        <time>2021-09-16T08:57:36.000Z</time>
      </trkpt>
      <trkpt lat="44.02645" lon="4.826">
        <ele>13.371386</ele>
        <time>2021-09-16T08:57:37.000Z</time>
      </trkpt>
      <trkpt lat="44.0264" lon="4.82602">
        <ele>13.299624</ele>
        <time>2021-09-16T08:57:39.000Z</time>
      </trkpt>
      <trkpt lat="44.02623" lon="4.82609">
        <ele>13.382952</ele>
        <time>2021-09-16T08:57:41.000Z</time>
      </trkpt>
      <trkpt lat="44.02612" lon="4.82613">
        <ele>13.49501</ele>
        <time>2021-09-16T08:57:43.000Z</time>
      </trkpt>
      <trkpt lat="44.02596" lon="4.82619">
        <ele>13.658421</ele>
        <time>2021-09-16T08:57:46.000Z</time>
      </trkpt>
      <trkpt lat="44.02561" lon="4.82635">
        <ele>14.022047</ele>
        <time>2021-09-16T08:57:52.000Z</time>
      </trkpt>
      <trkpt lat="44.02549" lon="4.82641">
        <ele>14.142068</ele>
        <time>2021-09-16T08:57:54.000Z</time>
      </trkpt>
      <trkpt lat="44.02531" lon="4.8265">
        <ele>14.331818</ele>
        <time>2021-09-16T08:57:57.000Z</time>
      </trkpt>
      <trkpt lat="44.02526" lon="4.82654">
        <ele>14.396604</ele>
        <time>2021-09-16T08:57:58.000Z</time>
      </trkpt>
      <trkpt lat="44.02503" lon="4.8267">
        <ele>14.646742</ele>
        <time>2021-09-16T08:58:02.000Z</time>
      </trkpt>
      <trkpt lat="44.0247" lon="4.82694">
        <ele>15.018</ele>
        <time>2021-09-16T08:58:08.000Z</time>
      </trkpt>
      <trkpt lat="44.02443" lon="4.82723">
        <ele>15.390472</ele>
        <time>2021-09-16T08:58:14.000Z</time>
      </trkpt>
      <trkpt lat="44.02424" lon="4.82761">
        <ele>15.762103</ele>
        <time>2021-09-16T08:58:20.000Z</time>
      </trkpt>
      <trkpt lat="44.02418" lon="4.82775">
        <ele>15.890827</ele>
        <time>2021-09-16T08:58:22.000Z</time>
      </trkpt>
      <trkpt lat="44.02407" lon="4.82803">
        <ele>16.148276</ele>
        <time>2021-09-16T08:58:26.000Z</time>
      </trkpt>
      <trkpt lat="44.02401" lon="4.82818">
        <ele>16.281553</ele>
        <time>2021-09-16T08:58:28.000Z</time>
      </trkpt>
      <trkpt lat="44.02393" lon="4.82831">
        <ele>16.417245</ele>
        <time>2021-09-16T08:58:30.000Z</time>
      </trkpt>
      <trkpt lat="44.02371" lon="4.82862">
        <ele>16.761173</ele>
        <time>2021-09-16T08:58:35.000Z</time>
      </trkpt>
      <trkpt lat="44.0234" lon="4.82904">
        <ele>17.062625</ele>
        <time>2021-09-16T08:58:42.000Z</time>
      </trkpt>
      <trkpt lat="44.02334" lon="4.82907">
        <ele>17.074799</ele>
        <time>2021-09-16T08:58:43.000Z</time>
      </trkpt>
      <trkpt lat="44.02328" lon="4.82911">
        <ele>17.088306</ele>
        <time>2021-09-16T08:58:45.000Z</time>
      </trkpt>
      <trkpt lat="44.0228" lon="4.82915">
        <ele>17.189998</ele>
        <time>2021-09-16T08:58:52.000Z</time>
      </trkpt>
      <trkpt lat="44.02241" lon="4.8292">
        <ele>17.273161</ele>
        <time>2021-09-16T08:58:59.000Z</time>
      </trkpt>
      <trkpt lat="44.02229" lon="4.82922">
        <ele>17.297823</ele>
        <time>2021-09-16T08:59:01.000Z</time>
      </trkpt>
      <trkpt lat="44.02218" lon="4.82926">
        <ele>17.321818</ele>
        <time>2021-09-16T08:59:03.000Z</time>
      </trkpt>
      <trkpt lat="44.02209" lon="4.82937">
        <ele>17.34632</ele>
        <time>2021-09-16T08:59:05.000Z</time>
      </trkpt>
      <trkpt lat="44.02203" lon="4.82952">
        <ele>17.371962</ele>
        <time>2021-09-16T08:59:07.000Z</time>
      </trkpt>
      <trkpt lat="44.022" lon="4.82969">
        <ele>17.398804</ele>
        <time>2021-09-16T08:59:09.000Z</time>
      </trkpt>
      <trkpt lat="44.02196" lon="4.82994">
        <ele>17.451844</ele>
        <time>2021-09-16T08:59:12.000Z</time>
      </trkpt>
      <trkpt lat="44.02192" lon="4.8301">
        <ele>17.486458</ele>
        <time>2021-09-16T08:59:14.000Z</time>
      </trkpt>
      <trkpt lat="44.0219" lon="4.83017">
        <ele>17.502345</ele>
        <time>2021-09-16T08:59:15.000Z</time>
      </trkpt>
      <trkpt lat="44.02183" lon="4.83038">
        <ele>17.548247</ele>
        <time>2021-09-16T08:59:18.000Z</time>
      </trkpt>
      <trkpt lat="44.02173" lon="4.83066">
        <ele>17.610823</ele>
        <time>2021-09-16T08:59:22.000Z</time>
      </trkpt>
      <trkpt lat="44.02171" lon="4.83073">
        <ele>17.626108</ele>
        <time>2021-09-16T08:59:23.000Z</time>
      </trkpt>
      <trkpt lat="44.02159" lon="4.83101">
        <ele>17.692989</ele>
        <time>2021-09-16T08:59:27.000Z</time>
      </trkpt>
      <trkpt lat="44.02157" lon="4.83107">
        <ele>17.707031</ele>
        <time>2021-09-16T08:59:28.000Z</time>
      </trkpt>
      <trkpt lat="44.02145" lon="4.83136">
        <ele>17.773138</ele>
        <time>2021-09-16T08:59:32.000Z</time>
      </trkpt>
      <trkpt lat="44.02143" lon="4.83142">
        <ele>17.786859</ele>
        <time>2021-09-16T08:59:33.000Z</time>
      </trkpt>
      <trkpt lat="44.02142" lon="4.83149">
        <ele>17.801914</ele>
        <time>2021-09-16T08:59:34.000Z</time>
      </trkpt>
      <trkpt lat="44.02138" lon="4.83165">
        <ele>17.835072</ele>
        <time>2021-09-16T08:59:36.000Z</time>
      </trkpt>
      <trkpt lat="44.02136" lon="4.83174">
        <ele>17.854373</ele>
        <time>2021-09-16T08:59:37.000Z</time>
      </trkpt>
      <trkpt lat="44.02137" lon="4.83191">
        <ele>17.889664</ele>
        <time>2021-09-16T08:59:39.000Z</time>
      </trkpt>
      <trkpt lat="44.02138" lon="4.83217">
        <ele>18.051</ele>
        <time>2021-09-16T08:59:42.000Z</time>
      </trkpt>
      <trkpt lat="44.0214" lon="4.8326">
        <ele>18.381659</ele>
        <time>2021-09-16T08:59:47.000Z</time>
      </trkpt>
      <trkpt lat="44.0214" lon="4.83269">
        <ele>18.449886</ele>
        <time>2021-09-16T08:59:48.000Z</time>
      </trkpt>
      <trkpt lat="44.02143" lon="4.83333">
        <ele>18.939346</ele>
        <time>2021-09-16T08:59:55.000Z</time>
      </trkpt>
      <trkpt lat="44.02144" lon="4.83393">
        <ele>19.39671</ele>
        <time>2021-09-16T09:00:02.000Z</time>
      </trkpt>
      <trkpt lat="44.02143" lon="4.83439">
        <ele>19.749825</ele>
        <time>2021-09-16T09:00:08.000Z</time>
      </trkpt>
      <trkpt lat="44.02143" lon="4.83468">
        <ele>19.9768</ele>
        <time>2021-09-16T09:00:12.000Z</time>
      </trkpt>
      <trkpt lat="44.02143" lon="4.83475">
        <ele>20.032898</ele>
        <time>2021-09-16T09:00:13.000Z</time>
      </trkpt>
      <trkpt lat="44.02142" lon="4.83498">
        <ele>20.2178</ele>
        <time>2021-09-16T09:00:16.000Z</time>
      </trkpt>
      <trkpt lat="44.02144" lon="4.83506">
        <ele>20.279599</ele>
        <time>2021-09-16T09:00:17.000Z</time>
      </trkpt>
      <trkpt lat="44.02146" lon="4.83514">
        <ele>20.348737</ele>
        <time>2021-09-16T09:00:18.000Z</time>
      </trkpt>
      <trkpt lat="44.02155" lon="4.83547">
        <ele>20.628728</ele>
        <time>2021-09-16T09:00:22.000Z</time>
      </trkpt>
      <trkpt lat="44.02178" lon="4.83613">
        <ele>21.204319</ele>
        <time>2021-09-16T09:00:31.000Z</time>
      </trkpt>
      <trkpt lat="44.02184" lon="4.83633">
        <ele>21.374106</ele>
        <time>2021-09-16T09:00:34.000Z</time>
      </trkpt>
      <trkpt lat="44.02188" lon="4.83645">
        <ele>21.480486</ele>
        <time>2021-09-16T09:00:36.000Z</time>
      </trkpt>
      <trkpt lat="44.02197" lon="4.8367">
        <ele>21.698937</ele>
        <time>2021-09-16T09:00:40.000Z</time>
      </trkpt>
      <trkpt lat="44.02203" lon="4.83687">
        <ele>21.986891</ele>
        <time>2021-09-16T09:00:43.000Z</time>
      </trkpt>
      <trkpt lat="44.02212" lon="4.83714">
        <ele>22.80255</ele>
        <time>2021-09-16T09:00:47.000Z</time>
      </trkpt>
      <trkpt lat="44.02221" lon="4.83741">
        <ele>23.619829</ele>
        <time>2021-09-16T09:00:51.000Z</time>
      </trkpt>
      <trkpt lat="44.0223" lon="4.83769">
        <ele>24.457669</ele>
        <time>2021-09-16T09:00:55.000Z</time>
      </trkpt>
      <trkpt lat="44.02243" lon="4.83805">
        <ele>25.556959</ele>
        <time>2021-09-16T09:01:00.000Z</time>
      </trkpt>
      <trkpt lat="44.02247" lon="4.83818">
        <ele>25.947508</ele>
        <time>2021-09-16T09:01:02.000Z</time>
      </trkpt>
      <trkpt lat="44.02252" lon="4.83831">
        <ele>26.34053</ele>
        <time>2021-09-16T09:01:04.000Z</time>
      </trkpt>
      <trkpt lat="44.02256" lon="4.83844">
        <ele>26.733551</ele>
        <time>2021-09-16T09:01:06.000Z</time>
      </trkpt>
      <trkpt lat="44.0226" lon="4.83856">
        <ele>27.103541</ele>
        <time>2021-09-16T09:01:08.000Z</time>
      </trkpt>
      <trkpt lat="44.02265" lon="4.8387">
        <ele>27.512178</ele>
        <time>2021-09-16T09:01:10.000Z</time>
      </trkpt>
      <trkpt lat="44.02269" lon="4.83883">
        <ele>27.9192</ele>
        <time>2021-09-16T09:01:12.000Z</time>
      </trkpt>
      <trkpt lat="44.02273" lon="4.83895">
        <ele>28.280145</ele>
        <time>2021-09-16T09:01:14.000Z</time>
      </trkpt>
      <trkpt lat="44.02278" lon="4.83908">
        <ele>28.677536</ele>
        <time>2021-09-16T09:01:16.000Z</time>
      </trkpt>
      <trkpt lat="44.02285" lon="4.8393">
        <ele>29.382924</ele>
        <time>2021-09-16T09:01:19.000Z</time>
      </trkpt>
      <trkpt lat="44.02288" lon="4.83937">
        <ele>29.589025</ele>
        <time>2021-09-16T09:01:20.000Z</time>
      </trkpt>
      <trkpt lat="44.02294" lon="4.83956">
        <ele>30.211629</ele>
        <time>2021-09-16T09:01:23.000Z</time>
      </trkpt>
      <trkpt lat="44.023" lon="4.83973">
        <ele>30.72818</ele>
        <time>2021-09-16T09:01:25.000Z</time>
      </trkpt>
      <trkpt lat="44.02307" lon="4.83993">
        <ele>31.374942</ele>
        <time>2021-09-16T09:01:28.000Z</time>
      </trkpt>
      <trkpt lat="44.02315" lon="4.84016">
        <ele>32.111376</ele>
        <time>2021-09-16T09:01:32.000Z</time>
      </trkpt>
      <trkpt lat="44.02319" lon="4.84028">
        <ele>32.495119</ele>
        <time>2021-09-16T09:01:34.000Z</time>
      </trkpt>
      <trkpt lat="44.02324" lon="4.84043">
        <ele>32.968537</ele>
        <time>2021-09-16T09:01:36.000Z</time>
      </trkpt>
      <trkpt lat="44.02329" lon="4.84058">
        <ele>33.422983</ele>
        <time>2021-09-16T09:01:38.000Z</time>
      </trkpt>
      <trkpt lat="44.02335" lon="4.84077">
        <ele>34.029203</ele>
        <time>2021-09-16T09:01:41.000Z</time>
      </trkpt>
      <trkpt lat="44.02341" lon="4.84103">
        <ele>34.81926</ele>
        <time>2021-09-16T09:01:44.000Z</time>
      </trkpt>
      <trkpt lat="44.02342" lon="4.84112">
        <ele>35.093663</ele>
        <time>2021-09-16T09:01:45.000Z</time>
      </trkpt>
      <trkpt lat="44.02343" lon="4.84144">
        <ele>35.812482</ele>
        <time>2021-09-16T09:01:49.000Z</time>
      </trkpt>
      <trkpt lat="44.02343" lon="4.84151">
        <ele>35.811949</ele>
        <time>2021-09-16T09:01:50.000Z</time>
      </trkpt>
      <trkpt lat="44.02343" lon="4.84158">
        <ele>35.811424</ele>
        <time>2021-09-16T09:01:51.000Z</time>
      </trkpt>
      <trkpt lat="44.02344" lon="4.84181">
        <ele>35.80973</ele>
        <time>2021-09-16T09:01:54.000Z</time>
      </trkpt>
      <trkpt lat="44.02344" lon="4.84188">
        <ele>35.809219</ele>
        <time>2021-09-16T09:01:55.000Z</time>
      </trkpt>
      <trkpt lat="44.02345" lon="4.84214">
        <ele>35.80728</ele>
        <time>2021-09-16T09:01:58.000Z</time>
      </trkpt>
      <trkpt lat="44.02345" lon="4.84223">
        <ele>35.806636</ele>
        <time>2021-09-16T09:01:59.000Z</time>
      </trkpt>
      <trkpt lat="44.02342" lon="4.84248">
        <ele>35.804751</ele>
        <time>2021-09-16T09:02:02.000Z</time>
      </trkpt>
      <trkpt lat="44.0234" lon="4.84264">
        <ele>35.803517</ele>
        <time>2021-09-16T09:02:04.000Z</time>
      </trkpt>
      <trkpt lat="44.02338" lon="4.84286">
        <ele>35.801893</ele>
        <time>2021-09-16T09:02:07.000Z</time>
      </trkpt>
      <trkpt lat="44.02336" lon="4.84292">
        <ele>35.801382</ele>
        <time>2021-09-16T09:02:08.000Z</time>
      </trkpt>
      <trkpt lat="44.02326" lon="4.84307">
        <ele>35.799951</ele>
        <time>2021-09-16T09:02:11.000Z</time>
      </trkpt>
      <trkpt lat="44.02321" lon="4.84309">
        <ele>35.799323</ele>
        <time>2021-09-16T09:02:12.000Z</time>
      </trkpt>
      <trkpt lat="44.02297" lon="4.84318">
        <ele>35.796764</ele>
        <time>2021-09-16T09:02:16.000Z</time>
      </trkpt>
      <trkpt lat="44.02268" lon="4.84329">
        <ele>35.579648</ele>
        <time>2021-09-16T09:02:21.000Z</time>
      </trkpt>
      <trkpt lat="44.02252" lon="4.84335">
        <ele>35.039716</ele>
        <time>2021-09-16T09:02:24.000Z</time>
      </trkpt>
      <trkpt lat="44.02242" lon="4.84344">
        <ele>34.655344</ele>
        <time>2021-09-16T09:02:26.000Z</time>
      </trkpt>
      <trkpt lat="44.02238" lon="4.84366">
        <ele>34.152587</ele>
        <time>2021-09-16T09:02:28.000Z</time>
      </trkpt>
      <trkpt lat="44.0224" lon="4.84373">
        <ele>33.967528</ele>
        <time>2021-09-16T09:02:29.000Z</time>
      </trkpt>
      <trkpt lat="44.02256" lon="4.84447">
        <ele>32.185004</ele>
        <time>2021-09-16T09:02:39.000Z</time>
      </trkpt>
      <trkpt lat="44.02263" lon="4.8448">
        <ele>31.397093</ele>
        <time>2021-09-16T09:02:44.000Z</time>
      </trkpt>
      <trkpt lat="44.02266" lon="4.84493">
        <ele>31.099429</ele>
        <time>2021-09-16T09:02:48.000Z</time>
      </trkpt>
      <trkpt lat="44.02267" lon="4.84497">
        <ele>30.984842</ele>
        <time>2021-09-16T09:02:53.000Z</time>
      </trkpt>
      <trkpt lat="44.0227" lon="4.84504">
        <ele>30.820461</ele>
        <time>2021-09-16T09:03:01.000Z</time>
      </trkpt>
      <trkpt lat="44.02271" lon="4.84508">
        <ele>30.703674</ele>
        <time>2021-09-16T09:03:03.000Z</time>
      </trkpt>
      <trkpt lat="44.02278" lon="4.84525">
        <ele>30.268731</ele>
        <time>2021-09-16T09:03:08.000Z</time>
      </trkpt>
      <trkpt lat="44.02283" lon="4.84555">
        <ele>29.858233</ele>
        <time>2021-09-16T09:03:14.000Z</time>
      </trkpt>
      <trkpt lat="44.02283" lon="4.84561">
        <ele>29.804508</ele>
        <time>2021-09-16T09:03:15.000Z</time>
      </trkpt>
      <trkpt lat="44.02283" lon="4.84573">
        <ele>29.70146</ele>
        <time>2021-09-16T09:03:17.000Z</time>
      </trkpt>
      <trkpt lat="44.02282" lon="4.84578">
        <ele>29.652972</ele>
        <time>2021-09-16T09:03:18.000Z</time>
      </trkpt>
      <trkpt lat="44.02279" lon="4.84583">
        <ele>29.600772</ele>
        <time>2021-09-16T09:03:19.000Z</time>
      </trkpt>
      <trkpt lat="44.02274" lon="4.84592">
        <ele>29.492664</ele>
        <time>2021-09-16T09:03:21.000Z</time>
      </trkpt>
      <trkpt lat="44.0227" lon="4.84596">
        <ele>29.438681</ele>
        <time>2021-09-16T09:03:22.000Z</time>
      </trkpt>
      <trkpt lat="44.02241" lon="4.84618">
        <ele>29.029916</ele>
        <time>2021-09-16T09:03:29.000Z</time>
      </trkpt>
      <trkpt lat="44.02201" lon="4.84646">
        <ele>28.487369</ele>
        <time>2021-09-16T09:03:37.000Z</time>
      </trkpt>
      <trkpt lat="44.02155" lon="4.84678">
        <ele>27.854002</ele>
        <time>2021-09-16T09:03:46.000Z</time>
      </trkpt>
      <trkpt lat="44.02114" lon="4.84705">
        <ele>27.672758</ele>
        <time>2021-09-16T09:03:54.000Z</time>
      </trkpt>
      <trkpt lat="44.02062" lon="4.84739">
        <ele>27.447606</ele>
        <time>2021-09-16T09:04:04.000Z</time>
      </trkpt>
      <trkpt lat="44.02057" lon="4.84742">
        <ele>27.425185</ele>
        <time>2021-09-16T09:04:05.000Z</time>
      </trkpt>
      <trkpt lat="44.02022" lon="4.84771">
        <ele>27.268505</ele>
        <time>2021-09-16T09:04:12.000Z</time>
      </trkpt>
      <trkpt lat="44.02017" lon="4.84775">
        <ele>27.245856</ele>
        <time>2021-09-16T09:04:13.000Z</time>
      </trkpt>
      <trkpt lat="44.01969" lon="4.84815">
        <ele>27.027083</ele>
        <time>2021-09-16T09:04:23.000Z</time>
      </trkpt>
      <trkpt lat="44.0193" lon="4.84847">
        <ele>26.853205</ele>
        <time>2021-09-16T09:04:31.000Z</time>
      </trkpt>
      <trkpt lat="44.01887" lon="4.84886">
        <ele>26.653802</ele>
        <time>2021-09-16T09:04:40.000Z</time>
      </trkpt>
      <trkpt lat="44.01854" lon="4.84918">
        <ele>26.499371</ele>
        <time>2021-09-16T09:04:47.000Z</time>
      </trkpt>
      <trkpt lat="44.01817" lon="4.84955">
        <ele>26.278269</ele>
        <time>2021-09-16T09:04:55.000Z</time>
      </trkpt>
      <trkpt lat="44.01793" lon="4.84979">
        <ele>26.120888</ele>
        <time>2021-09-16T09:05:00.000Z</time>
      </trkpt>
      <trkpt lat="44.01783" lon="4.84989">
        <ele>26.056126</ele>
        <time>2021-09-16T09:05:02.000Z</time>
      </trkpt>
      <trkpt lat="44.01748" lon="4.85023">
        <ele>25.831174</ele>
        <time>2021-09-16T09:05:09.000Z</time>
      </trkpt>
      <trkpt lat="44.01708" lon="4.85065">
        <ele>25.568794</ele>
        <time>2021-09-16T09:05:17.000Z</time>
      </trkpt>
      <trkpt lat="44.01679" lon="4.85094">
        <ele>25.427869</ele>
        <time>2021-09-16T09:05:23.000Z</time>
      </trkpt>
      <trkpt lat="44.01645" lon="4.85129">
        <ele>25.291386</ele>
        <time>2021-09-16T09:05:30.000Z</time>
      </trkpt>
      <trkpt lat="44.01618" lon="4.85154">
        <ele>25.188871</ele>
        <time>2021-09-16T09:05:36.000Z</time>
      </trkpt>
      <trkpt lat="44.01587" lon="4.85183">
        <ele>25.066407</ele>
        <time>2021-09-16T09:05:43.000Z</time>
      </trkpt>
      <trkpt lat="44.01554" lon="4.85217">
        <ele>24.936637</ele>
        <time>2021-09-16T09:05:50.000Z</time>
      </trkpt>
      <trkpt lat="44.01525" lon="4.8525">
        <ele>25.034306</ele>
        <time>2021-09-16T09:05:57.000Z</time>
      </trkpt>
      <trkpt lat="44.01495" lon="4.85299">
        <ele>25.18818</ele>
        <time>2021-09-16T09:06:06.000Z</time>
      </trkpt>
      <trkpt lat="44.01479" lon="4.85346">
        <ele>25.310345</ele>
        <time>2021-09-16T09:06:13.000Z</time>
      </trkpt>
      <trkpt lat="44.01469" lon="4.85402">
        <ele>25.447551</ele>
        <time>2021-09-16T09:06:21.000Z</time>
      </trkpt>
      <trkpt lat="44.01467" lon="4.85441">
        <ele>25.50671</ele>
        <time>2021-09-16T09:06:26.000Z</time>
      </trkpt>
      <trkpt lat="44.0147" lon="4.85498">
        <ele>25.456815</ele>
        <time>2021-09-16T09:06:33.000Z</time>
      </trkpt>
      <trkpt lat="44.01476" lon="4.85568">
        <ele>25.394106</ele>
        <time>2021-09-16T09:06:42.000Z</time>
      </trkpt>
      <trkpt lat="44.01483" lon="4.85641">
        <ele>25.32939</ele>
        <time>2021-09-16T09:06:51.000Z</time>
      </trkpt>
      <trkpt lat="44.01488" lon="4.85704">
        <ele>25.277589</ele>
        <time>2021-09-16T09:06:59.000Z</time>
      </trkpt>
      <trkpt lat="44.01492" lon="4.85755">
        <ele>25.240153</ele>
        <time>2021-09-16T09:07:06.000Z</time>
      </trkpt>
      <trkpt lat="44.01498" lon="4.85804">
        <ele>25.204584</ele>
        <time>2021-09-16T09:07:13.000Z</time>
      </trkpt>
      <trkpt lat="44.01503" lon="4.85848">
        <ele>25.172428</ele>
        <time>2021-09-16T09:07:19.000Z</time>
      </trkpt>
      <trkpt lat="44.0151" lon="4.859">
        <ele>25.134222</ele>
        <time>2021-09-16T09:07:26.000Z</time>
      </trkpt>
      <trkpt lat="44.01517" lon="4.8596">
        <ele>25.274892</ele>
        <time>2021-09-16T09:07:34.000Z</time>
      </trkpt>
      <trkpt lat="44.0152" lon="4.85985">
        <ele>25.392923</ele>
        <time>2021-09-16T09:07:38.000Z</time>
      </trkpt>
      <trkpt lat="44.01519" lon="4.85996">
        <ele>25.442966</ele>
        <time>2021-09-16T09:07:40.000Z</time>
      </trkpt>
      <trkpt lat="44.01514" lon="4.86017">
        <ele>25.545209</ele>
        <time>2021-09-16T09:07:43.000Z</time>
      </trkpt>
      <trkpt lat="44.01508" lon="4.86028">
        <ele>25.608561</ele>
        <time>2021-09-16T09:07:45.000Z</time>
      </trkpt>
      <trkpt lat="44.01505" lon="4.86033">
        <ele>25.641186</ele>
        <time>2021-09-16T09:07:46.000Z</time>
      </trkpt>
      <trkpt lat="44.01491" lon="4.86068">
        <ele>25.830007</ele>
        <time>2021-09-16T09:07:52.000Z</time>
      </trkpt>
      <trkpt lat="44.01489" lon="4.86074">
        <ele>25.861477</ele>
        <time>2021-09-16T09:07:53.000Z</time>
      </trkpt>
      <trkpt lat="44.01487" lon="4.8608">
        <ele>25.891955</ele>
        <time>2021-09-16T09:07:54.000Z</time>
      </trkpt>
      <trkpt lat="44.0148" lon="4.86114">
        <ele>26.057031</ele>
        <time>2021-09-16T09:07:59.000Z</time>
      </trkpt>
      <trkpt lat="44.01475" lon="4.86171">
        <ele>26.309762</ele>
        <time>2021-09-16T09:08:07.000Z</time>
      </trkpt>
      <trkpt lat="44.01473" lon="4.86236">
        <ele>26.516423</ele>
        <time>2021-09-16T09:08:16.000Z</time>
      </trkpt>
      <trkpt lat="44.01472" lon="4.86292">
        <ele>26.695919</ele>
        <time>2021-09-16T09:08:24.000Z</time>
      </trkpt>
      <trkpt lat="44.01469" lon="4.86359">
        <ele>26.906986</ele>
        <time>2021-09-16T09:08:33.000Z</time>
      </trkpt>
      <trkpt lat="44.01464" lon="4.86414">
        <ele>27.077468</ele>
        <time>2021-09-16T09:08:40.000Z</time>
      </trkpt>
      <trkpt lat="44.0146" lon="4.86469">
        <ele>27.113131</ele>
        <time>2021-09-16T09:08:47.000Z</time>
      </trkpt>
      <trkpt lat="44.0146" lon="4.86515">
        <ele>27.143208</ele>
        <time>2021-09-16T09:08:53.000Z</time>
      </trkpt>
      <trkpt lat="44.01463" lon="4.86536">
        <ele>27.157217</ele>
        <time>2021-09-16T09:08:56.000Z</time>
      </trkpt>
      <trkpt lat="44.01465" lon="4.8656">
        <ele>27.172373</ele>
        <time>2021-09-16T09:08:59.000Z</time>
      </trkpt>
      <trkpt lat="44.01466" lon="4.86575">
        <ele>27.18241</ele>
        <time>2021-09-16T09:09:01.000Z</time>
      </trkpt>
      <trkpt lat="44.01467" lon="4.86599">
        <ele>27.197803</ele>
        <time>2021-09-16T09:09:04.000Z</time>
      </trkpt>
      <trkpt lat="44.01463" lon="4.86657">
        <ele>27.235256</ele>
        <time>2021-09-16T09:09:11.000Z</time>
      </trkpt>
      <trkpt lat="44.01459" lon="4.86693">
        <ele>27.235055</ele>
        <time>2021-09-16T09:09:16.000Z</time>
      </trkpt>
      <trkpt lat="44.01455" lon="4.86711">
        <ele>27.233489</ele>
        <time>2021-09-16T09:09:17.000Z</time>
      </trkpt>
      <trkpt lat="44.01447" lon="4.86751">
        <ele>27.229933</ele>
        <time>2021-09-16T09:09:22.000Z</time>
      </trkpt>
      <trkpt lat="44.01436" lon="4.86804">
        <ele>27.225282</ele>
        <time>2021-09-16T09:09:28.000Z</time>
      </trkpt>
      <trkpt lat="44.01422" lon="4.86852">
        <ele>27.220908</ele>
        <time>2021-09-16T09:09:34.000Z</time>
      </trkpt>
      <trkpt lat="44.0142" lon="4.8686">
        <ele>27.220201</ele>
        <time>2021-09-16T09:09:35.000Z</time>
      </trkpt>
      <trkpt lat="44.01414" lon="4.86883">
        <ele>27.218142</ele>
        <time>2021-09-16T09:09:38.000Z</time>
      </trkpt>
      <trkpt lat="44.01401" lon="4.86926">
        <ele>27.209532</ele>
        <time>2021-09-16T09:09:44.000Z</time>
      </trkpt>
      <trkpt lat="44.01385" lon="4.86976">
        <ele>27.195951</ele>
        <time>2021-09-16T09:09:51.000Z</time>
      </trkpt>
      <trkpt lat="44.01378" lon="4.86995">
        <ele>27.190653</ele>
        <time>2021-09-16T09:09:54.000Z</time>
      </trkpt>
      <trkpt lat="44.01372" lon="4.87013">
        <ele>27.185617</ele>
        <time>2021-09-16T09:09:57.000Z</time>
      </trkpt>
      <trkpt lat="44.01371" lon="4.8702">
        <ele>27.183962</ele>
        <time>2021-09-16T09:09:59.000Z</time>
      </trkpt>
      <trkpt lat="44.01368" lon="4.87048">
        <ele>27.176922</ele>
        <time>2021-09-16T09:10:03.000Z</time>
      </trkpt>
      <trkpt lat="44.0137" lon="4.87075">
        <ele>27.170216</ele>
        <time>2021-09-16T09:10:08.000Z</time>
      </trkpt>
      <trkpt lat="44.01371" lon="4.87082">
        <ele>27.168419</ele>
        <time>2021-09-16T09:10:13.000Z</time>
      </trkpt>
      <trkpt lat="44.01371" lon="4.87083">
        <ele>27.168114</ele>
        <time>2021-09-16T09:10:25.000Z</time>
      </trkpt>
      <trkpt lat="44.01372" lon="4.87088">
        <ele>27.166878</ele>
        <time>2021-09-16T09:10:27.000Z</time>
      </trkpt>
      <trkpt lat="44.01374" lon="4.87093">
        <ele>27.165374</ele>
        <time>2021-09-16T09:10:30.000Z</time>
      </trkpt>
      <trkpt lat="44.01379" lon="4.87104">
        <ele>27.162098</ele>
        <time>2021-09-16T09:10:34.000Z</time>
      </trkpt>
      <trkpt lat="44.01385" lon="4.87125">
        <ele>27.156765</ele>
        <time>2021-09-16T09:10:38.000Z</time>
      </trkpt>
      <trkpt lat="44.01386" lon="4.87143">
        <ele>27.115881</ele>
        <time>2021-09-16T09:10:41.000Z</time>
      </trkpt>
      <trkpt lat="44.01363" lon="4.87169">
        <ele>26.965466</ele>
        <time>2021-09-16T09:10:48.000Z</time>
      </trkpt>
      <trkpt lat="44.01343" lon="4.87184">
        <ele>26.848994</ele>
        <time>2021-09-16T09:10:54.000Z</time>
      </trkpt>
      <trkpt lat="44.01328" lon="4.8719">
        <ele>26.771358</ele>
        <time>2021-09-16T09:10:59.000Z</time>
      </trkpt>
      <trkpt lat="44.0131" lon="4.87186">
        <ele>26.679452</ele>
        <time>2021-09-16T09:11:03.000Z</time>
      </trkpt>
      <trkpt lat="44.01284" lon="4.87178">
        <ele>26.542984</ele>
        <time>2021-09-16T09:11:08.000Z</time>
      </trkpt>
      <trkpt lat="44.01236" lon="4.87163">
        <ele>26.295032</ele>
        <time>2021-09-16T09:11:16.000Z</time>
      </trkpt>
      <trkpt lat="44.01196" lon="4.87151">
        <ele>26.195738</ele>
        <time>2021-09-16T09:11:23.000Z</time>
      </trkpt>
      <trkpt lat="44.01185" lon="4.87147">
        <ele>26.178469</ele>
        <time>2021-09-16T09:11:25.000Z</time>
      </trkpt>
      <trkpt lat="44.01174" lon="4.87144">
        <ele>26.161665</ele>
        <time>2021-09-16T09:11:27.000Z</time>
      </trkpt>
      <trkpt lat="44.01132" lon="4.87132">
        <ele>26.097201</ele>
        <time>2021-09-16T09:11:34.000Z</time>
      </trkpt>
      <trkpt lat="44.01108" lon="4.87125">
        <ele>26.059627</ele>
        <time>2021-09-16T09:11:38.000Z</time>
      </trkpt>
      <trkpt lat="44.01096" lon="4.87121">
        <ele>26.040863</ele>
        <time>2021-09-16T09:11:40.000Z</time>
      </trkpt>
      <trkpt lat="44.01052" lon="4.8711">
        <ele>25.973086</ele>
        <time>2021-09-16T09:11:47.000Z</time>
      </trkpt>
      <trkpt lat="44.01015" lon="4.87113">
        <ele>26.096225</ele>
        <time>2021-09-16T09:11:53.000Z</time>
      </trkpt>
      <trkpt lat="44.01008" lon="4.87122">
        <ele>26.128627</ele>
        <time>2021-09-16T09:11:55.000Z</time>
      </trkpt>
      <trkpt lat="44.01005" lon="4.87137">
        <ele>26.170218</ele>
        <time>2021-09-16T09:11:58.000Z</time>
      </trkpt>
      <trkpt lat="44.01003" lon="4.87144">
        <ele>26.189139</ele>
        <time>2021-09-16T09:11:59.000Z</time>
      </trkpt>
      <trkpt lat="44.01001" lon="4.87158">
        <ele>26.227378</ele>
        <time>2021-09-16T09:12:02.000Z</time>
      </trkpt>
      <trkpt lat="44.00997" lon="4.87182">
        <ele>26.288965</ele>
        <time>2021-09-16T09:12:04.000Z</time>
      </trkpt>
      <trkpt lat="44.00994" lon="4.87221">
        <ele>26.391234</ele>
        <time>2021-09-16T09:12:09.000Z</time>
      </trkpt>
      <trkpt lat="44.00994" lon="4.87228">
        <ele>26.409753</ele>
        <time>2021-09-16T09:12:10.000Z</time>
      </trkpt>
      <trkpt lat="44.00989" lon="4.87248">
        <ele>26.463901</ele>
        <time>2021-09-16T09:12:13.000Z</time>
      </trkpt>
      <trkpt lat="44.00984" lon="4.8726">
        <ele>26.501267</ele>
        <time>2021-09-16T09:12:15.000Z</time>
      </trkpt>
      <trkpt lat="44.0098" lon="4.87264">
        <ele>26.517546</ele>
        <time>2021-09-16T09:12:16.000Z</time>
      </trkpt>
      <trkpt lat="44.00973" lon="4.87271">
        <ele>26.549516</ele>
        <time>2021-09-16T09:12:18.000Z</time>
      </trkpt>
      <trkpt lat="44.00967" lon="4.87276">
        <ele>26.575423</ele>
        <time>2021-09-16T09:12:20.000Z</time>
      </trkpt>
      <trkpt lat="44.00957" lon="4.87285">
        <ele>26.617468</ele>
        <time>2021-09-16T09:12:26.000Z</time>
      </trkpt>
      <trkpt lat="44.00941" lon="4.87299">
        <ele>26.769387</ele>
        <time>2021-09-16T09:12:31.000Z</time>
      </trkpt>
      <trkpt lat="44.00932" lon="4.87306">
        <ele>26.857729</ele>
        <time>2021-09-16T09:12:34.000Z</time>
      </trkpt>
      <trkpt lat="44.00927" lon="4.87308">
        <ele>26.90012</ele>
        <time>2021-09-16T09:12:35.000Z</time>
      </trkpt>
      <trkpt lat="44.00922" lon="4.87307">
        <ele>26.940301</ele>
        <time>2021-09-16T09:12:36.000Z</time>
      </trkpt>
      <trkpt lat="44.00913" lon="4.87301">
        <ele>27.020353</ele>
        <time>2021-09-16T09:12:38.000Z</time>
      </trkpt>
      <trkpt lat="44.00887" lon="4.87272">
        <ele>27.294694</ele>
        <time>2021-09-16T09:12:46.000Z</time>
      </trkpt>
      <trkpt lat="44.00875" lon="4.8726">
        <ele>27.412902</ele>
        <time>2021-09-16T09:12:48.000Z</time>
      </trkpt>
      <trkpt lat="44.00869" lon="4.87263">
        <ele>27.468524</ele>
        <time>2021-09-16T09:12:49.000Z</time>
      </trkpt>
      <trkpt lat="44.00866" lon="4.87267">
        <ele>27.505916</ele>
        <time>2021-09-16T09:12:50.000Z</time>
      </trkpt>
      <trkpt lat="44.00866" lon="4.87267">
        <ele>27.505916</ele>
        <time>2021-09-16T09:12:52.000Z</time>
      </trkpt>
      <trkpt lat="44.00849" lon="4.87275">
        <ele>27.651918</ele>
        <time>2021-09-16T09:12:54.000Z</time>
      </trkpt>
      <trkpt lat="44.00831" lon="4.87273">
        <ele>27.798172</ele>
        <time>2021-09-16T09:12:59.000Z</time>
      </trkpt>
      <trkpt lat="44.00804" lon="4.87267">
        <ele>28.01927</ele>
        <time>2021-09-16T09:13:06.000Z</time>
      </trkpt>
      <trkpt lat="44.00788" lon="4.87263">
        <ele>28.13529</ele>
        <time>2021-09-16T09:13:10.000Z</time>
      </trkpt>
      <trkpt lat="44.0078" lon="4.87262">
        <ele>28.18049</ele>
        <time>2021-09-16T09:13:12.000Z</time>
      </trkpt>
      <trkpt lat="44.00764" lon="4.87258">
        <ele>28.268531</ele>
        <time>2021-09-16T09:13:17.000Z</time>
      </trkpt>
      <trkpt lat="44.00757" lon="4.87256">
        <ele>28.313667</ele>
        <time>2021-09-16T09:13:18.000Z</time>
      </trkpt>
      <trkpt lat="44.0075" lon="4.87264">
        <ele>28.362174</ele>
        <time>2021-09-16T09:13:20.000Z</time>
      </trkpt>
      <trkpt lat="44.00748" lon="4.87269">
        <ele>28.386952</ele>
        <time>2021-09-16T09:13:21.000Z</time>
      </trkpt>
      <trkpt lat="44.00731" lon="4.87309">
        <ele>28.574526</ele>
        <time>2021-09-16T09:13:28.000Z</time>
      </trkpt>
      <trkpt lat="44.00726" lon="4.87321">
        <ele>28.630781</ele>
        <time>2021-09-16T09:13:30.000Z</time>
      </trkpt>
      <trkpt lat="44.00724" lon="4.87334">
        <ele>28.684966</ele>
        <time>2021-09-16T09:13:32.000Z</time>
      </trkpt>
      <trkpt lat="44.00734" lon="4.87352">
        <ele>28.777975</ele>
        <time>2021-09-16T09:13:36.000Z</time>
      </trkpt>
      <trkpt lat="44.00741" lon="4.87365">
        <ele>28.842953</ele>
        <time>2021-09-16T09:13:37.000Z</time>
      </trkpt>
      <trkpt lat="44.00755" lon="4.8739">
        <ele>28.9696</ele>
        <time>2021-09-16T09:13:41.000Z</time>
      </trkpt>
      <trkpt lat="44.00776" lon="4.87427">
        <ele>29.170288</ele>
        <time>2021-09-16T09:13:47.000Z</time>
      </trkpt>
      <trkpt lat="44.00783" lon="4.8744">
        <ele>29.245469</ele>
        <time>2021-09-16T09:13:49.000Z</time>
      </trkpt>
      <trkpt lat="44.00778" lon="4.87454">
        <ele>29.314112</ele>
        <time>2021-09-16T09:13:51.000Z</time>
      </trkpt>
      <trkpt lat="44.00774" lon="4.87458">
        <ele>29.350141</ele>
        <time>2021-09-16T09:13:52.000Z</time>
      </trkpt>
      <trkpt lat="44.00741" lon="4.87492">
        <ele>29.607591</ele>
        <time>2021-09-16T09:13:59.000Z</time>
      </trkpt>
      <trkpt lat="44.00733" lon="4.87501">
        <ele>29.678074</ele>
        <time>2021-09-16T09:14:01.000Z</time>
      </trkpt>
      <trkpt lat="44.00724" lon="4.8751">
        <ele>29.748254</ele>
        <time>2021-09-16T09:14:04.000Z</time>
      </trkpt>
      <trkpt lat="44.00691" lon="4.87542">
        <ele>30.004498</ele>
        <time>2021-09-16T09:14:10.000Z</time>
      </trkpt>
      <trkpt lat="44.00651" lon="4.87583">
        <ele>30.254749</ele>
        <time>2021-09-16T09:14:18.000Z</time>
      </trkpt>
      <trkpt lat="44.00621" lon="4.87612">
        <ele>30.249792</ele>
        <time>2021-09-16T09:14:23.000Z</time>
      </trkpt>
      <trkpt lat="44.00608" lon="4.87626">
        <ele>30.247601</ele>
        <time>2021-09-16T09:14:25.000Z</time>
      </trkpt>
      <trkpt lat="44.00582" lon="4.8764">
        <ele>30.243802</ele>
        <time>2021-09-16T09:14:29.000Z</time>
      </trkpt>
      <trkpt lat="44.00576" lon="4.87642">
        <ele>30.24301</ele>
        <time>2021-09-16T09:14:31.000Z</time>
      </trkpt>
      <trkpt lat="44.00571" lon="4.87645">
        <ele>30.242196</ele>
        <time>2021-09-16T09:14:33.000Z</time>
      </trkpt>
      <trkpt lat="44.00561" lon="4.87651">
        <ele>30.240774</ele>
        <time>2021-09-16T09:14:38.000Z</time>
      </trkpt>
      <trkpt lat="44.00533" lon="4.87663">
        <ele>30.236762</ele>
        <time>2021-09-16T09:14:40.000Z</time>
      </trkpt>
      <trkpt lat="44.00502" lon="4.87676">
        <ele>30.232436</ele>
        <time>2021-09-16T09:14:45.000Z</time>
      </trkpt>
      <trkpt lat="44.00491" lon="4.87681">
        <ele>30.160766</ele>
        <time>2021-09-16T09:14:48.000Z</time>
      </trkpt>
      <trkpt lat="44.0048" lon="4.87682">
        <ele>30.056494</ele>
        <time>2021-09-16T09:14:49.000Z</time>
      </trkpt>
      <trkpt lat="44.00463" lon="4.87693">
        <ele>29.868342</ele>
        <time>2021-09-16T09:14:52.000Z</time>
      </trkpt>
      <trkpt lat="44.00457" lon="4.87695">
        <ele>29.808184</ele>
        <time>2021-09-16T09:14:54.000Z</time>
      </trkpt>
      <trkpt lat="44.00417" lon="4.87712">
        <ele>29.394754</ele>
        <time>2021-09-16T09:15:00.000Z</time>
      </trkpt>
      <trkpt lat="44.00386" lon="4.87723">
        <ele>29.082212</ele>
        <time>2021-09-16T09:15:05.000Z</time>
      </trkpt>
      <trkpt lat="44.00369" lon="4.87729">
        <ele>28.901574</ele>
        <time>2021-09-16T09:15:09.000Z</time>
      </trkpt>
      <trkpt lat="44.00325" lon="4.87741">
        <ele>28.466275</ele>
        <time>2021-09-16T09:15:15.000Z</time>
      </trkpt>
      <trkpt lat="44.0028" lon="4.87753">
        <ele>28.432341</ele>
        <time>2021-09-16T09:15:22.000Z</time>
      </trkpt>
      <trkpt lat="44.0028" lon="4.87753">
        <ele>28.432341</ele>
        <time>2021-09-16T09:15:24.000Z</time>
      </trkpt>
      <trkpt lat="44.00255" lon="4.87747">
        <ele>28.418524</ele>
        <time>2021-09-16T09:15:26.000Z</time>
      </trkpt>
      <trkpt lat="44.00255" lon="4.87747">
        <ele>28.418524</ele>
        <time>2021-09-16T09:15:28.000Z</time>
      </trkpt>
      <trkpt lat="44.00225" lon="4.87729">
        <ele>28.401278</ele>
        <time>2021-09-16T09:15:31.000Z</time>
      </trkpt>
      <trkpt lat="44.00215" lon="4.8772">
        <ele>28.394791</ele>
        <time>2021-09-16T09:15:33.000Z</time>
      </trkpt>
      <trkpt lat="44.00211" lon="4.87713">
        <ele>28.391365</ele>
        <time>2021-09-16T09:15:34.000Z</time>
      </trkpt>
      <trkpt lat="44.00183" lon="4.87663">
        <ele>28.367281</ele>
        <time>2021-09-16T09:15:41.000Z</time>
      </trkpt>
      <trkpt lat="44.00151" lon="4.87604">
        <ele>28.475167</ele>
        <time>2021-09-16T09:15:49.000Z</time>
      </trkpt>
      <trkpt lat="44.00123" lon="4.87553">
        <ele>28.60732</ele>
        <time>2021-09-16T09:15:56.000Z</time>
      </trkpt>
      <trkpt lat="44.00089" lon="4.87492">
        <ele>28.765698</ele>
        <time>2021-09-16T09:16:04.000Z</time>
      </trkpt>
      <trkpt lat="44.0008" lon="4.87477">
        <ele>28.805002</ele>
        <time>2021-09-16T09:16:06.000Z</time>
      </trkpt>
      <trkpt lat="44.00052" lon="4.87435">
        <ele>28.87508</ele>
        <time>2021-09-16T09:16:12.000Z</time>
      </trkpt>
      <trkpt lat="44.00035" lon="4.87421">
        <ele>28.877461</ele>
        <time>2021-09-16T09:16:16.000Z</time>
      </trkpt>
      <trkpt lat="44.00021" lon="4.87417">
        <ele>28.879222</ele>
        <time>2021-09-16T09:16:17.000Z</time>
      </trkpt>
      <trkpt lat="44.00014" lon="4.87418">
        <ele>28.880072</ele>
        <time>2021-09-16T09:16:18.000Z</time>
      </trkpt>
      <trkpt lat="44" lon="4.87422">
        <ele>28.881751</ele>
        <time>2021-09-16T09:16:20.000Z</time>
      </trkpt>
      <trkpt lat="43.99953" lon="4.87439">
        <ele>28.887511</ele>
        <time>2021-09-16T09:16:27.000Z</time>
      </trkpt>
      <trkpt lat="43.99947" lon="4.8744">
        <ele>28.888305</ele>
        <time>2021-09-16T09:16:28.000Z</time>
      </trkpt>
      <trkpt lat="43.9992" lon="4.87441">
        <ele>28.891513</ele>
        <time>2021-09-16T09:16:32.000Z</time>
      </trkpt>
      <trkpt lat="43.99887" lon="4.87438">
        <ele>28.906281</ele>
        <time>2021-09-16T09:16:37.000Z</time>
      </trkpt>
      <trkpt lat="43.99873" lon="4.87434">
        <ele>28.925846</ele>
        <time>2021-09-16T09:16:39.000Z</time>
      </trkpt>
      <trkpt lat="43.99833" lon="4.87421">
        <ele>28.983626</ele>
        <time>2021-09-16T09:16:45.000Z</time>
      </trkpt>
      <trkpt lat="43.99779" lon="4.87406">
        <ele>29.061429</ele>
        <time>2021-09-16T09:16:53.000Z</time>
      </trkpt>
      <trkpt lat="43.99772" lon="4.87404">
        <ele>29.071219</ele>
        <time>2021-09-16T09:16:54.000Z</time>
      </trkpt>
      <trkpt lat="43.99719" lon="4.8739">
        <ele>29.148213</ele>
        <time>2021-09-16T09:17:02.000Z</time>
      </trkpt>
      <trkpt lat="43.99712" lon="4.87389">
        <ele>29.138638</ele>
        <time>2021-09-16T09:17:03.000Z</time>
      </trkpt>
      <trkpt lat="43.99706" lon="4.87386">
        <ele>29.127468</ele>
        <time>2021-09-16T09:17:04.000Z</time>
      </trkpt>
      <trkpt lat="43.99693" lon="4.87378">
        <ele>29.104554</ele>
        <time>2021-09-16T09:17:06.000Z</time>
      </trkpt>
      <trkpt lat="43.99689" lon="4.8737">
        <ele>29.093469</ele>
        <time>2021-09-16T09:17:07.000Z</time>
      </trkpt>
      <trkpt lat="43.99686" lon="4.87363">
        <ele>29.082381</ele>
        <time>2021-09-16T09:17:08.000Z</time>
      </trkpt>
      <trkpt lat="43.99674" lon="4.87339">
        <ele>29.049018</ele>
        <time>2021-09-16T09:17:11.000Z</time>
      </trkpt>
      <trkpt lat="43.99644" lon="4.87278">
        <ele>28.961143</ele>
        <time>2021-09-16T09:17:19.000Z</time>
      </trkpt>
      <trkpt lat="43.99639" lon="4.87272">
        <ele>28.950218</ele>
        <time>2021-09-16T09:17:20.000Z</time>
      </trkpt>
      <trkpt lat="43.99623" lon="4.87257">
        <ele>28.917639</ele>
        <time>2021-09-16T09:17:23.000Z</time>
      </trkpt>
      <trkpt lat="43.99612" lon="4.87247">
        <ele>28.896427</ele>
        <time>2021-09-16T09:17:25.000Z</time>
      </trkpt>
      <trkpt lat="43.99568" lon="4.87227">
        <ele>28.807043</ele>
        <time>2021-09-16T09:17:32.000Z</time>
      </trkpt>
      <trkpt lat="43.9953" lon="4.87209">
        <ele>28.711332</ele>
        <time>2021-09-16T09:17:38.000Z</time>
      </trkpt>
      <trkpt lat="43.99472" lon="4.87182">
        <ele>28.567874</ele>
        <time>2021-09-16T09:17:47.000Z</time>
      </trkpt>
      <trkpt lat="43.99428" lon="4.87161">
        <ele>28.456874</ele>
        <time>2021-09-16T09:17:54.000Z</time>
      </trkpt>
      <trkpt lat="43.99391" lon="4.87144">
        <ele>28.505656</ele>
        <time>2021-09-16T09:18:00.000Z</time>
      </trkpt>
      <trkpt lat="43.99385" lon="4.87141">
        <ele>28.52365</ele>
        <time>2021-09-16T09:18:01.000Z</time>
      </trkpt>
      <trkpt lat="43.99373" lon="4.87135">
        <ele>28.561757</ele>
        <time>2021-09-16T09:18:03.000Z</time>
      </trkpt>
      <trkpt lat="43.99355" lon="4.87126">
        <ele>28.619907</ele>
        <time>2021-09-16T09:18:06.000Z</time>
      </trkpt>
      <trkpt lat="43.99322" lon="4.8711">
        <ele>28.723713</ele>
        <time>2021-09-16T09:18:12.000Z</time>
      </trkpt>
      <trkpt lat="43.99319" lon="4.87107">
        <ele>28.735936</ele>
        <time>2021-09-16T09:18:13.000Z</time>
      </trkpt>
      <trkpt lat="43.99305" lon="4.87096">
        <ele>28.78233</ele>
        <time>2021-09-16T09:18:17.000Z</time>
      </trkpt>
      <trkpt lat="43.99288" lon="4.87096">
        <ele>28.83554</ele>
        <time>2021-09-16T09:18:22.000Z</time>
      </trkpt>
      <trkpt lat="43.99276" lon="4.87109">
        <ele>28.879785</ele>
        <time>2021-09-16T09:18:26.000Z</time>
      </trkpt>
      <trkpt lat="43.99269" lon="4.87109">
        <ele>28.901317</ele>
        <time>2021-09-16T09:18:27.000Z</time>
      </trkpt>
      <trkpt lat="43.99264" lon="4.87108">
        <ele>28.917438</ele>
        <time>2021-09-16T09:18:28.000Z</time>
      </trkpt>
      <trkpt lat="43.99253" lon="4.87099">
        <ele>28.955946</ele>
        <time>2021-09-16T09:18:30.000Z</time>
      </trkpt>
      <trkpt lat="43.99223" lon="4.87073">
        <ele>28.890634</ele>
        <time>2021-09-16T09:18:35.000Z</time>
      </trkpt>
      <trkpt lat="43.99185" lon="4.87056">
        <ele>28.795977</ele>
        <time>2021-09-16T09:18:41.000Z</time>
      </trkpt>
      <trkpt lat="43.99134" lon="4.87036">
        <ele>28.67217</ele>
        <time>2021-09-16T09:18:49.000Z</time>
      </trkpt>
      <trkpt lat="43.99103" lon="4.87024">
        <ele>28.596043</ele>
        <time>2021-09-16T09:18:54.000Z</time>
      </trkpt>
      <trkpt lat="43.99097" lon="4.87022">
        <ele>28.581233</ele>
        <time>2021-09-16T09:18:55.000Z</time>
      </trkpt>
      <trkpt lat="43.99091" lon="4.8702">
        <ele>28.566649</ele>
        <time>2021-09-16T09:18:56.000Z</time>
      </trkpt>
      <trkpt lat="43.99079" lon="4.87016">
        <ele>28.530514</ele>
        <time>2021-09-16T09:18:58.000Z</time>
      </trkpt>
      <trkpt lat="43.99073" lon="4.87014">
        <ele>28.496093</ele>
        <time>2021-09-16T09:18:59.000Z</time>
      </trkpt>
      <trkpt lat="43.99048" lon="4.87008">
        <ele>28.359194</ele>
        <time>2021-09-16T09:19:03.000Z</time>
      </trkpt>
      <trkpt lat="43.9903" lon="4.87002">
        <ele>28.256094</ele>
        <time>2021-09-16T09:19:06.000Z</time>
      </trkpt>
      <trkpt lat="43.98988" lon="4.8699">
        <ele>28.017255</ele>
        <time>2021-09-16T09:19:13.000Z</time>
      </trkpt>
      <trkpt lat="43.98976" lon="4.86986">
        <ele>27.952055</ele>
        <time>2021-09-16T09:19:15.000Z</time>
      </trkpt>
      <trkpt lat="43.98965" lon="4.8698">
        <ele>27.88397</ele>
        <time>2021-09-16T09:19:17.000Z</time>
      </trkpt>
      <trkpt lat="43.98914" lon="4.86953">
        <ele>27.587143</ele>
        <time>2021-09-16T09:19:26.000Z</time>
      </trkpt>
      <trkpt lat="43.98865" lon="4.86926">
        <ele>27.468468</ele>
        <time>2021-09-16T09:19:35.000Z</time>
      </trkpt>
      <trkpt lat="43.98835" lon="4.8691">
        <ele>27.410654</ele>
        <time>2021-09-16T09:19:41.000Z</time>
      </trkpt>
      <trkpt lat="43.98811" lon="4.86897">
        <ele>27.365295</ele>
        <time>2021-09-16T09:19:46.000Z</time>
      </trkpt>
      <trkpt lat="43.988" lon="4.8689">
        <ele>27.34291</ele>
        <time>2021-09-16T09:19:48.000Z</time>
      </trkpt>
      <trkpt lat="43.98787" lon="4.86882">
        <ele>27.3183</ele>
        <time>2021-09-16T09:19:50.000Z</time>
      </trkpt>
      <trkpt lat="43.98737" lon="4.86848">
        <ele>27.214152</ele>
        <time>2021-09-16T09:19:58.000Z</time>
      </trkpt>
      <trkpt lat="43.98689" lon="4.86814">
        <ele>27.071249</ele>
        <time>2021-09-16T09:20:06.000Z</time>
      </trkpt>
      <trkpt lat="43.98683" lon="4.8681">
        <ele>27.053665</ele>
        <time>2021-09-16T09:20:07.000Z</time>
      </trkpt>
      <trkpt lat="43.9863" lon="4.86772">
        <ele>26.89658</ele>
        <time>2021-09-16T09:20:16.000Z</time>
      </trkpt>
      <trkpt lat="43.98618" lon="4.86763">
        <ele>26.861735</ele>
        <time>2021-09-16T09:20:18.000Z</time>
      </trkpt>
      <trkpt lat="43.98571" lon="4.86732">
        <ele>26.726539</ele>
        <time>2021-09-16T09:20:26.000Z</time>
      </trkpt>
      <trkpt lat="43.98516" lon="4.86699">
        <ele>26.585444</ele>
        <time>2021-09-16T09:20:35.000Z</time>
      </trkpt>
      <trkpt lat="43.98467" lon="4.8667">
        <ele>26.456959</ele>
        <time>2021-09-16T09:20:43.000Z</time>
      </trkpt>
      <trkpt lat="43.98417" lon="4.86643">
        <ele>26.330861</ele>
        <time>2021-09-16T09:20:51.000Z</time>
      </trkpt>
      <trkpt lat="43.98367" lon="4.86618">
        <ele>26.233982</ele>
        <time>2021-09-16T09:20:59.000Z</time>
      </trkpt>
      <trkpt lat="43.98311" lon="4.86592">
        <ele>26.128101</ele>
        <time>2021-09-16T09:21:08.000Z</time>
      </trkpt>
      <trkpt lat="43.98256" lon="4.86566">
        <ele>26.022988</ele>
        <time>2021-09-16T09:21:17.000Z</time>
      </trkpt>
      <trkpt lat="43.98205" lon="4.86543">
        <ele>25.988826</ele>
        <time>2021-09-16T09:21:25.000Z</time>
      </trkpt>
      <trkpt lat="43.98148" lon="4.86518">
        <ele>25.967222</ele>
        <time>2021-09-16T09:21:34.000Z</time>
      </trkpt>
      <trkpt lat="43.98141" lon="4.86515">
        <ele>25.964776</ele>
        <time>2021-09-16T09:21:35.000Z</time>
      </trkpt>
      <trkpt lat="43.98093" lon="4.86494">
        <ele>25.946526</ele>
        <time>2021-09-16T09:21:43.000Z</time>
      </trkpt>
      <trkpt lat="43.98038" lon="4.8647">
        <ele>25.940824</ele>
        <time>2021-09-16T09:21:52.000Z</time>
      </trkpt>
      <trkpt lat="43.98" lon="4.86458">
        <ele>25.941954</ele>
        <time>2021-09-16T09:21:58.000Z</time>
      </trkpt>
      <trkpt lat="43.97947" lon="4.86439">
        <ele>25.943535</ele>
        <time>2021-09-16T09:22:06.000Z</time>
      </trkpt>
      <trkpt lat="43.97941" lon="4.86437">
        <ele>25.943732</ele>
        <time>2021-09-16T09:22:07.000Z</time>
      </trkpt>
      <trkpt lat="43.97882" lon="4.86417">
        <ele>25.950952</ele>
        <time>2021-09-16T09:22:16.000Z</time>
      </trkpt>
      <trkpt lat="43.97844" lon="4.86404">
        <ele>25.962718</ele>
        <time>2021-09-16T09:22:22.000Z</time>
      </trkpt>
      <trkpt lat="43.97795" lon="4.86389">
        <ele>25.978083</ele>
        <time>2021-09-16T09:22:30.000Z</time>
      </trkpt>
      <trkpt lat="43.97741" lon="4.86375">
        <ele>25.995018</ele>
        <time>2021-09-16T09:22:39.000Z</time>
      </trkpt>
      <trkpt lat="43.97692" lon="4.86363">
        <ele>25.947308</ele>
        <time>2021-09-16T09:22:47.000Z</time>
      </trkpt>
      <trkpt lat="43.97636" lon="4.86349">
        <ele>25.856823</ele>
        <time>2021-09-16T09:22:56.000Z</time>
      </trkpt>
      <trkpt lat="43.97586" lon="4.86336">
        <ele>25.776932</ele>
        <time>2021-09-16T09:23:04.000Z</time>
      </trkpt>
      <trkpt lat="43.9753" lon="4.86322">
        <ele>25.616418</ele>
        <time>2021-09-16T09:23:13.000Z</time>
      </trkpt>
      <trkpt lat="43.97517" lon="4.86319">
        <ele>25.546266</ele>
        <time>2021-09-16T09:23:15.000Z</time>
      </trkpt>
      <trkpt lat="43.97461" lon="4.86306">
        <ele>25.232998</ele>
        <time>2021-09-16T09:23:24.000Z</time>
      </trkpt>
      <trkpt lat="43.97422" lon="4.863">
        <ele>25.022611</ele>
        <time>2021-09-16T09:23:30.000Z</time>
      </trkpt>
      <trkpt lat="43.97404" lon="4.863">
        <ele>24.925672</ele>
        <time>2021-09-16T09:23:33.000Z</time>
      </trkpt>
      <trkpt lat="43.97399" lon="4.86303">
        <ele>24.895358</ele>
        <time>2021-09-16T09:23:34.000Z</time>
      </trkpt>
      <trkpt lat="43.97396" lon="4.86308">
        <ele>24.868188</ele>
        <time>2021-09-16T09:23:35.000Z</time>
      </trkpt>
      <trkpt lat="43.97394" lon="4.86315">
        <ele>24.838611</ele>
        <time>2021-09-16T09:23:36.000Z</time>
      </trkpt>
      <trkpt lat="43.97393" lon="4.86323">
        <ele>24.80553</ele>
        <time>2021-09-16T09:23:37.000Z</time>
      </trkpt>
      <trkpt lat="43.97394" lon="4.86348">
        <ele>24.790077</ele>
        <time>2021-09-16T09:23:40.000Z</time>
      </trkpt>
      <trkpt lat="43.97398" lon="4.86407">
        <ele>25.252819</ele>
        <time>2021-09-16T09:23:47.000Z</time>
      </trkpt>
      <trkpt lat="43.97408" lon="4.8646">
        <ele>25.686274</ele>
        <time>2021-09-16T09:23:54.000Z</time>
      </trkpt>
      <trkpt lat="43.97426" lon="4.86515">
        <ele>26.15609</ele>
        <time>2021-09-16T09:24:02.000Z</time>
      </trkpt>
      <trkpt lat="43.9743" lon="4.86528">
        <ele>26.263991</ele>
        <time>2021-09-16T09:24:05.000Z</time>
      </trkpt>
      <trkpt lat="43.97432" lon="4.86549">
        <ele>26.430959</ele>
        <time>2021-09-16T09:24:07.000Z</time>
      </trkpt>
      <trkpt lat="43.97434" lon="4.86576">
        <ele>26.647629</ele>
        <time>2021-09-16T09:24:13.000Z</time>
      </trkpt>
      <trkpt lat="43.97446" lon="4.8661">
        <ele>27.002655</ele>
        <time>2021-09-16T09:24:20.000Z</time>
      </trkpt>
      <trkpt lat="43.97456" lon="4.86643">
        <ele>27.368133</ele>
        <time>2021-09-16T09:24:28.000Z</time>
      </trkpt>
      <trkpt lat="43.97453" lon="4.86655">
        <ele>27.492876</ele>
        <time>2021-09-16T09:24:30.000Z</time>
      </trkpt>
      <trkpt lat="43.97456" lon="4.86652">
        <ele>27.551592</ele>
        <time>2021-09-16T09:24:31.000Z</time>
      </trkpt>
      <trkpt lat="43.97443" lon="4.86658">
        <ele>27.745492</ele>
        <time>2021-09-16T09:24:35.000Z</time>
      </trkpt>
      <trkpt lat="43.97434" lon="4.86663">
        <ele>27.884545</ele>
        <time>2021-09-16T09:24:39.000Z</time>
      </trkpt>
      <trkpt lat="43.9743" lon="4.86665">
        <ele>27.944605</ele>
        <time>2021-09-16T09:24:40.000Z</time>
      </trkpt>
      <trkpt lat="43.97393" lon="4.86681">
        <ele>28.478687</ele>
        <time>2021-09-16T09:24:48.000Z</time>
      </trkpt>
      <trkpt lat="43.97365" lon="4.86687">
        <ele>28.871057</ele>
        <time>2021-09-16T09:24:53.000Z</time>
      </trkpt>
      <trkpt lat="43.97354" lon="4.86684">
        <ele>29.02277</ele>
        <time>2021-09-16T09:24:55.000Z</time>
      </trkpt>
      <trkpt lat="43.97344" lon="4.86679">
        <ele>29.165744</ele>
        <time>2021-09-16T09:24:57.000Z</time>
      </trkpt>
      <trkpt lat="43.9734" lon="4.86675">
        <ele>29.190191</ele>
        <time>2021-09-16T09:24:58.000Z</time>
      </trkpt>
      <trkpt lat="43.97333" lon="4.86661">
        <ele>29.225213</ele>
        <time>2021-09-16T09:25:00.000Z</time>
      </trkpt>
      <trkpt lat="43.97322" lon="4.86655">
        <ele>29.258123</ele>
        <time>2021-09-16T09:25:02.000Z</time>
      </trkpt>
      <trkpt lat="43.9731" lon="4.86658">
        <ele>29.29271</ele>
        <time>2021-09-16T09:25:04.000Z</time>
      </trkpt>
      <trkpt lat="43.97305" lon="4.86665">
        <ele>29.312492</ele>
        <time>2021-09-16T09:25:05.000Z</time>
      </trkpt>
      <trkpt lat="43.97303" lon="4.86673">
        <ele>29.330876</ele>
        <time>2021-09-16T09:25:06.000Z</time>
      </trkpt>
      <trkpt lat="43.97301" lon="4.86688">
        <ele>29.362412</ele>
        <time>2021-09-16T09:25:08.000Z</time>
      </trkpt>
      <trkpt lat="43.97295" lon="4.86706">
        <ele>29.404725</ele>
        <time>2021-09-16T09:25:10.000Z</time>
      </trkpt>
      <trkpt lat="43.97285" lon="4.86721">
        <ele>29.445291</ele>
        <time>2021-09-16T09:25:12.000Z</time>
      </trkpt>
      <trkpt lat="43.97272" lon="4.86732">
        <ele>29.489479</ele>
        <time>2021-09-16T09:25:14.000Z</time>
      </trkpt>
      <trkpt lat="43.97265" lon="4.86737">
        <ele>29.511691</ele>
        <time>2021-09-16T09:25:15.000Z</time>
      </trkpt>
      <trkpt lat="43.97258" lon="4.8674">
        <ele>29.534906</ele>
        <time>2021-09-16T09:25:16.000Z</time>
      </trkpt>
      <trkpt lat="43.97235" lon="4.86749">
        <ele>29.60306</ele>
        <time>2021-09-16T09:25:20.000Z</time>
      </trkpt>
      <trkpt lat="43.97179" lon="4.86768">
        <ele>29.741911</ele>
        <time>2021-09-16T09:25:27.000Z</time>
      </trkpt>
      <trkpt lat="43.97131" lon="4.86785">
        <ele>29.831616</ele>
        <time>2021-09-16T09:25:35.000Z</time>
      </trkpt>
      <trkpt lat="43.97087" lon="4.86805">
        <ele>29.91763</ele>
        <time>2021-09-16T09:25:41.000Z</time>
      </trkpt>
      <trkpt lat="43.97075" lon="4.86806">
        <ele>29.940368</ele>
        <time>2021-09-16T09:25:43.000Z</time>
      </trkpt>
      <trkpt lat="43.97062" lon="4.86803">
        <ele>29.964645</ele>
        <time>2021-09-16T09:25:45.000Z</time>
      </trkpt>
      <trkpt lat="43.97049" lon="4.86798">
        <ele>29.988508</ele>
        <time>2021-09-16T09:25:47.000Z</time>
      </trkpt>
      <trkpt lat="43.97043" lon="4.86795">
        <ele>30.001813</ele>
        <time>2021-09-16T09:25:48.000Z</time>
      </trkpt>
      <trkpt lat="43.97001" lon="4.86747">
        <ele>30.046389</ele>
        <time>2021-09-16T09:25:56.000Z</time>
      </trkpt>
      <trkpt lat="43.96996" lon="4.86741">
        <ele>30.049856</ele>
        <time>2021-09-16T09:25:57.000Z</time>
      </trkpt>
      <trkpt lat="43.96966" lon="4.86707">
        <ele>30.069907</ele>
        <time>2021-09-16T09:26:04.000Z</time>
      </trkpt>
      <trkpt lat="43.96923" lon="4.86656">
        <ele>30.099146</ele>
        <time>2021-09-16T09:26:12.000Z</time>
      </trkpt>
      <trkpt lat="43.96879" lon="4.8661">
        <ele>30.07231</ele>
        <time>2021-09-16T09:26:21.000Z</time>
      </trkpt>
      <trkpt lat="43.96834" lon="4.86563">
        <ele>29.937331</ele>
        <time>2021-09-16T09:26:30.000Z</time>
      </trkpt>
      <trkpt lat="43.96829" lon="4.86558">
        <ele>29.922833</ele>
        <time>2021-09-16T09:26:31.000Z</time>
      </trkpt>
      <trkpt lat="43.96814" lon="4.86532">
        <ele>29.864091</ele>
        <time>2021-09-16T09:26:35.000Z</time>
      </trkpt>
      <trkpt lat="43.96807" lon="4.8652">
        <ele>29.837606</ele>
        <time>2021-09-16T09:26:37.000Z</time>
      </trkpt>
      <trkpt lat="43.96803" lon="4.86514">
        <ele>29.824048</ele>
        <time>2021-09-16T09:26:38.000Z</time>
      </trkpt>
      <trkpt lat="43.9679" lon="4.86498">
        <ele>29.780798</ele>
        <time>2021-09-16T09:26:41.000Z</time>
      </trkpt>
      <trkpt lat="43.96779" lon="4.86491">
        <ele>29.751705</ele>
        <time>2021-09-16T09:26:43.000Z</time>
      </trkpt>
      <trkpt lat="43.96772" lon="4.86482">
        <ele>29.72907</ele>
        <time>2021-09-16T09:26:45.000Z</time>
      </trkpt>
      <trkpt lat="43.96758" lon="4.86448">
        <ele>29.614652</ele>
        <time>2021-09-16T09:26:50.000Z</time>
      </trkpt>
      <trkpt lat="43.96754" lon="4.86441">
        <ele>29.564921</ele>
        <time>2021-09-16T09:26:51.000Z</time>
      </trkpt>
      <trkpt lat="43.96743" lon="4.86441">
        <ele>29.487113</ele>
        <time>2021-09-16T09:26:54.000Z</time>
      </trkpt>
      <trkpt lat="43.96733" lon="4.86446">
        <ele>29.405531</ele>
        <time>2021-09-16T09:26:57.000Z</time>
      </trkpt>
      <trkpt lat="43.96731" lon="4.86449">
        <ele>29.383119</ele>
        <time>2021-09-16T09:26:58.000Z</time>
      </trkpt>
      <trkpt lat="43.96727" lon="4.8645">
        <ele>29.354134</ele>
        <time>2021-09-16T09:26:59.000Z</time>
      </trkpt>
      <trkpt lat="43.96718" lon="4.86456">
        <ele>29.278115</ele>
        <time>2021-09-16T09:27:01.000Z</time>
      </trkpt>
      <trkpt lat="43.96702" lon="4.86446">
        <ele>29.147984</ele>
        <time>2021-09-16T09:27:04.000Z</time>
      </trkpt>
      <trkpt lat="43.96686" lon="4.86437">
        <ele>29.020457</ele>
        <time>2021-09-16T09:27:07.000Z</time>
      </trkpt>
      <trkpt lat="43.96644" lon="4.86401">
        <ele>28.648059</ele>
        <time>2021-09-16T09:27:15.000Z</time>
      </trkpt>
      <trkpt lat="43.96626" lon="4.86391">
        <ele>28.502559</ele>
        <time>2021-09-16T09:27:18.000Z</time>
      </trkpt>
      <trkpt lat="43.96615" lon="4.86381">
        <ele>28.406698</ele>
        <time>2021-09-16T09:27:20.000Z</time>
      </trkpt>
      <trkpt lat="43.96604" lon="4.86371">
        <ele>28.312862</ele>
        <time>2021-09-16T09:27:22.000Z</time>
      </trkpt>
      <trkpt lat="43.9659" lon="4.86352">
        <ele>28.175035</ele>
        <time>2021-09-16T09:27:25.000Z</time>
      </trkpt>
      <trkpt lat="43.96557" lon="4.86321">
        <ele>27.900477</ele>
        <time>2021-09-16T09:27:31.000Z</time>
      </trkpt>
      <trkpt lat="43.96519" lon="4.86288">
        <ele>27.586552</ele>
        <time>2021-09-16T09:27:38.000Z</time>
      </trkpt>
      <trkpt lat="43.96513" lon="4.86284">
        <ele>27.542797</ele>
        <time>2021-09-16T09:27:39.000Z</time>
      </trkpt>
      <trkpt lat="43.96491" lon="4.86266">
        <ele>27.364824</ele>
        <time>2021-09-16T09:27:43.000Z</time>
      </trkpt>
      <trkpt lat="43.96445" lon="4.86212">
        <ele>27.060664</ele>
        <time>2021-09-16T09:27:52.000Z</time>
      </trkpt>
      <trkpt lat="43.9643" lon="4.86194">
        <ele>27.029932</ele>
        <time>2021-09-16T09:27:55.000Z</time>
      </trkpt>
      <trkpt lat="43.96385" lon="4.8614">
        <ele>26.938306</ele>
        <time>2021-09-16T09:28:04.000Z</time>
      </trkpt>
      <trkpt lat="43.96376" lon="4.86127">
        <ele>26.917898</ele>
        <time>2021-09-16T09:28:06.000Z</time>
      </trkpt>
      <trkpt lat="43.96371" lon="4.86121">
        <ele>26.907901</ele>
        <time>2021-09-16T09:28:07.000Z</time>
      </trkpt>
      <trkpt lat="43.96357" lon="4.86103">
        <ele>26.878443</ele>
        <time>2021-09-16T09:28:10.000Z</time>
      </trkpt>
      <trkpt lat="43.9633" lon="4.8607">
        <ele>26.822859</ele>
        <time>2021-09-16T09:28:16.000Z</time>
      </trkpt>
      <trkpt lat="43.96322" lon="4.86059">
        <ele>26.809403</ele>
        <time>2021-09-16T09:28:18.000Z</time>
      </trkpt>
      <trkpt lat="43.96315" lon="4.86056">
        <ele>26.80204</ele>
        <time>2021-09-16T09:28:20.000Z</time>
      </trkpt>
      <trkpt lat="43.96306" lon="4.86062">
        <ele>26.793063</ele>
        <time>2021-09-16T09:28:22.000Z</time>
      </trkpt>
      <trkpt lat="43.96301" lon="4.86065">
        <ele>26.788236</ele>
        <time>2021-09-16T09:28:23.000Z</time>
      </trkpt>
      <trkpt lat="43.96296" lon="4.86068">
        <ele>26.783211</ele>
        <time>2021-09-16T09:28:24.000Z</time>
      </trkpt>
      <trkpt lat="43.96267" lon="4.86085">
        <ele>26.753552</ele>
        <time>2021-09-16T09:28:30.000Z</time>
      </trkpt>
      <trkpt lat="43.96225" lon="4.86107">
        <ele>26.71186</ele>
        <time>2021-09-16T09:28:39.000Z</time>
      </trkpt>
      <trkpt lat="43.96215" lon="4.86112">
        <ele>26.702133</ele>
        <time>2021-09-16T09:28:40.000Z</time>
      </trkpt>
      <trkpt lat="43.96209" lon="4.86113">
        <ele>26.696365</ele>
        <time>2021-09-16T09:28:41.000Z</time>
      </trkpt>
      <trkpt lat="43.96207" lon="4.86107">
        <ele>26.69237</ele>
        <time>2021-09-16T09:28:42.000Z</time>
      </trkpt>
      <trkpt lat="43.96198" lon="4.8608">
        <ele>26.672283</ele>
        <time>2021-09-16T09:28:46.000Z</time>
      </trkpt>
      <trkpt lat="43.96184" lon="4.86038">
        <ele>26.651782</ele>
        <time>2021-09-16T09:28:53.000Z</time>
      </trkpt>
      <trkpt lat="43.96174" lon="4.86009">
        <ele>26.66459</ele>
        <time>2021-09-16T09:28:59.000Z</time>
      </trkpt>
      <trkpt lat="43.96172" lon="4.86004">
        <ele>26.666483</ele>
        <time>2021-09-16T09:29:01.000Z</time>
      </trkpt>
      <trkpt lat="43.96167" lon="4.86003">
        <ele>26.669262</ele>
        <time>2021-09-16T09:29:02.000Z</time>
      </trkpt>
      <trkpt lat="43.96156" lon="4.8601">
        <ele>26.676171</ele>
        <time>2021-09-16T09:29:05.000Z</time>
      </trkpt>
      <trkpt lat="43.96156" lon="4.8601">
        <ele>26.676171</ele>
        <time>2021-09-16T09:29:06.000Z</time>
      </trkpt>
      <trkpt lat="43.96136" lon="4.86021">
        <ele>26.687701</ele>
        <time>2021-09-16T09:29:09.000Z</time>
      </trkpt>
      <trkpt lat="43.96125" lon="4.86021">
        <ele>26.69403</ele>
        <time>2021-09-16T09:29:11.000Z</time>
      </trkpt>
      <trkpt lat="43.96107" lon="4.86022">
        <ele>26.704101</ele>
        <time>2021-09-16T09:29:14.000Z</time>
      </trkpt>
      <trkpt lat="43.96095" lon="4.86027">
        <ele>26.710995</ele>
        <time>2021-09-16T09:29:16.000Z</time>
      </trkpt>
      <trkpt lat="43.96069" lon="4.86048">
        <ele>26.727445</ele>
        <time>2021-09-16T09:29:21.000Z</time>
      </trkpt>
      <trkpt lat="43.96062" lon="4.86061">
        <ele>26.733877</ele>
        <time>2021-09-16T09:29:23.000Z</time>
      </trkpt>
      <trkpt lat="43.96062" lon="4.86061">
        <ele>26.733877</ele>
        <time>2021-09-16T09:29:24.000Z</time>
      </trkpt>
      <trkpt lat="43.96057" lon="4.86077">
        <ele>26.740613</ele>
        <time>2021-09-16T09:29:25.000Z</time>
      </trkpt>
      <trkpt lat="43.96054" lon="4.86093">
        <ele>26.745949</ele>
        <time>2021-09-16T09:29:27.000Z</time>
      </trkpt>
      <trkpt lat="43.96053" lon="4.861">
        <ele>26.738199</ele>
        <time>2021-09-16T09:29:28.000Z</time>
      </trkpt>
      <trkpt lat="43.96045" lon="4.8611">
        <ele>26.721686</ele>
        <time>2021-09-16T09:29:29.000Z</time>
      </trkpt>
      <trkpt lat="43.96036" lon="4.86113">
        <ele>26.707992</ele>
        <time>2021-09-16T09:29:31.000Z</time>
      </trkpt>
      <trkpt lat="43.95994" lon="4.86131">
        <ele>26.639336</ele>
        <time>2021-09-16T09:29:38.000Z</time>
      </trkpt>
      <trkpt lat="43.95945" lon="4.86151">
        <ele>26.562393</ele>
        <time>2021-09-16T09:29:46.000Z</time>
      </trkpt>
      <trkpt lat="43.95928" lon="4.86158">
        <ele>26.534697</ele>
        <time>2021-09-16T09:29:49.000Z</time>
      </trkpt>
      <trkpt lat="43.95921" lon="4.86157">
        <ele>26.523306</ele>
        <time>2021-09-16T09:29:50.000Z</time>
      </trkpt>
      <trkpt lat="43.95915" lon="4.86143">
        <ele>26.505222</ele>
        <time>2021-09-16T09:29:52.000Z</time>
      </trkpt>
      <trkpt lat="43.95913" lon="4.86134">
        <ele>26.496044</ele>
        <time>2021-09-16T09:29:53.000Z</time>
      </trkpt>
      <trkpt lat="43.95904" lon="4.86086">
        <ele>26.466196</ele>
        <time>2021-09-16T09:29:59.000Z</time>
      </trkpt>
      <trkpt lat="43.959" lon="4.86069">
        <ele>26.462869</ele>
        <time>2021-09-16T09:30:01.000Z</time>
      </trkpt>
      <trkpt lat="43.95891" lon="4.86057">
        <ele>26.459597</ele>
        <time>2021-09-16T09:30:03.000Z</time>
      </trkpt>
      <trkpt lat="43.95885" lon="4.86056">
        <ele>26.458086</ele>
        <time>2021-09-16T09:30:05.000Z</time>
      </trkpt>
      <trkpt lat="43.95873" lon="4.86058">
        <ele>26.454905</ele>
        <time>2021-09-16T09:30:06.000Z</time>
      </trkpt>
      <trkpt lat="43.95829" lon="4.86065">
        <ele>26.44302</ele>
        <time>2021-09-16T09:30:13.000Z</time>
      </trkpt>
      <trkpt lat="43.95816" lon="4.86063">
        <ele>26.439634</ele>
        <time>2021-09-16T09:30:15.000Z</time>
      </trkpt>
      <trkpt lat="43.9581" lon="4.8606">
        <ele>26.438031</ele>
        <time>2021-09-16T09:30:17.000Z</time>
      </trkpt>
      <trkpt lat="43.95775" lon="4.86021">
        <ele>26.426082</ele>
        <time>2021-09-16T09:30:23.000Z</time>
      </trkpt>
      <trkpt lat="43.95756" lon="4.85998">
        <ele>26.429539</ele>
        <time>2021-09-16T09:30:27.000Z</time>
      </trkpt>
      <trkpt lat="43.95747" lon="4.85985">
        <ele>26.433583</ele>
        <time>2021-09-16T09:30:29.000Z</time>
      </trkpt>
      <trkpt lat="43.95743" lon="4.8596">
        <ele>26.439422</ele>
        <time>2021-09-16T09:30:32.000Z</time>
      </trkpt>
      <trkpt lat="43.9574" lon="4.85927">
        <ele>26.446929</ele>
        <time>2021-09-16T09:30:36.000Z</time>
      </trkpt>
      <trkpt lat="43.95737" lon="4.85911">
        <ele>26.450596</ele>
        <time>2021-09-16T09:30:38.000Z</time>
      </trkpt>
      <trkpt lat="43.95727" lon="4.85881">
        <ele>26.45814</ele>
        <time>2021-09-16T09:30:43.000Z</time>
      </trkpt>
      <trkpt lat="43.95724" lon="4.85872">
        <ele>26.460295</ele>
        <time>2021-09-16T09:30:47.000Z</time>
      </trkpt>
      <trkpt lat="43.95724" lon="4.85867">
        <ele>26.461431</ele>
        <time>2021-09-16T09:31:56.000Z</time>
      </trkpt>
      <trkpt lat="43.95724" lon="4.85863">
        <ele>26.462316</ele>
        <time>2021-09-16T09:31:57.000Z</time>
      </trkpt>
      <trkpt lat="43.9572" lon="4.85848">
        <ele>26.46589</ele>
        <time>2021-09-16T09:32:00.000Z</time>
      </trkpt>
      <trkpt lat="43.95719" lon="4.85842">
        <ele>26.467282</ele>
        <time>2021-09-16T09:32:01.000Z</time>
      </trkpt>
      <trkpt lat="43.95717" lon="4.85836">
        <ele>26.468768</ele>
        <time>2021-09-16T09:32:02.000Z</time>
      </trkpt>
      <trkpt lat="43.95715" lon="4.85829">
        <ele>26.470342</ele>
        <time>2021-09-16T09:32:04.000Z</time>
      </trkpt>
      <trkpt lat="43.95713" lon="4.85816">
        <ele>26.473328</ele>
        <time>2021-09-16T09:32:05.000Z</time>
      </trkpt>
      <trkpt lat="43.95712" lon="4.85796">
        <ele>26.477898</ele>
        <time>2021-09-16T09:32:08.000Z</time>
      </trkpt>
      <trkpt lat="43.95714" lon="4.85776">
        <ele>26.463607</ele>
        <time>2021-09-16T09:32:11.000Z</time>
      </trkpt>
      <trkpt lat="43.9572" lon="4.85717">
        <ele>26.352983</ele>
        <time>2021-09-16T09:32:20.000Z</time>
      </trkpt>
      <trkpt lat="43.95725" lon="4.8566">
        <ele>26.245941</ele>
        <time>2021-09-16T09:32:28.000Z</time>
      </trkpt>
      <trkpt lat="43.9573" lon="4.85601">
        <ele>26.133684</ele>
        <time>2021-09-16T09:32:36.000Z</time>
      </trkpt>
      <trkpt lat="43.95734" lon="4.85555">
        <ele>26.048471</ele>
        <time>2021-09-16T09:32:42.000Z</time>
      </trkpt>
      <trkpt lat="43.95739" lon="4.85501">
        <ele>26.019386</ele>
        <time>2021-09-16T09:32:49.000Z</time>
      </trkpt>
      <trkpt lat="43.95742" lon="4.85463">
        <ele>26.024794</ele>
        <time>2021-09-16T09:32:54.000Z</time>
      </trkpt>
      <trkpt lat="43.95743" lon="4.85456">
        <ele>26.025797</ele>
        <time>2021-09-16T09:32:56.000Z</time>
      </trkpt>
      <trkpt lat="43.95749" lon="4.85433">
        <ele>26.029298</ele>
        <time>2021-09-16T09:32:58.000Z</time>
      </trkpt>
      <trkpt lat="43.95745" lon="4.85424">
        <ele>26.030729</ele>
        <time>2021-09-16T09:33:00.000Z</time>
      </trkpt>
      <trkpt lat="43.95735" lon="4.85426">
        <ele>26.032668</ele>
        <time>2021-09-16T09:33:02.000Z</time>
      </trkpt>
      <trkpt lat="43.95726" lon="4.85439">
        <ele>26.035141</ele>
        <time>2021-09-16T09:33:03.000Z</time>
      </trkpt>
      <trkpt lat="43.95708" lon="4.85458">
        <ele>26.039652</ele>
        <time>2021-09-16T09:33:07.000Z</time>
      </trkpt>
      <trkpt lat="43.95673" lon="4.85493">
        <ele>26.048056</ele>
        <time>2021-09-16T09:33:14.000Z</time>
      </trkpt>
      <trkpt lat="43.95633" lon="4.85534">
        <ele>26.007206</ele>
        <time>2021-09-16T09:33:22.000Z</time>
      </trkpt>
      <trkpt lat="43.95597" lon="4.85571">
        <ele>25.961551</ele>
        <time>2021-09-16T09:33:29.000Z</time>
      </trkpt>
      <trkpt lat="43.95586" lon="4.85581">
        <ele>25.948599</ele>
        <time>2021-09-16T09:33:31.000Z</time>
      </trkpt>
      <trkpt lat="43.95574" lon="4.85585">
        <ele>25.935822</ele>
        <time>2021-09-16T09:33:33.000Z</time>
      </trkpt>
      <trkpt lat="43.9554" lon="4.85585">
        <ele>25.901267</ele>
        <time>2021-09-16T09:33:38.000Z</time>
      </trkpt>
      <trkpt lat="43.95485" lon="4.85584">
        <ele>25.814394</ele>
        <time>2021-09-16T09:33:46.000Z</time>
      </trkpt>
      <trkpt lat="43.95478" lon="4.85583">
        <ele>25.798588</ele>
        <time>2021-09-16T09:33:47.000Z</time>
      </trkpt>
      <trkpt lat="43.95432" lon="4.85584">
        <ele>25.687275</ele>
        <time>2021-09-16T09:33:54.000Z</time>
      </trkpt>
      <trkpt lat="43.95426" lon="4.85586">
        <ele>25.671958</ele>
        <time>2021-09-16T09:33:55.000Z</time>
      </trkpt>
      <trkpt lat="43.95398" lon="4.85595">
        <ele>25.60199</ele>
        <time>2021-09-16T09:34:00.000Z</time>
      </trkpt>
      <trkpt lat="43.95395" lon="4.85597">
        <ele>25.592756</ele>
        <time>2021-09-16T09:34:01.000Z</time>
      </trkpt>
      <trkpt lat="43.95387" lon="4.85598">
        <ele>25.574185</ele>
        <time>2021-09-16T09:34:03.000Z</time>
      </trkpt>
      <trkpt lat="43.95373" lon="4.85597">
        <ele>25.53991</ele>
        <time>2021-09-16T09:34:06.000Z</time>
      </trkpt>
      <trkpt lat="43.9533" lon="4.85595">
        <ele>25.436305</ele>
        <time>2021-09-16T09:34:13.000Z</time>
      </trkpt>
      <trkpt lat="43.95286" lon="4.85594">
        <ele>25.240709</ele>
        <time>2021-09-16T09:34:20.000Z</time>
      </trkpt>
      <trkpt lat="43.95238" lon="4.85595">
        <ele>25.023081</ele>
        <time>2021-09-16T09:34:28.000Z</time>
      </trkpt>
      <trkpt lat="43.95213" lon="4.85596">
        <ele>24.912034</ele>
        <time>2021-09-16T09:34:32.000Z</time>
      </trkpt>
      <trkpt lat="43.95203" lon="4.85591">
        <ele>24.861377</ele>
        <time>2021-09-16T09:34:34.000Z</time>
      </trkpt>
      <trkpt lat="43.95177" lon="4.85575">
        <ele>24.735897</ele>
        <time>2021-09-16T09:34:39.000Z</time>
      </trkpt>
      <trkpt lat="43.95149" lon="4.85558">
        <ele>24.612919</ele>
        <time>2021-09-16T09:34:45.000Z</time>
      </trkpt>
      <trkpt lat="43.95145" lon="4.85555">
        <ele>24.607196</ele>
        <time>2021-09-16T09:34:46.000Z</time>
      </trkpt>
      <trkpt lat="43.95128" lon="4.8555">
        <ele>24.585236</ele>
        <time>2021-09-16T09:34:50.000Z</time>
      </trkpt>
      <trkpt lat="43.95114" lon="4.85547">
        <ele>24.567885</ele>
        <time>2021-09-16T09:34:55.000Z</time>
      </trkpt>
      <trkpt lat="43.95101" lon="4.85544">
        <ele>24.550704</ele>
        <time>2021-09-16T09:35:02.000Z</time>
      </trkpt>
      <trkpt lat="43.95099" lon="4.85544">
        <ele>24.548802</ele>
        <time>2021-09-16T09:35:03.000Z</time>
      </trkpt>
      <trkpt lat="43.95093" lon="4.85542">
        <ele>24.540652</ele>
        <time>2021-09-16T09:35:07.000Z</time>
      </trkpt>
      <trkpt lat="43.95081" lon="4.85539">
        <ele>24.525899</ele>
        <time>2021-09-16T09:35:13.000Z</time>
      </trkpt>
      <trkpt lat="43.9508" lon="4.85539">
        <ele>24.524227</ele>
        <time>2021-09-16T09:35:16.000Z</time>
      </trkpt>
      <trkpt lat="43.95076" lon="4.85538">
        <ele>24.519911</ele>
        <time>2021-09-16T09:37:31.000Z</time>
      </trkpt>
      <trkpt lat="43.95074" lon="4.85538">
        <ele>24.517112</ele>
        <time>2021-09-16T09:37:33.000Z</time>
      </trkpt>
      <trkpt lat="43.95072" lon="4.85553">
        <ele>24.503253</ele>
        <time>2021-09-16T09:37:38.000Z</time>
      </trkpt>
      <trkpt lat="43.95071" lon="4.85559">
        <ele>24.497509</ele>
        <time>2021-09-16T09:37:39.000Z</time>
      </trkpt>
      <trkpt lat="43.9506" lon="4.85583">
        <ele>24.471914</ele>
        <time>2021-09-16T09:37:43.000Z</time>
      </trkpt>
      <trkpt lat="43.95057" lon="4.85589">
        <ele>24.465311</ele>
        <time>2021-09-16T09:37:44.000Z</time>
      </trkpt>
      <trkpt lat="43.95045" lon="4.85613">
        <ele>24.438815</ele>
        <time>2021-09-16T09:37:48.000Z</time>
      </trkpt>
      <trkpt lat="43.95012" lon="4.85651">
        <ele>24.453448</ele>
        <time>2021-09-16T09:37:56.000Z</time>
      </trkpt>
      <trkpt lat="43.9498" lon="4.85687">
        <ele>24.837111</ele>
        <time>2021-09-16T09:38:04.000Z</time>
      </trkpt>
      <trkpt lat="43.94973" lon="4.85695">
        <ele>24.925578</ele>
        <time>2021-09-16T09:38:06.000Z</time>
      </trkpt>
      <trkpt lat="43.94969" lon="4.85698">
        <ele>24.967813</ele>
        <time>2021-09-16T09:38:08.000Z</time>
      </trkpt>
      <trkpt lat="43.9497" lon="4.85698">
        <ele>24.977161</ele>
        <time>2021-09-16T09:38:11.000Z</time>
      </trkpt>
      <trkpt lat="43.94971" lon="4.85697">
        <ele>24.989761</ele>
        <time>2021-09-16T09:38:12.000Z</time>
      </trkpt>
      <trkpt lat="43.9498" lon="4.85688">
        <ele>25.098518</ele>
        <time>2021-09-16T09:38:16.000Z</time>
      </trkpt>
      <trkpt lat="43.94982" lon="4.85679">
        <ele>25.157273</ele>
        <time>2021-09-16T09:38:17.000Z</time>
      </trkpt>
      <trkpt lat="43.94979" lon="4.85672">
        <ele>25.212656</ele>
        <time>2021-09-16T09:38:19.000Z</time>
      </trkpt>
      <trkpt lat="43.94977" lon="4.85667">
        <ele>25.251053</ele>
        <time>2021-09-16T09:38:20.000Z</time>
      </trkpt>
      <trkpt lat="43.9497" lon="4.85649">
        <ele>25.391496</ele>
        <time>2021-09-16T09:38:23.000Z</time>
      </trkpt>
      <trkpt lat="43.94961" lon="4.85629">
        <ele>25.550108</ele>
        <time>2021-09-16T09:38:26.000Z</time>
      </trkpt>
      <trkpt lat="43.94954" lon="4.85615">
        <ele>25.661434</ele>
        <time>2021-09-16T09:38:28.000Z</time>
      </trkpt>
      <trkpt lat="43.94949" lon="4.85603">
        <ele>25.754507</ele>
        <time>2021-09-16T09:38:30.000Z</time>
      </trkpt>
      <trkpt lat="43.94946" lon="4.85595">
        <ele>25.814191</ele>
        <time>2021-09-16T09:38:32.000Z</time>
      </trkpt>
      <trkpt lat="43.9494" lon="4.85581">
        <ele>25.929137</ele>
        <time>2021-09-16T09:38:36.000Z</time>
      </trkpt>
      <trkpt lat="43.94934" lon="4.85563">
        <ele>26.061076</ele>
        <time>2021-09-16T09:38:39.000Z</time>
      </trkpt>
      <trkpt lat="43.9493" lon="4.85549">
        <ele>26.095009</ele>
        <time>2021-09-16T09:38:41.000Z</time>
      </trkpt>
      <trkpt lat="43.94928" lon="4.85535">
        <ele>26.123097</ele>
        <time>2021-09-16T09:38:43.000Z</time>
      </trkpt>
      <trkpt lat="43.94924" lon="4.85514">
        <ele>26.164368</ele>
        <time>2021-09-16T09:38:46.000Z</time>
      </trkpt>
      <trkpt lat="43.94918" lon="4.85485">
        <ele>26.222331</ele>
        <time>2021-09-16T09:38:50.000Z</time>
      </trkpt>
      <trkpt lat="43.94907" lon="4.8543">
        <ele>26.330505</ele>
        <time>2021-09-16T09:38:57.000Z</time>
      </trkpt>
      <trkpt lat="43.94897" lon="4.85383">
        <ele>26.423224</ele>
        <time>2021-09-16T09:39:03.000Z</time>
      </trkpt>
      <trkpt lat="43.94884" lon="4.85327">
        <ele>26.535295</ele>
        <time>2021-09-16T09:39:10.000Z</time>
      </trkpt>
      <trkpt lat="43.94881" lon="4.85311">
        <ele>26.604625</ele>
        <time>2021-09-16T09:39:12.000Z</time>
      </trkpt>
      <trkpt lat="43.94875" lon="4.85288">
        <ele>26.739217</ele>
        <time>2021-09-16T09:39:15.000Z</time>
      </trkpt>
      <trkpt lat="43.9487" lon="4.85272">
        <ele>26.832668</ele>
        <time>2021-09-16T09:39:17.000Z</time>
      </trkpt>
      <trkpt lat="43.94865" lon="4.85257">
        <ele>26.922742</ele>
        <time>2021-09-16T09:39:19.000Z</time>
      </trkpt>
      <trkpt lat="43.94863" lon="4.85249">
        <ele>26.967838</ele>
        <time>2021-09-16T09:39:20.000Z</time>
      </trkpt>
      <trkpt lat="43.94859" lon="4.85225">
        <ele>27.098355</ele>
        <time>2021-09-16T09:39:23.000Z</time>
      </trkpt>
      <trkpt lat="43.94857" lon="4.85211">
        <ele>27.176778</ele>
        <time>2021-09-16T09:39:26.000Z</time>
      </trkpt>
      <trkpt lat="43.94851" lon="4.85197">
        <ele>27.267594</ele>
        <time>2021-09-16T09:39:30.000Z</time>
      </trkpt>
      <trkpt lat="43.94845" lon="4.85174">
        <ele>27.398868</ele>
        <time>2021-09-16T09:39:35.000Z</time>
      </trkpt>
      <trkpt lat="43.9484" lon="4.85158">
        <ele>27.493415</ele>
        <time>2021-09-16T09:39:39.000Z</time>
      </trkpt>
      <trkpt lat="43.94839" lon="4.85155">
        <ele>27.512068</ele>
        <time>2021-09-16T09:39:40.000Z</time>
      </trkpt>
      <trkpt lat="43.94836" lon="4.85146">
        <ele>27.565758</ele>
        <time>2021-09-16T09:39:42.000Z</time>
      </trkpt>
      <trkpt lat="43.94834" lon="4.8514">
        <ele>27.602099</ele>
        <time>2021-09-16T09:39:43.000Z</time>
      </trkpt>
      <trkpt lat="43.94824" lon="4.85113">
        <ele>27.76057</ele>
        <time>2021-09-16T09:39:47.000Z</time>
      </trkpt>
      <trkpt lat="43.94813" lon="4.85067">
        <ele>27.899679</ele>
        <time>2021-09-16T09:39:53.000Z</time>
      </trkpt>
      <trkpt lat="43.94808" lon="4.85024">
        <ele>27.910679</ele>
        <time>2021-09-16T09:39:58.000Z</time>
      </trkpt>
      <trkpt lat="43.94798" lon="4.84966">
        <ele>27.925655</ele>
        <time>2021-09-16T09:40:05.000Z</time>
      </trkpt>
      <trkpt lat="43.94793" lon="4.84952">
        <ele>27.929669</ele>
        <time>2021-09-16T09:40:07.000Z</time>
      </trkpt>
      <trkpt lat="43.94786" lon="4.8494">
        <ele>27.933697</ele>
        <time>2021-09-16T09:40:09.000Z</time>
      </trkpt>
      <trkpt lat="43.94753" lon="4.84887">
        <ele>27.951157</ele>
        <time>2021-09-16T09:40:18.000Z</time>
      </trkpt>
      <trkpt lat="43.94728" lon="4.84847">
        <ele>27.948543</ele>
        <time>2021-09-16T09:40:25.000Z</time>
      </trkpt>
      <trkpt lat="43.94724" lon="4.84841">
        <ele>27.946674</ele>
        <time>2021-09-16T09:40:26.000Z</time>
      </trkpt>
      <trkpt lat="43.9471" lon="4.84825">
        <ele>27.940316</ele>
        <time>2021-09-16T09:40:30.000Z</time>
      </trkpt>
      <trkpt lat="43.94705" lon="4.84819">
        <ele>27.937906</ele>
        <time>2021-09-16T09:40:31.000Z</time>
      </trkpt>
      <trkpt lat="43.94703" lon="4.84815">
        <ele>27.936629</ele>
        <time>2021-09-16T09:40:32.000Z</time>
      </trkpt>
      <trkpt lat="43.94701" lon="4.84808">
        <ele>27.934814</ele>
        <time>2021-09-16T09:40:34.000Z</time>
      </trkpt>
      <trkpt lat="43.94694" lon="4.84788">
        <ele>27.929214</ele>
        <time>2021-09-16T09:40:39.000Z</time>
      </trkpt>
      <trkpt lat="43.94681" lon="4.84762">
        <ele>27.921235</ele>
        <time>2021-09-16T09:40:44.000Z</time>
      </trkpt>
      <trkpt lat="43.94656" lon="4.84727">
        <ele>27.908694</ele>
        <time>2021-09-16T09:40:51.000Z</time>
      </trkpt>
      <trkpt lat="43.94645" lon="4.8473">
        <ele>27.904837</ele>
        <time>2021-09-16T09:40:53.000Z</time>
      </trkpt>
      <trkpt lat="43.94642" lon="4.84734">
        <ele>27.903313</ele>
        <time>2021-09-16T09:40:54.000Z</time>
      </trkpt>
      <trkpt lat="43.94642" lon="4.84734">
        <ele>27.903313</ele>
        <time>2021-09-16T09:40:55.000Z</time>
      </trkpt>
      <trkpt lat="43.94629" lon="4.84748">
        <ele>27.897787</ele>
        <time>2021-09-16T09:40:57.000Z</time>
      </trkpt>
      <trkpt lat="43.94626" lon="4.84751">
        <ele>27.896279</ele>
        <time>2021-09-16T09:40:58.000Z</time>
      </trkpt>
      <trkpt lat="43.94621" lon="4.84746">
        <ele>27.89414</ele>
        <time>2021-09-16T09:40:59.000Z</time>
      </trkpt>
      <trkpt lat="43.94615" lon="4.84735">
        <ele>27.851731</ele>
        <time>2021-09-16T09:41:01.000Z</time>
      </trkpt>
      <trkpt lat="43.94586" lon="4.84685">
        <ele>27.639867</ele>
        <time>2021-09-16T09:41:09.000Z</time>
      </trkpt>
      <trkpt lat="43.94575" lon="4.84667">
        <ele>27.561148</ele>
        <time>2021-09-16T09:41:12.000Z</time>
      </trkpt>
      <trkpt lat="43.94569" lon="4.84655">
        <ele>27.512363</ele>
        <time>2021-09-16T09:41:14.000Z</time>
      </trkpt>
      <trkpt lat="43.94566" lon="4.8465">
        <ele>27.489998</ele>
        <time>2021-09-16T09:41:15.000Z</time>
      </trkpt>
      <trkpt lat="43.9456" lon="4.84638">
        <ele>27.440438</ele>
        <time>2021-09-16T09:41:17.000Z</time>
      </trkpt>
      <trkpt lat="43.94562" lon="4.84632">
        <ele>27.419492</ele>
        <time>2021-09-16T09:41:18.000Z</time>
      </trkpt>
      <trkpt lat="43.94564" lon="4.84625">
        <ele>27.394964</ele>
        <time>2021-09-16T09:41:19.000Z</time>
      </trkpt>
      <trkpt lat="43.94572" lon="4.84606">
        <ele>27.321543</ele>
        <time>2021-09-16T09:41:22.000Z</time>
      </trkpt>
      <trkpt lat="43.94575" lon="4.84601">
        <ele>27.299461</ele>
        <time>2021-09-16T09:41:23.000Z</time>
      </trkpt>
      <trkpt lat="43.94577" lon="4.84593">
        <ele>27.270041</ele>
        <time>2021-09-16T09:41:25.000Z</time>
      </trkpt>
      <trkpt lat="43.94576" lon="4.84587">
        <ele>27.249597</ele>
        <time>2021-09-16T09:41:26.000Z</time>
      </trkpt>
      <trkpt lat="43.94573" lon="4.84577">
        <ele>27.216193</ele>
        <time>2021-09-16T09:41:28.000Z</time>
      </trkpt>
      <trkpt lat="43.94572" lon="4.84573">
        <ele>27.199491</ele>
        <time>2021-09-16T09:41:29.000Z</time>
      </trkpt>
      <trkpt lat="43.94572" lon="4.84563">
        <ele>27.165626</ele>
        <time>2021-09-16T09:41:31.000Z</time>
      </trkpt>
      <trkpt lat="43.94571" lon="4.8455">
        <ele>27.12445</ele>
        <time>2021-09-16T09:41:33.000Z</time>
      </trkpt>
      <trkpt lat="43.94571" lon="4.84536">
        <ele>27.077013</ele>
        <time>2021-09-16T09:41:35.000Z</time>
      </trkpt>
      <trkpt lat="43.94572" lon="4.84528">
        <ele>27.065811</ele>
        <time>2021-09-16T09:41:36.000Z</time>
      </trkpt>
      <trkpt lat="43.94576" lon="4.84505">
        <ele>27.069987</ele>
        <time>2021-09-16T09:41:39.000Z</time>
      </trkpt>
      <trkpt lat="43.94577" lon="4.84496">
        <ele>27.071471</ele>
        <time>2021-09-16T09:41:40.000Z</time>
      </trkpt>
      <trkpt lat="43.94579" lon="4.8448">
        <ele>27.074361</ele>
        <time>2021-09-16T09:41:42.000Z</time>
      </trkpt>
      <trkpt lat="43.9458" lon="4.84463">
        <ele>27.077199</ele>
        <time>2021-09-16T09:41:44.000Z</time>
      </trkpt>
      <trkpt lat="43.94581" lon="4.84454">
        <ele>27.078734</ele>
        <time>2021-09-16T09:41:45.000Z</time>
      </trkpt>
      <trkpt lat="43.94582" lon="4.84421">
        <ele>27.08446</ele>
        <time>2021-09-16T09:41:49.000Z</time>
      </trkpt>
      <trkpt lat="43.94582" lon="4.84414">
        <ele>27.08579</ele>
        <time>2021-09-16T09:41:50.000Z</time>
      </trkpt>
      <trkpt lat="43.94583" lon="4.8439">
        <ele>27.089954</ele>
        <time>2021-09-16T09:41:53.000Z</time>
      </trkpt>
      <trkpt lat="43.94583" lon="4.84376">
        <ele>27.092337</ele>
        <time>2021-09-16T09:41:55.000Z</time>
      </trkpt>
      <trkpt lat="43.94583" lon="4.84369">
        <ele>27.093563</ele>
        <time>2021-09-16T09:41:56.000Z</time>
      </trkpt>
      <trkpt lat="43.94582" lon="4.84362">
        <ele>27.094712</ele>
        <time>2021-09-16T09:41:57.000Z</time>
      </trkpt>
      <trkpt lat="43.94575" lon="4.84351">
        <ele>27.097216</ele>
        <time>2021-09-16T09:41:59.000Z</time>
      </trkpt>
      <trkpt lat="43.94572" lon="4.84347">
        <ele>27.098297</ele>
        <time>2021-09-16T09:42:00.000Z</time>
      </trkpt>
      <trkpt lat="43.94564" lon="4.84333">
        <ele>27.101407</ele>
        <time>2021-09-16T09:42:03.000Z</time>
      </trkpt>
      <trkpt lat="43.94561" lon="4.84318">
        <ele>27.104046</ele>
        <time>2021-09-16T09:42:07.000Z</time>
      </trkpt>
      <trkpt lat="43.94562" lon="4.84304">
        <ele>27.106501</ele>
        <time>2021-09-16T09:42:10.000Z</time>
      </trkpt>
      <trkpt lat="43.94565" lon="4.84303">
        <ele>27.107211</ele>
        <time>2021-09-16T09:42:11.000Z</time>
      </trkpt>
      <trkpt lat="43.94569" lon="4.84302">
        <ele>27.108118</ele>
        <time>2021-09-16T09:42:12.000Z</time>
      </trkpt>
      <trkpt lat="43.94577" lon="4.843">
        <ele>27.111794</ele>
        <time>2021-09-16T09:42:14.000Z</time>
      </trkpt>
      <trkpt lat="43.94581" lon="4.84298">
        <ele>27.113749</ele>
        <time>2021-09-16T09:42:15.000Z</time>
      </trkpt>
      <trkpt lat="43.94585" lon="4.84296">
        <ele>27.115758</ele>
        <time>2021-09-16T09:42:16.000Z</time>
      </trkpt>
      <trkpt lat="43.94588" lon="4.84285">
        <ele>27.119744</ele>
        <time>2021-09-16T09:42:18.000Z</time>
      </trkpt>
      <trkpt lat="43.94591" lon="4.84272">
        <ele>27.124177</ele>
        <time>2021-09-16T09:42:20.000Z</time>
      </trkpt>
      <trkpt lat="43.94594" lon="4.84261">
        <ele>27.128135</ele>
        <time>2021-09-16T09:42:22.000Z</time>
      </trkpt>
      <trkpt lat="43.94593" lon="4.84204">
        <ele>27.146893</ele>
        <time>2021-09-16T09:42:30.000Z</time>
      </trkpt>
      <trkpt lat="43.94587" lon="4.84192">
        <ele>27.151677</ele>
        <time>2021-09-16T09:42:33.000Z</time>
      </trkpt>
      <trkpt lat="43.94584" lon="4.84186">
        <ele>27.153869</ele>
        <time>2021-09-16T09:42:36.000Z</time>
      </trkpt>
      <trkpt lat="43.94583" lon="4.84184">
        <ele>27.154751</ele>
        <time>2021-09-16T09:42:37.000Z</time>
      </trkpt>
      <trkpt lat="43.94581" lon="4.84174">
        <ele>27.158134</ele>
        <time>2021-09-16T09:42:40.000Z</time>
      </trkpt>
      <trkpt lat="43.94587" lon="4.8416">
        <ele>27.163602</ele>
        <time>2021-09-16T09:42:44.000Z</time>
      </trkpt>
      <trkpt lat="43.94592" lon="4.84153">
        <ele>27.166933</ele>
        <time>2021-09-16T09:42:47.000Z</time>
      </trkpt>
      <trkpt lat="43.94596" lon="4.84141">
        <ele>27.171461</ele>
        <time>2021-09-16T09:42:48.000Z</time>
      </trkpt>
      <trkpt lat="43.94598" lon="4.84134">
        <ele>27.173736</ele>
        <time>2021-09-16T09:42:49.000Z</time>
      </trkpt>
      <trkpt lat="43.946" lon="4.8412">
        <ele>27.178594</ele>
        <time>2021-09-16T09:42:51.000Z</time>
      </trkpt>
      <trkpt lat="43.946" lon="4.84112">
        <ele>27.181064</ele>
        <time>2021-09-16T09:42:52.000Z</time>
      </trkpt>
      <trkpt lat="43.946" lon="4.84096">
        <ele>27.186559</ele>
        <time>2021-09-16T09:42:55.000Z</time>
      </trkpt>
      <trkpt lat="43.946" lon="4.84092">
        <ele>27.187613</ele>
        <time>2021-09-16T09:42:56.000Z</time>
      </trkpt>
      <trkpt lat="43.946" lon="4.84089">
        <ele>27.188634</ele>
        <time>2021-09-16T09:42:57.000Z</time>
      </trkpt>
      <trkpt lat="43.94601" lon="4.84081">
        <ele>27.17317</ele>
        <time>2021-09-16T09:42:59.000Z</time>
      </trkpt>
      <trkpt lat="43.94601" lon="4.84071">
        <ele>27.096868</ele>
        <time>2021-09-16T09:43:01.000Z</time>
      </trkpt>
      <trkpt lat="43.94601" lon="4.84056">
        <ele>26.998195</ele>
        <time>2021-09-16T09:43:03.000Z</time>
      </trkpt>
      <trkpt lat="43.94601" lon="4.84049">
        <ele>26.946395</ele>
        <time>2021-09-16T09:43:04.000Z</time>
      </trkpt>
      <trkpt lat="43.94602" lon="4.84018">
        <ele>26.732311</ele>
        <time>2021-09-16T09:43:08.000Z</time>
      </trkpt>
      <trkpt lat="43.94599" lon="4.83987">
        <ele>26.50757</ele>
        <time>2021-09-16T09:43:12.000Z</time>
      </trkpt>
      <trkpt lat="43.94596" lon="4.83971">
        <ele>26.392593</ele>
        <time>2021-09-16T09:43:14.000Z</time>
      </trkpt>
      <trkpt lat="43.94594" lon="4.83963">
        <ele>26.334246</ele>
        <time>2021-09-16T09:43:16.000Z</time>
      </trkpt>
      <trkpt lat="43.94586" lon="4.8394">
        <ele>26.155952</ele>
        <time>2021-09-16T09:43:19.000Z</time>
      </trkpt>
      <trkpt lat="43.94575" lon="4.83909">
        <ele>25.915391</ele>
        <time>2021-09-16T09:43:22.000Z</time>
      </trkpt>
      <trkpt lat="43.94561" lon="4.83889">
        <ele>25.721426</ele>
        <time>2021-09-16T09:43:25.000Z</time>
      </trkpt>
      <trkpt lat="43.94544" lon="4.83855">
        <ele>25.438672</ele>
        <time>2021-09-16T09:43:30.000Z</time>
      </trkpt>
      <trkpt lat="43.94542" lon="4.8385">
        <ele>25.407589</ele>
        <time>2021-09-16T09:43:31.000Z</time>
      </trkpt>
      <trkpt lat="43.94535" lon="4.83847">
        <ele>25.365668</ele>
        <time>2021-09-16T09:43:32.000Z</time>
      </trkpt>
      <trkpt lat="43.94529" lon="4.83849">
        <ele>25.324517</ele>
        <time>2021-09-16T09:43:34.000Z</time>
      </trkpt>
      <trkpt lat="43.94527" lon="4.83848">
        <ele>25.310313</ele>
        <time>2021-09-16T09:43:35.000Z</time>
      </trkpt>
      <trkpt lat="43.94527" lon="4.83845">
        <ele>25.296817</ele>
        <time>2021-09-16T09:43:37.000Z</time>
      </trkpt>
      <trkpt lat="43.94525" lon="4.83831">
        <ele>25.231159</ele>
        <time>2021-09-16T09:43:39.000Z</time>
      </trkpt>
      <trkpt lat="43.94524" lon="4.83818">
        <ele>25.171062</ele>
        <time>2021-09-16T09:43:41.000Z</time>
      </trkpt>
      <trkpt lat="43.94521" lon="4.83787">
        <ele>25.027254</ele>
        <time>2021-09-16T09:43:46.000Z</time>
      </trkpt>
      <trkpt lat="43.94516" lon="4.83758">
        <ele>24.88884</ele>
        <time>2021-09-16T09:43:50.000Z</time>
      </trkpt>
      <trkpt lat="43.94513" lon="4.83751">
        <ele>24.851185</ele>
        <time>2021-09-16T09:43:51.000Z</time>
      </trkpt>
      <trkpt lat="43.9451" lon="4.83745">
        <ele>24.815254</ele>
        <time>2021-09-16T09:43:52.000Z</time>
      </trkpt>
      <trkpt lat="43.94497" lon="4.83717">
        <ele>24.6669</ele>
        <time>2021-09-16T09:43:56.000Z</time>
      </trkpt>
      <trkpt lat="43.94489" lon="4.83676">
        <ele>24.469645</ele>
        <time>2021-09-16T09:44:01.000Z</time>
      </trkpt>
      <trkpt lat="43.94481" lon="4.83633">
        <ele>24.264712</ele>
        <time>2021-09-16T09:44:06.000Z</time>
      </trkpt>
      <trkpt lat="43.94474" lon="4.83591">
        <ele>24.064845</ele>
        <time>2021-09-16T09:44:12.000Z</time>
      </trkpt>
      <trkpt lat="43.94472" lon="4.83586">
        <ele>24.041053</ele>
        <time>2021-09-16T09:44:13.000Z</time>
      </trkpt>
      <trkpt lat="43.94469" lon="4.83575">
        <ele>23.986059</ele>
        <time>2021-09-16T09:44:15.000Z</time>
      </trkpt>
      <trkpt lat="43.94468" lon="4.83568">
        <ele>23.95522</ele>
        <time>2021-09-16T09:44:16.000Z</time>
      </trkpt>
      <trkpt lat="43.9447" lon="4.83555">
        <ele>23.892649</ele>
        <time>2021-09-16T09:44:18.000Z</time>
      </trkpt>
      <trkpt lat="43.94469" lon="4.83546">
        <ele>23.85347</ele>
        <time>2021-09-16T09:44:19.000Z</time>
      </trkpt>
      <trkpt lat="43.94468" lon="4.83539">
        <ele>23.819918</ele>
        <time>2021-09-16T09:44:20.000Z</time>
      </trkpt>
      <trkpt lat="43.94459" lon="4.83514">
        <ele>23.689297</ele>
        <time>2021-09-16T09:44:24.000Z</time>
      </trkpt>
      <trkpt lat="43.94453" lon="4.83503">
        <ele>23.626655</ele>
        <time>2021-09-16T09:44:26.000Z</time>
      </trkpt>
      <trkpt lat="43.94447" lon="4.83493">
        <ele>23.56832</ele>
        <time>2021-09-16T09:44:28.000Z</time>
      </trkpt>
      <trkpt lat="43.94444" lon="4.83489">
        <ele>23.539106</ele>
        <time>2021-09-16T09:44:29.000Z</time>
      </trkpt>
      <trkpt lat="43.94432" lon="4.83476">
        <ele>23.446561</ele>
        <time>2021-09-16T09:44:32.000Z</time>
      </trkpt>
      <trkpt lat="43.94428" lon="4.83472">
        <ele>23.414287</ele>
        <time>2021-09-16T09:44:33.000Z</time>
      </trkpt>
      <trkpt lat="43.94426" lon="4.83466">
        <ele>23.384406</ele>
        <time>2021-09-16T09:44:34.000Z</time>
      </trkpt>
      <trkpt lat="43.94425" lon="4.83458">
        <ele>23.347058</ele>
        <time>2021-09-16T09:44:35.000Z</time>
      </trkpt>
      <trkpt lat="43.94429" lon="4.8345">
        <ele>23.306286</ele>
        <time>2021-09-16T09:44:36.000Z</time>
      </trkpt>
      <trkpt lat="43.94451" lon="4.83426">
        <ele>23.131879</ele>
        <time>2021-09-16T09:44:41.000Z</time>
      </trkpt>
      <trkpt lat="43.94454" lon="4.83421">
        <ele>23.109804</ele>
        <time>2021-09-16T09:44:42.000Z</time>
      </trkpt>
      <trkpt lat="43.94458" lon="4.8341">
        <ele>23.070403</ele>
        <time>2021-09-16T09:44:44.000Z</time>
      </trkpt>
      <trkpt lat="43.94461" lon="4.83397">
        <ele>23.025596</ele>
        <time>2021-09-16T09:44:47.000Z</time>
      </trkpt>
      <trkpt lat="43.94458" lon="4.83382">
        <ele>22.977576</ele>
        <time>2021-09-16T09:44:50.000Z</time>
      </trkpt>
      <trkpt lat="43.94458" lon="4.83376">
        <ele>22.956557</ele>
        <time>2021-09-16T09:44:51.000Z</time>
      </trkpt>
      <trkpt lat="43.94455" lon="4.83348">
        <ele>22.865129</ele>
        <time>2021-09-16T09:44:55.000Z</time>
      </trkpt>
      <trkpt lat="43.94453" lon="4.83333">
        <ele>22.816385</ele>
        <time>2021-09-16T09:44:57.000Z</time>
      </trkpt>
      <trkpt lat="43.94443" lon="4.83295">
        <ele>22.685617</ele>
        <time>2021-09-16T09:45:03.000Z</time>
      </trkpt>
      <trkpt lat="43.94442" lon="4.83289">
        <ele>22.665263</ele>
        <time>2021-09-16T09:45:04.000Z</time>
      </trkpt>
      <trkpt lat="43.94441" lon="4.8328">
        <ele>22.636495</ele>
        <time>2021-09-16T09:45:06.000Z</time>
      </trkpt>
      <trkpt lat="43.9444" lon="4.83277">
        <ele>22.626401</ele>
        <time>2021-09-16T09:45:07.000Z</time>
      </trkpt>
      <trkpt lat="43.9444" lon="4.8327">
        <ele>22.60551</ele>
        <time>2021-09-16T09:45:09.000Z</time>
      </trkpt>
      <trkpt lat="43.94439" lon="4.83266">
        <ele>22.592158</ele>
        <time>2021-09-16T09:45:10.000Z</time>
      </trkpt>
      <trkpt lat="43.94439" lon="4.83235">
        <ele>22.490822</ele>
        <time>2021-09-16T09:45:15.000Z</time>
      </trkpt>
      <trkpt lat="43.9444" lon="4.83214">
        <ele>22.422394</ele>
        <time>2021-09-16T09:45:18.000Z</time>
      </trkpt>
      <trkpt lat="43.9444" lon="4.83199">
        <ele>22.374947</ele>
        <time>2021-09-16T09:45:20.000Z</time>
      </trkpt>
      <trkpt lat="43.9444" lon="4.83192">
        <ele>22.351384</ele>
        <time>2021-09-16T09:45:21.000Z</time>
      </trkpt>
      <trkpt lat="43.94436" lon="4.83134">
        <ele>22.545061</ele>
        <time>2021-09-16T09:45:28.000Z</time>
      </trkpt>
      <trkpt lat="43.94432" lon="4.83101">
        <ele>22.669423</ele>
        <time>2021-09-16T09:45:32.000Z</time>
      </trkpt>
      <trkpt lat="43.9443" lon="4.83085">
        <ele>22.732057</ele>
        <time>2021-09-16T09:45:34.000Z</time>
      </trkpt>
      <trkpt lat="43.94425" lon="4.83054">
        <ele>22.855038</ele>
        <time>2021-09-16T09:45:38.000Z</time>
      </trkpt>
      <trkpt lat="43.94425" lon="4.83037">
        <ele>22.91798</ele>
        <time>2021-09-16T09:45:40.000Z</time>
      </trkpt>
      <trkpt lat="43.94423" lon="4.82969">
        <ele>23.177345</ele>
        <time>2021-09-16T09:45:48.000Z</time>
      </trkpt>
      <trkpt lat="43.94418" lon="4.82927">
        <ele>23.323783</ele>
        <time>2021-09-16T09:45:53.000Z</time>
      </trkpt>
      <trkpt lat="43.94417" lon="4.82919">
        <ele>23.345198</ele>
        <time>2021-09-16T09:45:54.000Z</time>
      </trkpt>
      <trkpt lat="43.94409" lon="4.82854">
        <ele>23.512886</ele>
        <time>2021-09-16T09:46:02.000Z</time>
      </trkpt>
      <trkpt lat="43.94408" lon="4.82839">
        <ele>23.549922</ele>
        <time>2021-09-16T09:46:04.000Z</time>
      </trkpt>
      <trkpt lat="43.94408" lon="4.82829">
        <ele>23.576641</ele>
        <time>2021-09-16T09:46:06.000Z</time>
      </trkpt>
      <trkpt lat="43.94408" lon="4.82823">
        <ele>23.590383</ele>
        <time>2021-09-16T09:46:08.000Z</time>
      </trkpt>
      <trkpt lat="43.94408" lon="4.82821">
        <ele>23.595727</ele>
        <time>2021-09-16T09:46:09.000Z</time>
      </trkpt>
      <trkpt lat="43.94408" lon="4.82818">
        <ele>23.603361</ele>
        <time>2021-09-16T09:46:10.000Z</time>
      </trkpt>
      <trkpt lat="43.94408" lon="4.8281">
        <ele>23.625257</ele>
        <time>2021-09-16T09:46:12.000Z</time>
      </trkpt>
      <trkpt lat="43.94409" lon="4.82783">
        <ele>23.693312</ele>
        <time>2021-09-16T09:46:17.000Z</time>
      </trkpt>
      <trkpt lat="43.94409" lon="4.82776">
        <ele>23.710885</ele>
        <time>2021-09-16T09:46:19.000Z</time>
      </trkpt>
      <trkpt lat="43.9441" lon="4.82775">
        <ele>23.714465</ele>
        <time>2021-09-16T09:46:20.000Z</time>
      </trkpt>
      <trkpt lat="43.9441" lon="4.82773">
        <ele>23.717792</ele>
        <time>2021-09-16T09:46:21.000Z</time>
      </trkpt>
      <trkpt lat="43.9441" lon="4.82767">
        <ele>23.733077</ele>
        <time>2021-09-16T09:46:24.000Z</time>
      </trkpt>
      <trkpt lat="43.94409" lon="4.82749">
        <ele>23.780965</ele>
        <time>2021-09-16T09:46:29.000Z</time>
      </trkpt>
      <trkpt lat="43.94409" lon="4.82744">
        <ele>23.793986</ele>
        <time>2021-09-16T09:46:31.000Z</time>
      </trkpt>
      <trkpt lat="43.94409" lon="4.82741">
        <ele>23.799376</ele>
        <time>2021-09-16T09:46:32.000Z</time>
      </trkpt>
      <trkpt lat="43.94408" lon="4.82721">
        <ele>23.850954</ele>
        <time>2021-09-16T09:46:36.000Z</time>
      </trkpt>
      <trkpt lat="43.94404" lon="4.82678">
        <ele>23.89988</ele>
        <time>2021-09-16T09:46:42.000Z</time>
      </trkpt>
      <trkpt lat="43.944" lon="4.82621">
        <ele>23.793759</ele>
        <time>2021-09-16T09:46:49.000Z</time>
      </trkpt>
      <trkpt lat="43.94396" lon="4.82582">
        <ele>23.720077</ele>
        <time>2021-09-16T09:46:54.000Z</time>
      </trkpt>
      <trkpt lat="43.94395" lon="4.82574">
        <ele>23.70589</ele>
        <time>2021-09-16T09:46:55.000Z</time>
      </trkpt>
      <trkpt lat="43.94393" lon="4.82559">
        <ele>23.67669</ele>
        <time>2021-09-16T09:46:57.000Z</time>
      </trkpt>
      <trkpt lat="43.9439" lon="4.82536">
        <ele>23.633536</ele>
        <time>2021-09-16T09:47:00.000Z</time>
      </trkpt>
      <trkpt lat="43.94389" lon="4.82528">
        <ele>23.618935</ele>
        <time>2021-09-16T09:47:01.000Z</time>
      </trkpt>
      <trkpt lat="43.94388" lon="4.8252">
        <ele>23.60397</ele>
        <time>2021-09-16T09:47:02.000Z</time>
      </trkpt>
      <trkpt lat="43.94386" lon="4.82505">
        <ele>23.574947</ele>
        <time>2021-09-16T09:47:04.000Z</time>
      </trkpt>
      <trkpt lat="43.94386" lon="4.82489">
        <ele>23.546119</ele>
        <time>2021-09-16T09:47:06.000Z</time>
      </trkpt>
      <trkpt lat="43.94386" lon="4.82482">
        <ele>23.531798</ele>
        <time>2021-09-16T09:47:07.000Z</time>
      </trkpt>
      <trkpt lat="43.94386" lon="4.82466">
        <ele>23.502598</ele>
        <time>2021-09-16T09:47:09.000Z</time>
      </trkpt>
      <trkpt lat="43.94388" lon="4.8245">
        <ele>23.47326</ele>
        <time>2021-09-16T09:47:11.000Z</time>
      </trkpt>
      <trkpt lat="43.94395" lon="4.82399">
        <ele>23.399213</ele>
        <time>2021-09-16T09:47:18.000Z</time>
      </trkpt>
      <trkpt lat="43.94413" lon="4.82347">
        <ele>23.322028</ele>
        <time>2021-09-16T09:47:25.000Z</time>
      </trkpt>
      <trkpt lat="43.9442" lon="4.82327">
        <ele>23.291622</ele>
        <time>2021-09-16T09:47:28.000Z</time>
      </trkpt>
      <trkpt lat="43.94424" lon="4.82316">
        <ele>23.2747</ele>
        <time>2021-09-16T09:47:30.000Z</time>
      </trkpt>
      <trkpt lat="43.9443" lon="4.82296">
        <ele>23.246036</ele>
        <time>2021-09-16T09:47:34.000Z</time>
      </trkpt>
      <trkpt lat="43.94434" lon="4.82286">
        <ele>23.230626</ele>
        <time>2021-09-16T09:47:36.000Z</time>
      </trkpt>
      <trkpt lat="43.94437" lon="4.82274">
        <ele>23.214007</ele>
        <time>2021-09-16T09:47:38.000Z</time>
      </trkpt>
      <trkpt lat="43.94441" lon="4.82261">
        <ele>23.19486</ele>
        <time>2021-09-16T09:47:40.000Z</time>
      </trkpt>
      <trkpt lat="43.94447" lon="4.8224">
        <ele>23.164611</ele>
        <time>2021-09-16T09:47:43.000Z</time>
      </trkpt>
      <trkpt lat="43.94449" lon="4.82233">
        <ele>23.154397</ele>
        <time>2021-09-16T09:47:44.000Z</time>
      </trkpt>
      <trkpt lat="43.94455" lon="4.82212">
        <ele>23.125775</ele>
        <time>2021-09-16T09:47:47.000Z</time>
      </trkpt>
      <trkpt lat="43.94457" lon="4.82205">
        <ele>23.129881</ele>
        <time>2021-09-16T09:47:48.000Z</time>
      </trkpt>
      <trkpt lat="43.94464" lon="4.8218">
        <ele>23.145036</ele>
        <time>2021-09-16T09:47:52.000Z</time>
      </trkpt>
      <trkpt lat="43.94468" lon="4.8217">
        <ele>23.151286</ele>
        <time>2021-09-16T09:47:54.000Z</time>
      </trkpt>
      <trkpt lat="43.94477" lon="4.82142">
        <ele>23.168548</ele>
        <time>2021-09-16T09:47:58.000Z</time>
      </trkpt>
      <trkpt lat="43.94481" lon="4.82126">
        <ele>23.177877</ele>
        <time>2021-09-16T09:48:00.000Z</time>
      </trkpt>
      <trkpt lat="43.94492" lon="4.82093">
        <ele>23.198013</ele>
        <time>2021-09-16T09:48:04.000Z</time>
      </trkpt>
      <trkpt lat="43.94496" lon="4.82079">
        <ele>23.206469</ele>
        <time>2021-09-16T09:48:06.000Z</time>
      </trkpt>
      <trkpt lat="43.94501" lon="4.82062">
        <ele>23.217178</ele>
        <time>2021-09-16T09:48:09.000Z</time>
      </trkpt>
      <trkpt lat="43.94509" lon="4.82051">
        <ele>23.225895</ele>
        <time>2021-09-16T09:48:12.000Z</time>
      </trkpt>
      <trkpt lat="43.94514" lon="4.82049">
        <ele>23.22958</ele>
        <time>2021-09-16T09:48:13.000Z</time>
      </trkpt>
      <trkpt lat="43.94517" lon="4.82047">
        <ele>23.232611</ele>
        <time>2021-09-16T09:48:14.000Z</time>
      </trkpt>
      <trkpt lat="43.94524" lon="4.82036">
        <ele>23.240294</ele>
        <time>2021-09-16T09:48:16.000Z</time>
      </trkpt>
      <trkpt lat="43.94529" lon="4.82023">
        <ele>23.248539</ele>
        <time>2021-09-16T09:48:18.000Z</time>
      </trkpt>
      <trkpt lat="43.94535" lon="4.82009">
        <ele>23.257965</ele>
        <time>2021-09-16T09:48:20.000Z</time>
      </trkpt>
      <trkpt lat="43.94547" lon="4.81982">
        <ele>23.325436</ele>
        <time>2021-09-16T09:48:24.000Z</time>
      </trkpt>
      <trkpt lat="43.9455" lon="4.81975">
        <ele>23.351354</ele>
        <time>2021-09-16T09:48:25.000Z</time>
      </trkpt>
      <trkpt lat="43.94564" lon="4.81941">
        <ele>23.480052</ele>
        <time>2021-09-16T09:48:30.000Z</time>
      </trkpt>
      <trkpt lat="43.94577" lon="4.81908">
        <ele>23.602717</ele>
        <time>2021-09-16T09:48:35.000Z</time>
      </trkpt>
      <trkpt lat="43.94581" lon="4.81895">
        <ele>23.647949</ele>
        <time>2021-09-16T09:48:37.000Z</time>
      </trkpt>
      <trkpt lat="43.94583" lon="4.8189">
        <ele>23.668325</ele>
        <time>2021-09-16T09:48:38.000Z</time>
      </trkpt>
      <trkpt lat="43.94585" lon="4.81884">
        <ele>23.687334</ele>
        <time>2021-09-16T09:48:39.000Z</time>
      </trkpt>
      <trkpt lat="43.94594" lon="4.81871">
        <ele>23.746592</ele>
        <time>2021-09-16T09:48:42.000Z</time>
      </trkpt>
      <trkpt lat="43.94597" lon="4.81865">
        <ele>23.76925</ele>
        <time>2021-09-16T09:48:43.000Z</time>
      </trkpt>
      <trkpt lat="43.94618" lon="4.81831">
        <ele>23.915597</ele>
        <time>2021-09-16T09:48:49.000Z</time>
      </trkpt>
      <trkpt lat="43.94622" lon="4.81825">
        <ele>23.940014</ele>
        <time>2021-09-16T09:48:50.000Z</time>
      </trkpt>
      <trkpt lat="43.9464" lon="4.81798">
        <ele>24.063664</ele>
        <time>2021-09-16T09:48:55.000Z</time>
      </trkpt>
      <trkpt lat="43.94654" lon="4.81777">
        <ele>24.516661</ele>
        <time>2021-09-16T09:48:59.000Z</time>
      </trkpt>
      <trkpt lat="43.9466" lon="4.81768">
        <ele>24.731004</ele>
        <time>2021-09-16T09:49:01.000Z</time>
      </trkpt>
      <trkpt lat="43.9466" lon="4.81762">
        <ele>24.843412</ele>
        <time>2021-09-16T09:49:04.000Z</time>
      </trkpt>
      <trkpt lat="43.94659" lon="4.81759">
        <ele>24.887948</ele>
        <time>2021-09-16T09:49:05.000Z</time>
      </trkpt>
      <trkpt lat="43.94655" lon="4.81747">
        <ele>25.12794</ele>
        <time>2021-09-16T09:49:10.000Z</time>
      </trkpt>
      <trkpt lat="43.94654" lon="4.81746">
        <ele>25.160489</ele>
        <time>2021-09-16T09:49:13.000Z</time>
      </trkpt>
      <trkpt lat="43.94657" lon="4.81748">
        <ele>25.235864</ele>
        <time>2021-09-16T09:50:53.000Z</time>
      </trkpt>
      <trkpt lat="43.94655" lon="4.81728">
        <ele>25.601794</ele>
        <time>2021-09-16T09:50:58.000Z</time>
      </trkpt>
      <trkpt lat="43.94653" lon="4.81727">
        <ele>25.643789</ele>
        <time>2021-09-16T09:51:03.000Z</time>
      </trkpt>
      <trkpt lat="43.94649" lon="4.81725">
        <ele>25.744891</ele>
        <time>2021-09-16T09:51:05.000Z</time>
      </trkpt>
      <trkpt lat="43.94646" lon="4.81722">
        <ele>25.846759</ele>
        <time>2021-09-16T09:51:07.000Z</time>
      </trkpt>
      <trkpt lat="43.94633" lon="4.81712">
        <ele>26.214298</ele>
        <time>2021-09-16T09:51:12.000Z</time>
      </trkpt>
      <trkpt lat="43.94613" lon="4.81699">
        <ele>26.759749</ele>
        <time>2021-09-16T09:51:18.000Z</time>
      </trkpt>
      <trkpt lat="43.94593" lon="4.81685">
        <ele>27.312029</ele>
        <time>2021-09-16T09:51:24.000Z</time>
      </trkpt>
      <trkpt lat="43.94569" lon="4.81667">
        <ele>27.989471</ele>
        <time>2021-09-16T09:51:30.000Z</time>
      </trkpt>
      <trkpt lat="43.94542" lon="4.81648">
        <ele>28.619377</ele>
        <time>2021-09-16T09:51:36.000Z</time>
      </trkpt>
      <trkpt lat="43.9451" lon="4.81625">
        <ele>29.014209</ele>
        <time>2021-09-16T09:51:43.000Z</time>
      </trkpt>
      <trkpt lat="43.94497" lon="4.81597">
        <ele>29.274875</ele>
        <time>2021-09-16T09:51:47.000Z</time>
      </trkpt>
      <trkpt lat="43.94487" lon="4.81593">
        <ele>29.392977</ele>
        <time>2021-09-16T09:51:49.000Z</time>
      </trkpt>
      <trkpt lat="43.94472" lon="4.81598">
        <ele>29.560652</ele>
        <time>2021-09-16T09:51:52.000Z</time>
      </trkpt>
      <trkpt lat="43.94464" lon="4.8159">
        <ele>29.666021</ele>
        <time>2021-09-16T09:51:54.000Z</time>
      </trkpt>
      <trkpt lat="43.94456" lon="4.81584">
        <ele>29.763347</ele>
        <time>2021-09-16T09:51:56.000Z</time>
      </trkpt>
      <trkpt lat="43.9445" lon="4.81579">
        <ele>29.840466</ele>
        <time>2021-09-16T09:51:58.000Z</time>
      </trkpt>
      <trkpt lat="43.94446" lon="4.81575">
        <ele>29.887501</ele>
        <time>2021-09-16T09:51:59.000Z</time>
      </trkpt>
      <trkpt lat="43.94451" lon="4.81547">
        <ele>30.120355</ele>
        <time>2021-09-16T09:52:01.000Z</time>
      </trkpt>
      <trkpt lat="43.9444" lon="4.81536">
        <ele>30.269935</ele>
        <time>2021-09-16T09:52:04.000Z</time>
      </trkpt>
      <trkpt lat="43.94433" lon="4.81529">
        <ele>30.363992</ele>
        <time>2021-09-16T09:52:06.000Z</time>
      </trkpt>
      <trkpt lat="43.94409" lon="4.81505">
        <ele>30.437</ele>
        <time>2021-09-16T09:52:14.000Z</time>
      </trkpt>
      <trkpt lat="43.94398" lon="4.81501">
        <ele>30.404504</ele>
        <time>2021-09-16T09:52:18.000Z</time>
      </trkpt>
      <trkpt lat="43.94393" lon="4.8149">
        <ele>30.377292</ele>
        <time>2021-09-16T09:52:23.000Z</time>
      </trkpt>
      <trkpt lat="43.94388" lon="4.81466">
        <ele>30.32541</ele>
        <time>2021-09-16T09:52:28.000Z</time>
      </trkpt>
      <trkpt lat="43.94377" lon="4.81419">
        <ele>30.223976</ele>
        <time>2021-09-16T09:52:35.000Z</time>
      </trkpt>
      <trkpt lat="43.94374" lon="4.81406">
        <ele>30.194553</ele>
        <time>2021-09-16T09:52:37.000Z</time>
      </trkpt>
      <trkpt lat="43.94368" lon="4.81378">
        <ele>30.132748</ele>
        <time>2021-09-16T09:52:41.000Z</time>
      </trkpt>
      <trkpt lat="43.94355" lon="4.81318">
        <ele>30.002573</ele>
        <time>2021-09-16T09:52:49.000Z</time>
      </trkpt>
      <trkpt lat="43.94345" lon="4.81268">
        <ele>29.969242</ele>
        <time>2021-09-16T09:52:56.000Z</time>
      </trkpt>
      <trkpt lat="43.94342" lon="4.81249">
        <ele>29.969242</ele>
        <time>2021-09-16T09:52:59.000Z</time>
      </trkpt>
      <trkpt lat="43.94339" lon="4.8124">
        <ele>29.969242</ele>
        <time>2021-09-16T09:53:01.000Z</time>
      </trkpt>
      <trkpt lat="43.94355" lon="4.81226">
        <ele>29.969242</ele>
        <time>2021-09-16T09:53:03.000Z</time>
      </trkpt>
      <trkpt lat="43.94358" lon="4.81224">
        <ele>29.969242</ele>
        <time>2021-09-16T09:53:09.000Z</time>
      </trkpt>
      <trkpt lat="43.94371" lon="4.81202">
        <ele>29.969242</ele>
        <time>2021-09-16T09:53:16.000Z</time>
      </trkpt>
      <trkpt lat="43.94385" lon="4.81179">
        <ele>29.969242</ele>
        <time>2021-09-16T09:53:23.000Z</time>
      </trkpt>
      <trkpt lat="43.94391" lon="4.81169">
        <ele>29.969242</ele>
        <time>2021-09-16T09:53:28.000Z</time>
      </trkpt>
      <trkpt lat="43.94394" lon="4.81165">
        <ele>29.969242</ele>
        <time>2021-09-16T09:53:30.000Z</time>
      </trkpt>
    </trkseg>
  </trk>
  <trk>
    <name><![CDATA[Étape 13 : Avignon - Peyrolles-en-Provence]]></name>
    <extensions>
      <line xmlns="http://www.topografix.com/GPX/gpx_style/0/2">
        <color>00FF00</color>
        <width>4</width>
      </line>
    </extensions>
    <trkseg>
      <trkpt lat="43.9435" lon="4.81294">
        <ele>22.428552</ele>
        <time>2021-09-17T05:46:30.000Z</time>
      </trkpt>
      <trkpt lat="43.94351" lon="4.81297">
        <ele>22.428552</ele>
        <time>2021-09-17T05:47:16.000Z</time>
      </trkpt>
      <trkpt lat="43.94355" lon="4.81319">
        <ele>22.428552</ele>
        <time>2021-09-17T05:47:22.000Z</time>
      </trkpt>
      <trkpt lat="43.94358" lon="4.8133">
        <ele>22.428552</ele>
        <time>2021-09-17T05:47:26.000Z</time>
      </trkpt>
      <trkpt lat="43.94359" lon="4.81335">
        <ele>22.428552</ele>
        <time>2021-09-17T05:47:49.000Z</time>
      </trkpt>
      <trkpt lat="43.94361" lon="4.81343">
        <ele>22.428552</ele>
        <time>2021-09-17T05:47:51.000Z</time>
      </trkpt>
      <trkpt lat="43.94366" lon="4.81366">
        <ele>22.428552</ele>
        <time>2021-09-17T05:47:57.000Z</time>
      </trkpt>
      <trkpt lat="43.9437" lon="4.81388">
        <ele>22.428552</ele>
        <time>2021-09-17T05:48:03.000Z</time>
      </trkpt>
      <trkpt lat="43.94376" lon="4.81414">
        <ele>22.424089</ele>
        <time>2021-09-17T05:48:10.000Z</time>
      </trkpt>
      <trkpt lat="43.94383" lon="4.81445">
        <ele>22.209914</ele>
        <time>2021-09-17T05:48:17.000Z</time>
      </trkpt>
      <trkpt lat="43.94391" lon="4.81482">
        <ele>21.950946</ele>
        <time>2021-09-17T05:48:24.000Z</time>
      </trkpt>
      <trkpt lat="43.94393" lon="4.8149">
        <ele>21.896458</ele>
        <time>2021-09-17T05:48:26.000Z</time>
      </trkpt>
      <trkpt lat="43.94393" lon="4.8149">
        <ele>21.894179</ele>
        <time>2021-09-17T05:48:27.000Z</time>
      </trkpt>
      <trkpt lat="43.94373" lon="4.81514">
        <ele>21.655316</ele>
        <time>2021-09-17T05:48:34.000Z</time>
      </trkpt>
      <trkpt lat="43.94348" lon="4.81535">
        <ele>21.384168</ele>
        <time>2021-09-17T05:48:44.000Z</time>
      </trkpt>
      <trkpt lat="43.9432" lon="4.81562">
        <ele>21.067507</ele>
        <time>2021-09-17T05:48:52.000Z</time>
      </trkpt>
      <trkpt lat="43.94301" lon="4.81581">
        <ele>20.850708</ele>
        <time>2021-09-17T05:49:00.000Z</time>
      </trkpt>
      <trkpt lat="43.94289" lon="4.81593">
        <ele>20.745815</ele>
        <time>2021-09-17T05:49:06.000Z</time>
      </trkpt>
      <trkpt lat="43.94266" lon="4.81614">
        <ele>20.656228</ele>
        <time>2021-09-17T05:49:13.000Z</time>
      </trkpt>
      <trkpt lat="43.94248" lon="4.81633">
        <ele>20.580247</ele>
        <time>2021-09-17T05:49:20.000Z</time>
      </trkpt>
      <trkpt lat="43.94239" lon="4.81641">
        <ele>20.543616</ele>
        <time>2021-09-17T05:49:25.000Z</time>
      </trkpt>
      <trkpt lat="43.94236" lon="4.81643">
        <ele>20.534745</ele>
        <time>2021-09-17T05:49:29.000Z</time>
      </trkpt>
      <trkpt lat="43.94234" lon="4.81645">
        <ele>20.526971</ele>
        <time>2021-09-17T05:49:53.000Z</time>
      </trkpt>
      <trkpt lat="43.94224" lon="4.81655">
        <ele>20.484217</ele>
        <time>2021-09-17T05:49:58.000Z</time>
      </trkpt>
      <trkpt lat="43.94211" lon="4.81668">
        <ele>20.430972</ele>
        <time>2021-09-17T05:50:01.000Z</time>
      </trkpt>
      <trkpt lat="43.94207" lon="4.81671">
        <ele>20.417469</ele>
        <time>2021-09-17T05:50:03.000Z</time>
      </trkpt>
      <trkpt lat="43.94189" lon="4.81694">
        <ele>20.335291</ele>
        <time>2021-09-17T05:50:08.000Z</time>
      </trkpt>
      <trkpt lat="43.94186" lon="4.81698">
        <ele>20.321888</ele>
        <time>2021-09-17T05:50:10.000Z</time>
      </trkpt>
      <trkpt lat="43.94174" lon="4.81719">
        <ele>20.25737</ele>
        <time>2021-09-17T05:50:15.000Z</time>
      </trkpt>
      <trkpt lat="43.94156" lon="4.81746">
        <ele>20.17141</ele>
        <time>2021-09-17T05:50:21.000Z</time>
      </trkpt>
      <trkpt lat="43.94146" lon="4.8176">
        <ele>19.543566</ele>
        <time>2021-09-17T05:50:25.000Z</time>
      </trkpt>
      <trkpt lat="43.94146" lon="4.8176">
        <ele>19.543566</ele>
        <time>2021-09-17T05:50:26.000Z</time>
      </trkpt>
      <trkpt lat="43.94135" lon="4.81778">
        <ele>18.758778</ele>
        <time>2021-09-17T05:50:30.000Z</time>
      </trkpt>
      <trkpt lat="43.94124" lon="4.81797">
        <ele>17.96812</ele>
        <time>2021-09-17T05:50:35.000Z</time>
      </trkpt>
      <trkpt lat="43.94116" lon="4.8181">
        <ele>17.396431</ele>
        <time>2021-09-17T05:50:38.000Z</time>
      </trkpt>
      <trkpt lat="43.9411" lon="4.81822">
        <ele>16.921131</ele>
        <time>2021-09-17T05:50:40.000Z</time>
      </trkpt>
      <trkpt lat="43.94097" lon="4.81844">
        <ele>15.99704</ele>
        <time>2021-09-17T05:50:45.000Z</time>
      </trkpt>
      <trkpt lat="43.94089" lon="4.8186">
        <ele>15.346248</ele>
        <time>2021-09-17T05:50:47.000Z</time>
      </trkpt>
      <trkpt lat="43.9408" lon="4.81875">
        <ele>14.708855</ele>
        <time>2021-09-17T05:50:50.000Z</time>
      </trkpt>
      <trkpt lat="43.94072" lon="4.81891">
        <ele>14.071461</ele>
        <time>2021-09-17T05:50:53.000Z</time>
      </trkpt>
      <trkpt lat="43.94069" lon="4.81897">
        <ele>13.839434</ele>
        <time>2021-09-17T05:50:54.000Z</time>
      </trkpt>
      <trkpt lat="43.94045" lon="4.81942">
        <ele>11.974925</ele>
        <time>2021-09-17T05:51:01.000Z</time>
      </trkpt>
      <trkpt lat="43.94028" lon="4.81971">
        <ele>11.701191</ele>
        <time>2021-09-17T05:51:06.000Z</time>
      </trkpt>
      <trkpt lat="43.94007" lon="4.82008">
        <ele>11.379236</ele>
        <time>2021-09-17T05:51:12.000Z</time>
      </trkpt>
      <trkpt lat="43.93981" lon="4.82052">
        <ele>10.979223</ele>
        <time>2021-09-17T05:51:20.000Z</time>
      </trkpt>
      <trkpt lat="43.93944" lon="4.82115">
        <ele>10.407355</ele>
        <time>2021-09-17T05:51:29.000Z</time>
      </trkpt>
      <trkpt lat="43.93936" lon="4.82128">
        <ele>10.289613</ele>
        <time>2021-09-17T05:51:31.000Z</time>
      </trkpt>
      <trkpt lat="43.93927" lon="4.82143">
        <ele>10.337256</ele>
        <time>2021-09-17T05:51:34.000Z</time>
      </trkpt>
      <trkpt lat="43.93909" lon="4.82173">
        <ele>10.838592</ele>
        <time>2021-09-17T05:51:40.000Z</time>
      </trkpt>
      <trkpt lat="43.93886" lon="4.8221">
        <ele>11.491358</ele>
        <time>2021-09-17T05:51:47.000Z</time>
      </trkpt>
      <trkpt lat="43.93863" lon="4.82248">
        <ele>12.155726</ele>
        <time>2021-09-17T05:51:55.000Z</time>
      </trkpt>
      <trkpt lat="43.93831" lon="4.82296">
        <ele>13.013594</ele>
        <time>2021-09-17T05:52:04.000Z</time>
      </trkpt>
      <trkpt lat="43.93793" lon="4.82352">
        <ele>14.007532</ele>
        <time>2021-09-17T05:52:14.000Z</time>
      </trkpt>
      <trkpt lat="43.93766" lon="4.82393">
        <ele>14.69892</ele>
        <time>2021-09-17T05:52:22.000Z</time>
      </trkpt>
      <trkpt lat="43.93743" lon="4.82431">
        <ele>15.326042</ele>
        <time>2021-09-17T05:52:30.000Z</time>
      </trkpt>
      <trkpt lat="43.93741" lon="4.82435">
        <ele>15.391272</ele>
        <time>2021-09-17T05:52:31.000Z</time>
      </trkpt>
      <trkpt lat="43.93737" lon="4.82445">
        <ele>15.537925</ele>
        <time>2021-09-17T05:52:33.000Z</time>
      </trkpt>
      <trkpt lat="43.93732" lon="4.82455">
        <ele>15.683529</ele>
        <time>2021-09-17T05:52:35.000Z</time>
      </trkpt>
      <trkpt lat="43.93726" lon="4.82468">
        <ele>15.878048</ele>
        <time>2021-09-17T05:52:38.000Z</time>
      </trkpt>
      <trkpt lat="43.93721" lon="4.82478">
        <ele>16.022607</ele>
        <time>2021-09-17T05:52:40.000Z</time>
      </trkpt>
      <trkpt lat="43.93719" lon="4.82483">
        <ele>16.098985</ele>
        <time>2021-09-17T05:52:41.000Z</time>
      </trkpt>
      <trkpt lat="43.93713" lon="4.82499">
        <ele>16.331804</ele>
        <time>2021-09-17T05:52:44.000Z</time>
      </trkpt>
      <trkpt lat="43.9371" lon="4.82511">
        <ele>16.486492</ele>
        <time>2021-09-17T05:52:46.000Z</time>
      </trkpt>
      <trkpt lat="43.93697" lon="4.82526">
        <ele>16.7093</ele>
        <time>2021-09-17T05:52:49.000Z</time>
      </trkpt>
      <trkpt lat="43.93688" lon="4.82526">
        <ele>16.78167</ele>
        <time>2021-09-17T05:52:51.000Z</time>
      </trkpt>
      <trkpt lat="43.93679" lon="4.82527">
        <ele>16.859873</ele>
        <time>2021-09-17T05:52:53.000Z</time>
      </trkpt>
      <trkpt lat="43.93674" lon="4.82528">
        <ele>16.901935</ele>
        <time>2021-09-17T05:52:54.000Z</time>
      </trkpt>
      <trkpt lat="43.93663" lon="4.82533">
        <ele>16.995693</ele>
        <time>2021-09-17T05:52:56.000Z</time>
      </trkpt>
      <trkpt lat="43.93633" lon="4.82574">
        <ele>17.337308</ele>
        <time>2021-09-17T05:53:03.000Z</time>
      </trkpt>
      <trkpt lat="43.93613" lon="4.82605">
        <ele>17.579613</ele>
        <time>2021-09-17T05:53:08.000Z</time>
      </trkpt>
      <trkpt lat="43.93601" lon="4.82622">
        <ele>17.720633</ele>
        <time>2021-09-17T05:53:11.000Z</time>
      </trkpt>
      <trkpt lat="43.93592" lon="4.82632">
        <ele>17.81173</ele>
        <time>2021-09-17T05:53:13.000Z</time>
      </trkpt>
      <trkpt lat="43.93588" lon="4.82638">
        <ele>17.857279</ele>
        <time>2021-09-17T05:53:14.000Z</time>
      </trkpt>
      <trkpt lat="43.93564" lon="4.82657">
        <ele>18.086784</ele>
        <time>2021-09-17T05:53:19.000Z</time>
      </trkpt>
      <trkpt lat="43.93559" lon="4.82661">
        <ele>18.117323</ele>
        <time>2021-09-17T05:53:20.000Z</time>
      </trkpt>
      <trkpt lat="43.93554" lon="4.82664">
        <ele>18.126303</ele>
        <time>2021-09-17T05:53:21.000Z</time>
      </trkpt>
      <trkpt lat="43.93532" lon="4.8268">
        <ele>18.167267</ele>
        <time>2021-09-17T05:53:25.000Z</time>
      </trkpt>
      <trkpt lat="43.93485" lon="4.8272">
        <ele>18.256987</ele>
        <time>2021-09-17T05:53:34.000Z</time>
      </trkpt>
      <trkpt lat="43.93444" lon="4.82757">
        <ele>18.335461</ele>
        <time>2021-09-17T05:53:42.000Z</time>
      </trkpt>
      <trkpt lat="43.93439" lon="4.82762">
        <ele>18.345167</ele>
        <time>2021-09-17T05:53:43.000Z</time>
      </trkpt>
      <trkpt lat="43.9343" lon="4.82771">
        <ele>18.364312</ele>
        <time>2021-09-17T05:53:45.000Z</time>
      </trkpt>
      <trkpt lat="43.93415" lon="4.82785">
        <ele>18.393631</ele>
        <time>2021-09-17T05:53:48.000Z</time>
      </trkpt>
      <trkpt lat="43.934" lon="4.82799">
        <ele>18.434985</ele>
        <time>2021-09-17T05:53:51.000Z</time>
      </trkpt>
      <trkpt lat="43.9338" lon="4.82816">
        <ele>18.499235</ele>
        <time>2021-09-17T05:53:55.000Z</time>
      </trkpt>
      <trkpt lat="43.93345" lon="4.82844">
        <ele>18.611389</ele>
        <time>2021-09-17T05:54:02.000Z</time>
      </trkpt>
      <trkpt lat="43.93308" lon="4.82869">
        <ele>18.72442</ele>
        <time>2021-09-17T05:54:09.000Z</time>
      </trkpt>
      <trkpt lat="43.93272" lon="4.82889">
        <ele>18.831827</ele>
        <time>2021-09-17T05:54:16.000Z</time>
      </trkpt>
      <trkpt lat="43.93243" lon="4.82903">
        <ele>18.927001</ele>
        <time>2021-09-17T05:54:22.000Z</time>
      </trkpt>
      <trkpt lat="43.93239" lon="4.82902">
        <ele>18.949165</ele>
        <time>2021-09-17T05:54:23.000Z</time>
      </trkpt>
      <trkpt lat="43.93217" lon="4.829">
        <ele>19.0754</ele>
        <time>2021-09-17T05:54:29.000Z</time>
      </trkpt>
      <trkpt lat="43.93201" lon="4.82895">
        <ele>19.162898</ele>
        <time>2021-09-17T05:54:34.000Z</time>
      </trkpt>
      <trkpt lat="43.93196" lon="4.82899">
        <ele>19.195855</ele>
        <time>2021-09-17T05:54:38.000Z</time>
      </trkpt>
      <trkpt lat="43.9319" lon="4.82904">
        <ele>19.234229</ele>
        <time>2021-09-17T05:54:40.000Z</time>
      </trkpt>
      <trkpt lat="43.93185" lon="4.82913">
        <ele>19.279772</ele>
        <time>2021-09-17T05:54:42.000Z</time>
      </trkpt>
      <trkpt lat="43.93183" lon="4.82925">
        <ele>19.330108</ele>
        <time>2021-09-17T05:54:44.000Z</time>
      </trkpt>
      <trkpt lat="43.93182" lon="4.82946">
        <ele>19.411821</ele>
        <time>2021-09-17T05:54:47.000Z</time>
      </trkpt>
      <trkpt lat="43.93176" lon="4.82952">
        <ele>19.453597</ele>
        <time>2021-09-17T05:54:49.000Z</time>
      </trkpt>
      <trkpt lat="43.93171" lon="4.82951">
        <ele>19.476343</ele>
        <time>2021-09-17T05:54:50.000Z</time>
      </trkpt>
      <trkpt lat="43.93167" lon="4.8295">
        <ele>19.501328</ele>
        <time>2021-09-17T05:54:51.000Z</time>
      </trkpt>
      <trkpt lat="43.93158" lon="4.82962">
        <ele>19.56771</ele>
        <time>2021-09-17T05:54:53.000Z</time>
      </trkpt>
      <trkpt lat="43.93151" lon="4.8297">
        <ele>19.61922</ele>
        <time>2021-09-17T05:54:55.000Z</time>
      </trkpt>
      <trkpt lat="43.9314" lon="4.82984">
        <ele>19.699678</ele>
        <time>2021-09-17T05:54:58.000Z</time>
      </trkpt>
      <trkpt lat="43.9311" lon="4.83019">
        <ele>19.90204</ele>
        <time>2021-09-17T05:55:06.000Z</time>
      </trkpt>
      <trkpt lat="43.93082" lon="4.83049">
        <ele>19.945408</ele>
        <time>2021-09-17T05:55:13.000Z</time>
      </trkpt>
      <trkpt lat="43.9307" lon="4.83062">
        <ele>19.964743</ele>
        <time>2021-09-17T05:55:16.000Z</time>
      </trkpt>
      <trkpt lat="43.93057" lon="4.83076">
        <ele>19.984833</ele>
        <time>2021-09-17T05:55:19.000Z</time>
      </trkpt>
      <trkpt lat="43.9304" lon="4.83095">
        <ele>20.010832</ele>
        <time>2021-09-17T05:55:23.000Z</time>
      </trkpt>
      <trkpt lat="43.93037" lon="4.831">
        <ele>20.017022</ele>
        <time>2021-09-17T05:55:24.000Z</time>
      </trkpt>
      <trkpt lat="43.93029" lon="4.83108">
        <ele>20.028833</ele>
        <time>2021-09-17T05:55:26.000Z</time>
      </trkpt>
      <trkpt lat="43.93028" lon="4.83126">
        <ele>20.044606</ele>
        <time>2021-09-17T05:55:28.000Z</time>
      </trkpt>
      <trkpt lat="43.92995" lon="4.83157">
        <ele>20.09358</ele>
        <time>2021-09-17T05:55:35.000Z</time>
      </trkpt>
      <trkpt lat="43.92964" lon="4.83197">
        <ele>19.963782</ele>
        <time>2021-09-17T05:55:42.000Z</time>
      </trkpt>
      <trkpt lat="43.92947" lon="4.83219">
        <ele>19.795776</ele>
        <time>2021-09-17T05:55:46.000Z</time>
      </trkpt>
      <trkpt lat="43.92938" lon="4.8323">
        <ele>19.711248</ele>
        <time>2021-09-17T05:55:48.000Z</time>
      </trkpt>
      <trkpt lat="43.92912" lon="4.83265">
        <ele>19.449753</ele>
        <time>2021-09-17T05:55:54.000Z</time>
      </trkpt>
      <trkpt lat="43.92877" lon="4.83314">
        <ele>19.09534</ele>
        <time>2021-09-17T05:56:02.000Z</time>
      </trkpt>
      <trkpt lat="43.92842" lon="4.83364">
        <ele>18.803924</ele>
        <time>2021-09-17T05:56:10.000Z</time>
      </trkpt>
      <trkpt lat="43.928" lon="4.83412">
        <ele>18.687831</ele>
        <time>2021-09-17T05:56:19.000Z</time>
      </trkpt>
      <trkpt lat="43.92758" lon="4.83457">
        <ele>18.575784</ele>
        <time>2021-09-17T05:56:27.000Z</time>
      </trkpt>
      <trkpt lat="43.9275" lon="4.83466">
        <ele>18.55265</ele>
        <time>2021-09-17T05:56:30.000Z</time>
      </trkpt>
      <trkpt lat="43.92733" lon="4.83487">
        <ele>18.504097</ele>
        <time>2021-09-17T05:56:34.000Z</time>
      </trkpt>
      <trkpt lat="43.92728" lon="4.83492">
        <ele>18.49271</ele>
        <time>2021-09-17T05:56:35.000Z</time>
      </trkpt>
      <trkpt lat="43.92724" lon="4.83497">
        <ele>18.481484</ele>
        <time>2021-09-17T05:56:36.000Z</time>
      </trkpt>
      <trkpt lat="43.92708" lon="4.8352">
        <ele>18.512994</ele>
        <time>2021-09-17T05:56:40.000Z</time>
      </trkpt>
      <trkpt lat="43.92683" lon="4.83572">
        <ele>18.835488</ele>
        <time>2021-09-17T05:56:47.000Z</time>
      </trkpt>
      <trkpt lat="43.92668" lon="4.83607">
        <ele>19.047481</ele>
        <time>2021-09-17T05:56:52.000Z</time>
      </trkpt>
      <trkpt lat="43.92662" lon="4.83622">
        <ele>19.135483</ele>
        <time>2021-09-17T05:56:54.000Z</time>
      </trkpt>
      <trkpt lat="43.92654" lon="4.83636">
        <ele>19.227759</ele>
        <time>2021-09-17T05:56:56.000Z</time>
      </trkpt>
      <trkpt lat="43.92641" lon="4.83654">
        <ele>19.358592</ele>
        <time>2021-09-17T05:56:59.000Z</time>
      </trkpt>
      <trkpt lat="43.92638" lon="4.83659">
        <ele>19.398667</ele>
        <time>2021-09-17T05:57:00.000Z</time>
      </trkpt>
      <trkpt lat="43.92628" lon="4.83677">
        <ele>19.516261</ele>
        <time>2021-09-17T05:57:03.000Z</time>
      </trkpt>
      <trkpt lat="43.92616" lon="4.83685">
        <ele>19.607428</ele>
        <time>2021-09-17T05:57:05.000Z</time>
      </trkpt>
      <trkpt lat="43.92582" lon="4.83718">
        <ele>19.892715</ele>
        <time>2021-09-17T05:57:12.000Z</time>
      </trkpt>
      <trkpt lat="43.92555" lon="4.83745">
        <ele>20.109193</ele>
        <time>2021-09-17T05:57:18.000Z</time>
      </trkpt>
      <trkpt lat="43.92531" lon="4.83769">
        <ele>20.299802</ele>
        <time>2021-09-17T05:57:23.000Z</time>
      </trkpt>
      <trkpt lat="43.92526" lon="4.83773">
        <ele>20.337343</ele>
        <time>2021-09-17T05:57:24.000Z</time>
      </trkpt>
      <trkpt lat="43.92497" lon="4.83803">
        <ele>20.567674</ele>
        <time>2021-09-17T05:57:30.000Z</time>
      </trkpt>
      <trkpt lat="43.92473" lon="4.83841">
        <ele>20.808624</ele>
        <time>2021-09-17T05:57:36.000Z</time>
      </trkpt>
      <trkpt lat="43.92464" lon="4.83864">
        <ele>20.933884</ele>
        <time>2021-09-17T05:57:39.000Z</time>
      </trkpt>
      <trkpt lat="43.92459" lon="4.83879">
        <ele>21.037066</ele>
        <time>2021-09-17T05:57:41.000Z</time>
      </trkpt>
      <trkpt lat="43.92448" lon="4.83918">
        <ele>21.301208</ele>
        <time>2021-09-17T05:57:46.000Z</time>
      </trkpt>
      <trkpt lat="43.92446" lon="4.83926">
        <ele>21.354305</ele>
        <time>2021-09-17T05:57:47.000Z</time>
      </trkpt>
      <trkpt lat="43.92444" lon="4.83934">
        <ele>21.406452</ele>
        <time>2021-09-17T05:57:48.000Z</time>
      </trkpt>
      <trkpt lat="43.92441" lon="4.8395">
        <ele>21.5141</ele>
        <time>2021-09-17T05:57:50.000Z</time>
      </trkpt>
      <trkpt lat="43.92439" lon="4.83958">
        <ele>21.567557</ele>
        <time>2021-09-17T05:57:51.000Z</time>
      </trkpt>
      <trkpt lat="43.92435" lon="4.83996">
        <ele>21.80664</ele>
        <time>2021-09-17T05:57:56.000Z</time>
      </trkpt>
      <trkpt lat="43.92434" lon="4.84002">
        <ele>21.848761</ele>
        <time>2021-09-17T05:57:57.000Z</time>
      </trkpt>
      <trkpt lat="43.92427" lon="4.84032">
        <ele>22.043364</ele>
        <time>2021-09-17T05:58:01.000Z</time>
      </trkpt>
      <trkpt lat="43.92421" lon="4.84046">
        <ele>22.148298</ele>
        <time>2021-09-17T05:58:03.000Z</time>
      </trkpt>
      <trkpt lat="43.92405" lon="4.84071">
        <ele>22.359593</ele>
        <time>2021-09-17T05:58:07.000Z</time>
      </trkpt>
      <trkpt lat="43.92372" lon="4.8412">
        <ele>22.661272</ele>
        <time>2021-09-17T05:58:15.000Z</time>
      </trkpt>
      <trkpt lat="43.92347" lon="4.84165">
        <ele>22.87954</ele>
        <time>2021-09-17T05:58:22.000Z</time>
      </trkpt>
      <trkpt lat="43.92329" lon="4.84194">
        <ele>23.022711</ele>
        <time>2021-09-17T05:58:27.000Z</time>
      </trkpt>
      <trkpt lat="43.92303" lon="4.84237">
        <ele>23.238123</ele>
        <time>2021-09-17T05:58:34.000Z</time>
      </trkpt>
      <trkpt lat="43.92299" lon="4.84243">
        <ele>23.267107</ele>
        <time>2021-09-17T05:58:35.000Z</time>
      </trkpt>
      <trkpt lat="43.92284" lon="4.84261">
        <ele>23.371796</ele>
        <time>2021-09-17T05:58:39.000Z</time>
      </trkpt>
      <trkpt lat="43.92277" lon="4.84267">
        <ele>23.415244</ele>
        <time>2021-09-17T05:58:41.000Z</time>
      </trkpt>
      <trkpt lat="43.92277" lon="4.84266">
        <ele>23.418489</ele>
        <time>2021-09-17T05:58:45.000Z</time>
      </trkpt>
      <trkpt lat="43.92285" lon="4.8426">
        <ele>23.46222</ele>
        <time>2021-09-17T05:58:49.000Z</time>
      </trkpt>
      <trkpt lat="43.9229" lon="4.84268">
        <ele>23.496492</ele>
        <time>2021-09-17T05:58:51.000Z</time>
      </trkpt>
      <trkpt lat="43.92289" lon="4.84271">
        <ele>23.505861</ele>
        <time>2021-09-17T05:58:52.000Z</time>
      </trkpt>
      <trkpt lat="43.92282" lon="4.84298">
        <ele>23.604347</ele>
        <time>2021-09-17T05:58:58.000Z</time>
      </trkpt>
      <trkpt lat="43.92276" lon="4.84321">
        <ele>23.689429</ele>
        <time>2021-09-17T05:59:02.000Z</time>
      </trkpt>
      <trkpt lat="43.92272" lon="4.84333">
        <ele>23.733832</ele>
        <time>2021-09-17T05:59:04.000Z</time>
      </trkpt>
      <trkpt lat="43.92259" lon="4.84349">
        <ele>23.816649</ele>
        <time>2021-09-17T05:59:06.000Z</time>
      </trkpt>
      <trkpt lat="43.92254" lon="4.84349">
        <ele>23.840059</ele>
        <time>2021-09-17T05:59:08.000Z</time>
      </trkpt>
      <trkpt lat="43.92233" lon="4.84354">
        <ele>23.941251</ele>
        <time>2021-09-17T05:59:11.000Z</time>
      </trkpt>
      <trkpt lat="43.92224" lon="4.84356">
        <ele>23.987259</ele>
        <time>2021-09-17T05:59:14.000Z</time>
      </trkpt>
      <trkpt lat="43.92209" lon="4.8436">
        <ele>24.057443</ele>
        <time>2021-09-17T05:59:16.000Z</time>
      </trkpt>
      <trkpt lat="43.92199" lon="4.84363">
        <ele>24.106804</ele>
        <time>2021-09-17T05:59:19.000Z</time>
      </trkpt>
      <trkpt lat="43.92191" lon="4.84369">
        <ele>24.152553</ele>
        <time>2021-09-17T05:59:20.000Z</time>
      </trkpt>
      <trkpt lat="43.92187" lon="4.84374">
        <ele>24.177301</ele>
        <time>2021-09-17T05:59:22.000Z</time>
      </trkpt>
      <trkpt lat="43.92183" lon="4.84379">
        <ele>24.202855</ele>
        <time>2021-09-17T05:59:23.000Z</time>
      </trkpt>
      <trkpt lat="43.92173" lon="4.84394">
        <ele>24.274154</ele>
        <time>2021-09-17T05:59:26.000Z</time>
      </trkpt>
      <trkpt lat="43.92164" lon="4.84411">
        <ele>24.278774</ele>
        <time>2021-09-17T05:59:29.000Z</time>
      </trkpt>
      <trkpt lat="43.92156" lon="4.8443">
        <ele>24.267324</ele>
        <time>2021-09-17T05:59:32.000Z</time>
      </trkpt>
      <trkpt lat="43.92145" lon="4.84453">
        <ele>24.252554</ele>
        <time>2021-09-17T05:59:36.000Z</time>
      </trkpt>
      <trkpt lat="43.92142" lon="4.84458">
        <ele>24.249467</ele>
        <time>2021-09-17T05:59:37.000Z</time>
      </trkpt>
      <trkpt lat="43.92139" lon="4.84462">
        <ele>24.246352</ele>
        <time>2021-09-17T05:59:38.000Z</time>
      </trkpt>
      <trkpt lat="43.92128" lon="4.84475">
        <ele>24.236189</ele>
        <time>2021-09-17T05:59:40.000Z</time>
      </trkpt>
      <trkpt lat="43.92128" lon="4.84475">
        <ele>24.236136</ele>
        <time>2021-09-17T05:59:41.000Z</time>
      </trkpt>
      <trkpt lat="43.92117" lon="4.84486">
        <ele>24.226094</ele>
        <time>2021-09-17T05:59:44.000Z</time>
      </trkpt>
      <trkpt lat="43.92105" lon="4.84494">
        <ele>24.21619</ele>
        <time>2021-09-17T05:59:47.000Z</time>
      </trkpt>
      <trkpt lat="43.921" lon="4.84496">
        <ele>24.212856</ele>
        <time>2021-09-17T05:59:48.000Z</time>
      </trkpt>
      <trkpt lat="43.92077" lon="4.84504">
        <ele>24.195734</ele>
        <time>2021-09-17T05:59:53.000Z</time>
      </trkpt>
      <trkpt lat="43.92065" lon="4.84506">
        <ele>24.186395</ele>
        <time>2021-09-17T05:59:56.000Z</time>
      </trkpt>
      <trkpt lat="43.92056" lon="4.84508">
        <ele>24.179924</ele>
        <time>2021-09-17T05:59:58.000Z</time>
      </trkpt>
      <trkpt lat="43.92037" lon="4.84515">
        <ele>24.165367</ele>
        <time>2021-09-17T06:00:03.000Z</time>
      </trkpt>
      <trkpt lat="43.92011" lon="4.8453">
        <ele>24.013337</ele>
        <time>2021-09-17T06:00:09.000Z</time>
      </trkpt>
      <trkpt lat="43.92006" lon="4.84533">
        <ele>23.968031</ele>
        <time>2021-09-17T06:00:10.000Z</time>
      </trkpt>
      <trkpt lat="43.91997" lon="4.8454">
        <ele>23.874745</ele>
        <time>2021-09-17T06:00:12.000Z</time>
      </trkpt>
      <trkpt lat="43.91987" lon="4.84546">
        <ele>23.78146</ele>
        <time>2021-09-17T06:00:14.000Z</time>
      </trkpt>
      <trkpt lat="43.91965" lon="4.8456">
        <ele>23.56755</ele>
        <time>2021-09-17T06:00:19.000Z</time>
      </trkpt>
      <trkpt lat="43.91935" lon="4.84581">
        <ele>23.268926</ele>
        <time>2021-09-17T06:00:25.000Z</time>
      </trkpt>
      <trkpt lat="43.91914" lon="4.84594">
        <ele>23.063863</ele>
        <time>2021-09-17T06:00:29.000Z</time>
      </trkpt>
      <trkpt lat="43.91905" lon="4.84603">
        <ele>22.964114</ele>
        <time>2021-09-17T06:00:31.000Z</time>
      </trkpt>
      <trkpt lat="43.91866" lon="4.84642">
        <ele>22.569799</ele>
        <time>2021-09-17T06:00:39.000Z</time>
      </trkpt>
      <trkpt lat="43.91861" lon="4.84647">
        <ele>22.584791</ele>
        <time>2021-09-17T06:00:40.000Z</time>
      </trkpt>
      <trkpt lat="43.91839" lon="4.84671">
        <ele>22.653958</ele>
        <time>2021-09-17T06:00:45.000Z</time>
      </trkpt>
      <trkpt lat="43.91806" lon="4.84686">
        <ele>22.741453</ele>
        <time>2021-09-17T06:00:52.000Z</time>
      </trkpt>
      <trkpt lat="43.91787" lon="4.84693">
        <ele>22.792164</ele>
        <time>2021-09-17T06:00:56.000Z</time>
      </trkpt>
      <trkpt lat="43.91787" lon="4.84693">
        <ele>22.792415</ele>
        <time>2021-09-17T06:00:57.000Z</time>
      </trkpt>
      <trkpt lat="43.91783" lon="4.84697">
        <ele>22.804911</ele>
        <time>2021-09-17T06:00:59.000Z</time>
      </trkpt>
      <trkpt lat="43.91779" lon="4.84715">
        <ele>22.837581</ele>
        <time>2021-09-17T06:01:02.000Z</time>
      </trkpt>
      <trkpt lat="43.91776" lon="4.84728">
        <ele>22.862618</ele>
        <time>2021-09-17T06:01:04.000Z</time>
      </trkpt>
      <trkpt lat="43.91772" lon="4.84741">
        <ele>22.888679</ele>
        <time>2021-09-17T06:01:06.000Z</time>
      </trkpt>
      <trkpt lat="43.91769" lon="4.84754">
        <ele>22.914143</ele>
        <time>2021-09-17T06:01:08.000Z</time>
      </trkpt>
      <trkpt lat="43.91767" lon="4.84761">
        <ele>22.926236</ele>
        <time>2021-09-17T06:01:09.000Z</time>
      </trkpt>
      <trkpt lat="43.9176" lon="4.84788">
        <ele>22.979293</ele>
        <time>2021-09-17T06:01:12.000Z</time>
      </trkpt>
      <trkpt lat="43.91758" lon="4.84795">
        <ele>22.991642</ele>
        <time>2021-09-17T06:01:14.000Z</time>
      </trkpt>
      <trkpt lat="43.91756" lon="4.84801">
        <ele>23.004757</ele>
        <time>2021-09-17T06:01:15.000Z</time>
      </trkpt>
      <trkpt lat="43.91755" lon="4.84808">
        <ele>23.011976</ele>
        <time>2021-09-17T06:01:16.000Z</time>
      </trkpt>
      <trkpt lat="43.91749" lon="4.84828">
        <ele>22.960977</ele>
        <time>2021-09-17T06:01:19.000Z</time>
      </trkpt>
      <trkpt lat="43.91746" lon="4.8484">
        <ele>22.930578</ele>
        <time>2021-09-17T06:01:21.000Z</time>
      </trkpt>
      <trkpt lat="43.91743" lon="4.84854">
        <ele>22.894665</ele>
        <time>2021-09-17T06:01:23.000Z</time>
      </trkpt>
      <trkpt lat="43.9174" lon="4.84862">
        <ele>22.874737</ele>
        <time>2021-09-17T06:01:24.000Z</time>
      </trkpt>
      <trkpt lat="43.91732" lon="4.84893">
        <ele>22.79503</ele>
        <time>2021-09-17T06:01:28.000Z</time>
      </trkpt>
      <trkpt lat="43.9173" lon="4.84901">
        <ele>22.775666</ele>
        <time>2021-09-17T06:01:29.000Z</time>
      </trkpt>
      <trkpt lat="43.91726" lon="4.84915">
        <ele>22.738624</ele>
        <time>2021-09-17T06:01:31.000Z</time>
      </trkpt>
      <trkpt lat="43.91721" lon="4.84936">
        <ele>22.684585</ele>
        <time>2021-09-17T06:01:34.000Z</time>
      </trkpt>
      <trkpt lat="43.91715" lon="4.84957">
        <ele>22.631334</ele>
        <time>2021-09-17T06:01:37.000Z</time>
      </trkpt>
      <trkpt lat="43.91712" lon="4.8497">
        <ele>22.599473</ele>
        <time>2021-09-17T06:01:39.000Z</time>
      </trkpt>
      <trkpt lat="43.9171" lon="4.84976">
        <ele>22.582924</ele>
        <time>2021-09-17T06:01:40.000Z</time>
      </trkpt>
      <trkpt lat="43.91705" lon="4.84998">
        <ele>22.528659</ele>
        <time>2021-09-17T06:01:43.000Z</time>
      </trkpt>
      <trkpt lat="43.91703" lon="4.85005">
        <ele>22.510533</ele>
        <time>2021-09-17T06:01:44.000Z</time>
      </trkpt>
      <trkpt lat="43.91696" lon="4.85029">
        <ele>22.448274</ele>
        <time>2021-09-17T06:01:47.000Z</time>
      </trkpt>
      <trkpt lat="43.91692" lon="4.85046">
        <ele>22.45648</ele>
        <time>2021-09-17T06:01:49.000Z</time>
      </trkpt>
      <trkpt lat="43.9168" lon="4.85091">
        <ele>22.8133</ele>
        <time>2021-09-17T06:01:55.000Z</time>
      </trkpt>
      <trkpt lat="43.91678" lon="4.85097">
        <ele>22.86134</ele>
        <time>2021-09-17T06:01:56.000Z</time>
      </trkpt>
      <trkpt lat="43.9167" lon="4.8513">
        <ele>23.119301</ele>
        <time>2021-09-17T06:02:02.000Z</time>
      </trkpt>
      <trkpt lat="43.91667" lon="4.85139">
        <ele>23.192406</ele>
        <time>2021-09-17T06:02:05.000Z</time>
      </trkpt>
      <trkpt lat="43.91668" lon="4.85136">
        <ele>23.219211</ele>
        <time>2021-09-17T06:02:14.000Z</time>
      </trkpt>
      <trkpt lat="43.9167" lon="4.8513">
        <ele>23.264118</ele>
        <time>2021-09-17T06:02:16.000Z</time>
      </trkpt>
      <trkpt lat="43.91674" lon="4.85115">
        <ele>23.386309</ele>
        <time>2021-09-17T06:02:20.000Z</time>
      </trkpt>
      <trkpt lat="43.91682" lon="4.85082">
        <ele>23.645659</ele>
        <time>2021-09-17T06:02:26.000Z</time>
      </trkpt>
      <trkpt lat="43.91693" lon="4.8504">
        <ele>23.977417</ele>
        <time>2021-09-17T06:02:34.000Z</time>
      </trkpt>
      <trkpt lat="43.91699" lon="4.85021">
        <ele>24.129545</ele>
        <time>2021-09-17T06:02:38.000Z</time>
      </trkpt>
      <trkpt lat="43.91705" lon="4.84997">
        <ele>24.348624</ele>
        <time>2021-09-17T06:02:43.000Z</time>
      </trkpt>
      <trkpt lat="43.91714" lon="4.84962">
        <ele>24.823532</ele>
        <time>2021-09-17T06:02:49.000Z</time>
      </trkpt>
      <trkpt lat="43.91718" lon="4.84945">
        <ele>25.055861</ele>
        <time>2021-09-17T06:02:54.000Z</time>
      </trkpt>
      <trkpt lat="43.91721" lon="4.84934">
        <ele>25.21337</ele>
        <time>2021-09-17T06:02:57.000Z</time>
      </trkpt>
      <trkpt lat="43.91725" lon="4.84922">
        <ele>25.374489</ele>
        <time>2021-09-17T06:02:59.000Z</time>
      </trkpt>
      <trkpt lat="43.91731" lon="4.84898">
        <ele>25.700953</ele>
        <time>2021-09-17T06:03:04.000Z</time>
      </trkpt>
      <trkpt lat="43.91734" lon="4.84886">
        <ele>25.870524</ele>
        <time>2021-09-17T06:03:06.000Z</time>
      </trkpt>
      <trkpt lat="43.91739" lon="4.84866">
        <ele>26.145092</ele>
        <time>2021-09-17T06:03:08.000Z</time>
      </trkpt>
      <trkpt lat="43.91743" lon="4.84853">
        <ele>26.315867</ele>
        <time>2021-09-17T06:03:11.000Z</time>
      </trkpt>
      <trkpt lat="43.91746" lon="4.84841">
        <ele>26.480008</ele>
        <time>2021-09-17T06:03:13.000Z</time>
      </trkpt>
      <trkpt lat="43.91747" lon="4.84835">
        <ele>26.559058</ele>
        <time>2021-09-17T06:03:14.000Z</time>
      </trkpt>
      <trkpt lat="43.91757" lon="4.84801">
        <ele>27.031552</ele>
        <time>2021-09-17T06:03:20.000Z</time>
      </trkpt>
      <trkpt lat="43.91767" lon="4.84761">
        <ele>27.514816</ele>
        <time>2021-09-17T06:03:26.000Z</time>
      </trkpt>
      <trkpt lat="43.91774" lon="4.84736">
        <ele>27.67472</ele>
        <time>2021-09-17T06:03:31.000Z</time>
      </trkpt>
      <trkpt lat="43.91782" lon="4.84701">
        <ele>27.8897</ele>
        <time>2021-09-17T06:03:37.000Z</time>
      </trkpt>
      <trkpt lat="43.91783" lon="4.84697">
        <ele>27.917732</ele>
        <time>2021-09-17T06:03:38.000Z</time>
      </trkpt>
      <trkpt lat="43.9179" lon="4.84692">
        <ele>27.977029</ele>
        <time>2021-09-17T06:03:40.000Z</time>
      </trkpt>
      <trkpt lat="43.91798" lon="4.84689">
        <ele>28.046567</ele>
        <time>2021-09-17T06:03:42.000Z</time>
      </trkpt>
      <trkpt lat="43.91812" lon="4.84684">
        <ele>28.162855</ele>
        <time>2021-09-17T06:03:45.000Z</time>
      </trkpt>
      <trkpt lat="43.91837" lon="4.84673">
        <ele>28.376539</ele>
        <time>2021-09-17T06:03:50.000Z</time>
      </trkpt>
      <trkpt lat="43.91841" lon="4.84669">
        <ele>28.422548</ele>
        <time>2021-09-17T06:03:51.000Z</time>
      </trkpt>
      <trkpt lat="43.91875" lon="4.84632">
        <ele>28.76792</ele>
        <time>2021-09-17T06:03:59.000Z</time>
      </trkpt>
      <trkpt lat="43.91903" lon="4.84605">
        <ele>29.146906</ele>
        <time>2021-09-17T06:04:06.000Z</time>
      </trkpt>
      <trkpt lat="43.91907" lon="4.846">
        <ele>29.232689</ele>
        <time>2021-09-17T06:04:07.000Z</time>
      </trkpt>
      <trkpt lat="43.91931" lon="4.84583">
        <ele>29.647689</ele>
        <time>2021-09-17T06:04:11.000Z</time>
      </trkpt>
      <trkpt lat="43.91966" lon="4.8456">
        <ele>30.22725</ele>
        <time>2021-09-17T06:04:19.000Z</time>
      </trkpt>
      <trkpt lat="43.91979" lon="4.84551">
        <ele>30.448561</ele>
        <time>2021-09-17T06:04:21.000Z</time>
      </trkpt>
      <trkpt lat="43.91993" lon="4.84542">
        <ele>30.686463</ele>
        <time>2021-09-17T06:04:25.000Z</time>
      </trkpt>
      <trkpt lat="43.92023" lon="4.84523">
        <ele>31.189904</ele>
        <time>2021-09-17T06:04:31.000Z</time>
      </trkpt>
      <trkpt lat="43.92033" lon="4.84517">
        <ele>31.355927</ele>
        <time>2021-09-17T06:04:33.000Z</time>
      </trkpt>
      <trkpt lat="43.92047" lon="4.8451">
        <ele>31.587379</ele>
        <time>2021-09-17T06:04:36.000Z</time>
      </trkpt>
      <trkpt lat="43.92091" lon="4.84499">
        <ele>32.238372</ele>
        <time>2021-09-17T06:04:44.000Z</time>
      </trkpt>
      <trkpt lat="43.92102" lon="4.84495">
        <ele>32.402298</ele>
        <time>2021-09-17T06:04:45.000Z</time>
      </trkpt>
      <trkpt lat="43.92116" lon="4.84486">
        <ele>32.627436</ele>
        <time>2021-09-17T06:04:49.000Z</time>
      </trkpt>
      <trkpt lat="43.92124" lon="4.84479">
        <ele>32.770656</ele>
        <time>2021-09-17T06:04:50.000Z</time>
      </trkpt>
      <trkpt lat="43.92144" lon="4.84455">
        <ele>33.154002</ele>
        <time>2021-09-17T06:04:55.000Z</time>
      </trkpt>
      <trkpt lat="43.92159" lon="4.84422">
        <ele>33.565506</ele>
        <time>2021-09-17T06:05:00.000Z</time>
      </trkpt>
      <trkpt lat="43.92166" lon="4.84408">
        <ele>33.741899</ele>
        <time>2021-09-17T06:05:02.000Z</time>
      </trkpt>
      <trkpt lat="43.92173" lon="4.84394">
        <ele>33.923198</ele>
        <time>2021-09-17T06:05:05.000Z</time>
      </trkpt>
      <trkpt lat="43.92177" lon="4.84387">
        <ele>34.011758</ele>
        <time>2021-09-17T06:05:06.000Z</time>
      </trkpt>
      <trkpt lat="43.92189" lon="4.84371">
        <ele>34.259009</ele>
        <time>2021-09-17T06:05:09.000Z</time>
      </trkpt>
      <trkpt lat="43.92209" lon="4.8436">
        <ele>34.443372</ele>
        <time>2021-09-17T06:05:13.000Z</time>
      </trkpt>
      <trkpt lat="43.92214" lon="4.84359">
        <ele>34.481115</ele>
        <time>2021-09-17T06:05:14.000Z</time>
      </trkpt>
      <trkpt lat="43.92228" lon="4.84355">
        <ele>34.586533</ele>
        <time>2021-09-17T06:05:17.000Z</time>
      </trkpt>
      <trkpt lat="43.92256" lon="4.84349">
        <ele>34.811906</ele>
        <time>2021-09-17T06:05:24.000Z</time>
      </trkpt>
      <trkpt lat="43.92277" lon="4.84352">
        <ele>34.974246</ele>
        <time>2021-09-17T06:05:30.000Z</time>
      </trkpt>
      <trkpt lat="43.92309" lon="4.84363">
        <ele>35.225416</ele>
        <time>2021-09-17T06:05:37.000Z</time>
      </trkpt>
      <trkpt lat="43.92339" lon="4.8437">
        <ele>35.465508</ele>
        <time>2021-09-17T06:05:44.000Z</time>
      </trkpt>
      <trkpt lat="43.92362" lon="4.84376">
        <ele>35.646121</ele>
        <time>2021-09-17T06:05:50.000Z</time>
      </trkpt>
      <trkpt lat="43.92385" lon="4.84382">
        <ele>35.734504</ele>
        <time>2021-09-17T06:05:56.000Z</time>
      </trkpt>
      <trkpt lat="43.92403" lon="4.84387">
        <ele>35.781942</ele>
        <time>2021-09-17T06:06:01.000Z</time>
      </trkpt>
      <trkpt lat="43.92425" lon="4.84392">
        <ele>35.838556</ele>
        <time>2021-09-17T06:06:07.000Z</time>
      </trkpt>
      <trkpt lat="43.92455" lon="4.84399">
        <ele>35.915058</ele>
        <time>2021-09-17T06:06:14.000Z</time>
      </trkpt>
      <trkpt lat="43.92463" lon="4.84401">
        <ele>35.935801</ele>
        <time>2021-09-17T06:06:16.000Z</time>
      </trkpt>
      <trkpt lat="43.92475" lon="4.84404">
        <ele>35.966881</ele>
        <time>2021-09-17T06:06:19.000Z</time>
      </trkpt>
      <trkpt lat="43.92483" lon="4.84406">
        <ele>35.988158</ele>
        <time>2021-09-17T06:06:21.000Z</time>
      </trkpt>
      <trkpt lat="43.92492" lon="4.84409">
        <ele>36.010184</ele>
        <time>2021-09-17T06:06:23.000Z</time>
      </trkpt>
      <trkpt lat="43.92528" lon="4.84421">
        <ele>36.106006</ele>
        <time>2021-09-17T06:06:30.000Z</time>
      </trkpt>
      <trkpt lat="43.92538" lon="4.84425">
        <ele>36.130769</ele>
        <time>2021-09-17T06:06:32.000Z</time>
      </trkpt>
      <trkpt lat="43.92553" lon="4.84432">
        <ele>35.94131</ele>
        <time>2021-09-17T06:06:35.000Z</time>
      </trkpt>
      <trkpt lat="43.92582" lon="4.84447">
        <ele>35.26833</ele>
        <time>2021-09-17T06:06:41.000Z</time>
      </trkpt>
      <trkpt lat="43.92587" lon="4.8445">
        <ele>35.158884</ele>
        <time>2021-09-17T06:06:42.000Z</time>
      </trkpt>
      <trkpt lat="43.92603" lon="4.84465">
        <ele>34.72705</ele>
        <time>2021-09-17T06:06:46.000Z</time>
      </trkpt>
      <trkpt lat="43.9262" lon="4.84482">
        <ele>34.273909</ele>
        <time>2021-09-17T06:06:51.000Z</time>
      </trkpt>
      <trkpt lat="43.92626" lon="4.84489">
        <ele>34.108804</ele>
        <time>2021-09-17T06:06:55.000Z</time>
      </trkpt>
      <trkpt lat="43.92635" lon="4.84501">
        <ele>33.841564</ele>
        <time>2021-09-17T06:07:02.000Z</time>
      </trkpt>
      <trkpt lat="43.9264" lon="4.84507">
        <ele>33.688605</ele>
        <time>2021-09-17T06:07:07.000Z</time>
      </trkpt>
      <trkpt lat="43.92641" lon="4.84509">
        <ele>33.655732</ele>
        <time>2021-09-17T06:07:10.000Z</time>
      </trkpt>
      <trkpt lat="43.92643" lon="4.84512">
        <ele>33.591245</ele>
        <time>2021-09-17T06:07:12.000Z</time>
      </trkpt>
      <trkpt lat="43.92646" lon="4.84537">
        <ele>33.197164</ele>
        <time>2021-09-17T06:07:17.000Z</time>
      </trkpt>
      <trkpt lat="43.92645" lon="4.84543">
        <ele>33.103058</ele>
        <time>2021-09-17T06:07:18.000Z</time>
      </trkpt>
      <trkpt lat="43.92644" lon="4.8455">
        <ele>32.988918</ele>
        <time>2021-09-17T06:07:19.000Z</time>
      </trkpt>
      <trkpt lat="43.92634" lon="4.84576">
        <ele>32.543373</ele>
        <time>2021-09-17T06:07:23.000Z</time>
      </trkpt>
      <trkpt lat="43.92611" lon="4.84627">
        <ele>31.894793</ele>
        <time>2021-09-17T06:07:31.000Z</time>
      </trkpt>
      <trkpt lat="43.92589" lon="4.84676">
        <ele>31.401409</ele>
        <time>2021-09-17T06:07:38.000Z</time>
      </trkpt>
      <trkpt lat="43.92564" lon="4.84731">
        <ele>30.845308</ele>
        <time>2021-09-17T06:07:46.000Z</time>
      </trkpt>
      <trkpt lat="43.92543" lon="4.84779">
        <ele>30.360351</ele>
        <time>2021-09-17T06:07:53.000Z</time>
      </trkpt>
      <trkpt lat="43.92513" lon="4.84845">
        <ele>29.923215</ele>
        <time>2021-09-17T06:08:02.000Z</time>
      </trkpt>
      <trkpt lat="43.92483" lon="4.84911">
        <ele>29.617525</ele>
        <time>2021-09-17T06:08:11.000Z</time>
      </trkpt>
      <trkpt lat="43.9247" lon="4.8496">
        <ele>29.41198</ele>
        <time>2021-09-17T06:08:17.000Z</time>
      </trkpt>
      <trkpt lat="43.92458" lon="4.85027">
        <ele>29.143703</ele>
        <time>2021-09-17T06:08:25.000Z</time>
      </trkpt>
      <trkpt lat="43.92456" lon="4.85035">
        <ele>29.112817</ele>
        <time>2021-09-17T06:08:26.000Z</time>
      </trkpt>
      <trkpt lat="43.9244" lon="4.851">
        <ele>28.864327</ele>
        <time>2021-09-17T06:08:33.000Z</time>
      </trkpt>
      <trkpt lat="43.92429" lon="4.85144">
        <ele>28.6917</ele>
        <time>2021-09-17T06:08:40.000Z</time>
      </trkpt>
      <trkpt lat="43.92414" lon="4.85201">
        <ele>28.475277</ele>
        <time>2021-09-17T06:08:47.000Z</time>
      </trkpt>
      <trkpt lat="43.92396" lon="4.85269">
        <ele>28.228371</ele>
        <time>2021-09-17T06:08:55.000Z</time>
      </trkpt>
      <trkpt lat="43.92374" lon="4.85338">
        <ele>28.163296</ele>
        <time>2021-09-17T06:09:03.000Z</time>
      </trkpt>
      <trkpt lat="43.92353" lon="4.85396">
        <ele>28.1068</ele>
        <time>2021-09-17T06:09:10.000Z</time>
      </trkpt>
      <trkpt lat="43.92325" lon="4.85471">
        <ele>28.033977</ele>
        <time>2021-09-17T06:09:19.000Z</time>
      </trkpt>
      <trkpt lat="43.92322" lon="4.8548">
        <ele>28.025591</ele>
        <time>2021-09-17T06:09:20.000Z</time>
      </trkpt>
      <trkpt lat="43.92297" lon="4.85546">
        <ele>28.078305</ele>
        <time>2021-09-17T06:09:28.000Z</time>
      </trkpt>
      <trkpt lat="43.92272" lon="4.85616">
        <ele>28.150727</ele>
        <time>2021-09-17T06:09:37.000Z</time>
      </trkpt>
      <trkpt lat="43.9225" lon="4.85679">
        <ele>28.214981</ele>
        <time>2021-09-17T06:09:45.000Z</time>
      </trkpt>
      <trkpt lat="43.92232" lon="4.85724">
        <ele>28.265079</ele>
        <time>2021-09-17T06:09:52.000Z</time>
      </trkpt>
      <trkpt lat="43.92216" lon="4.85757">
        <ele>28.310962</ele>
        <time>2021-09-17T06:10:00.000Z</time>
      </trkpt>
      <trkpt lat="43.9221" lon="4.8577">
        <ele>28.327799</ele>
        <time>2021-09-17T06:10:04.000Z</time>
      </trkpt>
      <trkpt lat="43.92202" lon="4.85787">
        <ele>28.351394</ele>
        <time>2021-09-17T06:10:08.000Z</time>
      </trkpt>
      <trkpt lat="43.922" lon="4.85793">
        <ele>28.358889</ele>
        <time>2021-09-17T06:10:09.000Z</time>
      </trkpt>
      <trkpt lat="43.92191" lon="4.85818">
        <ele>28.390809</ele>
        <time>2021-09-17T06:10:13.000Z</time>
      </trkpt>
      <trkpt lat="43.92175" lon="4.85877">
        <ele>28.462478</ele>
        <time>2021-09-17T06:10:21.000Z</time>
      </trkpt>
      <trkpt lat="43.92157" lon="4.85927">
        <ele>28.526092</ele>
        <time>2021-09-17T06:10:28.000Z</time>
      </trkpt>
      <trkpt lat="43.92137" lon="4.85981">
        <ele>28.627823</ele>
        <time>2021-09-17T06:10:36.000Z</time>
      </trkpt>
      <trkpt lat="43.92124" lon="4.86015">
        <ele>28.692341</ele>
        <time>2021-09-17T06:10:41.000Z</time>
      </trkpt>
      <trkpt lat="43.921" lon="4.86075">
        <ele>28.808724</ele>
        <time>2021-09-17T06:10:49.000Z</time>
      </trkpt>
      <trkpt lat="43.92075" lon="4.86144">
        <ele>28.940992</ele>
        <time>2021-09-17T06:10:58.000Z</time>
      </trkpt>
      <trkpt lat="43.92072" lon="4.86152">
        <ele>28.955667</ele>
        <time>2021-09-17T06:10:59.000Z</time>
      </trkpt>
      <trkpt lat="43.92046" lon="4.86223">
        <ele>29.046924</ele>
        <time>2021-09-17T06:11:08.000Z</time>
      </trkpt>
      <trkpt lat="43.92039" lon="4.86246">
        <ele>29.076032</ele>
        <time>2021-09-17T06:11:11.000Z</time>
      </trkpt>
      <trkpt lat="43.92031" lon="4.8627">
        <ele>29.106104</ele>
        <time>2021-09-17T06:11:14.000Z</time>
      </trkpt>
      <trkpt lat="43.92011" lon="4.86332">
        <ele>29.183547</ele>
        <time>2021-09-17T06:11:22.000Z</time>
      </trkpt>
      <trkpt lat="43.91988" lon="4.86403">
        <ele>29.196478</ele>
        <time>2021-09-17T06:11:31.000Z</time>
      </trkpt>
      <trkpt lat="43.91983" lon="4.86418">
        <ele>29.166715</ele>
        <time>2021-09-17T06:11:33.000Z</time>
      </trkpt>
      <trkpt lat="43.91966" lon="4.86471">
        <ele>29.065723</ele>
        <time>2021-09-17T06:11:40.000Z</time>
      </trkpt>
      <trkpt lat="43.91959" lon="4.86493">
        <ele>29.024</ele>
        <time>2021-09-17T06:11:43.000Z</time>
      </trkpt>
      <trkpt lat="43.91952" lon="4.86514">
        <ele>28.984256</ele>
        <time>2021-09-17T06:11:46.000Z</time>
      </trkpt>
      <trkpt lat="43.91929" lon="4.86584">
        <ele>28.850865</ele>
        <time>2021-09-17T06:11:55.000Z</time>
      </trkpt>
      <trkpt lat="43.91924" lon="4.866">
        <ele>28.820883</ele>
        <time>2021-09-17T06:11:57.000Z</time>
      </trkpt>
      <trkpt lat="43.91906" lon="4.86655">
        <ele>28.826174</ele>
        <time>2021-09-17T06:12:04.000Z</time>
      </trkpt>
      <trkpt lat="43.91885" lon="4.86718">
        <ele>28.849669</ele>
        <time>2021-09-17T06:12:12.000Z</time>
      </trkpt>
      <trkpt lat="43.91861" lon="4.8678">
        <ele>28.873765</ele>
        <time>2021-09-17T06:12:20.000Z</time>
      </trkpt>
      <trkpt lat="43.91836" lon="4.86843">
        <ele>28.935067</ele>
        <time>2021-09-17T06:12:28.000Z</time>
      </trkpt>
      <trkpt lat="43.91808" lon="4.8691">
        <ele>29.160425</ele>
        <time>2021-09-17T06:12:37.000Z</time>
      </trkpt>
      <trkpt lat="43.91804" lon="4.86917">
        <ele>29.185054</ele>
        <time>2021-09-17T06:12:38.000Z</time>
      </trkpt>
      <trkpt lat="43.91776" lon="4.86984">
        <ele>29.408065</ele>
        <time>2021-09-17T06:12:47.000Z</time>
      </trkpt>
      <trkpt lat="43.91773" lon="4.86991">
        <ele>29.43364</ele>
        <time>2021-09-17T06:12:48.000Z</time>
      </trkpt>
      <trkpt lat="43.91743" lon="4.87061">
        <ele>29.679657</ele>
        <time>2021-09-17T06:12:57.000Z</time>
      </trkpt>
      <trkpt lat="43.91713" lon="4.87131">
        <ele>29.97252</ele>
        <time>2021-09-17T06:13:06.000Z</time>
      </trkpt>
      <trkpt lat="43.91682" lon="4.87201">
        <ele>30.268666</ele>
        <time>2021-09-17T06:13:15.000Z</time>
      </trkpt>
      <trkpt lat="43.91678" lon="4.87209">
        <ele>30.302148</ele>
        <time>2021-09-17T06:13:16.000Z</time>
      </trkpt>
      <trkpt lat="43.91644" lon="4.87277">
        <ele>30.57308</ele>
        <time>2021-09-17T06:13:25.000Z</time>
      </trkpt>
      <trkpt lat="43.91625" lon="4.87313">
        <ele>30.692349</ele>
        <time>2021-09-17T06:13:30.000Z</time>
      </trkpt>
      <trkpt lat="43.91617" lon="4.87328">
        <ele>30.739288</ele>
        <time>2021-09-17T06:13:32.000Z</time>
      </trkpt>
      <trkpt lat="43.9161" lon="4.87343">
        <ele>30.786655</ele>
        <time>2021-09-17T06:13:34.000Z</time>
      </trkpt>
      <trkpt lat="43.91598" lon="4.87364">
        <ele>30.857277</ele>
        <time>2021-09-17T06:13:37.000Z</time>
      </trkpt>
      <trkpt lat="43.91578" lon="4.87398">
        <ele>30.972908</ele>
        <time>2021-09-17T06:13:42.000Z</time>
      </trkpt>
      <trkpt lat="43.91574" lon="4.87404">
        <ele>30.994908</ele>
        <time>2021-09-17T06:13:43.000Z</time>
      </trkpt>
      <trkpt lat="43.91552" lon="4.87418">
        <ele>31.084914</ele>
        <time>2021-09-17T06:13:47.000Z</time>
      </trkpt>
      <trkpt lat="43.91546" lon="4.87424">
        <ele>31.111306</ele>
        <time>2021-09-17T06:13:48.000Z</time>
      </trkpt>
      <trkpt lat="43.91541" lon="4.8743">
        <ele>31.134758</ele>
        <time>2021-09-17T06:13:49.000Z</time>
      </trkpt>
      <trkpt lat="43.91534" lon="4.87448">
        <ele>31.182314</ele>
        <time>2021-09-17T06:13:51.000Z</time>
      </trkpt>
      <trkpt lat="43.91535" lon="4.87467">
        <ele>31.219413</ele>
        <time>2021-09-17T06:13:53.000Z</time>
      </trkpt>
      <trkpt lat="43.91538" lon="4.87477">
        <ele>31.240727</ele>
        <time>2021-09-17T06:13:54.000Z</time>
      </trkpt>
      <trkpt lat="43.91541" lon="4.87484">
        <ele>31.257992</ele>
        <time>2021-09-17T06:13:55.000Z</time>
      </trkpt>
      <trkpt lat="43.91553" lon="4.87496">
        <ele>31.297308</ele>
        <time>2021-09-17T06:13:57.000Z</time>
      </trkpt>
      <trkpt lat="43.91587" lon="4.87501">
        <ele>31.389532</ele>
        <time>2021-09-17T06:14:02.000Z</time>
      </trkpt>
      <trkpt lat="43.91599" lon="4.87508">
        <ele>31.426212</ele>
        <time>2021-09-17T06:14:04.000Z</time>
      </trkpt>
      <trkpt lat="43.91616" lon="4.87521">
        <ele>31.4779</ele>
        <time>2021-09-17T06:14:07.000Z</time>
      </trkpt>
      <trkpt lat="43.91647" lon="4.87548">
        <ele>31.578648</ele>
        <time>2021-09-17T06:14:13.000Z</time>
      </trkpt>
      <trkpt lat="43.91682" lon="4.87582">
        <ele>31.713146</ele>
        <time>2021-09-17T06:14:20.000Z</time>
      </trkpt>
      <trkpt lat="43.91732" lon="4.87627">
        <ele>31.946117</ele>
        <time>2021-09-17T06:14:30.000Z</time>
      </trkpt>
      <trkpt lat="43.91776" lon="4.87668">
        <ele>32.154504</ele>
        <time>2021-09-17T06:14:39.000Z</time>
      </trkpt>
      <trkpt lat="43.9181" lon="4.87698">
        <ele>32.311581</ele>
        <time>2021-09-17T06:14:46.000Z</time>
      </trkpt>
      <trkpt lat="43.91834" lon="4.87717">
        <ele>32.409626</ele>
        <time>2021-09-17T06:14:51.000Z</time>
      </trkpt>
      <trkpt lat="43.9185" lon="4.87725">
        <ele>32.461692</ele>
        <time>2021-09-17T06:14:54.000Z</time>
      </trkpt>
      <trkpt lat="43.91859" lon="4.87731">
        <ele>32.495228</ele>
        <time>2021-09-17T06:14:56.000Z</time>
      </trkpt>
      <trkpt lat="43.91868" lon="4.87737">
        <ele>32.524737</ele>
        <time>2021-09-17T06:14:58.000Z</time>
      </trkpt>
      <trkpt lat="43.9188" lon="4.87762">
        <ele>32.593378</ele>
        <time>2021-09-17T06:15:03.000Z</time>
      </trkpt>
      <trkpt lat="43.91881" lon="4.87773">
        <ele>32.618773</ele>
        <time>2021-09-17T06:15:07.000Z</time>
      </trkpt>
      <trkpt lat="43.9188" lon="4.87788">
        <ele>32.652947</ele>
        <time>2021-09-17T06:15:10.000Z</time>
      </trkpt>
      <trkpt lat="43.9188" lon="4.87794">
        <ele>32.666847</ele>
        <time>2021-09-17T06:15:11.000Z</time>
      </trkpt>
      <trkpt lat="43.91872" lon="4.87838">
        <ele>32.769213</ele>
        <time>2021-09-17T06:15:17.000Z</time>
      </trkpt>
      <trkpt lat="43.91853" lon="4.87901">
        <ele>32.926742</ele>
        <time>2021-09-17T06:15:26.000Z</time>
      </trkpt>
      <trkpt lat="43.9183" lon="4.87956">
        <ele>32.972468</ele>
        <time>2021-09-17T06:15:34.000Z</time>
      </trkpt>
      <trkpt lat="43.91803" lon="4.88002">
        <ele>33.014672</ele>
        <time>2021-09-17T06:15:41.000Z</time>
      </trkpt>
      <trkpt lat="43.9178" lon="4.88041">
        <ele>33.051871</ele>
        <time>2021-09-17T06:15:47.000Z</time>
      </trkpt>
      <trkpt lat="43.91766" lon="4.88079">
        <ele>33.0819</ele>
        <time>2021-09-17T06:15:52.000Z</time>
      </trkpt>
      <trkpt lat="43.91757" lon="4.8813">
        <ele>33.122313</ele>
        <time>2021-09-17T06:15:58.000Z</time>
      </trkpt>
      <trkpt lat="43.91755" lon="4.88138">
        <ele>33.129993</ele>
        <time>2021-09-17T06:15:59.000Z</time>
      </trkpt>
      <trkpt lat="43.91737" lon="4.88204">
        <ele>33.191549</ele>
        <time>2021-09-17T06:16:07.000Z</time>
      </trkpt>
      <trkpt lat="43.9173" lon="4.88223">
        <ele>33.210714</ele>
        <time>2021-09-17T06:16:11.000Z</time>
      </trkpt>
      <trkpt lat="43.91722" lon="4.88253">
        <ele>33.23846</ele>
        <time>2021-09-17T06:16:17.000Z</time>
      </trkpt>
      <trkpt lat="43.91715" lon="4.88294">
        <ele>33.27573</ele>
        <time>2021-09-17T06:16:23.000Z</time>
      </trkpt>
      <trkpt lat="43.91708" lon="4.88343">
        <ele>33.319424</ele>
        <time>2021-09-17T06:16:29.000Z</time>
      </trkpt>
      <trkpt lat="43.91695" lon="4.8841">
        <ele>33.387884</ele>
        <time>2021-09-17T06:16:37.000Z</time>
      </trkpt>
      <trkpt lat="43.91682" lon="4.88476">
        <ele>33.456372</ele>
        <time>2021-09-17T06:16:45.000Z</time>
      </trkpt>
      <trkpt lat="43.91669" lon="4.8854">
        <ele>33.522611</ele>
        <time>2021-09-17T06:16:53.000Z</time>
      </trkpt>
      <trkpt lat="43.91653" lon="4.88604">
        <ele>33.590237</ele>
        <time>2021-09-17T06:17:01.000Z</time>
      </trkpt>
      <trkpt lat="43.91638" lon="4.88675">
        <ele>33.66444</ele>
        <time>2021-09-17T06:17:10.000Z</time>
      </trkpt>
      <trkpt lat="43.91621" lon="4.88748">
        <ele>33.740192</ele>
        <time>2021-09-17T06:17:19.000Z</time>
      </trkpt>
      <trkpt lat="43.91619" lon="4.88764">
        <ele>33.756375</ele>
        <time>2021-09-17T06:17:21.000Z</time>
      </trkpt>
      <trkpt lat="43.91612" lon="4.88819">
        <ele>33.811707</ele>
        <time>2021-09-17T06:17:28.000Z</time>
      </trkpt>
      <trkpt lat="43.91608" lon="4.88842">
        <ele>33.81104</ele>
        <time>2021-09-17T06:17:31.000Z</time>
      </trkpt>
      <trkpt lat="43.91606" lon="4.8885">
        <ele>33.803309</ele>
        <time>2021-09-17T06:17:32.000Z</time>
      </trkpt>
      <trkpt lat="43.91597" lon="4.88864">
        <ele>33.783378</ele>
        <time>2021-09-17T06:17:33.000Z</time>
      </trkpt>
      <trkpt lat="43.91593" lon="4.88864">
        <ele>33.777723</ele>
        <time>2021-09-17T06:17:35.000Z</time>
      </trkpt>
      <trkpt lat="43.91589" lon="4.88867">
        <ele>33.771665</ele>
        <time>2021-09-17T06:17:36.000Z</time>
      </trkpt>
      <trkpt lat="43.91586" lon="4.88871">
        <ele>33.765397</ele>
        <time>2021-09-17T06:17:37.000Z</time>
      </trkpt>
      <trkpt lat="43.91582" lon="4.88883">
        <ele>33.752267</ele>
        <time>2021-09-17T06:17:39.000Z</time>
      </trkpt>
      <trkpt lat="43.91584" lon="4.88897">
        <ele>33.737357</ele>
        <time>2021-09-17T06:17:41.000Z</time>
      </trkpt>
      <trkpt lat="43.91588" lon="4.88905">
        <ele>33.727572</ele>
        <time>2021-09-17T06:17:43.000Z</time>
      </trkpt>
      <trkpt lat="43.91592" lon="4.88927">
        <ele>33.704058</ele>
        <time>2021-09-17T06:17:45.000Z</time>
      </trkpt>
      <trkpt lat="43.9159" lon="4.88935">
        <ele>33.695575</ele>
        <time>2021-09-17T06:17:46.000Z</time>
      </trkpt>
      <trkpt lat="43.91576" lon="4.89001">
        <ele>33.625715</ele>
        <time>2021-09-17T06:17:54.000Z</time>
      </trkpt>
      <trkpt lat="43.91567" lon="4.89043">
        <ele>33.580834</ele>
        <time>2021-09-17T06:17:59.000Z</time>
      </trkpt>
      <trkpt lat="43.91555" lon="4.891">
        <ele>33.415784</ele>
        <time>2021-09-17T06:18:06.000Z</time>
      </trkpt>
      <trkpt lat="43.91543" lon="4.89156">
        <ele>33.229861</ele>
        <time>2021-09-17T06:18:13.000Z</time>
      </trkpt>
      <trkpt lat="43.9154" lon="4.89172">
        <ele>33.177046</ele>
        <time>2021-09-17T06:18:15.000Z</time>
      </trkpt>
      <trkpt lat="43.91532" lon="4.89212">
        <ele>33.044781</ele>
        <time>2021-09-17T06:18:20.000Z</time>
      </trkpt>
      <trkpt lat="43.91518" lon="4.8928">
        <ele>32.816926</ele>
        <time>2021-09-17T06:18:28.000Z</time>
      </trkpt>
      <trkpt lat="43.91505" lon="4.89336">
        <ele>32.726001</ele>
        <time>2021-09-17T06:18:35.000Z</time>
      </trkpt>
      <trkpt lat="43.91492" lon="4.894">
        <ele>32.658871</ele>
        <time>2021-09-17T06:18:43.000Z</time>
      </trkpt>
      <trkpt lat="43.91482" lon="4.89464">
        <ele>32.592671</ele>
        <time>2021-09-17T06:18:51.000Z</time>
      </trkpt>
      <trkpt lat="43.91476" lon="4.89528">
        <ele>32.527477</ele>
        <time>2021-09-17T06:18:59.000Z</time>
      </trkpt>
      <trkpt lat="43.91475" lon="4.89553">
        <ele>32.564244</ele>
        <time>2021-09-17T06:19:02.000Z</time>
      </trkpt>
      <trkpt lat="43.91475" lon="4.89569">
        <ele>32.611387</ele>
        <time>2021-09-17T06:19:04.000Z</time>
      </trkpt>
      <trkpt lat="43.91477" lon="4.89575">
        <ele>32.631385</ele>
        <time>2021-09-17T06:19:06.000Z</time>
      </trkpt>
      <trkpt lat="43.91486" lon="4.89589">
        <ele>32.686227</ele>
        <time>2021-09-17T06:19:07.000Z</time>
      </trkpt>
      <trkpt lat="43.91496" lon="4.89593">
        <ele>32.728449</ele>
        <time>2021-09-17T06:19:10.000Z</time>
      </trkpt>
      <trkpt lat="43.91501" lon="4.89593">
        <ele>32.751736</ele>
        <time>2021-09-17T06:19:11.000Z</time>
      </trkpt>
      <trkpt lat="43.91528" lon="4.89592">
        <ele>32.859972</ele>
        <time>2021-09-17T06:19:16.000Z</time>
      </trkpt>
      <trkpt lat="43.91565" lon="4.89589">
        <ele>33.012156</ele>
        <time>2021-09-17T06:19:23.000Z</time>
      </trkpt>
      <trkpt lat="43.91605" lon="4.89591">
        <ele>33.17281</ele>
        <time>2021-09-17T06:19:31.000Z</time>
      </trkpt>
      <trkpt lat="43.91614" lon="4.89595">
        <ele>33.209795</ele>
        <time>2021-09-17T06:19:33.000Z</time>
      </trkpt>
      <trkpt lat="43.91622" lon="4.89601">
        <ele>33.246977</ele>
        <time>2021-09-17T06:19:35.000Z</time>
      </trkpt>
      <trkpt lat="43.91626" lon="4.89604">
        <ele>33.276397</ele>
        <time>2021-09-17T06:19:36.000Z</time>
      </trkpt>
      <trkpt lat="43.91635" lon="4.89611">
        <ele>33.339375</ele>
        <time>2021-09-17T06:19:38.000Z</time>
      </trkpt>
      <trkpt lat="43.91651" lon="4.89628">
        <ele>33.469206</ele>
        <time>2021-09-17T06:19:42.000Z</time>
      </trkpt>
      <trkpt lat="43.91669" lon="4.89662">
        <ele>33.660415</ele>
        <time>2021-09-17T06:19:48.000Z</time>
      </trkpt>
      <trkpt lat="43.91673" lon="4.89673">
        <ele>33.719951</ele>
        <time>2021-09-17T06:19:50.000Z</time>
      </trkpt>
      <trkpt lat="43.91676" lon="4.8969">
        <ele>33.799096</ele>
        <time>2021-09-17T06:19:53.000Z</time>
      </trkpt>
      <trkpt lat="43.91681" lon="4.8973">
        <ele>33.986559</ele>
        <time>2021-09-17T06:20:00.000Z</time>
      </trkpt>
      <trkpt lat="43.91681" lon="4.89778">
        <ele>34.202994</ele>
        <time>2021-09-17T06:20:06.000Z</time>
      </trkpt>
      <trkpt lat="43.91681" lon="4.89831">
        <ele>34.415978</ele>
        <time>2021-09-17T06:20:12.000Z</time>
      </trkpt>
      <trkpt lat="43.91688" lon="4.89873">
        <ele>34.506899</ele>
        <time>2021-09-17T06:20:18.000Z</time>
      </trkpt>
      <trkpt lat="43.91691" lon="4.89886">
        <ele>34.535068</ele>
        <time>2021-09-17T06:20:20.000Z</time>
      </trkpt>
      <trkpt lat="43.91703" lon="4.89908">
        <ele>34.592738</ele>
        <time>2021-09-17T06:20:24.000Z</time>
      </trkpt>
      <trkpt lat="43.91711" lon="4.89918">
        <ele>34.621231</ele>
        <time>2021-09-17T06:20:26.000Z</time>
      </trkpt>
      <trkpt lat="43.91719" lon="4.89925">
        <ele>34.648756</ele>
        <time>2021-09-17T06:20:28.000Z</time>
      </trkpt>
      <trkpt lat="43.91723" lon="4.89928">
        <ele>34.662435</ele>
        <time>2021-09-17T06:20:29.000Z</time>
      </trkpt>
      <trkpt lat="43.91756" lon="4.89942">
        <ele>34.76277</ele>
        <time>2021-09-17T06:20:36.000Z</time>
      </trkpt>
      <trkpt lat="43.91806" lon="4.89957">
        <ele>34.910021</ele>
        <time>2021-09-17T06:20:46.000Z</time>
      </trkpt>
      <trkpt lat="43.91847" lon="4.89964">
        <ele>35.081749</ele>
        <time>2021-09-17T06:20:54.000Z</time>
      </trkpt>
      <trkpt lat="43.91893" lon="4.89972">
        <ele>35.269679</ele>
        <time>2021-09-17T06:21:03.000Z</time>
      </trkpt>
      <trkpt lat="43.91939" lon="4.89979">
        <ele>35.462635</ele>
        <time>2021-09-17T06:21:12.000Z</time>
      </trkpt>
      <trkpt lat="43.91973" lon="4.89989">
        <ele>35.607293</ele>
        <time>2021-09-17T06:21:19.000Z</time>
      </trkpt>
      <trkpt lat="43.92012" lon="4.90007">
        <ele>35.894095</ele>
        <time>2021-09-17T06:21:27.000Z</time>
      </trkpt>
      <trkpt lat="43.92044" lon="4.90016">
        <ele>36.159492</ele>
        <time>2021-09-17T06:21:33.000Z</time>
      </trkpt>
      <trkpt lat="43.92071" lon="4.90023">
        <ele>36.382219</ele>
        <time>2021-09-17T06:21:38.000Z</time>
      </trkpt>
      <trkpt lat="43.92105" lon="4.90031">
        <ele>36.668144</ele>
        <time>2021-09-17T06:21:44.000Z</time>
      </trkpt>
      <trkpt lat="43.92146" lon="4.9004">
        <ele>37.007703</ele>
        <time>2021-09-17T06:21:51.000Z</time>
      </trkpt>
      <trkpt lat="43.92174" lon="4.90046">
        <ele>37.168904</ele>
        <time>2021-09-17T06:21:56.000Z</time>
      </trkpt>
      <trkpt lat="43.92213" lon="4.90054">
        <ele>37.305903</ele>
        <time>2021-09-17T06:22:03.000Z</time>
      </trkpt>
      <trkpt lat="43.92256" lon="4.90063">
        <ele>37.458543</ele>
        <time>2021-09-17T06:22:11.000Z</time>
      </trkpt>
      <trkpt lat="43.92262" lon="4.90064">
        <ele>37.476943</ele>
        <time>2021-09-17T06:22:12.000Z</time>
      </trkpt>
      <trkpt lat="43.92277" lon="4.90068">
        <ele>37.53249</ele>
        <time>2021-09-17T06:22:15.000Z</time>
      </trkpt>
      <trkpt lat="43.92319" lon="4.90082">
        <ele>37.683489</ele>
        <time>2021-09-17T06:22:23.000Z</time>
      </trkpt>
      <trkpt lat="43.92373" lon="4.90103">
        <ele>37.739907</ele>
        <time>2021-09-17T06:22:33.000Z</time>
      </trkpt>
      <trkpt lat="43.92378" lon="4.90105">
        <ele>37.739134</ele>
        <time>2021-09-17T06:22:34.000Z</time>
      </trkpt>
      <trkpt lat="43.92422" lon="4.90119">
        <ele>37.732844</ele>
        <time>2021-09-17T06:22:42.000Z</time>
      </trkpt>
      <trkpt lat="43.92471" lon="4.9013">
        <ele>37.725771</ele>
        <time>2021-09-17T06:22:51.000Z</time>
      </trkpt>
      <trkpt lat="43.92518" lon="4.90141">
        <ele>37.719281</ele>
        <time>2021-09-17T06:23:00.000Z</time>
      </trkpt>
      <trkpt lat="43.92569" lon="4.90152">
        <ele>37.713261</ele>
        <time>2021-09-17T06:23:10.000Z</time>
      </trkpt>
      <trkpt lat="43.9261" lon="4.90159">
        <ele>37.708556</ele>
        <time>2021-09-17T06:23:18.000Z</time>
      </trkpt>
      <trkpt lat="43.9264" lon="4.9016">
        <ele>37.705118</ele>
        <time>2021-09-17T06:23:24.000Z</time>
      </trkpt>
      <trkpt lat="43.92644" lon="4.9016">
        <ele>37.704575</ele>
        <time>2021-09-17T06:23:25.000Z</time>
      </trkpt>
      <trkpt lat="43.9265" lon="4.90174">
        <ele>37.703216</ele>
        <time>2021-09-17T06:23:27.000Z</time>
      </trkpt>
      <trkpt lat="43.92648" lon="4.9018">
        <ele>37.702687</ele>
        <time>2021-09-17T06:23:28.000Z</time>
      </trkpt>
      <trkpt lat="43.92628" lon="4.90226">
        <ele>37.678124</ele>
        <time>2021-09-17T06:23:35.000Z</time>
      </trkpt>
      <trkpt lat="43.92606" lon="4.90277">
        <ele>37.563444</ele>
        <time>2021-09-17T06:23:42.000Z</time>
      </trkpt>
      <trkpt lat="43.92578" lon="4.90341">
        <ele>37.422861</ele>
        <time>2021-09-17T06:23:50.000Z</time>
      </trkpt>
      <trkpt lat="43.92555" lon="4.90393">
        <ele>37.30737</ele>
        <time>2021-09-17T06:23:57.000Z</time>
      </trkpt>
      <trkpt lat="43.92529" lon="4.90452">
        <ele>37.257458</ele>
        <time>2021-09-17T06:24:05.000Z</time>
      </trkpt>
      <trkpt lat="43.92511" lon="4.90494">
        <ele>37.315271</ele>
        <time>2021-09-17T06:24:11.000Z</time>
      </trkpt>
      <trkpt lat="43.92497" lon="4.90526">
        <ele>37.359897</ele>
        <time>2021-09-17T06:24:16.000Z</time>
      </trkpt>
      <trkpt lat="43.92489" lon="4.90539">
        <ele>37.380699</ele>
        <time>2021-09-17T06:24:18.000Z</time>
      </trkpt>
      <trkpt lat="43.92484" lon="4.90539">
        <ele>37.388113</ele>
        <time>2021-09-17T06:24:19.000Z</time>
      </trkpt>
      <trkpt lat="43.9248" lon="4.90539">
        <ele>37.396021</ele>
        <time>2021-09-17T06:24:20.000Z</time>
      </trkpt>
      <trkpt lat="43.92459" lon="4.90538">
        <ele>37.430288</ele>
        <time>2021-09-17T06:24:24.000Z</time>
      </trkpt>
      <trkpt lat="43.92408" lon="4.90537">
        <ele>37.514603</ele>
        <time>2021-09-17T06:24:33.000Z</time>
      </trkpt>
      <trkpt lat="43.92348" lon="4.90537">
        <ele>37.54063</ele>
        <time>2021-09-17T06:24:43.000Z</time>
      </trkpt>
      <trkpt lat="43.92294" lon="4.90537">
        <ele>37.558626</ele>
        <time>2021-09-17T06:24:52.000Z</time>
      </trkpt>
      <trkpt lat="43.92239" lon="4.90537">
        <ele>37.57719</ele>
        <time>2021-09-17T06:25:01.000Z</time>
      </trkpt>
      <trkpt lat="43.92196" lon="4.90543">
        <ele>37.385724</ele>
        <time>2021-09-17T06:25:08.000Z</time>
      </trkpt>
      <trkpt lat="43.92154" lon="4.90553">
        <ele>37.088389</ele>
        <time>2021-09-17T06:25:15.000Z</time>
      </trkpt>
      <trkpt lat="43.92105" lon="4.90566">
        <ele>36.73068</ele>
        <time>2021-09-17T06:25:24.000Z</time>
      </trkpt>
      <trkpt lat="43.92059" lon="4.90578">
        <ele>36.396555</ele>
        <time>2021-09-17T06:25:32.000Z</time>
      </trkpt>
      <trkpt lat="43.92006" lon="4.90592">
        <ele>36.250866</ele>
        <time>2021-09-17T06:25:41.000Z</time>
      </trkpt>
      <trkpt lat="43.91959" lon="4.90604">
        <ele>36.191884</ele>
        <time>2021-09-17T06:25:49.000Z</time>
      </trkpt>
      <trkpt lat="43.91911" lon="4.90615">
        <ele>36.132313</ele>
        <time>2021-09-17T06:25:57.000Z</time>
      </trkpt>
      <trkpt lat="43.91856" lon="4.90627">
        <ele>36.050145</ele>
        <time>2021-09-17T06:26:06.000Z</time>
      </trkpt>
      <trkpt lat="43.9185" lon="4.90629">
        <ele>36.035888</ele>
        <time>2021-09-17T06:26:07.000Z</time>
      </trkpt>
      <trkpt lat="43.91797" lon="4.90642">
        <ele>35.909106</ele>
        <time>2021-09-17T06:26:16.000Z</time>
      </trkpt>
      <trkpt lat="43.91791" lon="4.90643">
        <ele>35.895772</ele>
        <time>2021-09-17T06:26:17.000Z</time>
      </trkpt>
      <trkpt lat="43.91786" lon="4.90644">
        <ele>35.882237</ele>
        <time>2021-09-17T06:26:18.000Z</time>
      </trkpt>
      <trkpt lat="43.91758" lon="4.90651">
        <ele>35.816089</ele>
        <time>2021-09-17T06:26:23.000Z</time>
      </trkpt>
      <trkpt lat="43.91752" lon="4.90652">
        <ele>35.803478</ele>
        <time>2021-09-17T06:26:24.000Z</time>
      </trkpt>
      <trkpt lat="43.91716" lon="4.90661">
        <ele>35.716436</ele>
        <time>2021-09-17T06:26:30.000Z</time>
      </trkpt>
      <trkpt lat="43.91705" lon="4.90664">
        <ele>35.690751</ele>
        <time>2021-09-17T06:26:32.000Z</time>
      </trkpt>
      <trkpt lat="43.91664" lon="4.90674">
        <ele>35.735587</ele>
        <time>2021-09-17T06:26:39.000Z</time>
      </trkpt>
      <trkpt lat="43.9162" lon="4.90684">
        <ele>35.862584</ele>
        <time>2021-09-17T06:26:47.000Z</time>
      </trkpt>
      <trkpt lat="43.91566" lon="4.90695">
        <ele>36.014519</ele>
        <time>2021-09-17T06:26:57.000Z</time>
      </trkpt>
      <trkpt lat="43.91561" lon="4.90696">
        <ele>36.029163</ele>
        <time>2021-09-17T06:26:58.000Z</time>
      </trkpt>
      <trkpt lat="43.91507" lon="4.90702">
        <ele>36.216385</ele>
        <time>2021-09-17T06:27:08.000Z</time>
      </trkpt>
      <trkpt lat="43.91451" lon="4.90708">
        <ele>36.713511</ele>
        <time>2021-09-17T06:27:18.000Z</time>
      </trkpt>
      <trkpt lat="43.91411" lon="4.90712">
        <ele>37.064652</ele>
        <time>2021-09-17T06:27:25.000Z</time>
      </trkpt>
      <trkpt lat="43.91377" lon="4.90715">
        <ele>37.366075</ele>
        <time>2021-09-17T06:27:31.000Z</time>
      </trkpt>
      <trkpt lat="43.91372" lon="4.90715">
        <ele>37.415535</ele>
        <time>2021-09-17T06:27:32.000Z</time>
      </trkpt>
      <trkpt lat="43.91338" lon="4.90712">
        <ele>37.711448</ele>
        <time>2021-09-17T06:27:38.000Z</time>
      </trkpt>
      <trkpt lat="43.91305" lon="4.9071">
        <ele>37.959882</ele>
        <time>2021-09-17T06:27:44.000Z</time>
      </trkpt>
      <trkpt lat="43.91294" lon="4.90709">
        <ele>38.04593</ele>
        <time>2021-09-17T06:27:46.000Z</time>
      </trkpt>
      <trkpt lat="43.91283" lon="4.90712">
        <ele>38.127302</ele>
        <time>2021-09-17T06:27:48.000Z</time>
      </trkpt>
      <trkpt lat="43.9127" lon="4.90729">
        <ele>38.257234</ele>
        <time>2021-09-17T06:27:51.000Z</time>
      </trkpt>
      <trkpt lat="43.91267" lon="4.90736">
        <ele>38.301019</ele>
        <time>2021-09-17T06:27:52.000Z</time>
      </trkpt>
      <trkpt lat="43.91253" lon="4.90771">
        <ele>38.517204</ele>
        <time>2021-09-17T06:27:57.000Z</time>
      </trkpt>
      <trkpt lat="43.91248" lon="4.90785">
        <ele>38.602176</ele>
        <time>2021-09-17T06:27:59.000Z</time>
      </trkpt>
      <trkpt lat="43.91232" lon="4.90833">
        <ele>38.884996</ele>
        <time>2021-09-17T06:28:06.000Z</time>
      </trkpt>
      <trkpt lat="43.91222" lon="4.90865">
        <ele>39.06807</ele>
        <time>2021-09-17T06:28:11.000Z</time>
      </trkpt>
      <trkpt lat="43.91204" lon="4.90923">
        <ele>39.650951</ele>
        <time>2021-09-17T06:28:20.000Z</time>
      </trkpt>
      <trkpt lat="43.9119" lon="4.90968">
        <ele>40.104437</ele>
        <time>2021-09-17T06:28:27.000Z</time>
      </trkpt>
      <trkpt lat="43.9117" lon="4.91022">
        <ele>40.672419</ele>
        <time>2021-09-17T06:28:36.000Z</time>
      </trkpt>
      <trkpt lat="43.91148" lon="4.91079">
        <ele>41.270779</ele>
        <time>2021-09-17T06:28:46.000Z</time>
      </trkpt>
      <trkpt lat="43.91134" lon="4.91113">
        <ele>41.955484</ele>
        <time>2021-09-17T06:28:54.000Z</time>
      </trkpt>
      <trkpt lat="43.91123" lon="4.91143">
        <ele>42.705772</ele>
        <time>2021-09-17T06:29:02.000Z</time>
      </trkpt>
      <trkpt lat="43.91111" lon="4.91173">
        <ele>43.479553</ele>
        <time>2021-09-17T06:29:10.000Z</time>
      </trkpt>
      <trkpt lat="43.91099" lon="4.91203">
        <ele>44.233268</ele>
        <time>2021-09-17T06:29:18.000Z</time>
      </trkpt>
      <trkpt lat="43.91089" lon="4.91232">
        <ele>44.958285</ele>
        <time>2021-09-17T06:29:26.000Z</time>
      </trkpt>
      <trkpt lat="43.9108" lon="4.91258">
        <ele>45.586125</ele>
        <time>2021-09-17T06:29:33.000Z</time>
      </trkpt>
      <trkpt lat="43.91071" lon="4.91284">
        <ele>46.218703</ele>
        <time>2021-09-17T06:29:40.000Z</time>
      </trkpt>
      <trkpt lat="43.91063" lon="4.9131">
        <ele>46.863362</ele>
        <time>2021-09-17T06:29:47.000Z</time>
      </trkpt>
      <trkpt lat="43.91054" lon="4.91346">
        <ele>47.432772</ele>
        <time>2021-09-17T06:29:56.000Z</time>
      </trkpt>
      <trkpt lat="43.91047" lon="4.91382">
        <ele>47.963372</ele>
        <time>2021-09-17T06:30:04.000Z</time>
      </trkpt>
      <trkpt lat="43.91039" lon="4.91419">
        <ele>48.510242</ele>
        <time>2021-09-17T06:30:11.000Z</time>
      </trkpt>
      <trkpt lat="43.91028" lon="4.91466">
        <ele>49.198798</ele>
        <time>2021-09-17T06:30:18.000Z</time>
      </trkpt>
      <trkpt lat="43.91017" lon="4.91516">
        <ele>49.929083</ele>
        <time>2021-09-17T06:30:25.000Z</time>
      </trkpt>
      <trkpt lat="43.91001" lon="4.91587">
        <ele>50.72816</ele>
        <time>2021-09-17T06:30:34.000Z</time>
      </trkpt>
      <trkpt lat="43.90987" lon="4.91652">
        <ele>51.199407</ele>
        <time>2021-09-17T06:30:42.000Z</time>
      </trkpt>
      <trkpt lat="43.90975" lon="4.91702">
        <ele>51.56732</ele>
        <time>2021-09-17T06:30:50.000Z</time>
      </trkpt>
      <trkpt lat="43.90958" lon="4.9175">
        <ele>51.942013</ele>
        <time>2021-09-17T06:30:57.000Z</time>
      </trkpt>
      <trkpt lat="43.90945" lon="4.91777">
        <ele>52.169792</ele>
        <time>2021-09-17T06:31:03.000Z</time>
      </trkpt>
      <trkpt lat="43.9093" lon="4.91806">
        <ele>52.926972</ele>
        <time>2021-09-17T06:31:10.000Z</time>
      </trkpt>
      <trkpt lat="43.90915" lon="4.91837">
        <ele>53.863816</ele>
        <time>2021-09-17T06:31:18.000Z</time>
      </trkpt>
      <trkpt lat="43.90902" lon="4.91862">
        <ele>54.632717</ele>
        <time>2021-09-17T06:31:25.000Z</time>
      </trkpt>
      <trkpt lat="43.90886" lon="4.9189">
        <ele>55.514974</ele>
        <time>2021-09-17T06:31:34.000Z</time>
      </trkpt>
      <trkpt lat="43.90878" lon="4.91905">
        <ele>55.975112</ele>
        <time>2021-09-17T06:31:39.000Z</time>
      </trkpt>
      <trkpt lat="43.90869" lon="4.91919">
        <ele>56.447358</ele>
        <time>2021-09-17T06:31:44.000Z</time>
      </trkpt>
      <trkpt lat="43.90861" lon="4.91933">
        <ele>56.903379</ele>
        <time>2021-09-17T06:31:49.000Z</time>
      </trkpt>
      <trkpt lat="43.9085" lon="4.91952">
        <ele>57.491144</ele>
        <time>2021-09-17T06:31:55.000Z</time>
      </trkpt>
      <trkpt lat="43.90842" lon="4.91967">
        <ele>57.973564</ele>
        <time>2021-09-17T06:32:00.000Z</time>
      </trkpt>
      <trkpt lat="43.90832" lon="4.91982">
        <ele>58.502179</ele>
        <time>2021-09-17T06:32:05.000Z</time>
      </trkpt>
      <trkpt lat="43.90821" lon="4.92002">
        <ele>59.557111</ele>
        <time>2021-09-17T06:32:11.000Z</time>
      </trkpt>
      <trkpt lat="43.90806" lon="4.9203">
        <ele>61.081408</ele>
        <time>2021-09-17T06:32:19.000Z</time>
      </trkpt>
      <trkpt lat="43.90793" lon="4.92058">
        <ele>62.529353</ele>
        <time>2021-09-17T06:32:28.000Z</time>
      </trkpt>
      <trkpt lat="43.90785" lon="4.92075">
        <ele>63.395077</ele>
        <time>2021-09-17T06:32:34.000Z</time>
      </trkpt>
      <trkpt lat="43.90779" lon="4.92089">
        <ele>64.095366</ele>
        <time>2021-09-17T06:32:39.000Z</time>
      </trkpt>
      <trkpt lat="43.90769" lon="4.9211">
        <ele>65.170375</ele>
        <time>2021-09-17T06:32:46.000Z</time>
      </trkpt>
      <trkpt lat="43.9076" lon="4.92131">
        <ele>66.21407</ele>
        <time>2021-09-17T06:32:53.000Z</time>
      </trkpt>
      <trkpt lat="43.90751" lon="4.92153">
        <ele>67.327795</ele>
        <time>2021-09-17T06:33:00.000Z</time>
      </trkpt>
      <trkpt lat="43.90742" lon="4.92175">
        <ele>68.399773</ele>
        <time>2021-09-17T06:33:07.000Z</time>
      </trkpt>
      <trkpt lat="43.90734" lon="4.92201">
        <ele>69.685604</ele>
        <time>2021-09-17T06:33:15.000Z</time>
      </trkpt>
      <trkpt lat="43.90733" lon="4.92205">
        <ele>69.860601</ele>
        <time>2021-09-17T06:33:16.000Z</time>
      </trkpt>
      <trkpt lat="43.9073" lon="4.92215">
        <ele>70.399823</ele>
        <time>2021-09-17T06:33:19.000Z</time>
      </trkpt>
      <trkpt lat="43.90722" lon="4.92243">
        <ele>71.88908</ele>
        <time>2021-09-17T06:33:27.000Z</time>
      </trkpt>
      <trkpt lat="43.90714" lon="4.92271">
        <ele>73.399317</ele>
        <time>2021-09-17T06:33:35.000Z</time>
      </trkpt>
      <trkpt lat="43.90707" lon="4.92296">
        <ele>74.727432</ele>
        <time>2021-09-17T06:33:42.000Z</time>
      </trkpt>
      <trkpt lat="43.907" lon="4.92322">
        <ele>76.153765</ele>
        <time>2021-09-17T06:33:50.000Z</time>
      </trkpt>
      <trkpt lat="43.90692" lon="4.9235">
        <ele>77.605683</ele>
        <time>2021-09-17T06:33:58.000Z</time>
      </trkpt>
      <trkpt lat="43.90684" lon="4.92378">
        <ele>79.094948</ele>
        <time>2021-09-17T06:34:07.000Z</time>
      </trkpt>
      <trkpt lat="43.90679" lon="4.92395">
        <ele>80.016867</ele>
        <time>2021-09-17T06:34:13.000Z</time>
      </trkpt>
      <trkpt lat="43.90674" lon="4.92412">
        <ele>80.930159</ele>
        <time>2021-09-17T06:34:19.000Z</time>
      </trkpt>
      <trkpt lat="43.90667" lon="4.92428">
        <ele>82.091398</ele>
        <time>2021-09-17T06:34:26.000Z</time>
      </trkpt>
      <trkpt lat="43.90661" lon="4.92443">
        <ele>83.551692</ele>
        <time>2021-09-17T06:34:32.000Z</time>
      </trkpt>
      <trkpt lat="43.90654" lon="4.92459">
        <ele>85.158304</ele>
        <time>2021-09-17T06:34:39.000Z</time>
      </trkpt>
      <trkpt lat="43.90649" lon="4.92471">
        <ele>86.340723</ele>
        <time>2021-09-17T06:34:44.000Z</time>
      </trkpt>
      <trkpt lat="43.90648" lon="4.92474">
        <ele>86.577207</ele>
        <time>2021-09-17T06:34:45.000Z</time>
      </trkpt>
      <trkpt lat="43.90645" lon="4.92481">
        <ele>87.251231</ele>
        <time>2021-09-17T06:34:48.000Z</time>
      </trkpt>
      <trkpt lat="43.9064" lon="4.92492">
        <ele>88.377505</ele>
        <time>2021-09-17T06:34:53.000Z</time>
      </trkpt>
      <trkpt lat="43.90635" lon="4.92504">
        <ele>89.6087</ele>
        <time>2021-09-17T06:34:59.000Z</time>
      </trkpt>
      <trkpt lat="43.9063" lon="4.92518">
        <ele>90.916755</ele>
        <time>2021-09-17T06:35:05.000Z</time>
      </trkpt>
      <trkpt lat="43.90623" lon="4.92533">
        <ele>92.43916</ele>
        <time>2021-09-17T06:35:12.000Z</time>
      </trkpt>
      <trkpt lat="43.90622" lon="4.92535">
        <ele>92.647582</ele>
        <time>2021-09-17T06:35:13.000Z</time>
      </trkpt>
      <trkpt lat="43.90616" lon="4.92551">
        <ele>94.184733</ele>
        <time>2021-09-17T06:35:21.000Z</time>
      </trkpt>
      <trkpt lat="43.90609" lon="4.92567">
        <ele>95.749966</ele>
        <time>2021-09-17T06:35:29.000Z</time>
      </trkpt>
      <trkpt lat="43.90603" lon="4.9258">
        <ele>97.084662</ele>
        <time>2021-09-17T06:35:36.000Z</time>
      </trkpt>
      <trkpt lat="43.90598" lon="4.92593">
        <ele>98.349887</ele>
        <time>2021-09-17T06:35:42.000Z</time>
      </trkpt>
      <trkpt lat="43.90593" lon="4.92605">
        <ele>99.539706</ele>
        <time>2021-09-17T06:35:48.000Z</time>
      </trkpt>
      <trkpt lat="43.90586" lon="4.92621">
        <ele>101.076863</ele>
        <time>2021-09-17T06:35:56.000Z</time>
      </trkpt>
      <trkpt lat="43.90581" lon="4.92634">
        <ele>102.390161</ele>
        <time>2021-09-17T06:36:03.000Z</time>
      </trkpt>
      <trkpt lat="43.90575" lon="4.92652">
        <ele>103.950307</ele>
        <time>2021-09-17T06:36:11.000Z</time>
      </trkpt>
      <trkpt lat="43.9057" lon="4.92664">
        <ele>105.043714</ele>
        <time>2021-09-17T06:36:17.000Z</time>
      </trkpt>
      <trkpt lat="43.90564" lon="4.92679">
        <ele>106.377545</ele>
        <time>2021-09-17T06:36:24.000Z</time>
      </trkpt>
      <trkpt lat="43.90559" lon="4.92694">
        <ele>107.655164</ele>
        <time>2021-09-17T06:36:31.000Z</time>
      </trkpt>
      <trkpt lat="43.90552" lon="4.9271">
        <ele>109.103274</ele>
        <time>2021-09-17T06:36:39.000Z</time>
      </trkpt>
      <trkpt lat="43.90547" lon="4.92721">
        <ele>110.097473</ele>
        <time>2021-09-17T06:36:44.000Z</time>
      </trkpt>
      <trkpt lat="43.90545" lon="4.92724">
        <ele>110.470597</ele>
        <time>2021-09-17T06:36:46.000Z</time>
      </trkpt>
      <trkpt lat="43.90537" lon="4.92736">
        <ele>111.722527</ele>
        <time>2021-09-17T06:36:53.000Z</time>
      </trkpt>
      <trkpt lat="43.90531" lon="4.92747">
        <ele>112.75851</ele>
        <time>2021-09-17T06:36:59.000Z</time>
      </trkpt>
      <trkpt lat="43.9052" lon="4.92763">
        <ele>114.42107</ele>
        <time>2021-09-17T06:37:08.000Z</time>
      </trkpt>
      <trkpt lat="43.90513" lon="4.92775">
        <ele>115.697586</ele>
        <time>2021-09-17T06:37:15.000Z</time>
      </trkpt>
      <trkpt lat="43.90504" lon="4.92788">
        <ele>117.020055</ele>
        <time>2021-09-17T06:37:22.000Z</time>
      </trkpt>
      <trkpt lat="43.90499" lon="4.92793">
        <ele>117.710478</ele>
        <time>2021-09-17T06:37:26.000Z</time>
      </trkpt>
      <trkpt lat="43.90497" lon="4.92796">
        <ele>118.077941</ele>
        <time>2021-09-17T06:37:28.000Z</time>
      </trkpt>
      <trkpt lat="43.90489" lon="4.92804">
        <ele>119.109302</ele>
        <time>2021-09-17T06:37:33.000Z</time>
      </trkpt>
      <trkpt lat="43.90475" lon="4.92819">
        <ele>120.955146</ele>
        <time>2021-09-17T06:37:40.000Z</time>
      </trkpt>
      <trkpt lat="43.9046" lon="4.92835">
        <ele>122.224332</ele>
        <time>2021-09-17T06:37:47.000Z</time>
      </trkpt>
      <trkpt lat="43.9045" lon="4.92846">
        <ele>122.244473</ele>
        <time>2021-09-17T06:37:51.000Z</time>
      </trkpt>
      <trkpt lat="43.90431" lon="4.92866">
        <ele>122.282952</ele>
        <time>2021-09-17T06:37:57.000Z</time>
      </trkpt>
      <trkpt lat="43.90419" lon="4.92879">
        <ele>122.305598</ele>
        <time>2021-09-17T06:38:02.000Z</time>
      </trkpt>
      <trkpt lat="43.90405" lon="4.92894">
        <ele>122.33327</ele>
        <time>2021-09-17T06:38:06.000Z</time>
      </trkpt>
      <trkpt lat="43.90401" lon="4.92898">
        <ele>122.340925</ele>
        <time>2021-09-17T06:38:07.000Z</time>
      </trkpt>
      <trkpt lat="43.9038" lon="4.9292">
        <ele>122.382556</ele>
        <time>2021-09-17T06:38:11.000Z</time>
      </trkpt>
      <trkpt lat="43.90375" lon="4.92925">
        <ele>122.391698</ele>
        <time>2021-09-17T06:38:13.000Z</time>
      </trkpt>
      <trkpt lat="43.90347" lon="4.92957">
        <ele>122.449316</ele>
        <time>2021-09-17T06:38:19.000Z</time>
      </trkpt>
      <trkpt lat="43.90314" lon="4.93005">
        <ele>122.402238</ele>
        <time>2021-09-17T06:38:26.000Z</time>
      </trkpt>
      <trkpt lat="43.90276" lon="4.93062">
        <ele>122.125309</ele>
        <time>2021-09-17T06:38:34.000Z</time>
      </trkpt>
      <trkpt lat="43.90254" lon="4.93093">
        <ele>121.969476</ele>
        <time>2021-09-17T06:38:39.000Z</time>
      </trkpt>
      <trkpt lat="43.90219" lon="4.93141">
        <ele>121.725796</ele>
        <time>2021-09-17T06:38:47.000Z</time>
      </trkpt>
      <trkpt lat="43.90207" lon="4.93157">
        <ele>121.644083</ele>
        <time>2021-09-17T06:38:50.000Z</time>
      </trkpt>
      <trkpt lat="43.90199" lon="4.93167">
        <ele>121.627905</ele>
        <time>2021-09-17T06:38:52.000Z</time>
      </trkpt>
      <trkpt lat="43.90196" lon="4.93172">
        <ele>121.678371</ele>
        <time>2021-09-17T06:38:53.000Z</time>
      </trkpt>
      <trkpt lat="43.90174" lon="4.93201">
        <ele>121.975416</ele>
        <time>2021-09-17T06:38:59.000Z</time>
      </trkpt>
      <trkpt lat="43.90151" lon="4.93229">
        <ele>122.273741</ele>
        <time>2021-09-17T06:39:05.000Z</time>
      </trkpt>
      <trkpt lat="43.90147" lon="4.93233">
        <ele>122.31942</ele>
        <time>2021-09-17T06:39:06.000Z</time>
      </trkpt>
      <trkpt lat="43.9014" lon="4.93242">
        <ele>122.411791</ele>
        <time>2021-09-17T06:39:08.000Z</time>
      </trkpt>
      <trkpt lat="43.90133" lon="4.9325">
        <ele>122.500561</ele>
        <time>2021-09-17T06:39:10.000Z</time>
      </trkpt>
      <trkpt lat="43.9013" lon="4.93254">
        <ele>122.545319</ele>
        <time>2021-09-17T06:39:11.000Z</time>
      </trkpt>
      <trkpt lat="43.9011" lon="4.93278">
        <ele>122.804889</ele>
        <time>2021-09-17T06:39:17.000Z</time>
      </trkpt>
      <trkpt lat="43.9008" lon="4.93313">
        <ele>123.183821</ele>
        <time>2021-09-17T06:39:26.000Z</time>
      </trkpt>
      <trkpt lat="43.90054" lon="4.9334">
        <ele>123.197467</ele>
        <time>2021-09-17T06:39:33.000Z</time>
      </trkpt>
      <trkpt lat="43.90033" lon="4.93361">
        <ele>122.891096</ele>
        <time>2021-09-17T06:39:37.000Z</time>
      </trkpt>
      <trkpt lat="43.90027" lon="4.93367">
        <ele>122.80496</ele>
        <time>2021-09-17T06:39:38.000Z</time>
      </trkpt>
      <trkpt lat="43.90002" lon="4.934">
        <ele>122.409113</ele>
        <time>2021-09-17T06:39:42.000Z</time>
      </trkpt>
      <trkpt lat="43.89964" lon="4.93448">
        <ele>121.811797</ele>
        <time>2021-09-17T06:39:47.000Z</time>
      </trkpt>
      <trkpt lat="43.8994" lon="4.9348">
        <ele>121.429691</ele>
        <time>2021-09-17T06:39:50.000Z</time>
      </trkpt>
      <trkpt lat="43.89924" lon="4.93504">
        <ele>120.943677</ele>
        <time>2021-09-17T06:39:52.000Z</time>
      </trkpt>
      <trkpt lat="43.89895" lon="4.93561">
        <ele>119.340043</ele>
        <time>2021-09-17T06:39:56.000Z</time>
      </trkpt>
      <trkpt lat="43.89855" lon="4.93633">
        <ele>117.231017</ele>
        <time>2021-09-17T06:40:01.000Z</time>
      </trkpt>
      <trkpt lat="43.89847" lon="4.93648">
        <ele>116.795697</ele>
        <time>2021-09-17T06:40:02.000Z</time>
      </trkpt>
      <trkpt lat="43.89816" lon="4.9371">
        <ele>114.930961</ele>
        <time>2021-09-17T06:40:06.000Z</time>
      </trkpt>
      <trkpt lat="43.8978" lon="4.93784">
        <ele>112.355774</ele>
        <time>2021-09-17T06:40:11.000Z</time>
      </trkpt>
      <trkpt lat="43.89742" lon="4.93845">
        <ele>110.053118</ele>
        <time>2021-09-17T06:40:16.000Z</time>
      </trkpt>
      <trkpt lat="43.89694" lon="4.93916">
        <ele>107.029588</ele>
        <time>2021-09-17T06:40:22.000Z</time>
      </trkpt>
      <trkpt lat="43.89656" lon="4.9397">
        <ele>104.490931</ele>
        <time>2021-09-17T06:40:28.000Z</time>
      </trkpt>
      <trkpt lat="43.8965" lon="4.93979">
        <ele>104.084325</ele>
        <time>2021-09-17T06:40:29.000Z</time>
      </trkpt>
      <trkpt lat="43.89624" lon="4.94023">
        <ele>102.15111</ele>
        <time>2021-09-17T06:40:34.000Z</time>
      </trkpt>
      <trkpt lat="43.89609" lon="4.94061">
        <ele>100.685195</ele>
        <time>2021-09-17T06:40:39.000Z</time>
      </trkpt>
      <trkpt lat="43.89605" lon="4.94071">
        <ele>100.320576</ele>
        <time>2021-09-17T06:40:40.000Z</time>
      </trkpt>
      <trkpt lat="43.8959" lon="4.94132">
        <ele>97.938233</ele>
        <time>2021-09-17T06:40:46.000Z</time>
      </trkpt>
      <trkpt lat="43.89572" lon="4.94179">
        <ele>95.957194</ele>
        <time>2021-09-17T06:40:51.000Z</time>
      </trkpt>
      <trkpt lat="43.8954" lon="4.94236">
        <ele>93.222777</ele>
        <time>2021-09-17T06:40:57.000Z</time>
      </trkpt>
      <trkpt lat="43.89508" lon="4.94278">
        <ele>90.958911</ele>
        <time>2021-09-17T06:41:02.000Z</time>
      </trkpt>
      <trkpt lat="43.89494" lon="4.94292">
        <ele>89.770178</ele>
        <time>2021-09-17T06:41:04.000Z</time>
      </trkpt>
      <trkpt lat="43.89479" lon="4.94305">
        <ele>88.319682</ele>
        <time>2021-09-17T06:41:06.000Z</time>
      </trkpt>
      <trkpt lat="43.89449" lon="4.94321">
        <ele>85.57636</ele>
        <time>2021-09-17T06:41:10.000Z</time>
      </trkpt>
      <trkpt lat="43.8942" lon="4.94336">
        <ele>82.983971</ele>
        <time>2021-09-17T06:41:15.000Z</time>
      </trkpt>
      <trkpt lat="43.8941" lon="4.94341">
        <ele>82.049998</ele>
        <time>2021-09-17T06:41:17.000Z</time>
      </trkpt>
      <trkpt lat="43.89393" lon="4.94353">
        <ele>80.494723</ele>
        <time>2021-09-17T06:41:20.000Z</time>
      </trkpt>
      <trkpt lat="43.89388" lon="4.94358">
        <ele>79.979637</ele>
        <time>2021-09-17T06:41:21.000Z</time>
      </trkpt>
      <trkpt lat="43.89376" lon="4.94373">
        <ele>78.585923</ele>
        <time>2021-09-17T06:41:24.000Z</time>
      </trkpt>
      <trkpt lat="43.89363" lon="4.94394">
        <ele>76.933033</ele>
        <time>2021-09-17T06:41:28.000Z</time>
      </trkpt>
      <trkpt lat="43.89361" lon="4.94399">
        <ele>76.58265</ele>
        <time>2021-09-17T06:41:29.000Z</time>
      </trkpt>
      <trkpt lat="43.89338" lon="4.94408">
        <ele>74.664197</ele>
        <time>2021-09-17T06:41:34.000Z</time>
      </trkpt>
      <trkpt lat="43.8931" lon="4.94411">
        <ele>72.533149</ele>
        <time>2021-09-17T06:41:40.000Z</time>
      </trkpt>
      <trkpt lat="43.89303" lon="4.94411">
        <ele>71.924916</ele>
        <time>2021-09-17T06:41:44.000Z</time>
      </trkpt>
      <trkpt lat="43.89299" lon="4.94411">
        <ele>71.686242</ele>
        <time>2021-09-17T06:41:48.000Z</time>
      </trkpt>
      <trkpt lat="43.89296" lon="4.94411">
        <ele>71.401374</ele>
        <time>2021-09-17T06:41:51.000Z</time>
      </trkpt>
      <trkpt lat="43.8929" lon="4.94411">
        <ele>70.947124</ele>
        <time>2021-09-17T06:41:54.000Z</time>
      </trkpt>
      <trkpt lat="43.89286" lon="4.94414">
        <ele>70.633904</ele>
        <time>2021-09-17T06:41:56.000Z</time>
      </trkpt>
      <trkpt lat="43.89284" lon="4.94429">
        <ele>69.754542</ele>
        <time>2021-09-17T06:42:00.000Z</time>
      </trkpt>
      <trkpt lat="43.89282" lon="4.94439">
        <ele>69.159265</ele>
        <time>2021-09-17T06:42:02.000Z</time>
      </trkpt>
      <trkpt lat="43.89279" lon="4.94457">
        <ele>68.186322</ele>
        <time>2021-09-17T06:42:05.000Z</time>
      </trkpt>
      <trkpt lat="43.89276" lon="4.94474">
        <ele>67.206243</ele>
        <time>2021-09-17T06:42:08.000Z</time>
      </trkpt>
      <trkpt lat="43.89276" lon="4.94492">
        <ele>66.201881</ele>
        <time>2021-09-17T06:42:11.000Z</time>
      </trkpt>
      <trkpt lat="43.89279" lon="4.94518">
        <ele>64.74879</ele>
        <time>2021-09-17T06:42:16.000Z</time>
      </trkpt>
      <trkpt lat="43.89281" lon="4.94534">
        <ele>63.855945</ele>
        <time>2021-09-17T06:42:21.000Z</time>
      </trkpt>
      <trkpt lat="43.89284" lon="4.94559">
        <ele>62.426594</ele>
        <time>2021-09-17T06:42:26.000Z</time>
      </trkpt>
      <trkpt lat="43.8929" lon="4.94597">
        <ele>61.212432</ele>
        <time>2021-09-17T06:42:32.000Z</time>
      </trkpt>
      <trkpt lat="43.89298" lon="4.94657">
        <ele>60.32429</ele>
        <time>2021-09-17T06:42:41.000Z</time>
      </trkpt>
      <trkpt lat="43.89305" lon="4.94704">
        <ele>59.626786</ele>
        <time>2021-09-17T06:42:48.000Z</time>
      </trkpt>
      <trkpt lat="43.89309" lon="4.94716">
        <ele>59.43184</ele>
        <time>2021-09-17T06:42:50.000Z</time>
      </trkpt>
      <trkpt lat="43.89314" lon="4.94728">
        <ele>59.227241</ele>
        <time>2021-09-17T06:42:52.000Z</time>
      </trkpt>
      <trkpt lat="43.89317" lon="4.94735">
        <ele>59.11885</ele>
        <time>2021-09-17T06:42:53.000Z</time>
      </trkpt>
      <trkpt lat="43.89318" lon="4.94742">
        <ele>59.016861</ele>
        <time>2021-09-17T06:42:54.000Z</time>
      </trkpt>
      <trkpt lat="43.8932" lon="4.94763">
        <ele>58.710878</ele>
        <time>2021-09-17T06:42:57.000Z</time>
      </trkpt>
      <trkpt lat="43.89319" lon="4.94784">
        <ele>58.403196</ele>
        <time>2021-09-17T06:43:01.000Z</time>
      </trkpt>
      <trkpt lat="43.89318" lon="4.94789">
        <ele>58.320574</ele>
        <time>2021-09-17T06:43:05.000Z</time>
      </trkpt>
      <trkpt lat="43.89316" lon="4.94805">
        <ele>58.088688</ele>
        <time>2021-09-17T06:43:10.000Z</time>
      </trkpt>
      <trkpt lat="43.89312" lon="4.94818">
        <ele>57.895404</ele>
        <time>2021-09-17T06:43:14.000Z</time>
      </trkpt>
      <trkpt lat="43.89306" lon="4.94838">
        <ele>57.721271</ele>
        <time>2021-09-17T06:43:18.000Z</time>
      </trkpt>
      <trkpt lat="43.89305" lon="4.94849">
        <ele>57.621181</ele>
        <time>2021-09-17T06:43:20.000Z</time>
      </trkpt>
      <trkpt lat="43.89303" lon="4.94868">
        <ele>57.46135</ele>
        <time>2021-09-17T06:43:23.000Z</time>
      </trkpt>
      <trkpt lat="43.89296" lon="4.94916">
        <ele>57.044548</ele>
        <time>2021-09-17T06:43:30.000Z</time>
      </trkpt>
      <trkpt lat="43.89295" lon="4.94939">
        <ele>56.853174</ele>
        <time>2021-09-17T06:43:33.000Z</time>
      </trkpt>
      <trkpt lat="43.89291" lon="4.94961">
        <ele>56.658331</ele>
        <time>2021-09-17T06:43:36.000Z</time>
      </trkpt>
      <trkpt lat="43.89282" lon="4.95017">
        <ele>56.17818</ele>
        <time>2021-09-17T06:43:43.000Z</time>
      </trkpt>
      <trkpt lat="43.89274" lon="4.95053">
        <ele>55.852408</ele>
        <time>2021-09-17T06:43:49.000Z</time>
      </trkpt>
      <trkpt lat="43.89254" lon="4.95109">
        <ele>55.668656</ele>
        <time>2021-09-17T06:43:53.000Z</time>
      </trkpt>
      <trkpt lat="43.8925" lon="4.95124">
        <ele>55.628467</ele>
        <time>2021-09-17T06:43:55.000Z</time>
      </trkpt>
      <trkpt lat="43.89229" lon="4.95186">
        <ele>55.465846</ele>
        <time>2021-09-17T06:44:03.000Z</time>
      </trkpt>
      <trkpt lat="43.89214" lon="4.95229">
        <ele>55.349149</ele>
        <time>2021-09-17T06:44:09.000Z</time>
      </trkpt>
      <trkpt lat="43.89212" lon="4.95237">
        <ele>55.327975</ele>
        <time>2021-09-17T06:44:10.000Z</time>
      </trkpt>
      <trkpt lat="43.89196" lon="4.95289">
        <ele>55.182307</ele>
        <time>2021-09-17T06:44:17.000Z</time>
      </trkpt>
      <trkpt lat="43.89175" lon="4.95344">
        <ele>54.893191</ele>
        <time>2021-09-17T06:44:25.000Z</time>
      </trkpt>
      <trkpt lat="43.89156" lon="4.95391">
        <ele>54.644492</ele>
        <time>2021-09-17T06:44:32.000Z</time>
      </trkpt>
      <trkpt lat="43.8914" lon="4.95432">
        <ele>54.425468</ele>
        <time>2021-09-17T06:44:38.000Z</time>
      </trkpt>
      <trkpt lat="43.89127" lon="4.95453">
        <ele>54.299083</ele>
        <time>2021-09-17T06:44:41.000Z</time>
      </trkpt>
      <trkpt lat="43.89126" lon="4.95455">
        <ele>54.287788</ele>
        <time>2021-09-17T06:44:44.000Z</time>
      </trkpt>
      <trkpt lat="43.89112" lon="4.95456">
        <ele>54.197525</ele>
        <time>2021-09-17T06:44:48.000Z</time>
      </trkpt>
      <trkpt lat="43.89101" lon="4.95453">
        <ele>54.125884</ele>
        <time>2021-09-17T06:44:53.000Z</time>
      </trkpt>
      <trkpt lat="43.891" lon="4.95453">
        <ele>54.115324</ele>
        <time>2021-09-17T06:44:55.000Z</time>
      </trkpt>
      <trkpt lat="43.89102" lon="4.95461">
        <ele>54.075357</ele>
        <time>2021-09-17T06:44:56.000Z</time>
      </trkpt>
      <trkpt lat="43.89103" lon="4.95454">
        <ele>54.045112</ele>
        <time>2021-09-17T06:44:59.000Z</time>
      </trkpt>
      <trkpt lat="43.89106" lon="4.95455">
        <ele>54.038722</ele>
        <time>2021-09-17T06:45:42.000Z</time>
      </trkpt>
      <trkpt lat="43.89108" lon="4.95455">
        <ele>54.036053</ele>
        <time>2021-09-17T06:45:43.000Z</time>
      </trkpt>
      <trkpt lat="43.89118" lon="4.95458">
        <ele>54.01683</ele>
        <time>2021-09-17T06:45:48.000Z</time>
      </trkpt>
      <trkpt lat="43.89125" lon="4.95467">
        <ele>53.998985</ele>
        <time>2021-09-17T06:45:53.000Z</time>
      </trkpt>
      <trkpt lat="43.89115" lon="4.95487">
        <ele>53.966812</ele>
        <time>2021-09-17T06:45:57.000Z</time>
      </trkpt>
      <trkpt lat="43.89101" lon="4.95527">
        <ele>53.907475</ele>
        <time>2021-09-17T06:46:04.000Z</time>
      </trkpt>
      <trkpt lat="43.89085" lon="4.95569">
        <ele>53.843794</ele>
        <time>2021-09-17T06:46:11.000Z</time>
      </trkpt>
      <trkpt lat="43.89074" lon="4.956">
        <ele>53.7979</ele>
        <time>2021-09-17T06:46:16.000Z</time>
      </trkpt>
      <trkpt lat="43.8907" lon="4.95612">
        <ele>53.78047</ele>
        <time>2021-09-17T06:46:18.000Z</time>
      </trkpt>
      <trkpt lat="43.89053" lon="4.95638">
        <ele>53.733809</ele>
        <time>2021-09-17T06:46:24.000Z</time>
      </trkpt>
      <trkpt lat="43.89047" lon="4.95656">
        <ele>53.70386</ele>
        <time>2021-09-17T06:46:27.000Z</time>
      </trkpt>
      <trkpt lat="43.89042" lon="4.95676">
        <ele>53.659671</ele>
        <time>2021-09-17T06:46:29.000Z</time>
      </trkpt>
      <trkpt lat="43.8903" lon="4.95716">
        <ele>53.569991</ele>
        <time>2021-09-17T06:46:35.000Z</time>
      </trkpt>
      <trkpt lat="43.89006" lon="4.95778">
        <ele>53.421277</ele>
        <time>2021-09-17T06:46:44.000Z</time>
      </trkpt>
      <trkpt lat="43.88984" lon="4.95837">
        <ele>53.283783</ele>
        <time>2021-09-17T06:46:52.000Z</time>
      </trkpt>
      <trkpt lat="43.88966" lon="4.95896">
        <ele>53.151955</ele>
        <time>2021-09-17T06:47:00.000Z</time>
      </trkpt>
      <trkpt lat="43.88963" lon="4.95903">
        <ele>53.137181</ele>
        <time>2021-09-17T06:47:01.000Z</time>
      </trkpt>
      <trkpt lat="43.88954" lon="4.95921">
        <ele>53.092994</ele>
        <time>2021-09-17T06:47:04.000Z</time>
      </trkpt>
      <trkpt lat="43.88952" lon="4.95928">
        <ele>53.078906</ele>
        <time>2021-09-17T06:47:05.000Z</time>
      </trkpt>
      <trkpt lat="43.88938" lon="4.9597">
        <ele>52.989632</ele>
        <time>2021-09-17T06:47:11.000Z</time>
      </trkpt>
      <trkpt lat="43.88919" lon="4.9602">
        <ele>52.879103</ele>
        <time>2021-09-17T06:47:18.000Z</time>
      </trkpt>
      <trkpt lat="43.8889" lon="4.96093">
        <ele>52.718679</ele>
        <time>2021-09-17T06:47:28.000Z</time>
      </trkpt>
      <trkpt lat="43.88888" lon="4.96101">
        <ele>52.709316</ele>
        <time>2021-09-17T06:47:29.000Z</time>
      </trkpt>
      <trkpt lat="43.88868" lon="4.96153">
        <ele>52.724276</ele>
        <time>2021-09-17T06:47:36.000Z</time>
      </trkpt>
      <trkpt lat="43.88866" lon="4.9616">
        <ele>52.72638</ele>
        <time>2021-09-17T06:47:37.000Z</time>
      </trkpt>
      <trkpt lat="43.8886" lon="4.96174">
        <ele>52.73052</ele>
        <time>2021-09-17T06:47:39.000Z</time>
      </trkpt>
      <trkpt lat="43.88855" lon="4.96189">
        <ele>52.734643</ele>
        <time>2021-09-17T06:47:41.000Z</time>
      </trkpt>
      <trkpt lat="43.88841" lon="4.96225">
        <ele>52.745122</ele>
        <time>2021-09-17T06:47:46.000Z</time>
      </trkpt>
      <trkpt lat="43.88838" lon="4.96232">
        <ele>52.747282</ele>
        <time>2021-09-17T06:47:47.000Z</time>
      </trkpt>
      <trkpt lat="43.88825" lon="4.96266">
        <ele>52.757157</ele>
        <time>2021-09-17T06:47:52.000Z</time>
      </trkpt>
      <trkpt lat="43.88822" lon="4.96273">
        <ele>52.759188</ele>
        <time>2021-09-17T06:47:53.000Z</time>
      </trkpt>
      <trkpt lat="43.88814" lon="4.96296">
        <ele>52.765721</ele>
        <time>2021-09-17T06:47:57.000Z</time>
      </trkpt>
      <trkpt lat="43.88792" lon="4.96347">
        <ele>52.868189</ele>
        <time>2021-09-17T06:48:03.000Z</time>
      </trkpt>
      <trkpt lat="43.88789" lon="4.96354">
        <ele>52.892372</ele>
        <time>2021-09-17T06:48:04.000Z</time>
      </trkpt>
      <trkpt lat="43.8876" lon="4.96409">
        <ele>53.090108</ele>
        <time>2021-09-17T06:48:12.000Z</time>
      </trkpt>
      <trkpt lat="43.88737" lon="4.96448">
        <ele>53.233566</ele>
        <time>2021-09-17T06:48:18.000Z</time>
      </trkpt>
      <trkpt lat="43.88708" lon="4.96497">
        <ele>53.419282</ele>
        <time>2021-09-17T06:48:26.000Z</time>
      </trkpt>
      <trkpt lat="43.88679" lon="4.96546">
        <ele>53.549231</ele>
        <time>2021-09-17T06:48:34.000Z</time>
      </trkpt>
      <trkpt lat="43.88675" lon="4.96552">
        <ele>53.561172</ele>
        <time>2021-09-17T06:48:35.000Z</time>
      </trkpt>
      <trkpt lat="43.88656" lon="4.96584">
        <ele>53.622275</ele>
        <time>2021-09-17T06:48:40.000Z</time>
      </trkpt>
      <trkpt lat="43.8863" lon="4.96628">
        <ele>53.707837</ele>
        <time>2021-09-17T06:48:47.000Z</time>
      </trkpt>
      <trkpt lat="43.88601" lon="4.96678">
        <ele>53.804218</ele>
        <time>2021-09-17T06:48:55.000Z</time>
      </trkpt>
      <trkpt lat="43.88594" lon="4.96691">
        <ele>53.829255</ele>
        <time>2021-09-17T06:48:57.000Z</time>
      </trkpt>
      <trkpt lat="43.88585" lon="4.96698">
        <ele>53.850409</ele>
        <time>2021-09-17T06:48:59.000Z</time>
      </trkpt>
      <trkpt lat="43.88569" lon="4.96702">
        <ele>53.891694</ele>
        <time>2021-09-17T06:49:02.000Z</time>
      </trkpt>
      <trkpt lat="43.88564" lon="4.96705">
        <ele>53.909601</ele>
        <time>2021-09-17T06:49:03.000Z</time>
      </trkpt>
      <trkpt lat="43.8856" lon="4.96711">
        <ele>53.92586</ele>
        <time>2021-09-17T06:49:04.000Z</time>
      </trkpt>
      <trkpt lat="43.88556" lon="4.96725">
        <ele>53.959926</ele>
        <time>2021-09-17T06:49:06.000Z</time>
      </trkpt>
      <trkpt lat="43.88553" lon="4.96757">
        <ele>54.028163</ele>
        <time>2021-09-17T06:49:10.000Z</time>
      </trkpt>
      <trkpt lat="43.8855" lon="4.96764">
        <ele>54.046551</ele>
        <time>2021-09-17T06:49:11.000Z</time>
      </trkpt>
      <trkpt lat="43.88531" lon="4.96796">
        <ele>54.135491</ele>
        <time>2021-09-17T06:49:16.000Z</time>
      </trkpt>
      <trkpt lat="43.88527" lon="4.96803">
        <ele>54.152799</ele>
        <time>2021-09-17T06:49:17.000Z</time>
      </trkpt>
      <trkpt lat="43.88506" lon="4.9684">
        <ele>54.254966</ele>
        <time>2021-09-17T06:49:23.000Z</time>
      </trkpt>
      <trkpt lat="43.88474" lon="4.96896">
        <ele>54.410984</ele>
        <time>2021-09-17T06:49:32.000Z</time>
      </trkpt>
      <trkpt lat="43.8845" lon="4.96936">
        <ele>54.58932</ele>
        <time>2021-09-17T06:49:39.000Z</time>
      </trkpt>
      <trkpt lat="43.88421" lon="4.96963">
        <ele>54.755881</ele>
        <time>2021-09-17T06:49:46.000Z</time>
      </trkpt>
      <trkpt lat="43.88408" lon="4.96981">
        <ele>54.841242</ele>
        <time>2021-09-17T06:49:51.000Z</time>
      </trkpt>
      <trkpt lat="43.88408" lon="4.96988">
        <ele>54.865782</ele>
        <time>2021-09-17T06:49:52.000Z</time>
      </trkpt>
      <trkpt lat="43.8841" lon="4.97">
        <ele>54.90713</ele>
        <time>2021-09-17T06:49:54.000Z</time>
      </trkpt>
      <trkpt lat="43.88412" lon="4.97006">
        <ele>54.928471</ele>
        <time>2021-09-17T06:49:55.000Z</time>
      </trkpt>
      <trkpt lat="43.88419" lon="4.9703">
        <ele>55.016222</ele>
        <time>2021-09-17T06:49:59.000Z</time>
      </trkpt>
      <trkpt lat="43.8842" lon="4.97053">
        <ele>55.096591</ele>
        <time>2021-09-17T06:50:03.000Z</time>
      </trkpt>
      <trkpt lat="43.88419" lon="4.97065">
        <ele>55.134847</ele>
        <time>2021-09-17T06:50:05.000Z</time>
      </trkpt>
      <trkpt lat="43.88414" lon="4.97093">
        <ele>55.235929</ele>
        <time>2021-09-17T06:50:11.000Z</time>
      </trkpt>
      <trkpt lat="43.88405" lon="4.97123">
        <ele>55.411545</ele>
        <time>2021-09-17T06:50:19.000Z</time>
      </trkpt>
      <trkpt lat="43.88394" lon="4.97152">
        <ele>55.607707</ele>
        <time>2021-09-17T06:50:27.000Z</time>
      </trkpt>
      <trkpt lat="43.88383" lon="4.97181">
        <ele>55.802318</ele>
        <time>2021-09-17T06:50:34.000Z</time>
      </trkpt>
      <trkpt lat="43.88371" lon="4.97214">
        <ele>56.017026</ele>
        <time>2021-09-17T06:50:40.000Z</time>
      </trkpt>
      <trkpt lat="43.88361" lon="4.97256">
        <ele>56.280594</ele>
        <time>2021-09-17T06:50:46.000Z</time>
      </trkpt>
      <trkpt lat="43.88347" lon="4.97315">
        <ele>56.650586</ele>
        <time>2021-09-17T06:50:53.000Z</time>
      </trkpt>
      <trkpt lat="43.8834" lon="4.9734">
        <ele>56.742138</ele>
        <time>2021-09-17T06:50:56.000Z</time>
      </trkpt>
      <trkpt lat="43.88334" lon="4.97365">
        <ele>56.754647</ele>
        <time>2021-09-17T06:50:59.000Z</time>
      </trkpt>
      <trkpt lat="43.88331" lon="4.97373">
        <ele>56.758595</ele>
        <time>2021-09-17T06:51:00.000Z</time>
      </trkpt>
      <trkpt lat="43.88317" lon="4.9741">
        <ele>56.77836</ele>
        <time>2021-09-17T06:51:05.000Z</time>
      </trkpt>
      <trkpt lat="43.88294" lon="4.9746">
        <ele>56.805574</ele>
        <time>2021-09-17T06:51:12.000Z</time>
      </trkpt>
      <trkpt lat="43.88274" lon="4.9751">
        <ele>56.832636</ele>
        <time>2021-09-17T06:51:19.000Z</time>
      </trkpt>
      <trkpt lat="43.88246" lon="4.97569">
        <ele>56.884192</ele>
        <time>2021-09-17T06:51:27.000Z</time>
      </trkpt>
      <trkpt lat="43.88218" lon="4.97618">
        <ele>56.956317</ele>
        <time>2021-09-17T06:51:34.000Z</time>
      </trkpt>
      <trkpt lat="43.88181" lon="4.97667">
        <ele>57.036725</ele>
        <time>2021-09-17T06:51:42.000Z</time>
      </trkpt>
      <trkpt lat="43.88134" lon="4.97714">
        <ele>57.129818</ele>
        <time>2021-09-17T06:51:51.000Z</time>
      </trkpt>
      <trkpt lat="43.8809" lon="4.97748">
        <ele>57.190939</ele>
        <time>2021-09-17T06:51:59.000Z</time>
      </trkpt>
      <trkpt lat="43.88038" lon="4.97781">
        <ele>57.257897</ele>
        <time>2021-09-17T06:52:08.000Z</time>
      </trkpt>
      <trkpt lat="43.88033" lon="4.97784">
        <ele>57.265217</ele>
        <time>2021-09-17T06:52:09.000Z</time>
      </trkpt>
      <trkpt lat="43.8798" lon="4.97812">
        <ele>57.331192</ele>
        <time>2021-09-17T06:52:18.000Z</time>
      </trkpt>
      <trkpt lat="43.87935" lon="4.97837">
        <ele>57.45307</ele>
        <time>2021-09-17T06:52:26.000Z</time>
      </trkpt>
      <trkpt lat="43.8789" lon="4.97868">
        <ele>57.609203</ele>
        <time>2021-09-17T06:52:34.000Z</time>
      </trkpt>
      <trkpt lat="43.87841" lon="4.97911">
        <ele>57.791083</ele>
        <time>2021-09-17T06:52:43.000Z</time>
      </trkpt>
      <trkpt lat="43.87836" lon="4.97916">
        <ele>57.811744</ele>
        <time>2021-09-17T06:52:44.000Z</time>
      </trkpt>
      <trkpt lat="43.87797" lon="4.97956">
        <ele>57.978071</ele>
        <time>2021-09-17T06:52:51.000Z</time>
      </trkpt>
      <trkpt lat="43.87754" lon="4.98002">
        <ele>58.200888</ele>
        <time>2021-09-17T06:52:59.000Z</time>
      </trkpt>
      <trkpt lat="43.87748" lon="4.98007">
        <ele>58.229095</ele>
        <time>2021-09-17T06:53:00.000Z</time>
      </trkpt>
      <trkpt lat="43.87701" lon="4.98057">
        <ele>58.471567</ele>
        <time>2021-09-17T06:53:09.000Z</time>
      </trkpt>
      <trkpt lat="43.87696" lon="4.98063">
        <ele>58.498265</ele>
        <time>2021-09-17T06:53:10.000Z</time>
      </trkpt>
      <trkpt lat="43.87648" lon="4.98113">
        <ele>58.747777</ele>
        <time>2021-09-17T06:53:19.000Z</time>
      </trkpt>
      <trkpt lat="43.87611" lon="4.98152">
        <ele>58.951322</ele>
        <time>2021-09-17T06:53:26.000Z</time>
      </trkpt>
      <trkpt lat="43.87564" lon="4.98201">
        <ele>59.210005</ele>
        <time>2021-09-17T06:53:35.000Z</time>
      </trkpt>
      <trkpt lat="43.87553" lon="4.98211">
        <ele>59.26541</ele>
        <time>2021-09-17T06:53:37.000Z</time>
      </trkpt>
      <trkpt lat="43.87518" lon="4.98248">
        <ele>59.45176</ele>
        <time>2021-09-17T06:53:44.000Z</time>
      </trkpt>
      <trkpt lat="43.87477" lon="4.9829">
        <ele>59.591387</ele>
        <time>2021-09-17T06:53:52.000Z</time>
      </trkpt>
      <trkpt lat="43.87436" lon="4.98332">
        <ele>59.730985</ele>
        <time>2021-09-17T06:54:00.000Z</time>
      </trkpt>
      <trkpt lat="43.874" lon="4.98368">
        <ele>59.853492</ele>
        <time>2021-09-17T06:54:07.000Z</time>
      </trkpt>
      <trkpt lat="43.87351" lon="4.98414">
        <ele>59.997418</ele>
        <time>2021-09-17T06:54:16.000Z</time>
      </trkpt>
      <trkpt lat="43.87346" lon="4.98419">
        <ele>60.012022</ele>
        <time>2021-09-17T06:54:17.000Z</time>
      </trkpt>
      <trkpt lat="43.87308" lon="4.98455">
        <ele>60.111507</ele>
        <time>2021-09-17T06:54:24.000Z</time>
      </trkpt>
      <trkpt lat="43.87265" lon="4.98507">
        <ele>60.234257</ele>
        <time>2021-09-17T06:54:33.000Z</time>
      </trkpt>
      <trkpt lat="43.87231" lon="4.98559">
        <ele>60.319333</ele>
        <time>2021-09-17T06:54:41.000Z</time>
      </trkpt>
      <trkpt lat="43.8722" lon="4.98579">
        <ele>60.318449</ele>
        <time>2021-09-17T06:54:44.000Z</time>
      </trkpt>
      <trkpt lat="43.87212" lon="4.98593">
        <ele>60.317857</ele>
        <time>2021-09-17T06:54:46.000Z</time>
      </trkpt>
      <trkpt lat="43.87197" lon="4.98622">
        <ele>60.316633</ele>
        <time>2021-09-17T06:54:50.000Z</time>
      </trkpt>
      <trkpt lat="43.87194" lon="4.9863">
        <ele>60.31632</ele>
        <time>2021-09-17T06:54:51.000Z</time>
      </trkpt>
      <trkpt lat="43.87171" lon="4.98673">
        <ele>60.314482</ele>
        <time>2021-09-17T06:54:57.000Z</time>
      </trkpt>
      <trkpt lat="43.87168" lon="4.9868">
        <ele>60.314197</ele>
        <time>2021-09-17T06:54:58.000Z</time>
      </trkpt>
      <trkpt lat="43.87154" lon="4.98708">
        <ele>60.313017</ele>
        <time>2021-09-17T06:55:02.000Z</time>
      </trkpt>
      <trkpt lat="43.87129" lon="4.98758">
        <ele>60.312321</ele>
        <time>2021-09-17T06:55:09.000Z</time>
      </trkpt>
      <trkpt lat="43.87122" lon="4.98772">
        <ele>60.314112</ele>
        <time>2021-09-17T06:55:11.000Z</time>
      </trkpt>
      <trkpt lat="43.87115" lon="4.98786">
        <ele>60.315817</ele>
        <time>2021-09-17T06:55:13.000Z</time>
      </trkpt>
      <trkpt lat="43.87101" lon="4.98814">
        <ele>60.319484</ele>
        <time>2021-09-17T06:55:17.000Z</time>
      </trkpt>
      <trkpt lat="43.87097" lon="4.98822">
        <ele>60.32044</ele>
        <time>2021-09-17T06:55:18.000Z</time>
      </trkpt>
      <trkpt lat="43.87075" lon="4.98866">
        <ele>60.326103</ele>
        <time>2021-09-17T06:55:24.000Z</time>
      </trkpt>
      <trkpt lat="43.87045" lon="4.98926">
        <ele>60.333702</ele>
        <time>2021-09-17T06:55:32.000Z</time>
      </trkpt>
      <trkpt lat="43.87024" lon="4.98978">
        <ele>60.379864</ele>
        <time>2021-09-17T06:55:39.000Z</time>
      </trkpt>
      <trkpt lat="43.87012" lon="4.9902">
        <ele>60.456941</ele>
        <time>2021-09-17T06:55:44.000Z</time>
      </trkpt>
      <trkpt lat="43.86999" lon="4.9908">
        <ele>60.565049</ele>
        <time>2021-09-17T06:55:51.000Z</time>
      </trkpt>
      <trkpt lat="43.86995" lon="4.99098">
        <ele>60.596838</ele>
        <time>2021-09-17T06:55:53.000Z</time>
      </trkpt>
      <trkpt lat="43.8699" lon="4.99124">
        <ele>60.644418</ele>
        <time>2021-09-17T06:55:56.000Z</time>
      </trkpt>
      <trkpt lat="43.86977" lon="4.99184">
        <ele>60.751725</ele>
        <time>2021-09-17T06:56:03.000Z</time>
      </trkpt>
      <trkpt lat="43.86962" lon="4.99232">
        <ele>60.7927</ele>
        <time>2021-09-17T06:56:09.000Z</time>
      </trkpt>
      <trkpt lat="43.86941" lon="4.99277">
        <ele>60.822707</ele>
        <time>2021-09-17T06:56:15.000Z</time>
      </trkpt>
      <trkpt lat="43.86916" lon="4.99316">
        <ele>60.852461</ele>
        <time>2021-09-17T06:56:21.000Z</time>
      </trkpt>
      <trkpt lat="43.86887" lon="4.99347">
        <ele>60.880895</ele>
        <time>2021-09-17T06:56:27.000Z</time>
      </trkpt>
      <trkpt lat="43.86837" lon="4.99387">
        <ele>60.966172</ele>
        <time>2021-09-17T06:56:35.000Z</time>
      </trkpt>
      <trkpt lat="43.86831" lon="4.99391">
        <ele>60.983047</ele>
        <time>2021-09-17T06:56:36.000Z</time>
      </trkpt>
      <trkpt lat="43.86786" lon="4.99425">
        <ele>61.117878</ele>
        <time>2021-09-17T06:56:45.000Z</time>
      </trkpt>
      <trkpt lat="43.86737" lon="4.99463">
        <ele>61.268564</ele>
        <time>2021-09-17T06:56:53.000Z</time>
      </trkpt>
      <trkpt lat="43.86701" lon="4.99493">
        <ele>61.378614</ele>
        <time>2021-09-17T06:57:01.000Z</time>
      </trkpt>
      <trkpt lat="43.86673" lon="4.99522">
        <ele>61.509249</ele>
        <time>2021-09-17T06:57:07.000Z</time>
      </trkpt>
      <trkpt lat="43.86641" lon="4.99564">
        <ele>61.677947</ele>
        <time>2021-09-17T06:57:14.000Z</time>
      </trkpt>
      <trkpt lat="43.86605" lon="4.99617">
        <ele>61.874721</ele>
        <time>2021-09-17T06:57:22.000Z</time>
      </trkpt>
      <trkpt lat="43.86567" lon="4.99666">
        <ele>62.076575</ele>
        <time>2021-09-17T06:57:29.000Z</time>
      </trkpt>
      <trkpt lat="43.86527" lon="4.99716">
        <ele>62.297494</ele>
        <time>2021-09-17T06:57:37.000Z</time>
      </trkpt>
      <trkpt lat="43.86498" lon="4.99753">
        <ele>62.460725</ele>
        <time>2021-09-17T06:57:43.000Z</time>
      </trkpt>
      <trkpt lat="43.86459" lon="4.99804">
        <ele>62.682455</ele>
        <time>2021-09-17T06:57:52.000Z</time>
      </trkpt>
      <trkpt lat="43.86431" lon="4.99841">
        <ele>62.840024</ele>
        <time>2021-09-17T06:57:57.000Z</time>
      </trkpt>
      <trkpt lat="43.86404" lon="4.99891">
        <ele>63.00775</ele>
        <time>2021-09-17T06:58:04.000Z</time>
      </trkpt>
      <trkpt lat="43.86383" lon="4.99949">
        <ele>63.18198</ele>
        <time>2021-09-17T06:58:11.000Z</time>
      </trkpt>
      <trkpt lat="43.86358" lon="5.00015">
        <ele>63.380869</ele>
        <time>2021-09-17T06:58:19.000Z</time>
      </trkpt>
      <trkpt lat="43.86339" lon="5.00064">
        <ele>63.575665</ele>
        <time>2021-09-17T06:58:25.000Z</time>
      </trkpt>
      <trkpt lat="43.86313" lon="5.00132">
        <ele>63.974687</ele>
        <time>2021-09-17T06:58:33.000Z</time>
      </trkpt>
      <trkpt lat="43.86289" lon="5.00202">
        <ele>64.37691</ele>
        <time>2021-09-17T06:58:41.000Z</time>
      </trkpt>
      <trkpt lat="43.86266" lon="5.00271">
        <ele>64.771961</ele>
        <time>2021-09-17T06:58:49.000Z</time>
      </trkpt>
      <trkpt lat="43.86243" lon="5.00339">
        <ele>65.04252</ele>
        <time>2021-09-17T06:58:57.000Z</time>
      </trkpt>
      <trkpt lat="43.8624" lon="5.00348">
        <ele>65.075683</ele>
        <time>2021-09-17T06:58:58.000Z</time>
      </trkpt>
      <trkpt lat="43.86216" lon="5.00415">
        <ele>65.342244</ele>
        <time>2021-09-17T06:59:06.000Z</time>
      </trkpt>
      <trkpt lat="43.86212" lon="5.00423">
        <ele>65.375415</ele>
        <time>2021-09-17T06:59:07.000Z</time>
      </trkpt>
      <trkpt lat="43.86194" lon="5.00473">
        <ele>65.572189</ele>
        <time>2021-09-17T06:59:13.000Z</time>
      </trkpt>
      <trkpt lat="43.86169" lon="5.00536">
        <ele>65.773913</ele>
        <time>2021-09-17T06:59:21.000Z</time>
      </trkpt>
      <trkpt lat="43.86143" lon="5.00595">
        <ele>65.93955</ele>
        <time>2021-09-17T06:59:29.000Z</time>
      </trkpt>
      <trkpt lat="43.86111" lon="5.00665">
        <ele>66.136426</ele>
        <time>2021-09-17T06:59:39.000Z</time>
      </trkpt>
      <trkpt lat="43.86108" lon="5.00671">
        <ele>66.155432</ele>
        <time>2021-09-17T06:59:40.000Z</time>
      </trkpt>
      <trkpt lat="43.8608" lon="5.00732">
        <ele>66.320119</ele>
        <time>2021-09-17T06:59:49.000Z</time>
      </trkpt>
      <trkpt lat="43.86048" lon="5.00796">
        <ele>66.482943</ele>
        <time>2021-09-17T06:59:58.000Z</time>
      </trkpt>
      <trkpt lat="43.8602" lon="5.00857">
        <ele>66.63557</ele>
        <time>2021-09-17T07:00:06.000Z</time>
      </trkpt>
      <trkpt lat="43.8599" lon="5.00922">
        <ele>66.785156</ele>
        <time>2021-09-17T07:00:14.000Z</time>
      </trkpt>
      <trkpt lat="43.85987" lon="5.0093">
        <ele>66.787143</ele>
        <time>2021-09-17T07:00:15.000Z</time>
      </trkpt>
      <trkpt lat="43.85963" lon="5.00987">
        <ele>66.800854</ele>
        <time>2021-09-17T07:00:22.000Z</time>
      </trkpt>
      <trkpt lat="43.85935" lon="5.01052">
        <ele>66.816653</ele>
        <time>2021-09-17T07:00:30.000Z</time>
      </trkpt>
      <trkpt lat="43.85931" lon="5.01061">
        <ele>66.818643</ele>
        <time>2021-09-17T07:00:32.000Z</time>
      </trkpt>
      <trkpt lat="43.85905" lon="5.01125">
        <ele>66.834037</ele>
        <time>2021-09-17T07:00:39.000Z</time>
      </trkpt>
      <trkpt lat="43.85889" lon="5.01163">
        <ele>66.897355</ele>
        <time>2021-09-17T07:00:44.000Z</time>
      </trkpt>
      <trkpt lat="43.85883" lon="5.01178">
        <ele>66.927437</ele>
        <time>2021-09-17T07:00:46.000Z</time>
      </trkpt>
      <trkpt lat="43.85877" lon="5.01194">
        <ele>66.957369</ele>
        <time>2021-09-17T07:00:48.000Z</time>
      </trkpt>
      <trkpt lat="43.8587" lon="5.0121">
        <ele>66.988845</ele>
        <time>2021-09-17T07:00:50.000Z</time>
      </trkpt>
      <trkpt lat="43.85848" lon="5.01266">
        <ele>67.098923</ele>
        <time>2021-09-17T07:00:57.000Z</time>
      </trkpt>
      <trkpt lat="43.85819" lon="5.01335">
        <ele>67.236019</ele>
        <time>2021-09-17T07:01:06.000Z</time>
      </trkpt>
      <trkpt lat="43.85815" lon="5.01342">
        <ele>67.251187</ele>
        <time>2021-09-17T07:01:07.000Z</time>
      </trkpt>
      <trkpt lat="43.85796" lon="5.01387">
        <ele>67.388006</ele>
        <time>2021-09-17T07:01:14.000Z</time>
      </trkpt>
      <trkpt lat="43.85767" lon="5.0145">
        <ele>67.59454</ele>
        <time>2021-09-17T07:01:22.000Z</time>
      </trkpt>
      <trkpt lat="43.8576" lon="5.01462">
        <ele>67.636948</ele>
        <time>2021-09-17T07:01:24.000Z</time>
      </trkpt>
      <trkpt lat="43.85754" lon="5.01465">
        <ele>67.660812</ele>
        <time>2021-09-17T07:01:25.000Z</time>
      </trkpt>
      <trkpt lat="43.85743" lon="5.01479">
        <ele>67.718322</ele>
        <time>2021-09-17T07:01:28.000Z</time>
      </trkpt>
      <trkpt lat="43.85743" lon="5.01494">
        <ele>67.760556</ele>
        <time>2021-09-17T07:01:30.000Z</time>
      </trkpt>
      <trkpt lat="43.85743" lon="5.01502">
        <ele>67.78208</ele>
        <time>2021-09-17T07:01:31.000Z</time>
      </trkpt>
      <trkpt lat="43.85743" lon="5.0151">
        <ele>67.804431</ele>
        <time>2021-09-17T07:01:32.000Z</time>
      </trkpt>
      <trkpt lat="43.85739" lon="5.01526">
        <ele>67.850767</ele>
        <time>2021-09-17T07:01:34.000Z</time>
      </trkpt>
      <trkpt lat="43.85725" lon="5.01564">
        <ele>67.96726</ele>
        <time>2021-09-17T07:01:39.000Z</time>
      </trkpt>
      <trkpt lat="43.85722" lon="5.01571">
        <ele>67.990417</ele>
        <time>2021-09-17T07:01:40.000Z</time>
      </trkpt>
      <trkpt lat="43.85695" lon="5.01639">
        <ele>68.200619</ele>
        <time>2021-09-17T07:01:49.000Z</time>
      </trkpt>
      <trkpt lat="43.8567" lon="5.017">
        <ele>68.388091</ele>
        <time>2021-09-17T07:01:57.000Z</time>
      </trkpt>
      <trkpt lat="43.85642" lon="5.0177">
        <ele>68.604326</ele>
        <time>2021-09-17T07:02:06.000Z</time>
      </trkpt>
      <trkpt lat="43.85639" lon="5.01778">
        <ele>68.627444</ele>
        <time>2021-09-17T07:02:07.000Z</time>
      </trkpt>
      <trkpt lat="43.8561" lon="5.01848">
        <ele>68.811988</ele>
        <time>2021-09-17T07:02:16.000Z</time>
      </trkpt>
      <trkpt lat="43.85604" lon="5.01863">
        <ele>68.853475</ele>
        <time>2021-09-17T07:02:18.000Z</time>
      </trkpt>
      <trkpt lat="43.85576" lon="5.01933">
        <ele>69.036703</ele>
        <time>2021-09-17T07:02:27.000Z</time>
      </trkpt>
      <trkpt lat="43.85548" lon="5.02">
        <ele>69.214309</ele>
        <time>2021-09-17T07:02:36.000Z</time>
      </trkpt>
      <trkpt lat="43.8553" lon="5.02046">
        <ele>69.322675</ele>
        <time>2021-09-17T07:02:42.000Z</time>
      </trkpt>
      <trkpt lat="43.85513" lon="5.0209">
        <ele>69.426807</ele>
        <time>2021-09-17T07:02:49.000Z</time>
      </trkpt>
      <trkpt lat="43.85486" lon="5.02155">
        <ele>69.585553</ele>
        <time>2021-09-17T07:02:57.000Z</time>
      </trkpt>
      <trkpt lat="43.85476" lon="5.02177">
        <ele>69.637697</ele>
        <time>2021-09-17T07:03:00.000Z</time>
      </trkpt>
      <trkpt lat="43.85448" lon="5.02247">
        <ele>69.913966</ele>
        <time>2021-09-17T07:03:10.000Z</time>
      </trkpt>
      <trkpt lat="43.85422" lon="5.02307">
        <ele>70.244549</ele>
        <time>2021-09-17T07:03:19.000Z</time>
      </trkpt>
      <trkpt lat="43.85395" lon="5.02368">
        <ele>70.580228</ele>
        <time>2021-09-17T07:03:28.000Z</time>
      </trkpt>
      <trkpt lat="43.8537" lon="5.02431">
        <ele>70.921223</ele>
        <time>2021-09-17T07:03:37.000Z</time>
      </trkpt>
      <trkpt lat="43.85361" lon="5.0245">
        <ele>71.054093</ele>
        <time>2021-09-17T07:03:40.000Z</time>
      </trkpt>
      <trkpt lat="43.85356" lon="5.02463">
        <ele>71.141754</ele>
        <time>2021-09-17T07:03:43.000Z</time>
      </trkpt>
      <trkpt lat="43.85335" lon="5.02515">
        <ele>71.488468</ele>
        <time>2021-09-17T07:03:50.000Z</time>
      </trkpt>
      <trkpt lat="43.85319" lon="5.02551">
        <ele>71.730974</ele>
        <time>2021-09-17T07:03:57.000Z</time>
      </trkpt>
      <trkpt lat="43.85312" lon="5.0256">
        <ele>71.805719</ele>
        <time>2021-09-17T07:03:58.000Z</time>
      </trkpt>
      <trkpt lat="43.85309" lon="5.02564">
        <ele>71.841804</ele>
        <time>2021-09-17T07:03:59.000Z</time>
      </trkpt>
      <trkpt lat="43.85295" lon="5.0257">
        <ele>71.957885</ele>
        <time>2021-09-17T07:04:02.000Z</time>
      </trkpt>
      <trkpt lat="43.85292" lon="5.02573">
        <ele>71.992414</ele>
        <time>2021-09-17T07:04:04.000Z</time>
      </trkpt>
      <trkpt lat="43.85283" lon="5.02586">
        <ele>72.092102</ele>
        <time>2021-09-17T07:04:06.000Z</time>
      </trkpt>
      <trkpt lat="43.85281" lon="5.02597">
        <ele>72.161011</ele>
        <time>2021-09-17T07:04:08.000Z</time>
      </trkpt>
      <trkpt lat="43.8528" lon="5.02603">
        <ele>72.195887</ele>
        <time>2021-09-17T07:04:10.000Z</time>
      </trkpt>
      <trkpt lat="43.85286" lon="5.0263">
        <ele>72.360496</ele>
        <time>2021-09-17T07:04:13.000Z</time>
      </trkpt>
      <trkpt lat="43.85286" lon="5.02638">
        <ele>72.413212</ele>
        <time>2021-09-17T07:04:14.000Z</time>
      </trkpt>
      <trkpt lat="43.85286" lon="5.02638">
        <ele>72.413212</ele>
        <time>2021-09-17T07:04:15.000Z</time>
      </trkpt>
      <trkpt lat="43.85284" lon="5.02661">
        <ele>72.564503</ele>
        <time>2021-09-17T07:04:17.000Z</time>
      </trkpt>
      <trkpt lat="43.85282" lon="5.02668">
        <ele>72.615211</ele>
        <time>2021-09-17T07:04:18.000Z</time>
      </trkpt>
      <trkpt lat="43.8527" lon="5.02718">
        <ele>72.954578</ele>
        <time>2021-09-17T07:04:26.000Z</time>
      </trkpt>
      <trkpt lat="43.85257" lon="5.02769">
        <ele>73.303365</ele>
        <time>2021-09-17T07:04:33.000Z</time>
      </trkpt>
      <trkpt lat="43.85239" lon="5.0284">
        <ele>73.798127</ele>
        <time>2021-09-17T07:04:42.000Z</time>
      </trkpt>
      <trkpt lat="43.85237" lon="5.02847">
        <ele>73.845771</ele>
        <time>2021-09-17T07:04:43.000Z</time>
      </trkpt>
      <trkpt lat="43.85223" lon="5.02904">
        <ele>74.216317</ele>
        <time>2021-09-17T07:04:51.000Z</time>
      </trkpt>
      <trkpt lat="43.85218" lon="5.02926">
        <ele>74.353941</ele>
        <time>2021-09-17T07:04:54.000Z</time>
      </trkpt>
      <trkpt lat="43.85214" lon="5.02949">
        <ele>74.492855</ele>
        <time>2021-09-17T07:04:57.000Z</time>
      </trkpt>
      <trkpt lat="43.8521" lon="5.02971">
        <ele>74.629426</ele>
        <time>2021-09-17T07:05:00.000Z</time>
      </trkpt>
      <trkpt lat="43.85208" lon="5.02987">
        <ele>74.726889</ele>
        <time>2021-09-17T07:05:02.000Z</time>
      </trkpt>
      <trkpt lat="43.85203" lon="5.03044">
        <ele>75.070634</ele>
        <time>2021-09-17T07:05:10.000Z</time>
      </trkpt>
      <trkpt lat="43.85195" lon="5.03107">
        <ele>75.455458</ele>
        <time>2021-09-17T07:05:17.000Z</time>
      </trkpt>
      <trkpt lat="43.85182" lon="5.03159">
        <ele>75.621296</ele>
        <time>2021-09-17T07:05:24.000Z</time>
      </trkpt>
      <trkpt lat="43.85164" lon="5.03229">
        <ele>75.840687</ele>
        <time>2021-09-17T07:05:33.000Z</time>
      </trkpt>
      <trkpt lat="43.85147" lon="5.03289">
        <ele>76.031764</ele>
        <time>2021-09-17T07:05:41.000Z</time>
      </trkpt>
      <trkpt lat="43.85129" lon="5.03343">
        <ele>76.206556</ele>
        <time>2021-09-17T07:05:48.000Z</time>
      </trkpt>
      <trkpt lat="43.85113" lon="5.03388">
        <ele>76.343469</ele>
        <time>2021-09-17T07:05:54.000Z</time>
      </trkpt>
      <trkpt lat="43.85088" lon="5.03454">
        <ele>76.547935</ele>
        <time>2021-09-17T07:06:03.000Z</time>
      </trkpt>
      <trkpt lat="43.85064" lon="5.03512">
        <ele>76.730078</ele>
        <time>2021-09-17T07:06:11.000Z</time>
      </trkpt>
      <trkpt lat="43.85057" lon="5.03534">
        <ele>76.795838</ele>
        <time>2021-09-17T07:06:14.000Z</time>
      </trkpt>
      <trkpt lat="43.85048" lon="5.03555">
        <ele>76.861753</ele>
        <time>2021-09-17T07:06:17.000Z</time>
      </trkpt>
      <trkpt lat="43.85044" lon="5.03562">
        <ele>76.88272</ele>
        <time>2021-09-17T07:06:18.000Z</time>
      </trkpt>
      <trkpt lat="43.8503" lon="5.03589">
        <ele>76.950793</ele>
        <time>2021-09-17T07:06:22.000Z</time>
      </trkpt>
      <trkpt lat="43.85007" lon="5.03629">
        <ele>77.05721</ele>
        <time>2021-09-17T07:06:28.000Z</time>
      </trkpt>
      <trkpt lat="43.84979" lon="5.03678">
        <ele>77.186445</ele>
        <time>2021-09-17T07:06:35.000Z</time>
      </trkpt>
      <trkpt lat="43.84947" lon="5.03735">
        <ele>77.336329</ele>
        <time>2021-09-17T07:06:43.000Z</time>
      </trkpt>
      <trkpt lat="43.84915" lon="5.03782">
        <ele>77.361916</ele>
        <time>2021-09-17T07:06:50.000Z</time>
      </trkpt>
      <trkpt lat="43.84882" lon="5.03828">
        <ele>77.312241</ele>
        <time>2021-09-17T07:06:57.000Z</time>
      </trkpt>
      <trkpt lat="43.84855" lon="5.03851">
        <ele>77.277077</ele>
        <time>2021-09-17T07:07:03.000Z</time>
      </trkpt>
      <trkpt lat="43.84807" lon="5.03883">
        <ele>77.220875</ele>
        <time>2021-09-17T07:07:10.000Z</time>
      </trkpt>
      <trkpt lat="43.84766" lon="5.0391">
        <ele>77.203573</ele>
        <time>2021-09-17T07:07:17.000Z</time>
      </trkpt>
      <trkpt lat="43.84735" lon="5.03926">
        <ele>77.210954</ele>
        <time>2021-09-17T07:07:23.000Z</time>
      </trkpt>
      <trkpt lat="43.84731" lon="5.03927">
        <ele>77.212026</ele>
        <time>2021-09-17T07:07:24.000Z</time>
      </trkpt>
      <trkpt lat="43.84715" lon="5.0393">
        <ele>77.215605</ele>
        <time>2021-09-17T07:07:27.000Z</time>
      </trkpt>
      <trkpt lat="43.84715" lon="5.0393">
        <ele>77.215605</ele>
        <time>2021-09-17T07:07:28.000Z</time>
      </trkpt>
      <trkpt lat="43.84706" lon="5.03941">
        <ele>77.218161</ele>
        <time>2021-09-17T07:07:29.000Z</time>
      </trkpt>
      <trkpt lat="43.84703" lon="5.03957">
        <ele>77.220893</ele>
        <time>2021-09-17T07:07:31.000Z</time>
      </trkpt>
      <trkpt lat="43.84708" lon="5.03971">
        <ele>77.223373</ele>
        <time>2021-09-17T07:07:33.000Z</time>
      </trkpt>
      <trkpt lat="43.84711" lon="5.03975">
        <ele>77.224374</ele>
        <time>2021-09-17T07:07:34.000Z</time>
      </trkpt>
      <trkpt lat="43.84716" lon="5.03977">
        <ele>77.22544</ele>
        <time>2021-09-17T07:07:35.000Z</time>
      </trkpt>
      <trkpt lat="43.84725" lon="5.03985">
        <ele>77.227866</ele>
        <time>2021-09-17T07:07:37.000Z</time>
      </trkpt>
      <trkpt lat="43.84732" lon="5.03995">
        <ele>77.230142</ele>
        <time>2021-09-17T07:07:39.000Z</time>
      </trkpt>
      <trkpt lat="43.84735" lon="5.0401">
        <ele>77.232578</ele>
        <time>2021-09-17T07:07:41.000Z</time>
      </trkpt>
      <trkpt lat="43.84735" lon="5.04054">
        <ele>77.250104</ele>
        <time>2021-09-17T07:07:47.000Z</time>
      </trkpt>
      <trkpt lat="43.84733" lon="5.04092">
        <ele>77.295992</ele>
        <time>2021-09-17T07:07:53.000Z</time>
      </trkpt>
      <trkpt lat="43.84723" lon="5.04152">
        <ele>77.370701</ele>
        <time>2021-09-17T07:08:00.000Z</time>
      </trkpt>
      <trkpt lat="43.84701" lon="5.04199">
        <ele>77.438456</ele>
        <time>2021-09-17T07:08:07.000Z</time>
      </trkpt>
      <trkpt lat="43.84672" lon="5.04249">
        <ele>77.515678</ele>
        <time>2021-09-17T07:08:15.000Z</time>
      </trkpt>
      <trkpt lat="43.8464" lon="5.04283">
        <ele>77.508258</ele>
        <time>2021-09-17T07:08:22.000Z</time>
      </trkpt>
      <trkpt lat="43.846" lon="5.04314">
        <ele>77.452631</ele>
        <time>2021-09-17T07:08:30.000Z</time>
      </trkpt>
      <trkpt lat="43.84556" lon="5.04341">
        <ele>77.393721</ele>
        <time>2021-09-17T07:08:39.000Z</time>
      </trkpt>
      <trkpt lat="43.84521" lon="5.04361">
        <ele>77.346845</ele>
        <time>2021-09-17T07:08:46.000Z</time>
      </trkpt>
      <trkpt lat="43.845" lon="5.04365">
        <ele>77.321356</ele>
        <time>2021-09-17T07:08:50.000Z</time>
      </trkpt>
      <trkpt lat="43.84456" lon="5.04379">
        <ele>77.09835</ele>
        <time>2021-09-17T07:08:58.000Z</time>
      </trkpt>
      <trkpt lat="43.8445" lon="5.04382">
        <ele>77.068615</ele>
        <time>2021-09-17T07:08:59.000Z</time>
      </trkpt>
      <trkpt lat="43.84439" lon="5.04389">
        <ele>77.01003</ele>
        <time>2021-09-17T07:09:01.000Z</time>
      </trkpt>
      <trkpt lat="43.84434" lon="5.04393">
        <ele>76.978799</ele>
        <time>2021-09-17T07:09:02.000Z</time>
      </trkpt>
      <trkpt lat="43.8443" lon="5.04399">
        <ele>76.950174</ele>
        <time>2021-09-17T07:09:03.000Z</time>
      </trkpt>
      <trkpt lat="43.84427" lon="5.04404">
        <ele>76.92706</ele>
        <time>2021-09-17T07:09:04.000Z</time>
      </trkpt>
      <trkpt lat="43.84419" lon="5.04417">
        <ele>76.866532</ele>
        <time>2021-09-17T07:09:06.000Z</time>
      </trkpt>
      <trkpt lat="43.84413" lon="5.04427">
        <ele>76.817906</ele>
        <time>2021-09-17T07:09:08.000Z</time>
      </trkpt>
      <trkpt lat="43.84404" lon="5.04433">
        <ele>76.769967</ele>
        <time>2021-09-17T07:09:10.000Z</time>
      </trkpt>
      <trkpt lat="43.84396" lon="5.04436">
        <ele>76.725138</ele>
        <time>2021-09-17T07:09:12.000Z</time>
      </trkpt>
      <trkpt lat="43.8438" lon="5.04446">
        <ele>76.64099</ele>
        <time>2021-09-17T07:09:17.000Z</time>
      </trkpt>
      <trkpt lat="43.84367" lon="5.04459">
        <ele>76.562298</ele>
        <time>2021-09-17T07:09:22.000Z</time>
      </trkpt>
      <trkpt lat="43.84352" lon="5.04471">
        <ele>76.475916</ele>
        <time>2021-09-17T07:09:27.000Z</time>
      </trkpt>
      <trkpt lat="43.84339" lon="5.04483">
        <ele>76.438795</ele>
        <time>2021-09-17T07:09:31.000Z</time>
      </trkpt>
      <trkpt lat="43.84331" lon="5.04489">
        <ele>76.45993</ele>
        <time>2021-09-17T07:09:33.000Z</time>
      </trkpt>
      <trkpt lat="43.84321" lon="5.04498">
        <ele>76.489707</ele>
        <time>2021-09-17T07:09:35.000Z</time>
      </trkpt>
      <trkpt lat="43.84311" lon="5.04504">
        <ele>76.515741</ele>
        <time>2021-09-17T07:09:38.000Z</time>
      </trkpt>
      <trkpt lat="43.84303" lon="5.04511">
        <ele>76.538634</ele>
        <time>2021-09-17T07:09:40.000Z</time>
      </trkpt>
      <trkpt lat="43.84286" lon="5.04526">
        <ele>76.5872</ele>
        <time>2021-09-17T07:09:44.000Z</time>
      </trkpt>
      <trkpt lat="43.84261" lon="5.04548">
        <ele>76.658752</ele>
        <time>2021-09-17T07:09:50.000Z</time>
      </trkpt>
      <trkpt lat="43.84252" lon="5.04556">
        <ele>76.683925</ele>
        <time>2021-09-17T07:09:52.000Z</time>
      </trkpt>
      <trkpt lat="43.84232" lon="5.04567">
        <ele>76.736006</ele>
        <time>2021-09-17T07:09:56.000Z</time>
      </trkpt>
      <trkpt lat="43.84202" lon="5.04587">
        <ele>76.816669</ele>
        <time>2021-09-17T07:10:02.000Z</time>
      </trkpt>
      <trkpt lat="43.84155" lon="5.04622">
        <ele>76.930848</ele>
        <time>2021-09-17T07:10:11.000Z</time>
      </trkpt>
      <trkpt lat="43.84125" lon="5.0465">
        <ele>77.004855</ele>
        <time>2021-09-17T07:10:17.000Z</time>
      </trkpt>
      <trkpt lat="43.84083" lon="5.04694">
        <ele>77.113299</ele>
        <time>2021-09-17T07:10:26.000Z</time>
      </trkpt>
      <trkpt lat="43.84042" lon="5.04739">
        <ele>77.219819</ele>
        <time>2021-09-17T07:10:35.000Z</time>
      </trkpt>
      <trkpt lat="43.84019" lon="5.04763">
        <ele>77.347839</ele>
        <time>2021-09-17T07:10:40.000Z</time>
      </trkpt>
      <trkpt lat="43.84009" lon="5.04772">
        <ele>77.402413</ele>
        <time>2021-09-17T07:10:42.000Z</time>
      </trkpt>
      <trkpt lat="43.83961" lon="5.04806">
        <ele>77.658651</ele>
        <time>2021-09-17T07:10:51.000Z</time>
      </trkpt>
      <trkpt lat="43.83924" lon="5.04833">
        <ele>77.860965</ele>
        <time>2021-09-17T07:10:59.000Z</time>
      </trkpt>
      <trkpt lat="43.83903" lon="5.04847">
        <ele>77.96978</ele>
        <time>2021-09-17T07:11:03.000Z</time>
      </trkpt>
      <trkpt lat="43.83898" lon="5.04851">
        <ele>77.994616</ele>
        <time>2021-09-17T07:11:07.000Z</time>
      </trkpt>
      <trkpt lat="43.83896" lon="5.04852">
        <ele>78.008289</ele>
        <time>2021-09-17T07:11:35.000Z</time>
      </trkpt>
      <trkpt lat="43.83892" lon="5.04854">
        <ele>78.027227</ele>
        <time>2021-09-17T07:11:37.000Z</time>
      </trkpt>
      <trkpt lat="43.83873" lon="5.04862">
        <ele>78.074425</ele>
        <time>2021-09-17T07:11:44.000Z</time>
      </trkpt>
      <trkpt lat="43.83857" lon="5.04872">
        <ele>78.065322</ele>
        <time>2021-09-17T07:11:50.000Z</time>
      </trkpt>
      <trkpt lat="43.83832" lon="5.04892">
        <ele>78.049856</ele>
        <time>2021-09-17T07:11:58.000Z</time>
      </trkpt>
      <trkpt lat="43.83816" lon="5.04906">
        <ele>78.039255</ele>
        <time>2021-09-17T07:12:04.000Z</time>
      </trkpt>
      <trkpt lat="43.83792" lon="5.04928">
        <ele>78.023836</ele>
        <time>2021-09-17T07:12:11.000Z</time>
      </trkpt>
      <trkpt lat="43.83763" lon="5.04952">
        <ele>78.00578</ele>
        <time>2021-09-17T07:12:18.000Z</time>
      </trkpt>
      <trkpt lat="43.83732" lon="5.04975">
        <ele>77.987074</ele>
        <time>2021-09-17T07:12:26.000Z</time>
      </trkpt>
      <trkpt lat="43.83706" lon="5.0499">
        <ele>77.883876</ele>
        <time>2021-09-17T07:12:33.000Z</time>
      </trkpt>
      <trkpt lat="43.83675" lon="5.05003">
        <ele>77.728464</ele>
        <time>2021-09-17T07:12:41.000Z</time>
      </trkpt>
      <trkpt lat="43.83648" lon="5.05014">
        <ele>77.593548</ele>
        <time>2021-09-17T07:12:47.000Z</time>
      </trkpt>
      <trkpt lat="43.83607" lon="5.05031">
        <ele>77.386346</ele>
        <time>2021-09-17T07:12:55.000Z</time>
      </trkpt>
      <trkpt lat="43.8356" lon="5.0505">
        <ele>77.150716</ele>
        <time>2021-09-17T07:13:04.000Z</time>
      </trkpt>
      <trkpt lat="43.83522" lon="5.05067">
        <ele>77.133039</ele>
        <time>2021-09-17T07:13:12.000Z</time>
      </trkpt>
      <trkpt lat="43.83487" lon="5.05084">
        <ele>77.154828</ele>
        <time>2021-09-17T07:13:20.000Z</time>
      </trkpt>
      <trkpt lat="43.83457" lon="5.05099">
        <ele>77.173852</ele>
        <time>2021-09-17T07:13:27.000Z</time>
      </trkpt>
      <trkpt lat="43.83426" lon="5.05112">
        <ele>77.192549</ele>
        <time>2021-09-17T07:13:34.000Z</time>
      </trkpt>
      <trkpt lat="43.83398" lon="5.05123">
        <ele>77.209908</ele>
        <time>2021-09-17T07:13:41.000Z</time>
      </trkpt>
      <trkpt lat="43.83382" lon="5.05129">
        <ele>77.219344</ele>
        <time>2021-09-17T07:13:45.000Z</time>
      </trkpt>
      <trkpt lat="43.83369" lon="5.05134">
        <ele>77.308918</ele>
        <time>2021-09-17T07:13:48.000Z</time>
      </trkpt>
      <trkpt lat="43.83339" lon="5.05145">
        <ele>77.526691</ele>
        <time>2021-09-17T07:13:56.000Z</time>
      </trkpt>
      <trkpt lat="43.83308" lon="5.05155">
        <ele>77.752084</ele>
        <time>2021-09-17T07:14:04.000Z</time>
      </trkpt>
      <trkpt lat="43.83288" lon="5.0516">
        <ele>77.888523</ele>
        <time>2021-09-17T07:14:09.000Z</time>
      </trkpt>
      <trkpt lat="43.83265" lon="5.05161">
        <ele>78.05456</ele>
        <time>2021-09-17T07:14:15.000Z</time>
      </trkpt>
      <trkpt lat="43.8325" lon="5.05166">
        <ele>78.161597</ele>
        <time>2021-09-17T07:14:19.000Z</time>
      </trkpt>
      <trkpt lat="43.83242" lon="5.05168">
        <ele>78.212687</ele>
        <time>2021-09-17T07:14:21.000Z</time>
      </trkpt>
      <trkpt lat="43.83227" lon="5.0517">
        <ele>78.322645</ele>
        <time>2021-09-17T07:14:26.000Z</time>
      </trkpt>
      <trkpt lat="43.83219" lon="5.05174">
        <ele>78.378341</ele>
        <time>2021-09-17T07:14:28.000Z</time>
      </trkpt>
      <trkpt lat="43.83213" lon="5.05181">
        <ele>78.436918</ele>
        <time>2021-09-17T07:14:30.000Z</time>
      </trkpt>
      <trkpt lat="43.83208" lon="5.05191">
        <ele>78.493365</ele>
        <time>2021-09-17T07:14:32.000Z</time>
      </trkpt>
      <trkpt lat="43.83207" lon="5.05197">
        <ele>78.52156</ele>
        <time>2021-09-17T07:14:34.000Z</time>
      </trkpt>
      <trkpt lat="43.83207" lon="5.05208">
        <ele>78.573832</ele>
        <time>2021-09-17T07:14:36.000Z</time>
      </trkpt>
      <trkpt lat="43.8321" lon="5.05219">
        <ele>78.62906</ele>
        <time>2021-09-17T07:14:38.000Z</time>
      </trkpt>
      <trkpt lat="43.83219" lon="5.05231">
        <ele>78.702737</ele>
        <time>2021-09-17T07:14:42.000Z</time>
      </trkpt>
      <trkpt lat="43.83231" lon="5.05244">
        <ele>78.80291</ele>
        <time>2021-09-17T07:14:45.000Z</time>
      </trkpt>
      <trkpt lat="43.83232" lon="5.05249">
        <ele>78.826392</ele>
        <time>2021-09-17T07:14:46.000Z</time>
      </trkpt>
      <trkpt lat="43.83234" lon="5.05259">
        <ele>78.873494</ele>
        <time>2021-09-17T07:14:48.000Z</time>
      </trkpt>
      <trkpt lat="43.83234" lon="5.0527">
        <ele>78.924329</ele>
        <time>2021-09-17T07:14:50.000Z</time>
      </trkpt>
      <trkpt lat="43.83234" lon="5.05288">
        <ele>79.004017</ele>
        <time>2021-09-17T07:14:53.000Z</time>
      </trkpt>
      <trkpt lat="43.83232" lon="5.05304">
        <ele>79.082104</ele>
        <time>2021-09-17T07:14:56.000Z</time>
      </trkpt>
      <trkpt lat="43.83225" lon="5.05327">
        <ele>79.195042</ele>
        <time>2021-09-17T07:15:00.000Z</time>
      </trkpt>
      <trkpt lat="43.83223" lon="5.05332">
        <ele>79.221865</ele>
        <time>2021-09-17T07:15:01.000Z</time>
      </trkpt>
      <trkpt lat="43.83216" lon="5.05349">
        <ele>79.309461</ele>
        <time>2021-09-17T07:15:04.000Z</time>
      </trkpt>
      <trkpt lat="43.83192" lon="5.05379">
        <ele>79.515406</ele>
        <time>2021-09-17T07:15:10.000Z</time>
      </trkpt>
      <trkpt lat="43.83157" lon="5.05408">
        <ele>79.681865</ele>
        <time>2021-09-17T07:15:17.000Z</time>
      </trkpt>
      <trkpt lat="43.83129" lon="5.05433">
        <ele>79.770656</ele>
        <time>2021-09-17T07:15:23.000Z</time>
      </trkpt>
      <trkpt lat="43.83098" lon="5.05459">
        <ele>79.870685</ele>
        <time>2021-09-17T07:15:30.000Z</time>
      </trkpt>
      <trkpt lat="43.83063" lon="5.05489">
        <ele>79.980857</ele>
        <time>2021-09-17T07:15:38.000Z</time>
      </trkpt>
      <trkpt lat="43.83031" lon="5.05518">
        <ele>80.082985</ele>
        <time>2021-09-17T07:15:46.000Z</time>
      </trkpt>
      <trkpt lat="43.83005" lon="5.05545">
        <ele>80.113921</ele>
        <time>2021-09-17T07:15:52.000Z</time>
      </trkpt>
      <trkpt lat="43.83001" lon="5.05549">
        <ele>80.117002</ele>
        <time>2021-09-17T07:15:53.000Z</time>
      </trkpt>
      <trkpt lat="43.82997" lon="5.05554">
        <ele>80.11991</ele>
        <time>2021-09-17T07:15:54.000Z</time>
      </trkpt>
      <trkpt lat="43.82977" lon="5.05577">
        <ele>80.134724</ele>
        <time>2021-09-17T07:15:59.000Z</time>
      </trkpt>
      <trkpt lat="43.82944" lon="5.05615">
        <ele>80.158159</ele>
        <time>2021-09-17T07:16:07.000Z</time>
      </trkpt>
      <trkpt lat="43.82906" lon="5.0566">
        <ele>80.186069</ele>
        <time>2021-09-17T07:16:16.000Z</time>
      </trkpt>
      <trkpt lat="43.82872" lon="5.05694">
        <ele>80.182502</ele>
        <time>2021-09-17T07:16:24.000Z</time>
      </trkpt>
      <trkpt lat="43.82868" lon="5.05699">
        <ele>80.177482</ele>
        <time>2021-09-17T07:16:25.000Z</time>
      </trkpt>
      <trkpt lat="43.8286" lon="5.05707">
        <ele>80.167798</ele>
        <time>2021-09-17T07:16:27.000Z</time>
      </trkpt>
      <trkpt lat="43.82851" lon="5.05714">
        <ele>80.157867</ele>
        <time>2021-09-17T07:16:29.000Z</time>
      </trkpt>
      <trkpt lat="43.82846" lon="5.05717">
        <ele>80.152112</ele>
        <time>2021-09-17T07:16:30.000Z</time>
      </trkpt>
      <trkpt lat="43.82833" lon="5.05732">
        <ele>80.135576</ele>
        <time>2021-09-17T07:16:33.000Z</time>
      </trkpt>
      <trkpt lat="43.82828" lon="5.05735">
        <ele>80.129737</ele>
        <time>2021-09-17T07:16:34.000Z</time>
      </trkpt>
      <trkpt lat="43.82788" lon="5.05755">
        <ele>80.08828</ele>
        <time>2021-09-17T07:16:41.000Z</time>
      </trkpt>
      <trkpt lat="43.82741" lon="5.05786">
        <ele>80.036838</ele>
        <time>2021-09-17T07:16:50.000Z</time>
      </trkpt>
      <trkpt lat="43.8269" lon="5.0582">
        <ele>79.948002</ele>
        <time>2021-09-17T07:17:00.000Z</time>
      </trkpt>
      <trkpt lat="43.82657" lon="5.05846">
        <ele>79.880662</ele>
        <time>2021-09-17T07:17:07.000Z</time>
      </trkpt>
      <trkpt lat="43.82621" lon="5.05873">
        <ele>79.807639</ele>
        <time>2021-09-17T07:17:15.000Z</time>
      </trkpt>
      <trkpt lat="43.82598" lon="5.0589">
        <ele>79.759837</ele>
        <time>2021-09-17T07:17:21.000Z</time>
      </trkpt>
      <trkpt lat="43.82593" lon="5.05891">
        <ele>79.751787</ele>
        <time>2021-09-17T07:17:22.000Z</time>
      </trkpt>
      <trkpt lat="43.82589" lon="5.05892">
        <ele>79.74368</ele>
        <time>2021-09-17T07:17:23.000Z</time>
      </trkpt>
      <trkpt lat="43.82574" lon="5.05894">
        <ele>79.717031</ele>
        <time>2021-09-17T07:17:26.000Z</time>
      </trkpt>
      <trkpt lat="43.82564" lon="5.0589">
        <ele>79.699632</ele>
        <time>2021-09-17T07:17:28.000Z</time>
      </trkpt>
      <trkpt lat="43.8256" lon="5.05888">
        <ele>79.692049</ele>
        <time>2021-09-17T07:17:29.000Z</time>
      </trkpt>
      <trkpt lat="43.82551" lon="5.0589">
        <ele>79.676697</ele>
        <time>2021-09-17T07:17:31.000Z</time>
      </trkpt>
      <trkpt lat="43.82547" lon="5.05892">
        <ele>79.668456</ele>
        <time>2021-09-17T07:17:32.000Z</time>
      </trkpt>
      <trkpt lat="43.82543" lon="5.05897">
        <ele>79.659875</ele>
        <time>2021-09-17T07:17:33.000Z</time>
      </trkpt>
      <trkpt lat="43.82536" lon="5.05908">
        <ele>79.642099</ele>
        <time>2021-09-17T07:17:35.000Z</time>
      </trkpt>
      <trkpt lat="43.82534" lon="5.05914">
        <ele>79.633593</ele>
        <time>2021-09-17T07:17:36.000Z</time>
      </trkpt>
      <trkpt lat="43.82533" lon="5.05921">
        <ele>79.624759</ele>
        <time>2021-09-17T07:17:37.000Z</time>
      </trkpt>
      <trkpt lat="43.82528" lon="5.05934">
        <ele>79.606264</ele>
        <time>2021-09-17T07:17:39.000Z</time>
      </trkpt>
      <trkpt lat="43.82525" lon="5.05939">
        <ele>79.597619</ele>
        <time>2021-09-17T07:17:40.000Z</time>
      </trkpt>
      <trkpt lat="43.82521" lon="5.05945">
        <ele>79.588854</ele>
        <time>2021-09-17T07:17:41.000Z</time>
      </trkpt>
      <trkpt lat="43.82509" lon="5.0596">
        <ele>79.561066</ele>
        <time>2021-09-17T07:17:44.000Z</time>
      </trkpt>
      <trkpt lat="43.82483" lon="5.05988">
        <ele>79.504478</ele>
        <time>2021-09-17T07:17:50.000Z</time>
      </trkpt>
      <trkpt lat="43.8244" lon="5.06023">
        <ele>79.417686</ele>
        <time>2021-09-17T07:17:59.000Z</time>
      </trkpt>
      <trkpt lat="43.82402" lon="5.06054">
        <ele>79.258248</ele>
        <time>2021-09-17T07:18:07.000Z</time>
      </trkpt>
      <trkpt lat="43.82374" lon="5.06076">
        <ele>79.10779</ele>
        <time>2021-09-17T07:18:13.000Z</time>
      </trkpt>
      <trkpt lat="43.82325" lon="5.06109">
        <ele>78.856831</ele>
        <time>2021-09-17T07:18:23.000Z</time>
      </trkpt>
      <trkpt lat="43.82283" lon="5.06134">
        <ele>78.645729</ele>
        <time>2021-09-17T07:18:31.000Z</time>
      </trkpt>
      <trkpt lat="43.82243" lon="5.06157">
        <ele>78.578691</ele>
        <time>2021-09-17T07:18:39.000Z</time>
      </trkpt>
      <trkpt lat="43.8221" lon="5.06176">
        <ele>78.602189</ele>
        <time>2021-09-17T07:18:46.000Z</time>
      </trkpt>
      <trkpt lat="43.82205" lon="5.06178">
        <ele>78.605455</ele>
        <time>2021-09-17T07:18:47.000Z</time>
      </trkpt>
      <trkpt lat="43.82183" lon="5.06191">
        <ele>78.621068</ele>
        <time>2021-09-17T07:18:52.000Z</time>
      </trkpt>
      <trkpt lat="43.82178" lon="5.06193">
        <ele>78.624491</ele>
        <time>2021-09-17T07:18:53.000Z</time>
      </trkpt>
      <trkpt lat="43.82173" lon="5.06196">
        <ele>78.628098</ele>
        <time>2021-09-17T07:18:54.000Z</time>
      </trkpt>
      <trkpt lat="43.82164" lon="5.06201">
        <ele>78.63449</ele>
        <time>2021-09-17T07:18:56.000Z</time>
      </trkpt>
      <trkpt lat="43.8216" lon="5.06204">
        <ele>78.637834</ele>
        <time>2021-09-17T07:18:57.000Z</time>
      </trkpt>
      <trkpt lat="43.82143" lon="5.06214">
        <ele>78.649631</ele>
        <time>2021-09-17T07:19:00.000Z</time>
      </trkpt>
      <trkpt lat="43.82094" lon="5.06248">
        <ele>78.697482</ele>
        <time>2021-09-17T07:19:09.000Z</time>
      </trkpt>
      <trkpt lat="43.82088" lon="5.06252">
        <ele>78.709635</ele>
        <time>2021-09-17T07:19:10.000Z</time>
      </trkpt>
      <trkpt lat="43.82046" lon="5.0628">
        <ele>78.800545</ele>
        <time>2021-09-17T07:19:18.000Z</time>
      </trkpt>
      <trkpt lat="43.82008" lon="5.06305">
        <ele>78.881998</ele>
        <time>2021-09-17T07:19:26.000Z</time>
      </trkpt>
      <trkpt lat="43.81976" lon="5.06323">
        <ele>78.950192</ele>
        <time>2021-09-17T07:19:33.000Z</time>
      </trkpt>
      <trkpt lat="43.8194" lon="5.06342">
        <ele>79.023932</ele>
        <time>2021-09-17T07:19:40.000Z</time>
      </trkpt>
      <trkpt lat="43.81905" lon="5.06361">
        <ele>78.929047</ele>
        <time>2021-09-17T07:19:47.000Z</time>
      </trkpt>
      <trkpt lat="43.81864" lon="5.06382">
        <ele>78.802333</ele>
        <time>2021-09-17T07:19:55.000Z</time>
      </trkpt>
      <trkpt lat="43.81828" lon="5.06401">
        <ele>78.687299</ele>
        <time>2021-09-17T07:20:02.000Z</time>
      </trkpt>
      <trkpt lat="43.81779" lon="5.06428">
        <ele>78.531063</ele>
        <time>2021-09-17T07:20:11.000Z</time>
      </trkpt>
      <trkpt lat="43.81728" lon="5.06458">
        <ele>78.501674</ele>
        <time>2021-09-17T07:20:20.000Z</time>
      </trkpt>
      <trkpt lat="43.81694" lon="5.06478">
        <ele>78.501565</ele>
        <time>2021-09-17T07:20:26.000Z</time>
      </trkpt>
      <trkpt lat="43.81642" lon="5.06509">
        <ele>78.501396</ele>
        <time>2021-09-17T07:20:35.000Z</time>
      </trkpt>
      <trkpt lat="43.81595" lon="5.06537">
        <ele>78.506471</ele>
        <time>2021-09-17T07:20:43.000Z</time>
      </trkpt>
      <trkpt lat="43.81548" lon="5.06565">
        <ele>78.53343</ele>
        <time>2021-09-17T07:20:51.000Z</time>
      </trkpt>
      <trkpt lat="43.81494" lon="5.06593">
        <ele>78.5635</ele>
        <time>2021-09-17T07:21:00.000Z</time>
      </trkpt>
      <trkpt lat="43.8145" lon="5.06608">
        <ele>78.587089</ele>
        <time>2021-09-17T07:21:07.000Z</time>
      </trkpt>
      <trkpt lat="43.81412" lon="5.06619">
        <ele>78.805965</ele>
        <time>2021-09-17T07:21:13.000Z</time>
      </trkpt>
      <trkpt lat="43.81356" lon="5.06638">
        <ele>79.338126</ele>
        <time>2021-09-17T07:21:22.000Z</time>
      </trkpt>
      <trkpt lat="43.81343" lon="5.06641">
        <ele>79.454996</ele>
        <time>2021-09-17T07:21:24.000Z</time>
      </trkpt>
      <trkpt lat="43.81301" lon="5.06652">
        <ele>79.84614</ele>
        <time>2021-09-17T07:21:31.000Z</time>
      </trkpt>
      <trkpt lat="43.81287" lon="5.06656">
        <ele>79.976527</ele>
        <time>2021-09-17T07:21:35.000Z</time>
      </trkpt>
      <trkpt lat="43.81286" lon="5.06657">
        <ele>79.994425</ele>
        <time>2021-09-17T07:21:36.000Z</time>
      </trkpt>
      <trkpt lat="43.81284" lon="5.06658">
        <ele>80.011595</ele>
        <time>2021-09-17T07:21:39.000Z</time>
      </trkpt>
      <trkpt lat="43.81284" lon="5.06658">
        <ele>80.011595</ele>
        <time>2021-09-17T07:21:40.000Z</time>
      </trkpt>
      <trkpt lat="43.81274" lon="5.06661">
        <ele>80.10171</ele>
        <time>2021-09-17T07:23:44.000Z</time>
      </trkpt>
      <trkpt lat="43.81272" lon="5.06662">
        <ele>80.127215</ele>
        <time>2021-09-17T07:23:46.000Z</time>
      </trkpt>
      <trkpt lat="43.81258" lon="5.06667">
        <ele>80.256093</ele>
        <time>2021-09-17T07:23:52.000Z</time>
      </trkpt>
      <trkpt lat="43.81232" lon="5.06676">
        <ele>80.4526</ele>
        <time>2021-09-17T07:23:58.000Z</time>
      </trkpt>
      <trkpt lat="43.81199" lon="5.06688">
        <ele>80.7001</ele>
        <time>2021-09-17T07:24:05.000Z</time>
      </trkpt>
      <trkpt lat="43.81165" lon="5.06702">
        <ele>80.963305</ele>
        <time>2021-09-17T07:24:12.000Z</time>
      </trkpt>
      <trkpt lat="43.81128" lon="5.06716">
        <ele>81.245634</ele>
        <time>2021-09-17T07:24:19.000Z</time>
      </trkpt>
      <trkpt lat="43.81122" lon="5.06719">
        <ele>81.287857</ele>
        <time>2021-09-17T07:24:20.000Z</time>
      </trkpt>
      <trkpt lat="43.811" lon="5.06727">
        <ele>81.456854</ele>
        <time>2021-09-17T07:24:24.000Z</time>
      </trkpt>
      <trkpt lat="43.81061" lon="5.06743">
        <ele>81.588918</ele>
        <time>2021-09-17T07:24:31.000Z</time>
      </trkpt>
      <trkpt lat="43.81013" lon="5.06762">
        <ele>81.625794</ele>
        <time>2021-09-17T07:24:39.000Z</time>
      </trkpt>
      <trkpt lat="43.81007" lon="5.06764">
        <ele>81.630615</ele>
        <time>2021-09-17T07:24:40.000Z</time>
      </trkpt>
      <trkpt lat="43.80989" lon="5.06771">
        <ele>81.644543</ele>
        <time>2021-09-17T07:24:43.000Z</time>
      </trkpt>
      <trkpt lat="43.80942" lon="5.06789">
        <ele>81.680943</ele>
        <time>2021-09-17T07:24:51.000Z</time>
      </trkpt>
      <trkpt lat="43.8089" lon="5.0681">
        <ele>81.743714</ele>
        <time>2021-09-17T07:25:00.000Z</time>
      </trkpt>
      <trkpt lat="43.80838" lon="5.06831">
        <ele>81.834143</ele>
        <time>2021-09-17T07:25:09.000Z</time>
      </trkpt>
      <trkpt lat="43.80787" lon="5.06853">
        <ele>81.923922</ele>
        <time>2021-09-17T07:25:18.000Z</time>
      </trkpt>
      <trkpt lat="43.80742" lon="5.06873">
        <ele>82.003885</ele>
        <time>2021-09-17T07:25:26.000Z</time>
      </trkpt>
      <trkpt lat="43.80704" lon="5.06898">
        <ele>82.137927</ele>
        <time>2021-09-17T07:25:33.000Z</time>
      </trkpt>
      <trkpt lat="43.80656" lon="5.0693">
        <ele>82.310212</ele>
        <time>2021-09-17T07:25:42.000Z</time>
      </trkpt>
      <trkpt lat="43.8063" lon="5.06943">
        <ele>82.399069</ele>
        <time>2021-09-17T07:25:47.000Z</time>
      </trkpt>
      <trkpt lat="43.8062" lon="5.0694">
        <ele>82.434268</ele>
        <time>2021-09-17T07:25:49.000Z</time>
      </trkpt>
      <trkpt lat="43.80614" lon="5.06945">
        <ele>82.456907</ele>
        <time>2021-09-17T07:25:50.000Z</time>
      </trkpt>
      <trkpt lat="43.80611" lon="5.06954">
        <ele>82.479456</ele>
        <time>2021-09-17T07:25:51.000Z</time>
      </trkpt>
      <trkpt lat="43.80604" lon="5.06966">
        <ele>82.517566</ele>
        <time>2021-09-17T07:25:53.000Z</time>
      </trkpt>
      <trkpt lat="43.80594" lon="5.06976">
        <ele>82.556104</ele>
        <time>2021-09-17T07:25:55.000Z</time>
      </trkpt>
      <trkpt lat="43.80563" lon="5.0701">
        <ele>82.851393</ele>
        <time>2021-09-17T07:26:02.000Z</time>
      </trkpt>
      <trkpt lat="43.80544" lon="5.07034">
        <ele>83.086388</ele>
        <time>2021-09-17T07:26:07.000Z</time>
      </trkpt>
      <trkpt lat="43.80531" lon="5.07049">
        <ele>83.239065</ele>
        <time>2021-09-17T07:26:12.000Z</time>
      </trkpt>
      <trkpt lat="43.80526" lon="5.07056">
        <ele>83.299956</ele>
        <time>2021-09-17T07:26:17.000Z</time>
      </trkpt>
      <trkpt lat="43.80524" lon="5.07058">
        <ele>83.326435</ele>
        <time>2021-09-17T07:26:22.000Z</time>
      </trkpt>
      <trkpt lat="43.80514" lon="5.0707">
        <ele>83.439177</ele>
        <time>2021-09-17T07:26:26.000Z</time>
      </trkpt>
      <trkpt lat="43.80505" lon="5.07082">
        <ele>83.551485</ele>
        <time>2021-09-17T07:26:29.000Z</time>
      </trkpt>
      <trkpt lat="43.80498" lon="5.0709">
        <ele>83.636026</ele>
        <time>2021-09-17T07:26:31.000Z</time>
      </trkpt>
      <trkpt lat="43.80494" lon="5.07095">
        <ele>83.683026</ele>
        <time>2021-09-17T07:26:32.000Z</time>
      </trkpt>
      <trkpt lat="43.80462" lon="5.07134">
        <ele>84.069719</ele>
        <time>2021-09-17T07:26:40.000Z</time>
      </trkpt>
      <trkpt lat="43.80427" lon="5.07176">
        <ele>84.332386</ele>
        <time>2021-09-17T07:26:48.000Z</time>
      </trkpt>
      <trkpt lat="43.80396" lon="5.07213">
        <ele>84.495283</ele>
        <time>2021-09-17T07:26:55.000Z</time>
      </trkpt>
      <trkpt lat="43.80361" lon="5.07256">
        <ele>84.680801</ele>
        <time>2021-09-17T07:27:03.000Z</time>
      </trkpt>
      <trkpt lat="43.80331" lon="5.07293">
        <ele>84.844509</ele>
        <time>2021-09-17T07:27:10.000Z</time>
      </trkpt>
      <trkpt lat="43.803" lon="5.0733">
        <ele>84.932662</ele>
        <time>2021-09-17T07:27:17.000Z</time>
      </trkpt>
      <trkpt lat="43.80287" lon="5.07345">
        <ele>84.936565</ele>
        <time>2021-09-17T07:27:20.000Z</time>
      </trkpt>
      <trkpt lat="43.80278" lon="5.07356">
        <ele>84.939204</ele>
        <time>2021-09-17T07:27:22.000Z</time>
      </trkpt>
      <trkpt lat="43.80242" lon="5.07399">
        <ele>84.950075</ele>
        <time>2021-09-17T07:27:30.000Z</time>
      </trkpt>
      <trkpt lat="43.80218" lon="5.07423">
        <ele>84.956787</ele>
        <time>2021-09-17T07:27:35.000Z</time>
      </trkpt>
      <trkpt lat="43.80214" lon="5.07429">
        <ele>84.958129</ele>
        <time>2021-09-17T07:27:36.000Z</time>
      </trkpt>
      <trkpt lat="43.80183" lon="5.07467">
        <ele>84.967614</ele>
        <time>2021-09-17T07:27:43.000Z</time>
      </trkpt>
      <trkpt lat="43.80149" lon="5.0751">
        <ele>85.083291</ele>
        <time>2021-09-17T07:27:51.000Z</time>
      </trkpt>
      <trkpt lat="43.80115" lon="5.07553">
        <ele>85.217411</ele>
        <time>2021-09-17T07:27:59.000Z</time>
      </trkpt>
      <trkpt lat="43.80075" lon="5.07602">
        <ele>85.373514</ele>
        <time>2021-09-17T07:28:08.000Z</time>
      </trkpt>
      <trkpt lat="43.80034" lon="5.07653">
        <ele>85.527154</ele>
        <time>2021-09-17T07:28:17.000Z</time>
      </trkpt>
      <trkpt lat="43.7999" lon="5.07709">
        <ele>85.675542</ele>
        <time>2021-09-17T07:28:27.000Z</time>
      </trkpt>
      <trkpt lat="43.7995" lon="5.07759">
        <ele>85.80905</ele>
        <time>2021-09-17T07:28:36.000Z</time>
      </trkpt>
      <trkpt lat="43.7991" lon="5.07808">
        <ele>85.94185</ele>
        <time>2021-09-17T07:28:45.000Z</time>
      </trkpt>
      <trkpt lat="43.79878" lon="5.07845">
        <ele>86.033978</ele>
        <time>2021-09-17T07:28:52.000Z</time>
      </trkpt>
      <trkpt lat="43.7984" lon="5.07888">
        <ele>86.140987</ele>
        <time>2021-09-17T07:29:00.000Z</time>
      </trkpt>
      <trkpt lat="43.79797" lon="5.07936">
        <ele>86.262118</ele>
        <time>2021-09-17T07:29:09.000Z</time>
      </trkpt>
      <trkpt lat="43.79792" lon="5.0794">
        <ele>86.275495</ele>
        <time>2021-09-17T07:29:10.000Z</time>
      </trkpt>
      <trkpt lat="43.79745" lon="5.0798">
        <ele>86.43598</ele>
        <time>2021-09-17T07:29:19.000Z</time>
      </trkpt>
      <trkpt lat="43.79693" lon="5.08019">
        <ele>86.647193</ele>
        <time>2021-09-17T07:29:29.000Z</time>
      </trkpt>
      <trkpt lat="43.79677" lon="5.08031">
        <ele>86.709611</ele>
        <time>2021-09-17T07:29:32.000Z</time>
      </trkpt>
      <trkpt lat="43.79631" lon="5.08066">
        <ele>86.896918</ele>
        <time>2021-09-17T07:29:41.000Z</time>
      </trkpt>
      <trkpt lat="43.79582" lon="5.08102">
        <ele>87.083252</ele>
        <time>2021-09-17T07:29:50.000Z</time>
      </trkpt>
      <trkpt lat="43.79529" lon="5.08139">
        <ele>87.27157</ele>
        <time>2021-09-17T07:29:59.000Z</time>
      </trkpt>
      <trkpt lat="43.79476" lon="5.08177">
        <ele>87.460276</ele>
        <time>2021-09-17T07:30:08.000Z</time>
      </trkpt>
      <trkpt lat="43.79471" lon="5.08181">
        <ele>87.480314</ele>
        <time>2021-09-17T07:30:09.000Z</time>
      </trkpt>
      <trkpt lat="43.79419" lon="5.08217">
        <ele>87.572856</ele>
        <time>2021-09-17T07:30:18.000Z</time>
      </trkpt>
      <trkpt lat="43.79413" lon="5.08221">
        <ele>87.576971</ele>
        <time>2021-09-17T07:30:19.000Z</time>
      </trkpt>
      <trkpt lat="43.79361" lon="5.08259">
        <ele>87.615495</ele>
        <time>2021-09-17T07:30:28.000Z</time>
      </trkpt>
      <trkpt lat="43.79322" lon="5.08289">
        <ele>87.644838</ele>
        <time>2021-09-17T07:30:35.000Z</time>
      </trkpt>
      <trkpt lat="43.79271" lon="5.08329">
        <ele>87.670841</ele>
        <time>2021-09-17T07:30:44.000Z</time>
      </trkpt>
      <trkpt lat="43.79259" lon="5.08338">
        <ele>87.672992</ele>
        <time>2021-09-17T07:30:46.000Z</time>
      </trkpt>
      <trkpt lat="43.79214" lon="5.08366">
        <ele>87.681317</ele>
        <time>2021-09-17T07:30:54.000Z</time>
      </trkpt>
      <trkpt lat="43.7916" lon="5.08395">
        <ele>87.691084</ele>
        <time>2021-09-17T07:31:03.000Z</time>
      </trkpt>
      <trkpt lat="43.79124" lon="5.08414">
        <ele>87.699828</ele>
        <time>2021-09-17T07:31:09.000Z</time>
      </trkpt>
      <trkpt lat="43.79074" lon="5.08439">
        <ele>87.737904</ele>
        <time>2021-09-17T07:31:17.000Z</time>
      </trkpt>
      <trkpt lat="43.79031" lon="5.08463">
        <ele>87.770807</ele>
        <time>2021-09-17T07:31:24.000Z</time>
      </trkpt>
      <trkpt lat="43.78992" lon="5.08491">
        <ele>87.801973</ele>
        <time>2021-09-17T07:31:31.000Z</time>
      </trkpt>
      <trkpt lat="43.78942" lon="5.0853">
        <ele>87.756808</ele>
        <time>2021-09-17T07:31:40.000Z</time>
      </trkpt>
      <trkpt lat="43.78936" lon="5.08534">
        <ele>87.739284</ele>
        <time>2021-09-17T07:31:41.000Z</time>
      </trkpt>
      <trkpt lat="43.78909" lon="5.08555">
        <ele>87.655657</ele>
        <time>2021-09-17T07:31:46.000Z</time>
      </trkpt>
      <trkpt lat="43.78899" lon="5.08563">
        <ele>87.62371</ele>
        <time>2021-09-17T07:31:48.000Z</time>
      </trkpt>
      <trkpt lat="43.78868" lon="5.08587">
        <ele>87.528103</ele>
        <time>2021-09-17T07:31:54.000Z</time>
      </trkpt>
      <trkpt lat="43.78835" lon="5.08612">
        <ele>87.428033</ele>
        <time>2021-09-17T07:32:00.000Z</time>
      </trkpt>
      <trkpt lat="43.7879" lon="5.08646">
        <ele>87.454674</ele>
        <time>2021-09-17T07:32:08.000Z</time>
      </trkpt>
      <trkpt lat="43.7874" lon="5.08686">
        <ele>87.801139</ele>
        <time>2021-09-17T07:32:17.000Z</time>
      </trkpt>
      <trkpt lat="43.78735" lon="5.0869">
        <ele>87.838723</ele>
        <time>2021-09-17T07:32:18.000Z</time>
      </trkpt>
      <trkpt lat="43.78695" lon="5.08733">
        <ele>88.137561</ele>
        <time>2021-09-17T07:32:26.000Z</time>
      </trkpt>
      <trkpt lat="43.78663" lon="5.08777">
        <ele>88.40612</ele>
        <time>2021-09-17T07:32:33.000Z</time>
      </trkpt>
      <trkpt lat="43.78624" lon="5.08833">
        <ele>88.81645</ele>
        <time>2021-09-17T07:32:42.000Z</time>
      </trkpt>
      <trkpt lat="43.78615" lon="5.08845">
        <ele>88.910574</ele>
        <time>2021-09-17T07:32:44.000Z</time>
      </trkpt>
      <trkpt lat="43.78576" lon="5.08901">
        <ele>89.319208</ele>
        <time>2021-09-17T07:32:53.000Z</time>
      </trkpt>
      <trkpt lat="43.78571" lon="5.08907">
        <ele>89.366082</ele>
        <time>2021-09-17T07:32:54.000Z</time>
      </trkpt>
      <trkpt lat="43.78532" lon="5.08962">
        <ele>89.798303</ele>
        <time>2021-09-17T07:33:03.000Z</time>
      </trkpt>
      <trkpt lat="43.78528" lon="5.08968">
        <ele>89.864424</ele>
        <time>2021-09-17T07:33:04.000Z</time>
      </trkpt>
      <trkpt lat="43.78489" lon="5.09023">
        <ele>90.459151</ele>
        <time>2021-09-17T07:33:13.000Z</time>
      </trkpt>
      <trkpt lat="43.78485" lon="5.09029">
        <ele>90.522106</ele>
        <time>2021-09-17T07:33:14.000Z</time>
      </trkpt>
      <trkpt lat="43.7845" lon="5.09085">
        <ele>91.093979</ele>
        <time>2021-09-17T07:33:23.000Z</time>
      </trkpt>
      <trkpt lat="43.78424" lon="5.09151">
        <ele>91.670015</ele>
        <time>2021-09-17T07:33:32.000Z</time>
      </trkpt>
      <trkpt lat="43.78401" lon="5.09211">
        <ele>91.807307</ele>
        <time>2021-09-17T07:33:40.000Z</time>
      </trkpt>
      <trkpt lat="43.78379" lon="5.09269">
        <ele>91.940452</ele>
        <time>2021-09-17T07:33:48.000Z</time>
      </trkpt>
      <trkpt lat="43.78358" lon="5.09326">
        <ele>92.069451</ele>
        <time>2021-09-17T07:33:56.000Z</time>
      </trkpt>
      <trkpt lat="43.78332" lon="5.09394">
        <ele>92.146579</ele>
        <time>2021-09-17T07:34:05.000Z</time>
      </trkpt>
      <trkpt lat="43.7833" lon="5.09401">
        <ele>92.138488</ele>
        <time>2021-09-17T07:34:06.000Z</time>
      </trkpt>
      <trkpt lat="43.78303" lon="5.09471">
        <ele>92.063425</ele>
        <time>2021-09-17T07:34:15.000Z</time>
      </trkpt>
      <trkpt lat="43.78277" lon="5.09542">
        <ele>91.987819</ele>
        <time>2021-09-17T07:34:24.000Z</time>
      </trkpt>
      <trkpt lat="43.78246" lon="5.09605">
        <ele>92.036896</ele>
        <time>2021-09-17T07:34:33.000Z</time>
      </trkpt>
      <trkpt lat="43.7822" lon="5.09652">
        <ele>92.326927</ele>
        <time>2021-09-17T07:34:40.000Z</time>
      </trkpt>
      <trkpt lat="43.7819" lon="5.09705">
        <ele>92.653936</ele>
        <time>2021-09-17T07:34:48.000Z</time>
      </trkpt>
      <trkpt lat="43.78166" lon="5.09748">
        <ele>92.918899</ele>
        <time>2021-09-17T07:34:55.000Z</time>
      </trkpt>
      <trkpt lat="43.78142" lon="5.09804">
        <ele>93.233232</ele>
        <time>2021-09-17T07:35:03.000Z</time>
      </trkpt>
      <trkpt lat="43.78116" lon="5.09875">
        <ele>93.608584</ele>
        <time>2021-09-17T07:35:12.000Z</time>
      </trkpt>
      <trkpt lat="43.78097" lon="5.09954">
        <ele>94.000375</ele>
        <time>2021-09-17T07:35:21.000Z</time>
      </trkpt>
      <trkpt lat="43.78086" lon="5.10017">
        <ele>94.306937</ele>
        <time>2021-09-17T07:35:28.000Z</time>
      </trkpt>
      <trkpt lat="43.78074" lon="5.1008">
        <ele>94.528887</ele>
        <time>2021-09-17T07:35:35.000Z</time>
      </trkpt>
      <trkpt lat="43.78061" lon="5.10161">
        <ele>94.805514</ele>
        <time>2021-09-17T07:35:44.000Z</time>
      </trkpt>
      <trkpt lat="43.78059" lon="5.10169">
        <ele>94.835673</ele>
        <time>2021-09-17T07:35:45.000Z</time>
      </trkpt>
      <trkpt lat="43.78047" lon="5.1024">
        <ele>95.077815</ele>
        <time>2021-09-17T07:35:53.000Z</time>
      </trkpt>
      <trkpt lat="43.78034" lon="5.10317">
        <ele>95.448749</ele>
        <time>2021-09-17T07:36:02.000Z</time>
      </trkpt>
      <trkpt lat="43.78031" lon="5.10334">
        <ele>95.542502</ele>
        <time>2021-09-17T07:36:04.000Z</time>
      </trkpt>
      <trkpt lat="43.78021" lon="5.10392">
        <ele>95.852963</ele>
        <time>2021-09-17T07:36:11.000Z</time>
      </trkpt>
      <trkpt lat="43.78011" lon="5.10441">
        <ele>96.12171</ele>
        <time>2021-09-17T07:36:17.000Z</time>
      </trkpt>
      <trkpt lat="43.78001" lon="5.10493">
        <ele>96.407877</ele>
        <time>2021-09-17T07:36:24.000Z</time>
      </trkpt>
      <trkpt lat="43.77998" lon="5.10508">
        <ele>96.482814</ele>
        <time>2021-09-17T07:36:26.000Z</time>
      </trkpt>
      <trkpt lat="43.77995" lon="5.10528">
        <ele>96.573617</ele>
        <time>2021-09-17T07:36:29.000Z</time>
      </trkpt>
      <trkpt lat="43.77992" lon="5.10541">
        <ele>96.634294</ele>
        <time>2021-09-17T07:36:31.000Z</time>
      </trkpt>
      <trkpt lat="43.7799" lon="5.10554">
        <ele>96.693851</ele>
        <time>2021-09-17T07:36:33.000Z</time>
      </trkpt>
      <trkpt lat="43.77987" lon="5.10568">
        <ele>96.755944</ele>
        <time>2021-09-17T07:36:35.000Z</time>
      </trkpt>
      <trkpt lat="43.77986" lon="5.10575">
        <ele>96.787066</ele>
        <time>2021-09-17T07:36:36.000Z</time>
      </trkpt>
      <trkpt lat="43.77977" lon="5.10622">
        <ele>96.999068</ele>
        <time>2021-09-17T07:36:42.000Z</time>
      </trkpt>
      <trkpt lat="43.7796" lon="5.10674">
        <ele>97.249199</ele>
        <time>2021-09-17T07:36:49.000Z</time>
      </trkpt>
      <trkpt lat="43.7794" lon="5.10726">
        <ele>97.502886</ele>
        <time>2021-09-17T07:36:56.000Z</time>
      </trkpt>
      <trkpt lat="43.77913" lon="5.10783">
        <ele>97.335238</ele>
        <time>2021-09-17T07:37:04.000Z</time>
      </trkpt>
      <trkpt lat="43.77884" lon="5.10832">
        <ele>97.08874</ele>
        <time>2021-09-17T07:37:11.000Z</time>
      </trkpt>
      <trkpt lat="43.77856" lon="5.10881">
        <ele>96.840023</ele>
        <time>2021-09-17T07:37:18.000Z</time>
      </trkpt>
      <trkpt lat="43.77821" lon="5.10937">
        <ele>96.600768</ele>
        <time>2021-09-17T07:37:26.000Z</time>
      </trkpt>
      <trkpt lat="43.7778" lon="5.1098">
        <ele>96.847448</ele>
        <time>2021-09-17T07:37:34.000Z</time>
      </trkpt>
      <trkpt lat="43.77741" lon="5.1101">
        <ele>97.064383</ele>
        <time>2021-09-17T07:37:41.000Z</time>
      </trkpt>
      <trkpt lat="43.77688" lon="5.11043">
        <ele>97.345727</ele>
        <time>2021-09-17T07:37:50.000Z</time>
      </trkpt>
      <trkpt lat="43.77676" lon="5.1105">
        <ele>97.407196</ele>
        <time>2021-09-17T07:37:52.000Z</time>
      </trkpt>
      <trkpt lat="43.77623" lon="5.11082">
        <ele>97.747974</ele>
        <time>2021-09-17T07:38:01.000Z</time>
      </trkpt>
      <trkpt lat="43.77573" lon="5.11114">
        <ele>98.083655</ele>
        <time>2021-09-17T07:38:09.000Z</time>
      </trkpt>
      <trkpt lat="43.77524" lon="5.11146">
        <ele>98.40979</ele>
        <time>2021-09-17T07:38:17.000Z</time>
      </trkpt>
      <trkpt lat="43.77476" lon="5.1118">
        <ele>98.738572</ele>
        <time>2021-09-17T07:38:26.000Z</time>
      </trkpt>
      <trkpt lat="43.77445" lon="5.11207">
        <ele>98.957287</ele>
        <time>2021-09-17T07:38:32.000Z</time>
      </trkpt>
      <trkpt lat="43.774" lon="5.11249">
        <ele>99.284326</ele>
        <time>2021-09-17T07:38:40.000Z</time>
      </trkpt>
      <trkpt lat="43.77373" lon="5.11276">
        <ele>99.487505</ele>
        <time>2021-09-17T07:38:45.000Z</time>
      </trkpt>
      <trkpt lat="43.77331" lon="5.11318">
        <ele>99.78679</ele>
        <time>2021-09-17T07:38:53.000Z</time>
      </trkpt>
      <trkpt lat="43.77297" lon="5.11358">
        <ele>100.045523</ele>
        <time>2021-09-17T07:39:00.000Z</time>
      </trkpt>
      <trkpt lat="43.7727" lon="5.11404">
        <ele>100.293777</ele>
        <time>2021-09-17T07:39:07.000Z</time>
      </trkpt>
      <trkpt lat="43.77237" lon="5.11472">
        <ele>100.631893</ele>
        <time>2021-09-17T07:39:16.000Z</time>
      </trkpt>
      <trkpt lat="43.77204" lon="5.11539">
        <ele>100.716075</ele>
        <time>2021-09-17T07:39:24.000Z</time>
      </trkpt>
      <trkpt lat="43.7717" lon="5.11608">
        <ele>100.782574</ele>
        <time>2021-09-17T07:39:32.000Z</time>
      </trkpt>
      <trkpt lat="43.77161" lon="5.11625">
        <ele>100.799281</ele>
        <time>2021-09-17T07:39:34.000Z</time>
      </trkpt>
      <trkpt lat="43.77129" lon="5.11692">
        <ele>100.811509</ele>
        <time>2021-09-17T07:39:42.000Z</time>
      </trkpt>
      <trkpt lat="43.77098" lon="5.11754">
        <ele>100.539147</ele>
        <time>2021-09-17T07:39:50.000Z</time>
      </trkpt>
      <trkpt lat="43.77094" lon="5.11762">
        <ele>100.50352</ele>
        <time>2021-09-17T07:39:51.000Z</time>
      </trkpt>
      <trkpt lat="43.77064" lon="5.11824">
        <ele>100.229691</ele>
        <time>2021-09-17T07:39:59.000Z</time>
      </trkpt>
      <trkpt lat="43.77041" lon="5.11871">
        <ele>100.02563</ele>
        <time>2021-09-17T07:40:05.000Z</time>
      </trkpt>
      <trkpt lat="43.77021" lon="5.1191">
        <ele>99.951161</ele>
        <time>2021-09-17T07:40:10.000Z</time>
      </trkpt>
      <trkpt lat="43.7699" lon="5.11974">
        <ele>99.955468</ele>
        <time>2021-09-17T07:40:18.000Z</time>
      </trkpt>
      <trkpt lat="43.76986" lon="5.11981">
        <ele>99.956006</ele>
        <time>2021-09-17T07:40:19.000Z</time>
      </trkpt>
      <trkpt lat="43.76952" lon="5.1205">
        <ele>99.960673</ele>
        <time>2021-09-17T07:40:28.000Z</time>
      </trkpt>
      <trkpt lat="43.76949" lon="5.12057">
        <ele>99.961166</ele>
        <time>2021-09-17T07:40:29.000Z</time>
      </trkpt>
      <trkpt lat="43.76923" lon="5.12109">
        <ele>100.104977</ele>
        <time>2021-09-17T07:40:37.000Z</time>
      </trkpt>
      <trkpt lat="43.76904" lon="5.12148">
        <ele>100.4682</ele>
        <time>2021-09-17T07:40:44.000Z</time>
      </trkpt>
      <trkpt lat="43.76877" lon="5.12203">
        <ele>100.983567</ele>
        <time>2021-09-17T07:40:55.000Z</time>
      </trkpt>
      <trkpt lat="43.76859" lon="5.12238">
        <ele>101.317893</ele>
        <time>2021-09-17T07:41:02.000Z</time>
      </trkpt>
      <trkpt lat="43.7684" lon="5.12276">
        <ele>101.671616</ele>
        <time>2021-09-17T07:41:09.000Z</time>
      </trkpt>
      <trkpt lat="43.76835" lon="5.12287">
        <ele>101.776839</ele>
        <time>2021-09-17T07:41:11.000Z</time>
      </trkpt>
      <trkpt lat="43.76811" lon="5.12336">
        <ele>101.952249</ele>
        <time>2021-09-17T07:41:19.000Z</time>
      </trkpt>
      <trkpt lat="43.76782" lon="5.12387">
        <ele>102.045564</ele>
        <time>2021-09-17T07:41:27.000Z</time>
      </trkpt>
      <trkpt lat="43.76746" lon="5.12438">
        <ele>102.149618</ele>
        <time>2021-09-17T07:41:36.000Z</time>
      </trkpt>
      <trkpt lat="43.76712" lon="5.12483">
        <ele>102.242674</ele>
        <time>2021-09-17T07:41:44.000Z</time>
      </trkpt>
      <trkpt lat="43.767" lon="5.12499">
        <ele>102.2341</ele>
        <time>2021-09-17T07:41:47.000Z</time>
      </trkpt>
      <trkpt lat="43.76687" lon="5.12516">
        <ele>102.217773</ele>
        <time>2021-09-17T07:41:50.000Z</time>
      </trkpt>
      <trkpt lat="43.76652" lon="5.12561">
        <ele>102.172988</ele>
        <time>2021-09-17T07:41:58.000Z</time>
      </trkpt>
      <trkpt lat="43.76616" lon="5.12609">
        <ele>102.126673</ele>
        <time>2021-09-17T07:42:05.000Z</time>
      </trkpt>
      <trkpt lat="43.76573" lon="5.12665">
        <ele>102.112337</ele>
        <time>2021-09-17T07:42:13.000Z</time>
      </trkpt>
      <trkpt lat="43.76562" lon="5.1268">
        <ele>102.162156</ele>
        <time>2021-09-17T07:42:15.000Z</time>
      </trkpt>
      <trkpt lat="43.76518" lon="5.12737">
        <ele>102.362573</ele>
        <time>2021-09-17T07:42:23.000Z</time>
      </trkpt>
      <trkpt lat="43.76513" lon="5.12744">
        <ele>102.38728</ele>
        <time>2021-09-17T07:42:24.000Z</time>
      </trkpt>
      <trkpt lat="43.7647" lon="5.128">
        <ele>102.581194</ele>
        <time>2021-09-17T07:42:32.000Z</time>
      </trkpt>
      <trkpt lat="43.76465" lon="5.12807">
        <ele>102.604114</ele>
        <time>2021-09-17T07:42:33.000Z</time>
      </trkpt>
      <trkpt lat="43.76432" lon="5.12854">
        <ele>102.782619</ele>
        <time>2021-09-17T07:42:40.000Z</time>
      </trkpt>
      <trkpt lat="43.76399" lon="5.12909">
        <ele>102.99489</ele>
        <time>2021-09-17T07:42:47.000Z</time>
      </trkpt>
      <trkpt lat="43.76362" lon="5.12973">
        <ele>103.23477</ele>
        <time>2021-09-17T07:42:54.000Z</time>
      </trkpt>
      <trkpt lat="43.76357" lon="5.12982">
        <ele>103.269284</ele>
        <time>2021-09-17T07:42:55.000Z</time>
      </trkpt>
      <trkpt lat="43.7632" lon="5.13044">
        <ele>103.451396</ele>
        <time>2021-09-17T07:43:02.000Z</time>
      </trkpt>
      <trkpt lat="43.76316" lon="5.13052">
        <ele>103.464404</ele>
        <time>2021-09-17T07:43:03.000Z</time>
      </trkpt>
      <trkpt lat="43.76278" lon="5.13117">
        <ele>103.566441</ele>
        <time>2021-09-17T07:43:11.000Z</time>
      </trkpt>
      <trkpt lat="43.76264" lon="5.13141">
        <ele>103.603959</ele>
        <time>2021-09-17T07:43:14.000Z</time>
      </trkpt>
      <trkpt lat="43.76238" lon="5.13186">
        <ele>103.675184</ele>
        <time>2021-09-17T07:43:20.000Z</time>
      </trkpt>
      <trkpt lat="43.76226" lon="5.13208">
        <ele>103.709595</ele>
        <time>2021-09-17T07:43:23.000Z</time>
      </trkpt>
      <trkpt lat="43.76217" lon="5.13222">
        <ele>103.751183</ele>
        <time>2021-09-17T07:43:25.000Z</time>
      </trkpt>
      <trkpt lat="43.7618" lon="5.13284">
        <ele>103.991115</ele>
        <time>2021-09-17T07:43:34.000Z</time>
      </trkpt>
      <trkpt lat="43.76172" lon="5.13298">
        <ele>104.042389</ele>
        <time>2021-09-17T07:43:36.000Z</time>
      </trkpt>
      <trkpt lat="43.76146" lon="5.13342">
        <ele>104.215073</ele>
        <time>2021-09-17T07:43:43.000Z</time>
      </trkpt>
      <trkpt lat="43.76114" lon="5.13396">
        <ele>104.421986</ele>
        <time>2021-09-17T07:43:52.000Z</time>
      </trkpt>
      <trkpt lat="43.76082" lon="5.13461">
        <ele>104.590036</ele>
        <time>2021-09-17T07:44:02.000Z</time>
      </trkpt>
      <trkpt lat="43.76056" lon="5.13524">
        <ele>104.731104</ele>
        <time>2021-09-17T07:44:11.000Z</time>
      </trkpt>
      <trkpt lat="43.76049" lon="5.13545">
        <ele>104.776561</ele>
        <time>2021-09-17T07:44:14.000Z</time>
      </trkpt>
      <trkpt lat="43.76045" lon="5.13559">
        <ele>104.807311</ele>
        <time>2021-09-17T07:44:16.000Z</time>
      </trkpt>
      <trkpt lat="43.76038" lon="5.13581">
        <ele>104.853417</ele>
        <time>2021-09-17T07:44:19.000Z</time>
      </trkpt>
      <trkpt lat="43.76033" lon="5.13595">
        <ele>104.884707</ele>
        <time>2021-09-17T07:44:21.000Z</time>
      </trkpt>
      <trkpt lat="43.76031" lon="5.13603">
        <ele>104.900641</ele>
        <time>2021-09-17T07:44:22.000Z</time>
      </trkpt>
      <trkpt lat="43.76022" lon="5.13633">
        <ele>104.964298</ele>
        <time>2021-09-17T07:44:26.000Z</time>
      </trkpt>
      <trkpt lat="43.76004" lon="5.13697">
        <ele>105.093919</ele>
        <time>2021-09-17T07:44:34.000Z</time>
      </trkpt>
      <trkpt lat="43.75988" lon="5.13756">
        <ele>105.213447</ele>
        <time>2021-09-17T07:44:41.000Z</time>
      </trkpt>
      <trkpt lat="43.75969" lon="5.1383">
        <ele>105.360028</ele>
        <time>2021-09-17T07:44:49.000Z</time>
      </trkpt>
      <trkpt lat="43.75947" lon="5.13907">
        <ele>105.578322</ele>
        <time>2021-09-17T07:44:57.000Z</time>
      </trkpt>
      <trkpt lat="43.75942" lon="5.13927">
        <ele>105.643203</ele>
        <time>2021-09-17T07:44:59.000Z</time>
      </trkpt>
      <trkpt lat="43.75919" lon="5.14006">
        <ele>105.906246</ele>
        <time>2021-09-17T07:45:07.000Z</time>
      </trkpt>
      <trkpt lat="43.75911" lon="5.14036">
        <ele>106.005393</ele>
        <time>2021-09-17T07:45:10.000Z</time>
      </trkpt>
      <trkpt lat="43.75897" lon="5.14085">
        <ele>106.170308</ele>
        <time>2021-09-17T07:45:15.000Z</time>
      </trkpt>
      <trkpt lat="43.75894" lon="5.14096">
        <ele>106.202162</ele>
        <time>2021-09-17T07:45:16.000Z</time>
      </trkpt>
      <trkpt lat="43.75891" lon="5.14106">
        <ele>106.231702</ele>
        <time>2021-09-17T07:45:17.000Z</time>
      </trkpt>
      <trkpt lat="43.75878" lon="5.14149">
        <ele>106.352692</ele>
        <time>2021-09-17T07:45:21.000Z</time>
      </trkpt>
      <trkpt lat="43.75857" lon="5.14222">
        <ele>106.558497</ele>
        <time>2021-09-17T07:45:28.000Z</time>
      </trkpt>
      <trkpt lat="43.75855" lon="5.14233">
        <ele>106.58693</ele>
        <time>2021-09-17T07:45:29.000Z</time>
      </trkpt>
      <trkpt lat="43.7584" lon="5.14283">
        <ele>106.728261</ele>
        <time>2021-09-17T07:45:34.000Z</time>
      </trkpt>
      <trkpt lat="43.75819" lon="5.14353">
        <ele>106.932837</ele>
        <time>2021-09-17T07:45:41.000Z</time>
      </trkpt>
      <trkpt lat="43.75799" lon="5.14424">
        <ele>107.141742</ele>
        <time>2021-09-17T07:45:48.000Z</time>
      </trkpt>
      <trkpt lat="43.75793" lon="5.14444">
        <ele>107.201499</ele>
        <time>2021-09-17T07:45:50.000Z</time>
      </trkpt>
      <trkpt lat="43.75773" lon="5.14513">
        <ele>107.406248</ele>
        <time>2021-09-17T07:45:57.000Z</time>
      </trkpt>
      <trkpt lat="43.75751" lon="5.1459">
        <ele>107.684444</ele>
        <time>2021-09-17T07:46:05.000Z</time>
      </trkpt>
      <trkpt lat="43.75748" lon="5.146">
        <ele>107.725872</ele>
        <time>2021-09-17T07:46:06.000Z</time>
      </trkpt>
      <trkpt lat="43.75729" lon="5.14665">
        <ele>108.004131</ele>
        <time>2021-09-17T07:46:13.000Z</time>
      </trkpt>
      <trkpt lat="43.75709" lon="5.14734">
        <ele>108.300876</ele>
        <time>2021-09-17T07:46:21.000Z</time>
      </trkpt>
      <trkpt lat="43.75706" lon="5.14742">
        <ele>108.336333</ele>
        <time>2021-09-17T07:46:22.000Z</time>
      </trkpt>
      <trkpt lat="43.75683" lon="5.14818">
        <ele>108.652127</ele>
        <time>2021-09-17T07:46:31.000Z</time>
      </trkpt>
      <trkpt lat="43.75681" lon="5.14827">
        <ele>108.685537</ele>
        <time>2021-09-17T07:46:32.000Z</time>
      </trkpt>
      <trkpt lat="43.75659" lon="5.14896">
        <ele>108.964989</ele>
        <time>2021-09-17T07:46:40.000Z</time>
      </trkpt>
      <trkpt lat="43.75656" lon="5.14905">
        <ele>108.998791</ele>
        <time>2021-09-17T07:46:41.000Z</time>
      </trkpt>
      <trkpt lat="43.75638" lon="5.14955">
        <ele>109.20489</ele>
        <time>2021-09-17T07:46:47.000Z</time>
      </trkpt>
      <trkpt lat="43.75615" lon="5.15023">
        <ele>109.468816</ele>
        <time>2021-09-17T07:46:55.000Z</time>
      </trkpt>
      <trkpt lat="43.75612" lon="5.15032">
        <ele>109.494315</ele>
        <time>2021-09-17T07:46:56.000Z</time>
      </trkpt>
      <trkpt lat="43.75591" lon="5.15094">
        <ele>109.676778</ele>
        <time>2021-09-17T07:47:03.000Z</time>
      </trkpt>
      <trkpt lat="43.75581" lon="5.15158">
        <ele>109.854938</ele>
        <time>2021-09-17T07:47:10.000Z</time>
      </trkpt>
      <trkpt lat="43.75579" lon="5.15186">
        <ele>109.930264</ele>
        <time>2021-09-17T07:47:13.000Z</time>
      </trkpt>
      <trkpt lat="43.75581" lon="5.15214">
        <ele>110.004717</ele>
        <time>2021-09-17T07:47:16.000Z</time>
      </trkpt>
      <trkpt lat="43.75589" lon="5.15268">
        <ele>110.157387</ele>
        <time>2021-09-17T07:47:22.000Z</time>
      </trkpt>
      <trkpt lat="43.75601" lon="5.15324">
        <ele>110.327815</ele>
        <time>2021-09-17T07:47:29.000Z</time>
      </trkpt>
      <trkpt lat="43.75604" lon="5.15339">
        <ele>110.372975</ele>
        <time>2021-09-17T07:47:31.000Z</time>
      </trkpt>
      <trkpt lat="43.75608" lon="5.15362">
        <ele>110.444838</ele>
        <time>2021-09-17T07:47:34.000Z</time>
      </trkpt>
      <trkpt lat="43.7561" lon="5.1537">
        <ele>110.469073</ele>
        <time>2021-09-17T07:47:35.000Z</time>
      </trkpt>
      <trkpt lat="43.75613" lon="5.15387">
        <ele>110.518215</ele>
        <time>2021-09-17T07:47:37.000Z</time>
      </trkpt>
      <trkpt lat="43.7562" lon="5.15419">
        <ele>110.615547</ele>
        <time>2021-09-17T07:47:41.000Z</time>
      </trkpt>
      <trkpt lat="43.75621" lon="5.15426">
        <ele>110.638379</ele>
        <time>2021-09-17T07:47:42.000Z</time>
      </trkpt>
      <trkpt lat="43.75626" lon="5.15451">
        <ele>110.713833</ele>
        <time>2021-09-17T07:47:45.000Z</time>
      </trkpt>
      <trkpt lat="43.7563" lon="5.15468">
        <ele>110.765723</ele>
        <time>2021-09-17T07:47:47.000Z</time>
      </trkpt>
      <trkpt lat="43.75633" lon="5.15485">
        <ele>110.817614</ele>
        <time>2021-09-17T07:47:49.000Z</time>
      </trkpt>
      <trkpt lat="43.75637" lon="5.15502">
        <ele>110.901608</ele>
        <time>2021-09-17T07:47:51.000Z</time>
      </trkpt>
      <trkpt lat="43.75653" lon="5.15582">
        <ele>111.32828</ele>
        <time>2021-09-17T07:48:00.000Z</time>
      </trkpt>
      <trkpt lat="43.75662" lon="5.15635">
        <ele>111.609133</ele>
        <time>2021-09-17T07:48:06.000Z</time>
      </trkpt>
      <trkpt lat="43.75664" lon="5.15652">
        <ele>111.702177</ele>
        <time>2021-09-17T07:48:08.000Z</time>
      </trkpt>
      <trkpt lat="43.75666" lon="5.1567">
        <ele>111.795999</ele>
        <time>2021-09-17T07:48:10.000Z</time>
      </trkpt>
      <trkpt lat="43.75665" lon="5.15722">
        <ele>112.062004</ele>
        <time>2021-09-17T07:48:16.000Z</time>
      </trkpt>
      <trkpt lat="43.75658" lon="5.15768">
        <ele>112.210121</ele>
        <time>2021-09-17T07:48:21.000Z</time>
      </trkpt>
      <trkpt lat="43.75655" lon="5.15777">
        <ele>112.235367</ele>
        <time>2021-09-17T07:48:22.000Z</time>
      </trkpt>
      <trkpt lat="43.7564" lon="5.15829">
        <ele>112.379192</ele>
        <time>2021-09-17T07:48:28.000Z</time>
      </trkpt>
      <trkpt lat="43.75621" lon="5.15891">
        <ele>112.551751</ele>
        <time>2021-09-17T07:48:35.000Z</time>
      </trkpt>
      <trkpt lat="43.75603" lon="5.1595">
        <ele>112.717226</ele>
        <time>2021-09-17T07:48:42.000Z</time>
      </trkpt>
      <trkpt lat="43.75586" lon="5.1601">
        <ele>112.844606</ele>
        <time>2021-09-17T07:48:49.000Z</time>
      </trkpt>
      <trkpt lat="43.75565" lon="5.16081">
        <ele>112.981082</ele>
        <time>2021-09-17T07:48:57.000Z</time>
      </trkpt>
      <trkpt lat="43.75563" lon="5.1609">
        <ele>112.998416</ele>
        <time>2021-09-17T07:48:58.000Z</time>
      </trkpt>
      <trkpt lat="43.75547" lon="5.16163">
        <ele>113.136022</ele>
        <time>2021-09-17T07:49:06.000Z</time>
      </trkpt>
      <trkpt lat="43.75541" lon="5.16232">
        <ele>113.236037</ele>
        <time>2021-09-17T07:49:13.000Z</time>
      </trkpt>
      <trkpt lat="43.75535" lon="5.16312">
        <ele>113.321168</ele>
        <time>2021-09-17T07:49:21.000Z</time>
      </trkpt>
      <trkpt lat="43.75529" lon="5.16393">
        <ele>113.407895</ele>
        <time>2021-09-17T07:49:29.000Z</time>
      </trkpt>
      <trkpt lat="43.75524" lon="5.16475">
        <ele>113.493322</ele>
        <time>2021-09-17T07:49:37.000Z</time>
      </trkpt>
      <trkpt lat="43.75521" lon="5.16505">
        <ele>113.523487</ele>
        <time>2021-09-17T07:49:40.000Z</time>
      </trkpt>
      <trkpt lat="43.75516" lon="5.16585">
        <ele>113.603435</ele>
        <time>2021-09-17T07:49:48.000Z</time>
      </trkpt>
      <trkpt lat="43.75515" lon="5.16595">
        <ele>113.613345</ele>
        <time>2021-09-17T07:49:49.000Z</time>
      </trkpt>
      <trkpt lat="43.7551" lon="5.16677">
        <ele>113.695988</ele>
        <time>2021-09-17T07:49:57.000Z</time>
      </trkpt>
      <trkpt lat="43.75509" lon="5.16698">
        <ele>113.717424</ele>
        <time>2021-09-17T07:49:59.000Z</time>
      </trkpt>
      <trkpt lat="43.75503" lon="5.16779">
        <ele>113.807833</ele>
        <time>2021-09-17T07:50:07.000Z</time>
      </trkpt>
      <trkpt lat="43.75498" lon="5.1686">
        <ele>113.89902</ele>
        <time>2021-09-17T07:50:15.000Z</time>
      </trkpt>
      <trkpt lat="43.75493" lon="5.16938">
        <ele>113.985749</ele>
        <time>2021-09-17T07:50:23.000Z</time>
      </trkpt>
      <trkpt lat="43.75492" lon="5.16957">
        <ele>114.000749</ele>
        <time>2021-09-17T07:50:25.000Z</time>
      </trkpt>
      <trkpt lat="43.75487" lon="5.17031">
        <ele>114.050106</ele>
        <time>2021-09-17T07:50:33.000Z</time>
      </trkpt>
      <trkpt lat="43.75483" lon="5.17088">
        <ele>114.088301</ele>
        <time>2021-09-17T07:50:39.000Z</time>
      </trkpt>
      <trkpt lat="43.75477" lon="5.17167">
        <ele>114.14103</ele>
        <time>2021-09-17T07:50:47.000Z</time>
      </trkpt>
      <trkpt lat="43.75477" lon="5.17177">
        <ele>114.147712</ele>
        <time>2021-09-17T07:50:48.000Z</time>
      </trkpt>
      <trkpt lat="43.75471" lon="5.17259">
        <ele>114.189507</ele>
        <time>2021-09-17T07:50:56.000Z</time>
      </trkpt>
      <trkpt lat="43.7547" lon="5.1728">
        <ele>114.199317</ele>
        <time>2021-09-17T07:50:58.000Z</time>
      </trkpt>
      <trkpt lat="43.75464" lon="5.17364">
        <ele>114.239188</ele>
        <time>2021-09-17T07:51:06.000Z</time>
      </trkpt>
      <trkpt lat="43.75464" lon="5.17374">
        <ele>114.244073</ele>
        <time>2021-09-17T07:51:07.000Z</time>
      </trkpt>
      <trkpt lat="43.75458" lon="5.17458">
        <ele>114.298684</ele>
        <time>2021-09-17T07:51:15.000Z</time>
      </trkpt>
      <trkpt lat="43.75458" lon="5.17468">
        <ele>114.312243</ele>
        <time>2021-09-17T07:51:16.000Z</time>
      </trkpt>
      <trkpt lat="43.75452" lon="5.17552">
        <ele>114.417919</ele>
        <time>2021-09-17T07:51:24.000Z</time>
      </trkpt>
      <trkpt lat="43.75447" lon="5.17625">
        <ele>114.510932</ele>
        <time>2021-09-17T07:51:32.000Z</time>
      </trkpt>
      <trkpt lat="43.75443" lon="5.17689">
        <ele>114.594003</ele>
        <time>2021-09-17T07:51:39.000Z</time>
      </trkpt>
      <trkpt lat="43.75438" lon="5.17772">
        <ele>114.790004</ele>
        <time>2021-09-17T07:51:48.000Z</time>
      </trkpt>
      <trkpt lat="43.75437" lon="5.1778">
        <ele>114.810633</ele>
        <time>2021-09-17T07:51:49.000Z</time>
      </trkpt>
      <trkpt lat="43.75433" lon="5.17845">
        <ele>114.96541</ele>
        <time>2021-09-17T07:51:57.000Z</time>
      </trkpt>
      <trkpt lat="43.75428" lon="5.1791">
        <ele>115.118938</ele>
        <time>2021-09-17T07:52:05.000Z</time>
      </trkpt>
      <trkpt lat="43.75424" lon="5.17966">
        <ele>115.394784</ele>
        <time>2021-09-17T07:52:12.000Z</time>
      </trkpt>
      <trkpt lat="43.75419" lon="5.18019">
        <ele>115.759242</ele>
        <time>2021-09-17T07:52:19.000Z</time>
      </trkpt>
      <trkpt lat="43.75413" lon="5.18064">
        <ele>116.074544</ele>
        <time>2021-09-17T07:52:26.000Z</time>
      </trkpt>
      <trkpt lat="43.75408" lon="5.18081">
        <ele>116.199441</ele>
        <time>2021-09-17T07:52:29.000Z</time>
      </trkpt>
      <trkpt lat="43.75405" lon="5.18086">
        <ele>116.247888</ele>
        <time>2021-09-17T07:52:30.000Z</time>
      </trkpt>
      <trkpt lat="43.75389" lon="5.18096">
        <ele>116.411921</ele>
        <time>2021-09-17T07:52:34.000Z</time>
      </trkpt>
      <trkpt lat="43.7538" lon="5.18098">
        <ele>116.496944</ele>
        <time>2021-09-17T07:52:36.000Z</time>
      </trkpt>
      <trkpt lat="43.75345" lon="5.18095">
        <ele>116.834921</ele>
        <time>2021-09-17T07:52:43.000Z</time>
      </trkpt>
      <trkpt lat="43.75296" lon="5.1809">
        <ele>117.032143</ele>
        <time>2021-09-17T07:52:52.000Z</time>
      </trkpt>
      <trkpt lat="43.75274" lon="5.18091">
        <ele>117.102794</ele>
        <time>2021-09-17T07:52:56.000Z</time>
      </trkpt>
      <trkpt lat="43.75263" lon="5.18094">
        <ele>117.140878</ele>
        <time>2021-09-17T07:52:58.000Z</time>
      </trkpt>
      <trkpt lat="43.75224" lon="5.18113">
        <ele>117.276989</ele>
        <time>2021-09-17T07:53:05.000Z</time>
      </trkpt>
      <trkpt lat="43.75184" lon="5.18137">
        <ele>117.422017</ele>
        <time>2021-09-17T07:53:12.000Z</time>
      </trkpt>
      <trkpt lat="43.75136" lon="5.18164">
        <ele>117.559559</ele>
        <time>2021-09-17T07:53:20.000Z</time>
      </trkpt>
      <trkpt lat="43.75087" lon="5.18185">
        <ele>117.677938</ele>
        <time>2021-09-17T07:53:28.000Z</time>
      </trkpt>
      <trkpt lat="43.75039" lon="5.18196">
        <ele>117.792625</ele>
        <time>2021-09-17T07:53:36.000Z</time>
      </trkpt>
      <trkpt lat="43.74986" lon="5.18198">
        <ele>117.918543</ele>
        <time>2021-09-17T07:53:45.000Z</time>
      </trkpt>
      <trkpt lat="43.7494" lon="5.18191">
        <ele>118.045389</ele>
        <time>2021-09-17T07:53:53.000Z</time>
      </trkpt>
      <trkpt lat="43.74901" lon="5.1818">
        <ele>118.154345</ele>
        <time>2021-09-17T07:54:00.000Z</time>
      </trkpt>
      <trkpt lat="43.74876" lon="5.18169">
        <ele>118.22648</ele>
        <time>2021-09-17T07:54:05.000Z</time>
      </trkpt>
      <trkpt lat="43.74871" lon="5.18166">
        <ele>118.241681</ele>
        <time>2021-09-17T07:54:06.000Z</time>
      </trkpt>
      <trkpt lat="43.74824" lon="5.18136">
        <ele>118.383412</ele>
        <time>2021-09-17T07:54:15.000Z</time>
      </trkpt>
      <trkpt lat="43.74783" lon="5.18105">
        <ele>118.442817</ele>
        <time>2021-09-17T07:54:23.000Z</time>
      </trkpt>
      <trkpt lat="43.74737" lon="5.18071">
        <ele>118.503209</ele>
        <time>2021-09-17T07:54:32.000Z</time>
      </trkpt>
      <trkpt lat="43.74696" lon="5.1804">
        <ele>118.557511</ele>
        <time>2021-09-17T07:54:40.000Z</time>
      </trkpt>
      <trkpt lat="43.74644" lon="5.18001">
        <ele>118.627857</ele>
        <time>2021-09-17T07:54:50.000Z</time>
      </trkpt>
      <trkpt lat="43.74592" lon="5.17961">
        <ele>118.702199</ele>
        <time>2021-09-17T07:55:00.000Z</time>
      </trkpt>
      <trkpt lat="43.74543" lon="5.17925">
        <ele>118.7719</ele>
        <time>2021-09-17T07:55:09.000Z</time>
      </trkpt>
      <trkpt lat="43.74533" lon="5.17918">
        <ele>118.786585</ele>
        <time>2021-09-17T07:55:11.000Z</time>
      </trkpt>
      <trkpt lat="43.74485" lon="5.17882">
        <ele>118.83904</ele>
        <time>2021-09-17T07:55:20.000Z</time>
      </trkpt>
      <trkpt lat="43.74443" lon="5.1785">
        <ele>118.864294</ele>
        <time>2021-09-17T07:55:28.000Z</time>
      </trkpt>
      <trkpt lat="43.74394" lon="5.17815">
        <ele>118.893034</ele>
        <time>2021-09-17T07:55:37.000Z</time>
      </trkpt>
      <trkpt lat="43.74342" lon="5.17777">
        <ele>118.925567</ele>
        <time>2021-09-17T07:55:47.000Z</time>
      </trkpt>
      <trkpt lat="43.74332" lon="5.1777">
        <ele>118.936496</ele>
        <time>2021-09-17T07:55:49.000Z</time>
      </trkpt>
      <trkpt lat="43.7428" lon="5.17735">
        <ele>118.989458</ele>
        <time>2021-09-17T07:55:59.000Z</time>
      </trkpt>
      <trkpt lat="43.74275" lon="5.17732">
        <ele>118.994641</ele>
        <time>2021-09-17T07:56:00.000Z</time>
      </trkpt>
      <trkpt lat="43.74233" lon="5.17704">
        <ele>119.037027</ele>
        <time>2021-09-17T07:56:08.000Z</time>
      </trkpt>
      <trkpt lat="43.74191" lon="5.17676">
        <ele>119.080415</ele>
        <time>2021-09-17T07:56:16.000Z</time>
      </trkpt>
      <trkpt lat="43.74147" lon="5.17651">
        <ele>119.314695</ele>
        <time>2021-09-17T07:56:24.000Z</time>
      </trkpt>
      <trkpt lat="43.7411" lon="5.1763">
        <ele>119.544969</ele>
        <time>2021-09-17T07:56:31.000Z</time>
      </trkpt>
      <trkpt lat="43.74075" lon="5.1761">
        <ele>119.759644</ele>
        <time>2021-09-17T07:56:38.000Z</time>
      </trkpt>
      <trkpt lat="43.74035" lon="5.17587">
        <ele>120.007103</ele>
        <time>2021-09-17T07:56:47.000Z</time>
      </trkpt>
      <trkpt lat="43.74007" lon="5.17569">
        <ele>120.258096</ele>
        <time>2021-09-17T07:56:54.000Z</time>
      </trkpt>
      <trkpt lat="43.73977" lon="5.17548">
        <ele>120.651789</ele>
        <time>2021-09-17T07:57:02.000Z</time>
      </trkpt>
      <trkpt lat="43.73945" lon="5.17525">
        <ele>121.082149</ele>
        <time>2021-09-17T07:57:11.000Z</time>
      </trkpt>
      <trkpt lat="43.73917" lon="5.17505">
        <ele>121.455459</ele>
        <time>2021-09-17T07:57:19.000Z</time>
      </trkpt>
      <trkpt lat="43.73893" lon="5.17488">
        <ele>121.776717</ele>
        <time>2021-09-17T07:57:26.000Z</time>
      </trkpt>
      <trkpt lat="43.7387" lon="5.17471">
        <ele>122.084699</ele>
        <time>2021-09-17T07:57:32.000Z</time>
      </trkpt>
      <trkpt lat="43.73839" lon="5.17449">
        <ele>122.304979</ele>
        <time>2021-09-17T07:57:40.000Z</time>
      </trkpt>
      <trkpt lat="43.7381" lon="5.17428">
        <ele>122.393441</ele>
        <time>2021-09-17T07:57:47.000Z</time>
      </trkpt>
      <trkpt lat="43.73807" lon="5.17426">
        <ele>122.404851</ele>
        <time>2021-09-17T07:57:48.000Z</time>
      </trkpt>
      <trkpt lat="43.73793" lon="5.17416">
        <ele>122.445858</ele>
        <time>2021-09-17T07:57:52.000Z</time>
      </trkpt>
      <trkpt lat="43.73767" lon="5.17395">
        <ele>122.528765</ele>
        <time>2021-09-17T07:57:59.000Z</time>
      </trkpt>
      <trkpt lat="43.73742" lon="5.17376">
        <ele>122.606528</ele>
        <time>2021-09-17T07:58:05.000Z</time>
      </trkpt>
      <trkpt lat="43.73717" lon="5.17356">
        <ele>122.685865</ele>
        <time>2021-09-17T07:58:11.000Z</time>
      </trkpt>
      <trkpt lat="43.7368" lon="5.17326">
        <ele>122.592306</ele>
        <time>2021-09-17T07:58:19.000Z</time>
      </trkpt>
      <trkpt lat="43.73642" lon="5.17301">
        <ele>122.325226</ele>
        <time>2021-09-17T07:58:27.000Z</time>
      </trkpt>
      <trkpt lat="43.73597" lon="5.17279">
        <ele>122.02306</ele>
        <time>2021-09-17T07:58:36.000Z</time>
      </trkpt>
      <trkpt lat="43.73558" lon="5.17262">
        <ele>121.763823</ele>
        <time>2021-09-17T07:58:43.000Z</time>
      </trkpt>
      <trkpt lat="43.73517" lon="5.17243">
        <ele>121.445061</ele>
        <time>2021-09-17T07:58:50.000Z</time>
      </trkpt>
      <trkpt lat="43.73479" lon="5.17219">
        <ele>121.083653</ele>
        <time>2021-09-17T07:58:57.000Z</time>
      </trkpt>
      <trkpt lat="43.73451" lon="5.17201">
        <ele>120.811071</ele>
        <time>2021-09-17T07:59:03.000Z</time>
      </trkpt>
      <trkpt lat="43.73427" lon="5.17186">
        <ele>120.579589</ele>
        <time>2021-09-17T07:59:09.000Z</time>
      </trkpt>
      <trkpt lat="43.73422" lon="5.17177">
        <ele>120.5107</ele>
        <time>2021-09-17T07:59:11.000Z</time>
      </trkpt>
      <trkpt lat="43.73418" lon="5.17167">
        <ele>120.435199</ele>
        <time>2021-09-17T07:59:13.000Z</time>
      </trkpt>
      <trkpt lat="43.73417" lon="5.17161">
        <ele>120.396492</ele>
        <time>2021-09-17T07:59:14.000Z</time>
      </trkpt>
      <trkpt lat="43.73405" lon="5.17148">
        <ele>120.267209</ele>
        <time>2021-09-17T07:59:17.000Z</time>
      </trkpt>
      <trkpt lat="43.73395" lon="5.17146">
        <ele>120.179563</ele>
        <time>2021-09-17T07:59:19.000Z</time>
      </trkpt>
      <trkpt lat="43.73386" lon="5.17152">
        <ele>120.093375</ele>
        <time>2021-09-17T07:59:21.000Z</time>
      </trkpt>
      <trkpt lat="43.7338" lon="5.1716">
        <ele>120.01885</ele>
        <time>2021-09-17T07:59:23.000Z</time>
      </trkpt>
      <trkpt lat="43.73377" lon="5.17171">
        <ele>119.963827</ele>
        <time>2021-09-17T07:59:25.000Z</time>
      </trkpt>
      <trkpt lat="43.73362" lon="5.17205">
        <ele>119.772728</ele>
        <time>2021-09-17T07:59:31.000Z</time>
      </trkpt>
      <trkpt lat="43.73347" lon="5.17247">
        <ele>119.543958</ele>
        <time>2021-09-17T07:59:38.000Z</time>
      </trkpt>
      <trkpt lat="43.73341" lon="5.17263">
        <ele>119.458663</ele>
        <time>2021-09-17T07:59:41.000Z</time>
      </trkpt>
      <trkpt lat="43.7334" lon="5.17267">
        <ele>119.439856</ele>
        <time>2021-09-17T07:59:42.000Z</time>
      </trkpt>
      <trkpt lat="43.73329" lon="5.17303">
        <ele>119.25073</ele>
        <time>2021-09-17T07:59:48.000Z</time>
      </trkpt>
      <trkpt lat="43.73323" lon="5.17321">
        <ele>119.154577</ele>
        <time>2021-09-17T07:59:52.000Z</time>
      </trkpt>
      <trkpt lat="43.73319" lon="5.17332">
        <ele>119.094882</ele>
        <time>2021-09-17T07:59:54.000Z</time>
      </trkpt>
      <trkpt lat="43.73315" lon="5.17344">
        <ele>119.030562</ele>
        <time>2021-09-17T07:59:56.000Z</time>
      </trkpt>
      <trkpt lat="43.7331" lon="5.17356">
        <ele>118.965404</ele>
        <time>2021-09-17T07:59:58.000Z</time>
      </trkpt>
      <trkpt lat="43.73305" lon="5.17367">
        <ele>118.905152</ele>
        <time>2021-09-17T08:00:00.000Z</time>
      </trkpt>
      <trkpt lat="43.73301" lon="5.17378">
        <ele>118.842907</ele>
        <time>2021-09-17T08:00:02.000Z</time>
      </trkpt>
      <trkpt lat="43.73296" lon="5.17389">
        <ele>118.784264</ele>
        <time>2021-09-17T08:00:04.000Z</time>
      </trkpt>
      <trkpt lat="43.73285" lon="5.17413">
        <ele>118.666165</ele>
        <time>2021-09-17T08:00:08.000Z</time>
      </trkpt>
      <trkpt lat="43.73278" lon="5.1743">
        <ele>118.584321</ele>
        <time>2021-09-17T08:00:12.000Z</time>
      </trkpt>
      <trkpt lat="43.73269" lon="5.17451">
        <ele>118.476952</ele>
        <time>2021-09-17T08:00:19.000Z</time>
      </trkpt>
      <trkpt lat="43.73268" lon="5.17453">
        <ele>118.47004</ele>
        <time>2021-09-17T08:00:20.000Z</time>
      </trkpt>
      <trkpt lat="43.73267" lon="5.17455">
        <ele>118.456217</ele>
        <time>2021-09-17T08:00:23.000Z</time>
      </trkpt>
      <trkpt lat="43.73266" lon="5.17457">
        <ele>118.450699</ele>
        <time>2021-09-17T08:00:24.000Z</time>
      </trkpt>
      <trkpt lat="43.73264" lon="5.17461">
        <ele>118.429659</ele>
        <time>2021-09-17T08:00:27.000Z</time>
      </trkpt>
      <trkpt lat="43.73263" lon="5.17464">
        <ele>118.41238</ele>
        <time>2021-09-17T08:00:31.000Z</time>
      </trkpt>
      <trkpt lat="43.73262" lon="5.17465">
        <ele>118.407217</ele>
        <time>2021-09-17T08:00:32.000Z</time>
      </trkpt>
      <trkpt lat="43.7326" lon="5.1747">
        <ele>118.38266</ele>
        <time>2021-09-17T08:00:36.000Z</time>
      </trkpt>
      <trkpt lat="43.7326" lon="5.17472">
        <ele>118.37538</ele>
        <time>2021-09-17T08:00:37.000Z</time>
      </trkpt>
      <trkpt lat="43.73259" lon="5.17473">
        <ele>118.367438</ele>
        <time>2021-09-17T08:00:38.000Z</time>
      </trkpt>
      <trkpt lat="43.73257" lon="5.17478">
        <ele>118.344278</ele>
        <time>2021-09-17T08:00:41.000Z</time>
      </trkpt>
      <trkpt lat="43.73252" lon="5.17489">
        <ele>118.292442</ele>
        <time>2021-09-17T08:00:45.000Z</time>
      </trkpt>
      <trkpt lat="43.7327" lon="5.17516">
        <ele>118.13575</ele>
        <time>2021-09-17T08:00:48.000Z</time>
      </trkpt>
      <trkpt lat="43.73273" lon="5.17527">
        <ele>118.084833</ele>
        <time>2021-09-17T08:00:50.000Z</time>
      </trkpt>
      <trkpt lat="43.73283" lon="5.17557">
        <ele>117.944952</ele>
        <time>2021-09-17T08:00:55.000Z</time>
      </trkpt>
      <trkpt lat="43.73291" lon="5.17586">
        <ele>117.816763</ele>
        <time>2021-09-17T08:01:00.000Z</time>
      </trkpt>
      <trkpt lat="43.73299" lon="5.1761">
        <ele>117.849465</ele>
        <time>2021-09-17T08:01:04.000Z</time>
      </trkpt>
      <trkpt lat="43.73304" lon="5.17624">
        <ele>117.932404</ele>
        <time>2021-09-17T08:01:06.000Z</time>
      </trkpt>
      <trkpt lat="43.73309" lon="5.17639">
        <ele>118.017741</ele>
        <time>2021-09-17T08:01:08.000Z</time>
      </trkpt>
      <trkpt lat="43.73319" lon="5.17673">
        <ele>118.213555</ele>
        <time>2021-09-17T08:01:13.000Z</time>
      </trkpt>
      <trkpt lat="43.73321" lon="5.1768">
        <ele>118.25123</ele>
        <time>2021-09-17T08:01:14.000Z</time>
      </trkpt>
      <trkpt lat="43.73325" lon="5.17691">
        <ele>118.317698</ele>
        <time>2021-09-17T08:01:16.000Z</time>
      </trkpt>
      <trkpt lat="43.73327" lon="5.17703">
        <ele>118.381949</ele>
        <time>2021-09-17T08:01:18.000Z</time>
      </trkpt>
      <trkpt lat="43.73329" lon="5.17709">
        <ele>118.416012</ele>
        <time>2021-09-17T08:01:19.000Z</time>
      </trkpt>
      <trkpt lat="43.73338" lon="5.17729">
        <ele>118.539371</ele>
        <time>2021-09-17T08:01:22.000Z</time>
      </trkpt>
      <trkpt lat="43.73341" lon="5.17736">
        <ele>118.58195</ele>
        <time>2021-09-17T08:01:23.000Z</time>
      </trkpt>
      <trkpt lat="43.73347" lon="5.1775">
        <ele>118.663361</ele>
        <time>2021-09-17T08:01:25.000Z</time>
      </trkpt>
      <trkpt lat="43.7335" lon="5.17755">
        <ele>118.702564</ele>
        <time>2021-09-17T08:01:26.000Z</time>
      </trkpt>
      <trkpt lat="43.73353" lon="5.17762">
        <ele>118.742482</ele>
        <time>2021-09-17T08:01:27.000Z</time>
      </trkpt>
      <trkpt lat="43.73359" lon="5.17781">
        <ele>118.852992</ele>
        <time>2021-09-17T08:01:30.000Z</time>
      </trkpt>
      <trkpt lat="43.73367" lon="5.17806">
        <ele>118.995669</ele>
        <time>2021-09-17T08:01:34.000Z</time>
      </trkpt>
      <trkpt lat="43.73369" lon="5.17812">
        <ele>119.030486</ele>
        <time>2021-09-17T08:01:35.000Z</time>
      </trkpt>
      <trkpt lat="43.73373" lon="5.1783">
        <ele>119.082206</ele>
        <time>2021-09-17T08:01:38.000Z</time>
      </trkpt>
      <trkpt lat="43.73375" lon="5.17836">
        <ele>119.086349</ele>
        <time>2021-09-17T08:01:39.000Z</time>
      </trkpt>
      <trkpt lat="43.73382" lon="5.17864">
        <ele>119.106403</ele>
        <time>2021-09-17T08:01:43.000Z</time>
      </trkpt>
      <trkpt lat="43.73384" lon="5.17872">
        <ele>119.112183</ele>
        <time>2021-09-17T08:01:44.000Z</time>
      </trkpt>
      <trkpt lat="43.73385" lon="5.17879">
        <ele>119.117297</ele>
        <time>2021-09-17T08:01:45.000Z</time>
      </trkpt>
      <trkpt lat="43.73384" lon="5.17893">
        <ele>119.126277</ele>
        <time>2021-09-17T08:01:47.000Z</time>
      </trkpt>
      <trkpt lat="43.73392" lon="5.17899">
        <ele>119.134968</ele>
        <time>2021-09-17T08:01:49.000Z</time>
      </trkpt>
      <trkpt lat="43.73396" lon="5.17907">
        <ele>119.141259</ele>
        <time>2021-09-17T08:01:50.000Z</time>
      </trkpt>
      <trkpt lat="43.73412" lon="5.17947">
        <ele>119.171841</ele>
        <time>2021-09-17T08:01:55.000Z</time>
      </trkpt>
      <trkpt lat="43.73415" lon="5.17954">
        <ele>119.177481</ele>
        <time>2021-09-17T08:01:56.000Z</time>
      </trkpt>
      <trkpt lat="43.73421" lon="5.17968">
        <ele>119.188528</ele>
        <time>2021-09-17T08:01:58.000Z</time>
      </trkpt>
      <trkpt lat="43.73427" lon="5.17983">
        <ele>119.199451</ele>
        <time>2021-09-17T08:02:00.000Z</time>
      </trkpt>
      <trkpt lat="43.73431" lon="5.17988">
        <ele>119.204805</ele>
        <time>2021-09-17T08:02:01.000Z</time>
      </trkpt>
      <trkpt lat="43.73434" lon="5.18004">
        <ele>119.215738</ele>
        <time>2021-09-17T08:02:03.000Z</time>
      </trkpt>
      <trkpt lat="43.73429" lon="5.18017">
        <ele>119.225999</ele>
        <time>2021-09-17T08:02:05.000Z</time>
      </trkpt>
      <trkpt lat="43.73426" lon="5.18023">
        <ele>119.231178</ele>
        <time>2021-09-17T08:02:06.000Z</time>
      </trkpt>
      <trkpt lat="43.73411" lon="5.18074">
        <ele>119.344423</ele>
        <time>2021-09-17T08:02:13.000Z</time>
      </trkpt>
      <trkpt lat="43.73397" lon="5.18133">
        <ele>119.51112</ele>
        <time>2021-09-17T08:02:21.000Z</time>
      </trkpt>
      <trkpt lat="43.73395" lon="5.18139">
        <ele>119.530501</ele>
        <time>2021-09-17T08:02:22.000Z</time>
      </trkpt>
      <trkpt lat="43.73388" lon="5.18166">
        <ele>119.606875</ele>
        <time>2021-09-17T08:02:26.000Z</time>
      </trkpt>
      <trkpt lat="43.73386" lon="5.18174">
        <ele>119.629421</ele>
        <time>2021-09-17T08:02:27.000Z</time>
      </trkpt>
      <trkpt lat="43.73378" lon="5.18197">
        <ele>119.698821</ele>
        <time>2021-09-17T08:02:30.000Z</time>
      </trkpt>
      <trkpt lat="43.73368" lon="5.18218">
        <ele>119.765498</ele>
        <time>2021-09-17T08:02:33.000Z</time>
      </trkpt>
      <trkpt lat="43.73362" lon="5.18231">
        <ele>119.805713</ele>
        <time>2021-09-17T08:02:35.000Z</time>
      </trkpt>
      <trkpt lat="43.73356" lon="5.18243">
        <ele>119.846808</ele>
        <time>2021-09-17T08:02:37.000Z</time>
      </trkpt>
      <trkpt lat="43.73347" lon="5.18264">
        <ele>119.913807</ele>
        <time>2021-09-17T08:02:40.000Z</time>
      </trkpt>
      <trkpt lat="43.73335" lon="5.18283">
        <ele>120.029107</ele>
        <time>2021-09-17T08:02:43.000Z</time>
      </trkpt>
      <trkpt lat="43.73323" lon="5.183">
        <ele>120.142615</ele>
        <time>2021-09-17T08:02:46.000Z</time>
      </trkpt>
      <trkpt lat="43.73296" lon="5.18326">
        <ele>120.360995</ele>
        <time>2021-09-17T08:02:52.000Z</time>
      </trkpt>
      <trkpt lat="43.73265" lon="5.18348">
        <ele>120.587656</ele>
        <time>2021-09-17T08:02:58.000Z</time>
      </trkpt>
      <trkpt lat="43.73215" lon="5.18374">
        <ele>120.938294</ele>
        <time>2021-09-17T08:03:07.000Z</time>
      </trkpt>
      <trkpt lat="43.73179" lon="5.18401">
        <ele>121.233413</ele>
        <time>2021-09-17T08:03:14.000Z</time>
      </trkpt>
      <trkpt lat="43.73156" lon="5.18436">
        <ele>121.513616</ele>
        <time>2021-09-17T08:03:20.000Z</time>
      </trkpt>
      <trkpt lat="43.73153" lon="5.18442">
        <ele>121.556892</ele>
        <time>2021-09-17T08:03:21.000Z</time>
      </trkpt>
      <trkpt lat="43.73146" lon="5.18461">
        <ele>121.684395</ele>
        <time>2021-09-17T08:03:24.000Z</time>
      </trkpt>
      <trkpt lat="43.73141" lon="5.18474">
        <ele>121.771762</ele>
        <time>2021-09-17T08:03:26.000Z</time>
      </trkpt>
      <trkpt lat="43.73134" lon="5.18501">
        <ele>121.94117</ele>
        <time>2021-09-17T08:03:30.000Z</time>
      </trkpt>
      <trkpt lat="43.73129" lon="5.18521">
        <ele>122.066418</ele>
        <time>2021-09-17T08:03:34.000Z</time>
      </trkpt>
      <trkpt lat="43.73126" lon="5.18536">
        <ele>122.157624</ele>
        <time>2021-09-17T08:03:39.000Z</time>
      </trkpt>
      <trkpt lat="43.73126" lon="5.18539">
        <ele>122.17664</ele>
        <time>2021-09-17T08:03:41.000Z</time>
      </trkpt>
      <trkpt lat="43.73125" lon="5.18542">
        <ele>122.195319</ele>
        <time>2021-09-17T08:03:44.000Z</time>
      </trkpt>
      <trkpt lat="43.73122" lon="5.18556">
        <ele>122.281513</ele>
        <time>2021-09-17T08:03:50.000Z</time>
      </trkpt>
      <trkpt lat="43.73118" lon="5.18573">
        <ele>122.386632</ele>
        <time>2021-09-17T08:03:55.000Z</time>
      </trkpt>
      <trkpt lat="43.73112" lon="5.18595">
        <ele>122.525424</ele>
        <time>2021-09-17T08:04:01.000Z</time>
      </trkpt>
      <trkpt lat="43.73105" lon="5.18628">
        <ele>122.513104</ele>
        <time>2021-09-17T08:04:08.000Z</time>
      </trkpt>
      <trkpt lat="43.73095" lon="5.1867">
        <ele>122.430462</ele>
        <time>2021-09-17T08:04:15.000Z</time>
      </trkpt>
      <trkpt lat="43.73085" lon="5.18716">
        <ele>122.340132</ele>
        <time>2021-09-17T08:04:21.000Z</time>
      </trkpt>
      <trkpt lat="43.73075" lon="5.1876">
        <ele>122.254569</ele>
        <time>2021-09-17T08:04:26.000Z</time>
      </trkpt>
      <trkpt lat="43.73058" lon="5.18835">
        <ele>122.106582</ele>
        <time>2021-09-17T08:04:34.000Z</time>
      </trkpt>
      <trkpt lat="43.73047" lon="5.18893">
        <ele>121.876557</ele>
        <time>2021-09-17T08:04:40.000Z</time>
      </trkpt>
      <trkpt lat="43.73038" lon="5.18957">
        <ele>121.615762</ele>
        <time>2021-09-17T08:04:47.000Z</time>
      </trkpt>
      <trkpt lat="43.73031" lon="5.19002">
        <ele>121.431579</ele>
        <time>2021-09-17T08:04:52.000Z</time>
      </trkpt>
      <trkpt lat="43.73023" lon="5.19058">
        <ele>121.205429</ele>
        <time>2021-09-17T08:04:58.000Z</time>
      </trkpt>
      <trkpt lat="43.73016" lon="5.19118">
        <ele>121.089213</ele>
        <time>2021-09-17T08:05:05.000Z</time>
      </trkpt>
      <trkpt lat="43.73009" lon="5.19188">
        <ele>121.059572</ele>
        <time>2021-09-17T08:05:13.000Z</time>
      </trkpt>
      <trkpt lat="43.73006" lon="5.19269">
        <ele>121.025835</ele>
        <time>2021-09-17T08:05:22.000Z</time>
      </trkpt>
      <trkpt lat="43.73012" lon="5.1933">
        <ele>121.00007</ele>
        <time>2021-09-17T08:05:29.000Z</time>
      </trkpt>
      <trkpt lat="43.73023" lon="5.19374">
        <ele>121.070295</ele>
        <time>2021-09-17T08:05:35.000Z</time>
      </trkpt>
      <trkpt lat="43.73036" lon="5.19422">
        <ele>121.147751</ele>
        <time>2021-09-17T08:05:41.000Z</time>
      </trkpt>
      <trkpt lat="43.73051" lon="5.1947">
        <ele>121.226345</ele>
        <time>2021-09-17T08:05:47.000Z</time>
      </trkpt>
      <trkpt lat="43.73061" lon="5.195">
        <ele>121.276484</ele>
        <time>2021-09-17T08:05:51.000Z</time>
      </trkpt>
      <trkpt lat="43.73066" lon="5.19515">
        <ele>121.301348</ele>
        <time>2021-09-17T08:05:53.000Z</time>
      </trkpt>
      <trkpt lat="43.73078" lon="5.19548">
        <ele>121.356469</ele>
        <time>2021-09-17T08:05:58.000Z</time>
      </trkpt>
      <trkpt lat="43.73086" lon="5.19575">
        <ele>121.448937</ele>
        <time>2021-09-17T08:06:02.000Z</time>
      </trkpt>
      <trkpt lat="43.7309" lon="5.19602">
        <ele>121.567009</ele>
        <time>2021-09-17T08:06:05.000Z</time>
      </trkpt>
      <trkpt lat="43.73092" lon="5.19611">
        <ele>121.608615</ele>
        <time>2021-09-17T08:06:06.000Z</time>
      </trkpt>
      <trkpt lat="43.73097" lon="5.19655">
        <ele>121.803411</ele>
        <time>2021-09-17T08:06:11.000Z</time>
      </trkpt>
      <trkpt lat="43.731" lon="5.19698">
        <ele>121.98662</ele>
        <time>2021-09-17T08:06:16.000Z</time>
      </trkpt>
      <trkpt lat="43.73105" lon="5.19766">
        <ele>122.281854</ele>
        <time>2021-09-17T08:06:24.000Z</time>
      </trkpt>
      <trkpt lat="43.73109" lon="5.19825">
        <ele>122.481366</ele>
        <time>2021-09-17T08:06:31.000Z</time>
      </trkpt>
      <trkpt lat="43.73113" lon="5.19866">
        <ele>122.543631</ele>
        <time>2021-09-17T08:06:36.000Z</time>
      </trkpt>
      <trkpt lat="43.73113" lon="5.19873">
        <ele>122.554488</ele>
        <time>2021-09-17T08:06:37.000Z</time>
      </trkpt>
      <trkpt lat="43.73117" lon="5.1992">
        <ele>122.624221</ele>
        <time>2021-09-17T08:06:43.000Z</time>
      </trkpt>
      <trkpt lat="43.73118" lon="5.19927">
        <ele>122.635522</ele>
        <time>2021-09-17T08:06:44.000Z</time>
      </trkpt>
      <trkpt lat="43.7312" lon="5.19943">
        <ele>122.660077</ele>
        <time>2021-09-17T08:06:46.000Z</time>
      </trkpt>
      <trkpt lat="43.7312" lon="5.19952">
        <ele>122.672713</ele>
        <time>2021-09-17T08:06:47.000Z</time>
      </trkpt>
      <trkpt lat="43.73122" lon="5.1997">
        <ele>122.70073</ele>
        <time>2021-09-17T08:06:49.000Z</time>
      </trkpt>
      <trkpt lat="43.73125" lon="5.20001">
        <ele>122.747119</ele>
        <time>2021-09-17T08:06:52.000Z</time>
      </trkpt>
      <trkpt lat="43.73128" lon="5.20077">
        <ele>122.864863</ele>
        <time>2021-09-17T08:07:00.000Z</time>
      </trkpt>
      <trkpt lat="43.73128" lon="5.20087">
        <ele>122.880376</ele>
        <time>2021-09-17T08:07:01.000Z</time>
      </trkpt>
      <trkpt lat="43.73126" lon="5.20132">
        <ele>122.955758</ele>
        <time>2021-09-17T08:07:06.000Z</time>
      </trkpt>
      <trkpt lat="43.73121" lon="5.20195">
        <ele>123.059531</ele>
        <time>2021-09-17T08:07:13.000Z</time>
      </trkpt>
      <trkpt lat="43.73114" lon="5.20266">
        <ele>123.178848</ele>
        <time>2021-09-17T08:07:21.000Z</time>
      </trkpt>
      <trkpt lat="43.73107" lon="5.20338">
        <ele>123.326713</ele>
        <time>2021-09-17T08:07:29.000Z</time>
      </trkpt>
      <trkpt lat="43.73098" lon="5.20418">
        <ele>123.519208</ele>
        <time>2021-09-17T08:07:38.000Z</time>
      </trkpt>
      <trkpt lat="43.73095" lon="5.20445">
        <ele>123.582576</ele>
        <time>2021-09-17T08:07:41.000Z</time>
      </trkpt>
      <trkpt lat="43.73085" lon="5.20523">
        <ele>123.771932</ele>
        <time>2021-09-17T08:07:50.000Z</time>
      </trkpt>
      <trkpt lat="43.73083" lon="5.20532">
        <ele>123.793167</ele>
        <time>2021-09-17T08:07:51.000Z</time>
      </trkpt>
      <trkpt lat="43.73073" lon="5.20602">
        <ele>123.897656</ele>
        <time>2021-09-17T08:07:59.000Z</time>
      </trkpt>
      <trkpt lat="43.73064" lon="5.20664">
        <ele>123.978713</ele>
        <time>2021-09-17T08:08:06.000Z</time>
      </trkpt>
      <trkpt lat="43.73056" lon="5.20718">
        <ele>124.049038</ele>
        <time>2021-09-17T08:08:12.000Z</time>
      </trkpt>
      <trkpt lat="43.73046" lon="5.20791">
        <ele>124.143182</ele>
        <time>2021-09-17T08:08:20.000Z</time>
      </trkpt>
      <trkpt lat="43.73035" lon="5.20862">
        <ele>124.245207</ele>
        <time>2021-09-17T08:08:28.000Z</time>
      </trkpt>
      <trkpt lat="43.73024" lon="5.20941">
        <ele>124.357582</ele>
        <time>2021-09-17T08:08:37.000Z</time>
      </trkpt>
      <trkpt lat="43.73015" lon="5.21017">
        <ele>124.466499</ele>
        <time>2021-09-17T08:08:46.000Z</time>
      </trkpt>
      <trkpt lat="43.73012" lon="5.21097">
        <ele>124.659779</ele>
        <time>2021-09-17T08:08:55.000Z</time>
      </trkpt>
      <trkpt lat="43.73011" lon="5.21124">
        <ele>124.731051</ele>
        <time>2021-09-17T08:08:58.000Z</time>
      </trkpt>
      <trkpt lat="43.73009" lon="5.2116">
        <ele>124.827627</ele>
        <time>2021-09-17T08:09:02.000Z</time>
      </trkpt>
      <trkpt lat="43.73008" lon="5.21186">
        <ele>124.896963</ele>
        <time>2021-09-17T08:09:05.000Z</time>
      </trkpt>
      <trkpt lat="43.73007" lon="5.21194">
        <ele>124.920098</ele>
        <time>2021-09-17T08:09:06.000Z</time>
      </trkpt>
      <trkpt lat="43.73006" lon="5.21213">
        <ele>124.969534</ele>
        <time>2021-09-17T08:09:08.000Z</time>
      </trkpt>
      <trkpt lat="43.73" lon="5.21287">
        <ele>125.166889</ele>
        <time>2021-09-17T08:09:16.000Z</time>
      </trkpt>
      <trkpt lat="43.72993" lon="5.21339">
        <ele>125.275562</ele>
        <time>2021-09-17T08:09:22.000Z</time>
      </trkpt>
      <trkpt lat="43.72986" lon="5.2139">
        <ele>125.382159</ele>
        <time>2021-09-17T08:09:28.000Z</time>
      </trkpt>
      <trkpt lat="43.72985" lon="5.21398">
        <ele>125.399723</ele>
        <time>2021-09-17T08:09:29.000Z</time>
      </trkpt>
      <trkpt lat="43.72976" lon="5.21468">
        <ele>125.545297</ele>
        <time>2021-09-17T08:09:37.000Z</time>
      </trkpt>
      <trkpt lat="43.7297" lon="5.21519">
        <ele>125.651294</ele>
        <time>2021-09-17T08:09:43.000Z</time>
      </trkpt>
      <trkpt lat="43.7296" lon="5.21597">
        <ele>125.754663</ele>
        <time>2021-09-17T08:09:52.000Z</time>
      </trkpt>
      <trkpt lat="43.72953" lon="5.21656">
        <ele>125.828929</ele>
        <time>2021-09-17T08:09:59.000Z</time>
      </trkpt>
      <trkpt lat="43.72944" lon="5.21714">
        <ele>125.900741</ele>
        <time>2021-09-17T08:10:06.000Z</time>
      </trkpt>
      <trkpt lat="43.72932" lon="5.21787">
        <ele>126.001237</ele>
        <time>2021-09-17T08:10:15.000Z</time>
      </trkpt>
      <trkpt lat="43.72915" lon="5.21861">
        <ele>126.134286</ele>
        <time>2021-09-17T08:10:24.000Z</time>
      </trkpt>
      <trkpt lat="43.72914" lon="5.2187">
        <ele>126.148982</ele>
        <time>2021-09-17T08:10:25.000Z</time>
      </trkpt>
      <trkpt lat="43.72895" lon="5.21942">
        <ele>126.280429</ele>
        <time>2021-09-17T08:10:34.000Z</time>
      </trkpt>
      <trkpt lat="43.72884" lon="5.21997">
        <ele>126.378179</ele>
        <time>2021-09-17T08:10:41.000Z</time>
      </trkpt>
      <trkpt lat="43.72875" lon="5.22065">
        <ele>126.481631</ele>
        <time>2021-09-17T08:10:49.000Z</time>
      </trkpt>
      <trkpt lat="43.72866" lon="5.2214">
        <ele>126.593371</ele>
        <time>2021-09-17T08:10:58.000Z</time>
      </trkpt>
      <trkpt lat="43.72857" lon="5.22215">
        <ele>126.704581</ele>
        <time>2021-09-17T08:11:07.000Z</time>
      </trkpt>
      <trkpt lat="43.72856" lon="5.22224">
        <ele>126.717046</ele>
        <time>2021-09-17T08:11:08.000Z</time>
      </trkpt>
      <trkpt lat="43.72846" lon="5.22299">
        <ele>126.856643</ele>
        <time>2021-09-17T08:11:17.000Z</time>
      </trkpt>
      <trkpt lat="43.72845" lon="5.22316">
        <ele>126.892604</ele>
        <time>2021-09-17T08:11:19.000Z</time>
      </trkpt>
      <trkpt lat="43.72842" lon="5.22382">
        <ele>127.031697</ele>
        <time>2021-09-17T08:11:27.000Z</time>
      </trkpt>
      <trkpt lat="43.7284" lon="5.22432">
        <ele>127.134846</ele>
        <time>2021-09-17T08:11:33.000Z</time>
      </trkpt>
      <trkpt lat="43.72839" lon="5.22466">
        <ele>127.205634</ele>
        <time>2021-09-17T08:11:37.000Z</time>
      </trkpt>
      <trkpt lat="43.72838" lon="5.22525">
        <ele>127.444866</ele>
        <time>2021-09-17T08:11:44.000Z</time>
      </trkpt>
      <trkpt lat="43.72836" lon="5.22576">
        <ele>127.804274</ele>
        <time>2021-09-17T08:11:50.000Z</time>
      </trkpt>
      <trkpt lat="43.72836" lon="5.2261">
        <ele>128.042354</ele>
        <time>2021-09-17T08:11:54.000Z</time>
      </trkpt>
      <trkpt lat="43.72836" lon="5.22627">
        <ele>128.163507</ele>
        <time>2021-09-17T08:11:56.000Z</time>
      </trkpt>
      <trkpt lat="43.72836" lon="5.22653">
        <ele>128.343124</ele>
        <time>2021-09-17T08:11:59.000Z</time>
      </trkpt>
      <trkpt lat="43.72835" lon="5.22669">
        <ele>128.453701</ele>
        <time>2021-09-17T08:12:01.000Z</time>
      </trkpt>
      <trkpt lat="43.72836" lon="5.22709">
        <ele>128.740404</ele>
        <time>2021-09-17T08:12:06.000Z</time>
      </trkpt>
      <trkpt lat="43.72837" lon="5.22769">
        <ele>129.150457</ele>
        <time>2021-09-17T08:12:13.000Z</time>
      </trkpt>
      <trkpt lat="43.72838" lon="5.22827">
        <ele>129.519532</ele>
        <time>2021-09-17T08:12:20.000Z</time>
      </trkpt>
      <trkpt lat="43.72838" lon="5.22835">
        <ele>129.571884</ele>
        <time>2021-09-17T08:12:21.000Z</time>
      </trkpt>
      <trkpt lat="43.72839" lon="5.22862">
        <ele>129.74302</ele>
        <time>2021-09-17T08:12:24.000Z</time>
      </trkpt>
      <trkpt lat="43.7284" lon="5.22906">
        <ele>130.021618</ele>
        <time>2021-09-17T08:12:29.000Z</time>
      </trkpt>
      <trkpt lat="43.7284" lon="5.22914">
        <ele>130.075906</ele>
        <time>2021-09-17T08:12:30.000Z</time>
      </trkpt>
      <trkpt lat="43.72841" lon="5.22938">
        <ele>130.228637</ele>
        <time>2021-09-17T08:12:33.000Z</time>
      </trkpt>
      <trkpt lat="43.72842" lon="5.22961">
        <ele>130.376864</ele>
        <time>2021-09-17T08:12:36.000Z</time>
      </trkpt>
      <trkpt lat="43.72842" lon="5.22976">
        <ele>130.473994</ele>
        <time>2021-09-17T08:12:38.000Z</time>
      </trkpt>
      <trkpt lat="43.72844" lon="5.23023">
        <ele>130.807237</ele>
        <time>2021-09-17T08:12:44.000Z</time>
      </trkpt>
      <trkpt lat="43.72844" lon="5.2303">
        <ele>130.867687</ele>
        <time>2021-09-17T08:12:45.000Z</time>
      </trkpt>
      <trkpt lat="43.72845" lon="5.2308">
        <ele>131.259113</ele>
        <time>2021-09-17T08:12:51.000Z</time>
      </trkpt>
      <trkpt lat="43.72846" lon="5.23096">
        <ele>131.39197</ele>
        <time>2021-09-17T08:12:53.000Z</time>
      </trkpt>
      <trkpt lat="43.72847" lon="5.23123">
        <ele>131.602001</ele>
        <time>2021-09-17T08:12:56.000Z</time>
      </trkpt>
      <trkpt lat="43.72848" lon="5.23174">
        <ele>132.011739</ele>
        <time>2021-09-17T08:13:02.000Z</time>
      </trkpt>
      <trkpt lat="43.7285" lon="5.23235">
        <ele>132.491502</ele>
        <time>2021-09-17T08:13:09.000Z</time>
      </trkpt>
      <trkpt lat="43.72852" lon="5.23286">
        <ele>132.74739</ele>
        <time>2021-09-17T08:13:15.000Z</time>
      </trkpt>
      <trkpt lat="43.72852" lon="5.23302">
        <ele>132.811999</ele>
        <time>2021-09-17T08:13:17.000Z</time>
      </trkpt>
      <trkpt lat="43.72853" lon="5.23319">
        <ele>132.876963</ele>
        <time>2021-09-17T08:13:19.000Z</time>
      </trkpt>
      <trkpt lat="43.72853" lon="5.23327">
        <ele>132.909826</ele>
        <time>2021-09-17T08:13:20.000Z</time>
      </trkpt>
      <trkpt lat="43.72853" lon="5.23381">
        <ele>133.121089</ele>
        <time>2021-09-17T08:13:26.000Z</time>
      </trkpt>
      <trkpt lat="43.7285" lon="5.23423">
        <ele>133.284706</ele>
        <time>2021-09-17T08:13:31.000Z</time>
      </trkpt>
      <trkpt lat="43.72848" lon="5.23465">
        <ele>133.449103</ele>
        <time>2021-09-17T08:13:36.000Z</time>
      </trkpt>
      <trkpt lat="43.72846" lon="5.23499">
        <ele>133.567894</ele>
        <time>2021-09-17T08:13:40.000Z</time>
      </trkpt>
      <trkpt lat="43.72846" lon="5.23507">
        <ele>133.528929</ele>
        <time>2021-09-17T08:13:41.000Z</time>
      </trkpt>
      <trkpt lat="43.72844" lon="5.23532">
        <ele>133.410047</ele>
        <time>2021-09-17T08:13:44.000Z</time>
      </trkpt>
      <trkpt lat="43.72844" lon="5.23541">
        <ele>133.367724</ele>
        <time>2021-09-17T08:13:45.000Z</time>
      </trkpt>
      <trkpt lat="43.72842" lon="5.23565">
        <ele>133.250261</ele>
        <time>2021-09-17T08:13:48.000Z</time>
      </trkpt>
      <trkpt lat="43.72842" lon="5.23581">
        <ele>133.175168</ele>
        <time>2021-09-17T08:13:50.000Z</time>
      </trkpt>
      <trkpt lat="43.72839" lon="5.23629">
        <ele>132.946487</ele>
        <time>2021-09-17T08:13:56.000Z</time>
      </trkpt>
      <trkpt lat="43.72838" lon="5.23645">
        <ele>132.869928</ele>
        <time>2021-09-17T08:13:58.000Z</time>
      </trkpt>
      <trkpt lat="43.72837" lon="5.2367">
        <ele>132.75535</ele>
        <time>2021-09-17T08:14:01.000Z</time>
      </trkpt>
      <trkpt lat="43.72835" lon="5.23711">
        <ele>132.560382</ele>
        <time>2021-09-17T08:14:06.000Z</time>
      </trkpt>
      <trkpt lat="43.72834" lon="5.23719">
        <ele>132.520471</ele>
        <time>2021-09-17T08:14:07.000Z</time>
      </trkpt>
      <trkpt lat="43.72833" lon="5.23744">
        <ele>132.40348</ele>
        <time>2021-09-17T08:14:10.000Z</time>
      </trkpt>
      <trkpt lat="43.72832" lon="5.2376">
        <ele>132.342636</ele>
        <time>2021-09-17T08:14:12.000Z</time>
      </trkpt>
      <trkpt lat="43.7283" lon="5.23786">
        <ele>132.255291</ele>
        <time>2021-09-17T08:14:15.000Z</time>
      </trkpt>
      <trkpt lat="43.72828" lon="5.23836">
        <ele>132.079565</ele>
        <time>2021-09-17T08:14:21.000Z</time>
      </trkpt>
      <trkpt lat="43.72825" lon="5.23896">
        <ele>131.872375</ele>
        <time>2021-09-17T08:14:28.000Z</time>
      </trkpt>
      <trkpt lat="43.72823" lon="5.23946">
        <ele>131.698632</ele>
        <time>2021-09-17T08:14:34.000Z</time>
      </trkpt>
      <trkpt lat="43.72822" lon="5.23984">
        <ele>131.564909</ele>
        <time>2021-09-17T08:14:39.000Z</time>
      </trkpt>
      <trkpt lat="43.72821" lon="5.23992">
        <ele>131.536789</ele>
        <time>2021-09-17T08:14:40.000Z</time>
      </trkpt>
      <trkpt lat="43.72821" lon="5.24016">
        <ele>131.637573</ele>
        <time>2021-09-17T08:14:43.000Z</time>
      </trkpt>
      <trkpt lat="43.7282" lon="5.24039">
        <ele>131.748158</ele>
        <time>2021-09-17T08:14:46.000Z</time>
      </trkpt>
      <trkpt lat="43.72818" lon="5.24086">
        <ele>131.9712</ele>
        <time>2021-09-17T08:14:52.000Z</time>
      </trkpt>
      <trkpt lat="43.72818" lon="5.24093">
        <ele>132.006488</ele>
        <time>2021-09-17T08:14:53.000Z</time>
      </trkpt>
      <trkpt lat="43.72817" lon="5.2412">
        <ele>132.137078</ele>
        <time>2021-09-17T08:14:57.000Z</time>
      </trkpt>
      <trkpt lat="43.72817" lon="5.24133">
        <ele>132.197127</ele>
        <time>2021-09-17T08:14:59.000Z</time>
      </trkpt>
      <trkpt lat="43.72816" lon="5.24155">
        <ele>132.30153</ele>
        <time>2021-09-17T08:15:02.000Z</time>
      </trkpt>
      <trkpt lat="43.72815" lon="5.24203">
        <ele>132.529209</ele>
        <time>2021-09-17T08:15:08.000Z</time>
      </trkpt>
      <trkpt lat="43.72815" lon="5.24252">
        <ele>132.731254</ele>
        <time>2021-09-17T08:15:14.000Z</time>
      </trkpt>
      <trkpt lat="43.72814" lon="5.24309">
        <ele>132.808948</ele>
        <time>2021-09-17T08:15:21.000Z</time>
      </trkpt>
      <trkpt lat="43.72812" lon="5.24388">
        <ele>132.918148</ele>
        <time>2021-09-17T08:15:31.000Z</time>
      </trkpt>
      <trkpt lat="43.72811" lon="5.24446">
        <ele>132.998679</ele>
        <time>2021-09-17T08:15:38.000Z</time>
      </trkpt>
      <trkpt lat="43.72809" lon="5.24502">
        <ele>133.069718</ele>
        <time>2021-09-17T08:15:45.000Z</time>
      </trkpt>
      <trkpt lat="43.72806" lon="5.24578">
        <ele>133.132135</ele>
        <time>2021-09-17T08:15:54.000Z</time>
      </trkpt>
      <trkpt lat="43.72803" lon="5.2466">
        <ele>133.199575</ele>
        <time>2021-09-17T08:16:03.000Z</time>
      </trkpt>
      <trkpt lat="43.728" lon="5.24741">
        <ele>133.266503</ele>
        <time>2021-09-17T08:16:12.000Z</time>
      </trkpt>
      <trkpt lat="43.72798" lon="5.24824">
        <ele>133.310906</ele>
        <time>2021-09-17T08:16:21.000Z</time>
      </trkpt>
      <trkpt lat="43.72797" lon="5.24833">
        <ele>133.315778</ele>
        <time>2021-09-17T08:16:22.000Z</time>
      </trkpt>
      <trkpt lat="43.72795" lon="5.24915">
        <ele>133.360615</ele>
        <time>2021-09-17T08:16:31.000Z</time>
      </trkpt>
      <trkpt lat="43.72794" lon="5.24925">
        <ele>133.365537</ele>
        <time>2021-09-17T08:16:32.000Z</time>
      </trkpt>
      <trkpt lat="43.72792" lon="5.24997">
        <ele>133.408495</ele>
        <time>2021-09-17T08:16:40.000Z</time>
      </trkpt>
      <trkpt lat="43.72789" lon="5.25079">
        <ele>133.48724</ele>
        <time>2021-09-17T08:16:49.000Z</time>
      </trkpt>
      <trkpt lat="43.72786" lon="5.25159">
        <ele>133.563586</ele>
        <time>2021-09-17T08:16:58.000Z</time>
      </trkpt>
      <trkpt lat="43.72785" lon="5.25204">
        <ele>133.606452</ele>
        <time>2021-09-17T08:17:03.000Z</time>
      </trkpt>
      <trkpt lat="43.72782" lon="5.25286">
        <ele>133.739187</ele>
        <time>2021-09-17T08:17:12.000Z</time>
      </trkpt>
      <trkpt lat="43.72782" lon="5.25295">
        <ele>133.757939</ele>
        <time>2021-09-17T08:17:13.000Z</time>
      </trkpt>
      <trkpt lat="43.72779" lon="5.25375">
        <ele>133.922816</ele>
        <time>2021-09-17T08:17:22.000Z</time>
      </trkpt>
      <trkpt lat="43.72777" lon="5.25426">
        <ele>134.027091</ele>
        <time>2021-09-17T08:17:28.000Z</time>
      </trkpt>
      <trkpt lat="43.72775" lon="5.25498">
        <ele>134.179271</ele>
        <time>2021-09-17T08:17:36.000Z</time>
      </trkpt>
      <trkpt lat="43.72769" lon="5.25579">
        <ele>134.364416</ele>
        <time>2021-09-17T08:17:45.000Z</time>
      </trkpt>
      <trkpt lat="43.72764" lon="5.25642">
        <ele>134.508008</ele>
        <time>2021-09-17T08:17:52.000Z</time>
      </trkpt>
      <trkpt lat="43.7276" lon="5.25721">
        <ele>134.689101</ele>
        <time>2021-09-17T08:18:01.000Z</time>
      </trkpt>
      <trkpt lat="43.72758" lon="5.25774">
        <ele>134.796831</ele>
        <time>2021-09-17T08:18:07.000Z</time>
      </trkpt>
      <trkpt lat="43.72755" lon="5.25855">
        <ele>134.955982</ele>
        <time>2021-09-17T08:18:16.000Z</time>
      </trkpt>
      <trkpt lat="43.72752" lon="5.25934">
        <ele>135.112166</ele>
        <time>2021-09-17T08:18:25.000Z</time>
      </trkpt>
      <trkpt lat="43.72751" lon="5.25942">
        <ele>135.128751</ele>
        <time>2021-09-17T08:18:26.000Z</time>
      </trkpt>
      <trkpt lat="43.7275" lon="5.26021">
        <ele>135.270304</ele>
        <time>2021-09-17T08:18:35.000Z</time>
      </trkpt>
      <trkpt lat="43.72748" lon="5.261">
        <ele>135.398416</ele>
        <time>2021-09-17T08:18:44.000Z</time>
      </trkpt>
      <trkpt lat="43.72747" lon="5.26118">
        <ele>135.426688</ele>
        <time>2021-09-17T08:18:46.000Z</time>
      </trkpt>
      <trkpt lat="43.72745" lon="5.26196">
        <ele>135.55354</ele>
        <time>2021-09-17T08:18:55.000Z</time>
      </trkpt>
      <trkpt lat="43.72743" lon="5.26263">
        <ele>135.662881</ele>
        <time>2021-09-17T08:19:03.000Z</time>
      </trkpt>
      <trkpt lat="43.72742" lon="5.26323">
        <ele>135.760216</ele>
        <time>2021-09-17T08:19:10.000Z</time>
      </trkpt>
      <trkpt lat="43.72742" lon="5.26399">
        <ele>135.885736</ele>
        <time>2021-09-17T08:19:19.000Z</time>
      </trkpt>
      <trkpt lat="43.72742" lon="5.26416">
        <ele>135.914337</ele>
        <time>2021-09-17T08:19:21.000Z</time>
      </trkpt>
      <trkpt lat="43.72743" lon="5.26483">
        <ele>136.027392</ele>
        <time>2021-09-17T08:19:29.000Z</time>
      </trkpt>
      <trkpt lat="43.72744" lon="5.26544">
        <ele>136.187093</ele>
        <time>2021-09-17T08:19:36.000Z</time>
      </trkpt>
      <trkpt lat="43.7274" lon="5.26612">
        <ele>136.367689</ele>
        <time>2021-09-17T08:19:44.000Z</time>
      </trkpt>
      <trkpt lat="43.72729" lon="5.26688">
        <ele>136.571911</ele>
        <time>2021-09-17T08:19:53.000Z</time>
      </trkpt>
      <trkpt lat="43.72727" lon="5.26705">
        <ele>136.617005</ele>
        <time>2021-09-17T08:19:55.000Z</time>
      </trkpt>
      <trkpt lat="43.72713" lon="5.26776">
        <ele>136.824468</ele>
        <time>2021-09-17T08:20:04.000Z</time>
      </trkpt>
      <trkpt lat="43.72707" lon="5.26806">
        <ele>136.915662</ele>
        <time>2021-09-17T08:20:08.000Z</time>
      </trkpt>
      <trkpt lat="43.72701" lon="5.26829">
        <ele>136.985801</ele>
        <time>2021-09-17T08:20:11.000Z</time>
      </trkpt>
      <trkpt lat="43.72682" lon="5.26898">
        <ele>137.19694</ele>
        <time>2021-09-17T08:20:20.000Z</time>
      </trkpt>
      <trkpt lat="43.72664" lon="5.26964">
        <ele>137.396515</ele>
        <time>2021-09-17T08:20:29.000Z</time>
      </trkpt>
      <trkpt lat="43.7265" lon="5.27024">
        <ele>137.490374</ele>
        <time>2021-09-17T08:20:37.000Z</time>
      </trkpt>
      <trkpt lat="43.72647" lon="5.27039">
        <ele>137.513797</ele>
        <time>2021-09-17T08:20:39.000Z</time>
      </trkpt>
      <trkpt lat="43.7264" lon="5.27102">
        <ele>137.609143</ele>
        <time>2021-09-17T08:20:47.000Z</time>
      </trkpt>
      <trkpt lat="43.72636" lon="5.27157">
        <ele>137.691649</ele>
        <time>2021-09-17T08:20:54.000Z</time>
      </trkpt>
      <trkpt lat="43.72631" lon="5.27236">
        <ele>137.836275</ele>
        <time>2021-09-17T08:21:04.000Z</time>
      </trkpt>
      <trkpt lat="43.72631" lon="5.27257">
        <ele>137.885637</ele>
        <time>2021-09-17T08:21:07.000Z</time>
      </trkpt>
      <trkpt lat="43.72631" lon="5.27273">
        <ele>137.922546</ele>
        <time>2021-09-17T08:21:09.000Z</time>
      </trkpt>
      <trkpt lat="43.7263" lon="5.27338">
        <ele>138.07486</ele>
        <time>2021-09-17T08:21:17.000Z</time>
      </trkpt>
      <trkpt lat="43.72624" lon="5.27402">
        <ele>138.228464</ele>
        <time>2021-09-17T08:21:25.000Z</time>
      </trkpt>
      <trkpt lat="43.72615" lon="5.27466">
        <ele>138.378536</ele>
        <time>2021-09-17T08:21:33.000Z</time>
      </trkpt>
      <trkpt lat="43.72608" lon="5.27522">
        <ele>138.507194</ele>
        <time>2021-09-17T08:21:40.000Z</time>
      </trkpt>
      <trkpt lat="43.72606" lon="5.27586">
        <ele>138.653625</ele>
        <time>2021-09-17T08:21:48.000Z</time>
      </trkpt>
      <trkpt lat="43.72603" lon="5.27667">
        <ele>138.835336</ele>
        <time>2021-09-17T08:21:58.000Z</time>
      </trkpt>
      <trkpt lat="43.72603" lon="5.27682">
        <ele>138.870403</ele>
        <time>2021-09-17T08:22:00.000Z</time>
      </trkpt>
      <trkpt lat="43.72602" lon="5.2772">
        <ele>138.985253</ele>
        <time>2021-09-17T08:22:05.000Z</time>
      </trkpt>
      <trkpt lat="43.72601" lon="5.27735">
        <ele>139.03876</ele>
        <time>2021-09-17T08:22:07.000Z</time>
      </trkpt>
      <trkpt lat="43.72599" lon="5.27795">
        <ele>139.263199</ele>
        <time>2021-09-17T08:22:15.000Z</time>
      </trkpt>
      <trkpt lat="43.72596" lon="5.27862">
        <ele>139.510514</ele>
        <time>2021-09-17T08:22:23.000Z</time>
      </trkpt>
      <trkpt lat="43.72597" lon="5.27914">
        <ele>139.700474</ele>
        <time>2021-09-17T08:22:29.000Z</time>
      </trkpt>
      <trkpt lat="43.72609" lon="5.27982">
        <ele>140.101692</ele>
        <time>2021-09-17T08:22:37.000Z</time>
      </trkpt>
      <trkpt lat="43.72618" lon="5.28021">
        <ele>140.421264</ele>
        <time>2021-09-17T08:22:42.000Z</time>
      </trkpt>
      <trkpt lat="43.72628" lon="5.28076">
        <ele>140.863286</ele>
        <time>2021-09-17T08:22:49.000Z</time>
      </trkpt>
      <trkpt lat="43.72637" lon="5.28123">
        <ele>141.242195</ele>
        <time>2021-09-17T08:22:55.000Z</time>
      </trkpt>
      <trkpt lat="43.7264" lon="5.28146">
        <ele>141.423655</ele>
        <time>2021-09-17T08:22:58.000Z</time>
      </trkpt>
      <trkpt lat="43.72641" lon="5.28161">
        <ele>141.541134</ele>
        <time>2021-09-17T08:23:00.000Z</time>
      </trkpt>
      <trkpt lat="43.72642" lon="5.28193">
        <ele>141.792703</ele>
        <time>2021-09-17T08:23:04.000Z</time>
      </trkpt>
      <trkpt lat="43.72643" lon="5.28211">
        <ele>141.929926</ele>
        <time>2021-09-17T08:23:07.000Z</time>
      </trkpt>
      <trkpt lat="43.72646" lon="5.28255">
        <ele>142.267003</ele>
        <time>2021-09-17T08:23:12.000Z</time>
      </trkpt>
      <trkpt lat="43.72646" lon="5.28325">
        <ele>142.796036</ele>
        <time>2021-09-17T08:23:21.000Z</time>
      </trkpt>
      <trkpt lat="43.72644" lon="5.28386">
        <ele>143.260386</ele>
        <time>2021-09-17T08:23:29.000Z</time>
      </trkpt>
      <trkpt lat="43.72636" lon="5.28447">
        <ele>143.693685</ele>
        <time>2021-09-17T08:23:37.000Z</time>
      </trkpt>
      <trkpt lat="43.72633" lon="5.28461">
        <ele>143.746617</ele>
        <time>2021-09-17T08:23:39.000Z</time>
      </trkpt>
      <trkpt lat="43.7263" lon="5.28475">
        <ele>143.79841</ele>
        <time>2021-09-17T08:23:41.000Z</time>
      </trkpt>
      <trkpt lat="43.72626" lon="5.28498">
        <ele>143.879151</ele>
        <time>2021-09-17T08:23:44.000Z</time>
      </trkpt>
      <trkpt lat="43.72615" lon="5.28545">
        <ele>144.050326</ele>
        <time>2021-09-17T08:23:51.000Z</time>
      </trkpt>
      <trkpt lat="43.72607" lon="5.2857">
        <ele>144.145285</ele>
        <time>2021-09-17T08:23:55.000Z</time>
      </trkpt>
      <trkpt lat="43.72601" lon="5.2859">
        <ele>144.224824</ele>
        <time>2021-09-17T08:23:58.000Z</time>
      </trkpt>
      <trkpt lat="43.72587" lon="5.28634">
        <ele>144.389979</ele>
        <time>2021-09-17T08:24:04.000Z</time>
      </trkpt>
      <trkpt lat="43.72568" lon="5.28695">
        <ele>144.45974</ele>
        <time>2021-09-17T08:24:12.000Z</time>
      </trkpt>
      <trkpt lat="43.72549" lon="5.28754">
        <ele>144.280947</ele>
        <time>2021-09-17T08:24:20.000Z</time>
      </trkpt>
      <trkpt lat="43.72536" lon="5.28801">
        <ele>144.144791</ele>
        <time>2021-09-17T08:24:26.000Z</time>
      </trkpt>
      <trkpt lat="43.72528" lon="5.28832">
        <ele>144.053274</ele>
        <time>2021-09-17T08:24:30.000Z</time>
      </trkpt>
      <trkpt lat="43.72523" lon="5.28856">
        <ele>143.983931</ele>
        <time>2021-09-17T08:24:33.000Z</time>
      </trkpt>
      <trkpt lat="43.72507" lon="5.28921">
        <ele>143.862838</ele>
        <time>2021-09-17T08:24:41.000Z</time>
      </trkpt>
      <trkpt lat="43.72492" lon="5.28984">
        <ele>143.912671</ele>
        <time>2021-09-17T08:24:49.000Z</time>
      </trkpt>
      <trkpt lat="43.72488" lon="5.28999">
        <ele>143.925047</ele>
        <time>2021-09-17T08:24:51.000Z</time>
      </trkpt>
      <trkpt lat="43.72481" lon="5.29021">
        <ele>143.943146</ele>
        <time>2021-09-17T08:24:54.000Z</time>
      </trkpt>
      <trkpt lat="43.72479" lon="5.29029">
        <ele>143.949262</ele>
        <time>2021-09-17T08:24:55.000Z</time>
      </trkpt>
      <trkpt lat="43.72467" lon="5.29065">
        <ele>143.978914</ele>
        <time>2021-09-17T08:25:00.000Z</time>
      </trkpt>
      <trkpt lat="43.72465" lon="5.29072">
        <ele>143.984781</ele>
        <time>2021-09-17T08:25:01.000Z</time>
      </trkpt>
      <trkpt lat="43.72453" lon="5.29108">
        <ele>144.015112</ele>
        <time>2021-09-17T08:25:06.000Z</time>
      </trkpt>
      <trkpt lat="43.72446" lon="5.29151">
        <ele>144.053441</ele>
        <time>2021-09-17T08:25:12.000Z</time>
      </trkpt>
      <trkpt lat="43.72438" lon="5.2921">
        <ele>144.119592</ele>
        <time>2021-09-17T08:25:20.000Z</time>
      </trkpt>
      <trkpt lat="43.72433" lon="5.29289">
        <ele>144.207314</ele>
        <time>2021-09-17T08:25:30.000Z</time>
      </trkpt>
      <trkpt lat="43.7243" lon="5.29353">
        <ele>144.278208</ele>
        <time>2021-09-17T08:25:38.000Z</time>
      </trkpt>
      <trkpt lat="43.72428" lon="5.29408">
        <ele>144.357977</ele>
        <time>2021-09-17T08:25:45.000Z</time>
      </trkpt>
      <trkpt lat="43.72427" lon="5.29464">
        <ele>144.464525</ele>
        <time>2021-09-17T08:25:52.000Z</time>
      </trkpt>
      <trkpt lat="43.72426" lon="5.29546">
        <ele>144.620178</ele>
        <time>2021-09-17T08:26:02.000Z</time>
      </trkpt>
      <trkpt lat="43.72425" lon="5.29614">
        <ele>144.748243</ele>
        <time>2021-09-17T08:26:10.000Z</time>
      </trkpt>
      <trkpt lat="43.72424" lon="5.29664">
        <ele>144.834746</ele>
        <time>2021-09-17T08:26:16.000Z</time>
      </trkpt>
      <trkpt lat="43.72428" lon="5.29729">
        <ele>144.941588</ele>
        <time>2021-09-17T08:26:24.000Z</time>
      </trkpt>
      <trkpt lat="43.72434" lon="5.29788">
        <ele>145.038097</ele>
        <time>2021-09-17T08:26:31.000Z</time>
      </trkpt>
      <trkpt lat="43.7244" lon="5.29847">
        <ele>145.136224</ele>
        <time>2021-09-17T08:26:38.000Z</time>
      </trkpt>
      <trkpt lat="43.72446" lon="5.29912">
        <ele>145.48506</ele>
        <time>2021-09-17T08:26:46.000Z</time>
      </trkpt>
      <trkpt lat="43.72448" lon="5.29934">
        <ele>145.679169</ele>
        <time>2021-09-17T08:26:49.000Z</time>
      </trkpt>
      <trkpt lat="43.72449" lon="5.29948">
        <ele>145.80301</ele>
        <time>2021-09-17T08:26:51.000Z</time>
      </trkpt>
      <trkpt lat="43.72452" lon="5.29979">
        <ele>146.086124</ele>
        <time>2021-09-17T08:26:56.000Z</time>
      </trkpt>
      <trkpt lat="43.72453" lon="5.29986">
        <ele>146.144093</ele>
        <time>2021-09-17T08:26:57.000Z</time>
      </trkpt>
      <trkpt lat="43.72454" lon="5.30001">
        <ele>146.276723</ele>
        <time>2021-09-17T08:26:59.000Z</time>
      </trkpt>
      <trkpt lat="43.72456" lon="5.30024">
        <ele>146.478744</ele>
        <time>2021-09-17T08:27:02.000Z</time>
      </trkpt>
      <trkpt lat="43.72456" lon="5.30031">
        <ele>146.546022</ele>
        <time>2021-09-17T08:27:03.000Z</time>
      </trkpt>
      <trkpt lat="43.72456" lon="5.30043">
        <ele>146.652244</ele>
        <time>2021-09-17T08:27:05.000Z</time>
      </trkpt>
      <trkpt lat="43.72457" lon="5.3008">
        <ele>146.977058</ele>
        <time>2021-09-17T08:27:10.000Z</time>
      </trkpt>
      <trkpt lat="43.72458" lon="5.30108">
        <ele>147.230175</ele>
        <time>2021-09-17T08:27:15.000Z</time>
      </trkpt>
      <trkpt lat="43.72458" lon="5.30122">
        <ele>147.347891</ele>
        <time>2021-09-17T08:27:17.000Z</time>
      </trkpt>
      <trkpt lat="43.72458" lon="5.30132">
        <ele>147.438498</ele>
        <time>2021-09-17T08:27:19.000Z</time>
      </trkpt>
      <trkpt lat="43.72459" lon="5.30165">
        <ele>147.712028</ele>
        <time>2021-09-17T08:27:23.000Z</time>
      </trkpt>
      <trkpt lat="43.7246" lon="5.3018">
        <ele>147.845134</ele>
        <time>2021-09-17T08:27:25.000Z</time>
      </trkpt>
      <trkpt lat="43.72462" lon="5.30202">
        <ele>148.029201</ele>
        <time>2021-09-17T08:27:28.000Z</time>
      </trkpt>
      <trkpt lat="43.72464" lon="5.30235">
        <ele>148.305721</ele>
        <time>2021-09-17T08:27:33.000Z</time>
      </trkpt>
      <trkpt lat="43.72466" lon="5.30259">
        <ele>148.511852</ele>
        <time>2021-09-17T08:27:36.000Z</time>
      </trkpt>
      <trkpt lat="43.72465" lon="5.30303">
        <ele>148.885768</ele>
        <time>2021-09-17T08:27:42.000Z</time>
      </trkpt>
      <trkpt lat="43.72464" lon="5.30342">
        <ele>149.214377</ele>
        <time>2021-09-17T08:27:48.000Z</time>
      </trkpt>
      <trkpt lat="43.72463" lon="5.30348">
        <ele>149.265129</ele>
        <time>2021-09-17T08:27:49.000Z</time>
      </trkpt>
      <trkpt lat="43.72463" lon="5.3036">
        <ele>149.366096</ele>
        <time>2021-09-17T08:27:51.000Z</time>
      </trkpt>
      <trkpt lat="43.72458" lon="5.30379">
        <ele>149.486565</ele>
        <time>2021-09-17T08:27:54.000Z</time>
      </trkpt>
      <trkpt lat="43.72454" lon="5.30391">
        <ele>149.477026</ele>
        <time>2021-09-17T08:27:56.000Z</time>
      </trkpt>
      <trkpt lat="43.72448" lon="5.3041">
        <ele>149.462855</ele>
        <time>2021-09-17T08:27:59.000Z</time>
      </trkpt>
      <trkpt lat="43.72429" lon="5.3046">
        <ele>149.423621</ele>
        <time>2021-09-17T08:28:07.000Z</time>
      </trkpt>
      <trkpt lat="43.72413" lon="5.30505">
        <ele>149.388494</ele>
        <time>2021-09-17T08:28:14.000Z</time>
      </trkpt>
      <trkpt lat="43.72411" lon="5.30512">
        <ele>149.383422</ele>
        <time>2021-09-17T08:28:15.000Z</time>
      </trkpt>
      <trkpt lat="43.72399" lon="5.30545">
        <ele>149.358253</ele>
        <time>2021-09-17T08:28:20.000Z</time>
      </trkpt>
      <trkpt lat="43.72397" lon="5.30572">
        <ele>149.338968</ele>
        <time>2021-09-17T08:28:24.000Z</time>
      </trkpt>
      <trkpt lat="43.72397" lon="5.30586">
        <ele>149.329162</ele>
        <time>2021-09-17T08:28:26.000Z</time>
      </trkpt>
      <trkpt lat="43.72397" lon="5.30601">
        <ele>149.319223</ele>
        <time>2021-09-17T08:28:28.000Z</time>
      </trkpt>
      <trkpt lat="43.724" lon="5.30623">
        <ele>149.279174</ele>
        <time>2021-09-17T08:28:31.000Z</time>
      </trkpt>
      <trkpt lat="43.72415" lon="5.30698">
        <ele>149.128245</ele>
        <time>2021-09-17T08:28:41.000Z</time>
      </trkpt>
      <trkpt lat="43.72416" lon="5.30705">
        <ele>149.113579</ele>
        <time>2021-09-17T08:28:42.000Z</time>
      </trkpt>
      <trkpt lat="43.72429" lon="5.30767">
        <ele>148.989779</ele>
        <time>2021-09-17T08:28:50.000Z</time>
      </trkpt>
      <trkpt lat="43.72444" lon="5.30845">
        <ele>148.833189</ele>
        <time>2021-09-17T08:29:00.000Z</time>
      </trkpt>
      <trkpt lat="43.72457" lon="5.30907">
        <ele>148.775547</ele>
        <time>2021-09-17T08:29:08.000Z</time>
      </trkpt>
      <trkpt lat="43.72463" lon="5.30938">
        <ele>148.746779</ele>
        <time>2021-09-17T08:29:12.000Z</time>
      </trkpt>
      <trkpt lat="43.72468" lon="5.30962">
        <ele>148.725065</ele>
        <time>2021-09-17T08:29:15.000Z</time>
      </trkpt>
      <trkpt lat="43.72483" lon="5.3104">
        <ele>148.653577</ele>
        <time>2021-09-17T08:29:25.000Z</time>
      </trkpt>
      <trkpt lat="43.72485" lon="5.31047">
        <ele>148.64662</ele>
        <time>2021-09-17T08:29:26.000Z</time>
      </trkpt>
      <trkpt lat="43.72496" lon="5.31107">
        <ele>148.668271</ele>
        <time>2021-09-17T08:29:34.000Z</time>
      </trkpt>
      <trkpt lat="43.72504" lon="5.31152">
        <ele>148.774447</ele>
        <time>2021-09-17T08:29:41.000Z</time>
      </trkpt>
      <trkpt lat="43.7251" lon="5.31189">
        <ele>148.859932</ele>
        <time>2021-09-17T08:29:47.000Z</time>
      </trkpt>
      <trkpt lat="43.72511" lon="5.31194">
        <ele>148.872907</ele>
        <time>2021-09-17T08:29:48.000Z</time>
      </trkpt>
      <trkpt lat="43.72515" lon="5.31217">
        <ele>148.926439</ele>
        <time>2021-09-17T08:29:53.000Z</time>
      </trkpt>
      <trkpt lat="43.72517" lon="5.31227">
        <ele>148.950461</ele>
        <time>2021-09-17T08:29:56.000Z</time>
      </trkpt>
      <trkpt lat="43.72518" lon="5.31235">
        <ele>148.968035</ele>
        <time>2021-09-17T08:29:58.000Z</time>
      </trkpt>
      <trkpt lat="43.72519" lon="5.31242">
        <ele>148.984201</ele>
        <time>2021-09-17T08:30:00.000Z</time>
      </trkpt>
      <trkpt lat="43.7252" lon="5.31248">
        <ele>148.998958</ele>
        <time>2021-09-17T08:30:02.000Z</time>
      </trkpt>
      <trkpt lat="43.72501" lon="5.31244">
        <ele>149.061435</ele>
        <time>2021-09-17T08:30:03.000Z</time>
      </trkpt>
      <trkpt lat="43.72501" lon="5.31244">
        <ele>149.061435</ele>
        <time>2021-09-17T08:30:07.000Z</time>
      </trkpt>
      <trkpt lat="43.72487" lon="5.31245">
        <ele>149.106111</ele>
        <time>2021-09-17T08:30:12.000Z</time>
      </trkpt>
      <trkpt lat="43.72398" lon="5.31254">
        <ele>149.338145</ele>
        <time>2021-09-17T08:30:36.000Z</time>
      </trkpt>
      <trkpt lat="43.72394" lon="5.31254">
        <ele>149.34724</ele>
        <time>2021-09-17T08:30:37.000Z</time>
      </trkpt>
      <trkpt lat="43.7238" lon="5.31256">
        <ele>149.380751</ele>
        <time>2021-09-17T08:30:41.000Z</time>
      </trkpt>
      <trkpt lat="43.72365" lon="5.31246">
        <ele>149.420339</ele>
        <time>2021-09-17T08:30:45.000Z</time>
      </trkpt>
      <trkpt lat="43.72363" lon="5.31248">
        <ele>149.426142</ele>
        <time>2021-09-17T08:30:46.000Z</time>
      </trkpt>
      <trkpt lat="43.72373" lon="5.31279">
        <ele>149.484721</ele>
        <time>2021-09-17T08:30:50.000Z</time>
      </trkpt>
      <trkpt lat="43.72374" lon="5.31284">
        <ele>149.494598</ele>
        <time>2021-09-17T08:30:51.000Z</time>
      </trkpt>
      <trkpt lat="43.72376" lon="5.31318">
        <ele>149.552249</ele>
        <time>2021-09-17T08:30:57.000Z</time>
      </trkpt>
      <trkpt lat="43.72378" lon="5.31345">
        <ele>149.599336</ele>
        <time>2021-09-17T08:31:02.000Z</time>
      </trkpt>
      <trkpt lat="43.72379" lon="5.31362">
        <ele>149.625024</ele>
        <time>2021-09-17T08:31:05.000Z</time>
      </trkpt>
      <trkpt lat="43.7238" lon="5.3138">
        <ele>149.650403</ele>
        <time>2021-09-17T08:31:08.000Z</time>
      </trkpt>
      <trkpt lat="43.72383" lon="5.31429">
        <ele>149.717426</ele>
        <time>2021-09-17T08:31:15.000Z</time>
      </trkpt>
      <trkpt lat="43.72387" lon="5.31497">
        <ele>149.810923</ele>
        <time>2021-09-17T08:31:24.000Z</time>
      </trkpt>
      <trkpt lat="43.72391" lon="5.3155">
        <ele>149.885265</ele>
        <time>2021-09-17T08:31:31.000Z</time>
      </trkpt>
      <trkpt lat="43.72392" lon="5.31558">
        <ele>149.895679</ele>
        <time>2021-09-17T08:31:32.000Z</time>
      </trkpt>
      <trkpt lat="43.72395" lon="5.31587">
        <ele>149.936747</ele>
        <time>2021-09-17T08:31:36.000Z</time>
      </trkpt>
      <trkpt lat="43.72399" lon="5.31635">
        <ele>149.962091</ele>
        <time>2021-09-17T08:31:42.000Z</time>
      </trkpt>
      <trkpt lat="43.72403" lon="5.31689">
        <ele>149.975209</ele>
        <time>2021-09-17T08:31:49.000Z</time>
      </trkpt>
      <trkpt lat="43.72406" lon="5.31749">
        <ele>149.989683</ele>
        <time>2021-09-17T08:31:57.000Z</time>
      </trkpt>
      <trkpt lat="43.72411" lon="5.31798">
        <ele>150.001799</ele>
        <time>2021-09-17T08:32:04.000Z</time>
      </trkpt>
      <trkpt lat="43.72416" lon="5.31879">
        <ele>150.040826</ele>
        <time>2021-09-17T08:32:15.000Z</time>
      </trkpt>
      <trkpt lat="43.72421" lon="5.3194">
        <ele>150.093714</ele>
        <time>2021-09-17T08:32:23.000Z</time>
      </trkpt>
      <trkpt lat="43.72426" lon="5.32015">
        <ele>150.158072</ele>
        <time>2021-09-17T08:32:32.000Z</time>
      </trkpt>
      <trkpt lat="43.72431" lon="5.32089">
        <ele>150.222516</ele>
        <time>2021-09-17T08:32:41.000Z</time>
      </trkpt>
      <trkpt lat="43.72435" lon="5.32151">
        <ele>150.311994</ele>
        <time>2021-09-17T08:32:49.000Z</time>
      </trkpt>
      <trkpt lat="43.72438" lon="5.32219">
        <ele>150.415302</ele>
        <time>2021-09-17T08:32:57.000Z</time>
      </trkpt>
      <trkpt lat="43.72439" lon="5.32291">
        <ele>150.5237</ele>
        <time>2021-09-17T08:33:05.000Z</time>
      </trkpt>
      <trkpt lat="43.72433" lon="5.32353">
        <ele>150.635395</ele>
        <time>2021-09-17T08:33:12.000Z</time>
      </trkpt>
      <trkpt lat="43.72423" lon="5.32413">
        <ele>150.844333</ele>
        <time>2021-09-17T08:33:19.000Z</time>
      </trkpt>
      <trkpt lat="43.72409" lon="5.32471">
        <ele>151.048359</ele>
        <time>2021-09-17T08:33:26.000Z</time>
      </trkpt>
      <trkpt lat="43.72388" lon="5.32533">
        <ele>151.2795</ele>
        <time>2021-09-17T08:33:34.000Z</time>
      </trkpt>
      <trkpt lat="43.72361" lon="5.32598">
        <ele>151.492683</ele>
        <time>2021-09-17T08:33:43.000Z</time>
      </trkpt>
      <trkpt lat="43.72332" lon="5.32651">
        <ele>151.623009</ele>
        <time>2021-09-17T08:33:51.000Z</time>
      </trkpt>
      <trkpt lat="43.7231" lon="5.3269">
        <ele>151.720063</ele>
        <time>2021-09-17T08:33:57.000Z</time>
      </trkpt>
      <trkpt lat="43.72291" lon="5.32722">
        <ele>151.801523</ele>
        <time>2021-09-17T08:34:02.000Z</time>
      </trkpt>
      <trkpt lat="43.72284" lon="5.32735">
        <ele>151.833512</ele>
        <time>2021-09-17T08:34:04.000Z</time>
      </trkpt>
      <trkpt lat="43.72248" lon="5.32798">
        <ele>151.99344</ele>
        <time>2021-09-17T08:34:14.000Z</time>
      </trkpt>
      <trkpt lat="43.72219" lon="5.32848">
        <ele>152.124575</ele>
        <time>2021-09-17T08:34:22.000Z</time>
      </trkpt>
      <trkpt lat="43.72187" lon="5.32903">
        <ele>152.267656</ele>
        <time>2021-09-17T08:34:31.000Z</time>
      </trkpt>
      <trkpt lat="43.72184" lon="5.32908">
        <ele>152.282933</ele>
        <time>2021-09-17T08:34:32.000Z</time>
      </trkpt>
      <trkpt lat="43.7216" lon="5.3295">
        <ele>152.391153</ele>
        <time>2021-09-17T08:34:39.000Z</time>
      </trkpt>
      <trkpt lat="43.72128" lon="5.33005">
        <ele>152.540399</ele>
        <time>2021-09-17T08:34:48.000Z</time>
      </trkpt>
      <trkpt lat="43.72105" lon="5.33045">
        <ele>152.652219</ele>
        <time>2021-09-17T08:34:55.000Z</time>
      </trkpt>
      <trkpt lat="43.72087" lon="5.33076">
        <ele>152.736033</ele>
        <time>2021-09-17T08:35:00.000Z</time>
      </trkpt>
      <trkpt lat="43.7208" lon="5.33088">
        <ele>152.770859</ele>
        <time>2021-09-17T08:35:02.000Z</time>
      </trkpt>
      <trkpt lat="43.72055" lon="5.33132">
        <ele>152.892638</ele>
        <time>2021-09-17T08:35:09.000Z</time>
      </trkpt>
      <trkpt lat="43.7203" lon="5.33176">
        <ele>153.023147</ele>
        <time>2021-09-17T08:35:16.000Z</time>
      </trkpt>
      <trkpt lat="43.71998" lon="5.33231">
        <ele>153.223637</ele>
        <time>2021-09-17T08:35:25.000Z</time>
      </trkpt>
      <trkpt lat="43.71976" lon="5.33268">
        <ele>153.35563</ele>
        <time>2021-09-17T08:35:31.000Z</time>
      </trkpt>
      <trkpt lat="43.71962" lon="5.33293">
        <ele>153.443713</ele>
        <time>2021-09-17T08:35:35.000Z</time>
      </trkpt>
      <trkpt lat="43.71952" lon="5.33311">
        <ele>153.51061</ele>
        <time>2021-09-17T08:35:38.000Z</time>
      </trkpt>
      <trkpt lat="43.71919" lon="5.33368">
        <ele>153.696373</ele>
        <time>2021-09-17T08:35:47.000Z</time>
      </trkpt>
      <trkpt lat="43.71883" lon="5.3343">
        <ele>153.827309</ele>
        <time>2021-09-17T08:35:57.000Z</time>
      </trkpt>
      <trkpt lat="43.71879" lon="5.33437">
        <ele>153.84092</ele>
        <time>2021-09-17T08:35:58.000Z</time>
      </trkpt>
      <trkpt lat="43.7185" lon="5.33487">
        <ele>153.945718</ele>
        <time>2021-09-17T08:36:06.000Z</time>
      </trkpt>
      <trkpt lat="43.71821" lon="5.33537">
        <ele>154.052124</ele>
        <time>2021-09-17T08:36:14.000Z</time>
      </trkpt>
      <trkpt lat="43.718" lon="5.33575">
        <ele>154.213827</ele>
        <time>2021-09-17T08:36:20.000Z</time>
      </trkpt>
      <trkpt lat="43.71779" lon="5.33611">
        <ele>154.416473</ele>
        <time>2021-09-17T08:36:26.000Z</time>
      </trkpt>
      <trkpt lat="43.71776" lon="5.33617">
        <ele>154.449876</ele>
        <time>2021-09-17T08:36:27.000Z</time>
      </trkpt>
      <trkpt lat="43.71748" lon="5.33664">
        <ele>154.716858</ele>
        <time>2021-09-17T08:36:35.000Z</time>
      </trkpt>
      <trkpt lat="43.71724" lon="5.33706">
        <ele>154.947556</ele>
        <time>2021-09-17T08:36:42.000Z</time>
      </trkpt>
      <trkpt lat="43.71698" lon="5.33751">
        <ele>155.201935</ele>
        <time>2021-09-17T08:36:49.000Z</time>
      </trkpt>
      <trkpt lat="43.71668" lon="5.33803">
        <ele>155.511665</ele>
        <time>2021-09-17T08:36:57.000Z</time>
      </trkpt>
      <trkpt lat="43.71635" lon="5.33861">
        <ele>155.855147</ele>
        <time>2021-09-17T08:37:06.000Z</time>
      </trkpt>
      <trkpt lat="43.71608" lon="5.33908">
        <ele>156.130006</ele>
        <time>2021-09-17T08:37:14.000Z</time>
      </trkpt>
      <trkpt lat="43.7159" lon="5.33939">
        <ele>156.312618</ele>
        <time>2021-09-17T08:37:20.000Z</time>
      </trkpt>
      <trkpt lat="43.71587" lon="5.33943">
        <ele>156.397444</ele>
        <time>2021-09-17T08:37:21.000Z</time>
      </trkpt>
      <trkpt lat="43.71582" lon="5.33952">
        <ele>156.610393</ele>
        <time>2021-09-17T08:37:23.000Z</time>
      </trkpt>
      <trkpt lat="43.71573" lon="5.33968">
        <ele>156.98873</ele>
        <time>2021-09-17T08:37:27.000Z</time>
      </trkpt>
      <trkpt lat="43.71553" lon="5.34003">
        <ele>157.807908</ele>
        <time>2021-09-17T08:37:35.000Z</time>
      </trkpt>
      <trkpt lat="43.71533" lon="5.34038">
        <ele>158.618179</ele>
        <time>2021-09-17T08:37:43.000Z</time>
      </trkpt>
      <trkpt lat="43.71519" lon="5.34062">
        <ele>159.199124</ele>
        <time>2021-09-17T08:37:49.000Z</time>
      </trkpt>
      <trkpt lat="43.71499" lon="5.34096">
        <ele>159.985698</ele>
        <time>2021-09-17T08:37:57.000Z</time>
      </trkpt>
      <trkpt lat="43.71482" lon="5.34125">
        <ele>160.667949</ele>
        <time>2021-09-17T08:38:04.000Z</time>
      </trkpt>
      <trkpt lat="43.71464" lon="5.34157">
        <ele>161.407845</ele>
        <time>2021-09-17T08:38:12.000Z</time>
      </trkpt>
      <trkpt lat="43.71449" lon="5.34182">
        <ele>161.984647</ele>
        <time>2021-09-17T08:38:19.000Z</time>
      </trkpt>
      <trkpt lat="43.71427" lon="5.34216">
        <ele>162.78823</ele>
        <time>2021-09-17T08:38:28.000Z</time>
      </trkpt>
      <trkpt lat="43.71404" lon="5.34254">
        <ele>163.684753</ele>
        <time>2021-09-17T08:38:38.000Z</time>
      </trkpt>
      <trkpt lat="43.71384" lon="5.34286">
        <ele>164.427656</ele>
        <time>2021-09-17T08:38:46.000Z</time>
      </trkpt>
      <trkpt lat="43.71368" lon="5.34317">
        <ele>165.112704</ele>
        <time>2021-09-17T08:38:53.000Z</time>
      </trkpt>
      <trkpt lat="43.71364" lon="5.34328">
        <ele>165.327573</ele>
        <time>2021-09-17T08:38:55.000Z</time>
      </trkpt>
      <trkpt lat="43.7136" lon="5.3434">
        <ele>165.394812</ele>
        <time>2021-09-17T08:38:57.000Z</time>
      </trkpt>
      <trkpt lat="43.71346" lon="5.34378">
        <ele>165.606724</ele>
        <time>2021-09-17T08:39:03.000Z</time>
      </trkpt>
      <trkpt lat="43.71344" lon="5.34385">
        <ele>165.643993</ele>
        <time>2021-09-17T08:39:04.000Z</time>
      </trkpt>
      <trkpt lat="43.71335" lon="5.34415">
        <ele>165.801352</ele>
        <time>2021-09-17T08:39:08.000Z</time>
      </trkpt>
      <trkpt lat="43.71331" lon="5.3443">
        <ele>165.880793</ele>
        <time>2021-09-17T08:39:10.000Z</time>
      </trkpt>
      <trkpt lat="43.71327" lon="5.34444">
        <ele>165.957219</ele>
        <time>2021-09-17T08:39:12.000Z</time>
      </trkpt>
      <trkpt lat="43.71321" lon="5.34475">
        <ele>166.117665</ele>
        <time>2021-09-17T08:39:16.000Z</time>
      </trkpt>
      <trkpt lat="43.71316" lon="5.34533">
        <ele>166.410088</ele>
        <time>2021-09-17T08:39:23.000Z</time>
      </trkpt>
      <trkpt lat="43.71313" lon="5.34591">
        <ele>166.610137</ele>
        <time>2021-09-17T08:39:30.000Z</time>
      </trkpt>
      <trkpt lat="43.71311" lon="5.34636">
        <ele>166.688415</ele>
        <time>2021-09-17T08:39:36.000Z</time>
      </trkpt>
      <trkpt lat="43.71307" lon="5.3471">
        <ele>166.821191</ele>
        <time>2021-09-17T08:39:46.000Z</time>
      </trkpt>
      <trkpt lat="43.71306" lon="5.34725">
        <ele>166.847125</ele>
        <time>2021-09-17T08:39:48.000Z</time>
      </trkpt>
      <trkpt lat="43.71305" lon="5.34748">
        <ele>166.887321</ele>
        <time>2021-09-17T08:39:51.000Z</time>
      </trkpt>
      <trkpt lat="43.71298" lon="5.348">
        <ele>166.981313</ele>
        <time>2021-09-17T08:39:58.000Z</time>
      </trkpt>
      <trkpt lat="43.71295" lon="5.34814">
        <ele>167.022143</ele>
        <time>2021-09-17T08:40:00.000Z</time>
      </trkpt>
      <trkpt lat="43.71292" lon="5.34827">
        <ele>167.111801</ele>
        <time>2021-09-17T08:40:02.000Z</time>
      </trkpt>
      <trkpt lat="43.71288" lon="5.3484">
        <ele>167.207689</ele>
        <time>2021-09-17T08:40:04.000Z</time>
      </trkpt>
      <trkpt lat="43.71283" lon="5.34861">
        <ele>167.353087</ele>
        <time>2021-09-17T08:40:07.000Z</time>
      </trkpt>
      <trkpt lat="43.71276" lon="5.34889">
        <ele>167.551093</ele>
        <time>2021-09-17T08:40:11.000Z</time>
      </trkpt>
      <trkpt lat="43.71273" lon="5.34904">
        <ele>167.651663</ele>
        <time>2021-09-17T08:40:13.000Z</time>
      </trkpt>
      <trkpt lat="43.7126" lon="5.34956">
        <ele>168.018405</ele>
        <time>2021-09-17T08:40:21.000Z</time>
      </trkpt>
      <trkpt lat="43.71252" lon="5.34986">
        <ele>168.230421</ele>
        <time>2021-09-17T08:40:26.000Z</time>
      </trkpt>
      <trkpt lat="43.71245" lon="5.35017">
        <ele>168.441811</ele>
        <time>2021-09-17T08:40:31.000Z</time>
      </trkpt>
      <trkpt lat="43.7124" lon="5.35034">
        <ele>168.563542</ele>
        <time>2021-09-17T08:40:34.000Z</time>
      </trkpt>
      <trkpt lat="43.71237" lon="5.35046">
        <ele>168.651456</ele>
        <time>2021-09-17T08:40:36.000Z</time>
      </trkpt>
      <trkpt lat="43.71228" lon="5.35084">
        <ele>169.255116</ele>
        <time>2021-09-17T08:40:42.000Z</time>
      </trkpt>
      <trkpt lat="43.71218" lon="5.35119">
        <ele>169.819096</ele>
        <time>2021-09-17T08:40:48.000Z</time>
      </trkpt>
      <trkpt lat="43.71205" lon="5.35165">
        <ele>170.566124</ele>
        <time>2021-09-17T08:40:56.000Z</time>
      </trkpt>
      <trkpt lat="43.71202" lon="5.35177">
        <ele>170.758902</ele>
        <time>2021-09-17T08:40:58.000Z</time>
      </trkpt>
      <trkpt lat="43.71195" lon="5.35206">
        <ele>171.212011</ele>
        <time>2021-09-17T08:41:03.000Z</time>
      </trkpt>
      <trkpt lat="43.71188" lon="5.35246">
        <ele>171.828149</ele>
        <time>2021-09-17T08:41:10.000Z</time>
      </trkpt>
      <trkpt lat="43.71181" lon="5.35287">
        <ele>172.426819</ele>
        <time>2021-09-17T08:41:17.000Z</time>
      </trkpt>
      <trkpt lat="43.71171" lon="5.35344">
        <ele>172.804841</ele>
        <time>2021-09-17T08:41:27.000Z</time>
      </trkpt>
      <trkpt lat="43.7116" lon="5.35403">
        <ele>173.192851</ele>
        <time>2021-09-17T08:41:38.000Z</time>
      </trkpt>
      <trkpt lat="43.71152" lon="5.35452">
        <ele>173.515536</ele>
        <time>2021-09-17T08:41:46.000Z</time>
      </trkpt>
      <trkpt lat="43.71151" lon="5.35457">
        <ele>173.553817</ele>
        <time>2021-09-17T08:41:47.000Z</time>
      </trkpt>
      <trkpt lat="43.71142" lon="5.35514">
        <ele>173.927517</ele>
        <time>2021-09-17T08:41:56.000Z</time>
      </trkpt>
      <trkpt lat="43.71133" lon="5.35576">
        <ele>174.125748</ele>
        <time>2021-09-17T08:42:05.000Z</time>
      </trkpt>
      <trkpt lat="43.71123" lon="5.35644">
        <ele>174.298625</ele>
        <time>2021-09-17T08:42:15.000Z</time>
      </trkpt>
      <trkpt lat="43.71115" lon="5.35702">
        <ele>174.444409</ele>
        <time>2021-09-17T08:42:24.000Z</time>
      </trkpt>
      <trkpt lat="43.7111" lon="5.35745">
        <ele>174.554009</ele>
        <time>2021-09-17T08:42:31.000Z</time>
      </trkpt>
      <trkpt lat="43.71108" lon="5.35806">
        <ele>174.684193</ele>
        <time>2021-09-17T08:42:40.000Z</time>
      </trkpt>
      <trkpt lat="43.71113" lon="5.3587">
        <ele>174.807044</ele>
        <time>2021-09-17T08:42:49.000Z</time>
      </trkpt>
      <trkpt lat="43.7111" lon="5.35925">
        <ele>174.911248</ele>
        <time>2021-09-17T08:42:56.000Z</time>
      </trkpt>
      <trkpt lat="43.71101" lon="5.35972">
        <ele>175.003129</ele>
        <time>2021-09-17T08:43:02.000Z</time>
      </trkpt>
      <trkpt lat="43.71082" lon="5.36024">
        <ele>175.006764</ele>
        <time>2021-09-17T08:43:09.000Z</time>
      </trkpt>
      <trkpt lat="43.71053" lon="5.36076">
        <ele>174.644439</ele>
        <time>2021-09-17T08:43:17.000Z</time>
      </trkpt>
      <trkpt lat="43.71032" lon="5.36109">
        <ele>174.402736</ele>
        <time>2021-09-17T08:43:22.000Z</time>
      </trkpt>
      <trkpt lat="43.71012" lon="5.36134">
        <ele>174.19614</ele>
        <time>2021-09-17T08:43:26.000Z</time>
      </trkpt>
      <trkpt lat="43.71006" lon="5.36139">
        <ele>174.140575</ele>
        <time>2021-09-17T08:43:27.000Z</time>
      </trkpt>
      <trkpt lat="43.70966" lon="5.36169">
        <ele>173.79361</ele>
        <time>2021-09-17T08:43:33.000Z</time>
      </trkpt>
      <trkpt lat="43.70911" lon="5.36204">
        <ele>173.146406</ele>
        <time>2021-09-17T08:43:41.000Z</time>
      </trkpt>
      <trkpt lat="43.70868" lon="5.36234">
        <ele>172.592063</ele>
        <time>2021-09-17T08:43:48.000Z</time>
      </trkpt>
      <trkpt lat="43.70857" lon="5.36241">
        <ele>172.454387</ele>
        <time>2021-09-17T08:43:50.000Z</time>
      </trkpt>
      <trkpt lat="43.70841" lon="5.36251">
        <ele>172.264261</ele>
        <time>2021-09-17T08:43:53.000Z</time>
      </trkpt>
      <trkpt lat="43.70837" lon="5.36253">
        <ele>172.205598</ele>
        <time>2021-09-17T08:43:54.000Z</time>
      </trkpt>
      <trkpt lat="43.70818" lon="5.36265">
        <ele>171.977862</ele>
        <time>2021-09-17T08:43:58.000Z</time>
      </trkpt>
      <trkpt lat="43.70815" lon="5.36268">
        <ele>171.93566</ele>
        <time>2021-09-17T08:43:59.000Z</time>
      </trkpt>
      <trkpt lat="43.70801" lon="5.36281">
        <ele>171.737799</ele>
        <time>2021-09-17T08:44:03.000Z</time>
      </trkpt>
      <trkpt lat="43.70781" lon="5.36297">
        <ele>171.867628</ele>
        <time>2021-09-17T08:44:09.000Z</time>
      </trkpt>
      <trkpt lat="43.70761" lon="5.36325">
        <ele>172.199008</ele>
        <time>2021-09-17T08:44:17.000Z</time>
      </trkpt>
      <trkpt lat="43.70748" lon="5.36349">
        <ele>172.461974</ele>
        <time>2021-09-17T08:44:23.000Z</time>
      </trkpt>
      <trkpt lat="43.70735" lon="5.36374">
        <ele>172.725632</ele>
        <time>2021-09-17T08:44:29.000Z</time>
      </trkpt>
      <trkpt lat="43.70718" lon="5.36405">
        <ele>173.064988</ele>
        <time>2021-09-17T08:44:37.000Z</time>
      </trkpt>
      <trkpt lat="43.70708" lon="5.36431">
        <ele>173.322819</ele>
        <time>2021-09-17T08:44:43.000Z</time>
      </trkpt>
      <trkpt lat="43.70695" lon="5.36468">
        <ele>173.67537</ele>
        <time>2021-09-17T08:44:51.000Z</time>
      </trkpt>
      <trkpt lat="43.70682" lon="5.36506">
        <ele>174.2925</ele>
        <time>2021-09-17T08:45:00.000Z</time>
      </trkpt>
      <trkpt lat="43.70677" lon="5.36521">
        <ele>174.592503</ele>
        <time>2021-09-17T08:45:03.000Z</time>
      </trkpt>
      <trkpt lat="43.70672" lon="5.36537">
        <ele>174.899163</ele>
        <time>2021-09-17T08:45:06.000Z</time>
      </trkpt>
      <trkpt lat="43.70657" lon="5.36582">
        <ele>175.811841</ele>
        <time>2021-09-17T08:45:14.000Z</time>
      </trkpt>
      <trkpt lat="43.70652" lon="5.36594">
        <ele>176.052004</ele>
        <time>2021-09-17T08:45:16.000Z</time>
      </trkpt>
      <trkpt lat="43.70642" lon="5.36615">
        <ele>176.52239</ele>
        <time>2021-09-17T08:45:20.000Z</time>
      </trkpt>
      <trkpt lat="43.70623" lon="5.36649">
        <ele>177.296892</ele>
        <time>2021-09-17T08:45:26.000Z</time>
      </trkpt>
      <trkpt lat="43.70593" lon="5.36683">
        <ele>178.277949</ele>
        <time>2021-09-17T08:45:34.000Z</time>
      </trkpt>
      <trkpt lat="43.70561" lon="5.36713">
        <ele>178.484515</ele>
        <time>2021-09-17T08:45:42.000Z</time>
      </trkpt>
      <trkpt lat="43.70528" lon="5.36738">
        <ele>178.626873</ele>
        <time>2021-09-17T08:45:50.000Z</time>
      </trkpt>
      <trkpt lat="43.70492" lon="5.36765">
        <ele>178.782357</ele>
        <time>2021-09-17T08:45:59.000Z</time>
      </trkpt>
      <trkpt lat="43.70468" lon="5.36798">
        <ele>178.90985</ele>
        <time>2021-09-17T08:46:06.000Z</time>
      </trkpt>
      <trkpt lat="43.70443" lon="5.36839">
        <ele>178.98506</ele>
        <time>2021-09-17T08:46:13.000Z</time>
      </trkpt>
      <trkpt lat="43.70417" lon="5.36884">
        <ele>178.744902</ele>
        <time>2021-09-17T08:46:20.000Z</time>
      </trkpt>
      <trkpt lat="43.704" lon="5.36924">
        <ele>178.549619</ele>
        <time>2021-09-17T08:46:26.000Z</time>
      </trkpt>
      <trkpt lat="43.70386" lon="5.36967">
        <ele>178.346876</ele>
        <time>2021-09-17T08:46:32.000Z</time>
      </trkpt>
      <trkpt lat="43.70376" lon="5.36997">
        <ele>178.209601</ele>
        <time>2021-09-17T08:46:36.000Z</time>
      </trkpt>
      <trkpt lat="43.70371" lon="5.37012">
        <ele>178.139186</ele>
        <time>2021-09-17T08:46:38.000Z</time>
      </trkpt>
      <trkpt lat="43.70365" lon="5.3703">
        <ele>178.058012</ele>
        <time>2021-09-17T08:46:40.000Z</time>
      </trkpt>
      <trkpt lat="43.70359" lon="5.37046">
        <ele>177.980007</ele>
        <time>2021-09-17T08:46:42.000Z</time>
      </trkpt>
      <trkpt lat="43.70336" lon="5.37117">
        <ele>177.618136</ele>
        <time>2021-09-17T08:46:50.000Z</time>
      </trkpt>
      <trkpt lat="43.7033" lon="5.37136">
        <ele>177.5221</ele>
        <time>2021-09-17T08:46:52.000Z</time>
      </trkpt>
      <trkpt lat="43.70304" lon="5.37198">
        <ele>177.192049</ele>
        <time>2021-09-17T08:46:59.000Z</time>
      </trkpt>
      <trkpt lat="43.70285" lon="5.37237">
        <ele>176.971435</ele>
        <time>2021-09-17T08:47:05.000Z</time>
      </trkpt>
      <trkpt lat="43.70267" lon="5.37273">
        <ele>176.872392</ele>
        <time>2021-09-17T08:47:12.000Z</time>
      </trkpt>
      <trkpt lat="43.70257" lon="5.37294">
        <ele>176.975304</ele>
        <time>2021-09-17T08:47:17.000Z</time>
      </trkpt>
      <trkpt lat="43.70249" lon="5.37315">
        <ele>177.072833</ele>
        <time>2021-09-17T08:47:22.000Z</time>
      </trkpt>
      <trkpt lat="43.70239" lon="5.37339">
        <ele>177.184002</ele>
        <time>2021-09-17T08:47:28.000Z</time>
      </trkpt>
      <trkpt lat="43.70227" lon="5.37368">
        <ele>177.320195</ele>
        <time>2021-09-17T08:47:34.000Z</time>
      </trkpt>
      <trkpt lat="43.70221" lon="5.37383">
        <ele>177.39009</ele>
        <time>2021-09-17T08:47:37.000Z</time>
      </trkpt>
      <trkpt lat="43.70219" lon="5.37388">
        <ele>177.416381</ele>
        <time>2021-09-17T08:47:38.000Z</time>
      </trkpt>
      <trkpt lat="43.70217" lon="5.37394">
        <ele>177.445003</ele>
        <time>2021-09-17T08:47:39.000Z</time>
      </trkpt>
      <trkpt lat="43.70208" lon="5.37415">
        <ele>177.542533</ele>
        <time>2021-09-17T08:47:42.000Z</time>
      </trkpt>
      <trkpt lat="43.7019" lon="5.37459">
        <ele>177.747278</ele>
        <time>2021-09-17T08:47:47.000Z</time>
      </trkpt>
      <trkpt lat="43.70166" lon="5.37518">
        <ele>177.411327</ele>
        <time>2021-09-17T08:47:53.000Z</time>
      </trkpt>
      <trkpt lat="43.70137" lon="5.37588">
        <ele>176.65143</ele>
        <time>2021-09-17T08:48:00.000Z</time>
      </trkpt>
      <trkpt lat="43.70113" lon="5.37641">
        <ele>176.064027</ele>
        <time>2021-09-17T08:48:06.000Z</time>
      </trkpt>
      <trkpt lat="43.70101" lon="5.37665">
        <ele>175.787648</ele>
        <time>2021-09-17T08:48:09.000Z</time>
      </trkpt>
      <trkpt lat="43.70093" lon="5.3768">
        <ele>175.610984</ele>
        <time>2021-09-17T08:48:11.000Z</time>
      </trkpt>
      <trkpt lat="43.70064" lon="5.3773">
        <ele>174.761739</ele>
        <time>2021-09-17T08:48:18.000Z</time>
      </trkpt>
      <trkpt lat="43.70036" lon="5.37766">
        <ele>174.029129</ele>
        <time>2021-09-17T08:48:24.000Z</time>
      </trkpt>
      <trkpt lat="43.70012" lon="5.37793">
        <ele>173.424451</ele>
        <time>2021-09-17T08:48:29.000Z</time>
      </trkpt>
      <trkpt lat="43.70007" lon="5.37799">
        <ele>173.305228</ele>
        <time>2021-09-17T08:48:30.000Z</time>
      </trkpt>
      <trkpt lat="43.69988" lon="5.3782">
        <ele>172.817893</ele>
        <time>2021-09-17T08:48:34.000Z</time>
      </trkpt>
      <trkpt lat="43.69958" lon="5.37853">
        <ele>172.080376</ele>
        <time>2021-09-17T08:48:40.000Z</time>
      </trkpt>
      <trkpt lat="43.69924" lon="5.3789">
        <ele>171.325859</ele>
        <time>2021-09-17T08:48:47.000Z</time>
      </trkpt>
      <trkpt lat="43.69891" lon="5.37926">
        <ele>170.595197</ele>
        <time>2021-09-17T08:48:54.000Z</time>
      </trkpt>
      <trkpt lat="43.69867" lon="5.37952">
        <ele>170.08024</ele>
        <time>2021-09-17T08:48:59.000Z</time>
      </trkpt>
      <trkpt lat="43.69831" lon="5.37994">
        <ele>169.267361</ele>
        <time>2021-09-17T08:49:07.000Z</time>
      </trkpt>
      <trkpt lat="43.69807" lon="5.3803">
        <ele>168.741492</ele>
        <time>2021-09-17T08:49:13.000Z</time>
      </trkpt>
      <trkpt lat="43.69782" lon="5.38076">
        <ele>168.26021</ele>
        <time>2021-09-17T08:49:20.000Z</time>
      </trkpt>
      <trkpt lat="43.69762" lon="5.38113">
        <ele>167.868413</ele>
        <time>2021-09-17T08:49:26.000Z</time>
      </trkpt>
      <trkpt lat="43.6974" lon="5.38154">
        <ele>167.452256</ele>
        <time>2021-09-17T08:49:33.000Z</time>
      </trkpt>
      <trkpt lat="43.69719" lon="5.38194">
        <ele>167.038803</ele>
        <time>2021-09-17T08:49:40.000Z</time>
      </trkpt>
      <trkpt lat="43.69716" lon="5.38199">
        <ele>166.979932</ele>
        <time>2021-09-17T08:49:41.000Z</time>
      </trkpt>
      <trkpt lat="43.69711" lon="5.3821">
        <ele>166.866249</ele>
        <time>2021-09-17T08:49:43.000Z</time>
      </trkpt>
      <trkpt lat="43.69707" lon="5.38216">
        <ele>166.820103</ele>
        <time>2021-09-17T08:49:44.000Z</time>
      </trkpt>
      <trkpt lat="43.69701" lon="5.38229">
        <ele>166.777555</ele>
        <time>2021-09-17T08:49:46.000Z</time>
      </trkpt>
      <trkpt lat="43.69689" lon="5.38253">
        <ele>166.695162</ele>
        <time>2021-09-17T08:49:50.000Z</time>
      </trkpt>
      <trkpt lat="43.69683" lon="5.38264">
        <ele>166.655323</ele>
        <time>2021-09-17T08:49:52.000Z</time>
      </trkpt>
      <trkpt lat="43.69674" lon="5.38282">
        <ele>166.594652</ele>
        <time>2021-09-17T08:49:55.000Z</time>
      </trkpt>
      <trkpt lat="43.69653" lon="5.38326">
        <ele>166.447811</ele>
        <time>2021-09-17T08:50:02.000Z</time>
      </trkpt>
      <trkpt lat="43.69636" lon="5.38364">
        <ele>166.324934</ele>
        <time>2021-09-17T08:50:08.000Z</time>
      </trkpt>
      <trkpt lat="43.69622" lon="5.38395">
        <ele>166.222988</ele>
        <time>2021-09-17T08:50:13.000Z</time>
      </trkpt>
      <trkpt lat="43.6962" lon="5.38401">
        <ele>166.203013</ele>
        <time>2021-09-17T08:50:14.000Z</time>
      </trkpt>
      <trkpt lat="43.696" lon="5.38445">
        <ele>166.24291</ele>
        <time>2021-09-17T08:50:21.000Z</time>
      </trkpt>
      <trkpt lat="43.69581" lon="5.3849">
        <ele>166.458486</ele>
        <time>2021-09-17T08:50:28.000Z</time>
      </trkpt>
      <trkpt lat="43.69575" lon="5.38501">
        <ele>166.514214</ele>
        <time>2021-09-17T08:50:30.000Z</time>
      </trkpt>
      <trkpt lat="43.69562" lon="5.38522">
        <ele>166.626611</ele>
        <time>2021-09-17T08:50:34.000Z</time>
      </trkpt>
      <trkpt lat="43.69537" lon="5.38559">
        <ele>166.835402</ele>
        <time>2021-09-17T08:50:42.000Z</time>
      </trkpt>
      <trkpt lat="43.69516" lon="5.3859">
        <ele>167.009585</ele>
        <time>2021-09-17T08:50:49.000Z</time>
      </trkpt>
      <trkpt lat="43.69513" lon="5.38594">
        <ele>167.034185</ele>
        <time>2021-09-17T08:50:50.000Z</time>
      </trkpt>
      <trkpt lat="43.69489" lon="5.38627">
        <ele>167.211413</ele>
        <time>2021-09-17T08:50:58.000Z</time>
      </trkpt>
      <trkpt lat="43.69486" lon="5.38631">
        <ele>167.229062</ele>
        <time>2021-09-17T08:50:59.000Z</time>
      </trkpt>
      <trkpt lat="43.69471" lon="5.38652">
        <ele>167.321338</ele>
        <time>2021-09-17T08:51:04.000Z</time>
      </trkpt>
      <trkpt lat="43.69445" lon="5.38688">
        <ele>167.477249</ele>
        <time>2021-09-17T08:51:12.000Z</time>
      </trkpt>
      <trkpt lat="43.69415" lon="5.38732">
        <ele>167.665967</ele>
        <time>2021-09-17T08:51:21.000Z</time>
      </trkpt>
      <trkpt lat="43.69379" lon="5.38777">
        <ele>167.873369</ele>
        <time>2021-09-17T08:51:30.000Z</time>
      </trkpt>
      <trkpt lat="43.69344" lon="5.38811">
        <ele>168.000225</ele>
        <time>2021-09-17T08:51:38.000Z</time>
      </trkpt>
      <trkpt lat="43.69326" lon="5.38826">
        <ele>168.04897</ele>
        <time>2021-09-17T08:51:42.000Z</time>
      </trkpt>
      <trkpt lat="43.69313" lon="5.38838">
        <ele>168.085151</ele>
        <time>2021-09-17T08:51:45.000Z</time>
      </trkpt>
      <trkpt lat="43.69273" lon="5.38872">
        <ele>168.193301</ele>
        <time>2021-09-17T08:51:54.000Z</time>
      </trkpt>
      <trkpt lat="43.69253" lon="5.3889">
        <ele>168.249929</ele>
        <time>2021-09-17T08:51:59.000Z</time>
      </trkpt>
      <trkpt lat="43.69249" lon="5.38894">
        <ele>168.260679</ele>
        <time>2021-09-17T08:52:00.000Z</time>
      </trkpt>
      <trkpt lat="43.69221" lon="5.38917">
        <ele>168.335105</ele>
        <time>2021-09-17T08:52:07.000Z</time>
      </trkpt>
      <trkpt lat="43.6921" lon="5.38927">
        <ele>168.395382</ele>
        <time>2021-09-17T08:52:10.000Z</time>
      </trkpt>
      <trkpt lat="43.69204" lon="5.38933">
        <ele>168.446245</ele>
        <time>2021-09-17T08:52:12.000Z</time>
      </trkpt>
      <trkpt lat="43.69186" lon="5.38951">
        <ele>168.584888</ele>
        <time>2021-09-17T08:52:18.000Z</time>
      </trkpt>
      <trkpt lat="43.6917" lon="5.3897">
        <ele>168.714264</ele>
        <time>2021-09-17T08:52:24.000Z</time>
      </trkpt>
      <trkpt lat="43.69157" lon="5.38993">
        <ele>168.847776</ele>
        <time>2021-09-17T08:52:29.000Z</time>
      </trkpt>
      <trkpt lat="43.6914" lon="5.39035">
        <ele>169.060085</ele>
        <time>2021-09-17T08:52:36.000Z</time>
      </trkpt>
      <trkpt lat="43.69134" lon="5.39052">
        <ele>169.14734</ele>
        <time>2021-09-17T08:52:39.000Z</time>
      </trkpt>
      <trkpt lat="43.69128" lon="5.3907">
        <ele>169.23866</ele>
        <time>2021-09-17T08:52:42.000Z</time>
      </trkpt>
      <trkpt lat="43.69114" lon="5.3911">
        <ele>169.43824</ele>
        <time>2021-09-17T08:52:48.000Z</time>
      </trkpt>
      <trkpt lat="43.69104" lon="5.39137">
        <ele>169.567672</ele>
        <time>2021-09-17T08:52:52.000Z</time>
      </trkpt>
      <trkpt lat="43.69084" lon="5.39181">
        <ele>169.78161</ele>
        <time>2021-09-17T08:52:58.000Z</time>
      </trkpt>
      <trkpt lat="43.69057" lon="5.39221">
        <ele>170.005934</ele>
        <time>2021-09-17T08:53:05.000Z</time>
      </trkpt>
      <trkpt lat="43.69044" lon="5.39239">
        <ele>170.112608</ele>
        <time>2021-09-17T08:53:09.000Z</time>
      </trkpt>
      <trkpt lat="43.69041" lon="5.39243">
        <ele>170.136496</ele>
        <time>2021-09-17T08:53:10.000Z</time>
      </trkpt>
      <trkpt lat="43.69021" lon="5.3927">
        <ele>170.298935</ele>
        <time>2021-09-17T08:53:17.000Z</time>
      </trkpt>
      <trkpt lat="43.69004" lon="5.39293">
        <ele>170.434523</ele>
        <time>2021-09-17T08:53:23.000Z</time>
      </trkpt>
      <trkpt lat="43.68984" lon="5.39319">
        <ele>170.649167</ele>
        <time>2021-09-17T08:53:30.000Z</time>
      </trkpt>
      <trkpt lat="43.68963" lon="5.39346">
        <ele>170.90345</ele>
        <time>2021-09-17T08:53:37.000Z</time>
      </trkpt>
      <trkpt lat="43.68941" lon="5.39373">
        <ele>171.172448</ele>
        <time>2021-09-17T08:53:45.000Z</time>
      </trkpt>
      <trkpt lat="43.68922" lon="5.39394">
        <ele>171.396088</ele>
        <time>2021-09-17T08:53:52.000Z</time>
      </trkpt>
      <trkpt lat="43.68893" lon="5.39412">
        <ele>171.679407</ele>
        <time>2021-09-17T08:54:01.000Z</time>
      </trkpt>
      <trkpt lat="43.68875" lon="5.3942">
        <ele>171.853632</ele>
        <time>2021-09-17T08:54:07.000Z</time>
      </trkpt>
      <trkpt lat="43.68854" lon="5.39429">
        <ele>172.054562</ele>
        <time>2021-09-17T08:54:14.000Z</time>
      </trkpt>
      <trkpt lat="43.6884" lon="5.39435">
        <ele>172.243577</ele>
        <time>2021-09-17T08:54:19.000Z</time>
      </trkpt>
      <trkpt lat="43.68824" lon="5.39441">
        <ele>172.530298</ele>
        <time>2021-09-17T08:54:24.000Z</time>
      </trkpt>
      <trkpt lat="43.68805" lon="5.39449">
        <ele>172.882368</ele>
        <time>2021-09-17T08:54:30.000Z</time>
      </trkpt>
      <trkpt lat="43.6878" lon="5.39459">
        <ele>173.357452</ele>
        <time>2021-09-17T08:54:38.000Z</time>
      </trkpt>
      <trkpt lat="43.68762" lon="5.39466">
        <ele>173.700457</ele>
        <time>2021-09-17T08:54:44.000Z</time>
      </trkpt>
      <trkpt lat="43.68745" lon="5.39473">
        <ele>174.009922</ele>
        <time>2021-09-17T08:54:49.000Z</time>
      </trkpt>
      <trkpt lat="43.68726" lon="5.3948">
        <ele>174.365715</ele>
        <time>2021-09-17T08:54:55.000Z</time>
      </trkpt>
      <trkpt lat="43.68704" lon="5.3949">
        <ele>174.784516</ele>
        <time>2021-09-17T08:55:01.000Z</time>
      </trkpt>
      <trkpt lat="43.68706" lon="5.39491">
        <ele>174.835801</ele>
        <time>2021-09-17T08:55:06.000Z</time>
      </trkpt>
      <trkpt lat="43.68706" lon="5.39491">
        <ele>174.835801</ele>
        <time>2021-09-17T08:55:07.000Z</time>
      </trkpt>
      <trkpt lat="43.68703" lon="5.39494">
        <ele>174.910842</ele>
        <time>2021-09-17T08:55:41.000Z</time>
      </trkpt>
      <trkpt lat="43.68699" lon="5.39497">
        <ele>174.993733</ele>
        <time>2021-09-17T08:55:43.000Z</time>
      </trkpt>
      <trkpt lat="43.68684" lon="5.39508">
        <ele>175.289805</ele>
        <time>2021-09-17T08:55:48.000Z</time>
      </trkpt>
      <trkpt lat="43.68666" lon="5.39529">
        <ele>175.543435</ele>
        <time>2021-09-17T08:55:54.000Z</time>
      </trkpt>
      <trkpt lat="43.68651" lon="5.39552">
        <ele>175.74963</ele>
        <time>2021-09-17T08:55:59.000Z</time>
      </trkpt>
      <trkpt lat="43.68636" lon="5.39589">
        <ele>176.038933</ele>
        <time>2021-09-17T08:56:05.000Z</time>
      </trkpt>
      <trkpt lat="43.68623" lon="5.39628">
        <ele>176.327751</ele>
        <time>2021-09-17T08:56:11.000Z</time>
      </trkpt>
      <trkpt lat="43.68607" lon="5.39677">
        <ele>176.696277</ele>
        <time>2021-09-17T08:56:18.000Z</time>
      </trkpt>
      <trkpt lat="43.68594" lon="5.39716">
        <ele>176.986102</ele>
        <time>2021-09-17T08:56:23.000Z</time>
      </trkpt>
      <trkpt lat="43.68565" lon="5.39779">
        <ele>177.230394</ele>
        <time>2021-09-17T08:56:31.000Z</time>
      </trkpt>
      <trkpt lat="43.68541" lon="5.39819">
        <ele>177.379012</ele>
        <time>2021-09-17T08:56:37.000Z</time>
      </trkpt>
      <trkpt lat="43.68518" lon="5.39854">
        <ele>177.51501</ele>
        <time>2021-09-17T08:56:43.000Z</time>
      </trkpt>
      <trkpt lat="43.68501" lon="5.39882">
        <ele>177.620676</ele>
        <time>2021-09-17T08:56:48.000Z</time>
      </trkpt>
      <trkpt lat="43.68494" lon="5.39893">
        <ele>177.660166</ele>
        <time>2021-09-17T08:56:50.000Z</time>
      </trkpt>
      <trkpt lat="43.68475" lon="5.39923">
        <ele>177.678619</ele>
        <time>2021-09-17T08:56:56.000Z</time>
      </trkpt>
      <trkpt lat="43.68457" lon="5.39953">
        <ele>177.286832</ele>
        <time>2021-09-17T08:57:02.000Z</time>
      </trkpt>
      <trkpt lat="43.68433" lon="5.3999">
        <ele>176.79694</ele>
        <time>2021-09-17T08:57:09.000Z</time>
      </trkpt>
      <trkpt lat="43.6843" lon="5.39995">
        <ele>176.728721</ele>
        <time>2021-09-17T08:57:10.000Z</time>
      </trkpt>
      <trkpt lat="43.68421" lon="5.4001">
        <ele>176.536146</ele>
        <time>2021-09-17T08:57:13.000Z</time>
      </trkpt>
      <trkpt lat="43.68411" lon="5.40026">
        <ele>176.320026</ele>
        <time>2021-09-17T08:57:16.000Z</time>
      </trkpt>
      <trkpt lat="43.68408" lon="5.40031">
        <ele>176.252694</ele>
        <time>2021-09-17T08:57:17.000Z</time>
      </trkpt>
      <trkpt lat="43.68389" lon="5.40061">
        <ele>175.860296</ele>
        <time>2021-09-17T08:57:22.000Z</time>
      </trkpt>
      <trkpt lat="43.68385" lon="5.40068">
        <ele>175.76929</ele>
        <time>2021-09-17T08:57:23.000Z</time>
      </trkpt>
      <trkpt lat="43.68372" lon="5.40089">
        <ele>175.487367</ele>
        <time>2021-09-17T08:57:26.000Z</time>
      </trkpt>
      <trkpt lat="43.6836" lon="5.40108">
        <ele>175.240188</ele>
        <time>2021-09-17T08:57:29.000Z</time>
      </trkpt>
      <trkpt lat="43.68352" lon="5.4012">
        <ele>175.088775</ele>
        <time>2021-09-17T08:57:31.000Z</time>
      </trkpt>
      <trkpt lat="43.68336" lon="5.40145">
        <ele>174.77883</ele>
        <time>2021-09-17T08:57:35.000Z</time>
      </trkpt>
      <trkpt lat="43.68313" lon="5.40182">
        <ele>174.315477</ele>
        <time>2021-09-17T08:57:41.000Z</time>
      </trkpt>
      <trkpt lat="43.68289" lon="5.40222">
        <ele>173.832375</ele>
        <time>2021-09-17T08:57:48.000Z</time>
      </trkpt>
      <trkpt lat="43.68266" lon="5.40261">
        <ele>173.353101</ele>
        <time>2021-09-17T08:57:56.000Z</time>
      </trkpt>
      <trkpt lat="43.68244" lon="5.40297">
        <ele>172.962379</ele>
        <time>2021-09-17T08:58:04.000Z</time>
      </trkpt>
      <trkpt lat="43.68223" lon="5.40331">
        <ele>173.626958</ele>
        <time>2021-09-17T08:58:12.000Z</time>
      </trkpt>
      <trkpt lat="43.68201" lon="5.40368">
        <ele>174.325083</ele>
        <time>2021-09-17T08:58:20.000Z</time>
      </trkpt>
      <trkpt lat="43.68183" lon="5.40397">
        <ele>174.886958</ele>
        <time>2021-09-17T08:58:27.000Z</time>
      </trkpt>
      <trkpt lat="43.6816" lon="5.40433">
        <ele>175.59768</ele>
        <time>2021-09-17T08:58:36.000Z</time>
      </trkpt>
      <trkpt lat="43.6814" lon="5.40463">
        <ele>176.207401</ele>
        <time>2021-09-17T08:58:45.000Z</time>
      </trkpt>
      <trkpt lat="43.68119" lon="5.40494">
        <ele>176.945838</ele>
        <time>2021-09-17T08:58:55.000Z</time>
      </trkpt>
      <trkpt lat="43.681" lon="5.40521">
        <ele>177.781544</ele>
        <time>2021-09-17T08:59:04.000Z</time>
      </trkpt>
      <trkpt lat="43.68088" lon="5.4054">
        <ele>178.334794</ele>
        <time>2021-09-17T08:59:10.000Z</time>
      </trkpt>
      <trkpt lat="43.68066" lon="5.40573">
        <ele>179.34287</ele>
        <time>2021-09-17T08:59:20.000Z</time>
      </trkpt>
      <trkpt lat="43.68048" lon="5.406">
        <ele>180.162017</ele>
        <time>2021-09-17T08:59:28.000Z</time>
      </trkpt>
      <trkpt lat="43.6803" lon="5.40626">
        <ele>180.963721</ele>
        <time>2021-09-17T08:59:35.000Z</time>
      </trkpt>
      <trkpt lat="43.68012" lon="5.40655">
        <ele>181.812146</ele>
        <time>2021-09-17T08:59:42.000Z</time>
      </trkpt>
      <trkpt lat="43.67988" lon="5.40691">
        <ele>182.482036</ele>
        <time>2021-09-17T08:59:50.000Z</time>
      </trkpt>
      <trkpt lat="43.67954" lon="5.40743">
        <ele>183.162858</ele>
        <time>2021-09-17T09:00:00.000Z</time>
      </trkpt>
      <trkpt lat="43.67928" lon="5.40785">
        <ele>183.712792</ele>
        <time>2021-09-17T09:00:08.000Z</time>
      </trkpt>
      <trkpt lat="43.67904" lon="5.40825">
        <ele>184.22001</ele>
        <time>2021-09-17T09:00:15.000Z</time>
      </trkpt>
      <trkpt lat="43.67894" lon="5.40841">
        <ele>184.432346</ele>
        <time>2021-09-17T09:00:18.000Z</time>
      </trkpt>
      <trkpt lat="43.67891" lon="5.40846">
        <ele>184.500444</ele>
        <time>2021-09-17T09:00:19.000Z</time>
      </trkpt>
      <trkpt lat="43.6788" lon="5.40865">
        <ele>184.648842</ele>
        <time>2021-09-17T09:00:22.000Z</time>
      </trkpt>
      <trkpt lat="43.67872" lon="5.40878">
        <ele>184.714617</ele>
        <time>2021-09-17T09:00:24.000Z</time>
      </trkpt>
      <trkpt lat="43.67841" lon="5.40917">
        <ele>184.943948</ele>
        <time>2021-09-17T09:00:31.000Z</time>
      </trkpt>
      <trkpt lat="43.678" lon="5.40956">
        <ele>185.213015</ele>
        <time>2021-09-17T09:00:40.000Z</time>
      </trkpt>
      <trkpt lat="43.6777" lon="5.4099">
        <ele>185.424621</ele>
        <time>2021-09-17T09:00:48.000Z</time>
      </trkpt>
      <trkpt lat="43.67747" lon="5.41024">
        <ele>185.607839</ele>
        <time>2021-09-17T09:00:55.000Z</time>
      </trkpt>
      <trkpt lat="43.67726" lon="5.41061">
        <ele>185.799713</ele>
        <time>2021-09-17T09:01:03.000Z</time>
      </trkpt>
      <trkpt lat="43.67713" lon="5.41091">
        <ele>185.939226</ele>
        <time>2021-09-17T09:01:10.000Z</time>
      </trkpt>
      <trkpt lat="43.67702" lon="5.41124">
        <ele>186.08746</ele>
        <time>2021-09-17T09:01:16.000Z</time>
      </trkpt>
      <trkpt lat="43.67682" lon="5.41153">
        <ele>186.249892</ele>
        <time>2021-09-17T09:01:22.000Z</time>
      </trkpt>
      <trkpt lat="43.6766" lon="5.41186">
        <ele>186.431444</ele>
        <time>2021-09-17T09:01:29.000Z</time>
      </trkpt>
      <trkpt lat="43.67642" lon="5.41216">
        <ele>186.591197</ele>
        <time>2021-09-17T09:01:35.000Z</time>
      </trkpt>
      <trkpt lat="43.67609" lon="5.41252">
        <ele>186.890875</ele>
        <time>2021-09-17T09:01:44.000Z</time>
      </trkpt>
      <trkpt lat="43.67579" lon="5.41281">
        <ele>187.149585</ele>
        <time>2021-09-17T09:01:52.000Z</time>
      </trkpt>
      <trkpt lat="43.67548" lon="5.41311">
        <ele>187.412333</ele>
        <time>2021-09-17T09:02:00.000Z</time>
      </trkpt>
      <trkpt lat="43.67502" lon="5.41354">
        <ele>187.800531</ele>
        <time>2021-09-17T09:02:11.000Z</time>
      </trkpt>
      <trkpt lat="43.67481" lon="5.41375">
        <ele>187.919697</ele>
        <time>2021-09-17T09:02:16.000Z</time>
      </trkpt>
      <trkpt lat="43.67473" lon="5.41383">
        <ele>187.960092</ele>
        <time>2021-09-17T09:02:18.000Z</time>
      </trkpt>
      <trkpt lat="43.67428" lon="5.41426">
        <ele>188.173749</ele>
        <time>2021-09-17T09:02:28.000Z</time>
      </trkpt>
      <trkpt lat="43.67398" lon="5.41455">
        <ele>188.31927</ele>
        <time>2021-09-17T09:02:35.000Z</time>
      </trkpt>
      <trkpt lat="43.67365" lon="5.41486">
        <ele>188.475986</ele>
        <time>2021-09-17T09:02:43.000Z</time>
      </trkpt>
      <trkpt lat="43.67321" lon="5.41534">
        <ele>188.763593</ele>
        <time>2021-09-17T09:02:54.000Z</time>
      </trkpt>
      <trkpt lat="43.67277" lon="5.41582">
        <ele>189.084388</ele>
        <time>2021-09-17T09:03:05.000Z</time>
      </trkpt>
      <trkpt lat="43.67273" lon="5.41587">
        <ele>189.113645</ele>
        <time>2021-09-17T09:03:06.000Z</time>
      </trkpt>
      <trkpt lat="43.67235" lon="5.41629">
        <ele>189.394341</ele>
        <time>2021-09-17T09:03:16.000Z</time>
      </trkpt>
      <trkpt lat="43.67206" lon="5.4166">
        <ele>189.614322</ele>
        <time>2021-09-17T09:03:24.000Z</time>
      </trkpt>
      <trkpt lat="43.67187" lon="5.4168">
        <ele>189.796366</ele>
        <time>2021-09-17T09:03:30.000Z</time>
      </trkpt>
      <trkpt lat="43.67165" lon="5.41704">
        <ele>190.011996</ele>
        <time>2021-09-17T09:03:37.000Z</time>
      </trkpt>
      <trkpt lat="43.67142" lon="5.41727">
        <ele>190.233486</ele>
        <time>2021-09-17T09:03:44.000Z</time>
      </trkpt>
      <trkpt lat="43.67138" lon="5.4173">
        <ele>190.267102</ele>
        <time>2021-09-17T09:03:45.000Z</time>
      </trkpt>
      <trkpt lat="43.67115" lon="5.41746">
        <ele>190.466713</ele>
        <time>2021-09-17T09:03:51.000Z</time>
      </trkpt>
      <trkpt lat="43.67096" lon="5.41757">
        <ele>190.622832</ele>
        <time>2021-09-17T09:03:56.000Z</time>
      </trkpt>
      <trkpt lat="43.6707" lon="5.41772">
        <ele>190.841889</ele>
        <time>2021-09-17T09:04:03.000Z</time>
      </trkpt>
      <trkpt lat="43.67044" lon="5.41786">
        <ele>191.049312</ele>
        <time>2021-09-17T09:04:10.000Z</time>
      </trkpt>
      <trkpt lat="43.67022" lon="5.41799">
        <ele>191.224055</ele>
        <time>2021-09-17T09:04:16.000Z</time>
      </trkpt>
      <trkpt lat="43.66997" lon="5.41815">
        <ele>191.422314</ele>
        <time>2021-09-17T09:04:23.000Z</time>
      </trkpt>
      <trkpt lat="43.66993" lon="5.41817">
        <ele>191.454548</ele>
        <time>2021-09-17T09:04:24.000Z</time>
      </trkpt>
      <trkpt lat="43.66977" lon="5.41828">
        <ele>191.582821</ele>
        <time>2021-09-17T09:04:28.000Z</time>
      </trkpt>
      <trkpt lat="43.66973" lon="5.4183">
        <ele>191.612627</ele>
        <time>2021-09-17T09:04:29.000Z</time>
      </trkpt>
      <trkpt lat="43.66951" lon="5.41846">
        <ele>191.797558</ele>
        <time>2021-09-17T09:04:35.000Z</time>
      </trkpt>
      <trkpt lat="43.66926" lon="5.41872">
        <ele>192.024347</ele>
        <time>2021-09-17T09:04:42.000Z</time>
      </trkpt>
      <trkpt lat="43.669" lon="5.41902">
        <ele>192.270976</ele>
        <time>2021-09-17T09:04:49.000Z</time>
      </trkpt>
      <trkpt lat="43.66893" lon="5.41911">
        <ele>192.301422</ele>
        <time>2021-09-17T09:04:51.000Z</time>
      </trkpt>
      <trkpt lat="43.66884" lon="5.41925">
        <ele>192.348771</ele>
        <time>2021-09-17T09:04:54.000Z</time>
      </trkpt>
      <trkpt lat="43.66869" lon="5.4196">
        <ele>192.444761</ele>
        <time>2021-09-17T09:05:00.000Z</time>
      </trkpt>
      <trkpt lat="43.66858" lon="5.41987">
        <ele>192.520902</ele>
        <time>2021-09-17T09:05:05.000Z</time>
      </trkpt>
      <trkpt lat="43.66851" lon="5.42003">
        <ele>192.565435</ele>
        <time>2021-09-17T09:05:08.000Z</time>
      </trkpt>
      <trkpt lat="43.66841" lon="5.42028">
        <ele>192.63453</ele>
        <time>2021-09-17T09:05:12.000Z</time>
      </trkpt>
      <trkpt lat="43.66836" lon="5.42039">
        <ele>192.665345</ele>
        <time>2021-09-17T09:05:14.000Z</time>
      </trkpt>
      <trkpt lat="43.66832" lon="5.42049">
        <ele>192.693991</ele>
        <time>2021-09-17T09:05:16.000Z</time>
      </trkpt>
      <trkpt lat="43.66824" lon="5.42067">
        <ele>192.744029</ele>
        <time>2021-09-17T09:05:19.000Z</time>
      </trkpt>
      <trkpt lat="43.66812" lon="5.42098">
        <ele>192.82922</ele>
        <time>2021-09-17T09:05:24.000Z</time>
      </trkpt>
      <trkpt lat="43.66793" lon="5.42143">
        <ele>192.986484</ele>
        <time>2021-09-17T09:05:31.000Z</time>
      </trkpt>
      <trkpt lat="43.6679" lon="5.4215">
        <ele>193.009401</ele>
        <time>2021-09-17T09:05:32.000Z</time>
      </trkpt>
      <trkpt lat="43.66784" lon="5.42169">
        <ele>193.080049</ele>
        <time>2021-09-17T09:05:35.000Z</time>
      </trkpt>
      <trkpt lat="43.66782" lon="5.42177">
        <ele>193.105569</ele>
        <time>2021-09-17T09:05:36.000Z</time>
      </trkpt>
      <trkpt lat="43.66773" lon="5.4222">
        <ele>193.252357</ele>
        <time>2021-09-17T09:05:42.000Z</time>
      </trkpt>
      <trkpt lat="43.66772" lon="5.42226">
        <ele>193.274401</ele>
        <time>2021-09-17T09:05:43.000Z</time>
      </trkpt>
      <trkpt lat="43.66768" lon="5.42246">
        <ele>193.34097</ele>
        <time>2021-09-17T09:05:46.000Z</time>
      </trkpt>
      <trkpt lat="43.66766" lon="5.42253">
        <ele>193.363767</ele>
        <time>2021-09-17T09:05:47.000Z</time>
      </trkpt>
      <trkpt lat="43.66763" lon="5.42267">
        <ele>193.413573</ele>
        <time>2021-09-17T09:05:49.000Z</time>
      </trkpt>
      <trkpt lat="43.6676" lon="5.42282">
        <ele>193.4635</ele>
        <time>2021-09-17T09:05:51.000Z</time>
      </trkpt>
      <trkpt lat="43.66755" lon="5.42309">
        <ele>193.555699</ele>
        <time>2021-09-17T09:05:55.000Z</time>
      </trkpt>
      <trkpt lat="43.66753" lon="5.42316">
        <ele>193.57881</ele>
        <time>2021-09-17T09:05:56.000Z</time>
      </trkpt>
      <trkpt lat="43.66745" lon="5.42351">
        <ele>193.708259</ele>
        <time>2021-09-17T09:06:01.000Z</time>
      </trkpt>
      <trkpt lat="43.66734" lon="5.42383">
        <ele>193.870239</ele>
        <time>2021-09-17T09:06:06.000Z</time>
      </trkpt>
      <trkpt lat="43.66729" lon="5.42394">
        <ele>193.930854</ele>
        <time>2021-09-17T09:06:08.000Z</time>
      </trkpt>
      <trkpt lat="43.66708" lon="5.42444">
        <ele>194.193521</ele>
        <time>2021-09-17T09:06:16.000Z</time>
      </trkpt>
      <trkpt lat="43.667" lon="5.42463">
        <ele>194.293036</ele>
        <time>2021-09-17T09:06:19.000Z</time>
      </trkpt>
      <trkpt lat="43.66695" lon="5.42475">
        <ele>194.3593</ele>
        <time>2021-09-17T09:06:21.000Z</time>
      </trkpt>
      <trkpt lat="43.66682" lon="5.42507">
        <ele>194.527305</ele>
        <time>2021-09-17T09:06:26.000Z</time>
      </trkpt>
      <trkpt lat="43.66665" lon="5.42544">
        <ele>194.730123</ele>
        <time>2021-09-17T09:06:32.000Z</time>
      </trkpt>
      <trkpt lat="43.66646" lon="5.42588">
        <ele>194.904366</ele>
        <time>2021-09-17T09:06:39.000Z</time>
      </trkpt>
      <trkpt lat="43.66641" lon="5.426">
        <ele>194.940354</ele>
        <time>2021-09-17T09:06:41.000Z</time>
      </trkpt>
      <trkpt lat="43.66633" lon="5.42619">
        <ele>194.996474</ele>
        <time>2021-09-17T09:06:44.000Z</time>
      </trkpt>
      <trkpt lat="43.6663" lon="5.42625">
        <ele>195.016158</ele>
        <time>2021-09-17T09:06:45.000Z</time>
      </trkpt>
      <trkpt lat="43.66619" lon="5.4265">
        <ele>195.092369</ele>
        <time>2021-09-17T09:06:49.000Z</time>
      </trkpt>
      <trkpt lat="43.66601" lon="5.42694">
        <ele>195.22533</ele>
        <time>2021-09-17T09:06:56.000Z</time>
      </trkpt>
      <trkpt lat="43.66583" lon="5.42732">
        <ele>195.340984</ele>
        <time>2021-09-17T09:07:02.000Z</time>
      </trkpt>
      <trkpt lat="43.6658" lon="5.42738">
        <ele>195.360594</ele>
        <time>2021-09-17T09:07:03.000Z</time>
      </trkpt>
      <trkpt lat="43.66567" lon="5.42763">
        <ele>195.440292</ele>
        <time>2021-09-17T09:07:07.000Z</time>
      </trkpt>
      <trkpt lat="43.66546" lon="5.42804">
        <ele>195.641208</ele>
        <time>2021-09-17T09:07:14.000Z</time>
      </trkpt>
      <trkpt lat="43.66543" lon="5.4281">
        <ele>195.669877</ele>
        <time>2021-09-17T09:07:15.000Z</time>
      </trkpt>
      <trkpt lat="43.66535" lon="5.42827">
        <ele>195.761537</ele>
        <time>2021-09-17T09:07:18.000Z</time>
      </trkpt>
      <trkpt lat="43.66529" lon="5.42839">
        <ele>195.825949</ele>
        <time>2021-09-17T09:07:20.000Z</time>
      </trkpt>
      <trkpt lat="43.66524" lon="5.42849">
        <ele>195.87904</ele>
        <time>2021-09-17T09:07:22.000Z</time>
      </trkpt>
      <trkpt lat="43.66518" lon="5.4286">
        <ele>195.936737</ele>
        <time>2021-09-17T09:07:24.000Z</time>
      </trkpt>
      <trkpt lat="43.66513" lon="5.4287">
        <ele>195.989469</ele>
        <time>2021-09-17T09:07:26.000Z</time>
      </trkpt>
      <trkpt lat="43.66511" lon="5.42875">
        <ele>196.018138</ele>
        <time>2021-09-17T09:07:27.000Z</time>
      </trkpt>
      <trkpt lat="43.66505" lon="5.42885">
        <ele>196.071932</ele>
        <time>2021-09-17T09:07:29.000Z</time>
      </trkpt>
      <trkpt lat="43.66497" lon="5.42903">
        <ele>196.164669</ele>
        <time>2021-09-17T09:07:32.000Z</time>
      </trkpt>
      <trkpt lat="43.6649" lon="5.42916">
        <ele>196.231564</ele>
        <time>2021-09-17T09:07:34.000Z</time>
      </trkpt>
      <trkpt lat="43.66485" lon="5.42929">
        <ele>196.299702</ele>
        <time>2021-09-17T09:07:36.000Z</time>
      </trkpt>
      <trkpt lat="43.66476" lon="5.42957">
        <ele>196.431112</ele>
        <time>2021-09-17T09:07:40.000Z</time>
      </trkpt>
      <trkpt lat="43.66466" lon="5.43004">
        <ele>196.723293</ele>
        <time>2021-09-17T09:07:47.000Z</time>
      </trkpt>
      <trkpt lat="43.66465" lon="5.43009">
        <ele>196.769851</ele>
        <time>2021-09-17T09:07:48.000Z</time>
      </trkpt>
      <trkpt lat="43.6646" lon="5.4303">
        <ele>196.946127</ele>
        <time>2021-09-17T09:07:51.000Z</time>
      </trkpt>
      <trkpt lat="43.66454" lon="5.43058">
        <ele>197.184221</ele>
        <time>2021-09-17T09:07:55.000Z</time>
      </trkpt>
      <trkpt lat="43.66452" lon="5.43065">
        <ele>197.241764</ele>
        <time>2021-09-17T09:07:56.000Z</time>
      </trkpt>
      <trkpt lat="43.66446" lon="5.4309">
        <ele>197.453655</ele>
        <time>2021-09-17T09:08:00.000Z</time>
      </trkpt>
      <trkpt lat="43.66436" lon="5.43126">
        <ele>197.766189</ele>
        <time>2021-09-17T09:08:06.000Z</time>
      </trkpt>
      <trkpt lat="43.66425" lon="5.43156">
        <ele>198.037506</ele>
        <time>2021-09-17T09:08:11.000Z</time>
      </trkpt>
      <trkpt lat="43.66416" lon="5.43181">
        <ele>198.267948</ele>
        <time>2021-09-17T09:08:15.000Z</time>
      </trkpt>
      <trkpt lat="43.66403" lon="5.4322">
        <ele>198.634197</ele>
        <time>2021-09-17T09:08:21.000Z</time>
      </trkpt>
      <trkpt lat="43.66397" lon="5.43238">
        <ele>198.850359</ele>
        <time>2021-09-17T09:08:24.000Z</time>
      </trkpt>
      <trkpt lat="43.66393" lon="5.43249">
        <ele>198.987039</ele>
        <time>2021-09-17T09:08:26.000Z</time>
      </trkpt>
      <trkpt lat="43.66384" lon="5.43277">
        <ele>199.342579</ele>
        <time>2021-09-17T09:08:31.000Z</time>
      </trkpt>
      <trkpt lat="43.66382" lon="5.43282">
        <ele>199.402126</ele>
        <time>2021-09-17T09:08:32.000Z</time>
      </trkpt>
      <trkpt lat="43.66377" lon="5.43286">
        <ele>199.495167</ele>
        <time>2021-09-17T09:08:33.000Z</time>
      </trkpt>
      <trkpt lat="43.66371" lon="5.43283">
        <ele>199.591857</ele>
        <time>2021-09-17T09:08:35.000Z</time>
      </trkpt>
      <trkpt lat="43.66357" lon="5.43274">
        <ele>199.831892</ele>
        <time>2021-09-17T09:08:40.000Z</time>
      </trkpt>
      <trkpt lat="43.66332" lon="5.43259">
        <ele>200.263424</ele>
        <time>2021-09-17T09:08:48.000Z</time>
      </trkpt>
      <trkpt lat="43.66329" lon="5.43257">
        <ele>200.312485</ele>
        <time>2021-09-17T09:08:49.000Z</time>
      </trkpt>
      <trkpt lat="43.66321" lon="5.43264">
        <ele>200.452182</ele>
        <time>2021-09-17T09:08:51.000Z</time>
      </trkpt>
      <trkpt lat="43.66321" lon="5.43269">
        <ele>200.505488</ele>
        <time>2021-09-17T09:08:52.000Z</time>
      </trkpt>
      <trkpt lat="43.66319" lon="5.43279">
        <ele>200.621228</ele>
        <time>2021-09-17T09:08:54.000Z</time>
      </trkpt>
      <trkpt lat="43.66318" lon="5.43284">
        <ele>200.680026</ele>
        <time>2021-09-17T09:08:55.000Z</time>
      </trkpt>
      <trkpt lat="43.66316" lon="5.43297">
        <ele>200.839586</ele>
        <time>2021-09-17T09:08:58.000Z</time>
      </trkpt>
      <trkpt lat="43.66311" lon="5.43325">
        <ele>201.160901</ele>
        <time>2021-09-17T09:09:03.000Z</time>
      </trkpt>
      <trkpt lat="43.6631" lon="5.43331">
        <ele>201.229178</ele>
        <time>2021-09-17T09:09:04.000Z</time>
      </trkpt>
      <trkpt lat="43.66307" lon="5.43347">
        <ele>201.406531</ele>
        <time>2021-09-17T09:09:07.000Z</time>
      </trkpt>
      <trkpt lat="43.66304" lon="5.43369">
        <ele>201.61487</ele>
        <time>2021-09-17T09:09:11.000Z</time>
      </trkpt>
      <trkpt lat="43.66303" lon="5.43375">
        <ele>201.670287</ele>
        <time>2021-09-17T09:09:12.000Z</time>
      </trkpt>
      <trkpt lat="43.66302" lon="5.43381">
        <ele>201.723641</ele>
        <time>2021-09-17T09:09:13.000Z</time>
      </trkpt>
      <trkpt lat="43.66298" lon="5.43402">
        <ele>201.920719</ele>
        <time>2021-09-17T09:09:17.000Z</time>
      </trkpt>
      <trkpt lat="43.66296" lon="5.43417">
        <ele>202.066228</ele>
        <time>2021-09-17T09:09:20.000Z</time>
      </trkpt>
      <trkpt lat="43.66292" lon="5.43423">
        <ele>202.138329</ele>
        <time>2021-09-17T09:09:21.000Z</time>
      </trkpt>
      <trkpt lat="43.66269" lon="5.43431">
        <ele>202.437277</ele>
        <time>2021-09-17T09:09:26.000Z</time>
      </trkpt>
      <trkpt lat="43.66248" lon="5.43437">
        <ele>202.713684</ele>
        <time>2021-09-17T09:09:31.000Z</time>
      </trkpt>
      <trkpt lat="43.66231" lon="5.43442">
        <ele>202.926652</ele>
        <time>2021-09-17T09:09:36.000Z</time>
      </trkpt>
      <trkpt lat="43.66229" lon="5.43446">
        <ele>202.969733</ele>
        <time>2021-09-17T09:09:37.000Z</time>
      </trkpt>
      <trkpt lat="43.66229" lon="5.43455">
        <ele>203.051751</ele>
        <time>2021-09-17T09:09:39.000Z</time>
      </trkpt>
      <trkpt lat="43.66226" lon="5.43481">
        <ele>203.29071</ele>
        <time>2021-09-17T09:09:45.000Z</time>
      </trkpt>
      <trkpt lat="43.66225" lon="5.43498">
        <ele>203.446423</ele>
        <time>2021-09-17T09:09:48.000Z</time>
      </trkpt>
      <trkpt lat="43.66223" lon="5.4351">
        <ele>203.562488</ele>
        <time>2021-09-17T09:09:50.000Z</time>
      </trkpt>
      <trkpt lat="43.6622" lon="5.43549">
        <ele>203.881473</ele>
        <time>2021-09-17T09:09:56.000Z</time>
      </trkpt>
      <trkpt lat="43.66218" lon="5.43571">
        <ele>204.061182</ele>
        <time>2021-09-17T09:10:00.000Z</time>
      </trkpt>
      <trkpt lat="43.66216" lon="5.43602">
        <ele>204.307604</ele>
        <time>2021-09-17T09:10:05.000Z</time>
      </trkpt>
      <trkpt lat="43.66213" lon="5.43635">
        <ele>204.577103</ele>
        <time>2021-09-17T09:10:10.000Z</time>
      </trkpt>
      <trkpt lat="43.6621" lon="5.43671">
        <ele>204.86598</ele>
        <time>2021-09-17T09:10:15.000Z</time>
      </trkpt>
      <trkpt lat="43.66209" lon="5.43677">
        <ele>204.912522</ele>
        <time>2021-09-17T09:10:16.000Z</time>
      </trkpt>
      <trkpt lat="43.66208" lon="5.43691">
        <ele>205.025648</ele>
        <time>2021-09-17T09:10:18.000Z</time>
      </trkpt>
      <trkpt lat="43.66205" lon="5.43732">
        <ele>205.349731</ele>
        <time>2021-09-17T09:10:23.000Z</time>
      </trkpt>
      <trkpt lat="43.66203" lon="5.43748">
        <ele>205.481315</ele>
        <time>2021-09-17T09:10:25.000Z</time>
      </trkpt>
      <trkpt lat="43.66202" lon="5.43766">
        <ele>205.623315</ele>
        <time>2021-09-17T09:10:27.000Z</time>
      </trkpt>
      <trkpt lat="43.66199" lon="5.43799">
        <ele>205.557807</ele>
        <time>2021-09-17T09:10:31.000Z</time>
      </trkpt>
      <trkpt lat="43.66197" lon="5.43816">
        <ele>205.5216</ele>
        <time>2021-09-17T09:10:33.000Z</time>
      </trkpt>
      <trkpt lat="43.66196" lon="5.43831">
        <ele>205.489688</ele>
        <time>2021-09-17T09:10:35.000Z</time>
      </trkpt>
      <trkpt lat="43.66193" lon="5.43872">
        <ele>205.401422</ele>
        <time>2021-09-17T09:10:40.000Z</time>
      </trkpt>
      <trkpt lat="43.66191" lon="5.43894">
        <ele>205.354718</ele>
        <time>2021-09-17T09:10:43.000Z</time>
      </trkpt>
      <trkpt lat="43.6619" lon="5.43901">
        <ele>205.338868</ele>
        <time>2021-09-17T09:10:44.000Z</time>
      </trkpt>
      <trkpt lat="43.66189" lon="5.43917">
        <ele>205.305744</ele>
        <time>2021-09-17T09:10:46.000Z</time>
      </trkpt>
      <trkpt lat="43.66188" lon="5.43943">
        <ele>205.24999</ele>
        <time>2021-09-17T09:10:49.000Z</time>
      </trkpt>
      <trkpt lat="43.66185" lon="5.43969">
        <ele>205.193447</ele>
        <time>2021-09-17T09:10:52.000Z</time>
      </trkpt>
      <trkpt lat="43.6618" lon="5.43983">
        <ele>205.159247</ele>
        <time>2021-09-17T09:10:54.000Z</time>
      </trkpt>
      <trkpt lat="43.66176" lon="5.43989">
        <ele>205.14284</ele>
        <time>2021-09-17T09:10:55.000Z</time>
      </trkpt>
      <trkpt lat="43.66169" lon="5.44003">
        <ele>205.107486</ele>
        <time>2021-09-17T09:10:57.000Z</time>
      </trkpt>
      <trkpt lat="43.66169" lon="5.4401">
        <ele>205.06475</ele>
        <time>2021-09-17T09:10:58.000Z</time>
      </trkpt>
      <trkpt lat="43.66169" lon="5.44017">
        <ele>204.99468</ele>
        <time>2021-09-17T09:10:59.000Z</time>
      </trkpt>
      <trkpt lat="43.6617" lon="5.4404">
        <ele>204.761329</ele>
        <time>2021-09-17T09:11:02.000Z</time>
      </trkpt>
      <trkpt lat="43.66178" lon="5.44054">
        <ele>204.579912</ele>
        <time>2021-09-17T09:11:04.000Z</time>
      </trkpt>
      <trkpt lat="43.66182" lon="5.44063">
        <ele>204.473567</ele>
        <time>2021-09-17T09:11:05.000Z</time>
      </trkpt>
      <trkpt lat="43.66185" lon="5.44071">
        <ele>204.377564</ele>
        <time>2021-09-17T09:11:06.000Z</time>
      </trkpt>
      <trkpt lat="43.66189" lon="5.4409">
        <ele>204.181838</ele>
        <time>2021-09-17T09:11:08.000Z</time>
      </trkpt>
      <trkpt lat="43.66192" lon="5.44148">
        <ele>203.592508</ele>
        <time>2021-09-17T09:11:14.000Z</time>
      </trkpt>
      <trkpt lat="43.66195" lon="5.44203">
        <ele>203.030579</ele>
        <time>2021-09-17T09:11:20.000Z</time>
      </trkpt>
      <trkpt lat="43.66196" lon="5.44262">
        <ele>202.39581</ele>
        <time>2021-09-17T09:11:26.000Z</time>
      </trkpt>
      <trkpt lat="43.66196" lon="5.44281">
        <ele>202.150437</ele>
        <time>2021-09-17T09:11:28.000Z</time>
      </trkpt>
      <trkpt lat="43.66194" lon="5.44309">
        <ele>201.804529</ele>
        <time>2021-09-17T09:11:31.000Z</time>
      </trkpt>
      <trkpt lat="43.66186" lon="5.44358">
        <ele>201.17173</ele>
        <time>2021-09-17T09:11:36.000Z</time>
      </trkpt>
      <trkpt lat="43.66178" lon="5.44394">
        <ele>200.696145</ele>
        <time>2021-09-17T09:11:40.000Z</time>
      </trkpt>
      <trkpt lat="43.6617" lon="5.44427">
        <ele>200.257822</ele>
        <time>2021-09-17T09:11:44.000Z</time>
      </trkpt>
      <trkpt lat="43.66163" lon="5.44452">
        <ele>199.927153</ele>
        <time>2021-09-17T09:11:47.000Z</time>
      </trkpt>
      <trkpt lat="43.6616" lon="5.44467">
        <ele>199.720734</ele>
        <time>2021-09-17T09:11:49.000Z</time>
      </trkpt>
      <trkpt lat="43.66157" lon="5.44475">
        <ele>199.607055</ele>
        <time>2021-09-17T09:11:50.000Z</time>
      </trkpt>
      <trkpt lat="43.66148" lon="5.445">
        <ele>199.325552</ele>
        <time>2021-09-17T09:11:53.000Z</time>
      </trkpt>
      <trkpt lat="43.66135" lon="5.4453">
        <ele>199.026967</ele>
        <time>2021-09-17T09:11:57.000Z</time>
      </trkpt>
      <trkpt lat="43.66128" lon="5.44544">
        <ele>198.880204</ele>
        <time>2021-09-17T09:11:59.000Z</time>
      </trkpt>
      <trkpt lat="43.66111" lon="5.4458">
        <ele>198.51697</ele>
        <time>2021-09-17T09:12:04.000Z</time>
      </trkpt>
      <trkpt lat="43.66109" lon="5.44587">
        <ele>198.451316</ele>
        <time>2021-09-17T09:12:05.000Z</time>
      </trkpt>
      <trkpt lat="43.66104" lon="5.44601">
        <ele>198.320789</ele>
        <time>2021-09-17T09:12:07.000Z</time>
      </trkpt>
      <trkpt lat="43.66102" lon="5.44609">
        <ele>198.251079</ele>
        <time>2021-09-17T09:12:08.000Z</time>
      </trkpt>
      <trkpt lat="43.66091" lon="5.44647">
        <ele>197.900369</ele>
        <time>2021-09-17T09:12:13.000Z</time>
      </trkpt>
      <trkpt lat="43.66086" lon="5.44678">
        <ele>197.629045</ele>
        <time>2021-09-17T09:12:17.000Z</time>
      </trkpt>
      <trkpt lat="43.66085" lon="5.44686">
        <ele>197.556555</ele>
        <time>2021-09-17T09:12:18.000Z</time>
      </trkpt>
      <trkpt lat="43.66084" lon="5.44725">
        <ele>197.322821</ele>
        <time>2021-09-17T09:12:23.000Z</time>
      </trkpt>
      <trkpt lat="43.66085" lon="5.44748">
        <ele>197.29711</ele>
        <time>2021-09-17T09:12:26.000Z</time>
      </trkpt>
      <trkpt lat="43.66085" lon="5.44755">
        <ele>197.288955</ele>
        <time>2021-09-17T09:12:27.000Z</time>
      </trkpt>
      <trkpt lat="43.66086" lon="5.44776">
        <ele>197.264161</ele>
        <time>2021-09-17T09:12:30.000Z</time>
      </trkpt>
      <trkpt lat="43.66087" lon="5.44799">
        <ele>197.237985</ele>
        <time>2021-09-17T09:12:33.000Z</time>
      </trkpt>
      <trkpt lat="43.66088" lon="5.44838">
        <ele>197.193429</ele>
        <time>2021-09-17T09:12:38.000Z</time>
      </trkpt>
      <trkpt lat="43.66093" lon="5.44907">
        <ele>197.114397</ele>
        <time>2021-09-17T09:12:46.000Z</time>
      </trkpt>
      <trkpt lat="43.66097" lon="5.44962">
        <ele>197.046321</ele>
        <time>2021-09-17T09:12:53.000Z</time>
      </trkpt>
      <trkpt lat="43.661" lon="5.45001">
        <ele>196.920274</ele>
        <time>2021-09-17T09:12:59.000Z</time>
      </trkpt>
      <trkpt lat="43.66104" lon="5.45025">
        <ele>196.838961</ele>
        <time>2021-09-17T09:13:04.000Z</time>
      </trkpt>
      <trkpt lat="43.66107" lon="5.45037">
        <ele>196.798565</ele>
        <time>2021-09-17T09:13:06.000Z</time>
      </trkpt>
      <trkpt lat="43.66108" lon="5.4505">
        <ele>196.757273</ele>
        <time>2021-09-17T09:13:08.000Z</time>
      </trkpt>
      <trkpt lat="43.66107" lon="5.45056">
        <ele>196.737206</ele>
        <time>2021-09-17T09:13:09.000Z</time>
      </trkpt>
      <trkpt lat="43.6611" lon="5.45075">
        <ele>196.674025</ele>
        <time>2021-09-17T09:13:12.000Z</time>
      </trkpt>
      <trkpt lat="43.6611" lon="5.45104">
        <ele>196.580293</ele>
        <time>2021-09-17T09:13:16.000Z</time>
      </trkpt>
      <trkpt lat="43.66111" lon="5.45119">
        <ele>196.53085</ele>
        <time>2021-09-17T09:13:18.000Z</time>
      </trkpt>
      <trkpt lat="43.66112" lon="5.45127">
        <ele>196.504818</ele>
        <time>2021-09-17T09:13:19.000Z</time>
      </trkpt>
      <trkpt lat="43.66113" lon="5.4516">
        <ele>196.39814</ele>
        <time>2021-09-17T09:13:23.000Z</time>
      </trkpt>
      <trkpt lat="43.66117" lon="5.45194">
        <ele>196.285432</ele>
        <time>2021-09-17T09:13:27.000Z</time>
      </trkpt>
      <trkpt lat="43.66118" lon="5.45203">
        <ele>196.25717</ele>
        <time>2021-09-17T09:13:28.000Z</time>
      </trkpt>
      <trkpt lat="43.66122" lon="5.45245">
        <ele>196.301492</ele>
        <time>2021-09-17T09:13:33.000Z</time>
      </trkpt>
      <trkpt lat="43.66123" lon="5.4526">
        <ele>196.323471</ele>
        <time>2021-09-17T09:13:35.000Z</time>
      </trkpt>
      <trkpt lat="43.66124" lon="5.45276">
        <ele>196.346445</ele>
        <time>2021-09-17T09:13:37.000Z</time>
      </trkpt>
      <trkpt lat="43.66127" lon="5.45329">
        <ele>196.419736</ele>
        <time>2021-09-17T09:13:43.000Z</time>
      </trkpt>
      <trkpt lat="43.66128" lon="5.45362">
        <ele>196.466587</ele>
        <time>2021-09-17T09:13:47.000Z</time>
      </trkpt>
      <trkpt lat="43.66128" lon="5.45371">
        <ele>196.478509</ele>
        <time>2021-09-17T09:13:48.000Z</time>
      </trkpt>
      <trkpt lat="43.66129" lon="5.45443">
        <ele>196.580361</ele>
        <time>2021-09-17T09:13:56.000Z</time>
      </trkpt>
      <trkpt lat="43.66117" lon="5.45492">
        <ele>196.311504</ele>
        <time>2021-09-17T09:14:02.000Z</time>
      </trkpt>
      <trkpt lat="43.66108" lon="5.45525">
        <ele>196.068306</ele>
        <time>2021-09-17T09:14:06.000Z</time>
      </trkpt>
      <trkpt lat="43.66102" lon="5.4554">
        <ele>195.94867</ele>
        <time>2021-09-17T09:14:08.000Z</time>
      </trkpt>
      <trkpt lat="43.66092" lon="5.45564">
        <ele>195.75515</ele>
        <time>2021-09-17T09:14:11.000Z</time>
      </trkpt>
      <trkpt lat="43.66073" lon="5.45612">
        <ele>195.379243</ele>
        <time>2021-09-17T09:14:17.000Z</time>
      </trkpt>
      <trkpt lat="43.66053" lon="5.4567">
        <ele>194.934755</ele>
        <time>2021-09-17T09:14:24.000Z</time>
      </trkpt>
      <trkpt lat="43.66039" lon="5.45708">
        <ele>194.610601</ele>
        <time>2021-09-17T09:14:29.000Z</time>
      </trkpt>
      <trkpt lat="43.66016" lon="5.4577">
        <ele>194.059042</ele>
        <time>2021-09-17T09:14:37.000Z</time>
      </trkpt>
      <trkpt lat="43.65996" lon="5.45823">
        <ele>193.5914</ele>
        <time>2021-09-17T09:14:44.000Z</time>
      </trkpt>
      <trkpt lat="43.65983" lon="5.45859">
        <ele>193.276506</ele>
        <time>2021-09-17T09:14:49.000Z</time>
      </trkpt>
      <trkpt lat="43.65972" lon="5.45888">
        <ele>193.019256</ele>
        <time>2021-09-17T09:14:53.000Z</time>
      </trkpt>
      <trkpt lat="43.65954" lon="5.45937">
        <ele>192.269813</ele>
        <time>2021-09-17T09:15:00.000Z</time>
      </trkpt>
      <trkpt lat="43.65943" lon="5.45967">
        <ele>191.749461</ele>
        <time>2021-09-17T09:15:05.000Z</time>
      </trkpt>
      <trkpt lat="43.65928" lon="5.46007">
        <ele>191.067734</ele>
        <time>2021-09-17T09:15:12.000Z</time>
      </trkpt>
      <trkpt lat="43.6592" lon="5.46029">
        <ele>190.683569</ele>
        <time>2021-09-17T09:15:17.000Z</time>
      </trkpt>
      <trkpt lat="43.65915" lon="5.46041">
        <ele>190.480929</ele>
        <time>2021-09-17T09:15:22.000Z</time>
      </trkpt>
      <trkpt lat="43.65915" lon="5.46042">
        <ele>190.467175</ele>
        <time>2021-09-17T09:15:25.000Z</time>
      </trkpt>
      <trkpt lat="43.65911" lon="5.46051">
        <ele>190.30444</ele>
        <time>2021-09-17T09:20:45.000Z</time>
      </trkpt>
      <trkpt lat="43.65911" lon="5.46054">
        <ele>190.265485</ele>
        <time>2021-09-17T09:20:46.000Z</time>
      </trkpt>
      <trkpt lat="43.65905" lon="5.46069">
        <ele>190.003748</ele>
        <time>2021-09-17T09:20:54.000Z</time>
      </trkpt>
      <trkpt lat="43.65899" lon="5.46085">
        <ele>189.729618</ele>
        <time>2021-09-17T09:20:58.000Z</time>
      </trkpt>
      <trkpt lat="43.65892" lon="5.46105">
        <ele>189.383995</ele>
        <time>2021-09-17T09:21:02.000Z</time>
      </trkpt>
      <trkpt lat="43.65888" lon="5.46115">
        <ele>189.20982</ele>
        <time>2021-09-17T09:21:04.000Z</time>
      </trkpt>
      <trkpt lat="43.65881" lon="5.46134">
        <ele>189.108155</ele>
        <time>2021-09-17T09:21:08.000Z</time>
      </trkpt>
      <trkpt lat="43.65879" lon="5.4614">
        <ele>189.102062</ele>
        <time>2021-09-17T09:21:09.000Z</time>
      </trkpt>
      <trkpt lat="43.65863" lon="5.46183">
        <ele>189.055726</ele>
        <time>2021-09-17T09:21:16.000Z</time>
      </trkpt>
      <trkpt lat="43.65847" lon="5.46227">
        <ele>189.009076</ele>
        <time>2021-09-17T09:21:23.000Z</time>
      </trkpt>
      <trkpt lat="43.65832" lon="5.46268">
        <ele>188.965799</ele>
        <time>2021-09-17T09:21:29.000Z</time>
      </trkpt>
      <trkpt lat="43.65812" lon="5.46323">
        <ele>188.906734</ele>
        <time>2021-09-17T09:21:37.000Z</time>
      </trkpt>
      <trkpt lat="43.65796" lon="5.46365">
        <ele>188.953093</ele>
        <time>2021-09-17T09:21:43.000Z</time>
      </trkpt>
      <trkpt lat="43.65788" lon="5.46387">
        <ele>189.016564</ele>
        <time>2021-09-17T09:21:46.000Z</time>
      </trkpt>
      <trkpt lat="43.65783" lon="5.46402">
        <ele>189.059575</ele>
        <time>2021-09-17T09:21:48.000Z</time>
      </trkpt>
      <trkpt lat="43.65758" lon="5.4647">
        <ele>189.255472</ele>
        <time>2021-09-17T09:21:57.000Z</time>
      </trkpt>
      <trkpt lat="43.6574" lon="5.46519">
        <ele>189.395307</ele>
        <time>2021-09-17T09:22:04.000Z</time>
      </trkpt>
      <trkpt lat="43.65722" lon="5.46568">
        <ele>189.535731</ele>
        <time>2021-09-17T09:22:11.000Z</time>
      </trkpt>
      <trkpt lat="43.65706" lon="5.46611">
        <ele>189.638938</ele>
        <time>2021-09-17T09:22:17.000Z</time>
      </trkpt>
      <trkpt lat="43.65687" lon="5.46662">
        <ele>189.762367</ele>
        <time>2021-09-17T09:22:24.000Z</time>
      </trkpt>
      <trkpt lat="43.65675" lon="5.46696">
        <ele>189.844564</ele>
        <time>2021-09-17T09:22:29.000Z</time>
      </trkpt>
      <trkpt lat="43.65656" lon="5.46748">
        <ele>189.970844</ele>
        <time>2021-09-17T09:22:36.000Z</time>
      </trkpt>
      <trkpt lat="43.65637" lon="5.468">
        <ele>190.070997</ele>
        <time>2021-09-17T09:22:43.000Z</time>
      </trkpt>
      <trkpt lat="43.6562" lon="5.46845">
        <ele>190.09792</ele>
        <time>2021-09-17T09:22:49.000Z</time>
      </trkpt>
      <trkpt lat="43.6561" lon="5.46873">
        <ele>190.11528</ele>
        <time>2021-09-17T09:22:53.000Z</time>
      </trkpt>
      <trkpt lat="43.65607" lon="5.46881">
        <ele>190.119981</ele>
        <time>2021-09-17T09:22:54.000Z</time>
      </trkpt>
      <trkpt lat="43.65582" lon="5.46948">
        <ele>190.160523</ele>
        <time>2021-09-17T09:23:03.000Z</time>
      </trkpt>
      <trkpt lat="43.65572" lon="5.46977">
        <ele>190.178177</ele>
        <time>2021-09-17T09:23:07.000Z</time>
      </trkpt>
      <trkpt lat="43.65569" lon="5.46984">
        <ele>190.182685</ele>
        <time>2021-09-17T09:23:08.000Z</time>
      </trkpt>
      <trkpt lat="43.65559" lon="5.47012">
        <ele>190.161015</ele>
        <time>2021-09-17T09:23:12.000Z</time>
      </trkpt>
      <trkpt lat="43.65545" lon="5.47047">
        <ele>189.893555</ele>
        <time>2021-09-17T09:23:17.000Z</time>
      </trkpt>
      <trkpt lat="43.65534" lon="5.47079">
        <ele>189.659315</ele>
        <time>2021-09-17T09:23:21.000Z</time>
      </trkpt>
      <trkpt lat="43.65517" lon="5.47124">
        <ele>189.31966</ele>
        <time>2021-09-17T09:23:27.000Z</time>
      </trkpt>
      <trkpt lat="43.65499" lon="5.47174">
        <ele>188.947798</ele>
        <time>2021-09-17T09:23:34.000Z</time>
      </trkpt>
      <trkpt lat="43.6548" lon="5.47224">
        <ele>188.57576</ele>
        <time>2021-09-17T09:23:41.000Z</time>
      </trkpt>
      <trkpt lat="43.65464" lon="5.47269">
        <ele>188.308177</ele>
        <time>2021-09-17T09:23:48.000Z</time>
      </trkpt>
      <trkpt lat="43.6545" lon="5.47305">
        <ele>188.106824</ele>
        <time>2021-09-17T09:23:54.000Z</time>
      </trkpt>
      <trkpt lat="43.65448" lon="5.47311">
        <ele>188.072761</ele>
        <time>2021-09-17T09:23:55.000Z</time>
      </trkpt>
      <trkpt lat="43.65437" lon="5.47341">
        <ele>187.897565</ele>
        <time>2021-09-17T09:24:00.000Z</time>
      </trkpt>
      <trkpt lat="43.65417" lon="5.47396">
        <ele>187.58946</ele>
        <time>2021-09-17T09:24:08.000Z</time>
      </trkpt>
      <trkpt lat="43.65396" lon="5.47452">
        <ele>187.286816</ele>
        <time>2021-09-17T09:24:16.000Z</time>
      </trkpt>
      <trkpt lat="43.65381" lon="5.47493">
        <ele>187.383155</ele>
        <time>2021-09-17T09:24:22.000Z</time>
      </trkpt>
      <trkpt lat="43.6537" lon="5.47522">
        <ele>187.448435</ele>
        <time>2021-09-17T09:24:26.000Z</time>
      </trkpt>
      <trkpt lat="43.65368" lon="5.47529">
        <ele>187.464926</ele>
        <time>2021-09-17T09:24:27.000Z</time>
      </trkpt>
      <trkpt lat="43.65354" lon="5.47565">
        <ele>187.549009</ele>
        <time>2021-09-17T09:24:32.000Z</time>
      </trkpt>
      <trkpt lat="43.65339" lon="5.47607">
        <ele>187.646402</ele>
        <time>2021-09-17T09:24:38.000Z</time>
      </trkpt>
      <trkpt lat="43.65321" lon="5.47656">
        <ele>187.761341</ele>
        <time>2021-09-17T09:24:45.000Z</time>
      </trkpt>
      <trkpt lat="43.65303" lon="5.47707">
        <ele>187.45737</ele>
        <time>2021-09-17T09:24:52.000Z</time>
      </trkpt>
      <trkpt lat="43.6529" lon="5.47742">
        <ele>187.123653</ele>
        <time>2021-09-17T09:24:57.000Z</time>
      </trkpt>
      <trkpt lat="43.65287" lon="5.47749">
        <ele>187.059358</ele>
        <time>2021-09-17T09:24:58.000Z</time>
      </trkpt>
      <trkpt lat="43.65282" lon="5.47762">
        <ele>186.934118</ele>
        <time>2021-09-17T09:25:00.000Z</time>
      </trkpt>
      <trkpt lat="43.6528" lon="5.47769">
        <ele>186.867766</ele>
        <time>2021-09-17T09:25:01.000Z</time>
      </trkpt>
      <trkpt lat="43.65277" lon="5.47775">
        <ele>186.804003</ele>
        <time>2021-09-17T09:25:02.000Z</time>
      </trkpt>
      <trkpt lat="43.6527" lon="5.47795">
        <ele>186.615229</ele>
        <time>2021-09-17T09:25:05.000Z</time>
      </trkpt>
      <trkpt lat="43.65258" lon="5.47828">
        <ele>186.297105</ele>
        <time>2021-09-17T09:25:10.000Z</time>
      </trkpt>
      <trkpt lat="43.65245" lon="5.47863">
        <ele>185.963386</ele>
        <time>2021-09-17T09:25:15.000Z</time>
      </trkpt>
      <trkpt lat="43.65243" lon="5.4787">
        <ele>185.898331</ele>
        <time>2021-09-17T09:25:16.000Z</time>
      </trkpt>
      <trkpt lat="43.65226" lon="5.47914">
        <ele>185.279092</ele>
        <time>2021-09-17T09:25:22.000Z</time>
      </trkpt>
      <trkpt lat="43.65211" lon="5.47956">
        <ele>184.498843</ele>
        <time>2021-09-17T09:25:28.000Z</time>
      </trkpt>
      <trkpt lat="43.65208" lon="5.47963">
        <ele>184.37574</ele>
        <time>2021-09-17T09:25:29.000Z</time>
      </trkpt>
      <trkpt lat="43.65198" lon="5.47992">
        <ele>183.832172</ele>
        <time>2021-09-17T09:25:33.000Z</time>
      </trkpt>
      <trkpt lat="43.65195" lon="5.47998">
        <ele>183.707577</ele>
        <time>2021-09-17T09:25:34.000Z</time>
      </trkpt>
      <trkpt lat="43.65187" lon="5.4802">
        <ele>183.310159</ele>
        <time>2021-09-17T09:25:37.000Z</time>
      </trkpt>
      <trkpt lat="43.65185" lon="5.48027">
        <ele>183.180061</ele>
        <time>2021-09-17T09:25:38.000Z</time>
      </trkpt>
      <trkpt lat="43.65174" lon="5.48056">
        <ele>182.622526</ele>
        <time>2021-09-17T09:25:42.000Z</time>
      </trkpt>
      <trkpt lat="43.65157" lon="5.481">
        <ele>181.800189</ele>
        <time>2021-09-17T09:25:48.000Z</time>
      </trkpt>
      <trkpt lat="43.65147" lon="5.4813">
        <ele>181.276515</ele>
        <time>2021-09-17T09:25:52.000Z</time>
      </trkpt>
      <trkpt lat="43.65144" lon="5.48137">
        <ele>181.153588</ele>
        <time>2021-09-17T09:25:53.000Z</time>
      </trkpt>
      <trkpt lat="43.65139" lon="5.48152">
        <ele>180.909978</ele>
        <time>2021-09-17T09:25:55.000Z</time>
      </trkpt>
      <trkpt lat="43.65131" lon="5.48174">
        <ele>180.548339</ele>
        <time>2021-09-17T09:25:58.000Z</time>
      </trkpt>
      <trkpt lat="43.65128" lon="5.48181">
        <ele>180.430307</ele>
        <time>2021-09-17T09:25:59.000Z</time>
      </trkpt>
      <trkpt lat="43.65123" lon="5.48196">
        <ele>180.185369</ele>
        <time>2021-09-17T09:26:01.000Z</time>
      </trkpt>
      <trkpt lat="43.65117" lon="5.48212">
        <ele>179.917681</ele>
        <time>2021-09-17T09:26:03.000Z</time>
      </trkpt>
      <trkpt lat="43.65106" lon="5.48241">
        <ele>179.431261</ele>
        <time>2021-09-17T09:26:07.000Z</time>
      </trkpt>
      <trkpt lat="43.65103" lon="5.48249">
        <ele>179.30476</ele>
        <time>2021-09-17T09:26:08.000Z</time>
      </trkpt>
      <trkpt lat="43.65096" lon="5.4827">
        <ele>178.953309</ele>
        <time>2021-09-17T09:26:11.000Z</time>
      </trkpt>
      <trkpt lat="43.6509" lon="5.48284">
        <ele>178.712736</ele>
        <time>2021-09-17T09:26:13.000Z</time>
      </trkpt>
      <trkpt lat="43.65075" lon="5.48325">
        <ele>178.034309</ele>
        <time>2021-09-17T09:26:18.000Z</time>
      </trkpt>
      <trkpt lat="43.65062" lon="5.48361">
        <ele>177.562102</ele>
        <time>2021-09-17T09:26:23.000Z</time>
      </trkpt>
      <trkpt lat="43.65047" lon="5.48399">
        <ele>177.124497</ele>
        <time>2021-09-17T09:26:28.000Z</time>
      </trkpt>
      <trkpt lat="43.65039" lon="5.48423">
        <ele>176.857065</ele>
        <time>2021-09-17T09:26:31.000Z</time>
      </trkpt>
      <trkpt lat="43.65033" lon="5.48438">
        <ele>176.682618</ele>
        <time>2021-09-17T09:26:33.000Z</time>
      </trkpt>
      <trkpt lat="43.65022" lon="5.48467">
        <ele>176.345738</ele>
        <time>2021-09-17T09:26:37.000Z</time>
      </trkpt>
      <trkpt lat="43.65012" lon="5.48495">
        <ele>176.025673</ele>
        <time>2021-09-17T09:26:41.000Z</time>
      </trkpt>
      <trkpt lat="43.65009" lon="5.48503">
        <ele>175.937862</ele>
        <time>2021-09-17T09:26:42.000Z</time>
      </trkpt>
      <trkpt lat="43.65001" lon="5.48525">
        <ele>175.683881</ele>
        <time>2021-09-17T09:26:45.000Z</time>
      </trkpt>
      <trkpt lat="43.64998" lon="5.48533">
        <ele>175.599433</ele>
        <time>2021-09-17T09:26:46.000Z</time>
      </trkpt>
      <trkpt lat="43.64988" lon="5.48561">
        <ele>175.31127</ele>
        <time>2021-09-17T09:26:50.000Z</time>
      </trkpt>
      <trkpt lat="43.64986" lon="5.48567">
        <ele>175.306997</ele>
        <time>2021-09-17T09:26:51.000Z</time>
      </trkpt>
      <trkpt lat="43.64975" lon="5.48595">
        <ele>175.286082</ele>
        <time>2021-09-17T09:26:55.000Z</time>
      </trkpt>
      <trkpt lat="43.64973" lon="5.48602">
        <ele>175.281015</ele>
        <time>2021-09-17T09:26:56.000Z</time>
      </trkpt>
      <trkpt lat="43.64968" lon="5.48616">
        <ele>175.270193</ele>
        <time>2021-09-17T09:26:58.000Z</time>
      </trkpt>
      <trkpt lat="43.64963" lon="5.4863">
        <ele>175.2602</ele>
        <time>2021-09-17T09:27:00.000Z</time>
      </trkpt>
      <trkpt lat="43.64944" lon="5.48679">
        <ele>175.223832</ele>
        <time>2021-09-17T09:27:06.000Z</time>
      </trkpt>
      <trkpt lat="43.64934" lon="5.48706">
        <ele>175.203846</ele>
        <time>2021-09-17T09:27:10.000Z</time>
      </trkpt>
      <trkpt lat="43.6492" lon="5.48746">
        <ele>175.17456</ele>
        <time>2021-09-17T09:27:16.000Z</time>
      </trkpt>
      <trkpt lat="43.64902" lon="5.48795">
        <ele>175.519846</ele>
        <time>2021-09-17T09:27:23.000Z</time>
      </trkpt>
      <trkpt lat="43.64889" lon="5.48828">
        <ele>176.304113</ele>
        <time>2021-09-17T09:27:29.000Z</time>
      </trkpt>
      <trkpt lat="43.6488" lon="5.48854">
        <ele>176.895021</ele>
        <time>2021-09-17T09:27:33.000Z</time>
      </trkpt>
      <trkpt lat="43.64869" lon="5.48883">
        <ele>177.575348</ele>
        <time>2021-09-17T09:27:38.000Z</time>
      </trkpt>
      <trkpt lat="43.64867" lon="5.48888">
        <ele>177.703642</ele>
        <time>2021-09-17T09:27:39.000Z</time>
      </trkpt>
      <trkpt lat="43.64863" lon="5.48899">
        <ele>177.963391</ele>
        <time>2021-09-17T09:27:41.000Z</time>
      </trkpt>
      <trkpt lat="43.64848" lon="5.48939">
        <ele>178.896047</ele>
        <time>2021-09-17T09:27:47.000Z</time>
      </trkpt>
      <trkpt lat="43.64836" lon="5.4897">
        <ele>179.634751</ele>
        <time>2021-09-17T09:27:53.000Z</time>
      </trkpt>
      <trkpt lat="43.64828" lon="5.48988">
        <ele>180.072367</ele>
        <time>2021-09-17T09:27:57.000Z</time>
      </trkpt>
      <trkpt lat="43.64823" lon="5.49002">
        <ele>180.404783</ele>
        <time>2021-09-17T09:28:00.000Z</time>
      </trkpt>
      <trkpt lat="43.64821" lon="5.49007">
        <ele>180.571773</ele>
        <time>2021-09-17T09:28:01.000Z</time>
      </trkpt>
      <trkpt lat="43.64809" lon="5.49036">
        <ele>181.434096</ele>
        <time>2021-09-17T09:28:06.000Z</time>
      </trkpt>
      <trkpt lat="43.64801" lon="5.49055">
        <ele>181.983537</ele>
        <time>2021-09-17T09:28:09.000Z</time>
      </trkpt>
      <trkpt lat="43.64794" lon="5.49072">
        <ele>182.505138</ele>
        <time>2021-09-17T09:28:12.000Z</time>
      </trkpt>
      <trkpt lat="43.64779" lon="5.49107">
        <ele>183.556869</ele>
        <time>2021-09-17T09:28:18.000Z</time>
      </trkpt>
      <trkpt lat="43.64772" lon="5.49124">
        <ele>184.071006</ele>
        <time>2021-09-17T09:28:21.000Z</time>
      </trkpt>
      <trkpt lat="43.64765" lon="5.49133">
        <ele>184.405727</ele>
        <time>2021-09-17T09:28:23.000Z</time>
      </trkpt>
      <trkpt lat="43.64754" lon="5.49143">
        <ele>184.873194</ele>
        <time>2021-09-17T09:28:26.000Z</time>
      </trkpt>
      <trkpt lat="43.64745" lon="5.49149">
        <ele>185.24647</ele>
        <time>2021-09-17T09:28:28.000Z</time>
      </trkpt>
      <trkpt lat="43.6474" lon="5.49161">
        <ele>185.604769</ele>
        <time>2021-09-17T09:28:30.000Z</time>
      </trkpt>
      <trkpt lat="43.64739" lon="5.49168">
        <ele>185.784723</ele>
        <time>2021-09-17T09:28:31.000Z</time>
      </trkpt>
      <trkpt lat="43.6474" lon="5.49188">
        <ele>186.320407</ele>
        <time>2021-09-17T09:28:34.000Z</time>
      </trkpt>
      <trkpt lat="43.64736" lon="5.49202">
        <ele>186.714491</ele>
        <time>2021-09-17T09:28:36.000Z</time>
      </trkpt>
      <trkpt lat="43.64729" lon="5.49216">
        <ele>186.996524</ele>
        <time>2021-09-17T09:28:38.000Z</time>
      </trkpt>
      <trkpt lat="43.64726" lon="5.4922">
        <ele>187.075441</ele>
        <time>2021-09-17T09:28:39.000Z</time>
      </trkpt>
      <trkpt lat="43.64715" lon="5.49235">
        <ele>187.42035</ele>
        <time>2021-09-17T09:28:42.000Z</time>
      </trkpt>
      <trkpt lat="43.64674" lon="5.49294">
        <ele>188.72405</ele>
        <time>2021-09-17T09:28:51.000Z</time>
      </trkpt>
      <trkpt lat="43.64649" lon="5.49328">
        <ele>189.488588</ele>
        <time>2021-09-17T09:28:57.000Z</time>
      </trkpt>
      <trkpt lat="43.64628" lon="5.49358">
        <ele>190.143101</ele>
        <time>2021-09-17T09:29:02.000Z</time>
      </trkpt>
      <trkpt lat="43.64603" lon="5.49392">
        <ele>190.867137</ele>
        <time>2021-09-17T09:29:08.000Z</time>
      </trkpt>
      <trkpt lat="43.646" lon="5.49397">
        <ele>190.956243</ele>
        <time>2021-09-17T09:29:09.000Z</time>
      </trkpt>
      <trkpt lat="43.64588" lon="5.49414">
        <ele>191.248484</ele>
        <time>2021-09-17T09:29:12.000Z</time>
      </trkpt>
      <trkpt lat="43.64572" lon="5.49437">
        <ele>191.649014</ele>
        <time>2021-09-17T09:29:16.000Z</time>
      </trkpt>
      <trkpt lat="43.64547" lon="5.49471">
        <ele>192.249683</ele>
        <time>2021-09-17T09:29:22.000Z</time>
      </trkpt>
      <trkpt lat="43.64543" lon="5.49477">
        <ele>192.348989</ele>
        <time>2021-09-17T09:29:23.000Z</time>
      </trkpt>
      <trkpt lat="43.64532" lon="5.49493">
        <ele>192.628412</ele>
        <time>2021-09-17T09:29:26.000Z</time>
      </trkpt>
      <trkpt lat="43.64529" lon="5.495">
        <ele>192.725705</ele>
        <time>2021-09-17T09:29:27.000Z</time>
      </trkpt>
      <trkpt lat="43.64512" lon="5.4954">
        <ele>193.319589</ele>
        <time>2021-09-17T09:29:33.000Z</time>
      </trkpt>
      <trkpt lat="43.64498" lon="5.49585">
        <ele>193.875744</ele>
        <time>2021-09-17T09:29:39.000Z</time>
      </trkpt>
      <trkpt lat="43.64486" lon="5.49631">
        <ele>194.209903</ele>
        <time>2021-09-17T09:29:45.000Z</time>
      </trkpt>
      <trkpt lat="43.64477" lon="5.49673">
        <ele>194.50895</ele>
        <time>2021-09-17T09:29:50.000Z</time>
      </trkpt>
      <trkpt lat="43.64475" lon="5.49691">
        <ele>194.634779</ele>
        <time>2021-09-17T09:29:52.000Z</time>
      </trkpt>
      <trkpt lat="43.64471" lon="5.49726">
        <ele>194.880265</ele>
        <time>2021-09-17T09:29:56.000Z</time>
      </trkpt>
      <trkpt lat="43.64466" lon="5.49767">
        <ele>195.169707</ele>
        <time>2021-09-17T09:30:01.000Z</time>
      </trkpt>
      <trkpt lat="43.64464" lon="5.49784">
        <ele>195.285517</ele>
        <time>2021-09-17T09:30:03.000Z</time>
      </trkpt>
      <trkpt lat="43.64462" lon="5.49801">
        <ele>195.406068</ele>
        <time>2021-09-17T09:30:05.000Z</time>
      </trkpt>
      <trkpt lat="43.64457" lon="5.49837">
        <ele>195.555281</ele>
        <time>2021-09-17T09:30:09.000Z</time>
      </trkpt>
      <trkpt lat="43.64451" lon="5.49882">
        <ele>195.627214</ele>
        <time>2021-09-17T09:30:14.000Z</time>
      </trkpt>
      <trkpt lat="43.64445" lon="5.49933">
        <ele>195.70894</ele>
        <time>2021-09-17T09:30:20.000Z</time>
      </trkpt>
      <trkpt lat="43.64441" lon="5.49967">
        <ele>195.764294</ele>
        <time>2021-09-17T09:30:24.000Z</time>
      </trkpt>
      <trkpt lat="43.6444" lon="5.49976">
        <ele>195.778299</ele>
        <time>2021-09-17T09:30:25.000Z</time>
      </trkpt>
      <trkpt lat="43.64438" lon="5.49991">
        <ele>195.803539</ele>
        <time>2021-09-17T09:30:27.000Z</time>
      </trkpt>
      <trkpt lat="43.64434" lon="5.50024">
        <ele>195.856007</ele>
        <time>2021-09-17T09:30:31.000Z</time>
      </trkpt>
      <trkpt lat="43.64433" lon="5.50033">
        <ele>195.870792</ele>
        <time>2021-09-17T09:30:32.000Z</time>
      </trkpt>
      <trkpt lat="43.64431" lon="5.5005">
        <ele>195.897826</ele>
        <time>2021-09-17T09:30:34.000Z</time>
      </trkpt>
      <trkpt lat="43.64429" lon="5.50058">
        <ele>195.911206</ele>
        <time>2021-09-17T09:30:35.000Z</time>
      </trkpt>
      <trkpt lat="43.64425" lon="5.50109">
        <ele>196.02663</ele>
        <time>2021-09-17T09:30:41.000Z</time>
      </trkpt>
      <trkpt lat="43.64422" lon="5.5015">
        <ele>196.123361</ele>
        <time>2021-09-17T09:30:46.000Z</time>
      </trkpt>
      <trkpt lat="43.64418" lon="5.502">
        <ele>196.24104</ele>
        <time>2021-09-17T09:30:52.000Z</time>
      </trkpt>
      <trkpt lat="43.64415" lon="5.50238">
        <ele>196.330954</ele>
        <time>2021-09-17T09:30:57.000Z</time>
      </trkpt>
      <trkpt lat="43.64412" lon="5.50277">
        <ele>196.4223</ele>
        <time>2021-09-17T09:31:02.000Z</time>
      </trkpt>
      <trkpt lat="43.64407" lon="5.50341">
        <ele>196.637078</ele>
        <time>2021-09-17T09:31:10.000Z</time>
      </trkpt>
      <trkpt lat="43.64406" lon="5.50349">
        <ele>196.669702</ele>
        <time>2021-09-17T09:31:11.000Z</time>
      </trkpt>
      <trkpt lat="43.64405" lon="5.50369">
        <ele>196.757358</ele>
        <time>2021-09-17T09:31:14.000Z</time>
      </trkpt>
      <trkpt lat="43.64401" lon="5.50413">
        <ele>196.955084</ele>
        <time>2021-09-17T09:31:20.000Z</time>
      </trkpt>
      <trkpt lat="43.64399" lon="5.5045">
        <ele>197.118009</ele>
        <time>2021-09-17T09:31:25.000Z</time>
      </trkpt>
      <trkpt lat="43.64398" lon="5.50457">
        <ele>197.148826</ele>
        <time>2021-09-17T09:31:26.000Z</time>
      </trkpt>
      <trkpt lat="43.64394" lon="5.5051">
        <ele>197.380046</ele>
        <time>2021-09-17T09:31:33.000Z</time>
      </trkpt>
      <trkpt lat="43.64393" lon="5.50533">
        <ele>197.479594</ele>
        <time>2021-09-17T09:31:36.000Z</time>
      </trkpt>
      <trkpt lat="43.6439" lon="5.50556">
        <ele>197.585226</ele>
        <time>2021-09-17T09:31:39.000Z</time>
      </trkpt>
      <trkpt lat="43.64384" lon="5.50606">
        <ele>197.574057</ele>
        <time>2021-09-17T09:31:45.000Z</time>
      </trkpt>
      <trkpt lat="43.64377" lon="5.50647">
        <ele>197.56082</ele>
        <time>2021-09-17T09:31:50.000Z</time>
      </trkpt>
      <trkpt lat="43.64376" lon="5.50655">
        <ele>197.558214</ele>
        <time>2021-09-17T09:31:51.000Z</time>
      </trkpt>
      <trkpt lat="43.6437" lon="5.50689">
        <ele>197.547192</ele>
        <time>2021-09-17T09:31:55.000Z</time>
      </trkpt>
      <trkpt lat="43.64368" lon="5.50704">
        <ele>197.54233</ele>
        <time>2021-09-17T09:31:57.000Z</time>
      </trkpt>
      <trkpt lat="43.6436" lon="5.50753">
        <ele>197.52623</ele>
        <time>2021-09-17T09:32:03.000Z</time>
      </trkpt>
      <trkpt lat="43.64353" lon="5.50795">
        <ele>197.512694</ele>
        <time>2021-09-17T09:32:08.000Z</time>
      </trkpt>
      <trkpt lat="43.64344" lon="5.50845">
        <ele>197.538282</ele>
        <time>2021-09-17T09:32:14.000Z</time>
      </trkpt>
      <trkpt lat="43.64341" lon="5.50869">
        <ele>197.553292</ele>
        <time>2021-09-17T09:32:17.000Z</time>
      </trkpt>
      <trkpt lat="43.6434" lon="5.50877">
        <ele>197.557968</ele>
        <time>2021-09-17T09:32:18.000Z</time>
      </trkpt>
      <trkpt lat="43.64337" lon="5.50915">
        <ele>197.581112</ele>
        <time>2021-09-17T09:32:23.000Z</time>
      </trkpt>
      <trkpt lat="43.64336" lon="5.50923">
        <ele>197.585836</ele>
        <time>2021-09-17T09:32:24.000Z</time>
      </trkpt>
      <trkpt lat="43.64331" lon="5.50974">
        <ele>197.616987</ele>
        <time>2021-09-17T09:32:30.000Z</time>
      </trkpt>
      <trkpt lat="43.64329" lon="5.50998">
        <ele>197.631587</ele>
        <time>2021-09-17T09:32:33.000Z</time>
      </trkpt>
      <trkpt lat="43.64327" lon="5.51014">
        <ele>197.640976</ele>
        <time>2021-09-17T09:32:35.000Z</time>
      </trkpt>
      <trkpt lat="43.64324" lon="5.51047">
        <ele>197.666289</ele>
        <time>2021-09-17T09:32:39.000Z</time>
      </trkpt>
      <trkpt lat="43.6432" lon="5.51099">
        <ele>197.922479</ele>
        <time>2021-09-17T09:32:45.000Z</time>
      </trkpt>
      <trkpt lat="43.64316" lon="5.5114">
        <ele>198.124386</ele>
        <time>2021-09-17T09:32:50.000Z</time>
      </trkpt>
      <trkpt lat="43.6431" lon="5.51217">
        <ele>198.504638</ele>
        <time>2021-09-17T09:32:59.000Z</time>
      </trkpt>
      <trkpt lat="43.64316" lon="5.51285">
        <ele>198.841202</ele>
        <time>2021-09-17T09:33:07.000Z</time>
      </trkpt>
      <trkpt lat="43.64325" lon="5.51359">
        <ele>199.244809</ele>
        <time>2021-09-17T09:33:16.000Z</time>
      </trkpt>
      <trkpt lat="43.64334" lon="5.51426">
        <ele>199.612929</ele>
        <time>2021-09-17T09:33:24.000Z</time>
      </trkpt>
      <trkpt lat="43.64342" lon="5.51484">
        <ele>199.935238</ele>
        <time>2021-09-17T09:33:31.000Z</time>
      </trkpt>
      <trkpt lat="43.64352" lon="5.51551">
        <ele>200.372049</ele>
        <time>2021-09-17T09:33:39.000Z</time>
      </trkpt>
      <trkpt lat="43.6436" lon="5.5161">
        <ele>200.955457</ele>
        <time>2021-09-17T09:33:46.000Z</time>
      </trkpt>
      <trkpt lat="43.6437" lon="5.51671">
        <ele>201.573701</ele>
        <time>2021-09-17T09:33:54.000Z</time>
      </trkpt>
      <trkpt lat="43.6438" lon="5.51727">
        <ele>202.150995</ele>
        <time>2021-09-17T09:34:02.000Z</time>
      </trkpt>
      <trkpt lat="43.64388" lon="5.51773">
        <ele>202.615781</ele>
        <time>2021-09-17T09:34:10.000Z</time>
      </trkpt>
      <trkpt lat="43.64394" lon="5.51805">
        <ele>203.248113</ele>
        <time>2021-09-17T09:34:17.000Z</time>
      </trkpt>
      <trkpt lat="43.64397" lon="5.51822">
        <ele>203.610875</ele>
        <time>2021-09-17T09:34:22.000Z</time>
      </trkpt>
      <trkpt lat="43.644" lon="5.51835">
        <ele>203.894764</ele>
        <time>2021-09-17T09:34:26.000Z</time>
      </trkpt>
      <trkpt lat="43.64406" lon="5.51867">
        <ele>204.599073</ele>
        <time>2021-09-17T09:34:33.000Z</time>
      </trkpt>
      <trkpt lat="43.64412" lon="5.519">
        <ele>205.311571</ele>
        <time>2021-09-17T09:34:40.000Z</time>
      </trkpt>
      <trkpt lat="43.64419" lon="5.51943">
        <ele>206.257115</ele>
        <time>2021-09-17T09:34:49.000Z</time>
      </trkpt>
      <trkpt lat="43.64423" lon="5.51982">
        <ele>207.083065</ele>
        <time>2021-09-17T09:34:57.000Z</time>
      </trkpt>
      <trkpt lat="43.64426" lon="5.5203">
        <ele>208.129561</ele>
        <time>2021-09-17T09:35:07.000Z</time>
      </trkpt>
      <trkpt lat="43.64425" lon="5.52069">
        <ele>209.107345</ele>
        <time>2021-09-17T09:35:15.000Z</time>
      </trkpt>
      <trkpt lat="43.64419" lon="5.52117">
        <ele>210.343445</ele>
        <time>2021-09-17T09:35:25.000Z</time>
      </trkpt>
      <trkpt lat="43.64409" lon="5.52159">
        <ele>211.461885</ele>
        <time>2021-09-17T09:35:34.000Z</time>
      </trkpt>
      <trkpt lat="43.64394" lon="5.52203">
        <ele>212.691242</ele>
        <time>2021-09-17T09:35:44.000Z</time>
      </trkpt>
      <trkpt lat="43.64375" lon="5.52245">
        <ele>213.92925</ele>
        <time>2021-09-17T09:35:54.000Z</time>
      </trkpt>
      <trkpt lat="43.64359" lon="5.52276">
        <ele>214.997812</ele>
        <time>2021-09-17T09:36:02.000Z</time>
      </trkpt>
      <trkpt lat="43.64338" lon="5.52305">
        <ele>216.1683</ele>
        <time>2021-09-17T09:36:11.000Z</time>
      </trkpt>
      <trkpt lat="43.64314" lon="5.52331">
        <ele>217.35601</ele>
        <time>2021-09-17T09:36:20.000Z</time>
      </trkpt>
      <trkpt lat="43.64292" lon="5.52352">
        <ele>218.409766</ele>
        <time>2021-09-17T09:36:28.000Z</time>
      </trkpt>
      <trkpt lat="43.64272" lon="5.52369">
        <ele>219.352698</ele>
        <time>2021-09-17T09:36:36.000Z</time>
      </trkpt>
      <trkpt lat="43.64251" lon="5.52386">
        <ele>220.296748</ele>
        <time>2021-09-17T09:36:44.000Z</time>
      </trkpt>
      <trkpt lat="43.64234" lon="5.524">
        <ele>221.083269</ele>
        <time>2021-09-17T09:36:51.000Z</time>
      </trkpt>
      <trkpt lat="43.64223" lon="5.5241">
        <ele>221.519417</ele>
        <time>2021-09-17T09:36:57.000Z</time>
      </trkpt>
      <trkpt lat="43.64207" lon="5.52424">
        <ele>221.998659</ele>
        <time>2021-09-17T09:37:05.000Z</time>
      </trkpt>
      <trkpt lat="43.64197" lon="5.52433">
        <ele>222.313895</ele>
        <time>2021-09-17T09:37:10.000Z</time>
      </trkpt>
      <trkpt lat="43.64182" lon="5.52445">
        <ele>222.767392</ele>
        <time>2021-09-17T09:37:15.000Z</time>
      </trkpt>
      <trkpt lat="43.64159" lon="5.52465">
        <ele>223.490219</ele>
        <time>2021-09-17T09:37:22.000Z</time>
      </trkpt>
      <trkpt lat="43.64131" lon="5.52489">
        <ele>224.334357</ele>
        <time>2021-09-17T09:37:30.000Z</time>
      </trkpt>
      <trkpt lat="43.64106" lon="5.52511">
        <ele>225.129789</ele>
        <time>2021-09-17T09:37:38.000Z</time>
      </trkpt>
      <trkpt lat="43.64083" lon="5.52531">
        <ele>225.821785</ele>
        <time>2021-09-17T09:37:45.000Z</time>
      </trkpt>
      <trkpt lat="43.64066" lon="5.52542">
        <ele>226.194928</ele>
        <time>2021-09-17T09:37:51.000Z</time>
      </trkpt>
      <trkpt lat="43.64047" lon="5.5254">
        <ele>226.50253</ele>
        <time>2021-09-17T09:37:58.000Z</time>
      </trkpt>
      <trkpt lat="43.64034" lon="5.52555">
        <ele>226.77759</ele>
        <time>2021-09-17T09:38:02.000Z</time>
      </trkpt>
      <trkpt lat="43.64033" lon="5.52568">
        <ele>226.921548</ele>
        <time>2021-09-17T09:38:04.000Z</time>
      </trkpt>
      <trkpt lat="43.64035" lon="5.52575">
        <ele>227.012321</ele>
        <time>2021-09-17T09:38:05.000Z</time>
      </trkpt>
      <trkpt lat="43.64038" lon="5.52579">
        <ele>227.08263</ele>
        <time>2021-09-17T09:38:06.000Z</time>
      </trkpt>
      <trkpt lat="43.64051" lon="5.52591">
        <ele>227.334326</ele>
        <time>2021-09-17T09:38:09.000Z</time>
      </trkpt>
      <trkpt lat="43.64058" lon="5.52602">
        <ele>227.49816</ele>
        <time>2021-09-17T09:38:11.000Z</time>
      </trkpt>
      <trkpt lat="43.64062" lon="5.52615">
        <ele>227.662475</ele>
        <time>2021-09-17T09:38:13.000Z</time>
      </trkpt>
      <trkpt lat="43.64071" lon="5.52663">
        <ele>228.232943</ele>
        <time>2021-09-17T09:38:21.000Z</time>
      </trkpt>
      <trkpt lat="43.64079" lon="5.52707">
        <ele>228.751008</ele>
        <time>2021-09-17T09:38:28.000Z</time>
      </trkpt>
      <trkpt lat="43.64087" lon="5.52747">
        <ele>228.766855</ele>
        <time>2021-09-17T09:38:35.000Z</time>
      </trkpt>
      <trkpt lat="43.64097" lon="5.52798">
        <ele>228.600513</ele>
        <time>2021-09-17T09:38:43.000Z</time>
      </trkpt>
      <trkpt lat="43.64106" lon="5.52847">
        <ele>228.437953</ele>
        <time>2021-09-17T09:38:50.000Z</time>
      </trkpt>
      <trkpt lat="43.64113" lon="5.5289">
        <ele>228.297274</ele>
        <time>2021-09-17T09:38:55.000Z</time>
      </trkpt>
      <trkpt lat="43.64122" lon="5.52939">
        <ele>228.135539</ele>
        <time>2021-09-17T09:39:00.000Z</time>
      </trkpt>
      <trkpt lat="43.64133" lon="5.53002">
        <ele>227.308165</ele>
        <time>2021-09-17T09:39:05.000Z</time>
      </trkpt>
      <trkpt lat="43.64149" lon="5.53085">
        <ele>225.873587</ele>
        <time>2021-09-17T09:39:11.000Z</time>
      </trkpt>
      <trkpt lat="43.64152" lon="5.53099">
        <ele>225.632997</ele>
        <time>2021-09-17T09:39:12.000Z</time>
      </trkpt>
      <trkpt lat="43.64164" lon="5.53167">
        <ele>224.467198</ele>
        <time>2021-09-17T09:39:17.000Z</time>
      </trkpt>
      <trkpt lat="43.64178" lon="5.53242">
        <ele>222.962964</ele>
        <time>2021-09-17T09:39:23.000Z</time>
      </trkpt>
      <trkpt lat="43.6418" lon="5.53255">
        <ele>222.694797</ele>
        <time>2021-09-17T09:39:24.000Z</time>
      </trkpt>
      <trkpt lat="43.64184" lon="5.53278">
        <ele>222.1756</ele>
        <time>2021-09-17T09:39:26.000Z</time>
      </trkpt>
      <trkpt lat="43.64186" lon="5.5329">
        <ele>221.918408</ele>
        <time>2021-09-17T09:39:27.000Z</time>
      </trkpt>
      <trkpt lat="43.64196" lon="5.53346">
        <ele>220.701003</ele>
        <time>2021-09-17T09:39:32.000Z</time>
      </trkpt>
      <trkpt lat="43.64198" lon="5.53356">
        <ele>220.491107</ele>
        <time>2021-09-17T09:39:33.000Z</time>
      </trkpt>
      <trkpt lat="43.64202" lon="5.53374">
        <ele>220.085068</ele>
        <time>2021-09-17T09:39:35.000Z</time>
      </trkpt>
      <trkpt lat="43.64205" lon="5.53392">
        <ele>219.705796</ele>
        <time>2021-09-17T09:39:37.000Z</time>
      </trkpt>
      <trkpt lat="43.64209" lon="5.53417">
        <ele>219.156232</ele>
        <time>2021-09-17T09:39:40.000Z</time>
      </trkpt>
      <trkpt lat="43.64209" lon="5.53442">
        <ele>218.628191</ele>
        <time>2021-09-17T09:39:43.000Z</time>
      </trkpt>
      <trkpt lat="43.64216" lon="5.53473">
        <ele>218.108259</ele>
        <time>2021-09-17T09:39:47.000Z</time>
      </trkpt>
      <trkpt lat="43.64229" lon="5.53528">
        <ele>217.17916</ele>
        <time>2021-09-17T09:39:54.000Z</time>
      </trkpt>
      <trkpt lat="43.64236" lon="5.53566">
        <ele>216.545252</ele>
        <time>2021-09-17T09:39:59.000Z</time>
      </trkpt>
      <trkpt lat="43.64245" lon="5.53611">
        <ele>215.781975</ele>
        <time>2021-09-17T09:40:05.000Z</time>
      </trkpt>
      <trkpt lat="43.64253" lon="5.53659">
        <ele>214.996684</ele>
        <time>2021-09-17T09:40:11.000Z</time>
      </trkpt>
      <trkpt lat="43.64262" lon="5.53705">
        <ele>214.348077</ele>
        <time>2021-09-17T09:40:17.000Z</time>
      </trkpt>
      <trkpt lat="43.6427" lon="5.53753">
        <ele>213.777912</ele>
        <time>2021-09-17T09:40:23.000Z</time>
      </trkpt>
      <trkpt lat="43.64276" lon="5.53784">
        <ele>213.412082</ele>
        <time>2021-09-17T09:40:27.000Z</time>
      </trkpt>
      <trkpt lat="43.64279" lon="5.538">
        <ele>213.234719</ele>
        <time>2021-09-17T09:40:29.000Z</time>
      </trkpt>
      <trkpt lat="43.64285" lon="5.53834">
        <ele>212.824176</ele>
        <time>2021-09-17T09:40:34.000Z</time>
      </trkpt>
      <trkpt lat="43.6429" lon="5.53861">
        <ele>212.512676</ele>
        <time>2021-09-17T09:40:38.000Z</time>
      </trkpt>
      <trkpt lat="43.64293" lon="5.53875">
        <ele>212.347861</ele>
        <time>2021-09-17T09:40:40.000Z</time>
      </trkpt>
      <trkpt lat="43.64299" lon="5.53909">
        <ele>211.951743</ele>
        <time>2021-09-17T09:40:45.000Z</time>
      </trkpt>
      <trkpt lat="43.64301" lon="5.53922">
        <ele>211.79426</ele>
        <time>2021-09-17T09:40:47.000Z</time>
      </trkpt>
      <trkpt lat="43.64302" lon="5.53929">
        <ele>211.726484</ele>
        <time>2021-09-17T09:40:48.000Z</time>
      </trkpt>
      <trkpt lat="43.64305" lon="5.53943">
        <ele>211.583709</ele>
        <time>2021-09-17T09:40:50.000Z</time>
      </trkpt>
      <trkpt lat="43.64307" lon="5.53958">
        <ele>211.440914</ele>
        <time>2021-09-17T09:40:52.000Z</time>
      </trkpt>
      <trkpt lat="43.64312" lon="5.54001">
        <ele>211.021314</ele>
        <time>2021-09-17T09:40:58.000Z</time>
      </trkpt>
      <trkpt lat="43.64313" lon="5.54049">
        <ele>210.551582</ele>
        <time>2021-09-17T09:41:05.000Z</time>
      </trkpt>
      <trkpt lat="43.64312" lon="5.54098">
        <ele>210.076873</ele>
        <time>2021-09-17T09:41:12.000Z</time>
      </trkpt>
      <trkpt lat="43.64311" lon="5.54119">
        <ele>209.871478</ele>
        <time>2021-09-17T09:41:15.000Z</time>
      </trkpt>
      <trkpt lat="43.64311" lon="5.54126">
        <ele>209.810473</ele>
        <time>2021-09-17T09:41:16.000Z</time>
      </trkpt>
      <trkpt lat="43.64311" lon="5.5416">
        <ele>209.480249</ele>
        <time>2021-09-17T09:41:21.000Z</time>
      </trkpt>
      <trkpt lat="43.64311" lon="5.5418">
        <ele>209.347485</ele>
        <time>2021-09-17T09:41:24.000Z</time>
      </trkpt>
      <trkpt lat="43.64311" lon="5.54195">
        <ele>209.28158</ele>
        <time>2021-09-17T09:41:26.000Z</time>
      </trkpt>
      <trkpt lat="43.6431" lon="5.54224">
        <ele>209.148865</ele>
        <time>2021-09-17T09:41:30.000Z</time>
      </trkpt>
      <trkpt lat="43.6431" lon="5.54271">
        <ele>208.939487</ele>
        <time>2021-09-17T09:41:36.000Z</time>
      </trkpt>
      <trkpt lat="43.6431" lon="5.54279">
        <ele>208.904961</ele>
        <time>2021-09-17T09:41:37.000Z</time>
      </trkpt>
      <trkpt lat="43.6431" lon="5.54317">
        <ele>208.730549</ele>
        <time>2021-09-17T09:41:42.000Z</time>
      </trkpt>
      <trkpt lat="43.6431" lon="5.54357">
        <ele>208.551662</ele>
        <time>2021-09-17T09:41:47.000Z</time>
      </trkpt>
      <trkpt lat="43.64316" lon="5.5443">
        <ele>208.347984</ele>
        <time>2021-09-17T09:41:55.000Z</time>
      </trkpt>
      <trkpt lat="43.64319" lon="5.54456">
        <ele>208.457613</ele>
        <time>2021-09-17T09:41:58.000Z</time>
      </trkpt>
      <trkpt lat="43.6432" lon="5.54466">
        <ele>208.498735</ele>
        <time>2021-09-17T09:41:59.000Z</time>
      </trkpt>
      <trkpt lat="43.64321" lon="5.54475">
        <ele>208.534926</ele>
        <time>2021-09-17T09:42:00.000Z</time>
      </trkpt>
      <trkpt lat="43.64323" lon="5.54491">
        <ele>208.60294</ele>
        <time>2021-09-17T09:42:02.000Z</time>
      </trkpt>
      <trkpt lat="43.64328" lon="5.54538">
        <ele>208.799088</ele>
        <time>2021-09-17T09:42:07.000Z</time>
      </trkpt>
      <trkpt lat="43.64336" lon="5.54613">
        <ele>209.11317</ele>
        <time>2021-09-17T09:42:14.000Z</time>
      </trkpt>
      <trkpt lat="43.64341" lon="5.54661">
        <ele>209.317623</ele>
        <time>2021-09-17T09:42:19.000Z</time>
      </trkpt>
      <trkpt lat="43.64346" lon="5.5471">
        <ele>209.600986</ele>
        <time>2021-09-17T09:42:24.000Z</time>
      </trkpt>
      <trkpt lat="43.64353" lon="5.54777">
        <ele>209.991918</ele>
        <time>2021-09-17T09:42:31.000Z</time>
      </trkpt>
      <trkpt lat="43.64358" lon="5.54825">
        <ele>210.272703</ele>
        <time>2021-09-17T09:42:36.000Z</time>
      </trkpt>
      <trkpt lat="43.64363" lon="5.54872">
        <ele>210.544813</ele>
        <time>2021-09-17T09:42:41.000Z</time>
      </trkpt>
      <trkpt lat="43.64368" lon="5.54918">
        <ele>210.803002</ele>
        <time>2021-09-17T09:42:46.000Z</time>
      </trkpt>
      <trkpt lat="43.64369" lon="5.54928">
        <ele>210.847844</ele>
        <time>2021-09-17T09:42:47.000Z</time>
      </trkpt>
      <trkpt lat="43.64372" lon="5.54956">
        <ele>210.979503</ele>
        <time>2021-09-17T09:42:50.000Z</time>
      </trkpt>
      <trkpt lat="43.64377" lon="5.55004">
        <ele>211.206486</ele>
        <time>2021-09-17T09:42:55.000Z</time>
      </trkpt>
      <trkpt lat="43.64384" lon="5.55071">
        <ele>211.524169</ele>
        <time>2021-09-17T09:43:02.000Z</time>
      </trkpt>
      <trkpt lat="43.64389" lon="5.5512">
        <ele>211.755867</ele>
        <time>2021-09-17T09:43:07.000Z</time>
      </trkpt>
      <trkpt lat="43.64395" lon="5.55178">
        <ele>211.965734</ele>
        <time>2021-09-17T09:43:13.000Z</time>
      </trkpt>
      <trkpt lat="43.644" lon="5.55224">
        <ele>212.065561</ele>
        <time>2021-09-17T09:43:18.000Z</time>
      </trkpt>
      <trkpt lat="43.64405" lon="5.55279">
        <ele>212.18554</ele>
        <time>2021-09-17T09:43:24.000Z</time>
      </trkpt>
      <trkpt lat="43.6441" lon="5.55325">
        <ele>212.28473</ele>
        <time>2021-09-17T09:43:29.000Z</time>
      </trkpt>
      <trkpt lat="43.64416" lon="5.55378">
        <ele>212.400169</ele>
        <time>2021-09-17T09:43:35.000Z</time>
      </trkpt>
      <trkpt lat="43.6442" lon="5.5542">
        <ele>212.454495</ele>
        <time>2021-09-17T09:43:40.000Z</time>
      </trkpt>
      <trkpt lat="43.64428" lon="5.55494">
        <ele>212.481863</ele>
        <time>2021-09-17T09:43:48.000Z</time>
      </trkpt>
      <trkpt lat="43.64432" lon="5.5553">
        <ele>212.494904</ele>
        <time>2021-09-17T09:43:52.000Z</time>
      </trkpt>
      <trkpt lat="43.64432" lon="5.55538">
        <ele>212.498</ele>
        <time>2021-09-17T09:43:53.000Z</time>
      </trkpt>
      <trkpt lat="43.64437" lon="5.55582">
        <ele>212.51421</ele>
        <time>2021-09-17T09:43:58.000Z</time>
      </trkpt>
      <trkpt lat="43.64442" lon="5.55627">
        <ele>212.530788</ele>
        <time>2021-09-17T09:44:03.000Z</time>
      </trkpt>
      <trkpt lat="43.64449" lon="5.55699">
        <ele>212.565796</ele>
        <time>2021-09-17T09:44:11.000Z</time>
      </trkpt>
      <trkpt lat="43.64456" lon="5.55758">
        <ele>212.597103</ele>
        <time>2021-09-17T09:44:18.000Z</time>
      </trkpt>
      <trkpt lat="43.64461" lon="5.55807">
        <ele>212.623023</ele>
        <time>2021-09-17T09:44:24.000Z</time>
      </trkpt>
      <trkpt lat="43.64466" lon="5.55856">
        <ele>212.648735</ele>
        <time>2021-09-17T09:44:30.000Z</time>
      </trkpt>
      <trkpt lat="43.64471" lon="5.55906">
        <ele>212.689269</ele>
        <time>2021-09-17T09:44:36.000Z</time>
      </trkpt>
      <trkpt lat="43.64476" lon="5.55957">
        <ele>212.767226</ele>
        <time>2021-09-17T09:44:42.000Z</time>
      </trkpt>
      <trkpt lat="43.64481" lon="5.56002">
        <ele>212.834983</ele>
        <time>2021-09-17T09:44:47.000Z</time>
      </trkpt>
      <trkpt lat="43.64485" lon="5.56036">
        <ele>212.887381</ele>
        <time>2021-09-17T09:44:51.000Z</time>
      </trkpt>
      <trkpt lat="43.64486" lon="5.56046">
        <ele>212.901696</ele>
        <time>2021-09-17T09:44:52.000Z</time>
      </trkpt>
      <trkpt lat="43.64488" lon="5.56071">
        <ele>212.941121</ele>
        <time>2021-09-17T09:44:55.000Z</time>
      </trkpt>
      <trkpt lat="43.64493" lon="5.56117">
        <ele>213.011026</ele>
        <time>2021-09-17T09:45:00.000Z</time>
      </trkpt>
      <trkpt lat="43.64497" lon="5.56155">
        <ele>213.088335</ele>
        <time>2021-09-17T09:45:04.000Z</time>
      </trkpt>
      <trkpt lat="43.64503" lon="5.56211">
        <ele>213.242843</ele>
        <time>2021-09-17T09:45:10.000Z</time>
      </trkpt>
      <trkpt lat="43.64508" lon="5.56257">
        <ele>213.368541</ele>
        <time>2021-09-17T09:45:15.000Z</time>
      </trkpt>
      <trkpt lat="43.64512" lon="5.5629">
        <ele>213.458403</ele>
        <time>2021-09-17T09:45:19.000Z</time>
      </trkpt>
      <trkpt lat="43.64518" lon="5.56355">
        <ele>213.636731</ele>
        <time>2021-09-17T09:45:26.000Z</time>
      </trkpt>
      <trkpt lat="43.64525" lon="5.56418">
        <ele>213.724776</ele>
        <time>2021-09-17T09:45:33.000Z</time>
      </trkpt>
      <trkpt lat="43.64527" lon="5.56435">
        <ele>213.729207</ele>
        <time>2021-09-17T09:45:35.000Z</time>
      </trkpt>
      <trkpt lat="43.6453" lon="5.5646">
        <ele>213.735731</ele>
        <time>2021-09-17T09:45:38.000Z</time>
      </trkpt>
      <trkpt lat="43.64535" lon="5.5651">
        <ele>213.748786</ele>
        <time>2021-09-17T09:45:44.000Z</time>
      </trkpt>
      <trkpt lat="43.64542" lon="5.56576">
        <ele>213.766138</ele>
        <time>2021-09-17T09:45:52.000Z</time>
      </trkpt>
      <trkpt lat="43.64546" lon="5.56617">
        <ele>213.777068</ele>
        <time>2021-09-17T09:45:57.000Z</time>
      </trkpt>
      <trkpt lat="43.64548" lon="5.56633">
        <ele>213.770659</ele>
        <time>2021-09-17T09:45:59.000Z</time>
      </trkpt>
      <trkpt lat="43.64553" lon="5.56683">
        <ele>213.6409</ele>
        <time>2021-09-17T09:46:05.000Z</time>
      </trkpt>
      <trkpt lat="43.64558" lon="5.56725">
        <ele>213.532733</ele>
        <time>2021-09-17T09:46:10.000Z</time>
      </trkpt>
      <trkpt lat="43.64564" lon="5.56784">
        <ele>213.379345</ele>
        <time>2021-09-17T09:46:17.000Z</time>
      </trkpt>
      <trkpt lat="43.64569" lon="5.56835">
        <ele>213.246173</ele>
        <time>2021-09-17T09:46:23.000Z</time>
      </trkpt>
      <trkpt lat="43.64571" lon="5.56852">
        <ele>213.203294</ele>
        <time>2021-09-17T09:46:25.000Z</time>
      </trkpt>
      <trkpt lat="43.64575" lon="5.56886">
        <ele>213.149388</ele>
        <time>2021-09-17T09:46:29.000Z</time>
      </trkpt>
      <trkpt lat="43.64581" lon="5.56946">
        <ele>213.197999</ele>
        <time>2021-09-17T09:46:36.000Z</time>
      </trkpt>
      <trkpt lat="43.64588" lon="5.57007">
        <ele>213.247355</ele>
        <time>2021-09-17T09:46:43.000Z</time>
      </trkpt>
      <trkpt lat="43.64594" lon="5.57064">
        <ele>213.2931</ele>
        <time>2021-09-17T09:46:49.000Z</time>
      </trkpt>
      <trkpt lat="43.646" lon="5.5712">
        <ele>213.338324</ele>
        <time>2021-09-17T09:46:55.000Z</time>
      </trkpt>
      <trkpt lat="43.64608" lon="5.57186">
        <ele>213.336243</ele>
        <time>2021-09-17T09:47:02.000Z</time>
      </trkpt>
      <trkpt lat="43.6461" lon="5.57242">
        <ele>213.333222</ele>
        <time>2021-09-17T09:47:08.000Z</time>
      </trkpt>
      <trkpt lat="43.64608" lon="5.57296">
        <ele>213.33031</ele>
        <time>2021-09-17T09:47:14.000Z</time>
      </trkpt>
      <trkpt lat="43.64609" lon="5.57311">
        <ele>213.329466</ele>
        <time>2021-09-17T09:47:16.000Z</time>
      </trkpt>
      <trkpt lat="43.64608" lon="5.57326">
        <ele>213.328675</ele>
        <time>2021-09-17T09:47:18.000Z</time>
      </trkpt>
      <trkpt lat="43.64608" lon="5.57334">
        <ele>213.328212</ele>
        <time>2021-09-17T09:47:19.000Z</time>
      </trkpt>
      <trkpt lat="43.64609" lon="5.57341">
        <ele>213.327843</ele>
        <time>2021-09-17T09:47:20.000Z</time>
      </trkpt>
      <trkpt lat="43.64617" lon="5.57351">
        <ele>213.327027</ele>
        <time>2021-09-17T09:47:22.000Z</time>
      </trkpt>
      <trkpt lat="43.64627" lon="5.57356">
        <ele>213.324028</ele>
        <time>2021-09-17T09:47:24.000Z</time>
      </trkpt>
      <trkpt lat="43.64631" lon="5.57356">
        <ele>213.315638</ele>
        <time>2021-09-17T09:47:25.000Z</time>
      </trkpt>
      <trkpt lat="43.64636" lon="5.57354">
        <ele>213.30692</ele>
        <time>2021-09-17T09:47:26.000Z</time>
      </trkpt>
      <trkpt lat="43.64644" lon="5.57346">
        <ele>213.289542</ele>
        <time>2021-09-17T09:47:28.000Z</time>
      </trkpt>
      <trkpt lat="43.64648" lon="5.57335">
        <ele>213.272637</ele>
        <time>2021-09-17T09:47:30.000Z</time>
      </trkpt>
      <trkpt lat="43.64648" lon="5.57329">
        <ele>213.263986</ele>
        <time>2021-09-17T09:47:31.000Z</time>
      </trkpt>
      <trkpt lat="43.64648" lon="5.57322">
        <ele>213.254911</ele>
        <time>2021-09-17T09:47:32.000Z</time>
      </trkpt>
      <trkpt lat="43.64643" lon="5.57309">
        <ele>213.235712</ele>
        <time>2021-09-17T09:47:34.000Z</time>
      </trkpt>
      <trkpt lat="43.64639" lon="5.57304">
        <ele>213.225126</ele>
        <time>2021-09-17T09:47:35.000Z</time>
      </trkpt>
      <trkpt lat="43.64634" lon="5.573">
        <ele>213.215644</ele>
        <time>2021-09-17T09:47:36.000Z</time>
      </trkpt>
      <trkpt lat="43.64624" lon="5.573">
        <ele>213.195816</ele>
        <time>2021-09-17T09:47:38.000Z</time>
      </trkpt>
      <trkpt lat="43.64615" lon="5.57306">
        <ele>213.177361</ele>
        <time>2021-09-17T09:47:40.000Z</time>
      </trkpt>
      <trkpt lat="43.64609" lon="5.57318">
        <ele>213.158331</ele>
        <time>2021-09-17T09:47:42.000Z</time>
      </trkpt>
      <trkpt lat="43.64608" lon="5.57331">
        <ele>213.139915</ele>
        <time>2021-09-17T09:47:44.000Z</time>
      </trkpt>
      <trkpt lat="43.6461" lon="5.57345">
        <ele>213.120797</ele>
        <time>2021-09-17T09:47:46.000Z</time>
      </trkpt>
      <trkpt lat="43.64611" lon="5.57352">
        <ele>213.111134</ele>
        <time>2021-09-17T09:47:47.000Z</time>
      </trkpt>
      <trkpt lat="43.64611" lon="5.57367">
        <ele>213.090887</ele>
        <time>2021-09-17T09:47:49.000Z</time>
      </trkpt>
      <trkpt lat="43.6461" lon="5.57374">
        <ele>213.081304</ele>
        <time>2021-09-17T09:47:50.000Z</time>
      </trkpt>
      <trkpt lat="43.64609" lon="5.57381">
        <ele>213.071671</ele>
        <time>2021-09-17T09:47:51.000Z</time>
      </trkpt>
      <trkpt lat="43.64606" lon="5.57402">
        <ele>213.043866</ele>
        <time>2021-09-17T09:47:54.000Z</time>
      </trkpt>
      <trkpt lat="43.64597" lon="5.57412">
        <ele>213.021643</ele>
        <time>2021-09-17T09:47:56.000Z</time>
      </trkpt>
      <trkpt lat="43.64592" lon="5.57438">
        <ele>212.993137</ele>
        <time>2021-09-17T09:48:00.000Z</time>
      </trkpt>
      <trkpt lat="43.64586" lon="5.5747">
        <ele>212.993137</ele>
        <time>2021-09-17T09:48:05.000Z</time>
      </trkpt>
      <trkpt lat="43.64585" lon="5.57475">
        <ele>212.993137</ele>
        <time>2021-09-17T09:48:06.000Z</time>
      </trkpt>
      <trkpt lat="43.64583" lon="5.57482">
        <ele>212.993137</ele>
        <time>2021-09-17T09:48:07.000Z</time>
      </trkpt>
      <trkpt lat="43.6458" lon="5.57503">
        <ele>212.993137</ele>
        <time>2021-09-17T09:48:10.000Z</time>
      </trkpt>
      <trkpt lat="43.64576" lon="5.57541">
        <ele>212.993137</ele>
        <time>2021-09-17T09:48:16.000Z</time>
      </trkpt>
      <trkpt lat="43.64576" lon="5.57546">
        <ele>212.993137</ele>
        <time>2021-09-17T09:48:17.000Z</time>
      </trkpt>
      <trkpt lat="43.64574" lon="5.57569">
        <ele>212.993137</ele>
        <time>2021-09-17T09:48:21.000Z</time>
      </trkpt>
      <trkpt lat="43.6457" lon="5.57605">
        <ele>212.993137</ele>
        <time>2021-09-17T09:48:28.000Z</time>
      </trkpt>
      <trkpt lat="43.64566" lon="5.57627">
        <ele>212.993137</ele>
        <time>2021-09-17T09:48:33.000Z</time>
      </trkpt>
      <trkpt lat="43.64557" lon="5.57632">
        <ele>212.993137</ele>
        <time>2021-09-17T09:48:36.000Z</time>
      </trkpt>
      <trkpt lat="43.64555" lon="5.57633">
        <ele>212.993137</ele>
        <time>2021-09-17T09:48:37.000Z</time>
      </trkpt>
      <trkpt lat="43.64559" lon="5.57645">
        <ele>212.993137</ele>
        <time>2021-09-17T09:48:41.000Z</time>
      </trkpt>
      <trkpt lat="43.6456" lon="5.57646">
        <ele>212.993137</ele>
        <time>2021-09-17T09:48:43.000Z</time>
      </trkpt>
    </trkseg>
  </trk>
  <trk>
    <name><![CDATA[Étape 14 : Peyrolles-en-Provence - St-Julien-du-Verdon]]></name>
    <extensions>
      <line xmlns="http://www.topografix.com/GPX/gpx_style/0/2">
        <color>00FFFF</color>
        <width>4</width>
      </line>
    </extensions>
    <trkseg>
      <trkpt lat="43.63905" lon="5.57768">
        <ele>234.410108</ele>
        <time>2021-09-18T06:06:14.000Z</time>
      </trkpt>
      <trkpt lat="43.63914" lon="5.57748">
        <ele>234.410108</ele>
        <time>2021-09-18T06:06:19.000Z</time>
      </trkpt>
      <trkpt lat="43.63919" lon="5.57737">
        <ele>234.410108</ele>
        <time>2021-09-18T06:06:24.000Z</time>
      </trkpt>
      <trkpt lat="43.63928" lon="5.57744">
        <ele>234.410108</ele>
        <time>2021-09-18T06:06:28.000Z</time>
      </trkpt>
      <trkpt lat="43.63946" lon="5.5776">
        <ele>234.410108</ele>
        <time>2021-09-18T06:06:34.000Z</time>
      </trkpt>
      <trkpt lat="43.63959" lon="5.57771">
        <ele>234.410108</ele>
        <time>2021-09-18T06:06:39.000Z</time>
      </trkpt>
      <trkpt lat="43.63977" lon="5.57787">
        <ele>234.380988</ele>
        <time>2021-09-18T06:06:45.000Z</time>
      </trkpt>
      <trkpt lat="43.63991" lon="5.578">
        <ele>234.259072</ele>
        <time>2021-09-18T06:06:50.000Z</time>
      </trkpt>
      <trkpt lat="43.64007" lon="5.57814">
        <ele>234.12267</ele>
        <time>2021-09-18T06:06:55.000Z</time>
      </trkpt>
      <trkpt lat="43.64011" lon="5.57838">
        <ele>233.996155</ele>
        <time>2021-09-18T06:07:00.000Z</time>
      </trkpt>
      <trkpt lat="43.64016" lon="5.57848">
        <ele>233.935716</ele>
        <time>2021-09-18T06:07:02.000Z</time>
      </trkpt>
      <trkpt lat="43.64022" lon="5.57864">
        <ele>233.841084</ele>
        <time>2021-09-18T06:07:05.000Z</time>
      </trkpt>
      <trkpt lat="43.64028" lon="5.5788">
        <ele>233.748435</ele>
        <time>2021-09-18T06:07:08.000Z</time>
      </trkpt>
      <trkpt lat="43.64033" lon="5.57901">
        <ele>233.633304</ele>
        <time>2021-09-18T06:07:12.000Z</time>
      </trkpt>
      <trkpt lat="43.64036" lon="5.57912">
        <ele>233.573074</ele>
        <time>2021-09-18T06:07:14.000Z</time>
      </trkpt>
      <trkpt lat="43.64041" lon="5.57932">
        <ele>233.467136</ele>
        <time>2021-09-18T06:07:17.000Z</time>
      </trkpt>
      <trkpt lat="43.64051" lon="5.57974">
        <ele>233.237359</ele>
        <time>2021-09-18T06:07:23.000Z</time>
      </trkpt>
      <trkpt lat="43.64064" lon="5.58019">
        <ele>233.086578</ele>
        <time>2021-09-18T06:07:29.000Z</time>
      </trkpt>
      <trkpt lat="43.64076" lon="5.58056">
        <ele>233.022365</ele>
        <time>2021-09-18T06:07:34.000Z</time>
      </trkpt>
      <trkpt lat="43.64093" lon="5.581">
        <ele>232.942734</ele>
        <time>2021-09-18T06:07:39.000Z</time>
      </trkpt>
      <trkpt lat="43.64093" lon="5.581">
        <ele>232.942734</ele>
        <time>2021-09-18T06:07:40.000Z</time>
      </trkpt>
      <trkpt lat="43.64107" lon="5.58128">
        <ele>232.887998</ele>
        <time>2021-09-18T06:07:44.000Z</time>
      </trkpt>
      <trkpt lat="43.64133" lon="5.58173">
        <ele>232.795458</ele>
        <time>2021-09-18T06:07:51.000Z</time>
      </trkpt>
      <trkpt lat="43.64157" lon="5.5821">
        <ele>232.685965</ele>
        <time>2021-09-18T06:07:57.000Z</time>
      </trkpt>
      <trkpt lat="43.64185" lon="5.58252">
        <ele>232.449241</ele>
        <time>2021-09-18T06:08:04.000Z</time>
      </trkpt>
      <trkpt lat="43.64213" lon="5.58306">
        <ele>232.170784</ele>
        <time>2021-09-18T06:08:12.000Z</time>
      </trkpt>
      <trkpt lat="43.64234" lon="5.58365">
        <ele>231.893025</ele>
        <time>2021-09-18T06:08:20.000Z</time>
      </trkpt>
      <trkpt lat="43.64251" lon="5.58424">
        <ele>231.655709</ele>
        <time>2021-09-18T06:08:28.000Z</time>
      </trkpt>
      <trkpt lat="43.6426" lon="5.58467">
        <ele>231.545145</ele>
        <time>2021-09-18T06:08:34.000Z</time>
      </trkpt>
      <trkpt lat="43.64261" lon="5.58473">
        <ele>231.529211</ele>
        <time>2021-09-18T06:08:35.000Z</time>
      </trkpt>
      <trkpt lat="43.64264" lon="5.58491">
        <ele>231.483562</ele>
        <time>2021-09-18T06:08:38.000Z</time>
      </trkpt>
      <trkpt lat="43.64267" lon="5.58507">
        <ele>231.443792</ele>
        <time>2021-09-18T06:08:41.000Z</time>
      </trkpt>
      <trkpt lat="43.6427" lon="5.58532">
        <ele>231.37995</ele>
        <time>2021-09-18T06:08:46.000Z</time>
      </trkpt>
      <trkpt lat="43.64272" lon="5.58543">
        <ele>231.351147</ele>
        <time>2021-09-18T06:08:48.000Z</time>
      </trkpt>
      <trkpt lat="43.64283" lon="5.58578">
        <ele>231.256946</ele>
        <time>2021-09-18T06:08:54.000Z</time>
      </trkpt>
      <trkpt lat="43.64296" lon="5.5862">
        <ele>231.143167</ele>
        <time>2021-09-18T06:08:59.000Z</time>
      </trkpt>
      <trkpt lat="43.64302" lon="5.58638">
        <ele>231.095459</ele>
        <time>2021-09-18T06:09:01.000Z</time>
      </trkpt>
      <trkpt lat="43.64308" lon="5.58656">
        <ele>231.026145</ele>
        <time>2021-09-18T06:09:03.000Z</time>
      </trkpt>
      <trkpt lat="43.64311" lon="5.58663">
        <ele>230.990743</ele>
        <time>2021-09-18T06:09:04.000Z</time>
      </trkpt>
      <trkpt lat="43.6433" lon="5.58739">
        <ele>230.658717</ele>
        <time>2021-09-18T06:09:14.000Z</time>
      </trkpt>
      <trkpt lat="43.64336" lon="5.58805">
        <ele>230.386411</ele>
        <time>2021-09-18T06:09:22.000Z</time>
      </trkpt>
      <trkpt lat="43.64337" lon="5.58855">
        <ele>230.181393</ele>
        <time>2021-09-18T06:09:28.000Z</time>
      </trkpt>
      <trkpt lat="43.64338" lon="5.58913">
        <ele>230.020627</ele>
        <time>2021-09-18T06:09:35.000Z</time>
      </trkpt>
      <trkpt lat="43.64339" lon="5.58972">
        <ele>229.952354</ele>
        <time>2021-09-18T06:09:42.000Z</time>
      </trkpt>
      <trkpt lat="43.6434" lon="5.59027">
        <ele>229.889156</ele>
        <time>2021-09-18T06:09:49.000Z</time>
      </trkpt>
      <trkpt lat="43.64341" lon="5.59065">
        <ele>229.845448</ele>
        <time>2021-09-18T06:09:55.000Z</time>
      </trkpt>
      <trkpt lat="43.64341" lon="5.59096">
        <ele>229.809354</ele>
        <time>2021-09-18T06:10:00.000Z</time>
      </trkpt>
      <trkpt lat="43.64342" lon="5.59103">
        <ele>229.801969</ele>
        <time>2021-09-18T06:10:01.000Z</time>
      </trkpt>
      <trkpt lat="43.64342" lon="5.59116">
        <ele>229.786863</ele>
        <time>2021-09-18T06:10:03.000Z</time>
      </trkpt>
      <trkpt lat="43.64342" lon="5.59127">
        <ele>229.773485</ele>
        <time>2021-09-18T06:10:05.000Z</time>
      </trkpt>
      <trkpt lat="43.64342" lon="5.59145">
        <ele>229.687879</ele>
        <time>2021-09-18T06:10:10.000Z</time>
      </trkpt>
      <trkpt lat="43.64343" lon="5.59157">
        <ele>229.606915</ele>
        <time>2021-09-18T06:10:13.000Z</time>
      </trkpt>
      <trkpt lat="43.64349" lon="5.59166">
        <ele>229.514663</ele>
        <time>2021-09-18T06:10:15.000Z</time>
      </trkpt>
      <trkpt lat="43.64362" lon="5.59161">
        <ele>229.389073</ele>
        <time>2021-09-18T06:10:21.000Z</time>
      </trkpt>
      <trkpt lat="43.64373" lon="5.59157">
        <ele>229.273055</ele>
        <time>2021-09-18T06:10:23.000Z</time>
      </trkpt>
      <trkpt lat="43.64383" lon="5.59154">
        <ele>229.179341</ele>
        <time>2021-09-18T06:10:26.000Z</time>
      </trkpt>
      <trkpt lat="43.64394" lon="5.5915">
        <ele>229.07063</ele>
        <time>2021-09-18T06:10:28.000Z</time>
      </trkpt>
      <trkpt lat="43.6441" lon="5.59137">
        <ele>228.889888</ele>
        <time>2021-09-18T06:10:30.000Z</time>
      </trkpt>
      <trkpt lat="43.64415" lon="5.59131">
        <ele>228.824023</ele>
        <time>2021-09-18T06:10:32.000Z</time>
      </trkpt>
      <trkpt lat="43.64424" lon="5.59116">
        <ele>228.683245</ele>
        <time>2021-09-18T06:10:34.000Z</time>
      </trkpt>
      <trkpt lat="43.64433" lon="5.59097">
        <ele>228.525286</ele>
        <time>2021-09-18T06:10:36.000Z</time>
      </trkpt>
      <trkpt lat="43.6444" lon="5.59075">
        <ele>228.357878</ele>
        <time>2021-09-18T06:10:38.000Z</time>
      </trkpt>
      <trkpt lat="43.64446" lon="5.59054">
        <ele>228.19744</ele>
        <time>2021-09-18T06:10:40.000Z</time>
      </trkpt>
      <trkpt lat="43.64452" lon="5.59035">
        <ele>228.050157</ele>
        <time>2021-09-18T06:10:42.000Z</time>
      </trkpt>
      <trkpt lat="43.64463" lon="5.59022">
        <ele>227.819811</ele>
        <time>2021-09-18T06:10:44.000Z</time>
      </trkpt>
      <trkpt lat="43.64493" lon="5.5902">
        <ele>227.268246</ele>
        <time>2021-09-18T06:10:48.000Z</time>
      </trkpt>
      <trkpt lat="43.64548" lon="5.59025">
        <ele>226.269435</ele>
        <time>2021-09-18T06:10:54.000Z</time>
      </trkpt>
      <trkpt lat="43.64563" lon="5.59027">
        <ele>225.989491</ele>
        <time>2021-09-18T06:10:57.000Z</time>
      </trkpt>
      <trkpt lat="43.64593" lon="5.5903">
        <ele>225.453452</ele>
        <time>2021-09-18T06:11:01.000Z</time>
      </trkpt>
      <trkpt lat="43.64598" lon="5.5903">
        <ele>225.345605</ele>
        <time>2021-09-18T06:11:02.000Z</time>
      </trkpt>
      <trkpt lat="43.64608" lon="5.59038">
        <ele>225.152965</ele>
        <time>2021-09-18T06:11:03.000Z</time>
      </trkpt>
      <trkpt lat="43.64608" lon="5.59038">
        <ele>225.152965</ele>
        <time>2021-09-18T06:11:05.000Z</time>
      </trkpt>
      <trkpt lat="43.64608" lon="5.5906">
        <ele>224.854142</ele>
        <time>2021-09-18T06:11:07.000Z</time>
      </trkpt>
      <trkpt lat="43.64607" lon="5.59075">
        <ele>224.66493</ele>
        <time>2021-09-18T06:11:09.000Z</time>
      </trkpt>
      <trkpt lat="43.64606" lon="5.59082">
        <ele>224.579329</ele>
        <time>2021-09-18T06:11:10.000Z</time>
      </trkpt>
      <trkpt lat="43.64601" lon="5.5913">
        <ele>224.018943</ele>
        <time>2021-09-18T06:11:16.000Z</time>
      </trkpt>
      <trkpt lat="43.64595" lon="5.59185">
        <ele>223.366258</ele>
        <time>2021-09-18T06:11:23.000Z</time>
      </trkpt>
      <trkpt lat="43.64594" lon="5.59192">
        <ele>223.273682</ele>
        <time>2021-09-18T06:11:24.000Z</time>
      </trkpt>
      <trkpt lat="43.64593" lon="5.592">
        <ele>223.180154</ele>
        <time>2021-09-18T06:11:25.000Z</time>
      </trkpt>
      <trkpt lat="43.64591" lon="5.59224">
        <ele>222.899156</ele>
        <time>2021-09-18T06:11:28.000Z</time>
      </trkpt>
      <trkpt lat="43.64587" lon="5.59272">
        <ele>222.333666</ele>
        <time>2021-09-18T06:11:34.000Z</time>
      </trkpt>
      <trkpt lat="43.64585" lon="5.59288">
        <ele>222.140366</ele>
        <time>2021-09-18T06:11:36.000Z</time>
      </trkpt>
      <trkpt lat="43.64583" lon="5.59311">
        <ele>221.863075</ele>
        <time>2021-09-18T06:11:39.000Z</time>
      </trkpt>
      <trkpt lat="43.64578" lon="5.59358">
        <ele>221.444348</ele>
        <time>2021-09-18T06:11:44.000Z</time>
      </trkpt>
      <trkpt lat="43.64576" lon="5.59382">
        <ele>221.240204</ele>
        <time>2021-09-18T06:11:47.000Z</time>
      </trkpt>
      <trkpt lat="43.64575" lon="5.59389">
        <ele>221.174251</ele>
        <time>2021-09-18T06:11:49.000Z</time>
      </trkpt>
      <trkpt lat="43.64571" lon="5.59432">
        <ele>220.800027</ele>
        <time>2021-09-18T06:11:55.000Z</time>
      </trkpt>
      <trkpt lat="43.64565" lon="5.59496">
        <ele>220.243306</ele>
        <time>2021-09-18T06:12:03.000Z</time>
      </trkpt>
      <trkpt lat="43.64562" lon="5.5953">
        <ele>219.952257</ele>
        <time>2021-09-18T06:12:09.000Z</time>
      </trkpt>
      <trkpt lat="43.6456" lon="5.59547">
        <ele>219.805821</ele>
        <time>2021-09-18T06:12:13.000Z</time>
      </trkpt>
      <trkpt lat="43.6456" lon="5.59551">
        <ele>219.765342</ele>
        <time>2021-09-18T06:12:15.000Z</time>
      </trkpt>
      <trkpt lat="43.64562" lon="5.59553">
        <ele>219.736389</ele>
        <time>2021-09-18T06:12:17.000Z</time>
      </trkpt>
      <trkpt lat="43.64562" lon="5.59543">
        <ele>219.6758</ele>
        <time>2021-09-18T06:12:19.000Z</time>
      </trkpt>
      <trkpt lat="43.6456" lon="5.59543">
        <ele>219.676806</ele>
        <time>2021-09-18T06:12:20.000Z</time>
      </trkpt>
      <trkpt lat="43.64561" lon="5.59537">
        <ele>219.679729</ele>
        <time>2021-09-18T06:12:21.000Z</time>
      </trkpt>
      <trkpt lat="43.64564" lon="5.59508">
        <ele>219.694627</ele>
        <time>2021-09-18T06:12:25.000Z</time>
      </trkpt>
      <trkpt lat="43.64567" lon="5.59475">
        <ele>219.710882</ele>
        <time>2021-09-18T06:12:29.000Z</time>
      </trkpt>
      <trkpt lat="43.64568" lon="5.59468">
        <ele>219.714641</ele>
        <time>2021-09-18T06:12:30.000Z</time>
      </trkpt>
      <trkpt lat="43.64573" lon="5.59412">
        <ele>219.742822</ele>
        <time>2021-09-18T06:12:35.000Z</time>
      </trkpt>
      <trkpt lat="43.64575" lon="5.59392">
        <ele>219.752495</ele>
        <time>2021-09-18T06:12:38.000Z</time>
      </trkpt>
      <trkpt lat="43.64576" lon="5.59384">
        <ele>219.756864</ele>
        <time>2021-09-18T06:12:39.000Z</time>
      </trkpt>
      <trkpt lat="43.64582" lon="5.59321">
        <ele>219.787998</ele>
        <time>2021-09-18T06:12:45.000Z</time>
      </trkpt>
      <trkpt lat="43.64582" lon="5.59321">
        <ele>219.787998</ele>
        <time>2021-09-18T06:12:46.000Z</time>
      </trkpt>
      <trkpt lat="43.64585" lon="5.59283">
        <ele>219.83478</ele>
        <time>2021-09-18T06:12:49.000Z</time>
      </trkpt>
      <trkpt lat="43.64591" lon="5.59224">
        <ele>219.952272</ele>
        <time>2021-09-18T06:12:55.000Z</time>
      </trkpt>
      <trkpt lat="43.64598" lon="5.59163">
        <ele>220.072427</ele>
        <time>2021-09-18T06:13:01.000Z</time>
      </trkpt>
      <trkpt lat="43.64599" lon="5.59142">
        <ele>220.113889</ele>
        <time>2021-09-18T06:13:04.000Z</time>
      </trkpt>
      <trkpt lat="43.64604" lon="5.59122">
        <ele>220.154777</ele>
        <time>2021-09-18T06:13:05.000Z</time>
      </trkpt>
      <trkpt lat="43.6461" lon="5.5912">
        <ele>220.173026</ele>
        <time>2021-09-18T06:13:06.000Z</time>
      </trkpt>
      <trkpt lat="43.6461" lon="5.5912">
        <ele>220.173296</ele>
        <time>2021-09-18T06:13:07.000Z</time>
      </trkpt>
      <trkpt lat="43.64616" lon="5.59121">
        <ele>220.189698</ele>
        <time>2021-09-18T06:13:08.000Z</time>
      </trkpt>
      <trkpt lat="43.64622" lon="5.59126">
        <ele>220.206729</ele>
        <time>2021-09-18T06:13:09.000Z</time>
      </trkpt>
      <trkpt lat="43.64624" lon="5.59136">
        <ele>220.228641</ele>
        <time>2021-09-18T06:13:10.000Z</time>
      </trkpt>
      <trkpt lat="43.64624" lon="5.5918">
        <ele>220.244182</ele>
        <time>2021-09-18T06:13:15.000Z</time>
      </trkpt>
      <trkpt lat="43.64624" lon="5.59222">
        <ele>220.133834</ele>
        <time>2021-09-18T06:13:20.000Z</time>
      </trkpt>
      <trkpt lat="43.64624" lon="5.59248">
        <ele>220.06804</ele>
        <time>2021-09-18T06:13:22.000Z</time>
      </trkpt>
      <trkpt lat="43.64624" lon="5.59274">
        <ele>220.000432</ele>
        <time>2021-09-18T06:13:26.000Z</time>
      </trkpt>
      <trkpt lat="43.64624" lon="5.59325">
        <ele>219.867289</ele>
        <time>2021-09-18T06:13:32.000Z</time>
      </trkpt>
      <trkpt lat="43.64629" lon="5.59382">
        <ele>219.718542</ele>
        <time>2021-09-18T06:13:39.000Z</time>
      </trkpt>
      <trkpt lat="43.64642" lon="5.59437">
        <ele>219.627508</ele>
        <time>2021-09-18T06:13:46.000Z</time>
      </trkpt>
      <trkpt lat="43.64659" lon="5.59492">
        <ele>219.600701</ele>
        <time>2021-09-18T06:13:53.000Z</time>
      </trkpt>
      <trkpt lat="43.64664" lon="5.59507">
        <ele>219.593238</ele>
        <time>2021-09-18T06:13:55.000Z</time>
      </trkpt>
      <trkpt lat="43.64669" lon="5.59523">
        <ele>219.585729</ele>
        <time>2021-09-18T06:13:57.000Z</time>
      </trkpt>
      <trkpt lat="43.6469" lon="5.59585">
        <ele>219.554931</ele>
        <time>2021-09-18T06:14:05.000Z</time>
      </trkpt>
      <trkpt lat="43.64708" lon="5.59638">
        <ele>219.528853</ele>
        <time>2021-09-18T06:14:12.000Z</time>
      </trkpt>
      <trkpt lat="43.64713" lon="5.59653">
        <ele>219.601367</ele>
        <time>2021-09-18T06:14:14.000Z</time>
      </trkpt>
      <trkpt lat="43.64718" lon="5.59667">
        <ele>219.670588</ele>
        <time>2021-09-18T06:14:16.000Z</time>
      </trkpt>
      <trkpt lat="43.6473" lon="5.59702">
        <ele>219.85017</ele>
        <time>2021-09-18T06:14:21.000Z</time>
      </trkpt>
      <trkpt lat="43.64732" lon="5.59709">
        <ele>219.886086</ele>
        <time>2021-09-18T06:14:22.000Z</time>
      </trkpt>
      <trkpt lat="43.64743" lon="5.59743">
        <ele>220.056885</ele>
        <time>2021-09-18T06:14:27.000Z</time>
      </trkpt>
      <trkpt lat="43.64746" lon="5.5975">
        <ele>220.092538</ele>
        <time>2021-09-18T06:14:28.000Z</time>
      </trkpt>
      <trkpt lat="43.6475" lon="5.59765">
        <ele>220.165358</ele>
        <time>2021-09-18T06:14:30.000Z</time>
      </trkpt>
      <trkpt lat="43.64753" lon="5.59771">
        <ele>220.19976</ele>
        <time>2021-09-18T06:14:31.000Z</time>
      </trkpt>
      <trkpt lat="43.64757" lon="5.59785">
        <ele>220.269396</ele>
        <time>2021-09-18T06:14:33.000Z</time>
      </trkpt>
      <trkpt lat="43.64762" lon="5.598">
        <ele>220.345088</ele>
        <time>2021-09-18T06:14:35.000Z</time>
      </trkpt>
      <trkpt lat="43.64765" lon="5.59808">
        <ele>220.384447</ele>
        <time>2021-09-18T06:14:36.000Z</time>
      </trkpt>
      <trkpt lat="43.64775" lon="5.59839">
        <ele>220.538177</ele>
        <time>2021-09-18T06:14:40.000Z</time>
      </trkpt>
      <trkpt lat="43.6478" lon="5.59853">
        <ele>220.612928</ele>
        <time>2021-09-18T06:14:42.000Z</time>
      </trkpt>
      <trkpt lat="43.64796" lon="5.59906">
        <ele>220.826209</ele>
        <time>2021-09-18T06:14:49.000Z</time>
      </trkpt>
      <trkpt lat="43.64808" lon="5.59942">
        <ele>220.965072</ele>
        <time>2021-09-18T06:14:54.000Z</time>
      </trkpt>
      <trkpt lat="43.6481" lon="5.59949">
        <ele>220.993566</ele>
        <time>2021-09-18T06:14:55.000Z</time>
      </trkpt>
      <trkpt lat="43.64813" lon="5.59957">
        <ele>221.022261</ele>
        <time>2021-09-18T06:14:56.000Z</time>
      </trkpt>
      <trkpt lat="43.64823" lon="5.59987">
        <ele>221.139796</ele>
        <time>2021-09-18T06:15:00.000Z</time>
      </trkpt>
      <trkpt lat="43.64847" lon="5.6006">
        <ele>221.420803</ele>
        <time>2021-09-18T06:15:09.000Z</time>
      </trkpt>
      <trkpt lat="43.6486" lon="5.601">
        <ele>221.582755</ele>
        <time>2021-09-18T06:15:14.000Z</time>
      </trkpt>
      <trkpt lat="43.64862" lon="5.60107">
        <ele>221.619584</ele>
        <time>2021-09-18T06:15:15.000Z</time>
      </trkpt>
      <trkpt lat="43.64867" lon="5.60122">
        <ele>221.69498</ele>
        <time>2021-09-18T06:15:17.000Z</time>
      </trkpt>
      <trkpt lat="43.6487" lon="5.6013">
        <ele>221.733703</ele>
        <time>2021-09-18T06:15:18.000Z</time>
      </trkpt>
      <trkpt lat="43.64877" lon="5.60153">
        <ele>221.846592</ele>
        <time>2021-09-18T06:15:21.000Z</time>
      </trkpt>
      <trkpt lat="43.64882" lon="5.60168">
        <ele>221.918357</ele>
        <time>2021-09-18T06:15:23.000Z</time>
      </trkpt>
      <trkpt lat="43.64887" lon="5.60182">
        <ele>221.990376</ele>
        <time>2021-09-18T06:15:25.000Z</time>
      </trkpt>
      <trkpt lat="43.64892" lon="5.60198">
        <ele>222.065108</ele>
        <time>2021-09-18T06:15:27.000Z</time>
      </trkpt>
      <trkpt lat="43.64894" lon="5.60205">
        <ele>222.101937</ele>
        <time>2021-09-18T06:15:28.000Z</time>
      </trkpt>
      <trkpt lat="43.64896" lon="5.60212">
        <ele>222.13498</ele>
        <time>2021-09-18T06:15:29.000Z</time>
      </trkpt>
      <trkpt lat="43.64901" lon="5.60225">
        <ele>222.201885</ele>
        <time>2021-09-18T06:15:31.000Z</time>
      </trkpt>
      <trkpt lat="43.64914" lon="5.60267">
        <ele>222.408123</ele>
        <time>2021-09-18T06:15:37.000Z</time>
      </trkpt>
      <trkpt lat="43.6493" lon="5.60316">
        <ele>222.646329</ele>
        <time>2021-09-18T06:15:44.000Z</time>
      </trkpt>
      <trkpt lat="43.64938" lon="5.60342">
        <ele>222.849183</ele>
        <time>2021-09-18T06:15:48.000Z</time>
      </trkpt>
      <trkpt lat="43.64943" lon="5.60357">
        <ele>222.969902</ele>
        <time>2021-09-18T06:15:50.000Z</time>
      </trkpt>
      <trkpt lat="43.64948" lon="5.60372">
        <ele>223.09303</ele>
        <time>2021-09-18T06:15:52.000Z</time>
      </trkpt>
      <trkpt lat="43.64967" lon="5.60429">
        <ele>223.546425</ele>
        <time>2021-09-18T06:16:00.000Z</time>
      </trkpt>
      <trkpt lat="43.64989" lon="5.60494">
        <ele>224.070669</ele>
        <time>2021-09-18T06:16:09.000Z</time>
      </trkpt>
      <trkpt lat="43.65004" lon="5.60541">
        <ele>224.444976</ele>
        <time>2021-09-18T06:16:18.000Z</time>
      </trkpt>
      <trkpt lat="43.65017" lon="5.60582">
        <ele>224.926315</ele>
        <time>2021-09-18T06:16:25.000Z</time>
      </trkpt>
      <trkpt lat="43.65034" lon="5.60626">
        <ele>225.490298</ele>
        <time>2021-09-18T06:16:35.000Z</time>
      </trkpt>
      <trkpt lat="43.65051" lon="5.60669">
        <ele>226.039132</ele>
        <time>2021-09-18T06:16:43.000Z</time>
      </trkpt>
      <trkpt lat="43.65073" lon="5.60721">
        <ele>226.705512</ele>
        <time>2021-09-18T06:16:52.000Z</time>
      </trkpt>
      <trkpt lat="43.65095" lon="5.60771">
        <ele>227.298392</ele>
        <time>2021-09-18T06:17:00.000Z</time>
      </trkpt>
      <trkpt lat="43.65121" lon="5.60824">
        <ele>227.602225</ele>
        <time>2021-09-18T06:17:08.000Z</time>
      </trkpt>
      <trkpt lat="43.65141" lon="5.60864">
        <ele>227.832151</ele>
        <time>2021-09-18T06:17:14.000Z</time>
      </trkpt>
      <trkpt lat="43.65148" lon="5.60876">
        <ele>227.908551</ele>
        <time>2021-09-18T06:17:16.000Z</time>
      </trkpt>
      <trkpt lat="43.65187" lon="5.6094">
        <ele>228.303238</ele>
        <time>2021-09-18T06:17:26.000Z</time>
      </trkpt>
      <trkpt lat="43.65219" lon="5.60992">
        <ele>228.605627</ele>
        <time>2021-09-18T06:17:34.000Z</time>
      </trkpt>
      <trkpt lat="43.65255" lon="5.61049">
        <ele>228.927123</ele>
        <time>2021-09-18T06:17:43.000Z</time>
      </trkpt>
      <trkpt lat="43.65259" lon="5.61056">
        <ele>228.962102</ele>
        <time>2021-09-18T06:17:44.000Z</time>
      </trkpt>
      <trkpt lat="43.65286" lon="5.611">
        <ele>229.207779</ele>
        <time>2021-09-18T06:17:51.000Z</time>
      </trkpt>
      <trkpt lat="43.65314" lon="5.61144">
        <ele>229.454793</ele>
        <time>2021-09-18T06:17:58.000Z</time>
      </trkpt>
      <trkpt lat="43.65344" lon="5.61198">
        <ele>229.541303</ele>
        <time>2021-09-18T06:18:06.000Z</time>
      </trkpt>
      <trkpt lat="43.65371" lon="5.61259">
        <ele>229.610936</ele>
        <time>2021-09-18T06:18:14.000Z</time>
      </trkpt>
      <trkpt lat="43.65391" lon="5.61319">
        <ele>229.676392</ele>
        <time>2021-09-18T06:18:21.000Z</time>
      </trkpt>
      <trkpt lat="43.65406" lon="5.61386">
        <ele>229.6711</ele>
        <time>2021-09-18T06:18:28.000Z</time>
      </trkpt>
      <trkpt lat="43.65418" lon="5.61465">
        <ele>229.471099</ele>
        <time>2021-09-18T06:18:36.000Z</time>
      </trkpt>
      <trkpt lat="43.65426" lon="5.61542">
        <ele>229.280196</ele>
        <time>2021-09-18T06:18:44.000Z</time>
      </trkpt>
      <trkpt lat="43.65434" lon="5.61623">
        <ele>229.130854</ele>
        <time>2021-09-18T06:18:53.000Z</time>
      </trkpt>
      <trkpt lat="43.65435" lon="5.61631">
        <ele>229.14614</ele>
        <time>2021-09-18T06:18:54.000Z</time>
      </trkpt>
      <trkpt lat="43.65447" lon="5.61699">
        <ele>229.269356</ele>
        <time>2021-09-18T06:19:02.000Z</time>
      </trkpt>
      <trkpt lat="43.6546" lon="5.61756">
        <ele>229.376716</ele>
        <time>2021-09-18T06:19:09.000Z</time>
      </trkpt>
      <trkpt lat="43.65477" lon="5.61831">
        <ele>229.516031</ele>
        <time>2021-09-18T06:19:18.000Z</time>
      </trkpt>
      <trkpt lat="43.65487" lon="5.61872">
        <ele>229.623363</ele>
        <time>2021-09-18T06:19:23.000Z</time>
      </trkpt>
      <trkpt lat="43.65498" lon="5.6192">
        <ele>229.775965</ele>
        <time>2021-09-18T06:19:29.000Z</time>
      </trkpt>
      <trkpt lat="43.65516" lon="5.61993">
        <ele>230.00949</ele>
        <time>2021-09-18T06:19:38.000Z</time>
      </trkpt>
      <trkpt lat="43.65525" lon="5.62032">
        <ele>230.133081</ele>
        <time>2021-09-18T06:19:43.000Z</time>
      </trkpt>
      <trkpt lat="43.65529" lon="5.62048">
        <ele>230.182566</ele>
        <time>2021-09-18T06:19:45.000Z</time>
      </trkpt>
      <trkpt lat="43.65535" lon="5.62073">
        <ele>230.261503</ele>
        <time>2021-09-18T06:19:48.000Z</time>
      </trkpt>
      <trkpt lat="43.65548" lon="5.62129">
        <ele>230.544259</ele>
        <time>2021-09-18T06:19:55.000Z</time>
      </trkpt>
      <trkpt lat="43.6556" lon="5.62176">
        <ele>230.806599</ele>
        <time>2021-09-18T06:20:01.000Z</time>
      </trkpt>
      <trkpt lat="43.65573" lon="5.62233">
        <ele>231.120825</ele>
        <time>2021-09-18T06:20:08.000Z</time>
      </trkpt>
      <trkpt lat="43.65587" lon="5.62289">
        <ele>231.430106</ele>
        <time>2021-09-18T06:20:15.000Z</time>
      </trkpt>
      <trkpt lat="43.65598" lon="5.62337">
        <ele>231.672535</ele>
        <time>2021-09-18T06:20:21.000Z</time>
      </trkpt>
      <trkpt lat="43.65611" lon="5.6239">
        <ele>231.891018</ele>
        <time>2021-09-18T06:20:28.000Z</time>
      </trkpt>
      <trkpt lat="43.65623" lon="5.6245">
        <ele>232.134431</ele>
        <time>2021-09-18T06:20:36.000Z</time>
      </trkpt>
      <trkpt lat="43.6563" lon="5.6251">
        <ele>232.372319</ele>
        <time>2021-09-18T06:20:44.000Z</time>
      </trkpt>
      <trkpt lat="43.65635" lon="5.62567">
        <ele>232.585115</ele>
        <time>2021-09-18T06:20:51.000Z</time>
      </trkpt>
      <trkpt lat="43.65642" lon="5.62634">
        <ele>232.660026</ele>
        <time>2021-09-18T06:20:59.000Z</time>
      </trkpt>
      <trkpt lat="43.65649" lon="5.62708">
        <ele>232.741246</ele>
        <time>2021-09-18T06:21:08.000Z</time>
      </trkpt>
      <trkpt lat="43.6566" lon="5.62785">
        <ele>232.827868</ele>
        <time>2021-09-18T06:21:18.000Z</time>
      </trkpt>
      <trkpt lat="43.65664" lon="5.628">
        <ele>232.844866</ele>
        <time>2021-09-18T06:21:20.000Z</time>
      </trkpt>
      <trkpt lat="43.6567" lon="5.62821">
        <ele>232.878292</ele>
        <time>2021-09-18T06:21:23.000Z</time>
      </trkpt>
      <trkpt lat="43.65672" lon="5.62829">
        <ele>232.891221</ele>
        <time>2021-09-18T06:21:24.000Z</time>
      </trkpt>
      <trkpt lat="43.65681" lon="5.62858">
        <ele>232.941342</ele>
        <time>2021-09-18T06:21:28.000Z</time>
      </trkpt>
      <trkpt lat="43.65684" lon="5.62865">
        <ele>232.954176</ele>
        <time>2021-09-18T06:21:29.000Z</time>
      </trkpt>
      <trkpt lat="43.65696" lon="5.62894">
        <ele>233.007256</ele>
        <time>2021-09-18T06:21:33.000Z</time>
      </trkpt>
      <trkpt lat="43.65726" lon="5.62958">
        <ele>233.127816</ele>
        <time>2021-09-18T06:21:42.000Z</time>
      </trkpt>
      <trkpt lat="43.65746" lon="5.63002">
        <ele>233.210611</ele>
        <time>2021-09-18T06:21:48.000Z</time>
      </trkpt>
      <trkpt lat="43.65773" lon="5.63063">
        <ele>233.371934</ele>
        <time>2021-09-18T06:21:56.000Z</time>
      </trkpt>
      <trkpt lat="43.65798" lon="5.63133">
        <ele>233.5717</ele>
        <time>2021-09-18T06:22:05.000Z</time>
      </trkpt>
      <trkpt lat="43.65819" lon="5.63203">
        <ele>233.770215</ele>
        <time>2021-09-18T06:22:14.000Z</time>
      </trkpt>
      <trkpt lat="43.65826" lon="5.63227">
        <ele>233.834874</ele>
        <time>2021-09-18T06:22:17.000Z</time>
      </trkpt>
      <trkpt lat="43.65845" lon="5.63289">
        <ele>234.005312</ele>
        <time>2021-09-18T06:22:25.000Z</time>
      </trkpt>
      <trkpt lat="43.65871" lon="5.63357">
        <ele>234.195663</ele>
        <time>2021-09-18T06:22:34.000Z</time>
      </trkpt>
      <trkpt lat="43.65873" lon="5.63365">
        <ele>234.216793</ele>
        <time>2021-09-18T06:22:35.000Z</time>
      </trkpt>
      <trkpt lat="43.65896" lon="5.63423">
        <ele>234.381359</ele>
        <time>2021-09-18T06:22:43.000Z</time>
      </trkpt>
      <trkpt lat="43.65922" lon="5.63487">
        <ele>234.601248</ele>
        <time>2021-09-18T06:22:52.000Z</time>
      </trkpt>
      <trkpt lat="43.65926" lon="5.63493">
        <ele>234.6355</ele>
        <time>2021-09-18T06:22:53.000Z</time>
      </trkpt>
      <trkpt lat="43.65939" lon="5.63519">
        <ele>234.769087</ele>
        <time>2021-09-18T06:22:57.000Z</time>
      </trkpt>
      <trkpt lat="43.65964" lon="5.63562">
        <ele>235.00233</ele>
        <time>2021-09-18T06:23:04.000Z</time>
      </trkpt>
      <trkpt lat="43.65999" lon="5.63613">
        <ele>235.299796</ele>
        <time>2021-09-18T06:23:13.000Z</time>
      </trkpt>
      <trkpt lat="43.66027" lon="5.63652">
        <ele>235.533309</ele>
        <time>2021-09-18T06:23:20.000Z</time>
      </trkpt>
      <trkpt lat="43.66055" lon="5.6369">
        <ele>236.015418</ele>
        <time>2021-09-18T06:23:27.000Z</time>
      </trkpt>
      <trkpt lat="43.66077" lon="5.63726">
        <ele>236.468023</ele>
        <time>2021-09-18T06:23:33.000Z</time>
      </trkpt>
      <trkpt lat="43.66088" lon="5.63748">
        <ele>236.717038</ele>
        <time>2021-09-18T06:23:36.000Z</time>
      </trkpt>
      <trkpt lat="43.66115" lon="5.63803">
        <ele>237.355297</ele>
        <time>2021-09-18T06:23:45.000Z</time>
      </trkpt>
      <trkpt lat="43.66135" lon="5.63845">
        <ele>237.838756</ele>
        <time>2021-09-18T06:23:52.000Z</time>
      </trkpt>
      <trkpt lat="43.66156" lon="5.63888">
        <ele>238.263865</ele>
        <time>2021-09-18T06:23:59.000Z</time>
      </trkpt>
      <trkpt lat="43.66173" lon="5.63923">
        <ele>238.609769</ele>
        <time>2021-09-18T06:24:05.000Z</time>
      </trkpt>
      <trkpt lat="43.66193" lon="5.63965">
        <ele>239.013037</ele>
        <time>2021-09-18T06:24:12.000Z</time>
      </trkpt>
      <trkpt lat="43.66216" lon="5.64013">
        <ele>239.471667</ele>
        <time>2021-09-18T06:24:20.000Z</time>
      </trkpt>
      <trkpt lat="43.6624" lon="5.64061">
        <ele>239.937221</ele>
        <time>2021-09-18T06:24:28.000Z</time>
      </trkpt>
      <trkpt lat="43.66268" lon="5.64106">
        <ele>240.209359</ele>
        <time>2021-09-18T06:24:36.000Z</time>
      </trkpt>
      <trkpt lat="43.66294" lon="5.64142">
        <ele>240.438679</ele>
        <time>2021-09-18T06:24:43.000Z</time>
      </trkpt>
      <trkpt lat="43.66298" lon="5.64147">
        <ele>240.471256</ele>
        <time>2021-09-18T06:24:44.000Z</time>
      </trkpt>
      <trkpt lat="43.66316" lon="5.6417">
        <ele>240.628671</ele>
        <time>2021-09-18T06:24:49.000Z</time>
      </trkpt>
      <trkpt lat="43.66347" lon="5.64209">
        <ele>240.88856</ele>
        <time>2021-09-18T06:24:57.000Z</time>
      </trkpt>
      <trkpt lat="43.66384" lon="5.64256">
        <ele>241.27076</ele>
        <time>2021-09-18T06:25:07.000Z</time>
      </trkpt>
      <trkpt lat="43.66413" lon="5.64293">
        <ele>241.625339</ele>
        <time>2021-09-18T06:25:15.000Z</time>
      </trkpt>
      <trkpt lat="43.66441" lon="5.64325">
        <ele>241.955235</ele>
        <time>2021-09-18T06:25:23.000Z</time>
      </trkpt>
      <trkpt lat="43.66464" lon="5.64347">
        <ele>242.201983</ele>
        <time>2021-09-18T06:25:29.000Z</time>
      </trkpt>
      <trkpt lat="43.66487" lon="5.64368">
        <ele>242.452918</ele>
        <time>2021-09-18T06:25:35.000Z</time>
      </trkpt>
      <trkpt lat="43.66516" lon="5.64393">
        <ele>242.739872</ele>
        <time>2021-09-18T06:25:42.000Z</time>
      </trkpt>
      <trkpt lat="43.66546" lon="5.6442">
        <ele>242.983266</ele>
        <time>2021-09-18T06:25:49.000Z</time>
      </trkpt>
      <trkpt lat="43.6658" lon="5.64457">
        <ele>243.276404</ele>
        <time>2021-09-18T06:25:57.000Z</time>
      </trkpt>
      <trkpt lat="43.66604" lon="5.6449">
        <ele>243.507734</ele>
        <time>2021-09-18T06:26:04.000Z</time>
      </trkpt>
      <trkpt lat="43.6661" lon="5.64499">
        <ele>243.568036</ele>
        <time>2021-09-18T06:26:06.000Z</time>
      </trkpt>
      <trkpt lat="43.6662" lon="5.64514">
        <ele>243.66929</ele>
        <time>2021-09-18T06:26:09.000Z</time>
      </trkpt>
      <trkpt lat="43.66647" lon="5.64556">
        <ele>243.870005</ele>
        <time>2021-09-18T06:26:17.000Z</time>
      </trkpt>
      <trkpt lat="43.66668" lon="5.64589">
        <ele>243.688378</ele>
        <time>2021-09-18T06:26:23.000Z</time>
      </trkpt>
      <trkpt lat="43.66689" lon="5.64621">
        <ele>243.508435</ele>
        <time>2021-09-18T06:26:29.000Z</time>
      </trkpt>
      <trkpt lat="43.66718" lon="5.64664">
        <ele>243.267187</ele>
        <time>2021-09-18T06:26:37.000Z</time>
      </trkpt>
      <trkpt lat="43.66758" lon="5.64715">
        <ele>242.9574</ele>
        <time>2021-09-18T06:26:47.000Z</time>
      </trkpt>
      <trkpt lat="43.66791" lon="5.64748">
        <ele>242.637713</ele>
        <time>2021-09-18T06:26:54.000Z</time>
      </trkpt>
      <trkpt lat="43.66821" lon="5.64773">
        <ele>242.312954</ele>
        <time>2021-09-18T06:27:00.000Z</time>
      </trkpt>
      <trkpt lat="43.66866" lon="5.64802">
        <ele>241.854679</ele>
        <time>2021-09-18T06:27:08.000Z</time>
      </trkpt>
      <trkpt lat="43.66923" lon="5.64828">
        <ele>241.308055</ele>
        <time>2021-09-18T06:27:18.000Z</time>
      </trkpt>
      <trkpt lat="43.66961" lon="5.64839">
        <ele>240.856049</ele>
        <time>2021-09-18T06:27:25.000Z</time>
      </trkpt>
      <trkpt lat="43.67009" lon="5.64852">
        <ele>240.250379</ele>
        <time>2021-09-18T06:27:34.000Z</time>
      </trkpt>
      <trkpt lat="43.67062" lon="5.64867">
        <ele>239.571348</ele>
        <time>2021-09-18T06:27:44.000Z</time>
      </trkpt>
      <trkpt lat="43.67068" lon="5.64869">
        <ele>239.503027</ele>
        <time>2021-09-18T06:27:45.000Z</time>
      </trkpt>
      <trkpt lat="43.67105" lon="5.64884">
        <ele>239.021865</ele>
        <time>2021-09-18T06:27:52.000Z</time>
      </trkpt>
      <trkpt lat="43.67141" lon="5.64903">
        <ele>238.520213</ele>
        <time>2021-09-18T06:27:59.000Z</time>
      </trkpt>
      <trkpt lat="43.6718" lon="5.64928">
        <ele>237.952742</ele>
        <time>2021-09-18T06:28:07.000Z</time>
      </trkpt>
      <trkpt lat="43.67211" lon="5.64946">
        <ele>237.518138</ele>
        <time>2021-09-18T06:28:13.000Z</time>
      </trkpt>
      <trkpt lat="43.67257" lon="5.64972">
        <ele>236.864007</ele>
        <time>2021-09-18T06:28:22.000Z</time>
      </trkpt>
      <trkpt lat="43.67296" lon="5.64995">
        <ele>236.437481</ele>
        <time>2021-09-18T06:28:30.000Z</time>
      </trkpt>
      <trkpt lat="43.67336" lon="5.65018">
        <ele>236.094919</ele>
        <time>2021-09-18T06:28:38.000Z</time>
      </trkpt>
      <trkpt lat="43.67373" lon="5.6504">
        <ele>235.775647</ele>
        <time>2021-09-18T06:28:46.000Z</time>
      </trkpt>
      <trkpt lat="43.67408" lon="5.65062">
        <ele>235.464159</ele>
        <time>2021-09-18T06:28:54.000Z</time>
      </trkpt>
      <trkpt lat="43.67439" lon="5.65084">
        <ele>235.219771</ele>
        <time>2021-09-18T06:29:01.000Z</time>
      </trkpt>
      <trkpt lat="43.67465" lon="5.65105">
        <ele>235.357346</ele>
        <time>2021-09-18T06:29:07.000Z</time>
      </trkpt>
      <trkpt lat="43.67486" lon="5.65122">
        <ele>235.463859</ele>
        <time>2021-09-18T06:29:12.000Z</time>
      </trkpt>
      <trkpt lat="43.67516" lon="5.65147">
        <ele>235.624139</ele>
        <time>2021-09-18T06:29:19.000Z</time>
      </trkpt>
      <trkpt lat="43.67543" lon="5.65171">
        <ele>235.767917</ele>
        <time>2021-09-18T06:29:25.000Z</time>
      </trkpt>
      <trkpt lat="43.6758" lon="5.65202">
        <ele>235.964951</ele>
        <time>2021-09-18T06:29:33.000Z</time>
      </trkpt>
      <trkpt lat="43.67613" lon="5.65229">
        <ele>236.226283</ele>
        <time>2021-09-18T06:29:40.000Z</time>
      </trkpt>
      <trkpt lat="43.67646" lon="5.65258">
        <ele>236.544626</ele>
        <time>2021-09-18T06:29:47.000Z</time>
      </trkpt>
      <trkpt lat="43.67689" lon="5.65294">
        <ele>236.950122</ele>
        <time>2021-09-18T06:29:56.000Z</time>
      </trkpt>
      <trkpt lat="43.67728" lon="5.65327">
        <ele>237.321673</ele>
        <time>2021-09-18T06:30:04.000Z</time>
      </trkpt>
      <trkpt lat="43.67772" lon="5.65364">
        <ele>237.570395</ele>
        <time>2021-09-18T06:30:13.000Z</time>
      </trkpt>
      <trkpt lat="43.67805" lon="5.65393">
        <ele>237.689114</ele>
        <time>2021-09-18T06:30:20.000Z</time>
      </trkpt>
      <trkpt lat="43.67837" lon="5.6542">
        <ele>237.804083</ele>
        <time>2021-09-18T06:30:27.000Z</time>
      </trkpt>
      <trkpt lat="43.67869" lon="5.65447">
        <ele>237.918533</ele>
        <time>2021-09-18T06:30:34.000Z</time>
      </trkpt>
      <trkpt lat="43.67911" lon="5.65483">
        <ele>238.073557</ele>
        <time>2021-09-18T06:30:43.000Z</time>
      </trkpt>
      <trkpt lat="43.67942" lon="5.65509">
        <ele>238.200007</ele>
        <time>2021-09-18T06:30:50.000Z</time>
      </trkpt>
      <trkpt lat="43.6797" lon="5.65527">
        <ele>238.303627</ele>
        <time>2021-09-18T06:30:56.000Z</time>
      </trkpt>
      <trkpt lat="43.68002" lon="5.65545">
        <ele>238.42285</ele>
        <time>2021-09-18T06:31:03.000Z</time>
      </trkpt>
      <trkpt lat="43.6804" lon="5.6556">
        <ele>238.556262</ele>
        <time>2021-09-18T06:31:11.000Z</time>
      </trkpt>
      <trkpt lat="43.68087" lon="5.65569">
        <ele>238.66612</ele>
        <time>2021-09-18T06:31:19.000Z</time>
      </trkpt>
      <trkpt lat="43.68133" lon="5.65575">
        <ele>238.729934</ele>
        <time>2021-09-18T06:31:29.000Z</time>
      </trkpt>
      <trkpt lat="43.68168" lon="5.65582">
        <ele>238.777471</ele>
        <time>2021-09-18T06:31:36.000Z</time>
      </trkpt>
      <trkpt lat="43.68177" lon="5.65584">
        <ele>238.790706</ele>
        <time>2021-09-18T06:31:38.000Z</time>
      </trkpt>
      <trkpt lat="43.68196" lon="5.65587">
        <ele>238.816247</ele>
        <time>2021-09-18T06:31:42.000Z</time>
      </trkpt>
      <trkpt lat="43.68227" lon="5.65594">
        <ele>238.859426</ele>
        <time>2021-09-18T06:31:49.000Z</time>
      </trkpt>
      <trkpt lat="43.68236" lon="5.65597">
        <ele>238.871963</ele>
        <time>2021-09-18T06:31:51.000Z</time>
      </trkpt>
      <trkpt lat="43.68259" lon="5.65607">
        <ele>238.86683</ele>
        <time>2021-09-18T06:31:56.000Z</time>
      </trkpt>
      <trkpt lat="43.68291" lon="5.65629">
        <ele>238.846362</ele>
        <time>2021-09-18T06:32:03.000Z</time>
      </trkpt>
      <trkpt lat="43.68325" lon="5.65659">
        <ele>238.824045</ele>
        <time>2021-09-18T06:32:11.000Z</time>
      </trkpt>
      <trkpt lat="43.68358" lon="5.6569">
        <ele>238.801299</ele>
        <time>2021-09-18T06:32:18.000Z</time>
      </trkpt>
      <trkpt lat="43.68378" lon="5.65713">
        <ele>238.786513</ele>
        <time>2021-09-18T06:32:24.000Z</time>
      </trkpt>
      <trkpt lat="43.68406" lon="5.65757">
        <ele>238.694917</ele>
        <time>2021-09-18T06:32:31.000Z</time>
      </trkpt>
      <trkpt lat="43.6842" lon="5.65787">
        <ele>238.610575</ele>
        <time>2021-09-18T06:32:37.000Z</time>
      </trkpt>
      <trkpt lat="43.68428" lon="5.65811">
        <ele>238.54588</ele>
        <time>2021-09-18T06:32:41.000Z</time>
      </trkpt>
      <trkpt lat="43.68434" lon="5.65831">
        <ele>238.494046</ele>
        <time>2021-09-18T06:32:43.000Z</time>
      </trkpt>
      <trkpt lat="43.68437" lon="5.65841">
        <ele>238.467018</ele>
        <time>2021-09-18T06:32:45.000Z</time>
      </trkpt>
      <trkpt lat="43.68439" lon="5.65854">
        <ele>238.435543</ele>
        <time>2021-09-18T06:32:47.000Z</time>
      </trkpt>
      <trkpt lat="43.68445" lon="5.65879">
        <ele>238.371709</ele>
        <time>2021-09-18T06:32:51.000Z</time>
      </trkpt>
      <trkpt lat="43.68451" lon="5.65906">
        <ele>238.303429</ele>
        <time>2021-09-18T06:32:55.000Z</time>
      </trkpt>
      <trkpt lat="43.68464" lon="5.65967">
        <ele>238.195995</ele>
        <time>2021-09-18T06:33:04.000Z</time>
      </trkpt>
      <trkpt lat="43.68475" lon="5.66015">
        <ele>238.291249</ele>
        <time>2021-09-18T06:33:11.000Z</time>
      </trkpt>
      <trkpt lat="43.68489" lon="5.66078">
        <ele>238.415265</ele>
        <time>2021-09-18T06:33:20.000Z</time>
      </trkpt>
      <trkpt lat="43.68499" lon="5.6611">
        <ele>238.480451</ele>
        <time>2021-09-18T06:33:25.000Z</time>
      </trkpt>
      <trkpt lat="43.68501" lon="5.66116">
        <ele>238.493284</ele>
        <time>2021-09-18T06:33:26.000Z</time>
      </trkpt>
      <trkpt lat="43.68507" lon="5.66134">
        <ele>238.530372</ele>
        <time>2021-09-18T06:33:29.000Z</time>
      </trkpt>
      <trkpt lat="43.68509" lon="5.6614">
        <ele>238.543808</ele>
        <time>2021-09-18T06:33:30.000Z</time>
      </trkpt>
      <trkpt lat="43.68511" lon="5.66146">
        <ele>238.556409</ele>
        <time>2021-09-18T06:33:31.000Z</time>
      </trkpt>
      <trkpt lat="43.68516" lon="5.66157">
        <ele>238.580723</ele>
        <time>2021-09-18T06:33:33.000Z</time>
      </trkpt>
      <trkpt lat="43.68521" lon="5.66169">
        <ele>238.605655</ele>
        <time>2021-09-18T06:33:35.000Z</time>
      </trkpt>
      <trkpt lat="43.68538" lon="5.66203">
        <ele>238.796286</ele>
        <time>2021-09-18T06:33:41.000Z</time>
      </trkpt>
      <trkpt lat="43.68546" lon="5.66219">
        <ele>238.933145</ele>
        <time>2021-09-18T06:33:44.000Z</time>
      </trkpt>
      <trkpt lat="43.6855" lon="5.6623">
        <ele>239.026258</ele>
        <time>2021-09-18T06:33:46.000Z</time>
      </trkpt>
      <trkpt lat="43.68556" lon="5.66243">
        <ele>239.13217</ele>
        <time>2021-09-18T06:33:48.000Z</time>
      </trkpt>
      <trkpt lat="43.68559" lon="5.66251">
        <ele>239.198304</ele>
        <time>2021-09-18T06:33:49.000Z</time>
      </trkpt>
      <trkpt lat="43.68565" lon="5.66265">
        <ele>239.314924</ele>
        <time>2021-09-18T06:33:51.000Z</time>
      </trkpt>
      <trkpt lat="43.68568" lon="5.66278">
        <ele>239.415241</ele>
        <time>2021-09-18T06:33:53.000Z</time>
      </trkpt>
      <trkpt lat="43.68579" lon="5.6633">
        <ele>239.80469</ele>
        <time>2021-09-18T06:34:01.000Z</time>
      </trkpt>
      <trkpt lat="43.68587" lon="5.66369">
        <ele>240.090303</ele>
        <time>2021-09-18T06:34:07.000Z</time>
      </trkpt>
      <trkpt lat="43.68599" lon="5.6643">
        <ele>240.643874</ele>
        <time>2021-09-18T06:34:16.000Z</time>
      </trkpt>
      <trkpt lat="43.68611" lon="5.66466">
        <ele>241.146439</ele>
        <time>2021-09-18T06:34:23.000Z</time>
      </trkpt>
      <trkpt lat="43.68627" lon="5.66499">
        <ele>241.656673</ele>
        <time>2021-09-18T06:34:31.000Z</time>
      </trkpt>
      <trkpt lat="43.68647" lon="5.66525">
        <ele>242.141545</ele>
        <time>2021-09-18T06:34:39.000Z</time>
      </trkpt>
      <trkpt lat="43.6867" lon="5.66546">
        <ele>242.642832</ele>
        <time>2021-09-18T06:34:47.000Z</time>
      </trkpt>
      <trkpt lat="43.68691" lon="5.66564">
        <ele>243.084259</ele>
        <time>2021-09-18T06:34:54.000Z</time>
      </trkpt>
      <trkpt lat="43.68717" lon="5.66583">
        <ele>243.603673</ele>
        <time>2021-09-18T06:35:02.000Z</time>
      </trkpt>
      <trkpt lat="43.6874" lon="5.666">
        <ele>243.844335</ele>
        <time>2021-09-18T06:35:09.000Z</time>
      </trkpt>
      <trkpt lat="43.68764" lon="5.66617">
        <ele>244.077529</ele>
        <time>2021-09-18T06:35:16.000Z</time>
      </trkpt>
      <trkpt lat="43.68778" lon="5.66627">
        <ele>244.217823</ele>
        <time>2021-09-18T06:35:20.000Z</time>
      </trkpt>
      <trkpt lat="43.68814" lon="5.66651">
        <ele>244.563014</ele>
        <time>2021-09-18T06:35:28.000Z</time>
      </trkpt>
      <trkpt lat="43.68842" lon="5.6668">
        <ele>244.871614</ele>
        <time>2021-09-18T06:35:35.000Z</time>
      </trkpt>
      <trkpt lat="43.68847" lon="5.66689">
        <ele>244.945537</ele>
        <time>2021-09-18T06:35:37.000Z</time>
      </trkpt>
      <trkpt lat="43.6885" lon="5.66693">
        <ele>244.981911</ele>
        <time>2021-09-18T06:35:39.000Z</time>
      </trkpt>
      <trkpt lat="43.68852" lon="5.66698">
        <ele>245.018791</ele>
        <time>2021-09-18T06:35:40.000Z</time>
      </trkpt>
      <trkpt lat="43.68855" lon="5.66718">
        <ele>245.148482</ele>
        <time>2021-09-18T06:35:43.000Z</time>
      </trkpt>
      <trkpt lat="43.68858" lon="5.66729">
        <ele>245.227486</ele>
        <time>2021-09-18T06:35:45.000Z</time>
      </trkpt>
      <trkpt lat="43.68873" lon="5.66745">
        <ele>245.427927</ele>
        <time>2021-09-18T06:35:50.000Z</time>
      </trkpt>
      <trkpt lat="43.68892" lon="5.6677">
        <ele>245.709443</ele>
        <time>2021-09-18T06:35:56.000Z</time>
      </trkpt>
      <trkpt lat="43.6891" lon="5.66796">
        <ele>245.985047</ele>
        <time>2021-09-18T06:36:03.000Z</time>
      </trkpt>
      <trkpt lat="43.68924" lon="5.6683">
        <ele>246.285387</ele>
        <time>2021-09-18T06:36:10.000Z</time>
      </trkpt>
      <trkpt lat="43.68935" lon="5.66858">
        <ele>246.532853</ele>
        <time>2021-09-18T06:36:16.000Z</time>
      </trkpt>
      <trkpt lat="43.68946" lon="5.66884">
        <ele>246.767346</ele>
        <time>2021-09-18T06:36:22.000Z</time>
      </trkpt>
      <trkpt lat="43.6896" lon="5.66903">
        <ele>246.981163</ele>
        <time>2021-09-18T06:36:28.000Z</time>
      </trkpt>
      <trkpt lat="43.68974" lon="5.66925">
        <ele>247.22179</ele>
        <time>2021-09-18T06:36:33.000Z</time>
      </trkpt>
      <trkpt lat="43.68976" lon="5.66931">
        <ele>247.286274</ele>
        <time>2021-09-18T06:36:34.000Z</time>
      </trkpt>
      <trkpt lat="43.68989" lon="5.66974">
        <ele>247.745603</ele>
        <time>2021-09-18T06:36:42.000Z</time>
      </trkpt>
      <trkpt lat="43.69001" lon="5.67007">
        <ele>248.109082</ele>
        <time>2021-09-18T06:36:49.000Z</time>
      </trkpt>
      <trkpt lat="43.69013" lon="5.67037">
        <ele>248.437742</ele>
        <time>2021-09-18T06:36:56.000Z</time>
      </trkpt>
      <trkpt lat="43.69022" lon="5.67061">
        <ele>248.700125</ele>
        <time>2021-09-18T06:37:03.000Z</time>
      </trkpt>
      <trkpt lat="43.69028" lon="5.67078">
        <ele>248.880994</ele>
        <time>2021-09-18T06:37:09.000Z</time>
      </trkpt>
      <trkpt lat="43.69033" lon="5.67092">
        <ele>249.043403</ele>
        <time>2021-09-18T06:37:16.000Z</time>
      </trkpt>
      <trkpt lat="43.69038" lon="5.67107">
        <ele>249.204611</ele>
        <time>2021-09-18T06:37:22.000Z</time>
      </trkpt>
      <trkpt lat="43.69042" lon="5.67133">
        <ele>249.455319</ele>
        <time>2021-09-18T06:37:28.000Z</time>
      </trkpt>
      <trkpt lat="43.69042" lon="5.67166">
        <ele>249.798519</ele>
        <time>2021-09-18T06:37:35.000Z</time>
      </trkpt>
      <trkpt lat="43.69041" lon="5.67203">
        <ele>250.183397</ele>
        <time>2021-09-18T06:37:42.000Z</time>
      </trkpt>
      <trkpt lat="43.6904" lon="5.6724">
        <ele>250.574484</ele>
        <time>2021-09-18T06:37:49.000Z</time>
      </trkpt>
      <trkpt lat="43.69039" lon="5.6727">
        <ele>250.887336</ele>
        <time>2021-09-18T06:37:56.000Z</time>
      </trkpt>
      <trkpt lat="43.69037" lon="5.67307">
        <ele>251.275055</ele>
        <time>2021-09-18T06:38:05.000Z</time>
      </trkpt>
      <trkpt lat="43.69035" lon="5.67327">
        <ele>251.482552</ele>
        <time>2021-09-18T06:38:11.000Z</time>
      </trkpt>
      <trkpt lat="43.69031" lon="5.67347">
        <ele>251.69701</ele>
        <time>2021-09-18T06:38:17.000Z</time>
      </trkpt>
      <trkpt lat="43.69021" lon="5.6738">
        <ele>252.078089</ele>
        <time>2021-09-18T06:38:25.000Z</time>
      </trkpt>
      <trkpt lat="43.6902" lon="5.67385">
        <ele>252.130919</ele>
        <time>2021-09-18T06:38:26.000Z</time>
      </trkpt>
      <trkpt lat="43.69019" lon="5.67394">
        <ele>252.22541</ele>
        <time>2021-09-18T06:38:28.000Z</time>
      </trkpt>
      <trkpt lat="43.69018" lon="5.67418">
        <ele>252.47765</ele>
        <time>2021-09-18T06:38:33.000Z</time>
      </trkpt>
      <trkpt lat="43.69017" lon="5.67443">
        <ele>252.735395</ele>
        <time>2021-09-18T06:38:38.000Z</time>
      </trkpt>
      <trkpt lat="43.69016" lon="5.67473">
        <ele>253.048314</ele>
        <time>2021-09-18T06:38:44.000Z</time>
      </trkpt>
      <trkpt lat="43.69015" lon="5.67504">
        <ele>253.369473</ele>
        <time>2021-09-18T06:38:50.000Z</time>
      </trkpt>
      <trkpt lat="43.69014" lon="5.67531">
        <ele>253.645954</ele>
        <time>2021-09-18T06:38:54.000Z</time>
      </trkpt>
      <trkpt lat="43.69014" lon="5.6755">
        <ele>253.843458</ele>
        <time>2021-09-18T06:38:57.000Z</time>
      </trkpt>
      <trkpt lat="43.69012" lon="5.67587">
        <ele>254.226156</ele>
        <time>2021-09-18T06:39:03.000Z</time>
      </trkpt>
      <trkpt lat="43.6901" lon="5.67621">
        <ele>254.579625</ele>
        <time>2021-09-18T06:39:09.000Z</time>
      </trkpt>
      <trkpt lat="43.69005" lon="5.67655">
        <ele>254.929799</ele>
        <time>2021-09-18T06:39:16.000Z</time>
      </trkpt>
      <trkpt lat="43.69002" lon="5.67676">
        <ele>255.130462</ele>
        <time>2021-09-18T06:39:20.000Z</time>
      </trkpt>
      <trkpt lat="43.69001" lon="5.67691">
        <ele>255.277658</ele>
        <time>2021-09-18T06:39:23.000Z</time>
      </trkpt>
      <trkpt lat="43.69001" lon="5.67726">
        <ele>255.618692</ele>
        <time>2021-09-18T06:39:30.000Z</time>
      </trkpt>
      <trkpt lat="43.69005" lon="5.67757">
        <ele>255.920517</ele>
        <time>2021-09-18T06:39:36.000Z</time>
      </trkpt>
      <trkpt lat="43.6901" lon="5.67796">
        <ele>256.294647</ele>
        <time>2021-09-18T06:39:44.000Z</time>
      </trkpt>
      <trkpt lat="43.69013" lon="5.67821">
        <ele>256.538089</ele>
        <time>2021-09-18T06:39:49.000Z</time>
      </trkpt>
      <trkpt lat="43.69017" lon="5.67858">
        <ele>256.898515</ele>
        <time>2021-09-18T06:39:56.000Z</time>
      </trkpt>
      <trkpt lat="43.6902" lon="5.67898">
        <ele>257.400287</ele>
        <time>2021-09-18T06:40:03.000Z</time>
      </trkpt>
      <trkpt lat="43.69019" lon="5.67942">
        <ele>258.146423</ele>
        <time>2021-09-18T06:40:11.000Z</time>
      </trkpt>
      <trkpt lat="43.69017" lon="5.67953">
        <ele>258.320134</ele>
        <time>2021-09-18T06:40:13.000Z</time>
      </trkpt>
      <trkpt lat="43.69014" lon="5.67974">
        <ele>258.676676</ele>
        <time>2021-09-18T06:40:17.000Z</time>
      </trkpt>
      <trkpt lat="43.69008" lon="5.68005">
        <ele>259.213598</ele>
        <time>2021-09-18T06:40:23.000Z</time>
      </trkpt>
      <trkpt lat="43.68993" lon="5.68053">
        <ele>260.092451</ele>
        <time>2021-09-18T06:40:32.000Z</time>
      </trkpt>
      <trkpt lat="43.68975" lon="5.68099">
        <ele>260.96955</ele>
        <time>2021-09-18T06:40:41.000Z</time>
      </trkpt>
      <trkpt lat="43.68959" lon="5.68137">
        <ele>261.646962</ele>
        <time>2021-09-18T06:40:49.000Z</time>
      </trkpt>
      <trkpt lat="43.68951" lon="5.68161">
        <ele>262.038418</ele>
        <time>2021-09-18T06:40:54.000Z</time>
      </trkpt>
      <trkpt lat="43.68944" lon="5.68198">
        <ele>262.607499</ele>
        <time>2021-09-18T06:41:01.000Z</time>
      </trkpt>
      <trkpt lat="43.6894" lon="5.6822">
        <ele>262.949083</ele>
        <time>2021-09-18T06:41:05.000Z</time>
      </trkpt>
      <trkpt lat="43.68939" lon="5.68237">
        <ele>263.194908</ele>
        <time>2021-09-18T06:41:08.000Z</time>
      </trkpt>
      <trkpt lat="43.68938" lon="5.68261">
        <ele>263.554538</ele>
        <time>2021-09-18T06:41:12.000Z</time>
      </trkpt>
      <trkpt lat="43.68937" lon="5.68273">
        <ele>263.737423</ele>
        <time>2021-09-18T06:41:14.000Z</time>
      </trkpt>
      <trkpt lat="43.68935" lon="5.68299">
        <ele>264.133077</ele>
        <time>2021-09-18T06:41:18.000Z</time>
      </trkpt>
      <trkpt lat="43.68934" lon="5.68312">
        <ele>264.329525</ele>
        <time>2021-09-18T06:41:20.000Z</time>
      </trkpt>
      <trkpt lat="43.68931" lon="5.68355">
        <ele>264.968037</ele>
        <time>2021-09-18T06:41:26.000Z</time>
      </trkpt>
      <trkpt lat="43.68927" lon="5.68404">
        <ele>265.259867</ele>
        <time>2021-09-18T06:41:32.000Z</time>
      </trkpt>
      <trkpt lat="43.68927" lon="5.68413">
        <ele>265.310898</ele>
        <time>2021-09-18T06:41:33.000Z</time>
      </trkpt>
      <trkpt lat="43.68924" lon="5.68446">
        <ele>265.508708</ele>
        <time>2021-09-18T06:41:37.000Z</time>
      </trkpt>
      <trkpt lat="43.68919" lon="5.68523">
        <ele>265.959344</ele>
        <time>2021-09-18T06:41:46.000Z</time>
      </trkpt>
      <trkpt lat="43.68916" lon="5.68582">
        <ele>266.302018</ele>
        <time>2021-09-18T06:41:54.000Z</time>
      </trkpt>
      <trkpt lat="43.68915" lon="5.68625">
        <ele>266.801545</ele>
        <time>2021-09-18T06:42:01.000Z</time>
      </trkpt>
      <trkpt lat="43.68914" lon="5.68636">
        <ele>267.003027</ele>
        <time>2021-09-18T06:42:03.000Z</time>
      </trkpt>
      <trkpt lat="43.68914" lon="5.68653">
        <ele>267.287921</ele>
        <time>2021-09-18T06:42:06.000Z</time>
      </trkpt>
      <trkpt lat="43.68913" lon="5.68688">
        <ele>267.907522</ele>
        <time>2021-09-18T06:42:13.000Z</time>
      </trkpt>
      <trkpt lat="43.68913" lon="5.68723">
        <ele>268.502607</ele>
        <time>2021-09-18T06:42:20.000Z</time>
      </trkpt>
      <trkpt lat="43.68913" lon="5.68746">
        <ele>268.910318</ele>
        <time>2021-09-18T06:42:25.000Z</time>
      </trkpt>
      <trkpt lat="43.68913" lon="5.68784">
        <ele>269.569596</ele>
        <time>2021-09-18T06:42:33.000Z</time>
      </trkpt>
      <trkpt lat="43.68913" lon="5.68813">
        <ele>270.067524</ele>
        <time>2021-09-18T06:42:39.000Z</time>
      </trkpt>
      <trkpt lat="43.68913" lon="5.68848">
        <ele>270.680033</ele>
        <time>2021-09-18T06:42:46.000Z</time>
      </trkpt>
      <trkpt lat="43.68912" lon="5.68881">
        <ele>271.023579</ele>
        <time>2021-09-18T06:42:52.000Z</time>
      </trkpt>
      <trkpt lat="43.6891" lon="5.68925">
        <ele>271.435722</ele>
        <time>2021-09-18T06:42:59.000Z</time>
      </trkpt>
      <trkpt lat="43.6891" lon="5.68944">
        <ele>271.625138</ele>
        <time>2021-09-18T06:43:02.000Z</time>
      </trkpt>
      <trkpt lat="43.68909" lon="5.68973">
        <ele>271.901186</ele>
        <time>2021-09-18T06:43:06.000Z</time>
      </trkpt>
      <trkpt lat="43.68907" lon="5.69035">
        <ele>272.491343</ele>
        <time>2021-09-18T06:43:14.000Z</time>
      </trkpt>
      <trkpt lat="43.68905" lon="5.69098">
        <ele>273.085301</ele>
        <time>2021-09-18T06:43:22.000Z</time>
      </trkpt>
      <trkpt lat="43.68903" lon="5.69163">
        <ele>273.285425</ele>
        <time>2021-09-18T06:43:30.000Z</time>
      </trkpt>
      <trkpt lat="43.689" lon="5.69218">
        <ele>273.442811</ele>
        <time>2021-09-18T06:43:37.000Z</time>
      </trkpt>
      <trkpt lat="43.68899" lon="5.69226">
        <ele>273.465278</ele>
        <time>2021-09-18T06:43:38.000Z</time>
      </trkpt>
      <trkpt lat="43.68898" lon="5.69249">
        <ele>273.53035</ele>
        <time>2021-09-18T06:43:41.000Z</time>
      </trkpt>
      <trkpt lat="43.68897" lon="5.69256">
        <ele>273.551371</ele>
        <time>2021-09-18T06:43:42.000Z</time>
      </trkpt>
      <trkpt lat="43.68893" lon="5.69314">
        <ele>273.714793</ele>
        <time>2021-09-18T06:43:50.000Z</time>
      </trkpt>
      <trkpt lat="43.6889" lon="5.69357">
        <ele>273.798442</ele>
        <time>2021-09-18T06:43:56.000Z</time>
      </trkpt>
      <trkpt lat="43.6889" lon="5.69364">
        <ele>273.787461</ele>
        <time>2021-09-18T06:43:57.000Z</time>
      </trkpt>
      <trkpt lat="43.68886" lon="5.69417">
        <ele>273.702647</ele>
        <time>2021-09-18T06:44:04.000Z</time>
      </trkpt>
      <trkpt lat="43.68882" lon="5.6948">
        <ele>273.602733</ele>
        <time>2021-09-18T06:44:11.000Z</time>
      </trkpt>
      <trkpt lat="43.68878" lon="5.69536">
        <ele>273.512991</ele>
        <time>2021-09-18T06:44:17.000Z</time>
      </trkpt>
      <trkpt lat="43.68873" lon="5.69606">
        <ele>273.312204</ele>
        <time>2021-09-18T06:44:24.000Z</time>
      </trkpt>
      <trkpt lat="43.68868" lon="5.69678">
        <ele>272.555849</ele>
        <time>2021-09-18T06:44:31.000Z</time>
      </trkpt>
      <trkpt lat="43.68863" lon="5.69742">
        <ele>271.880681</ele>
        <time>2021-09-18T06:44:37.000Z</time>
      </trkpt>
      <trkpt lat="43.68858" lon="5.69817">
        <ele>271.085436</ele>
        <time>2021-09-18T06:44:44.000Z</time>
      </trkpt>
      <trkpt lat="43.68847" lon="5.69891">
        <ele>270.144565</ele>
        <time>2021-09-18T06:44:52.000Z</time>
      </trkpt>
      <trkpt lat="43.68833" lon="5.69949">
        <ele>269.306202</ele>
        <time>2021-09-18T06:44:59.000Z</time>
      </trkpt>
      <trkpt lat="43.68818" lon="5.69997">
        <ele>268.598424</ele>
        <time>2021-09-18T06:45:05.000Z</time>
      </trkpt>
      <trkpt lat="43.68795" lon="5.70058">
        <ele>267.657096</ele>
        <time>2021-09-18T06:45:13.000Z</time>
      </trkpt>
      <trkpt lat="43.68765" lon="5.70123">
        <ele>266.872474</ele>
        <time>2021-09-18T06:45:22.000Z</time>
      </trkpt>
      <trkpt lat="43.68762" lon="5.7013">
        <ele>266.79659</ele>
        <time>2021-09-18T06:45:23.000Z</time>
      </trkpt>
      <trkpt lat="43.68751" lon="5.7015">
        <ele>266.571171</ele>
        <time>2021-09-18T06:45:26.000Z</time>
      </trkpt>
      <trkpt lat="43.68745" lon="5.70163">
        <ele>266.419404</ele>
        <time>2021-09-18T06:45:28.000Z</time>
      </trkpt>
      <trkpt lat="43.68718" lon="5.70215">
        <ele>265.831808</ele>
        <time>2021-09-18T06:45:36.000Z</time>
      </trkpt>
      <trkpt lat="43.68693" lon="5.70261">
        <ele>265.305921</ele>
        <time>2021-09-18T06:45:43.000Z</time>
      </trkpt>
      <trkpt lat="43.6869" lon="5.70268">
        <ele>265.235258</ele>
        <time>2021-09-18T06:45:44.000Z</time>
      </trkpt>
      <trkpt lat="43.68666" lon="5.70311">
        <ele>265.010769</ele>
        <time>2021-09-18T06:45:51.000Z</time>
      </trkpt>
      <trkpt lat="43.6865" lon="5.70343">
        <ele>264.900935</ele>
        <time>2021-09-18T06:45:56.000Z</time>
      </trkpt>
      <trkpt lat="43.68643" lon="5.70355">
        <ele>264.855612</ele>
        <time>2021-09-18T06:45:58.000Z</time>
      </trkpt>
      <trkpt lat="43.6863" lon="5.70381">
        <ele>264.766356</ele>
        <time>2021-09-18T06:46:02.000Z</time>
      </trkpt>
      <trkpt lat="43.68613" lon="5.70422">
        <ele>264.630992</ele>
        <time>2021-09-18T06:46:08.000Z</time>
      </trkpt>
      <trkpt lat="43.68594" lon="5.7047">
        <ele>264.475408</ele>
        <time>2021-09-18T06:46:15.000Z</time>
      </trkpt>
      <trkpt lat="43.68582" lon="5.70526">
        <ele>264.334933</ele>
        <time>2021-09-18T06:46:23.000Z</time>
      </trkpt>
      <trkpt lat="43.68579" lon="5.7054">
        <ele>264.303735</ele>
        <time>2021-09-18T06:46:25.000Z</time>
      </trkpt>
      <trkpt lat="43.68576" lon="5.70561">
        <ele>264.257109</ele>
        <time>2021-09-18T06:46:28.000Z</time>
      </trkpt>
      <trkpt lat="43.68575" lon="5.70568">
        <ele>264.242271</ele>
        <time>2021-09-18T06:46:29.000Z</time>
      </trkpt>
      <trkpt lat="43.68574" lon="5.70589">
        <ele>264.19575</ele>
        <time>2021-09-18T06:46:32.000Z</time>
      </trkpt>
      <trkpt lat="43.68571" lon="5.70641">
        <ele>264.084065</ele>
        <time>2021-09-18T06:46:39.000Z</time>
      </trkpt>
      <trkpt lat="43.68571" lon="5.70647">
        <ele>264.069508</ele>
        <time>2021-09-18T06:46:40.000Z</time>
      </trkpt>
      <trkpt lat="43.68569" lon="5.70692">
        <ele>263.971265</ele>
        <time>2021-09-18T06:46:46.000Z</time>
      </trkpt>
      <trkpt lat="43.68567" lon="5.70759">
        <ele>263.970545</ele>
        <time>2021-09-18T06:46:54.000Z</time>
      </trkpt>
      <trkpt lat="43.68565" lon="5.70818">
        <ele>264.162264</ele>
        <time>2021-09-18T06:47:01.000Z</time>
      </trkpt>
      <trkpt lat="43.68563" lon="5.70877">
        <ele>264.352013</ele>
        <time>2021-09-18T06:47:08.000Z</time>
      </trkpt>
      <trkpt lat="43.68562" lon="5.70893">
        <ele>264.403897</ele>
        <time>2021-09-18T06:47:10.000Z</time>
      </trkpt>
      <trkpt lat="43.68561" lon="5.70915">
        <ele>264.474769</ele>
        <time>2021-09-18T06:47:13.000Z</time>
      </trkpt>
      <trkpt lat="43.68561" lon="5.70935">
        <ele>264.539149</ele>
        <time>2021-09-18T06:47:16.000Z</time>
      </trkpt>
      <trkpt lat="43.68561" lon="5.70947">
        <ele>264.576804</ele>
        <time>2021-09-18T06:47:18.000Z</time>
      </trkpt>
      <trkpt lat="43.68561" lon="5.70966">
        <ele>264.636989</ele>
        <time>2021-09-18T06:47:21.000Z</time>
      </trkpt>
      <trkpt lat="43.68563" lon="5.7098">
        <ele>264.684448</ele>
        <time>2021-09-18T06:47:23.000Z</time>
      </trkpt>
      <trkpt lat="43.68567" lon="5.71017">
        <ele>264.723526</ele>
        <time>2021-09-18T06:47:28.000Z</time>
      </trkpt>
      <trkpt lat="43.68584" lon="5.71089">
        <ele>264.800959</ele>
        <time>2021-09-18T06:47:37.000Z</time>
      </trkpt>
      <trkpt lat="43.686" lon="5.71152">
        <ele>264.869238</ele>
        <time>2021-09-18T06:47:45.000Z</time>
      </trkpt>
      <trkpt lat="43.68618" lon="5.71223">
        <ele>264.906047</ele>
        <time>2021-09-18T06:47:54.000Z</time>
      </trkpt>
      <trkpt lat="43.68638" lon="5.713">
        <ele>264.413079</ele>
        <time>2021-09-18T06:48:04.000Z</time>
      </trkpt>
      <trkpt lat="43.68655" lon="5.71371">
        <ele>263.964046</ele>
        <time>2021-09-18T06:48:13.000Z</time>
      </trkpt>
      <trkpt lat="43.68673" lon="5.71442">
        <ele>263.511939</ele>
        <time>2021-09-18T06:48:22.000Z</time>
      </trkpt>
      <trkpt lat="43.68687" lon="5.71497">
        <ele>263.257593</ele>
        <time>2021-09-18T06:48:29.000Z</time>
      </trkpt>
      <trkpt lat="43.68702" lon="5.71558">
        <ele>262.992301</ele>
        <time>2021-09-18T06:48:37.000Z</time>
      </trkpt>
      <trkpt lat="43.68722" lon="5.71626">
        <ele>262.693332</ele>
        <time>2021-09-18T06:48:46.000Z</time>
      </trkpt>
      <trkpt lat="43.68745" lon="5.71702">
        <ele>262.369992</ele>
        <time>2021-09-18T06:48:56.000Z</time>
      </trkpt>
      <trkpt lat="43.68764" lon="5.71764">
        <ele>262.144655</ele>
        <time>2021-09-18T06:49:04.000Z</time>
      </trkpt>
      <trkpt lat="43.6878" lon="5.71818">
        <ele>261.945699</ele>
        <time>2021-09-18T06:49:11.000Z</time>
      </trkpt>
      <trkpt lat="43.68804" lon="5.71896">
        <ele>261.660191</ele>
        <time>2021-09-18T06:49:20.000Z</time>
      </trkpt>
      <trkpt lat="43.68815" lon="5.71934">
        <ele>261.548309</ele>
        <time>2021-09-18T06:49:26.000Z</time>
      </trkpt>
      <trkpt lat="43.68836" lon="5.71997">
        <ele>261.407314</ele>
        <time>2021-09-18T06:49:34.000Z</time>
      </trkpt>
      <trkpt lat="43.68851" lon="5.72035">
        <ele>261.317213</ele>
        <time>2021-09-18T06:49:39.000Z</time>
      </trkpt>
      <trkpt lat="43.68877" lon="5.72085">
        <ele>261.190855</ele>
        <time>2021-09-18T06:49:46.000Z</time>
      </trkpt>
      <trkpt lat="43.68917" lon="5.7214">
        <ele>261.121523</ele>
        <time>2021-09-18T06:49:55.000Z</time>
      </trkpt>
      <trkpt lat="43.68961" lon="5.72196">
        <ele>261.254285</ele>
        <time>2021-09-18T06:50:04.000Z</time>
      </trkpt>
      <trkpt lat="43.69004" lon="5.7225">
        <ele>261.383131</ele>
        <time>2021-09-18T06:50:14.000Z</time>
      </trkpt>
      <trkpt lat="43.69008" lon="5.72256">
        <ele>261.395853</ele>
        <time>2021-09-18T06:50:15.000Z</time>
      </trkpt>
      <trkpt lat="43.69033" lon="5.72288">
        <ele>261.471856</ele>
        <time>2021-09-18T06:50:22.000Z</time>
      </trkpt>
      <trkpt lat="43.69076" lon="5.72343">
        <ele>261.649408</ele>
        <time>2021-09-18T06:50:31.000Z</time>
      </trkpt>
      <trkpt lat="43.6911" lon="5.72388">
        <ele>261.795533</ele>
        <time>2021-09-18T06:50:39.000Z</time>
      </trkpt>
      <trkpt lat="43.69145" lon="5.72433">
        <ele>261.942942</ele>
        <time>2021-09-18T06:50:47.000Z</time>
      </trkpt>
      <trkpt lat="43.69186" lon="5.72485">
        <ele>262.06359</ele>
        <time>2021-09-18T06:50:56.000Z</time>
      </trkpt>
      <trkpt lat="43.69191" lon="5.72491">
        <ele>262.070504</ele>
        <time>2021-09-18T06:50:57.000Z</time>
      </trkpt>
      <trkpt lat="43.69225" lon="5.72534">
        <ele>262.120974</ele>
        <time>2021-09-18T06:51:04.000Z</time>
      </trkpt>
      <trkpt lat="43.69269" lon="5.72589">
        <ele>262.186051</ele>
        <time>2021-09-18T06:51:13.000Z</time>
      </trkpt>
      <trkpt lat="43.69297" lon="5.72627">
        <ele>262.22954</ele>
        <time>2021-09-18T06:51:19.000Z</time>
      </trkpt>
      <trkpt lat="43.69325" lon="5.72674">
        <ele>262.437359</ele>
        <time>2021-09-18T06:51:26.000Z</time>
      </trkpt>
      <trkpt lat="43.6935" lon="5.72725">
        <ele>262.661224</ele>
        <time>2021-09-18T06:51:34.000Z</time>
      </trkpt>
      <trkpt lat="43.69355" lon="5.72736">
        <ele>262.71056</ele>
        <time>2021-09-18T06:51:36.000Z</time>
      </trkpt>
      <trkpt lat="43.69364" lon="5.72753">
        <ele>262.786751</ele>
        <time>2021-09-18T06:51:39.000Z</time>
      </trkpt>
      <trkpt lat="43.6937" lon="5.72764">
        <ele>262.836072</ele>
        <time>2021-09-18T06:51:41.000Z</time>
      </trkpt>
      <trkpt lat="43.69375" lon="5.72775">
        <ele>262.886578</ele>
        <time>2021-09-18T06:51:43.000Z</time>
      </trkpt>
      <trkpt lat="43.6939" lon="5.72804">
        <ele>263.012964</ele>
        <time>2021-09-18T06:51:48.000Z</time>
      </trkpt>
      <trkpt lat="43.69413" lon="5.72835">
        <ele>263.205302</ele>
        <time>2021-09-18T06:51:55.000Z</time>
      </trkpt>
      <trkpt lat="43.69436" lon="5.72865">
        <ele>263.489176</ele>
        <time>2021-09-18T06:52:02.000Z</time>
      </trkpt>
      <trkpt lat="43.69457" lon="5.72892">
        <ele>263.74005</ele>
        <time>2021-09-18T06:52:08.000Z</time>
      </trkpt>
      <trkpt lat="43.69493" lon="5.72938">
        <ele>264.173617</ele>
        <time>2021-09-18T06:52:17.000Z</time>
      </trkpt>
      <trkpt lat="43.69517" lon="5.72968">
        <ele>264.466011</ele>
        <time>2021-09-18T06:52:23.000Z</time>
      </trkpt>
      <trkpt lat="43.69554" lon="5.73018">
        <ele>264.783844</ele>
        <time>2021-09-18T06:52:32.000Z</time>
      </trkpt>
      <trkpt lat="43.69584" lon="5.73059">
        <ele>264.866359</ele>
        <time>2021-09-18T06:52:39.000Z</time>
      </trkpt>
      <trkpt lat="43.69619" lon="5.73107">
        <ele>264.961581</ele>
        <time>2021-09-18T06:52:47.000Z</time>
      </trkpt>
      <trkpt lat="43.69657" lon="5.73163">
        <ele>265.069518</ele>
        <time>2021-09-18T06:52:56.000Z</time>
      </trkpt>
      <trkpt lat="43.69682" lon="5.732">
        <ele>265.100735</ele>
        <time>2021-09-18T06:53:02.000Z</time>
      </trkpt>
      <trkpt lat="43.69714" lon="5.73243">
        <ele>265.114727</ele>
        <time>2021-09-18T06:53:10.000Z</time>
      </trkpt>
      <trkpt lat="43.69751" lon="5.73286">
        <ele>265.129997</ele>
        <time>2021-09-18T06:53:17.000Z</time>
      </trkpt>
      <trkpt lat="43.69794" lon="5.73325">
        <ele>265.146346</ele>
        <time>2021-09-18T06:53:25.000Z</time>
      </trkpt>
      <trkpt lat="43.69831" lon="5.73358">
        <ele>265.036225</ele>
        <time>2021-09-18T06:53:32.000Z</time>
      </trkpt>
      <trkpt lat="43.69853" lon="5.73385">
        <ele>264.931013</ele>
        <time>2021-09-18T06:53:37.000Z</time>
      </trkpt>
      <trkpt lat="43.69883" lon="5.73433">
        <ele>264.771375</ele>
        <time>2021-09-18T06:53:44.000Z</time>
      </trkpt>
      <trkpt lat="43.69901" lon="5.73472">
        <ele>264.654659</ele>
        <time>2021-09-18T06:53:49.000Z</time>
      </trkpt>
      <trkpt lat="43.69917" lon="5.73522">
        <ele>264.509986</ele>
        <time>2021-09-18T06:53:55.000Z</time>
      </trkpt>
      <trkpt lat="43.69929" lon="5.73573">
        <ele>264.241218</ele>
        <time>2021-09-18T06:54:01.000Z</time>
      </trkpt>
      <trkpt lat="43.69946" lon="5.73649">
        <ele>263.838309</ele>
        <time>2021-09-18T06:54:10.000Z</time>
      </trkpt>
      <trkpt lat="43.69948" lon="5.73657">
        <ele>263.794789</ele>
        <time>2021-09-18T06:54:11.000Z</time>
      </trkpt>
      <trkpt lat="43.69963" lon="5.73723">
        <ele>263.446574</ele>
        <time>2021-09-18T06:54:19.000Z</time>
      </trkpt>
      <trkpt lat="43.69978" lon="5.73787">
        <ele>263.270713</ele>
        <time>2021-09-18T06:54:28.000Z</time>
      </trkpt>
      <trkpt lat="43.69981" lon="5.73802">
        <ele>263.273326</ele>
        <time>2021-09-18T06:54:29.000Z</time>
      </trkpt>
      <trkpt lat="43.69985" lon="5.7383">
        <ele>263.278051</ele>
        <time>2021-09-18T06:54:33.000Z</time>
      </trkpt>
      <trkpt lat="43.69989" lon="5.73879">
        <ele>263.286292</ele>
        <time>2021-09-18T06:54:40.000Z</time>
      </trkpt>
      <trkpt lat="43.69989" lon="5.73886">
        <ele>263.287432</ele>
        <time>2021-09-18T06:54:41.000Z</time>
      </trkpt>
      <trkpt lat="43.69988" lon="5.73899">
        <ele>263.289716</ele>
        <time>2021-09-18T06:54:43.000Z</time>
      </trkpt>
      <trkpt lat="43.69987" lon="5.73906">
        <ele>263.290865</ele>
        <time>2021-09-18T06:54:45.000Z</time>
      </trkpt>
      <trkpt lat="43.69982" lon="5.73932">
        <ele>263.295386</ele>
        <time>2021-09-18T06:54:48.000Z</time>
      </trkpt>
      <trkpt lat="43.69982" lon="5.73938">
        <ele>263.296424</ele>
        <time>2021-09-18T06:54:50.000Z</time>
      </trkpt>
      <trkpt lat="43.69992" lon="5.7396">
        <ele>263.300624</ele>
        <time>2021-09-18T06:54:54.000Z</time>
      </trkpt>
      <trkpt lat="43.70006" lon="5.73968">
        <ele>263.304146</ele>
        <time>2021-09-18T06:54:59.000Z</time>
      </trkpt>
      <trkpt lat="43.70009" lon="5.73972">
        <ele>263.305031</ele>
        <time>2021-09-18T06:55:00.000Z</time>
      </trkpt>
      <trkpt lat="43.70016" lon="5.73984">
        <ele>263.346822</ele>
        <time>2021-09-18T06:55:03.000Z</time>
      </trkpt>
      <trkpt lat="43.70027" lon="5.74007">
        <ele>263.623901</ele>
        <time>2021-09-18T06:55:08.000Z</time>
      </trkpt>
      <trkpt lat="43.7003" lon="5.74013">
        <ele>263.688028</ele>
        <time>2021-09-18T06:55:09.000Z</time>
      </trkpt>
      <trkpt lat="43.70044" lon="5.74053">
        <ele>264.136224</ele>
        <time>2021-09-18T06:55:16.000Z</time>
      </trkpt>
      <trkpt lat="43.70053" lon="5.74091">
        <ele>264.524432</ele>
        <time>2021-09-18T06:55:23.000Z</time>
      </trkpt>
      <trkpt lat="43.7006" lon="5.7414">
        <ele>265.017445</ele>
        <time>2021-09-18T06:55:33.000Z</time>
      </trkpt>
      <trkpt lat="43.70063" lon="5.74164">
        <ele>265.257876</ele>
        <time>2021-09-18T06:55:38.000Z</time>
      </trkpt>
      <trkpt lat="43.70068" lon="5.74203">
        <ele>265.652724</ele>
        <time>2021-09-18T06:55:46.000Z</time>
      </trkpt>
      <trkpt lat="43.70072" lon="5.74237">
        <ele>266.179175</ele>
        <time>2021-09-18T06:55:53.000Z</time>
      </trkpt>
      <trkpt lat="43.70076" lon="5.74264">
        <ele>266.699956</ele>
        <time>2021-09-18T06:55:59.000Z</time>
      </trkpt>
      <trkpt lat="43.70079" lon="5.74288">
        <ele>267.132659</ele>
        <time>2021-09-18T06:56:04.000Z</time>
      </trkpt>
      <trkpt lat="43.70083" lon="5.7432">
        <ele>267.741063</ele>
        <time>2021-09-18T06:56:11.000Z</time>
      </trkpt>
      <trkpt lat="43.70089" lon="5.74361">
        <ele>268.504391</ele>
        <time>2021-09-18T06:56:20.000Z</time>
      </trkpt>
      <trkpt lat="43.70092" lon="5.74384">
        <ele>268.930805</ele>
        <time>2021-09-18T06:56:25.000Z</time>
      </trkpt>
      <trkpt lat="43.70097" lon="5.7442">
        <ele>269.603836</ele>
        <time>2021-09-18T06:56:33.000Z</time>
      </trkpt>
      <trkpt lat="43.70102" lon="5.74456">
        <ele>270.269177</ele>
        <time>2021-09-18T06:56:40.000Z</time>
      </trkpt>
      <trkpt lat="43.70107" lon="5.74487">
        <ele>270.751179</ele>
        <time>2021-09-18T06:56:46.000Z</time>
      </trkpt>
      <trkpt lat="43.70108" lon="5.74492">
        <ele>270.831618</ele>
        <time>2021-09-18T06:56:47.000Z</time>
      </trkpt>
      <trkpt lat="43.70117" lon="5.74533">
        <ele>271.456644</ele>
        <time>2021-09-18T06:56:55.000Z</time>
      </trkpt>
      <trkpt lat="43.70129" lon="5.74579">
        <ele>272.184523</ele>
        <time>2021-09-18T06:57:04.000Z</time>
      </trkpt>
      <trkpt lat="43.70138" lon="5.7461">
        <ele>272.669317</ele>
        <time>2021-09-18T06:57:10.000Z</time>
      </trkpt>
      <trkpt lat="43.70151" lon="5.74657">
        <ele>273.409621</ele>
        <time>2021-09-18T06:57:19.000Z</time>
      </trkpt>
      <trkpt lat="43.70152" lon="5.74663">
        <ele>273.498613</ele>
        <time>2021-09-18T06:57:20.000Z</time>
      </trkpt>
      <trkpt lat="43.70155" lon="5.74688">
        <ele>273.865358</ele>
        <time>2021-09-18T06:57:24.000Z</time>
      </trkpt>
      <trkpt lat="43.70156" lon="5.74706">
        <ele>274.086768</ele>
        <time>2021-09-18T06:57:27.000Z</time>
      </trkpt>
      <trkpt lat="43.70157" lon="5.7473">
        <ele>274.33494</ele>
        <time>2021-09-18T06:57:31.000Z</time>
      </trkpt>
      <trkpt lat="43.70159" lon="5.74777">
        <ele>274.814257</ele>
        <time>2021-09-18T06:57:38.000Z</time>
      </trkpt>
      <trkpt lat="43.70164" lon="5.74823">
        <ele>275.287827</ele>
        <time>2021-09-18T06:57:45.000Z</time>
      </trkpt>
      <trkpt lat="43.70165" lon="5.74829">
        <ele>275.355497</ele>
        <time>2021-09-18T06:57:46.000Z</time>
      </trkpt>
      <trkpt lat="43.70168" lon="5.74835">
        <ele>275.419858</ele>
        <time>2021-09-18T06:57:47.000Z</time>
      </trkpt>
      <trkpt lat="43.70179" lon="5.74857">
        <ele>275.695208</ele>
        <time>2021-09-18T06:57:51.000Z</time>
      </trkpt>
      <trkpt lat="43.70209" lon="5.74896">
        <ele>276.281016</ele>
        <time>2021-09-18T06:57:59.000Z</time>
      </trkpt>
      <trkpt lat="43.70238" lon="5.74935">
        <ele>276.901986</ele>
        <time>2021-09-18T06:58:07.000Z</time>
      </trkpt>
      <trkpt lat="43.70268" lon="5.74977">
        <ele>277.59199</ele>
        <time>2021-09-18T06:58:16.000Z</time>
      </trkpt>
      <trkpt lat="43.70297" lon="5.75017">
        <ele>278.262159</ele>
        <time>2021-09-18T06:58:25.000Z</time>
      </trkpt>
      <trkpt lat="43.70324" lon="5.7506">
        <ele>278.927787</ele>
        <time>2021-09-18T06:58:34.000Z</time>
      </trkpt>
      <trkpt lat="43.70346" lon="5.75099">
        <ele>279.521369</ele>
        <time>2021-09-18T06:58:42.000Z</time>
      </trkpt>
      <trkpt lat="43.70367" lon="5.7514">
        <ele>280.152795</ele>
        <time>2021-09-18T06:58:50.000Z</time>
      </trkpt>
      <trkpt lat="43.70381" lon="5.75173">
        <ele>280.634729</ele>
        <time>2021-09-18T06:58:56.000Z</time>
      </trkpt>
      <trkpt lat="43.70392" lon="5.75201">
        <ele>281.03971</ele>
        <time>2021-09-18T06:59:02.000Z</time>
      </trkpt>
      <trkpt lat="43.70395" lon="5.75207">
        <ele>281.121874</ele>
        <time>2021-09-18T06:59:03.000Z</time>
      </trkpt>
      <trkpt lat="43.70417" lon="5.75264">
        <ele>281.945383</ele>
        <time>2021-09-18T06:59:13.000Z</time>
      </trkpt>
      <trkpt lat="43.70432" lon="5.75304">
        <ele>282.505565</ele>
        <time>2021-09-18T06:59:19.000Z</time>
      </trkpt>
      <trkpt lat="43.7044" lon="5.75333">
        <ele>282.83471</ele>
        <time>2021-09-18T06:59:25.000Z</time>
      </trkpt>
      <trkpt lat="43.70442" lon="5.75366">
        <ele>283.166448</ele>
        <time>2021-09-18T06:59:29.000Z</time>
      </trkpt>
      <trkpt lat="43.70442" lon="5.75379">
        <ele>283.297509</ele>
        <time>2021-09-18T06:59:31.000Z</time>
      </trkpt>
      <trkpt lat="43.70447" lon="5.7539">
        <ele>283.438049</ele>
        <time>2021-09-18T06:59:33.000Z</time>
      </trkpt>
      <trkpt lat="43.70451" lon="5.75395">
        <ele>283.505082</ele>
        <time>2021-09-18T06:59:35.000Z</time>
      </trkpt>
      <trkpt lat="43.70455" lon="5.75397">
        <ele>283.569019</ele>
        <time>2021-09-18T06:59:36.000Z</time>
      </trkpt>
      <trkpt lat="43.70466" lon="5.75409">
        <ele>283.768189</ele>
        <time>2021-09-18T06:59:38.000Z</time>
      </trkpt>
      <trkpt lat="43.70474" lon="5.75418">
        <ele>283.90984</ele>
        <time>2021-09-18T06:59:40.000Z</time>
      </trkpt>
      <trkpt lat="43.70478" lon="5.75423">
        <ele>283.982383</ele>
        <time>2021-09-18T06:59:41.000Z</time>
      </trkpt>
      <trkpt lat="43.70508" lon="5.75463">
        <ele>284.561164</ele>
        <time>2021-09-18T06:59:49.000Z</time>
      </trkpt>
      <trkpt lat="43.70534" lon="5.75499">
        <ele>285.077729</ele>
        <time>2021-09-18T06:59:56.000Z</time>
      </trkpt>
      <trkpt lat="43.70565" lon="5.7554">
        <ele>285.477805</ele>
        <time>2021-09-18T07:00:04.000Z</time>
      </trkpt>
      <trkpt lat="43.70592" lon="5.75579">
        <ele>285.830593</ele>
        <time>2021-09-18T07:00:11.000Z</time>
      </trkpt>
      <trkpt lat="43.70616" lon="5.75631">
        <ele>286.238543</ele>
        <time>2021-09-18T07:00:19.000Z</time>
      </trkpt>
      <trkpt lat="43.70635" lon="5.75687">
        <ele>286.64936</ele>
        <time>2021-09-18T07:00:27.000Z</time>
      </trkpt>
      <trkpt lat="43.70651" lon="5.75736">
        <ele>286.940044</ele>
        <time>2021-09-18T07:00:34.000Z</time>
      </trkpt>
      <trkpt lat="43.70675" lon="5.75806">
        <ele>287.324604</ele>
        <time>2021-09-18T07:00:44.000Z</time>
      </trkpt>
      <trkpt lat="43.70693" lon="5.75859">
        <ele>287.619467</ele>
        <time>2021-09-18T07:00:52.000Z</time>
      </trkpt>
      <trkpt lat="43.7071" lon="5.75911">
        <ele>287.903088</ele>
        <time>2021-09-18T07:00:59.000Z</time>
      </trkpt>
      <trkpt lat="43.70729" lon="5.75969">
        <ele>288.257761</ele>
        <time>2021-09-18T07:01:07.000Z</time>
      </trkpt>
      <trkpt lat="43.70746" lon="5.7602">
        <ele>288.578938</ele>
        <time>2021-09-18T07:01:14.000Z</time>
      </trkpt>
      <trkpt lat="43.70764" lon="5.76074">
        <ele>288.916483</ele>
        <time>2021-09-18T07:01:22.000Z</time>
      </trkpt>
      <trkpt lat="43.70779" lon="5.76119">
        <ele>289.204307</ele>
        <time>2021-09-18T07:01:30.000Z</time>
      </trkpt>
      <trkpt lat="43.70793" lon="5.76159">
        <ele>289.457257</ele>
        <time>2021-09-18T07:01:37.000Z</time>
      </trkpt>
      <trkpt lat="43.70813" lon="5.7622">
        <ele>289.871983</ele>
        <time>2021-09-18T07:01:47.000Z</time>
      </trkpt>
      <trkpt lat="43.70828" lon="5.76271">
        <ele>290.212255</ele>
        <time>2021-09-18T07:01:55.000Z</time>
      </trkpt>
      <trkpt lat="43.70845" lon="5.76329">
        <ele>290.59624</ele>
        <time>2021-09-18T07:02:04.000Z</time>
      </trkpt>
      <trkpt lat="43.70862" lon="5.76381">
        <ele>290.941725</ele>
        <time>2021-09-18T07:02:12.000Z</time>
      </trkpt>
      <trkpt lat="43.70876" lon="5.76426">
        <ele>291.244746</ele>
        <time>2021-09-18T07:02:19.000Z</time>
      </trkpt>
      <trkpt lat="43.70893" lon="5.76479">
        <ele>291.597022</ele>
        <time>2021-09-18T07:02:27.000Z</time>
      </trkpt>
      <trkpt lat="43.70907" lon="5.76542">
        <ele>291.993352</ele>
        <time>2021-09-18T07:02:36.000Z</time>
      </trkpt>
      <trkpt lat="43.70909" lon="5.76556">
        <ele>292.081325</ele>
        <time>2021-09-18T07:02:38.000Z</time>
      </trkpt>
      <trkpt lat="43.7091" lon="5.76585">
        <ele>292.257415</ele>
        <time>2021-09-18T07:02:42.000Z</time>
      </trkpt>
      <trkpt lat="43.70902" lon="5.76635">
        <ele>292.52744</ele>
        <time>2021-09-18T07:02:49.000Z</time>
      </trkpt>
      <trkpt lat="43.709" lon="5.76656">
        <ele>292.616806</ele>
        <time>2021-09-18T07:02:52.000Z</time>
      </trkpt>
      <trkpt lat="43.70899" lon="5.76671">
        <ele>292.681382</ele>
        <time>2021-09-18T07:02:54.000Z</time>
      </trkpt>
      <trkpt lat="43.70899" lon="5.76671">
        <ele>292.681382</ele>
        <time>2021-09-18T07:02:55.000Z</time>
      </trkpt>
      <trkpt lat="43.70901" lon="5.76679">
        <ele>292.715076</ele>
        <time>2021-09-18T07:02:56.000Z</time>
      </trkpt>
      <trkpt lat="43.70914" lon="5.76717">
        <ele>292.893654</ele>
        <time>2021-09-18T07:03:00.000Z</time>
      </trkpt>
      <trkpt lat="43.70933" lon="5.7676">
        <ele>293.103429</ele>
        <time>2021-09-18T07:03:06.000Z</time>
      </trkpt>
      <trkpt lat="43.70957" lon="5.76813">
        <ele>293.36573</ele>
        <time>2021-09-18T07:03:14.000Z</time>
      </trkpt>
      <trkpt lat="43.70976" lon="5.76855">
        <ele>293.655559</ele>
        <time>2021-09-18T07:03:21.000Z</time>
      </trkpt>
      <trkpt lat="43.70998" lon="5.76903">
        <ele>294.105402</ele>
        <time>2021-09-18T07:03:30.000Z</time>
      </trkpt>
      <trkpt lat="43.71017" lon="5.76937">
        <ele>294.442915</ele>
        <time>2021-09-18T07:03:37.000Z</time>
      </trkpt>
      <trkpt lat="43.71047" lon="5.7699">
        <ele>294.970054</ele>
        <time>2021-09-18T07:03:47.000Z</time>
      </trkpt>
      <trkpt lat="43.7105" lon="5.76995">
        <ele>295.026553</ele>
        <time>2021-09-18T07:03:48.000Z</time>
      </trkpt>
      <trkpt lat="43.71062" lon="5.77017">
        <ele>295.247904</ele>
        <time>2021-09-18T07:03:52.000Z</time>
      </trkpt>
      <trkpt lat="43.71082" lon="5.77064">
        <ele>295.626844</ele>
        <time>2021-09-18T07:03:59.000Z</time>
      </trkpt>
      <trkpt lat="43.71112" lon="5.77133">
        <ele>296.131005</ele>
        <time>2021-09-18T07:04:09.000Z</time>
      </trkpt>
      <trkpt lat="43.71132" lon="5.7718">
        <ele>296.469641</ele>
        <time>2021-09-18T07:04:16.000Z</time>
      </trkpt>
      <trkpt lat="43.71154" lon="5.77231">
        <ele>296.841322</ele>
        <time>2021-09-18T07:04:24.000Z</time>
      </trkpt>
      <trkpt lat="43.71175" lon="5.77282">
        <ele>297.072842</ele>
        <time>2021-09-18T07:04:32.000Z</time>
      </trkpt>
      <trkpt lat="43.712" lon="5.77339">
        <ele>297.199713</ele>
        <time>2021-09-18T07:04:40.000Z</time>
      </trkpt>
      <trkpt lat="43.71216" lon="5.77383">
        <ele>297.295718</ele>
        <time>2021-09-18T07:04:46.000Z</time>
      </trkpt>
      <trkpt lat="43.71217" lon="5.77391">
        <ele>297.311783</ele>
        <time>2021-09-18T07:04:47.000Z</time>
      </trkpt>
      <trkpt lat="43.71218" lon="5.77399">
        <ele>297.327514</ele>
        <time>2021-09-18T07:04:48.000Z</time>
      </trkpt>
      <trkpt lat="43.71221" lon="5.77423">
        <ele>297.374185</ele>
        <time>2021-09-18T07:04:51.000Z</time>
      </trkpt>
      <trkpt lat="43.71222" lon="5.7743">
        <ele>297.387969</ele>
        <time>2021-09-18T07:04:52.000Z</time>
      </trkpt>
      <trkpt lat="43.7122" lon="5.77439">
        <ele>297.407593</ele>
        <time>2021-09-18T07:04:53.000Z</time>
      </trkpt>
      <trkpt lat="43.71217" lon="5.77445">
        <ele>297.422158</ele>
        <time>2021-09-18T07:04:55.000Z</time>
      </trkpt>
      <trkpt lat="43.71215" lon="5.77457">
        <ele>297.446513</ele>
        <time>2021-09-18T07:04:56.000Z</time>
      </trkpt>
      <trkpt lat="43.71219" lon="5.77477">
        <ele>297.485577</ele>
        <time>2021-09-18T07:04:59.000Z</time>
      </trkpt>
      <trkpt lat="43.71223" lon="5.77481">
        <ele>297.474055</ele>
        <time>2021-09-18T07:05:01.000Z</time>
      </trkpt>
      <trkpt lat="43.71227" lon="5.77485">
        <ele>297.444807</ele>
        <time>2021-09-18T07:05:02.000Z</time>
      </trkpt>
      <trkpt lat="43.71236" lon="5.77487">
        <ele>297.390323</ele>
        <time>2021-09-18T07:05:03.000Z</time>
      </trkpt>
      <trkpt lat="43.71241" lon="5.77487">
        <ele>297.361879</ele>
        <time>2021-09-18T07:05:05.000Z</time>
      </trkpt>
      <trkpt lat="43.71249" lon="5.77493">
        <ele>297.305257</ele>
        <time>2021-09-18T07:05:06.000Z</time>
      </trkpt>
      <trkpt lat="43.71253" lon="5.77497">
        <ele>297.278387</ele>
        <time>2021-09-18T07:05:07.000Z</time>
      </trkpt>
      <trkpt lat="43.71265" lon="5.7751">
        <ele>297.186824</ele>
        <time>2021-09-18T07:05:10.000Z</time>
      </trkpt>
      <trkpt lat="43.71289" lon="5.77546">
        <ele>296.975342</ele>
        <time>2021-09-18T07:05:16.000Z</time>
      </trkpt>
      <trkpt lat="43.71321" lon="5.77612">
        <ele>296.636022</ele>
        <time>2021-09-18T07:05:25.000Z</time>
      </trkpt>
      <trkpt lat="43.71325" lon="5.7762">
        <ele>296.595967</ele>
        <time>2021-09-18T07:05:26.000Z</time>
      </trkpt>
      <trkpt lat="43.7135" lon="5.77679">
        <ele>296.174876</ele>
        <time>2021-09-18T07:05:33.000Z</time>
      </trkpt>
      <trkpt lat="43.71372" lon="5.77738">
        <ele>295.590693</ele>
        <time>2021-09-18T07:05:39.000Z</time>
      </trkpt>
      <trkpt lat="43.71396" lon="5.77813">
        <ele>294.863261</ele>
        <time>2021-09-18T07:05:46.000Z</time>
      </trkpt>
      <trkpt lat="43.714" lon="5.77824">
        <ele>294.759759</ele>
        <time>2021-09-18T07:05:47.000Z</time>
      </trkpt>
      <trkpt lat="43.71421" lon="5.77875">
        <ele>294.23746</ele>
        <time>2021-09-18T07:05:52.000Z</time>
      </trkpt>
      <trkpt lat="43.71427" lon="5.77883">
        <ele>294.197405</ele>
        <time>2021-09-18T07:05:53.000Z</time>
      </trkpt>
      <trkpt lat="43.7144" lon="5.77898">
        <ele>294.127348</ele>
        <time>2021-09-18T07:05:55.000Z</time>
      </trkpt>
      <trkpt lat="43.71454" lon="5.77909">
        <ele>294.059518</ele>
        <time>2021-09-18T07:05:57.000Z</time>
      </trkpt>
      <trkpt lat="43.71481" lon="5.77929">
        <ele>293.927792</ele>
        <time>2021-09-18T07:06:01.000Z</time>
      </trkpt>
      <trkpt lat="43.71488" lon="5.77934">
        <ele>293.895119</ele>
        <time>2021-09-18T07:06:02.000Z</time>
      </trkpt>
      <trkpt lat="43.72838" lon="5.81275">
        <ele>284.251358</ele>
        <time>2021-09-18T07:17:50.000Z</time>
      </trkpt>
      <trkpt lat="43.72847" lon="5.81271">
        <ele>284.346793</ele>
        <time>2021-09-18T07:18:04.000Z</time>
      </trkpt>
      <trkpt lat="43.72851" lon="5.81274">
        <ele>284.391332</ele>
        <time>2021-09-18T07:18:06.000Z</time>
      </trkpt>
      <trkpt lat="43.72863" lon="5.81267">
        <ele>284.527788</ele>
        <time>2021-09-18T07:18:11.000Z</time>
      </trkpt>
      <trkpt lat="43.72879" lon="5.81272">
        <ele>284.897155</ele>
        <time>2021-09-18T07:18:17.000Z</time>
      </trkpt>
      <trkpt lat="43.72883" lon="5.81272">
        <ele>284.998355</ele>
        <time>2021-09-18T07:18:18.000Z</time>
      </trkpt>
      <trkpt lat="43.72898" lon="5.8127">
        <ele>285.450084</ele>
        <time>2021-09-18T07:18:22.000Z</time>
      </trkpt>
      <trkpt lat="43.72921" lon="5.81273">
        <ele>286.096264</ele>
        <time>2021-09-18T07:18:28.000Z</time>
      </trkpt>
      <trkpt lat="43.7294" lon="5.81279">
        <ele>286.669931</ele>
        <time>2021-09-18T07:18:34.000Z</time>
      </trkpt>
      <trkpt lat="43.72945" lon="5.81282">
        <ele>286.82385</ele>
        <time>2021-09-18T07:18:37.000Z</time>
      </trkpt>
      <trkpt lat="43.72965" lon="5.81299">
        <ele>287.485412</ele>
        <time>2021-09-18T07:18:41.000Z</time>
      </trkpt>
      <trkpt lat="43.72978" lon="5.81319">
        <ele>288.049066</ele>
        <time>2021-09-18T07:18:47.000Z</time>
      </trkpt>
      <trkpt lat="43.72998" lon="5.8135">
        <ele>288.923858</ele>
        <time>2021-09-18T07:18:55.000Z</time>
      </trkpt>
      <trkpt lat="43.73012" lon="5.81378">
        <ele>289.614746</ele>
        <time>2021-09-18T07:19:01.000Z</time>
      </trkpt>
      <trkpt lat="43.73028" lon="5.81415">
        <ele>289.786975</ele>
        <time>2021-09-18T07:19:08.000Z</time>
      </trkpt>
      <trkpt lat="43.73043" lon="5.8145">
        <ele>289.836907</ele>
        <time>2021-09-18T07:19:15.000Z</time>
      </trkpt>
      <trkpt lat="43.73054" lon="5.81475">
        <ele>289.873422</ele>
        <time>2021-09-18T07:19:21.000Z</time>
      </trkpt>
      <trkpt lat="43.73067" lon="5.81506">
        <ele>289.917359</ele>
        <time>2021-09-18T07:19:28.000Z</time>
      </trkpt>
      <trkpt lat="43.73083" lon="5.81541">
        <ele>289.969031</ele>
        <time>2021-09-18T07:19:37.000Z</time>
      </trkpt>
      <trkpt lat="43.73093" lon="5.81566">
        <ele>290.003541</ele>
        <time>2021-09-18T07:19:43.000Z</time>
      </trkpt>
      <trkpt lat="43.73107" lon="5.81596">
        <ele>290.047493</ele>
        <time>2021-09-18T07:19:49.000Z</time>
      </trkpt>
      <trkpt lat="43.73116" lon="5.8162">
        <ele>290.168022</ele>
        <time>2021-09-18T07:19:56.000Z</time>
      </trkpt>
      <trkpt lat="43.73122" lon="5.81645">
        <ele>290.288725</ele>
        <time>2021-09-18T07:20:01.000Z</time>
      </trkpt>
      <trkpt lat="43.73127" lon="5.8167">
        <ele>290.403248</ele>
        <time>2021-09-18T07:20:07.000Z</time>
      </trkpt>
      <trkpt lat="43.73132" lon="5.81699">
        <ele>290.535946</ele>
        <time>2021-09-18T07:20:13.000Z</time>
      </trkpt>
      <trkpt lat="43.7314" lon="5.81737">
        <ele>290.713437</ele>
        <time>2021-09-18T07:20:20.000Z</time>
      </trkpt>
      <trkpt lat="43.73148" lon="5.81783">
        <ele>290.927671</ele>
        <time>2021-09-18T07:20:28.000Z</time>
      </trkpt>
      <trkpt lat="43.73153" lon="5.81809">
        <ele>291.046287</ele>
        <time>2021-09-18T07:20:34.000Z</time>
      </trkpt>
      <trkpt lat="43.73154" lon="5.81818">
        <ele>291.086451</ele>
        <time>2021-09-18T07:20:36.000Z</time>
      </trkpt>
      <trkpt lat="43.73154" lon="5.81822">
        <ele>291.104773</ele>
        <time>2021-09-18T07:20:37.000Z</time>
      </trkpt>
      <trkpt lat="43.73155" lon="5.81829">
        <ele>291.139419</ele>
        <time>2021-09-18T07:20:39.000Z</time>
      </trkpt>
      <trkpt lat="43.73163" lon="5.81841">
        <ele>291.190322</ele>
        <time>2021-09-18T07:20:41.000Z</time>
      </trkpt>
      <trkpt lat="43.73161" lon="5.81813">
        <ele>291.264331</ele>
        <time>2021-09-18T07:20:46.000Z</time>
      </trkpt>
      <trkpt lat="43.73154" lon="5.81789">
        <ele>291.332808</ele>
        <time>2021-09-18T07:20:52.000Z</time>
      </trkpt>
      <trkpt lat="43.73146" lon="5.81767">
        <ele>291.396973</ele>
        <time>2021-09-18T07:20:56.000Z</time>
      </trkpt>
      <trkpt lat="43.73142" lon="5.81754">
        <ele>291.435056</ele>
        <time>2021-09-18T07:20:58.000Z</time>
      </trkpt>
      <trkpt lat="43.73135" lon="5.81713">
        <ele>291.54899</ele>
        <time>2021-09-18T07:21:05.000Z</time>
      </trkpt>
      <trkpt lat="43.73127" lon="5.81666">
        <ele>291.676113</ele>
        <time>2021-09-18T07:21:12.000Z</time>
      </trkpt>
      <trkpt lat="43.73124" lon="5.81652">
        <ele>291.715936</ele>
        <time>2021-09-18T07:21:14.000Z</time>
      </trkpt>
      <trkpt lat="43.73118" lon="5.81624">
        <ele>291.792469</ele>
        <time>2021-09-18T07:21:17.000Z</time>
      </trkpt>
      <trkpt lat="43.73113" lon="5.81611">
        <ele>291.820114</ele>
        <time>2021-09-18T07:21:20.000Z</time>
      </trkpt>
      <trkpt lat="43.73105" lon="5.81592">
        <ele>291.763715</ele>
        <time>2021-09-18T07:21:23.000Z</time>
      </trkpt>
      <trkpt lat="43.73093" lon="5.81564">
        <ele>291.680724</ele>
        <time>2021-09-18T07:21:27.000Z</time>
      </trkpt>
      <trkpt lat="43.7309" lon="5.81557">
        <ele>291.659459</ele>
        <time>2021-09-18T07:21:28.000Z</time>
      </trkpt>
      <trkpt lat="43.73068" lon="5.81506">
        <ele>291.508316</ele>
        <time>2021-09-18T07:21:35.000Z</time>
      </trkpt>
      <trkpt lat="43.73048" lon="5.81461">
        <ele>291.373426</ele>
        <time>2021-09-18T07:21:41.000Z</time>
      </trkpt>
      <trkpt lat="43.73025" lon="5.81407">
        <ele>291.211561</ele>
        <time>2021-09-18T07:21:47.000Z</time>
      </trkpt>
      <trkpt lat="43.73004" lon="5.81361">
        <ele>291.000749</ele>
        <time>2021-09-18T07:21:54.000Z</time>
      </trkpt>
      <trkpt lat="43.72993" lon="5.81342">
        <ele>290.899619</ele>
        <time>2021-09-18T07:21:56.000Z</time>
      </trkpt>
      <trkpt lat="43.7299" lon="5.81337">
        <ele>290.869507</ele>
        <time>2021-09-18T07:21:58.000Z</time>
      </trkpt>
      <trkpt lat="43.72978" lon="5.8132">
        <ele>290.770524</ele>
        <time>2021-09-18T07:22:04.000Z</time>
      </trkpt>
      <trkpt lat="43.72971" lon="5.81308">
        <ele>290.706534</ele>
        <time>2021-09-18T07:22:05.000Z</time>
      </trkpt>
      <trkpt lat="43.72968" lon="5.81286">
        <ele>290.614284</ele>
        <time>2021-09-18T07:22:09.000Z</time>
      </trkpt>
      <trkpt lat="43.72978" lon="5.81277">
        <ele>290.549133</ele>
        <time>2021-09-18T07:22:12.000Z</time>
      </trkpt>
      <trkpt lat="43.72986" lon="5.81275">
        <ele>290.500305</ele>
        <time>2021-09-18T07:22:13.000Z</time>
      </trkpt>
      <trkpt lat="43.73011" lon="5.81268">
        <ele>290.348995</ele>
        <time>2021-09-18T07:22:18.000Z</time>
      </trkpt>
      <trkpt lat="43.73035" lon="5.81263">
        <ele>290.211373</ele>
        <time>2021-09-18T07:22:24.000Z</time>
      </trkpt>
      <trkpt lat="43.7304" lon="5.81262">
        <ele>290.179119</ele>
        <time>2021-09-18T07:22:25.000Z</time>
      </trkpt>
      <trkpt lat="43.73084" lon="5.81239">
        <ele>289.705424</ele>
        <time>2021-09-18T07:22:32.000Z</time>
      </trkpt>
      <trkpt lat="43.73084" lon="5.81239">
        <ele>289.704346</ele>
        <time>2021-09-18T07:22:33.000Z</time>
      </trkpt>
      <trkpt lat="43.73112" lon="5.81212">
        <ele>289.336443</ele>
        <time>2021-09-18T07:22:38.000Z</time>
      </trkpt>
      <trkpt lat="43.73155" lon="5.81168">
        <ele>288.758746</ele>
        <time>2021-09-18T07:22:47.000Z</time>
      </trkpt>
      <trkpt lat="43.73188" lon="5.81136">
        <ele>288.323811</ele>
        <time>2021-09-18T07:22:54.000Z</time>
      </trkpt>
      <trkpt lat="43.73227" lon="5.81091">
        <ele>288.018498</ele>
        <time>2021-09-18T07:23:02.000Z</time>
      </trkpt>
      <trkpt lat="43.73254" lon="5.81054">
        <ele>287.840682</ele>
        <time>2021-09-18T07:23:10.000Z</time>
      </trkpt>
      <trkpt lat="43.73296" lon="5.80993">
        <ele>287.5515</ele>
        <time>2021-09-18T07:23:20.000Z</time>
      </trkpt>
      <trkpt lat="43.7331" lon="5.80971">
        <ele>287.449773</ele>
        <time>2021-09-18T07:23:24.000Z</time>
      </trkpt>
      <trkpt lat="43.73316" lon="5.80959">
        <ele>287.398386</ele>
        <time>2021-09-18T07:23:27.000Z</time>
      </trkpt>
      <trkpt lat="43.73336" lon="5.8091">
        <ele>287.314583</ele>
        <time>2021-09-18T07:23:35.000Z</time>
      </trkpt>
      <trkpt lat="43.73352" lon="5.80864">
        <ele>287.266405</ele>
        <time>2021-09-18T07:23:42.000Z</time>
      </trkpt>
      <trkpt lat="43.7337" lon="5.80814">
        <ele>287.213741</ele>
        <time>2021-09-18T07:23:49.000Z</time>
      </trkpt>
      <trkpt lat="43.73399" lon="5.80733">
        <ele>287.129273</ele>
        <time>2021-09-18T07:23:59.000Z</time>
      </trkpt>
      <trkpt lat="43.73399" lon="5.80733">
        <ele>287.129273</ele>
        <time>2021-09-18T07:24:00.000Z</time>
      </trkpt>
      <trkpt lat="43.73422" lon="5.8066">
        <ele>287.124403</ele>
        <time>2021-09-18T07:24:10.000Z</time>
      </trkpt>
      <trkpt lat="43.73425" lon="5.80653">
        <ele>287.124784</ele>
        <time>2021-09-18T07:24:11.000Z</time>
      </trkpt>
      <trkpt lat="43.73447" lon="5.80583">
        <ele>287.128566</ele>
        <time>2021-09-18T07:24:21.000Z</time>
      </trkpt>
      <trkpt lat="43.73456" lon="5.80545">
        <ele>287.130524</ele>
        <time>2021-09-18T07:24:27.000Z</time>
      </trkpt>
      <trkpt lat="43.73468" lon="5.80492">
        <ele>287.138211</ele>
        <time>2021-09-18T07:24:35.000Z</time>
      </trkpt>
      <trkpt lat="43.73468" lon="5.80492">
        <ele>287.138211</ele>
        <time>2021-09-18T07:24:36.000Z</time>
      </trkpt>
      <trkpt lat="43.73514" lon="5.80449">
        <ele>287.342197</ele>
        <time>2021-09-18T07:24:43.000Z</time>
      </trkpt>
      <trkpt lat="43.73541" lon="5.80432">
        <ele>287.454363</ele>
        <time>2021-09-18T07:24:49.000Z</time>
      </trkpt>
      <trkpt lat="43.73583" lon="5.80417">
        <ele>287.613825</ele>
        <time>2021-09-18T07:24:58.000Z</time>
      </trkpt>
      <trkpt lat="43.73619" lon="5.80406">
        <ele>287.747507</ele>
        <time>2021-09-18T07:25:06.000Z</time>
      </trkpt>
      <trkpt lat="43.73647" lon="5.80396">
        <ele>288.232753</ele>
        <time>2021-09-18T07:25:13.000Z</time>
      </trkpt>
      <trkpt lat="43.73675" lon="5.80384">
        <ele>289.046093</ele>
        <time>2021-09-18T07:25:21.000Z</time>
      </trkpt>
      <trkpt lat="43.73702" lon="5.80366">
        <ele>289.854339</ele>
        <time>2021-09-18T07:25:30.000Z</time>
      </trkpt>
      <trkpt lat="43.73725" lon="5.80348">
        <ele>290.588933</ele>
        <time>2021-09-18T07:25:39.000Z</time>
      </trkpt>
      <trkpt lat="43.73745" lon="5.80329">
        <ele>291.258789</ele>
        <time>2021-09-18T07:25:47.000Z</time>
      </trkpt>
      <trkpt lat="43.73765" lon="5.80306">
        <ele>291.971984</ele>
        <time>2021-09-18T07:25:56.000Z</time>
      </trkpt>
      <trkpt lat="43.73781" lon="5.80282">
        <ele>292.620995</ele>
        <time>2021-09-18T07:26:04.000Z</time>
      </trkpt>
      <trkpt lat="43.73804" lon="5.8025">
        <ele>293.808801</ele>
        <time>2021-09-18T07:26:15.000Z</time>
      </trkpt>
      <trkpt lat="43.73821" lon="5.80226">
        <ele>294.706608</ele>
        <time>2021-09-18T07:26:23.000Z</time>
      </trkpt>
      <trkpt lat="43.7384" lon="5.80199">
        <ele>295.719733</ele>
        <time>2021-09-18T07:26:31.000Z</time>
      </trkpt>
      <trkpt lat="43.73858" lon="5.80174">
        <ele>296.662261</ele>
        <time>2021-09-18T07:26:38.000Z</time>
      </trkpt>
      <trkpt lat="43.73885" lon="5.80139">
        <ele>298.04652</ele>
        <time>2021-09-18T07:26:48.000Z</time>
      </trkpt>
      <trkpt lat="43.73914" lon="5.80111">
        <ele>299.360885</ele>
        <time>2021-09-18T07:26:57.000Z</time>
      </trkpt>
      <trkpt lat="43.7395" lon="5.80082">
        <ele>300.282669</ele>
        <time>2021-09-18T07:27:07.000Z</time>
      </trkpt>
      <trkpt lat="43.73985" lon="5.80056">
        <ele>301.11094</ele>
        <time>2021-09-18T07:27:16.000Z</time>
      </trkpt>
      <trkpt lat="43.74016" lon="5.80034">
        <ele>301.851077</ele>
        <time>2021-09-18T07:27:24.000Z</time>
      </trkpt>
      <trkpt lat="43.74051" lon="5.8001">
        <ele>302.670541</ele>
        <time>2021-09-18T07:27:32.000Z</time>
      </trkpt>
      <trkpt lat="43.74079" lon="5.79997">
        <ele>303.249478</ele>
        <time>2021-09-18T07:27:38.000Z</time>
      </trkpt>
      <trkpt lat="43.74084" lon="5.79996">
        <ele>303.287311</ele>
        <time>2021-09-18T07:27:39.000Z</time>
      </trkpt>
      <trkpt lat="43.74115" lon="5.79994">
        <ele>303.530561</ele>
        <time>2021-09-18T07:27:45.000Z</time>
      </trkpt>
      <trkpt lat="43.74152" lon="5.80006">
        <ele>303.825734</ele>
        <time>2021-09-18T07:27:51.000Z</time>
      </trkpt>
      <trkpt lat="43.74189" lon="5.80032">
        <ele>304.145856</ele>
        <time>2021-09-18T07:27:59.000Z</time>
      </trkpt>
      <trkpt lat="43.74231" lon="5.8006">
        <ele>304.511577</ele>
        <time>2021-09-18T07:28:07.000Z</time>
      </trkpt>
      <trkpt lat="43.74283" lon="5.80098">
        <ele>304.679419</ele>
        <time>2021-09-18T07:28:16.000Z</time>
      </trkpt>
      <trkpt lat="43.74288" lon="5.80102">
        <ele>304.687291</ele>
        <time>2021-09-18T07:28:17.000Z</time>
      </trkpt>
      <trkpt lat="43.74341" lon="5.80141">
        <ele>304.759657</ele>
        <time>2021-09-18T07:28:26.000Z</time>
      </trkpt>
      <trkpt lat="43.74382" lon="5.80172">
        <ele>304.817238</ele>
        <time>2021-09-18T07:28:34.000Z</time>
      </trkpt>
      <trkpt lat="43.74421" lon="5.802">
        <ele>304.889776</ele>
        <time>2021-09-18T07:28:42.000Z</time>
      </trkpt>
      <trkpt lat="43.74471" lon="5.80236">
        <ele>305.011991</ele>
        <time>2021-09-18T07:28:52.000Z</time>
      </trkpt>
      <trkpt lat="43.74518" lon="5.80265">
        <ele>305.120981</ele>
        <time>2021-09-18T07:29:01.000Z</time>
      </trkpt>
      <trkpt lat="43.74555" lon="5.8028">
        <ele>305.204927</ele>
        <time>2021-09-18T07:29:08.000Z</time>
      </trkpt>
      <trkpt lat="43.74596" lon="5.80293">
        <ele>305.293374</ele>
        <time>2021-09-18T07:29:15.000Z</time>
      </trkpt>
      <trkpt lat="43.74635" lon="5.80304">
        <ele>305.3754</ele>
        <time>2021-09-18T07:29:23.000Z</time>
      </trkpt>
      <trkpt lat="43.74678" lon="5.80315">
        <ele>305.465914</ele>
        <time>2021-09-18T07:29:30.000Z</time>
      </trkpt>
      <trkpt lat="43.74736" lon="5.80327">
        <ele>305.588691</ele>
        <time>2021-09-18T07:29:39.000Z</time>
      </trkpt>
      <trkpt lat="43.74792" lon="5.80332">
        <ele>305.694189</ele>
        <time>2021-09-18T07:29:48.000Z</time>
      </trkpt>
      <trkpt lat="43.74798" lon="5.80332">
        <ele>305.70489</ele>
        <time>2021-09-18T07:29:49.000Z</time>
      </trkpt>
      <trkpt lat="43.74857" lon="5.80336">
        <ele>305.813347</ele>
        <time>2021-09-18T07:29:59.000Z</time>
      </trkpt>
      <trkpt lat="43.74915" lon="5.80344">
        <ele>305.921399</ele>
        <time>2021-09-18T07:30:09.000Z</time>
      </trkpt>
      <trkpt lat="43.74921" lon="5.80346">
        <ele>305.932352</ele>
        <time>2021-09-18T07:30:10.000Z</time>
      </trkpt>
      <trkpt lat="43.74977" lon="5.80368">
        <ele>305.821479</ele>
        <time>2021-09-18T07:30:20.000Z</time>
      </trkpt>
      <trkpt lat="43.75027" lon="5.80389">
        <ele>305.712854</ele>
        <time>2021-09-18T07:30:28.000Z</time>
      </trkpt>
      <trkpt lat="43.75076" lon="5.80405">
        <ele>305.607018</ele>
        <time>2021-09-18T07:30:37.000Z</time>
      </trkpt>
      <trkpt lat="43.75129" lon="5.8042">
        <ele>305.297539</ele>
        <time>2021-09-18T07:30:45.000Z</time>
      </trkpt>
      <trkpt lat="43.75142" lon="5.80423">
        <ele>305.185094</ele>
        <time>2021-09-18T07:30:47.000Z</time>
      </trkpt>
      <trkpt lat="43.75196" lon="5.80439">
        <ele>304.729753</ele>
        <time>2021-09-18T07:30:55.000Z</time>
      </trkpt>
      <trkpt lat="43.75216" lon="5.80444">
        <ele>304.556504</ele>
        <time>2021-09-18T07:30:58.000Z</time>
      </trkpt>
      <trkpt lat="43.75271" lon="5.8046">
        <ele>304.096386</ele>
        <time>2021-09-18T07:31:06.000Z</time>
      </trkpt>
      <trkpt lat="43.75325" lon="5.80476">
        <ele>303.724986</ele>
        <time>2021-09-18T07:31:14.000Z</time>
      </trkpt>
      <trkpt lat="43.75337" lon="5.8048">
        <ele>303.638834</ele>
        <time>2021-09-18T07:31:16.000Z</time>
      </trkpt>
      <trkpt lat="43.75394" lon="5.80496">
        <ele>303.257662</ele>
        <time>2021-09-18T07:31:25.000Z</time>
      </trkpt>
      <trkpt lat="43.754" lon="5.80498">
        <ele>303.21496</ele>
        <time>2021-09-18T07:31:26.000Z</time>
      </trkpt>
      <trkpt lat="43.75458" lon="5.80515">
        <ele>302.816205</ele>
        <time>2021-09-18T07:31:34.000Z</time>
      </trkpt>
      <trkpt lat="43.75458" lon="5.80515">
        <ele>302.816205</ele>
        <time>2021-09-18T07:31:35.000Z</time>
      </trkpt>
      <trkpt lat="43.75516" lon="5.80532">
        <ele>302.379262</ele>
        <time>2021-09-18T07:31:44.000Z</time>
      </trkpt>
      <trkpt lat="43.75567" lon="5.80547">
        <ele>302.000059</ele>
        <time>2021-09-18T07:31:52.000Z</time>
      </trkpt>
      <trkpt lat="43.75621" lon="5.80562">
        <ele>301.594484</ele>
        <time>2021-09-18T07:32:01.000Z</time>
      </trkpt>
      <trkpt lat="43.75627" lon="5.80564">
        <ele>301.55604</ele>
        <time>2021-09-18T07:32:02.000Z</time>
      </trkpt>
      <trkpt lat="43.75678" lon="5.80578">
        <ele>301.434913</ele>
        <time>2021-09-18T07:32:11.000Z</time>
      </trkpt>
      <trkpt lat="43.75722" lon="5.80591">
        <ele>301.330709</ele>
        <time>2021-09-18T07:32:19.000Z</time>
      </trkpt>
      <trkpt lat="43.75777" lon="5.80609">
        <ele>301.20092</ele>
        <time>2021-09-18T07:32:29.000Z</time>
      </trkpt>
      <trkpt lat="43.75817" lon="5.80627">
        <ele>301.262404</ele>
        <time>2021-09-18T07:32:39.000Z</time>
      </trkpt>
      <trkpt lat="43.75855" lon="5.80645">
        <ele>301.543906</ele>
        <time>2021-09-18T07:32:48.000Z</time>
      </trkpt>
      <trkpt lat="43.75902" lon="5.80666">
        <ele>301.896862</ele>
        <time>2021-09-18T07:32:59.000Z</time>
      </trkpt>
      <trkpt lat="43.75924" lon="5.80677">
        <ele>302.057794</ele>
        <time>2021-09-18T07:33:04.000Z</time>
      </trkpt>
      <trkpt lat="43.7594" lon="5.80686">
        <ele>302.184427</ele>
        <time>2021-09-18T07:33:08.000Z</time>
      </trkpt>
      <trkpt lat="43.75978" lon="5.80706">
        <ele>302.452826</ele>
        <time>2021-09-18T07:33:17.000Z</time>
      </trkpt>
      <trkpt lat="43.76026" lon="5.80731">
        <ele>302.717447</ele>
        <time>2021-09-18T07:33:28.000Z</time>
      </trkpt>
      <trkpt lat="43.76061" lon="5.80751">
        <ele>302.912294</ele>
        <time>2021-09-18T07:33:36.000Z</time>
      </trkpt>
      <trkpt lat="43.76116" lon="5.80782">
        <ele>303.220138</ele>
        <time>2021-09-18T07:33:46.000Z</time>
      </trkpt>
      <trkpt lat="43.76173" lon="5.80814">
        <ele>303.415723</ele>
        <time>2021-09-18T07:33:57.000Z</time>
      </trkpt>
      <trkpt lat="43.76231" lon="5.80846">
        <ele>303.537165</ele>
        <time>2021-09-18T07:34:08.000Z</time>
      </trkpt>
      <trkpt lat="43.76274" lon="5.80871">
        <ele>303.627522</ele>
        <time>2021-09-18T07:34:17.000Z</time>
      </trkpt>
      <trkpt lat="43.76327" lon="5.80901">
        <ele>303.676897</ele>
        <time>2021-09-18T07:34:26.000Z</time>
      </trkpt>
      <trkpt lat="43.76333" lon="5.80904">
        <ele>303.672805</ele>
        <time>2021-09-18T07:34:27.000Z</time>
      </trkpt>
      <trkpt lat="43.76384" lon="5.80933">
        <ele>303.637635</ele>
        <time>2021-09-18T07:34:36.000Z</time>
      </trkpt>
      <trkpt lat="43.76396" lon="5.80939">
        <ele>303.629811</ele>
        <time>2021-09-18T07:34:38.000Z</time>
      </trkpt>
      <trkpt lat="43.76448" lon="5.80969">
        <ele>303.594373</ele>
        <time>2021-09-18T07:34:47.000Z</time>
      </trkpt>
      <trkpt lat="43.76459" lon="5.80975">
        <ele>303.586532</ele>
        <time>2021-09-18T07:34:49.000Z</time>
      </trkpt>
      <trkpt lat="43.76511" lon="5.81004">
        <ele>303.804137</ele>
        <time>2021-09-18T07:34:58.000Z</time>
      </trkpt>
      <trkpt lat="43.76521" lon="5.8101">
        <ele>303.865534</ele>
        <time>2021-09-18T07:35:00.000Z</time>
      </trkpt>
      <trkpt lat="43.76561" lon="5.81033">
        <ele>304.090417</ele>
        <time>2021-09-18T07:35:08.000Z</time>
      </trkpt>
      <trkpt lat="43.76615" lon="5.81063">
        <ele>304.399637</ele>
        <time>2021-09-18T07:35:20.000Z</time>
      </trkpt>
      <trkpt lat="43.76656" lon="5.81086">
        <ele>304.687905</ele>
        <time>2021-09-18T07:35:29.000Z</time>
      </trkpt>
      <trkpt lat="43.76706" lon="5.81115">
        <ele>305.136079</ele>
        <time>2021-09-18T07:35:40.000Z</time>
      </trkpt>
      <trkpt lat="43.76711" lon="5.81118">
        <ele>305.179777</ele>
        <time>2021-09-18T07:35:41.000Z</time>
      </trkpt>
      <trkpt lat="43.76756" lon="5.81143">
        <ele>305.579616</ele>
        <time>2021-09-18T07:35:50.000Z</time>
      </trkpt>
      <trkpt lat="43.7681" lon="5.81174">
        <ele>306.066186</ele>
        <time>2021-09-18T07:36:01.000Z</time>
      </trkpt>
      <trkpt lat="43.76853" lon="5.81198">
        <ele>306.453534</ele>
        <time>2021-09-18T07:36:09.000Z</time>
      </trkpt>
      <trkpt lat="43.7689" lon="5.81219">
        <ele>306.791347</ele>
        <time>2021-09-18T07:36:18.000Z</time>
      </trkpt>
      <trkpt lat="43.76938" lon="5.81246">
        <ele>307.225975</ele>
        <time>2021-09-18T07:36:28.000Z</time>
      </trkpt>
      <trkpt lat="43.76983" lon="5.81272">
        <ele>307.596577</ele>
        <time>2021-09-18T07:36:37.000Z</time>
      </trkpt>
      <trkpt lat="43.77019" lon="5.81292">
        <ele>307.791826</ele>
        <time>2021-09-18T07:36:44.000Z</time>
      </trkpt>
      <trkpt lat="43.7707" lon="5.8132">
        <ele>308.075121</ele>
        <time>2021-09-18T07:36:53.000Z</time>
      </trkpt>
      <trkpt lat="43.77107" lon="5.81341">
        <ele>308.276682</ele>
        <time>2021-09-18T07:37:01.000Z</time>
      </trkpt>
      <trkpt lat="43.77147" lon="5.81364">
        <ele>308.464452</ele>
        <time>2021-09-18T07:37:09.000Z</time>
      </trkpt>
      <trkpt lat="43.77187" lon="5.81387">
        <ele>308.550841</ele>
        <time>2021-09-18T07:37:17.000Z</time>
      </trkpt>
      <trkpt lat="43.7724" lon="5.81417">
        <ele>308.663551</ele>
        <time>2021-09-18T07:37:26.000Z</time>
      </trkpt>
      <trkpt lat="43.7725" lon="5.81423">
        <ele>308.686574</ele>
        <time>2021-09-18T07:37:29.000Z</time>
      </trkpt>
      <trkpt lat="43.77303" lon="5.81454">
        <ele>308.799229</ele>
        <time>2021-09-18T07:37:39.000Z</time>
      </trkpt>
      <trkpt lat="43.77345" lon="5.81478">
        <ele>308.81039</ele>
        <time>2021-09-18T07:37:47.000Z</time>
      </trkpt>
      <trkpt lat="43.77398" lon="5.81509">
        <ele>308.82354</ele>
        <time>2021-09-18T07:37:57.000Z</time>
      </trkpt>
      <trkpt lat="43.77404" lon="5.81513">
        <ele>308.82489</ele>
        <time>2021-09-18T07:37:58.000Z</time>
      </trkpt>
      <trkpt lat="43.7745" lon="5.81546">
        <ele>308.836775</ele>
        <time>2021-09-18T07:38:07.000Z</time>
      </trkpt>
      <trkpt lat="43.77489" lon="5.81575">
        <ele>308.882511</ele>
        <time>2021-09-18T07:38:15.000Z</time>
      </trkpt>
      <trkpt lat="43.77537" lon="5.81611">
        <ele>308.969476</ele>
        <time>2021-09-18T07:38:25.000Z</time>
      </trkpt>
      <trkpt lat="43.77542" lon="5.81615">
        <ele>308.978217</ele>
        <time>2021-09-18T07:38:26.000Z</time>
      </trkpt>
      <trkpt lat="43.7758" lon="5.81644">
        <ele>309.048905</ele>
        <time>2021-09-18T07:38:34.000Z</time>
      </trkpt>
      <trkpt lat="43.77621" lon="5.81669">
        <ele>309.11958</ele>
        <time>2021-09-18T07:38:42.000Z</time>
      </trkpt>
      <trkpt lat="43.77663" lon="5.81689">
        <ele>308.89232</ele>
        <time>2021-09-18T07:38:50.000Z</time>
      </trkpt>
      <trkpt lat="43.77699" lon="5.81706">
        <ele>308.660375</ele>
        <time>2021-09-18T07:38:56.000Z</time>
      </trkpt>
      <trkpt lat="43.77742" lon="5.81726">
        <ele>308.385408</ele>
        <time>2021-09-18T07:39:02.000Z</time>
      </trkpt>
      <trkpt lat="43.77773" lon="5.81747">
        <ele>308.176918</ele>
        <time>2021-09-18T07:39:05.000Z</time>
      </trkpt>
      <trkpt lat="43.77773" lon="5.81747">
        <ele>308.176918</ele>
        <time>2021-09-18T07:39:06.000Z</time>
      </trkpt>
      <trkpt lat="43.77815" lon="5.81801">
        <ele>307.368964</ele>
        <time>2021-09-18T07:39:12.000Z</time>
      </trkpt>
      <trkpt lat="43.77857" lon="5.81836">
        <ele>306.42912</ele>
        <time>2021-09-18T07:39:17.000Z</time>
      </trkpt>
      <trkpt lat="43.77864" lon="5.81844">
        <ele>306.2373</ele>
        <time>2021-09-18T07:39:18.000Z</time>
      </trkpt>
      <trkpt lat="43.77888" lon="5.8187">
        <ele>305.655666</ele>
        <time>2021-09-18T07:39:21.000Z</time>
      </trkpt>
      <trkpt lat="43.77933" lon="5.81942">
        <ele>304.345558</ele>
        <time>2021-09-18T07:39:27.000Z</time>
      </trkpt>
      <trkpt lat="43.77933" lon="5.81942">
        <ele>304.345558</ele>
        <time>2021-09-18T07:39:28.000Z</time>
      </trkpt>
      <trkpt lat="43.7797" lon="5.82004">
        <ele>303.316225</ele>
        <time>2021-09-18T07:39:34.000Z</time>
      </trkpt>
      <trkpt lat="43.78004" lon="5.82046">
        <ele>302.515027</ele>
        <time>2021-09-18T07:39:38.000Z</time>
      </trkpt>
      <trkpt lat="43.78032" lon="5.82069">
        <ele>301.945521</ele>
        <time>2021-09-18T07:39:43.000Z</time>
      </trkpt>
      <trkpt lat="43.78078" lon="5.82103">
        <ele>301.106637</ele>
        <time>2021-09-18T07:39:50.000Z</time>
      </trkpt>
      <trkpt lat="43.7811" lon="5.82121">
        <ele>300.642659</ele>
        <time>2021-09-18T07:39:55.000Z</time>
      </trkpt>
      <trkpt lat="43.78157" lon="5.82137">
        <ele>299.992957</ele>
        <time>2021-09-18T07:40:00.000Z</time>
      </trkpt>
      <trkpt lat="43.78199" lon="5.82137">
        <ele>299.415328</ele>
        <time>2021-09-18T07:40:07.000Z</time>
      </trkpt>
      <trkpt lat="43.78253" lon="5.82128">
        <ele>298.693377</ele>
        <time>2021-09-18T07:40:15.000Z</time>
      </trkpt>
      <trkpt lat="43.78308" lon="5.82119">
        <ele>297.986826</ele>
        <time>2021-09-18T07:40:24.000Z</time>
      </trkpt>
      <trkpt lat="43.78314" lon="5.82118">
        <ele>297.911881</ele>
        <time>2021-09-18T07:40:25.000Z</time>
      </trkpt>
      <trkpt lat="43.78366" lon="5.82119">
        <ele>297.246354</ele>
        <time>2021-09-18T07:40:34.000Z</time>
      </trkpt>
      <trkpt lat="43.7841" lon="5.82131">
        <ele>296.670413</ele>
        <time>2021-09-18T07:40:42.000Z</time>
      </trkpt>
      <trkpt lat="43.7846" lon="5.82149">
        <ele>296.329563</ele>
        <time>2021-09-18T07:40:51.000Z</time>
      </trkpt>
      <trkpt lat="43.78515" lon="5.82173">
        <ele>295.969166</ele>
        <time>2021-09-18T07:41:01.000Z</time>
      </trkpt>
      <trkpt lat="43.7852" lon="5.82176">
        <ele>295.93357</ele>
        <time>2021-09-18T07:41:02.000Z</time>
      </trkpt>
      <trkpt lat="43.78567" lon="5.82209">
        <ele>295.606574</ele>
        <time>2021-09-18T07:41:11.000Z</time>
      </trkpt>
      <trkpt lat="43.78611" lon="5.82253">
        <ele>295.322602</ele>
        <time>2021-09-18T07:41:20.000Z</time>
      </trkpt>
      <trkpt lat="43.78653" lon="5.82301">
        <ele>295.058892</ele>
        <time>2021-09-18T07:41:28.000Z</time>
      </trkpt>
      <trkpt lat="43.78658" lon="5.82307">
        <ele>295.028443</ele>
        <time>2021-09-18T07:41:30.000Z</time>
      </trkpt>
      <trkpt lat="43.78691" lon="5.82346">
        <ele>294.820038</ele>
        <time>2021-09-18T07:41:37.000Z</time>
      </trkpt>
      <trkpt lat="43.78732" lon="5.82395">
        <ele>294.600448</ele>
        <time>2021-09-18T07:41:46.000Z</time>
      </trkpt>
      <trkpt lat="43.78771" lon="5.82441">
        <ele>294.467942</ele>
        <time>2021-09-18T07:41:55.000Z</time>
      </trkpt>
      <trkpt lat="43.78809" lon="5.82482">
        <ele>294.343293</ele>
        <time>2021-09-18T07:42:04.000Z</time>
      </trkpt>
      <trkpt lat="43.78852" lon="5.82524">
        <ele>294.205997</ele>
        <time>2021-09-18T07:42:14.000Z</time>
      </trkpt>
      <trkpt lat="43.78902" lon="5.82565">
        <ele>294.090723</ele>
        <time>2021-09-18T07:42:25.000Z</time>
      </trkpt>
      <trkpt lat="43.78943" lon="5.82597">
        <ele>294.000728</ele>
        <time>2021-09-18T07:42:34.000Z</time>
      </trkpt>
      <trkpt lat="43.78991" lon="5.8263">
        <ele>293.901089</ele>
        <time>2021-09-18T07:42:44.000Z</time>
      </trkpt>
      <trkpt lat="43.79038" lon="5.82663">
        <ele>293.790264</ele>
        <time>2021-09-18T07:42:53.000Z</time>
      </trkpt>
      <trkpt lat="43.79081" lon="5.82693">
        <ele>293.674995</ele>
        <time>2021-09-18T07:43:03.000Z</time>
      </trkpt>
      <trkpt lat="43.79133" lon="5.82728">
        <ele>293.536847</ele>
        <time>2021-09-18T07:43:14.000Z</time>
      </trkpt>
      <trkpt lat="43.79171" lon="5.82754">
        <ele>293.436179</ele>
        <time>2021-09-18T07:43:22.000Z</time>
      </trkpt>
      <trkpt lat="43.79219" lon="5.82787">
        <ele>293.452868</ele>
        <time>2021-09-18T07:43:32.000Z</time>
      </trkpt>
      <trkpt lat="43.79265" lon="5.82818">
        <ele>293.497843</ele>
        <time>2021-09-18T07:43:42.000Z</time>
      </trkpt>
      <trkpt lat="43.79305" lon="5.82845">
        <ele>293.537073</ele>
        <time>2021-09-18T07:43:51.000Z</time>
      </trkpt>
      <trkpt lat="43.79352" lon="5.82877">
        <ele>293.619933</ele>
        <time>2021-09-18T07:44:01.000Z</time>
      </trkpt>
      <trkpt lat="43.794" lon="5.8291">
        <ele>293.836281</ele>
        <time>2021-09-18T07:44:12.000Z</time>
      </trkpt>
      <trkpt lat="43.79434" lon="5.82933">
        <ele>293.987402</ele>
        <time>2021-09-18T07:44:20.000Z</time>
      </trkpt>
      <trkpt lat="43.79471" lon="5.82957">
        <ele>294.149152</ele>
        <time>2021-09-18T07:44:29.000Z</time>
      </trkpt>
      <trkpt lat="43.79487" lon="5.82968">
        <ele>294.220537</ele>
        <time>2021-09-18T07:44:32.000Z</time>
      </trkpt>
      <trkpt lat="43.79499" lon="5.82977">
        <ele>294.275262</ele>
        <time>2021-09-18T07:44:36.000Z</time>
      </trkpt>
      <trkpt lat="43.79533" lon="5.83">
        <ele>294.410158</ele>
        <time>2021-09-18T07:44:43.000Z</time>
      </trkpt>
      <trkpt lat="43.79563" lon="5.83023">
        <ele>294.533802</ele>
        <time>2021-09-18T07:44:51.000Z</time>
      </trkpt>
      <trkpt lat="43.79596" lon="5.83045">
        <ele>294.662656</ele>
        <time>2021-09-18T07:44:58.000Z</time>
      </trkpt>
      <trkpt lat="43.79644" lon="5.83066">
        <ele>294.840925</ele>
        <time>2021-09-18T07:45:07.000Z</time>
      </trkpt>
      <trkpt lat="43.79684" lon="5.83075">
        <ele>294.995813</ele>
        <time>2021-09-18T07:45:16.000Z</time>
      </trkpt>
      <trkpt lat="43.79731" lon="5.83081">
        <ele>295.190994</ele>
        <time>2021-09-18T07:45:25.000Z</time>
      </trkpt>
      <trkpt lat="43.79761" lon="5.83086">
        <ele>295.313316</ele>
        <time>2021-09-18T07:45:31.000Z</time>
      </trkpt>
      <trkpt lat="43.79802" lon="5.83094">
        <ele>295.484934</ele>
        <time>2021-09-18T07:45:39.000Z</time>
      </trkpt>
      <trkpt lat="43.79807" lon="5.83096">
        <ele>295.506182</ele>
        <time>2021-09-18T07:45:40.000Z</time>
      </trkpt>
      <trkpt lat="43.79832" lon="5.83104">
        <ele>295.61188</ele>
        <time>2021-09-18T07:45:45.000Z</time>
      </trkpt>
      <trkpt lat="43.7987" lon="5.83124">
        <ele>295.810027</ele>
        <time>2021-09-18T07:45:53.000Z</time>
      </trkpt>
      <trkpt lat="43.79913" lon="5.83153">
        <ele>296.058312</ele>
        <time>2021-09-18T07:46:02.000Z</time>
      </trkpt>
      <trkpt lat="43.79943" lon="5.83182">
        <ele>296.252627</ele>
        <time>2021-09-18T07:46:09.000Z</time>
      </trkpt>
      <trkpt lat="43.79969" lon="5.83217">
        <ele>296.44235</ele>
        <time>2021-09-18T07:46:16.000Z</time>
      </trkpt>
      <trkpt lat="43.79998" lon="5.83267">
        <ele>296.707334</ele>
        <time>2021-09-18T07:46:25.000Z</time>
      </trkpt>
      <trkpt lat="43.80012" lon="5.83301">
        <ele>296.90698</ele>
        <time>2021-09-18T07:46:31.000Z</time>
      </trkpt>
      <trkpt lat="43.80014" lon="5.83306">
        <ele>296.938876</ele>
        <time>2021-09-18T07:46:32.000Z</time>
      </trkpt>
      <trkpt lat="43.80016" lon="5.83312">
        <ele>296.970772</ele>
        <time>2021-09-18T07:46:33.000Z</time>
      </trkpt>
      <trkpt lat="43.80019" lon="5.83324">
        <ele>297.034333</ele>
        <time>2021-09-18T07:46:35.000Z</time>
      </trkpt>
      <trkpt lat="43.80022" lon="5.83333">
        <ele>297.08618</ele>
        <time>2021-09-18T07:46:36.000Z</time>
      </trkpt>
      <trkpt lat="43.80022" lon="5.83336">
        <ele>297.101678</ele>
        <time>2021-09-18T07:46:37.000Z</time>
      </trkpt>
      <trkpt lat="43.80025" lon="5.83346">
        <ele>297.155197</ele>
        <time>2021-09-18T07:46:39.000Z</time>
      </trkpt>
      <trkpt lat="43.80035" lon="5.83352">
        <ele>297.23748</ele>
        <time>2021-09-18T07:46:41.000Z</time>
      </trkpt>
      <trkpt lat="43.80035" lon="5.83352">
        <ele>297.23748</ele>
        <time>2021-09-18T07:46:42.000Z</time>
      </trkpt>
      <trkpt lat="43.80045" lon="5.83352">
        <ele>297.305771</ele>
        <time>2021-09-18T07:46:44.000Z</time>
      </trkpt>
      <trkpt lat="43.80054" lon="5.83356">
        <ele>297.373736</ele>
        <time>2021-09-18T07:46:46.000Z</time>
      </trkpt>
      <trkpt lat="43.80059" lon="5.83358">
        <ele>297.408057</ele>
        <time>2021-09-18T07:46:47.000Z</time>
      </trkpt>
      <trkpt lat="43.80081" lon="5.83378">
        <ele>297.596686</ele>
        <time>2021-09-18T07:46:52.000Z</time>
      </trkpt>
      <trkpt lat="43.80085" lon="5.83383">
        <ele>297.633068</ele>
        <time>2021-09-18T07:46:53.000Z</time>
      </trkpt>
      <trkpt lat="43.80108" lon="5.83414">
        <ele>297.854834</ele>
        <time>2021-09-18T07:46:59.000Z</time>
      </trkpt>
      <trkpt lat="43.80129" lon="5.8346">
        <ele>297.940964</ele>
        <time>2021-09-18T07:47:06.000Z</time>
      </trkpt>
      <trkpt lat="43.80148" lon="5.83508">
        <ele>298.008658</ele>
        <time>2021-09-18T07:47:13.000Z</time>
      </trkpt>
      <trkpt lat="43.80173" lon="5.83567">
        <ele>298.093048</ele>
        <time>2021-09-18T07:47:22.000Z</time>
      </trkpt>
      <trkpt lat="43.80198" lon="5.83629">
        <ele>298.180758</ele>
        <time>2021-09-18T07:47:32.000Z</time>
      </trkpt>
      <trkpt lat="43.80219" lon="5.83679">
        <ele>298.2662</ele>
        <time>2021-09-18T07:47:40.000Z</time>
      </trkpt>
      <trkpt lat="43.80231" lon="5.83713">
        <ele>298.321879</ele>
        <time>2021-09-18T07:47:45.000Z</time>
      </trkpt>
      <trkpt lat="43.80237" lon="5.83734">
        <ele>298.355176</ele>
        <time>2021-09-18T07:47:47.000Z</time>
      </trkpt>
      <trkpt lat="43.80249" lon="5.83782">
        <ele>298.431416</ele>
        <time>2021-09-18T07:47:55.000Z</time>
      </trkpt>
      <trkpt lat="43.80261" lon="5.83813">
        <ele>298.484542</ele>
        <time>2021-09-18T07:47:59.000Z</time>
      </trkpt>
      <trkpt lat="43.80267" lon="5.83825">
        <ele>298.505808</ele>
        <time>2021-09-18T07:48:02.000Z</time>
      </trkpt>
      <trkpt lat="43.8029" lon="5.83864">
        <ele>298.591259</ele>
        <time>2021-09-18T07:48:09.000Z</time>
      </trkpt>
      <trkpt lat="43.80318" lon="5.83915">
        <ele>298.73201</ele>
        <time>2021-09-18T07:48:17.000Z</time>
      </trkpt>
      <trkpt lat="43.80343" lon="5.83978">
        <ele>298.889306</ele>
        <time>2021-09-18T07:48:28.000Z</time>
      </trkpt>
      <trkpt lat="43.80365" lon="5.84033">
        <ele>299.028422</ele>
        <time>2021-09-18T07:48:37.000Z</time>
      </trkpt>
      <trkpt lat="43.80378" lon="5.84064">
        <ele>299.106943</ele>
        <time>2021-09-18T07:48:41.000Z</time>
      </trkpt>
      <trkpt lat="43.80378" lon="5.84064">
        <ele>299.106943</ele>
        <time>2021-09-18T07:48:42.000Z</time>
      </trkpt>
      <trkpt lat="43.8039" lon="5.84094">
        <ele>299.471364</ele>
        <time>2021-09-18T07:48:47.000Z</time>
      </trkpt>
      <trkpt lat="43.80392" lon="5.841">
        <ele>299.54322</ele>
        <time>2021-09-18T07:48:48.000Z</time>
      </trkpt>
      <trkpt lat="43.80405" lon="5.84137">
        <ele>299.979728</ele>
        <time>2021-09-18T07:48:54.000Z</time>
      </trkpt>
      <trkpt lat="43.80412" lon="5.84154">
        <ele>300.181063</ele>
        <time>2021-09-18T07:48:57.000Z</time>
      </trkpt>
      <trkpt lat="43.80417" lon="5.84164">
        <ele>300.308387</ele>
        <time>2021-09-18T07:48:59.000Z</time>
      </trkpt>
      <trkpt lat="43.80425" lon="5.84177">
        <ele>300.495125</ele>
        <time>2021-09-18T07:49:02.000Z</time>
      </trkpt>
      <trkpt lat="43.80428" lon="5.84181">
        <ele>300.55447</ele>
        <time>2021-09-18T07:49:03.000Z</time>
      </trkpt>
      <trkpt lat="43.80446" lon="5.84195">
        <ele>300.85362</ele>
        <time>2021-09-18T07:49:08.000Z</time>
      </trkpt>
      <trkpt lat="43.80466" lon="5.842">
        <ele>301.151239</ele>
        <time>2021-09-18T07:49:13.000Z</time>
      </trkpt>
      <trkpt lat="43.80487" lon="5.84199">
        <ele>301.458068</ele>
        <time>2021-09-18T07:49:20.000Z</time>
      </trkpt>
      <trkpt lat="43.80505" lon="5.84196">
        <ele>301.72567</ele>
        <time>2021-09-18T07:49:24.000Z</time>
      </trkpt>
      <trkpt lat="43.80522" lon="5.84193">
        <ele>301.850812</ele>
        <time>2021-09-18T07:49:29.000Z</time>
      </trkpt>
      <trkpt lat="43.80538" lon="5.84191">
        <ele>301.969469</ele>
        <time>2021-09-18T07:49:32.000Z</time>
      </trkpt>
      <trkpt lat="43.8055" lon="5.84189">
        <ele>302.0556</ele>
        <time>2021-09-18T07:49:34.000Z</time>
      </trkpt>
      <trkpt lat="43.80568" lon="5.8419">
        <ele>302.193949</ele>
        <time>2021-09-18T07:49:36.000Z</time>
      </trkpt>
      <trkpt lat="43.80573" lon="5.8419">
        <ele>302.227643</ele>
        <time>2021-09-18T07:49:38.000Z</time>
      </trkpt>
      <trkpt lat="43.80601" lon="5.84202">
        <ele>302.438515</ele>
        <time>2021-09-18T07:49:43.000Z</time>
      </trkpt>
      <trkpt lat="43.80652" lon="5.84236">
        <ele>302.855702</ele>
        <time>2021-09-18T07:49:51.000Z</time>
      </trkpt>
      <trkpt lat="43.80688" lon="5.84257">
        <ele>303.050107</ele>
        <time>2021-09-18T07:49:58.000Z</time>
      </trkpt>
      <trkpt lat="43.80726" lon="5.84272">
        <ele>303.053842</ele>
        <time>2021-09-18T07:50:05.000Z</time>
      </trkpt>
      <trkpt lat="43.80776" lon="5.84291">
        <ele>303.058651</ele>
        <time>2021-09-18T07:50:14.000Z</time>
      </trkpt>
      <trkpt lat="43.80781" lon="5.84294">
        <ele>303.059174</ele>
        <time>2021-09-18T07:50:15.000Z</time>
      </trkpt>
      <trkpt lat="43.80807" lon="5.8431">
        <ele>303.061811</ele>
        <time>2021-09-18T07:50:20.000Z</time>
      </trkpt>
      <trkpt lat="43.80845" lon="5.84346">
        <ele>303.058386</ele>
        <time>2021-09-18T07:50:29.000Z</time>
      </trkpt>
      <trkpt lat="43.80884" lon="5.8439">
        <ele>302.977021</ele>
        <time>2021-09-18T07:50:39.000Z</time>
      </trkpt>
      <trkpt lat="43.80921" lon="5.8444">
        <ele>302.894047</ele>
        <time>2021-09-18T07:50:49.000Z</time>
      </trkpt>
      <trkpt lat="43.80954" lon="5.84484">
        <ele>302.819373</ele>
        <time>2021-09-18T07:50:58.000Z</time>
      </trkpt>
      <trkpt lat="43.80981" lon="5.84507">
        <ele>302.775087</ele>
        <time>2021-09-18T07:51:04.000Z</time>
      </trkpt>
      <trkpt lat="43.80997" lon="5.84515">
        <ele>302.781916</ele>
        <time>2021-09-18T07:51:06.000Z</time>
      </trkpt>
      <trkpt lat="43.81013" lon="5.84522">
        <ele>302.788617</ele>
        <time>2021-09-18T07:51:10.000Z</time>
      </trkpt>
      <trkpt lat="43.81063" lon="5.84548">
        <ele>302.810094</ele>
        <time>2021-09-18T07:51:18.000Z</time>
      </trkpt>
      <trkpt lat="43.81109" lon="5.84579">
        <ele>302.830859</ele>
        <time>2021-09-18T07:51:28.000Z</time>
      </trkpt>
      <trkpt lat="43.81153" lon="5.84608">
        <ele>302.891407</ele>
        <time>2021-09-18T07:51:37.000Z</time>
      </trkpt>
      <trkpt lat="43.81195" lon="5.84636">
        <ele>303.097468</ele>
        <time>2021-09-18T07:51:46.000Z</time>
      </trkpt>
      <trkpt lat="43.81238" lon="5.84659">
        <ele>303.300054</ele>
        <time>2021-09-18T07:51:55.000Z</time>
      </trkpt>
      <trkpt lat="43.81271" lon="5.84677">
        <ele>303.457886</ele>
        <time>2021-09-18T07:52:02.000Z</time>
      </trkpt>
      <trkpt lat="43.81311" lon="5.84698">
        <ele>303.644789</ele>
        <time>2021-09-18T07:52:10.000Z</time>
      </trkpt>
      <trkpt lat="43.81361" lon="5.84726">
        <ele>303.921342</ele>
        <time>2021-09-18T07:52:20.000Z</time>
      </trkpt>
      <trkpt lat="43.81401" lon="5.84749">
        <ele>304.143456</ele>
        <time>2021-09-18T07:52:28.000Z</time>
      </trkpt>
      <trkpt lat="43.81443" lon="5.84781">
        <ele>304.389962</ele>
        <time>2021-09-18T07:52:36.000Z</time>
      </trkpt>
      <trkpt lat="43.81476" lon="5.8482">
        <ele>304.662265</ele>
        <time>2021-09-18T07:52:45.000Z</time>
      </trkpt>
      <trkpt lat="43.81506" lon="5.84864">
        <ele>305.063419</ele>
        <time>2021-09-18T07:52:53.000Z</time>
      </trkpt>
      <trkpt lat="43.81513" lon="5.84874">
        <ele>305.16356</ele>
        <time>2021-09-18T07:52:54.000Z</time>
      </trkpt>
      <trkpt lat="43.81536" lon="5.84908">
        <ele>305.475127</ele>
        <time>2021-09-18T07:53:01.000Z</time>
      </trkpt>
      <trkpt lat="43.81567" lon="5.84943">
        <ele>305.844824</ele>
        <time>2021-09-18T07:53:08.000Z</time>
      </trkpt>
      <trkpt lat="43.81589" lon="5.8496">
        <ele>306.078588</ele>
        <time>2021-09-18T07:53:13.000Z</time>
      </trkpt>
      <trkpt lat="43.81606" lon="5.8497">
        <ele>306.269462</ele>
        <time>2021-09-18T07:53:17.000Z</time>
      </trkpt>
      <trkpt lat="43.81616" lon="5.84976">
        <ele>306.436631</ele>
        <time>2021-09-18T07:53:20.000Z</time>
      </trkpt>
      <trkpt lat="43.81619" lon="5.84977">
        <ele>306.480016</ele>
        <time>2021-09-18T07:53:21.000Z</time>
      </trkpt>
      <trkpt lat="43.8163" lon="5.84983">
        <ele>306.663815</ele>
        <time>2021-09-18T07:53:23.000Z</time>
      </trkpt>
      <trkpt lat="43.81654" lon="5.84993">
        <ele>307.043838</ele>
        <time>2021-09-18T07:53:27.000Z</time>
      </trkpt>
      <trkpt lat="43.81673" lon="5.85003">
        <ele>307.356823</ele>
        <time>2021-09-18T07:53:31.000Z</time>
      </trkpt>
      <trkpt lat="43.81684" lon="5.8501">
        <ele>307.545636</ele>
        <time>2021-09-18T07:53:33.000Z</time>
      </trkpt>
      <trkpt lat="43.81705" lon="5.85025">
        <ele>307.908613</ele>
        <time>2021-09-18T07:53:36.000Z</time>
      </trkpt>
      <trkpt lat="43.81714" lon="5.85033">
        <ele>308.073604</ele>
        <time>2021-09-18T07:53:39.000Z</time>
      </trkpt>
      <trkpt lat="43.81724" lon="5.85043">
        <ele>308.271133</ele>
        <time>2021-09-18T07:53:41.000Z</time>
      </trkpt>
      <trkpt lat="43.81736" lon="5.85055">
        <ele>308.496516</ele>
        <time>2021-09-18T07:53:42.000Z</time>
      </trkpt>
      <trkpt lat="43.81749" lon="5.85068">
        <ele>308.746876</ele>
        <time>2021-09-18T07:53:45.000Z</time>
      </trkpt>
      <trkpt lat="43.81773" lon="5.85095">
        <ele>309.250011</ele>
        <time>2021-09-18T07:53:50.000Z</time>
      </trkpt>
      <trkpt lat="43.81777" lon="5.85099">
        <ele>309.34956</ele>
        <time>2021-09-18T07:53:51.000Z</time>
      </trkpt>
      <trkpt lat="43.81782" lon="5.85102">
        <ele>309.448791</ele>
        <time>2021-09-18T07:53:52.000Z</time>
      </trkpt>
      <trkpt lat="43.81799" lon="5.85107">
        <ele>309.758636</ele>
        <time>2021-09-18T07:53:55.000Z</time>
      </trkpt>
      <trkpt lat="43.81804" lon="5.85106">
        <ele>309.847039</ele>
        <time>2021-09-18T07:53:56.000Z</time>
      </trkpt>
      <trkpt lat="43.81818" lon="5.85103">
        <ele>310.113857</ele>
        <time>2021-09-18T07:53:59.000Z</time>
      </trkpt>
      <trkpt lat="43.81846" lon="5.85094">
        <ele>310.632061</ele>
        <time>2021-09-18T07:54:05.000Z</time>
      </trkpt>
      <trkpt lat="43.81868" lon="5.8509">
        <ele>311.039271</ele>
        <time>2021-09-18T07:54:10.000Z</time>
      </trkpt>
      <trkpt lat="43.81872" lon="5.8509">
        <ele>311.112121</ele>
        <time>2021-09-18T07:54:11.000Z</time>
      </trkpt>
      <trkpt lat="43.81891" lon="5.85093">
        <ele>311.460253</ele>
        <time>2021-09-18T07:54:15.000Z</time>
      </trkpt>
      <trkpt lat="43.819" lon="5.85096">
        <ele>311.623494</ele>
        <time>2021-09-18T07:54:17.000Z</time>
      </trkpt>
      <trkpt lat="43.8191" lon="5.85102">
        <ele>311.831535</ele>
        <time>2021-09-18T07:54:19.000Z</time>
      </trkpt>
      <trkpt lat="43.81916" lon="5.85107">
        <ele>311.949087</ele>
        <time>2021-09-18T07:54:20.000Z</time>
      </trkpt>
      <trkpt lat="43.81931" lon="5.85124">
        <ele>312.291218</ele>
        <time>2021-09-18T07:54:23.000Z</time>
      </trkpt>
      <trkpt lat="43.81939" lon="5.85139">
        <ele>312.348009</ele>
        <time>2021-09-18T07:54:24.000Z</time>
      </trkpt>
      <trkpt lat="43.81939" lon="5.85139">
        <ele>312.348009</ele>
        <time>2021-09-18T07:54:25.000Z</time>
      </trkpt>
      <trkpt lat="43.81943" lon="5.85154">
        <ele>312.4019</ele>
        <time>2021-09-18T07:54:27.000Z</time>
      </trkpt>
      <trkpt lat="43.81944" lon="5.85162">
        <ele>312.429309</ele>
        <time>2021-09-18T07:54:28.000Z</time>
      </trkpt>
      <trkpt lat="43.81942" lon="5.85201">
        <ele>312.555551</ele>
        <time>2021-09-18T07:54:33.000Z</time>
      </trkpt>
      <trkpt lat="43.81941" lon="5.85209">
        <ele>312.578996</ele>
        <time>2021-09-18T07:54:34.000Z</time>
      </trkpt>
      <trkpt lat="43.81941" lon="5.85216">
        <ele>312.602122</ele>
        <time>2021-09-18T07:54:35.000Z</time>
      </trkpt>
      <trkpt lat="43.81941" lon="5.85229">
        <ele>312.644729</ele>
        <time>2021-09-18T07:54:37.000Z</time>
      </trkpt>
      <trkpt lat="43.81942" lon="5.85235">
        <ele>312.666177</ele>
        <time>2021-09-18T07:54:38.000Z</time>
      </trkpt>
      <trkpt lat="43.81944" lon="5.8524">
        <ele>312.685808</ele>
        <time>2021-09-18T07:54:39.000Z</time>
      </trkpt>
      <trkpt lat="43.81951" lon="5.85251">
        <ele>312.731314</ele>
        <time>2021-09-18T07:54:41.000Z</time>
      </trkpt>
      <trkpt lat="43.81959" lon="5.85258">
        <ele>312.774694</ele>
        <time>2021-09-18T07:54:43.000Z</time>
      </trkpt>
      <trkpt lat="43.81969" lon="5.85263">
        <ele>312.821822</ele>
        <time>2021-09-18T07:54:45.000Z</time>
      </trkpt>
      <trkpt lat="43.81996" lon="5.85272">
        <ele>312.945368</ele>
        <time>2021-09-18T07:54:49.000Z</time>
      </trkpt>
      <trkpt lat="43.82023" lon="5.85273">
        <ele>313.063027</ele>
        <time>2021-09-18T07:54:53.000Z</time>
      </trkpt>
      <trkpt lat="43.82033" lon="5.85273">
        <ele>313.12283</ele>
        <time>2021-09-18T07:54:54.000Z</time>
      </trkpt>
      <trkpt lat="43.82044" lon="5.85275">
        <ele>313.197606</ele>
        <time>2021-09-18T07:54:57.000Z</time>
      </trkpt>
      <trkpt lat="43.82049" lon="5.85277">
        <ele>313.235719</ele>
        <time>2021-09-18T07:54:58.000Z</time>
      </trkpt>
      <trkpt lat="43.82076" lon="5.85294">
        <ele>313.444292</ele>
        <time>2021-09-18T07:55:03.000Z</time>
      </trkpt>
      <trkpt lat="43.82081" lon="5.85297">
        <ele>313.481793</ele>
        <time>2021-09-18T07:55:04.000Z</time>
      </trkpt>
      <trkpt lat="43.82112" lon="5.85312">
        <ele>313.706297</ele>
        <time>2021-09-18T07:55:10.000Z</time>
      </trkpt>
      <trkpt lat="43.82117" lon="5.85313">
        <ele>313.740245</ele>
        <time>2021-09-18T07:55:11.000Z</time>
      </trkpt>
      <trkpt lat="43.8213" lon="5.85317">
        <ele>313.833744</ele>
        <time>2021-09-18T07:55:14.000Z</time>
      </trkpt>
      <trkpt lat="43.82149" lon="5.85323">
        <ele>313.972022</ele>
        <time>2021-09-18T07:55:19.000Z</time>
      </trkpt>
      <trkpt lat="43.82167" lon="5.85329">
        <ele>314.100681</ele>
        <time>2021-09-18T07:55:25.000Z</time>
      </trkpt>
      <trkpt lat="43.8219" lon="5.85339">
        <ele>314.267768</ele>
        <time>2021-09-18T07:55:31.000Z</time>
      </trkpt>
      <trkpt lat="43.8221" lon="5.8535">
        <ele>314.356646</ele>
        <time>2021-09-18T07:55:37.000Z</time>
      </trkpt>
      <trkpt lat="43.82237" lon="5.85367">
        <ele>314.395664</ele>
        <time>2021-09-18T07:55:45.000Z</time>
      </trkpt>
      <trkpt lat="43.82252" lon="5.85376">
        <ele>314.418226</ele>
        <time>2021-09-18T07:55:49.000Z</time>
      </trkpt>
      <trkpt lat="43.82269" lon="5.85386">
        <ele>314.443016</ele>
        <time>2021-09-18T07:55:53.000Z</time>
      </trkpt>
      <trkpt lat="43.823" lon="5.85403">
        <ele>314.487766</ele>
        <time>2021-09-18T07:55:58.000Z</time>
      </trkpt>
      <trkpt lat="43.82341" lon="5.8543">
        <ele>314.547775</ele>
        <time>2021-09-18T07:56:04.000Z</time>
      </trkpt>
      <trkpt lat="43.82377" lon="5.85453">
        <ele>314.625846</ele>
        <time>2021-09-18T07:56:10.000Z</time>
      </trkpt>
      <trkpt lat="43.82383" lon="5.85455">
        <ele>314.645956</ele>
        <time>2021-09-18T07:56:11.000Z</time>
      </trkpt>
      <trkpt lat="43.82389" lon="5.85458">
        <ele>314.665635</ele>
        <time>2021-09-18T07:56:12.000Z</time>
      </trkpt>
      <trkpt lat="43.82407" lon="5.85458">
        <ele>314.722988</ele>
        <time>2021-09-18T07:56:15.000Z</time>
      </trkpt>
      <trkpt lat="43.82441" lon="5.85447">
        <ele>314.833729</ele>
        <time>2021-09-18T07:56:21.000Z</time>
      </trkpt>
      <trkpt lat="43.82453" lon="5.85446">
        <ele>314.870014</ele>
        <time>2021-09-18T07:56:23.000Z</time>
      </trkpt>
      <trkpt lat="43.82465" lon="5.85447">
        <ele>314.908806</ele>
        <time>2021-09-18T07:56:25.000Z</time>
      </trkpt>
      <trkpt lat="43.82475" lon="5.8545">
        <ele>314.941664</ele>
        <time>2021-09-18T07:56:26.000Z</time>
      </trkpt>
      <trkpt lat="43.82483" lon="5.85455">
        <ele>314.969066</ele>
        <time>2021-09-18T07:56:29.000Z</time>
      </trkpt>
      <trkpt lat="43.82499" lon="5.85476">
        <ele>315.038119</ele>
        <time>2021-09-18T07:56:32.000Z</time>
      </trkpt>
      <trkpt lat="43.8251" lon="5.85497">
        <ele>315.096227</ele>
        <time>2021-09-18T07:56:36.000Z</time>
      </trkpt>
      <trkpt lat="43.82518" lon="5.8552">
        <ele>315.157125</ele>
        <time>2021-09-18T07:56:38.000Z</time>
      </trkpt>
      <trkpt lat="43.82524" lon="5.85536">
        <ele>315.210135</ele>
        <time>2021-09-18T07:56:41.000Z</time>
      </trkpt>
      <trkpt lat="43.82532" lon="5.85551">
        <ele>315.26301</ele>
        <time>2021-09-18T07:56:43.000Z</time>
      </trkpt>
      <trkpt lat="43.82557" lon="5.85572">
        <ele>315.385805</ele>
        <time>2021-09-18T07:56:48.000Z</time>
      </trkpt>
      <trkpt lat="43.82579" lon="5.85584">
        <ele>315.482588</ele>
        <time>2021-09-18T07:56:52.000Z</time>
      </trkpt>
      <trkpt lat="43.82609" lon="5.85596">
        <ele>315.608615</ele>
        <time>2021-09-18T07:56:57.000Z</time>
      </trkpt>
      <trkpt lat="43.82642" lon="5.85607">
        <ele>315.74813</ele>
        <time>2021-09-18T07:57:03.000Z</time>
      </trkpt>
      <trkpt lat="43.8268" lon="5.85619">
        <ele>315.981476</ele>
        <time>2021-09-18T07:57:10.000Z</time>
      </trkpt>
      <trkpt lat="43.8269" lon="5.85622">
        <ele>316.141213</ele>
        <time>2021-09-18T07:57:12.000Z</time>
      </trkpt>
      <trkpt lat="43.82707" lon="5.85633">
        <ele>316.458612</ele>
        <time>2021-09-18T07:57:16.000Z</time>
      </trkpt>
      <trkpt lat="43.82711" lon="5.85636">
        <ele>316.533113</ele>
        <time>2021-09-18T07:57:17.000Z</time>
      </trkpt>
      <trkpt lat="43.82723" lon="5.85653">
        <ele>316.811564</ele>
        <time>2021-09-18T07:57:20.000Z</time>
      </trkpt>
      <trkpt lat="43.82731" lon="5.85682">
        <ele>317.183649</ele>
        <time>2021-09-18T07:57:27.000Z</time>
      </trkpt>
      <trkpt lat="43.82737" lon="5.85715">
        <ele>317.596854</ele>
        <time>2021-09-18T07:57:35.000Z</time>
      </trkpt>
      <trkpt lat="43.82745" lon="5.85738">
        <ele>317.90116</ele>
        <time>2021-09-18T07:57:42.000Z</time>
      </trkpt>
      <trkpt lat="43.82758" lon="5.85756">
        <ele>318.210821</ele>
        <time>2021-09-18T07:57:49.000Z</time>
      </trkpt>
      <trkpt lat="43.82778" lon="5.85771">
        <ele>318.581752</ele>
        <time>2021-09-18T07:57:56.000Z</time>
      </trkpt>
      <trkpt lat="43.82791" lon="5.85797">
        <ele>319.110788</ele>
        <time>2021-09-18T07:58:03.000Z</time>
      </trkpt>
      <trkpt lat="43.82798" lon="5.85822">
        <ele>319.96566</ele>
        <time>2021-09-18T07:58:10.000Z</time>
      </trkpt>
      <trkpt lat="43.82807" lon="5.85854">
        <ele>321.024358</ele>
        <time>2021-09-18T07:58:19.000Z</time>
      </trkpt>
      <trkpt lat="43.82815" lon="5.85882">
        <ele>321.949627</ele>
        <time>2021-09-18T07:58:27.000Z</time>
      </trkpt>
      <trkpt lat="43.8282" lon="5.85902">
        <ele>322.61832</ele>
        <time>2021-09-18T07:58:33.000Z</time>
      </trkpt>
      <trkpt lat="43.82826" lon="5.85921">
        <ele>323.248808</ele>
        <time>2021-09-18T07:58:39.000Z</time>
      </trkpt>
      <trkpt lat="43.82832" lon="5.85947">
        <ele>324.113797</ele>
        <time>2021-09-18T07:58:47.000Z</time>
      </trkpt>
      <trkpt lat="43.82836" lon="5.85969">
        <ele>324.824242</ele>
        <time>2021-09-18T07:58:54.000Z</time>
      </trkpt>
      <trkpt lat="43.82842" lon="5.85995">
        <ele>325.667072</ele>
        <time>2021-09-18T07:59:02.000Z</time>
      </trkpt>
      <trkpt lat="43.82846" lon="5.86022">
        <ele>326.535927</ele>
        <time>2021-09-18T07:59:10.000Z</time>
      </trkpt>
      <trkpt lat="43.82848" lon="5.86041">
        <ele>327.433889</ele>
        <time>2021-09-18T07:59:16.000Z</time>
      </trkpt>
      <trkpt lat="43.82851" lon="5.86067">
        <ele>328.718877</ele>
        <time>2021-09-18T07:59:23.000Z</time>
      </trkpt>
      <trkpt lat="43.82854" lon="5.86089">
        <ele>329.794554</ele>
        <time>2021-09-18T07:59:29.000Z</time>
      </trkpt>
      <trkpt lat="43.82857" lon="5.86118">
        <ele>331.263494</ele>
        <time>2021-09-18T07:59:37.000Z</time>
      </trkpt>
      <trkpt lat="43.8286" lon="5.86143">
        <ele>332.499653</ele>
        <time>2021-09-18T07:59:44.000Z</time>
      </trkpt>
      <trkpt lat="43.8286" lon="5.86173">
        <ele>333.941668</ele>
        <time>2021-09-18T07:59:52.000Z</time>
      </trkpt>
      <trkpt lat="43.82861" lon="5.86201">
        <ele>335.354209</ele>
        <time>2021-09-18T08:00:00.000Z</time>
      </trkpt>
      <trkpt lat="43.82861" lon="5.86204">
        <ele>335.501879</ele>
        <time>2021-09-18T08:00:01.000Z</time>
      </trkpt>
      <trkpt lat="43.82859" lon="5.86217">
        <ele>336.148884</ele>
        <time>2021-09-18T08:00:05.000Z</time>
      </trkpt>
      <trkpt lat="43.82859" lon="5.8622">
        <ele>336.303921</ele>
        <time>2021-09-18T08:00:06.000Z</time>
      </trkpt>
      <trkpt lat="43.82863" lon="5.86234">
        <ele>337.026825</ele>
        <time>2021-09-18T08:00:10.000Z</time>
      </trkpt>
      <trkpt lat="43.82864" lon="5.86258">
        <ele>338.20976</ele>
        <time>2021-09-18T08:00:17.000Z</time>
      </trkpt>
      <trkpt lat="43.82864" lon="5.86264">
        <ele>338.531183</ele>
        <time>2021-09-18T08:00:19.000Z</time>
      </trkpt>
      <trkpt lat="43.82865" lon="5.86271">
        <ele>338.88685</ele>
        <time>2021-09-18T08:00:21.000Z</time>
      </trkpt>
      <trkpt lat="43.82867" lon="5.86296">
        <ele>340.078772</ele>
        <time>2021-09-18T08:00:28.000Z</time>
      </trkpt>
      <trkpt lat="43.82868" lon="5.86321">
        <ele>341.242402</ele>
        <time>2021-09-18T08:00:35.000Z</time>
      </trkpt>
      <trkpt lat="43.8287" lon="5.86341">
        <ele>342.219318</ele>
        <time>2021-09-18T08:00:41.000Z</time>
      </trkpt>
      <trkpt lat="43.82871" lon="5.86368">
        <ele>343.501341</ele>
        <time>2021-09-18T08:00:49.000Z</time>
      </trkpt>
      <trkpt lat="43.82869" lon="5.86395">
        <ele>344.774198</ele>
        <time>2021-09-18T08:00:57.000Z</time>
      </trkpt>
      <trkpt lat="43.82871" lon="5.86417">
        <ele>345.817621</ele>
        <time>2021-09-18T08:01:03.000Z</time>
      </trkpt>
      <trkpt lat="43.82874" lon="5.86421">
        <ele>346.09293</ele>
        <time>2021-09-18T08:01:05.000Z</time>
      </trkpt>
      <trkpt lat="43.82878" lon="5.86421">
        <ele>346.35705</ele>
        <time>2021-09-18T08:01:07.000Z</time>
      </trkpt>
      <trkpt lat="43.82885" lon="5.86416">
        <ele>346.862641</ele>
        <time>2021-09-18T08:01:11.000Z</time>
      </trkpt>
      <trkpt lat="43.82886" lon="5.86415">
        <ele>346.985038</ele>
        <time>2021-09-18T08:01:12.000Z</time>
      </trkpt>
      <trkpt lat="43.82889" lon="5.86395">
        <ele>347.924968</ele>
        <time>2021-09-18T08:01:18.000Z</time>
      </trkpt>
      <trkpt lat="43.82892" lon="5.86368">
        <ele>349.235079</ele>
        <time>2021-09-18T08:01:25.000Z</time>
      </trkpt>
      <trkpt lat="43.829" lon="5.86338">
        <ele>350.73256</ele>
        <time>2021-09-18T08:01:33.000Z</time>
      </trkpt>
      <trkpt lat="43.82908" lon="5.86314">
        <ele>351.860302</ele>
        <time>2021-09-18T08:01:40.000Z</time>
      </trkpt>
      <trkpt lat="43.82919" lon="5.86285">
        <ele>353.282982</ele>
        <time>2021-09-18T08:01:49.000Z</time>
      </trkpt>
      <trkpt lat="43.82928" lon="5.86259">
        <ele>354.511321</ele>
        <time>2021-09-18T08:01:57.000Z</time>
      </trkpt>
      <trkpt lat="43.82935" lon="5.86237">
        <ele>355.530598</ele>
        <time>2021-09-18T08:02:04.000Z</time>
      </trkpt>
      <trkpt lat="43.8294" lon="5.86215">
        <ele>356.539565</ele>
        <time>2021-09-18T08:02:11.000Z</time>
      </trkpt>
      <trkpt lat="43.82948" lon="5.86186">
        <ele>357.834603</ele>
        <time>2021-09-18T08:02:20.000Z</time>
      </trkpt>
      <trkpt lat="43.82954" lon="5.86161">
        <ele>358.99871</ele>
        <time>2021-09-18T08:02:28.000Z</time>
      </trkpt>
      <trkpt lat="43.82961" lon="5.86132">
        <ele>360.293621</ele>
        <time>2021-09-18T08:02:37.000Z</time>
      </trkpt>
      <trkpt lat="43.82968" lon="5.8612">
        <ele>360.968107</ele>
        <time>2021-09-18T08:02:42.000Z</time>
      </trkpt>
      <trkpt lat="43.82973" lon="5.86118">
        <ele>361.235972</ele>
        <time>2021-09-18T08:02:44.000Z</time>
      </trkpt>
      <trkpt lat="43.82979" lon="5.86117">
        <ele>361.563663</ele>
        <time>2021-09-18T08:02:47.000Z</time>
      </trkpt>
      <trkpt lat="43.82992" lon="5.86122">
        <ele>362.110431</ele>
        <time>2021-09-18T08:02:53.000Z</time>
      </trkpt>
      <trkpt lat="43.83006" lon="5.86133">
        <ele>362.774649</ele>
        <time>2021-09-18T08:03:00.000Z</time>
      </trkpt>
      <trkpt lat="43.83017" lon="5.86144">
        <ele>363.346524</ele>
        <time>2021-09-18T08:03:06.000Z</time>
      </trkpt>
      <trkpt lat="43.83029" lon="5.86156">
        <ele>363.957966</ele>
        <time>2021-09-18T08:03:12.000Z</time>
      </trkpt>
      <trkpt lat="43.83042" lon="5.86171">
        <ele>364.657095</ele>
        <time>2021-09-18T08:03:18.000Z</time>
      </trkpt>
      <trkpt lat="43.83059" lon="5.86189">
        <ele>365.550754</ele>
        <time>2021-09-18T08:03:24.000Z</time>
      </trkpt>
      <trkpt lat="43.83071" lon="5.86201">
        <ele>366.179673</ele>
        <time>2021-09-18T08:03:29.000Z</time>
      </trkpt>
      <trkpt lat="43.8308" lon="5.86211">
        <ele>366.646242</ele>
        <time>2021-09-18T08:03:34.000Z</time>
      </trkpt>
      <trkpt lat="43.83089" lon="5.86221">
        <ele>367.128169</ele>
        <time>2021-09-18T08:03:39.000Z</time>
      </trkpt>
      <trkpt lat="43.83103" lon="5.86235">
        <ele>367.84594</ele>
        <time>2021-09-18T08:03:44.000Z</time>
      </trkpt>
      <trkpt lat="43.83125" lon="5.8626">
        <ele>368.943633</ele>
        <time>2021-09-18T08:03:52.000Z</time>
      </trkpt>
      <trkpt lat="43.83136" lon="5.8628">
        <ele>369.235121</ele>
        <time>2021-09-18T08:03:57.000Z</time>
      </trkpt>
      <trkpt lat="43.83148" lon="5.86307">
        <ele>369.605109</ele>
        <time>2021-09-18T08:04:02.000Z</time>
      </trkpt>
      <trkpt lat="43.8315" lon="5.86312">
        <ele>369.684194</ele>
        <time>2021-09-18T08:04:03.000Z</time>
      </trkpt>
      <trkpt lat="43.83173" lon="5.86331">
        <ele>370.120535</ele>
        <time>2021-09-18T08:04:08.000Z</time>
      </trkpt>
      <trkpt lat="43.83188" lon="5.86339">
        <ele>370.389272</ele>
        <time>2021-09-18T08:04:11.000Z</time>
      </trkpt>
      <trkpt lat="43.83198" lon="5.86345">
        <ele>370.560396</ele>
        <time>2021-09-18T08:04:13.000Z</time>
      </trkpt>
      <trkpt lat="43.83202" lon="5.86348">
        <ele>370.640711</ele>
        <time>2021-09-18T08:04:14.000Z</time>
      </trkpt>
      <trkpt lat="43.83219" lon="5.86363">
        <ele>370.977413</ele>
        <time>2021-09-18T08:04:18.000Z</time>
      </trkpt>
      <trkpt lat="43.83228" lon="5.86373">
        <ele>371.158692</ele>
        <time>2021-09-18T08:04:20.000Z</time>
      </trkpt>
      <trkpt lat="43.83241" lon="5.86393">
        <ele>371.483045</ele>
        <time>2021-09-18T08:04:24.000Z</time>
      </trkpt>
      <trkpt lat="43.83249" lon="5.8641">
        <ele>371.72063</ele>
        <time>2021-09-18T08:04:27.000Z</time>
      </trkpt>
      <trkpt lat="43.83255" lon="5.86421">
        <ele>371.879817</ele>
        <time>2021-09-18T08:04:29.000Z</time>
      </trkpt>
      <trkpt lat="43.83259" lon="5.86427">
        <ele>371.951746</ele>
        <time>2021-09-18T08:04:30.000Z</time>
      </trkpt>
      <trkpt lat="43.83267" lon="5.86437">
        <ele>372.08789</ele>
        <time>2021-09-18T08:04:32.000Z</time>
      </trkpt>
      <trkpt lat="43.83277" lon="5.86443">
        <ele>372.230073</ele>
        <time>2021-09-18T08:04:34.000Z</time>
      </trkpt>
      <trkpt lat="43.83292" lon="5.86451">
        <ele>372.433945</ele>
        <time>2021-09-18T08:04:37.000Z</time>
      </trkpt>
      <trkpt lat="43.83306" lon="5.8646">
        <ele>372.628181</ele>
        <time>2021-09-18T08:04:40.000Z</time>
      </trkpt>
      <trkpt lat="43.83321" lon="5.86471">
        <ele>372.844569</ele>
        <time>2021-09-18T08:04:44.000Z</time>
      </trkpt>
      <trkpt lat="43.83336" lon="5.86484">
        <ele>373.074736</ele>
        <time>2021-09-18T08:04:48.000Z</time>
      </trkpt>
      <trkpt lat="43.83356" lon="5.86503">
        <ele>373.378642</ele>
        <time>2021-09-18T08:04:53.000Z</time>
      </trkpt>
      <trkpt lat="43.83394" lon="5.86537">
        <ele>373.954033</ele>
        <time>2021-09-18T08:05:02.000Z</time>
      </trkpt>
      <trkpt lat="43.83417" lon="5.86561">
        <ele>374.126242</ele>
        <time>2021-09-18T08:05:08.000Z</time>
      </trkpt>
      <trkpt lat="43.83441" lon="5.86591">
        <ele>374.111078</ele>
        <time>2021-09-18T08:05:14.000Z</time>
      </trkpt>
      <trkpt lat="43.83454" lon="5.8661">
        <ele>374.102651</ele>
        <time>2021-09-18T08:05:17.000Z</time>
      </trkpt>
      <trkpt lat="43.83465" lon="5.86631">
        <ele>374.094074</ele>
        <time>2021-09-18T08:05:20.000Z</time>
      </trkpt>
      <trkpt lat="43.83479" lon="5.86663">
        <ele>374.081474</ele>
        <time>2021-09-18T08:05:24.000Z</time>
      </trkpt>
      <trkpt lat="43.83485" lon="5.8668">
        <ele>374.075283</ele>
        <time>2021-09-18T08:05:26.000Z</time>
      </trkpt>
      <trkpt lat="43.83503" lon="5.86728">
        <ele>374.057432</ele>
        <time>2021-09-18T08:05:32.000Z</time>
      </trkpt>
      <trkpt lat="43.83506" lon="5.86736">
        <ele>374.054593</ele>
        <time>2021-09-18T08:05:33.000Z</time>
      </trkpt>
      <trkpt lat="43.83509" lon="5.86743">
        <ele>374.05176</ele>
        <time>2021-09-18T08:05:34.000Z</time>
      </trkpt>
      <trkpt lat="43.83523" lon="5.86759">
        <ele>374.173939</ele>
        <time>2021-09-18T08:05:37.000Z</time>
      </trkpt>
      <trkpt lat="43.8355" lon="5.86774">
        <ele>374.417291</ele>
        <time>2021-09-18T08:05:43.000Z</time>
      </trkpt>
      <trkpt lat="43.83568" lon="5.86783">
        <ele>374.573868</ele>
        <time>2021-09-18T08:05:49.000Z</time>
      </trkpt>
      <trkpt lat="43.83587" lon="5.86795">
        <ele>374.751465</ele>
        <time>2021-09-18T08:05:57.000Z</time>
      </trkpt>
      <trkpt lat="43.83607" lon="5.86813">
        <ele>374.9492</ele>
        <time>2021-09-18T08:06:05.000Z</time>
      </trkpt>
      <trkpt lat="43.83621" lon="5.86837">
        <ele>375.137795</ele>
        <time>2021-09-18T08:06:11.000Z</time>
      </trkpt>
      <trkpt lat="43.83624" lon="5.86844">
        <ele>375.181378</ele>
        <time>2021-09-18T08:06:12.000Z</time>
      </trkpt>
      <trkpt lat="43.83628" lon="5.86856">
        <ele>375.261466</ele>
        <time>2021-09-18T08:06:14.000Z</time>
      </trkpt>
      <trkpt lat="43.83633" lon="5.86866">
        <ele>375.334526</ele>
        <time>2021-09-18T08:06:16.000Z</time>
      </trkpt>
      <trkpt lat="43.8364" lon="5.86874">
        <ele>375.410533</ele>
        <time>2021-09-18T08:06:18.000Z</time>
      </trkpt>
      <trkpt lat="43.83649" lon="5.86881">
        <ele>375.494733</ele>
        <time>2021-09-18T08:06:20.000Z</time>
      </trkpt>
      <trkpt lat="43.83655" lon="5.86883">
        <ele>375.543352</ele>
        <time>2021-09-18T08:06:21.000Z</time>
      </trkpt>
      <trkpt lat="43.83676" lon="5.8689">
        <ele>375.599135</ele>
        <time>2021-09-18T08:06:25.000Z</time>
      </trkpt>
      <trkpt lat="43.83696" lon="5.869">
        <ele>375.651065</ele>
        <time>2021-09-18T08:06:30.000Z</time>
      </trkpt>
      <trkpt lat="43.83716" lon="5.86916">
        <ele>375.704765</ele>
        <time>2021-09-18T08:06:36.000Z</time>
      </trkpt>
      <trkpt lat="43.83738" lon="5.86935">
        <ele>375.766926</ele>
        <time>2021-09-18T08:06:42.000Z</time>
      </trkpt>
      <trkpt lat="43.83751" lon="5.86944">
        <ele>375.802535</ele>
        <time>2021-09-18T08:06:46.000Z</time>
      </trkpt>
      <trkpt lat="43.8378" lon="5.86956">
        <ele>375.873738</ele>
        <time>2021-09-18T08:06:52.000Z</time>
      </trkpt>
      <trkpt lat="43.83784" lon="5.8696">
        <ele>375.886137</ele>
        <time>2021-09-18T08:06:53.000Z</time>
      </trkpt>
      <trkpt lat="43.83788" lon="5.86964">
        <ele>375.897654</ele>
        <time>2021-09-18T08:06:54.000Z</time>
      </trkpt>
      <trkpt lat="43.83796" lon="5.86972">
        <ele>375.920935</ele>
        <time>2021-09-18T08:06:56.000Z</time>
      </trkpt>
      <trkpt lat="43.83799" lon="5.86978">
        <ele>375.93255</ele>
        <time>2021-09-18T08:06:57.000Z</time>
      </trkpt>
      <trkpt lat="43.83802" lon="5.86984">
        <ele>375.945574</ele>
        <time>2021-09-18T08:06:58.000Z</time>
      </trkpt>
      <trkpt lat="43.83807" lon="5.87009">
        <ele>376.035789</ele>
        <time>2021-09-18T08:07:01.000Z</time>
      </trkpt>
      <trkpt lat="43.8381" lon="5.87027">
        <ele>376.186617</ele>
        <time>2021-09-18T08:07:03.000Z</time>
      </trkpt>
      <trkpt lat="43.83814" lon="5.87044">
        <ele>376.332544</ele>
        <time>2021-09-18T08:07:05.000Z</time>
      </trkpt>
      <trkpt lat="43.83821" lon="5.87057">
        <ele>376.46934</ele>
        <time>2021-09-18T08:07:07.000Z</time>
      </trkpt>
      <trkpt lat="43.83826" lon="5.87062">
        <ele>376.536138</ele>
        <time>2021-09-18T08:07:08.000Z</time>
      </trkpt>
      <trkpt lat="43.83837" lon="5.87068">
        <ele>376.667343</ele>
        <time>2021-09-18T08:07:10.000Z</time>
      </trkpt>
      <trkpt lat="43.83852" lon="5.87074">
        <ele>376.847242</ele>
        <time>2021-09-18T08:07:13.000Z</time>
      </trkpt>
      <trkpt lat="43.83873" lon="5.87084">
        <ele>377.097863</ele>
        <time>2021-09-18T08:07:19.000Z</time>
      </trkpt>
      <trkpt lat="43.83883" lon="5.87097">
        <ele>377.247378</ele>
        <time>2021-09-18T08:07:24.000Z</time>
      </trkpt>
      <trkpt lat="43.83894" lon="5.87118">
        <ele>377.464004</ele>
        <time>2021-09-18T08:07:30.000Z</time>
      </trkpt>
      <trkpt lat="43.83905" lon="5.87136">
        <ele>377.655781</ele>
        <time>2021-09-18T08:07:35.000Z</time>
      </trkpt>
      <trkpt lat="43.83929" lon="5.87155">
        <ele>377.966727</ele>
        <time>2021-09-18T08:07:42.000Z</time>
      </trkpt>
      <trkpt lat="43.83951" lon="5.8717">
        <ele>378.179672</ele>
        <time>2021-09-18T08:07:48.000Z</time>
      </trkpt>
      <trkpt lat="43.83976" lon="5.87186">
        <ele>378.405843</ele>
        <time>2021-09-18T08:07:53.000Z</time>
      </trkpt>
      <trkpt lat="43.84013" lon="5.8721">
        <ele>378.734128</ele>
        <time>2021-09-18T08:08:00.000Z</time>
      </trkpt>
      <trkpt lat="43.8404" lon="5.87228">
        <ele>378.97929</ele>
        <time>2021-09-18T08:08:06.000Z</time>
      </trkpt>
      <trkpt lat="43.84067" lon="5.87245">
        <ele>379.218289</ele>
        <time>2021-09-18T08:08:13.000Z</time>
      </trkpt>
      <trkpt lat="43.84093" lon="5.87263">
        <ele>379.456552</ele>
        <time>2021-09-18T08:08:20.000Z</time>
      </trkpt>
      <trkpt lat="43.84102" lon="5.87271">
        <ele>379.512345</ele>
        <time>2021-09-18T08:08:22.000Z</time>
      </trkpt>
      <trkpt lat="43.84106" lon="5.87277">
        <ele>379.53868</ele>
        <time>2021-09-18T08:08:23.000Z</time>
      </trkpt>
      <trkpt lat="43.84109" lon="5.87285">
        <ele>379.56975</ele>
        <time>2021-09-18T08:08:24.000Z</time>
      </trkpt>
      <trkpt lat="43.8411" lon="5.87303">
        <ele>379.626643</ele>
        <time>2021-09-18T08:08:26.000Z</time>
      </trkpt>
      <trkpt lat="43.84102" lon="5.87333">
        <ele>379.732197</ele>
        <time>2021-09-18T08:08:30.000Z</time>
      </trkpt>
      <trkpt lat="43.841" lon="5.87347">
        <ele>379.777446</ele>
        <time>2021-09-18T08:08:32.000Z</time>
      </trkpt>
      <trkpt lat="43.841" lon="5.87353">
        <ele>379.798912</ele>
        <time>2021-09-18T08:08:33.000Z</time>
      </trkpt>
      <trkpt lat="43.84101" lon="5.8736">
        <ele>379.819481</ele>
        <time>2021-09-18T08:08:34.000Z</time>
      </trkpt>
      <trkpt lat="43.84107" lon="5.87371">
        <ele>379.864884</ele>
        <time>2021-09-18T08:08:36.000Z</time>
      </trkpt>
      <trkpt lat="43.84123" lon="5.87375">
        <ele>379.940399</ele>
        <time>2021-09-18T08:08:39.000Z</time>
      </trkpt>
      <trkpt lat="43.8413" lon="5.87375">
        <ele>379.969824</ele>
        <time>2021-09-18T08:08:40.000Z</time>
      </trkpt>
      <trkpt lat="43.84136" lon="5.87374">
        <ele>379.997453</ele>
        <time>2021-09-18T08:08:41.000Z</time>
      </trkpt>
      <trkpt lat="43.8416" lon="5.87371">
        <ele>380.109285</ele>
        <time>2021-09-18T08:08:45.000Z</time>
      </trkpt>
      <trkpt lat="43.84167" lon="5.87371">
        <ele>380.138234</ele>
        <time>2021-09-18T08:08:46.000Z</time>
      </trkpt>
      <trkpt lat="43.84188" lon="5.87377">
        <ele>380.236308</ele>
        <time>2021-09-18T08:08:50.000Z</time>
      </trkpt>
      <trkpt lat="43.84207" lon="5.87393">
        <ele>380.38604</ele>
        <time>2021-09-18T08:08:55.000Z</time>
      </trkpt>
      <trkpt lat="43.84231" lon="5.87417">
        <ele>380.644485</ele>
        <time>2021-09-18T08:09:02.000Z</time>
      </trkpt>
      <trkpt lat="43.84246" lon="5.87433">
        <ele>380.816725</ele>
        <time>2021-09-18T08:09:07.000Z</time>
      </trkpt>
      <trkpt lat="43.84263" lon="5.87451">
        <ele>381.001695</ele>
        <time>2021-09-18T08:09:13.000Z</time>
      </trkpt>
      <trkpt lat="43.8428" lon="5.87469">
        <ele>381.193613</ele>
        <time>2021-09-18T08:09:19.000Z</time>
      </trkpt>
      <trkpt lat="43.843" lon="5.8749">
        <ele>381.417622</ele>
        <time>2021-09-18T08:09:25.000Z</time>
      </trkpt>
      <trkpt lat="43.84329" lon="5.87521">
        <ele>381.741257</ele>
        <time>2021-09-18T08:09:32.000Z</time>
      </trkpt>
      <trkpt lat="43.8436" lon="5.87551">
        <ele>382.105923</ele>
        <time>2021-09-18T08:09:40.000Z</time>
      </trkpt>
      <trkpt lat="43.84375" lon="5.87559">
        <ele>382.267562</ele>
        <time>2021-09-18T08:09:44.000Z</time>
      </trkpt>
      <trkpt lat="43.84384" lon="5.87563">
        <ele>382.360448</ele>
        <time>2021-09-18T08:09:46.000Z</time>
      </trkpt>
      <trkpt lat="43.84419" lon="5.8757">
        <ele>382.718577</ele>
        <time>2021-09-18T08:09:54.000Z</time>
      </trkpt>
      <trkpt lat="43.84433" lon="5.87576">
        <ele>382.874817</ele>
        <time>2021-09-18T08:09:58.000Z</time>
      </trkpt>
      <trkpt lat="43.84441" lon="5.8758">
        <ele>382.962521</ele>
        <time>2021-09-18T08:10:00.000Z</time>
      </trkpt>
      <trkpt lat="43.84467" lon="5.87607">
        <ele>383.292517</ele>
        <time>2021-09-18T08:10:06.000Z</time>
      </trkpt>
      <trkpt lat="43.84476" lon="5.87622">
        <ele>383.430631</ele>
        <time>2021-09-18T08:10:09.000Z</time>
      </trkpt>
      <trkpt lat="43.84481" lon="5.87634">
        <ele>383.52989</ele>
        <time>2021-09-18T08:10:11.000Z</time>
      </trkpt>
      <trkpt lat="43.84483" lon="5.8764">
        <ele>383.585484</ele>
        <time>2021-09-18T08:10:13.000Z</time>
      </trkpt>
      <trkpt lat="43.84488" lon="5.87666">
        <ele>383.707667</ele>
        <time>2021-09-18T08:10:16.000Z</time>
      </trkpt>
      <trkpt lat="43.84489" lon="5.87684">
        <ele>383.707752</ele>
        <time>2021-09-18T08:10:18.000Z</time>
      </trkpt>
      <trkpt lat="43.8449" lon="5.87701">
        <ele>383.70783</ele>
        <time>2021-09-18T08:10:20.000Z</time>
      </trkpt>
      <trkpt lat="43.84491" lon="5.87709">
        <ele>383.707869</ele>
        <time>2021-09-18T08:10:21.000Z</time>
      </trkpt>
      <trkpt lat="43.84493" lon="5.87717">
        <ele>383.707906</ele>
        <time>2021-09-18T08:10:22.000Z</time>
      </trkpt>
      <trkpt lat="43.84502" lon="5.87726">
        <ele>383.70798</ele>
        <time>2021-09-18T08:10:24.000Z</time>
      </trkpt>
      <trkpt lat="43.84546" lon="5.87725">
        <ele>383.708256</ele>
        <time>2021-09-18T08:10:29.000Z</time>
      </trkpt>
      <trkpt lat="43.84589" lon="5.87718">
        <ele>383.708531</ele>
        <time>2021-09-18T08:10:36.000Z</time>
      </trkpt>
      <trkpt lat="43.84629" lon="5.87704">
        <ele>383.655745</ele>
        <time>2021-09-18T08:10:42.000Z</time>
      </trkpt>
      <trkpt lat="43.84681" lon="5.87673">
        <ele>382.929392</ele>
        <time>2021-09-18T08:10:50.000Z</time>
      </trkpt>
      <trkpt lat="43.84708" lon="5.87657">
        <ele>382.54782</ele>
        <time>2021-09-18T08:10:53.000Z</time>
      </trkpt>
      <trkpt lat="43.84708" lon="5.87657">
        <ele>382.54782</ele>
        <time>2021-09-18T08:10:54.000Z</time>
      </trkpt>
      <trkpt lat="43.84716" lon="5.87656">
        <ele>382.452764</ele>
        <time>2021-09-18T08:10:55.000Z</time>
      </trkpt>
      <trkpt lat="43.84723" lon="5.8766">
        <ele>382.351421</ele>
        <time>2021-09-18T08:10:56.000Z</time>
      </trkpt>
      <trkpt lat="43.84757" lon="5.87713">
        <ele>381.694362</ele>
        <time>2021-09-18T08:11:01.000Z</time>
      </trkpt>
      <trkpt lat="43.84763" lon="5.87723">
        <ele>381.579513</ele>
        <time>2021-09-18T08:11:03.000Z</time>
      </trkpt>
      <trkpt lat="43.8478" lon="5.87757">
        <ele>380.935325</ele>
        <time>2021-09-18T08:11:05.000Z</time>
      </trkpt>
      <trkpt lat="43.8478" lon="5.87757">
        <ele>380.935325</ele>
        <time>2021-09-18T08:11:06.000Z</time>
      </trkpt>
      <trkpt lat="43.8479" lon="5.8778">
        <ele>380.39954</ele>
        <time>2021-09-18T08:11:08.000Z</time>
      </trkpt>
      <trkpt lat="43.84795" lon="5.87789">
        <ele>380.172614</ele>
        <time>2021-09-18T08:11:09.000Z</time>
      </trkpt>
      <trkpt lat="43.84799" lon="5.87798">
        <ele>379.955913</ele>
        <time>2021-09-18T08:11:10.000Z</time>
      </trkpt>
      <trkpt lat="43.848" lon="5.87813">
        <ele>379.663863</ele>
        <time>2021-09-18T08:11:11.000Z</time>
      </trkpt>
      <trkpt lat="43.84797" lon="5.87818">
        <ele>379.520472</ele>
        <time>2021-09-18T08:11:12.000Z</time>
      </trkpt>
      <trkpt lat="43.84791" lon="5.87828">
        <ele>379.265636</ele>
        <time>2021-09-18T08:11:13.000Z</time>
      </trkpt>
      <trkpt lat="43.84773" lon="5.87857">
        <ele>378.477674</ele>
        <time>2021-09-18T08:11:16.000Z</time>
      </trkpt>
      <trkpt lat="43.84749" lon="5.87882">
        <ele>377.66681</ele>
        <time>2021-09-18T08:11:19.000Z</time>
      </trkpt>
      <trkpt lat="43.84731" lon="5.87897">
        <ele>377.074642</ele>
        <time>2021-09-18T08:11:21.000Z</time>
      </trkpt>
      <trkpt lat="43.84712" lon="5.87926">
        <ele>376.238074</ele>
        <time>2021-09-18T08:11:23.000Z</time>
      </trkpt>
      <trkpt lat="43.84715" lon="5.87937">
        <ele>375.899115</ele>
        <time>2021-09-18T08:11:25.000Z</time>
      </trkpt>
      <trkpt lat="43.84728" lon="5.87942">
        <ele>375.34228</ele>
        <time>2021-09-18T08:11:27.000Z</time>
      </trkpt>
      <trkpt lat="43.84752" lon="5.87935">
        <ele>374.336187</ele>
        <time>2021-09-18T08:11:30.000Z</time>
      </trkpt>
      <trkpt lat="43.84761" lon="5.87934">
        <ele>373.985033</ele>
        <time>2021-09-18T08:11:31.000Z</time>
      </trkpt>
      <trkpt lat="43.84779" lon="5.87936">
        <ele>373.248982</ele>
        <time>2021-09-18T08:11:33.000Z</time>
      </trkpt>
      <trkpt lat="43.84787" lon="5.87938">
        <ele>372.899029</ele>
        <time>2021-09-18T08:11:34.000Z</time>
      </trkpt>
      <trkpt lat="43.84796" lon="5.87949">
        <ele>372.406563</ele>
        <time>2021-09-18T08:11:35.000Z</time>
      </trkpt>
      <trkpt lat="43.84796" lon="5.87954">
        <ele>372.250406</ele>
        <time>2021-09-18T08:11:36.000Z</time>
      </trkpt>
      <trkpt lat="43.84796" lon="5.87967">
        <ele>371.875345</ele>
        <time>2021-09-18T08:11:37.000Z</time>
      </trkpt>
      <trkpt lat="43.84787" lon="5.88005">
        <ele>370.680982</ele>
        <time>2021-09-18T08:11:40.000Z</time>
      </trkpt>
      <trkpt lat="43.84777" lon="5.88041">
        <ele>369.518551</ele>
        <time>2021-09-18T08:11:43.000Z</time>
      </trkpt>
      <trkpt lat="43.8477" lon="5.88079">
        <ele>368.239253</ele>
        <time>2021-09-18T08:11:46.000Z</time>
      </trkpt>
      <trkpt lat="43.84768" lon="5.88103">
        <ele>367.337849</ele>
        <time>2021-09-18T08:11:48.000Z</time>
      </trkpt>
      <trkpt lat="43.84767" lon="5.88114">
        <ele>366.945373</ele>
        <time>2021-09-18T08:11:49.000Z</time>
      </trkpt>
      <trkpt lat="43.84775" lon="5.8813">
        <ele>366.223184</ele>
        <time>2021-09-18T08:11:51.000Z</time>
      </trkpt>
      <trkpt lat="43.84791" lon="5.88105">
        <ele>365.022128</ele>
        <time>2021-09-18T08:11:53.000Z</time>
      </trkpt>
      <trkpt lat="43.84797" lon="5.88078">
        <ele>364.031628</ele>
        <time>2021-09-18T08:11:56.000Z</time>
      </trkpt>
      <trkpt lat="43.848" lon="5.88064">
        <ele>363.501562</ele>
        <time>2021-09-18T08:11:57.000Z</time>
      </trkpt>
      <trkpt lat="43.84803" lon="5.8805">
        <ele>362.970001</ele>
        <time>2021-09-18T08:11:58.000Z</time>
      </trkpt>
      <trkpt lat="43.84815" lon="5.88026">
        <ele>361.886429</ele>
        <time>2021-09-18T08:12:00.000Z</time>
      </trkpt>
      <trkpt lat="43.84855" lon="5.87965">
        <ele>358.941814</ele>
        <time>2021-09-18T08:12:04.000Z</time>
      </trkpt>
      <trkpt lat="43.84878" lon="5.87928">
        <ele>357.256963</ele>
        <time>2021-09-18T08:12:08.000Z</time>
      </trkpt>
      <trkpt lat="43.84886" lon="5.87919">
        <ele>356.748169</ele>
        <time>2021-09-18T08:12:09.000Z</time>
      </trkpt>
      <trkpt lat="43.84894" lon="5.87911">
        <ele>356.255139</ele>
        <time>2021-09-18T08:12:10.000Z</time>
      </trkpt>
      <trkpt lat="43.84904" lon="5.87906">
        <ele>355.767135</ele>
        <time>2021-09-18T08:12:11.000Z</time>
      </trkpt>
      <trkpt lat="43.84914" lon="5.87905">
        <ele>355.281512</ele>
        <time>2021-09-18T08:12:12.000Z</time>
      </trkpt>
      <trkpt lat="43.84943" lon="5.87915">
        <ele>353.813869</ele>
        <time>2021-09-18T08:12:14.000Z</time>
      </trkpt>
      <trkpt lat="43.8497" lon="5.87931">
        <ele>352.394962</ele>
        <time>2021-09-18T08:12:18.000Z</time>
      </trkpt>
      <trkpt lat="43.84979" lon="5.87938">
        <ele>351.91487</ele>
        <time>2021-09-18T08:12:19.000Z</time>
      </trkpt>
      <trkpt lat="43.84995" lon="5.87954">
        <ele>350.960403</ele>
        <time>2021-09-18T08:12:21.000Z</time>
      </trkpt>
      <trkpt lat="43.85015" lon="5.8798">
        <ele>349.557937</ele>
        <time>2021-09-18T08:12:23.000Z</time>
      </trkpt>
      <trkpt lat="43.85058" lon="5.88037">
        <ele>346.508824</ele>
        <time>2021-09-18T08:12:30.000Z</time>
      </trkpt>
      <trkpt lat="43.8508" lon="5.88066">
        <ele>344.994178</ele>
        <time>2021-09-18T08:12:35.000Z</time>
      </trkpt>
      <trkpt lat="43.85122" lon="5.8812">
        <ele>342.07549</ele>
        <time>2021-09-18T08:12:43.000Z</time>
      </trkpt>
      <trkpt lat="43.85137" lon="5.8814">
        <ele>341.28285</ele>
        <time>2021-09-18T08:12:45.000Z</time>
      </trkpt>
      <trkpt lat="43.85182" lon="5.88197">
        <ele>338.972772</ele>
        <time>2021-09-18T08:12:54.000Z</time>
      </trkpt>
      <trkpt lat="43.85186" lon="5.88203">
        <ele>338.725594</ele>
        <time>2021-09-18T08:12:55.000Z</time>
      </trkpt>
      <trkpt lat="43.85229" lon="5.88257">
        <ele>336.543762</ele>
        <time>2021-09-18T08:13:04.000Z</time>
      </trkpt>
      <trkpt lat="43.85229" lon="5.88257">
        <ele>336.543762</ele>
        <time>2021-09-18T08:13:05.000Z</time>
      </trkpt>
      <trkpt lat="43.85265" lon="5.88304">
        <ele>334.87422</ele>
        <time>2021-09-18T08:13:13.000Z</time>
      </trkpt>
      <trkpt lat="43.85296" lon="5.88343">
        <ele>333.880813</ele>
        <time>2021-09-18T08:13:20.000Z</time>
      </trkpt>
      <trkpt lat="43.85337" lon="5.88396">
        <ele>332.53395</ele>
        <time>2021-09-18T08:13:30.000Z</time>
      </trkpt>
      <trkpt lat="43.85374" lon="5.88442">
        <ele>331.329047</ele>
        <time>2021-09-18T08:13:39.000Z</time>
      </trkpt>
      <trkpt lat="43.85413" lon="5.88491">
        <ele>330.671321</ele>
        <time>2021-09-18T08:13:47.000Z</time>
      </trkpt>
      <trkpt lat="43.8543" lon="5.88512">
        <ele>330.500512</ele>
        <time>2021-09-18T08:13:52.000Z</time>
      </trkpt>
      <trkpt lat="43.85434" lon="5.88517">
        <ele>330.462738</ele>
        <time>2021-09-18T08:13:53.000Z</time>
      </trkpt>
      <trkpt lat="43.85453" lon="5.88541">
        <ele>330.268766</ele>
        <time>2021-09-18T08:13:59.000Z</time>
      </trkpt>
      <trkpt lat="43.85468" lon="5.88571">
        <ele>330.073847</ele>
        <time>2021-09-18T08:14:05.000Z</time>
      </trkpt>
      <trkpt lat="43.85477" lon="5.88602">
        <ele>329.894408</ele>
        <time>2021-09-18T08:14:10.000Z</time>
      </trkpt>
      <trkpt lat="43.85479" lon="5.88607">
        <ele>329.863052</ele>
        <time>2021-09-18T08:14:12.000Z</time>
      </trkpt>
      <trkpt lat="43.85486" lon="5.88628">
        <ele>329.73869</ele>
        <time>2021-09-18T08:14:16.000Z</time>
      </trkpt>
      <trkpt lat="43.85501" lon="5.88649">
        <ele>329.61023</ele>
        <time>2021-09-18T08:14:21.000Z</time>
      </trkpt>
      <trkpt lat="43.85529" lon="5.8868">
        <ele>329.761586</ele>
        <time>2021-09-18T08:14:27.000Z</time>
      </trkpt>
      <trkpt lat="43.85563" lon="5.88722">
        <ele>329.952378</ele>
        <time>2021-09-18T08:14:35.000Z</time>
      </trkpt>
      <trkpt lat="43.8557" lon="5.88733">
        <ele>329.994564</ele>
        <time>2021-09-18T08:14:38.000Z</time>
      </trkpt>
      <trkpt lat="43.85577" lon="5.88743">
        <ele>330.037251</ele>
        <time>2021-09-18T08:14:40.000Z</time>
      </trkpt>
      <trkpt lat="43.85603" lon="5.88781">
        <ele>330.194227</ele>
        <time>2021-09-18T08:14:47.000Z</time>
      </trkpt>
      <trkpt lat="43.85608" lon="5.88785">
        <ele>330.215972</ele>
        <time>2021-09-18T08:14:48.000Z</time>
      </trkpt>
      <trkpt lat="43.85631" lon="5.88807">
        <ele>330.335321</ele>
        <time>2021-09-18T08:14:53.000Z</time>
      </trkpt>
      <trkpt lat="43.85669" lon="5.88842">
        <ele>330.847953</ele>
        <time>2021-09-18T08:15:00.000Z</time>
      </trkpt>
      <trkpt lat="43.8571" lon="5.88881">
        <ele>331.432534</ele>
        <time>2021-09-18T08:15:09.000Z</time>
      </trkpt>
      <trkpt lat="43.85731" lon="5.88898">
        <ele>331.712056</ele>
        <time>2021-09-18T08:15:15.000Z</time>
      </trkpt>
      <trkpt lat="43.85758" lon="5.88914">
        <ele>332.065795</ele>
        <time>2021-09-18T08:15:22.000Z</time>
      </trkpt>
      <trkpt lat="43.85789" lon="5.88929">
        <ele>332.453692</ele>
        <time>2021-09-18T08:15:30.000Z</time>
      </trkpt>
      <trkpt lat="43.85823" lon="5.88938">
        <ele>332.769128</ele>
        <time>2021-09-18T08:15:40.000Z</time>
      </trkpt>
      <trkpt lat="43.85851" lon="5.88945">
        <ele>333.027941</ele>
        <time>2021-09-18T08:15:48.000Z</time>
      </trkpt>
      <trkpt lat="43.85882" lon="5.88957">
        <ele>333.324103</ele>
        <time>2021-09-18T08:15:55.000Z</time>
      </trkpt>
      <trkpt lat="43.85917" lon="5.88981">
        <ele>333.676907</ele>
        <time>2021-09-18T08:16:02.000Z</time>
      </trkpt>
      <trkpt lat="43.85935" lon="5.88996">
        <ele>333.865775</ele>
        <time>2021-09-18T08:16:07.000Z</time>
      </trkpt>
      <trkpt lat="43.8597" lon="5.89032">
        <ele>334.155617</ele>
        <time>2021-09-18T08:16:15.000Z</time>
      </trkpt>
      <trkpt lat="43.86015" lon="5.89078">
        <ele>334.309512</ele>
        <time>2021-09-18T08:16:25.000Z</time>
      </trkpt>
      <trkpt lat="43.86046" lon="5.89111">
        <ele>334.414727</ele>
        <time>2021-09-18T08:16:32.000Z</time>
      </trkpt>
      <trkpt lat="43.86082" lon="5.89146">
        <ele>334.534782</ele>
        <time>2021-09-18T08:16:40.000Z</time>
      </trkpt>
      <trkpt lat="43.86119" lon="5.89181">
        <ele>334.587753</ele>
        <time>2021-09-18T08:16:49.000Z</time>
      </trkpt>
      <trkpt lat="43.8614" lon="5.89201">
        <ele>334.572092</ele>
        <time>2021-09-18T08:16:55.000Z</time>
      </trkpt>
      <trkpt lat="43.86148" lon="5.89209">
        <ele>334.56608</ele>
        <time>2021-09-18T08:16:57.000Z</time>
      </trkpt>
      <trkpt lat="43.86164" lon="5.89225">
        <ele>334.553473</ele>
        <time>2021-09-18T08:17:01.000Z</time>
      </trkpt>
      <trkpt lat="43.86173" lon="5.89234">
        <ele>334.546827</ele>
        <time>2021-09-18T08:17:03.000Z</time>
      </trkpt>
      <trkpt lat="43.8622" lon="5.89282">
        <ele>334.510964</ele>
        <time>2021-09-18T08:17:13.000Z</time>
      </trkpt>
      <trkpt lat="43.86261" lon="5.89325">
        <ele>334.52356</ele>
        <time>2021-09-18T08:17:21.000Z</time>
      </trkpt>
      <trkpt lat="43.86308" lon="5.8937">
        <ele>334.633376</ele>
        <time>2021-09-18T08:17:31.000Z</time>
      </trkpt>
      <trkpt lat="43.86308" lon="5.8937">
        <ele>334.633376</ele>
        <time>2021-09-18T08:17:32.000Z</time>
      </trkpt>
      <trkpt lat="43.86322" lon="5.89381">
        <ele>334.664963</ele>
        <time>2021-09-18T08:17:35.000Z</time>
      </trkpt>
      <trkpt lat="43.86331" lon="5.89389">
        <ele>334.684945</ele>
        <time>2021-09-18T08:17:37.000Z</time>
      </trkpt>
      <trkpt lat="43.8637" lon="5.8942">
        <ele>334.771801</ele>
        <time>2021-09-18T08:17:45.000Z</time>
      </trkpt>
      <trkpt lat="43.86406" lon="5.89451">
        <ele>334.887517</ele>
        <time>2021-09-18T08:17:52.000Z</time>
      </trkpt>
      <trkpt lat="43.86436" lon="5.89491">
        <ele>335.143489</ele>
        <time>2021-09-18T08:18:02.000Z</time>
      </trkpt>
      <trkpt lat="43.86468" lon="5.89533">
        <ele>335.416018</ele>
        <time>2021-09-18T08:18:11.000Z</time>
      </trkpt>
      <trkpt lat="43.86503" lon="5.89576">
        <ele>335.703947</ele>
        <time>2021-09-18T08:18:20.000Z</time>
      </trkpt>
      <trkpt lat="43.86546" lon="5.89621">
        <ele>336.052222</ele>
        <time>2021-09-18T08:18:29.000Z</time>
      </trkpt>
      <trkpt lat="43.8655" lon="5.89626">
        <ele>336.088971</ele>
        <time>2021-09-18T08:18:30.000Z</time>
      </trkpt>
      <trkpt lat="43.86587" lon="5.89664">
        <ele>336.415924</ele>
        <time>2021-09-18T08:18:39.000Z</time>
      </trkpt>
      <trkpt lat="43.86623" lon="5.89703">
        <ele>336.745577</ele>
        <time>2021-09-18T08:18:49.000Z</time>
      </trkpt>
      <trkpt lat="43.86671" lon="5.89752">
        <ele>337.168264</ele>
        <time>2021-09-18T08:19:00.000Z</time>
      </trkpt>
      <trkpt lat="43.86696" lon="5.89779">
        <ele>337.38639</ele>
        <time>2021-09-18T08:19:08.000Z</time>
      </trkpt>
      <trkpt lat="43.8673" lon="5.89815">
        <ele>337.671771</ele>
        <time>2021-09-18T08:19:17.000Z</time>
      </trkpt>
      <trkpt lat="43.86764" lon="5.89851">
        <ele>337.956381</ele>
        <time>2021-09-18T08:19:26.000Z</time>
      </trkpt>
      <trkpt lat="43.86802" lon="5.8989">
        <ele>338.272058</ele>
        <time>2021-09-18T08:19:35.000Z</time>
      </trkpt>
      <trkpt lat="43.86845" lon="5.89937">
        <ele>338.400138</ele>
        <time>2021-09-18T08:19:46.000Z</time>
      </trkpt>
      <trkpt lat="43.86849" lon="5.89941">
        <ele>338.394907</ele>
        <time>2021-09-18T08:19:47.000Z</time>
      </trkpt>
      <trkpt lat="43.86881" lon="5.89975">
        <ele>338.352484</ele>
        <time>2021-09-18T08:19:55.000Z</time>
      </trkpt>
      <trkpt lat="43.86903" lon="5.89998">
        <ele>338.324447</ele>
        <time>2021-09-18T08:20:00.000Z</time>
      </trkpt>
      <trkpt lat="43.86934" lon="5.90028">
        <ele>338.284819</ele>
        <time>2021-09-18T08:20:07.000Z</time>
      </trkpt>
      <trkpt lat="43.86963" lon="5.90047">
        <ele>338.251884</ele>
        <time>2021-09-18T08:20:12.000Z</time>
      </trkpt>
      <trkpt lat="43.87009" lon="5.90075">
        <ele>338.050457</ele>
        <time>2021-09-18T08:20:19.000Z</time>
      </trkpt>
      <trkpt lat="43.87059" lon="5.90103">
        <ele>337.813882</ele>
        <time>2021-09-18T08:20:27.000Z</time>
      </trkpt>
      <trkpt lat="43.87065" lon="5.90107">
        <ele>337.786419</ele>
        <time>2021-09-18T08:20:28.000Z</time>
      </trkpt>
      <trkpt lat="43.87117" lon="5.90136">
        <ele>337.541707</ele>
        <time>2021-09-18T08:20:37.000Z</time>
      </trkpt>
      <trkpt lat="43.87153" lon="5.9016">
        <ele>337.472419</ele>
        <time>2021-09-18T08:20:44.000Z</time>
      </trkpt>
      <trkpt lat="43.87176" lon="5.90178">
        <ele>337.493485</ele>
        <time>2021-09-18T08:20:49.000Z</time>
      </trkpt>
      <trkpt lat="43.87181" lon="5.90182">
        <ele>337.497379</ele>
        <time>2021-09-18T08:20:51.000Z</time>
      </trkpt>
      <trkpt lat="43.87217" lon="5.9021">
        <ele>337.529818</ele>
        <time>2021-09-18T08:20:58.000Z</time>
      </trkpt>
      <trkpt lat="43.87254" lon="5.90244">
        <ele>337.564163</ele>
        <time>2021-09-18T08:21:06.000Z</time>
      </trkpt>
      <trkpt lat="43.87299" lon="5.90288">
        <ele>337.626919</ele>
        <time>2021-09-18T08:21:16.000Z</time>
      </trkpt>
      <trkpt lat="43.87304" lon="5.90293">
        <ele>337.63887</ele>
        <time>2021-09-18T08:21:17.000Z</time>
      </trkpt>
      <trkpt lat="43.87334" lon="5.90325">
        <ele>337.723672</ele>
        <time>2021-09-18T08:21:24.000Z</time>
      </trkpt>
      <trkpt lat="43.87381" lon="5.90376">
        <ele>337.853841</ele>
        <time>2021-09-18T08:21:35.000Z</time>
      </trkpt>
      <trkpt lat="43.87422" lon="5.90426">
        <ele>337.973508</ele>
        <time>2021-09-18T08:21:45.000Z</time>
      </trkpt>
      <trkpt lat="43.87454" lon="5.90474">
        <ele>338.142713</ele>
        <time>2021-09-18T08:21:54.000Z</time>
      </trkpt>
      <trkpt lat="43.87485" lon="5.90524">
        <ele>338.324178</ele>
        <time>2021-09-18T08:22:03.000Z</time>
      </trkpt>
      <trkpt lat="43.87521" lon="5.90583">
        <ele>338.53923</ele>
        <time>2021-09-18T08:22:14.000Z</time>
      </trkpt>
      <trkpt lat="43.87548" lon="5.90625">
        <ele>338.698513</ele>
        <time>2021-09-18T08:22:22.000Z</time>
      </trkpt>
      <trkpt lat="43.87577" lon="5.90672">
        <ele>338.941644</ele>
        <time>2021-09-18T08:22:31.000Z</time>
      </trkpt>
      <trkpt lat="43.8758" lon="5.90677">
        <ele>338.96581</ele>
        <time>2021-09-18T08:22:32.000Z</time>
      </trkpt>
      <trkpt lat="43.87591" lon="5.90694">
        <ele>339.05691</ele>
        <time>2021-09-18T08:22:36.000Z</time>
      </trkpt>
      <trkpt lat="43.87617" lon="5.90736">
        <ele>339.270812</ele>
        <time>2021-09-18T08:22:44.000Z</time>
      </trkpt>
      <trkpt lat="43.87644" lon="5.90778">
        <ele>339.489842</ele>
        <time>2021-09-18T08:22:52.000Z</time>
      </trkpt>
      <trkpt lat="43.87673" lon="5.90824">
        <ele>339.782491</ele>
        <time>2021-09-18T08:23:01.000Z</time>
      </trkpt>
      <trkpt lat="43.8771" lon="5.90882">
        <ele>340.325137</ele>
        <time>2021-09-18T08:23:13.000Z</time>
      </trkpt>
      <trkpt lat="43.87715" lon="5.90891">
        <ele>340.41028</ele>
        <time>2021-09-18T08:23:15.000Z</time>
      </trkpt>
      <trkpt lat="43.8772" lon="5.90898">
        <ele>340.478772</ele>
        <time>2021-09-18T08:23:17.000Z</time>
      </trkpt>
      <trkpt lat="43.8771" lon="5.90923">
        <ele>340.678299</ele>
        <time>2021-09-18T08:23:21.000Z</time>
      </trkpt>
      <trkpt lat="43.87695" lon="5.90951">
        <ele>340.923429</ele>
        <time>2021-09-18T08:23:27.000Z</time>
      </trkpt>
      <trkpt lat="43.87692" lon="5.90956">
        <ele>340.967241</ele>
        <time>2021-09-18T08:23:28.000Z</time>
      </trkpt>
      <trkpt lat="43.87678" lon="5.91001">
        <ele>341.309782</ele>
        <time>2021-09-18T08:23:35.000Z</time>
      </trkpt>
      <trkpt lat="43.87656" lon="5.91057">
        <ele>341.740476</ele>
        <time>2021-09-18T08:23:44.000Z</time>
      </trkpt>
      <trkpt lat="43.87636" lon="5.91107">
        <ele>342.12621</ele>
        <time>2021-09-18T08:23:52.000Z</time>
      </trkpt>
      <trkpt lat="43.8763" lon="5.91125">
        <ele>342.261484</ele>
        <time>2021-09-18T08:23:55.000Z</time>
      </trkpt>
      <trkpt lat="43.87628" lon="5.91144">
        <ele>342.388877</ele>
        <time>2021-09-18T08:23:58.000Z</time>
      </trkpt>
      <trkpt lat="43.87628" lon="5.91158">
        <ele>342.483595</ele>
        <time>2021-09-18T08:24:00.000Z</time>
      </trkpt>
      <trkpt lat="43.87629" lon="5.9117">
        <ele>342.564922</ele>
        <time>2021-09-18T08:24:02.000Z</time>
      </trkpt>
      <trkpt lat="43.8763" lon="5.91207">
        <ele>342.808231</ele>
        <time>2021-09-18T08:24:08.000Z</time>
      </trkpt>
      <trkpt lat="43.8763" lon="5.91219">
        <ele>342.891609</ele>
        <time>2021-09-18T08:24:10.000Z</time>
      </trkpt>
      <trkpt lat="43.8763" lon="5.91237">
        <ele>343.011234</ele>
        <time>2021-09-18T08:24:13.000Z</time>
      </trkpt>
      <trkpt lat="43.87631" lon="5.91255">
        <ele>343.166161</ele>
        <time>2021-09-18T08:24:17.000Z</time>
      </trkpt>
      <trkpt lat="43.87631" lon="5.9129">
        <ele>343.538711</ele>
        <time>2021-09-18T08:24:23.000Z</time>
      </trkpt>
      <trkpt lat="43.87631" lon="5.91311">
        <ele>343.764527</ele>
        <time>2021-09-18T08:24:27.000Z</time>
      </trkpt>
      <trkpt lat="43.8763" lon="5.91337">
        <ele>344.038261</ele>
        <time>2021-09-18T08:24:32.000Z</time>
      </trkpt>
      <trkpt lat="43.8763" lon="5.9134">
        <ele>344.069162</ele>
        <time>2021-09-18T08:24:33.000Z</time>
      </trkpt>
      <trkpt lat="43.87629" lon="5.91365">
        <ele>344.33226</ele>
        <time>2021-09-18T08:24:39.000Z</time>
      </trkpt>
      <trkpt lat="43.87629" lon="5.91382">
        <ele>344.513351</ele>
        <time>2021-09-18T08:24:44.000Z</time>
      </trkpt>
      <trkpt lat="43.87627" lon="5.91411">
        <ele>344.828337</ele>
        <time>2021-09-18T08:24:51.000Z</time>
      </trkpt>
      <trkpt lat="43.87624" lon="5.91426">
        <ele>344.992892</ele>
        <time>2021-09-18T08:24:55.000Z</time>
      </trkpt>
      <trkpt lat="43.87622" lon="5.91438">
        <ele>345.127777</ele>
        <time>2021-09-18T08:24:56.000Z</time>
      </trkpt>
      <trkpt lat="43.87617" lon="5.91471">
        <ele>345.481342</ele>
        <time>2021-09-18T08:25:01.000Z</time>
      </trkpt>
      <trkpt lat="43.87617" lon="5.91478">
        <ele>345.555315</ele>
        <time>2021-09-18T08:25:02.000Z</time>
      </trkpt>
      <trkpt lat="43.87614" lon="5.91512">
        <ele>345.731069</ele>
        <time>2021-09-18T08:25:08.000Z</time>
      </trkpt>
      <trkpt lat="43.87613" lon="5.91542">
        <ele>345.723739</ele>
        <time>2021-09-18T08:25:14.000Z</time>
      </trkpt>
      <trkpt lat="43.87611" lon="5.91565">
        <ele>345.718152</ele>
        <time>2021-09-18T08:25:20.000Z</time>
      </trkpt>
      <trkpt lat="43.87608" lon="5.91586">
        <ele>345.71277</ele>
        <time>2021-09-18T08:25:26.000Z</time>
      </trkpt>
      <trkpt lat="43.87606" lon="5.91601">
        <ele>345.709112</ele>
        <time>2021-09-18T08:25:30.000Z</time>
      </trkpt>
      <trkpt lat="43.87605" lon="5.91611">
        <ele>345.706642</ele>
        <time>2021-09-18T08:25:51.000Z</time>
      </trkpt>
      <trkpt lat="43.87605" lon="5.91617">
        <ele>345.705176</ele>
        <time>2021-09-18T08:25:53.000Z</time>
      </trkpt>
      <trkpt lat="43.87603" lon="5.91635">
        <ele>345.700714</ele>
        <time>2021-09-18T08:25:57.000Z</time>
      </trkpt>
      <trkpt lat="43.87602" lon="5.91643">
        <ele>345.698522</ele>
        <time>2021-09-18T08:25:59.000Z</time>
      </trkpt>
      <trkpt lat="43.876" lon="5.91654">
        <ele>345.69576</ele>
        <time>2021-09-18T08:26:01.000Z</time>
      </trkpt>
      <trkpt lat="43.87599" lon="5.91688">
        <ele>345.687495</ele>
        <time>2021-09-18T08:26:07.000Z</time>
      </trkpt>
      <trkpt lat="43.87599" lon="5.91694">
        <ele>345.685867</ele>
        <time>2021-09-18T08:26:08.000Z</time>
      </trkpt>
      <trkpt lat="43.87608" lon="5.91718">
        <ele>345.679485</ele>
        <time>2021-09-18T08:26:12.000Z</time>
      </trkpt>
      <trkpt lat="43.8761" lon="5.91724">
        <ele>345.677829</ele>
        <time>2021-09-18T08:26:13.000Z</time>
      </trkpt>
      <trkpt lat="43.87613" lon="5.91734">
        <ele>345.675056</ele>
        <time>2021-09-18T08:26:15.000Z</time>
      </trkpt>
      <trkpt lat="43.87616" lon="5.91744">
        <ele>345.677393</ele>
        <time>2021-09-18T08:26:17.000Z</time>
      </trkpt>
      <trkpt lat="43.87619" lon="5.91765">
        <ele>345.687533</ele>
        <time>2021-09-18T08:26:21.000Z</time>
      </trkpt>
      <trkpt lat="43.87619" lon="5.91773">
        <ele>345.691302</ele>
        <time>2021-09-18T08:26:22.000Z</time>
      </trkpt>
      <trkpt lat="43.87613" lon="5.91798">
        <ele>345.70367</ele>
        <time>2021-09-18T08:26:25.000Z</time>
      </trkpt>
      <trkpt lat="43.87598" lon="5.91821">
        <ele>345.718286</ele>
        <time>2021-09-18T08:26:29.000Z</time>
      </trkpt>
      <trkpt lat="43.87592" lon="5.91834">
        <ele>345.725532</ele>
        <time>2021-09-18T08:26:31.000Z</time>
      </trkpt>
      <trkpt lat="43.8759" lon="5.91847">
        <ele>345.732226</ele>
        <time>2021-09-18T08:26:33.000Z</time>
      </trkpt>
      <trkpt lat="43.87589" lon="5.91862">
        <ele>345.739377</ele>
        <time>2021-09-18T08:26:35.000Z</time>
      </trkpt>
      <trkpt lat="43.87588" lon="5.91877">
        <ele>345.74646</ele>
        <time>2021-09-18T08:26:37.000Z</time>
      </trkpt>
      <trkpt lat="43.87588" lon="5.91885">
        <ele>345.750237</ele>
        <time>2021-09-18T08:26:38.000Z</time>
      </trkpt>
      <trkpt lat="43.87587" lon="5.91893">
        <ele>345.753972</ele>
        <time>2021-09-18T08:26:39.000Z</time>
      </trkpt>
      <trkpt lat="43.87585" lon="5.91925">
        <ele>345.769517</ele>
        <time>2021-09-18T08:26:43.000Z</time>
      </trkpt>
      <trkpt lat="43.87586" lon="5.91966">
        <ele>345.788835</ele>
        <time>2021-09-18T08:26:48.000Z</time>
      </trkpt>
      <trkpt lat="43.87587" lon="5.91997">
        <ele>346.027971</ele>
        <time>2021-09-18T08:26:52.000Z</time>
      </trkpt>
      <trkpt lat="43.87588" lon="5.92012">
        <ele>346.181696</ele>
        <time>2021-09-18T08:26:54.000Z</time>
      </trkpt>
      <trkpt lat="43.8759" lon="5.92028">
        <ele>346.348075</ele>
        <time>2021-09-18T08:26:56.000Z</time>
      </trkpt>
      <trkpt lat="43.8759" lon="5.92036">
        <ele>346.437663</ele>
        <time>2021-09-18T08:26:57.000Z</time>
      </trkpt>
      <trkpt lat="43.87595" lon="5.92051">
        <ele>346.604948</ele>
        <time>2021-09-18T08:26:59.000Z</time>
      </trkpt>
      <trkpt lat="43.87597" lon="5.92057">
        <ele>346.683016</ele>
        <time>2021-09-18T08:27:00.000Z</time>
      </trkpt>
      <trkpt lat="43.87621" lon="5.92102">
        <ele>347.254039</ele>
        <time>2021-09-18T08:27:07.000Z</time>
      </trkpt>
      <trkpt lat="43.87627" lon="5.92113">
        <ele>347.400543</ele>
        <time>2021-09-18T08:27:09.000Z</time>
      </trkpt>
      <trkpt lat="43.87631" lon="5.92125">
        <ele>347.542802</ele>
        <time>2021-09-18T08:27:11.000Z</time>
      </trkpt>
      <trkpt lat="43.87629" lon="5.92144">
        <ele>347.741895</ele>
        <time>2021-09-18T08:27:13.000Z</time>
      </trkpt>
      <trkpt lat="43.87625" lon="5.92151">
        <ele>347.834339</ele>
        <time>2021-09-18T08:27:14.000Z</time>
      </trkpt>
      <trkpt lat="43.87616" lon="5.92159">
        <ele>347.988314</ele>
        <time>2021-09-18T08:27:16.000Z</time>
      </trkpt>
      <trkpt lat="43.87602" lon="5.9217">
        <ele>348.221313</ele>
        <time>2021-09-18T08:27:20.000Z</time>
      </trkpt>
      <trkpt lat="43.87592" lon="5.92179">
        <ele>348.39577</ele>
        <time>2021-09-18T08:27:23.000Z</time>
      </trkpt>
      <trkpt lat="43.87585" lon="5.92187">
        <ele>348.520173</ele>
        <time>2021-09-18T08:27:25.000Z</time>
      </trkpt>
      <trkpt lat="43.87579" lon="5.922">
        <ele>348.689807</ele>
        <time>2021-09-18T08:27:28.000Z</time>
      </trkpt>
      <trkpt lat="43.87575" lon="5.92219">
        <ele>348.901711</ele>
        <time>2021-09-18T08:27:32.000Z</time>
      </trkpt>
      <trkpt lat="43.87581" lon="5.92267">
        <ele>349.413524</ele>
        <time>2021-09-18T08:27:37.000Z</time>
      </trkpt>
      <trkpt lat="43.87583" lon="5.9228">
        <ele>349.550487</ele>
        <time>2021-09-18T08:27:39.000Z</time>
      </trkpt>
      <trkpt lat="43.87584" lon="5.92302">
        <ele>349.790636</ele>
        <time>2021-09-18T08:27:44.000Z</time>
      </trkpt>
      <trkpt lat="43.87584" lon="5.92333">
        <ele>350.112754</ele>
        <time>2021-09-18T08:27:48.000Z</time>
      </trkpt>
      <trkpt lat="43.87582" lon="5.92392">
        <ele>350.735001</ele>
        <time>2021-09-18T08:27:56.000Z</time>
      </trkpt>
      <trkpt lat="43.87581" lon="5.92433">
        <ele>351.058899</ele>
        <time>2021-09-18T08:28:02.000Z</time>
      </trkpt>
      <trkpt lat="43.8758" lon="5.9246">
        <ele>351.117473</ele>
        <time>2021-09-18T08:28:06.000Z</time>
      </trkpt>
      <trkpt lat="43.87581" lon="5.92507">
        <ele>351.220533</ele>
        <time>2021-09-18T08:28:12.000Z</time>
      </trkpt>
      <trkpt lat="43.87581" lon="5.92515">
        <ele>351.238001</ele>
        <time>2021-09-18T08:28:13.000Z</time>
      </trkpt>
      <trkpt lat="43.87581" lon="5.92539">
        <ele>351.291504</ele>
        <time>2021-09-18T08:28:16.000Z</time>
      </trkpt>
      <trkpt lat="43.87582" lon="5.92557">
        <ele>351.329155</ele>
        <time>2021-09-18T08:28:18.000Z</time>
      </trkpt>
      <trkpt lat="43.87583" lon="5.92572">
        <ele>351.363347</ele>
        <time>2021-09-18T08:28:20.000Z</time>
      </trkpt>
      <trkpt lat="43.87585" lon="5.92603">
        <ele>351.430891</ele>
        <time>2021-09-18T08:28:24.000Z</time>
      </trkpt>
      <trkpt lat="43.87586" lon="5.92618">
        <ele>351.463127</ele>
        <time>2021-09-18T08:28:26.000Z</time>
      </trkpt>
      <trkpt lat="43.87588" lon="5.92646">
        <ele>351.5245</ele>
        <time>2021-09-18T08:28:31.000Z</time>
      </trkpt>
      <trkpt lat="43.87589" lon="5.92657">
        <ele>351.548802</ele>
        <time>2021-09-18T08:28:33.000Z</time>
      </trkpt>
      <trkpt lat="43.8759" lon="5.92676">
        <ele>351.605335</ele>
        <time>2021-09-18T08:28:36.000Z</time>
      </trkpt>
      <trkpt lat="43.8759" lon="5.92682">
        <ele>351.631807</ele>
        <time>2021-09-18T08:28:37.000Z</time>
      </trkpt>
      <trkpt lat="43.87592" lon="5.92712">
        <ele>351.757735</ele>
        <time>2021-09-18T08:28:41.000Z</time>
      </trkpt>
      <trkpt lat="43.87597" lon="5.92759">
        <ele>351.953703</ele>
        <time>2021-09-18T08:28:47.000Z</time>
      </trkpt>
      <trkpt lat="43.87597" lon="5.92765">
        <ele>351.982637</ele>
        <time>2021-09-18T08:28:48.000Z</time>
      </trkpt>
      <trkpt lat="43.87596" lon="5.92787">
        <ele>352.071147</ele>
        <time>2021-09-18T08:28:51.000Z</time>
      </trkpt>
      <trkpt lat="43.87595" lon="5.9283">
        <ele>352.251228</ele>
        <time>2021-09-18T08:28:57.000Z</time>
      </trkpt>
      <trkpt lat="43.87598" lon="5.92844">
        <ele>352.314448</ele>
        <time>2021-09-18T08:28:59.000Z</time>
      </trkpt>
      <trkpt lat="43.876" lon="5.92858">
        <ele>352.375665</ele>
        <time>2021-09-18T08:29:01.000Z</time>
      </trkpt>
      <trkpt lat="43.8761" lon="5.92895">
        <ele>352.539876</ele>
        <time>2021-09-18T08:29:07.000Z</time>
      </trkpt>
      <trkpt lat="43.87614" lon="5.92928">
        <ele>352.623192</ele>
        <time>2021-09-18T08:29:12.000Z</time>
      </trkpt>
      <trkpt lat="43.87615" lon="5.92962">
        <ele>352.633343</ele>
        <time>2021-09-18T08:29:17.000Z</time>
      </trkpt>
      <trkpt lat="43.87615" lon="5.92988">
        <ele>352.641097</ele>
        <time>2021-09-18T08:29:21.000Z</time>
      </trkpt>
      <trkpt lat="43.87615" lon="5.93">
        <ele>352.644619</ele>
        <time>2021-09-18T08:29:23.000Z</time>
      </trkpt>
      <trkpt lat="43.87615" lon="5.93034">
        <ele>352.654623</ele>
        <time>2021-09-18T08:29:28.000Z</time>
      </trkpt>
      <trkpt lat="43.87616" lon="5.93059">
        <ele>352.66191</ele>
        <time>2021-09-18T08:29:31.000Z</time>
      </trkpt>
      <trkpt lat="43.87617" lon="5.93076">
        <ele>352.667028</ele>
        <time>2021-09-18T08:29:33.000Z</time>
      </trkpt>
      <trkpt lat="43.8762" lon="5.93115">
        <ele>352.678698</ele>
        <time>2021-09-18T08:29:38.000Z</time>
      </trkpt>
      <trkpt lat="43.87624" lon="5.93157">
        <ele>352.69123</ele>
        <time>2021-09-18T08:29:43.000Z</time>
      </trkpt>
      <trkpt lat="43.87624" lon="5.93165">
        <ele>352.696942</ele>
        <time>2021-09-18T08:29:44.000Z</time>
      </trkpt>
      <trkpt lat="43.87625" lon="5.9318">
        <ele>352.719656</ele>
        <time>2021-09-18T08:29:46.000Z</time>
      </trkpt>
      <trkpt lat="43.87626" lon="5.93195">
        <ele>352.74252</ele>
        <time>2021-09-18T08:29:48.000Z</time>
      </trkpt>
      <trkpt lat="43.87628" lon="5.93243">
        <ele>352.814442</ele>
        <time>2021-09-18T08:29:54.000Z</time>
      </trkpt>
      <trkpt lat="43.8763" lon="5.93265">
        <ele>352.848028</ele>
        <time>2021-09-18T08:29:57.000Z</time>
      </trkpt>
      <trkpt lat="43.87631" lon="5.93281">
        <ele>352.871918</ele>
        <time>2021-09-18T08:29:59.000Z</time>
      </trkpt>
      <trkpt lat="43.87633" lon="5.93295">
        <ele>352.893808</ele>
        <time>2021-09-18T08:30:01.000Z</time>
      </trkpt>
      <trkpt lat="43.87635" lon="5.93316">
        <ele>352.926219</ele>
        <time>2021-09-18T08:30:04.000Z</time>
      </trkpt>
      <trkpt lat="43.87636" lon="5.9333">
        <ele>352.94706</ele>
        <time>2021-09-18T08:30:06.000Z</time>
      </trkpt>
      <trkpt lat="43.87637" lon="5.93344">
        <ele>352.968976</ele>
        <time>2021-09-18T08:30:08.000Z</time>
      </trkpt>
      <trkpt lat="43.8764" lon="5.93375">
        <ele>353.01598</ele>
        <time>2021-09-18T08:30:12.000Z</time>
      </trkpt>
      <trkpt lat="43.87641" lon="5.9339">
        <ele>353.038699</ele>
        <time>2021-09-18T08:30:14.000Z</time>
      </trkpt>
      <trkpt lat="43.87643" lon="5.93404">
        <ele>353.060193</ele>
        <time>2021-09-18T08:30:16.000Z</time>
      </trkpt>
      <trkpt lat="43.87644" lon="5.93419">
        <ele>353.102518</ele>
        <time>2021-09-18T08:30:18.000Z</time>
      </trkpt>
      <trkpt lat="43.87646" lon="5.93434">
        <ele>353.165393</ele>
        <time>2021-09-18T08:30:20.000Z</time>
      </trkpt>
      <trkpt lat="43.87649" lon="5.93465">
        <ele>353.289548</ele>
        <time>2021-09-18T08:30:24.000Z</time>
      </trkpt>
      <trkpt lat="43.87651" lon="5.93494">
        <ele>353.408102</ele>
        <time>2021-09-18T08:30:28.000Z</time>
      </trkpt>
      <trkpt lat="43.87651" lon="5.93507">
        <ele>353.462388</ele>
        <time>2021-09-18T08:30:30.000Z</time>
      </trkpt>
      <trkpt lat="43.87652" lon="5.93548">
        <ele>353.626077</ele>
        <time>2021-09-18T08:30:36.000Z</time>
      </trkpt>
      <trkpt lat="43.87653" lon="5.93555">
        <ele>353.652897</ele>
        <time>2021-09-18T08:30:37.000Z</time>
      </trkpt>
      <trkpt lat="43.87656" lon="5.93581">
        <ele>353.758242</ele>
        <time>2021-09-18T08:30:41.000Z</time>
      </trkpt>
      <trkpt lat="43.87657" lon="5.93587">
        <ele>353.785546</ele>
        <time>2021-09-18T08:30:42.000Z</time>
      </trkpt>
      <trkpt lat="43.87659" lon="5.93608">
        <ele>353.868437</ele>
        <time>2021-09-18T08:30:45.000Z</time>
      </trkpt>
      <trkpt lat="43.87666" lon="5.93657">
        <ele>354.069446</ele>
        <time>2021-09-18T08:30:52.000Z</time>
      </trkpt>
      <trkpt lat="43.87668" lon="5.9367">
        <ele>354.277842</ele>
        <time>2021-09-18T08:30:54.000Z</time>
      </trkpt>
      <trkpt lat="43.8767" lon="5.93684">
        <ele>354.509204</ele>
        <time>2021-09-18T08:30:56.000Z</time>
      </trkpt>
      <trkpt lat="43.87671" lon="5.9369">
        <ele>354.609922</ele>
        <time>2021-09-18T08:30:57.000Z</time>
      </trkpt>
      <trkpt lat="43.87675" lon="5.93728">
        <ele>355.224134</ele>
        <time>2021-09-18T08:31:02.000Z</time>
      </trkpt>
      <trkpt lat="43.87676" lon="5.93754">
        <ele>355.629305</ele>
        <time>2021-09-18T08:31:05.000Z</time>
      </trkpt>
      <trkpt lat="43.87676" lon="5.93769">
        <ele>355.880397</ele>
        <time>2021-09-18T08:31:07.000Z</time>
      </trkpt>
      <trkpt lat="43.87676" lon="5.93778">
        <ele>356.01639</ele>
        <time>2021-09-18T08:31:08.000Z</time>
      </trkpt>
      <trkpt lat="43.87676" lon="5.93803">
        <ele>356.421051</ele>
        <time>2021-09-18T08:31:11.000Z</time>
      </trkpt>
      <trkpt lat="43.87675" lon="5.93819">
        <ele>356.678586</ele>
        <time>2021-09-18T08:31:13.000Z</time>
      </trkpt>
      <trkpt lat="43.87675" lon="5.93849">
        <ele>357.152096</ele>
        <time>2021-09-18T08:31:17.000Z</time>
      </trkpt>
      <trkpt lat="43.87676" lon="5.93878">
        <ele>357.622645</ele>
        <time>2021-09-18T08:31:22.000Z</time>
      </trkpt>
      <trkpt lat="43.87676" lon="5.9389">
        <ele>357.818348</ele>
        <time>2021-09-18T08:31:24.000Z</time>
      </trkpt>
      <trkpt lat="43.87678" lon="5.93911">
        <ele>358.12818</ele>
        <time>2021-09-18T08:31:27.000Z</time>
      </trkpt>
      <trkpt lat="43.87679" lon="5.93924">
        <ele>358.281992</ele>
        <time>2021-09-18T08:31:29.000Z</time>
      </trkpt>
      <trkpt lat="43.87682" lon="5.93947">
        <ele>358.546644</ele>
        <time>2021-09-18T08:31:32.000Z</time>
      </trkpt>
      <trkpt lat="43.87691" lon="5.93973">
        <ele>358.881371</ele>
        <time>2021-09-18T08:31:35.000Z</time>
      </trkpt>
      <trkpt lat="43.87698" lon="5.93984">
        <ele>359.04972</ele>
        <time>2021-09-18T08:31:37.000Z</time>
      </trkpt>
      <trkpt lat="43.8771" lon="5.94004">
        <ele>359.353355</ele>
        <time>2021-09-18T08:31:41.000Z</time>
      </trkpt>
      <trkpt lat="43.87718" lon="5.94016">
        <ele>359.542914</ele>
        <time>2021-09-18T08:31:43.000Z</time>
      </trkpt>
      <trkpt lat="43.87728" lon="5.94031">
        <ele>359.780502</ele>
        <time>2021-09-18T08:31:46.000Z</time>
      </trkpt>
      <trkpt lat="43.87738" lon="5.94051">
        <ele>360.062572</ele>
        <time>2021-09-18T08:31:49.000Z</time>
      </trkpt>
      <trkpt lat="43.8774" lon="5.94059">
        <ele>360.161426</ele>
        <time>2021-09-18T08:31:50.000Z</time>
      </trkpt>
      <trkpt lat="43.87742" lon="5.94079">
        <ele>360.394149</ele>
        <time>2021-09-18T08:31:52.000Z</time>
      </trkpt>
      <trkpt lat="43.8774" lon="5.94087">
        <ele>360.489619</ele>
        <time>2021-09-18T08:31:53.000Z</time>
      </trkpt>
      <trkpt lat="43.87737" lon="5.94097">
        <ele>360.612072</ele>
        <time>2021-09-18T08:31:54.000Z</time>
      </trkpt>
      <trkpt lat="43.87727" lon="5.94119">
        <ele>360.916406</ele>
        <time>2021-09-18T08:31:57.000Z</time>
      </trkpt>
      <trkpt lat="43.87723" lon="5.94132">
        <ele>361.072023</ele>
        <time>2021-09-18T08:31:59.000Z</time>
      </trkpt>
      <trkpt lat="43.87722" lon="5.94139">
        <ele>361.15053</ele>
        <time>2021-09-18T08:32:00.000Z</time>
      </trkpt>
      <trkpt lat="43.87722" lon="5.94147">
        <ele>361.235205</ele>
        <time>2021-09-18T08:32:01.000Z</time>
      </trkpt>
      <trkpt lat="43.87726" lon="5.94161">
        <ele>361.400123</ele>
        <time>2021-09-18T08:32:03.000Z</time>
      </trkpt>
      <trkpt lat="43.87731" lon="5.94173">
        <ele>361.552396</ele>
        <time>2021-09-18T08:32:05.000Z</time>
      </trkpt>
      <trkpt lat="43.87739" lon="5.9419">
        <ele>361.771169</ele>
        <time>2021-09-18T08:32:08.000Z</time>
      </trkpt>
      <trkpt lat="43.87741" lon="5.94195">
        <ele>361.843205</ele>
        <time>2021-09-18T08:32:09.000Z</time>
      </trkpt>
      <trkpt lat="43.87749" lon="5.94213">
        <ele>362.068452</ele>
        <time>2021-09-18T08:32:12.000Z</time>
      </trkpt>
      <trkpt lat="43.87752" lon="5.94227">
        <ele>362.22558</ele>
        <time>2021-09-18T08:32:14.000Z</time>
      </trkpt>
      <trkpt lat="43.87754" lon="5.94233">
        <ele>362.29462</ele>
        <time>2021-09-18T08:32:15.000Z</time>
      </trkpt>
      <trkpt lat="43.87758" lon="5.94258">
        <ele>362.575765</ele>
        <time>2021-09-18T08:32:18.000Z</time>
      </trkpt>
      <trkpt lat="43.8776" lon="5.94273">
        <ele>362.742566</ele>
        <time>2021-09-18T08:32:20.000Z</time>
      </trkpt>
      <trkpt lat="43.8776" lon="5.94277">
        <ele>362.78571</ele>
        <time>2021-09-18T08:32:21.000Z</time>
      </trkpt>
      <trkpt lat="43.87761" lon="5.94281">
        <ele>362.832604</ele>
        <time>2021-09-18T08:32:22.000Z</time>
      </trkpt>
      <trkpt lat="43.87762" lon="5.94287">
        <ele>362.901335</ele>
        <time>2021-09-18T08:32:23.000Z</time>
      </trkpt>
      <trkpt lat="43.87765" lon="5.94315">
        <ele>363.213654</ele>
        <time>2021-09-18T08:32:27.000Z</time>
      </trkpt>
      <trkpt lat="43.87767" lon="5.94326">
        <ele>363.337071</ele>
        <time>2021-09-18T08:32:29.000Z</time>
      </trkpt>
      <trkpt lat="43.87767" lon="5.94339">
        <ele>363.477662</ele>
        <time>2021-09-18T08:32:31.000Z</time>
      </trkpt>
      <trkpt lat="43.87768" lon="5.94352">
        <ele>363.623525</ele>
        <time>2021-09-18T08:32:33.000Z</time>
      </trkpt>
      <trkpt lat="43.87769" lon="5.94372">
        <ele>364.05096</ele>
        <time>2021-09-18T08:32:35.000Z</time>
      </trkpt>
      <trkpt lat="43.87772" lon="5.94393">
        <ele>364.617539</ele>
        <time>2021-09-18T08:32:37.000Z</time>
      </trkpt>
      <trkpt lat="43.87775" lon="5.9441">
        <ele>365.058188</ele>
        <time>2021-09-18T08:32:39.000Z</time>
      </trkpt>
      <trkpt lat="43.87777" lon="5.94416">
        <ele>365.218842</ele>
        <time>2021-09-18T08:32:40.000Z</time>
      </trkpt>
      <trkpt lat="43.87781" lon="5.94433">
        <ele>365.695568</ele>
        <time>2021-09-18T08:32:43.000Z</time>
      </trkpt>
      <trkpt lat="43.87785" lon="5.94452">
        <ele>366.179985</ele>
        <time>2021-09-18T08:32:46.000Z</time>
      </trkpt>
      <trkpt lat="43.87787" lon="5.94465">
        <ele>366.534038</ele>
        <time>2021-09-18T08:32:48.000Z</time>
      </trkpt>
      <trkpt lat="43.87789" lon="5.94497">
        <ele>367.366556</ele>
        <time>2021-09-18T08:32:52.000Z</time>
      </trkpt>
      <trkpt lat="43.87789" lon="5.94511">
        <ele>367.726409</ele>
        <time>2021-09-18T08:32:54.000Z</time>
      </trkpt>
      <trkpt lat="43.87791" lon="5.94545">
        <ele>368.602434</ele>
        <time>2021-09-18T08:32:57.000Z</time>
      </trkpt>
      <trkpt lat="43.87792" lon="5.94561">
        <ele>369.011136</ele>
        <time>2021-09-18T08:32:59.000Z</time>
      </trkpt>
      <trkpt lat="43.87793" lon="5.94584">
        <ele>369.604761</ele>
        <time>2021-09-18T08:33:02.000Z</time>
      </trkpt>
      <trkpt lat="43.87794" lon="5.94593">
        <ele>369.814916</ele>
        <time>2021-09-18T08:33:03.000Z</time>
      </trkpt>
      <trkpt lat="43.87794" lon="5.946">
        <ele>370.002295</ele>
        <time>2021-09-18T08:33:04.000Z</time>
      </trkpt>
      <trkpt lat="43.87804" lon="5.94627">
        <ele>370.828438</ele>
        <time>2021-09-18T08:33:08.000Z</time>
      </trkpt>
      <trkpt lat="43.87806" lon="5.94633">
        <ele>370.998444</ele>
        <time>2021-09-18T08:33:09.000Z</time>
      </trkpt>
      <trkpt lat="43.87813" lon="5.94654">
        <ele>371.635359</ele>
        <time>2021-09-18T08:33:13.000Z</time>
      </trkpt>
      <trkpt lat="43.87817" lon="5.94682">
        <ele>372.44136</ele>
        <time>2021-09-18T08:33:18.000Z</time>
      </trkpt>
      <trkpt lat="43.87817" lon="5.94707">
        <ele>373.139573</ele>
        <time>2021-09-18T08:33:23.000Z</time>
      </trkpt>
      <trkpt lat="43.87817" lon="5.94725">
        <ele>373.614247</ele>
        <time>2021-09-18T08:33:26.000Z</time>
      </trkpt>
      <trkpt lat="43.87819" lon="5.94741">
        <ele>374.070472</ele>
        <time>2021-09-18T08:33:29.000Z</time>
      </trkpt>
      <trkpt lat="43.87829" lon="5.94787">
        <ele>375.392257</ele>
        <time>2021-09-18T08:33:35.000Z</time>
      </trkpt>
      <trkpt lat="43.87832" lon="5.948">
        <ele>375.790843</ele>
        <time>2021-09-18T08:33:37.000Z</time>
      </trkpt>
      <trkpt lat="43.8784" lon="5.94816">
        <ele>376.313157</ele>
        <time>2021-09-18T08:33:40.000Z</time>
      </trkpt>
      <trkpt lat="43.87854" lon="5.94841">
        <ele>376.98283</ele>
        <time>2021-09-18T08:33:45.000Z</time>
      </trkpt>
      <trkpt lat="43.87856" lon="5.94847">
        <ele>377.001649</ele>
        <time>2021-09-18T08:33:46.000Z</time>
      </trkpt>
      <trkpt lat="43.87859" lon="5.94853">
        <ele>377.020468</ele>
        <time>2021-09-18T08:33:47.000Z</time>
      </trkpt>
      <trkpt lat="43.87863" lon="5.94876">
        <ele>377.08526</ele>
        <time>2021-09-18T08:33:50.000Z</time>
      </trkpt>
      <trkpt lat="43.87863" lon="5.94884">
        <ele>377.106792</ele>
        <time>2021-09-18T08:33:51.000Z</time>
      </trkpt>
      <trkpt lat="43.8786" lon="5.94936">
        <ele>377.251769</ele>
        <time>2021-09-18T08:33:57.000Z</time>
      </trkpt>
      <trkpt lat="43.8786" lon="5.94943">
        <ele>377.271051</ele>
        <time>2021-09-18T08:33:58.000Z</time>
      </trkpt>
      <trkpt lat="43.87863" lon="5.94975">
        <ele>377.358151</ele>
        <time>2021-09-18T08:34:02.000Z</time>
      </trkpt>
      <trkpt lat="43.87864" lon="5.94983">
        <ele>377.382313</ele>
        <time>2021-09-18T08:34:03.000Z</time>
      </trkpt>
      <trkpt lat="43.87871" lon="5.95008">
        <ele>377.455667</ele>
        <time>2021-09-18T08:34:06.000Z</time>
      </trkpt>
      <trkpt lat="43.87877" lon="5.95021">
        <ele>377.499399</ele>
        <time>2021-09-18T08:34:08.000Z</time>
      </trkpt>
      <trkpt lat="43.87886" lon="5.95034">
        <ele>377.547458</ele>
        <time>2021-09-18T08:34:10.000Z</time>
      </trkpt>
      <trkpt lat="43.87908" lon="5.95066">
        <ele>377.566684</ele>
        <time>2021-09-18T08:34:15.000Z</time>
      </trkpt>
      <trkpt lat="43.87912" lon="5.95073">
        <ele>377.478306</ele>
        <time>2021-09-18T08:34:16.000Z</time>
      </trkpt>
      <trkpt lat="43.87934" lon="5.95128">
        <ele>376.821415</ele>
        <time>2021-09-18T08:34:23.000Z</time>
      </trkpt>
      <trkpt lat="43.87937" lon="5.95146">
        <ele>376.626371</ele>
        <time>2021-09-18T08:34:25.000Z</time>
      </trkpt>
      <trkpt lat="43.87935" lon="5.95166">
        <ele>376.422105</ele>
        <time>2021-09-18T08:34:27.000Z</time>
      </trkpt>
      <trkpt lat="43.87934" lon="5.95175">
        <ele>376.33111</ele>
        <time>2021-09-18T08:34:28.000Z</time>
      </trkpt>
      <trkpt lat="43.87932" lon="5.95191">
        <ele>376.157522</ele>
        <time>2021-09-18T08:34:30.000Z</time>
      </trkpt>
      <trkpt lat="43.8793" lon="5.95199">
        <ele>376.075218</ele>
        <time>2021-09-18T08:34:31.000Z</time>
      </trkpt>
      <trkpt lat="43.87929" lon="5.95206">
        <ele>375.997988</ele>
        <time>2021-09-18T08:34:32.000Z</time>
      </trkpt>
      <trkpt lat="43.87928" lon="5.95218">
        <ele>375.872631</ele>
        <time>2021-09-18T08:34:34.000Z</time>
      </trkpt>
      <trkpt lat="43.87928" lon="5.95226">
        <ele>375.787716</ele>
        <time>2021-09-18T08:34:35.000Z</time>
      </trkpt>
      <trkpt lat="43.8793" lon="5.95243">
        <ele>375.606042</ele>
        <time>2021-09-18T08:34:37.000Z</time>
      </trkpt>
      <trkpt lat="43.87935" lon="5.95259">
        <ele>375.431188</ele>
        <time>2021-09-18T08:34:39.000Z</time>
      </trkpt>
      <trkpt lat="43.87948" lon="5.95278">
        <ele>375.162631</ele>
        <time>2021-09-18T08:34:42.000Z</time>
      </trkpt>
      <trkpt lat="43.87953" lon="5.95282">
        <ele>375.074668</ele>
        <time>2021-09-18T08:34:43.000Z</time>
      </trkpt>
      <trkpt lat="43.87987" lon="5.95314">
        <ele>374.724342</ele>
        <time>2021-09-18T08:34:50.000Z</time>
      </trkpt>
      <trkpt lat="43.88016" lon="5.95359">
        <ele>374.355994</ele>
        <time>2021-09-18T08:34:58.000Z</time>
      </trkpt>
      <trkpt lat="43.88023" lon="5.95371">
        <ele>374.263233</ele>
        <time>2021-09-18T08:35:00.000Z</time>
      </trkpt>
      <trkpt lat="43.88027" lon="5.95385">
        <ele>374.169639</ele>
        <time>2021-09-18T08:35:02.000Z</time>
      </trkpt>
      <trkpt lat="43.88027" lon="5.95392">
        <ele>374.130489</ele>
        <time>2021-09-18T08:35:03.000Z</time>
      </trkpt>
      <trkpt lat="43.88031" lon="5.9543">
        <ele>373.896004</ele>
        <time>2021-09-18T08:35:09.000Z</time>
      </trkpt>
      <trkpt lat="43.8803" lon="5.95474">
        <ele>373.628381</ele>
        <time>2021-09-18T08:35:16.000Z</time>
      </trkpt>
      <trkpt lat="43.8803" lon="5.95492">
        <ele>373.552908</ele>
        <time>2021-09-18T08:35:19.000Z</time>
      </trkpt>
      <trkpt lat="43.8803" lon="5.95503">
        <ele>373.570274</ele>
        <time>2021-09-18T08:35:21.000Z</time>
      </trkpt>
      <trkpt lat="43.88031" lon="5.95515">
        <ele>373.588526</ele>
        <time>2021-09-18T08:35:23.000Z</time>
      </trkpt>
      <trkpt lat="43.88038" lon="5.95539">
        <ele>373.629806</ele>
        <time>2021-09-18T08:35:28.000Z</time>
      </trkpt>
      <trkpt lat="43.88047" lon="5.95571">
        <ele>373.684573</ele>
        <time>2021-09-18T08:35:35.000Z</time>
      </trkpt>
      <trkpt lat="43.88055" lon="5.95609">
        <ele>373.746173</ele>
        <time>2021-09-18T08:35:42.000Z</time>
      </trkpt>
      <trkpt lat="43.88053" lon="5.95643">
        <ele>373.800542</ele>
        <time>2021-09-18T08:35:48.000Z</time>
      </trkpt>
      <trkpt lat="43.88052" lon="5.95649">
        <ele>373.809677</ele>
        <time>2021-09-18T08:35:49.000Z</time>
      </trkpt>
      <trkpt lat="43.88048" lon="5.95665">
        <ele>373.837533</ele>
        <time>2021-09-18T08:35:52.000Z</time>
      </trkpt>
      <trkpt lat="43.88044" lon="5.95676">
        <ele>373.85718</ele>
        <time>2021-09-18T08:35:54.000Z</time>
      </trkpt>
      <trkpt lat="43.88036" lon="5.95695">
        <ele>373.891909</ele>
        <time>2021-09-18T08:35:58.000Z</time>
      </trkpt>
      <trkpt lat="43.88033" lon="5.957">
        <ele>373.901042</ele>
        <time>2021-09-18T08:35:59.000Z</time>
      </trkpt>
      <trkpt lat="43.88028" lon="5.95713">
        <ele>373.924561</ele>
        <time>2021-09-18T08:36:01.000Z</time>
      </trkpt>
      <trkpt lat="43.88022" lon="5.95731">
        <ele>373.966141</ele>
        <time>2021-09-18T08:36:04.000Z</time>
      </trkpt>
      <trkpt lat="43.8802" lon="5.95758">
        <ele>374.036914</ele>
        <time>2021-09-18T08:36:07.000Z</time>
      </trkpt>
      <trkpt lat="43.88021" lon="5.95765">
        <ele>374.056348</ele>
        <time>2021-09-18T08:36:08.000Z</time>
      </trkpt>
      <trkpt lat="43.88026" lon="5.95793">
        <ele>374.132304</ele>
        <time>2021-09-18T08:36:12.000Z</time>
      </trkpt>
      <trkpt lat="43.8803" lon="5.95805">
        <ele>374.167353</ele>
        <time>2021-09-18T08:36:14.000Z</time>
      </trkpt>
      <trkpt lat="43.88037" lon="5.95816">
        <ele>374.205492</ele>
        <time>2021-09-18T08:36:16.000Z</time>
      </trkpt>
      <trkpt lat="43.88051" lon="5.95824">
        <ele>374.260332</ele>
        <time>2021-09-18T08:36:19.000Z</time>
      </trkpt>
      <trkpt lat="43.88061" lon="5.95827">
        <ele>374.295274</ele>
        <time>2021-09-18T08:36:21.000Z</time>
      </trkpt>
      <trkpt lat="43.88071" lon="5.95831">
        <ele>374.333315</ele>
        <time>2021-09-18T08:36:23.000Z</time>
      </trkpt>
      <trkpt lat="43.88081" lon="5.95838">
        <ele>374.374518</ele>
        <time>2021-09-18T08:36:25.000Z</time>
      </trkpt>
      <trkpt lat="43.88086" lon="5.95843">
        <ele>374.39584</ele>
        <time>2021-09-18T08:36:26.000Z</time>
      </trkpt>
      <trkpt lat="43.88115" lon="5.9587">
        <ele>374.52288</ele>
        <time>2021-09-18T08:36:32.000Z</time>
      </trkpt>
      <trkpt lat="43.88152" lon="5.95904">
        <ele>374.512494</ele>
        <time>2021-09-18T08:36:39.000Z</time>
      </trkpt>
      <trkpt lat="43.88183" lon="5.95937">
        <ele>374.39267</ele>
        <time>2021-09-18T08:36:45.000Z</time>
      </trkpt>
      <trkpt lat="43.88187" lon="5.95944">
        <ele>374.372034</ele>
        <time>2021-09-18T08:36:46.000Z</time>
      </trkpt>
      <trkpt lat="43.88191" lon="5.95952">
        <ele>374.350707</ele>
        <time>2021-09-18T08:36:47.000Z</time>
      </trkpt>
      <trkpt lat="43.88198" lon="5.95968">
        <ele>374.307211</ele>
        <time>2021-09-18T08:36:49.000Z</time>
      </trkpt>
      <trkpt lat="43.88201" lon="5.95977">
        <ele>374.285188</ele>
        <time>2021-09-18T08:36:50.000Z</time>
      </trkpt>
      <trkpt lat="43.8821" lon="5.96034">
        <ele>374.15363</ele>
        <time>2021-09-18T08:36:56.000Z</time>
      </trkpt>
      <trkpt lat="43.88219" lon="5.96094">
        <ele>374.035006</ele>
        <time>2021-09-18T08:37:03.000Z</time>
      </trkpt>
      <trkpt lat="43.88227" lon="5.96162">
        <ele>374.068137</ele>
        <time>2021-09-18T08:37:12.000Z</time>
      </trkpt>
      <trkpt lat="43.88231" lon="5.96211">
        <ele>374.092082</ele>
        <time>2021-09-18T08:37:19.000Z</time>
      </trkpt>
      <trkpt lat="43.88235" lon="5.96249">
        <ele>374.111105</ele>
        <time>2021-09-18T08:37:25.000Z</time>
      </trkpt>
      <trkpt lat="43.88236" lon="5.96258">
        <ele>374.115122</ele>
        <time>2021-09-18T08:37:26.000Z</time>
      </trkpt>
      <trkpt lat="43.88237" lon="5.96314">
        <ele>374.142425</ele>
        <time>2021-09-18T08:37:32.000Z</time>
      </trkpt>
      <trkpt lat="43.88239" lon="5.96371">
        <ele>374.22675</ele>
        <time>2021-09-18T08:37:38.000Z</time>
      </trkpt>
      <trkpt lat="43.88239" lon="5.96388">
        <ele>374.262846</ele>
        <time>2021-09-18T08:37:40.000Z</time>
      </trkpt>
      <trkpt lat="43.8824" lon="5.96402">
        <ele>374.29249</ele>
        <time>2021-09-18T08:37:42.000Z</time>
      </trkpt>
      <trkpt lat="43.88243" lon="5.9644">
        <ele>374.372462</ele>
        <time>2021-09-18T08:37:46.000Z</time>
      </trkpt>
      <trkpt lat="43.88245" lon="5.96448">
        <ele>374.390306</ele>
        <time>2021-09-18T08:37:47.000Z</time>
      </trkpt>
      <trkpt lat="43.88252" lon="5.96471">
        <ele>374.441303</ele>
        <time>2021-09-18T08:37:50.000Z</time>
      </trkpt>
      <trkpt lat="43.8826" lon="5.96485">
        <ele>374.477489</ele>
        <time>2021-09-18T08:37:52.000Z</time>
      </trkpt>
      <trkpt lat="43.88264" lon="5.96491">
        <ele>374.494914</ele>
        <time>2021-09-18T08:37:53.000Z</time>
      </trkpt>
      <trkpt lat="43.88271" lon="5.96504">
        <ele>374.528899</ele>
        <time>2021-09-18T08:37:55.000Z</time>
      </trkpt>
      <trkpt lat="43.88273" lon="5.96512">
        <ele>374.54627</ele>
        <time>2021-09-18T08:37:56.000Z</time>
      </trkpt>
      <trkpt lat="43.88278" lon="5.96529">
        <ele>374.584306</ele>
        <time>2021-09-18T08:37:58.000Z</time>
      </trkpt>
      <trkpt lat="43.8828" lon="5.96545">
        <ele>374.619685</ele>
        <time>2021-09-18T08:38:00.000Z</time>
      </trkpt>
      <trkpt lat="43.8828" lon="5.96565">
        <ele>374.660328</ele>
        <time>2021-09-18T08:38:02.000Z</time>
      </trkpt>
      <trkpt lat="43.88276" lon="5.96592">
        <ele>374.798479</ele>
        <time>2021-09-18T08:38:05.000Z</time>
      </trkpt>
      <trkpt lat="43.88274" lon="5.966">
        <ele>374.845448</ele>
        <time>2021-09-18T08:38:06.000Z</time>
      </trkpt>
      <trkpt lat="43.88271" lon="5.96615">
        <ele>374.934532</ele>
        <time>2021-09-18T08:38:08.000Z</time>
      </trkpt>
      <trkpt lat="43.88269" lon="5.96622">
        <ele>374.979621</ele>
        <time>2021-09-18T08:38:09.000Z</time>
      </trkpt>
      <trkpt lat="43.88266" lon="5.96638">
        <ele>375.073636</ele>
        <time>2021-09-18T08:38:11.000Z</time>
      </trkpt>
      <trkpt lat="43.88264" lon="5.96672">
        <ele>375.266414</ele>
        <time>2021-09-18T08:38:15.000Z</time>
      </trkpt>
      <trkpt lat="43.88265" lon="5.96687">
        <ele>375.356306</ele>
        <time>2021-09-18T08:38:17.000Z</time>
      </trkpt>
      <trkpt lat="43.88272" lon="5.96714">
        <ele>375.519004</ele>
        <time>2021-09-18T08:38:21.000Z</time>
      </trkpt>
      <trkpt lat="43.88285" lon="5.9675">
        <ele>375.752331</ele>
        <time>2021-09-18T08:38:27.000Z</time>
      </trkpt>
      <trkpt lat="43.8829" lon="5.96761">
        <ele>375.825484</ele>
        <time>2021-09-18T08:38:29.000Z</time>
      </trkpt>
      <trkpt lat="43.88294" lon="5.96771">
        <ele>375.891073</ele>
        <time>2021-09-18T08:38:31.000Z</time>
      </trkpt>
      <trkpt lat="43.88295" lon="5.96776">
        <ele>375.919703</ele>
        <time>2021-09-18T08:38:32.000Z</time>
      </trkpt>
      <trkpt lat="43.88306" lon="5.96802">
        <ele>376.092125</ele>
        <time>2021-09-18T08:38:36.000Z</time>
      </trkpt>
      <trkpt lat="43.88321" lon="5.96843">
        <ele>376.449813</ele>
        <time>2021-09-18T08:38:42.000Z</time>
      </trkpt>
      <trkpt lat="43.88325" lon="5.96857">
        <ele>376.567071</ele>
        <time>2021-09-18T08:38:44.000Z</time>
      </trkpt>
      <trkpt lat="43.88328" lon="5.96871">
        <ele>376.681159</ele>
        <time>2021-09-18T08:38:46.000Z</time>
      </trkpt>
      <trkpt lat="43.88328" lon="5.96879">
        <ele>376.747825</ele>
        <time>2021-09-18T08:38:47.000Z</time>
      </trkpt>
      <trkpt lat="43.88328" lon="5.96887">
        <ele>376.806616</ele>
        <time>2021-09-18T08:38:48.000Z</time>
      </trkpt>
      <trkpt lat="43.88326" lon="5.96917">
        <ele>377.045552</ele>
        <time>2021-09-18T08:38:52.000Z</time>
      </trkpt>
      <trkpt lat="43.88326" lon="5.96924">
        <ele>377.099815</ele>
        <time>2021-09-18T08:38:53.000Z</time>
      </trkpt>
      <trkpt lat="43.88325" lon="5.96938">
        <ele>377.210685</ele>
        <time>2021-09-18T08:38:56.000Z</time>
      </trkpt>
      <trkpt lat="43.88321" lon="5.9696">
        <ele>377.382434</ele>
        <time>2021-09-18T08:39:00.000Z</time>
      </trkpt>
      <trkpt lat="43.88321" lon="5.96963">
        <ele>377.413466</ele>
        <time>2021-09-18T08:39:01.000Z</time>
      </trkpt>
      <trkpt lat="43.88318" lon="5.96974">
        <ele>377.497677</ele>
        <time>2021-09-18T08:39:03.000Z</time>
      </trkpt>
      <trkpt lat="43.88313" lon="5.96999">
        <ele>377.700141</ele>
        <time>2021-09-18T08:39:06.000Z</time>
      </trkpt>
      <trkpt lat="43.88308" lon="5.97032">
        <ele>377.967547</ele>
        <time>2021-09-18T08:39:08.000Z</time>
      </trkpt>
      <trkpt lat="43.88307" lon="5.97049">
        <ele>378.166606</ele>
        <time>2021-09-18T08:39:10.000Z</time>
      </trkpt>
      <trkpt lat="43.88306" lon="5.9708">
        <ele>378.83979</ele>
        <time>2021-09-18T08:39:14.000Z</time>
      </trkpt>
      <trkpt lat="43.88305" lon="5.9713">
        <ele>379.917678</ele>
        <time>2021-09-18T08:39:20.000Z</time>
      </trkpt>
      <trkpt lat="43.88307" lon="5.97168">
        <ele>380.745841</ele>
        <time>2021-09-18T08:39:25.000Z</time>
      </trkpt>
      <trkpt lat="43.88307" lon="5.97175">
        <ele>380.893147</ele>
        <time>2021-09-18T08:39:26.000Z</time>
      </trkpt>
      <trkpt lat="43.88309" lon="5.972">
        <ele>381.439615</ele>
        <time>2021-09-18T08:39:30.000Z</time>
      </trkpt>
      <trkpt lat="43.8831" lon="5.97206">
        <ele>381.565413</ele>
        <time>2021-09-18T08:39:31.000Z</time>
      </trkpt>
      <trkpt lat="43.88312" lon="5.97231">
        <ele>382.112791</ele>
        <time>2021-09-18T08:39:35.000Z</time>
      </trkpt>
      <trkpt lat="43.88314" lon="5.97244">
        <ele>382.394118</ele>
        <time>2021-09-18T08:39:37.000Z</time>
      </trkpt>
      <trkpt lat="43.88318" lon="5.97259">
        <ele>382.746077</ele>
        <time>2021-09-18T08:39:40.000Z</time>
      </trkpt>
      <trkpt lat="43.88326" lon="5.97278">
        <ele>383.229933</ele>
        <time>2021-09-18T08:39:45.000Z</time>
      </trkpt>
      <trkpt lat="43.88338" lon="5.97299">
        <ele>383.766145</ele>
        <time>2021-09-18T08:39:51.000Z</time>
      </trkpt>
      <trkpt lat="43.88352" lon="5.97321">
        <ele>384.355775</ele>
        <time>2021-09-18T08:39:57.000Z</time>
      </trkpt>
      <trkpt lat="43.88355" lon="5.97325">
        <ele>384.476634</ele>
        <time>2021-09-18T08:39:58.000Z</time>
      </trkpt>
      <trkpt lat="43.88372" lon="5.97345">
        <ele>385.072115</ele>
        <time>2021-09-18T08:40:02.000Z</time>
      </trkpt>
      <trkpt lat="43.88398" lon="5.97376">
        <ele>386.006284</ele>
        <time>2021-09-18T08:40:07.000Z</time>
      </trkpt>
      <trkpt lat="43.88406" lon="5.97389">
        <ele>386.357498</ele>
        <time>2021-09-18T08:40:09.000Z</time>
      </trkpt>
      <trkpt lat="43.8841" lon="5.97403">
        <ele>386.647406</ele>
        <time>2021-09-18T08:40:10.000Z</time>
      </trkpt>
      <trkpt lat="43.88411" lon="5.97414">
        <ele>386.877437</ele>
        <time>2021-09-18T08:40:11.000Z</time>
      </trkpt>
      <trkpt lat="43.8841" lon="5.97432">
        <ele>387.223638</ele>
        <time>2021-09-18T08:40:13.000Z</time>
      </trkpt>
      <trkpt lat="43.88408" lon="5.97439">
        <ele>387.367421</ele>
        <time>2021-09-18T08:40:14.000Z</time>
      </trkpt>
      <trkpt lat="43.88407" lon="5.97447">
        <ele>387.525267</ele>
        <time>2021-09-18T08:40:15.000Z</time>
      </trkpt>
      <trkpt lat="43.88402" lon="5.97475">
        <ele>388.095939</ele>
        <time>2021-09-18T08:40:19.000Z</time>
      </trkpt>
      <trkpt lat="43.88402" lon="5.97482">
        <ele>388.239574</ele>
        <time>2021-09-18T08:40:20.000Z</time>
      </trkpt>
      <trkpt lat="43.88401" lon="5.97506">
        <ele>388.343598</ele>
        <time>2021-09-18T08:40:24.000Z</time>
      </trkpt>
      <trkpt lat="43.88403" lon="5.9754">
        <ele>388.292527</ele>
        <time>2021-09-18T08:40:31.000Z</time>
      </trkpt>
      <trkpt lat="43.88404" lon="5.97563">
        <ele>388.258926</ele>
        <time>2021-09-18T08:40:36.000Z</time>
      </trkpt>
      <trkpt lat="43.88404" lon="5.97596">
        <ele>388.211019</ele>
        <time>2021-09-18T08:40:43.000Z</time>
      </trkpt>
      <trkpt lat="43.88396" lon="5.97622">
        <ele>388.169345</ele>
        <time>2021-09-18T08:40:48.000Z</time>
      </trkpt>
      <trkpt lat="43.88383" lon="5.97643">
        <ele>388.128913</ele>
        <time>2021-09-18T08:40:52.000Z</time>
      </trkpt>
      <trkpt lat="43.88377" lon="5.97651">
        <ele>388.11139</ele>
        <time>2021-09-18T08:40:54.000Z</time>
      </trkpt>
      <trkpt lat="43.8837" lon="5.97659">
        <ele>388.092774</ele>
        <time>2021-09-18T08:40:56.000Z</time>
      </trkpt>
      <trkpt lat="43.88364" lon="5.97669">
        <ele>388.074583</ele>
        <time>2021-09-18T08:40:58.000Z</time>
      </trkpt>
      <trkpt lat="43.88362" lon="5.97675">
        <ele>388.064306</ele>
        <time>2021-09-18T08:40:59.000Z</time>
      </trkpt>
      <trkpt lat="43.8836" lon="5.97682">
        <ele>388.053487</ele>
        <time>2021-09-18T08:41:00.000Z</time>
      </trkpt>
      <trkpt lat="43.8836" lon="5.97697">
        <ele>388.031056</ele>
        <time>2021-09-18T08:41:02.000Z</time>
      </trkpt>
      <trkpt lat="43.8836" lon="5.97705">
        <ele>388.020025</ele>
        <time>2021-09-18T08:41:03.000Z</time>
      </trkpt>
      <trkpt lat="43.88361" lon="5.97721">
        <ele>387.972751</ele>
        <time>2021-09-18T08:41:05.000Z</time>
      </trkpt>
      <trkpt lat="43.88367" lon="5.97747">
        <ele>387.811925</ele>
        <time>2021-09-18T08:41:08.000Z</time>
      </trkpt>
      <trkpt lat="43.88383" lon="5.97813">
        <ele>387.395117</ele>
        <time>2021-09-18T08:41:16.000Z</time>
      </trkpt>
      <trkpt lat="43.88401" lon="5.97875">
        <ele>386.995609</ele>
        <time>2021-09-18T08:41:24.000Z</time>
      </trkpt>
      <trkpt lat="43.8841" lon="5.97934">
        <ele>386.632841</ele>
        <time>2021-09-18T08:41:32.000Z</time>
      </trkpt>
      <trkpt lat="43.88414" lon="5.97993">
        <ele>386.719228</ele>
        <time>2021-09-18T08:41:40.000Z</time>
      </trkpt>
      <trkpt lat="43.88415" lon="5.98008">
        <ele>386.796891</ele>
        <time>2021-09-18T08:41:42.000Z</time>
      </trkpt>
      <trkpt lat="43.88416" lon="5.98022">
        <ele>386.874499</ele>
        <time>2021-09-18T08:41:44.000Z</time>
      </trkpt>
      <trkpt lat="43.88416" lon="5.98029">
        <ele>386.913126</ele>
        <time>2021-09-18T08:41:45.000Z</time>
      </trkpt>
      <trkpt lat="43.88425" lon="5.98081">
        <ele>387.200784</ele>
        <time>2021-09-18T08:41:52.000Z</time>
      </trkpt>
      <trkpt lat="43.8844" lon="5.98129">
        <ele>387.487807</ele>
        <time>2021-09-18T08:41:59.000Z</time>
      </trkpt>
      <trkpt lat="43.88457" lon="5.98176">
        <ele>387.769644</ele>
        <time>2021-09-18T08:42:06.000Z</time>
      </trkpt>
      <trkpt lat="43.88459" lon="5.98182">
        <ele>387.805451</ele>
        <time>2021-09-18T08:42:07.000Z</time>
      </trkpt>
      <trkpt lat="43.88463" lon="5.98225">
        <ele>388.23684</ele>
        <time>2021-09-18T08:42:13.000Z</time>
      </trkpt>
      <trkpt lat="43.88462" lon="5.98232">
        <ele>388.317638</ele>
        <time>2021-09-18T08:42:14.000Z</time>
      </trkpt>
      <trkpt lat="43.8846" lon="5.98245">
        <ele>388.463015</ele>
        <time>2021-09-18T08:42:16.000Z</time>
      </trkpt>
      <trkpt lat="43.88459" lon="5.98252">
        <ele>388.537199</ele>
        <time>2021-09-18T08:42:17.000Z</time>
      </trkpt>
      <trkpt lat="43.88454" lon="5.983">
        <ele>389.085893</ele>
        <time>2021-09-18T08:42:24.000Z</time>
      </trkpt>
      <trkpt lat="43.88454" lon="5.98334">
        <ele>389.472574</ele>
        <time>2021-09-18T08:42:29.000Z</time>
      </trkpt>
      <trkpt lat="43.88454" lon="5.98341">
        <ele>389.548931</ele>
        <time>2021-09-18T08:42:30.000Z</time>
      </trkpt>
      <trkpt lat="43.88455" lon="5.98348">
        <ele>389.627029</ele>
        <time>2021-09-18T08:42:31.000Z</time>
      </trkpt>
      <trkpt lat="43.8846" lon="5.98382">
        <ele>390.018009</ele>
        <time>2021-09-18T08:42:36.000Z</time>
      </trkpt>
      <trkpt lat="43.88463" lon="5.98395">
        <ele>390.169503</ele>
        <time>2021-09-18T08:42:38.000Z</time>
      </trkpt>
      <trkpt lat="43.88466" lon="5.98414">
        <ele>390.391583</ele>
        <time>2021-09-18T08:42:41.000Z</time>
      </trkpt>
      <trkpt lat="43.88475" lon="5.98451">
        <ele>391.101395</ele>
        <time>2021-09-18T08:42:47.000Z</time>
      </trkpt>
      <trkpt lat="43.88477" lon="5.98457">
        <ele>391.279556</ele>
        <time>2021-09-18T08:42:48.000Z</time>
      </trkpt>
      <trkpt lat="43.88489" lon="5.98484">
        <ele>392.241446</ele>
        <time>2021-09-18T08:42:53.000Z</time>
      </trkpt>
      <trkpt lat="43.88507" lon="5.98508">
        <ele>393.239423</ele>
        <time>2021-09-18T08:42:59.000Z</time>
      </trkpt>
      <trkpt lat="43.88518" lon="5.9853">
        <ele>394.031473</ele>
        <time>2021-09-18T08:43:05.000Z</time>
      </trkpt>
      <trkpt lat="43.88526" lon="5.98557">
        <ele>394.900445</ele>
        <time>2021-09-18T08:43:11.000Z</time>
      </trkpt>
      <trkpt lat="43.88537" lon="5.98593">
        <ele>396.042398</ele>
        <time>2021-09-18T08:43:19.000Z</time>
      </trkpt>
      <trkpt lat="43.88548" lon="5.98622">
        <ele>397.041806</ele>
        <time>2021-09-18T08:43:26.000Z</time>
      </trkpt>
      <trkpt lat="43.88565" lon="5.98648">
        <ele>398.046307</ele>
        <time>2021-09-18T08:43:34.000Z</time>
      </trkpt>
      <trkpt lat="43.88573" lon="5.98676">
        <ele>398.200172</ele>
        <time>2021-09-18T08:43:40.000Z</time>
      </trkpt>
      <trkpt lat="43.88578" lon="5.98723">
        <ele>398.435991</ele>
        <time>2021-09-18T08:43:47.000Z</time>
      </trkpt>
      <trkpt lat="43.88573" lon="5.98769">
        <ele>398.669301</ele>
        <time>2021-09-18T08:43:52.000Z</time>
      </trkpt>
      <trkpt lat="43.88573" lon="5.98831">
        <ele>398.984257</ele>
        <time>2021-09-18T08:43:58.000Z</time>
      </trkpt>
      <trkpt lat="43.88573" lon="5.98851">
        <ele>399.083885</ele>
        <time>2021-09-18T08:44:00.000Z</time>
      </trkpt>
      <trkpt lat="43.88576" lon="5.98881">
        <ele>399.239344</ele>
        <time>2021-09-18T08:44:03.000Z</time>
      </trkpt>
      <trkpt lat="43.88582" lon="5.98949">
        <ele>398.734273</ele>
        <time>2021-09-18T08:44:10.000Z</time>
      </trkpt>
      <trkpt lat="43.88587" lon="5.99004">
        <ele>398.174289</ele>
        <time>2021-09-18T08:44:17.000Z</time>
      </trkpt>
      <trkpt lat="43.88592" lon="5.9906">
        <ele>397.598658</ele>
        <time>2021-09-18T08:44:25.000Z</time>
      </trkpt>
      <trkpt lat="43.88598" lon="5.99118">
        <ele>397.0025</ele>
        <time>2021-09-18T08:44:33.000Z</time>
      </trkpt>
      <trkpt lat="43.88602" lon="5.99138">
        <ele>396.793012</ele>
        <time>2021-09-18T08:44:36.000Z</time>
      </trkpt>
      <trkpt lat="43.88605" lon="5.99151">
        <ele>396.763414</ele>
        <time>2021-09-18T08:44:38.000Z</time>
      </trkpt>
      <trkpt lat="43.88608" lon="5.99157">
        <ele>396.761706</ele>
        <time>2021-09-18T08:44:39.000Z</time>
      </trkpt>
      <trkpt lat="43.8861" lon="5.99163">
        <ele>396.760024</ele>
        <time>2021-09-18T08:44:40.000Z</time>
      </trkpt>
      <trkpt lat="43.88616" lon="5.99173">
        <ele>396.756755</ele>
        <time>2021-09-18T08:44:42.000Z</time>
      </trkpt>
      <trkpt lat="43.88624" lon="5.99189">
        <ele>396.75211</ele>
        <time>2021-09-18T08:44:45.000Z</time>
      </trkpt>
      <trkpt lat="43.88635" lon="5.99217">
        <ele>396.744202</ele>
        <time>2021-09-18T08:44:50.000Z</time>
      </trkpt>
      <trkpt lat="43.88637" lon="5.9923">
        <ele>396.740928</ele>
        <time>2021-09-18T08:44:52.000Z</time>
      </trkpt>
      <trkpt lat="43.88638" lon="5.99252">
        <ele>396.735492</ele>
        <time>2021-09-18T08:44:55.000Z</time>
      </trkpt>
      <trkpt lat="43.88638" lon="5.99259">
        <ele>396.733767</ele>
        <time>2021-09-18T08:44:56.000Z</time>
      </trkpt>
      <trkpt lat="43.88637" lon="5.99273">
        <ele>396.730264</ele>
        <time>2021-09-18T08:44:58.000Z</time>
      </trkpt>
      <trkpt lat="43.88635" lon="5.9928">
        <ele>396.728495</ele>
        <time>2021-09-18T08:44:59.000Z</time>
      </trkpt>
      <trkpt lat="43.88634" lon="5.99287">
        <ele>396.726639</ele>
        <time>2021-09-18T08:45:00.000Z</time>
      </trkpt>
      <trkpt lat="43.88632" lon="5.99302">
        <ele>396.723071</ele>
        <time>2021-09-18T08:45:02.000Z</time>
      </trkpt>
      <trkpt lat="43.8863" lon="5.99308">
        <ele>396.721318</ele>
        <time>2021-09-18T08:45:03.000Z</time>
      </trkpt>
      <trkpt lat="43.88628" lon="5.99322">
        <ele>396.717925</ele>
        <time>2021-09-18T08:45:05.000Z</time>
      </trkpt>
      <trkpt lat="43.88624" lon="5.99349">
        <ele>396.711237</ele>
        <time>2021-09-18T08:45:09.000Z</time>
      </trkpt>
      <trkpt lat="43.88621" lon="5.99377">
        <ele>396.705886</ele>
        <time>2021-09-18T08:45:13.000Z</time>
      </trkpt>
      <trkpt lat="43.8862" lon="5.99383">
        <ele>396.709368</ele>
        <time>2021-09-18T08:45:14.000Z</time>
      </trkpt>
      <trkpt lat="43.88617" lon="5.99404">
        <ele>396.720136</ele>
        <time>2021-09-18T08:45:17.000Z</time>
      </trkpt>
      <trkpt lat="43.88615" lon="5.99425">
        <ele>396.731263</ele>
        <time>2021-09-18T08:45:20.000Z</time>
      </trkpt>
      <trkpt lat="43.88613" lon="5.99458">
        <ele>396.748828</ele>
        <time>2021-09-18T08:45:25.000Z</time>
      </trkpt>
      <trkpt lat="43.88615" lon="5.99472">
        <ele>396.756203</ele>
        <time>2021-09-18T08:45:28.000Z</time>
      </trkpt>
      <trkpt lat="43.88616" lon="5.99481">
        <ele>396.760608</ele>
        <time>2021-09-18T08:45:29.000Z</time>
      </trkpt>
      <trkpt lat="43.88633" lon="5.99557">
        <ele>396.802094</ele>
        <time>2021-09-18T08:45:38.000Z</time>
      </trkpt>
      <trkpt lat="43.88635" lon="5.99565">
        <ele>396.806477</ele>
        <time>2021-09-18T08:45:39.000Z</time>
      </trkpt>
      <trkpt lat="43.88654" lon="5.99643">
        <ele>397.212434</ele>
        <time>2021-09-18T08:45:49.000Z</time>
      </trkpt>
      <trkpt lat="43.88671" lon="5.99707">
        <ele>398.144195</ele>
        <time>2021-09-18T08:45:58.000Z</time>
      </trkpt>
      <trkpt lat="43.88686" lon="5.99742">
        <ele>398.692022</ele>
        <time>2021-09-18T08:46:04.000Z</time>
      </trkpt>
      <trkpt lat="43.88698" lon="5.99768">
        <ele>399.107878</ele>
        <time>2021-09-18T08:46:09.000Z</time>
      </trkpt>
      <trkpt lat="43.88701" lon="5.99773">
        <ele>399.195853</ele>
        <time>2021-09-18T08:46:10.000Z</time>
      </trkpt>
      <trkpt lat="43.8872" lon="5.99812">
        <ele>399.839177</ele>
        <time>2021-09-18T08:46:17.000Z</time>
      </trkpt>
      <trkpt lat="43.88722" lon="5.99819">
        <ele>399.934238</ele>
        <time>2021-09-18T08:46:18.000Z</time>
      </trkpt>
      <trkpt lat="43.8873" lon="5.99836">
        <ele>400.210499</ele>
        <time>2021-09-18T08:46:21.000Z</time>
      </trkpt>
      <trkpt lat="43.88735" lon="5.99849">
        <ele>400.31593</ele>
        <time>2021-09-18T08:46:23.000Z</time>
      </trkpt>
      <trkpt lat="43.88746" lon="5.99877">
        <ele>400.540883</ele>
        <time>2021-09-18T08:46:28.000Z</time>
      </trkpt>
      <trkpt lat="43.88758" lon="5.99905">
        <ele>400.761844</ele>
        <time>2021-09-18T08:46:32.000Z</time>
      </trkpt>
      <trkpt lat="43.88763" lon="5.99918">
        <ele>400.868271</ele>
        <time>2021-09-18T08:46:34.000Z</time>
      </trkpt>
      <trkpt lat="43.88781" lon="5.9997">
        <ele>401.271359</ele>
        <time>2021-09-18T08:46:41.000Z</time>
      </trkpt>
      <trkpt lat="43.88792" lon="6.00017">
        <ele>401.615777</ele>
        <time>2021-09-18T08:46:47.000Z</time>
      </trkpt>
      <trkpt lat="43.88802" lon="6.00073">
        <ele>401.922692</ele>
        <time>2021-09-18T08:46:54.000Z</time>
      </trkpt>
      <trkpt lat="43.88819" lon="6.00152">
        <ele>401.617753</ele>
        <time>2021-09-18T08:47:04.000Z</time>
      </trkpt>
      <trkpt lat="43.88829" lon="6.0022">
        <ele>401.359576</ele>
        <time>2021-09-18T08:47:12.000Z</time>
      </trkpt>
      <trkpt lat="43.88832" lon="6.00289">
        <ele>401.100635</ele>
        <time>2021-09-18T08:47:21.000Z</time>
      </trkpt>
      <trkpt lat="43.88836" lon="6.00349">
        <ele>400.774278</ele>
        <time>2021-09-18T08:47:28.000Z</time>
      </trkpt>
      <trkpt lat="43.88838" lon="6.00374">
        <ele>400.615325</ele>
        <time>2021-09-18T08:47:31.000Z</time>
      </trkpt>
      <trkpt lat="43.88839" lon="6.004">
        <ele>400.450082</ele>
        <time>2021-09-18T08:47:34.000Z</time>
      </trkpt>
      <trkpt lat="43.8884" lon="6.00409">
        <ele>400.394296</ele>
        <time>2021-09-18T08:47:35.000Z</time>
      </trkpt>
      <trkpt lat="43.88841" lon="6.00426">
        <ele>400.286022</ele>
        <time>2021-09-18T08:47:37.000Z</time>
      </trkpt>
      <trkpt lat="43.88842" lon="6.00443">
        <ele>400.178301</ele>
        <time>2021-09-18T08:47:39.000Z</time>
      </trkpt>
      <trkpt lat="43.88849" lon="6.0051">
        <ele>399.753015</ele>
        <time>2021-09-18T08:47:47.000Z</time>
      </trkpt>
      <trkpt lat="43.88864" lon="6.00578">
        <ele>399.466482</ele>
        <time>2021-09-18T08:47:56.000Z</time>
      </trkpt>
      <trkpt lat="43.88881" lon="6.0064">
        <ele>399.502498</ele>
        <time>2021-09-18T08:48:05.000Z</time>
      </trkpt>
      <trkpt lat="43.88896" lon="6.00697">
        <ele>399.535198</ele>
        <time>2021-09-18T08:48:14.000Z</time>
      </trkpt>
      <trkpt lat="43.88901" lon="6.00739">
        <ele>399.558679</ele>
        <time>2021-09-18T08:48:20.000Z</time>
      </trkpt>
      <trkpt lat="43.88911" lon="6.0079">
        <ele>399.587234</ele>
        <time>2021-09-18T08:48:27.000Z</time>
      </trkpt>
      <trkpt lat="43.88922" lon="6.00827">
        <ele>400.356628</ele>
        <time>2021-09-18T08:48:33.000Z</time>
      </trkpt>
      <trkpt lat="43.88939" lon="6.00878">
        <ele>401.515797</ele>
        <time>2021-09-18T08:48:42.000Z</time>
      </trkpt>
      <trkpt lat="43.8895" lon="6.00911">
        <ele>402.288656</ele>
        <time>2021-09-18T08:48:48.000Z</time>
      </trkpt>
      <trkpt lat="43.88957" lon="6.00935">
        <ele>402.816642</ele>
        <time>2021-09-18T08:48:52.000Z</time>
      </trkpt>
      <trkpt lat="43.88959" lon="6.00946">
        <ele>403.069344</ele>
        <time>2021-09-18T08:48:54.000Z</time>
      </trkpt>
      <trkpt lat="43.88963" lon="6.00963">
        <ele>403.433994</ele>
        <time>2021-09-18T08:48:57.000Z</time>
      </trkpt>
      <trkpt lat="43.88967" lon="6.0098">
        <ele>403.807475</ele>
        <time>2021-09-18T08:49:00.000Z</time>
      </trkpt>
      <trkpt lat="43.88975" lon="6.01019">
        <ele>404.655865</ele>
        <time>2021-09-18T08:49:06.000Z</time>
      </trkpt>
      <trkpt lat="43.88978" lon="6.01033">
        <ele>404.885741</ele>
        <time>2021-09-18T08:49:08.000Z</time>
      </trkpt>
      <trkpt lat="43.88983" lon="6.01055">
        <ele>405.134157</ele>
        <time>2021-09-18T08:49:11.000Z</time>
      </trkpt>
      <trkpt lat="43.88997" lon="6.0112">
        <ele>405.878961</ele>
        <time>2021-09-18T08:49:19.000Z</time>
      </trkpt>
      <trkpt lat="43.89012" lon="6.01188">
        <ele>406.657221</ele>
        <time>2021-09-18T08:49:27.000Z</time>
      </trkpt>
      <trkpt lat="43.89027" lon="6.01255">
        <ele>407.427266</ele>
        <time>2021-09-18T08:49:35.000Z</time>
      </trkpt>
      <trkpt lat="43.89043" lon="6.01329">
        <ele>407.217332</ele>
        <time>2021-09-18T08:49:44.000Z</time>
      </trkpt>
      <trkpt lat="43.89062" lon="6.01408">
        <ele>406.835666</ele>
        <time>2021-09-18T08:49:54.000Z</time>
      </trkpt>
      <trkpt lat="43.89063" lon="6.01415">
        <ele>406.799481</ele>
        <time>2021-09-18T08:49:55.000Z</time>
      </trkpt>
      <trkpt lat="43.89081" lon="6.01494">
        <ele>406.418788</ele>
        <time>2021-09-18T08:50:05.000Z</time>
      </trkpt>
      <trkpt lat="43.89083" lon="6.01502">
        <ele>406.381188</ele>
        <time>2021-09-18T08:50:06.000Z</time>
      </trkpt>
      <trkpt lat="43.8909" lon="6.01565">
        <ele>406.769182</ele>
        <time>2021-09-18T08:50:14.000Z</time>
      </trkpt>
      <trkpt lat="43.89092" lon="6.01604">
        <ele>407.011173</ele>
        <time>2021-09-18T08:50:20.000Z</time>
      </trkpt>
      <trkpt lat="43.89095" lon="6.0164">
        <ele>407.238667</ele>
        <time>2021-09-18T08:50:27.000Z</time>
      </trkpt>
      <trkpt lat="43.89098" lon="6.0167">
        <ele>407.423118</ele>
        <time>2021-09-18T08:50:33.000Z</time>
      </trkpt>
      <trkpt lat="43.89101" lon="6.01699">
        <ele>407.601223</ele>
        <time>2021-09-18T08:50:39.000Z</time>
      </trkpt>
      <trkpt lat="43.89104" lon="6.01728">
        <ele>407.7825</ele>
        <time>2021-09-18T08:50:45.000Z</time>
      </trkpt>
      <trkpt lat="43.89106" lon="6.01761">
        <ele>408.019358</ele>
        <time>2021-09-18T08:50:51.000Z</time>
      </trkpt>
      <trkpt lat="43.89101" lon="6.01803">
        <ele>408.391026</ele>
        <time>2021-09-18T08:50:58.000Z</time>
      </trkpt>
      <trkpt lat="43.89092" lon="6.01829">
        <ele>408.640515</ele>
        <time>2021-09-18T08:51:04.000Z</time>
      </trkpt>
      <trkpt lat="43.89082" lon="6.01855">
        <ele>408.896095</ele>
        <time>2021-09-18T08:51:10.000Z</time>
      </trkpt>
      <trkpt lat="43.89074" lon="6.01884">
        <ele>409.17172</ele>
        <time>2021-09-18T08:51:16.000Z</time>
      </trkpt>
      <trkpt lat="43.89069" lon="6.01919">
        <ele>409.480198</ele>
        <time>2021-09-18T08:51:21.000Z</time>
      </trkpt>
      <trkpt lat="43.89071" lon="6.01938">
        <ele>409.643746</ele>
        <time>2021-09-18T08:51:23.000Z</time>
      </trkpt>
      <trkpt lat="43.89075" lon="6.01956">
        <ele>409.813569</ele>
        <time>2021-09-18T08:51:25.000Z</time>
      </trkpt>
      <trkpt lat="43.89085" lon="6.01996">
        <ele>410.136702</ele>
        <time>2021-09-18T08:51:30.000Z</time>
      </trkpt>
      <trkpt lat="43.89085" lon="6.02004">
        <ele>410.16661</ele>
        <time>2021-09-18T08:51:31.000Z</time>
      </trkpt>
      <trkpt lat="43.89084" lon="6.02037">
        <ele>410.299878</ele>
        <time>2021-09-18T08:51:35.000Z</time>
      </trkpt>
      <trkpt lat="43.89085" lon="6.02046">
        <ele>410.335503</ele>
        <time>2021-09-18T08:51:36.000Z</time>
      </trkpt>
      <trkpt lat="43.89097" lon="6.02087">
        <ele>410.515196</ele>
        <time>2021-09-18T08:51:41.000Z</time>
      </trkpt>
      <trkpt lat="43.89115" lon="6.02134">
        <ele>410.729724</ele>
        <time>2021-09-18T08:51:47.000Z</time>
      </trkpt>
      <trkpt lat="43.89121" lon="6.0215">
        <ele>410.804884</ele>
        <time>2021-09-18T08:51:49.000Z</time>
      </trkpt>
      <trkpt lat="43.89128" lon="6.02166">
        <ele>410.877116</ele>
        <time>2021-09-18T08:51:51.000Z</time>
      </trkpt>
      <trkpt lat="43.89131" lon="6.02174">
        <ele>410.914208</ele>
        <time>2021-09-18T08:51:52.000Z</time>
      </trkpt>
      <trkpt lat="43.89143" lon="6.02205">
        <ele>411.05461</ele>
        <time>2021-09-18T08:51:56.000Z</time>
      </trkpt>
      <trkpt lat="43.89151" lon="6.02246">
        <ele>411.456647</ele>
        <time>2021-09-18T08:52:01.000Z</time>
      </trkpt>
      <trkpt lat="43.89153" lon="6.02254">
        <ele>411.559604</ele>
        <time>2021-09-18T08:52:02.000Z</time>
      </trkpt>
      <trkpt lat="43.89156" lon="6.02267">
        <ele>411.719082</ele>
        <time>2021-09-18T08:52:04.000Z</time>
      </trkpt>
      <trkpt lat="43.8917" lon="6.02315">
        <ele>412.329506</ele>
        <time>2021-09-18T08:52:10.000Z</time>
      </trkpt>
      <trkpt lat="43.89191" lon="6.02375">
        <ele>413.103124</ele>
        <time>2021-09-18T08:52:18.000Z</time>
      </trkpt>
      <trkpt lat="43.89209" lon="6.02429">
        <ele>413.789068</ele>
        <time>2021-09-18T08:52:25.000Z</time>
      </trkpt>
      <trkpt lat="43.89225" lon="6.02483">
        <ele>415.214316</ele>
        <time>2021-09-18T08:52:33.000Z</time>
      </trkpt>
      <trkpt lat="43.89235" lon="6.02521">
        <ele>416.420546</ele>
        <time>2021-09-18T08:52:40.000Z</time>
      </trkpt>
      <trkpt lat="43.89243" lon="6.02553">
        <ele>417.453204</ele>
        <time>2021-09-18T08:52:48.000Z</time>
      </trkpt>
      <trkpt lat="43.89248" lon="6.02573">
        <ele>418.074886</ele>
        <time>2021-09-18T08:52:54.000Z</time>
      </trkpt>
      <trkpt lat="43.89252" lon="6.02592">
        <ele>418.685326</ele>
        <time>2021-09-18T08:53:01.000Z</time>
      </trkpt>
      <trkpt lat="43.89255" lon="6.02605">
        <ele>419.092286</ele>
        <time>2021-09-18T08:53:05.000Z</time>
      </trkpt>
      <trkpt lat="43.8926" lon="6.02625">
        <ele>419.756794</ele>
        <time>2021-09-18T08:53:12.000Z</time>
      </trkpt>
      <trkpt lat="43.89266" lon="6.02651">
        <ele>420.570712</ele>
        <time>2021-09-18T08:53:21.000Z</time>
      </trkpt>
      <trkpt lat="43.89271" lon="6.02673">
        <ele>421.269446</ele>
        <time>2021-09-18T08:53:29.000Z</time>
      </trkpt>
      <trkpt lat="43.89276" lon="6.02693">
        <ele>421.811467</ele>
        <time>2021-09-18T08:53:36.000Z</time>
      </trkpt>
      <trkpt lat="43.89284" lon="6.02726">
        <ele>422.527895</ele>
        <time>2021-09-18T08:53:47.000Z</time>
      </trkpt>
      <trkpt lat="43.89291" lon="6.02751">
        <ele>423.096105</ele>
        <time>2021-09-18T08:53:56.000Z</time>
      </trkpt>
      <trkpt lat="43.89297" lon="6.02777">
        <ele>423.668277</ele>
        <time>2021-09-18T08:54:05.000Z</time>
      </trkpt>
      <trkpt lat="43.89305" lon="6.02806">
        <ele>424.318513</ele>
        <time>2021-09-18T08:54:14.000Z</time>
      </trkpt>
      <trkpt lat="43.89311" lon="6.02834">
        <ele>424.933361</ele>
        <time>2021-09-18T08:54:21.000Z</time>
      </trkpt>
      <trkpt lat="43.89317" lon="6.0286">
        <ele>425.516501</ele>
        <time>2021-09-18T08:54:26.000Z</time>
      </trkpt>
      <trkpt lat="43.89326" lon="6.02898">
        <ele>426.350796</ele>
        <time>2021-09-18T08:54:31.000Z</time>
      </trkpt>
      <trkpt lat="43.8933" lon="6.02916">
        <ele>426.733917</ele>
        <time>2021-09-18T08:54:33.000Z</time>
      </trkpt>
      <trkpt lat="43.89335" lon="6.02942">
        <ele>426.664667</ele>
        <time>2021-09-18T08:54:36.000Z</time>
      </trkpt>
      <trkpt lat="43.89353" lon="6.0301">
        <ele>426.248258</ele>
        <time>2021-09-18T08:54:44.000Z</time>
      </trkpt>
      <trkpt lat="43.89368" lon="6.03064">
        <ele>425.914261</ele>
        <time>2021-09-18T08:54:52.000Z</time>
      </trkpt>
      <trkpt lat="43.89373" lon="6.0309">
        <ele>425.76167</ele>
        <time>2021-09-18T08:54:56.000Z</time>
      </trkpt>
      <trkpt lat="43.89376" lon="6.03108">
        <ele>425.652339</ele>
        <time>2021-09-18T08:54:59.000Z</time>
      </trkpt>
      <trkpt lat="43.89376" lon="6.03157">
        <ele>425.371875</ele>
        <time>2021-09-18T08:55:05.000Z</time>
      </trkpt>
      <trkpt lat="43.89377" lon="6.03174">
        <ele>425.090517</ele>
        <time>2021-09-18T08:55:07.000Z</time>
      </trkpt>
      <trkpt lat="43.89379" lon="6.03204">
        <ele>424.591968</ele>
        <time>2021-09-18T08:55:10.000Z</time>
      </trkpt>
      <trkpt lat="43.89392" lon="6.03258">
        <ele>423.633698</ele>
        <time>2021-09-18T08:55:15.000Z</time>
      </trkpt>
      <trkpt lat="43.89418" lon="6.03332">
        <ele>422.240586</ele>
        <time>2021-09-18T08:55:22.000Z</time>
      </trkpt>
      <trkpt lat="43.8944" lon="6.0338">
        <ele>421.29595</ele>
        <time>2021-09-18T08:55:27.000Z</time>
      </trkpt>
      <trkpt lat="43.89467" lon="6.03417">
        <ele>420.522655</ele>
        <time>2021-09-18T08:55:32.000Z</time>
      </trkpt>
      <trkpt lat="43.89496" lon="6.03452">
        <ele>419.760994</ele>
        <time>2021-09-18T08:55:38.000Z</time>
      </trkpt>
      <trkpt lat="43.89517" lon="6.03477">
        <ele>419.217331</ele>
        <time>2021-09-18T08:55:43.000Z</time>
      </trkpt>
      <trkpt lat="43.8952" lon="6.03482">
        <ele>419.120499</ele>
        <time>2021-09-18T08:55:44.000Z</time>
      </trkpt>
      <trkpt lat="43.89535" lon="6.03507">
        <ele>418.660342</ele>
        <time>2021-09-18T08:55:49.000Z</time>
      </trkpt>
      <trkpt lat="43.89537" lon="6.03512">
        <ele>418.57171</ele>
        <time>2021-09-18T08:55:50.000Z</time>
      </trkpt>
      <trkpt lat="43.8955" lon="6.03553">
        <ele>417.94126</ele>
        <time>2021-09-18T08:55:57.000Z</time>
      </trkpt>
      <trkpt lat="43.89562" lon="6.036">
        <ele>417.475479</ele>
        <time>2021-09-18T08:56:05.000Z</time>
      </trkpt>
      <trkpt lat="43.89575" lon="6.03648">
        <ele>417.23591</ele>
        <time>2021-09-18T08:56:13.000Z</time>
      </trkpt>
      <trkpt lat="43.89589" lon="6.03705">
        <ele>416.955974</ele>
        <time>2021-09-18T08:56:22.000Z</time>
      </trkpt>
      <trkpt lat="43.89598" lon="6.03736">
        <ele>416.800908</ele>
        <time>2021-09-18T08:56:27.000Z</time>
      </trkpt>
      <trkpt lat="43.89602" lon="6.03747">
        <ele>416.741319</ele>
        <time>2021-09-18T08:56:29.000Z</time>
      </trkpt>
      <trkpt lat="43.89618" lon="6.03793">
        <ele>416.504641</ele>
        <time>2021-09-18T08:56:37.000Z</time>
      </trkpt>
      <trkpt lat="43.89621" lon="6.03798">
        <ele>416.473992</ele>
        <time>2021-09-18T08:56:38.000Z</time>
      </trkpt>
      <trkpt lat="43.89627" lon="6.03809">
        <ele>416.456112</ele>
        <time>2021-09-18T08:56:40.000Z</time>
      </trkpt>
      <trkpt lat="43.89639" lon="6.0383">
        <ele>416.560641</ele>
        <time>2021-09-18T08:56:44.000Z</time>
      </trkpt>
      <trkpt lat="43.89661" lon="6.0386">
        <ele>416.722512</ele>
        <time>2021-09-18T08:56:50.000Z</time>
      </trkpt>
      <trkpt lat="43.89685" lon="6.03896">
        <ele>416.912224</ele>
        <time>2021-09-18T08:56:57.000Z</time>
      </trkpt>
      <trkpt lat="43.8971" lon="6.0394">
        <ele>417.124405</ele>
        <time>2021-09-18T08:57:05.000Z</time>
      </trkpt>
      <trkpt lat="43.89731" lon="6.03979">
        <ele>417.31007</ele>
        <time>2021-09-18T08:57:12.000Z</time>
      </trkpt>
      <trkpt lat="43.89762" lon="6.04036">
        <ele>417.647989</ele>
        <time>2021-09-18T08:57:22.000Z</time>
      </trkpt>
      <trkpt lat="43.89782" lon="6.04072">
        <ele>417.876742</ele>
        <time>2021-09-18T08:57:29.000Z</time>
      </trkpt>
      <trkpt lat="43.89805" lon="6.04115">
        <ele>418.145205</ele>
        <time>2021-09-18T08:57:37.000Z</time>
      </trkpt>
      <trkpt lat="43.89825" lon="6.04151">
        <ele>418.373977</ele>
        <time>2021-09-18T08:57:43.000Z</time>
      </trkpt>
      <trkpt lat="43.89853" lon="6.04207">
        <ele>418.66931</ele>
        <time>2021-09-18T08:57:51.000Z</time>
      </trkpt>
      <trkpt lat="43.89865" lon="6.04245">
        <ele>418.727405</ele>
        <time>2021-09-18T08:57:56.000Z</time>
      </trkpt>
      <trkpt lat="43.89866" lon="6.04254">
        <ele>418.739076</ele>
        <time>2021-09-18T08:57:57.000Z</time>
      </trkpt>
      <trkpt lat="43.89879" lon="6.04325">
        <ele>418.841218</ele>
        <time>2021-09-18T08:58:06.000Z</time>
      </trkpt>
      <trkpt lat="43.8989" lon="6.04389">
        <ele>418.931254</ele>
        <time>2021-09-18T08:58:14.000Z</time>
      </trkpt>
      <trkpt lat="43.89901" lon="6.04458">
        <ele>419.096549</ele>
        <time>2021-09-18T08:58:23.000Z</time>
      </trkpt>
      <trkpt lat="43.89909" lon="6.045">
        <ele>419.278858</ele>
        <time>2021-09-18T08:58:29.000Z</time>
      </trkpt>
      <trkpt lat="43.89917" lon="6.0455">
        <ele>419.491596</ele>
        <time>2021-09-18T08:58:36.000Z</time>
      </trkpt>
      <trkpt lat="43.89918" lon="6.04558">
        <ele>419.523069</ele>
        <time>2021-09-18T08:58:37.000Z</time>
      </trkpt>
      <trkpt lat="43.89916" lon="6.04566">
        <ele>419.556035</ele>
        <time>2021-09-18T08:58:38.000Z</time>
      </trkpt>
      <trkpt lat="43.89911" lon="6.04576">
        <ele>419.609585</ele>
        <time>2021-09-18T08:58:40.000Z</time>
      </trkpt>
      <trkpt lat="43.899" lon="6.04582">
        <ele>419.677675</ele>
        <time>2021-09-18T08:58:42.000Z</time>
      </trkpt>
      <trkpt lat="43.8989" lon="6.04586">
        <ele>419.738738</ele>
        <time>2021-09-18T08:58:44.000Z</time>
      </trkpt>
      <trkpt lat="43.89885" lon="6.04588">
        <ele>419.76694</ele>
        <time>2021-09-18T08:58:45.000Z</time>
      </trkpt>
      <trkpt lat="43.89878" lon="6.04594">
        <ele>419.81603</ele>
        <time>2021-09-18T08:58:47.000Z</time>
      </trkpt>
      <trkpt lat="43.89876" lon="6.04598">
        <ele>419.837594</ele>
        <time>2021-09-18T08:58:48.000Z</time>
      </trkpt>
      <trkpt lat="43.89871" lon="6.04613">
        <ele>419.904397</ele>
        <time>2021-09-18T08:58:51.000Z</time>
      </trkpt>
      <trkpt lat="43.89871" lon="6.04619">
        <ele>419.9284</ele>
        <time>2021-09-18T08:58:52.000Z</time>
      </trkpt>
      <trkpt lat="43.89875" lon="6.04659">
        <ele>420.168378</ele>
        <time>2021-09-18T08:58:59.000Z</time>
      </trkpt>
      <trkpt lat="43.89879" lon="6.04691">
        <ele>420.461189</ele>
        <time>2021-09-18T08:59:05.000Z</time>
      </trkpt>
      <trkpt lat="43.89882" lon="6.04729">
        <ele>420.802303</ele>
        <time>2021-09-18T08:59:12.000Z</time>
      </trkpt>
      <trkpt lat="43.89884" lon="6.04771">
        <ele>421.178602</ele>
        <time>2021-09-18T08:59:20.000Z</time>
      </trkpt>
      <trkpt lat="43.89891" lon="6.04813">
        <ele>421.565458</ele>
        <time>2021-09-18T08:59:27.000Z</time>
      </trkpt>
      <trkpt lat="43.89902" lon="6.04851">
        <ele>421.933139</ele>
        <time>2021-09-18T08:59:33.000Z</time>
      </trkpt>
      <trkpt lat="43.89904" lon="6.04858">
        <ele>422.000714</ele>
        <time>2021-09-18T08:59:34.000Z</time>
      </trkpt>
      <trkpt lat="43.89925" lon="6.04911">
        <ele>422.48757</ele>
        <time>2021-09-18T08:59:42.000Z</time>
      </trkpt>
      <trkpt lat="43.89943" lon="6.04948">
        <ele>422.797623</ele>
        <time>2021-09-18T08:59:48.000Z</time>
      </trkpt>
      <trkpt lat="43.89968" lon="6.04997">
        <ele>423.215849</ele>
        <time>2021-09-18T08:59:56.000Z</time>
      </trkpt>
      <trkpt lat="43.89999" lon="6.0504">
        <ele>423.649874</ele>
        <time>2021-09-18T09:00:04.000Z</time>
      </trkpt>
      <trkpt lat="43.90025" lon="6.05079">
        <ele>424.01956</ele>
        <time>2021-09-18T09:00:11.000Z</time>
      </trkpt>
      <trkpt lat="43.90047" lon="6.05119">
        <ele>424.312359</ele>
        <time>2021-09-18T09:00:18.000Z</time>
      </trkpt>
      <trkpt lat="43.90057" lon="6.05136">
        <ele>424.443169</ele>
        <time>2021-09-18T09:00:21.000Z</time>
      </trkpt>
      <trkpt lat="43.90071" lon="6.05159">
        <ele>424.618922</ele>
        <time>2021-09-18T09:00:25.000Z</time>
      </trkpt>
      <trkpt lat="43.90096" lon="6.05189">
        <ele>424.885347</ele>
        <time>2021-09-18T09:00:31.000Z</time>
      </trkpt>
      <trkpt lat="43.90113" lon="6.05222">
        <ele>425.118035</ele>
        <time>2021-09-18T09:00:36.000Z</time>
      </trkpt>
      <trkpt lat="43.9013" lon="6.05264">
        <ele>425.404082</ele>
        <time>2021-09-18T09:00:42.000Z</time>
      </trkpt>
      <trkpt lat="43.90133" lon="6.05272">
        <ele>425.452561</ele>
        <time>2021-09-18T09:00:43.000Z</time>
      </trkpt>
      <trkpt lat="43.90154" lon="6.05321">
        <ele>425.659011</ele>
        <time>2021-09-18T09:00:50.000Z</time>
      </trkpt>
      <trkpt lat="43.90174" lon="6.05379">
        <ele>425.882693</ele>
        <time>2021-09-18T09:00:58.000Z</time>
      </trkpt>
      <trkpt lat="43.90201" lon="6.0545">
        <ele>426.158521</ele>
        <time>2021-09-18T09:01:08.000Z</time>
      </trkpt>
      <trkpt lat="43.90219" lon="6.05506">
        <ele>426.362112</ele>
        <time>2021-09-18T09:01:16.000Z</time>
      </trkpt>
      <trkpt lat="43.90237" lon="6.05576">
        <ele>426.558077</ele>
        <time>2021-09-18T09:01:25.000Z</time>
      </trkpt>
      <trkpt lat="43.90253" lon="6.05638">
        <ele>426.730724</ele>
        <time>2021-09-18T09:01:33.000Z</time>
      </trkpt>
      <trkpt lat="43.90269" lon="6.05709">
        <ele>426.926728</ele>
        <time>2021-09-18T09:01:42.000Z</time>
      </trkpt>
      <trkpt lat="43.90282" lon="6.05775">
        <ele>427.208677</ele>
        <time>2021-09-18T09:01:51.000Z</time>
      </trkpt>
      <trkpt lat="43.90296" lon="6.0585">
        <ele>427.601341</ele>
        <time>2021-09-18T09:02:02.000Z</time>
      </trkpt>
      <trkpt lat="43.90299" lon="6.05863">
        <ele>427.672635</ele>
        <time>2021-09-18T09:02:04.000Z</time>
      </trkpt>
      <trkpt lat="43.90312" lon="6.05931">
        <ele>428.027511</ele>
        <time>2021-09-18T09:02:14.000Z</time>
      </trkpt>
      <trkpt lat="43.90323" lon="6.05986">
        <ele>428.315519</ele>
        <time>2021-09-18T09:02:22.000Z</time>
      </trkpt>
      <trkpt lat="43.9033" lon="6.06043">
        <ele>428.616082</ele>
        <time>2021-09-18T09:02:30.000Z</time>
      </trkpt>
      <trkpt lat="43.90339" lon="6.06114">
        <ele>428.983951</ele>
        <time>2021-09-18T09:02:40.000Z</time>
      </trkpt>
      <trkpt lat="43.90347" lon="6.06192">
        <ele>429.391381</ele>
        <time>2021-09-18T09:02:51.000Z</time>
      </trkpt>
      <trkpt lat="43.9035" lon="6.06266">
        <ele>429.741227</ele>
        <time>2021-09-18T09:03:01.000Z</time>
      </trkpt>
      <trkpt lat="43.90353" lon="6.06326">
        <ele>430.013821</ele>
        <time>2021-09-18T09:03:09.000Z</time>
      </trkpt>
      <trkpt lat="43.90359" lon="6.0639">
        <ele>430.310717</ele>
        <time>2021-09-18T09:03:18.000Z</time>
      </trkpt>
      <trkpt lat="43.90366" lon="6.06457">
        <ele>430.61542</ele>
        <time>2021-09-18T09:03:27.000Z</time>
      </trkpt>
      <trkpt lat="43.90373" lon="6.06531">
        <ele>431.00876</ele>
        <time>2021-09-18T09:03:37.000Z</time>
      </trkpt>
      <trkpt lat="43.90374" lon="6.06538">
        <ele>431.048631</ele>
        <time>2021-09-18T09:03:38.000Z</time>
      </trkpt>
      <trkpt lat="43.90377" lon="6.06567">
        <ele>431.204357</ele>
        <time>2021-09-18T09:03:42.000Z</time>
      </trkpt>
      <trkpt lat="43.90379" lon="6.0659">
        <ele>431.327825</ele>
        <time>2021-09-18T09:03:45.000Z</time>
      </trkpt>
      <trkpt lat="43.90384" lon="6.06641">
        <ele>431.607555</ele>
        <time>2021-09-18T09:03:52.000Z</time>
      </trkpt>
      <trkpt lat="43.90389" lon="6.06697">
        <ele>431.915393</ele>
        <time>2021-09-18T09:04:00.000Z</time>
      </trkpt>
      <trkpt lat="43.90396" lon="6.06772">
        <ele>432.417081</ele>
        <time>2021-09-18T09:04:11.000Z</time>
      </trkpt>
      <trkpt lat="43.90401" lon="6.06834">
        <ele>432.86581</ele>
        <time>2021-09-18T09:04:20.000Z</time>
      </trkpt>
      <trkpt lat="43.90407" lon="6.06894">
        <ele>433.299375</ele>
        <time>2021-09-18T09:04:29.000Z</time>
      </trkpt>
      <trkpt lat="43.90412" lon="6.06956">
        <ele>433.748354</ele>
        <time>2021-09-18T09:04:38.000Z</time>
      </trkpt>
      <trkpt lat="43.90418" lon="6.0702">
        <ele>434.249792</ele>
        <time>2021-09-18T09:04:47.000Z</time>
      </trkpt>
      <trkpt lat="43.90424" lon="6.07084">
        <ele>434.75397</ele>
        <time>2021-09-18T09:04:56.000Z</time>
      </trkpt>
      <trkpt lat="43.90427" lon="6.07148">
        <ele>435.26041</ele>
        <time>2021-09-18T09:05:05.000Z</time>
      </trkpt>
      <trkpt lat="43.90429" lon="6.07225">
        <ele>435.892124</ele>
        <time>2021-09-18T09:05:16.000Z</time>
      </trkpt>
      <trkpt lat="43.9043" lon="6.07302">
        <ele>436.646627</ele>
        <time>2021-09-18T09:05:27.000Z</time>
      </trkpt>
      <trkpt lat="43.90431" lon="6.07309">
        <ele>436.714525</ele>
        <time>2021-09-18T09:05:28.000Z</time>
      </trkpt>
      <trkpt lat="43.90432" lon="6.0737">
        <ele>437.317699</ele>
        <time>2021-09-18T09:05:37.000Z</time>
      </trkpt>
      <trkpt lat="43.90435" lon="6.07428">
        <ele>437.892845</ele>
        <time>2021-09-18T09:05:46.000Z</time>
      </trkpt>
      <trkpt lat="43.90443" lon="6.07469">
        <ele>438.312514</ele>
        <time>2021-09-18T09:05:53.000Z</time>
      </trkpt>
      <trkpt lat="43.90448" lon="6.07489">
        <ele>438.539133</ele>
        <time>2021-09-18T09:05:57.000Z</time>
      </trkpt>
      <trkpt lat="43.90455" lon="6.07521">
        <ele>438.905946</ele>
        <time>2021-09-18T09:06:03.000Z</time>
      </trkpt>
      <trkpt lat="43.90465" lon="6.07562">
        <ele>439.367041</ele>
        <time>2021-09-18T09:06:10.000Z</time>
      </trkpt>
      <trkpt lat="43.90467" lon="6.07575">
        <ele>439.501908</ele>
        <time>2021-09-18T09:06:12.000Z</time>
      </trkpt>
      <trkpt lat="43.90469" lon="6.07612">
        <ele>439.909115</ele>
        <time>2021-09-18T09:06:18.000Z</time>
      </trkpt>
      <trkpt lat="43.90469" lon="6.07619">
        <ele>439.979893</ele>
        <time>2021-09-18T09:06:19.000Z</time>
      </trkpt>
      <trkpt lat="43.90466" lon="6.0766">
        <ele>440.422308</ele>
        <time>2021-09-18T09:06:25.000Z</time>
      </trkpt>
      <trkpt lat="43.90461" lon="6.07708">
        <ele>440.929635</ele>
        <time>2021-09-18T09:06:32.000Z</time>
      </trkpt>
      <trkpt lat="43.90458" lon="6.07735">
        <ele>441.087174</ele>
        <time>2021-09-18T09:06:36.000Z</time>
      </trkpt>
      <trkpt lat="43.90458" lon="6.0775">
        <ele>441.16818</ele>
        <time>2021-09-18T09:06:38.000Z</time>
      </trkpt>
      <trkpt lat="43.90459" lon="6.07793">
        <ele>441.414805</ele>
        <time>2021-09-18T09:06:44.000Z</time>
      </trkpt>
      <trkpt lat="43.90465" lon="6.07855">
        <ele>441.774365</ele>
        <time>2021-09-18T09:06:52.000Z</time>
      </trkpt>
      <trkpt lat="43.90474" lon="6.07926">
        <ele>442.183509</ele>
        <time>2021-09-18T09:07:01.000Z</time>
      </trkpt>
      <trkpt lat="43.90477" lon="6.07949">
        <ele>442.318533</ele>
        <time>2021-09-18T09:07:04.000Z</time>
      </trkpt>
      <trkpt lat="43.9048" lon="6.07972">
        <ele>442.473674</ele>
        <time>2021-09-18T09:07:07.000Z</time>
      </trkpt>
      <trkpt lat="43.90489" lon="6.08031">
        <ele>442.893282</ele>
        <time>2021-09-18T09:07:15.000Z</time>
      </trkpt>
      <trkpt lat="43.90498" lon="6.08086">
        <ele>443.285936</ele>
        <time>2021-09-18T09:07:23.000Z</time>
      </trkpt>
      <trkpt lat="43.90505" lon="6.08132">
        <ele>443.60965</ele>
        <time>2021-09-18T09:07:30.000Z</time>
      </trkpt>
      <trkpt lat="43.90506" lon="6.08138">
        <ele>443.652114</ele>
        <time>2021-09-18T09:07:31.000Z</time>
      </trkpt>
      <trkpt lat="43.90507" lon="6.08144">
        <ele>443.696134</ele>
        <time>2021-09-18T09:07:32.000Z</time>
      </trkpt>
      <trkpt lat="43.90511" lon="6.08171">
        <ele>443.886163</ele>
        <time>2021-09-18T09:07:36.000Z</time>
      </trkpt>
      <trkpt lat="43.90518" lon="6.08222">
        <ele>444.276964</ele>
        <time>2021-09-18T09:07:44.000Z</time>
      </trkpt>
      <trkpt lat="43.90518" lon="6.08228">
        <ele>444.325579</ele>
        <time>2021-09-18T09:07:45.000Z</time>
      </trkpt>
      <trkpt lat="43.90518" lon="6.08234">
        <ele>444.376725</ele>
        <time>2021-09-18T09:07:46.000Z</time>
      </trkpt>
      <trkpt lat="43.9052" lon="6.0826">
        <ele>444.596093</ele>
        <time>2021-09-18T09:07:50.000Z</time>
      </trkpt>
      <trkpt lat="43.90519" lon="6.08313">
        <ele>445.03086</ele>
        <time>2021-09-18T09:07:58.000Z</time>
      </trkpt>
      <trkpt lat="43.90518" lon="6.0832">
        <ele>445.085231</ele>
        <time>2021-09-18T09:07:59.000Z</time>
      </trkpt>
      <trkpt lat="43.90517" lon="6.08347">
        <ele>445.312634</ele>
        <time>2021-09-18T09:08:03.000Z</time>
      </trkpt>
      <trkpt lat="43.90517" lon="6.08354">
        <ele>445.369529</ele>
        <time>2021-09-18T09:08:04.000Z</time>
      </trkpt>
      <trkpt lat="43.90517" lon="6.08368">
        <ele>445.479094</ele>
        <time>2021-09-18T09:08:06.000Z</time>
      </trkpt>
      <trkpt lat="43.90516" lon="6.08388">
        <ele>445.644726</ele>
        <time>2021-09-18T09:08:09.000Z</time>
      </trkpt>
      <trkpt lat="43.90515" lon="6.08423">
        <ele>445.933078</ele>
        <time>2021-09-18T09:08:14.000Z</time>
      </trkpt>
      <trkpt lat="43.90515" lon="6.08429">
        <ele>445.986688</ele>
        <time>2021-09-18T09:08:15.000Z</time>
      </trkpt>
      <trkpt lat="43.90513" lon="6.08469">
        <ele>446.315849</ele>
        <time>2021-09-18T09:08:21.000Z</time>
      </trkpt>
      <trkpt lat="43.90511" lon="6.08536">
        <ele>446.858707</ele>
        <time>2021-09-18T09:08:30.000Z</time>
      </trkpt>
      <trkpt lat="43.9051" lon="6.08593">
        <ele>447.327686</ele>
        <time>2021-09-18T09:08:38.000Z</time>
      </trkpt>
      <trkpt lat="43.90508" lon="6.08654">
        <ele>447.825315</ele>
        <time>2021-09-18T09:08:47.000Z</time>
      </trkpt>
      <trkpt lat="43.90506" lon="6.08712">
        <ele>448.368936</ele>
        <time>2021-09-18T09:08:56.000Z</time>
      </trkpt>
      <trkpt lat="43.90506" lon="6.08762">
        <ele>448.964654</ele>
        <time>2021-09-18T09:09:04.000Z</time>
      </trkpt>
      <trkpt lat="43.90508" lon="6.08805">
        <ele>449.471887</ele>
        <time>2021-09-18T09:09:11.000Z</time>
      </trkpt>
      <trkpt lat="43.90516" lon="6.08854">
        <ele>450.063051</ele>
        <time>2021-09-18T09:09:19.000Z</time>
      </trkpt>
      <trkpt lat="43.90526" lon="6.08891">
        <ele>450.535905</ele>
        <time>2021-09-18T09:09:25.000Z</time>
      </trkpt>
      <trkpt lat="43.90543" lon="6.08955">
        <ele>451.3091</ele>
        <time>2021-09-18T09:09:35.000Z</time>
      </trkpt>
      <trkpt lat="43.90545" lon="6.08962">
        <ele>451.376661</ele>
        <time>2021-09-18T09:09:36.000Z</time>
      </trkpt>
      <trkpt lat="43.90552" lon="6.08995">
        <ele>451.716234</ele>
        <time>2021-09-18T09:09:41.000Z</time>
      </trkpt>
      <trkpt lat="43.90558" lon="6.09039">
        <ele>452.157578</ele>
        <time>2021-09-18T09:09:48.000Z</time>
      </trkpt>
      <trkpt lat="43.90563" lon="6.09077">
        <ele>452.531593</ele>
        <time>2021-09-18T09:09:54.000Z</time>
      </trkpt>
      <trkpt lat="43.90567" lon="6.09116">
        <ele>452.913069</ele>
        <time>2021-09-18T09:10:00.000Z</time>
      </trkpt>
      <trkpt lat="43.90569" lon="6.0915">
        <ele>453.246024</ele>
        <time>2021-09-18T09:10:05.000Z</time>
      </trkpt>
      <trkpt lat="43.90573" lon="6.09192">
        <ele>453.612151</ele>
        <time>2021-09-18T09:10:11.000Z</time>
      </trkpt>
      <trkpt lat="43.90576" lon="6.09238">
        <ele>453.852438</ele>
        <time>2021-09-18T09:10:17.000Z</time>
      </trkpt>
      <trkpt lat="43.90581" lon="6.093">
        <ele>454.176989</ele>
        <time>2021-09-18T09:10:25.000Z</time>
      </trkpt>
      <trkpt lat="43.90589" lon="6.09379">
        <ele>454.583441</ele>
        <time>2021-09-18T09:10:35.000Z</time>
      </trkpt>
      <trkpt lat="43.90596" lon="6.09456">
        <ele>454.978694</ele>
        <time>2021-09-18T09:10:45.000Z</time>
      </trkpt>
      <trkpt lat="43.90601" lon="6.09508">
        <ele>455.238951</ele>
        <time>2021-09-18T09:10:52.000Z</time>
      </trkpt>
      <trkpt lat="43.90608" lon="6.09573">
        <ele>455.567085</ele>
        <time>2021-09-18T09:11:01.000Z</time>
      </trkpt>
      <trkpt lat="43.90615" lon="6.0964">
        <ele>455.898165</ele>
        <time>2021-09-18T09:11:10.000Z</time>
      </trkpt>
      <trkpt lat="43.90618" lon="6.09703">
        <ele>456.151106</ele>
        <time>2021-09-18T09:11:18.000Z</time>
      </trkpt>
      <trkpt lat="43.90619" lon="6.0975">
        <ele>456.267266</ele>
        <time>2021-09-18T09:11:24.000Z</time>
      </trkpt>
      <trkpt lat="43.90619" lon="6.09758">
        <ele>456.286246</ele>
        <time>2021-09-18T09:11:25.000Z</time>
      </trkpt>
      <trkpt lat="43.9062" lon="6.09829">
        <ele>456.4648</ele>
        <time>2021-09-18T09:11:34.000Z</time>
      </trkpt>
      <trkpt lat="43.90621" lon="6.09902">
        <ele>456.646355</ele>
        <time>2021-09-18T09:11:43.000Z</time>
      </trkpt>
      <trkpt lat="43.90623" lon="6.09951">
        <ele>456.794599</ele>
        <time>2021-09-18T09:11:49.000Z</time>
      </trkpt>
      <trkpt lat="43.9063" lon="6.10012">
        <ele>457.020707</ele>
        <time>2021-09-18T09:11:57.000Z</time>
      </trkpt>
      <trkpt lat="43.90639" lon="6.10079">
        <ele>457.264015</ele>
        <time>2021-09-18T09:12:06.000Z</time>
      </trkpt>
      <trkpt lat="43.9064" lon="6.10086">
        <ele>457.29035</ele>
        <time>2021-09-18T09:12:07.000Z</time>
      </trkpt>
      <trkpt lat="43.90648" lon="6.10142">
        <ele>457.497393</ele>
        <time>2021-09-18T09:12:15.000Z</time>
      </trkpt>
      <trkpt lat="43.90656" lon="6.10203">
        <ele>457.767917</ele>
        <time>2021-09-18T09:12:24.000Z</time>
      </trkpt>
      <trkpt lat="43.90668" lon="6.10255">
        <ele>458.0531</ele>
        <time>2021-09-18T09:12:32.000Z</time>
      </trkpt>
      <trkpt lat="43.90689" lon="6.10309">
        <ele>458.374328</ele>
        <time>2021-09-18T09:12:41.000Z</time>
      </trkpt>
      <trkpt lat="43.90704" lon="6.10349">
        <ele>458.608977</ele>
        <time>2021-09-18T09:12:48.000Z</time>
      </trkpt>
      <trkpt lat="43.90729" lon="6.10415">
        <ele>459.003909</ele>
        <time>2021-09-18T09:12:59.000Z</time>
      </trkpt>
      <trkpt lat="43.90754" lon="6.10483">
        <ele>459.425665</ele>
        <time>2021-09-18T09:13:10.000Z</time>
      </trkpt>
      <trkpt lat="43.90778" lon="6.10544">
        <ele>459.806514</ele>
        <time>2021-09-18T09:13:20.000Z</time>
      </trkpt>
      <trkpt lat="43.90804" lon="6.10613">
        <ele>460.243289</ele>
        <time>2021-09-18T09:13:31.000Z</time>
      </trkpt>
      <trkpt lat="43.9083" lon="6.10664">
        <ele>460.644203</ele>
        <time>2021-09-18T09:13:40.000Z</time>
      </trkpt>
      <trkpt lat="43.90853" lon="6.10704">
        <ele>460.984059</ele>
        <time>2021-09-18T09:13:48.000Z</time>
      </trkpt>
      <trkpt lat="43.90877" lon="6.10746">
        <ele>461.34513</ele>
        <time>2021-09-18T09:13:56.000Z</time>
      </trkpt>
      <trkpt lat="43.90906" lon="6.10796">
        <ele>461.775689</ele>
        <time>2021-09-18T09:14:05.000Z</time>
      </trkpt>
      <trkpt lat="43.90937" lon="6.10848">
        <ele>462.146531</ele>
        <time>2021-09-18T09:14:14.000Z</time>
      </trkpt>
      <trkpt lat="43.90971" lon="6.10907">
        <ele>462.499688</ele>
        <time>2021-09-18T09:14:24.000Z</time>
      </trkpt>
      <trkpt lat="43.90975" lon="6.10913">
        <ele>462.53532</ele>
        <time>2021-09-18T09:14:25.000Z</time>
      </trkpt>
      <trkpt lat="43.91009" lon="6.10974">
        <ele>462.89308</ele>
        <time>2021-09-18T09:14:35.000Z</time>
      </trkpt>
      <trkpt lat="43.9103" lon="6.11027">
        <ele>463.184767</ele>
        <time>2021-09-18T09:14:43.000Z</time>
      </trkpt>
      <trkpt lat="43.9105" lon="6.1109">
        <ele>463.536141</ele>
        <time>2021-09-18T09:14:52.000Z</time>
      </trkpt>
      <trkpt lat="43.91056" lon="6.1111">
        <ele>463.649315</ele>
        <time>2021-09-18T09:14:55.000Z</time>
      </trkpt>
      <trkpt lat="43.91063" lon="6.11131">
        <ele>463.76447</ele>
        <time>2021-09-18T09:14:58.000Z</time>
      </trkpt>
      <trkpt lat="43.91085" lon="6.11201">
        <ele>464.161495</ele>
        <time>2021-09-18T09:15:08.000Z</time>
      </trkpt>
      <trkpt lat="43.91087" lon="6.11208">
        <ele>464.200549</ele>
        <time>2021-09-18T09:15:09.000Z</time>
      </trkpt>
      <trkpt lat="43.91102" lon="6.11251">
        <ele>464.443597</ele>
        <time>2021-09-18T09:15:16.000Z</time>
      </trkpt>
      <trkpt lat="43.91119" lon="6.11303">
        <ele>464.730503</ele>
        <time>2021-09-18T09:15:24.000Z</time>
      </trkpt>
      <trkpt lat="43.91129" lon="6.11342">
        <ele>464.93261</ele>
        <time>2021-09-18T09:15:30.000Z</time>
      </trkpt>
      <trkpt lat="43.91129" lon="6.11348">
        <ele>464.967368</ele>
        <time>2021-09-18T09:15:31.000Z</time>
      </trkpt>
      <trkpt lat="43.91132" lon="6.11385">
        <ele>465.151174</ele>
        <time>2021-09-18T09:15:36.000Z</time>
      </trkpt>
      <trkpt lat="43.91136" lon="6.11437">
        <ele>465.411219</ele>
        <time>2021-09-18T09:15:43.000Z</time>
      </trkpt>
      <trkpt lat="43.91144" lon="6.11488">
        <ele>465.677808</ele>
        <time>2021-09-18T09:15:50.000Z</time>
      </trkpt>
      <trkpt lat="43.91155" lon="6.11555">
        <ele>466.071982</ele>
        <time>2021-09-18T09:15:59.000Z</time>
      </trkpt>
      <trkpt lat="43.91165" lon="6.11628">
        <ele>466.499449</ele>
        <time>2021-09-18T09:16:09.000Z</time>
      </trkpt>
      <trkpt lat="43.91167" lon="6.11649">
        <ele>466.622286</ele>
        <time>2021-09-18T09:16:12.000Z</time>
      </trkpt>
      <trkpt lat="43.91168" lon="6.11662">
        <ele>466.700408</ele>
        <time>2021-09-18T09:16:14.000Z</time>
      </trkpt>
      <trkpt lat="43.91169" lon="6.11683">
        <ele>466.819527</ele>
        <time>2021-09-18T09:16:17.000Z</time>
      </trkpt>
      <trkpt lat="43.91168" lon="6.11704">
        <ele>466.943687</ele>
        <time>2021-09-18T09:16:20.000Z</time>
      </trkpt>
      <trkpt lat="43.91161" lon="6.11774">
        <ele>467.510119</ele>
        <time>2021-09-18T09:16:30.000Z</time>
      </trkpt>
      <trkpt lat="43.91156" lon="6.11821">
        <ele>467.951587</ele>
        <time>2021-09-18T09:16:37.000Z</time>
      </trkpt>
      <trkpt lat="43.9116" lon="6.11872">
        <ele>468.439726</ele>
        <time>2021-09-18T09:16:45.000Z</time>
      </trkpt>
      <trkpt lat="43.91167" lon="6.11924">
        <ele>468.931828</ele>
        <time>2021-09-18T09:16:54.000Z</time>
      </trkpt>
      <trkpt lat="43.91173" lon="6.1195">
        <ele>469.191987</ele>
        <time>2021-09-18T09:16:59.000Z</time>
      </trkpt>
      <trkpt lat="43.91187" lon="6.1199">
        <ele>469.560984</ele>
        <time>2021-09-18T09:17:06.000Z</time>
      </trkpt>
      <trkpt lat="43.91203" lon="6.12038">
        <ele>469.919909</ele>
        <time>2021-09-18T09:17:14.000Z</time>
      </trkpt>
      <trkpt lat="43.91222" lon="6.1209">
        <ele>470.309349</ele>
        <time>2021-09-18T09:17:22.000Z</time>
      </trkpt>
      <trkpt lat="43.9124" lon="6.1214">
        <ele>470.684901</ele>
        <time>2021-09-18T09:17:30.000Z</time>
      </trkpt>
      <trkpt lat="43.91255" lon="6.12183">
        <ele>471.007514</ele>
        <time>2021-09-18T09:17:37.000Z</time>
      </trkpt>
      <trkpt lat="43.91278" lon="6.12244">
        <ele>471.715801</ele>
        <time>2021-09-18T09:17:47.000Z</time>
      </trkpt>
      <trkpt lat="43.91298" lon="6.12282">
        <ele>472.245905</ele>
        <time>2021-09-18T09:17:54.000Z</time>
      </trkpt>
      <trkpt lat="43.91327" lon="6.12336">
        <ele>473.007286</ele>
        <time>2021-09-18T09:18:04.000Z</time>
      </trkpt>
      <trkpt lat="43.91352" lon="6.12384">
        <ele>473.687239</ele>
        <time>2021-09-18T09:18:13.000Z</time>
      </trkpt>
      <trkpt lat="43.9137" lon="6.12428">
        <ele>474.224993</ele>
        <time>2021-09-18T09:18:21.000Z</time>
      </trkpt>
      <trkpt lat="43.91388" lon="6.1248">
        <ele>474.781689</ele>
        <time>2021-09-18T09:18:31.000Z</time>
      </trkpt>
      <trkpt lat="43.91404" lon="6.12524">
        <ele>475.259061</ele>
        <time>2021-09-18T09:18:39.000Z</time>
      </trkpt>
      <trkpt lat="43.91422" lon="6.1257">
        <ele>475.756787</ele>
        <time>2021-09-18T09:18:47.000Z</time>
      </trkpt>
      <trkpt lat="43.91446" lon="6.12629">
        <ele>476.42075</ele>
        <time>2021-09-18T09:18:57.000Z</time>
      </trkpt>
      <trkpt lat="43.91472" lon="6.12693">
        <ele>477.144861</ele>
        <time>2021-09-18T09:19:08.000Z</time>
      </trkpt>
      <trkpt lat="43.91485" lon="6.1273">
        <ele>477.544205</ele>
        <time>2021-09-18T09:19:15.000Z</time>
      </trkpt>
      <trkpt lat="43.91492" lon="6.12755">
        <ele>477.808412</ele>
        <time>2021-09-18T09:19:20.000Z</time>
      </trkpt>
      <trkpt lat="43.91497" lon="6.12765">
        <ele>477.923738</ele>
        <time>2021-09-18T09:19:22.000Z</time>
      </trkpt>
      <trkpt lat="43.91508" lon="6.12783">
        <ele>478.161418</ele>
        <time>2021-09-18T09:19:26.000Z</time>
      </trkpt>
      <trkpt lat="43.91522" lon="6.12796">
        <ele>478.394075</ele>
        <time>2021-09-18T09:19:30.000Z</time>
      </trkpt>
      <trkpt lat="43.91531" lon="6.12801">
        <ele>478.52239</ele>
        <time>2021-09-18T09:19:32.000Z</time>
      </trkpt>
      <trkpt lat="43.91568" lon="6.12814">
        <ele>478.962778</ele>
        <time>2021-09-18T09:19:39.000Z</time>
      </trkpt>
      <trkpt lat="43.91573" lon="6.12817">
        <ele>479.010492</ele>
        <time>2021-09-18T09:19:40.000Z</time>
      </trkpt>
      <trkpt lat="43.91583" lon="6.12823">
        <ele>479.104577</ele>
        <time>2021-09-18T09:19:42.000Z</time>
      </trkpt>
      <trkpt lat="43.91588" lon="6.12827">
        <ele>479.152743</ele>
        <time>2021-09-18T09:19:43.000Z</time>
      </trkpt>
      <trkpt lat="43.91618" lon="6.12868">
        <ele>479.506286</ele>
        <time>2021-09-18T09:19:50.000Z</time>
      </trkpt>
      <trkpt lat="43.91655" lon="6.12925">
        <ele>479.979384</ele>
        <time>2021-09-18T09:19:59.000Z</time>
      </trkpt>
      <trkpt lat="43.91693" lon="6.12982">
        <ele>480.47061</ele>
        <time>2021-09-18T09:20:08.000Z</time>
      </trkpt>
      <trkpt lat="43.91726" lon="6.13031">
        <ele>480.94545</ele>
        <time>2021-09-18T09:20:16.000Z</time>
      </trkpt>
      <trkpt lat="43.91763" lon="6.13085">
        <ele>481.482896</ele>
        <time>2021-09-18T09:20:26.000Z</time>
      </trkpt>
      <trkpt lat="43.9179" lon="6.1313">
        <ele>481.901212</ele>
        <time>2021-09-18T09:20:34.000Z</time>
      </trkpt>
      <trkpt lat="43.91821" lon="6.13182">
        <ele>482.372853</ele>
        <time>2021-09-18T09:20:43.000Z</time>
      </trkpt>
      <trkpt lat="43.9185" lon="6.1322">
        <ele>482.733836</ele>
        <time>2021-09-18T09:20:50.000Z</time>
      </trkpt>
      <trkpt lat="43.9188" lon="6.13255">
        <ele>483.093897</ele>
        <time>2021-09-18T09:20:57.000Z</time>
      </trkpt>
      <trkpt lat="43.91905" lon="6.13283">
        <ele>483.382538</ele>
        <time>2021-09-18T09:21:03.000Z</time>
      </trkpt>
      <trkpt lat="43.91934" lon="6.13312">
        <ele>483.712235</ele>
        <time>2021-09-18T09:21:10.000Z</time>
      </trkpt>
      <trkpt lat="43.91974" lon="6.13345">
        <ele>484.186027</ele>
        <time>2021-09-18T09:21:19.000Z</time>
      </trkpt>
      <trkpt lat="43.92006" lon="6.13372">
        <ele>484.578693</ele>
        <time>2021-09-18T09:21:26.000Z</time>
      </trkpt>
      <trkpt lat="43.92035" lon="6.13394">
        <ele>484.928262</ele>
        <time>2021-09-18T09:21:32.000Z</time>
      </trkpt>
      <trkpt lat="43.92045" lon="6.13403">
        <ele>485.058911</ele>
        <time>2021-09-18T09:21:34.000Z</time>
      </trkpt>
      <trkpt lat="43.92055" lon="6.13411">
        <ele>485.178082</ele>
        <time>2021-09-18T09:21:36.000Z</time>
      </trkpt>
      <trkpt lat="43.92088" lon="6.13439">
        <ele>485.587037</ele>
        <time>2021-09-18T09:21:43.000Z</time>
      </trkpt>
      <trkpt lat="43.92115" lon="6.1346">
        <ele>485.761913</ele>
        <time>2021-09-18T09:21:49.000Z</time>
      </trkpt>
      <trkpt lat="43.9212" lon="6.13463">
        <ele>485.778089</ele>
        <time>2021-09-18T09:21:50.000Z</time>
      </trkpt>
      <trkpt lat="43.92127" lon="6.13469">
        <ele>485.807968</ele>
        <time>2021-09-18T09:21:52.000Z</time>
      </trkpt>
      <trkpt lat="43.92135" lon="6.13475">
        <ele>485.835543</ele>
        <time>2021-09-18T09:21:54.000Z</time>
      </trkpt>
      <trkpt lat="43.92152" lon="6.13485">
        <ele>485.897456</ele>
        <time>2021-09-18T09:21:59.000Z</time>
      </trkpt>
      <trkpt lat="43.9216" lon="6.13491">
        <ele>485.927856</ele>
        <time>2021-09-18T09:22:01.000Z</time>
      </trkpt>
      <trkpt lat="43.92168" lon="6.13504">
        <ele>485.966831</ele>
        <time>2021-09-18T09:22:03.000Z</time>
      </trkpt>
      <trkpt lat="43.92172" lon="6.13519">
        <ele>486.006341</ele>
        <time>2021-09-18T09:22:05.000Z</time>
      </trkpt>
      <trkpt lat="43.92176" lon="6.13535">
        <ele>486.045726</ele>
        <time>2021-09-18T09:22:07.000Z</time>
      </trkpt>
      <trkpt lat="43.92178" lon="6.13543">
        <ele>486.06515</ele>
        <time>2021-09-18T09:22:08.000Z</time>
      </trkpt>
      <trkpt lat="43.92192" lon="6.1361">
        <ele>486.2305</ele>
        <time>2021-09-18T09:22:17.000Z</time>
      </trkpt>
      <trkpt lat="43.92202" lon="6.1367">
        <ele>486.275837</ele>
        <time>2021-09-18T09:22:25.000Z</time>
      </trkpt>
      <trkpt lat="43.9221" lon="6.13723">
        <ele>486.262223</ele>
        <time>2021-09-18T09:22:32.000Z</time>
      </trkpt>
      <trkpt lat="43.92217" lon="6.13769">
        <ele>486.250621</ele>
        <time>2021-09-18T09:22:38.000Z</time>
      </trkpt>
      <trkpt lat="43.92218" lon="6.13777">
        <ele>486.24866</ele>
        <time>2021-09-18T09:22:39.000Z</time>
      </trkpt>
      <trkpt lat="43.9223" lon="6.13829">
        <ele>486.235031</ele>
        <time>2021-09-18T09:22:46.000Z</time>
      </trkpt>
      <trkpt lat="43.9224" lon="6.13848">
        <ele>486.229271</ele>
        <time>2021-09-18T09:22:49.000Z</time>
      </trkpt>
      <trkpt lat="43.92248" lon="6.13859">
        <ele>486.225391</ele>
        <time>2021-09-18T09:22:51.000Z</time>
      </trkpt>
      <trkpt lat="43.92273" lon="6.13889">
        <ele>486.190889</ele>
        <time>2021-09-18T09:22:57.000Z</time>
      </trkpt>
      <trkpt lat="43.92281" lon="6.13898">
        <ele>486.178969</ele>
        <time>2021-09-18T09:22:59.000Z</time>
      </trkpt>
      <trkpt lat="43.92288" lon="6.13906">
        <ele>486.167727</ele>
        <time>2021-09-18T09:23:01.000Z</time>
      </trkpt>
      <trkpt lat="43.92298" lon="6.13918">
        <ele>486.15242</ele>
        <time>2021-09-18T09:23:04.000Z</time>
      </trkpt>
      <trkpt lat="43.92307" lon="6.13928">
        <ele>486.137992</ele>
        <time>2021-09-18T09:23:07.000Z</time>
      </trkpt>
      <trkpt lat="43.92325" lon="6.13948">
        <ele>486.111296</ele>
        <time>2021-09-18T09:23:13.000Z</time>
      </trkpt>
      <trkpt lat="43.92336" lon="6.1396">
        <ele>486.094415</ele>
        <time>2021-09-18T09:23:17.000Z</time>
      </trkpt>
      <trkpt lat="43.92347" lon="6.13974">
        <ele>486.076022</ele>
        <time>2021-09-18T09:23:21.000Z</time>
      </trkpt>
      <trkpt lat="43.92359" lon="6.13989">
        <ele>486.057427</ele>
        <time>2021-09-18T09:23:25.000Z</time>
      </trkpt>
      <trkpt lat="43.92365" lon="6.13998">
        <ele>486.046439</ele>
        <time>2021-09-18T09:23:27.000Z</time>
      </trkpt>
      <trkpt lat="43.92372" lon="6.14007">
        <ele>486.035159</ele>
        <time>2021-09-18T09:23:29.000Z</time>
      </trkpt>
      <trkpt lat="43.9238" lon="6.14017">
        <ele>486.023239</ele>
        <time>2021-09-18T09:23:31.000Z</time>
      </trkpt>
      <trkpt lat="43.92384" lon="6.14022">
        <ele>486.016564</ele>
        <time>2021-09-18T09:23:32.000Z</time>
      </trkpt>
      <trkpt lat="43.92414" lon="6.14061">
        <ele>486.339791</ele>
        <time>2021-09-18T09:23:39.000Z</time>
      </trkpt>
      <trkpt lat="43.92444" lon="6.14087">
        <ele>486.681716</ele>
        <time>2021-09-18T09:23:45.000Z</time>
      </trkpt>
      <trkpt lat="43.92461" lon="6.14093">
        <ele>486.846483</ele>
        <time>2021-09-18T09:23:48.000Z</time>
      </trkpt>
      <trkpt lat="43.92473" lon="6.14095">
        <ele>486.954078</ele>
        <time>2021-09-18T09:23:50.000Z</time>
      </trkpt>
      <trkpt lat="43.9251" lon="6.14099">
        <ele>487.310517</ele>
        <time>2021-09-18T09:23:57.000Z</time>
      </trkpt>
      <trkpt lat="43.92538" lon="6.14102">
        <ele>487.57282</ele>
        <time>2021-09-18T09:24:03.000Z</time>
      </trkpt>
      <trkpt lat="43.92569" lon="6.14105">
        <ele>487.983321</ele>
        <time>2021-09-18T09:24:10.000Z</time>
      </trkpt>
      <trkpt lat="43.92601" lon="6.14108">
        <ele>488.489743</ele>
        <time>2021-09-18T09:24:17.000Z</time>
      </trkpt>
      <trkpt lat="43.92641" lon="6.14115">
        <ele>489.144907</ele>
        <time>2021-09-18T09:24:26.000Z</time>
      </trkpt>
      <trkpt lat="43.92662" lon="6.14121">
        <ele>489.490141</ele>
        <time>2021-09-18T09:24:31.000Z</time>
      </trkpt>
      <trkpt lat="43.92666" lon="6.14123">
        <ele>489.558124</ele>
        <time>2021-09-18T09:24:32.000Z</time>
      </trkpt>
      <trkpt lat="43.92691" lon="6.14136">
        <ele>489.983745</ele>
        <time>2021-09-18T09:24:38.000Z</time>
      </trkpt>
      <trkpt lat="43.92727" lon="6.14163">
        <ele>490.639512</ele>
        <time>2021-09-18T09:24:47.000Z</time>
      </trkpt>
      <trkpt lat="43.92748" lon="6.14182">
        <ele>491.13486</ele>
        <time>2021-09-18T09:24:53.000Z</time>
      </trkpt>
      <trkpt lat="43.92767" lon="6.142">
        <ele>491.570922</ele>
        <time>2021-09-18T09:24:58.000Z</time>
      </trkpt>
      <trkpt lat="43.92771" lon="6.14203">
        <ele>491.656556</ele>
        <time>2021-09-18T09:24:59.000Z</time>
      </trkpt>
      <trkpt lat="43.928" lon="6.14233">
        <ele>492.357701</ele>
        <time>2021-09-18T09:25:07.000Z</time>
      </trkpt>
      <trkpt lat="43.92821" lon="6.14266">
        <ele>492.972442</ele>
        <time>2021-09-18T09:25:14.000Z</time>
      </trkpt>
      <trkpt lat="43.92841" lon="6.14315">
        <ele>493.751294</ele>
        <time>2021-09-18T09:25:23.000Z</time>
      </trkpt>
      <trkpt lat="43.92854" lon="6.14365">
        <ele>494.240231</ele>
        <time>2021-09-18T09:25:31.000Z</time>
      </trkpt>
      <trkpt lat="43.9286" lon="6.14432">
        <ele>494.621744</ele>
        <time>2021-09-18T09:25:40.000Z</time>
      </trkpt>
      <trkpt lat="43.92864" lon="6.14503">
        <ele>495.028513</ele>
        <time>2021-09-18T09:25:49.000Z</time>
      </trkpt>
      <trkpt lat="43.92871" lon="6.14566">
        <ele>495.38709</ele>
        <time>2021-09-18T09:25:56.000Z</time>
      </trkpt>
      <trkpt lat="43.92887" lon="6.14612">
        <ele>495.538815</ele>
        <time>2021-09-18T09:26:02.000Z</time>
      </trkpt>
      <trkpt lat="43.92911" lon="6.1466">
        <ele>495.63336</ele>
        <time>2021-09-18T09:26:09.000Z</time>
      </trkpt>
      <trkpt lat="43.92945" lon="6.14707">
        <ele>495.739824</ele>
        <time>2021-09-18T09:26:17.000Z</time>
      </trkpt>
      <trkpt lat="43.92972" lon="6.14748">
        <ele>495.828184</ele>
        <time>2021-09-18T09:26:24.000Z</time>
      </trkpt>
      <trkpt lat="43.92987" lon="6.14795">
        <ele>495.996794</ele>
        <time>2021-09-18T09:26:31.000Z</time>
      </trkpt>
      <trkpt lat="43.92997" lon="6.1484">
        <ele>496.325674</ele>
        <time>2021-09-18T09:26:38.000Z</time>
      </trkpt>
      <trkpt lat="43.93006" lon="6.14884">
        <ele>496.645098</ele>
        <time>2021-09-18T09:26:45.000Z</time>
      </trkpt>
      <trkpt lat="43.93017" lon="6.14934">
        <ele>497.005658</ele>
        <time>2021-09-18T09:26:53.000Z</time>
      </trkpt>
      <trkpt lat="43.93023" lon="6.14959">
        <ele>497.186077</ele>
        <time>2021-09-18T09:26:58.000Z</time>
      </trkpt>
      <trkpt lat="43.93024" lon="6.14963">
        <ele>497.210574</ele>
        <time>2021-09-18T09:26:59.000Z</time>
      </trkpt>
      <trkpt lat="43.93017" lon="6.14966">
        <ele>497.279635</ele>
        <time>2021-09-18T09:27:02.000Z</time>
      </trkpt>
      <trkpt lat="43.93017" lon="6.14967">
        <ele>497.288844</ele>
        <time>2021-09-18T09:27:04.000Z</time>
      </trkpt>
      <trkpt lat="43.93027" lon="6.14979">
        <ele>497.419524</ele>
        <time>2021-09-18T09:28:31.000Z</time>
      </trkpt>
      <trkpt lat="43.93028" lon="6.14982">
        <ele>497.442692</ele>
        <time>2021-09-18T09:28:32.000Z</time>
      </trkpt>
      <trkpt lat="43.93033" lon="6.15006">
        <ele>497.615333</ele>
        <time>2021-09-18T09:28:37.000Z</time>
      </trkpt>
      <trkpt lat="43.93038" lon="6.15026">
        <ele>497.590782</ele>
        <time>2021-09-18T09:28:39.000Z</time>
      </trkpt>
      <trkpt lat="43.93042" lon="6.15047">
        <ele>497.563974</ele>
        <time>2021-09-18T09:28:43.000Z</time>
      </trkpt>
      <trkpt lat="43.93055" lon="6.15107">
        <ele>497.489815</ele>
        <time>2021-09-18T09:28:50.000Z</time>
      </trkpt>
      <trkpt lat="43.93074" lon="6.15182">
        <ele>497.393535</ele>
        <time>2021-09-18T09:28:59.000Z</time>
      </trkpt>
      <trkpt lat="43.93088" lon="6.15223">
        <ele>497.339626</ele>
        <time>2021-09-18T09:29:04.000Z</time>
      </trkpt>
      <trkpt lat="43.93095" lon="6.15238">
        <ele>497.318309</ele>
        <time>2021-09-18T09:29:06.000Z</time>
      </trkpt>
      <trkpt lat="43.93115" lon="6.15273">
        <ele>497.312284</ele>
        <time>2021-09-18T09:29:11.000Z</time>
      </trkpt>
      <trkpt lat="43.93138" lon="6.15314">
        <ele>497.307143</ele>
        <time>2021-09-18T09:29:17.000Z</time>
      </trkpt>
      <trkpt lat="43.93158" lon="6.15344">
        <ele>497.303007</ele>
        <time>2021-09-18T09:29:23.000Z</time>
      </trkpt>
      <trkpt lat="43.93199" lon="6.15397">
        <ele>497.295276</ele>
        <time>2021-09-18T09:29:32.000Z</time>
      </trkpt>
      <trkpt lat="43.93232" lon="6.15432">
        <ele>497.3968</ele>
        <time>2021-09-18T09:29:40.000Z</time>
      </trkpt>
      <trkpt lat="43.93251" lon="6.15453">
        <ele>497.558662</ele>
        <time>2021-09-18T09:29:45.000Z</time>
      </trkpt>
      <trkpt lat="43.93259" lon="6.15461">
        <ele>497.622136</ele>
        <time>2021-09-18T09:29:47.000Z</time>
      </trkpt>
      <trkpt lat="43.93294" lon="6.15505">
        <ele>497.933632</ele>
        <time>2021-09-18T09:29:56.000Z</time>
      </trkpt>
      <trkpt lat="43.93331" lon="6.15557">
        <ele>498.28488</ele>
        <time>2021-09-18T09:30:05.000Z</time>
      </trkpt>
      <trkpt lat="43.93363" lon="6.15598">
        <ele>498.618478</ele>
        <time>2021-09-18T09:30:12.000Z</time>
      </trkpt>
      <trkpt lat="43.93404" lon="6.15633">
        <ele>499.130746</ele>
        <time>2021-09-18T09:30:20.000Z</time>
      </trkpt>
      <trkpt lat="43.93435" lon="6.15661">
        <ele>499.524527</ele>
        <time>2021-09-18T09:30:27.000Z</time>
      </trkpt>
      <trkpt lat="43.93463" lon="6.15687">
        <ele>499.877032</ele>
        <time>2021-09-18T09:30:35.000Z</time>
      </trkpt>
      <trkpt lat="43.93485" lon="6.15713">
        <ele>500.182318</ele>
        <time>2021-09-18T09:30:43.000Z</time>
      </trkpt>
      <trkpt lat="43.93505" lon="6.15749">
        <ele>500.610444</ele>
        <time>2021-09-18T09:30:52.000Z</time>
      </trkpt>
      <trkpt lat="43.93526" lon="6.15789">
        <ele>501.206702</ele>
        <time>2021-09-18T09:31:01.000Z</time>
      </trkpt>
      <trkpt lat="43.93555" lon="6.15847">
        <ele>502.037395</ele>
        <time>2021-09-18T09:31:13.000Z</time>
      </trkpt>
      <trkpt lat="43.93577" lon="6.15896">
        <ele>502.730208</ele>
        <time>2021-09-18T09:31:22.000Z</time>
      </trkpt>
      <trkpt lat="43.93602" lon="6.1595">
        <ele>503.429596</ele>
        <time>2021-09-18T09:31:31.000Z</time>
      </trkpt>
      <trkpt lat="43.93634" lon="6.16007">
        <ele>503.83806</ele>
        <time>2021-09-18T09:31:40.000Z</time>
      </trkpt>
      <trkpt lat="43.93667" lon="6.16057">
        <ele>504.221101</ele>
        <time>2021-09-18T09:31:48.000Z</time>
      </trkpt>
      <trkpt lat="43.93697" lon="6.16104">
        <ele>504.583667</ele>
        <time>2021-09-18T09:31:56.000Z</time>
      </trkpt>
      <trkpt lat="43.93731" lon="6.16157">
        <ele>505.034</ele>
        <time>2021-09-18T09:32:05.000Z</time>
      </trkpt>
      <trkpt lat="43.93766" lon="6.16208">
        <ele>505.540496</ele>
        <time>2021-09-18T09:32:14.000Z</time>
      </trkpt>
      <trkpt lat="43.93793" lon="6.16247">
        <ele>505.926486</ele>
        <time>2021-09-18T09:32:22.000Z</time>
      </trkpt>
      <trkpt lat="43.9384" lon="6.16297">
        <ele>506.514766</ele>
        <time>2021-09-18T09:32:31.000Z</time>
      </trkpt>
      <trkpt lat="43.93884" lon="6.16338">
        <ele>506.982204</ele>
        <time>2021-09-18T09:32:40.000Z</time>
      </trkpt>
      <trkpt lat="43.93931" lon="6.16382">
        <ele>507.474789</ele>
        <time>2021-09-18T09:32:50.000Z</time>
      </trkpt>
      <trkpt lat="43.93963" lon="6.16424">
        <ele>507.853009</ele>
        <time>2021-09-18T09:32:58.000Z</time>
      </trkpt>
      <trkpt lat="43.93989" lon="6.16467">
        <ele>508.210284</ele>
        <time>2021-09-18T09:33:06.000Z</time>
      </trkpt>
      <trkpt lat="43.94018" lon="6.16524">
        <ele>508.713175</ele>
        <time>2021-09-18T09:33:16.000Z</time>
      </trkpt>
      <trkpt lat="43.94038" lon="6.16581">
        <ele>509.16814</ele>
        <time>2021-09-18T09:33:25.000Z</time>
      </trkpt>
      <trkpt lat="43.94057" lon="6.16656">
        <ele>509.738675</ele>
        <time>2021-09-18T09:33:36.000Z</time>
      </trkpt>
      <trkpt lat="43.94076" lon="6.16715">
        <ele>510.183428</ele>
        <time>2021-09-18T09:33:45.000Z</time>
      </trkpt>
      <trkpt lat="43.94099" lon="6.16772">
        <ele>510.618094</ele>
        <time>2021-09-18T09:33:54.000Z</time>
      </trkpt>
      <trkpt lat="43.94114" lon="6.1682">
        <ele>510.970713</ele>
        <time>2021-09-18T09:34:01.000Z</time>
      </trkpt>
      <trkpt lat="43.94121" lon="6.16869">
        <ele>511.305312</ele>
        <time>2021-09-18T09:34:08.000Z</time>
      </trkpt>
      <trkpt lat="43.94131" lon="6.16904">
        <ele>511.555148</ele>
        <time>2021-09-18T09:34:14.000Z</time>
      </trkpt>
      <trkpt lat="43.94144" lon="6.16928">
        <ele>511.660593</ele>
        <time>2021-09-18T09:34:19.000Z</time>
      </trkpt>
      <trkpt lat="43.94151" lon="6.16934">
        <ele>511.696486</ele>
        <time>2021-09-18T09:34:21.000Z</time>
      </trkpt>
      <trkpt lat="43.94163" lon="6.16943">
        <ele>511.751975</ele>
        <time>2021-09-18T09:34:24.000Z</time>
      </trkpt>
      <trkpt lat="43.94168" lon="6.16946">
        <ele>511.77096</ele>
        <time>2021-09-18T09:34:26.000Z</time>
      </trkpt>
      <trkpt lat="43.94193" lon="6.16955">
        <ele>511.876962</ele>
        <time>2021-09-18T09:34:32.000Z</time>
      </trkpt>
      <trkpt lat="43.94211" lon="6.1696">
        <ele>511.952606</ele>
        <time>2021-09-18T09:34:37.000Z</time>
      </trkpt>
      <trkpt lat="43.94229" lon="6.16967">
        <ele>512.030883</ele>
        <time>2021-09-18T09:34:41.000Z</time>
      </trkpt>
      <trkpt lat="43.94238" lon="6.16972">
        <ele>512.069735</ele>
        <time>2021-09-18T09:34:43.000Z</time>
      </trkpt>
      <trkpt lat="43.94259" lon="6.16988">
        <ele>512.167988</ele>
        <time>2021-09-18T09:34:48.000Z</time>
      </trkpt>
      <trkpt lat="43.94264" lon="6.16992">
        <ele>512.190446</ele>
        <time>2021-09-18T09:34:49.000Z</time>
      </trkpt>
      <trkpt lat="43.94294" lon="6.1702">
        <ele>512.304288</ele>
        <time>2021-09-18T09:34:55.000Z</time>
      </trkpt>
      <trkpt lat="43.94329" lon="6.17062">
        <ele>512.092029</ele>
        <time>2021-09-18T09:35:03.000Z</time>
      </trkpt>
      <trkpt lat="43.94354" lon="6.171">
        <ele>511.924259</ele>
        <time>2021-09-18T09:35:10.000Z</time>
      </trkpt>
      <trkpt lat="43.94362" lon="6.17111">
        <ele>511.874366</ele>
        <time>2021-09-18T09:35:12.000Z</time>
      </trkpt>
      <trkpt lat="43.94374" lon="6.17127">
        <ele>511.797916</ele>
        <time>2021-09-18T09:35:15.000Z</time>
      </trkpt>
      <trkpt lat="43.94397" lon="6.17164">
        <ele>511.638003</ele>
        <time>2021-09-18T09:35:21.000Z</time>
      </trkpt>
      <trkpt lat="43.9443" lon="6.1723">
        <ele>511.541337</ele>
        <time>2021-09-18T09:35:31.000Z</time>
      </trkpt>
      <trkpt lat="43.94459" lon="6.1728">
        <ele>511.596971</ele>
        <time>2021-09-18T09:35:39.000Z</time>
      </trkpt>
      <trkpt lat="43.94492" lon="6.17316">
        <ele>511.64701</ele>
        <time>2021-09-18T09:35:46.000Z</time>
      </trkpt>
      <trkpt lat="43.94536" lon="6.17343">
        <ele>511.703757</ele>
        <time>2021-09-18T09:35:54.000Z</time>
      </trkpt>
      <trkpt lat="43.94591" lon="6.17376">
        <ele>512.007061</ele>
        <time>2021-09-18T09:36:04.000Z</time>
      </trkpt>
      <trkpt lat="43.94596" lon="6.1738">
        <ele>512.044791</ele>
        <time>2021-09-18T09:36:05.000Z</time>
      </trkpt>
      <trkpt lat="43.94619" lon="6.17405">
        <ele>512.235343</ele>
        <time>2021-09-18T09:36:10.000Z</time>
      </trkpt>
      <trkpt lat="43.94649" lon="6.17444">
        <ele>512.49707</ele>
        <time>2021-09-18T09:36:17.000Z</time>
      </trkpt>
      <trkpt lat="43.94682" lon="6.17491">
        <ele>512.796718</ele>
        <time>2021-09-18T09:36:26.000Z</time>
      </trkpt>
      <trkpt lat="43.94713" lon="6.17535">
        <ele>513.228864</ele>
        <time>2021-09-18T09:36:35.000Z</time>
      </trkpt>
      <trkpt lat="43.94743" lon="6.17572">
        <ele>513.661833</ele>
        <time>2021-09-18T09:36:43.000Z</time>
      </trkpt>
      <trkpt lat="43.9478" lon="6.17607">
        <ele>514.135759</ele>
        <time>2021-09-18T09:36:52.000Z</time>
      </trkpt>
      <trkpt lat="43.94816" lon="6.17633">
        <ele>514.570171</ele>
        <time>2021-09-18T09:37:00.000Z</time>
      </trkpt>
      <trkpt lat="43.94857" lon="6.17661">
        <ele>515.071034</ele>
        <time>2021-09-18T09:37:09.000Z</time>
      </trkpt>
      <trkpt lat="43.94907" lon="6.17683">
        <ele>515.642882</ele>
        <time>2021-09-18T09:37:19.000Z</time>
      </trkpt>
      <trkpt lat="43.9494" lon="6.17701">
        <ele>516.03123</ele>
        <time>2021-09-18T09:37:26.000Z</time>
      </trkpt>
      <trkpt lat="43.94985" lon="6.17732">
        <ele>516.569137</ele>
        <time>2021-09-18T09:37:36.000Z</time>
      </trkpt>
      <trkpt lat="43.95014" lon="6.17753">
        <ele>517.006553</ele>
        <time>2021-09-18T09:37:43.000Z</time>
      </trkpt>
      <trkpt lat="43.95047" lon="6.17778">
        <ele>517.597795</ele>
        <time>2021-09-18T09:37:51.000Z</time>
      </trkpt>
      <trkpt lat="43.95081" lon="6.17809">
        <ele>518.252514</ele>
        <time>2021-09-18T09:38:00.000Z</time>
      </trkpt>
      <trkpt lat="43.95112" lon="6.17839">
        <ele>518.845701</ele>
        <time>2021-09-18T09:38:08.000Z</time>
      </trkpt>
      <trkpt lat="43.95119" lon="6.17846">
        <ele>518.993182</ele>
        <time>2021-09-18T09:38:10.000Z</time>
      </trkpt>
      <trkpt lat="43.95138" lon="6.17865">
        <ele>519.358658</ele>
        <time>2021-09-18T09:38:15.000Z</time>
      </trkpt>
      <trkpt lat="43.95174" lon="6.17901">
        <ele>520.149697</ele>
        <time>2021-09-18T09:38:24.000Z</time>
      </trkpt>
      <trkpt lat="43.95213" lon="6.17941">
        <ele>521.094641</ele>
        <time>2021-09-18T09:38:34.000Z</time>
      </trkpt>
      <trkpt lat="43.95243" lon="6.17972">
        <ele>521.803121</ele>
        <time>2021-09-18T09:38:42.000Z</time>
      </trkpt>
      <trkpt lat="43.95271" lon="6.18003">
        <ele>522.495842</ele>
        <time>2021-09-18T09:38:50.000Z</time>
      </trkpt>
      <trkpt lat="43.95301" lon="6.18033">
        <ele>523.177817</ele>
        <time>2021-09-18T09:38:58.000Z</time>
      </trkpt>
      <trkpt lat="43.95331" lon="6.18053">
        <ele>523.679005</ele>
        <time>2021-09-18T09:39:05.000Z</time>
      </trkpt>
      <trkpt lat="43.95368" lon="6.18075">
        <ele>524.306477</ele>
        <time>2021-09-18T09:39:14.000Z</time>
      </trkpt>
      <trkpt lat="43.95397" lon="6.18095">
        <ele>524.80028</ele>
        <time>2021-09-18T09:39:20.000Z</time>
      </trkpt>
      <trkpt lat="43.95434" lon="6.1812">
        <ele>525.430477</ele>
        <time>2021-09-18T09:39:27.000Z</time>
      </trkpt>
      <trkpt lat="43.95474" lon="6.18147">
        <ele>525.986568</ele>
        <time>2021-09-18T09:39:35.000Z</time>
      </trkpt>
      <trkpt lat="43.95514" lon="6.18175">
        <ele>526.378818</ele>
        <time>2021-09-18T09:39:44.000Z</time>
      </trkpt>
      <trkpt lat="43.95551" lon="6.18201">
        <ele>526.739417</ele>
        <time>2021-09-18T09:39:52.000Z</time>
      </trkpt>
      <trkpt lat="43.95588" lon="6.18229">
        <ele>527.096852</ele>
        <time>2021-09-18T09:39:59.000Z</time>
      </trkpt>
      <trkpt lat="43.9563" lon="6.18268">
        <ele>527.50282</ele>
        <time>2021-09-18T09:40:07.000Z</time>
      </trkpt>
      <trkpt lat="43.9567" lon="6.18305">
        <ele>527.825754</ele>
        <time>2021-09-18T09:40:15.000Z</time>
      </trkpt>
      <trkpt lat="43.95707" lon="6.18341">
        <ele>528.135618</ele>
        <time>2021-09-18T09:40:24.000Z</time>
      </trkpt>
      <trkpt lat="43.95741" lon="6.18371">
        <ele>528.409273</ele>
        <time>2021-09-18T09:40:33.000Z</time>
      </trkpt>
      <trkpt lat="43.95784" lon="6.18406">
        <ele>528.664611</ele>
        <time>2021-09-18T09:40:43.000Z</time>
      </trkpt>
      <trkpt lat="43.95829" lon="6.18443">
        <ele>528.826626</ele>
        <time>2021-09-18T09:40:52.000Z</time>
      </trkpt>
      <trkpt lat="43.95873" lon="6.18478">
        <ele>528.97972</ele>
        <time>2021-09-18T09:41:00.000Z</time>
      </trkpt>
      <trkpt lat="43.95912" lon="6.1851">
        <ele>529.120217</ele>
        <time>2021-09-18T09:41:08.000Z</time>
      </trkpt>
      <trkpt lat="43.95942" lon="6.18535">
        <ele>529.546982</ele>
        <time>2021-09-18T09:41:15.000Z</time>
      </trkpt>
      <trkpt lat="43.95961" lon="6.18552">
        <ele>529.917194</ele>
        <time>2021-09-18T09:41:21.000Z</time>
      </trkpt>
      <trkpt lat="43.95985" lon="6.18574">
        <ele>530.383792</ele>
        <time>2021-09-18T09:41:29.000Z</time>
      </trkpt>
      <trkpt lat="43.96002" lon="6.18592">
        <ele>530.731135</ele>
        <time>2021-09-18T09:41:35.000Z</time>
      </trkpt>
      <trkpt lat="43.96036" lon="6.18626">
        <ele>531.419784</ele>
        <time>2021-09-18T09:41:46.000Z</time>
      </trkpt>
      <trkpt lat="43.96063" lon="6.18653">
        <ele>531.963554</ele>
        <time>2021-09-18T09:41:54.000Z</time>
      </trkpt>
      <trkpt lat="43.96089" lon="6.18678">
        <ele>532.318689</ele>
        <time>2021-09-18T09:42:01.000Z</time>
      </trkpt>
      <trkpt lat="43.96116" lon="6.18706">
        <ele>532.647453</ele>
        <time>2021-09-18T09:42:08.000Z</time>
      </trkpt>
      <trkpt lat="43.9615" lon="6.18741">
        <ele>533.061606</ele>
        <time>2021-09-18T09:42:16.000Z</time>
      </trkpt>
      <trkpt lat="43.96183" lon="6.18759">
        <ele>533.407063</ele>
        <time>2021-09-18T09:42:22.000Z</time>
      </trkpt>
      <trkpt lat="43.96219" lon="6.18776">
        <ele>533.779185</ele>
        <time>2021-09-18T09:42:28.000Z</time>
      </trkpt>
      <trkpt lat="43.96242" lon="6.18787">
        <ele>534.041773</ele>
        <time>2021-09-18T09:42:32.000Z</time>
      </trkpt>
      <trkpt lat="43.96252" lon="6.18793">
        <ele>534.169067</ele>
        <time>2021-09-18T09:42:34.000Z</time>
      </trkpt>
      <trkpt lat="43.96268" lon="6.18802">
        <ele>534.361126</ele>
        <time>2021-09-18T09:42:37.000Z</time>
      </trkpt>
      <trkpt lat="43.96285" lon="6.18813">
        <ele>534.578538</ele>
        <time>2021-09-18T09:42:40.000Z</time>
      </trkpt>
      <trkpt lat="43.96328" lon="6.18842">
        <ele>535.112703</ele>
        <time>2021-09-18T09:42:47.000Z</time>
      </trkpt>
      <trkpt lat="43.96363" lon="6.18866">
        <ele>535.563611</ele>
        <time>2021-09-18T09:42:54.000Z</time>
      </trkpt>
      <trkpt lat="43.96397" lon="6.18881">
        <ele>536.030264</ele>
        <time>2021-09-18T09:43:02.000Z</time>
      </trkpt>
      <trkpt lat="43.96432" lon="6.18895">
        <ele>536.828412</ele>
        <time>2021-09-18T09:43:11.000Z</time>
      </trkpt>
      <trkpt lat="43.96462" lon="6.18907">
        <ele>537.508817</ele>
        <time>2021-09-18T09:43:19.000Z</time>
      </trkpt>
      <trkpt lat="43.96498" lon="6.18923">
        <ele>538.333017</ele>
        <time>2021-09-18T09:43:29.000Z</time>
      </trkpt>
      <trkpt lat="43.9653" lon="6.18938">
        <ele>539.073649</ele>
        <time>2021-09-18T09:43:37.000Z</time>
      </trkpt>
      <trkpt lat="43.96568" lon="6.1896">
        <ele>539.8677</ele>
        <time>2021-09-18T09:43:45.000Z</time>
      </trkpt>
      <trkpt lat="43.96598" lon="6.18979">
        <ele>540.140038</ele>
        <time>2021-09-18T09:43:51.000Z</time>
      </trkpt>
      <trkpt lat="43.96641" lon="6.19006">
        <ele>540.52185</ele>
        <time>2021-09-18T09:44:00.000Z</time>
      </trkpt>
      <trkpt lat="43.96695" lon="6.1904">
        <ele>541.011908</ele>
        <time>2021-09-18T09:44:09.000Z</time>
      </trkpt>
      <trkpt lat="43.96741" lon="6.19067">
        <ele>541.309488</ele>
        <time>2021-09-18T09:44:17.000Z</time>
      </trkpt>
      <trkpt lat="43.96789" lon="6.19094">
        <ele>541.406405</ele>
        <time>2021-09-18T09:44:25.000Z</time>
      </trkpt>
      <trkpt lat="43.96831" lon="6.19116">
        <ele>541.490265</ele>
        <time>2021-09-18T09:44:32.000Z</time>
      </trkpt>
      <trkpt lat="43.96891" lon="6.19144">
        <ele>541.6096</ele>
        <time>2021-09-18T09:44:42.000Z</time>
      </trkpt>
      <trkpt lat="43.96946" lon="6.19168">
        <ele>541.96934</ele>
        <time>2021-09-18T09:44:51.000Z</time>
      </trkpt>
      <trkpt lat="43.96959" lon="6.19173">
        <ele>542.052948</ele>
        <time>2021-09-18T09:44:53.000Z</time>
      </trkpt>
      <trkpt lat="43.97007" lon="6.19194">
        <ele>542.374193</ele>
        <time>2021-09-18T09:45:01.000Z</time>
      </trkpt>
      <trkpt lat="43.97047" lon="6.19211">
        <ele>542.645167</ele>
        <time>2021-09-18T09:45:09.000Z</time>
      </trkpt>
      <trkpt lat="43.97074" lon="6.19222">
        <ele>542.938679</ele>
        <time>2021-09-18T09:45:17.000Z</time>
      </trkpt>
      <trkpt lat="43.97101" lon="6.19233">
        <ele>543.446665</ele>
        <time>2021-09-18T09:45:25.000Z</time>
      </trkpt>
      <trkpt lat="43.97129" lon="6.19246">
        <ele>544.004574</ele>
        <time>2021-09-18T09:45:33.000Z</time>
      </trkpt>
      <trkpt lat="43.97151" lon="6.19256">
        <ele>544.42465</ele>
        <time>2021-09-18T09:45:40.000Z</time>
      </trkpt>
      <trkpt lat="43.97183" lon="6.19272">
        <ele>545.05806</ele>
        <time>2021-09-18T09:45:50.000Z</time>
      </trkpt>
      <trkpt lat="43.97214" lon="6.19289">
        <ele>545.679894</ele>
        <time>2021-09-18T09:45:58.000Z</time>
      </trkpt>
      <trkpt lat="43.97249" lon="6.19308">
        <ele>546.120758</ele>
        <time>2021-09-18T09:46:06.000Z</time>
      </trkpt>
      <trkpt lat="43.97282" lon="6.19333">
        <ele>546.174283</ele>
        <time>2021-09-18T09:46:13.000Z</time>
      </trkpt>
      <trkpt lat="43.97323" lon="6.19365">
        <ele>546.240125</ele>
        <time>2021-09-18T09:46:20.000Z</time>
      </trkpt>
      <trkpt lat="43.97374" lon="6.19401">
        <ele>546.320223</ele>
        <time>2021-09-18T09:46:28.000Z</time>
      </trkpt>
      <trkpt lat="43.97414" lon="6.1942">
        <ele>546.462726</ele>
        <time>2021-09-18T09:46:34.000Z</time>
      </trkpt>
      <trkpt lat="43.97469" lon="6.19445">
        <ele>546.801764</ele>
        <time>2021-09-18T09:46:42.000Z</time>
      </trkpt>
      <trkpt lat="43.97475" lon="6.19449">
        <ele>546.83928</ele>
        <time>2021-09-18T09:46:43.000Z</time>
      </trkpt>
      <trkpt lat="43.97517" lon="6.19471">
        <ele>547.098189</ele>
        <time>2021-09-18T09:46:50.000Z</time>
      </trkpt>
      <trkpt lat="43.97562" lon="6.19496">
        <ele>547.378943</ele>
        <time>2021-09-18T09:46:58.000Z</time>
      </trkpt>
      <trkpt lat="43.97606" lon="6.19518">
        <ele>547.650661</ele>
        <time>2021-09-18T09:47:06.000Z</time>
      </trkpt>
      <trkpt lat="43.97647" lon="6.19537">
        <ele>547.90264</ele>
        <time>2021-09-18T09:47:14.000Z</time>
      </trkpt>
      <trkpt lat="43.97681" lon="6.19563">
        <ele>548.131411</ele>
        <time>2021-09-18T09:47:22.000Z</time>
      </trkpt>
      <trkpt lat="43.97707" lon="6.19592">
        <ele>548.322258</ele>
        <time>2021-09-18T09:47:29.000Z</time>
      </trkpt>
      <trkpt lat="43.97731" lon="6.19623">
        <ele>548.539414</ele>
        <time>2021-09-18T09:47:36.000Z</time>
      </trkpt>
      <trkpt lat="43.97765" lon="6.19656">
        <ele>548.87152</ele>
        <time>2021-09-18T09:47:44.000Z</time>
      </trkpt>
      <trkpt lat="43.97809" lon="6.19677">
        <ele>549.242985</ele>
        <time>2021-09-18T09:47:53.000Z</time>
      </trkpt>
      <trkpt lat="43.97854" lon="6.19693">
        <ele>549.614829</ele>
        <time>2021-09-18T09:48:02.000Z</time>
      </trkpt>
      <trkpt lat="43.97896" lon="6.197">
        <ele>549.895333</ele>
        <time>2021-09-18T09:48:10.000Z</time>
      </trkpt>
      <trkpt lat="43.97933" lon="6.19698">
        <ele>549.959854</ele>
        <time>2021-09-18T09:48:16.000Z</time>
      </trkpt>
      <trkpt lat="43.97967" lon="6.19692">
        <ele>550.018033</ele>
        <time>2021-09-18T09:48:22.000Z</time>
      </trkpt>
      <trkpt lat="43.98002" lon="6.19685">
        <ele>550.079462</ele>
        <time>2021-09-18T09:48:29.000Z</time>
      </trkpt>
      <trkpt lat="43.9805" lon="6.19675">
        <ele>550.16512</ele>
        <time>2021-09-18T09:48:39.000Z</time>
      </trkpt>
      <trkpt lat="43.98092" lon="6.19669">
        <ele>550.355439</ele>
        <time>2021-09-18T09:48:48.000Z</time>
      </trkpt>
      <trkpt lat="43.98134" lon="6.1967">
        <ele>550.610792</ele>
        <time>2021-09-18T09:48:56.000Z</time>
      </trkpt>
      <trkpt lat="43.98178" lon="6.19675">
        <ele>550.882848</ele>
        <time>2021-09-18T09:49:04.000Z</time>
      </trkpt>
      <trkpt lat="43.98223" lon="6.1968">
        <ele>551.164139</ele>
        <time>2021-09-18T09:49:13.000Z</time>
      </trkpt>
      <trkpt lat="43.98256" lon="6.19683">
        <ele>551.445828</ele>
        <time>2021-09-18T09:49:20.000Z</time>
      </trkpt>
      <trkpt lat="43.98261" lon="6.19683">
        <ele>551.513036</ele>
        <time>2021-09-18T09:49:21.000Z</time>
      </trkpt>
      <trkpt lat="43.98313" lon="6.19689">
        <ele>552.245845</ele>
        <time>2021-09-18T09:49:32.000Z</time>
      </trkpt>
      <trkpt lat="43.9835" lon="6.19694">
        <ele>552.764348</ele>
        <time>2021-09-18T09:49:40.000Z</time>
      </trkpt>
      <trkpt lat="43.98386" lon="6.197">
        <ele>553.278689</ele>
        <time>2021-09-18T09:49:48.000Z</time>
      </trkpt>
      <trkpt lat="43.98429" lon="6.1971">
        <ele>553.842994</ele>
        <time>2021-09-18T09:49:57.000Z</time>
      </trkpt>
      <trkpt lat="43.98465" lon="6.19723">
        <ele>554.088142</ele>
        <time>2021-09-18T09:50:04.000Z</time>
      </trkpt>
      <trkpt lat="43.98506" lon="6.19737">
        <ele>554.364229</ele>
        <time>2021-09-18T09:50:11.000Z</time>
      </trkpt>
      <trkpt lat="43.98564" lon="6.19758">
        <ele>554.75859</ele>
        <time>2021-09-18T09:50:20.000Z</time>
      </trkpt>
      <trkpt lat="43.98614" lon="6.19775">
        <ele>555.13849</ele>
        <time>2021-09-18T09:50:28.000Z</time>
      </trkpt>
      <trkpt lat="43.98671" lon="6.19795">
        <ele>555.672986</ele>
        <time>2021-09-18T09:50:38.000Z</time>
      </trkpt>
      <trkpt lat="43.98725" lon="6.19814">
        <ele>556.1877</ele>
        <time>2021-09-18T09:50:48.000Z</time>
      </trkpt>
      <trkpt lat="43.98763" lon="6.19827">
        <ele>556.539078</ele>
        <time>2021-09-18T09:50:55.000Z</time>
      </trkpt>
      <trkpt lat="43.98793" lon="6.19838">
        <ele>556.979794</ele>
        <time>2021-09-18T09:51:01.000Z</time>
      </trkpt>
      <trkpt lat="43.98838" lon="6.19853">
        <ele>557.717324</ele>
        <time>2021-09-18T09:51:10.000Z</time>
      </trkpt>
      <trkpt lat="43.98881" lon="6.19867">
        <ele>558.441049</ele>
        <time>2021-09-18T09:51:19.000Z</time>
      </trkpt>
      <trkpt lat="43.98908" lon="6.19875">
        <ele>558.882647</ele>
        <time>2021-09-18T09:51:25.000Z</time>
      </trkpt>
      <trkpt lat="43.98935" lon="6.19882">
        <ele>559.330165</ele>
        <time>2021-09-18T09:51:32.000Z</time>
      </trkpt>
      <trkpt lat="43.98956" lon="6.19882">
        <ele>559.649761</ele>
        <time>2021-09-18T09:51:39.000Z</time>
      </trkpt>
      <trkpt lat="43.98985" lon="6.19878">
        <ele>560.025625</ele>
        <time>2021-09-18T09:51:48.000Z</time>
      </trkpt>
      <trkpt lat="43.99006" lon="6.19867">
        <ele>560.324951</ele>
        <time>2021-09-18T09:51:55.000Z</time>
      </trkpt>
      <trkpt lat="43.99023" lon="6.19851">
        <ele>560.587105</ele>
        <time>2021-09-18T09:52:02.000Z</time>
      </trkpt>
      <trkpt lat="43.99036" lon="6.1983">
        <ele>560.845919</ele>
        <time>2021-09-18T09:52:09.000Z</time>
      </trkpt>
      <trkpt lat="43.99046" lon="6.19797">
        <ele>561.175677</ele>
        <time>2021-09-18T09:52:16.000Z</time>
      </trkpt>
      <trkpt lat="43.99048" lon="6.19764">
        <ele>561.48937</ele>
        <time>2021-09-18T09:52:24.000Z</time>
      </trkpt>
      <trkpt lat="43.99049" lon="6.19732">
        <ele>561.788105</ele>
        <time>2021-09-18T09:52:32.000Z</time>
      </trkpt>
      <trkpt lat="43.99048" lon="6.197">
        <ele>562.017982</ele>
        <time>2021-09-18T09:52:40.000Z</time>
      </trkpt>
      <trkpt lat="43.99046" lon="6.1966">
        <ele>562.2658</ele>
        <time>2021-09-18T09:52:50.000Z</time>
      </trkpt>
      <trkpt lat="43.99043" lon="6.19626">
        <ele>562.478508</ele>
        <time>2021-09-18T09:52:59.000Z</time>
      </trkpt>
      <trkpt lat="43.99041" lon="6.19586">
        <ele>562.719769</ele>
        <time>2021-09-18T09:53:08.000Z</time>
      </trkpt>
      <trkpt lat="43.99046" lon="6.19572">
        <ele>562.817371</ele>
        <time>2021-09-18T09:53:11.000Z</time>
      </trkpt>
      <trkpt lat="43.99049" lon="6.19568">
        <ele>562.851852</ele>
        <time>2021-09-18T09:53:12.000Z</time>
      </trkpt>
      <trkpt lat="43.99051" lon="6.19563">
        <ele>562.884837</ele>
        <time>2021-09-18T09:53:13.000Z</time>
      </trkpt>
      <trkpt lat="43.99058" lon="6.19556">
        <ele>562.956556</ele>
        <time>2021-09-18T09:53:15.000Z</time>
      </trkpt>
      <trkpt lat="43.99062" lon="6.19554">
        <ele>562.999573</ele>
        <time>2021-09-18T09:53:16.000Z</time>
      </trkpt>
      <trkpt lat="43.99085" lon="6.19552">
        <ele>563.188845</ele>
        <time>2021-09-18T09:53:21.000Z</time>
      </trkpt>
      <trkpt lat="43.99089" lon="6.19552">
        <ele>563.225622</ele>
        <time>2021-09-18T09:53:23.000Z</time>
      </trkpt>
      <trkpt lat="43.99101" lon="6.19551">
        <ele>563.331732</ele>
        <time>2021-09-18T09:53:25.000Z</time>
      </trkpt>
      <trkpt lat="43.99106" lon="6.19551">
        <ele>563.369348</ele>
        <time>2021-09-18T09:53:26.000Z</time>
      </trkpt>
      <trkpt lat="43.9911" lon="6.19551">
        <ele>563.404482</ele>
        <time>2021-09-18T09:53:27.000Z</time>
      </trkpt>
      <trkpt lat="43.99126" lon="6.19553">
        <ele>563.78893</ele>
        <time>2021-09-18T09:53:31.000Z</time>
      </trkpt>
      <trkpt lat="43.99145" lon="6.19555">
        <ele>564.306018</ele>
        <time>2021-09-18T09:53:36.000Z</time>
      </trkpt>
      <trkpt lat="43.99177" lon="6.19559">
        <ele>565.164746</ele>
        <time>2021-09-18T09:53:45.000Z</time>
      </trkpt>
      <trkpt lat="43.99196" lon="6.19561">
        <ele>565.695885</ele>
        <time>2021-09-18T09:53:51.000Z</time>
      </trkpt>
      <trkpt lat="43.99216" lon="6.19564">
        <ele>566.232551</ele>
        <time>2021-09-18T09:53:57.000Z</time>
      </trkpt>
      <trkpt lat="43.99237" lon="6.19567">
        <ele>566.790776</ele>
        <time>2021-09-18T09:54:03.000Z</time>
      </trkpt>
      <trkpt lat="43.9926" lon="6.1957">
        <ele>567.424365</ele>
        <time>2021-09-18T09:54:11.000Z</time>
      </trkpt>
      <trkpt lat="43.99278" lon="6.19571">
        <ele>567.894646</ele>
        <time>2021-09-18T09:54:17.000Z</time>
      </trkpt>
      <trkpt lat="43.99305" lon="6.1957">
        <ele>568.668859</ele>
        <time>2021-09-18T09:54:26.000Z</time>
      </trkpt>
      <trkpt lat="43.9933" lon="6.19564">
        <ele>569.410053</ele>
        <time>2021-09-18T09:54:35.000Z</time>
      </trkpt>
      <trkpt lat="43.99344" lon="6.19557">
        <ele>569.835864</ele>
        <time>2021-09-18T09:54:40.000Z</time>
      </trkpt>
      <trkpt lat="43.99354" lon="6.19552">
        <ele>570.170233</ele>
        <time>2021-09-18T09:54:44.000Z</time>
      </trkpt>
      <trkpt lat="43.99368" lon="6.19546">
        <ele>570.586271</ele>
        <time>2021-09-18T09:54:48.000Z</time>
      </trkpt>
      <trkpt lat="43.99394" lon="6.19539">
        <ele>571.380326</ele>
        <time>2021-09-18T09:54:55.000Z</time>
      </trkpt>
      <trkpt lat="43.99422" lon="6.19537">
        <ele>572.203421</ele>
        <time>2021-09-18T09:55:03.000Z</time>
      </trkpt>
      <trkpt lat="43.99442" lon="6.19535">
        <ele>572.80445</ele>
        <time>2021-09-18T09:55:09.000Z</time>
      </trkpt>
      <trkpt lat="43.99463" lon="6.19534">
        <ele>573.410964</ele>
        <time>2021-09-18T09:55:15.000Z</time>
      </trkpt>
      <trkpt lat="43.99486" lon="6.19539">
        <ele>574.246533</ele>
        <time>2021-09-18T09:55:22.000Z</time>
      </trkpt>
      <trkpt lat="43.99512" lon="6.19555">
        <ele>575.314814</ele>
        <time>2021-09-18T09:55:31.000Z</time>
      </trkpt>
      <trkpt lat="43.99538" lon="6.19571">
        <ele>576.385272</ele>
        <time>2021-09-18T09:55:40.000Z</time>
      </trkpt>
      <trkpt lat="43.9955" lon="6.19579">
        <ele>576.888789</ele>
        <time>2021-09-18T09:55:46.000Z</time>
      </trkpt>
      <trkpt lat="43.99553" lon="6.19569">
        <ele>577.156537</ele>
        <time>2021-09-18T09:55:51.000Z</time>
      </trkpt>
      <trkpt lat="43.99555" lon="6.19559">
        <ele>577.44965</ele>
        <time>2021-09-18T09:55:57.000Z</time>
      </trkpt>
      <trkpt lat="43.99575" lon="6.1956">
        <ele>578.184914</ele>
        <time>2021-09-18T09:57:09.000Z</time>
      </trkpt>
      <trkpt lat="43.99577" lon="6.19564">
        <ele>578.318716</ele>
        <time>2021-09-18T09:57:11.000Z</time>
      </trkpt>
      <trkpt lat="43.99587" lon="6.19574">
        <ele>578.795868</ele>
        <time>2021-09-18T09:57:17.000Z</time>
      </trkpt>
      <trkpt lat="43.99599" lon="6.19594">
        <ele>579.469333</ele>
        <time>2021-09-18T09:57:21.000Z</time>
      </trkpt>
      <trkpt lat="43.99598" lon="6.19597">
        <ele>579.553095</ele>
        <time>2021-09-18T09:57:22.000Z</time>
      </trkpt>
      <trkpt lat="43.99597" lon="6.19598">
        <ele>579.60014</ele>
        <time>2021-09-18T09:57:25.000Z</time>
      </trkpt>
      <trkpt lat="43.99593" lon="6.19604">
        <ele>579.828544</ele>
        <time>2021-09-18T09:57:29.000Z</time>
      </trkpt>
      <trkpt lat="43.99608" lon="6.19613">
        <ele>580.309394</ele>
        <time>2021-09-18T09:57:34.000Z</time>
      </trkpt>
      <trkpt lat="43.99628" lon="6.19624">
        <ele>580.300007</ele>
        <time>2021-09-18T09:57:40.000Z</time>
      </trkpt>
      <trkpt lat="43.99636" lon="6.19628">
        <ele>580.296259</ele>
        <time>2021-09-18T09:57:45.000Z</time>
      </trkpt>
      <trkpt lat="43.99604" lon="6.19598">
        <ele>580.279233</ele>
        <time>2021-09-18T11:21:04.000Z</time>
      </trkpt>
      <trkpt lat="43.99596" lon="6.19602">
        <ele>580.275556</ele>
        <time>2021-09-18T11:25:36.000Z</time>
      </trkpt>
      <trkpt lat="43.99599" lon="6.19607">
        <ele>580.273781</ele>
        <time>2021-09-18T11:25:37.000Z</time>
      </trkpt>
      <trkpt lat="43.99611" lon="6.19614">
        <ele>580.267957</ele>
        <time>2021-09-18T11:25:41.000Z</time>
      </trkpt>
      <trkpt lat="43.99642" lon="6.19631">
        <ele>580.253671</ele>
        <time>2021-09-18T11:25:49.000Z</time>
      </trkpt>
      <trkpt lat="43.99665" lon="6.19639">
        <ele>580.243325</ele>
        <time>2021-09-18T11:25:55.000Z</time>
      </trkpt>
      <trkpt lat="43.99688" lon="6.19644">
        <ele>580.232887</ele>
        <time>2021-09-18T11:26:01.000Z</time>
      </trkpt>
      <trkpt lat="43.99712" lon="6.19648">
        <ele>580.616615</ele>
        <time>2021-09-18T11:26:07.000Z</time>
      </trkpt>
      <trkpt lat="43.99744" lon="6.19654">
        <ele>581.156269</ele>
        <time>2021-09-18T11:26:15.000Z</time>
      </trkpt>
      <trkpt lat="43.99777" lon="6.19663">
        <ele>581.733453</ele>
        <time>2021-09-18T11:26:23.000Z</time>
      </trkpt>
      <trkpt lat="43.9981" lon="6.19672">
        <ele>582.284379</ele>
        <time>2021-09-18T11:26:31.000Z</time>
      </trkpt>
      <trkpt lat="43.99848" lon="6.19687">
        <ele>582.95552</ele>
        <time>2021-09-18T11:26:41.000Z</time>
      </trkpt>
      <trkpt lat="43.99884" lon="6.19701">
        <ele>583.561543</ele>
        <time>2021-09-18T11:26:50.000Z</time>
      </trkpt>
      <trkpt lat="43.99914" lon="6.19717">
        <ele>584.061988</ele>
        <time>2021-09-18T11:26:57.000Z</time>
      </trkpt>
      <trkpt lat="43.9994" lon="6.19729">
        <ele>584.479477</ele>
        <time>2021-09-18T11:27:03.000Z</time>
      </trkpt>
      <trkpt lat="43.99948" lon="6.19733">
        <ele>584.620123</ele>
        <time>2021-09-18T11:27:05.000Z</time>
      </trkpt>
      <trkpt lat="43.99967" lon="6.19742">
        <ele>584.933977</ele>
        <time>2021-09-18T11:27:10.000Z</time>
      </trkpt>
      <trkpt lat="43.99974" lon="6.19745">
        <ele>585.050191</ele>
        <time>2021-09-18T11:27:12.000Z</time>
      </trkpt>
      <trkpt lat="43.99982" lon="6.19749">
        <ele>585.17973</ele>
        <time>2021-09-18T11:27:14.000Z</time>
      </trkpt>
      <trkpt lat="43.99994" lon="6.19755">
        <ele>585.3807</ele>
        <time>2021-09-18T11:27:18.000Z</time>
      </trkpt>
      <trkpt lat="44.00006" lon="6.19761">
        <ele>585.589082</ele>
        <time>2021-09-18T11:27:20.000Z</time>
      </trkpt>
      <trkpt lat="44.00037" lon="6.19775">
        <ele>586.103282</ele>
        <time>2021-09-18T11:27:27.000Z</time>
      </trkpt>
      <trkpt lat="44.00074" lon="6.19793">
        <ele>586.97097</ele>
        <time>2021-09-18T11:27:35.000Z</time>
      </trkpt>
      <trkpt lat="44.0011" lon="6.1981">
        <ele>587.821814</ele>
        <time>2021-09-18T11:27:43.000Z</time>
      </trkpt>
      <trkpt lat="44.00148" lon="6.19829">
        <ele>588.729677</ele>
        <time>2021-09-18T11:27:51.000Z</time>
      </trkpt>
      <trkpt lat="44.00179" lon="6.19853">
        <ele>589.516703</ele>
        <time>2021-09-18T11:27:58.000Z</time>
      </trkpt>
      <trkpt lat="44.00196" lon="6.19866">
        <ele>589.958427</ele>
        <time>2021-09-18T11:28:02.000Z</time>
      </trkpt>
      <trkpt lat="44.0021" lon="6.19873">
        <ele>590.193057</ele>
        <time>2021-09-18T11:28:05.000Z</time>
      </trkpt>
      <trkpt lat="44.00247" lon="6.19887">
        <ele>590.640411</ele>
        <time>2021-09-18T11:28:12.000Z</time>
      </trkpt>
      <trkpt lat="44.00285" lon="6.19898">
        <ele>591.085974</ele>
        <time>2021-09-18T11:28:19.000Z</time>
      </trkpt>
      <trkpt lat="44.00319" lon="6.1991">
        <ele>591.496028</ele>
        <time>2021-09-18T11:28:25.000Z</time>
      </trkpt>
      <trkpt lat="44.00352" lon="6.19932">
        <ele>591.927709</ele>
        <time>2021-09-18T11:28:31.000Z</time>
      </trkpt>
      <trkpt lat="44.00403" lon="6.19968">
        <ele>592.085771</ele>
        <time>2021-09-18T11:28:40.000Z</time>
      </trkpt>
      <trkpt lat="44.00447" lon="6.19992">
        <ele>591.965787</ele>
        <time>2021-09-18T11:28:47.000Z</time>
      </trkpt>
      <trkpt lat="44.00481" lon="6.20019">
        <ele>591.866973</ele>
        <time>2021-09-18T11:28:53.000Z</time>
      </trkpt>
      <trkpt lat="44.00527" lon="6.2007">
        <ele>591.710365</ele>
        <time>2021-09-18T11:29:02.000Z</time>
      </trkpt>
      <trkpt lat="44.00535" lon="6.20084">
        <ele>591.611855</ele>
        <time>2021-09-18T11:29:04.000Z</time>
      </trkpt>
      <trkpt lat="44.00542" lon="6.20101">
        <ele>591.504647</ele>
        <time>2021-09-18T11:29:06.000Z</time>
      </trkpt>
      <trkpt lat="44.00546" lon="6.20106">
        <ele>591.461144</ele>
        <time>2021-09-18T11:29:07.000Z</time>
      </trkpt>
      <trkpt lat="44.00554" lon="6.20106">
        <ele>591.394943</ele>
        <time>2021-09-18T11:29:08.000Z</time>
      </trkpt>
      <trkpt lat="44.00564" lon="6.20112">
        <ele>591.314379</ele>
        <time>2021-09-18T11:29:10.000Z</time>
      </trkpt>
      <trkpt lat="44.00569" lon="6.20115">
        <ele>591.270123</ele>
        <time>2021-09-18T11:29:11.000Z</time>
      </trkpt>
      <trkpt lat="44.00588" lon="6.20133">
        <ele>591.095064</ele>
        <time>2021-09-18T11:29:15.000Z</time>
      </trkpt>
      <trkpt lat="44.00606" lon="6.20154">
        <ele>590.918107</ele>
        <time>2021-09-18T11:29:19.000Z</time>
      </trkpt>
      <trkpt lat="44.00648" lon="6.20203">
        <ele>590.493152</ele>
        <time>2021-09-18T11:29:28.000Z</time>
      </trkpt>
      <trkpt lat="44.00652" lon="6.20207">
        <ele>590.456981</ele>
        <time>2021-09-18T11:29:29.000Z</time>
      </trkpt>
      <trkpt lat="44.00656" lon="6.20211">
        <ele>590.417723</ele>
        <time>2021-09-18T11:29:31.000Z</time>
      </trkpt>
      <trkpt lat="44.00656" lon="6.20211">
        <ele>590.417723</ele>
        <time>2021-09-18T11:29:33.000Z</time>
      </trkpt>
      <trkpt lat="44.00658" lon="6.20214">
        <ele>590.393961</ele>
        <time>2021-09-18T11:29:35.000Z</time>
      </trkpt>
      <trkpt lat="44.0066" lon="6.20216">
        <ele>590.378119</ele>
        <time>2021-09-18T11:29:36.000Z</time>
      </trkpt>
      <trkpt lat="44.00669" lon="6.20226">
        <ele>590.344733</ele>
        <time>2021-09-18T11:29:42.000Z</time>
      </trkpt>
      <trkpt lat="44.00673" lon="6.2023">
        <ele>590.351905</ele>
        <time>2021-09-18T11:32:08.000Z</time>
      </trkpt>
      <trkpt lat="44.00674" lon="6.20232">
        <ele>590.354494</ele>
        <time>2021-09-18T11:32:09.000Z</time>
      </trkpt>
      <trkpt lat="44.00676" lon="6.20234">
        <ele>590.35768</ele>
        <time>2021-09-18T11:32:10.000Z</time>
      </trkpt>
      <trkpt lat="44.00686" lon="6.20245">
        <ele>590.377194</ele>
        <time>2021-09-18T11:32:14.000Z</time>
      </trkpt>
      <trkpt lat="44.00708" lon="6.2027">
        <ele>590.419406</ele>
        <time>2021-09-18T11:32:20.000Z</time>
      </trkpt>
      <trkpt lat="44.00716" lon="6.2028">
        <ele>590.435447</ele>
        <time>2021-09-18T11:32:22.000Z</time>
      </trkpt>
      <trkpt lat="44.00728" lon="6.20295">
        <ele>590.460052</ele>
        <time>2021-09-18T11:32:25.000Z</time>
      </trkpt>
      <trkpt lat="44.00758" lon="6.20337">
        <ele>590.523533</ele>
        <time>2021-09-18T11:32:33.000Z</time>
      </trkpt>
      <trkpt lat="44.00769" lon="6.20352">
        <ele>590.546114</ele>
        <time>2021-09-18T11:32:36.000Z</time>
      </trkpt>
      <trkpt lat="44.00783" lon="6.20372">
        <ele>590.5753</ele>
        <time>2021-09-18T11:32:40.000Z</time>
      </trkpt>
      <trkpt lat="44.00804" lon="6.204">
        <ele>590.729035</ele>
        <time>2021-09-18T11:32:46.000Z</time>
      </trkpt>
      <trkpt lat="44.00807" lon="6.20406">
        <ele>590.79018</ele>
        <time>2021-09-18T11:32:47.000Z</time>
      </trkpt>
      <trkpt lat="44.00825" lon="6.2043">
        <ele>591.088532</ele>
        <time>2021-09-18T11:32:52.000Z</time>
      </trkpt>
      <trkpt lat="44.00858" lon="6.20473">
        <ele>591.619619</ele>
        <time>2021-09-18T11:33:01.000Z</time>
      </trkpt>
      <trkpt lat="44.00895" lon="6.20512">
        <ele>592.177713</ele>
        <time>2021-09-18T11:33:11.000Z</time>
      </trkpt>
      <trkpt lat="44.0093" lon="6.20546">
        <ele>592.681802</ele>
        <time>2021-09-18T11:33:21.000Z</time>
      </trkpt>
      <trkpt lat="44.00973" lon="6.20584">
        <ele>593.755747</ele>
        <time>2021-09-18T11:33:34.000Z</time>
      </trkpt>
      <trkpt lat="44.01006" lon="6.20614">
        <ele>594.614317</ele>
        <time>2021-09-18T11:33:44.000Z</time>
      </trkpt>
      <trkpt lat="44.01034" lon="6.20654">
        <ele>595.486291</ele>
        <time>2021-09-18T11:33:53.000Z</time>
      </trkpt>
      <trkpt lat="44.01052" lon="6.20681">
        <ele>596.069502</ele>
        <time>2021-09-18T11:33:59.000Z</time>
      </trkpt>
      <trkpt lat="44.01063" lon="6.20692">
        <ele>596.371537</ele>
        <time>2021-09-18T11:34:02.000Z</time>
      </trkpt>
      <trkpt lat="44.01093" lon="6.20711">
        <ele>597.275953</ele>
        <time>2021-09-18T11:34:09.000Z</time>
      </trkpt>
      <trkpt lat="44.01116" lon="6.20725">
        <ele>598.0848</ele>
        <time>2021-09-18T11:34:15.000Z</time>
      </trkpt>
      <trkpt lat="44.01137" lon="6.20732">
        <ele>598.758675</ele>
        <time>2021-09-18T11:34:21.000Z</time>
      </trkpt>
      <trkpt lat="44.01155" lon="6.20747">
        <ele>599.416024</ele>
        <time>2021-09-18T11:34:26.000Z</time>
      </trkpt>
      <trkpt lat="44.01159" lon="6.20757">
        <ele>599.680867</ele>
        <time>2021-09-18T11:34:28.000Z</time>
      </trkpt>
      <trkpt lat="44.01162" lon="6.20769">
        <ele>599.967855</ele>
        <time>2021-09-18T11:34:30.000Z</time>
      </trkpt>
      <trkpt lat="44.01163" lon="6.20775">
        <ele>600.103925</ele>
        <time>2021-09-18T11:34:31.000Z</time>
      </trkpt>
      <trkpt lat="44.01166" lon="6.20814">
        <ele>601.013556</ele>
        <time>2021-09-18T11:34:38.000Z</time>
      </trkpt>
      <trkpt lat="44.01175" lon="6.20843">
        <ele>601.73232</ele>
        <time>2021-09-18T11:34:44.000Z</time>
      </trkpt>
      <trkpt lat="44.01193" lon="6.20878">
        <ele>602.577048</ele>
        <time>2021-09-18T11:34:52.000Z</time>
      </trkpt>
      <trkpt lat="44.01213" lon="6.20916">
        <ele>603.204924</ele>
        <time>2021-09-18T11:35:00.000Z</time>
      </trkpt>
      <trkpt lat="44.01235" lon="6.20948">
        <ele>603.794796</ele>
        <time>2021-09-18T11:35:07.000Z</time>
      </trkpt>
      <trkpt lat="44.01262" lon="6.20986">
        <ele>604.505088</ele>
        <time>2021-09-18T11:35:15.000Z</time>
      </trkpt>
      <trkpt lat="44.01287" lon="6.21011">
        <ele>605.073489</ele>
        <time>2021-09-18T11:35:21.000Z</time>
      </trkpt>
      <trkpt lat="44.01314" lon="6.2102">
        <ele>605.584918</ele>
        <time>2021-09-18T11:35:26.000Z</time>
      </trkpt>
      <trkpt lat="44.01347" lon="6.21022">
        <ele>606.146912</ele>
        <time>2021-09-18T11:35:32.000Z</time>
      </trkpt>
      <trkpt lat="44.01389" lon="6.21029">
        <ele>606.823246</ele>
        <time>2021-09-18T11:35:40.000Z</time>
      </trkpt>
      <trkpt lat="44.01407" lon="6.2104">
        <ele>607.134035</ele>
        <time>2021-09-18T11:35:44.000Z</time>
      </trkpt>
      <trkpt lat="44.01414" lon="6.21048">
        <ele>607.284581</ele>
        <time>2021-09-18T11:35:46.000Z</time>
      </trkpt>
      <trkpt lat="44.01425" lon="6.21061">
        <ele>607.511816</ele>
        <time>2021-09-18T11:35:49.000Z</time>
      </trkpt>
      <trkpt lat="44.01433" lon="6.21078">
        <ele>607.743752</ele>
        <time>2021-09-18T11:35:52.000Z</time>
      </trkpt>
      <trkpt lat="44.01438" lon="6.21089">
        <ele>607.897515</ele>
        <time>2021-09-18T11:35:54.000Z</time>
      </trkpt>
      <trkpt lat="44.01444" lon="6.21115">
        <ele>608.214741</ele>
        <time>2021-09-18T11:35:58.000Z</time>
      </trkpt>
      <trkpt lat="44.01453" lon="6.2117">
        <ele>608.889153</ele>
        <time>2021-09-18T11:36:06.000Z</time>
      </trkpt>
      <trkpt lat="44.01462" lon="6.21239">
        <ele>609.79771</ele>
        <time>2021-09-18T11:36:17.000Z</time>
      </trkpt>
      <trkpt lat="44.01465" lon="6.21278">
        <ele>610.296908</ele>
        <time>2021-09-18T11:36:24.000Z</time>
      </trkpt>
      <trkpt lat="44.01467" lon="6.21313">
        <ele>610.743027</ele>
        <time>2021-09-18T11:36:31.000Z</time>
      </trkpt>
      <trkpt lat="44.01464" lon="6.21327">
        <ele>610.937976</ele>
        <time>2021-09-18T11:36:34.000Z</time>
      </trkpt>
      <trkpt lat="44.01461" lon="6.21332">
        <ele>611.012087</ele>
        <time>2021-09-18T11:36:35.000Z</time>
      </trkpt>
      <trkpt lat="44.01457" lon="6.21337">
        <ele>611.111338</ele>
        <time>2021-09-18T11:36:36.000Z</time>
      </trkpt>
      <trkpt lat="44.01442" lon="6.21341">
        <ele>611.389607</ele>
        <time>2021-09-18T11:36:39.000Z</time>
      </trkpt>
      <trkpt lat="44.01398" lon="6.21353">
        <ele>611.709243</ele>
        <time>2021-09-18T11:36:46.000Z</time>
      </trkpt>
      <trkpt lat="44.01348" lon="6.21365">
        <ele>611.422954</ele>
        <time>2021-09-18T11:36:53.000Z</time>
      </trkpt>
      <trkpt lat="44.01292" lon="6.21374">
        <ele>611.108145</ele>
        <time>2021-09-18T11:37:00.000Z</time>
      </trkpt>
      <trkpt lat="44.01284" lon="6.21375">
        <ele>611.061076</ele>
        <time>2021-09-18T11:37:01.000Z</time>
      </trkpt>
      <trkpt lat="44.01232" lon="6.21386">
        <ele>610.66436</ele>
        <time>2021-09-18T11:37:07.000Z</time>
      </trkpt>
      <trkpt lat="44.01171" lon="6.21405">
        <ele>609.522882</ele>
        <time>2021-09-18T11:37:14.000Z</time>
      </trkpt>
      <trkpt lat="44.0112" lon="6.21431">
        <ele>608.54149</ele>
        <time>2021-09-18T11:37:20.000Z</time>
      </trkpt>
      <trkpt lat="44.01074" lon="6.21466">
        <ele>607.579556</ele>
        <time>2021-09-18T11:37:26.000Z</time>
      </trkpt>
      <trkpt lat="44.01028" lon="6.21516">
        <ele>606.494321</ele>
        <time>2021-09-18T11:37:33.000Z</time>
      </trkpt>
      <trkpt lat="44.00996" lon="6.21563">
        <ele>605.627119</ele>
        <time>2021-09-18T11:37:39.000Z</time>
      </trkpt>
      <trkpt lat="44.00966" lon="6.21623">
        <ele>604.639186</ele>
        <time>2021-09-18T11:37:46.000Z</time>
      </trkpt>
      <trkpt lat="44.00951" lon="6.21678">
        <ele>604.030194</ele>
        <time>2021-09-18T11:37:52.000Z</time>
      </trkpt>
      <trkpt lat="44.00945" lon="6.21731">
        <ele>603.710933</ele>
        <time>2021-09-18T11:37:58.000Z</time>
      </trkpt>
      <trkpt lat="44.0095" lon="6.21781">
        <ele>603.412941</ele>
        <time>2021-09-18T11:38:04.000Z</time>
      </trkpt>
      <trkpt lat="44.00964" lon="6.21833">
        <ele>603.084642</ele>
        <time>2021-09-18T11:38:11.000Z</time>
      </trkpt>
      <trkpt lat="44.00978" lon="6.21864">
        <ele>602.863511</ele>
        <time>2021-09-18T11:38:16.000Z</time>
      </trkpt>
      <trkpt lat="44.00993" lon="6.21886">
        <ele>602.688325</ele>
        <time>2021-09-18T11:38:20.000Z</time>
      </trkpt>
      <trkpt lat="44.01002" lon="6.21896">
        <ele>602.774555</ele>
        <time>2021-09-18T11:38:22.000Z</time>
      </trkpt>
      <trkpt lat="44.0103" lon="6.21923">
        <ele>603.039635</ele>
        <time>2021-09-18T11:38:28.000Z</time>
      </trkpt>
      <trkpt lat="44.01078" lon="6.21962">
        <ele>603.473822</ele>
        <time>2021-09-18T11:38:38.000Z</time>
      </trkpt>
      <trkpt lat="44.01092" lon="6.21973">
        <ele>603.604832</ele>
        <time>2021-09-18T11:38:41.000Z</time>
      </trkpt>
      <trkpt lat="44.0113" lon="6.22015">
        <ele>603.980856</ele>
        <time>2021-09-18T11:38:50.000Z</time>
      </trkpt>
      <trkpt lat="44.01161" lon="6.22056">
        <ele>604.11635</ele>
        <time>2021-09-18T11:38:58.000Z</time>
      </trkpt>
      <trkpt lat="44.01199" lon="6.22108">
        <ele>604.169742</ele>
        <time>2021-09-18T11:39:08.000Z</time>
      </trkpt>
      <trkpt lat="44.01236" lon="6.22154">
        <ele>604.218637</ele>
        <time>2021-09-18T11:39:17.000Z</time>
      </trkpt>
      <trkpt lat="44.01278" lon="6.22201">
        <ele>604.283331</ele>
        <time>2021-09-18T11:39:27.000Z</time>
      </trkpt>
      <trkpt lat="44.01317" lon="6.22243">
        <ele>604.431637</ele>
        <time>2021-09-18T11:39:36.000Z</time>
      </trkpt>
      <trkpt lat="44.01348" lon="6.22284">
        <ele>604.561002</ele>
        <time>2021-09-18T11:39:44.000Z</time>
      </trkpt>
      <trkpt lat="44.01386" lon="6.2234">
        <ele>604.726383</ele>
        <time>2021-09-18T11:39:54.000Z</time>
      </trkpt>
      <trkpt lat="44.0142" lon="6.22391">
        <ele>604.87025</ele>
        <time>2021-09-18T11:40:03.000Z</time>
      </trkpt>
      <trkpt lat="44.01457" lon="6.22447">
        <ele>605.016147</ele>
        <time>2021-09-18T11:40:12.000Z</time>
      </trkpt>
      <trkpt lat="44.01461" lon="6.22454">
        <ele>605.033351</ele>
        <time>2021-09-18T11:40:13.000Z</time>
      </trkpt>
      <trkpt lat="44.01501" lon="6.22512">
        <ele>605.188948</ele>
        <time>2021-09-18T11:40:22.000Z</time>
      </trkpt>
      <trkpt lat="44.01528" lon="6.22569">
        <ele>605.398927</ele>
        <time>2021-09-18T11:40:30.000Z</time>
      </trkpt>
      <trkpt lat="44.01546" lon="6.22621">
        <ele>605.766977</ele>
        <time>2021-09-18T11:40:37.000Z</time>
      </trkpt>
      <trkpt lat="44.01558" lon="6.22678">
        <ele>606.154588</ele>
        <time>2021-09-18T11:40:45.000Z</time>
      </trkpt>
      <trkpt lat="44.01563" lon="6.22733">
        <ele>606.509299</ele>
        <time>2021-09-18T11:40:53.000Z</time>
      </trkpt>
      <trkpt lat="44.01564" lon="6.22792">
        <ele>606.894553</ele>
        <time>2021-09-18T11:41:02.000Z</time>
      </trkpt>
      <trkpt lat="44.01561" lon="6.22842">
        <ele>607.531938</ele>
        <time>2021-09-18T11:41:10.000Z</time>
      </trkpt>
      <trkpt lat="44.01558" lon="6.2289">
        <ele>608.153521</ele>
        <time>2021-09-18T11:41:18.000Z</time>
      </trkpt>
      <trkpt lat="44.01554" lon="6.22947">
        <ele>608.899199</ele>
        <time>2021-09-18T11:41:28.000Z</time>
      </trkpt>
      <trkpt lat="44.0155" lon="6.22997">
        <ele>609.549772</ele>
        <time>2021-09-18T11:41:37.000Z</time>
      </trkpt>
      <trkpt lat="44.01546" lon="6.23054">
        <ele>610.323853</ele>
        <time>2021-09-18T11:41:47.000Z</time>
      </trkpt>
      <trkpt lat="44.01545" lon="6.23102">
        <ele>611.06711</ele>
        <time>2021-09-18T11:41:55.000Z</time>
      </trkpt>
      <trkpt lat="44.01547" lon="6.2317">
        <ele>612.129474</ele>
        <time>2021-09-18T11:42:06.000Z</time>
      </trkpt>
      <trkpt lat="44.01553" lon="6.23231">
        <ele>613.094526</ele>
        <time>2021-09-18T11:42:16.000Z</time>
      </trkpt>
      <trkpt lat="44.01559" lon="6.23297">
        <ele>614.105926</ele>
        <time>2021-09-18T11:42:26.000Z</time>
      </trkpt>
      <trkpt lat="44.01568" lon="6.23377">
        <ele>615.054074</ele>
        <time>2021-09-18T11:42:38.000Z</time>
      </trkpt>
      <trkpt lat="44.01575" lon="6.23427">
        <ele>615.653464</ele>
        <time>2021-09-18T11:42:46.000Z</time>
      </trkpt>
      <trkpt lat="44.01586" lon="6.23478">
        <ele>616.271318</ele>
        <time>2021-09-18T11:42:54.000Z</time>
      </trkpt>
      <trkpt lat="44.01598" lon="6.23524">
        <ele>616.846495</ele>
        <time>2021-09-18T11:43:01.000Z</time>
      </trkpt>
      <trkpt lat="44.01615" lon="6.2359">
        <ele>616.945776</ele>
        <time>2021-09-18T11:43:10.000Z</time>
      </trkpt>
      <trkpt lat="44.0163" lon="6.2365">
        <ele>616.914763</ele>
        <time>2021-09-18T11:43:17.000Z</time>
      </trkpt>
      <trkpt lat="44.01633" lon="6.23659">
        <ele>616.909997</ele>
        <time>2021-09-18T11:43:18.000Z</time>
      </trkpt>
      <trkpt lat="44.01642" lon="6.23697">
        <ele>616.890522</ele>
        <time>2021-09-18T11:43:22.000Z</time>
      </trkpt>
      <trkpt lat="44.01647" lon="6.23728">
        <ele>616.875164</ele>
        <time>2021-09-18T11:43:25.000Z</time>
      </trkpt>
      <trkpt lat="44.0165" lon="6.23749">
        <ele>616.864497</ele>
        <time>2021-09-18T11:43:27.000Z</time>
      </trkpt>
      <trkpt lat="44.01653" lon="6.23829">
        <ele>616.320633</ele>
        <time>2021-09-18T11:43:34.000Z</time>
      </trkpt>
      <trkpt lat="44.01654" lon="6.23912">
        <ele>615.522986</ele>
        <time>2021-09-18T11:43:41.000Z</time>
      </trkpt>
      <trkpt lat="44.01655" lon="6.23925">
        <ele>615.404059</ele>
        <time>2021-09-18T11:43:42.000Z</time>
      </trkpt>
      <trkpt lat="44.01657" lon="6.24011">
        <ele>614.573486</ele>
        <time>2021-09-18T11:43:49.000Z</time>
      </trkpt>
      <trkpt lat="44.01657" lon="6.24024">
        <ele>614.453493</ele>
        <time>2021-09-18T11:43:50.000Z</time>
      </trkpt>
      <trkpt lat="44.0166" lon="6.24097">
        <ele>613.702512</ele>
        <time>2021-09-18T11:43:56.000Z</time>
      </trkpt>
      <trkpt lat="44.01673" lon="6.2417">
        <ele>612.936517</ele>
        <time>2021-09-18T11:44:02.000Z</time>
      </trkpt>
      <trkpt lat="44.01675" lon="6.24182">
        <ele>612.806278</ele>
        <time>2021-09-18T11:44:03.000Z</time>
      </trkpt>
      <trkpt lat="44.01694" lon="6.24265">
        <ele>611.926497</ele>
        <time>2021-09-18T11:44:10.000Z</time>
      </trkpt>
      <trkpt lat="44.017" lon="6.24334">
        <ele>611.264242</ele>
        <time>2021-09-18T11:44:16.000Z</time>
      </trkpt>
      <trkpt lat="44.017" lon="6.24409">
        <ele>610.555739</ele>
        <time>2021-09-18T11:44:23.000Z</time>
      </trkpt>
      <trkpt lat="44.01699" lon="6.24477">
        <ele>609.909406</ele>
        <time>2021-09-18T11:44:30.000Z</time>
      </trkpt>
      <trkpt lat="44.01697" lon="6.24553">
        <ele>609.337155</ele>
        <time>2021-09-18T11:44:38.000Z</time>
      </trkpt>
      <trkpt lat="44.01696" lon="6.24562">
        <ele>609.286628</ele>
        <time>2021-09-18T11:44:39.000Z</time>
      </trkpt>
      <trkpt lat="44.01693" lon="6.24645">
        <ele>608.836537</ele>
        <time>2021-09-18T11:44:48.000Z</time>
      </trkpt>
      <trkpt lat="44.0169" lon="6.24726">
        <ele>608.396282</ele>
        <time>2021-09-18T11:44:57.000Z</time>
      </trkpt>
      <trkpt lat="44.01689" lon="6.24735">
        <ele>608.347882</ele>
        <time>2021-09-18T11:44:58.000Z</time>
      </trkpt>
      <trkpt lat="44.01687" lon="6.24814">
        <ele>608.128458</ele>
        <time>2021-09-18T11:45:07.000Z</time>
      </trkpt>
      <trkpt lat="44.01686" lon="6.24822">
        <ele>608.119624</ele>
        <time>2021-09-18T11:45:08.000Z</time>
      </trkpt>
      <trkpt lat="44.01684" lon="6.24898">
        <ele>608.041866</ele>
        <time>2021-09-18T11:45:17.000Z</time>
      </trkpt>
      <trkpt lat="44.01683" lon="6.24914">
        <ele>608.025737</ele>
        <time>2021-09-18T11:45:19.000Z</time>
      </trkpt>
      <trkpt lat="44.0168" lon="6.24991">
        <ele>607.946025</ele>
        <time>2021-09-18T11:45:29.000Z</time>
      </trkpt>
      <trkpt lat="44.0168" lon="6.24999">
        <ele>607.938011</ele>
        <time>2021-09-18T11:45:30.000Z</time>
      </trkpt>
      <trkpt lat="44.01677" lon="6.25078">
        <ele>608.090334</ele>
        <time>2021-09-18T11:45:40.000Z</time>
      </trkpt>
      <trkpt lat="44.0168" lon="6.25138">
        <ele>608.255642</ele>
        <time>2021-09-18T11:45:48.000Z</time>
      </trkpt>
      <trkpt lat="44.01685" lon="6.25188">
        <ele>608.395986</ele>
        <time>2021-09-18T11:45:55.000Z</time>
      </trkpt>
      <trkpt lat="44.01686" lon="6.25201">
        <ele>608.432674</ele>
        <time>2021-09-18T11:45:57.000Z</time>
      </trkpt>
      <trkpt lat="44.01684" lon="6.25221">
        <ele>608.486629</ele>
        <time>2021-09-18T11:46:00.000Z</time>
      </trkpt>
      <trkpt lat="44.01681" lon="6.25233">
        <ele>608.522789</ele>
        <time>2021-09-18T11:46:02.000Z</time>
      </trkpt>
      <trkpt lat="44.01678" lon="6.25246">
        <ele>608.558834</ele>
        <time>2021-09-18T11:46:04.000Z</time>
      </trkpt>
      <trkpt lat="44.01674" lon="6.25258">
        <ele>608.5965</ele>
        <time>2021-09-18T11:46:06.000Z</time>
      </trkpt>
      <trkpt lat="44.01671" lon="6.25264">
        <ele>608.593662</ele>
        <time>2021-09-18T11:46:07.000Z</time>
      </trkpt>
      <trkpt lat="44.01661" lon="6.25279">
        <ele>608.478592</ele>
        <time>2021-09-18T11:46:10.000Z</time>
      </trkpt>
      <trkpt lat="44.01657" lon="6.25284">
        <ele>608.440423</ele>
        <time>2021-09-18T11:46:11.000Z</time>
      </trkpt>
      <trkpt lat="44.01628" lon="6.25305">
        <ele>608.187544</ele>
        <time>2021-09-18T11:46:17.000Z</time>
      </trkpt>
      <trkpt lat="44.01579" lon="6.25329">
        <ele>607.795013</ele>
        <time>2021-09-18T11:46:26.000Z</time>
      </trkpt>
      <trkpt lat="44.01536" lon="6.25349">
        <ele>607.446772</ele>
        <time>2021-09-18T11:46:34.000Z</time>
      </trkpt>
      <trkpt lat="44.01496" lon="6.25371">
        <ele>606.851816</ele>
        <time>2021-09-18T11:46:42.000Z</time>
      </trkpt>
      <trkpt lat="44.01491" lon="6.25372">
        <ele>606.723763</ele>
        <time>2021-09-18T11:46:43.000Z</time>
      </trkpt>
      <trkpt lat="44.01481" lon="6.25372">
        <ele>606.470159</ele>
        <time>2021-09-18T11:46:45.000Z</time>
      </trkpt>
      <trkpt lat="44.01475" lon="6.25371">
        <ele>606.340825</ele>
        <time>2021-09-18T11:46:46.000Z</time>
      </trkpt>
      <trkpt lat="44.01455" lon="6.2537">
        <ele>605.823312</ele>
        <time>2021-09-18T11:46:50.000Z</time>
      </trkpt>
      <trkpt lat="44.01449" lon="6.2537">
        <ele>605.67901</ele>
        <time>2021-09-18T11:46:51.000Z</time>
      </trkpt>
      <trkpt lat="44.01443" lon="6.2537">
        <ele>605.544705</ele>
        <time>2021-09-18T11:46:52.000Z</time>
      </trkpt>
      <trkpt lat="44.01433" lon="6.25369">
        <ele>605.29095</ele>
        <time>2021-09-18T11:46:54.000Z</time>
      </trkpt>
      <trkpt lat="44.01428" lon="6.25369">
        <ele>605.166522</ele>
        <time>2021-09-18T11:46:55.000Z</time>
      </trkpt>
      <trkpt lat="44.0142" lon="6.25367">
        <ele>604.953315</ele>
        <time>2021-09-18T11:46:57.000Z</time>
      </trkpt>
      <trkpt lat="44.01403" lon="6.25359">
        <ele>604.518611</ele>
        <time>2021-09-18T11:47:00.000Z</time>
      </trkpt>
      <trkpt lat="44.01381" lon="6.25354">
        <ele>603.959778</ele>
        <time>2021-09-18T11:47:05.000Z</time>
      </trkpt>
      <trkpt lat="44.0119" lon="6.2536">
        <ele>602.957305</ele>
        <time>2021-09-18T11:47:39.000Z</time>
      </trkpt>
      <trkpt lat="44.01184" lon="6.25363">
        <ele>602.965624</ele>
        <time>2021-09-18T11:47:40.000Z</time>
      </trkpt>
      <trkpt lat="44.01153" lon="6.25378">
        <ele>603.034087</ele>
        <time>2021-09-18T11:47:46.000Z</time>
      </trkpt>
      <trkpt lat="44.01122" lon="6.25394">
        <ele>603.574865</ele>
        <time>2021-09-18T11:47:52.000Z</time>
      </trkpt>
      <trkpt lat="44.01113" lon="6.25403">
        <ele>603.75289</ele>
        <time>2021-09-18T11:47:54.000Z</time>
      </trkpt>
      <trkpt lat="44.01099" lon="6.25416">
        <ele>604.029912</ele>
        <time>2021-09-18T11:47:57.000Z</time>
      </trkpt>
      <trkpt lat="44.01094" lon="6.25421">
        <ele>604.123581</ele>
        <time>2021-09-18T11:47:58.000Z</time>
      </trkpt>
      <trkpt lat="44.01087" lon="6.25432">
        <ele>604.297125</ele>
        <time>2021-09-18T11:48:00.000Z</time>
      </trkpt>
      <trkpt lat="44.01081" lon="6.25445">
        <ele>604.476635</ele>
        <time>2021-09-18T11:48:02.000Z</time>
      </trkpt>
      <trkpt lat="44.01073" lon="6.25473">
        <ele>604.828158</ele>
        <time>2021-09-18T11:48:06.000Z</time>
      </trkpt>
      <trkpt lat="44.01072" lon="6.25481">
        <ele>604.91869</ele>
        <time>2021-09-18T11:48:07.000Z</time>
      </trkpt>
      <trkpt lat="44.01072" lon="6.25534">
        <ele>605.538927</ele>
        <time>2021-09-18T11:48:14.000Z</time>
      </trkpt>
      <trkpt lat="44.01073" lon="6.25592">
        <ele>606.47294</ele>
        <time>2021-09-18T11:48:22.000Z</time>
      </trkpt>
      <trkpt lat="44.01074" lon="6.25664">
        <ele>608.061386</ele>
        <time>2021-09-18T11:48:31.000Z</time>
      </trkpt>
      <trkpt lat="44.01074" lon="6.25721">
        <ele>609.322643</ele>
        <time>2021-09-18T11:48:38.000Z</time>
      </trkpt>
      <trkpt lat="44.01066" lon="6.25776">
        <ele>610.578191</ele>
        <time>2021-09-18T11:48:45.000Z</time>
      </trkpt>
      <trkpt lat="44.01047" lon="6.25828">
        <ele>611.729183</ele>
        <time>2021-09-18T11:48:52.000Z</time>
      </trkpt>
      <trkpt lat="44.01029" lon="6.25879">
        <ele>612.616688</ele>
        <time>2021-09-18T11:48:59.000Z</time>
      </trkpt>
      <trkpt lat="44.01007" lon="6.25951">
        <ele>613.836546</ele>
        <time>2021-09-18T11:49:09.000Z</time>
      </trkpt>
      <trkpt lat="44.00994" lon="6.26003">
        <ele>614.700966</ele>
        <time>2021-09-18T11:49:16.000Z</time>
      </trkpt>
      <trkpt lat="44.00986" lon="6.26064">
        <ele>615.505827</ele>
        <time>2021-09-18T11:49:24.000Z</time>
      </trkpt>
      <trkpt lat="44.00982" lon="6.26136">
        <ele>616.063427</ele>
        <time>2021-09-18T11:49:33.000Z</time>
      </trkpt>
      <trkpt lat="44.00978" lon="6.26199">
        <ele>616.558824</ele>
        <time>2021-09-18T11:49:41.000Z</time>
      </trkpt>
      <trkpt lat="44.00974" lon="6.26263">
        <ele>617.053081</ele>
        <time>2021-09-18T11:49:49.000Z</time>
      </trkpt>
      <trkpt lat="44.0097" lon="6.26324">
        <ele>617.457985</ele>
        <time>2021-09-18T11:49:57.000Z</time>
      </trkpt>
      <trkpt lat="44.00966" lon="6.26392">
        <ele>617.835983</ele>
        <time>2021-09-18T11:50:06.000Z</time>
      </trkpt>
      <trkpt lat="44.00962" lon="6.26461">
        <ele>618.215269</ele>
        <time>2021-09-18T11:50:15.000Z</time>
      </trkpt>
      <trkpt lat="44.00958" lon="6.26523">
        <ele>618.554291</ele>
        <time>2021-09-18T11:50:23.000Z</time>
      </trkpt>
      <trkpt lat="44.00955" lon="6.26591">
        <ele>618.963919</ele>
        <time>2021-09-18T11:50:32.000Z</time>
      </trkpt>
      <trkpt lat="44.00951" lon="6.2666">
        <ele>619.387913</ele>
        <time>2021-09-18T11:50:41.000Z</time>
      </trkpt>
      <trkpt lat="44.00947" lon="6.26735">
        <ele>619.84895</ele>
        <time>2021-09-18T11:50:51.000Z</time>
      </trkpt>
      <trkpt lat="44.00947" lon="6.26742">
        <ele>619.895115</ele>
        <time>2021-09-18T11:50:52.000Z</time>
      </trkpt>
      <trkpt lat="44.00942" lon="6.26824">
        <ele>620.474972</ele>
        <time>2021-09-18T11:51:03.000Z</time>
      </trkpt>
      <trkpt lat="44.00938" lon="6.26884">
        <ele>620.9854</ele>
        <time>2021-09-18T11:51:11.000Z</time>
      </trkpt>
      <trkpt lat="44.00932" lon="6.2696">
        <ele>621.635931</ele>
        <time>2021-09-18T11:51:21.000Z</time>
      </trkpt>
      <trkpt lat="44.0093" lon="6.26996">
        <ele>621.948325</ele>
        <time>2021-09-18T11:51:26.000Z</time>
      </trkpt>
      <trkpt lat="44.00931" lon="6.27011">
        <ele>622.073464</ele>
        <time>2021-09-18T11:51:28.000Z</time>
      </trkpt>
      <trkpt lat="44.00939" lon="6.27074">
        <ele>622.79687</ele>
        <time>2021-09-18T11:51:37.000Z</time>
      </trkpt>
      <trkpt lat="44.0094" lon="6.27081">
        <ele>622.892754</ele>
        <time>2021-09-18T11:51:38.000Z</time>
      </trkpt>
      <trkpt lat="44.00941" lon="6.27089">
        <ele>622.989975</ele>
        <time>2021-09-18T11:51:39.000Z</time>
      </trkpt>
      <trkpt lat="44.00941" lon="6.27125">
        <ele>623.485133</ele>
        <time>2021-09-18T11:51:44.000Z</time>
      </trkpt>
      <trkpt lat="44.00935" lon="6.27165">
        <ele>624.036357</ele>
        <time>2021-09-18T11:51:50.000Z</time>
      </trkpt>
      <trkpt lat="44.00927" lon="6.27219">
        <ele>624.785437</ele>
        <time>2021-09-18T11:51:59.000Z</time>
      </trkpt>
      <trkpt lat="44.00926" lon="6.27268">
        <ele>625.452753</ele>
        <time>2021-09-18T11:52:07.000Z</time>
      </trkpt>
      <trkpt lat="44.00924" lon="6.27324">
        <ele>626.235104</ele>
        <time>2021-09-18T11:52:16.000Z</time>
      </trkpt>
      <trkpt lat="44.00923" lon="6.27366">
        <ele>626.857282</ele>
        <time>2021-09-18T11:52:23.000Z</time>
      </trkpt>
      <trkpt lat="44.00921" lon="6.27423">
        <ele>627.675726</ele>
        <time>2021-09-18T11:52:32.000Z</time>
      </trkpt>
      <trkpt lat="44.00916" lon="6.2748">
        <ele>628.519493</ele>
        <time>2021-09-18T11:52:41.000Z</time>
      </trkpt>
      <trkpt lat="44.00903" lon="6.27525">
        <ele>629.224516</ele>
        <time>2021-09-18T11:52:48.000Z</time>
      </trkpt>
      <trkpt lat="44.00884" lon="6.27576">
        <ele>629.657878</ele>
        <time>2021-09-18T11:52:56.000Z</time>
      </trkpt>
      <trkpt lat="44.00866" lon="6.27623">
        <ele>630.001978</ele>
        <time>2021-09-18T11:53:03.000Z</time>
      </trkpt>
      <trkpt lat="44.00847" lon="6.27685">
        <ele>630.439108</ele>
        <time>2021-09-18T11:53:11.000Z</time>
      </trkpt>
      <trkpt lat="44.00828" lon="6.27751">
        <ele>630.901022</ele>
        <time>2021-09-18T11:53:19.000Z</time>
      </trkpt>
      <trkpt lat="44.00804" lon="6.27804">
        <ele>631.542771</ele>
        <time>2021-09-18T11:53:26.000Z</time>
      </trkpt>
      <trkpt lat="44.00783" lon="6.27838">
        <ele>632.033914</ele>
        <time>2021-09-18T11:53:32.000Z</time>
      </trkpt>
      <trkpt lat="44.00765" lon="6.27869">
        <ele>632.466888</ele>
        <time>2021-09-18T11:53:39.000Z</time>
      </trkpt>
      <trkpt lat="44.00747" lon="6.27912">
        <ele>633.003825</ele>
        <time>2021-09-18T11:53:48.000Z</time>
      </trkpt>
      <trkpt lat="44.00738" lon="6.27955">
        <ele>633.495147</ele>
        <time>2021-09-18T11:53:55.000Z</time>
      </trkpt>
      <trkpt lat="44.00732" lon="6.28007">
        <ele>633.953834</ele>
        <time>2021-09-18T11:54:02.000Z</time>
      </trkpt>
      <trkpt lat="44.00723" lon="6.28061">
        <ele>634.38227</ele>
        <time>2021-09-18T11:54:09.000Z</time>
      </trkpt>
      <trkpt lat="44.00709" lon="6.28107">
        <ele>634.77588</ele>
        <time>2021-09-18T11:54:15.000Z</time>
      </trkpt>
      <trkpt lat="44.00684" lon="6.28166">
        <ele>635.303489</ele>
        <time>2021-09-18T11:54:23.000Z</time>
      </trkpt>
      <trkpt lat="44.00654" lon="6.28235">
        <ele>635.871557</ele>
        <time>2021-09-18T11:54:32.000Z</time>
      </trkpt>
      <trkpt lat="44.00648" lon="6.2825">
        <ele>635.988746</ele>
        <time>2021-09-18T11:54:34.000Z</time>
      </trkpt>
      <trkpt lat="44.00626" lon="6.28301">
        <ele>636.375091</ele>
        <time>2021-09-18T11:54:41.000Z</time>
      </trkpt>
      <trkpt lat="44.00596" lon="6.28368">
        <ele>636.885178</ele>
        <time>2021-09-18T11:54:51.000Z</time>
      </trkpt>
      <trkpt lat="44.00575" lon="6.28395">
        <ele>637.139291</ele>
        <time>2021-09-18T11:54:56.000Z</time>
      </trkpt>
      <trkpt lat="44.00545" lon="6.28417">
        <ele>637.453312</ele>
        <time>2021-09-18T11:55:02.000Z</time>
      </trkpt>
      <trkpt lat="44.0051" lon="6.28437">
        <ele>637.797578</ele>
        <time>2021-09-18T11:55:09.000Z</time>
      </trkpt>
      <trkpt lat="44.00468" lon="6.28463">
        <ele>638.222639</ele>
        <time>2021-09-18T11:55:18.000Z</time>
      </trkpt>
      <trkpt lat="44.00433" lon="6.2849">
        <ele>638.58507</ele>
        <time>2021-09-18T11:55:26.000Z</time>
      </trkpt>
      <trkpt lat="44.00394" lon="6.28533">
        <ele>639.088558</ele>
        <time>2021-09-18T11:55:36.000Z</time>
      </trkpt>
      <trkpt lat="44.0035" lon="6.28584">
        <ele>639.782132</ele>
        <time>2021-09-18T11:55:47.000Z</time>
      </trkpt>
      <trkpt lat="44.00309" lon="6.28616">
        <ele>640.351493</ele>
        <time>2021-09-18T11:55:56.000Z</time>
      </trkpt>
      <trkpt lat="44.00264" lon="6.28644">
        <ele>640.956003</ele>
        <time>2021-09-18T11:56:05.000Z</time>
      </trkpt>
      <trkpt lat="44.00221" lon="6.28672">
        <ele>641.396148</ele>
        <time>2021-09-18T11:56:13.000Z</time>
      </trkpt>
      <trkpt lat="44.00183" lon="6.28698">
        <ele>641.764212</ele>
        <time>2021-09-18T11:56:20.000Z</time>
      </trkpt>
      <trkpt lat="44.00138" lon="6.28727">
        <ele>642.189707</ele>
        <time>2021-09-18T11:56:28.000Z</time>
      </trkpt>
      <trkpt lat="44.00101" lon="6.28758">
        <ele>642.560113</ele>
        <time>2021-09-18T11:56:35.000Z</time>
      </trkpt>
      <trkpt lat="44.00088" lon="6.28774">
        <ele>642.761273</ele>
        <time>2021-09-18T11:56:38.000Z</time>
      </trkpt>
      <trkpt lat="44.00076" lon="6.28792">
        <ele>642.990631</ele>
        <time>2021-09-18T11:56:41.000Z</time>
      </trkpt>
      <trkpt lat="44.00056" lon="6.28835">
        <ele>643.46003</ele>
        <time>2021-09-18T11:56:47.000Z</time>
      </trkpt>
      <trkpt lat="44.00043" lon="6.2888">
        <ele>643.911883</ele>
        <time>2021-09-18T11:56:53.000Z</time>
      </trkpt>
      <trkpt lat="44.00031" lon="6.28932">
        <ele>644.415394</ele>
        <time>2021-09-18T11:57:00.000Z</time>
      </trkpt>
      <trkpt lat="44.00017" lon="6.28982">
        <ele>644.916573</ele>
        <time>2021-09-18T11:57:08.000Z</time>
      </trkpt>
      <trkpt lat="44.00001" lon="6.29028">
        <ele>645.526568</ele>
        <time>2021-09-18T11:57:16.000Z</time>
      </trkpt>
      <trkpt lat="43.99982" lon="6.2907">
        <ele>646.130169</ele>
        <time>2021-09-18T11:57:24.000Z</time>
      </trkpt>
      <trkpt lat="43.99956" lon="6.29108">
        <ele>646.762207</ele>
        <time>2021-09-18T11:57:32.000Z</time>
      </trkpt>
      <trkpt lat="43.99932" lon="6.29127">
        <ele>647.230016</ele>
        <time>2021-09-18T11:57:38.000Z</time>
      </trkpt>
      <trkpt lat="43.99923" lon="6.29133">
        <ele>647.383754</ele>
        <time>2021-09-18T11:57:40.000Z</time>
      </trkpt>
      <trkpt lat="43.99893" lon="6.29144">
        <ele>647.901954</ele>
        <time>2021-09-18T11:57:46.000Z</time>
      </trkpt>
      <trkpt lat="43.99855" lon="6.29148">
        <ele>648.149651</ele>
        <time>2021-09-18T11:57:53.000Z</time>
      </trkpt>
      <trkpt lat="43.998" lon="6.29151">
        <ele>648.440903</ele>
        <time>2021-09-18T11:58:02.000Z</time>
      </trkpt>
      <trkpt lat="43.99745" lon="6.29154">
        <ele>648.735884</ele>
        <time>2021-09-18T11:58:10.000Z</time>
      </trkpt>
      <trkpt lat="43.99691" lon="6.29159">
        <ele>648.946829</ele>
        <time>2021-09-18T11:58:18.000Z</time>
      </trkpt>
      <trkpt lat="43.99654" lon="6.29177">
        <ele>649.003444</ele>
        <time>2021-09-18T11:58:24.000Z</time>
      </trkpt>
      <trkpt lat="43.99607" lon="6.2921">
        <ele>649.07984</ele>
        <time>2021-09-18T11:58:32.000Z</time>
      </trkpt>
      <trkpt lat="43.99556" lon="6.29247">
        <ele>649.162866</ele>
        <time>2021-09-18T11:58:41.000Z</time>
      </trkpt>
      <trkpt lat="43.99504" lon="6.29282">
        <ele>649.222154</ele>
        <time>2021-09-18T11:58:50.000Z</time>
      </trkpt>
      <trkpt lat="43.99457" lon="6.29299">
        <ele>649.266452</ele>
        <time>2021-09-18T11:58:57.000Z</time>
      </trkpt>
      <trkpt lat="43.99409" lon="6.2931">
        <ele>649.31067</ele>
        <time>2021-09-18T11:59:04.000Z</time>
      </trkpt>
      <trkpt lat="43.99354" lon="6.29317">
        <ele>649.419972</ele>
        <time>2021-09-18T11:59:12.000Z</time>
      </trkpt>
      <trkpt lat="43.99318" lon="6.29316">
        <ele>649.567744</ele>
        <time>2021-09-18T11:59:17.000Z</time>
      </trkpt>
      <trkpt lat="43.99304" lon="6.29315">
        <ele>649.624315</ele>
        <time>2021-09-18T11:59:19.000Z</time>
      </trkpt>
      <trkpt lat="43.99292" lon="6.2932">
        <ele>649.676685</ele>
        <time>2021-09-18T11:59:21.000Z</time>
      </trkpt>
      <trkpt lat="43.99281" lon="6.29328">
        <ele>649.72718</ele>
        <time>2021-09-18T11:59:23.000Z</time>
      </trkpt>
      <trkpt lat="43.99272" lon="6.29341">
        <ele>649.777805</ele>
        <time>2021-09-18T11:59:25.000Z</time>
      </trkpt>
      <trkpt lat="43.99266" lon="6.29356">
        <ele>649.827731</ele>
        <time>2021-09-18T11:59:27.000Z</time>
      </trkpt>
      <trkpt lat="43.99264" lon="6.29373">
        <ele>649.878888</ele>
        <time>2021-09-18T11:59:29.000Z</time>
      </trkpt>
      <trkpt lat="43.99257" lon="6.29433">
        <ele>650.058958</ele>
        <time>2021-09-18T11:59:36.000Z</time>
      </trkpt>
      <trkpt lat="43.99237" lon="6.29503">
        <ele>650.692134</ele>
        <time>2021-09-18T11:59:45.000Z</time>
      </trkpt>
      <trkpt lat="43.99233" lon="6.29518">
        <ele>650.832533</ele>
        <time>2021-09-18T11:59:47.000Z</time>
      </trkpt>
      <trkpt lat="43.99211" lon="6.29575">
        <ele>651.406017</ele>
        <time>2021-09-18T11:59:55.000Z</time>
      </trkpt>
      <trkpt lat="43.99183" lon="6.29613">
        <ele>651.88964</ele>
        <time>2021-09-18T12:00:02.000Z</time>
      </trkpt>
      <trkpt lat="43.99147" lon="6.29654">
        <ele>652.561986</ele>
        <time>2021-09-18T12:00:11.000Z</time>
      </trkpt>
      <trkpt lat="43.99111" lon="6.29682">
        <ele>653.357142</ele>
        <time>2021-09-18T12:00:19.000Z</time>
      </trkpt>
      <trkpt lat="43.99076" lon="6.29704">
        <ele>654.118242</ele>
        <time>2021-09-18T12:00:27.000Z</time>
      </trkpt>
      <trkpt lat="43.99048" lon="6.29709">
        <ele>654.655789</ele>
        <time>2021-09-18T12:00:33.000Z</time>
      </trkpt>
      <trkpt lat="43.99016" lon="6.29698">
        <ele>655.314136</ele>
        <time>2021-09-18T12:00:41.000Z</time>
      </trkpt>
      <trkpt lat="43.98982" lon="6.29685">
        <ele>656.057956</ele>
        <time>2021-09-18T12:00:50.000Z</time>
      </trkpt>
      <trkpt lat="43.98942" lon="6.2967">
        <ele>657.166328</ele>
        <time>2021-09-18T12:01:01.000Z</time>
      </trkpt>
      <trkpt lat="43.98913" lon="6.29659">
        <ele>657.967277</ele>
        <time>2021-09-18T12:01:09.000Z</time>
      </trkpt>
      <trkpt lat="43.98881" lon="6.29647">
        <ele>658.865059</ele>
        <time>2021-09-18T12:01:18.000Z</time>
      </trkpt>
      <trkpt lat="43.98856" lon="6.29649">
        <ele>659.533493</ele>
        <time>2021-09-18T12:01:25.000Z</time>
      </trkpt>
      <trkpt lat="43.98833" lon="6.29664">
        <ele>660.201628</ele>
        <time>2021-09-18T12:01:32.000Z</time>
      </trkpt>
      <trkpt lat="43.98817" lon="6.29689">
        <ele>660.738933</ele>
        <time>2021-09-18T12:01:38.000Z</time>
      </trkpt>
      <trkpt lat="43.98801" lon="6.29734">
        <ele>661.283576</ele>
        <time>2021-09-18T12:01:46.000Z</time>
      </trkpt>
      <trkpt lat="43.98781" lon="6.29788">
        <ele>661.946272</ele>
        <time>2021-09-18T12:01:55.000Z</time>
      </trkpt>
      <trkpt lat="43.98768" lon="6.29812">
        <ele>662.26243</ele>
        <time>2021-09-18T12:01:59.000Z</time>
      </trkpt>
      <trkpt lat="43.9876" lon="6.29822">
        <ele>662.424401</ele>
        <time>2021-09-18T12:02:01.000Z</time>
      </trkpt>
      <trkpt lat="43.98733" lon="6.29846">
        <ele>662.921571</ele>
        <time>2021-09-18T12:02:07.000Z</time>
      </trkpt>
      <trkpt lat="43.98727" lon="6.29849">
        <ele>663.006927</ele>
        <time>2021-09-18T12:02:08.000Z</time>
      </trkpt>
      <trkpt lat="43.98699" lon="6.2986">
        <ele>663.364949</ele>
        <time>2021-09-18T12:02:13.000Z</time>
      </trkpt>
      <trkpt lat="43.98644" lon="6.29874">
        <ele>663.687281</ele>
        <time>2021-09-18T12:02:22.000Z</time>
      </trkpt>
      <trkpt lat="43.98637" lon="6.29876">
        <ele>663.723802</ele>
        <time>2021-09-18T12:02:23.000Z</time>
      </trkpt>
      <trkpt lat="43.98586" lon="6.29892">
        <ele>664.025593</ele>
        <time>2021-09-18T12:02:31.000Z</time>
      </trkpt>
      <trkpt lat="43.98555" lon="6.29911">
        <ele>664.21974</ele>
        <time>2021-09-18T12:02:36.000Z</time>
      </trkpt>
      <trkpt lat="43.98523" lon="6.2995">
        <ele>664.476862</ele>
        <time>2021-09-18T12:02:42.000Z</time>
      </trkpt>
      <trkpt lat="43.98515" lon="6.29965">
        <ele>664.568154</ele>
        <time>2021-09-18T12:02:44.000Z</time>
      </trkpt>
      <trkpt lat="43.98505" lon="6.29989">
        <ele>664.702898</ele>
        <time>2021-09-18T12:02:47.000Z</time>
      </trkpt>
      <trkpt lat="43.98487" lon="6.30056">
        <ele>665.046989</ele>
        <time>2021-09-18T12:02:55.000Z</time>
      </trkpt>
      <trkpt lat="43.98467" lon="6.30132">
        <ele>665.432382</ele>
        <time>2021-09-18T12:03:04.000Z</time>
      </trkpt>
      <trkpt lat="43.98442" lon="6.30188">
        <ele>665.769758</ele>
        <time>2021-09-18T12:03:12.000Z</time>
      </trkpt>
      <trkpt lat="43.98419" lon="6.30223">
        <ele>666.020899</ele>
        <time>2021-09-18T12:03:18.000Z</time>
      </trkpt>
      <trkpt lat="43.98387" lon="6.30255">
        <ele>666.307494</ele>
        <time>2021-09-18T12:03:25.000Z</time>
      </trkpt>
      <trkpt lat="43.98346" lon="6.3028">
        <ele>666.633029</ele>
        <time>2021-09-18T12:03:33.000Z</time>
      </trkpt>
      <trkpt lat="43.98295" lon="6.30306">
        <ele>666.913658</ele>
        <time>2021-09-18T12:03:43.000Z</time>
      </trkpt>
      <trkpt lat="43.9829" lon="6.30309">
        <ele>666.927321</ele>
        <time>2021-09-18T12:03:44.000Z</time>
      </trkpt>
      <trkpt lat="43.98247" lon="6.30331">
        <ele>667.038143</ele>
        <time>2021-09-18T12:03:52.000Z</time>
      </trkpt>
      <trkpt lat="43.98219" lon="6.30341">
        <ele>667.108699</ele>
        <time>2021-09-18T12:03:57.000Z</time>
      </trkpt>
      <trkpt lat="43.98207" lon="6.30343">
        <ele>667.137012</ele>
        <time>2021-09-18T12:03:59.000Z</time>
      </trkpt>
      <trkpt lat="43.98163" lon="6.3035">
        <ele>667.242294</ele>
        <time>2021-09-18T12:04:06.000Z</time>
      </trkpt>
      <trkpt lat="43.98134" lon="6.30362">
        <ele>667.425034</ele>
        <time>2021-09-18T12:04:11.000Z</time>
      </trkpt>
      <trkpt lat="43.98098" lon="6.30392">
        <ele>667.894329</ele>
        <time>2021-09-18T12:04:18.000Z</time>
      </trkpt>
      <trkpt lat="43.98072" lon="6.30421">
        <ele>668.27996</ele>
        <time>2021-09-18T12:04:25.000Z</time>
      </trkpt>
      <trkpt lat="43.9805" lon="6.30453">
        <ele>668.644898</ele>
        <time>2021-09-18T12:04:32.000Z</time>
      </trkpt>
      <trkpt lat="43.98034" lon="6.30499">
        <ele>669.062891</ele>
        <time>2021-09-18T12:04:40.000Z</time>
      </trkpt>
      <trkpt lat="43.98021" lon="6.30544">
        <ele>669.660864</ele>
        <time>2021-09-18T12:04:49.000Z</time>
      </trkpt>
      <trkpt lat="43.98011" lon="6.30581">
        <ele>670.505364</ele>
        <time>2021-09-18T12:04:57.000Z</time>
      </trkpt>
      <trkpt lat="43.98002" lon="6.30618">
        <ele>671.349995</ele>
        <time>2021-09-18T12:05:06.000Z</time>
      </trkpt>
      <trkpt lat="43.97996" lon="6.3065">
        <ele>672.059222</ele>
        <time>2021-09-18T12:05:14.000Z</time>
      </trkpt>
      <trkpt lat="43.97993" lon="6.30683">
        <ele>672.780541</ele>
        <time>2021-09-18T12:05:22.000Z</time>
      </trkpt>
      <trkpt lat="43.97995" lon="6.30721">
        <ele>673.601882</ele>
        <time>2021-09-18T12:05:31.000Z</time>
      </trkpt>
      <trkpt lat="43.98001" lon="6.30769">
        <ele>674.653792</ele>
        <time>2021-09-18T12:05:42.000Z</time>
      </trkpt>
      <trkpt lat="43.98002" lon="6.30805">
        <ele>675.857721</ele>
        <time>2021-09-18T12:05:51.000Z</time>
      </trkpt>
      <trkpt lat="43.98" lon="6.30843">
        <ele>677.224189</ele>
        <time>2021-09-18T12:06:01.000Z</time>
      </trkpt>
      <trkpt lat="43.97992" lon="6.30881">
        <ele>678.609494</ele>
        <time>2021-09-18T12:06:11.000Z</time>
      </trkpt>
      <trkpt lat="43.97979" lon="6.30909">
        <ele>679.77243</ele>
        <time>2021-09-18T12:06:19.000Z</time>
      </trkpt>
      <trkpt lat="43.97965" lon="6.30938">
        <ele>681.004134</ele>
        <time>2021-09-18T12:06:28.000Z</time>
      </trkpt>
      <trkpt lat="43.9795" lon="6.30958">
        <ele>682.037093</ele>
        <time>2021-09-18T12:06:35.000Z</time>
      </trkpt>
      <trkpt lat="43.97933" lon="6.30983">
        <ele>683.253473</ele>
        <time>2021-09-18T12:06:42.000Z</time>
      </trkpt>
      <trkpt lat="43.97928" lon="6.30988">
        <ele>683.554068</ele>
        <time>2021-09-18T12:06:47.000Z</time>
      </trkpt>
      <trkpt lat="43.9792" lon="6.30996">
        <ele>683.716999</ele>
        <time>2021-09-18T12:07:50.000Z</time>
      </trkpt>
      <trkpt lat="43.97917" lon="6.30999">
        <ele>683.779012</ele>
        <time>2021-09-18T12:07:52.000Z</time>
      </trkpt>
      <trkpt lat="43.97904" lon="6.31013">
        <ele>684.060367</ele>
        <time>2021-09-18T12:07:57.000Z</time>
      </trkpt>
      <trkpt lat="43.97883" lon="6.31036">
        <ele>684.52864</ele>
        <time>2021-09-18T12:08:03.000Z</time>
      </trkpt>
      <trkpt lat="43.97852" lon="6.31068">
        <ele>685.181113</ele>
        <time>2021-09-18T12:08:10.000Z</time>
      </trkpt>
      <trkpt lat="43.97815" lon="6.31102">
        <ele>685.953907</ele>
        <time>2021-09-18T12:08:17.000Z</time>
      </trkpt>
      <trkpt lat="43.97774" lon="6.31126">
        <ele>686.613407</ele>
        <time>2021-09-18T12:08:24.000Z</time>
      </trkpt>
      <trkpt lat="43.9772" lon="6.31152">
        <ele>686.31861</ele>
        <time>2021-09-18T12:08:33.000Z</time>
      </trkpt>
      <trkpt lat="43.97714" lon="6.31155">
        <ele>686.28515</ele>
        <time>2021-09-18T12:08:34.000Z</time>
      </trkpt>
      <trkpt lat="43.97666" lon="6.31176">
        <ele>686.027569</ele>
        <time>2021-09-18T12:08:42.000Z</time>
      </trkpt>
      <trkpt lat="43.97628" lon="6.31177">
        <ele>685.832069</ele>
        <time>2021-09-18T12:08:48.000Z</time>
      </trkpt>
      <trkpt lat="43.97584" lon="6.31172">
        <ele>685.630161</ele>
        <time>2021-09-18T12:08:55.000Z</time>
      </trkpt>
      <trkpt lat="43.97536" lon="6.31168">
        <ele>685.455424</ele>
        <time>2021-09-18T12:09:02.000Z</time>
      </trkpt>
      <trkpt lat="43.9749" lon="6.31163">
        <ele>685.283244</ele>
        <time>2021-09-18T12:09:09.000Z</time>
      </trkpt>
      <trkpt lat="43.97443" lon="6.31159">
        <ele>685.10979</ele>
        <time>2021-09-18T12:09:16.000Z</time>
      </trkpt>
      <trkpt lat="43.97436" lon="6.31159">
        <ele>685.085033</ele>
        <time>2021-09-18T12:09:17.000Z</time>
      </trkpt>
      <trkpt lat="43.9739" lon="6.31164">
        <ele>685.076147</ele>
        <time>2021-09-18T12:09:24.000Z</time>
      </trkpt>
      <trkpt lat="43.97347" lon="6.31173">
        <ele>685.117945</ele>
        <time>2021-09-18T12:09:31.000Z</time>
      </trkpt>
      <trkpt lat="43.97293" lon="6.31191">
        <ele>685.17039</ele>
        <time>2021-09-18T12:09:40.000Z</time>
      </trkpt>
      <trkpt lat="43.97281" lon="6.31193">
        <ele>685.181968</ele>
        <time>2021-09-18T12:09:42.000Z</time>
      </trkpt>
      <trkpt lat="43.97263" lon="6.31193">
        <ele>685.199304</ele>
        <time>2021-09-18T12:09:45.000Z</time>
      </trkpt>
      <trkpt lat="43.97223" lon="6.31177">
        <ele>685.268132</ele>
        <time>2021-09-18T12:09:52.000Z</time>
      </trkpt>
      <trkpt lat="43.97175" lon="6.31152">
        <ele>685.377428</ele>
        <time>2021-09-18T12:10:01.000Z</time>
      </trkpt>
      <trkpt lat="43.97159" lon="6.31146">
        <ele>685.413023</ele>
        <time>2021-09-18T12:10:04.000Z</time>
      </trkpt>
      <trkpt lat="43.97142" lon="6.31142">
        <ele>685.448933</ele>
        <time>2021-09-18T12:10:07.000Z</time>
      </trkpt>
      <trkpt lat="43.97102" lon="6.31146">
        <ele>685.533941</ele>
        <time>2021-09-18T12:10:14.000Z</time>
      </trkpt>
      <trkpt lat="43.97058" lon="6.31163">
        <ele>685.557095</ele>
        <time>2021-09-18T12:10:22.000Z</time>
      </trkpt>
      <trkpt lat="43.97006" lon="6.31182">
        <ele>685.434289</ele>
        <time>2021-09-18T12:10:31.000Z</time>
      </trkpt>
      <trkpt lat="43.96953" lon="6.31202">
        <ele>685.308379</ele>
        <time>2021-09-18T12:10:40.000Z</time>
      </trkpt>
      <trkpt lat="43.96899" lon="6.31232">
        <ele>685.185347</ele>
        <time>2021-09-18T12:10:49.000Z</time>
      </trkpt>
      <trkpt lat="43.96848" lon="6.31264">
        <ele>685.182671</ele>
        <time>2021-09-18T12:10:58.000Z</time>
      </trkpt>
      <trkpt lat="43.96843" lon="6.31268">
        <ele>685.182383</ele>
        <time>2021-09-18T12:10:59.000Z</time>
      </trkpt>
      <trkpt lat="43.96802" lon="6.313">
        <ele>685.180137</ele>
        <time>2021-09-18T12:11:06.000Z</time>
      </trkpt>
      <trkpt lat="43.96782" lon="6.3133">
        <ele>685.178737</ele>
        <time>2021-09-18T12:11:12.000Z</time>
      </trkpt>
      <trkpt lat="43.96757" lon="6.31379">
        <ele>685.190381</ele>
        <time>2021-09-18T12:11:19.000Z</time>
      </trkpt>
      <trkpt lat="43.96739" lon="6.31434">
        <ele>685.29825</ele>
        <time>2021-09-18T12:11:25.000Z</time>
      </trkpt>
      <trkpt lat="43.96731" lon="6.31503">
        <ele>685.421046</ele>
        <time>2021-09-18T12:11:33.000Z</time>
      </trkpt>
      <trkpt lat="43.9672" lon="6.31583">
        <ele>685.566393</ele>
        <time>2021-09-18T12:11:43.000Z</time>
      </trkpt>
      <trkpt lat="43.96702" lon="6.31635">
        <ele>685.810531</ele>
        <time>2021-09-18T12:11:50.000Z</time>
      </trkpt>
      <trkpt lat="43.9668" lon="6.317">
        <ele>686.309013</ele>
        <time>2021-09-18T12:11:59.000Z</time>
      </trkpt>
      <trkpt lat="43.96662" lon="6.31752">
        <ele>686.712938</ele>
        <time>2021-09-18T12:12:07.000Z</time>
      </trkpt>
      <trkpt lat="43.96646" lon="6.31798">
        <ele>687.07018</ele>
        <time>2021-09-18T12:12:15.000Z</time>
      </trkpt>
      <trkpt lat="43.96646" lon="6.31798">
        <ele>687.07018</ele>
        <time>2021-09-18T12:12:16.000Z</time>
      </trkpt>
      <trkpt lat="43.96635" lon="6.31828">
        <ele>687.306314</ele>
        <time>2021-09-18T12:12:21.000Z</time>
      </trkpt>
      <trkpt lat="43.96616" lon="6.31866">
        <ele>687.686575</ele>
        <time>2021-09-18T12:12:29.000Z</time>
      </trkpt>
      <trkpt lat="43.96591" lon="6.31901">
        <ele>688.105801</ele>
        <time>2021-09-18T12:12:37.000Z</time>
      </trkpt>
      <trkpt lat="43.96561" lon="6.31932">
        <ele>688.553369</ele>
        <time>2021-09-18T12:12:44.000Z</time>
      </trkpt>
      <trkpt lat="43.96526" lon="6.3196">
        <ele>689.036266</ele>
        <time>2021-09-18T12:12:51.000Z</time>
      </trkpt>
      <trkpt lat="43.96479" lon="6.31999">
        <ele>689.583417</ele>
        <time>2021-09-18T12:13:00.000Z</time>
      </trkpt>
      <trkpt lat="43.96437" lon="6.32042">
        <ele>689.85426</ele>
        <time>2021-09-18T12:13:08.000Z</time>
      </trkpt>
      <trkpt lat="43.96396" lon="6.32086">
        <ele>690.126053</ele>
        <time>2021-09-18T12:13:16.000Z</time>
      </trkpt>
      <trkpt lat="43.96361" lon="6.32124">
        <ele>690.358219</ele>
        <time>2021-09-18T12:13:23.000Z</time>
      </trkpt>
      <trkpt lat="43.96329" lon="6.32159">
        <ele>690.637629</ele>
        <time>2021-09-18T12:13:30.000Z</time>
      </trkpt>
      <trkpt lat="43.96305" lon="6.32199">
        <ele>690.93666</ele>
        <time>2021-09-18T12:13:37.000Z</time>
      </trkpt>
      <trkpt lat="43.96295" lon="6.32239">
        <ele>691.178286</ele>
        <time>2021-09-18T12:13:43.000Z</time>
      </trkpt>
      <trkpt lat="43.96291" lon="6.32294">
        <ele>691.495721</ele>
        <time>2021-09-18T12:13:51.000Z</time>
      </trkpt>
      <trkpt lat="43.96288" lon="6.32374">
        <ele>691.955175</ele>
        <time>2021-09-18T12:14:02.000Z</time>
      </trkpt>
      <trkpt lat="43.96287" lon="6.32382">
        <ele>691.997755</ele>
        <time>2021-09-18T12:14:03.000Z</time>
      </trkpt>
      <trkpt lat="43.9628" lon="6.32435">
        <ele>692.298533</ele>
        <time>2021-09-18T12:14:10.000Z</time>
      </trkpt>
      <trkpt lat="43.96263" lon="6.32484">
        <ele>692.593989</ele>
        <time>2021-09-18T12:14:17.000Z</time>
      </trkpt>
      <trkpt lat="43.96238" lon="6.32541">
        <ele>692.969909</ele>
        <time>2021-09-18T12:14:26.000Z</time>
      </trkpt>
      <trkpt lat="43.96215" lon="6.32591">
        <ele>693.323525</ele>
        <time>2021-09-18T12:14:34.000Z</time>
      </trkpt>
      <trkpt lat="43.96191" lon="6.32645">
        <ele>694.037963</ele>
        <time>2021-09-18T12:14:44.000Z</time>
      </trkpt>
      <trkpt lat="43.96171" lon="6.32694">
        <ele>694.672547</ele>
        <time>2021-09-18T12:14:53.000Z</time>
      </trkpt>
      <trkpt lat="43.96166" lon="6.32711">
        <ele>694.881203</ele>
        <time>2021-09-18T12:14:56.000Z</time>
      </trkpt>
      <trkpt lat="43.96163" lon="6.32735">
        <ele>695.152479</ele>
        <time>2021-09-18T12:15:00.000Z</time>
      </trkpt>
      <trkpt lat="43.96167" lon="6.32785">
        <ele>695.714974</ele>
        <time>2021-09-18T12:15:08.000Z</time>
      </trkpt>
      <trkpt lat="43.96173" lon="6.32831">
        <ele>696.242011</ele>
        <time>2021-09-18T12:15:15.000Z</time>
      </trkpt>
      <trkpt lat="43.96173" lon="6.32838">
        <ele>696.320863</ele>
        <time>2021-09-18T12:15:16.000Z</time>
      </trkpt>
      <trkpt lat="43.96174" lon="6.32873">
        <ele>696.712035</ele>
        <time>2021-09-18T12:15:21.000Z</time>
      </trkpt>
      <trkpt lat="43.9617" lon="6.32902">
        <ele>697.051489</ele>
        <time>2021-09-18T12:15:25.000Z</time>
      </trkpt>
      <trkpt lat="43.96168" lon="6.32917">
        <ele>697.225551</ele>
        <time>2021-09-18T12:15:27.000Z</time>
      </trkpt>
      <trkpt lat="43.96154" lon="6.32976">
        <ele>697.934182</ele>
        <time>2021-09-18T12:15:35.000Z</time>
      </trkpt>
      <trkpt lat="43.96142" lon="6.3303">
        <ele>698.574468</ele>
        <time>2021-09-18T12:15:42.000Z</time>
      </trkpt>
      <trkpt lat="43.96139" lon="6.33062">
        <ele>698.920897</ele>
        <time>2021-09-18T12:15:46.000Z</time>
      </trkpt>
      <trkpt lat="43.9614" lon="6.33079">
        <ele>699.025689</ele>
        <time>2021-09-18T12:15:48.000Z</time>
      </trkpt>
      <trkpt lat="43.9615" lon="6.3316">
        <ele>699.524893</ele>
        <time>2021-09-18T12:15:57.000Z</time>
      </trkpt>
      <trkpt lat="43.96151" lon="6.33168">
        <ele>699.578139</ele>
        <time>2021-09-18T12:15:58.000Z</time>
      </trkpt>
      <trkpt lat="43.96159" lon="6.33234">
        <ele>699.984792</ele>
        <time>2021-09-18T12:16:06.000Z</time>
      </trkpt>
      <trkpt lat="43.96167" lon="6.33295">
        <ele>700.363496</ele>
        <time>2021-09-18T12:16:14.000Z</time>
      </trkpt>
      <trkpt lat="43.96175" lon="6.33375">
        <ele>700.859218</ele>
        <time>2021-09-18T12:16:24.000Z</time>
      </trkpt>
      <trkpt lat="43.96185" lon="6.33456">
        <ele>701.357247</ele>
        <time>2021-09-18T12:16:34.000Z</time>
      </trkpt>
      <trkpt lat="43.96186" lon="6.33464">
        <ele>701.406982</ele>
        <time>2021-09-18T12:16:35.000Z</time>
      </trkpt>
      <trkpt lat="43.96185" lon="6.33521">
        <ele>701.750762</ele>
        <time>2021-09-18T12:16:42.000Z</time>
      </trkpt>
      <trkpt lat="43.96177" lon="6.33568">
        <ele>702.012756</ele>
        <time>2021-09-18T12:16:48.000Z</time>
      </trkpt>
      <trkpt lat="43.96162" lon="6.33612">
        <ele>702.214134</ele>
        <time>2021-09-18T12:16:54.000Z</time>
      </trkpt>
      <trkpt lat="43.96132" lon="6.3367">
        <ele>702.50335</ele>
        <time>2021-09-18T12:17:03.000Z</time>
      </trkpt>
      <trkpt lat="43.961" lon="6.3373">
        <ele>702.810227</ele>
        <time>2021-09-18T12:17:12.000Z</time>
      </trkpt>
      <trkpt lat="43.96076" lon="6.33786">
        <ele>703.017613</ele>
        <time>2021-09-18T12:17:20.000Z</time>
      </trkpt>
      <trkpt lat="43.96073" lon="6.33794">
        <ele>703.032588</ele>
        <time>2021-09-18T12:17:21.000Z</time>
      </trkpt>
      <trkpt lat="43.96063" lon="6.33833">
        <ele>703.10741</ele>
        <time>2021-09-18T12:17:26.000Z</time>
      </trkpt>
      <trkpt lat="43.96051" lon="6.33888">
        <ele>703.208208</ele>
        <time>2021-09-18T12:17:33.000Z</time>
      </trkpt>
      <trkpt lat="43.96048" lon="6.33901">
        <ele>703.233498</ele>
        <time>2021-09-18T12:17:35.000Z</time>
      </trkpt>
      <trkpt lat="43.96043" lon="6.33899">
        <ele>703.247072</ele>
        <time>2021-09-18T12:17:37.000Z</time>
      </trkpt>
      <trkpt lat="43.9604" lon="6.33907">
        <ele>703.261974</ele>
        <time>2021-09-18T12:17:41.000Z</time>
      </trkpt>
      <trkpt lat="43.9604" lon="6.33907">
        <ele>703.261974</ele>
        <time>2021-09-18T12:17:43.000Z</time>
      </trkpt>
      <trkpt lat="43.96046" lon="6.33913">
        <ele>703.2815</ele>
        <time>2021-09-18T12:18:38.000Z</time>
      </trkpt>
      <trkpt lat="43.96046" lon="6.33916">
        <ele>703.286213</ele>
        <time>2021-09-18T12:18:40.000Z</time>
      </trkpt>
      <trkpt lat="43.96046" lon="6.33915">
        <ele>703.287479</ele>
        <time>2021-09-18T12:18:42.000Z</time>
      </trkpt>
      <trkpt lat="43.96046" lon="6.33918">
        <ele>703.292938</ele>
        <time>2021-09-18T12:18:44.000Z</time>
      </trkpt>
      <trkpt lat="43.96042" lon="6.3394">
        <ele>703.333401</ele>
        <time>2021-09-18T12:18:49.000Z</time>
      </trkpt>
      <trkpt lat="43.9604" lon="6.33958">
        <ele>703.36433</ele>
        <time>2021-09-18T12:18:51.000Z</time>
      </trkpt>
      <trkpt lat="43.96038" lon="6.33976">
        <ele>703.397921</ele>
        <time>2021-09-18T12:18:54.000Z</time>
      </trkpt>
      <trkpt lat="43.96033" lon="6.34039">
        <ele>703.578084</ele>
        <time>2021-09-18T12:19:03.000Z</time>
      </trkpt>
      <trkpt lat="43.96028" lon="6.34091">
        <ele>703.738644</ele>
        <time>2021-09-18T12:19:10.000Z</time>
      </trkpt>
      <trkpt lat="43.96024" lon="6.34143">
        <ele>703.897698</ele>
        <time>2021-09-18T12:19:17.000Z</time>
      </trkpt>
      <trkpt lat="43.96018" lon="6.34221">
        <ele>704.136492</ele>
        <time>2021-09-18T12:19:27.000Z</time>
      </trkpt>
      <trkpt lat="43.96015" lon="6.34291">
        <ele>704.585504</ele>
        <time>2021-09-18T12:19:36.000Z</time>
      </trkpt>
      <trkpt lat="43.96014" lon="6.34307">
        <ele>704.694951</ele>
        <time>2021-09-18T12:19:38.000Z</time>
      </trkpt>
      <trkpt lat="43.96015" lon="6.34322">
        <ele>704.800219</ele>
        <time>2021-09-18T12:19:40.000Z</time>
      </trkpt>
      <trkpt lat="43.96018" lon="6.34336">
        <ele>704.907736</ele>
        <time>2021-09-18T12:19:42.000Z</time>
      </trkpt>
      <trkpt lat="43.96025" lon="6.34357">
        <ele>705.067788</ele>
        <time>2021-09-18T12:19:45.000Z</time>
      </trkpt>
      <trkpt lat="43.96034" lon="6.34376">
        <ele>705.225923</ele>
        <time>2021-09-18T12:19:48.000Z</time>
      </trkpt>
      <trkpt lat="43.96056" lon="6.34408">
        <ele>705.547394</ele>
        <time>2021-09-18T12:19:54.000Z</time>
      </trkpt>
      <trkpt lat="43.96061" lon="6.34413">
        <ele>705.603423</ele>
        <time>2021-09-18T12:19:55.000Z</time>
      </trkpt>
      <trkpt lat="43.96078" lon="6.34433">
        <ele>705.822717</ele>
        <time>2021-09-18T12:19:59.000Z</time>
      </trkpt>
      <trkpt lat="43.96124" lon="6.34477">
        <ele>706.350034</ele>
        <time>2021-09-18T12:20:09.000Z</time>
      </trkpt>
      <trkpt lat="43.96157" lon="6.3452">
        <ele>706.776932</ele>
        <time>2021-09-18T12:20:17.000Z</time>
      </trkpt>
      <trkpt lat="43.96167" lon="6.34539">
        <ele>706.931782</ele>
        <time>2021-09-18T12:20:20.000Z</time>
      </trkpt>
      <trkpt lat="43.96173" lon="6.34551">
        <ele>707.029389</ele>
        <time>2021-09-18T12:20:22.000Z</time>
      </trkpt>
      <trkpt lat="43.96175" lon="6.34558">
        <ele>707.082262</ele>
        <time>2021-09-18T12:20:23.000Z</time>
      </trkpt>
      <trkpt lat="43.96178" lon="6.34565">
        <ele>707.133519</ele>
        <time>2021-09-18T12:20:24.000Z</time>
      </trkpt>
      <trkpt lat="43.96184" lon="6.34592">
        <ele>707.323852</ele>
        <time>2021-09-18T12:20:28.000Z</time>
      </trkpt>
      <trkpt lat="43.96185" lon="6.34599">
        <ele>707.372158</ele>
        <time>2021-09-18T12:20:29.000Z</time>
      </trkpt>
      <trkpt lat="43.96189" lon="6.3465">
        <ele>707.72614</ele>
        <time>2021-09-18T12:20:36.000Z</time>
      </trkpt>
      <trkpt lat="43.96191" lon="6.3472">
        <ele>708.220524</ele>
        <time>2021-09-18T12:20:45.000Z</time>
      </trkpt>
      <trkpt lat="43.9619" lon="6.34792">
        <ele>708.73272</ele>
        <time>2021-09-18T12:20:54.000Z</time>
      </trkpt>
      <trkpt lat="43.9618" lon="6.34855">
        <ele>709.195647</ele>
        <time>2021-09-18T12:21:02.000Z</time>
      </trkpt>
      <trkpt lat="43.96164" lon="6.34926">
        <ele>709.704698</ele>
        <time>2021-09-18T12:21:12.000Z</time>
      </trkpt>
      <trkpt lat="43.96154" lon="6.34981">
        <ele>710.084291</ele>
        <time>2021-09-18T12:21:20.000Z</time>
      </trkpt>
      <trkpt lat="43.96154" lon="6.35025">
        <ele>710.376398</ele>
        <time>2021-09-18T12:21:26.000Z</time>
      </trkpt>
      <trkpt lat="43.96164" lon="6.35079">
        <ele>710.747549</ele>
        <time>2021-09-18T12:21:33.000Z</time>
      </trkpt>
      <trkpt lat="43.96182" lon="6.35131">
        <ele>711.101407</ele>
        <time>2021-09-18T12:21:40.000Z</time>
      </trkpt>
      <trkpt lat="43.96203" lon="6.35186">
        <ele>711.297976</ele>
        <time>2021-09-18T12:21:47.000Z</time>
      </trkpt>
      <trkpt lat="43.96215" lon="6.35238">
        <ele>711.473151</ele>
        <time>2021-09-18T12:21:53.000Z</time>
      </trkpt>
      <trkpt lat="43.96216" lon="6.35247">
        <ele>711.500102</ele>
        <time>2021-09-18T12:21:54.000Z</time>
      </trkpt>
      <trkpt lat="43.96217" lon="6.35297">
        <ele>711.658579</ele>
        <time>2021-09-18T12:22:00.000Z</time>
      </trkpt>
      <trkpt lat="43.96209" lon="6.35342">
        <ele>711.80808</ele>
        <time>2021-09-18T12:22:06.000Z</time>
      </trkpt>
      <trkpt lat="43.96193" lon="6.35389">
        <ele>711.938633</ele>
        <time>2021-09-18T12:22:13.000Z</time>
      </trkpt>
      <trkpt lat="43.96177" lon="6.35414">
        <ele>712.012803</ele>
        <time>2021-09-18T12:22:18.000Z</time>
      </trkpt>
      <trkpt lat="43.96156" lon="6.35444">
        <ele>712.105798</ele>
        <time>2021-09-18T12:22:24.000Z</time>
      </trkpt>
      <trkpt lat="43.96128" lon="6.3548">
        <ele>712.222048</ele>
        <time>2021-09-18T12:22:31.000Z</time>
      </trkpt>
      <trkpt lat="43.96086" lon="6.35534">
        <ele>712.396012</ele>
        <time>2021-09-18T12:22:41.000Z</time>
      </trkpt>
      <trkpt lat="43.96082" lon="6.35539">
        <ele>712.413357</ele>
        <time>2021-09-18T12:22:42.000Z</time>
      </trkpt>
      <trkpt lat="43.96051" lon="6.35579">
        <ele>712.439043</ele>
        <time>2021-09-18T12:22:49.000Z</time>
      </trkpt>
      <trkpt lat="43.96043" lon="6.3559">
        <ele>712.446171</ele>
        <time>2021-09-18T12:22:51.000Z</time>
      </trkpt>
      <trkpt lat="43.96026" lon="6.35611">
        <ele>712.460368</ele>
        <time>2021-09-18T12:22:55.000Z</time>
      </trkpt>
      <trkpt lat="43.96004" lon="6.35638">
        <ele>712.478023</ele>
        <time>2021-09-18T12:23:01.000Z</time>
      </trkpt>
      <trkpt lat="43.95969" lon="6.35683">
        <ele>712.507426</ele>
        <time>2021-09-18T12:23:08.000Z</time>
      </trkpt>
      <trkpt lat="43.95937" lon="6.35718">
        <ele>712.547024</ele>
        <time>2021-09-18T12:23:15.000Z</time>
      </trkpt>
      <trkpt lat="43.95917" lon="6.3574">
        <ele>712.587324</ele>
        <time>2021-09-18T12:23:19.000Z</time>
      </trkpt>
      <trkpt lat="43.95907" lon="6.35751">
        <ele>712.607011</ele>
        <time>2021-09-18T12:23:21.000Z</time>
      </trkpt>
      <trkpt lat="43.9588" lon="6.35783">
        <ele>712.664307</ele>
        <time>2021-09-18T12:23:27.000Z</time>
      </trkpt>
      <trkpt lat="43.95848" lon="6.35824">
        <ele>712.733515</ele>
        <time>2021-09-18T12:23:34.000Z</time>
      </trkpt>
      <trkpt lat="43.95822" lon="6.35859">
        <ele>712.790844</ele>
        <time>2021-09-18T12:23:40.000Z</time>
      </trkpt>
      <trkpt lat="43.95815" lon="6.35872">
        <ele>712.810264</ele>
        <time>2021-09-18T12:23:42.000Z</time>
      </trkpt>
      <trkpt lat="43.95791" lon="6.35922">
        <ele>712.994289</ele>
        <time>2021-09-18T12:23:49.000Z</time>
      </trkpt>
      <trkpt lat="43.95768" lon="6.35972">
        <ele>713.180024</ele>
        <time>2021-09-18T12:23:56.000Z</time>
      </trkpt>
      <trkpt lat="43.95743" lon="6.3601">
        <ele>713.337763</ele>
        <time>2021-09-18T12:24:02.000Z</time>
      </trkpt>
      <trkpt lat="43.95705" lon="6.36049">
        <ele>713.545426</ele>
        <time>2021-09-18T12:24:10.000Z</time>
      </trkpt>
      <trkpt lat="43.95674" lon="6.36078">
        <ele>713.777279</ele>
        <time>2021-09-18T12:24:16.000Z</time>
      </trkpt>
      <trkpt lat="43.95633" lon="6.36118">
        <ele>714.122249</ele>
        <time>2021-09-18T12:24:24.000Z</time>
      </trkpt>
      <trkpt lat="43.95602" lon="6.36156">
        <ele>714.406728</ele>
        <time>2021-09-18T12:24:31.000Z</time>
      </trkpt>
      <trkpt lat="43.95568" lon="6.36206">
        <ele>714.749074</ele>
        <time>2021-09-18T12:24:39.000Z</time>
      </trkpt>
      <trkpt lat="43.95532" lon="6.36263">
        <ele>715.210102</ele>
        <time>2021-09-18T12:24:48.000Z</time>
      </trkpt>
      <trkpt lat="43.95496" lon="6.36306">
        <ele>715.624309</ele>
        <time>2021-09-18T12:24:56.000Z</time>
      </trkpt>
      <trkpt lat="43.95461" lon="6.36331">
        <ele>715.974753</ele>
        <time>2021-09-18T12:25:03.000Z</time>
      </trkpt>
      <trkpt lat="43.95422" lon="6.36355">
        <ele>716.354013</ele>
        <time>2021-09-18T12:25:11.000Z</time>
      </trkpt>
      <trkpt lat="43.95417" lon="6.36358">
        <ele>716.40058</ele>
        <time>2021-09-18T12:25:12.000Z</time>
      </trkpt>
      <trkpt lat="43.95393" lon="6.36374">
        <ele>716.550504</ele>
        <time>2021-09-18T12:25:17.000Z</time>
      </trkpt>
      <trkpt lat="43.95369" lon="6.36399">
        <ele>716.711927</ele>
        <time>2021-09-18T12:25:24.000Z</time>
      </trkpt>
      <trkpt lat="43.95337" lon="6.36439">
        <ele>716.939655</ele>
        <time>2021-09-18T12:25:31.000Z</time>
      </trkpt>
      <trkpt lat="43.9531" lon="6.36473">
        <ele>717.136401</ele>
        <time>2021-09-18T12:25:38.000Z</time>
      </trkpt>
      <trkpt lat="43.95277" lon="6.36515">
        <ele>717.372486</ele>
        <time>2021-09-18T12:25:46.000Z</time>
      </trkpt>
      <trkpt lat="43.95245" lon="6.36557">
        <ele>717.68003</ele>
        <time>2021-09-18T12:25:54.000Z</time>
      </trkpt>
      <trkpt lat="43.95226" lon="6.36583">
        <ele>717.861333</ele>
        <time>2021-09-18T12:25:59.000Z</time>
      </trkpt>
      <trkpt lat="43.95222" lon="6.36588">
        <ele>717.897961</ele>
        <time>2021-09-18T12:26:00.000Z</time>
      </trkpt>
      <trkpt lat="43.95208" lon="6.36607">
        <ele>718.035678</ele>
        <time>2021-09-18T12:26:04.000Z</time>
      </trkpt>
      <trkpt lat="43.95205" lon="6.36612">
        <ele>718.067386</ele>
        <time>2021-09-18T12:26:05.000Z</time>
      </trkpt>
      <trkpt lat="43.95192" lon="6.36629">
        <ele>718.189149</ele>
        <time>2021-09-18T12:26:09.000Z</time>
      </trkpt>
      <trkpt lat="43.95204" lon="6.36638">
        <ele>718.280045</ele>
        <time>2021-09-18T12:26:12.000Z</time>
      </trkpt>
      <trkpt lat="43.95224" lon="6.36648">
        <ele>718.432132</ele>
        <time>2021-09-18T12:26:17.000Z</time>
      </trkpt>
      <trkpt lat="43.95229" lon="6.36651">
        <ele>718.470722</ele>
        <time>2021-09-18T12:26:18.000Z</time>
      </trkpt>
      <trkpt lat="43.95234" lon="6.36656">
        <ele>718.509198</ele>
        <time>2021-09-18T12:26:19.000Z</time>
      </trkpt>
      <trkpt lat="43.95247" lon="6.3667">
        <ele>718.626945</ele>
        <time>2021-09-18T12:26:22.000Z</time>
      </trkpt>
      <trkpt lat="43.95273" lon="6.367">
        <ele>718.889003</ele>
        <time>2021-09-18T12:26:28.000Z</time>
      </trkpt>
      <trkpt lat="43.95276" lon="6.36706">
        <ele>718.932478</ele>
        <time>2021-09-18T12:26:29.000Z</time>
      </trkpt>
      <trkpt lat="43.95289" lon="6.36732">
        <ele>719.107658</ele>
        <time>2021-09-18T12:26:34.000Z</time>
      </trkpt>
      <trkpt lat="43.95297" lon="6.36752">
        <ele>719.235644</ele>
        <time>2021-09-18T12:26:38.000Z</time>
      </trkpt>
      <trkpt lat="43.95312" lon="6.36799">
        <ele>719.527008</ele>
        <time>2021-09-18T12:26:47.000Z</time>
      </trkpt>
      <trkpt lat="43.9532" lon="6.36826">
        <ele>719.687589</ele>
        <time>2021-09-18T12:26:53.000Z</time>
      </trkpt>
      <trkpt lat="43.95327" lon="6.36845">
        <ele>719.808719</ele>
        <time>2021-09-18T12:26:59.000Z</time>
      </trkpt>
      <trkpt lat="43.95328" lon="6.36848">
        <ele>719.8295</ele>
        <time>2021-09-18T12:27:00.000Z</time>
      </trkpt>
      <trkpt lat="43.9533" lon="6.36855">
        <ele>719.871407</ele>
        <time>2021-09-18T12:27:02.000Z</time>
      </trkpt>
      <trkpt lat="43.95344" lon="6.36886">
        <ele>720.12118</ele>
        <time>2021-09-18T12:27:09.000Z</time>
      </trkpt>
      <trkpt lat="43.95357" lon="6.36916">
        <ele>720.506637</ele>
        <time>2021-09-18T12:27:15.000Z</time>
      </trkpt>
      <trkpt lat="43.95376" lon="6.36961">
        <ele>721.076672</ele>
        <time>2021-09-18T12:27:24.000Z</time>
      </trkpt>
      <trkpt lat="43.95387" lon="6.36989">
        <ele>721.428931</ele>
        <time>2021-09-18T12:27:30.000Z</time>
      </trkpt>
      <trkpt lat="43.9539" lon="6.36999">
        <ele>721.552318</ele>
        <time>2021-09-18T12:27:32.000Z</time>
      </trkpt>
      <trkpt lat="43.95397" lon="6.37019">
        <ele>721.798088</ele>
        <time>2021-09-18T12:27:36.000Z</time>
      </trkpt>
      <trkpt lat="43.95399" lon="6.37024">
        <ele>721.85928</ele>
        <time>2021-09-18T12:27:37.000Z</time>
      </trkpt>
      <trkpt lat="43.95407" lon="6.37049">
        <ele>722.169983</ele>
        <time>2021-09-18T12:27:42.000Z</time>
      </trkpt>
      <trkpt lat="43.95424" lon="6.37097">
        <ele>722.758382</ele>
        <time>2021-09-18T12:27:51.000Z</time>
      </trkpt>
      <trkpt lat="43.9543" lon="6.37112">
        <ele>723.093949</ele>
        <time>2021-09-18T12:27:54.000Z</time>
      </trkpt>
      <trkpt lat="43.95439" lon="6.37133">
        <ele>723.611704</ele>
        <time>2021-09-18T12:27:58.000Z</time>
      </trkpt>
      <trkpt lat="43.95441" lon="6.37139">
        <ele>723.736613</ele>
        <time>2021-09-18T12:27:59.000Z</time>
      </trkpt>
      <trkpt lat="43.95458" lon="6.37169">
        <ele>724.567013</ele>
        <time>2021-09-18T12:28:06.000Z</time>
      </trkpt>
      <trkpt lat="43.95473" lon="6.37191">
        <ele>725.217863</ele>
        <time>2021-09-18T12:28:12.000Z</time>
      </trkpt>
      <trkpt lat="43.95496" lon="6.37223">
        <ele>726.158241</ele>
        <time>2021-09-18T12:28:21.000Z</time>
      </trkpt>
      <trkpt lat="43.95522" lon="6.37251">
        <ele>727.128073</ele>
        <time>2021-09-18T12:28:31.000Z</time>
      </trkpt>
      <trkpt lat="43.95544" lon="6.3728">
        <ele>728.039585</ele>
        <time>2021-09-18T12:28:41.000Z</time>
      </trkpt>
      <trkpt lat="43.95563" lon="6.37307">
        <ele>728.753174</ele>
        <time>2021-09-18T12:28:50.000Z</time>
      </trkpt>
      <trkpt lat="43.95577" lon="6.37329">
        <ele>729.303744</ele>
        <time>2021-09-18T12:28:57.000Z</time>
      </trkpt>
      <trkpt lat="43.95589" lon="6.37357">
        <ele>729.902919</ele>
        <time>2021-09-18T12:29:04.000Z</time>
      </trkpt>
      <trkpt lat="43.95599" lon="6.37382">
        <ele>730.425782</ele>
        <time>2021-09-18T12:29:10.000Z</time>
      </trkpt>
      <trkpt lat="43.95612" lon="6.37418">
        <ele>731.179469</ele>
        <time>2021-09-18T12:29:17.000Z</time>
      </trkpt>
      <trkpt lat="43.95634" lon="6.37466">
        <ele>732.244167</ele>
        <time>2021-09-18T12:29:26.000Z</time>
      </trkpt>
      <trkpt lat="43.95658" lon="6.37511">
        <ele>733.023332</ele>
        <time>2021-09-18T12:29:34.000Z</time>
      </trkpt>
      <trkpt lat="43.95684" lon="6.37558">
        <ele>733.583664</ele>
        <time>2021-09-18T12:29:42.000Z</time>
      </trkpt>
      <trkpt lat="43.95707" lon="6.37594">
        <ele>734.034046</ele>
        <time>2021-09-18T12:29:49.000Z</time>
      </trkpt>
      <trkpt lat="43.95714" lon="6.37603">
        <ele>734.164807</ele>
        <time>2021-09-18T12:29:51.000Z</time>
      </trkpt>
      <trkpt lat="43.95726" lon="6.37616">
        <ele>734.366571</ele>
        <time>2021-09-18T12:29:54.000Z</time>
      </trkpt>
      <trkpt lat="43.95756" lon="6.37648">
        <ele>734.856034</ele>
        <time>2021-09-18T12:30:01.000Z</time>
      </trkpt>
      <trkpt lat="43.95792" lon="6.37684">
        <ele>735.369662</ele>
        <time>2021-09-18T12:30:09.000Z</time>
      </trkpt>
      <trkpt lat="43.95832" lon="6.37724">
        <ele>735.868432</ele>
        <time>2021-09-18T12:30:18.000Z</time>
      </trkpt>
      <trkpt lat="43.95868" lon="6.37759">
        <ele>736.313178</ele>
        <time>2021-09-18T12:30:26.000Z</time>
      </trkpt>
      <trkpt lat="43.9591" lon="6.37808">
        <ele>736.870846</ele>
        <time>2021-09-18T12:30:36.000Z</time>
      </trkpt>
      <trkpt lat="43.95913" lon="6.37813">
        <ele>736.924727</ele>
        <time>2021-09-18T12:30:37.000Z</time>
      </trkpt>
      <trkpt lat="43.9593" lon="6.37842">
        <ele>737.079886</ele>
        <time>2021-09-18T12:30:42.000Z</time>
      </trkpt>
      <trkpt lat="43.95933" lon="6.37848">
        <ele>737.106453</ele>
        <time>2021-09-18T12:30:43.000Z</time>
      </trkpt>
      <trkpt lat="43.95948" lon="6.37886">
        <ele>737.275893</ele>
        <time>2021-09-18T12:30:49.000Z</time>
      </trkpt>
      <trkpt lat="43.95964" lon="6.37926">
        <ele>737.44982</ele>
        <time>2021-09-18T12:30:55.000Z</time>
      </trkpt>
      <trkpt lat="43.95966" lon="6.37932">
        <ele>737.475659</ele>
        <time>2021-09-18T12:30:56.000Z</time>
      </trkpt>
      <trkpt lat="43.95968" lon="6.37938">
        <ele>737.502431</ele>
        <time>2021-09-18T12:30:57.000Z</time>
      </trkpt>
      <trkpt lat="43.95973" lon="6.3795">
        <ele>737.556312</ele>
        <time>2021-09-18T12:30:59.000Z</time>
      </trkpt>
      <trkpt lat="43.95979" lon="6.37964">
        <ele>737.61553</ele>
        <time>2021-09-18T12:31:01.000Z</time>
      </trkpt>
      <trkpt lat="43.95998" lon="6.38015">
        <ele>737.838932</ele>
        <time>2021-09-18T12:31:08.000Z</time>
      </trkpt>
      <trkpt lat="43.96023" lon="6.38079">
        <ele>738.105507</ele>
        <time>2021-09-18T12:31:17.000Z</time>
      </trkpt>
      <trkpt lat="43.96043" lon="6.38128">
        <ele>738.306163</ele>
        <time>2021-09-18T12:31:24.000Z</time>
      </trkpt>
      <trkpt lat="43.96067" lon="6.38189">
        <ele>738.559499</ele>
        <time>2021-09-18T12:31:33.000Z</time>
      </trkpt>
      <trkpt lat="43.96089" lon="6.38246">
        <ele>738.79105</ele>
        <time>2021-09-18T12:31:42.000Z</time>
      </trkpt>
      <trkpt lat="43.96095" lon="6.38265">
        <ele>738.887847</ele>
        <time>2021-09-18T12:31:45.000Z</time>
      </trkpt>
      <trkpt lat="43.96102" lon="6.38291">
        <ele>739.023036</ele>
        <time>2021-09-18T12:31:49.000Z</time>
      </trkpt>
      <trkpt lat="43.96108" lon="6.38348">
        <ele>739.302037</ele>
        <time>2021-09-18T12:31:57.000Z</time>
      </trkpt>
      <trkpt lat="43.96109" lon="6.38385">
        <ele>739.483196</ele>
        <time>2021-09-18T12:32:02.000Z</time>
      </trkpt>
      <trkpt lat="43.96107" lon="6.38392">
        <ele>739.518109</ele>
        <time>2021-09-18T12:32:03.000Z</time>
      </trkpt>
      <trkpt lat="43.96103" lon="6.38397">
        <ele>739.560025</ele>
        <time>2021-09-18T12:32:04.000Z</time>
      </trkpt>
      <trkpt lat="43.96098" lon="6.38411">
        <ele>739.634083</ele>
        <time>2021-09-18T12:32:06.000Z</time>
      </trkpt>
      <trkpt lat="43.96092" lon="6.38424">
        <ele>739.711581</ele>
        <time>2021-09-18T12:32:08.000Z</time>
      </trkpt>
      <trkpt lat="43.96077" lon="6.38448">
        <ele>739.867535</ele>
        <time>2021-09-18T12:32:13.000Z</time>
      </trkpt>
      <trkpt lat="43.96037" lon="6.3849">
        <ele>740.143493</ele>
        <time>2021-09-18T12:32:21.000Z</time>
      </trkpt>
      <trkpt lat="43.96006" lon="6.38522">
        <ele>740.311447</ele>
        <time>2021-09-18T12:32:28.000Z</time>
      </trkpt>
      <trkpt lat="43.95968" lon="6.38562">
        <ele>740.513939</ele>
        <time>2021-09-18T12:32:36.000Z</time>
      </trkpt>
      <trkpt lat="43.95929" lon="6.38603">
        <ele>740.725287</ele>
        <time>2021-09-18T12:32:44.000Z</time>
      </trkpt>
      <trkpt lat="43.95896" lon="6.38641">
        <ele>741.004863</ele>
        <time>2021-09-18T12:32:52.000Z</time>
      </trkpt>
      <trkpt lat="43.95893" lon="6.38645">
        <ele>741.045929</ele>
        <time>2021-09-18T12:32:53.000Z</time>
      </trkpt>
      <trkpt lat="43.95874" lon="6.38676">
        <ele>741.290407</ele>
        <time>2021-09-18T12:32:59.000Z</time>
      </trkpt>
      <trkpt lat="43.95871" lon="6.38682">
        <ele>741.33229</ele>
        <time>2021-09-18T12:33:00.000Z</time>
      </trkpt>
      <trkpt lat="43.95857" lon="6.38709">
        <ele>741.536732</ele>
        <time>2021-09-18T12:33:05.000Z</time>
      </trkpt>
      <trkpt lat="43.95829" lon="6.38762">
        <ele>741.937708</ele>
        <time>2021-09-18T12:33:15.000Z</time>
      </trkpt>
      <trkpt lat="43.95798" lon="6.38821">
        <ele>742.420831</ele>
        <time>2021-09-18T12:33:26.000Z</time>
      </trkpt>
      <trkpt lat="43.95773" lon="6.38869">
        <ele>743.041842</ele>
        <time>2021-09-18T12:33:35.000Z</time>
      </trkpt>
      <trkpt lat="43.95756" lon="6.38901">
        <ele>743.450493</ele>
        <time>2021-09-18T12:33:41.000Z</time>
      </trkpt>
      <trkpt lat="43.95753" lon="6.38906">
        <ele>743.51987</ele>
        <time>2021-09-18T12:33:42.000Z</time>
      </trkpt>
      <trkpt lat="43.95726" lon="6.38959">
        <ele>744.193338</ele>
        <time>2021-09-18T12:33:52.000Z</time>
      </trkpt>
      <trkpt lat="43.9571" lon="6.3899">
        <ele>744.591839</ele>
        <time>2021-09-18T12:33:58.000Z</time>
      </trkpt>
      <trkpt lat="43.95707" lon="6.38994">
        <ele>744.653602</ele>
        <time>2021-09-18T12:33:59.000Z</time>
      </trkpt>
      <trkpt lat="43.9568" lon="6.39048">
        <ele>745.402597</ele>
        <time>2021-09-18T12:34:09.000Z</time>
      </trkpt>
      <trkpt lat="43.9566" lon="6.39089">
        <ele>746.020234</ele>
        <time>2021-09-18T12:34:17.000Z</time>
      </trkpt>
      <trkpt lat="43.95637" lon="6.39143">
        <ele>746.793622</ele>
        <time>2021-09-18T12:34:27.000Z</time>
      </trkpt>
      <trkpt lat="43.9562" lon="6.39199">
        <ele>747.529782</ele>
        <time>2021-09-18T12:34:36.000Z</time>
      </trkpt>
      <trkpt lat="43.95608" lon="6.39247">
        <ele>748.13779</ele>
        <time>2021-09-18T12:34:43.000Z</time>
      </trkpt>
      <trkpt lat="43.95597" lon="6.39321">
        <ele>748.983859</ele>
        <time>2021-09-18T12:34:53.000Z</time>
      </trkpt>
      <trkpt lat="43.95591" lon="6.39358">
        <ele>749.407921</ele>
        <time>2021-09-18T12:34:58.000Z</time>
      </trkpt>
      <trkpt lat="43.95588" lon="6.3938">
        <ele>749.657266</ele>
        <time>2021-09-18T12:35:01.000Z</time>
      </trkpt>
      <trkpt lat="43.95576" lon="6.39453">
        <ele>750.495555</ele>
        <time>2021-09-18T12:35:11.000Z</time>
      </trkpt>
      <trkpt lat="43.95575" lon="6.3946">
        <ele>750.577833</ele>
        <time>2021-09-18T12:35:12.000Z</time>
      </trkpt>
      <trkpt lat="43.95564" lon="6.39535">
        <ele>751.5515</ele>
        <time>2021-09-18T12:35:23.000Z</time>
      </trkpt>
      <trkpt lat="43.95563" lon="6.39541">
        <ele>751.64262</ele>
        <time>2021-09-18T12:35:24.000Z</time>
      </trkpt>
      <trkpt lat="43.95553" lon="6.39607">
        <ele>752.532127</ele>
        <time>2021-09-18T12:35:34.000Z</time>
      </trkpt>
      <trkpt lat="43.95542" lon="6.39678">
        <ele>753.491233</ele>
        <time>2021-09-18T12:35:45.000Z</time>
      </trkpt>
      <trkpt lat="43.9553" lon="6.39741">
        <ele>754.417689</ele>
        <time>2021-09-18T12:35:55.000Z</time>
      </trkpt>
      <trkpt lat="43.95519" lon="6.39811">
        <ele>755.606537</ele>
        <time>2021-09-18T12:36:06.000Z</time>
      </trkpt>
      <trkpt lat="43.95508" lon="6.39883">
        <ele>756.837682</ele>
        <time>2021-09-18T12:36:18.000Z</time>
      </trkpt>
      <trkpt lat="43.95506" lon="6.39894">
        <ele>757.031384</ele>
        <time>2021-09-18T12:36:20.000Z</time>
      </trkpt>
      <trkpt lat="43.95505" lon="6.39906">
        <ele>757.223458</ele>
        <time>2021-09-18T12:36:22.000Z</time>
      </trkpt>
      <trkpt lat="43.95503" lon="6.39917">
        <ele>757.420421</ele>
        <time>2021-09-18T12:36:24.000Z</time>
      </trkpt>
      <trkpt lat="43.95499" lon="6.39946">
        <ele>757.910275</ele>
        <time>2021-09-18T12:36:29.000Z</time>
      </trkpt>
      <trkpt lat="43.95497" lon="6.39958">
        <ele>758.108868</ele>
        <time>2021-09-18T12:36:31.000Z</time>
      </trkpt>
      <trkpt lat="43.95487" lon="6.40022">
        <ele>759.289722</ele>
        <time>2021-09-18T12:36:42.000Z</time>
      </trkpt>
      <trkpt lat="43.9548" lon="6.40064">
        <ele>760.074498</ele>
        <time>2021-09-18T12:36:49.000Z</time>
      </trkpt>
      <trkpt lat="43.95467" lon="6.40123">
        <ele>761.18089</ele>
        <time>2021-09-18T12:36:59.000Z</time>
      </trkpt>
      <trkpt lat="43.95455" lon="6.4017">
        <ele>762.083955</ele>
        <time>2021-09-18T12:37:07.000Z</time>
      </trkpt>
      <trkpt lat="43.95439" lon="6.40215">
        <ele>762.940579</ele>
        <time>2021-09-18T12:37:15.000Z</time>
      </trkpt>
      <trkpt lat="43.95421" lon="6.40264">
        <ele>763.669582</ele>
        <time>2021-09-18T12:37:24.000Z</time>
      </trkpt>
      <trkpt lat="43.95397" lon="6.40326">
        <ele>764.590154</ele>
        <time>2021-09-18T12:37:35.000Z</time>
      </trkpt>
      <trkpt lat="43.95371" lon="6.40393">
        <ele>765.596218</ele>
        <time>2021-09-18T12:37:46.000Z</time>
      </trkpt>
      <trkpt lat="43.95366" lon="6.40405">
        <ele>765.78004</ele>
        <time>2021-09-18T12:37:48.000Z</time>
      </trkpt>
      <trkpt lat="43.95343" lon="6.40465">
        <ele>766.425768</ele>
        <time>2021-09-18T12:37:57.000Z</time>
      </trkpt>
      <trkpt lat="43.95318" lon="6.40527">
        <ele>766.960089</ele>
        <time>2021-09-18T12:38:06.000Z</time>
      </trkpt>
      <trkpt lat="43.95291" lon="6.40597">
        <ele>767.55773</ele>
        <time>2021-09-18T12:38:16.000Z</time>
      </trkpt>
      <trkpt lat="43.95288" lon="6.40604">
        <ele>767.617412</ele>
        <time>2021-09-18T12:38:17.000Z</time>
      </trkpt>
      <trkpt lat="43.95262" lon="6.40672">
        <ele>768.24211</ele>
        <time>2021-09-18T12:38:27.000Z</time>
      </trkpt>
      <trkpt lat="43.95259" lon="6.40679">
        <ele>768.30988</ele>
        <time>2021-09-18T12:38:28.000Z</time>
      </trkpt>
      <trkpt lat="43.95234" lon="6.40744">
        <ele>768.980865</ele>
        <time>2021-09-18T12:38:38.000Z</time>
      </trkpt>
      <trkpt lat="43.95213" lon="6.40811">
        <ele>769.635785</ele>
        <time>2021-09-18T12:38:48.000Z</time>
      </trkpt>
      <trkpt lat="43.952" lon="6.40858">
        <ele>770.087118</ele>
        <time>2021-09-18T12:38:55.000Z</time>
      </trkpt>
      <trkpt lat="43.95195" lon="6.40877">
        <ele>770.291397</ele>
        <time>2021-09-18T12:38:58.000Z</time>
      </trkpt>
      <trkpt lat="43.95191" lon="6.40897">
        <ele>770.5338</ele>
        <time>2021-09-18T12:39:01.000Z</time>
      </trkpt>
      <trkpt lat="43.95175" lon="6.40969">
        <ele>771.404517</ele>
        <time>2021-09-18T12:39:12.000Z</time>
      </trkpt>
      <trkpt lat="43.95173" lon="6.40983">
        <ele>771.564264</ele>
        <time>2021-09-18T12:39:14.000Z</time>
      </trkpt>
      <trkpt lat="43.95162" lon="6.41035">
        <ele>772.190363</ele>
        <time>2021-09-18T12:39:22.000Z</time>
      </trkpt>
      <trkpt lat="43.95149" lon="6.41098">
        <ele>772.94777</ele>
        <time>2021-09-18T12:39:32.000Z</time>
      </trkpt>
      <trkpt lat="43.9514" lon="6.41153">
        <ele>773.740577</ele>
        <time>2021-09-18T12:39:41.000Z</time>
      </trkpt>
      <trkpt lat="43.95139" lon="6.41204">
        <ele>774.485621</ele>
        <time>2021-09-18T12:39:49.000Z</time>
      </trkpt>
      <trkpt lat="43.95139" lon="6.41222">
        <ele>774.753231</ele>
        <time>2021-09-18T12:39:52.000Z</time>
      </trkpt>
      <trkpt lat="43.9514" lon="6.41234">
        <ele>774.924604</ele>
        <time>2021-09-18T12:39:54.000Z</time>
      </trkpt>
      <trkpt lat="43.95145" lon="6.41291">
        <ele>775.76878</ele>
        <time>2021-09-18T12:40:03.000Z</time>
      </trkpt>
      <trkpt lat="43.9515" lon="6.41352">
        <ele>776.673255</ele>
        <time>2021-09-18T12:40:13.000Z</time>
      </trkpt>
      <trkpt lat="43.95154" lon="6.41407">
        <ele>777.66393</ele>
        <time>2021-09-18T12:40:22.000Z</time>
      </trkpt>
      <trkpt lat="43.95155" lon="6.4147">
        <ele>778.805324</ele>
        <time>2021-09-18T12:40:32.000Z</time>
      </trkpt>
      <trkpt lat="43.95152" lon="6.4151">
        <ele>779.532968</ele>
        <time>2021-09-18T12:40:39.000Z</time>
      </trkpt>
      <trkpt lat="43.95143" lon="6.41555">
        <ele>780.378232</ele>
        <time>2021-09-18T12:40:48.000Z</time>
      </trkpt>
      <trkpt lat="43.9514" lon="6.41601">
        <ele>781.222001</ele>
        <time>2021-09-18T12:40:57.000Z</time>
      </trkpt>
      <trkpt lat="43.95141" lon="6.41644">
        <ele>781.937856</ele>
        <time>2021-09-18T12:41:05.000Z</time>
      </trkpt>
      <trkpt lat="43.95149" lon="6.41678">
        <ele>782.513811</ele>
        <time>2021-09-18T12:41:11.000Z</time>
      </trkpt>
      <trkpt lat="43.95151" lon="6.41683">
        <ele>782.612388</ele>
        <time>2021-09-18T12:41:12.000Z</time>
      </trkpt>
      <trkpt lat="43.95163" lon="6.41709">
        <ele>783.111524</ele>
        <time>2021-09-18T12:41:17.000Z</time>
      </trkpt>
      <trkpt lat="43.95171" lon="6.41724">
        <ele>783.41322</ele>
        <time>2021-09-18T12:41:20.000Z</time>
      </trkpt>
      <trkpt lat="43.95191" lon="6.41767">
        <ele>784.238969</ele>
        <time>2021-09-18T12:41:28.000Z</time>
      </trkpt>
      <trkpt lat="43.95217" lon="6.41821">
        <ele>785.300331</ele>
        <time>2021-09-18T12:41:38.000Z</time>
      </trkpt>
      <trkpt lat="43.95239" lon="6.41867">
        <ele>785.938401</ele>
        <time>2021-09-18T12:41:46.000Z</time>
      </trkpt>
      <trkpt lat="43.9526" lon="6.41919">
        <ele>786.594561</ele>
        <time>2021-09-18T12:41:54.000Z</time>
      </trkpt>
      <trkpt lat="43.95273" lon="6.41969">
        <ele>787.170923</ele>
        <time>2021-09-18T12:42:01.000Z</time>
      </trkpt>
      <trkpt lat="43.95282" lon="6.42032">
        <ele>787.882716</ele>
        <time>2021-09-18T12:42:10.000Z</time>
      </trkpt>
      <trkpt lat="43.95292" lon="6.42098">
        <ele>788.717148</ele>
        <time>2021-09-18T12:42:20.000Z</time>
      </trkpt>
      <trkpt lat="43.95301" lon="6.42159">
        <ele>789.553839</ele>
        <time>2021-09-18T12:42:30.000Z</time>
      </trkpt>
      <trkpt lat="43.9532" lon="6.42225">
        <ele>790.485324</ele>
        <time>2021-09-18T12:42:41.000Z</time>
      </trkpt>
      <trkpt lat="43.95341" lon="6.42273">
        <ele>791.23736</ele>
        <time>2021-09-18T12:42:50.000Z</time>
      </trkpt>
      <trkpt lat="43.95365" lon="6.42317">
        <ele>791.970131</ele>
        <time>2021-09-18T12:42:59.000Z</time>
      </trkpt>
      <trkpt lat="43.95399" lon="6.42363">
        <ele>792.833594</ele>
        <time>2021-09-18T12:43:09.000Z</time>
      </trkpt>
      <trkpt lat="43.95439" lon="6.42418">
        <ele>793.880761</ele>
        <time>2021-09-18T12:43:21.000Z</time>
      </trkpt>
      <trkpt lat="43.95449" lon="6.42432">
        <ele>794.143583</ele>
        <time>2021-09-18T12:43:24.000Z</time>
      </trkpt>
      <trkpt lat="43.9549" lon="6.42488">
        <ele>795.303799</ele>
        <time>2021-09-18T12:43:36.000Z</time>
      </trkpt>
      <trkpt lat="43.95529" lon="6.42545">
        <ele>796.58225</ele>
        <time>2021-09-18T12:43:48.000Z</time>
      </trkpt>
      <trkpt lat="43.95551" lon="6.42594">
        <ele>797.534019</ele>
        <time>2021-09-18T12:43:57.000Z</time>
      </trkpt>
      <trkpt lat="43.95566" lon="6.42646">
        <ele>798.444468</ele>
        <time>2021-09-18T12:44:06.000Z</time>
      </trkpt>
      <trkpt lat="43.95582" lon="6.42707">
        <ele>799.753212</ele>
        <time>2021-09-18T12:44:17.000Z</time>
      </trkpt>
      <trkpt lat="43.95594" lon="6.42746">
        <ele>800.710202</ele>
        <time>2021-09-18T12:44:25.000Z</time>
      </trkpt>
      <trkpt lat="43.95616" lon="6.42799">
        <ele>802.101811</ele>
        <time>2021-09-18T12:44:36.000Z</time>
      </trkpt>
      <trkpt lat="43.95637" lon="6.42831">
        <ele>803.070836</ele>
        <time>2021-09-18T12:44:44.000Z</time>
      </trkpt>
      <trkpt lat="43.95665" lon="6.42867">
        <ele>804.280152</ele>
        <time>2021-09-18T12:44:54.000Z</time>
      </trkpt>
      <trkpt lat="43.95702" lon="6.429">
        <ele>805.511007</ele>
        <time>2021-09-18T12:45:05.000Z</time>
      </trkpt>
      <trkpt lat="43.95735" lon="6.4293">
        <ele>806.60924</ele>
        <time>2021-09-18T12:45:15.000Z</time>
      </trkpt>
      <trkpt lat="43.95768" lon="6.4296">
        <ele>807.687403</ele>
        <time>2021-09-18T12:45:25.000Z</time>
      </trkpt>
      <trkpt lat="43.95799" lon="6.42987">
        <ele>808.688229</ele>
        <time>2021-09-18T12:45:34.000Z</time>
      </trkpt>
      <trkpt lat="43.95831" lon="6.43016">
        <ele>809.690926</ele>
        <time>2021-09-18T12:45:44.000Z</time>
      </trkpt>
      <trkpt lat="43.95864" lon="6.43052">
        <ele>810.61143</ele>
        <time>2021-09-18T12:45:54.000Z</time>
      </trkpt>
      <trkpt lat="43.95888" lon="6.43086">
        <ele>811.364831</ele>
        <time>2021-09-18T12:46:02.000Z</time>
      </trkpt>
      <trkpt lat="43.95907" lon="6.4313">
        <ele>812.162456</ele>
        <time>2021-09-18T12:46:10.000Z</time>
      </trkpt>
      <trkpt lat="43.95923" lon="6.43177">
        <ele>812.986621</ele>
        <time>2021-09-18T12:46:18.000Z</time>
      </trkpt>
      <trkpt lat="43.95942" lon="6.43243">
        <ele>813.982415</ele>
        <time>2021-09-18T12:46:28.000Z</time>
      </trkpt>
      <trkpt lat="43.95954" lon="6.43275">
        <ele>814.433687</ele>
        <time>2021-09-18T12:46:33.000Z</time>
      </trkpt>
      <trkpt lat="43.95957" lon="6.4328">
        <ele>814.519933</ele>
        <time>2021-09-18T12:46:34.000Z</time>
      </trkpt>
      <trkpt lat="43.95964" lon="6.4329">
        <ele>814.703387</ele>
        <time>2021-09-18T12:46:36.000Z</time>
      </trkpt>
      <trkpt lat="43.95975" lon="6.43304">
        <ele>814.981083</ele>
        <time>2021-09-18T12:46:39.000Z</time>
      </trkpt>
      <trkpt lat="43.96021" lon="6.4334">
        <ele>815.917138</ele>
        <time>2021-09-18T12:46:49.000Z</time>
      </trkpt>
      <trkpt lat="43.96043" lon="6.43357">
        <ele>816.367435</ele>
        <time>2021-09-18T12:46:54.000Z</time>
      </trkpt>
      <trkpt lat="43.96051" lon="6.43363">
        <ele>816.545984</ele>
        <time>2021-09-18T12:46:56.000Z</time>
      </trkpt>
      <trkpt lat="43.96056" lon="6.43367">
        <ele>816.64096</ele>
        <time>2021-09-18T12:46:57.000Z</time>
      </trkpt>
      <trkpt lat="43.96072" lon="6.43379">
        <ele>817.05806</ele>
        <time>2021-09-18T12:47:01.000Z</time>
      </trkpt>
      <trkpt lat="43.96081" lon="6.43386">
        <ele>817.272367</ele>
        <time>2021-09-18T12:47:03.000Z</time>
      </trkpt>
      <trkpt lat="43.96096" lon="6.43405">
        <ele>817.713862</ele>
        <time>2021-09-18T12:47:07.000Z</time>
      </trkpt>
      <trkpt lat="43.96102" lon="6.43415">
        <ele>817.920408</ele>
        <time>2021-09-18T12:47:09.000Z</time>
      </trkpt>
      <trkpt lat="43.96122" lon="6.43457">
        <ele>818.722989</ele>
        <time>2021-09-18T12:47:17.000Z</time>
      </trkpt>
      <trkpt lat="43.96136" lon="6.43491">
        <ele>819.335536</ele>
        <time>2021-09-18T12:47:23.000Z</time>
      </trkpt>
      <trkpt lat="43.96155" lon="6.43529">
        <ele>820.06851</ele>
        <time>2021-09-18T12:47:30.000Z</time>
      </trkpt>
      <trkpt lat="43.96166" lon="6.43551">
        <ele>820.491381</ele>
        <time>2021-09-18T12:47:34.000Z</time>
      </trkpt>
      <trkpt lat="43.96171" lon="6.43562">
        <ele>820.727458</ele>
        <time>2021-09-18T12:47:36.000Z</time>
      </trkpt>
      <trkpt lat="43.96176" lon="6.43574">
        <ele>820.983512</ele>
        <time>2021-09-18T12:47:38.000Z</time>
      </trkpt>
      <trkpt lat="43.96184" lon="6.43604">
        <ele>821.571823</ele>
        <time>2021-09-18T12:47:43.000Z</time>
      </trkpt>
      <trkpt lat="43.96188" lon="6.43642">
        <ele>822.27099</ele>
        <time>2021-09-18T12:47:50.000Z</time>
      </trkpt>
      <trkpt lat="43.96192" lon="6.43682">
        <ele>823.016606</ele>
        <time>2021-09-18T12:47:59.000Z</time>
      </trkpt>
      <trkpt lat="43.96195" lon="6.43723">
        <ele>823.789261</ele>
        <time>2021-09-18T12:48:08.000Z</time>
      </trkpt>
      <trkpt lat="43.96195" lon="6.43775">
        <ele>824.737356</ele>
        <time>2021-09-18T12:48:17.000Z</time>
      </trkpt>
      <trkpt lat="43.96188" lon="6.43793">
        <ele>825.124135</ele>
        <time>2021-09-18T12:48:20.000Z</time>
      </trkpt>
      <trkpt lat="43.96184" lon="6.43797">
        <ele>825.224719</ele>
        <time>2021-09-18T12:48:21.000Z</time>
      </trkpt>
      <trkpt lat="43.96177" lon="6.43806">
        <ele>825.40301</ele>
        <time>2021-09-18T12:48:23.000Z</time>
      </trkpt>
      <trkpt lat="43.96172" lon="6.43824">
        <ele>825.676419</ele>
        <time>2021-09-18T12:48:26.000Z</time>
      </trkpt>
      <trkpt lat="43.96162" lon="6.43883">
        <ele>826.523997</ele>
        <time>2021-09-18T12:48:35.000Z</time>
      </trkpt>
      <trkpt lat="43.96153" lon="6.43944">
        <ele>827.387813</ele>
        <time>2021-09-18T12:48:44.000Z</time>
      </trkpt>
      <trkpt lat="43.96141" lon="6.44004">
        <ele>828.251545</ele>
        <time>2021-09-18T12:48:53.000Z</time>
      </trkpt>
      <trkpt lat="43.96124" lon="6.44082">
        <ele>829.362377</ele>
        <time>2021-09-18T12:49:05.000Z</time>
      </trkpt>
      <trkpt lat="43.96115" lon="6.44137">
        <ele>830.108517</ele>
        <time>2021-09-18T12:49:13.000Z</time>
      </trkpt>
      <trkpt lat="43.96117" lon="6.44179">
        <ele>830.678351</ele>
        <time>2021-09-18T12:49:19.000Z</time>
      </trkpt>
      <trkpt lat="43.96135" lon="6.44229">
        <ele>831.424009</ele>
        <time>2021-09-18T12:49:27.000Z</time>
      </trkpt>
      <trkpt lat="43.96156" lon="6.44284">
        <ele>832.349456</ele>
        <time>2021-09-18T12:49:36.000Z</time>
      </trkpt>
      <trkpt lat="43.96175" lon="6.44338">
        <ele>833.426486</ele>
        <time>2021-09-18T12:49:45.000Z</time>
      </trkpt>
      <trkpt lat="43.96191" lon="6.44381">
        <ele>834.294262</ele>
        <time>2021-09-18T12:49:53.000Z</time>
      </trkpt>
      <trkpt lat="43.96193" lon="6.44386">
        <ele>834.391853</ele>
        <time>2021-09-18T12:49:54.000Z</time>
      </trkpt>
      <trkpt lat="43.96208" lon="6.4442">
        <ele>835.128706</ele>
        <time>2021-09-18T12:50:02.000Z</time>
      </trkpt>
      <trkpt lat="43.96228" lon="6.44448">
        <ele>835.827565</ele>
        <time>2021-09-18T12:50:10.000Z</time>
      </trkpt>
      <trkpt lat="43.96234" lon="6.44462">
        <ele>836.126399</ele>
        <time>2021-09-18T12:50:13.000Z</time>
      </trkpt>
      <trkpt lat="43.96239" lon="6.44479">
        <ele>836.453519</ele>
        <time>2021-09-18T12:50:16.000Z</time>
      </trkpt>
      <trkpt lat="43.96247" lon="6.44528">
        <ele>837.594004</ele>
        <time>2021-09-18T12:50:24.000Z</time>
      </trkpt>
      <trkpt lat="43.96252" lon="6.44574">
        <ele>838.64306</ele>
        <time>2021-09-18T12:50:32.000Z</time>
      </trkpt>
      <trkpt lat="43.96262" lon="6.44606">
        <ele>839.42972</ele>
        <time>2021-09-18T12:50:39.000Z</time>
      </trkpt>
      <trkpt lat="43.9628" lon="6.4463">
        <ele>840.223359</ele>
        <time>2021-09-18T12:50:46.000Z</time>
      </trkpt>
      <trkpt lat="43.96311" lon="6.44668">
        <ele>841.527803</ele>
        <time>2021-09-18T12:50:56.000Z</time>
      </trkpt>
      <trkpt lat="43.96341" lon="6.44704">
        <ele>842.781807</ele>
        <time>2021-09-18T12:51:05.000Z</time>
      </trkpt>
      <trkpt lat="43.9637" lon="6.4474">
        <ele>844.015349</ele>
        <time>2021-09-18T12:51:14.000Z</time>
      </trkpt>
      <trkpt lat="43.96397" lon="6.44778">
        <ele>845.260771</ele>
        <time>2021-09-18T12:51:23.000Z</time>
      </trkpt>
      <trkpt lat="43.96427" lon="6.44822">
        <ele>846.674348</ele>
        <time>2021-09-18T12:51:34.000Z</time>
      </trkpt>
      <trkpt lat="43.96444" lon="6.44845">
        <ele>847.422362</ele>
        <time>2021-09-18T12:51:40.000Z</time>
      </trkpt>
      <trkpt lat="43.96448" lon="6.44848">
        <ele>847.565875</ele>
        <time>2021-09-18T12:51:41.000Z</time>
      </trkpt>
      <trkpt lat="43.96452" lon="6.44852">
        <ele>847.710786</ele>
        <time>2021-09-18T12:51:42.000Z</time>
      </trkpt>
      <trkpt lat="43.9646" lon="6.44859">
        <ele>847.98631</ele>
        <time>2021-09-18T12:51:44.000Z</time>
      </trkpt>
      <trkpt lat="43.96467" lon="6.44866">
        <ele>848.164027</ele>
        <time>2021-09-18T12:51:46.000Z</time>
      </trkpt>
      <trkpt lat="43.96495" lon="6.44894">
        <ele>848.871579</ele>
        <time>2021-09-18T12:51:55.000Z</time>
      </trkpt>
      <trkpt lat="43.96517" lon="6.44927">
        <ele>849.549677</ele>
        <time>2021-09-18T12:52:03.000Z</time>
      </trkpt>
      <trkpt lat="43.96526" lon="6.44959">
        <ele>850.073805</ele>
        <time>2021-09-18T12:52:09.000Z</time>
      </trkpt>
      <trkpt lat="43.96529" lon="6.45008">
        <ele>850.809793</ele>
        <time>2021-09-18T12:52:17.000Z</time>
      </trkpt>
      <trkpt lat="43.96522" lon="6.45052">
        <ele>851.485756</ele>
        <time>2021-09-18T12:52:24.000Z</time>
      </trkpt>
      <trkpt lat="43.96518" lon="6.45064">
        <ele>851.67621</ele>
        <time>2021-09-18T12:52:26.000Z</time>
      </trkpt>
      <trkpt lat="43.96509" lon="6.4508">
        <ele>851.88279</ele>
        <time>2021-09-18T12:52:29.000Z</time>
      </trkpt>
      <trkpt lat="43.96506" lon="6.45085">
        <ele>851.951536</ele>
        <time>2021-09-18T12:52:30.000Z</time>
      </trkpt>
      <trkpt lat="43.9649" lon="6.45101">
        <ele>852.229643</ele>
        <time>2021-09-18T12:52:34.000Z</time>
      </trkpt>
      <trkpt lat="43.96462" lon="6.45126">
        <ele>852.700453</ele>
        <time>2021-09-18T12:52:41.000Z</time>
      </trkpt>
      <trkpt lat="43.96458" lon="6.45131">
        <ele>852.768986</ele>
        <time>2021-09-18T12:52:42.000Z</time>
      </trkpt>
      <trkpt lat="43.9645" lon="6.45147">
        <ele>852.967312</ele>
        <time>2021-09-18T12:52:45.000Z</time>
      </trkpt>
      <trkpt lat="43.96448" lon="6.45152">
        <ele>853.027955</ele>
        <time>2021-09-18T12:52:46.000Z</time>
      </trkpt>
      <trkpt lat="43.96445" lon="6.45164">
        <ele>853.154299</ele>
        <time>2021-09-18T12:52:48.000Z</time>
      </trkpt>
      <trkpt lat="43.9644" lon="6.45183">
        <ele>853.358828</ele>
        <time>2021-09-18T12:52:51.000Z</time>
      </trkpt>
      <trkpt lat="43.96418" lon="6.45242">
        <ele>854.035796</ele>
        <time>2021-09-18T12:53:01.000Z</time>
      </trkpt>
      <trkpt lat="43.96403" lon="6.4527">
        <ele>854.389284</ele>
        <time>2021-09-18T12:53:07.000Z</time>
      </trkpt>
      <trkpt lat="43.96389" lon="6.45294">
        <ele>854.695474</ele>
        <time>2021-09-18T12:53:13.000Z</time>
      </trkpt>
      <trkpt lat="43.9638" lon="6.4531">
        <ele>854.893623</ele>
        <time>2021-09-18T12:53:18.000Z</time>
      </trkpt>
      <trkpt lat="43.96369" lon="6.45333">
        <ele>855.17382</ele>
        <time>2021-09-18T12:53:24.000Z</time>
      </trkpt>
      <trkpt lat="43.96357" lon="6.45359">
        <ele>855.481108</ele>
        <time>2021-09-18T12:53:30.000Z</time>
      </trkpt>
      <trkpt lat="43.9634" lon="6.45397">
        <ele>855.922524</ele>
        <time>2021-09-18T12:53:38.000Z</time>
      </trkpt>
      <trkpt lat="43.96322" lon="6.4544">
        <ele>856.420687</ele>
        <time>2021-09-18T12:53:47.000Z</time>
      </trkpt>
      <trkpt lat="43.96306" lon="6.45479">
        <ele>856.987498</ele>
        <time>2021-09-18T12:53:55.000Z</time>
      </trkpt>
      <trkpt lat="43.96296" lon="6.45515">
        <ele>857.602546</ele>
        <time>2021-09-18T12:54:02.000Z</time>
      </trkpt>
      <trkpt lat="43.96288" lon="6.45553">
        <ele>858.229457</ele>
        <time>2021-09-18T12:54:09.000Z</time>
      </trkpt>
      <trkpt lat="43.9628" lon="6.45592">
        <ele>858.872248</ele>
        <time>2021-09-18T12:54:16.000Z</time>
      </trkpt>
      <trkpt lat="43.96274" lon="6.45619">
        <ele>859.311972</ele>
        <time>2021-09-18T12:54:21.000Z</time>
      </trkpt>
      <trkpt lat="43.96273" lon="6.45624">
        <ele>859.404806</ele>
        <time>2021-09-18T12:54:22.000Z</time>
      </trkpt>
      <trkpt lat="43.96263" lon="6.45675">
        <ele>860.238735</ele>
        <time>2021-09-18T12:54:31.000Z</time>
      </trkpt>
      <trkpt lat="43.96256" lon="6.45721">
        <ele>861.085578</ele>
        <time>2021-09-18T12:54:39.000Z</time>
      </trkpt>
      <trkpt lat="43.96247" lon="6.4576">
        <ele>861.944828</ele>
        <time>2021-09-18T12:54:46.000Z</time>
      </trkpt>
      <trkpt lat="43.96237" lon="6.45805">
        <ele>862.917111</ele>
        <time>2021-09-18T12:54:54.000Z</time>
      </trkpt>
      <trkpt lat="43.96231" lon="6.45833">
        <ele>863.522887</ele>
        <time>2021-09-18T12:54:59.000Z</time>
      </trkpt>
      <trkpt lat="43.96229" lon="6.45845">
        <ele>863.774995</ele>
        <time>2021-09-18T12:55:01.000Z</time>
      </trkpt>
      <trkpt lat="43.96222" lon="6.45892">
        <ele>864.775377</ele>
        <time>2021-09-18T12:55:09.000Z</time>
      </trkpt>
      <trkpt lat="43.96228" lon="6.45929">
        <ele>865.544096</ele>
        <time>2021-09-18T12:55:16.000Z</time>
      </trkpt>
      <trkpt lat="43.96234" lon="6.45966">
        <ele>866.297773</ele>
        <time>2021-09-18T12:55:23.000Z</time>
      </trkpt>
      <trkpt lat="43.96237" lon="6.46005">
        <ele>867.031267</ele>
        <time>2021-09-18T12:55:30.000Z</time>
      </trkpt>
      <trkpt lat="43.96237" lon="6.46045">
        <ele>867.774259</ele>
        <time>2021-09-18T12:55:37.000Z</time>
      </trkpt>
      <trkpt lat="43.96232" lon="6.46087">
        <ele>868.577794</ele>
        <time>2021-09-18T12:55:44.000Z</time>
      </trkpt>
      <trkpt lat="43.96223" lon="6.46134">
        <ele>869.479836</ele>
        <time>2021-09-18T12:55:52.000Z</time>
      </trkpt>
      <trkpt lat="43.96213" lon="6.4618">
        <ele>870.380165</ele>
        <time>2021-09-18T12:56:00.000Z</time>
      </trkpt>
      <trkpt lat="43.96201" lon="6.46231">
        <ele>871.452752</ele>
        <time>2021-09-18T12:56:09.000Z</time>
      </trkpt>
      <trkpt lat="43.96192" lon="6.46272">
        <ele>872.313261</ele>
        <time>2021-09-18T12:56:17.000Z</time>
      </trkpt>
      <trkpt lat="43.96192" lon="6.46309">
        <ele>873.045746</ele>
        <time>2021-09-18T12:56:24.000Z</time>
      </trkpt>
      <trkpt lat="43.96194" lon="6.46344">
        <ele>873.746116</ele>
        <time>2021-09-18T12:56:32.000Z</time>
      </trkpt>
      <trkpt lat="43.96196" lon="6.46375">
        <ele>874.384246</ele>
        <time>2021-09-18T12:56:40.000Z</time>
      </trkpt>
      <trkpt lat="43.96194" lon="6.46409">
        <ele>875.057654</ele>
        <time>2021-09-18T12:56:49.000Z</time>
      </trkpt>
      <trkpt lat="43.96186" lon="6.46437">
        <ele>875.739259</ele>
        <time>2021-09-18T12:56:57.000Z</time>
      </trkpt>
      <trkpt lat="43.96172" lon="6.4646">
        <ele>876.722399</ele>
        <time>2021-09-18T12:57:05.000Z</time>
      </trkpt>
      <trkpt lat="43.96157" lon="6.46481">
        <ele>877.691202</ele>
        <time>2021-09-18T12:57:13.000Z</time>
      </trkpt>
      <trkpt lat="43.96146" lon="6.46501">
        <ele>878.492999</ele>
        <time>2021-09-18T12:57:20.000Z</time>
      </trkpt>
      <trkpt lat="43.96142" lon="6.46523">
        <ele>879.248562</ele>
        <time>2021-09-18T12:57:27.000Z</time>
      </trkpt>
      <trkpt lat="43.96148" lon="6.4655">
        <ele>880.155211</ele>
        <time>2021-09-18T12:57:34.000Z</time>
      </trkpt>
      <trkpt lat="43.96161" lon="6.46563">
        <ele>880.900225</ele>
        <time>2021-09-18T12:57:39.000Z</time>
      </trkpt>
      <trkpt lat="43.96172" lon="6.46579">
        <ele>881.586461</ele>
        <time>2021-09-18T12:57:44.000Z</time>
      </trkpt>
      <trkpt lat="43.96182" lon="6.46608">
        <ele>882.61352</ele>
        <time>2021-09-18T12:57:54.000Z</time>
      </trkpt>
      <trkpt lat="43.96184" lon="6.46635">
        <ele>883.51535</ele>
        <time>2021-09-18T12:58:03.000Z</time>
      </trkpt>
      <trkpt lat="43.96183" lon="6.46661">
        <ele>884.53845</ele>
        <time>2021-09-18T12:58:11.000Z</time>
      </trkpt>
      <trkpt lat="43.96181" lon="6.46673">
        <ele>885.018251</ele>
        <time>2021-09-18T12:58:17.000Z</time>
      </trkpt>
      <trkpt lat="43.96181" lon="6.46676">
        <ele>885.119874</ele>
        <time>2021-09-18T12:58:22.000Z</time>
      </trkpt>
      <trkpt lat="43.96179" lon="6.46685">
        <ele>885.513557</ele>
        <time>2021-09-18T12:59:20.000Z</time>
      </trkpt>
      <trkpt lat="43.96179" lon="6.46688">
        <ele>885.611309</ele>
        <time>2021-09-18T12:59:21.000Z</time>
      </trkpt>
      <trkpt lat="43.96175" lon="6.46709">
        <ele>886.480912</ele>
        <time>2021-09-18T12:59:28.000Z</time>
      </trkpt>
      <trkpt lat="43.96172" lon="6.4673">
        <ele>887.314456</ele>
        <time>2021-09-18T12:59:35.000Z</time>
      </trkpt>
      <trkpt lat="43.96168" lon="6.46754">
        <ele>888.321745</ele>
        <time>2021-09-18T12:59:42.000Z</time>
      </trkpt>
      <trkpt lat="43.96165" lon="6.46778">
        <ele>889.26466</ele>
        <time>2021-09-18T12:59:49.000Z</time>
      </trkpt>
      <trkpt lat="43.9616" lon="6.46812">
        <ele>890.672786</ele>
        <time>2021-09-18T12:59:59.000Z</time>
      </trkpt>
      <trkpt lat="43.96153" lon="6.46841">
        <ele>891.856425</ele>
        <time>2021-09-18T13:00:07.000Z</time>
      </trkpt>
      <trkpt lat="43.96148" lon="6.46874">
        <ele>893.188944</ele>
        <time>2021-09-18T13:00:16.000Z</time>
      </trkpt>
      <trkpt lat="43.96143" lon="6.46908">
        <ele>894.177674</ele>
        <time>2021-09-18T13:00:24.000Z</time>
      </trkpt>
      <trkpt lat="43.96135" lon="6.46953">
        <ele>895.335826</ele>
        <time>2021-09-18T13:00:34.000Z</time>
      </trkpt>
      <trkpt lat="43.96125" lon="6.46992">
        <ele>896.368378</ele>
        <time>2021-09-18T13:00:43.000Z</time>
      </trkpt>
      <trkpt lat="43.96117" lon="6.47025">
        <ele>897.247565</ele>
        <time>2021-09-18T13:00:51.000Z</time>
      </trkpt>
      <trkpt lat="43.96108" lon="6.47058">
        <ele>898.124405</ele>
        <time>2021-09-18T13:00:59.000Z</time>
      </trkpt>
      <trkpt lat="43.96097" lon="6.47097">
        <ele>899.173821</ele>
        <time>2021-09-18T13:01:09.000Z</time>
      </trkpt>
      <trkpt lat="43.96091" lon="6.47119">
        <ele>899.780076</ele>
        <time>2021-09-18T13:01:15.000Z</time>
      </trkpt>
      <trkpt lat="43.96081" lon="6.47147">
        <ele>900.727378</ele>
        <time>2021-09-18T13:01:23.000Z</time>
      </trkpt>
      <trkpt lat="43.96073" lon="6.47171">
        <ele>901.538925</ele>
        <time>2021-09-18T13:01:30.000Z</time>
      </trkpt>
      <trkpt lat="43.96066" lon="6.47204">
        <ele>902.599979</ele>
        <time>2021-09-18T13:01:38.000Z</time>
      </trkpt>
      <trkpt lat="43.96061" lon="6.4723">
        <ele>903.438647</ele>
        <time>2021-09-18T13:01:45.000Z</time>
      </trkpt>
      <trkpt lat="43.96057" lon="6.4726">
        <ele>904.401287</ele>
        <time>2021-09-18T13:01:53.000Z</time>
      </trkpt>
      <trkpt lat="43.96056" lon="6.47288">
        <ele>905.269935</ele>
        <time>2021-09-18T13:02:00.000Z</time>
      </trkpt>
      <trkpt lat="43.96054" lon="6.47325">
        <ele>906.396517</ele>
        <time>2021-09-18T13:02:09.000Z</time>
      </trkpt>
      <trkpt lat="43.96051" lon="6.47357">
        <ele>907.391067</ele>
        <time>2021-09-18T13:02:17.000Z</time>
      </trkpt>
      <trkpt lat="43.96049" lon="6.47389">
        <ele>908.557557</ele>
        <time>2021-09-18T13:02:25.000Z</time>
      </trkpt>
      <trkpt lat="43.96048" lon="6.47412">
        <ele>909.38641</ele>
        <time>2021-09-18T13:02:31.000Z</time>
      </trkpt>
      <trkpt lat="43.96048" lon="6.47446">
        <ele>910.608681</ele>
        <time>2021-09-18T13:02:40.000Z</time>
      </trkpt>
      <trkpt lat="43.96048" lon="6.47474">
        <ele>911.617597</ele>
        <time>2021-09-18T13:02:48.000Z</time>
      </trkpt>
      <trkpt lat="43.96051" lon="6.47506">
        <ele>912.791326</ele>
        <time>2021-09-18T13:02:57.000Z</time>
      </trkpt>
      <trkpt lat="43.96056" lon="6.47546">
        <ele>914.262101</ele>
        <time>2021-09-18T13:03:08.000Z</time>
      </trkpt>
      <trkpt lat="43.96063" lon="6.47585">
        <ele>915.720585</ele>
        <time>2021-09-18T13:03:19.000Z</time>
      </trkpt>
      <trkpt lat="43.96068" lon="6.47617">
        <ele>916.935032</ele>
        <time>2021-09-18T13:03:28.000Z</time>
      </trkpt>
      <trkpt lat="43.96071" lon="6.47649">
        <ele>918.279801</ele>
        <time>2021-09-18T13:03:37.000Z</time>
      </trkpt>
      <trkpt lat="43.96073" lon="6.47681">
        <ele>919.607542</ele>
        <time>2021-09-18T13:03:46.000Z</time>
      </trkpt>
      <trkpt lat="43.96074" lon="6.47717">
        <ele>921.085179</ele>
        <time>2021-09-18T13:03:56.000Z</time>
      </trkpt>
      <trkpt lat="43.96072" lon="6.47753">
        <ele>922.57677</ele>
        <time>2021-09-18T13:04:06.000Z</time>
      </trkpt>
      <trkpt lat="43.9607" lon="6.47782">
        <ele>923.804931</ele>
        <time>2021-09-18T13:04:14.000Z</time>
      </trkpt>
      <trkpt lat="43.96066" lon="6.47812">
        <ele>925.0595</ele>
        <time>2021-09-18T13:04:23.000Z</time>
      </trkpt>
      <trkpt lat="43.96062" lon="6.47839">
        <ele>926.1914</ele>
        <time>2021-09-18T13:04:31.000Z</time>
      </trkpt>
      <trkpt lat="43.96057" lon="6.47872">
        <ele>927.612927</ele>
        <time>2021-09-18T13:04:41.000Z</time>
      </trkpt>
      <trkpt lat="43.96051" lon="6.47906">
        <ele>929.103338</ele>
        <time>2021-09-18T13:04:51.000Z</time>
      </trkpt>
      <trkpt lat="43.96045" lon="6.47942">
        <ele>930.744239</ele>
        <time>2021-09-18T13:05:02.000Z</time>
      </trkpt>
      <trkpt lat="43.9604" lon="6.47972">
        <ele>932.077277</ele>
        <time>2021-09-18T13:05:11.000Z</time>
      </trkpt>
      <trkpt lat="43.96035" lon="6.48006">
        <ele>933.555007</ele>
        <time>2021-09-18T13:05:21.000Z</time>
      </trkpt>
      <trkpt lat="43.96029" lon="6.48042">
        <ele>935.191682</ele>
        <time>2021-09-18T13:05:32.000Z</time>
      </trkpt>
      <trkpt lat="43.96025" lon="6.48069">
        <ele>936.369992</ele>
        <time>2021-09-18T13:05:40.000Z</time>
      </trkpt>
      <trkpt lat="43.96021" lon="6.48092">
        <ele>937.385132</ele>
        <time>2021-09-18T13:05:47.000Z</time>
      </trkpt>
      <trkpt lat="43.96018" lon="6.48111">
        <ele>938.202696</ele>
        <time>2021-09-18T13:05:53.000Z</time>
      </trkpt>
      <trkpt lat="43.96012" lon="6.48143">
        <ele>939.483963</ele>
        <time>2021-09-18T13:06:02.000Z</time>
      </trkpt>
      <trkpt lat="43.96008" lon="6.48172">
        <ele>940.617873</ele>
        <time>2021-09-18T13:06:10.000Z</time>
      </trkpt>
      <trkpt lat="43.96003" lon="6.48199">
        <ele>941.730264</ele>
        <time>2021-09-18T13:06:18.000Z</time>
      </trkpt>
      <trkpt lat="43.95999" lon="6.48225">
        <ele>942.762638</ele>
        <time>2021-09-18T13:06:25.000Z</time>
      </trkpt>
      <trkpt lat="43.95994" lon="6.48258">
        <ele>944.09719</ele>
        <time>2021-09-18T13:06:34.000Z</time>
      </trkpt>
      <trkpt lat="43.95987" lon="6.48298">
        <ele>945.703556</ele>
        <time>2021-09-18T13:06:45.000Z</time>
      </trkpt>
      <trkpt lat="43.95982" lon="6.48331">
        <ele>947.038112</ele>
        <time>2021-09-18T13:06:54.000Z</time>
      </trkpt>
      <trkpt lat="43.95974" lon="6.48377">
        <ele>948.536067</ele>
        <time>2021-09-18T13:07:05.000Z</time>
      </trkpt>
      <trkpt lat="43.95969" lon="6.48418">
        <ele>949.81257</ele>
        <time>2021-09-18T13:07:15.000Z</time>
      </trkpt>
      <trkpt lat="43.95966" lon="6.48456">
        <ele>950.956615</ele>
        <time>2021-09-18T13:07:24.000Z</time>
      </trkpt>
      <trkpt lat="43.95965" lon="6.48495">
        <ele>952.121069</ele>
        <time>2021-09-18T13:07:33.000Z</time>
      </trkpt>
      <trkpt lat="43.95966" lon="6.48534">
        <ele>953.300601</ele>
        <time>2021-09-18T13:07:42.000Z</time>
      </trkpt>
      <trkpt lat="43.95969" lon="6.48581">
        <ele>954.73523</ele>
        <time>2021-09-18T13:07:53.000Z</time>
      </trkpt>
      <trkpt lat="43.95973" lon="6.48616">
        <ele>955.751212</ele>
        <time>2021-09-18T13:08:01.000Z</time>
      </trkpt>
      <trkpt lat="43.95983" lon="6.48663">
        <ele>957.137955</ele>
        <time>2021-09-18T13:08:12.000Z</time>
      </trkpt>
      <trkpt lat="43.95991" lon="6.48702">
        <ele>958.291666</ele>
        <time>2021-09-18T13:08:21.000Z</time>
      </trkpt>
      <trkpt lat="43.96001" lon="6.48745">
        <ele>959.559826</ele>
        <time>2021-09-18T13:08:31.000Z</time>
      </trkpt>
      <trkpt lat="43.96012" lon="6.4879">
        <ele>960.896119</ele>
        <time>2021-09-18T13:08:42.000Z</time>
      </trkpt>
      <trkpt lat="43.96022" lon="6.4883">
        <ele>962.119856</ele>
        <time>2021-09-18T13:08:52.000Z</time>
      </trkpt>
      <trkpt lat="43.96034" lon="6.48876">
        <ele>963.642179</ele>
        <time>2021-09-18T13:09:03.000Z</time>
      </trkpt>
      <trkpt lat="43.96044" lon="6.48918">
        <ele>965.010185</ele>
        <time>2021-09-18T13:09:13.000Z</time>
      </trkpt>
      <trkpt lat="43.96052" lon="6.48947">
        <ele>965.971162</ele>
        <time>2021-09-18T13:09:20.000Z</time>
      </trkpt>
      <trkpt lat="43.96058" lon="6.48986">
        <ele>967.218419</ele>
        <time>2021-09-18T13:09:29.000Z</time>
      </trkpt>
      <trkpt lat="43.96064" lon="6.49032">
        <ele>968.700883</ele>
        <time>2021-09-18T13:09:40.000Z</time>
      </trkpt>
      <trkpt lat="43.96069" lon="6.49079">
        <ele>970.413432</ele>
        <time>2021-09-18T13:09:51.000Z</time>
      </trkpt>
      <trkpt lat="43.96074" lon="6.49116">
        <ele>972.512642</ele>
        <time>2021-09-18T13:10:00.000Z</time>
      </trkpt>
      <trkpt lat="43.96079" lon="6.49142">
        <ele>974.014689</ele>
        <time>2021-09-18T13:10:07.000Z</time>
      </trkpt>
      <trkpt lat="43.96088" lon="6.49175">
        <ele>975.924753</ele>
        <time>2021-09-18T13:10:16.000Z</time>
      </trkpt>
      <trkpt lat="43.961" lon="6.492">
        <ele>977.618957</ele>
        <time>2021-09-18T13:10:24.000Z</time>
      </trkpt>
      <trkpt lat="43.96105" lon="6.49208">
        <ele>978.2076</ele>
        <time>2021-09-18T13:10:27.000Z</time>
      </trkpt>
      <trkpt lat="43.96108" lon="6.49213">
        <ele>978.55366</ele>
        <time>2021-09-18T13:10:29.000Z</time>
      </trkpt>
      <trkpt lat="43.96117" lon="6.4923">
        <ele>979.731026</ele>
        <time>2021-09-18T13:10:35.000Z</time>
      </trkpt>
      <trkpt lat="43.96128" lon="6.49251">
        <ele>981.169013</ele>
        <time>2021-09-18T13:10:42.000Z</time>
      </trkpt>
      <trkpt lat="43.96136" lon="6.49277">
        <ele>982.71022</ele>
        <time>2021-09-18T13:10:49.000Z</time>
      </trkpt>
      <trkpt lat="43.96141" lon="6.49305">
        <ele>983.822793</ele>
        <time>2021-09-18T13:10:55.000Z</time>
      </trkpt>
      <trkpt lat="43.96146" lon="6.49344">
        <ele>984.273544</ele>
        <time>2021-09-18T13:11:00.000Z</time>
      </trkpt>
      <trkpt lat="43.96148" lon="6.49352">
        <ele>984.377932</ele>
        <time>2021-09-18T13:11:01.000Z</time>
      </trkpt>
      <trkpt lat="43.96158" lon="6.49379">
        <ele>984.728273</ele>
        <time>2021-09-18T13:11:04.000Z</time>
      </trkpt>
      <trkpt lat="43.96168" lon="6.4941">
        <ele>985.119798</ele>
        <time>2021-09-18T13:11:07.000Z</time>
      </trkpt>
      <trkpt lat="43.96169" lon="6.49423">
        <ele>985.272036</ele>
        <time>2021-09-18T13:11:08.000Z</time>
      </trkpt>
      <trkpt lat="43.96169" lon="6.49437">
        <ele>985.427025</ele>
        <time>2021-09-18T13:11:09.000Z</time>
      </trkpt>
      <trkpt lat="43.96163" lon="6.49462">
        <ele>985.733094</ele>
        <time>2021-09-18T13:11:11.000Z</time>
      </trkpt>
      <trkpt lat="43.96155" lon="6.49512">
        <ele>986.325692</ele>
        <time>2021-09-18T13:11:15.000Z</time>
      </trkpt>
      <trkpt lat="43.96155" lon="6.49524">
        <ele>986.471312</ele>
        <time>2021-09-18T13:11:16.000Z</time>
      </trkpt>
      <trkpt lat="43.96158" lon="6.49578">
        <ele>985.935466</ele>
        <time>2021-09-18T13:11:20.000Z</time>
      </trkpt>
      <trkpt lat="43.96157" lon="6.49606">
        <ele>985.535391</ele>
        <time>2021-09-18T13:11:22.000Z</time>
      </trkpt>
      <trkpt lat="43.96155" lon="6.49634">
        <ele>985.149682</ele>
        <time>2021-09-18T13:11:24.000Z</time>
      </trkpt>
      <trkpt lat="43.96158" lon="6.49688">
        <ele>984.381818</ele>
        <time>2021-09-18T13:11:28.000Z</time>
      </trkpt>
      <trkpt lat="43.96171" lon="6.49772">
        <ele>983.171445</ele>
        <time>2021-09-18T13:11:34.000Z</time>
      </trkpt>
      <trkpt lat="43.96175" lon="6.49785">
        <ele>982.923571</ele>
        <time>2021-09-18T13:11:35.000Z</time>
      </trkpt>
      <trkpt lat="43.96186" lon="6.4981">
        <ele>982.287905</ele>
        <time>2021-09-18T13:11:37.000Z</time>
      </trkpt>
      <trkpt lat="43.96199" lon="6.49834">
        <ele>981.636416</ele>
        <time>2021-09-18T13:11:39.000Z</time>
      </trkpt>
      <trkpt lat="43.96213" lon="6.49856">
        <ele>980.978729</ele>
        <time>2021-09-18T13:11:41.000Z</time>
      </trkpt>
      <trkpt lat="43.96223" lon="6.49863">
        <ele>980.657509</ele>
        <time>2021-09-18T13:11:42.000Z</time>
      </trkpt>
      <trkpt lat="43.96233" lon="6.49868">
        <ele>980.336571</ele>
        <time>2021-09-18T13:11:43.000Z</time>
      </trkpt>
      <trkpt lat="43.96255" lon="6.49874">
        <ele>979.641904</ele>
        <time>2021-09-18T13:11:45.000Z</time>
      </trkpt>
      <trkpt lat="43.96276" lon="6.49888">
        <ele>978.934126</ele>
        <time>2021-09-18T13:11:47.000Z</time>
      </trkpt>
      <trkpt lat="43.96291" lon="6.49914">
        <ele>978.209227</ele>
        <time>2021-09-18T13:11:49.000Z</time>
      </trkpt>
      <trkpt lat="43.96297" lon="6.49927">
        <ele>977.867365</ele>
        <time>2021-09-18T13:11:50.000Z</time>
      </trkpt>
      <trkpt lat="43.96314" lon="6.49945">
        <ele>977.110225</ele>
        <time>2021-09-18T13:11:52.000Z</time>
      </trkpt>
      <trkpt lat="43.96345" lon="6.49964">
        <ele>975.742974</ele>
        <time>2021-09-18T13:11:55.000Z</time>
      </trkpt>
      <trkpt lat="43.96383" lon="6.49996">
        <ele>973.922111</ele>
        <time>2021-09-18T13:11:59.000Z</time>
      </trkpt>
      <trkpt lat="43.96434" lon="6.50034">
        <ele>971.5906</ele>
        <time>2021-09-18T13:12:04.000Z</time>
      </trkpt>
      <trkpt lat="43.96483" lon="6.50074">
        <ele>969.042216</ele>
        <time>2021-09-18T13:12:09.000Z</time>
      </trkpt>
      <trkpt lat="43.96502" lon="6.50092">
        <ele>967.932614</ele>
        <time>2021-09-18T13:12:11.000Z</time>
      </trkpt>
      <trkpt lat="43.96516" lon="6.50117">
        <ele>966.812725</ele>
        <time>2021-09-18T13:12:13.000Z</time>
      </trkpt>
      <trkpt lat="43.96531" lon="6.5016">
        <ele>965.137726</ele>
        <time>2021-09-18T13:12:16.000Z</time>
      </trkpt>
      <trkpt lat="43.96551" lon="6.50232">
        <ele>962.404251</ele>
        <time>2021-09-18T13:12:21.000Z</time>
      </trkpt>
      <trkpt lat="43.96556" lon="6.50245">
        <ele>961.857991</ele>
        <time>2021-09-18T13:12:22.000Z</time>
      </trkpt>
      <trkpt lat="43.96562" lon="6.50258">
        <ele>961.322916</ele>
        <time>2021-09-18T13:12:23.000Z</time>
      </trkpt>
      <trkpt lat="43.96574" lon="6.50284">
        <ele>960.219663</ele>
        <time>2021-09-18T13:12:25.000Z</time>
      </trkpt>
      <trkpt lat="43.96616" lon="6.50337">
        <ele>957.424185</ele>
        <time>2021-09-18T13:12:30.000Z</time>
      </trkpt>
      <trkpt lat="43.96666" lon="6.50376">
        <ele>954.591496</ele>
        <time>2021-09-18T13:12:35.000Z</time>
      </trkpt>
      <trkpt lat="43.96716" lon="6.50411">
        <ele>951.74659</ele>
        <time>2021-09-18T13:12:40.000Z</time>
      </trkpt>
      <trkpt lat="43.96746" lon="6.50432">
        <ele>949.940021</ele>
        <time>2021-09-18T13:12:43.000Z</time>
      </trkpt>
      <trkpt lat="43.96796" lon="6.50467">
        <ele>946.922118</ele>
        <time>2021-09-18T13:12:48.000Z</time>
      </trkpt>
      <trkpt lat="43.96806" lon="6.50475">
        <ele>946.316809</ele>
        <time>2021-09-18T13:12:49.000Z</time>
      </trkpt>
      <trkpt lat="43.96855" lon="6.5051">
        <ele>943.365128</ele>
        <time>2021-09-18T13:12:54.000Z</time>
      </trkpt>
      <trkpt lat="43.96863" lon="6.50518">
        <ele>942.788204</ele>
        <time>2021-09-18T13:12:55.000Z</time>
      </trkpt>
      <trkpt lat="43.96876" lon="6.50536">
        <ele>941.355501</ele>
        <time>2021-09-18T13:12:57.000Z</time>
      </trkpt>
      <trkpt lat="43.96881" lon="6.50546">
        <ele>940.687093</ele>
        <time>2021-09-18T13:12:58.000Z</time>
      </trkpt>
      <trkpt lat="43.96888" lon="6.50567">
        <ele>939.353114</ele>
        <time>2021-09-18T13:13:00.000Z</time>
      </trkpt>
      <trkpt lat="43.96889" lon="6.50578">
        <ele>938.700199</ele>
        <time>2021-09-18T13:13:01.000Z</time>
      </trkpt>
      <trkpt lat="43.96889" lon="6.5059">
        <ele>938.059206</ele>
        <time>2021-09-18T13:13:02.000Z</time>
      </trkpt>
      <trkpt lat="43.96886" lon="6.50612">
        <ele>936.732205</ele>
        <time>2021-09-18T13:13:04.000Z</time>
      </trkpt>
      <trkpt lat="43.96867" lon="6.50678">
        <ele>932.697801</ele>
        <time>2021-09-18T13:13:10.000Z</time>
      </trkpt>
      <trkpt lat="43.96854" lon="6.50712">
        <ele>930.463867</ele>
        <time>2021-09-18T13:13:14.000Z</time>
      </trkpt>
      <trkpt lat="43.96846" lon="6.50724">
        <ele>929.556433</ele>
        <time>2021-09-18T13:13:16.000Z</time>
      </trkpt>
      <trkpt lat="43.96842" lon="6.50729">
        <ele>929.101345</ele>
        <time>2021-09-18T13:13:18.000Z</time>
      </trkpt>
      <trkpt lat="43.96826" lon="6.50736">
        <ele>926.986162</ele>
        <time>2021-09-18T13:13:20.000Z</time>
      </trkpt>
      <trkpt lat="43.96823" lon="6.50735">
        <ele>926.382538</ele>
        <time>2021-09-18T13:13:21.000Z</time>
      </trkpt>
      <trkpt lat="43.96802" lon="6.50728">
        <ele>922.858641</ele>
        <time>2021-09-18T13:13:28.000Z</time>
      </trkpt>
      <trkpt lat="43.96775" lon="6.50719">
        <ele>918.34218</ele>
        <time>2021-09-18T13:13:35.000Z</time>
      </trkpt>
      <trkpt lat="43.96746" lon="6.50706">
        <ele>913.482306</ele>
        <time>2021-09-18T13:13:43.000Z</time>
      </trkpt>
      <trkpt lat="43.96727" lon="6.50701">
        <ele>910.281266</ele>
        <time>2021-09-18T13:13:49.000Z</time>
      </trkpt>
      <trkpt lat="43.96716" lon="6.50695">
        <ele>908.391029</ele>
        <time>2021-09-18T13:13:54.000Z</time>
      </trkpt>
      <trkpt lat="43.96716" lon="6.50695">
        <ele>908.391029</ele>
        <time>2021-09-18T13:13:56.000Z</time>
      </trkpt>
      <trkpt lat="43.96718" lon="6.50695">
        <ele>908.095441</ele>
        <time>2021-09-18T13:19:03.000Z</time>
      </trkpt>
      <trkpt lat="43.9672" lon="6.50693">
        <ele>907.659155</ele>
        <time>2021-09-18T13:19:04.000Z</time>
      </trkpt>
      <trkpt lat="43.96721" lon="6.50697">
        <ele>907.173311</ele>
        <time>2021-09-18T13:19:07.000Z</time>
      </trkpt>
      <trkpt lat="43.96722" lon="6.507">
        <ele>906.847551</ele>
        <time>2021-09-18T13:19:10.000Z</time>
      </trkpt>
      <trkpt lat="43.96721" lon="6.507">
        <ele>906.618984</ele>
        <time>2021-09-18T13:19:11.000Z</time>
      </trkpt>
      <trkpt lat="43.96715" lon="6.50699">
        <ele>905.73572</ele>
        <time>2021-09-18T13:19:14.000Z</time>
      </trkpt>
      <trkpt lat="43.96713" lon="6.50699">
        <ele>905.425709</ele>
        <time>2021-09-18T13:19:15.000Z</time>
      </trkpt>
      <trkpt lat="43.96697" lon="6.50695">
        <ele>902.752607</ele>
        <time>2021-09-18T13:19:23.000Z</time>
      </trkpt>
      <trkpt lat="43.96682" lon="6.50692">
        <ele>900.194079</ele>
        <time>2021-09-18T13:19:31.000Z</time>
      </trkpt>
      <trkpt lat="43.96666" lon="6.50688">
        <ele>899.086462</ele>
        <time>2021-09-18T13:19:38.000Z</time>
      </trkpt>
      <trkpt lat="43.96639" lon="6.50682">
        <ele>898.553271</ele>
        <time>2021-09-18T13:19:46.000Z</time>
      </trkpt>
      <trkpt lat="43.96617" lon="6.50676">
        <ele>898.104658</ele>
        <time>2021-09-18T13:19:53.000Z</time>
      </trkpt>
      <trkpt lat="43.96595" lon="6.50671">
        <ele>897.673531</ele>
        <time>2021-09-18T13:20:00.000Z</time>
      </trkpt>
      <trkpt lat="43.96553" lon="6.50661">
        <ele>896.823426</ele>
        <time>2021-09-18T13:20:09.000Z</time>
      </trkpt>
      <trkpt lat="43.9652" lon="6.50653">
        <ele>896.17213</ele>
        <time>2021-09-18T13:20:16.000Z</time>
      </trkpt>
      <trkpt lat="43.965" lon="6.50648">
        <ele>895.776965</ele>
        <time>2021-09-18T13:20:20.000Z</time>
      </trkpt>
      <trkpt lat="43.9649" lon="6.50652">
        <ele>895.642304</ele>
        <time>2021-09-18T13:20:22.000Z</time>
      </trkpt>
      <trkpt lat="43.96461" lon="6.50658">
        <ele>895.311461</ele>
        <time>2021-09-18T13:20:27.000Z</time>
      </trkpt>
      <trkpt lat="43.96455" lon="6.50659">
        <ele>895.24794</ele>
        <time>2021-09-18T13:20:28.000Z</time>
      </trkpt>
      <trkpt lat="43.96425" lon="6.50667">
        <ele>894.894381</ele>
        <time>2021-09-18T13:20:34.000Z</time>
      </trkpt>
      <trkpt lat="43.96394" lon="6.50672">
        <ele>894.543183</ele>
        <time>2021-09-18T13:20:40.000Z</time>
      </trkpt>
      <trkpt lat="43.96389" lon="6.50673">
        <ele>894.486349</ele>
        <time>2021-09-18T13:20:41.000Z</time>
      </trkpt>
      <trkpt lat="43.96351" lon="6.5067">
        <ele>894.062361</ele>
        <time>2021-09-18T13:20:48.000Z</time>
      </trkpt>
      <trkpt lat="43.96308" lon="6.50664">
        <ele>893.512261</ele>
        <time>2021-09-18T13:20:56.000Z</time>
      </trkpt>
      <trkpt lat="43.96281" lon="6.5066">
        <ele>893.092738</ele>
        <time>2021-09-18T13:21:01.000Z</time>
      </trkpt>
      <trkpt lat="43.9623" lon="6.50653">
        <ele>892.306474</ele>
        <time>2021-09-18T13:21:10.000Z</time>
      </trkpt>
      <trkpt lat="43.9619" lon="6.50647">
        <ele>891.691803</ele>
        <time>2021-09-18T13:21:17.000Z</time>
      </trkpt>
      <trkpt lat="43.96147" lon="6.5064">
        <ele>891.0329</ele>
        <time>2021-09-18T13:21:25.000Z</time>
      </trkpt>
      <trkpt lat="43.96117" lon="6.50632">
        <ele>890.697519</ele>
        <time>2021-09-18T13:21:31.000Z</time>
      </trkpt>
      <trkpt lat="43.96113" lon="6.50632">
        <ele>890.654029</ele>
        <time>2021-09-18T13:21:32.000Z</time>
      </trkpt>
      <trkpt lat="43.96105" lon="6.50631">
        <ele>890.568042</ele>
        <time>2021-09-18T13:21:34.000Z</time>
      </trkpt>
      <trkpt lat="43.96089" lon="6.5063">
        <ele>890.398215</ele>
        <time>2021-09-18T13:21:38.000Z</time>
      </trkpt>
      <trkpt lat="43.96068" lon="6.50629">
        <ele>890.182834</ele>
        <time>2021-09-18T13:21:44.000Z</time>
      </trkpt>
      <trkpt lat="43.96043" lon="6.50626">
        <ele>889.924379</ele>
        <time>2021-09-18T13:21:51.000Z</time>
      </trkpt>
      <trkpt lat="43.96016" lon="6.50625">
        <ele>889.650308</ele>
        <time>2021-09-18T13:21:59.000Z</time>
      </trkpt>
      <trkpt lat="43.95989" lon="6.50625">
        <ele>889.362826</ele>
        <time>2021-09-18T13:22:06.000Z</time>
      </trkpt>
      <trkpt lat="43.95962" lon="6.50622">
        <ele>889.095506</ele>
        <time>2021-09-18T13:22:12.000Z</time>
      </trkpt>
      <trkpt lat="43.95925" lon="6.5062">
        <ele>889.009989</ele>
        <time>2021-09-18T13:22:20.000Z</time>
      </trkpt>
      <trkpt lat="43.95905" lon="6.5062">
        <ele>888.961545</ele>
        <time>2021-09-18T13:22:25.000Z</time>
      </trkpt>
      <trkpt lat="43.95879" lon="6.50624">
        <ele>888.902362</ele>
        <time>2021-09-18T13:22:32.000Z</time>
      </trkpt>
      <trkpt lat="43.95857" lon="6.50631">
        <ele>888.848889</ele>
        <time>2021-09-18T13:22:38.000Z</time>
      </trkpt>
      <trkpt lat="43.95838" lon="6.5064">
        <ele>888.801971</ele>
        <time>2021-09-18T13:22:44.000Z</time>
      </trkpt>
      <trkpt lat="43.95815" lon="6.50654">
        <ele>888.743777</ele>
        <time>2021-09-18T13:22:51.000Z</time>
      </trkpt>
      <trkpt lat="43.95804" lon="6.50661">
        <ele>888.715455</ele>
        <time>2021-09-18T13:22:54.000Z</time>
      </trkpt>
      <trkpt lat="43.95787" lon="6.50671">
        <ele>888.671871</ele>
        <time>2021-09-18T13:22:58.000Z</time>
      </trkpt>
      <trkpt lat="43.95765" lon="6.50685">
        <ele>888.612025</ele>
        <time>2021-09-18T13:23:04.000Z</time>
      </trkpt>
      <trkpt lat="43.95745" lon="6.50697">
        <ele>888.560973</ele>
        <time>2021-09-18T13:23:10.000Z</time>
      </trkpt>
      <trkpt lat="43.9572" lon="6.50712">
        <ele>888.493736</ele>
        <time>2021-09-18T13:23:17.000Z</time>
      </trkpt>
      <trkpt lat="43.95697" lon="6.50727">
        <ele>888.432347</ele>
        <time>2021-09-18T13:23:24.000Z</time>
      </trkpt>
      <trkpt lat="43.95675" lon="6.50743">
        <ele>888.369978</ele>
        <time>2021-09-18T13:23:31.000Z</time>
      </trkpt>
      <trkpt lat="43.95644" lon="6.50764">
        <ele>888.285732</ele>
        <time>2021-09-18T13:23:39.000Z</time>
      </trkpt>
      <trkpt lat="43.95613" lon="6.50791">
        <ele>888.178033</ele>
        <time>2021-09-18T13:23:47.000Z</time>
      </trkpt>
      <trkpt lat="43.95583" lon="6.50824">
        <ele>888.046988</ele>
        <time>2021-09-18T13:23:55.000Z</time>
      </trkpt>
      <trkpt lat="43.95559" lon="6.50849">
        <ele>887.943632</ele>
        <time>2021-09-18T13:24:01.000Z</time>
      </trkpt>
      <trkpt lat="43.95548" lon="6.50862">
        <ele>887.893443</ele>
        <time>2021-09-18T13:24:04.000Z</time>
      </trkpt>
      <trkpt lat="43.95535" lon="6.50872">
        <ele>887.844067</ele>
        <time>2021-09-18T13:24:07.000Z</time>
      </trkpt>
      <trkpt lat="43.95531" lon="6.50874">
        <ele>887.828231</ele>
        <time>2021-09-18T13:24:08.000Z</time>
      </trkpt>
      <trkpt lat="43.95514" lon="6.5088">
        <ele>887.767698</ele>
        <time>2021-09-18T13:24:12.000Z</time>
      </trkpt>
      <trkpt lat="43.9549" lon="6.5089">
        <ele>887.679391</ele>
        <time>2021-09-18T13:24:19.000Z</time>
      </trkpt>
      <trkpt lat="43.95471" lon="6.50897">
        <ele>887.678983</ele>
        <time>2021-09-18T13:24:26.000Z</time>
      </trkpt>
      <trkpt lat="43.9545" lon="6.50908">
        <ele>888.451455</ele>
        <time>2021-09-18T13:24:35.000Z</time>
      </trkpt>
      <trkpt lat="43.95436" lon="6.50917">
        <ele>888.990557</ele>
        <time>2021-09-18T13:24:41.000Z</time>
      </trkpt>
      <trkpt lat="43.95425" lon="6.50927">
        <ele>889.439685</ele>
        <time>2021-09-18T13:24:47.000Z</time>
      </trkpt>
      <trkpt lat="43.95414" lon="6.50936">
        <ele>889.878948</ele>
        <time>2021-09-18T13:24:53.000Z</time>
      </trkpt>
      <trkpt lat="43.95397" lon="6.5095">
        <ele>890.566529</ele>
        <time>2021-09-18T13:25:01.000Z</time>
      </trkpt>
      <trkpt lat="43.95377" lon="6.50966">
        <ele>891.384694</ele>
        <time>2021-09-18T13:25:10.000Z</time>
      </trkpt>
      <trkpt lat="43.95358" lon="6.50979">
        <ele>892.132696</ele>
        <time>2021-09-18T13:25:19.000Z</time>
      </trkpt>
      <trkpt lat="43.95335" lon="6.50987">
        <ele>892.960662</ele>
        <time>2021-09-18T13:25:29.000Z</time>
      </trkpt>
      <trkpt lat="43.95319" lon="6.5099">
        <ele>893.506841</ele>
        <time>2021-09-18T13:25:36.000Z</time>
      </trkpt>
      <trkpt lat="43.953" lon="6.50994">
        <ele>894.518712</ele>
        <time>2021-09-18T13:25:44.000Z</time>
      </trkpt>
      <trkpt lat="43.95278" lon="6.51003">
        <ele>896.146675</ele>
        <time>2021-09-18T13:25:54.000Z</time>
      </trkpt>
      <trkpt lat="43.95262" lon="6.51013">
        <ele>897.379605</ele>
        <time>2021-09-18T13:26:02.000Z</time>
      </trkpt>
      <trkpt lat="43.95245" lon="6.51029">
        <ele>898.782818</ele>
        <time>2021-09-18T13:26:11.000Z</time>
      </trkpt>
      <trkpt lat="43.95232" lon="6.51046">
        <ele>900.064383</ele>
        <time>2021-09-18T13:26:19.000Z</time>
      </trkpt>
      <trkpt lat="43.95216" lon="6.51065">
        <ele>901.526513</ele>
        <time>2021-09-18T13:26:28.000Z</time>
      </trkpt>
      <trkpt lat="43.95199" lon="6.51078">
        <ele>902.929867</ele>
        <time>2021-09-18T13:26:37.000Z</time>
      </trkpt>
      <trkpt lat="43.95184" lon="6.51086">
        <ele>904.08221</ele>
        <time>2021-09-18T13:26:43.000Z</time>
      </trkpt>
      <trkpt lat="43.95168" lon="6.51093">
        <ele>905.223782</ele>
        <time>2021-09-18T13:26:50.000Z</time>
      </trkpt>
      <trkpt lat="43.95157" lon="6.51097">
        <ele>906.028019</ele>
        <time>2021-09-18T13:26:55.000Z</time>
      </trkpt>
      <trkpt lat="43.95139" lon="6.51105">
        <ele>906.801846</ele>
        <time>2021-09-18T13:27:03.000Z</time>
      </trkpt>
      <trkpt lat="43.95122" lon="6.5111">
        <ele>907.10866</ele>
        <time>2021-09-18T13:27:10.000Z</time>
      </trkpt>
      <trkpt lat="43.95102" lon="6.51117">
        <ele>907.47671</ele>
        <time>2021-09-18T13:27:16.000Z</time>
      </trkpt>
      <trkpt lat="43.95076" lon="6.51125">
        <ele>907.963146</ele>
        <time>2021-09-18T13:27:22.000Z</time>
      </trkpt>
      <trkpt lat="43.95062" lon="6.51129">
        <ele>908.215149</ele>
        <time>2021-09-18T13:27:25.000Z</time>
      </trkpt>
      <trkpt lat="43.95052" lon="6.51132">
        <ele>908.39507</ele>
        <time>2021-09-18T13:27:27.000Z</time>
      </trkpt>
      <trkpt lat="43.95012" lon="6.51147">
        <ele>909.15116</ele>
        <time>2021-09-18T13:27:35.000Z</time>
      </trkpt>
      <trkpt lat="43.94997" lon="6.51158">
        <ele>909.461909</ele>
        <time>2021-09-18T13:27:38.000Z</time>
      </trkpt>
      <trkpt lat="43.94982" lon="6.51174">
        <ele>909.795122</ele>
        <time>2021-09-18T13:27:41.000Z</time>
      </trkpt>
      <trkpt lat="43.94978" lon="6.51181">
        <ele>909.792889</ele>
        <time>2021-09-18T13:27:42.000Z</time>
      </trkpt>
      <trkpt lat="43.9497" lon="6.51197">
        <ele>909.654254</ele>
        <time>2021-09-18T13:27:44.000Z</time>
      </trkpt>
      <trkpt lat="43.94967" lon="6.51206">
        <ele>909.578627</ele>
        <time>2021-09-18T13:27:45.000Z</time>
      </trkpt>
      <trkpt lat="43.94957" lon="6.51234">
        <ele>909.358856</ele>
        <time>2021-09-18T13:27:48.000Z</time>
      </trkpt>
      <trkpt lat="43.94949" lon="6.5125">
        <ele>909.212798</ele>
        <time>2021-09-18T13:27:50.000Z</time>
      </trkpt>
      <trkpt lat="43.94937" lon="6.51263">
        <ele>909.061762</ele>
        <time>2021-09-18T13:27:52.000Z</time>
      </trkpt>
      <trkpt lat="43.94929" lon="6.51266">
        <ele>908.985528</ele>
        <time>2021-09-18T13:27:53.000Z</time>
      </trkpt>
      <trkpt lat="43.94922" lon="6.51267">
        <ele>908.911333</ele>
        <time>2021-09-18T13:27:54.000Z</time>
      </trkpt>
      <trkpt lat="43.94908" lon="6.51266">
        <ele>908.770731</ele>
        <time>2021-09-18T13:27:56.000Z</time>
      </trkpt>
      <trkpt lat="43.94876" lon="6.51259">
        <ele>908.446913</ele>
        <time>2021-09-18T13:28:01.000Z</time>
      </trkpt>
      <trkpt lat="43.9487" lon="6.51258">
        <ele>908.385341</ele>
        <time>2021-09-18T13:28:02.000Z</time>
      </trkpt>
      <trkpt lat="43.94851" lon="6.51254">
        <ele>908.200852</ele>
        <time>2021-09-18T13:28:05.000Z</time>
      </trkpt>
      <trkpt lat="43.94839" lon="6.51251">
        <ele>908.080772</ele>
        <time>2021-09-18T13:28:07.000Z</time>
      </trkpt>
      <trkpt lat="43.94802" lon="6.51244">
        <ele>907.383644</ele>
        <time>2021-09-18T13:28:13.000Z</time>
      </trkpt>
      <trkpt lat="43.94795" lon="6.51244">
        <ele>907.255415</ele>
        <time>2021-09-18T13:28:14.000Z</time>
      </trkpt>
      <trkpt lat="43.94783" lon="6.51248">
        <ele>907.005623</ele>
        <time>2021-09-18T13:28:16.000Z</time>
      </trkpt>
      <trkpt lat="43.94777" lon="6.51251">
        <ele>906.881314</ele>
        <time>2021-09-18T13:28:17.000Z</time>
      </trkpt>
      <trkpt lat="43.94771" lon="6.51255">
        <ele>906.75839</ele>
        <time>2021-09-18T13:28:18.000Z</time>
      </trkpt>
      <trkpt lat="43.94757" lon="6.51274">
        <ele>906.36965</ele>
        <time>2021-09-18T13:28:21.000Z</time>
      </trkpt>
      <trkpt lat="43.94737" lon="6.51327">
        <ele>905.537109</ele>
        <time>2021-09-18T13:28:27.000Z</time>
      </trkpt>
      <trkpt lat="43.94714" lon="6.51387">
        <ele>904.594777</ele>
        <time>2021-09-18T13:28:34.000Z</time>
      </trkpt>
      <trkpt lat="43.94693" lon="6.51422">
        <ele>903.671605</ele>
        <time>2021-09-18T13:28:39.000Z</time>
      </trkpt>
      <trkpt lat="43.94666" lon="6.51449">
        <ele>902.721595</ele>
        <time>2021-09-18T13:28:44.000Z</time>
      </trkpt>
      <trkpt lat="43.9462" lon="6.51484">
        <ele>901.237246</ele>
        <time>2021-09-18T13:28:52.000Z</time>
      </trkpt>
      <trkpt lat="43.94586" lon="6.51506">
        <ele>900.15803</ele>
        <time>2021-09-18T13:28:58.000Z</time>
      </trkpt>
      <trkpt lat="43.94546" lon="6.51534">
        <ele>898.50248</ele>
        <time>2021-09-18T13:29:05.000Z</time>
      </trkpt>
      <trkpt lat="43.94508" lon="6.5156">
        <ele>896.451385</ele>
        <time>2021-09-18T13:29:12.000Z</time>
      </trkpt>
      <trkpt lat="43.94471" lon="6.51585">
        <ele>894.487835</ele>
        <time>2021-09-18T13:29:19.000Z</time>
      </trkpt>
      <trkpt lat="43.94448" lon="6.51601">
        <ele>893.266239</ele>
        <time>2021-09-18T13:29:24.000Z</time>
      </trkpt>
      <trkpt lat="43.94445" lon="6.51604">
        <ele>893.066487</ele>
        <time>2021-09-18T13:29:25.000Z</time>
      </trkpt>
      <trkpt lat="43.9444" lon="6.51607">
        <ele>892.820186</ele>
        <time>2021-09-18T13:29:28.000Z</time>
      </trkpt>
      <trkpt lat="43.94438" lon="6.51608">
        <ele>892.690405</ele>
        <time>2021-09-18T13:30:09.000Z</time>
      </trkpt>
      <trkpt lat="43.94435" lon="6.5161">
        <ele>892.53443</ele>
        <time>2021-09-18T13:30:11.000Z</time>
      </trkpt>
      <trkpt lat="43.9442" lon="6.51621">
        <ele>891.722499</ele>
        <time>2021-09-18T13:30:18.000Z</time>
      </trkpt>
      <trkpt lat="43.94401" lon="6.51634">
        <ele>890.746851</ele>
        <time>2021-09-18T13:30:24.000Z</time>
      </trkpt>
      <trkpt lat="43.94377" lon="6.5165">
        <ele>890.370835</ele>
        <time>2021-09-18T13:30:31.000Z</time>
      </trkpt>
      <trkpt lat="43.94347" lon="6.51671">
        <ele>889.914155</ele>
        <time>2021-09-18T13:30:39.000Z</time>
      </trkpt>
      <trkpt lat="43.94316" lon="6.51692">
        <ele>889.436182</ele>
        <time>2021-09-18T13:30:47.000Z</time>
      </trkpt>
      <trkpt lat="43.94282" lon="6.51716">
        <ele>888.908185</ele>
        <time>2021-09-18T13:30:55.000Z</time>
      </trkpt>
      <trkpt lat="43.94249" lon="6.5174">
        <ele>888.40072</ele>
        <time>2021-09-18T13:31:03.000Z</time>
      </trkpt>
      <trkpt lat="43.94226" lon="6.51759">
        <ele>888.252947</ele>
        <time>2021-09-18T13:31:09.000Z</time>
      </trkpt>
      <trkpt lat="43.94217" lon="6.5177">
        <ele>888.238696</ele>
        <time>2021-09-18T13:31:12.000Z</time>
      </trkpt>
      <trkpt lat="43.94195" lon="6.518">
        <ele>888.202878</ele>
        <time>2021-09-18T13:31:18.000Z</time>
      </trkpt>
      <trkpt lat="43.94183" lon="6.51819">
        <ele>888.181714</ele>
        <time>2021-09-18T13:31:22.000Z</time>
      </trkpt>
      <trkpt lat="43.94178" lon="6.5183">
        <ele>888.171078</ele>
        <time>2021-09-18T13:31:24.000Z</time>
      </trkpt>
      <trkpt lat="43.94156" lon="6.5188">
        <ele>888.121642</ele>
        <time>2021-09-18T13:31:34.000Z</time>
      </trkpt>
      <trkpt lat="43.94144" lon="6.51927">
        <ele>888.080069</ele>
        <time>2021-09-18T13:31:42.000Z</time>
      </trkpt>
      <trkpt lat="43.94136" lon="6.51982">
        <ele>888.07042</ele>
        <time>2021-09-18T13:31:51.000Z</time>
      </trkpt>
      <trkpt lat="43.94132" lon="6.52008">
        <ele>888.074861</ele>
        <time>2021-09-18T13:31:55.000Z</time>
      </trkpt>
      <trkpt lat="43.94129" lon="6.52027">
        <ele>888.078223</ele>
        <time>2021-09-18T13:31:58.000Z</time>
      </trkpt>
      <trkpt lat="43.9412" lon="6.52076">
        <ele>888.086838</ele>
        <time>2021-09-18T13:32:06.000Z</time>
      </trkpt>
      <trkpt lat="43.94109" lon="6.52103">
        <ele>888.092172</ele>
        <time>2021-09-18T13:32:11.000Z</time>
      </trkpt>
      <trkpt lat="43.94106" lon="6.52108">
        <ele>888.093169</ele>
        <time>2021-09-18T13:32:12.000Z</time>
      </trkpt>
      <trkpt lat="43.941" lon="6.52116">
        <ele>888.095206</ele>
        <time>2021-09-18T13:32:14.000Z</time>
      </trkpt>
      <trkpt lat="43.94086" lon="6.52132">
        <ele>888.099559</ele>
        <time>2021-09-18T13:32:18.000Z</time>
      </trkpt>
      <trkpt lat="43.94057" lon="6.52158">
        <ele>888.12821</ele>
        <time>2021-09-18T13:32:26.000Z</time>
      </trkpt>
      <trkpt lat="43.9403" lon="6.52188">
        <ele>888.299105</ele>
        <time>2021-09-18T13:32:34.000Z</time>
      </trkpt>
      <trkpt lat="43.94006" lon="6.52221">
        <ele>888.466937</ele>
        <time>2021-09-18T13:32:42.000Z</time>
      </trkpt>
      <trkpt lat="43.93988" lon="6.52245">
        <ele>888.589907</ele>
        <time>2021-09-18T13:32:48.000Z</time>
      </trkpt>
      <trkpt lat="43.93966" lon="6.5227">
        <ele>888.731077</ele>
        <time>2021-09-18T13:32:55.000Z</time>
      </trkpt>
      <trkpt lat="43.9395" lon="6.52288">
        <ele>888.831245</ele>
        <time>2021-09-18T13:33:00.000Z</time>
      </trkpt>
      <trkpt lat="43.93941" lon="6.52299">
        <ele>888.892913</ele>
        <time>2021-09-18T13:33:03.000Z</time>
      </trkpt>
      <trkpt lat="43.93934" lon="6.52306">
        <ele>888.937047</ele>
        <time>2021-09-18T13:33:05.000Z</time>
      </trkpt>
      <trkpt lat="43.93919" lon="6.52326">
        <ele>889.058104</ele>
        <time>2021-09-18T13:33:10.000Z</time>
      </trkpt>
      <trkpt lat="43.93911" lon="6.52339">
        <ele>889.145744</ele>
        <time>2021-09-18T13:33:13.000Z</time>
      </trkpt>
      <trkpt lat="43.93901" lon="6.52359">
        <ele>889.269244</ele>
        <time>2021-09-18T13:33:17.000Z</time>
      </trkpt>
      <trkpt lat="43.93877" lon="6.52403">
        <ele>889.556813</ele>
        <time>2021-09-18T13:33:26.000Z</time>
      </trkpt>
      <trkpt lat="43.93847" lon="6.52454">
        <ele>889.892792</ele>
        <time>2021-09-18T13:33:37.000Z</time>
      </trkpt>
      <trkpt lat="43.93837" lon="6.52482">
        <ele>890.050727</ele>
        <time>2021-09-18T13:33:43.000Z</time>
      </trkpt>
      <trkpt lat="43.93827" lon="6.52522">
        <ele>890.272086</ele>
        <time>2021-09-18T13:33:51.000Z</time>
      </trkpt>
      <trkpt lat="43.93821" lon="6.52559">
        <ele>889.96483</ele>
        <time>2021-09-18T13:33:58.000Z</time>
      </trkpt>
      <trkpt lat="43.93821" lon="6.52583">
        <ele>889.745814</ele>
        <time>2021-09-18T13:34:02.000Z</time>
      </trkpt>
      <trkpt lat="43.93821" lon="6.5259">
        <ele>889.685761</ele>
        <time>2021-09-18T13:34:03.000Z</time>
      </trkpt>
      <trkpt lat="43.93821" lon="6.52604">
        <ele>889.559474</ele>
        <time>2021-09-18T13:34:05.000Z</time>
      </trkpt>
      <trkpt lat="43.93821" lon="6.5262">
        <ele>889.425098</ele>
        <time>2021-09-18T13:34:07.000Z</time>
      </trkpt>
      <trkpt lat="43.93819" lon="6.52636">
        <ele>889.279646</ele>
        <time>2021-09-18T13:34:09.000Z</time>
      </trkpt>
      <trkpt lat="43.93817" lon="6.52645">
        <ele>889.195766</ele>
        <time>2021-09-18T13:34:10.000Z</time>
      </trkpt>
      <trkpt lat="43.93814" lon="6.52664">
        <ele>889.025988</ele>
        <time>2021-09-18T13:34:12.000Z</time>
      </trkpt>
      <trkpt lat="43.93814" lon="6.52683">
        <ele>888.859071</ele>
        <time>2021-09-18T13:34:14.000Z</time>
      </trkpt>
      <trkpt lat="43.93814" lon="6.5272">
        <ele>888.526075</ele>
        <time>2021-09-18T13:34:18.000Z</time>
      </trkpt>
      <trkpt lat="43.93814" lon="6.52727">
        <ele>888.46601</ele>
        <time>2021-09-18T13:34:19.000Z</time>
      </trkpt>
      <trkpt lat="43.93814" lon="6.52733">
        <ele>888.410372</ele>
        <time>2021-09-18T13:34:20.000Z</time>
      </trkpt>
      <trkpt lat="43.93815" lon="6.52743">
        <ele>888.326439</ele>
        <time>2021-09-18T13:34:22.000Z</time>
      </trkpt>
      <trkpt lat="43.93815" lon="6.52748">
        <ele>888.277867</ele>
        <time>2021-09-18T13:34:24.000Z</time>
      </trkpt>
      <trkpt lat="43.93815" lon="6.52752">
        <ele>888.246933</ele>
        <time>2021-09-18T13:34:26.000Z</time>
      </trkpt>
      <trkpt lat="43.93815" lon="6.52757">
        <ele>888.20276</ele>
        <time>2021-09-18T13:34:29.000Z</time>
      </trkpt>
      <trkpt lat="43.93815" lon="6.52758">
        <ele>888.193045</ele>
        <time>2021-09-18T13:34:32.000Z</time>
      </trkpt>
      <trkpt lat="43.93815" lon="6.52762">
        <ele>888.161252</ele>
        <time>2021-09-18T13:35:30.000Z</time>
      </trkpt>
      <trkpt lat="43.93815" lon="6.52766">
        <ele>888.12061</ele>
        <time>2021-09-18T13:35:33.000Z</time>
      </trkpt>
      <trkpt lat="43.93815" lon="6.52767">
        <ele>888.111779</ele>
        <time>2021-09-18T13:35:36.000Z</time>
      </trkpt>
      <trkpt lat="43.93815" lon="6.5278">
        <ele>888.007598</ele>
        <time>2021-09-18T13:36:23.000Z</time>
      </trkpt>
      <trkpt lat="43.93816" lon="6.52801">
        <ele>887.851643</ele>
        <time>2021-09-18T13:36:28.000Z</time>
      </trkpt>
      <trkpt lat="43.93816" lon="6.52845">
        <ele>887.511605</ele>
        <time>2021-09-18T13:36:36.000Z</time>
      </trkpt>
      <trkpt lat="43.93816" lon="6.52877">
        <ele>887.27346</ele>
        <time>2021-09-18T13:36:41.000Z</time>
      </trkpt>
      <trkpt lat="43.93813" lon="6.52888">
        <ele>887.185908</ele>
        <time>2021-09-18T13:36:43.000Z</time>
      </trkpt>
      <trkpt lat="43.93799" lon="6.52916">
        <ele>886.921153</ele>
        <time>2021-09-18T13:36:49.000Z</time>
      </trkpt>
      <trkpt lat="43.93784" lon="6.52935">
        <ele>886.71056</ele>
        <time>2021-09-18T13:36:55.000Z</time>
      </trkpt>
      <trkpt lat="43.93676" lon="6.53071">
        <ele>886.210756</ele>
        <time>2021-09-18T13:37:25.000Z</time>
      </trkpt>
      <trkpt lat="43.93672" lon="6.53076">
        <ele>886.212612</ele>
        <time>2021-09-18T13:37:26.000Z</time>
      </trkpt>
      <trkpt lat="43.93657" lon="6.53094">
        <ele>886.220241</ele>
        <time>2021-09-18T13:37:31.000Z</time>
      </trkpt>
      <trkpt lat="43.93644" lon="6.53103">
        <ele>886.225875</ele>
        <time>2021-09-18T13:37:35.000Z</time>
      </trkpt>
      <trkpt lat="43.93624" lon="6.53117">
        <ele>886.234452</ele>
        <time>2021-09-18T13:37:41.000Z</time>
      </trkpt>
      <trkpt lat="43.93607" lon="6.53138">
        <ele>886.242817</ele>
        <time>2021-09-18T13:37:47.000Z</time>
      </trkpt>
      <trkpt lat="43.93593" lon="6.53165">
        <ele>886.449564</ele>
        <time>2021-09-18T13:37:53.000Z</time>
      </trkpt>
      <trkpt lat="43.93589" lon="6.53169">
        <ele>886.485834</ele>
        <time>2021-09-18T13:37:54.000Z</time>
      </trkpt>
      <trkpt lat="43.93585" lon="6.53171">
        <ele>886.521578</ele>
        <time>2021-09-18T13:37:55.000Z</time>
      </trkpt>
      <trkpt lat="43.93577" lon="6.53174">
        <ele>886.590005</ele>
        <time>2021-09-18T13:37:57.000Z</time>
      </trkpt>
      <trkpt lat="43.93574" lon="6.53175">
        <ele>886.623324</ele>
        <time>2021-09-18T13:37:58.000Z</time>
      </trkpt>
      <trkpt lat="43.93554" lon="6.53169">
        <ele>886.79637</ele>
        <time>2021-09-18T13:38:04.000Z</time>
      </trkpt>
      <trkpt lat="43.93535" lon="6.53162">
        <ele>886.959765</ele>
        <time>2021-09-18T13:38:10.000Z</time>
      </trkpt>
      <trkpt lat="43.93513" lon="6.53155">
        <ele>887.150327</ele>
        <time>2021-09-18T13:38:16.000Z</time>
      </trkpt>
      <trkpt lat="43.93364" lon="6.53119">
        <ele>888.438359</ele>
        <time>2021-09-18T13:38:50.000Z</time>
      </trkpt>
      <trkpt lat="43.93361" lon="6.53112">
        <ele>888.487108</ele>
        <time>2021-09-18T13:38:52.000Z</time>
      </trkpt>
      <trkpt lat="43.93333" lon="6.53109">
        <ele>888.724341</ele>
        <time>2021-09-18T13:38:58.000Z</time>
      </trkpt>
      <trkpt lat="43.933" lon="6.53107">
        <ele>889.005319</ele>
        <time>2021-09-18T13:39:06.000Z</time>
      </trkpt>
      <trkpt lat="43.93267" lon="6.53112">
        <ele>889.289309</ele>
        <time>2021-09-18T13:39:14.000Z</time>
      </trkpt>
      <trkpt lat="43.93232" lon="6.53125">
        <ele>889.296293</ele>
        <time>2021-09-18T13:39:22.000Z</time>
      </trkpt>
      <trkpt lat="43.93196" lon="6.53139">
        <ele>889.291711</ele>
        <time>2021-09-18T13:39:30.000Z</time>
      </trkpt>
      <trkpt lat="43.93173" lon="6.53145">
        <ele>889.2889</ele>
        <time>2021-09-18T13:39:35.000Z</time>
      </trkpt>
      <trkpt lat="43.93145" lon="6.53151">
        <ele>889.28549</ele>
        <time>2021-09-18T13:39:41.000Z</time>
      </trkpt>
      <trkpt lat="43.93122" lon="6.53155">
        <ele>889.282637</ele>
        <time>2021-09-18T13:39:46.000Z</time>
      </trkpt>
      <trkpt lat="43.93091" lon="6.5317">
        <ele>889.278704</ele>
        <time>2021-09-18T13:39:54.000Z</time>
      </trkpt>
      <trkpt lat="43.93063" lon="6.53186">
        <ele>889.09695</ele>
        <time>2021-09-18T13:40:01.000Z</time>
      </trkpt>
      <trkpt lat="43.93033" lon="6.532">
        <ele>888.900446</ele>
        <time>2021-09-18T13:40:08.000Z</time>
      </trkpt>
      <trkpt lat="43.93005" lon="6.53207">
        <ele>888.723889</ele>
        <time>2021-09-18T13:40:14.000Z</time>
      </trkpt>
      <trkpt lat="43.92962" lon="6.53214">
        <ele>888.461649</ele>
        <time>2021-09-18T13:40:23.000Z</time>
      </trkpt>
      <trkpt lat="43.9293" lon="6.53218">
        <ele>888.266238</ele>
        <time>2021-09-18T13:40:30.000Z</time>
      </trkpt>
      <trkpt lat="43.92889" lon="6.53225">
        <ele>888.061412</ele>
        <time>2021-09-18T13:40:39.000Z</time>
      </trkpt>
      <trkpt lat="43.92864" lon="6.53236">
        <ele>887.947481</ele>
        <time>2021-09-18T13:40:45.000Z</time>
      </trkpt>
      <trkpt lat="43.92835" lon="6.53256">
        <ele>887.809212</ele>
        <time>2021-09-18T13:40:52.000Z</time>
      </trkpt>
      <trkpt lat="43.9281" lon="6.53274">
        <ele>887.688041</ele>
        <time>2021-09-18T13:40:58.000Z</time>
      </trkpt>
      <trkpt lat="43.92785" lon="6.53285">
        <ele>887.575885</ele>
        <time>2021-09-18T13:41:04.000Z</time>
      </trkpt>
      <trkpt lat="43.92739" lon="6.53299">
        <ele>887.446817</ele>
        <time>2021-09-18T13:41:14.000Z</time>
      </trkpt>
      <trkpt lat="43.92699" lon="6.53311">
        <ele>887.692374</ele>
        <time>2021-09-18T13:41:23.000Z</time>
      </trkpt>
      <trkpt lat="43.92671" lon="6.53321">
        <ele>887.86383</ele>
        <time>2021-09-18T13:41:30.000Z</time>
      </trkpt>
      <trkpt lat="43.92643" lon="6.53332">
        <ele>888.040548</ele>
        <time>2021-09-18T13:41:38.000Z</time>
      </trkpt>
      <trkpt lat="43.92614" lon="6.5334">
        <ele>888.214605</ele>
        <time>2021-09-18T13:41:46.000Z</time>
      </trkpt>
      <trkpt lat="43.92592" lon="6.53336">
        <ele>888.349106</ele>
        <time>2021-09-18T13:41:52.000Z</time>
      </trkpt>
      <trkpt lat="43.92571" lon="6.53328">
        <ele>888.479441</ele>
        <time>2021-09-18T13:41:58.000Z</time>
      </trkpt>
      <trkpt lat="43.9255" lon="6.53321">
        <ele>888.941039</ele>
        <time>2021-09-18T13:42:04.000Z</time>
      </trkpt>
      <trkpt lat="43.92525" lon="6.53317">
        <ele>889.473041</ele>
        <time>2021-09-18T13:42:11.000Z</time>
      </trkpt>
      <trkpt lat="43.92498" lon="6.5332">
        <ele>890.055405</ele>
        <time>2021-09-18T13:42:19.000Z</time>
      </trkpt>
      <trkpt lat="43.92467" lon="6.53328">
        <ele>890.726185</ele>
        <time>2021-09-18T13:42:28.000Z</time>
      </trkpt>
      <trkpt lat="43.92443" lon="6.53331">
        <ele>891.242209</ele>
        <time>2021-09-18T13:42:35.000Z</time>
      </trkpt>
      <trkpt lat="43.92421" lon="6.5333">
        <ele>891.709509</ele>
        <time>2021-09-18T13:42:41.000Z</time>
      </trkpt>
      <trkpt lat="43.92396" lon="6.53326">
        <ele>892.237102</ele>
        <time>2021-09-18T13:42:48.000Z</time>
      </trkpt>
      <trkpt lat="43.92371" lon="6.53326">
        <ele>892.967896</ele>
        <time>2021-09-18T13:42:55.000Z</time>
      </trkpt>
      <trkpt lat="43.92346" lon="6.53339">
        <ele>893.766517</ele>
        <time>2021-09-18T13:43:03.000Z</time>
      </trkpt>
      <trkpt lat="43.92328" lon="6.53358">
        <ele>894.456745</ele>
        <time>2021-09-18T13:43:10.000Z</time>
      </trkpt>
      <trkpt lat="43.92311" lon="6.5338">
        <ele>895.168215</ele>
        <time>2021-09-18T13:43:17.000Z</time>
      </trkpt>
      <trkpt lat="43.92294" lon="6.53402">
        <ele>895.873002</ele>
        <time>2021-09-18T13:43:24.000Z</time>
      </trkpt>
      <trkpt lat="43.92271" lon="6.53429">
        <ele>896.772456</ele>
        <time>2021-09-18T13:43:32.000Z</time>
      </trkpt>
      <trkpt lat="43.9225" lon="6.53449">
        <ele>897.552026</ele>
        <time>2021-09-18T13:43:40.000Z</time>
      </trkpt>
      <trkpt lat="43.92227" lon="6.53466">
        <ele>898.309364</ele>
        <time>2021-09-18T13:43:48.000Z</time>
      </trkpt>
      <trkpt lat="43.92203" lon="6.5348">
        <ele>899.062812</ele>
        <time>2021-09-18T13:43:56.000Z</time>
      </trkpt>
      <trkpt lat="43.92177" lon="6.53489">
        <ele>899.83452</ele>
        <time>2021-09-18T13:44:04.000Z</time>
      </trkpt>
      <trkpt lat="43.9215" lon="6.53495">
        <ele>900.618707</ele>
        <time>2021-09-18T13:44:12.000Z</time>
      </trkpt>
      <trkpt lat="43.92129" lon="6.535">
        <ele>901.255015</ele>
        <time>2021-09-18T13:44:19.000Z</time>
      </trkpt>
      <trkpt lat="43.92106" lon="6.53507">
        <ele>901.913198</ele>
        <time>2021-09-18T13:44:26.000Z</time>
      </trkpt>
      <trkpt lat="43.9208" lon="6.53516">
        <ele>902.69861</ele>
        <time>2021-09-18T13:44:35.000Z</time>
      </trkpt>
      <trkpt lat="43.92045" lon="6.53524">
        <ele>903.707001</ele>
        <time>2021-09-18T13:44:45.000Z</time>
      </trkpt>
      <trkpt lat="43.92024" lon="6.53527">
        <ele>904.278843</ele>
        <time>2021-09-18T13:44:52.000Z</time>
      </trkpt>
      <trkpt lat="43.9201" lon="6.53539">
        <ele>904.751523</ele>
        <time>2021-09-18T13:44:58.000Z</time>
      </trkpt>
      <trkpt lat="43.91999" lon="6.53559">
        <ele>905.253131</ele>
        <time>2021-09-18T13:45:04.000Z</time>
      </trkpt>
      <trkpt lat="43.91987" lon="6.53582">
        <ele>905.839711</ele>
        <time>2021-09-18T13:45:11.000Z</time>
      </trkpt>
      <trkpt lat="43.9197" lon="6.53602">
        <ele>906.457952</ele>
        <time>2021-09-18T13:45:18.000Z</time>
      </trkpt>
      <trkpt lat="43.91954" lon="6.53611">
        <ele>906.944418</ele>
        <time>2021-09-18T13:45:23.000Z</time>
      </trkpt>
      <trkpt lat="43.91938" lon="6.53614">
        <ele>907.374627</ele>
        <time>2021-09-18T13:45:28.000Z</time>
      </trkpt>
      <trkpt lat="43.91921" lon="6.53619">
        <ele>907.860805</ele>
        <time>2021-09-18T13:45:34.000Z</time>
      </trkpt>
      <trkpt lat="43.91908" lon="6.53632">
        <ele>908.201383</ele>
        <time>2021-09-18T13:45:39.000Z</time>
      </trkpt>
      <trkpt lat="43.91895" lon="6.53655">
        <ele>908.579412</ele>
        <time>2021-09-18T13:45:45.000Z</time>
      </trkpt>
      <trkpt lat="43.91888" lon="6.53688">
        <ele>909.020457</ele>
        <time>2021-09-18T13:45:52.000Z</time>
      </trkpt>
      <trkpt lat="43.91888" lon="6.53725">
        <ele>909.504441</ele>
        <time>2021-09-18T13:45:59.000Z</time>
      </trkpt>
      <trkpt lat="43.9189" lon="6.53761">
        <ele>909.970523</ele>
        <time>2021-09-18T13:46:06.000Z</time>
      </trkpt>
      <trkpt lat="43.91891" lon="6.53782">
        <ele>910.251075</ele>
        <time>2021-09-18T13:46:10.000Z</time>
      </trkpt>
      <trkpt lat="43.91892" lon="6.53793">
        <ele>910.394101</ele>
        <time>2021-09-18T13:46:12.000Z</time>
      </trkpt>
      <trkpt lat="43.91901" lon="6.53828">
        <ele>910.874521</ele>
        <time>2021-09-18T13:46:19.000Z</time>
      </trkpt>
      <trkpt lat="43.91913" lon="6.53869">
        <ele>911.384696</ele>
        <time>2021-09-18T13:46:27.000Z</time>
      </trkpt>
      <trkpt lat="43.91916" lon="6.53885">
        <ele>911.545328</ele>
        <time>2021-09-18T13:46:30.000Z</time>
      </trkpt>
      <trkpt lat="43.91916" lon="6.53897">
        <ele>911.655293</ele>
        <time>2021-09-18T13:46:32.000Z</time>
      </trkpt>
      <trkpt lat="43.91913" lon="6.53913">
        <ele>911.819027</ele>
        <time>2021-09-18T13:46:35.000Z</time>
      </trkpt>
      <trkpt lat="43.91906" lon="6.53928">
        <ele>911.988524</ele>
        <time>2021-09-18T13:46:38.000Z</time>
      </trkpt>
      <trkpt lat="43.919" lon="6.53937">
        <ele>912.104374</ele>
        <time>2021-09-18T13:46:40.000Z</time>
      </trkpt>
      <trkpt lat="43.91889" lon="6.53945">
        <ele>912.272787</ele>
        <time>2021-09-18T13:46:43.000Z</time>
      </trkpt>
      <trkpt lat="43.91862" lon="6.53959">
        <ele>912.644608</ele>
        <time>2021-09-18T13:46:50.000Z</time>
      </trkpt>
      <trkpt lat="43.91853" lon="6.53963">
        <ele>912.770511</ele>
        <time>2021-09-18T13:46:53.000Z</time>
      </trkpt>
      <trkpt lat="43.91837" lon="6.53971">
        <ele>913.002635</ele>
        <time>2021-09-18T13:46:58.000Z</time>
      </trkpt>
      <trkpt lat="43.91805" lon="6.53986">
        <ele>913.450324</ele>
        <time>2021-09-18T13:47:06.000Z</time>
      </trkpt>
      <trkpt lat="43.9179" lon="6.53994">
        <ele>913.659397</ele>
        <time>2021-09-18T13:47:10.000Z</time>
      </trkpt>
      <trkpt lat="43.91767" lon="6.54006">
        <ele>913.956866</ele>
        <time>2021-09-18T13:47:16.000Z</time>
      </trkpt>
      <trkpt lat="43.91748" lon="6.54016">
        <ele>914.210502</ele>
        <time>2021-09-18T13:47:21.000Z</time>
      </trkpt>
      <trkpt lat="43.91721" lon="6.54033">
        <ele>914.574396</ele>
        <time>2021-09-18T13:47:28.000Z</time>
      </trkpt>
      <trkpt lat="43.91698" lon="6.54048">
        <ele>914.887049</ele>
        <time>2021-09-18T13:47:34.000Z</time>
      </trkpt>
      <trkpt lat="43.91671" lon="6.54066">
        <ele>915.255425</ele>
        <time>2021-09-18T13:47:41.000Z</time>
      </trkpt>
      <trkpt lat="43.91658" lon="6.54075">
        <ele>915.441299</ele>
        <time>2021-09-18T13:47:45.000Z</time>
      </trkpt>
      <trkpt lat="43.91639" lon="6.54087">
        <ele>915.704585</ele>
        <time>2021-09-18T13:47:50.000Z</time>
      </trkpt>
      <trkpt lat="43.91617" lon="6.54101">
        <ele>915.825902</ele>
        <time>2021-09-18T13:47:56.000Z</time>
      </trkpt>
      <trkpt lat="43.91599" lon="6.54113">
        <ele>915.825902</ele>
        <time>2021-09-18T13:48:01.000Z</time>
      </trkpt>
      <trkpt lat="43.91582" lon="6.54127">
        <ele>915.825902</ele>
        <time>2021-09-18T13:48:07.000Z</time>
      </trkpt>
      <trkpt lat="43.91572" lon="6.54137">
        <ele>915.825902</ele>
        <time>2021-09-18T13:48:12.000Z</time>
      </trkpt>
      <trkpt lat="43.91568" lon="6.54142">
        <ele>915.825902</ele>
        <time>2021-09-18T13:48:17.000Z</time>
      </trkpt>
      <trkpt lat="43.91566" lon="6.54137">
        <ele>915.825902</ele>
        <time>2021-09-18T13:48:32.000Z</time>
      </trkpt>
      <trkpt lat="43.9156" lon="6.54138">
        <ele>915.825902</ele>
        <time>2021-09-18T13:48:34.000Z</time>
      </trkpt>
      <trkpt lat="43.91547" lon="6.54145">
        <ele>915.825902</ele>
        <time>2021-09-18T13:48:39.000Z</time>
      </trkpt>
      <trkpt lat="43.91528" lon="6.54156">
        <ele>915.825902</ele>
        <time>2021-09-18T13:48:45.000Z</time>
      </trkpt>
      <trkpt lat="43.91513" lon="6.54167">
        <ele>915.825902</ele>
        <time>2021-09-18T13:48:51.000Z</time>
      </trkpt>
      <trkpt lat="43.915" lon="6.54168">
        <ele>915.825902</ele>
        <time>2021-09-18T13:48:57.000Z</time>
      </trkpt>
      <trkpt lat="43.91488" lon="6.54173">
        <ele>915.825902</ele>
        <time>2021-09-18T13:49:03.000Z</time>
      </trkpt>
      <trkpt lat="43.91473" lon="6.5418">
        <ele>915.825902</ele>
        <time>2021-09-18T13:49:10.000Z</time>
      </trkpt>
      <trkpt lat="43.91464" lon="6.54183">
        <ele>915.825902</ele>
        <time>2021-09-18T13:49:16.000Z</time>
      </trkpt>
      <trkpt lat="43.91463" lon="6.54184">
        <ele>915.825902</ele>
        <time>2021-09-18T13:49:18.000Z</time>
      </trkpt>
      <trkpt lat="43.91462" lon="6.54184">
        <ele>915.825902</ele>
        <time>2021-09-18T13:49:20.000Z</time>
      </trkpt>
    </trkseg>
  </trk>
  <trk>
    <name><![CDATA[Étape 15 : St-Julien-du-Verdon - Nice]]></name>
    <extensions>
      <line xmlns="http://www.topografix.com/GPX/gpx_style/0/2">
        <color>FFFF00</color>
        <width>4</width>
      </line>
    </extensions>
    <trkseg>
      <trkpt lat="43.91502" lon="6.54271">
        <ele>922.962691</ele>
        <time>2021-09-19T05:28:40.000Z</time>
      </trkpt>
      <trkpt lat="43.91497" lon="6.54288">
        <ele>922.962691</ele>
        <time>2021-09-19T05:28:45.000Z</time>
      </trkpt>
      <trkpt lat="43.91489" lon="6.54328">
        <ele>922.962691</ele>
        <time>2021-09-19T05:28:52.000Z</time>
      </trkpt>
      <trkpt lat="43.9148" lon="6.54356">
        <ele>922.962691</ele>
        <time>2021-09-19T05:28:59.000Z</time>
      </trkpt>
      <trkpt lat="43.91466" lon="6.54383">
        <ele>922.962691</ele>
        <time>2021-09-19T05:29:06.000Z</time>
      </trkpt>
      <trkpt lat="43.91447" lon="6.54415">
        <ele>923.755606</ele>
        <time>2021-09-19T05:29:15.000Z</time>
      </trkpt>
      <trkpt lat="43.91427" lon="6.54443">
        <ele>924.545698</ele>
        <time>2021-09-19T05:29:24.000Z</time>
      </trkpt>
      <trkpt lat="43.91407" lon="6.54474">
        <ele>925.370909</ele>
        <time>2021-09-19T05:29:34.000Z</time>
      </trkpt>
      <trkpt lat="43.91394" lon="6.54503">
        <ele>926.048116</ele>
        <time>2021-09-19T05:29:41.000Z</time>
      </trkpt>
      <trkpt lat="43.91388" lon="6.54526">
        <ele>926.538366</ele>
        <time>2021-09-19T05:29:48.000Z</time>
      </trkpt>
      <trkpt lat="43.91382" lon="6.54558">
        <ele>927.192505</ele>
        <time>2021-09-19T05:29:56.000Z</time>
      </trkpt>
      <trkpt lat="43.91374" lon="6.54596">
        <ele>928.035655</ele>
        <time>2021-09-19T05:30:06.000Z</time>
      </trkpt>
      <trkpt lat="43.91367" lon="6.54624">
        <ele>929.24994</ele>
        <time>2021-09-19T05:30:14.000Z</time>
      </trkpt>
      <trkpt lat="43.9136" lon="6.54652">
        <ele>930.46039</ele>
        <time>2021-09-19T05:30:22.000Z</time>
      </trkpt>
      <trkpt lat="43.91354" lon="6.54675">
        <ele>931.426058</ele>
        <time>2021-09-19T05:30:29.000Z</time>
      </trkpt>
      <trkpt lat="43.91347" lon="6.54703">
        <ele>932.661396</ele>
        <time>2021-09-19T05:30:37.000Z</time>
      </trkpt>
      <trkpt lat="43.91345" lon="6.54734">
        <ele>933.897237</ele>
        <time>2021-09-19T05:30:45.000Z</time>
      </trkpt>
      <trkpt lat="43.91349" lon="6.5477">
        <ele>935.409214</ele>
        <time>2021-09-19T05:30:55.000Z</time>
      </trkpt>
      <trkpt lat="43.91349" lon="6.54795">
        <ele>936.388997</ele>
        <time>2021-09-19T05:31:02.000Z</time>
      </trkpt>
      <trkpt lat="43.91349" lon="6.54796">
        <ele>936.451006</ele>
        <time>2021-09-19T05:31:04.000Z</time>
      </trkpt>
      <trkpt lat="43.91348" lon="6.54799">
        <ele>936.579022</ele>
        <time>2021-09-19T05:31:57.000Z</time>
      </trkpt>
      <trkpt lat="43.91348" lon="6.54802">
        <ele>936.695056</ele>
        <time>2021-09-19T05:31:58.000Z</time>
      </trkpt>
      <trkpt lat="43.91343" lon="6.54828">
        <ele>937.770336</ele>
        <time>2021-09-19T05:32:04.000Z</time>
      </trkpt>
      <trkpt lat="43.91334" lon="6.54868">
        <ele>939.030877</ele>
        <time>2021-09-19T05:32:13.000Z</time>
      </trkpt>
      <trkpt lat="43.91329" lon="6.54898">
        <ele>939.841041</ele>
        <time>2021-09-19T05:32:20.000Z</time>
      </trkpt>
      <trkpt lat="43.91327" lon="6.54932">
        <ele>940.780902</ele>
        <time>2021-09-19T05:32:28.000Z</time>
      </trkpt>
      <trkpt lat="43.91328" lon="6.54969">
        <ele>941.764936</ele>
        <time>2021-09-19T05:32:36.000Z</time>
      </trkpt>
      <trkpt lat="43.91336" lon="6.54991">
        <ele>942.455179</ele>
        <time>2021-09-19T05:32:42.000Z</time>
      </trkpt>
      <trkpt lat="43.9135" lon="6.55012">
        <ele>943.204234</ele>
        <time>2021-09-19T05:32:49.000Z</time>
      </trkpt>
      <trkpt lat="43.91364" lon="6.55037">
        <ele>944.067075</ele>
        <time>2021-09-19T05:32:57.000Z</time>
      </trkpt>
      <trkpt lat="43.91374" lon="6.55058">
        <ele>944.751054</ele>
        <time>2021-09-19T05:33:03.000Z</time>
      </trkpt>
      <trkpt lat="43.91385" lon="6.55084">
        <ele>945.527649</ele>
        <time>2021-09-19T05:33:10.000Z</time>
      </trkpt>
      <trkpt lat="43.91393" lon="6.55119">
        <ele>946.479659</ele>
        <time>2021-09-19T05:33:19.000Z</time>
      </trkpt>
      <trkpt lat="43.91397" lon="6.55157">
        <ele>947.477838</ele>
        <time>2021-09-19T05:33:28.000Z</time>
      </trkpt>
      <trkpt lat="43.91397" lon="6.55194">
        <ele>948.426516</ele>
        <time>2021-09-19T05:33:37.000Z</time>
      </trkpt>
      <trkpt lat="43.91395" lon="6.55246">
        <ele>949.760886</ele>
        <time>2021-09-19T05:33:49.000Z</time>
      </trkpt>
      <trkpt lat="43.91395" lon="6.55285">
        <ele>950.766048</ele>
        <time>2021-09-19T05:33:59.000Z</time>
      </trkpt>
      <trkpt lat="43.91399" lon="6.55335">
        <ele>952.102629</ele>
        <time>2021-09-19T05:34:10.000Z</time>
      </trkpt>
      <trkpt lat="43.91403" lon="6.55374">
        <ele>953.137762</ele>
        <time>2021-09-19T05:34:19.000Z</time>
      </trkpt>
      <trkpt lat="43.91405" lon="6.55407">
        <ele>954.037384</ele>
        <time>2021-09-19T05:34:27.000Z</time>
      </trkpt>
      <trkpt lat="43.91407" lon="6.55437">
        <ele>954.83282</ele>
        <time>2021-09-19T05:34:34.000Z</time>
      </trkpt>
      <trkpt lat="43.91409" lon="6.55474">
        <ele>955.843466</ele>
        <time>2021-09-19T05:34:43.000Z</time>
      </trkpt>
      <trkpt lat="43.91409" lon="6.55512">
        <ele>956.849903</ele>
        <time>2021-09-19T05:34:52.000Z</time>
      </trkpt>
      <trkpt lat="43.91406" lon="6.55543">
        <ele>957.698749</ele>
        <time>2021-09-19T05:34:59.000Z</time>
      </trkpt>
      <trkpt lat="43.91395" lon="6.55585">
        <ele>959.044059</ele>
        <time>2021-09-19T05:35:09.000Z</time>
      </trkpt>
      <trkpt lat="43.91387" lon="6.55612">
        <ele>959.952644</ele>
        <time>2021-09-19T05:35:16.000Z</time>
      </trkpt>
      <trkpt lat="43.91382" lon="6.5563">
        <ele>960.580625</ele>
        <time>2021-09-19T05:35:21.000Z</time>
      </trkpt>
      <trkpt lat="43.91378" lon="6.5566">
        <ele>961.555088</ele>
        <time>2021-09-19T05:35:29.000Z</time>
      </trkpt>
      <trkpt lat="43.9138" lon="6.55691">
        <ele>962.51559</ele>
        <time>2021-09-19T05:35:37.000Z</time>
      </trkpt>
      <trkpt lat="43.91386" lon="6.55718">
        <ele>963.411124</ele>
        <time>2021-09-19T05:35:44.000Z</time>
      </trkpt>
      <trkpt lat="43.91403" lon="6.55743">
        <ele>964.49389</ele>
        <time>2021-09-19T05:35:52.000Z</time>
      </trkpt>
      <trkpt lat="43.91424" lon="6.55764">
        <ele>965.629194</ele>
        <time>2021-09-19T05:36:01.000Z</time>
      </trkpt>
      <trkpt lat="43.91444" lon="6.55782">
        <ele>966.532641</ele>
        <time>2021-09-19T05:36:09.000Z</time>
      </trkpt>
      <trkpt lat="43.91462" lon="6.55804">
        <ele>967.377804</ele>
        <time>2021-09-19T05:36:17.000Z</time>
      </trkpt>
      <trkpt lat="43.91475" lon="6.55835">
        <ele>968.313115</ele>
        <time>2021-09-19T05:36:25.000Z</time>
      </trkpt>
      <trkpt lat="43.91483" lon="6.55869">
        <ele>969.251096</ele>
        <time>2021-09-19T05:36:33.000Z</time>
      </trkpt>
      <trkpt lat="43.91488" lon="6.55907">
        <ele>970.244503</ele>
        <time>2021-09-19T05:36:41.000Z</time>
      </trkpt>
      <trkpt lat="43.91487" lon="6.55953">
        <ele>971.446536</ele>
        <time>2021-09-19T05:36:50.000Z</time>
      </trkpt>
      <trkpt lat="43.91479" lon="6.55988">
        <ele>972.439195</ele>
        <time>2021-09-19T05:36:57.000Z</time>
      </trkpt>
      <trkpt lat="43.91464" lon="6.56033">
        <ele>974.116892</ele>
        <time>2021-09-19T05:37:06.000Z</time>
      </trkpt>
      <trkpt lat="43.91449" lon="6.56081">
        <ele>975.885393</ele>
        <time>2021-09-19T05:37:16.000Z</time>
      </trkpt>
      <trkpt lat="43.91444" lon="6.56123">
        <ele>977.316624</ele>
        <time>2021-09-19T05:37:24.000Z</time>
      </trkpt>
      <trkpt lat="43.91444" lon="6.56164">
        <ele>978.709703</ele>
        <time>2021-09-19T05:37:32.000Z</time>
      </trkpt>
      <trkpt lat="43.91455" lon="6.56197">
        <ele>979.956728</ele>
        <time>2021-09-19T05:37:39.000Z</time>
      </trkpt>
      <trkpt lat="43.91474" lon="6.5624">
        <ele>981.232944</ele>
        <time>2021-09-19T05:37:49.000Z</time>
      </trkpt>
      <trkpt lat="43.91487" lon="6.56275">
        <ele>981.924158</ele>
        <time>2021-09-19T05:37:56.000Z</time>
      </trkpt>
      <trkpt lat="43.91492" lon="6.56323">
        <ele>982.756594</ele>
        <time>2021-09-19T05:38:05.000Z</time>
      </trkpt>
      <trkpt lat="43.91498" lon="6.56365">
        <ele>983.505229</ele>
        <time>2021-09-19T05:38:13.000Z</time>
      </trkpt>
      <trkpt lat="43.91504" lon="6.56405">
        <ele>984.219295</ele>
        <time>2021-09-19T05:38:20.000Z</time>
      </trkpt>
      <trkpt lat="43.91505" lon="6.5641">
        <ele>984.317959</ele>
        <time>2021-09-19T05:38:21.000Z</time>
      </trkpt>
      <trkpt lat="43.91504" lon="6.56463">
        <ele>985.270775</ele>
        <time>2021-09-19T05:38:30.000Z</time>
      </trkpt>
      <trkpt lat="43.91501" lon="6.56526">
        <ele>986.667774</ele>
        <time>2021-09-19T05:38:41.000Z</time>
      </trkpt>
      <trkpt lat="43.91499" lon="6.56564">
        <ele>987.536708</ele>
        <time>2021-09-19T05:38:48.000Z</time>
      </trkpt>
      <trkpt lat="43.91495" lon="6.56608">
        <ele>988.513697</ele>
        <time>2021-09-19T05:38:56.000Z</time>
      </trkpt>
      <trkpt lat="43.9149" lon="6.56644">
        <ele>989.334492</ele>
        <time>2021-09-19T05:39:03.000Z</time>
      </trkpt>
      <trkpt lat="43.91478" lon="6.56704">
        <ele>990.73755</ele>
        <time>2021-09-19T05:39:14.000Z</time>
      </trkpt>
      <trkpt lat="43.91467" lon="6.56745">
        <ele>991.717521</ele>
        <time>2021-09-19T05:39:23.000Z</time>
      </trkpt>
      <trkpt lat="43.91454" lon="6.56784">
        <ele>992.667811</ele>
        <time>2021-09-19T05:39:31.000Z</time>
      </trkpt>
      <trkpt lat="43.91435" lon="6.56809">
        <ele>993.503226</ele>
        <time>2021-09-19T05:39:38.000Z</time>
      </trkpt>
      <trkpt lat="43.91415" lon="6.56843">
        <ele>994.485164</ele>
        <time>2021-09-19T05:39:46.000Z</time>
      </trkpt>
      <trkpt lat="43.91402" lon="6.56889">
        <ele>995.576336</ele>
        <time>2021-09-19T05:39:55.000Z</time>
      </trkpt>
      <trkpt lat="43.91394" lon="6.56931">
        <ele>996.530945</ele>
        <time>2021-09-19T05:40:03.000Z</time>
      </trkpt>
      <trkpt lat="43.91392" lon="6.56943">
        <ele>996.755059</ele>
        <time>2021-09-19T05:40:05.000Z</time>
      </trkpt>
      <trkpt lat="43.91385" lon="6.56969">
        <ele>997.310032</ele>
        <time>2021-09-19T05:40:10.000Z</time>
      </trkpt>
      <trkpt lat="43.91367" lon="6.5702">
        <ele>998.397564</ele>
        <time>2021-09-19T05:40:20.000Z</time>
      </trkpt>
      <trkpt lat="43.9136" lon="6.57051">
        <ele>999.035353</ele>
        <time>2021-09-19T05:40:26.000Z</time>
      </trkpt>
      <trkpt lat="43.91361" lon="6.57084">
        <ele>999.683319</ele>
        <time>2021-09-19T05:40:32.000Z</time>
      </trkpt>
      <trkpt lat="43.91375" lon="6.57138">
        <ele>1000.782333</ele>
        <time>2021-09-19T05:40:42.000Z</time>
      </trkpt>
      <trkpt lat="43.9138" lon="6.57175">
        <ele>1001.592897</ele>
        <time>2021-09-19T05:40:49.000Z</time>
      </trkpt>
      <trkpt lat="43.91382" lon="6.5722">
        <ele>1002.595613</ele>
        <time>2021-09-19T05:40:57.000Z</time>
      </trkpt>
      <trkpt lat="43.91384" lon="6.57258">
        <ele>1003.468645</ele>
        <time>2021-09-19T05:41:04.000Z</time>
      </trkpt>
      <trkpt lat="43.91386" lon="6.57313">
        <ele>1004.714679</ele>
        <time>2021-09-19T05:41:14.000Z</time>
      </trkpt>
      <trkpt lat="43.91388" lon="6.57344">
        <ele>1005.419334</ele>
        <time>2021-09-19T05:41:20.000Z</time>
      </trkpt>
      <trkpt lat="43.91388" lon="6.57395">
        <ele>1006.583453</ele>
        <time>2021-09-19T05:41:30.000Z</time>
      </trkpt>
      <trkpt lat="43.91388" lon="6.57429">
        <ele>1007.44112</ele>
        <time>2021-09-19T05:41:37.000Z</time>
      </trkpt>
      <trkpt lat="43.91386" lon="6.57464">
        <ele>1008.346685</ele>
        <time>2021-09-19T05:41:44.000Z</time>
      </trkpt>
      <trkpt lat="43.91384" lon="6.57504">
        <ele>1009.378038</ele>
        <time>2021-09-19T05:41:52.000Z</time>
      </trkpt>
      <trkpt lat="43.91379" lon="6.5755">
        <ele>1010.594021</ele>
        <time>2021-09-19T05:42:01.000Z</time>
      </trkpt>
      <trkpt lat="43.91376" lon="6.57597">
        <ele>1011.80721</ele>
        <time>2021-09-19T05:42:10.000Z</time>
      </trkpt>
      <trkpt lat="43.91379" lon="6.57651">
        <ele>1013.206579</ele>
        <time>2021-09-19T05:42:19.000Z</time>
      </trkpt>
      <trkpt lat="43.9138" lon="6.5771">
        <ele>1013.768262</ele>
        <time>2021-09-19T05:42:28.000Z</time>
      </trkpt>
      <trkpt lat="43.9138" lon="6.57716">
        <ele>1013.823889</ele>
        <time>2021-09-19T05:42:29.000Z</time>
      </trkpt>
      <trkpt lat="43.9138" lon="6.57754">
        <ele>1014.154178</ele>
        <time>2021-09-19T05:42:35.000Z</time>
      </trkpt>
      <trkpt lat="43.91385" lon="6.57784">
        <ele>1014.421551</ele>
        <time>2021-09-19T05:42:40.000Z</time>
      </trkpt>
      <trkpt lat="43.91386" lon="6.57789">
        <ele>1014.468572</ele>
        <time>2021-09-19T05:42:41.000Z</time>
      </trkpt>
      <trkpt lat="43.91402" lon="6.5784">
        <ele>1014.943615</ele>
        <time>2021-09-19T05:42:51.000Z</time>
      </trkpt>
      <trkpt lat="43.91412" lon="6.57872">
        <ele>1015.256872</ele>
        <time>2021-09-19T05:42:58.000Z</time>
      </trkpt>
      <trkpt lat="43.91423" lon="6.57907">
        <ele>1015.578588</ele>
        <time>2021-09-19T05:43:05.000Z</time>
      </trkpt>
      <trkpt lat="43.91433" lon="6.57946">
        <ele>1015.929825</ele>
        <time>2021-09-19T05:43:13.000Z</time>
      </trkpt>
      <trkpt lat="43.91437" lon="6.57978">
        <ele>1016.208355</ele>
        <time>2021-09-19T05:43:20.000Z</time>
      </trkpt>
      <trkpt lat="43.91437" lon="6.58015">
        <ele>1016.519534</ele>
        <time>2021-09-19T05:43:27.000Z</time>
      </trkpt>
      <trkpt lat="43.91436" lon="6.58054">
        <ele>1016.844369</ele>
        <time>2021-09-19T05:43:34.000Z</time>
      </trkpt>
      <trkpt lat="43.91435" lon="6.58091">
        <ele>1017.163255</ele>
        <time>2021-09-19T05:43:41.000Z</time>
      </trkpt>
      <trkpt lat="43.91438" lon="6.58146">
        <ele>1017.666789</ele>
        <time>2021-09-19T05:43:51.000Z</time>
      </trkpt>
      <trkpt lat="43.91441" lon="6.58185">
        <ele>1018.171232</ele>
        <time>2021-09-19T05:43:58.000Z</time>
      </trkpt>
      <trkpt lat="43.91441" lon="6.58219">
        <ele>1018.614812</ele>
        <time>2021-09-19T05:44:04.000Z</time>
      </trkpt>
      <trkpt lat="43.91441" lon="6.58224">
        <ele>1018.685309</ele>
        <time>2021-09-19T05:44:05.000Z</time>
      </trkpt>
      <trkpt lat="43.91438" lon="6.58245">
        <ele>1018.968583</ele>
        <time>2021-09-19T05:44:08.000Z</time>
      </trkpt>
      <trkpt lat="43.91442" lon="6.58254">
        <ele>1019.107675</ele>
        <time>2021-09-19T05:44:11.000Z</time>
      </trkpt>
      <trkpt lat="43.91444" lon="6.58255">
        <ele>1019.143394</ele>
        <time>2021-09-19T05:44:12.000Z</time>
      </trkpt>
      <trkpt lat="43.91446" lon="6.58256">
        <ele>1019.179112</ele>
        <time>2021-09-19T05:44:14.000Z</time>
      </trkpt>
      <trkpt lat="43.91437" lon="6.5825">
        <ele>1019.357172</ele>
        <time>2021-09-19T05:44:21.000Z</time>
      </trkpt>
      <trkpt lat="43.91437" lon="6.58251">
        <ele>1019.366509</ele>
        <time>2021-09-19T05:44:23.000Z</time>
      </trkpt>
      <trkpt lat="43.91434" lon="6.58267">
        <ele>1019.583758</ele>
        <time>2021-09-19T05:44:25.000Z</time>
      </trkpt>
      <trkpt lat="43.91435" lon="6.58263">
        <ele>1019.636811</ele>
        <time>2021-09-19T05:44:27.000Z</time>
      </trkpt>
      <trkpt lat="43.91427" lon="6.58287">
        <ele>1019.981608</ele>
        <time>2021-09-19T05:44:35.000Z</time>
      </trkpt>
      <trkpt lat="43.91419" lon="6.58305">
        <ele>1020.254576</ele>
        <time>2021-09-19T05:44:40.000Z</time>
      </trkpt>
      <trkpt lat="43.91409" lon="6.58328">
        <ele>1020.617648</ele>
        <time>2021-09-19T05:44:45.000Z</time>
      </trkpt>
      <trkpt lat="43.91402" lon="6.58344">
        <ele>1020.864116</ele>
        <time>2021-09-19T05:44:48.000Z</time>
      </trkpt>
      <trkpt lat="43.91388" lon="6.58383">
        <ele>1021.657226</ele>
        <time>2021-09-19T05:44:55.000Z</time>
      </trkpt>
      <trkpt lat="43.91373" lon="6.58431">
        <ele>1022.608236</ele>
        <time>2021-09-19T05:45:03.000Z</time>
      </trkpt>
      <trkpt lat="43.91361" lon="6.58487">
        <ele>1023.655298</ele>
        <time>2021-09-19T05:45:11.000Z</time>
      </trkpt>
      <trkpt lat="43.9136" lon="6.58529">
        <ele>1024.413227</ele>
        <time>2021-09-19T05:45:17.000Z</time>
      </trkpt>
      <trkpt lat="43.9136" lon="6.58541">
        <ele>1024.643272</ele>
        <time>2021-09-19T05:45:19.000Z</time>
      </trkpt>
      <trkpt lat="43.91361" lon="6.58585">
        <ele>1025.400014</ele>
        <time>2021-09-19T05:45:26.000Z</time>
      </trkpt>
      <trkpt lat="43.91361" lon="6.58622">
        <ele>1025.807372</ele>
        <time>2021-09-19T05:45:32.000Z</time>
      </trkpt>
      <trkpt lat="43.91361" lon="6.58625">
        <ele>1025.848237</ele>
        <time>2021-09-19T05:45:34.000Z</time>
      </trkpt>
      <trkpt lat="43.91361" lon="6.58629">
        <ele>1025.883555</ele>
        <time>2021-09-19T05:45:42.000Z</time>
      </trkpt>
      <trkpt lat="43.91362" lon="6.58644">
        <ele>1026.059099</ele>
        <time>2021-09-19T05:45:48.000Z</time>
      </trkpt>
      <trkpt lat="43.91362" lon="6.58672">
        <ele>1026.361695</ele>
        <time>2021-09-19T05:45:54.000Z</time>
      </trkpt>
      <trkpt lat="43.91362" lon="6.58673">
        <ele>1026.377222</ele>
        <time>2021-09-19T05:45:57.000Z</time>
      </trkpt>
      <trkpt lat="43.91363" lon="6.58676">
        <ele>1026.411573</ele>
        <time>2021-09-19T05:46:07.000Z</time>
      </trkpt>
      <trkpt lat="43.91366" lon="6.58693">
        <ele>1026.605648</ele>
        <time>2021-09-19T05:46:12.000Z</time>
      </trkpt>
      <trkpt lat="43.91376" lon="6.58729">
        <ele>1027.031569</ele>
        <time>2021-09-19T05:46:19.000Z</time>
      </trkpt>
      <trkpt lat="43.91385" lon="6.58757">
        <ele>1027.360639</ele>
        <time>2021-09-19T05:46:26.000Z</time>
      </trkpt>
      <trkpt lat="43.91385" lon="6.58786">
        <ele>1027.679603</ele>
        <time>2021-09-19T05:46:32.000Z</time>
      </trkpt>
      <trkpt lat="43.91373" lon="6.58827">
        <ele>1028.234769</ele>
        <time>2021-09-19T05:46:42.000Z</time>
      </trkpt>
      <trkpt lat="43.91355" lon="6.58862">
        <ele>1029.313571</ele>
        <time>2021-09-19T05:46:52.000Z</time>
      </trkpt>
      <trkpt lat="43.91339" lon="6.58893">
        <ele>1030.266112</ele>
        <time>2021-09-19T05:47:01.000Z</time>
      </trkpt>
      <trkpt lat="43.91324" lon="6.5893">
        <ele>1031.364118</ele>
        <time>2021-09-19T05:47:11.000Z</time>
      </trkpt>
      <trkpt lat="43.91313" lon="6.58966">
        <ele>1032.326158</ele>
        <time>2021-09-19T05:47:20.000Z</time>
      </trkpt>
      <trkpt lat="43.91307" lon="6.58995">
        <ele>1033.098983</ele>
        <time>2021-09-19T05:47:27.000Z</time>
      </trkpt>
      <trkpt lat="43.91303" lon="6.59014">
        <ele>1033.588789</ele>
        <time>2021-09-19T05:47:33.000Z</time>
      </trkpt>
      <trkpt lat="43.91294" lon="6.59045">
        <ele>1034.438488</ele>
        <time>2021-09-19T05:47:42.000Z</time>
      </trkpt>
      <trkpt lat="43.91281" lon="6.59083">
        <ele>1035.655674</ele>
        <time>2021-09-19T05:47:53.000Z</time>
      </trkpt>
      <trkpt lat="43.91274" lon="6.59112">
        <ele>1036.539468</ele>
        <time>2021-09-19T05:48:01.000Z</time>
      </trkpt>
      <trkpt lat="43.91273" lon="6.59145">
        <ele>1037.495841</ele>
        <time>2021-09-19T05:48:10.000Z</time>
      </trkpt>
      <trkpt lat="43.91276" lon="6.59169">
        <ele>1038.224761</ele>
        <time>2021-09-19T05:48:17.000Z</time>
      </trkpt>
      <trkpt lat="43.9128" lon="6.59196">
        <ele>1039.001623</ele>
        <time>2021-09-19T05:48:24.000Z</time>
      </trkpt>
      <trkpt lat="43.9128" lon="6.59222">
        <ele>1039.759681</ele>
        <time>2021-09-19T05:48:31.000Z</time>
      </trkpt>
      <trkpt lat="43.91276" lon="6.59252">
        <ele>1040.652059</ele>
        <time>2021-09-19T05:48:39.000Z</time>
      </trkpt>
      <trkpt lat="43.91266" lon="6.59285">
        <ele>1041.696392</ele>
        <time>2021-09-19T05:48:48.000Z</time>
      </trkpt>
      <trkpt lat="43.91258" lon="6.5931">
        <ele>1042.493103</ele>
        <time>2021-09-19T05:48:55.000Z</time>
      </trkpt>
      <trkpt lat="43.9125" lon="6.59348">
        <ele>1043.628995</ele>
        <time>2021-09-19T05:49:05.000Z</time>
      </trkpt>
      <trkpt lat="43.91248" lon="6.59372">
        <ele>1044.341913</ele>
        <time>2021-09-19T05:49:11.000Z</time>
      </trkpt>
      <trkpt lat="43.91247" lon="6.59398">
        <ele>1045.090531</ele>
        <time>2021-09-19T05:49:18.000Z</time>
      </trkpt>
      <trkpt lat="43.91246" lon="6.59422">
        <ele>1045.794846</ele>
        <time>2021-09-19T05:49:25.000Z</time>
      </trkpt>
      <trkpt lat="43.91245" lon="6.59451">
        <ele>1046.650605</ele>
        <time>2021-09-19T05:49:32.000Z</time>
      </trkpt>
      <trkpt lat="43.91244" lon="6.59501">
        <ele>1048.091353</ele>
        <time>2021-09-19T05:49:43.000Z</time>
      </trkpt>
      <trkpt lat="43.91243" lon="6.59535">
        <ele>1049.071238</ele>
        <time>2021-09-19T05:49:51.000Z</time>
      </trkpt>
      <trkpt lat="43.91242" lon="6.59574">
        <ele>1050.105591</ele>
        <time>2021-09-19T05:50:00.000Z</time>
      </trkpt>
      <trkpt lat="43.91242" lon="6.59595">
        <ele>1050.666782</ele>
        <time>2021-09-19T05:50:06.000Z</time>
      </trkpt>
      <trkpt lat="43.91242" lon="6.59596">
        <ele>1050.704371</ele>
        <time>2021-09-19T05:50:08.000Z</time>
      </trkpt>
      <trkpt lat="43.91242" lon="6.59602">
        <ele>1050.878888</ele>
        <time>2021-09-19T05:50:21.000Z</time>
      </trkpt>
      <trkpt lat="43.91242" lon="6.59606">
        <ele>1050.975544</ele>
        <time>2021-09-19T05:50:22.000Z</time>
      </trkpt>
      <trkpt lat="43.91244" lon="6.59633">
        <ele>1051.691748</ele>
        <time>2021-09-19T05:50:29.000Z</time>
      </trkpt>
      <trkpt lat="43.91251" lon="6.59659">
        <ele>1052.439491</ele>
        <time>2021-09-19T05:50:35.000Z</time>
      </trkpt>
      <trkpt lat="43.91269" lon="6.59696">
        <ele>1053.636273</ele>
        <time>2021-09-19T05:50:44.000Z</time>
      </trkpt>
      <trkpt lat="43.91283" lon="6.59725">
        <ele>1054.591263</ele>
        <time>2021-09-19T05:50:51.000Z</time>
      </trkpt>
      <trkpt lat="43.9129" lon="6.59751">
        <ele>1055.334118</ele>
        <time>2021-09-19T05:50:57.000Z</time>
      </trkpt>
      <trkpt lat="43.91291" lon="6.59778">
        <ele>1055.924571</ele>
        <time>2021-09-19T05:51:03.000Z</time>
      </trkpt>
      <trkpt lat="43.91295" lon="6.59823">
        <ele>1056.79473</ele>
        <time>2021-09-19T05:51:11.000Z</time>
      </trkpt>
      <trkpt lat="43.91299" lon="6.59855">
        <ele>1057.438292</ele>
        <time>2021-09-19T05:51:19.000Z</time>
      </trkpt>
      <trkpt lat="43.91303" lon="6.59884">
        <ele>1058.002647</ele>
        <time>2021-09-19T05:51:25.000Z</time>
      </trkpt>
      <trkpt lat="43.91304" lon="6.59915">
        <ele>1058.61561</ele>
        <time>2021-09-19T05:51:31.000Z</time>
      </trkpt>
      <trkpt lat="43.91297" lon="6.59946">
        <ele>1059.242422</ele>
        <time>2021-09-19T05:51:37.000Z</time>
      </trkpt>
      <trkpt lat="43.91281" lon="6.59994">
        <ele>1060.260832</ele>
        <time>2021-09-19T05:51:47.000Z</time>
      </trkpt>
      <trkpt lat="43.91263" lon="6.60044">
        <ele>1061.133034</ele>
        <time>2021-09-19T05:51:57.000Z</time>
      </trkpt>
      <trkpt lat="43.91243" lon="6.6011">
        <ele>1062.186454</ele>
        <time>2021-09-19T05:52:09.000Z</time>
      </trkpt>
      <trkpt lat="43.9123" lon="6.60173">
        <ele>1063.173523</ele>
        <time>2021-09-19T05:52:20.000Z</time>
      </trkpt>
      <trkpt lat="43.91225" lon="6.60221">
        <ele>1063.887581</ele>
        <time>2021-09-19T05:52:28.000Z</time>
      </trkpt>
      <trkpt lat="43.91227" lon="6.60273">
        <ele>1064.649886</ele>
        <time>2021-09-19T05:52:37.000Z</time>
      </trkpt>
      <trkpt lat="43.91231" lon="6.60334">
        <ele>1065.545505</ele>
        <time>2021-09-19T05:52:48.000Z</time>
      </trkpt>
      <trkpt lat="43.91234" lon="6.60384">
        <ele>1066.273064</ele>
        <time>2021-09-19T05:52:57.000Z</time>
      </trkpt>
      <trkpt lat="43.91237" lon="6.6043">
        <ele>1066.94514</ele>
        <time>2021-09-19T05:53:05.000Z</time>
      </trkpt>
      <trkpt lat="43.91242" lon="6.60502">
        <ele>1068.042809</ele>
        <time>2021-09-19T05:53:18.000Z</time>
      </trkpt>
      <trkpt lat="43.91249" lon="6.60534">
        <ele>1068.599861</ele>
        <time>2021-09-19T05:53:24.000Z</time>
      </trkpt>
      <trkpt lat="43.91253" lon="6.60543">
        <ele>1068.788495</ele>
        <time>2021-09-19T05:53:26.000Z</time>
      </trkpt>
      <trkpt lat="43.91266" lon="6.60565">
        <ele>1069.271503</ele>
        <time>2021-09-19T05:53:31.000Z</time>
      </trkpt>
      <trkpt lat="43.91288" lon="6.60596">
        <ele>1070.008486</ele>
        <time>2021-09-19T05:53:39.000Z</time>
      </trkpt>
      <trkpt lat="43.91308" lon="6.60618">
        <ele>1070.616599</ele>
        <time>2021-09-19T05:53:46.000Z</time>
      </trkpt>
      <trkpt lat="43.91331" lon="6.60637">
        <ele>1071.249316</ele>
        <time>2021-09-19T05:53:53.000Z</time>
      </trkpt>
      <trkpt lat="43.91352" lon="6.60653">
        <ele>1071.813167</ele>
        <time>2021-09-19T05:54:00.000Z</time>
      </trkpt>
      <trkpt lat="43.91374" lon="6.60669">
        <ele>1072.47758</ele>
        <time>2021-09-19T05:54:07.000Z</time>
      </trkpt>
      <trkpt lat="43.91401" lon="6.60679">
        <ele>1073.274844</ele>
        <time>2021-09-19T05:54:14.000Z</time>
      </trkpt>
      <trkpt lat="43.91436" lon="6.60684">
        <ele>1074.295136</ele>
        <time>2021-09-19T05:54:23.000Z</time>
      </trkpt>
      <trkpt lat="43.91479" lon="6.6068">
        <ele>1075.536679</ele>
        <time>2021-09-19T05:54:34.000Z</time>
      </trkpt>
      <trkpt lat="43.91506" lon="6.60676">
        <ele>1076.322789</ele>
        <time>2021-09-19T05:54:41.000Z</time>
      </trkpt>
      <trkpt lat="43.91533" lon="6.60677">
        <ele>1077.08197</ele>
        <time>2021-09-19T05:54:48.000Z</time>
      </trkpt>
      <trkpt lat="43.91553" lon="6.60688">
        <ele>1078.000931</ele>
        <time>2021-09-19T05:54:55.000Z</time>
      </trkpt>
      <trkpt lat="43.9157" lon="6.60705">
        <ele>1078.903547</ele>
        <time>2021-09-19T05:55:02.000Z</time>
      </trkpt>
      <trkpt lat="43.91585" lon="6.60739">
        <ele>1080.180115</ele>
        <time>2021-09-19T05:55:12.000Z</time>
      </trkpt>
      <trkpt lat="43.91595" lon="6.60761">
        <ele>1081.020563</ele>
        <time>2021-09-19T05:55:19.000Z</time>
      </trkpt>
      <trkpt lat="43.91604" lon="6.60781">
        <ele>1081.765259</ele>
        <time>2021-09-19T05:55:25.000Z</time>
      </trkpt>
      <trkpt lat="43.91624" lon="6.60824">
        <ele>1083.414302</ele>
        <time>2021-09-19T05:55:37.000Z</time>
      </trkpt>
      <trkpt lat="43.91638" lon="6.60848">
        <ele>1084.37265</ele>
        <time>2021-09-19T05:55:46.000Z</time>
      </trkpt>
      <trkpt lat="43.91656" lon="6.60878">
        <ele>1085.726759</ele>
        <time>2021-09-19T05:55:56.000Z</time>
      </trkpt>
      <trkpt lat="43.91674" lon="6.60903">
        <ele>1087.036886</ele>
        <time>2021-09-19T05:56:05.000Z</time>
      </trkpt>
      <trkpt lat="43.91695" lon="6.60922">
        <ele>1088.338754</ele>
        <time>2021-09-19T05:56:14.000Z</time>
      </trkpt>
      <trkpt lat="43.91722" lon="6.60942">
        <ele>1089.956002</ele>
        <time>2021-09-19T05:56:25.000Z</time>
      </trkpt>
      <trkpt lat="43.9174" lon="6.6096">
        <ele>1091.102812</ele>
        <time>2021-09-19T05:56:33.000Z</time>
      </trkpt>
      <trkpt lat="43.91751" lon="6.60981">
        <ele>1092.078262</ele>
        <time>2021-09-19T05:56:40.000Z</time>
      </trkpt>
      <trkpt lat="43.91759" lon="6.61014">
        <ele>1093.350529</ele>
        <time>2021-09-19T05:56:49.000Z</time>
      </trkpt>
      <trkpt lat="43.91765" lon="6.61044">
        <ele>1094.544723</ele>
        <time>2021-09-19T05:56:59.000Z</time>
      </trkpt>
      <trkpt lat="43.9177" lon="6.61073">
        <ele>1095.637018</ele>
        <time>2021-09-19T05:57:07.000Z</time>
      </trkpt>
      <trkpt lat="43.91777" lon="6.61094">
        <ele>1096.510655</ele>
        <time>2021-09-19T05:57:13.000Z</time>
      </trkpt>
      <trkpt lat="43.91787" lon="6.61114">
        <ele>1097.400576</ele>
        <time>2021-09-19T05:57:19.000Z</time>
      </trkpt>
      <trkpt lat="43.918" lon="6.61136">
        <ele>1098.446</ele>
        <time>2021-09-19T05:57:26.000Z</time>
      </trkpt>
      <trkpt lat="43.91816" lon="6.61162">
        <ele>1099.724274</ele>
        <time>2021-09-19T05:57:35.000Z</time>
      </trkpt>
      <trkpt lat="43.91827" lon="6.61182">
        <ele>1100.685233</ele>
        <time>2021-09-19T05:57:42.000Z</time>
      </trkpt>
      <trkpt lat="43.91843" lon="6.61209">
        <ele>1101.981546</ele>
        <time>2021-09-19T05:57:51.000Z</time>
      </trkpt>
      <trkpt lat="43.91856" lon="6.61233">
        <ele>1103.098058</ele>
        <time>2021-09-19T05:57:59.000Z</time>
      </trkpt>
      <trkpt lat="43.91868" lon="6.61258">
        <ele>1104.239304</ele>
        <time>2021-09-19T05:58:07.000Z</time>
      </trkpt>
      <trkpt lat="43.91883" lon="6.61288">
        <ele>1105.70674</ele>
        <time>2021-09-19T05:58:17.000Z</time>
      </trkpt>
      <trkpt lat="43.91894" lon="6.6131">
        <ele>1106.760446</ele>
        <time>2021-09-19T05:58:24.000Z</time>
      </trkpt>
      <trkpt lat="43.91912" lon="6.61339">
        <ele>1108.248619</ele>
        <time>2021-09-19T05:58:34.000Z</time>
      </trkpt>
      <trkpt lat="43.91926" lon="6.61362">
        <ele>1109.484328</ele>
        <time>2021-09-19T05:58:43.000Z</time>
      </trkpt>
      <trkpt lat="43.91931" lon="6.61368">
        <ele>1109.849478</ele>
        <time>2021-09-19T05:58:48.000Z</time>
      </trkpt>
      <trkpt lat="43.91932" lon="6.6137">
        <ele>1109.914584</ele>
        <time>2021-09-19T05:58:52.000Z</time>
      </trkpt>
      <trkpt lat="43.91935" lon="6.61374">
        <ele>1110.187764</ele>
        <time>2021-09-19T05:58:54.000Z</time>
      </trkpt>
      <trkpt lat="43.91943" lon="6.61385">
        <ele>1110.794968</ele>
        <time>2021-09-19T05:59:00.000Z</time>
      </trkpt>
      <trkpt lat="43.91951" lon="6.61391">
        <ele>1111.265106</ele>
        <time>2021-09-19T05:59:04.000Z</time>
      </trkpt>
      <trkpt lat="43.91948" lon="6.6139">
        <ele>1111.428314</ele>
        <time>2021-09-19T05:59:05.000Z</time>
      </trkpt>
      <trkpt lat="43.91953" lon="6.61392">
        <ele>1111.75473</ele>
        <time>2021-09-19T05:59:29.000Z</time>
      </trkpt>
      <trkpt lat="43.9196" lon="6.61395">
        <ele>1112.133381</ele>
        <time>2021-09-19T05:59:31.000Z</time>
      </trkpt>
      <trkpt lat="43.91969" lon="6.61399">
        <ele>1112.650505</ele>
        <time>2021-09-19T05:59:35.000Z</time>
      </trkpt>
      <trkpt lat="43.91973" lon="6.61401">
        <ele>1112.872456</ele>
        <time>2021-09-19T05:59:36.000Z</time>
      </trkpt>
      <trkpt lat="43.91994" lon="6.61403">
        <ele>1113.725829</ele>
        <time>2021-09-19T05:59:40.000Z</time>
      </trkpt>
      <trkpt lat="43.92021" lon="6.61406">
        <ele>1113.750104</ele>
        <time>2021-09-19T05:59:44.000Z</time>
      </trkpt>
      <trkpt lat="43.92035" lon="6.61407">
        <ele>1113.763113</ele>
        <time>2021-09-19T05:59:46.000Z</time>
      </trkpt>
      <trkpt lat="43.92065" lon="6.61403">
        <ele>1113.790819</ele>
        <time>2021-09-19T05:59:50.000Z</time>
      </trkpt>
      <trkpt lat="43.92073" lon="6.61401">
        <ele>1113.798276</ele>
        <time>2021-09-19T05:59:51.000Z</time>
      </trkpt>
      <trkpt lat="43.92114" lon="6.61383">
        <ele>1113.837423</ele>
        <time>2021-09-19T05:59:56.000Z</time>
      </trkpt>
      <trkpt lat="43.92123" lon="6.61379">
        <ele>1113.845675</ele>
        <time>2021-09-19T05:59:57.000Z</time>
      </trkpt>
      <trkpt lat="43.9214" lon="6.61373">
        <ele>1113.862336</ele>
        <time>2021-09-19T05:59:59.000Z</time>
      </trkpt>
      <trkpt lat="43.9216" lon="6.61376">
        <ele>1113.880087</ele>
        <time>2021-09-19T06:00:01.000Z</time>
      </trkpt>
      <trkpt lat="43.92169" lon="6.61381">
        <ele>1113.737931</ele>
        <time>2021-09-19T06:00:02.000Z</time>
      </trkpt>
      <trkpt lat="43.92187" lon="6.61396">
        <ele>1113.198754</ele>
        <time>2021-09-19T06:00:04.000Z</time>
      </trkpt>
      <trkpt lat="43.92195" lon="6.61405">
        <ele>1112.947463</ele>
        <time>2021-09-19T06:00:05.000Z</time>
      </trkpt>
      <trkpt lat="43.92203" lon="6.61412">
        <ele>1112.703991</ele>
        <time>2021-09-19T06:00:06.000Z</time>
      </trkpt>
      <trkpt lat="43.9222" lon="6.61424">
        <ele>1112.207732</ele>
        <time>2021-09-19T06:00:08.000Z</time>
      </trkpt>
      <trkpt lat="43.9226" lon="6.6144">
        <ele>1111.138101</ele>
        <time>2021-09-19T06:00:12.000Z</time>
      </trkpt>
      <trkpt lat="43.9227" lon="6.61442">
        <ele>1110.871644</ele>
        <time>2021-09-19T06:00:13.000Z</time>
      </trkpt>
      <trkpt lat="43.92291" lon="6.61444">
        <ele>1110.33686</ele>
        <time>2021-09-19T06:00:15.000Z</time>
      </trkpt>
      <trkpt lat="43.923" lon="6.61446">
        <ele>1110.098934</ele>
        <time>2021-09-19T06:00:16.000Z</time>
      </trkpt>
      <trkpt lat="43.92309" lon="6.61449">
        <ele>1109.871943</ele>
        <time>2021-09-19T06:00:17.000Z</time>
      </trkpt>
      <trkpt lat="43.92317" lon="6.61456">
        <ele>1109.638755</ele>
        <time>2021-09-19T06:00:18.000Z</time>
      </trkpt>
      <trkpt lat="43.92322" lon="6.61466">
        <ele>1109.401707</ele>
        <time>2021-09-19T06:00:19.000Z</time>
      </trkpt>
      <trkpt lat="43.92329" lon="6.61507">
        <ele>1108.440527</ele>
        <time>2021-09-19T06:00:22.000Z</time>
      </trkpt>
      <trkpt lat="43.92332" lon="6.61548">
        <ele>1107.430998</ele>
        <time>2021-09-19T06:00:25.000Z</time>
      </trkpt>
      <trkpt lat="43.92333" lon="6.61562">
        <ele>1107.092764</ele>
        <time>2021-09-19T06:00:26.000Z</time>
      </trkpt>
      <trkpt lat="43.92336" lon="6.61575">
        <ele>1106.75596</ele>
        <time>2021-09-19T06:00:27.000Z</time>
      </trkpt>
      <trkpt lat="43.9235" lon="6.61596">
        <ele>1106.066838</ele>
        <time>2021-09-19T06:00:29.000Z</time>
      </trkpt>
      <trkpt lat="43.92386" lon="6.61628">
        <ele>1104.622154</ele>
        <time>2021-09-19T06:00:33.000Z</time>
      </trkpt>
      <trkpt lat="43.92434" lon="6.61667">
        <ele>1102.81794</ele>
        <time>2021-09-19T06:00:38.000Z</time>
      </trkpt>
      <trkpt lat="43.92473" lon="6.61696">
        <ele>1101.492747</ele>
        <time>2021-09-19T06:00:42.000Z</time>
      </trkpt>
      <trkpt lat="43.92526" lon="6.61718">
        <ele>1099.814723</ele>
        <time>2021-09-19T06:00:47.000Z</time>
      </trkpt>
      <trkpt lat="43.9258" lon="6.6174">
        <ele>1098.148849</ele>
        <time>2021-09-19T06:00:52.000Z</time>
      </trkpt>
      <trkpt lat="43.92628" lon="6.61766">
        <ele>1096.147615</ele>
        <time>2021-09-19T06:00:57.000Z</time>
      </trkpt>
      <trkpt lat="43.92654" lon="6.61787">
        <ele>1094.929326</ele>
        <time>2021-09-19T06:01:00.000Z</time>
      </trkpt>
      <trkpt lat="43.92662" lon="6.61796">
        <ele>1094.519417</ele>
        <time>2021-09-19T06:01:01.000Z</time>
      </trkpt>
      <trkpt lat="43.92669" lon="6.61807">
        <ele>1094.105618</ele>
        <time>2021-09-19T06:01:02.000Z</time>
      </trkpt>
      <trkpt lat="43.92686" lon="6.61842">
        <ele>1092.865131</ele>
        <time>2021-09-19T06:01:05.000Z</time>
      </trkpt>
      <trkpt lat="43.92717" lon="6.61914">
        <ele>1090.377533</ele>
        <time>2021-09-19T06:01:11.000Z</time>
      </trkpt>
      <trkpt lat="43.9275" lon="6.61984">
        <ele>1087.268969</ele>
        <time>2021-09-19T06:01:16.000Z</time>
      </trkpt>
      <trkpt lat="43.9275" lon="6.61984">
        <ele>1087.268969</ele>
        <time>2021-09-19T06:01:17.000Z</time>
      </trkpt>
      <trkpt lat="43.92783" lon="6.62055">
        <ele>1084.123648</ele>
        <time>2021-09-19T06:01:23.000Z</time>
      </trkpt>
      <trkpt lat="43.92789" lon="6.62067">
        <ele>1083.594903</ele>
        <time>2021-09-19T06:01:24.000Z</time>
      </trkpt>
      <trkpt lat="43.92822" lon="6.62138">
        <ele>1080.424973</ele>
        <time>2021-09-19T06:01:30.000Z</time>
      </trkpt>
      <trkpt lat="43.92833" lon="6.62161">
        <ele>1079.368743</ele>
        <time>2021-09-19T06:01:32.000Z</time>
      </trkpt>
      <trkpt lat="43.9286" lon="6.6222">
        <ele>1076.71389</ele>
        <time>2021-09-19T06:01:37.000Z</time>
      </trkpt>
      <trkpt lat="43.92896" lon="6.62288">
        <ele>1073.5052</ele>
        <time>2021-09-19T06:01:43.000Z</time>
      </trkpt>
      <trkpt lat="43.92938" lon="6.62349">
        <ele>1070.366545</ele>
        <time>2021-09-19T06:01:49.000Z</time>
      </trkpt>
      <trkpt lat="43.92982" lon="6.62403">
        <ele>1067.348783</ele>
        <time>2021-09-19T06:01:55.000Z</time>
      </trkpt>
      <trkpt lat="43.93021" lon="6.62446">
        <ele>1064.834235</ele>
        <time>2021-09-19T06:02:00.000Z</time>
      </trkpt>
      <trkpt lat="43.93029" lon="6.62454">
        <ele>1064.33066</ele>
        <time>2021-09-19T06:02:01.000Z</time>
      </trkpt>
      <trkpt lat="43.93074" lon="6.62481">
        <ele>1061.808992</ele>
        <time>2021-09-19T06:02:06.000Z</time>
      </trkpt>
      <trkpt lat="43.93122" lon="6.62509">
        <ele>1059.211938</ele>
        <time>2021-09-19T06:02:11.000Z</time>
      </trkpt>
      <trkpt lat="43.93131" lon="6.62517">
        <ele>1058.683458</ele>
        <time>2021-09-19T06:02:12.000Z</time>
      </trkpt>
      <trkpt lat="43.93148" lon="6.62534">
        <ele>1057.625309</ele>
        <time>2021-09-19T06:02:14.000Z</time>
      </trkpt>
      <trkpt lat="43.93168" lon="6.6257">
        <ele>1055.979135</ele>
        <time>2021-09-19T06:02:17.000Z</time>
      </trkpt>
      <trkpt lat="43.93182" lon="6.62628">
        <ele>1053.759966</ele>
        <time>2021-09-19T06:02:21.000Z</time>
      </trkpt>
      <trkpt lat="43.93189" lon="6.62658">
        <ele>1052.618196</ele>
        <time>2021-09-19T06:02:23.000Z</time>
      </trkpt>
      <trkpt lat="43.93198" lon="6.62685">
        <ele>1051.478432</ele>
        <time>2021-09-19T06:02:25.000Z</time>
      </trkpt>
      <trkpt lat="43.93222" lon="6.62753">
        <ele>1048.572714</ele>
        <time>2021-09-19T06:02:30.000Z</time>
      </trkpt>
      <trkpt lat="43.93247" lon="6.62835">
        <ele>1045.18897</ele>
        <time>2021-09-19T06:02:36.000Z</time>
      </trkpt>
      <trkpt lat="43.93273" lon="6.629">
        <ele>1042.296898</ele>
        <time>2021-09-19T06:02:41.000Z</time>
      </trkpt>
      <trkpt lat="43.93278" lon="6.62913">
        <ele>1041.726873</ele>
        <time>2021-09-19T06:02:42.000Z</time>
      </trkpt>
      <trkpt lat="43.93288" lon="6.62952">
        <ele>1040.071025</ele>
        <time>2021-09-19T06:02:45.000Z</time>
      </trkpt>
      <trkpt lat="43.93298" lon="6.63035">
        <ele>1036.72647</ele>
        <time>2021-09-19T06:02:51.000Z</time>
      </trkpt>
      <trkpt lat="43.93312" lon="6.63116">
        <ele>1033.425652</ele>
        <time>2021-09-19T06:02:57.000Z</time>
      </trkpt>
      <trkpt lat="43.93326" lon="6.63198">
        <ele>1030.035857</ele>
        <time>2021-09-19T06:03:03.000Z</time>
      </trkpt>
      <trkpt lat="43.93336" lon="6.63253">
        <ele>1027.786426</ele>
        <time>2021-09-19T06:03:07.000Z</time>
      </trkpt>
      <trkpt lat="43.93345" lon="6.63292">
        <ele>1026.115462</ele>
        <time>2021-09-19T06:03:10.000Z</time>
      </trkpt>
      <trkpt lat="43.93348" lon="6.63305">
        <ele>1025.561229</ele>
        <time>2021-09-19T06:03:11.000Z</time>
      </trkpt>
      <trkpt lat="43.93365" lon="6.63355">
        <ele>1023.344241</ele>
        <time>2021-09-19T06:03:15.000Z</time>
      </trkpt>
      <trkpt lat="43.93369" lon="6.63368">
        <ele>1022.781346</ele>
        <time>2021-09-19T06:03:16.000Z</time>
      </trkpt>
      <trkpt lat="43.93372" lon="6.63381">
        <ele>1022.231508</ele>
        <time>2021-09-19T06:03:17.000Z</time>
      </trkpt>
      <trkpt lat="43.93372" lon="6.63408">
        <ele>1021.112562</ele>
        <time>2021-09-19T06:03:19.000Z</time>
      </trkpt>
      <trkpt lat="43.93372" lon="6.63434">
        <ele>1020.082449</ele>
        <time>2021-09-19T06:03:21.000Z</time>
      </trkpt>
      <trkpt lat="43.93383" lon="6.63455">
        <ele>1019.036962</ele>
        <time>2021-09-19T06:03:23.000Z</time>
      </trkpt>
      <trkpt lat="43.93412" lon="6.6347">
        <ele>1017.324792</ele>
        <time>2021-09-19T06:03:26.000Z</time>
      </trkpt>
      <trkpt lat="43.93453" lon="6.63511">
        <ele>1014.468457</ele>
        <time>2021-09-19T06:03:31.000Z</time>
      </trkpt>
      <trkpt lat="43.93469" lon="6.63527">
        <ele>1013.422381</ele>
        <time>2021-09-19T06:03:33.000Z</time>
      </trkpt>
      <trkpt lat="43.93478" lon="6.63533">
        <ele>1012.905219</ele>
        <time>2021-09-19T06:03:34.000Z</time>
      </trkpt>
      <trkpt lat="43.93487" lon="6.63534">
        <ele>1012.40595</ele>
        <time>2021-09-19T06:03:35.000Z</time>
      </trkpt>
      <trkpt lat="43.93507" lon="6.63532">
        <ele>1011.374201</ele>
        <time>2021-09-19T06:03:37.000Z</time>
      </trkpt>
      <trkpt lat="43.93517" lon="6.63531">
        <ele>1010.843467</ele>
        <time>2021-09-19T06:03:38.000Z</time>
      </trkpt>
      <trkpt lat="43.93536" lon="6.63531">
        <ele>1009.819346</ele>
        <time>2021-09-19T06:03:40.000Z</time>
      </trkpt>
      <trkpt lat="43.93565" lon="6.63539">
        <ele>1008.259217</ele>
        <time>2021-09-19T06:03:43.000Z</time>
      </trkpt>
      <trkpt lat="43.93584" lon="6.63543">
        <ele>1007.246844</ele>
        <time>2021-09-19T06:03:45.000Z</time>
      </trkpt>
      <trkpt lat="43.93613" lon="6.63537">
        <ele>1005.690915</ele>
        <time>2021-09-19T06:03:48.000Z</time>
      </trkpt>
      <trkpt lat="43.93623" lon="6.63533">
        <ele>1005.159812</ele>
        <time>2021-09-19T06:03:49.000Z</time>
      </trkpt>
      <trkpt lat="43.93642" lon="6.6353">
        <ele>1004.123909</ele>
        <time>2021-09-19T06:03:51.000Z</time>
      </trkpt>
      <trkpt lat="43.93661" lon="6.63541">
        <ele>1003.08766</ele>
        <time>2021-09-19T06:03:53.000Z</time>
      </trkpt>
      <trkpt lat="43.93673" lon="6.63561">
        <ele>1002.07724</ele>
        <time>2021-09-19T06:03:55.000Z</time>
      </trkpt>
      <trkpt lat="43.93674" lon="6.63586">
        <ele>1001.148902</ele>
        <time>2021-09-19T06:03:57.000Z</time>
      </trkpt>
      <trkpt lat="43.9366" lon="6.63616">
        <ele>999.784904</ele>
        <time>2021-09-19T06:03:59.000Z</time>
      </trkpt>
      <trkpt lat="43.9366" lon="6.63616">
        <ele>999.784904</ele>
        <time>2021-09-19T06:04:00.000Z</time>
      </trkpt>
      <trkpt lat="43.93628" lon="6.63649">
        <ele>997.706838</ele>
        <time>2021-09-19T06:04:05.000Z</time>
      </trkpt>
      <trkpt lat="43.93584" lon="6.63684">
        <ele>995.06566</ele>
        <time>2021-09-19T06:04:11.000Z</time>
      </trkpt>
      <trkpt lat="43.93553" lon="6.6371">
        <ele>993.293661</ele>
        <time>2021-09-19T06:04:15.000Z</time>
      </trkpt>
      <trkpt lat="43.935" lon="6.63742">
        <ele>990.466456</ele>
        <time>2021-09-19T06:04:21.000Z</time>
      </trkpt>
      <trkpt lat="43.93445" lon="6.63776">
        <ele>987.495528</ele>
        <time>2021-09-19T06:04:27.000Z</time>
      </trkpt>
      <trkpt lat="43.93426" lon="6.63787">
        <ele>986.477973</ele>
        <time>2021-09-19T06:04:29.000Z</time>
      </trkpt>
      <trkpt lat="43.93377" lon="6.63819">
        <ele>984.085813</ele>
        <time>2021-09-19T06:04:34.000Z</time>
      </trkpt>
      <trkpt lat="43.93358" lon="6.63835">
        <ele>983.139298</ele>
        <time>2021-09-19T06:04:36.000Z</time>
      </trkpt>
      <trkpt lat="43.93322" lon="6.63872">
        <ele>981.185076</ele>
        <time>2021-09-19T06:04:40.000Z</time>
      </trkpt>
      <trkpt lat="43.93278" lon="6.63923">
        <ele>978.706692</ele>
        <time>2021-09-19T06:04:45.000Z</time>
      </trkpt>
      <trkpt lat="43.93236" lon="6.63975">
        <ele>976.055239</ele>
        <time>2021-09-19T06:04:50.000Z</time>
      </trkpt>
      <trkpt lat="43.93206" lon="6.64038">
        <ele>973.453797</ele>
        <time>2021-09-19T06:04:55.000Z</time>
      </trkpt>
      <trkpt lat="43.93176" lon="6.64101">
        <ele>970.876699</ele>
        <time>2021-09-19T06:05:00.000Z</time>
      </trkpt>
      <trkpt lat="43.93144" lon="6.64146">
        <ele>968.525304</ele>
        <time>2021-09-19T06:05:04.000Z</time>
      </trkpt>
      <trkpt lat="43.93126" lon="6.64168">
        <ele>967.242252</ele>
        <time>2021-09-19T06:05:06.000Z</time>
      </trkpt>
      <trkpt lat="43.93111" lon="6.64193">
        <ele>965.946111</ele>
        <time>2021-09-19T06:05:08.000Z</time>
      </trkpt>
      <trkpt lat="43.93098" lon="6.64239">
        <ele>964.008243</ele>
        <time>2021-09-19T06:05:11.000Z</time>
      </trkpt>
      <trkpt lat="43.93093" lon="6.64253">
        <ele>963.414035</ele>
        <time>2021-09-19T06:05:12.000Z</time>
      </trkpt>
      <trkpt lat="43.93087" lon="6.64265">
        <ele>962.839102</ele>
        <time>2021-09-19T06:05:13.000Z</time>
      </trkpt>
      <trkpt lat="43.93073" lon="6.64288">
        <ele>961.65734</ele>
        <time>2021-09-19T06:05:15.000Z</time>
      </trkpt>
      <trkpt lat="43.93043" lon="6.64309">
        <ele>959.76885</ele>
        <time>2021-09-19T06:05:18.000Z</time>
      </trkpt>
      <trkpt lat="43.93034" lon="6.64316">
        <ele>959.098534</ele>
        <time>2021-09-19T06:05:19.000Z</time>
      </trkpt>
      <trkpt lat="43.93025" lon="6.6433">
        <ele>958.258203</ele>
        <time>2021-09-19T06:05:20.000Z</time>
      </trkpt>
      <trkpt lat="43.93021" lon="6.64345">
        <ele>957.531718</ele>
        <time>2021-09-19T06:05:21.000Z</time>
      </trkpt>
      <trkpt lat="43.93021" lon="6.64361">
        <ele>956.775628</ele>
        <time>2021-09-19T06:05:22.000Z</time>
      </trkpt>
      <trkpt lat="43.93025" lon="6.64375">
        <ele>956.119167</ele>
        <time>2021-09-19T06:05:23.000Z</time>
      </trkpt>
      <trkpt lat="43.93031" lon="6.64383">
        <ele>955.549583</ele>
        <time>2021-09-19T06:05:24.000Z</time>
      </trkpt>
      <trkpt lat="43.9304" lon="6.64388">
        <ele>954.939862</ele>
        <time>2021-09-19T06:05:25.000Z</time>
      </trkpt>
      <trkpt lat="43.93082" lon="6.64394">
        <ele>952.29867</ele>
        <time>2021-09-19T06:05:29.000Z</time>
      </trkpt>
      <trkpt lat="43.93114" lon="6.64404">
        <ele>950.24796</ele>
        <time>2021-09-19T06:05:32.000Z</time>
      </trkpt>
      <trkpt lat="43.93124" lon="6.6441">
        <ele>949.557204</ele>
        <time>2021-09-19T06:05:33.000Z</time>
      </trkpt>
      <trkpt lat="43.93164" lon="6.64435">
        <ele>946.966164</ele>
        <time>2021-09-19T06:05:37.000Z</time>
      </trkpt>
      <trkpt lat="43.93174" lon="6.64444">
        <ele>946.299167</ele>
        <time>2021-09-19T06:05:38.000Z</time>
      </trkpt>
      <trkpt lat="43.93181" lon="6.64455">
        <ele>945.655325</ele>
        <time>2021-09-19T06:05:39.000Z</time>
      </trkpt>
      <trkpt lat="43.93193" lon="6.64483">
        <ele>944.352206</ele>
        <time>2021-09-19T06:05:41.000Z</time>
      </trkpt>
      <trkpt lat="43.93216" lon="6.64536">
        <ele>941.808543</ele>
        <time>2021-09-19T06:05:45.000Z</time>
      </trkpt>
      <trkpt lat="43.93247" lon="6.64602">
        <ele>938.570469</ele>
        <time>2021-09-19T06:05:50.000Z</time>
      </trkpt>
      <trkpt lat="43.93251" lon="6.64616">
        <ele>937.942066</ele>
        <time>2021-09-19T06:05:51.000Z</time>
      </trkpt>
      <trkpt lat="43.93257" lon="6.64647">
        <ele>936.667701</ele>
        <time>2021-09-19T06:05:53.000Z</time>
      </trkpt>
      <trkpt lat="43.93253" lon="6.64695">
        <ele>934.736613</ele>
        <time>2021-09-19T06:05:56.000Z</time>
      </trkpt>
      <trkpt lat="43.93239" lon="6.64776">
        <ele>931.431591</ele>
        <time>2021-09-19T06:06:01.000Z</time>
      </trkpt>
      <trkpt lat="43.93236" lon="6.64792">
        <ele>930.765384</ele>
        <time>2021-09-19T06:06:02.000Z</time>
      </trkpt>
      <trkpt lat="43.93236" lon="6.64808">
        <ele>930.114858</ele>
        <time>2021-09-19T06:06:03.000Z</time>
      </trkpt>
      <trkpt lat="43.9324" lon="6.64841">
        <ele>928.785519</ele>
        <time>2021-09-19T06:06:05.000Z</time>
      </trkpt>
      <trkpt lat="43.93252" lon="6.64906">
        <ele>926.188918</ele>
        <time>2021-09-19T06:06:09.000Z</time>
      </trkpt>
      <trkpt lat="43.93255" lon="6.64922">
        <ele>925.552615</ele>
        <time>2021-09-19T06:06:10.000Z</time>
      </trkpt>
      <trkpt lat="43.93259" lon="6.64937">
        <ele>924.948991</ele>
        <time>2021-09-19T06:06:11.000Z</time>
      </trkpt>
      <trkpt lat="43.93273" lon="6.64961">
        <ele>923.748989</ele>
        <time>2021-09-19T06:06:13.000Z</time>
      </trkpt>
      <trkpt lat="43.93289" lon="6.64984">
        <ele>922.521118</ele>
        <time>2021-09-19T06:06:15.000Z</time>
      </trkpt>
      <trkpt lat="43.93303" lon="6.65007">
        <ele>921.380503</ele>
        <time>2021-09-19T06:06:17.000Z</time>
      </trkpt>
      <trkpt lat="43.93309" lon="6.65034">
        <ele>920.313158</ele>
        <time>2021-09-19T06:06:19.000Z</time>
      </trkpt>
      <trkpt lat="43.93306" lon="6.65061">
        <ele>919.239817</ele>
        <time>2021-09-19T06:06:21.000Z</time>
      </trkpt>
      <trkpt lat="43.93304" lon="6.65074">
        <ele>918.732175</ele>
        <time>2021-09-19T06:06:22.000Z</time>
      </trkpt>
      <trkpt lat="43.93279" lon="6.65143">
        <ele>915.792435</ele>
        <time>2021-09-19T06:06:27.000Z</time>
      </trkpt>
      <trkpt lat="43.93256" lon="6.65182">
        <ele>913.902306</ele>
        <time>2021-09-19T06:06:32.000Z</time>
      </trkpt>
      <trkpt lat="43.93225" lon="6.65227">
        <ele>911.4863</ele>
        <time>2021-09-19T06:06:38.000Z</time>
      </trkpt>
      <trkpt lat="43.93202" lon="6.65263">
        <ele>909.68001</ele>
        <time>2021-09-19T06:06:44.000Z</time>
      </trkpt>
      <trkpt lat="43.93178" lon="6.6531">
        <ele>908.150359</ele>
        <time>2021-09-19T06:06:52.000Z</time>
      </trkpt>
      <trkpt lat="43.9315" lon="6.65372">
        <ele>906.307006</ele>
        <time>2021-09-19T06:07:02.000Z</time>
      </trkpt>
      <trkpt lat="43.93147" lon="6.65379">
        <ele>906.128581</ele>
        <time>2021-09-19T06:07:03.000Z</time>
      </trkpt>
      <trkpt lat="43.93138" lon="6.65411">
        <ele>905.27262</ele>
        <time>2021-09-19T06:07:08.000Z</time>
      </trkpt>
      <trkpt lat="43.93134" lon="6.65423">
        <ele>904.943897</ele>
        <time>2021-09-19T06:07:10.000Z</time>
      </trkpt>
      <trkpt lat="43.93125" lon="6.65439">
        <ele>904.440447</ele>
        <time>2021-09-19T06:07:12.000Z</time>
      </trkpt>
      <trkpt lat="43.93121" lon="6.65443">
        <ele>904.27194</ele>
        <time>2021-09-19T06:07:14.000Z</time>
      </trkpt>
      <trkpt lat="43.93114" lon="6.65452">
        <ele>903.938264</ele>
        <time>2021-09-19T06:07:16.000Z</time>
      </trkpt>
      <trkpt lat="43.93099" lon="6.65471">
        <ele>903.243935</ele>
        <time>2021-09-19T06:07:21.000Z</time>
      </trkpt>
      <trkpt lat="43.93087" lon="6.65494">
        <ele>902.905744</ele>
        <time>2021-09-19T06:07:27.000Z</time>
      </trkpt>
      <trkpt lat="43.93081" lon="6.65523">
        <ele>902.576207</ele>
        <time>2021-09-19T06:07:33.000Z</time>
      </trkpt>
      <trkpt lat="43.9308" lon="6.65547">
        <ele>902.313489</ele>
        <time>2021-09-19T06:07:39.000Z</time>
      </trkpt>
      <trkpt lat="43.93079" lon="6.65562">
        <ele>902.146796</ele>
        <time>2021-09-19T06:07:45.000Z</time>
      </trkpt>
      <trkpt lat="43.93076" lon="6.65585">
        <ele>901.889368</ele>
        <time>2021-09-19T06:07:52.000Z</time>
      </trkpt>
      <trkpt lat="43.93074" lon="6.65611">
        <ele>901.601063</ele>
        <time>2021-09-19T06:07:58.000Z</time>
      </trkpt>
      <trkpt lat="43.9307" lon="6.65632">
        <ele>901.363244</ele>
        <time>2021-09-19T06:08:01.000Z</time>
      </trkpt>
      <trkpt lat="43.93069" lon="6.65636">
        <ele>901.317648</ele>
        <time>2021-09-19T06:08:03.000Z</time>
      </trkpt>
      <trkpt lat="43.93065" lon="6.65657">
        <ele>901.083024</ele>
        <time>2021-09-19T06:08:06.000Z</time>
      </trkpt>
      <trkpt lat="43.93059" lon="6.6569">
        <ele>900.706374</ele>
        <time>2021-09-19T06:08:11.000Z</time>
      </trkpt>
      <trkpt lat="43.93057" lon="6.65706">
        <ele>900.528019</ele>
        <time>2021-09-19T06:08:15.000Z</time>
      </trkpt>
      <trkpt lat="43.93056" lon="6.65712">
        <ele>900.461081</ele>
        <time>2021-09-19T06:08:16.000Z</time>
      </trkpt>
      <trkpt lat="43.93055" lon="6.65724">
        <ele>900.281237</ele>
        <time>2021-09-19T06:08:17.000Z</time>
      </trkpt>
      <trkpt lat="43.93059" lon="6.65746">
        <ele>899.928851</ele>
        <time>2021-09-19T06:08:21.000Z</time>
      </trkpt>
      <trkpt lat="43.93062" lon="6.65754">
        <ele>899.798238</ele>
        <time>2021-09-19T06:08:24.000Z</time>
      </trkpt>
      <trkpt lat="43.93062" lon="6.65754">
        <ele>899.798238</ele>
        <time>2021-09-19T06:08:26.000Z</time>
      </trkpt>
      <trkpt lat="43.93063" lon="6.65757">
        <ele>899.741663</ele>
        <time>2021-09-19T06:08:38.000Z</time>
      </trkpt>
      <trkpt lat="43.93064" lon="6.6576">
        <ele>899.689063</ele>
        <time>2021-09-19T06:08:39.000Z</time>
      </trkpt>
      <trkpt lat="43.93075" lon="6.65778">
        <ele>899.327282</ele>
        <time>2021-09-19T06:08:43.000Z</time>
      </trkpt>
      <trkpt lat="43.93095" lon="6.65809">
        <ele>898.678892</ele>
        <time>2021-09-19T06:08:48.000Z</time>
      </trkpt>
      <trkpt lat="43.93119" lon="6.65833">
        <ele>898.057534</ele>
        <time>2021-09-19T06:08:52.000Z</time>
      </trkpt>
      <trkpt lat="43.93126" lon="6.65838">
        <ele>897.893205</ele>
        <time>2021-09-19T06:08:53.000Z</time>
      </trkpt>
      <trkpt lat="43.93133" lon="6.65843">
        <ele>897.722429</ele>
        <time>2021-09-19T06:08:54.000Z</time>
      </trkpt>
      <trkpt lat="43.93156" lon="6.65849">
        <ele>897.215122</ele>
        <time>2021-09-19T06:08:57.000Z</time>
      </trkpt>
      <trkpt lat="43.93169" lon="6.65865">
        <ele>896.847906</ele>
        <time>2021-09-19T06:08:59.000Z</time>
      </trkpt>
      <trkpt lat="43.93171" lon="6.65888">
        <ele>896.515437</ele>
        <time>2021-09-19T06:09:01.000Z</time>
      </trkpt>
      <trkpt lat="43.93163" lon="6.65925">
        <ele>896.029529</ele>
        <time>2021-09-19T06:09:04.000Z</time>
      </trkpt>
      <trkpt lat="43.93146" lon="6.65984">
        <ele>895.217881</ele>
        <time>2021-09-19T06:09:09.000Z</time>
      </trkpt>
      <trkpt lat="43.93127" lon="6.66051">
        <ele>894.305111</ele>
        <time>2021-09-19T06:09:15.000Z</time>
      </trkpt>
      <trkpt lat="43.93126" lon="6.66075">
        <ele>894.001447</ele>
        <time>2021-09-19T06:09:17.000Z</time>
      </trkpt>
      <trkpt lat="43.93127" lon="6.66087">
        <ele>893.851338</ele>
        <time>2021-09-19T06:09:18.000Z</time>
      </trkpt>
      <trkpt lat="43.9313" lon="6.66098">
        <ele>893.699735</ele>
        <time>2021-09-19T06:09:19.000Z</time>
      </trkpt>
      <trkpt lat="43.93141" lon="6.66131">
        <ele>893.180746</ele>
        <time>2021-09-19T06:09:22.000Z</time>
      </trkpt>
      <trkpt lat="43.93165" lon="6.66207">
        <ele>891.792628</ele>
        <time>2021-09-19T06:09:29.000Z</time>
      </trkpt>
      <trkpt lat="43.93168" lon="6.66219">
        <ele>891.584692</ele>
        <time>2021-09-19T06:09:30.000Z</time>
      </trkpt>
      <trkpt lat="43.93169" lon="6.66244">
        <ele>891.168136</ele>
        <time>2021-09-19T06:09:32.000Z</time>
      </trkpt>
      <trkpt lat="43.93168" lon="6.66256">
        <ele>890.968122</ele>
        <time>2021-09-19T06:09:33.000Z</time>
      </trkpt>
      <trkpt lat="43.93158" lon="6.66314">
        <ele>889.970467</ele>
        <time>2021-09-19T06:09:38.000Z</time>
      </trkpt>
      <trkpt lat="43.93156" lon="6.66376">
        <ele>888.939066</ele>
        <time>2021-09-19T06:09:43.000Z</time>
      </trkpt>
      <trkpt lat="43.93155" lon="6.66426">
        <ele>888.091634</ele>
        <time>2021-09-19T06:09:47.000Z</time>
      </trkpt>
      <trkpt lat="43.93152" lon="6.66438">
        <ele>887.87983</ele>
        <time>2021-09-19T06:09:48.000Z</time>
      </trkpt>
      <trkpt lat="43.93149" lon="6.6645">
        <ele>887.672746</ele>
        <time>2021-09-19T06:09:49.000Z</time>
      </trkpt>
      <trkpt lat="43.9314" lon="6.66471">
        <ele>887.261462</ele>
        <time>2021-09-19T06:09:51.000Z</time>
      </trkpt>
      <trkpt lat="43.93121" lon="6.6652">
        <ele>886.325057</ele>
        <time>2021-09-19T06:09:56.000Z</time>
      </trkpt>
      <trkpt lat="43.93119" lon="6.6653">
        <ele>886.152108</ele>
        <time>2021-09-19T06:09:57.000Z</time>
      </trkpt>
      <trkpt lat="43.93118" lon="6.6654">
        <ele>885.986627</ele>
        <time>2021-09-19T06:09:58.000Z</time>
      </trkpt>
      <trkpt lat="43.93121" lon="6.6656">
        <ele>885.655278</ele>
        <time>2021-09-19T06:10:00.000Z</time>
      </trkpt>
      <trkpt lat="43.93131" lon="6.66576">
        <ele>885.315187</ele>
        <time>2021-09-19T06:10:02.000Z</time>
      </trkpt>
      <trkpt lat="43.93137" lon="6.66582">
        <ele>885.133543</ele>
        <time>2021-09-19T06:10:03.000Z</time>
      </trkpt>
      <trkpt lat="43.93137" lon="6.66582">
        <ele>885.133543</ele>
        <time>2021-09-19T06:10:04.000Z</time>
      </trkpt>
      <trkpt lat="43.93161" lon="6.66587">
        <ele>884.422976</ele>
        <time>2021-09-19T06:10:06.000Z</time>
      </trkpt>
      <trkpt lat="43.93206" lon="6.66579">
        <ele>883.078862</ele>
        <time>2021-09-19T06:10:11.000Z</time>
      </trkpt>
      <trkpt lat="43.93221" lon="6.66592">
        <ele>882.544117</ele>
        <time>2021-09-19T06:10:13.000Z</time>
      </trkpt>
      <trkpt lat="43.93227" lon="6.66615">
        <ele>882.023162</ele>
        <time>2021-09-19T06:10:15.000Z</time>
      </trkpt>
      <trkpt lat="43.93221" lon="6.6664">
        <ele>881.475136</ele>
        <time>2021-09-19T06:10:17.000Z</time>
      </trkpt>
      <trkpt lat="43.93216" lon="6.66652">
        <ele>881.18622</ele>
        <time>2021-09-19T06:10:18.000Z</time>
      </trkpt>
      <trkpt lat="43.9321" lon="6.66677">
        <ele>880.61204</ele>
        <time>2021-09-19T06:10:20.000Z</time>
      </trkpt>
      <trkpt lat="43.93202" lon="6.66745">
        <ele>878.96508</ele>
        <time>2021-09-19T06:10:25.000Z</time>
      </trkpt>
      <trkpt lat="43.93201" lon="6.66759">
        <ele>878.57368</ele>
        <time>2021-09-19T06:10:26.000Z</time>
      </trkpt>
      <trkpt lat="43.93202" lon="6.66773">
        <ele>878.200771</ele>
        <time>2021-09-19T06:10:27.000Z</time>
      </trkpt>
      <trkpt lat="43.93206" lon="6.66786">
        <ele>877.807024</ele>
        <time>2021-09-19T06:10:28.000Z</time>
      </trkpt>
      <trkpt lat="43.93228" lon="6.66853">
        <ele>875.792432</ele>
        <time>2021-09-19T06:10:33.000Z</time>
      </trkpt>
      <trkpt lat="43.93232" lon="6.66868">
        <ele>875.351989</ele>
        <time>2021-09-19T06:10:34.000Z</time>
      </trkpt>
      <trkpt lat="43.93242" lon="6.66877">
        <ele>874.908769</ele>
        <time>2021-09-19T06:10:35.000Z</time>
      </trkpt>
      <trkpt lat="43.93252" lon="6.66881">
        <ele>874.511366</ele>
        <time>2021-09-19T06:10:36.000Z</time>
      </trkpt>
      <trkpt lat="43.93273" lon="6.66889">
        <ele>873.687936</ele>
        <time>2021-09-19T06:10:38.000Z</time>
      </trkpt>
      <trkpt lat="43.93289" lon="6.6691">
        <ele>872.821751</ele>
        <time>2021-09-19T06:10:40.000Z</time>
      </trkpt>
      <trkpt lat="43.93298" lon="6.66937">
        <ele>871.821055</ele>
        <time>2021-09-19T06:10:42.000Z</time>
      </trkpt>
      <trkpt lat="43.93305" lon="6.66967">
        <ele>870.789665</ele>
        <time>2021-09-19T06:10:44.000Z</time>
      </trkpt>
      <trkpt lat="43.9331" lon="6.66978">
        <ele>870.318663</ele>
        <time>2021-09-19T06:10:45.000Z</time>
      </trkpt>
      <trkpt lat="43.9332" lon="6.66986">
        <ele>869.800501</ele>
        <time>2021-09-19T06:10:46.000Z</time>
      </trkpt>
      <trkpt lat="43.9333" lon="6.6699">
        <ele>869.334578</ele>
        <time>2021-09-19T06:10:47.000Z</time>
      </trkpt>
      <trkpt lat="43.93349" lon="6.66998">
        <ele>868.386231</ele>
        <time>2021-09-19T06:10:49.000Z</time>
      </trkpt>
      <trkpt lat="43.93357" lon="6.67007">
        <ele>867.929984</ele>
        <time>2021-09-19T06:10:50.000Z</time>
      </trkpt>
      <trkpt lat="43.93361" lon="6.67019">
        <ele>867.493774</ele>
        <time>2021-09-19T06:10:51.000Z</time>
      </trkpt>
      <trkpt lat="43.93363" lon="6.67032">
        <ele>867.043133</ele>
        <time>2021-09-19T06:10:52.000Z</time>
      </trkpt>
      <trkpt lat="43.93361" lon="6.67047">
        <ele>866.548305</ele>
        <time>2021-09-19T06:10:53.000Z</time>
      </trkpt>
      <trkpt lat="43.93354" lon="6.67073">
        <ele>865.605947</ele>
        <time>2021-09-19T06:10:55.000Z</time>
      </trkpt>
      <trkpt lat="43.93356" lon="6.67102">
        <ele>864.645374</ele>
        <time>2021-09-19T06:10:57.000Z</time>
      </trkpt>
      <trkpt lat="43.93368" lon="6.67125">
        <ele>863.629472</ele>
        <time>2021-09-19T06:10:59.000Z</time>
      </trkpt>
      <trkpt lat="43.93388" lon="6.67139">
        <ele>862.543277</ele>
        <time>2021-09-19T06:11:01.000Z</time>
      </trkpt>
      <trkpt lat="43.93398" lon="6.67145">
        <ele>862.003799</ele>
        <time>2021-09-19T06:11:02.000Z</time>
      </trkpt>
      <trkpt lat="43.93406" lon="6.67154">
        <ele>861.473103</ele>
        <time>2021-09-19T06:11:03.000Z</time>
      </trkpt>
      <trkpt lat="43.93412" lon="6.67167">
        <ele>860.935026</ele>
        <time>2021-09-19T06:11:04.000Z</time>
      </trkpt>
      <trkpt lat="43.93417" lon="6.67181">
        <ele>860.372533</ele>
        <time>2021-09-19T06:11:05.000Z</time>
      </trkpt>
      <trkpt lat="43.93427" lon="6.67208">
        <ele>859.279309</ele>
        <time>2021-09-19T06:11:07.000Z</time>
      </trkpt>
      <trkpt lat="43.93455" lon="6.67256">
        <ele>857.086113</ele>
        <time>2021-09-19T06:11:11.000Z</time>
      </trkpt>
      <trkpt lat="43.93473" lon="6.67293">
        <ele>855.462354</ele>
        <time>2021-09-19T06:11:14.000Z</time>
      </trkpt>
      <trkpt lat="43.93484" lon="6.6732">
        <ele>854.39547</ele>
        <time>2021-09-19T06:11:16.000Z</time>
      </trkpt>
      <trkpt lat="43.93505" lon="6.67392">
        <ele>851.640181</ele>
        <time>2021-09-19T06:11:21.000Z</time>
      </trkpt>
      <trkpt lat="43.93514" lon="6.67421">
        <ele>850.527796</ele>
        <time>2021-09-19T06:11:23.000Z</time>
      </trkpt>
      <trkpt lat="43.93522" lon="6.67483">
        <ele>848.287369</ele>
        <time>2021-09-19T06:11:27.000Z</time>
      </trkpt>
      <trkpt lat="43.9352" lon="6.67558">
        <ele>845.815358</ele>
        <time>2021-09-19T06:11:32.000Z</time>
      </trkpt>
      <trkpt lat="43.93519" lon="6.67585">
        <ele>844.977314</ele>
        <time>2021-09-19T06:11:34.000Z</time>
      </trkpt>
      <trkpt lat="43.93521" lon="6.67598">
        <ele>844.572521</ele>
        <time>2021-09-19T06:11:35.000Z</time>
      </trkpt>
      <trkpt lat="43.93524" lon="6.6761">
        <ele>844.164612</ele>
        <time>2021-09-19T06:11:36.000Z</time>
      </trkpt>
      <trkpt lat="43.93533" lon="6.67634">
        <ele>843.328761</ele>
        <time>2021-09-19T06:11:38.000Z</time>
      </trkpt>
      <trkpt lat="43.93537" lon="6.67647">
        <ele>842.904735</ele>
        <time>2021-09-19T06:11:39.000Z</time>
      </trkpt>
      <trkpt lat="43.93542" lon="6.67674">
        <ele>842.050327</ele>
        <time>2021-09-19T06:11:41.000Z</time>
      </trkpt>
      <trkpt lat="43.93543" lon="6.67714">
        <ele>840.819367</ele>
        <time>2021-09-19T06:11:44.000Z</time>
      </trkpt>
      <trkpt lat="43.93547" lon="6.67726">
        <ele>840.414039</ele>
        <time>2021-09-19T06:11:45.000Z</time>
      </trkpt>
      <trkpt lat="43.93552" lon="6.67738">
        <ele>839.996214</ele>
        <time>2021-09-19T06:11:46.000Z</time>
      </trkpt>
      <trkpt lat="43.93567" lon="6.67757">
        <ele>839.112324</ele>
        <time>2021-09-19T06:11:48.000Z</time>
      </trkpt>
      <trkpt lat="43.93611" lon="6.67799">
        <ele>836.936893</ele>
        <time>2021-09-19T06:11:53.000Z</time>
      </trkpt>
      <trkpt lat="43.93621" lon="6.67805">
        <ele>836.489495</ele>
        <time>2021-09-19T06:11:54.000Z</time>
      </trkpt>
      <trkpt lat="43.93651" lon="6.67823">
        <ele>835.142367</ele>
        <time>2021-09-19T06:11:57.000Z</time>
      </trkpt>
      <trkpt lat="43.93661" lon="6.67829">
        <ele>834.708593</ele>
        <time>2021-09-19T06:11:58.000Z</time>
      </trkpt>
      <trkpt lat="43.93674" lon="6.67851">
        <ele>833.859032</ele>
        <time>2021-09-19T06:12:00.000Z</time>
      </trkpt>
      <trkpt lat="43.93674" lon="6.67877">
        <ele>833.103732</ele>
        <time>2021-09-19T06:12:02.000Z</time>
      </trkpt>
      <trkpt lat="43.93673" lon="6.67903">
        <ele>832.3153</ele>
        <time>2021-09-19T06:12:04.000Z</time>
      </trkpt>
      <trkpt lat="43.93677" lon="6.6793">
        <ele>831.46836</ele>
        <time>2021-09-19T06:12:06.000Z</time>
      </trkpt>
      <trkpt lat="43.93685" lon="6.68">
        <ele>829.034486</ele>
        <time>2021-09-19T06:12:11.000Z</time>
      </trkpt>
      <trkpt lat="43.93691" lon="6.68087">
        <ele>826.054432</ele>
        <time>2021-09-19T06:12:17.000Z</time>
      </trkpt>
      <trkpt lat="43.93697" lon="6.68115">
        <ele>825.038814</ele>
        <time>2021-09-19T06:12:19.000Z</time>
      </trkpt>
      <trkpt lat="43.93701" lon="6.68129">
        <ele>824.531564</ele>
        <time>2021-09-19T06:12:20.000Z</time>
      </trkpt>
      <trkpt lat="43.93705" lon="6.68143">
        <ele>824.024313</ele>
        <time>2021-09-19T06:12:21.000Z</time>
      </trkpt>
      <trkpt lat="43.9371" lon="6.68172">
        <ele>823.022906</ele>
        <time>2021-09-19T06:12:23.000Z</time>
      </trkpt>
      <trkpt lat="43.93712" lon="6.68186">
        <ele>822.584994</ele>
        <time>2021-09-19T06:12:24.000Z</time>
      </trkpt>
      <trkpt lat="43.93716" lon="6.68197">
        <ele>822.189406</ele>
        <time>2021-09-19T06:12:25.000Z</time>
      </trkpt>
      <trkpt lat="43.93723" lon="6.68207">
        <ele>821.757748</ele>
        <time>2021-09-19T06:12:26.000Z</time>
      </trkpt>
      <trkpt lat="43.93738" lon="6.6823">
        <ele>820.833516</ele>
        <time>2021-09-19T06:12:28.000Z</time>
      </trkpt>
      <trkpt lat="43.93745" lon="6.68258">
        <ele>819.888497</ele>
        <time>2021-09-19T06:12:30.000Z</time>
      </trkpt>
      <trkpt lat="43.93745" lon="6.68273">
        <ele>819.445804</ele>
        <time>2021-09-19T06:12:31.000Z</time>
      </trkpt>
      <trkpt lat="43.93746" lon="6.68316">
        <ele>818.117728</ele>
        <time>2021-09-19T06:12:34.000Z</time>
      </trkpt>
      <trkpt lat="43.93746" lon="6.68345">
        <ele>817.195118</ele>
        <time>2021-09-19T06:12:36.000Z</time>
      </trkpt>
      <trkpt lat="43.93747" lon="6.6839">
        <ele>815.826812</ele>
        <time>2021-09-19T06:12:39.000Z</time>
      </trkpt>
      <trkpt lat="43.93748" lon="6.68404">
        <ele>815.382768</ele>
        <time>2021-09-19T06:12:40.000Z</time>
      </trkpt>
      <trkpt lat="43.93751" lon="6.68418">
        <ele>814.9182</ele>
        <time>2021-09-19T06:12:41.000Z</time>
      </trkpt>
      <trkpt lat="43.93762" lon="6.68444">
        <ele>813.953988</ele>
        <time>2021-09-19T06:12:43.000Z</time>
      </trkpt>
      <trkpt lat="43.93764" lon="6.68473">
        <ele>813.041233</ele>
        <time>2021-09-19T06:12:45.000Z</time>
      </trkpt>
      <trkpt lat="43.93766" lon="6.68515">
        <ele>811.710767</ele>
        <time>2021-09-19T06:12:48.000Z</time>
      </trkpt>
      <trkpt lat="43.93776" lon="6.68541">
        <ele>810.777618</ele>
        <time>2021-09-19T06:12:50.000Z</time>
      </trkpt>
      <trkpt lat="43.93778" lon="6.68557">
        <ele>810.285967</ele>
        <time>2021-09-19T06:12:51.000Z</time>
      </trkpt>
      <trkpt lat="43.93776" lon="6.68571">
        <ele>809.824243</ele>
        <time>2021-09-19T06:12:52.000Z</time>
      </trkpt>
      <trkpt lat="43.93772" lon="6.68584">
        <ele>809.364228</ele>
        <time>2021-09-19T06:12:53.000Z</time>
      </trkpt>
      <trkpt lat="43.93764" lon="6.6861">
        <ele>808.483242</ele>
        <time>2021-09-19T06:12:55.000Z</time>
      </trkpt>
      <trkpt lat="43.93759" lon="6.68637">
        <ele>807.618685</ele>
        <time>2021-09-19T06:12:57.000Z</time>
      </trkpt>
      <trkpt lat="43.93755" lon="6.68664">
        <ele>806.837558</ele>
        <time>2021-09-19T06:12:59.000Z</time>
      </trkpt>
      <trkpt lat="43.93755" lon="6.68689">
        <ele>806.116707</ele>
        <time>2021-09-19T06:13:01.000Z</time>
      </trkpt>
      <trkpt lat="43.93768" lon="6.68708">
        <ele>805.37345</ele>
        <time>2021-09-19T06:13:03.000Z</time>
      </trkpt>
      <trkpt lat="43.93799" lon="6.68715">
        <ele>804.121939</ele>
        <time>2021-09-19T06:13:06.000Z</time>
      </trkpt>
      <trkpt lat="43.9383" lon="6.68718">
        <ele>802.862666</ele>
        <time>2021-09-19T06:13:09.000Z</time>
      </trkpt>
      <trkpt lat="43.9384" lon="6.68721">
        <ele>802.447559</ele>
        <time>2021-09-19T06:13:10.000Z</time>
      </trkpt>
      <trkpt lat="43.93889" lon="6.68739">
        <ele>800.442549</ele>
        <time>2021-09-19T06:13:15.000Z</time>
      </trkpt>
      <trkpt lat="43.93898" lon="6.68746">
        <ele>800.12089</ele>
        <time>2021-09-19T06:13:16.000Z</time>
      </trkpt>
      <trkpt lat="43.93945" lon="6.68792">
        <ele>798.204173</ele>
        <time>2021-09-19T06:13:22.000Z</time>
      </trkpt>
      <trkpt lat="43.93973" lon="6.6883">
        <ele>796.87754</ele>
        <time>2021-09-19T06:13:26.000Z</time>
      </trkpt>
      <trkpt lat="43.9399" lon="6.68841">
        <ele>796.257804</ele>
        <time>2021-09-19T06:13:28.000Z</time>
      </trkpt>
      <trkpt lat="43.93996" lon="6.68846">
        <ele>796.030627</ele>
        <time>2021-09-19T06:13:29.000Z</time>
      </trkpt>
      <trkpt lat="43.93996" lon="6.68856">
        <ele>795.793162</ele>
        <time>2021-09-19T06:13:30.000Z</time>
      </trkpt>
      <trkpt lat="43.93996" lon="6.68866">
        <ele>795.5604</ele>
        <time>2021-09-19T06:13:31.000Z</time>
      </trkpt>
      <trkpt lat="43.93996" lon="6.68876">
        <ele>795.33231</ele>
        <time>2021-09-19T06:13:32.000Z</time>
      </trkpt>
      <trkpt lat="43.93997" lon="6.68895">
        <ele>794.859357</ele>
        <time>2021-09-19T06:13:34.000Z</time>
      </trkpt>
      <trkpt lat="43.9401" lon="6.68908">
        <ele>794.349434</ele>
        <time>2021-09-19T06:13:36.000Z</time>
      </trkpt>
      <trkpt lat="43.94023" lon="6.68919">
        <ele>793.918622</ele>
        <time>2021-09-19T06:13:38.000Z</time>
      </trkpt>
      <trkpt lat="43.94044" lon="6.68934">
        <ele>793.234128</ele>
        <time>2021-09-19T06:13:41.000Z</time>
      </trkpt>
      <trkpt lat="43.9406" lon="6.6894">
        <ele>792.768664</ele>
        <time>2021-09-19T06:13:43.000Z</time>
      </trkpt>
      <trkpt lat="43.94086" lon="6.68945">
        <ele>792.015996</ele>
        <time>2021-09-19T06:13:46.000Z</time>
      </trkpt>
      <trkpt lat="43.94095" lon="6.68946">
        <ele>791.759169</ele>
        <time>2021-09-19T06:13:47.000Z</time>
      </trkpt>
      <trkpt lat="43.94103" lon="6.6895">
        <ele>791.509702</ele>
        <time>2021-09-19T06:13:48.000Z</time>
      </trkpt>
      <trkpt lat="43.9412" lon="6.68965">
        <ele>790.936826</ele>
        <time>2021-09-19T06:13:50.000Z</time>
      </trkpt>
      <trkpt lat="43.94158" lon="6.68992">
        <ele>789.713893</ele>
        <time>2021-09-19T06:13:54.000Z</time>
      </trkpt>
      <trkpt lat="43.94169" lon="6.68994">
        <ele>789.417828</ele>
        <time>2021-09-19T06:13:55.000Z</time>
      </trkpt>
      <trkpt lat="43.94179" lon="6.68995">
        <ele>789.163886</ele>
        <time>2021-09-19T06:13:56.000Z</time>
      </trkpt>
      <trkpt lat="43.9419" lon="6.68994">
        <ele>788.89831</ele>
        <time>2021-09-19T06:13:57.000Z</time>
      </trkpt>
      <trkpt lat="43.94202" lon="6.68991">
        <ele>788.623616</ele>
        <time>2021-09-19T06:13:58.000Z</time>
      </trkpt>
      <trkpt lat="43.94225" lon="6.68981">
        <ele>788.064597</ele>
        <time>2021-09-19T06:14:00.000Z</time>
      </trkpt>
      <trkpt lat="43.94236" lon="6.68978">
        <ele>787.805097</ele>
        <time>2021-09-19T06:14:01.000Z</time>
      </trkpt>
      <trkpt lat="43.94246" lon="6.68978">
        <ele>787.556382</ele>
        <time>2021-09-19T06:14:02.000Z</time>
      </trkpt>
      <trkpt lat="43.94257" lon="6.68978">
        <ele>787.307666</ele>
        <time>2021-09-19T06:14:03.000Z</time>
      </trkpt>
      <trkpt lat="43.94269" lon="6.68981">
        <ele>787.010305</ele>
        <time>2021-09-19T06:14:04.000Z</time>
      </trkpt>
      <trkpt lat="43.94312" lon="6.69018">
        <ele>785.82319</ele>
        <time>2021-09-19T06:14:08.000Z</time>
      </trkpt>
      <trkpt lat="43.94356" lon="6.69041">
        <ele>784.741752</ele>
        <time>2021-09-19T06:14:12.000Z</time>
      </trkpt>
      <trkpt lat="43.94408" lon="6.69055">
        <ele>783.540792</ele>
        <time>2021-09-19T06:14:16.000Z</time>
      </trkpt>
      <trkpt lat="43.94421" lon="6.69057">
        <ele>783.231541</ele>
        <time>2021-09-19T06:14:17.000Z</time>
      </trkpt>
      <trkpt lat="43.94448" lon="6.69048">
        <ele>782.599282</ele>
        <time>2021-09-19T06:14:19.000Z</time>
      </trkpt>
      <trkpt lat="43.94471" lon="6.69016">
        <ele>781.850669</ele>
        <time>2021-09-19T06:14:22.000Z</time>
      </trkpt>
      <trkpt lat="43.94478" lon="6.68996">
        <ele>781.485217</ele>
        <time>2021-09-19T06:14:23.000Z</time>
      </trkpt>
      <trkpt lat="43.94484" lon="6.68981">
        <ele>781.205196</ele>
        <time>2021-09-19T06:14:24.000Z</time>
      </trkpt>
      <trkpt lat="43.94491" lon="6.68967">
        <ele>780.848196</ele>
        <time>2021-09-19T06:14:25.000Z</time>
      </trkpt>
      <trkpt lat="43.94508" lon="6.68946">
        <ele>779.976845</ele>
        <time>2021-09-19T06:14:27.000Z</time>
      </trkpt>
      <trkpt lat="43.94528" lon="6.68937">
        <ele>779.156475</ele>
        <time>2021-09-19T06:14:29.000Z</time>
      </trkpt>
      <trkpt lat="43.94563" lon="6.68943">
        <ele>777.799627</ele>
        <time>2021-09-19T06:14:32.000Z</time>
      </trkpt>
      <trkpt lat="43.94617" lon="6.68958">
        <ele>775.69323</ele>
        <time>2021-09-19T06:14:37.000Z</time>
      </trkpt>
      <trkpt lat="43.94628" lon="6.68959">
        <ele>775.266676</ele>
        <time>2021-09-19T06:14:38.000Z</time>
      </trkpt>
      <trkpt lat="43.94658" lon="6.68953">
        <ele>774.049542</ele>
        <time>2021-09-19T06:14:41.000Z</time>
      </trkpt>
      <trkpt lat="43.94668" lon="6.6895">
        <ele>773.563601</ele>
        <time>2021-09-19T06:14:42.000Z</time>
      </trkpt>
      <trkpt lat="43.94723" lon="6.68926">
        <ele>770.621802</ele>
        <time>2021-09-19T06:14:48.000Z</time>
      </trkpt>
      <trkpt lat="43.94776" lon="6.68898">
        <ele>767.720529</ele>
        <time>2021-09-19T06:14:54.000Z</time>
      </trkpt>
      <trkpt lat="43.94827" lon="6.68886">
        <ele>765.080185</ele>
        <time>2021-09-19T06:14:59.000Z</time>
      </trkpt>
      <trkpt lat="43.94883" lon="6.68881">
        <ele>760.981822</ele>
        <time>2021-09-19T06:15:05.000Z</time>
      </trkpt>
      <trkpt lat="43.94892" lon="6.68878">
        <ele>760.317845</ele>
        <time>2021-09-19T06:15:06.000Z</time>
      </trkpt>
      <trkpt lat="43.94909" lon="6.68868">
        <ele>758.96812</ele>
        <time>2021-09-19T06:15:08.000Z</time>
      </trkpt>
      <trkpt lat="43.94931" lon="6.68844">
        <ele>756.933108</ele>
        <time>2021-09-19T06:15:11.000Z</time>
      </trkpt>
      <trkpt lat="43.94937" lon="6.68834">
        <ele>756.238637</ele>
        <time>2021-09-19T06:15:12.000Z</time>
      </trkpt>
      <trkpt lat="43.94966" lon="6.68782">
        <ele>752.838706</ele>
        <time>2021-09-19T06:15:17.000Z</time>
      </trkpt>
      <trkpt lat="43.94991" lon="6.68743">
        <ele>750.186868</ele>
        <time>2021-09-19T06:15:21.000Z</time>
      </trkpt>
      <trkpt lat="43.94999" lon="6.68735">
        <ele>749.53701</ele>
        <time>2021-09-19T06:15:22.000Z</time>
      </trkpt>
      <trkpt lat="43.95008" lon="6.68729">
        <ele>748.87634</ele>
        <time>2021-09-19T06:15:23.000Z</time>
      </trkpt>
      <trkpt lat="43.95027" lon="6.68724">
        <ele>747.523406</ele>
        <time>2021-09-19T06:15:25.000Z</time>
      </trkpt>
      <trkpt lat="43.95087" lon="6.68719">
        <ele>743.446759</ele>
        <time>2021-09-19T06:15:31.000Z</time>
      </trkpt>
      <trkpt lat="43.95107" lon="6.68717">
        <ele>742.125091</ele>
        <time>2021-09-19T06:15:33.000Z</time>
      </trkpt>
      <trkpt lat="43.95117" lon="6.68715">
        <ele>741.460573</ele>
        <time>2021-09-19T06:15:34.000Z</time>
      </trkpt>
      <trkpt lat="43.95135" lon="6.68709">
        <ele>740.167291</ele>
        <time>2021-09-19T06:15:36.000Z</time>
      </trkpt>
      <trkpt lat="43.95167" lon="6.68681">
        <ele>737.598961</ele>
        <time>2021-09-19T06:15:40.000Z</time>
      </trkpt>
      <trkpt lat="43.95179" lon="6.68664">
        <ele>736.405651</ele>
        <time>2021-09-19T06:15:42.000Z</time>
      </trkpt>
      <trkpt lat="43.9519" lon="6.68645">
        <ele>735.183994</ele>
        <time>2021-09-19T06:15:44.000Z</time>
      </trkpt>
      <trkpt lat="43.95198" lon="6.68623">
        <ele>733.983731</ele>
        <time>2021-09-19T06:15:46.000Z</time>
      </trkpt>
      <trkpt lat="43.95202" lon="6.68612">
        <ele>733.358822</ele>
        <time>2021-09-19T06:15:47.000Z</time>
      </trkpt>
      <trkpt lat="43.95205" lon="6.68588">
        <ele>732.144221</ele>
        <time>2021-09-19T06:15:49.000Z</time>
      </trkpt>
      <trkpt lat="43.95207" lon="6.6856">
        <ele>730.77996</ele>
        <time>2021-09-19T06:15:51.000Z</time>
      </trkpt>
      <trkpt lat="43.95217" lon="6.68536">
        <ele>729.398457</ele>
        <time>2021-09-19T06:15:53.000Z</time>
      </trkpt>
      <trkpt lat="43.95235" lon="6.68523">
        <ele>728.052757</ele>
        <time>2021-09-19T06:15:55.000Z</time>
      </trkpt>
      <trkpt lat="43.95262" lon="6.68504">
        <ele>726.020646</ele>
        <time>2021-09-19T06:15:58.000Z</time>
      </trkpt>
      <trkpt lat="43.95272" lon="6.68497">
        <ele>725.352088</ele>
        <time>2021-09-19T06:15:59.000Z</time>
      </trkpt>
      <trkpt lat="43.95292" lon="6.68487">
        <ele>724.004711</ele>
        <time>2021-09-19T06:16:01.000Z</time>
      </trkpt>
      <trkpt lat="43.95315" lon="6.68459">
        <ele>722.017325</ele>
        <time>2021-09-19T06:16:04.000Z</time>
      </trkpt>
      <trkpt lat="43.95325" lon="6.68453">
        <ele>721.351354</ele>
        <time>2021-09-19T06:16:05.000Z</time>
      </trkpt>
      <trkpt lat="43.95335" lon="6.6845">
        <ele>720.660066</ele>
        <time>2021-09-19T06:16:06.000Z</time>
      </trkpt>
      <trkpt lat="43.95348" lon="6.68451">
        <ele>719.879878</ele>
        <time>2021-09-19T06:16:07.000Z</time>
      </trkpt>
      <trkpt lat="43.95358" lon="6.68456">
        <ele>719.171536</ele>
        <time>2021-09-19T06:16:08.000Z</time>
      </trkpt>
      <trkpt lat="43.95401" lon="6.68474">
        <ele>716.282437</ele>
        <time>2021-09-19T06:16:12.000Z</time>
      </trkpt>
      <trkpt lat="43.95425" lon="6.68473">
        <ele>714.739013</ele>
        <time>2021-09-19T06:16:14.000Z</time>
      </trkpt>
      <trkpt lat="43.95436" lon="6.6847">
        <ele>713.953438</ele>
        <time>2021-09-19T06:16:15.000Z</time>
      </trkpt>
      <trkpt lat="43.95446" lon="6.68466">
        <ele>713.23968</ele>
        <time>2021-09-19T06:16:16.000Z</time>
      </trkpt>
      <trkpt lat="43.95457" lon="6.68466">
        <ele>712.535388</ele>
        <time>2021-09-19T06:16:17.000Z</time>
      </trkpt>
      <trkpt lat="43.95467" lon="6.68473">
        <ele>711.798112</ele>
        <time>2021-09-19T06:16:18.000Z</time>
      </trkpt>
      <trkpt lat="43.95475" lon="6.68483">
        <ele>711.026109</ele>
        <time>2021-09-19T06:16:19.000Z</time>
      </trkpt>
      <trkpt lat="43.95482" lon="6.68495">
        <ele>710.286396</ele>
        <time>2021-09-19T06:16:20.000Z</time>
      </trkpt>
      <trkpt lat="43.95494" lon="6.68521">
        <ele>708.782922</ele>
        <time>2021-09-19T06:16:22.000Z</time>
      </trkpt>
      <trkpt lat="43.95525" lon="6.68588">
        <ele>704.898561</ele>
        <time>2021-09-19T06:16:27.000Z</time>
      </trkpt>
      <trkpt lat="43.95531" lon="6.68602">
        <ele>704.117558</ele>
        <time>2021-09-19T06:16:28.000Z</time>
      </trkpt>
      <trkpt lat="43.95542" lon="6.68627">
        <ele>702.649776</ele>
        <time>2021-09-19T06:16:30.000Z</time>
      </trkpt>
      <trkpt lat="43.95548" lon="6.68638">
        <ele>701.956986</ele>
        <time>2021-09-19T06:16:31.000Z</time>
      </trkpt>
      <trkpt lat="43.95558" lon="6.68644">
        <ele>701.222557</ele>
        <time>2021-09-19T06:16:32.000Z</time>
      </trkpt>
      <trkpt lat="43.95575" lon="6.68648">
        <ele>699.979761</ele>
        <time>2021-09-19T06:16:34.000Z</time>
      </trkpt>
      <trkpt lat="43.95584" lon="6.6867">
        <ele>698.722758</ele>
        <time>2021-09-19T06:16:36.000Z</time>
      </trkpt>
      <trkpt lat="43.95583" lon="6.68708">
        <ele>696.809749</ele>
        <time>2021-09-19T06:16:40.000Z</time>
      </trkpt>
      <trkpt lat="43.95583" lon="6.68733">
        <ele>695.544275</ele>
        <time>2021-09-19T06:16:43.000Z</time>
      </trkpt>
      <trkpt lat="43.95587" lon="6.68749">
        <ele>694.727055</ele>
        <time>2021-09-19T06:16:45.000Z</time>
      </trkpt>
      <trkpt lat="43.95589" lon="6.68756">
        <ele>694.307401</ele>
        <time>2021-09-19T06:16:46.000Z</time>
      </trkpt>
      <trkpt lat="43.95596" lon="6.68771">
        <ele>693.440731</ele>
        <time>2021-09-19T06:16:48.000Z</time>
      </trkpt>
      <trkpt lat="43.95613" lon="6.688">
        <ele>691.556045</ele>
        <time>2021-09-19T06:16:52.000Z</time>
      </trkpt>
      <trkpt lat="43.95639" lon="6.68848">
        <ele>689.06693</ele>
        <time>2021-09-19T06:16:58.000Z</time>
      </trkpt>
      <trkpt lat="43.95666" lon="6.68898">
        <ele>686.575741</ele>
        <time>2021-09-19T06:17:04.000Z</time>
      </trkpt>
      <trkpt lat="43.95697" lon="6.6897">
        <ele>683.233066</ele>
        <time>2021-09-19T06:17:11.000Z</time>
      </trkpt>
      <trkpt lat="43.95717" lon="6.69016">
        <ele>681.09426</ele>
        <time>2021-09-19T06:17:15.000Z</time>
      </trkpt>
      <trkpt lat="43.95722" lon="6.69028">
        <ele>680.632711</ele>
        <time>2021-09-19T06:17:16.000Z</time>
      </trkpt>
      <trkpt lat="43.95738" lon="6.69064">
        <ele>679.218345</ele>
        <time>2021-09-19T06:17:19.000Z</time>
      </trkpt>
      <trkpt lat="43.95744" lon="6.69076">
        <ele>678.732351</ele>
        <time>2021-09-19T06:17:20.000Z</time>
      </trkpt>
      <trkpt lat="43.95761" lon="6.69115">
        <ele>677.209168</ele>
        <time>2021-09-19T06:17:23.000Z</time>
      </trkpt>
      <trkpt lat="43.95767" lon="6.69145">
        <ele>676.16954</ele>
        <time>2021-09-19T06:17:25.000Z</time>
      </trkpt>
      <trkpt lat="43.95775" lon="6.69222">
        <ele>673.541407</ele>
        <time>2021-09-19T06:17:30.000Z</time>
      </trkpt>
      <trkpt lat="43.95781" lon="6.69267">
        <ele>672.050898</ele>
        <time>2021-09-19T06:17:33.000Z</time>
      </trkpt>
      <trkpt lat="43.95787" lon="6.69296">
        <ele>671.100013</ele>
        <time>2021-09-19T06:17:35.000Z</time>
      </trkpt>
      <trkpt lat="43.95799" lon="6.69339">
        <ele>669.657563</ele>
        <time>2021-09-19T06:17:38.000Z</time>
      </trkpt>
      <trkpt lat="43.95817" lon="6.69409">
        <ele>667.29571</ele>
        <time>2021-09-19T06:17:43.000Z</time>
      </trkpt>
      <trkpt lat="43.9583" lon="6.69467">
        <ele>665.375953</ele>
        <time>2021-09-19T06:17:47.000Z</time>
      </trkpt>
      <trkpt lat="43.9583" lon="6.69496">
        <ele>664.421511</ele>
        <time>2021-09-19T06:17:49.000Z</time>
      </trkpt>
      <trkpt lat="43.95828" lon="6.69511">
        <ele>663.947</ele>
        <time>2021-09-19T06:17:50.000Z</time>
      </trkpt>
      <trkpt lat="43.95812" lon="6.69566">
        <ele>662.015883</ele>
        <time>2021-09-19T06:17:54.000Z</time>
      </trkpt>
      <trkpt lat="43.95785" lon="6.69646">
        <ele>659.128837</ele>
        <time>2021-09-19T06:18:00.000Z</time>
      </trkpt>
      <trkpt lat="43.9578" lon="6.6966">
        <ele>658.650718</ele>
        <time>2021-09-19T06:18:01.000Z</time>
      </trkpt>
      <trkpt lat="43.95763" lon="6.69732">
        <ele>656.167567</ele>
        <time>2021-09-19T06:18:06.000Z</time>
      </trkpt>
      <trkpt lat="43.95761" lon="6.69747">
        <ele>655.651333</ele>
        <time>2021-09-19T06:18:07.000Z</time>
      </trkpt>
      <trkpt lat="43.9575" lon="6.69823">
        <ele>653.036317</ele>
        <time>2021-09-19T06:18:12.000Z</time>
      </trkpt>
      <trkpt lat="43.95741" lon="6.69884">
        <ele>650.947091</ele>
        <time>2021-09-19T06:18:16.000Z</time>
      </trkpt>
      <trkpt lat="43.9574" lon="6.69945">
        <ele>648.891594</ele>
        <time>2021-09-19T06:18:20.000Z</time>
      </trkpt>
      <trkpt lat="43.95744" lon="6.70025">
        <ele>646.08968</ele>
        <time>2021-09-19T06:18:25.000Z</time>
      </trkpt>
      <trkpt lat="43.95745" lon="6.70041">
        <ele>645.517267</ele>
        <time>2021-09-19T06:18:26.000Z</time>
      </trkpt>
      <trkpt lat="43.95752" lon="6.70121">
        <ele>642.675257</ele>
        <time>2021-09-19T06:18:31.000Z</time>
      </trkpt>
      <trkpt lat="43.95759" lon="6.70166">
        <ele>641.034329</ele>
        <time>2021-09-19T06:18:34.000Z</time>
      </trkpt>
      <trkpt lat="43.95778" lon="6.70239">
        <ele>638.239353</ele>
        <time>2021-09-19T06:18:39.000Z</time>
      </trkpt>
      <trkpt lat="43.95806" lon="6.70314">
        <ele>635.148392</ele>
        <time>2021-09-19T06:18:45.000Z</time>
      </trkpt>
      <trkpt lat="43.95833" lon="6.70379">
        <ele>632.414534</ele>
        <time>2021-09-19T06:18:51.000Z</time>
      </trkpt>
      <trkpt lat="43.95836" lon="6.7039">
        <ele>631.972468</ele>
        <time>2021-09-19T06:18:52.000Z</time>
      </trkpt>
      <trkpt lat="43.9584" lon="6.70402">
        <ele>631.526103</ele>
        <time>2021-09-19T06:18:53.000Z</time>
      </trkpt>
      <trkpt lat="43.95845" lon="6.70437">
        <ele>630.230437</ele>
        <time>2021-09-19T06:18:56.000Z</time>
      </trkpt>
      <trkpt lat="43.95851" lon="6.70505">
        <ele>628.028299</ele>
        <time>2021-09-19T06:19:02.000Z</time>
      </trkpt>
      <trkpt lat="43.9586" lon="6.70583">
        <ele>625.502056</ele>
        <time>2021-09-19T06:19:09.000Z</time>
      </trkpt>
      <trkpt lat="43.95876" lon="6.7066">
        <ele>622.944719</ele>
        <time>2021-09-19T06:19:16.000Z</time>
      </trkpt>
      <trkpt lat="43.95883" lon="6.70693">
        <ele>621.957808</ele>
        <time>2021-09-19T06:19:19.000Z</time>
      </trkpt>
      <trkpt lat="43.95899" lon="6.70768">
        <ele>619.940038</ele>
        <time>2021-09-19T06:19:26.000Z</time>
      </trkpt>
      <trkpt lat="43.95905" lon="6.70799">
        <ele>619.105047</ele>
        <time>2021-09-19T06:19:29.000Z</time>
      </trkpt>
      <trkpt lat="43.95921" lon="6.70877">
        <ele>616.996987</ele>
        <time>2021-09-19T06:19:37.000Z</time>
      </trkpt>
      <trkpt lat="43.95923" lon="6.70886">
        <ele>616.754873</ele>
        <time>2021-09-19T06:19:38.000Z</time>
      </trkpt>
      <trkpt lat="43.95935" lon="6.70937">
        <ele>615.497283</ele>
        <time>2021-09-19T06:19:44.000Z</time>
      </trkpt>
      <trkpt lat="43.95949" lon="6.70998">
        <ele>614.220949</ele>
        <time>2021-09-19T06:19:51.000Z</time>
      </trkpt>
      <trkpt lat="43.95963" lon="6.7107">
        <ele>612.712823</ele>
        <time>2021-09-19T06:19:59.000Z</time>
      </trkpt>
      <trkpt lat="43.95961" lon="6.71117">
        <ele>611.751352</ele>
        <time>2021-09-19T06:20:04.000Z</time>
      </trkpt>
      <trkpt lat="43.95948" lon="6.71186">
        <ele>610.434729</ele>
        <time>2021-09-19T06:20:11.000Z</time>
      </trkpt>
      <trkpt lat="43.95936" lon="6.71246">
        <ele>609.404416</ele>
        <time>2021-09-19T06:20:17.000Z</time>
      </trkpt>
      <trkpt lat="43.95932" lon="6.71313">
        <ele>608.31235</ele>
        <time>2021-09-19T06:20:23.000Z</time>
      </trkpt>
      <trkpt lat="43.95929" lon="6.71396">
        <ele>606.955379</ele>
        <time>2021-09-19T06:20:30.000Z</time>
      </trkpt>
      <trkpt lat="43.95928" lon="6.71408">
        <ele>606.768693</ele>
        <time>2021-09-19T06:20:31.000Z</time>
      </trkpt>
      <trkpt lat="43.95928" lon="6.7142">
        <ele>606.622455</ele>
        <time>2021-09-19T06:20:32.000Z</time>
      </trkpt>
      <trkpt lat="43.95937" lon="6.71456">
        <ele>606.179629</ele>
        <time>2021-09-19T06:20:35.000Z</time>
      </trkpt>
      <trkpt lat="43.95952" lon="6.71528">
        <ele>605.291614</ele>
        <time>2021-09-19T06:20:41.000Z</time>
      </trkpt>
      <trkpt lat="43.95962" lon="6.7161">
        <ele>604.305922</ele>
        <time>2021-09-19T06:20:48.000Z</time>
      </trkpt>
      <trkpt lat="43.95962" lon="6.71691">
        <ele>603.45545</ele>
        <time>2021-09-19T06:20:55.000Z</time>
      </trkpt>
      <trkpt lat="43.95962" lon="6.71702">
        <ele>603.346178</ele>
        <time>2021-09-19T06:20:56.000Z</time>
      </trkpt>
      <trkpt lat="43.95963" lon="6.71781">
        <ele>602.592162</ele>
        <time>2021-09-19T06:21:03.000Z</time>
      </trkpt>
      <trkpt lat="43.95951" lon="6.71857">
        <ele>601.842309</ele>
        <time>2021-09-19T06:21:10.000Z</time>
      </trkpt>
      <trkpt lat="43.95948" lon="6.7188">
        <ele>601.62394</ele>
        <time>2021-09-19T06:21:12.000Z</time>
      </trkpt>
      <trkpt lat="43.95938" lon="6.71945">
        <ele>600.934645</ele>
        <time>2021-09-19T06:21:18.000Z</time>
      </trkpt>
      <trkpt lat="43.95937" lon="6.72012">
        <ele>600.221538</ele>
        <time>2021-09-19T06:21:24.000Z</time>
      </trkpt>
      <trkpt lat="43.95941" lon="6.72092">
        <ele>599.374346</ele>
        <time>2021-09-19T06:21:31.000Z</time>
      </trkpt>
      <trkpt lat="43.95944" lon="6.72159">
        <ele>598.636947</ele>
        <time>2021-09-19T06:21:37.000Z</time>
      </trkpt>
      <trkpt lat="43.95955" lon="6.72235">
        <ele>597.711178</ele>
        <time>2021-09-19T06:21:44.000Z</time>
      </trkpt>
      <trkpt lat="43.95972" lon="6.7231">
        <ele>596.772968</ele>
        <time>2021-09-19T06:21:51.000Z</time>
      </trkpt>
      <trkpt lat="43.95974" lon="6.72321">
        <ele>596.645413</ele>
        <time>2021-09-19T06:21:52.000Z</time>
      </trkpt>
      <trkpt lat="43.95991" lon="6.72392">
        <ele>595.744164</ele>
        <time>2021-09-19T06:21:59.000Z</time>
      </trkpt>
      <trkpt lat="43.95994" lon="6.72402">
        <ele>595.602327</ele>
        <time>2021-09-19T06:22:00.000Z</time>
      </trkpt>
      <trkpt lat="43.95999" lon="6.7247">
        <ele>594.717313</ele>
        <time>2021-09-19T06:22:06.000Z</time>
      </trkpt>
      <trkpt lat="43.95997" lon="6.72543">
        <ele>593.768481</ele>
        <time>2021-09-19T06:22:12.000Z</time>
      </trkpt>
      <trkpt lat="43.95996" lon="6.72628">
        <ele>592.67722</ele>
        <time>2021-09-19T06:22:19.000Z</time>
      </trkpt>
      <trkpt lat="43.95994" lon="6.7271">
        <ele>591.850183</ele>
        <time>2021-09-19T06:22:26.000Z</time>
      </trkpt>
      <trkpt lat="43.95992" lon="6.72733">
        <ele>591.61933</ele>
        <time>2021-09-19T06:22:28.000Z</time>
      </trkpt>
      <trkpt lat="43.95981" lon="6.72798">
        <ele>590.96347</ele>
        <time>2021-09-19T06:22:34.000Z</time>
      </trkpt>
      <trkpt lat="43.95968" lon="6.72869">
        <ele>590.235822</ele>
        <time>2021-09-19T06:22:41.000Z</time>
      </trkpt>
      <trkpt lat="43.95954" lon="6.72947">
        <ele>589.357393</ele>
        <time>2021-09-19T06:22:49.000Z</time>
      </trkpt>
      <trkpt lat="43.95942" lon="6.73012">
        <ele>588.605154</ele>
        <time>2021-09-19T06:22:56.000Z</time>
      </trkpt>
      <trkpt lat="43.95931" lon="6.73074">
        <ele>587.895819</ele>
        <time>2021-09-19T06:23:02.000Z</time>
      </trkpt>
      <trkpt lat="43.95918" lon="6.73156">
        <ele>586.903698</ele>
        <time>2021-09-19T06:23:09.000Z</time>
      </trkpt>
      <trkpt lat="43.95912" lon="6.73191">
        <ele>586.445566</ele>
        <time>2021-09-19T06:23:12.000Z</time>
      </trkpt>
      <trkpt lat="43.95899" lon="6.73264">
        <ele>585.464851</ele>
        <time>2021-09-19T06:23:19.000Z</time>
      </trkpt>
      <trkpt lat="43.95891" lon="6.73321">
        <ele>584.720421</ele>
        <time>2021-09-19T06:23:25.000Z</time>
      </trkpt>
      <trkpt lat="43.95881" lon="6.73395">
        <ele>583.958154</ele>
        <time>2021-09-19T06:23:33.000Z</time>
      </trkpt>
      <trkpt lat="43.9588" lon="6.7342">
        <ele>583.805173</ele>
        <time>2021-09-19T06:23:36.000Z</time>
      </trkpt>
      <trkpt lat="43.9588" lon="6.7343">
        <ele>583.747296</ele>
        <time>2021-09-19T06:23:37.000Z</time>
      </trkpt>
      <trkpt lat="43.95884" lon="6.73455">
        <ele>583.589876</ele>
        <time>2021-09-19T06:23:40.000Z</time>
      </trkpt>
      <trkpt lat="43.95887" lon="6.73462">
        <ele>583.543258</ele>
        <time>2021-09-19T06:23:41.000Z</time>
      </trkpt>
      <trkpt lat="43.95893" lon="6.73471">
        <ele>583.470183</ele>
        <time>2021-09-19T06:23:43.000Z</time>
      </trkpt>
      <trkpt lat="43.95904" lon="6.7348">
        <ele>583.361061</ele>
        <time>2021-09-19T06:23:46.000Z</time>
      </trkpt>
      <trkpt lat="43.95908" lon="6.73484">
        <ele>583.315375</ele>
        <time>2021-09-19T06:23:47.000Z</time>
      </trkpt>
      <trkpt lat="43.95916" lon="6.73487">
        <ele>583.250464</ele>
        <time>2021-09-19T06:23:49.000Z</time>
      </trkpt>
      <trkpt lat="43.95924" lon="6.73491">
        <ele>583.174605</ele>
        <time>2021-09-19T06:23:51.000Z</time>
      </trkpt>
      <trkpt lat="43.95928" lon="6.73491">
        <ele>583.147635</ele>
        <time>2021-09-19T06:23:52.000Z</time>
      </trkpt>
      <trkpt lat="43.95946" lon="6.73493">
        <ele>582.989671</ele>
        <time>2021-09-19T06:23:56.000Z</time>
      </trkpt>
      <trkpt lat="43.95978" lon="6.73504">
        <ele>582.720888</ele>
        <time>2021-09-19T06:24:03.000Z</time>
      </trkpt>
      <trkpt lat="43.95986" lon="6.7351">
        <ele>582.640795</ele>
        <time>2021-09-19T06:24:05.000Z</time>
      </trkpt>
      <trkpt lat="43.96005" lon="6.73522">
        <ele>582.580776</ele>
        <time>2021-09-19T06:24:09.000Z</time>
      </trkpt>
      <trkpt lat="43.96014" lon="6.73529">
        <ele>582.552003</ele>
        <time>2021-09-19T06:24:11.000Z</time>
      </trkpt>
      <trkpt lat="43.96032" lon="6.73545">
        <ele>582.496002</ele>
        <time>2021-09-19T06:24:15.000Z</time>
      </trkpt>
      <trkpt lat="43.96049" lon="6.73563">
        <ele>582.438909</ele>
        <time>2021-09-19T06:24:19.000Z</time>
      </trkpt>
      <trkpt lat="43.96079" lon="6.73593">
        <ele>582.340144</ele>
        <time>2021-09-19T06:24:26.000Z</time>
      </trkpt>
      <trkpt lat="43.96114" lon="6.73631">
        <ele>582.221883</ele>
        <time>2021-09-19T06:24:33.000Z</time>
      </trkpt>
      <trkpt lat="43.96141" lon="6.7368">
        <ele>581.779864</ele>
        <time>2021-09-19T06:24:39.000Z</time>
      </trkpt>
      <trkpt lat="43.96149" lon="6.73698">
        <ele>581.4829</ele>
        <time>2021-09-19T06:24:41.000Z</time>
      </trkpt>
      <trkpt lat="43.96164" lon="6.73735">
        <ele>580.854793</ele>
        <time>2021-09-19T06:24:45.000Z</time>
      </trkpt>
      <trkpt lat="43.96195" lon="6.73807">
        <ele>579.653734</ele>
        <time>2021-09-19T06:24:52.000Z</time>
      </trkpt>
      <trkpt lat="43.96223" lon="6.73875">
        <ele>578.521834</ele>
        <time>2021-09-19T06:24:58.000Z</time>
      </trkpt>
      <trkpt lat="43.96252" lon="6.73945">
        <ele>577.042909</ele>
        <time>2021-09-19T06:25:04.000Z</time>
      </trkpt>
      <trkpt lat="43.96257" lon="6.73957">
        <ele>576.796423</ele>
        <time>2021-09-19T06:25:05.000Z</time>
      </trkpt>
      <trkpt lat="43.96287" lon="6.74029">
        <ele>575.278996</ele>
        <time>2021-09-19T06:25:11.000Z</time>
      </trkpt>
      <trkpt lat="43.96302" lon="6.74064">
        <ele>574.53197</ele>
        <time>2021-09-19T06:25:14.000Z</time>
      </trkpt>
      <trkpt lat="43.96331" lon="6.74133">
        <ele>573.074475</ele>
        <time>2021-09-19T06:25:20.000Z</time>
      </trkpt>
      <trkpt lat="43.96358" lon="6.74198">
        <ele>571.664238</ele>
        <time>2021-09-19T06:25:26.000Z</time>
      </trkpt>
      <trkpt lat="43.96363" lon="6.74209">
        <ele>571.434289</ele>
        <time>2021-09-19T06:25:27.000Z</time>
      </trkpt>
      <trkpt lat="43.96393" lon="6.74281">
        <ele>569.880302</ele>
        <time>2021-09-19T06:25:34.000Z</time>
      </trkpt>
      <trkpt lat="43.96397" lon="6.74291">
        <ele>569.663865</ele>
        <time>2021-09-19T06:25:35.000Z</time>
      </trkpt>
      <trkpt lat="43.96429" lon="6.74358">
        <ele>568.154634</ele>
        <time>2021-09-19T06:25:42.000Z</time>
      </trkpt>
      <trkpt lat="43.96434" lon="6.74367">
        <ele>567.939736</ele>
        <time>2021-09-19T06:25:43.000Z</time>
      </trkpt>
      <trkpt lat="43.96466" lon="6.74432">
        <ele>566.440987</ele>
        <time>2021-09-19T06:25:50.000Z</time>
      </trkpt>
      <trkpt lat="43.96476" lon="6.7445">
        <ele>566.00837</ele>
        <time>2021-09-19T06:25:52.000Z</time>
      </trkpt>
      <trkpt lat="43.96509" lon="6.74513">
        <ele>564.552389</ele>
        <time>2021-09-19T06:25:59.000Z</time>
      </trkpt>
      <trkpt lat="43.96518" lon="6.7453">
        <ele>564.258167</ele>
        <time>2021-09-19T06:26:01.000Z</time>
      </trkpt>
      <trkpt lat="43.96544" lon="6.74579">
        <ele>563.432785</ele>
        <time>2021-09-19T06:26:07.000Z</time>
      </trkpt>
      <trkpt lat="43.96576" lon="6.74641">
        <ele>562.395836</ele>
        <time>2021-09-19T06:26:15.000Z</time>
      </trkpt>
      <trkpt lat="43.96608" lon="6.74703">
        <ele>561.37102</ele>
        <time>2021-09-19T06:26:23.000Z</time>
      </trkpt>
      <trkpt lat="43.96615" lon="6.74718">
        <ele>561.153771</ele>
        <time>2021-09-19T06:26:25.000Z</time>
      </trkpt>
      <trkpt lat="43.96636" lon="6.74777">
        <ele>560.555227</ele>
        <time>2021-09-19T06:26:32.000Z</time>
      </trkpt>
      <trkpt lat="43.96648" lon="6.74828">
        <ele>560.065191</ele>
        <time>2021-09-19T06:26:38.000Z</time>
      </trkpt>
      <trkpt lat="43.96661" lon="6.74905">
        <ele>559.339869</ele>
        <time>2021-09-19T06:26:47.000Z</time>
      </trkpt>
      <trkpt lat="43.96677" lon="6.74968">
        <ele>558.727654</ele>
        <time>2021-09-19T06:26:54.000Z</time>
      </trkpt>
      <trkpt lat="43.96695" lon="6.7503">
        <ele>558.115961</ele>
        <time>2021-09-19T06:27:01.000Z</time>
      </trkpt>
      <trkpt lat="43.9671" lon="6.75105">
        <ele>557.397034</ele>
        <time>2021-09-19T06:27:09.000Z</time>
      </trkpt>
      <trkpt lat="43.96715" lon="6.75173">
        <ele>556.762817</ele>
        <time>2021-09-19T06:27:16.000Z</time>
      </trkpt>
      <trkpt lat="43.96718" lon="6.75254">
        <ele>555.827976</ele>
        <time>2021-09-19T06:27:24.000Z</time>
      </trkpt>
      <trkpt lat="43.96718" lon="6.75274">
        <ele>555.589972</ele>
        <time>2021-09-19T06:27:26.000Z</time>
      </trkpt>
      <trkpt lat="43.96721" lon="6.75355">
        <ele>554.611726</ele>
        <time>2021-09-19T06:27:34.000Z</time>
      </trkpt>
      <trkpt lat="43.96721" lon="6.75366">
        <ele>554.489163</ele>
        <time>2021-09-19T06:27:35.000Z</time>
      </trkpt>
      <trkpt lat="43.96724" lon="6.75449">
        <ele>553.462994</ele>
        <time>2021-09-19T06:27:43.000Z</time>
      </trkpt>
      <trkpt lat="43.96728" lon="6.75502">
        <ele>552.717416</ele>
        <time>2021-09-19T06:27:48.000Z</time>
      </trkpt>
      <trkpt lat="43.96742" lon="6.75554">
        <ele>551.929234</ele>
        <time>2021-09-19T06:27:53.000Z</time>
      </trkpt>
      <trkpt lat="43.96766" lon="6.75611">
        <ele>551.003827</ele>
        <time>2021-09-19T06:27:59.000Z</time>
      </trkpt>
      <trkpt lat="43.96798" lon="6.75682">
        <ele>549.930438</ele>
        <time>2021-09-19T06:28:07.000Z</time>
      </trkpt>
      <trkpt lat="43.9682" lon="6.75728">
        <ele>549.425591</ele>
        <time>2021-09-19T06:28:13.000Z</time>
      </trkpt>
      <trkpt lat="43.96853" lon="6.75771">
        <ele>548.853038</ele>
        <time>2021-09-19T06:28:20.000Z</time>
      </trkpt>
      <trkpt lat="43.96883" lon="6.75807">
        <ele>548.353999</ele>
        <time>2021-09-19T06:28:26.000Z</time>
      </trkpt>
      <trkpt lat="43.9692" lon="6.75853">
        <ele>547.839238</ele>
        <time>2021-09-19T06:28:34.000Z</time>
      </trkpt>
      <trkpt lat="43.9696" lon="6.75901">
        <ele>547.78568</ele>
        <time>2021-09-19T06:28:43.000Z</time>
      </trkpt>
      <trkpt lat="43.96979" lon="6.75923">
        <ele>547.759774</ele>
        <time>2021-09-19T06:28:48.000Z</time>
      </trkpt>
      <trkpt lat="43.96988" lon="6.75933">
        <ele>547.748625</ele>
        <time>2021-09-19T06:28:50.000Z</time>
      </trkpt>
      <trkpt lat="43.97002" lon="6.75949">
        <ele>547.730372</ele>
        <time>2021-09-19T06:28:53.000Z</time>
      </trkpt>
      <trkpt lat="43.97033" lon="6.75984">
        <ele>547.68888</ele>
        <time>2021-09-19T06:29:00.000Z</time>
      </trkpt>
      <trkpt lat="43.97045" lon="6.7599">
        <ele>547.675977</ele>
        <time>2021-09-19T06:29:02.000Z</time>
      </trkpt>
      <trkpt lat="43.97056" lon="6.75994">
        <ele>547.659314</ele>
        <time>2021-09-19T06:29:04.000Z</time>
      </trkpt>
      <trkpt lat="43.97086" lon="6.75993">
        <ele>547.503576</ele>
        <time>2021-09-19T06:29:09.000Z</time>
      </trkpt>
      <trkpt lat="43.97092" lon="6.75993">
        <ele>547.473453</ele>
        <time>2021-09-19T06:29:10.000Z</time>
      </trkpt>
      <trkpt lat="43.97103" lon="6.75998">
        <ele>547.41293</ele>
        <time>2021-09-19T06:29:12.000Z</time>
      </trkpt>
      <trkpt lat="43.97107" lon="6.76003">
        <ele>547.381456</ele>
        <time>2021-09-19T06:29:13.000Z</time>
      </trkpt>
      <trkpt lat="43.97112" lon="6.76009">
        <ele>547.347882</ele>
        <time>2021-09-19T06:29:14.000Z</time>
      </trkpt>
      <trkpt lat="43.97124" lon="6.76031">
        <ele>547.243054</ele>
        <time>2021-09-19T06:29:17.000Z</time>
      </trkpt>
      <trkpt lat="43.97143" lon="6.76069">
        <ele>547.067621</ele>
        <time>2021-09-19T06:29:22.000Z</time>
      </trkpt>
      <trkpt lat="43.97147" lon="6.76087">
        <ele>546.99325</ele>
        <time>2021-09-19T06:29:24.000Z</time>
      </trkpt>
      <trkpt lat="43.9715" lon="6.76107">
        <ele>546.916229</ele>
        <time>2021-09-19T06:29:26.000Z</time>
      </trkpt>
      <trkpt lat="43.97159" lon="6.76175">
        <ele>546.571419</ele>
        <time>2021-09-19T06:29:33.000Z</time>
      </trkpt>
      <trkpt lat="43.9716" lon="6.76185">
        <ele>546.478429</ele>
        <time>2021-09-19T06:29:34.000Z</time>
      </trkpt>
      <trkpt lat="43.97166" lon="6.76212">
        <ele>546.219612</ele>
        <time>2021-09-19T06:29:37.000Z</time>
      </trkpt>
      <trkpt lat="43.97176" lon="6.76246">
        <ele>545.885847</ele>
        <time>2021-09-19T06:29:41.000Z</time>
      </trkpt>
      <trkpt lat="43.97179" lon="6.76254">
        <ele>545.802507</ele>
        <time>2021-09-19T06:29:42.000Z</time>
      </trkpt>
      <trkpt lat="43.97201" lon="6.76309">
        <ele>545.219297</ele>
        <time>2021-09-19T06:29:49.000Z</time>
      </trkpt>
      <trkpt lat="43.97222" lon="6.76374">
        <ele>544.563583</ele>
        <time>2021-09-19T06:29:57.000Z</time>
      </trkpt>
      <trkpt lat="43.97231" lon="6.76427">
        <ele>544.152701</ele>
        <time>2021-09-19T06:30:03.000Z</time>
      </trkpt>
      <trkpt lat="43.97242" lon="6.76488">
        <ele>543.707825</ele>
        <time>2021-09-19T06:30:10.000Z</time>
      </trkpt>
      <trkpt lat="43.97256" lon="6.76567">
        <ele>543.1298</ele>
        <time>2021-09-19T06:30:19.000Z</time>
      </trkpt>
      <trkpt lat="43.97268" lon="6.76647">
        <ele>542.611212</ele>
        <time>2021-09-19T06:30:28.000Z</time>
      </trkpt>
      <trkpt lat="43.97268" lon="6.76656">
        <ele>542.583907</ele>
        <time>2021-09-19T06:30:29.000Z</time>
      </trkpt>
      <trkpt lat="43.97267" lon="6.76684">
        <ele>542.50154</ele>
        <time>2021-09-19T06:30:32.000Z</time>
      </trkpt>
      <trkpt lat="43.97266" lon="6.76692">
        <ele>542.475401</ele>
        <time>2021-09-19T06:30:33.000Z</time>
      </trkpt>
      <trkpt lat="43.97255" lon="6.76744">
        <ele>542.313319</ele>
        <time>2021-09-19T06:30:39.000Z</time>
      </trkpt>
      <trkpt lat="43.97237" lon="6.76812">
        <ele>542.09606</ele>
        <time>2021-09-19T06:30:47.000Z</time>
      </trkpt>
      <trkpt lat="43.97219" lon="6.7686">
        <ele>541.933846</ele>
        <time>2021-09-19T06:30:53.000Z</time>
      </trkpt>
      <trkpt lat="43.97208" lon="6.76922">
        <ele>541.807305</ele>
        <time>2021-09-19T06:31:00.000Z</time>
      </trkpt>
      <trkpt lat="43.97206" lon="6.76977">
        <ele>541.709012</ele>
        <time>2021-09-19T06:31:06.000Z</time>
      </trkpt>
      <trkpt lat="43.97207" lon="6.77048">
        <ele>541.579182</ele>
        <time>2021-09-19T06:31:14.000Z</time>
      </trkpt>
      <trkpt lat="43.97212" lon="6.77122">
        <ele>541.432815</ele>
        <time>2021-09-19T06:31:22.000Z</time>
      </trkpt>
      <trkpt lat="43.97222" lon="6.77198">
        <ele>541.082421</ele>
        <time>2021-09-19T06:31:30.000Z</time>
      </trkpt>
      <trkpt lat="43.97223" lon="6.77207">
        <ele>541.03801</ele>
        <time>2021-09-19T06:31:31.000Z</time>
      </trkpt>
      <trkpt lat="43.97231" lon="6.77246">
        <ele>540.856069</ele>
        <time>2021-09-19T06:31:35.000Z</time>
      </trkpt>
      <trkpt lat="43.97234" lon="6.77276">
        <ele>540.720368</ele>
        <time>2021-09-19T06:31:38.000Z</time>
      </trkpt>
      <trkpt lat="43.97232" lon="6.77346">
        <ele>540.400681</ele>
        <time>2021-09-19T06:31:45.000Z</time>
      </trkpt>
      <trkpt lat="43.97225" lon="6.77416">
        <ele>539.970591</ele>
        <time>2021-09-19T06:31:52.000Z</time>
      </trkpt>
      <trkpt lat="43.97213" lon="6.77462">
        <ele>539.644635</ele>
        <time>2021-09-19T06:31:57.000Z</time>
      </trkpt>
      <trkpt lat="43.97209" lon="6.7747">
        <ele>539.577558</ele>
        <time>2021-09-19T06:31:58.000Z</time>
      </trkpt>
      <trkpt lat="43.97195" lon="6.77494">
        <ele>539.369846</ele>
        <time>2021-09-19T06:32:01.000Z</time>
      </trkpt>
      <trkpt lat="43.97186" lon="6.77511">
        <ele>539.229769</ele>
        <time>2021-09-19T06:32:03.000Z</time>
      </trkpt>
      <trkpt lat="43.97182" lon="6.7752">
        <ele>539.159451</ele>
        <time>2021-09-19T06:32:04.000Z</time>
      </trkpt>
      <trkpt lat="43.97174" lon="6.77538">
        <ele>539.019031</ele>
        <time>2021-09-19T06:32:06.000Z</time>
      </trkpt>
      <trkpt lat="43.97172" lon="6.77548">
        <ele>538.947254</ele>
        <time>2021-09-19T06:32:07.000Z</time>
      </trkpt>
      <trkpt lat="43.97169" lon="6.7757">
        <ele>538.801263</ele>
        <time>2021-09-19T06:32:09.000Z</time>
      </trkpt>
      <trkpt lat="43.97168" lon="6.77602">
        <ele>538.531339</ele>
        <time>2021-09-19T06:32:12.000Z</time>
      </trkpt>
      <trkpt lat="43.97163" lon="6.77681">
        <ele>537.612937</ele>
        <time>2021-09-19T06:32:19.000Z</time>
      </trkpt>
      <trkpt lat="43.97152" lon="6.77739">
        <ele>536.926613</ele>
        <time>2021-09-19T06:32:24.000Z</time>
      </trkpt>
      <trkpt lat="43.97135" lon="6.77769">
        <ele>536.491819</ele>
        <time>2021-09-19T06:32:27.000Z</time>
      </trkpt>
      <trkpt lat="43.97128" lon="6.77775">
        <ele>536.355791</ele>
        <time>2021-09-19T06:32:28.000Z</time>
      </trkpt>
      <trkpt lat="43.97121" lon="6.77781">
        <ele>536.216993</ele>
        <time>2021-09-19T06:32:29.000Z</time>
      </trkpt>
      <trkpt lat="43.97104" lon="6.77789">
        <ele>535.93668</ele>
        <time>2021-09-19T06:32:31.000Z</time>
      </trkpt>
      <trkpt lat="43.97086" lon="6.77789">
        <ele>535.624433</ele>
        <time>2021-09-19T06:32:33.000Z</time>
      </trkpt>
      <trkpt lat="43.97077" lon="6.77787">
        <ele>535.457044</ele>
        <time>2021-09-19T06:32:34.000Z</time>
      </trkpt>
      <trkpt lat="43.97068" lon="6.77783">
        <ele>535.281224</ele>
        <time>2021-09-19T06:32:35.000Z</time>
      </trkpt>
      <trkpt lat="43.97052" lon="6.7777">
        <ele>534.936195</ele>
        <time>2021-09-19T06:32:37.000Z</time>
      </trkpt>
      <trkpt lat="43.97022" lon="6.7773">
        <ele>534.141451</ele>
        <time>2021-09-19T06:32:42.000Z</time>
      </trkpt>
      <trkpt lat="43.97003" lon="6.77709">
        <ele>533.686566</ele>
        <time>2021-09-19T06:32:45.000Z</time>
      </trkpt>
      <trkpt lat="43.96989" lon="6.777">
        <ele>533.394719</ele>
        <time>2021-09-19T06:32:47.000Z</time>
      </trkpt>
      <trkpt lat="43.96972" lon="6.77699">
        <ele>533.089072</ele>
        <time>2021-09-19T06:32:49.000Z</time>
      </trkpt>
      <trkpt lat="43.96964" lon="6.777">
        <ele>532.930112</ele>
        <time>2021-09-19T06:32:50.000Z</time>
      </trkpt>
      <trkpt lat="43.96921" lon="6.77707">
        <ele>532.098505</ele>
        <time>2021-09-19T06:32:55.000Z</time>
      </trkpt>
      <trkpt lat="43.96871" lon="6.77721">
        <ele>531.078842</ele>
        <time>2021-09-19T06:33:01.000Z</time>
      </trkpt>
      <trkpt lat="43.96831" lon="6.77747">
        <ele>530.195543</ele>
        <time>2021-09-19T06:33:06.000Z</time>
      </trkpt>
      <trkpt lat="43.96806" lon="6.77761">
        <ele>529.636854</ele>
        <time>2021-09-19T06:33:09.000Z</time>
      </trkpt>
      <trkpt lat="43.96796" lon="6.77765">
        <ele>529.445589</ele>
        <time>2021-09-19T06:33:10.000Z</time>
      </trkpt>
      <trkpt lat="43.96751" lon="6.77777">
        <ele>528.530377</ele>
        <time>2021-09-19T06:33:15.000Z</time>
      </trkpt>
      <trkpt lat="43.96726" lon="6.77786">
        <ele>528.029932</ele>
        <time>2021-09-19T06:33:18.000Z</time>
      </trkpt>
      <trkpt lat="43.9671" lon="6.77796">
        <ele>527.705312</ele>
        <time>2021-09-19T06:33:20.000Z</time>
      </trkpt>
      <trkpt lat="43.96674" lon="6.77828">
        <ele>526.898778</ele>
        <time>2021-09-19T06:33:25.000Z</time>
      </trkpt>
      <trkpt lat="43.96646" lon="6.77869">
        <ele>526.120812</ele>
        <time>2021-09-19T06:33:30.000Z</time>
      </trkpt>
      <trkpt lat="43.96607" lon="6.7793">
        <ele>525.089257</ele>
        <time>2021-09-19T06:33:37.000Z</time>
      </trkpt>
      <trkpt lat="43.96585" lon="6.77966">
        <ele>524.59919</ele>
        <time>2021-09-19T06:33:41.000Z</time>
      </trkpt>
      <trkpt lat="43.9658" lon="6.77975">
        <ele>524.476474</ele>
        <time>2021-09-19T06:33:42.000Z</time>
      </trkpt>
      <trkpt lat="43.96556" lon="6.7802">
        <ele>523.88208</ele>
        <time>2021-09-19T06:33:47.000Z</time>
      </trkpt>
      <trkpt lat="43.96528" lon="6.78076">
        <ele>523.17809</ele>
        <time>2021-09-19T06:33:53.000Z</time>
      </trkpt>
      <trkpt lat="43.96496" lon="6.78142">
        <ele>522.469653</ele>
        <time>2021-09-19T06:34:00.000Z</time>
      </trkpt>
      <trkpt lat="43.96465" lon="6.78205">
        <ele>521.914161</ele>
        <time>2021-09-19T06:34:07.000Z</time>
      </trkpt>
      <trkpt lat="43.96446" lon="6.7824">
        <ele>521.603132</ele>
        <time>2021-09-19T06:34:11.000Z</time>
      </trkpt>
      <trkpt lat="43.96441" lon="6.78248">
        <ele>521.52276</ele>
        <time>2021-09-19T06:34:12.000Z</time>
      </trkpt>
      <trkpt lat="43.96398" lon="6.78295">
        <ele>520.981111</ele>
        <time>2021-09-19T06:34:19.000Z</time>
      </trkpt>
      <trkpt lat="43.96373" lon="6.78332">
        <ele>520.711442</ele>
        <time>2021-09-19T06:34:24.000Z</time>
      </trkpt>
      <trkpt lat="43.96352" lon="6.78369">
        <ele>520.480008</ele>
        <time>2021-09-19T06:34:29.000Z</time>
      </trkpt>
      <trkpt lat="43.96327" lon="6.7841">
        <ele>520.207919</ele>
        <time>2021-09-19T06:34:35.000Z</time>
      </trkpt>
      <trkpt lat="43.96322" lon="6.78416">
        <ele>520.162147</ele>
        <time>2021-09-19T06:34:36.000Z</time>
      </trkpt>
      <trkpt lat="43.96287" lon="6.7846">
        <ele>519.830515</ele>
        <time>2021-09-19T06:34:43.000Z</time>
      </trkpt>
      <trkpt lat="43.96282" lon="6.78466">
        <ele>519.784222</ele>
        <time>2021-09-19T06:34:44.000Z</time>
      </trkpt>
      <trkpt lat="43.96266" lon="6.78485">
        <ele>519.691409</ele>
        <time>2021-09-19T06:34:47.000Z</time>
      </trkpt>
      <trkpt lat="43.96228" lon="6.78542">
        <ele>519.710746</ele>
        <time>2021-09-19T06:34:55.000Z</time>
      </trkpt>
      <trkpt lat="43.96221" lon="6.78558">
        <ele>519.7155</ele>
        <time>2021-09-19T06:34:57.000Z</time>
      </trkpt>
      <trkpt lat="43.96214" lon="6.78575">
        <ele>519.720422</ele>
        <time>2021-09-19T06:34:59.000Z</time>
      </trkpt>
      <trkpt lat="43.96189" lon="6.78639">
        <ele>519.738582</ele>
        <time>2021-09-19T06:35:06.000Z</time>
      </trkpt>
      <trkpt lat="43.96165" lon="6.787">
        <ele>519.704316</ele>
        <time>2021-09-19T06:35:13.000Z</time>
      </trkpt>
      <trkpt lat="43.96162" lon="6.78709">
        <ele>519.677968</ele>
        <time>2021-09-19T06:35:14.000Z</time>
      </trkpt>
      <trkpt lat="43.96157" lon="6.78728">
        <ele>519.625941</ele>
        <time>2021-09-19T06:35:16.000Z</time>
      </trkpt>
      <trkpt lat="43.96156" lon="6.78738">
        <ele>519.598493</ele>
        <time>2021-09-19T06:35:17.000Z</time>
      </trkpt>
      <trkpt lat="43.9615" lon="6.78816">
        <ele>519.393266</ele>
        <time>2021-09-19T06:35:24.000Z</time>
      </trkpt>
      <trkpt lat="43.96136" lon="6.78868">
        <ele>519.246677</ele>
        <time>2021-09-19T06:35:29.000Z</time>
      </trkpt>
      <trkpt lat="43.9613" lon="6.78888">
        <ele>519.189249</ele>
        <time>2021-09-19T06:35:31.000Z</time>
      </trkpt>
      <trkpt lat="43.96125" lon="6.78897">
        <ele>519.159197</ele>
        <time>2021-09-19T06:35:32.000Z</time>
      </trkpt>
      <trkpt lat="43.96096" lon="6.78958">
        <ele>519.015669</ele>
        <time>2021-09-19T06:35:38.000Z</time>
      </trkpt>
      <trkpt lat="43.96072" lon="6.79006">
        <ele>518.919874</ele>
        <time>2021-09-19T06:35:43.000Z</time>
      </trkpt>
      <trkpt lat="43.96042" lon="6.79069">
        <ele>518.795446</ele>
        <time>2021-09-19T06:35:50.000Z</time>
      </trkpt>
      <trkpt lat="43.96012" lon="6.79132">
        <ele>518.659318</ele>
        <time>2021-09-19T06:35:57.000Z</time>
      </trkpt>
      <trkpt lat="43.95985" lon="6.79195">
        <ele>518.436139</ele>
        <time>2021-09-19T06:36:04.000Z</time>
      </trkpt>
      <trkpt lat="43.95954" lon="6.79248">
        <ele>518.229311</ele>
        <time>2021-09-19T06:36:11.000Z</time>
      </trkpt>
      <trkpt lat="43.95947" lon="6.79264">
        <ele>518.172387</ele>
        <time>2021-09-19T06:36:13.000Z</time>
      </trkpt>
      <trkpt lat="43.95942" lon="6.79282">
        <ele>518.113274</ele>
        <time>2021-09-19T06:36:15.000Z</time>
      </trkpt>
      <trkpt lat="43.9594" lon="6.79292">
        <ele>518.084158</ele>
        <time>2021-09-19T06:36:16.000Z</time>
      </trkpt>
      <trkpt lat="43.95933" lon="6.79356">
        <ele>517.852495</ele>
        <time>2021-09-19T06:36:23.000Z</time>
      </trkpt>
      <trkpt lat="43.95922" lon="6.79407">
        <ele>517.542286</ele>
        <time>2021-09-19T06:36:29.000Z</time>
      </trkpt>
      <trkpt lat="43.95899" lon="6.79462">
        <ele>517.174718</ele>
        <time>2021-09-19T06:36:36.000Z</time>
      </trkpt>
      <trkpt lat="43.95892" lon="6.79477">
        <ele>517.069815</ele>
        <time>2021-09-19T06:36:38.000Z</time>
      </trkpt>
      <trkpt lat="43.95879" lon="6.79508">
        <ele>516.864579</ele>
        <time>2021-09-19T06:36:42.000Z</time>
      </trkpt>
      <trkpt lat="43.95855" lon="6.79553">
        <ele>516.541194</ele>
        <time>2021-09-19T06:36:48.000Z</time>
      </trkpt>
      <trkpt lat="43.95845" lon="6.79566">
        <ele>516.342289</ele>
        <time>2021-09-19T06:36:50.000Z</time>
      </trkpt>
      <trkpt lat="43.95827" lon="6.79582">
        <ele>515.923131</ele>
        <time>2021-09-19T06:36:53.000Z</time>
      </trkpt>
      <trkpt lat="43.95788" lon="6.79605">
        <ele>515.073333</ele>
        <time>2021-09-19T06:36:59.000Z</time>
      </trkpt>
      <trkpt lat="43.95735" lon="6.79638">
        <ele>513.888824</ele>
        <time>2021-09-19T06:37:07.000Z</time>
      </trkpt>
      <trkpt lat="43.95729" lon="6.79642">
        <ele>513.752551</ele>
        <time>2021-09-19T06:37:08.000Z</time>
      </trkpt>
      <trkpt lat="43.95698" lon="6.79674">
        <ele>512.969697</ele>
        <time>2021-09-19T06:37:13.000Z</time>
      </trkpt>
      <trkpt lat="43.95657" lon="6.79731">
        <ele>511.546341</ele>
        <time>2021-09-19T06:37:20.000Z</time>
      </trkpt>
      <trkpt lat="43.95619" lon="6.79788">
        <ele>510.110974</ele>
        <time>2021-09-19T06:37:27.000Z</time>
      </trkpt>
      <trkpt lat="43.95583" lon="6.7985">
        <ele>508.665571</ele>
        <time>2021-09-19T06:37:34.000Z</time>
      </trkpt>
      <trkpt lat="43.95556" lon="6.79905">
        <ele>507.466873</ele>
        <time>2021-09-19T06:37:40.000Z</time>
      </trkpt>
      <trkpt lat="43.95537" lon="6.79955">
        <ele>506.446259</ele>
        <time>2021-09-19T06:37:45.000Z</time>
      </trkpt>
      <trkpt lat="43.95524" lon="6.79984">
        <ele>505.83829</ele>
        <time>2021-09-19T06:37:48.000Z</time>
      </trkpt>
      <trkpt lat="43.95519" lon="6.79993">
        <ele>505.636482</ele>
        <time>2021-09-19T06:37:49.000Z</time>
      </trkpt>
      <trkpt lat="43.95501" lon="6.8003">
        <ele>504.83919</ele>
        <time>2021-09-19T06:37:53.000Z</time>
      </trkpt>
      <trkpt lat="43.95495" lon="6.8005">
        <ele>504.458928</ele>
        <time>2021-09-19T06:37:55.000Z</time>
      </trkpt>
      <trkpt lat="43.95487" lon="6.80079">
        <ele>503.893354</ele>
        <time>2021-09-19T06:37:58.000Z</time>
      </trkpt>
      <trkpt lat="43.95479" lon="6.80109">
        <ele>503.315414</ele>
        <time>2021-09-19T06:38:01.000Z</time>
      </trkpt>
      <trkpt lat="43.95477" lon="6.80119">
        <ele>503.124567</ele>
        <time>2021-09-19T06:38:02.000Z</time>
      </trkpt>
      <trkpt lat="43.95469" lon="6.8015">
        <ele>502.516481</ele>
        <time>2021-09-19T06:38:05.000Z</time>
      </trkpt>
      <trkpt lat="43.95459" lon="6.80183">
        <ele>501.856983</ele>
        <time>2021-09-19T06:38:08.000Z</time>
      </trkpt>
      <trkpt lat="43.95451" lon="6.80204">
        <ele>501.411656</ele>
        <time>2021-09-19T06:38:10.000Z</time>
      </trkpt>
      <trkpt lat="43.95421" lon="6.80279">
        <ele>499.831502</ele>
        <time>2021-09-19T06:38:17.000Z</time>
      </trkpt>
      <trkpt lat="43.95413" lon="6.80298">
        <ele>499.431999</ele>
        <time>2021-09-19T06:38:19.000Z</time>
      </trkpt>
      <trkpt lat="43.95402" lon="6.80328">
        <ele>498.741831</ele>
        <time>2021-09-19T06:38:22.000Z</time>
      </trkpt>
      <trkpt lat="43.95387" lon="6.80366">
        <ele>497.81277</ele>
        <time>2021-09-19T06:38:26.000Z</time>
      </trkpt>
      <trkpt lat="43.95368" lon="6.80414">
        <ele>496.670237</ele>
        <time>2021-09-19T06:38:31.000Z</time>
      </trkpt>
      <trkpt lat="43.95351" lon="6.80458">
        <ele>495.600571</ele>
        <time>2021-09-19T06:38:36.000Z</time>
      </trkpt>
      <trkpt lat="43.95332" lon="6.80506">
        <ele>494.431879</ele>
        <time>2021-09-19T06:38:41.000Z</time>
      </trkpt>
      <trkpt lat="43.95303" lon="6.80578">
        <ele>492.959135</ele>
        <time>2021-09-19T06:38:48.000Z</time>
      </trkpt>
      <trkpt lat="43.95281" lon="6.80634">
        <ele>491.897577</ele>
        <time>2021-09-19T06:38:54.000Z</time>
      </trkpt>
      <trkpt lat="43.95278" lon="6.80643">
        <ele>491.723995</ele>
        <time>2021-09-19T06:38:55.000Z</time>
      </trkpt>
      <trkpt lat="43.95265" lon="6.80666">
        <ele>491.243562</ele>
        <time>2021-09-19T06:38:58.000Z</time>
      </trkpt>
      <trkpt lat="43.95236" lon="6.807">
        <ele>490.382109</ele>
        <time>2021-09-19T06:39:04.000Z</time>
      </trkpt>
      <trkpt lat="43.95204" lon="6.80743">
        <ele>489.65858</ele>
        <time>2021-09-19T06:39:11.000Z</time>
      </trkpt>
      <trkpt lat="43.95192" lon="6.80764">
        <ele>489.54828</ele>
        <time>2021-09-19T06:39:14.000Z</time>
      </trkpt>
      <trkpt lat="43.95184" lon="6.80778">
        <ele>489.471911</ele>
        <time>2021-09-19T06:39:16.000Z</time>
      </trkpt>
      <trkpt lat="43.95164" lon="6.80829">
        <ele>489.229264</ele>
        <time>2021-09-19T06:39:22.000Z</time>
      </trkpt>
      <trkpt lat="43.95143" lon="6.80879">
        <ele>488.985464</ele>
        <time>2021-09-19T06:39:28.000Z</time>
      </trkpt>
      <trkpt lat="43.95122" lon="6.80929">
        <ele>488.745571</ele>
        <time>2021-09-19T06:39:34.000Z</time>
      </trkpt>
      <trkpt lat="43.95112" lon="6.80942">
        <ele>488.784009</ele>
        <time>2021-09-19T06:39:36.000Z</time>
      </trkpt>
      <trkpt lat="43.95106" lon="6.80945">
        <ele>488.831255</ele>
        <time>2021-09-19T06:39:37.000Z</time>
      </trkpt>
      <trkpt lat="43.9509" lon="6.80947">
        <ele>488.948155</ele>
        <time>2021-09-19T06:39:39.000Z</time>
      </trkpt>
      <trkpt lat="43.95074" lon="6.80941">
        <ele>489.065355</ele>
        <time>2021-09-19T06:39:41.000Z</time>
      </trkpt>
      <trkpt lat="43.95053" lon="6.80927">
        <ele>489.235705</ele>
        <time>2021-09-19T06:39:44.000Z</time>
      </trkpt>
      <trkpt lat="43.95036" lon="6.80915">
        <ele>489.373245</ele>
        <time>2021-09-19T06:39:47.000Z</time>
      </trkpt>
      <trkpt lat="43.95026" lon="6.8091">
        <ele>489.450526</ele>
        <time>2021-09-19T06:39:49.000Z</time>
      </trkpt>
      <trkpt lat="43.95017" lon="6.80907">
        <ele>489.520857</ele>
        <time>2021-09-19T06:39:51.000Z</time>
      </trkpt>
      <trkpt lat="43.95008" lon="6.80906">
        <ele>489.586134</ele>
        <time>2021-09-19T06:39:53.000Z</time>
      </trkpt>
      <trkpt lat="43.95004" lon="6.80906">
        <ele>489.614502</ele>
        <time>2021-09-19T06:39:54.000Z</time>
      </trkpt>
      <trkpt lat="43.94982" lon="6.80911">
        <ele>489.775219</ele>
        <time>2021-09-19T06:40:00.000Z</time>
      </trkpt>
      <trkpt lat="43.94963" lon="6.80931">
        <ele>489.948749</ele>
        <time>2021-09-19T06:40:06.000Z</time>
      </trkpt>
      <trkpt lat="43.94951" lon="6.80952">
        <ele>490.031876</ele>
        <time>2021-09-19T06:40:12.000Z</time>
      </trkpt>
      <trkpt lat="43.9494" lon="6.8097">
        <ele>490.04279</ele>
        <time>2021-09-19T06:40:17.000Z</time>
      </trkpt>
      <trkpt lat="43.94928" lon="6.80991">
        <ele>490.054829</ele>
        <time>2021-09-19T06:40:22.000Z</time>
      </trkpt>
      <trkpt lat="43.94921" lon="6.8101">
        <ele>490.065251</ele>
        <time>2021-09-19T06:40:26.000Z</time>
      </trkpt>
      <trkpt lat="43.94917" lon="6.81022">
        <ele>490.071236</ele>
        <time>2021-09-19T06:40:28.000Z</time>
      </trkpt>
      <trkpt lat="43.94911" lon="6.81039">
        <ele>490.079876</ele>
        <time>2021-09-19T06:40:31.000Z</time>
      </trkpt>
      <trkpt lat="43.94907" lon="6.81064">
        <ele>490.0919</ele>
        <time>2021-09-19T06:40:35.000Z</time>
      </trkpt>
      <trkpt lat="43.94906" lon="6.81071">
        <ele>490.094928</ele>
        <time>2021-09-19T06:40:36.000Z</time>
      </trkpt>
      <trkpt lat="43.94905" lon="6.81095">
        <ele>490.106204</ele>
        <time>2021-09-19T06:40:40.000Z</time>
      </trkpt>
      <trkpt lat="43.94905" lon="6.81107">
        <ele>490.111858</ele>
        <time>2021-09-19T06:40:42.000Z</time>
      </trkpt>
      <trkpt lat="43.94905" lon="6.8113">
        <ele>490.122282</ele>
        <time>2021-09-19T06:40:45.000Z</time>
      </trkpt>
      <trkpt lat="43.94905" lon="6.81183">
        <ele>489.988228</ele>
        <time>2021-09-19T06:40:51.000Z</time>
      </trkpt>
      <trkpt lat="43.94906" lon="6.81193">
        <ele>489.854729</ele>
        <time>2021-09-19T06:40:52.000Z</time>
      </trkpt>
      <trkpt lat="43.94913" lon="6.81235">
        <ele>489.276787</ele>
        <time>2021-09-19T06:40:56.000Z</time>
      </trkpt>
      <trkpt lat="43.94935" lon="6.81298">
        <ele>488.329014</ele>
        <time>2021-09-19T06:41:02.000Z</time>
      </trkpt>
      <trkpt lat="43.94956" lon="6.81354">
        <ele>487.484221</ele>
        <time>2021-09-19T06:41:07.000Z</time>
      </trkpt>
      <trkpt lat="43.9498" lon="6.81421">
        <ele>486.463754</ele>
        <time>2021-09-19T06:41:13.000Z</time>
      </trkpt>
      <trkpt lat="43.94984" lon="6.81432">
        <ele>486.303758</ele>
        <time>2021-09-19T06:41:14.000Z</time>
      </trkpt>
      <trkpt lat="43.95009" lon="6.81501">
        <ele>485.256434</ele>
        <time>2021-09-19T06:41:21.000Z</time>
      </trkpt>
      <trkpt lat="43.95012" lon="6.81511">
        <ele>485.110664</ele>
        <time>2021-09-19T06:41:22.000Z</time>
      </trkpt>
      <trkpt lat="43.95036" lon="6.81579">
        <ele>484.095979</ele>
        <time>2021-09-19T06:41:29.000Z</time>
      </trkpt>
      <trkpt lat="43.95056" lon="6.81658">
        <ele>482.997696</ele>
        <time>2021-09-19T06:41:37.000Z</time>
      </trkpt>
      <trkpt lat="43.95069" lon="6.81739">
        <ele>481.972644</ele>
        <time>2021-09-19T06:41:45.000Z</time>
      </trkpt>
      <trkpt lat="43.95078" lon="6.8181">
        <ele>481.074483</ele>
        <time>2021-09-19T06:41:52.000Z</time>
      </trkpt>
      <trkpt lat="43.95086" lon="6.81884">
        <ele>480.160289</ele>
        <time>2021-09-19T06:41:59.000Z</time>
      </trkpt>
      <trkpt lat="43.95094" lon="6.81947">
        <ele>479.39111</ele>
        <time>2021-09-19T06:42:05.000Z</time>
      </trkpt>
      <trkpt lat="43.95102" lon="6.82022">
        <ele>478.469768</ele>
        <time>2021-09-19T06:42:12.000Z</time>
      </trkpt>
      <trkpt lat="43.95106" lon="6.82055">
        <ele>478.074983</ele>
        <time>2021-09-19T06:42:15.000Z</time>
      </trkpt>
      <trkpt lat="43.95114" lon="6.8213">
        <ele>477.176664</ele>
        <time>2021-09-19T06:42:22.000Z</time>
      </trkpt>
      <trkpt lat="43.95115" lon="6.82141">
        <ele>477.058907</ele>
        <time>2021-09-19T06:42:23.000Z</time>
      </trkpt>
      <trkpt lat="43.95124" lon="6.82215">
        <ele>476.25426</ele>
        <time>2021-09-19T06:42:30.000Z</time>
      </trkpt>
      <trkpt lat="43.95127" lon="6.82236">
        <ele>476.028452</ele>
        <time>2021-09-19T06:42:32.000Z</time>
      </trkpt>
      <trkpt lat="43.95136" lon="6.82311">
        <ele>475.216444</ele>
        <time>2021-09-19T06:42:39.000Z</time>
      </trkpt>
      <trkpt lat="43.95144" lon="6.82387">
        <ele>474.37947</ele>
        <time>2021-09-19T06:42:46.000Z</time>
      </trkpt>
      <trkpt lat="43.95152" lon="6.82461">
        <ele>473.516245</ele>
        <time>2021-09-19T06:42:53.000Z</time>
      </trkpt>
      <trkpt lat="43.95146" lon="6.825">
        <ele>473.054416</ele>
        <time>2021-09-19T06:42:57.000Z</time>
      </trkpt>
      <trkpt lat="43.95151" lon="6.82539">
        <ele>472.603302</ele>
        <time>2021-09-19T06:43:01.000Z</time>
      </trkpt>
      <trkpt lat="43.95153" lon="6.82548">
        <ele>472.490098</ele>
        <time>2021-09-19T06:43:02.000Z</time>
      </trkpt>
      <trkpt lat="43.95167" lon="6.8262">
        <ele>471.591183</ele>
        <time>2021-09-19T06:43:09.000Z</time>
      </trkpt>
      <trkpt lat="43.95175" lon="6.82685">
        <ele>470.555396</ele>
        <time>2021-09-19T06:43:15.000Z</time>
      </trkpt>
      <trkpt lat="43.95178" lon="6.8274">
        <ele>469.678743</ele>
        <time>2021-09-19T06:43:20.000Z</time>
      </trkpt>
      <trkpt lat="43.9518" lon="6.82806">
        <ele>468.636499</ele>
        <time>2021-09-19T06:43:26.000Z</time>
      </trkpt>
      <trkpt lat="43.95182" lon="6.82873">
        <ele>467.485829</ele>
        <time>2021-09-19T06:43:32.000Z</time>
      </trkpt>
      <trkpt lat="43.95184" lon="6.82948">
        <ele>465.800923</ele>
        <time>2021-09-19T06:43:39.000Z</time>
      </trkpt>
      <trkpt lat="43.95184" lon="6.82969">
        <ele>465.330355</ele>
        <time>2021-09-19T06:43:41.000Z</time>
      </trkpt>
      <trkpt lat="43.95185" lon="6.82989">
        <ele>464.895581</ele>
        <time>2021-09-19T06:43:43.000Z</time>
      </trkpt>
      <trkpt lat="43.95185" lon="6.82999">
        <ele>464.673829</ele>
        <time>2021-09-19T06:43:44.000Z</time>
      </trkpt>
      <trkpt lat="43.95186" lon="6.83039">
        <ele>463.761777</ele>
        <time>2021-09-19T06:43:48.000Z</time>
      </trkpt>
      <trkpt lat="43.95188" lon="6.83114">
        <ele>462.10801</ele>
        <time>2021-09-19T06:43:55.000Z</time>
      </trkpt>
      <trkpt lat="43.9519" lon="6.83166">
        <ele>461.033411</ele>
        <time>2021-09-19T06:44:00.000Z</time>
      </trkpt>
      <trkpt lat="43.95191" lon="6.83207">
        <ele>460.175488</ele>
        <time>2021-09-19T06:44:04.000Z</time>
      </trkpt>
      <trkpt lat="43.95191" lon="6.83218">
        <ele>459.96098</ele>
        <time>2021-09-19T06:44:05.000Z</time>
      </trkpt>
      <trkpt lat="43.95193" lon="6.83281">
        <ele>458.65334</ele>
        <time>2021-09-19T06:44:11.000Z</time>
      </trkpt>
      <trkpt lat="43.95195" lon="6.83342">
        <ele>457.395236</ele>
        <time>2021-09-19T06:44:17.000Z</time>
      </trkpt>
      <trkpt lat="43.95196" lon="6.83395">
        <ele>456.513985</ele>
        <time>2021-09-19T06:44:22.000Z</time>
      </trkpt>
      <trkpt lat="43.95199" lon="6.83469">
        <ele>455.38931</ele>
        <time>2021-09-19T06:44:29.000Z</time>
      </trkpt>
      <trkpt lat="43.95201" lon="6.83522">
        <ele>454.587624</ele>
        <time>2021-09-19T06:44:34.000Z</time>
      </trkpt>
      <trkpt lat="43.95203" lon="6.83573">
        <ele>453.807136</ele>
        <time>2021-09-19T06:44:39.000Z</time>
      </trkpt>
      <trkpt lat="43.95204" lon="6.83604">
        <ele>453.338044</ele>
        <time>2021-09-19T06:44:42.000Z</time>
      </trkpt>
      <trkpt lat="43.95204" lon="6.83614">
        <ele>453.148523</ele>
        <time>2021-09-19T06:44:43.000Z</time>
      </trkpt>
      <trkpt lat="43.95206" lon="6.83656">
        <ele>452.311788</ele>
        <time>2021-09-19T06:44:47.000Z</time>
      </trkpt>
      <trkpt lat="43.95206" lon="6.83667">
        <ele>452.097578</ele>
        <time>2021-09-19T06:44:48.000Z</time>
      </trkpt>
      <trkpt lat="43.95207" lon="6.83686">
        <ele>451.701244</ele>
        <time>2021-09-19T06:44:50.000Z</time>
      </trkpt>
      <trkpt lat="43.95208" lon="6.83728">
        <ele>450.870356</ele>
        <time>2021-09-19T06:44:54.000Z</time>
      </trkpt>
      <trkpt lat="43.95209" lon="6.83737">
        <ele>450.678245</ele>
        <time>2021-09-19T06:44:55.000Z</time>
      </trkpt>
      <trkpt lat="43.95211" lon="6.83787">
        <ele>449.679213</ele>
        <time>2021-09-19T06:45:00.000Z</time>
      </trkpt>
      <trkpt lat="43.95212" lon="6.83827">
        <ele>448.876422</ele>
        <time>2021-09-19T06:45:04.000Z</time>
      </trkpt>
      <trkpt lat="43.95212" lon="6.83838">
        <ele>448.674324</ele>
        <time>2021-09-19T06:45:05.000Z</time>
      </trkpt>
      <trkpt lat="43.95213" lon="6.83867">
        <ele>448.055914</ele>
        <time>2021-09-19T06:45:08.000Z</time>
      </trkpt>
      <trkpt lat="43.95213" lon="6.83876">
        <ele>447.823979</ele>
        <time>2021-09-19T06:45:09.000Z</time>
      </trkpt>
      <trkpt lat="43.95214" lon="6.83886">
        <ele>447.592161</ele>
        <time>2021-09-19T06:45:10.000Z</time>
      </trkpt>
      <trkpt lat="43.95214" lon="6.83907">
        <ele>447.109515</ele>
        <time>2021-09-19T06:45:12.000Z</time>
      </trkpt>
      <trkpt lat="43.95215" lon="6.83931">
        <ele>446.529867</ele>
        <time>2021-09-19T06:45:15.000Z</time>
      </trkpt>
      <trkpt lat="43.95215" lon="6.83961">
        <ele>445.822496</ele>
        <time>2021-09-19T06:45:18.000Z</time>
      </trkpt>
      <trkpt lat="43.95216" lon="6.83974">
        <ele>445.51955</ele>
        <time>2021-09-19T06:45:19.000Z</time>
      </trkpt>
      <trkpt lat="43.9522" lon="6.84029">
        <ele>444.208053</ele>
        <time>2021-09-19T06:45:24.000Z</time>
      </trkpt>
      <trkpt lat="43.9522" lon="6.8404">
        <ele>443.95165</ele>
        <time>2021-09-19T06:45:25.000Z</time>
      </trkpt>
      <trkpt lat="43.95222" lon="6.8406">
        <ele>443.459717</ele>
        <time>2021-09-19T06:45:27.000Z</time>
      </trkpt>
      <trkpt lat="43.95225" lon="6.84104">
        <ele>442.418047</ele>
        <time>2021-09-19T06:45:31.000Z</time>
      </trkpt>
      <trkpt lat="43.95227" lon="6.84125">
        <ele>442.277928</ele>
        <time>2021-09-19T06:45:33.000Z</time>
      </trkpt>
      <trkpt lat="43.95233" lon="6.84176">
        <ele>441.974962</ele>
        <time>2021-09-19T06:45:38.000Z</time>
      </trkpt>
      <trkpt lat="43.95239" lon="6.84225">
        <ele>441.681568</ele>
        <time>2021-09-19T06:45:43.000Z</time>
      </trkpt>
      <trkpt lat="43.95246" lon="6.84274">
        <ele>441.38793</ele>
        <time>2021-09-19T06:45:48.000Z</time>
      </trkpt>
      <trkpt lat="43.95248" lon="6.84284">
        <ele>441.328562</ele>
        <time>2021-09-19T06:45:49.000Z</time>
      </trkpt>
      <trkpt lat="43.95252" lon="6.84313">
        <ele>441.156534</ele>
        <time>2021-09-19T06:45:52.000Z</time>
      </trkpt>
      <trkpt lat="43.95255" lon="6.84334">
        <ele>441.033199</ele>
        <time>2021-09-19T06:45:54.000Z</time>
      </trkpt>
      <trkpt lat="43.95266" lon="6.84393">
        <ele>440.873416</ele>
        <time>2021-09-19T06:46:00.000Z</time>
      </trkpt>
      <trkpt lat="43.95275" lon="6.84442">
        <ele>440.809827</ele>
        <time>2021-09-19T06:46:05.000Z</time>
      </trkpt>
      <trkpt lat="43.95277" lon="6.84451">
        <ele>440.797208</ele>
        <time>2021-09-19T06:46:06.000Z</time>
      </trkpt>
      <trkpt lat="43.95286" lon="6.845">
        <ele>440.733193</ele>
        <time>2021-09-19T06:46:11.000Z</time>
      </trkpt>
      <trkpt lat="43.95301" lon="6.84567">
        <ele>440.644908</ele>
        <time>2021-09-19T06:46:18.000Z</time>
      </trkpt>
      <trkpt lat="43.95314" lon="6.84631">
        <ele>440.580794</ele>
        <time>2021-09-19T06:46:25.000Z</time>
      </trkpt>
      <trkpt lat="43.95327" lon="6.84687">
        <ele>440.536803</ele>
        <time>2021-09-19T06:46:31.000Z</time>
      </trkpt>
      <trkpt lat="43.95343" lon="6.84765">
        <ele>440.475961</ele>
        <time>2021-09-19T06:46:39.000Z</time>
      </trkpt>
      <trkpt lat="43.95347" lon="6.84784">
        <ele>440.461383</ele>
        <time>2021-09-19T06:46:41.000Z</time>
      </trkpt>
      <trkpt lat="43.95351" lon="6.84802">
        <ele>440.447152</ele>
        <time>2021-09-19T06:46:43.000Z</time>
      </trkpt>
      <trkpt lat="43.95355" lon="6.8482">
        <ele>440.43285</ele>
        <time>2021-09-19T06:46:45.000Z</time>
      </trkpt>
      <trkpt lat="43.95366" lon="6.84869">
        <ele>440.186303</ele>
        <time>2021-09-19T06:46:50.000Z</time>
      </trkpt>
      <trkpt lat="43.95376" lon="6.84918">
        <ele>439.887589</ele>
        <time>2021-09-19T06:46:55.000Z</time>
      </trkpt>
      <trkpt lat="43.95389" lon="6.84986">
        <ele>439.467613</ele>
        <time>2021-09-19T06:47:02.000Z</time>
      </trkpt>
      <trkpt lat="43.95404" lon="6.85065">
        <ele>438.981541</ele>
        <time>2021-09-19T06:47:10.000Z</time>
      </trkpt>
      <trkpt lat="43.9541" lon="6.85112">
        <ele>438.471779</ele>
        <time>2021-09-19T06:47:15.000Z</time>
      </trkpt>
      <trkpt lat="43.95412" lon="6.85121">
        <ele>438.362212</ele>
        <time>2021-09-19T06:47:16.000Z</time>
      </trkpt>
      <trkpt lat="43.95414" lon="6.8514">
        <ele>438.140314</ele>
        <time>2021-09-19T06:47:18.000Z</time>
      </trkpt>
      <trkpt lat="43.95416" lon="6.8515">
        <ele>438.023965</ele>
        <time>2021-09-19T06:47:19.000Z</time>
      </trkpt>
      <trkpt lat="43.9542" lon="6.85189">
        <ele>437.567084</ele>
        <time>2021-09-19T06:47:23.000Z</time>
      </trkpt>
      <trkpt lat="43.95422" lon="6.85208">
        <ele>437.346087</ele>
        <time>2021-09-19T06:47:25.000Z</time>
      </trkpt>
      <trkpt lat="43.95424" lon="6.85227">
        <ele>437.127582</ele>
        <time>2021-09-19T06:47:27.000Z</time>
      </trkpt>
      <trkpt lat="43.95425" lon="6.85236">
        <ele>437.020513</ele>
        <time>2021-09-19T06:47:28.000Z</time>
      </trkpt>
      <trkpt lat="43.95427" lon="6.85262">
        <ele>436.714795</ele>
        <time>2021-09-19T06:47:31.000Z</time>
      </trkpt>
      <trkpt lat="43.95428" lon="6.85276">
        <ele>436.552208</ele>
        <time>2021-09-19T06:47:33.000Z</time>
      </trkpt>
      <trkpt lat="43.95431" lon="6.85312">
        <ele>436.135788</ele>
        <time>2021-09-19T06:47:36.000Z</time>
      </trkpt>
      <trkpt lat="43.95433" lon="6.8536">
        <ele>435.723014</ele>
        <time>2021-09-19T06:47:41.000Z</time>
      </trkpt>
      <trkpt lat="43.95434" lon="6.8537">
        <ele>435.637507</ele>
        <time>2021-09-19T06:47:43.000Z</time>
      </trkpt>
      <trkpt lat="43.95406" lon="6.85382">
        <ele>435.30649</ele>
        <time>2021-09-19T06:47:44.000Z</time>
      </trkpt>
      <trkpt lat="43.95407" lon="6.85403">
        <ele>435.130401</ele>
        <time>2021-09-19T06:47:46.000Z</time>
      </trkpt>
      <trkpt lat="43.95407" lon="6.85413">
        <ele>435.050818</ele>
        <time>2021-09-19T06:47:47.000Z</time>
      </trkpt>
      <trkpt lat="43.95407" lon="6.85432">
        <ele>434.897258</ele>
        <time>2021-09-19T06:47:49.000Z</time>
      </trkpt>
      <trkpt lat="43.95409" lon="6.85443">
        <ele>434.798338</ele>
        <time>2021-09-19T06:47:50.000Z</time>
      </trkpt>
      <trkpt lat="43.95416" lon="6.85464">
        <ele>434.607746</ele>
        <time>2021-09-19T06:47:52.000Z</time>
      </trkpt>
      <trkpt lat="43.9542" lon="6.85488">
        <ele>434.409843</ele>
        <time>2021-09-19T06:47:54.000Z</time>
      </trkpt>
      <trkpt lat="43.95423" lon="6.85506">
        <ele>434.253813</ele>
        <time>2021-09-19T06:47:56.000Z</time>
      </trkpt>
      <trkpt lat="43.95435" lon="6.85518">
        <ele>434.08581</ele>
        <time>2021-09-19T06:47:58.000Z</time>
      </trkpt>
      <trkpt lat="43.95433" lon="6.85578">
        <ele>434.692877</ele>
        <time>2021-09-19T06:48:04.000Z</time>
      </trkpt>
      <trkpt lat="43.95432" lon="6.85604">
        <ele>435.057711</ele>
        <time>2021-09-19T06:48:07.000Z</time>
      </trkpt>
      <trkpt lat="43.95431" lon="6.85641">
        <ele>435.557954</ele>
        <time>2021-09-19T06:48:11.000Z</time>
      </trkpt>
      <trkpt lat="43.95427" lon="6.85697">
        <ele>436.32499</ele>
        <time>2021-09-19T06:48:17.000Z</time>
      </trkpt>
      <trkpt lat="43.95425" lon="6.85735">
        <ele>436.849766</ele>
        <time>2021-09-19T06:48:21.000Z</time>
      </trkpt>
      <trkpt lat="43.95423" lon="6.85755">
        <ele>437.119715</ele>
        <time>2021-09-19T06:48:23.000Z</time>
      </trkpt>
      <trkpt lat="43.95422" lon="6.85774">
        <ele>437.377436</ele>
        <time>2021-09-19T06:48:25.000Z</time>
      </trkpt>
      <trkpt lat="43.95419" lon="6.8582">
        <ele>438.746297</ele>
        <time>2021-09-19T06:48:30.000Z</time>
      </trkpt>
      <trkpt lat="43.95415" lon="6.8587">
        <ele>440.28612</ele>
        <time>2021-09-19T06:48:35.000Z</time>
      </trkpt>
      <trkpt lat="43.95414" lon="6.8589">
        <ele>440.900043</ele>
        <time>2021-09-19T06:48:37.000Z</time>
      </trkpt>
      <trkpt lat="43.95413" lon="6.85909">
        <ele>441.467977</ele>
        <time>2021-09-19T06:48:39.000Z</time>
      </trkpt>
      <trkpt lat="43.95409" lon="6.85959">
        <ele>443.005605</ele>
        <time>2021-09-19T06:48:44.000Z</time>
      </trkpt>
      <trkpt lat="43.95405" lon="6.86017">
        <ele>444.788804</ele>
        <time>2021-09-19T06:48:50.000Z</time>
      </trkpt>
      <trkpt lat="43.95404" lon="6.86027">
        <ele>445.112338</ele>
        <time>2021-09-19T06:48:51.000Z</time>
      </trkpt>
      <trkpt lat="43.95402" lon="6.86046">
        <ele>445.66799</ele>
        <time>2021-09-19T06:48:53.000Z</time>
      </trkpt>
      <trkpt lat="43.95398" lon="6.86107">
        <ele>447.493702</ele>
        <time>2021-09-19T06:48:59.000Z</time>
      </trkpt>
      <trkpt lat="43.95394" lon="6.86165">
        <ele>449.244281</ele>
        <time>2021-09-19T06:49:05.000Z</time>
      </trkpt>
      <trkpt lat="43.9539" lon="6.86212">
        <ele>450.648523</ele>
        <time>2021-09-19T06:49:10.000Z</time>
      </trkpt>
      <trkpt lat="43.95389" lon="6.8623">
        <ele>451.197813</ele>
        <time>2021-09-19T06:49:12.000Z</time>
      </trkpt>
      <trkpt lat="43.95385" lon="6.86296">
        <ele>453.493558</ele>
        <time>2021-09-19T06:49:19.000Z</time>
      </trkpt>
      <trkpt lat="43.95381" lon="6.86342">
        <ele>455.579964</ele>
        <time>2021-09-19T06:49:24.000Z</time>
      </trkpt>
      <trkpt lat="43.95377" lon="6.86406">
        <ele>458.490305</ele>
        <time>2021-09-19T06:49:31.000Z</time>
      </trkpt>
      <trkpt lat="43.95376" lon="6.86423">
        <ele>459.260888</ele>
        <time>2021-09-19T06:49:33.000Z</time>
      </trkpt>
      <trkpt lat="43.95375" lon="6.8644">
        <ele>460.031471</ele>
        <time>2021-09-19T06:49:35.000Z</time>
      </trkpt>
      <trkpt lat="43.95374" lon="6.86448">
        <ele>460.398499</ele>
        <time>2021-09-19T06:49:36.000Z</time>
      </trkpt>
      <trkpt lat="43.95371" lon="6.8651">
        <ele>463.203205</ele>
        <time>2021-09-19T06:49:43.000Z</time>
      </trkpt>
      <trkpt lat="43.95366" lon="6.86579">
        <ele>464.610357</ele>
        <time>2021-09-19T06:49:49.000Z</time>
      </trkpt>
      <trkpt lat="43.95363" lon="6.86633">
        <ele>465.411142</ele>
        <time>2021-09-19T06:49:54.000Z</time>
      </trkpt>
      <trkpt lat="43.95359" lon="6.86699">
        <ele>466.368743</ele>
        <time>2021-09-19T06:50:00.000Z</time>
      </trkpt>
      <trkpt lat="43.95356" lon="6.86739">
        <ele>466.965782</ele>
        <time>2021-09-19T06:50:04.000Z</time>
      </trkpt>
      <trkpt lat="43.95356" lon="6.86749">
        <ele>467.110951</ele>
        <time>2021-09-19T06:50:05.000Z</time>
      </trkpt>
      <trkpt lat="43.95353" lon="6.86789">
        <ele>467.137194</ele>
        <time>2021-09-19T06:50:09.000Z</time>
      </trkpt>
      <trkpt lat="43.95352" lon="6.86808">
        <ele>466.800727</ele>
        <time>2021-09-19T06:50:11.000Z</time>
      </trkpt>
      <trkpt lat="43.95348" lon="6.86868">
        <ele>465.763574</ele>
        <time>2021-09-19T06:50:17.000Z</time>
      </trkpt>
      <trkpt lat="43.95343" lon="6.86917">
        <ele>464.912147</ele>
        <time>2021-09-19T06:50:22.000Z</time>
      </trkpt>
      <trkpt lat="43.95326" lon="6.86973">
        <ele>463.8565</ele>
        <time>2021-09-19T06:50:28.000Z</time>
      </trkpt>
      <trkpt lat="43.95309" lon="6.87025">
        <ele>462.57481</ele>
        <time>2021-09-19T06:50:34.000Z</time>
      </trkpt>
      <trkpt lat="43.95295" lon="6.87065">
        <ele>460.937697</ele>
        <time>2021-09-19T06:50:39.000Z</time>
      </trkpt>
      <trkpt lat="43.95292" lon="6.87073">
        <ele>460.61761</ele>
        <time>2021-09-19T06:50:40.000Z</time>
      </trkpt>
      <trkpt lat="43.95285" lon="6.87096">
        <ele>459.673057</ele>
        <time>2021-09-19T06:50:43.000Z</time>
      </trkpt>
      <trkpt lat="43.95281" lon="6.87111">
        <ele>459.076201</ele>
        <time>2021-09-19T06:50:45.000Z</time>
      </trkpt>
      <trkpt lat="43.95279" lon="6.87121">
        <ele>458.71014</ele>
        <time>2021-09-19T06:50:46.000Z</time>
      </trkpt>
      <trkpt lat="43.95275" lon="6.8716">
        <ele>457.236965</ele>
        <time>2021-09-19T06:50:50.000Z</time>
      </trkpt>
      <trkpt lat="43.95276" lon="6.8717">
        <ele>456.888369</ele>
        <time>2021-09-19T06:50:51.000Z</time>
      </trkpt>
      <trkpt lat="43.95277" lon="6.87199">
        <ele>455.795304</ele>
        <time>2021-09-19T06:50:54.000Z</time>
      </trkpt>
      <trkpt lat="43.95278" lon="6.8721">
        <ele>455.386686</ele>
        <time>2021-09-19T06:50:55.000Z</time>
      </trkpt>
      <trkpt lat="43.9528" lon="6.8722">
        <ele>455.006289</ele>
        <time>2021-09-19T06:50:56.000Z</time>
      </trkpt>
      <trkpt lat="43.95282" lon="6.87242">
        <ele>454.20457</ele>
        <time>2021-09-19T06:50:58.000Z</time>
      </trkpt>
      <trkpt lat="43.95284" lon="6.87291">
        <ele>452.649182</ele>
        <time>2021-09-19T06:51:03.000Z</time>
      </trkpt>
      <trkpt lat="43.95282" lon="6.87301">
        <ele>452.346423</ele>
        <time>2021-09-19T06:51:04.000Z</time>
      </trkpt>
      <trkpt lat="43.95276" lon="6.87319">
        <ele>451.730225</ele>
        <time>2021-09-19T06:51:06.000Z</time>
      </trkpt>
      <trkpt lat="43.95273" lon="6.87328">
        <ele>451.434062</ele>
        <time>2021-09-19T06:51:07.000Z</time>
      </trkpt>
      <trkpt lat="43.95253" lon="6.87378">
        <ele>449.718229</ele>
        <time>2021-09-19T06:51:13.000Z</time>
      </trkpt>
      <trkpt lat="43.95227" lon="6.87427">
        <ele>447.886593</ele>
        <time>2021-09-19T06:51:20.000Z</time>
      </trkpt>
      <trkpt lat="43.95216" lon="6.87446">
        <ele>447.141013</ele>
        <time>2021-09-19T06:51:23.000Z</time>
      </trkpt>
      <trkpt lat="43.95209" lon="6.87459">
        <ele>446.633255</ele>
        <time>2021-09-19T06:51:25.000Z</time>
      </trkpt>
      <trkpt lat="43.95205" lon="6.87466">
        <ele>446.383126</ele>
        <time>2021-09-19T06:51:26.000Z</time>
      </trkpt>
      <trkpt lat="43.95197" lon="6.87486">
        <ele>446.037865</ele>
        <time>2021-09-19T06:51:29.000Z</time>
      </trkpt>
      <trkpt lat="43.95194" lon="6.875">
        <ele>445.831818</ele>
        <time>2021-09-19T06:51:31.000Z</time>
      </trkpt>
      <trkpt lat="43.9519" lon="6.87541">
        <ele>445.246563</ele>
        <time>2021-09-19T06:51:37.000Z</time>
      </trkpt>
      <trkpt lat="43.9519" lon="6.87547">
        <ele>445.15638</ele>
        <time>2021-09-19T06:51:38.000Z</time>
      </trkpt>
      <trkpt lat="43.95189" lon="6.87568">
        <ele>444.872984</ele>
        <time>2021-09-19T06:51:41.000Z</time>
      </trkpt>
      <trkpt lat="43.95189" lon="6.87574">
        <ele>444.779988</ele>
        <time>2021-09-19T06:51:42.000Z</time>
      </trkpt>
      <trkpt lat="43.95188" lon="6.87596">
        <ele>444.465755</ele>
        <time>2021-09-19T06:51:45.000Z</time>
      </trkpt>
      <trkpt lat="43.95187" lon="6.87614">
        <ele>444.221081</ele>
        <time>2021-09-19T06:51:47.000Z</time>
      </trkpt>
      <trkpt lat="43.95186" lon="6.87622">
        <ele>444.104588</ele>
        <time>2021-09-19T06:51:48.000Z</time>
      </trkpt>
      <trkpt lat="43.95184" lon="6.87639">
        <ele>443.865476</ele>
        <time>2021-09-19T06:51:50.000Z</time>
      </trkpt>
      <trkpt lat="43.95183" lon="6.87648">
        <ele>443.738954</ele>
        <time>2021-09-19T06:51:51.000Z</time>
      </trkpt>
      <trkpt lat="43.9518" lon="6.87692">
        <ele>443.105071</ele>
        <time>2021-09-19T06:51:56.000Z</time>
      </trkpt>
      <trkpt lat="43.95182" lon="6.87704">
        <ele>442.937459</ele>
        <time>2021-09-19T06:51:57.000Z</time>
      </trkpt>
      <trkpt lat="43.95188" lon="6.87712">
        <ele>442.769665</ele>
        <time>2021-09-19T06:51:58.000Z</time>
      </trkpt>
      <trkpt lat="43.95193" lon="6.87715">
        <ele>442.623056</ele>
        <time>2021-09-19T06:51:59.000Z</time>
      </trkpt>
      <trkpt lat="43.95198" lon="6.87718">
        <ele>442.47961</ele>
        <time>2021-09-19T06:52:00.000Z</time>
      </trkpt>
      <trkpt lat="43.95216" lon="6.87729">
        <ele>441.958871</ele>
        <time>2021-09-19T06:52:03.000Z</time>
      </trkpt>
      <trkpt lat="43.9525" lon="6.87751">
        <ele>440.969108</ele>
        <time>2021-09-19T06:52:09.000Z</time>
      </trkpt>
      <trkpt lat="43.95254" lon="6.87756">
        <ele>440.837577</ele>
        <time>2021-09-19T06:52:10.000Z</time>
      </trkpt>
      <trkpt lat="43.95257" lon="6.87764">
        <ele>440.673193</ele>
        <time>2021-09-19T06:52:11.000Z</time>
      </trkpt>
      <trkpt lat="43.95258" lon="6.87781">
        <ele>440.348296</ele>
        <time>2021-09-19T06:52:13.000Z</time>
      </trkpt>
      <trkpt lat="43.95253" lon="6.87801">
        <ele>439.956045</ele>
        <time>2021-09-19T06:52:15.000Z</time>
      </trkpt>
      <trkpt lat="43.95247" lon="6.87819">
        <ele>439.567233</ele>
        <time>2021-09-19T06:52:17.000Z</time>
      </trkpt>
      <trkpt lat="43.95228" lon="6.87875">
        <ele>438.409298</ele>
        <time>2021-09-19T06:52:23.000Z</time>
      </trkpt>
      <trkpt lat="43.95214" lon="6.87921">
        <ele>437.431549</ele>
        <time>2021-09-19T06:52:28.000Z</time>
      </trkpt>
      <trkpt lat="43.95203" lon="6.87964">
        <ele>436.526368</ele>
        <time>2021-09-19T06:52:32.000Z</time>
      </trkpt>
      <trkpt lat="43.95194" lon="6.88031">
        <ele>435.187437</ele>
        <time>2021-09-19T06:52:38.000Z</time>
      </trkpt>
      <trkpt lat="43.95193" lon="6.88106">
        <ele>433.698311</ele>
        <time>2021-09-19T06:52:45.000Z</time>
      </trkpt>
      <trkpt lat="43.95195" lon="6.88117">
        <ele>433.484741</ele>
        <time>2021-09-19T06:52:46.000Z</time>
      </trkpt>
      <trkpt lat="43.95201" lon="6.88136">
        <ele>433.077046</ele>
        <time>2021-09-19T06:52:48.000Z</time>
      </trkpt>
      <trkpt lat="43.95205" lon="6.88145">
        <ele>432.882302</ele>
        <time>2021-09-19T06:52:49.000Z</time>
      </trkpt>
      <trkpt lat="43.95212" lon="6.88163">
        <ele>432.496109</ele>
        <time>2021-09-19T06:52:51.000Z</time>
      </trkpt>
      <trkpt lat="43.95217" lon="6.88181">
        <ele>432.112125</ele>
        <time>2021-09-19T06:52:53.000Z</time>
      </trkpt>
      <trkpt lat="43.95219" lon="6.88232">
        <ele>431.151476</ele>
        <time>2021-09-19T06:52:58.000Z</time>
      </trkpt>
      <trkpt lat="43.95222" lon="6.88261">
        <ele>430.592073</ele>
        <time>2021-09-19T06:53:01.000Z</time>
      </trkpt>
      <trkpt lat="43.95226" lon="6.88281">
        <ele>430.208834</ele>
        <time>2021-09-19T06:53:03.000Z</time>
      </trkpt>
      <trkpt lat="43.95228" lon="6.88291">
        <ele>430.015682</ele>
        <time>2021-09-19T06:53:04.000Z</time>
      </trkpt>
      <trkpt lat="43.95235" lon="6.88321">
        <ele>429.396922</ele>
        <time>2021-09-19T06:53:07.000Z</time>
      </trkpt>
      <trkpt lat="43.95249" lon="6.88361">
        <ele>428.563681</ele>
        <time>2021-09-19T06:53:11.000Z</time>
      </trkpt>
      <trkpt lat="43.95273" lon="6.88431">
        <ele>427.158416</ele>
        <time>2021-09-19T06:53:18.000Z</time>
      </trkpt>
      <trkpt lat="43.95279" lon="6.88451">
        <ele>426.77167</ele>
        <time>2021-09-19T06:53:20.000Z</time>
      </trkpt>
      <trkpt lat="43.95303" lon="6.88516">
        <ele>425.458266</ele>
        <time>2021-09-19T06:53:27.000Z</time>
      </trkpt>
      <trkpt lat="43.95323" lon="6.88571">
        <ele>424.352033</ele>
        <time>2021-09-19T06:53:33.000Z</time>
      </trkpt>
      <trkpt lat="43.95339" lon="6.88616">
        <ele>423.263535</ele>
        <time>2021-09-19T06:53:38.000Z</time>
      </trkpt>
      <trkpt lat="43.95349" lon="6.88643">
        <ele>422.519769</ele>
        <time>2021-09-19T06:53:41.000Z</time>
      </trkpt>
      <trkpt lat="43.95354" lon="6.88662">
        <ele>422.035459</ele>
        <time>2021-09-19T06:53:43.000Z</time>
      </trkpt>
      <trkpt lat="43.95366" lon="6.88709">
        <ele>420.799483</ele>
        <time>2021-09-19T06:53:48.000Z</time>
      </trkpt>
      <trkpt lat="43.95374" lon="6.88746">
        <ele>419.847215</ele>
        <time>2021-09-19T06:53:52.000Z</time>
      </trkpt>
      <trkpt lat="43.95385" lon="6.88805">
        <ele>418.365953</ele>
        <time>2021-09-19T06:53:58.000Z</time>
      </trkpt>
      <trkpt lat="43.95391" lon="6.88834">
        <ele>417.677423</ele>
        <time>2021-09-19T06:54:01.000Z</time>
      </trkpt>
      <trkpt lat="43.95395" lon="6.88853">
        <ele>417.347586</ele>
        <time>2021-09-19T06:54:03.000Z</time>
      </trkpt>
      <trkpt lat="43.954" lon="6.8887">
        <ele>417.034587</ele>
        <time>2021-09-19T06:54:05.000Z</time>
      </trkpt>
      <trkpt lat="43.95405" lon="6.88888">
        <ele>416.707527</ele>
        <time>2021-09-19T06:54:07.000Z</time>
      </trkpt>
      <trkpt lat="43.95419" lon="6.88932">
        <ele>415.906565</ele>
        <time>2021-09-19T06:54:12.000Z</time>
      </trkpt>
      <trkpt lat="43.95425" lon="6.88949">
        <ele>415.581225</ele>
        <time>2021-09-19T06:54:14.000Z</time>
      </trkpt>
      <trkpt lat="43.95436" lon="6.88974">
        <ele>415.086368</ele>
        <time>2021-09-19T06:54:17.000Z</time>
      </trkpt>
      <trkpt lat="43.95459" lon="6.89034">
        <ele>413.952409</ele>
        <time>2021-09-19T06:54:24.000Z</time>
      </trkpt>
      <trkpt lat="43.95461" lon="6.89042">
        <ele>413.811188</ele>
        <time>2021-09-19T06:54:25.000Z</time>
      </trkpt>
      <trkpt lat="43.95465" lon="6.89068">
        <ele>413.520028</ele>
        <time>2021-09-19T06:54:28.000Z</time>
      </trkpt>
      <trkpt lat="43.95476" lon="6.8912">
        <ele>413.16932</ele>
        <time>2021-09-19T06:54:34.000Z</time>
      </trkpt>
      <trkpt lat="43.95478" lon="6.89159">
        <ele>412.924081</ele>
        <time>2021-09-19T06:54:38.000Z</time>
      </trkpt>
      <trkpt lat="43.95478" lon="6.89178">
        <ele>412.800812</ele>
        <time>2021-09-19T06:54:40.000Z</time>
      </trkpt>
      <trkpt lat="43.95477" lon="6.89205">
        <ele>412.629497</ele>
        <time>2021-09-19T06:54:43.000Z</time>
      </trkpt>
      <trkpt lat="43.95477" lon="6.89222">
        <ele>412.518278</ele>
        <time>2021-09-19T06:54:45.000Z</time>
      </trkpt>
      <trkpt lat="43.95477" lon="6.89277">
        <ele>412.166345</ele>
        <time>2021-09-19T06:54:51.000Z</time>
      </trkpt>
      <trkpt lat="43.95477" lon="6.89296">
        <ele>412.046911</ele>
        <time>2021-09-19T06:54:53.000Z</time>
      </trkpt>
      <trkpt lat="43.95477" lon="6.89324">
        <ele>411.918322</ele>
        <time>2021-09-19T06:54:56.000Z</time>
      </trkpt>
      <trkpt lat="43.95477" lon="6.89344">
        <ele>411.837155</ele>
        <time>2021-09-19T06:54:58.000Z</time>
      </trkpt>
      <trkpt lat="43.95478" lon="6.89364">
        <ele>411.755772</ele>
        <time>2021-09-19T06:55:00.000Z</time>
      </trkpt>
      <trkpt lat="43.95482" lon="6.89393">
        <ele>411.635237</ele>
        <time>2021-09-19T06:55:03.000Z</time>
      </trkpt>
      <trkpt lat="43.95485" lon="6.89411">
        <ele>411.557167</ele>
        <time>2021-09-19T06:55:05.000Z</time>
      </trkpt>
      <trkpt lat="43.95493" lon="6.89454">
        <ele>411.376596</ele>
        <time>2021-09-19T06:55:10.000Z</time>
      </trkpt>
      <trkpt lat="43.95495" lon="6.89462">
        <ele>411.344465</ele>
        <time>2021-09-19T06:55:11.000Z</time>
      </trkpt>
      <trkpt lat="43.955" lon="6.8949">
        <ele>411.223761</ele>
        <time>2021-09-19T06:55:14.000Z</time>
      </trkpt>
      <trkpt lat="43.9551" lon="6.89564">
        <ele>410.917226</ele>
        <time>2021-09-19T06:55:21.000Z</time>
      </trkpt>
      <trkpt lat="43.95519" lon="6.89636">
        <ele>410.62699</ele>
        <time>2021-09-19T06:55:28.000Z</time>
      </trkpt>
      <trkpt lat="43.95517" lon="6.89684">
        <ele>410.435236</ele>
        <time>2021-09-19T06:55:33.000Z</time>
      </trkpt>
      <trkpt lat="43.95513" lon="6.89724">
        <ele>410.278398</ele>
        <time>2021-09-19T06:55:37.000Z</time>
      </trkpt>
      <trkpt lat="43.95508" lon="6.89783">
        <ele>410.041565</ele>
        <time>2021-09-19T06:55:43.000Z</time>
      </trkpt>
      <trkpt lat="43.95503" lon="6.89834">
        <ele>409.998399</ele>
        <time>2021-09-19T06:55:48.000Z</time>
      </trkpt>
      <trkpt lat="43.95497" lon="6.89884">
        <ele>410.000668</ele>
        <time>2021-09-19T06:55:53.000Z</time>
      </trkpt>
      <trkpt lat="43.9549" lon="6.89913">
        <ele>410.002023</ele>
        <time>2021-09-19T06:55:56.000Z</time>
      </trkpt>
      <trkpt lat="43.95484" lon="6.89932">
        <ele>410.002952</ele>
        <time>2021-09-19T06:55:58.000Z</time>
      </trkpt>
      <trkpt lat="43.95481" lon="6.89941">
        <ele>410.003408</ele>
        <time>2021-09-19T06:55:59.000Z</time>
      </trkpt>
      <trkpt lat="43.95467" lon="6.89965">
        <ele>410.004756</ele>
        <time>2021-09-19T06:56:02.000Z</time>
      </trkpt>
      <trkpt lat="43.95444" lon="6.89995">
        <ele>410.006726</ele>
        <time>2021-09-19T06:56:06.000Z</time>
      </trkpt>
      <trkpt lat="43.95407" lon="6.90033">
        <ele>409.886519</ele>
        <time>2021-09-19T06:56:12.000Z</time>
      </trkpt>
      <trkpt lat="43.95383" lon="6.90057">
        <ele>409.769041</ele>
        <time>2021-09-19T06:56:16.000Z</time>
      </trkpt>
      <trkpt lat="43.95356" lon="6.90105">
        <ele>409.59227</ele>
        <time>2021-09-19T06:56:22.000Z</time>
      </trkpt>
      <trkpt lat="43.95325" lon="6.90174">
        <ele>409.356587</ele>
        <time>2021-09-19T06:56:30.000Z</time>
      </trkpt>
      <trkpt lat="43.95299" lon="6.9024">
        <ele>409.097224</ele>
        <time>2021-09-19T06:56:37.000Z</time>
      </trkpt>
      <trkpt lat="43.95292" lon="6.90259">
        <ele>409.016142</ele>
        <time>2021-09-19T06:56:39.000Z</time>
      </trkpt>
      <trkpt lat="43.95267" lon="6.90328">
        <ele>408.733083</ele>
        <time>2021-09-19T06:56:46.000Z</time>
      </trkpt>
      <trkpt lat="43.95261" lon="6.90347">
        <ele>408.653738</ele>
        <time>2021-09-19T06:56:48.000Z</time>
      </trkpt>
      <trkpt lat="43.95239" lon="6.90416">
        <ele>408.375138</ele>
        <time>2021-09-19T06:56:55.000Z</time>
      </trkpt>
      <trkpt lat="43.95228" lon="6.90487">
        <ele>407.895599</ele>
        <time>2021-09-19T06:57:02.000Z</time>
      </trkpt>
      <trkpt lat="43.95227" lon="6.9057">
        <ele>407.3383</ele>
        <time>2021-09-19T06:57:10.000Z</time>
      </trkpt>
      <trkpt lat="43.95239" lon="6.90651">
        <ele>406.77898</ele>
        <time>2021-09-19T06:57:18.000Z</time>
      </trkpt>
      <trkpt lat="43.95256" lon="6.90717">
        <ele>406.084393</ele>
        <time>2021-09-19T06:57:25.000Z</time>
      </trkpt>
      <trkpt lat="43.95285" lon="6.90788">
        <ele>405.204849</ele>
        <time>2021-09-19T06:57:33.000Z</time>
      </trkpt>
      <trkpt lat="43.9532" lon="6.90854">
        <ele>404.315568</ele>
        <time>2021-09-19T06:57:41.000Z</time>
      </trkpt>
      <trkpt lat="43.9535" lon="6.90913">
        <ele>403.558875</ele>
        <time>2021-09-19T06:57:48.000Z</time>
      </trkpt>
      <trkpt lat="43.95381" lon="6.90975">
        <ele>402.773387</ele>
        <time>2021-09-19T06:57:55.000Z</time>
      </trkpt>
      <trkpt lat="43.95394" lon="6.91002">
        <ele>402.433833</ele>
        <time>2021-09-19T06:57:58.000Z</time>
      </trkpt>
      <trkpt lat="43.95425" lon="6.91066">
        <ele>401.632212</ele>
        <time>2021-09-19T06:58:05.000Z</time>
      </trkpt>
      <trkpt lat="43.95439" lon="6.91093">
        <ele>401.30187</ele>
        <time>2021-09-19T06:58:08.000Z</time>
      </trkpt>
      <trkpt lat="43.95469" lon="6.91157">
        <ele>400.664565</ele>
        <time>2021-09-19T06:58:15.000Z</time>
      </trkpt>
      <trkpt lat="43.95478" lon="6.91175">
        <ele>400.485885</ele>
        <time>2021-09-19T06:58:17.000Z</time>
      </trkpt>
      <trkpt lat="43.95503" lon="6.91241">
        <ele>399.858836</ele>
        <time>2021-09-19T06:58:24.000Z</time>
      </trkpt>
      <trkpt lat="43.95515" lon="6.91302">
        <ele>399.3261</ele>
        <time>2021-09-19T06:58:30.000Z</time>
      </trkpt>
      <trkpt lat="43.9552" lon="6.91376">
        <ele>398.880541</ele>
        <time>2021-09-19T06:58:37.000Z</time>
      </trkpt>
      <trkpt lat="43.95515" lon="6.9146">
        <ele>398.383159</ele>
        <time>2021-09-19T06:58:45.000Z</time>
      </trkpt>
      <trkpt lat="43.95501" lon="6.91521">
        <ele>398.006287</ele>
        <time>2021-09-19T06:58:51.000Z</time>
      </trkpt>
      <trkpt lat="43.95477" lon="6.91579">
        <ele>397.60752</ele>
        <time>2021-09-19T06:58:57.000Z</time>
      </trkpt>
      <trkpt lat="43.95447" lon="6.91644">
        <ele>397.118435</ele>
        <time>2021-09-19T06:59:04.000Z</time>
      </trkpt>
      <trkpt lat="43.95416" lon="6.91709">
        <ele>396.622683</ele>
        <time>2021-09-19T06:59:11.000Z</time>
      </trkpt>
      <trkpt lat="43.95407" lon="6.91728">
        <ele>396.48184</ele>
        <time>2021-09-19T06:59:13.000Z</time>
      </trkpt>
      <trkpt lat="43.95377" lon="6.91792">
        <ele>395.993933</ele>
        <time>2021-09-19T06:59:20.000Z</time>
      </trkpt>
      <trkpt lat="43.95347" lon="6.91855">
        <ele>395.499549</ele>
        <time>2021-09-19T06:59:27.000Z</time>
      </trkpt>
      <trkpt lat="43.95343" lon="6.91864">
        <ele>395.428775</ele>
        <time>2021-09-19T06:59:28.000Z</time>
      </trkpt>
      <trkpt lat="43.9531" lon="6.91936">
        <ele>394.877034</ele>
        <time>2021-09-19T06:59:36.000Z</time>
      </trkpt>
      <trkpt lat="43.95295" lon="6.91983">
        <ele>394.516889</ele>
        <time>2021-09-19T06:59:41.000Z</time>
      </trkpt>
      <trkpt lat="43.95286" lon="6.92052">
        <ele>393.92364</ele>
        <time>2021-09-19T06:59:47.000Z</time>
      </trkpt>
      <trkpt lat="43.9529" lon="6.92113">
        <ele>393.410439</ele>
        <time>2021-09-19T06:59:54.000Z</time>
      </trkpt>
      <trkpt lat="43.95306" lon="6.92191">
        <ele>392.726979</ele>
        <time>2021-09-19T07:00:01.000Z</time>
      </trkpt>
      <trkpt lat="43.9531" lon="6.9221">
        <ele>392.555874</ele>
        <time>2021-09-19T07:00:03.000Z</time>
      </trkpt>
      <trkpt lat="43.95327" lon="6.92286">
        <ele>391.835087</ele>
        <time>2021-09-19T07:00:11.000Z</time>
      </trkpt>
      <trkpt lat="43.95352" lon="6.92357">
        <ele>391.12143</ele>
        <time>2021-09-19T07:00:19.000Z</time>
      </trkpt>
      <trkpt lat="43.95381" lon="6.92425">
        <ele>390.40588</ele>
        <time>2021-09-19T07:00:27.000Z</time>
      </trkpt>
      <trkpt lat="43.95384" lon="6.92434">
        <ele>390.316632</ele>
        <time>2021-09-19T07:00:28.000Z</time>
      </trkpt>
      <trkpt lat="43.95409" lon="6.92492">
        <ele>389.872798</ele>
        <time>2021-09-19T07:00:35.000Z</time>
      </trkpt>
      <trkpt lat="43.95431" lon="6.92565">
        <ele>389.372334</ele>
        <time>2021-09-19T07:00:43.000Z</time>
      </trkpt>
      <trkpt lat="43.95441" lon="6.92633">
        <ele>388.935527</ele>
        <time>2021-09-19T07:00:50.000Z</time>
      </trkpt>
      <trkpt lat="43.95441" lon="6.92643">
        <ele>388.871901</ele>
        <time>2021-09-19T07:00:51.000Z</time>
      </trkpt>
      <trkpt lat="43.95437" lon="6.92672">
        <ele>388.687241</ele>
        <time>2021-09-19T07:00:54.000Z</time>
      </trkpt>
      <trkpt lat="43.95424" lon="6.92748">
        <ele>388.335256</ele>
        <time>2021-09-19T07:01:02.000Z</time>
      </trkpt>
      <trkpt lat="43.95412" lon="6.92815">
        <ele>388.032602</ele>
        <time>2021-09-19T07:01:09.000Z</time>
      </trkpt>
      <trkpt lat="43.95398" lon="6.92889">
        <ele>387.692789</ele>
        <time>2021-09-19T07:01:17.000Z</time>
      </trkpt>
      <trkpt lat="43.95394" lon="6.92907">
        <ele>387.607353</ele>
        <time>2021-09-19T07:01:19.000Z</time>
      </trkpt>
      <trkpt lat="43.95383" lon="6.92983">
        <ele>387.365489</ele>
        <time>2021-09-19T07:01:27.000Z</time>
      </trkpt>
      <trkpt lat="43.95382" lon="6.92992">
        <ele>387.335999</ele>
        <time>2021-09-19T07:01:28.000Z</time>
      </trkpt>
      <trkpt lat="43.95376" lon="6.9306">
        <ele>387.136105</ele>
        <time>2021-09-19T07:01:35.000Z</time>
      </trkpt>
      <trkpt lat="43.95374" lon="6.93137">
        <ele>386.909344</ele>
        <time>2021-09-19T07:01:43.000Z</time>
      </trkpt>
      <trkpt lat="43.95372" lon="6.9322">
        <ele>386.714467</ele>
        <time>2021-09-19T07:01:52.000Z</time>
      </trkpt>
      <trkpt lat="43.95372" lon="6.93229">
        <ele>386.696138</ele>
        <time>2021-09-19T07:01:53.000Z</time>
      </trkpt>
      <trkpt lat="43.95372" lon="6.93294">
        <ele>386.566428</ele>
        <time>2021-09-19T07:02:00.000Z</time>
      </trkpt>
      <trkpt lat="43.95372" lon="6.93375">
        <ele>386.402491</ele>
        <time>2021-09-19T07:02:09.000Z</time>
      </trkpt>
      <trkpt lat="43.95379" lon="6.93451">
        <ele>386.147821</ele>
        <time>2021-09-19T07:02:17.000Z</time>
      </trkpt>
      <trkpt lat="43.95384" lon="6.93532">
        <ele>385.762207</ele>
        <time>2021-09-19T07:02:25.000Z</time>
      </trkpt>
      <trkpt lat="43.9538" lon="6.93584">
        <ele>385.517074</ele>
        <time>2021-09-19T07:02:30.000Z</time>
      </trkpt>
      <trkpt lat="43.95368" lon="6.93658">
        <ele>385.159832</ele>
        <time>2021-09-19T07:02:37.000Z</time>
      </trkpt>
      <trkpt lat="43.95366" lon="6.93669">
        <ele>385.069376</ele>
        <time>2021-09-19T07:02:38.000Z</time>
      </trkpt>
      <trkpt lat="43.95352" lon="6.93744">
        <ele>384.301755</ele>
        <time>2021-09-19T07:02:45.000Z</time>
      </trkpt>
      <trkpt lat="43.95349" lon="6.93755">
        <ele>384.186724</ele>
        <time>2021-09-19T07:02:46.000Z</time>
      </trkpt>
      <trkpt lat="43.95329" lon="6.93834">
        <ele>383.3592</ele>
        <time>2021-09-19T07:02:53.000Z</time>
      </trkpt>
      <trkpt lat="43.95325" lon="6.93846">
        <ele>383.23945</ele>
        <time>2021-09-19T07:02:54.000Z</time>
      </trkpt>
      <trkpt lat="43.95305" lon="6.93924">
        <ele>382.404673</ele>
        <time>2021-09-19T07:03:01.000Z</time>
      </trkpt>
      <trkpt lat="43.95302" lon="6.93935">
        <ele>382.283448</ele>
        <time>2021-09-19T07:03:02.000Z</time>
      </trkpt>
      <trkpt lat="43.95282" lon="6.94013">
        <ele>381.432924</ele>
        <time>2021-09-19T07:03:09.000Z</time>
      </trkpt>
      <trkpt lat="43.95266" lon="6.94078">
        <ele>380.724472</ele>
        <time>2021-09-19T07:03:15.000Z</time>
      </trkpt>
      <trkpt lat="43.95248" lon="6.94139">
        <ele>380.055003</ele>
        <time>2021-09-19T07:03:21.000Z</time>
      </trkpt>
      <trkpt lat="43.9523" lon="6.94211">
        <ele>379.393052</ele>
        <time>2021-09-19T07:03:28.000Z</time>
      </trkpt>
      <trkpt lat="43.95222" lon="6.94243">
        <ele>379.10393</ele>
        <time>2021-09-19T07:03:31.000Z</time>
      </trkpt>
      <trkpt lat="43.95205" lon="6.94316">
        <ele>378.434857</ele>
        <time>2021-09-19T07:03:38.000Z</time>
      </trkpt>
      <trkpt lat="43.95198" lon="6.94346">
        <ele>378.159951</ele>
        <time>2021-09-19T07:03:41.000Z</time>
      </trkpt>
      <trkpt lat="43.95191" lon="6.94409">
        <ele>377.770487</ele>
        <time>2021-09-19T07:03:47.000Z</time>
      </trkpt>
      <trkpt lat="43.95189" lon="6.9449">
        <ele>377.400383</ele>
        <time>2021-09-19T07:03:55.000Z</time>
      </trkpt>
      <trkpt lat="43.95186" lon="6.94567">
        <ele>377.048372</ele>
        <time>2021-09-19T07:04:03.000Z</time>
      </trkpt>
      <trkpt lat="43.95185" lon="6.94576">
        <ele>377.006796</ele>
        <time>2021-09-19T07:04:04.000Z</time>
      </trkpt>
      <trkpt lat="43.95181" lon="6.94638">
        <ele>376.834198</ele>
        <time>2021-09-19T07:04:11.000Z</time>
      </trkpt>
      <trkpt lat="43.95174" lon="6.94704">
        <ele>376.929325</ele>
        <time>2021-09-19T07:04:19.000Z</time>
      </trkpt>
      <trkpt lat="43.95173" lon="6.94712">
        <ele>376.941022</ele>
        <time>2021-09-19T07:04:20.000Z</time>
      </trkpt>
      <trkpt lat="43.95171" lon="6.94744">
        <ele>376.987203</ele>
        <time>2021-09-19T07:04:24.000Z</time>
      </trkpt>
      <trkpt lat="43.95166" lon="6.94809">
        <ele>377.079544</ele>
        <time>2021-09-19T07:04:32.000Z</time>
      </trkpt>
      <trkpt lat="43.95161" lon="6.94881">
        <ele>377.174196</ele>
        <time>2021-09-19T07:04:41.000Z</time>
      </trkpt>
      <trkpt lat="43.95156" lon="6.94952">
        <ele>377.22882</ele>
        <time>2021-09-19T07:04:50.000Z</time>
      </trkpt>
      <trkpt lat="43.95152" lon="6.95011">
        <ele>377.274265</ele>
        <time>2021-09-19T07:04:57.000Z</time>
      </trkpt>
      <trkpt lat="43.9515" lon="6.95087">
        <ele>377.333051</ele>
        <time>2021-09-19T07:05:05.000Z</time>
      </trkpt>
      <trkpt lat="43.9515" lon="6.95097">
        <ele>377.340884</ele>
        <time>2021-09-19T07:05:06.000Z</time>
      </trkpt>
      <trkpt lat="43.95156" lon="6.95169">
        <ele>377.126991</ele>
        <time>2021-09-19T07:05:14.000Z</time>
      </trkpt>
      <trkpt lat="43.95161" lon="6.95244">
        <ele>376.794396</ele>
        <time>2021-09-19T07:05:20.000Z</time>
      </trkpt>
      <trkpt lat="43.95162" lon="6.95255">
        <ele>376.745154</ele>
        <time>2021-09-19T07:05:21.000Z</time>
      </trkpt>
      <trkpt lat="43.95159" lon="6.95323">
        <ele>376.445972</ele>
        <time>2021-09-19T07:05:27.000Z</time>
      </trkpt>
      <trkpt lat="43.95153" lon="6.95401">
        <ele>375.874527</ele>
        <time>2021-09-19T07:05:34.000Z</time>
      </trkpt>
      <trkpt lat="43.95152" lon="6.95412">
        <ele>375.750734</ele>
        <time>2021-09-19T07:05:35.000Z</time>
      </trkpt>
      <trkpt lat="43.95146" lon="6.95468">
        <ele>375.124194</ele>
        <time>2021-09-19T07:05:40.000Z</time>
      </trkpt>
      <trkpt lat="43.95145" lon="6.95479">
        <ele>375.003655</ele>
        <time>2021-09-19T07:05:41.000Z</time>
      </trkpt>
      <trkpt lat="43.95128" lon="6.95558">
        <ele>374.103652</ele>
        <time>2021-09-19T07:05:48.000Z</time>
      </trkpt>
      <trkpt lat="43.95106" lon="6.95619">
        <ele>373.335169</ele>
        <time>2021-09-19T07:05:54.000Z</time>
      </trkpt>
      <trkpt lat="43.95072" lon="6.95698">
        <ele>372.221195</ele>
        <time>2021-09-19T07:06:02.000Z</time>
      </trkpt>
      <trkpt lat="43.95064" lon="6.95717">
        <ele>371.950446</ele>
        <time>2021-09-19T07:06:05.000Z</time>
      </trkpt>
      <trkpt lat="43.95034" lon="6.95783">
        <ele>371.005145</ele>
        <time>2021-09-19T07:06:12.000Z</time>
      </trkpt>
      <trkpt lat="43.95013" lon="6.9583">
        <ele>370.356175</ele>
        <time>2021-09-19T07:06:16.000Z</time>
      </trkpt>
      <trkpt lat="43.94984" lon="6.95896">
        <ele>369.571041</ele>
        <time>2021-09-19T07:06:23.000Z</time>
      </trkpt>
      <trkpt lat="43.94972" lon="6.95924">
        <ele>369.239018</ele>
        <time>2021-09-19T07:06:26.000Z</time>
      </trkpt>
      <trkpt lat="43.94943" lon="6.9599">
        <ele>368.454927</ele>
        <time>2021-09-19T07:06:33.000Z</time>
      </trkpt>
      <trkpt lat="43.94915" lon="6.96057">
        <ele>367.697867</ele>
        <time>2021-09-19T07:06:40.000Z</time>
      </trkpt>
      <trkpt lat="43.94903" lon="6.96085">
        <ele>367.391158</ele>
        <time>2021-09-19T07:06:43.000Z</time>
      </trkpt>
      <trkpt lat="43.94878" lon="6.96152">
        <ele>366.687328</ele>
        <time>2021-09-19T07:06:50.000Z</time>
      </trkpt>
      <trkpt lat="43.94872" lon="6.96172">
        <ele>366.485384</ele>
        <time>2021-09-19T07:06:52.000Z</time>
      </trkpt>
      <trkpt lat="43.94854" lon="6.96244">
        <ele>365.782202</ele>
        <time>2021-09-19T07:06:59.000Z</time>
      </trkpt>
      <trkpt lat="43.94849" lon="6.96265">
        <ele>365.572077</ele>
        <time>2021-09-19T07:07:01.000Z</time>
      </trkpt>
      <trkpt lat="43.94834" lon="6.96337">
        <ele>364.72929</ele>
        <time>2021-09-19T07:07:08.000Z</time>
      </trkpt>
      <trkpt lat="43.94829" lon="6.96369">
        <ele>364.370297</ele>
        <time>2021-09-19T07:07:11.000Z</time>
      </trkpt>
      <trkpt lat="43.94819" lon="6.96452">
        <ele>363.430657</ele>
        <time>2021-09-19T07:07:19.000Z</time>
      </trkpt>
      <trkpt lat="43.94817" lon="6.96483">
        <ele>363.079766</ele>
        <time>2021-09-19T07:07:22.000Z</time>
      </trkpt>
      <trkpt lat="43.94813" lon="6.96567">
        <ele>362.129968</ele>
        <time>2021-09-19T07:07:30.000Z</time>
      </trkpt>
      <trkpt lat="43.94813" lon="6.96588">
        <ele>361.892803</ele>
        <time>2021-09-19T07:07:32.000Z</time>
      </trkpt>
      <trkpt lat="43.94816" lon="6.96671">
        <ele>360.952553</ele>
        <time>2021-09-19T07:07:40.000Z</time>
      </trkpt>
      <trkpt lat="43.94816" lon="6.96692">
        <ele>360.719728</ele>
        <time>2021-09-19T07:07:42.000Z</time>
      </trkpt>
      <trkpt lat="43.94819" lon="6.96775">
        <ele>359.794325</ele>
        <time>2021-09-19T07:07:50.000Z</time>
      </trkpt>
      <trkpt lat="43.9482" lon="6.96796">
        <ele>359.575601</ele>
        <time>2021-09-19T07:07:52.000Z</time>
      </trkpt>
      <trkpt lat="43.94823" lon="6.96878">
        <ele>358.699576</ele>
        <time>2021-09-19T07:08:00.000Z</time>
      </trkpt>
      <trkpt lat="43.94824" lon="6.96899">
        <ele>358.480852</ele>
        <time>2021-09-19T07:08:02.000Z</time>
      </trkpt>
      <trkpt lat="43.94827" lon="6.96983">
        <ele>357.592043</ele>
        <time>2021-09-19T07:08:10.000Z</time>
      </trkpt>
      <trkpt lat="43.94828" lon="6.97025">
        <ele>357.170751</ele>
        <time>2021-09-19T07:08:14.000Z</time>
      </trkpt>
      <trkpt lat="43.9483" lon="6.97096">
        <ele>356.485499</ele>
        <time>2021-09-19T07:08:22.000Z</time>
      </trkpt>
      <trkpt lat="43.94833" lon="6.97177">
        <ele>355.713465</ele>
        <time>2021-09-19T07:08:29.000Z</time>
      </trkpt>
      <trkpt lat="43.94834" lon="6.97198">
        <ele>355.519997</ele>
        <time>2021-09-19T07:08:31.000Z</time>
      </trkpt>
      <trkpt lat="43.94836" lon="6.97259">
        <ele>354.951859</ele>
        <time>2021-09-19T07:08:38.000Z</time>
      </trkpt>
      <trkpt lat="43.9484" lon="6.9735">
        <ele>354.306688</ele>
        <time>2021-09-19T07:08:46.000Z</time>
      </trkpt>
      <trkpt lat="43.94847" lon="6.97428">
        <ele>353.743592</ele>
        <time>2021-09-19T07:08:54.000Z</time>
      </trkpt>
      <trkpt lat="43.94849" lon="6.97449">
        <ele>353.597294</ele>
        <time>2021-09-19T07:08:56.000Z</time>
      </trkpt>
      <trkpt lat="43.94858" lon="6.97527">
        <ele>353.021957</ele>
        <time>2021-09-19T07:09:04.000Z</time>
      </trkpt>
      <trkpt lat="43.9486" lon="6.97547">
        <ele>352.875401</ele>
        <time>2021-09-19T07:09:06.000Z</time>
      </trkpt>
      <trkpt lat="43.94865" lon="6.97622">
        <ele>352.309491</ele>
        <time>2021-09-19T07:09:14.000Z</time>
      </trkpt>
      <trkpt lat="43.94866" lon="6.9764">
        <ele>352.171875</ele>
        <time>2021-09-19T07:09:16.000Z</time>
      </trkpt>
      <trkpt lat="43.94873" lon="6.97714">
        <ele>351.614068</ele>
        <time>2021-09-19T07:09:24.000Z</time>
      </trkpt>
      <trkpt lat="43.94884" lon="6.97788">
        <ele>351.011876</ele>
        <time>2021-09-19T07:09:32.000Z</time>
      </trkpt>
      <trkpt lat="43.94885" lon="6.97797">
        <ele>350.933809</ele>
        <time>2021-09-19T07:09:33.000Z</time>
      </trkpt>
      <trkpt lat="43.94896" lon="6.97871">
        <ele>350.305014</ele>
        <time>2021-09-19T07:09:41.000Z</time>
      </trkpt>
      <trkpt lat="43.94897" lon="6.9788">
        <ele>350.224517</ele>
        <time>2021-09-19T07:09:42.000Z</time>
      </trkpt>
      <trkpt lat="43.94914" lon="6.97949">
        <ele>349.616245</ele>
        <time>2021-09-19T07:09:50.000Z</time>
      </trkpt>
      <trkpt lat="43.94931" lon="6.98">
        <ele>349.190954</ele>
        <time>2021-09-19T07:09:56.000Z</time>
      </trkpt>
      <trkpt lat="43.94958" lon="6.98074">
        <ele>348.761167</ele>
        <time>2021-09-19T07:10:04.000Z</time>
      </trkpt>
      <trkpt lat="43.94987" lon="6.98139">
        <ele>348.366161</ele>
        <time>2021-09-19T07:10:11.000Z</time>
      </trkpt>
      <trkpt lat="43.94991" lon="6.9815">
        <ele>348.307366</ele>
        <time>2021-09-19T07:10:12.000Z</time>
      </trkpt>
      <trkpt lat="43.95011" lon="6.9822">
        <ele>347.998017</ele>
        <time>2021-09-19T07:10:19.000Z</time>
      </trkpt>
      <trkpt lat="43.9502" lon="6.98282">
        <ele>348.139523</ele>
        <time>2021-09-19T07:10:25.000Z</time>
      </trkpt>
      <trkpt lat="43.95022" lon="6.98343">
        <ele>348.277124</ele>
        <time>2021-09-19T07:10:31.000Z</time>
      </trkpt>
      <trkpt lat="43.95022" lon="6.98423">
        <ele>348.45737</ele>
        <time>2021-09-19T07:10:39.000Z</time>
      </trkpt>
      <trkpt lat="43.95021" lon="6.98442">
        <ele>348.499622</ele>
        <time>2021-09-19T07:10:41.000Z</time>
      </trkpt>
      <trkpt lat="43.95021" lon="6.98491">
        <ele>348.637655</ele>
        <time>2021-09-19T07:10:46.000Z</time>
      </trkpt>
      <trkpt lat="43.95021" lon="6.98501">
        <ele>348.669422</ele>
        <time>2021-09-19T07:10:47.000Z</time>
      </trkpt>
      <trkpt lat="43.9502" lon="6.98569">
        <ele>348.883301</ele>
        <time>2021-09-19T07:10:54.000Z</time>
      </trkpt>
      <trkpt lat="43.95019" lon="6.98626">
        <ele>349.063886</ele>
        <time>2021-09-19T07:11:00.000Z</time>
      </trkpt>
      <trkpt lat="43.95012" lon="6.98693">
        <ele>349.275561</ele>
        <time>2021-09-19T07:11:07.000Z</time>
      </trkpt>
      <trkpt lat="43.94999" lon="6.98746">
        <ele>349.201327</ele>
        <time>2021-09-19T07:11:13.000Z</time>
      </trkpt>
      <trkpt lat="43.94996" lon="6.98754">
        <ele>349.175054</ele>
        <time>2021-09-19T07:11:14.000Z</time>
      </trkpt>
      <trkpt lat="43.94974" lon="6.98818">
        <ele>348.977479</ele>
        <time>2021-09-19T07:11:22.000Z</time>
      </trkpt>
      <trkpt lat="43.94959" lon="6.98863">
        <ele>348.836</ele>
        <time>2021-09-19T07:11:28.000Z</time>
      </trkpt>
      <trkpt lat="43.94935" lon="6.98931">
        <ele>348.624149</ele>
        <time>2021-09-19T07:11:37.000Z</time>
      </trkpt>
      <trkpt lat="43.94932" lon="6.98938">
        <ele>348.605511</ele>
        <time>2021-09-19T07:11:38.000Z</time>
      </trkpt>
      <trkpt lat="43.94918" lon="6.98976">
        <ele>348.515389</ele>
        <time>2021-09-19T07:11:43.000Z</time>
      </trkpt>
      <trkpt lat="43.94911" lon="6.9899">
        <ele>348.478672</ele>
        <time>2021-09-19T07:11:45.000Z</time>
      </trkpt>
      <trkpt lat="43.94883" lon="6.99037">
        <ele>348.351005</ele>
        <time>2021-09-19T07:11:52.000Z</time>
      </trkpt>
      <trkpt lat="43.94852" lon="6.99092">
        <ele>348.202702</ele>
        <time>2021-09-19T07:12:00.000Z</time>
      </trkpt>
      <trkpt lat="43.94828" lon="6.99132">
        <ele>348.093469</ele>
        <time>2021-09-19T07:12:06.000Z</time>
      </trkpt>
      <trkpt lat="43.9481" lon="6.99176">
        <ele>347.933636</ele>
        <time>2021-09-19T07:12:12.000Z</time>
      </trkpt>
      <trkpt lat="43.94788" lon="6.99248">
        <ele>347.688886</ele>
        <time>2021-09-19T07:12:21.000Z</time>
      </trkpt>
      <trkpt lat="43.94785" lon="6.99256">
        <ele>347.659761</ele>
        <time>2021-09-19T07:12:22.000Z</time>
      </trkpt>
      <trkpt lat="43.94766" lon="6.99322">
        <ele>347.437027</ele>
        <time>2021-09-19T07:12:30.000Z</time>
      </trkpt>
      <trkpt lat="43.94744" lon="6.99397">
        <ele>347.117659</ele>
        <time>2021-09-19T07:12:39.000Z</time>
      </trkpt>
      <trkpt lat="43.94721" lon="6.99475">
        <ele>346.71589</ele>
        <time>2021-09-19T07:12:48.000Z</time>
      </trkpt>
      <trkpt lat="43.94716" lon="6.99491">
        <ele>346.628843</ele>
        <time>2021-09-19T07:12:50.000Z</time>
      </trkpt>
      <trkpt lat="43.94701" lon="6.99543">
        <ele>346.359415</ele>
        <time>2021-09-19T07:12:56.000Z</time>
      </trkpt>
      <trkpt lat="43.94686" lon="6.99606">
        <ele>346.056412</ele>
        <time>2021-09-19T07:13:03.000Z</time>
      </trkpt>
      <trkpt lat="43.9468" lon="6.99635">
        <ele>345.947325</ele>
        <time>2021-09-19T07:13:06.000Z</time>
      </trkpt>
      <trkpt lat="43.94679" lon="6.99662">
        <ele>345.844194</ele>
        <time>2021-09-19T07:13:09.000Z</time>
      </trkpt>
      <trkpt lat="43.94675" lon="6.99726">
        <ele>345.604786</ele>
        <time>2021-09-19T07:13:16.000Z</time>
      </trkpt>
      <trkpt lat="43.94669" lon="6.9978">
        <ele>345.402315</ele>
        <time>2021-09-19T07:13:22.000Z</time>
      </trkpt>
      <trkpt lat="43.94652" lon="6.99855">
        <ele>345.154474</ele>
        <time>2021-09-19T07:13:31.000Z</time>
      </trkpt>
      <trkpt lat="43.94644" lon="6.99908">
        <ele>345.094179</ele>
        <time>2021-09-19T07:13:37.000Z</time>
      </trkpt>
      <trkpt lat="43.94643" lon="6.99917">
        <ele>345.084242</ele>
        <time>2021-09-19T07:13:38.000Z</time>
      </trkpt>
      <trkpt lat="43.94644" lon="6.99954">
        <ele>345.042485</ele>
        <time>2021-09-19T07:13:42.000Z</time>
      </trkpt>
      <trkpt lat="43.94651" lon="6.99998">
        <ele>344.991274</ele>
        <time>2021-09-19T07:13:47.000Z</time>
      </trkpt>
      <trkpt lat="43.94654" lon="7.00016">
        <ele>344.970597</ele>
        <time>2021-09-19T07:13:49.000Z</time>
      </trkpt>
      <trkpt lat="43.94665" lon="7.00068">
        <ele>344.909948</ele>
        <time>2021-09-19T07:13:55.000Z</time>
      </trkpt>
      <trkpt lat="43.94668" lon="7.00076">
        <ele>344.899298</ele>
        <time>2021-09-19T07:13:56.000Z</time>
      </trkpt>
      <trkpt lat="43.94682" lon="7.0012">
        <ele>345.062677</ele>
        <time>2021-09-19T07:14:01.000Z</time>
      </trkpt>
      <trkpt lat="43.94687" lon="7.00137">
        <ele>345.135136</ele>
        <time>2021-09-19T07:14:03.000Z</time>
      </trkpt>
      <trkpt lat="43.94693" lon="7.00163">
        <ele>345.244603</ele>
        <time>2021-09-19T07:14:06.000Z</time>
      </trkpt>
      <trkpt lat="43.94705" lon="7.00245">
        <ele>345.572414</ele>
        <time>2021-09-19T07:14:15.000Z</time>
      </trkpt>
      <trkpt lat="43.94719" lon="7.00324">
        <ele>345.889452</ele>
        <time>2021-09-19T07:14:24.000Z</time>
      </trkpt>
      <trkpt lat="43.94721" lon="7.00331">
        <ele>345.912853</ele>
        <time>2021-09-19T07:14:25.000Z</time>
      </trkpt>
      <trkpt lat="43.94726" lon="7.00346">
        <ele>345.960369</ele>
        <time>2021-09-19T07:14:28.000Z</time>
      </trkpt>
      <trkpt lat="43.94726" lon="7.00347">
        <ele>345.965187</ele>
        <time>2021-09-19T07:14:29.000Z</time>
      </trkpt>
      <trkpt lat="43.94726" lon="7.00347">
        <ele>345.965187</ele>
        <time>2021-09-19T07:14:31.000Z</time>
      </trkpt>
      <trkpt lat="43.94728" lon="7.00353">
        <ele>345.983772</ele>
        <time>2021-09-19T07:19:40.000Z</time>
      </trkpt>
      <trkpt lat="43.94734" lon="7.00369">
        <ele>346.039643</ele>
        <time>2021-09-19T07:19:45.000Z</time>
      </trkpt>
      <trkpt lat="43.9474" lon="7.00384">
        <ele>346.089407</ele>
        <time>2021-09-19T07:19:48.000Z</time>
      </trkpt>
      <trkpt lat="43.94746" lon="7.004">
        <ele>346.14361</ele>
        <time>2021-09-19T07:19:51.000Z</time>
      </trkpt>
      <trkpt lat="43.94751" lon="7.0044">
        <ele>346.268494</ele>
        <time>2021-09-19T07:19:57.000Z</time>
      </trkpt>
      <trkpt lat="43.94758" lon="7.00501">
        <ele>346.453708</ele>
        <time>2021-09-19T07:20:05.000Z</time>
      </trkpt>
      <trkpt lat="43.94763" lon="7.00548">
        <ele>346.596286</ele>
        <time>2021-09-19T07:20:11.000Z</time>
      </trkpt>
      <trkpt lat="43.94764" lon="7.00556">
        <ele>346.620317</ele>
        <time>2021-09-19T07:20:12.000Z</time>
      </trkpt>
      <trkpt lat="43.94767" lon="7.00588">
        <ele>346.542931</ele>
        <time>2021-09-19T07:20:16.000Z</time>
      </trkpt>
      <trkpt lat="43.94772" lon="7.00644">
        <ele>346.369814</ele>
        <time>2021-09-19T07:20:23.000Z</time>
      </trkpt>
      <trkpt lat="43.94778" lon="7.00721">
        <ele>346.13352</ele>
        <time>2021-09-19T07:20:32.000Z</time>
      </trkpt>
      <trkpt lat="43.94778" lon="7.0073">
        <ele>346.105748</ele>
        <time>2021-09-19T07:20:33.000Z</time>
      </trkpt>
      <trkpt lat="43.94778" lon="7.00747">
        <ele>346.052647</ele>
        <time>2021-09-19T07:20:35.000Z</time>
      </trkpt>
      <trkpt lat="43.94778" lon="7.00766">
        <ele>345.99526</ele>
        <time>2021-09-19T07:20:37.000Z</time>
      </trkpt>
      <trkpt lat="43.94779" lon="7.00775">
        <ele>345.968072</ele>
        <time>2021-09-19T07:20:38.000Z</time>
      </trkpt>
      <trkpt lat="43.9478" lon="7.00784">
        <ele>345.939912</ele>
        <time>2021-09-19T07:20:39.000Z</time>
      </trkpt>
      <trkpt lat="43.94785" lon="7.00811">
        <ele>345.841623</ele>
        <time>2021-09-19T07:20:42.000Z</time>
      </trkpt>
      <trkpt lat="43.94786" lon="7.00821">
        <ele>345.78195</ele>
        <time>2021-09-19T07:20:43.000Z</time>
      </trkpt>
      <trkpt lat="43.94796" lon="7.00869">
        <ele>345.483502</ele>
        <time>2021-09-19T07:20:48.000Z</time>
      </trkpt>
      <trkpt lat="43.94802" lon="7.00898">
        <ele>345.304827</ele>
        <time>2021-09-19T07:20:51.000Z</time>
      </trkpt>
      <trkpt lat="43.948" lon="7.00918">
        <ele>345.185464</ele>
        <time>2021-09-19T07:20:53.000Z</time>
      </trkpt>
      <trkpt lat="43.94787" lon="7.00969">
        <ele>344.862646</ele>
        <time>2021-09-19T07:20:58.000Z</time>
      </trkpt>
      <trkpt lat="43.9477" lon="7.01032">
        <ele>344.461031</ele>
        <time>2021-09-19T07:21:04.000Z</time>
      </trkpt>
      <trkpt lat="43.94767" lon="7.01064">
        <ele>344.200329</ele>
        <time>2021-09-19T07:21:07.000Z</time>
      </trkpt>
      <trkpt lat="43.94767" lon="7.01087">
        <ele>343.987935</ele>
        <time>2021-09-19T07:21:09.000Z</time>
      </trkpt>
      <trkpt lat="43.94766" lon="7.01167">
        <ele>343.241758</ele>
        <time>2021-09-19T07:21:16.000Z</time>
      </trkpt>
      <trkpt lat="43.94761" lon="7.01225">
        <ele>342.700176</ele>
        <time>2021-09-19T07:21:21.000Z</time>
      </trkpt>
      <trkpt lat="43.94743" lon="7.01277">
        <ele>342.166081</ele>
        <time>2021-09-19T07:21:26.000Z</time>
      </trkpt>
      <trkpt lat="43.94718" lon="7.0135">
        <ele>341.263057</ele>
        <time>2021-09-19T07:21:33.000Z</time>
      </trkpt>
      <trkpt lat="43.94713" lon="7.01396">
        <ele>340.73064</ele>
        <time>2021-09-19T07:21:37.000Z</time>
      </trkpt>
      <trkpt lat="43.94715" lon="7.01477">
        <ele>339.796185</ele>
        <time>2021-09-19T07:21:44.000Z</time>
      </trkpt>
      <trkpt lat="43.94714" lon="7.01501">
        <ele>339.517818</ele>
        <time>2021-09-19T07:21:46.000Z</time>
      </trkpt>
      <trkpt lat="43.94711" lon="7.01585">
        <ele>338.430306</ele>
        <time>2021-09-19T07:21:53.000Z</time>
      </trkpt>
      <trkpt lat="43.94699" lon="7.01631">
        <ele>337.76466</ele>
        <time>2021-09-19T07:21:57.000Z</time>
      </trkpt>
      <trkpt lat="43.94693" lon="7.01653">
        <ele>337.431369</ele>
        <time>2021-09-19T07:21:59.000Z</time>
      </trkpt>
      <trkpt lat="43.94686" lon="7.01675">
        <ele>337.100602</ele>
        <time>2021-09-19T07:22:01.000Z</time>
      </trkpt>
      <trkpt lat="43.94667" lon="7.01744">
        <ele>336.090508</ele>
        <time>2021-09-19T07:22:07.000Z</time>
      </trkpt>
      <trkpt lat="43.94656" lon="7.01829">
        <ele>334.850573</ele>
        <time>2021-09-19T07:22:14.000Z</time>
      </trkpt>
      <trkpt lat="43.94642" lon="7.01912">
        <ele>333.578494</ele>
        <time>2021-09-19T07:22:21.000Z</time>
      </trkpt>
      <trkpt lat="43.94622" lon="7.01992">
        <ele>332.330174</ele>
        <time>2021-09-19T07:22:28.000Z</time>
      </trkpt>
      <trkpt lat="43.94601" lon="7.02073">
        <ele>330.953421</ele>
        <time>2021-09-19T07:22:35.000Z</time>
      </trkpt>
      <trkpt lat="43.94592" lon="7.02108">
        <ele>330.351243</ele>
        <time>2021-09-19T07:22:38.000Z</time>
      </trkpt>
      <trkpt lat="43.94571" lon="7.02189">
        <ele>328.959892</ele>
        <time>2021-09-19T07:22:45.000Z</time>
      </trkpt>
      <trkpt lat="43.94561" lon="7.02224">
        <ele>328.350072</ele>
        <time>2021-09-19T07:22:48.000Z</time>
      </trkpt>
      <trkpt lat="43.94543" lon="7.02307">
        <ele>326.915821</ele>
        <time>2021-09-19T07:22:55.000Z</time>
      </trkpt>
      <trkpt lat="43.94538" lon="7.0233">
        <ele>326.498783</ele>
        <time>2021-09-19T07:22:57.000Z</time>
      </trkpt>
      <trkpt lat="43.94524" lon="7.02414">
        <ele>325.065741</ele>
        <time>2021-09-19T07:23:04.000Z</time>
      </trkpt>
      <trkpt lat="43.94517" lon="7.02477">
        <ele>324.006923</ele>
        <time>2021-09-19T07:23:09.000Z</time>
      </trkpt>
      <trkpt lat="43.94507" lon="7.02563">
        <ele>322.602084</ele>
        <time>2021-09-19T07:23:16.000Z</time>
      </trkpt>
      <trkpt lat="43.94505" lon="7.02587">
        <ele>322.201947</ele>
        <time>2021-09-19T07:23:18.000Z</time>
      </trkpt>
      <trkpt lat="43.94497" lon="7.02672">
        <ele>320.819156</ele>
        <time>2021-09-19T07:23:25.000Z</time>
      </trkpt>
      <trkpt lat="43.94494" lon="7.0271">
        <ele>320.207368</ele>
        <time>2021-09-19T07:23:28.000Z</time>
      </trkpt>
      <trkpt lat="43.94488" lon="7.02785">
        <ele>319.03067</ele>
        <time>2021-09-19T07:23:34.000Z</time>
      </trkpt>
      <trkpt lat="43.94487" lon="7.02823">
        <ele>318.449471</ele>
        <time>2021-09-19T07:23:37.000Z</time>
      </trkpt>
      <trkpt lat="43.94481" lon="7.02909">
        <ele>317.118352</ele>
        <time>2021-09-19T07:23:44.000Z</time>
      </trkpt>
      <trkpt lat="43.94474" lon="7.02992">
        <ele>315.861069</ele>
        <time>2021-09-19T07:23:51.000Z</time>
      </trkpt>
      <trkpt lat="43.94471" lon="7.03027">
        <ele>315.400042</ele>
        <time>2021-09-19T07:23:54.000Z</time>
      </trkpt>
      <trkpt lat="43.94464" lon="7.03109">
        <ele>314.308613</ele>
        <time>2021-09-19T07:24:01.000Z</time>
      </trkpt>
      <trkpt lat="43.9446" lon="7.03157">
        <ele>313.683635</ele>
        <time>2021-09-19T07:24:05.000Z</time>
      </trkpt>
      <trkpt lat="43.94447" lon="7.0324">
        <ele>312.595658</ele>
        <time>2021-09-19T07:24:12.000Z</time>
      </trkpt>
      <trkpt lat="43.94441" lon="7.03275">
        <ele>312.232247</ele>
        <time>2021-09-19T07:24:15.000Z</time>
      </trkpt>
      <trkpt lat="43.9443" lon="7.03356">
        <ele>311.40191</ele>
        <time>2021-09-19T07:24:22.000Z</time>
      </trkpt>
      <trkpt lat="43.94422" lon="7.03432">
        <ele>310.634125</ele>
        <time>2021-09-19T07:24:29.000Z</time>
      </trkpt>
      <trkpt lat="43.94421" lon="7.03442">
        <ele>310.537754</ele>
        <time>2021-09-19T07:24:30.000Z</time>
      </trkpt>
      <trkpt lat="43.94416" lon="7.03502">
        <ele>310.029025</ele>
        <time>2021-09-19T07:24:37.000Z</time>
      </trkpt>
      <trkpt lat="43.94413" lon="7.03564">
        <ele>309.656658</ele>
        <time>2021-09-19T07:24:45.000Z</time>
      </trkpt>
      <trkpt lat="43.94409" lon="7.03646">
        <ele>309.1686</ele>
        <time>2021-09-19T07:24:55.000Z</time>
      </trkpt>
      <trkpt lat="43.94406" lon="7.03707">
        <ele>308.803401</ele>
        <time>2021-09-19T07:25:02.000Z</time>
      </trkpt>
      <trkpt lat="43.94404" lon="7.03789">
        <ele>308.376667</ele>
        <time>2021-09-19T07:25:11.000Z</time>
      </trkpt>
      <trkpt lat="43.94406" lon="7.03855">
        <ele>308.051324</ele>
        <time>2021-09-19T07:25:18.000Z</time>
      </trkpt>
      <trkpt lat="43.94416" lon="7.03922">
        <ele>307.71491</ele>
        <time>2021-09-19T07:25:25.000Z</time>
      </trkpt>
      <trkpt lat="43.94418" lon="7.03989">
        <ele>307.370451</ele>
        <time>2021-09-19T07:25:32.000Z</time>
      </trkpt>
      <trkpt lat="43.94414" lon="7.04048">
        <ele>307.021327</ele>
        <time>2021-09-19T07:25:38.000Z</time>
      </trkpt>
      <trkpt lat="43.94398" lon="7.04125">
        <ele>306.552773</ele>
        <time>2021-09-19T07:25:46.000Z</time>
      </trkpt>
      <trkpt lat="43.94381" lon="7.04205">
        <ele>306.064977</ele>
        <time>2021-09-19T07:25:54.000Z</time>
      </trkpt>
      <trkpt lat="43.94378" lon="7.04215">
        <ele>306.001852</ele>
        <time>2021-09-19T07:25:55.000Z</time>
      </trkpt>
      <trkpt lat="43.94361" lon="7.04296">
        <ele>305.360287</ele>
        <time>2021-09-19T07:26:03.000Z</time>
      </trkpt>
      <trkpt lat="43.94358" lon="7.04307">
        <ele>305.280231</ele>
        <time>2021-09-19T07:26:04.000Z</time>
      </trkpt>
      <trkpt lat="43.94352" lon="7.04337">
        <ele>305.038721</ele>
        <time>2021-09-19T07:26:07.000Z</time>
      </trkpt>
      <trkpt lat="43.94347" lon="7.04358">
        <ele>304.875399</ele>
        <time>2021-09-19T07:26:09.000Z</time>
      </trkpt>
      <trkpt lat="43.94332" lon="7.04425">
        <ele>304.342977</ele>
        <time>2021-09-19T07:26:16.000Z</time>
      </trkpt>
      <trkpt lat="43.94316" lon="7.04497">
        <ele>303.810285</ele>
        <time>2021-09-19T07:26:24.000Z</time>
      </trkpt>
      <trkpt lat="43.94314" lon="7.04507">
        <ele>303.747195</ele>
        <time>2021-09-19T07:26:25.000Z</time>
      </trkpt>
      <trkpt lat="43.943" lon="7.04573">
        <ele>303.290831</ele>
        <time>2021-09-19T07:26:32.000Z</time>
      </trkpt>
      <trkpt lat="43.94291" lon="7.04622">
        <ele>302.962201</ele>
        <time>2021-09-19T07:26:37.000Z</time>
      </trkpt>
      <trkpt lat="43.9429" lon="7.04632">
        <ele>302.895738</ele>
        <time>2021-09-19T07:26:38.000Z</time>
      </trkpt>
      <trkpt lat="43.94292" lon="7.04662">
        <ele>302.694976</ele>
        <time>2021-09-19T07:26:41.000Z</time>
      </trkpt>
      <trkpt lat="43.94297" lon="7.04723">
        <ele>302.358427</ele>
        <time>2021-09-19T07:26:47.000Z</time>
      </trkpt>
      <trkpt lat="43.94303" lon="7.04786">
        <ele>302.109061</ele>
        <time>2021-09-19T07:26:53.000Z</time>
      </trkpt>
      <trkpt lat="43.94308" lon="7.0487">
        <ele>301.774091</ele>
        <time>2021-09-19T07:27:01.000Z</time>
      </trkpt>
      <trkpt lat="43.94309" lon="7.0488">
        <ele>301.733926</ele>
        <time>2021-09-19T07:27:02.000Z</time>
      </trkpt>
      <trkpt lat="43.9431" lon="7.04933">
        <ele>301.521656</ele>
        <time>2021-09-19T07:27:07.000Z</time>
      </trkpt>
      <trkpt lat="43.94312" lon="7.05009">
        <ele>301.211614</ele>
        <time>2021-09-19T07:27:14.000Z</time>
      </trkpt>
      <trkpt lat="43.94312" lon="7.0502">
        <ele>301.167342</ele>
        <time>2021-09-19T07:27:15.000Z</time>
      </trkpt>
      <trkpt lat="43.94312" lon="7.05086">
        <ele>300.8972</ele>
        <time>2021-09-19T07:27:21.000Z</time>
      </trkpt>
      <trkpt lat="43.94312" lon="7.05097">
        <ele>300.851699</ele>
        <time>2021-09-19T07:27:22.000Z</time>
      </trkpt>
      <trkpt lat="43.94306" lon="7.05165">
        <ele>300.569837</ele>
        <time>2021-09-19T07:27:28.000Z</time>
      </trkpt>
      <trkpt lat="43.94297" lon="7.05221">
        <ele>300.366851</ele>
        <time>2021-09-19T07:27:33.000Z</time>
      </trkpt>
      <trkpt lat="43.94277" lon="7.05292">
        <ele>300.144022</ele>
        <time>2021-09-19T07:27:40.000Z</time>
      </trkpt>
      <trkpt lat="43.94256" lon="7.05366">
        <ele>299.910181</ele>
        <time>2021-09-19T07:27:48.000Z</time>
      </trkpt>
      <trkpt lat="43.94237" lon="7.05445">
        <ele>299.72126</ele>
        <time>2021-09-19T07:27:57.000Z</time>
      </trkpt>
      <trkpt lat="43.94225" lon="7.05505">
        <ele>299.75143</ele>
        <time>2021-09-19T07:28:04.000Z</time>
      </trkpt>
      <trkpt lat="43.94216" lon="7.05553">
        <ele>299.775026</ele>
        <time>2021-09-19T07:28:10.000Z</time>
      </trkpt>
      <trkpt lat="43.94201" lon="7.05602">
        <ele>299.800641</ele>
        <time>2021-09-19T07:28:17.000Z</time>
      </trkpt>
      <trkpt lat="43.94176" lon="7.05669">
        <ele>299.886995</ele>
        <time>2021-09-19T07:28:27.000Z</time>
      </trkpt>
      <trkpt lat="43.94156" lon="7.05724">
        <ele>300.359552</ele>
        <time>2021-09-19T07:28:35.000Z</time>
      </trkpt>
      <trkpt lat="43.94154" lon="7.0573">
        <ele>300.416124</ele>
        <time>2021-09-19T07:28:36.000Z</time>
      </trkpt>
      <trkpt lat="43.94149" lon="7.05743">
        <ele>300.529959</ele>
        <time>2021-09-19T07:28:38.000Z</time>
      </trkpt>
      <trkpt lat="43.94144" lon="7.05756">
        <ele>300.643104</ele>
        <time>2021-09-19T07:28:40.000Z</time>
      </trkpt>
      <trkpt lat="43.94142" lon="7.05763">
        <ele>300.701546</ele>
        <time>2021-09-19T07:28:41.000Z</time>
      </trkpt>
      <trkpt lat="43.94132" lon="7.0579">
        <ele>300.935023</ele>
        <time>2021-09-19T07:28:45.000Z</time>
      </trkpt>
      <trkpt lat="43.94117" lon="7.0583">
        <ele>301.282133</ele>
        <time>2021-09-19T07:28:51.000Z</time>
      </trkpt>
      <trkpt lat="43.94115" lon="7.05836">
        <ele>301.336838</ele>
        <time>2021-09-19T07:28:52.000Z</time>
      </trkpt>
      <trkpt lat="43.94106" lon="7.05855">
        <ele>301.508029</ele>
        <time>2021-09-19T07:28:55.000Z</time>
      </trkpt>
      <trkpt lat="43.941" lon="7.05865">
        <ele>301.615163</ele>
        <time>2021-09-19T07:28:57.000Z</time>
      </trkpt>
      <trkpt lat="43.9409" lon="7.05882">
        <ele>301.787524</ele>
        <time>2021-09-19T07:29:00.000Z</time>
      </trkpt>
      <trkpt lat="43.94086" lon="7.05887">
        <ele>301.865929</ele>
        <time>2021-09-19T07:29:01.000Z</time>
      </trkpt>
      <trkpt lat="43.9407" lon="7.05896">
        <ele>302.127623</ele>
        <time>2021-09-19T07:29:04.000Z</time>
      </trkpt>
      <trkpt lat="43.94032" lon="7.05913">
        <ele>302.732855</ele>
        <time>2021-09-19T07:29:12.000Z</time>
      </trkpt>
      <trkpt lat="43.94003" lon="7.05925">
        <ele>303.179724</ele>
        <time>2021-09-19T07:29:18.000Z</time>
      </trkpt>
      <trkpt lat="43.93999" lon="7.05929">
        <ele>303.262188</ele>
        <time>2021-09-19T07:29:19.000Z</time>
      </trkpt>
      <trkpt lat="43.93991" lon="7.05939">
        <ele>303.413321</ele>
        <time>2021-09-19T07:29:21.000Z</time>
      </trkpt>
      <trkpt lat="43.93981" lon="7.05954">
        <ele>303.639596</ele>
        <time>2021-09-19T07:29:24.000Z</time>
      </trkpt>
      <trkpt lat="43.93956" lon="7.05994">
        <ele>304.221991</ele>
        <time>2021-09-19T07:29:31.000Z</time>
      </trkpt>
      <trkpt lat="43.93928" lon="7.06052">
        <ele>304.866284</ele>
        <time>2021-09-19T07:29:40.000Z</time>
      </trkpt>
      <trkpt lat="43.939" lon="7.06106">
        <ele>305.422028</ele>
        <time>2021-09-19T07:29:49.000Z</time>
      </trkpt>
      <trkpt lat="43.93878" lon="7.06146">
        <ele>305.854458</ele>
        <time>2021-09-19T07:29:56.000Z</time>
      </trkpt>
      <trkpt lat="43.93875" lon="7.06152">
        <ele>305.91358</ele>
        <time>2021-09-19T07:29:57.000Z</time>
      </trkpt>
      <trkpt lat="43.93859" lon="7.0618">
        <ele>306.216088</ele>
        <time>2021-09-19T07:30:02.000Z</time>
      </trkpt>
      <trkpt lat="43.93825" lon="7.06215">
        <ele>306.712566</ele>
        <time>2021-09-19T07:30:10.000Z</time>
      </trkpt>
      <trkpt lat="43.93806" lon="7.06235">
        <ele>307.011774</ele>
        <time>2021-09-19T07:30:15.000Z</time>
      </trkpt>
      <trkpt lat="43.93797" lon="7.06244">
        <ele>307.136931</ele>
        <time>2021-09-19T07:30:17.000Z</time>
      </trkpt>
      <trkpt lat="43.93755" lon="7.0628">
        <ele>307.739483</ele>
        <time>2021-09-19T07:30:26.000Z</time>
      </trkpt>
      <trkpt lat="43.93732" lon="7.06306">
        <ele>308.099515</ele>
        <time>2021-09-19T07:30:31.000Z</time>
      </trkpt>
      <trkpt lat="43.93728" lon="7.06312">
        <ele>308.170971</ele>
        <time>2021-09-19T07:30:32.000Z</time>
      </trkpt>
      <trkpt lat="43.93724" lon="7.06318">
        <ele>308.243072</ele>
        <time>2021-09-19T07:30:34.000Z</time>
      </trkpt>
      <trkpt lat="43.93714" lon="7.06348">
        <ele>308.530965</ele>
        <time>2021-09-19T07:30:37.000Z</time>
      </trkpt>
      <trkpt lat="43.93707" lon="7.06391">
        <ele>308.790669</ele>
        <time>2021-09-19T07:30:42.000Z</time>
      </trkpt>
      <trkpt lat="43.93696" lon="7.06458">
        <ele>308.885352</ele>
        <time>2021-09-19T07:30:49.000Z</time>
      </trkpt>
      <trkpt lat="43.93693" lon="7.06467">
        <ele>308.899131</ele>
        <time>2021-09-19T07:30:50.000Z</time>
      </trkpt>
      <trkpt lat="43.93681" lon="7.06495">
        <ele>308.942899</ele>
        <time>2021-09-19T07:30:53.000Z</time>
      </trkpt>
      <trkpt lat="43.93649" lon="7.06566">
        <ele>309.057497</ele>
        <time>2021-09-19T07:31:01.000Z</time>
      </trkpt>
      <trkpt lat="43.93623" lon="7.06606">
        <ele>309.067856</ele>
        <time>2021-09-19T07:31:06.000Z</time>
      </trkpt>
      <trkpt lat="43.93577" lon="7.06656">
        <ele>308.8682</ele>
        <time>2021-09-19T07:31:14.000Z</time>
      </trkpt>
      <trkpt lat="43.93566" lon="7.06669">
        <ele>308.819555</ele>
        <time>2021-09-19T07:31:16.000Z</time>
      </trkpt>
      <trkpt lat="43.93556" lon="7.06694">
        <ele>308.748214</ele>
        <time>2021-09-19T07:31:19.000Z</time>
      </trkpt>
      <trkpt lat="43.93546" lon="7.06731">
        <ele>308.65213</ele>
        <time>2021-09-19T07:31:23.000Z</time>
      </trkpt>
      <trkpt lat="43.93545" lon="7.0674">
        <ele>308.628489</ele>
        <time>2021-09-19T07:31:24.000Z</time>
      </trkpt>
      <trkpt lat="43.93548" lon="7.0677">
        <ele>308.554051</ele>
        <time>2021-09-19T07:31:27.000Z</time>
      </trkpt>
      <trkpt lat="43.93551" lon="7.0679">
        <ele>308.505322</ele>
        <time>2021-09-19T07:31:29.000Z</time>
      </trkpt>
      <trkpt lat="43.93568" lon="7.06857">
        <ele>307.974758</ele>
        <time>2021-09-19T07:31:36.000Z</time>
      </trkpt>
      <trkpt lat="43.93587" lon="7.06929">
        <ele>307.386107</ele>
        <time>2021-09-19T07:31:43.000Z</time>
      </trkpt>
      <trkpt lat="43.93592" lon="7.0695">
        <ele>307.215737</ele>
        <time>2021-09-19T07:31:45.000Z</time>
      </trkpt>
      <trkpt lat="43.93595" lon="7.06971">
        <ele>307.044331</ele>
        <time>2021-09-19T07:31:47.000Z</time>
      </trkpt>
      <trkpt lat="43.93596" lon="7.06993">
        <ele>306.873098</ele>
        <time>2021-09-19T07:31:49.000Z</time>
      </trkpt>
      <trkpt lat="43.9359" lon="7.07053">
        <ele>306.370252</ele>
        <time>2021-09-19T07:31:54.000Z</time>
      </trkpt>
      <trkpt lat="43.93585" lon="7.07101">
        <ele>305.894122</ele>
        <time>2021-09-19T07:31:58.000Z</time>
      </trkpt>
      <trkpt lat="43.93586" lon="7.07113">
        <ele>305.774715</ele>
        <time>2021-09-19T07:31:59.000Z</time>
      </trkpt>
      <trkpt lat="43.93586" lon="7.07125">
        <ele>305.656215</ele>
        <time>2021-09-19T07:32:00.000Z</time>
      </trkpt>
      <trkpt lat="43.93592" lon="7.07148">
        <ele>305.425305</ele>
        <time>2021-09-19T07:32:02.000Z</time>
      </trkpt>
      <trkpt lat="43.93595" lon="7.07159">
        <ele>305.307552</ele>
        <time>2021-09-19T07:32:03.000Z</time>
      </trkpt>
      <trkpt lat="43.93607" lon="7.07191">
        <ele>304.948797</ele>
        <time>2021-09-19T07:32:06.000Z</time>
      </trkpt>
      <trkpt lat="43.93609" lon="7.07202">
        <ele>304.839754</ele>
        <time>2021-09-19T07:32:07.000Z</time>
      </trkpt>
      <trkpt lat="43.93613" lon="7.07225">
        <ele>304.609626</ele>
        <time>2021-09-19T07:32:09.000Z</time>
      </trkpt>
      <trkpt lat="43.93615" lon="7.07237">
        <ele>304.489496</ele>
        <time>2021-09-19T07:32:10.000Z</time>
      </trkpt>
      <trkpt lat="43.93616" lon="7.07249">
        <ele>304.371564</ele>
        <time>2021-09-19T07:32:11.000Z</time>
      </trkpt>
      <trkpt lat="43.93615" lon="7.07284">
        <ele>303.962423</ele>
        <time>2021-09-19T07:32:14.000Z</time>
      </trkpt>
      <trkpt lat="43.93607" lon="7.07369">
        <ele>302.573545</ele>
        <time>2021-09-19T07:32:21.000Z</time>
      </trkpt>
      <trkpt lat="43.93598" lon="7.07452">
        <ele>301.199585</ele>
        <time>2021-09-19T07:32:28.000Z</time>
      </trkpt>
      <trkpt lat="43.93593" lon="7.075">
        <ele>300.412592</ele>
        <time>2021-09-19T07:32:32.000Z</time>
      </trkpt>
      <trkpt lat="43.93593" lon="7.07559">
        <ele>299.428845</ele>
        <time>2021-09-19T07:32:37.000Z</time>
      </trkpt>
      <trkpt lat="43.93596" lon="7.07641">
        <ele>298.007931</ele>
        <time>2021-09-19T07:32:44.000Z</time>
      </trkpt>
      <trkpt lat="43.93599" lon="7.07724">
        <ele>296.558145</ele>
        <time>2021-09-19T07:32:51.000Z</time>
      </trkpt>
      <trkpt lat="43.93604" lon="7.07758">
        <ele>295.966329</ele>
        <time>2021-09-19T07:32:54.000Z</time>
      </trkpt>
      <trkpt lat="43.93606" lon="7.07769">
        <ele>295.772905</ele>
        <time>2021-09-19T07:32:55.000Z</time>
      </trkpt>
      <trkpt lat="43.93624" lon="7.07828">
        <ele>294.99136</ele>
        <time>2021-09-19T07:33:01.000Z</time>
      </trkpt>
      <trkpt lat="43.93642" lon="7.07882">
        <ele>294.283081</ele>
        <time>2021-09-19T07:33:07.000Z</time>
      </trkpt>
      <trkpt lat="43.93668" lon="7.07941">
        <ele>293.451296</ele>
        <time>2021-09-19T07:33:14.000Z</time>
      </trkpt>
      <trkpt lat="43.93703" lon="7.08012">
        <ele>292.302706</ele>
        <time>2021-09-19T07:33:22.000Z</time>
      </trkpt>
      <trkpt lat="43.93736" lon="7.08089">
        <ele>290.798149</ele>
        <time>2021-09-19T07:33:30.000Z</time>
      </trkpt>
      <trkpt lat="43.9374" lon="7.08099">
        <ele>290.611053</ele>
        <time>2021-09-19T07:33:31.000Z</time>
      </trkpt>
      <trkpt lat="43.93767" lon="7.08172">
        <ele>289.249811</ele>
        <time>2021-09-19T07:33:38.000Z</time>
      </trkpt>
      <trkpt lat="43.93778" lon="7.08228">
        <ele>288.231865</ele>
        <time>2021-09-19T07:33:43.000Z</time>
      </trkpt>
      <trkpt lat="43.93775" lon="7.08274">
        <ele>287.345864</ele>
        <time>2021-09-19T07:33:47.000Z</time>
      </trkpt>
      <trkpt lat="43.93763" lon="7.08327">
        <ele>286.281463</ele>
        <time>2021-09-19T07:33:52.000Z</time>
      </trkpt>
      <trkpt lat="43.93745" lon="7.08385">
        <ele>285.058428</ele>
        <time>2021-09-19T07:33:58.000Z</time>
      </trkpt>
      <trkpt lat="43.93734" lon="7.08434">
        <ele>284.07623</ele>
        <time>2021-09-19T07:34:03.000Z</time>
      </trkpt>
      <trkpt lat="43.93723" lon="7.08514">
        <ele>282.689437</ele>
        <time>2021-09-19T07:34:11.000Z</time>
      </trkpt>
      <trkpt lat="43.9372" lon="7.08534">
        <ele>282.35144</ele>
        <time>2021-09-19T07:34:13.000Z</time>
      </trkpt>
      <trkpt lat="43.93706" lon="7.08603">
        <ele>281.170122</ele>
        <time>2021-09-19T07:34:20.000Z</time>
      </trkpt>
      <trkpt lat="43.93689" lon="7.08648">
        <ele>280.324635</ele>
        <time>2021-09-19T07:34:25.000Z</time>
      </trkpt>
      <trkpt lat="43.93665" lon="7.08687">
        <ele>279.510574</ele>
        <time>2021-09-19T07:34:30.000Z</time>
      </trkpt>
      <trkpt lat="43.93628" lon="7.08725">
        <ele>278.633849</ele>
        <time>2021-09-19T07:34:36.000Z</time>
      </trkpt>
      <trkpt lat="43.93594" lon="7.08748">
        <ele>277.891693</ele>
        <time>2021-09-19T07:34:41.000Z</time>
      </trkpt>
      <trkpt lat="43.93544" lon="7.08775">
        <ele>276.869022</ele>
        <time>2021-09-19T07:34:48.000Z</time>
      </trkpt>
      <trkpt lat="43.93494" lon="7.08802">
        <ele>275.920898</ele>
        <time>2021-09-19T07:34:55.000Z</time>
      </trkpt>
      <trkpt lat="43.93465" lon="7.08818">
        <ele>275.475039</ele>
        <time>2021-09-19T07:34:59.000Z</time>
      </trkpt>
      <trkpt lat="43.93414" lon="7.08847">
        <ele>274.695906</ele>
        <time>2021-09-19T07:35:06.000Z</time>
      </trkpt>
      <trkpt lat="43.93399" lon="7.08855">
        <ele>274.465554</ele>
        <time>2021-09-19T07:35:08.000Z</time>
      </trkpt>
      <trkpt lat="43.93347" lon="7.08885">
        <ele>273.655271</ele>
        <time>2021-09-19T07:35:15.000Z</time>
      </trkpt>
      <trkpt lat="43.93325" lon="7.08897">
        <ele>273.350945</ele>
        <time>2021-09-19T07:35:18.000Z</time>
      </trkpt>
      <trkpt lat="43.93272" lon="7.08927">
        <ele>272.629058</ele>
        <time>2021-09-19T07:35:25.000Z</time>
      </trkpt>
      <trkpt lat="43.93249" lon="7.08939">
        <ele>272.318955</ele>
        <time>2021-09-19T07:35:28.000Z</time>
      </trkpt>
      <trkpt lat="43.93199" lon="7.08969">
        <ele>271.617059</ele>
        <time>2021-09-19T07:35:35.000Z</time>
      </trkpt>
      <trkpt lat="43.93177" lon="7.08982">
        <ele>271.317673</ele>
        <time>2021-09-19T07:35:38.000Z</time>
      </trkpt>
      <trkpt lat="43.93143" lon="7.09006">
        <ele>270.864956</ele>
        <time>2021-09-19T07:35:43.000Z</time>
      </trkpt>
      <trkpt lat="43.93137" lon="7.09013">
        <ele>270.774519</ele>
        <time>2021-09-19T07:35:44.000Z</time>
      </trkpt>
      <trkpt lat="43.93095" lon="7.09058">
        <ele>270.143328</ele>
        <time>2021-09-19T07:35:51.000Z</time>
      </trkpt>
      <trkpt lat="43.93061" lon="7.09099">
        <ele>269.611732</ele>
        <time>2021-09-19T07:35:57.000Z</time>
      </trkpt>
      <trkpt lat="43.93039" lon="7.09128">
        <ele>269.246293</ele>
        <time>2021-09-19T07:36:01.000Z</time>
      </trkpt>
      <trkpt lat="43.93012" lon="7.09175">
        <ele>268.671325</ele>
        <time>2021-09-19T07:36:07.000Z</time>
      </trkpt>
      <trkpt lat="43.92984" lon="7.09233">
        <ele>267.99621</ele>
        <time>2021-09-19T07:36:14.000Z</time>
      </trkpt>
      <trkpt lat="43.92954" lon="7.09302">
        <ele>267.207914</ele>
        <time>2021-09-19T07:36:22.000Z</time>
      </trkpt>
      <trkpt lat="43.92946" lon="7.0932">
        <ele>267.007743</ele>
        <time>2021-09-19T07:36:24.000Z</time>
      </trkpt>
      <trkpt lat="43.92914" lon="7.09392">
        <ele>266.146063</ele>
        <time>2021-09-19T07:36:32.000Z</time>
      </trkpt>
      <trkpt lat="43.92885" lon="7.09461">
        <ele>265.312239</ele>
        <time>2021-09-19T07:36:40.000Z</time>
      </trkpt>
      <trkpt lat="43.92882" lon="7.0947">
        <ele>265.213334</ele>
        <time>2021-09-19T07:36:41.000Z</time>
      </trkpt>
      <trkpt lat="43.92864" lon="7.09544">
        <ele>264.404804</ele>
        <time>2021-09-19T07:36:49.000Z</time>
      </trkpt>
      <trkpt lat="43.92856" lon="7.09622">
        <ele>263.559384</ele>
        <time>2021-09-19T07:36:57.000Z</time>
      </trkpt>
      <trkpt lat="43.92849" lon="7.0969">
        <ele>262.822611</ele>
        <time>2021-09-19T07:37:04.000Z</time>
      </trkpt>
      <trkpt lat="43.92836" lon="7.09757">
        <ele>262.082865</ele>
        <time>2021-09-19T07:37:11.000Z</time>
      </trkpt>
      <trkpt lat="43.92821" lon="7.09815">
        <ele>261.390397</ele>
        <time>2021-09-19T07:37:17.000Z</time>
      </trkpt>
      <trkpt lat="43.92798" lon="7.09895">
        <ele>260.261362</ele>
        <time>2021-09-19T07:37:25.000Z</time>
      </trkpt>
      <trkpt lat="43.92792" lon="7.09916">
        <ele>259.966019</ele>
        <time>2021-09-19T07:37:27.000Z</time>
      </trkpt>
      <trkpt lat="43.92776" lon="7.09991">
        <ele>258.924033</ele>
        <time>2021-09-19T07:37:34.000Z</time>
      </trkpt>
      <trkpt lat="43.92776" lon="7.10048">
        <ele>258.174817</ele>
        <time>2021-09-19T07:37:39.000Z</time>
      </trkpt>
      <trkpt lat="43.92788" lon="7.10114">
        <ele>257.205913</ele>
        <time>2021-09-19T07:37:45.000Z</time>
      </trkpt>
      <trkpt lat="43.92806" lon="7.10164">
        <ele>256.404789</ele>
        <time>2021-09-19T07:37:50.000Z</time>
      </trkpt>
      <trkpt lat="43.92836" lon="7.10216">
        <ele>255.452138</ele>
        <time>2021-09-19T07:37:56.000Z</time>
      </trkpt>
      <trkpt lat="43.92871" lon="7.10274">
        <ele>254.412857</ele>
        <time>2021-09-19T07:38:03.000Z</time>
      </trkpt>
      <trkpt lat="43.9288" lon="7.10292">
        <ele>254.15446</ele>
        <time>2021-09-19T07:38:05.000Z</time>
      </trkpt>
      <trkpt lat="43.92898" lon="7.10337">
        <ele>253.523766</ele>
        <time>2021-09-19T07:38:10.000Z</time>
      </trkpt>
      <trkpt lat="43.92912" lon="7.10394">
        <ele>252.786203</ele>
        <time>2021-09-19T07:38:16.000Z</time>
      </trkpt>
      <trkpt lat="43.92917" lon="7.1046">
        <ele>251.978354</ele>
        <time>2021-09-19T07:38:23.000Z</time>
      </trkpt>
      <trkpt lat="43.92918" lon="7.1047">
        <ele>251.865937</ele>
        <time>2021-09-19T07:38:24.000Z</time>
      </trkpt>
      <trkpt lat="43.92919" lon="7.10497">
        <ele>251.561177</ele>
        <time>2021-09-19T07:38:27.000Z</time>
      </trkpt>
      <trkpt lat="43.92922" lon="7.10562">
        <ele>251.07092</ele>
        <time>2021-09-19T07:38:34.000Z</time>
      </trkpt>
      <trkpt lat="43.92925" lon="7.10617">
        <ele>250.646316</ele>
        <time>2021-09-19T07:38:40.000Z</time>
      </trkpt>
      <trkpt lat="43.92926" lon="7.10627">
        <ele>250.574963</ele>
        <time>2021-09-19T07:38:41.000Z</time>
      </trkpt>
      <trkpt lat="43.92933" lon="7.10693">
        <ele>250.063096</ele>
        <time>2021-09-19T07:38:48.000Z</time>
      </trkpt>
      <trkpt lat="43.9294" lon="7.1073">
        <ele>249.770715</ele>
        <time>2021-09-19T07:38:52.000Z</time>
      </trkpt>
      <trkpt lat="43.92944" lon="7.10749">
        <ele>249.637743</ele>
        <time>2021-09-19T07:38:54.000Z</time>
      </trkpt>
      <trkpt lat="43.92956" lon="7.10806">
        <ele>249.261118</ele>
        <time>2021-09-19T07:39:00.000Z</time>
      </trkpt>
      <trkpt lat="43.92977" lon="7.10881">
        <ele>248.749184</ele>
        <time>2021-09-19T07:39:08.000Z</time>
      </trkpt>
      <trkpt lat="43.9298" lon="7.1089">
        <ele>248.68601</ele>
        <time>2021-09-19T07:39:09.000Z</time>
      </trkpt>
      <trkpt lat="43.92982" lon="7.10899">
        <ele>248.62377</ele>
        <time>2021-09-19T07:39:10.000Z</time>
      </trkpt>
      <trkpt lat="43.92988" lon="7.10917">
        <ele>248.501618</ele>
        <time>2021-09-19T07:39:12.000Z</time>
      </trkpt>
      <trkpt lat="43.92991" lon="7.10926">
        <ele>248.439961</ele>
        <time>2021-09-19T07:39:13.000Z</time>
      </trkpt>
      <trkpt lat="43.93009" lon="7.10978">
        <ele>248.113342</ele>
        <time>2021-09-19T07:39:19.000Z</time>
      </trkpt>
      <trkpt lat="43.93013" lon="7.10987">
        <ele>248.094507</ele>
        <time>2021-09-19T07:39:20.000Z</time>
      </trkpt>
      <trkpt lat="43.93022" lon="7.11013">
        <ele>248.040212</ele>
        <time>2021-09-19T07:39:23.000Z</time>
      </trkpt>
      <trkpt lat="43.93029" lon="7.11031">
        <ele>248.002163</ele>
        <time>2021-09-19T07:39:25.000Z</time>
      </trkpt>
      <trkpt lat="43.93045" lon="7.11074">
        <ele>247.911554</ele>
        <time>2021-09-19T07:39:30.000Z</time>
      </trkpt>
      <trkpt lat="43.93061" lon="7.11117">
        <ele>247.820612</ele>
        <time>2021-09-19T07:39:35.000Z</time>
      </trkpt>
      <trkpt lat="43.93084" lon="7.11181">
        <ele>247.687911</ele>
        <time>2021-09-19T07:39:42.000Z</time>
      </trkpt>
      <trkpt lat="43.93087" lon="7.1119">
        <ele>247.668581</ele>
        <time>2021-09-19T07:39:43.000Z</time>
      </trkpt>
      <trkpt lat="43.93103" lon="7.1125">
        <ele>247.308225</ele>
        <time>2021-09-19T07:39:49.000Z</time>
      </trkpt>
      <trkpt lat="43.93114" lon="7.11321">
        <ele>246.886486</ele>
        <time>2021-09-19T07:39:56.000Z</time>
      </trkpt>
      <trkpt lat="43.93117" lon="7.11399">
        <ele>246.429264</ele>
        <time>2021-09-19T07:40:04.000Z</time>
      </trkpt>
      <trkpt lat="43.93113" lon="7.11466">
        <ele>246.110564</ele>
        <time>2021-09-19T07:40:11.000Z</time>
      </trkpt>
      <trkpt lat="43.93106" lon="7.11532">
        <ele>245.884147</ele>
        <time>2021-09-19T07:40:18.000Z</time>
      </trkpt>
      <trkpt lat="43.93104" lon="7.11551">
        <ele>245.820601</ele>
        <time>2021-09-19T07:40:20.000Z</time>
      </trkpt>
      <trkpt lat="43.93103" lon="7.1157">
        <ele>245.75503</ele>
        <time>2021-09-19T07:40:22.000Z</time>
      </trkpt>
      <trkpt lat="43.93102" lon="7.1158">
        <ele>245.722008</ele>
        <time>2021-09-19T07:40:23.000Z</time>
      </trkpt>
      <trkpt lat="43.93103" lon="7.11599">
        <ele>245.656249</ele>
        <time>2021-09-19T07:40:25.000Z</time>
      </trkpt>
      <trkpt lat="43.93103" lon="7.11609">
        <ele>245.62252</ele>
        <time>2021-09-19T07:40:26.000Z</time>
      </trkpt>
      <trkpt lat="43.93104" lon="7.11618">
        <ele>245.589839</ele>
        <time>2021-09-19T07:40:27.000Z</time>
      </trkpt>
      <trkpt lat="43.93106" lon="7.11638">
        <ele>245.522386</ele>
        <time>2021-09-19T07:40:29.000Z</time>
      </trkpt>
      <trkpt lat="43.9312" lon="7.11694">
        <ele>245.311222</ele>
        <time>2021-09-19T07:40:35.000Z</time>
      </trkpt>
      <trkpt lat="43.93126" lon="7.11712">
        <ele>245.232584</ele>
        <time>2021-09-19T07:40:37.000Z</time>
      </trkpt>
      <trkpt lat="43.93133" lon="7.11729">
        <ele>245.152534</ele>
        <time>2021-09-19T07:40:39.000Z</time>
      </trkpt>
      <trkpt lat="43.93141" lon="7.11744">
        <ele>245.078292</ele>
        <time>2021-09-19T07:40:41.000Z</time>
      </trkpt>
      <trkpt lat="43.93149" lon="7.11759">
        <ele>245.00242</ele>
        <time>2021-09-19T07:40:43.000Z</time>
      </trkpt>
      <trkpt lat="43.9318" lon="7.11795">
        <ele>244.777737</ele>
        <time>2021-09-19T07:40:49.000Z</time>
      </trkpt>
      <trkpt lat="43.93213" lon="7.11825">
        <ele>244.553761</ele>
        <time>2021-09-19T07:40:56.000Z</time>
      </trkpt>
      <trkpt lat="43.93251" lon="7.11862">
        <ele>244.293336</ele>
        <time>2021-09-19T07:41:02.000Z</time>
      </trkpt>
      <trkpt lat="43.93273" lon="7.11903">
        <ele>244.064065</ele>
        <time>2021-09-19T07:41:08.000Z</time>
      </trkpt>
      <trkpt lat="43.93283" lon="7.11925">
        <ele>243.945898</ele>
        <time>2021-09-19T07:41:11.000Z</time>
      </trkpt>
      <trkpt lat="43.93284" lon="7.11934">
        <ele>243.904965</ele>
        <time>2021-09-19T07:41:12.000Z</time>
      </trkpt>
      <trkpt lat="43.93285" lon="7.11943">
        <ele>243.865303</ele>
        <time>2021-09-19T07:41:13.000Z</time>
      </trkpt>
      <trkpt lat="43.93287" lon="7.11961">
        <ele>243.78324</ele>
        <time>2021-09-19T07:41:15.000Z</time>
      </trkpt>
      <trkpt lat="43.93288" lon="7.11971">
        <ele>243.741722</ele>
        <time>2021-09-19T07:41:16.000Z</time>
      </trkpt>
      <trkpt lat="43.93289" lon="7.1198">
        <ele>243.701176</ele>
        <time>2021-09-19T07:41:17.000Z</time>
      </trkpt>
      <trkpt lat="43.93293" lon="7.11995">
        <ele>243.626859</ele>
        <time>2021-09-19T07:41:19.000Z</time>
      </trkpt>
      <trkpt lat="43.93297" lon="7.12001">
        <ele>243.590125</ele>
        <time>2021-09-19T07:41:20.000Z</time>
      </trkpt>
      <trkpt lat="43.93301" lon="7.12008">
        <ele>243.552647</ele>
        <time>2021-09-19T07:41:21.000Z</time>
      </trkpt>
      <trkpt lat="43.93315" lon="7.12025">
        <ele>243.436389</ele>
        <time>2021-09-19T07:41:24.000Z</time>
      </trkpt>
      <trkpt lat="43.93343" lon="7.12059">
        <ele>243.213847</ele>
        <time>2021-09-19T07:41:30.000Z</time>
      </trkpt>
      <trkpt lat="43.93374" lon="7.1209">
        <ele>243.024935</ele>
        <time>2021-09-19T07:41:36.000Z</time>
      </trkpt>
      <trkpt lat="43.93418" lon="7.12133">
        <ele>242.756942</ele>
        <time>2021-09-19T07:41:44.000Z</time>
      </trkpt>
      <trkpt lat="43.93466" lon="7.12181">
        <ele>242.463328</ele>
        <time>2021-09-19T07:41:53.000Z</time>
      </trkpt>
      <trkpt lat="43.93477" lon="7.12192">
        <ele>242.397345</ele>
        <time>2021-09-19T07:41:55.000Z</time>
      </trkpt>
      <trkpt lat="43.93495" lon="7.12219">
        <ele>242.217888</ele>
        <time>2021-09-19T07:41:59.000Z</time>
      </trkpt>
      <trkpt lat="43.93532" lon="7.12283">
        <ele>241.76275</ele>
        <time>2021-09-19T07:42:08.000Z</time>
      </trkpt>
      <trkpt lat="43.93554" lon="7.12342">
        <ele>241.387358</ele>
        <time>2021-09-19T07:42:15.000Z</time>
      </trkpt>
      <trkpt lat="43.93565" lon="7.12399">
        <ele>241.06282</ele>
        <time>2021-09-19T07:42:21.000Z</time>
      </trkpt>
      <trkpt lat="43.9357" lon="7.12457">
        <ele>240.800422</ele>
        <time>2021-09-19T07:42:27.000Z</time>
      </trkpt>
      <trkpt lat="43.93569" lon="7.12467">
        <ele>240.761641</ele>
        <time>2021-09-19T07:42:28.000Z</time>
      </trkpt>
      <trkpt lat="43.93563" lon="7.12525">
        <ele>240.528495</ele>
        <time>2021-09-19T07:42:34.000Z</time>
      </trkpt>
      <trkpt lat="43.93555" lon="7.12572">
        <ele>240.336735</ele>
        <time>2021-09-19T07:42:39.000Z</time>
      </trkpt>
      <trkpt lat="43.93553" lon="7.12582">
        <ele>240.297177</ele>
        <time>2021-09-19T07:42:40.000Z</time>
      </trkpt>
      <trkpt lat="43.93529" lon="7.12642">
        <ele>240.025655</ele>
        <time>2021-09-19T07:42:47.000Z</time>
      </trkpt>
      <trkpt lat="43.93512" lon="7.12693">
        <ele>239.846927</ele>
        <time>2021-09-19T07:42:53.000Z</time>
      </trkpt>
      <trkpt lat="43.93495" lon="7.12773">
        <ele>239.603453</ele>
        <time>2021-09-19T07:43:02.000Z</time>
      </trkpt>
      <trkpt lat="43.93491" lon="7.12791">
        <ele>239.549853</ele>
        <time>2021-09-19T07:43:04.000Z</time>
      </trkpt>
      <trkpt lat="43.93474" lon="7.12841">
        <ele>239.387918</ele>
        <time>2021-09-19T07:43:10.000Z</time>
      </trkpt>
      <trkpt lat="43.93447" lon="7.12885">
        <ele>239.218414</ele>
        <time>2021-09-19T07:43:16.000Z</time>
      </trkpt>
      <trkpt lat="43.93424" lon="7.12917">
        <ele>239.072055</ele>
        <time>2021-09-19T07:43:21.000Z</time>
      </trkpt>
      <trkpt lat="43.93394" lon="7.12955">
        <ele>238.889839</ele>
        <time>2021-09-19T07:43:27.000Z</time>
      </trkpt>
      <trkpt lat="43.93369" lon="7.12987">
        <ele>238.73845</ele>
        <time>2021-09-19T07:43:32.000Z</time>
      </trkpt>
      <trkpt lat="43.93345" lon="7.13018">
        <ele>238.587938</ele>
        <time>2021-09-19T07:43:37.000Z</time>
      </trkpt>
      <trkpt lat="43.93308" lon="7.13059">
        <ele>238.332775</ele>
        <time>2021-09-19T07:43:44.000Z</time>
      </trkpt>
      <trkpt lat="43.93279" lon="7.13096">
        <ele>238.020822</ele>
        <time>2021-09-19T07:43:50.000Z</time>
      </trkpt>
      <trkpt lat="43.93238" lon="7.13151">
        <ele>237.566739</ele>
        <time>2021-09-19T07:43:58.000Z</time>
      </trkpt>
      <trkpt lat="43.93233" lon="7.13158">
        <ele>237.511168</ele>
        <time>2021-09-19T07:43:59.000Z</time>
      </trkpt>
      <trkpt lat="43.93215" lon="7.13183">
        <ele>237.310527</ele>
        <time>2021-09-19T07:44:03.000Z</time>
      </trkpt>
      <trkpt lat="43.9321" lon="7.13189">
        <ele>237.260501</ele>
        <time>2021-09-19T07:44:04.000Z</time>
      </trkpt>
      <trkpt lat="43.93191" lon="7.13203">
        <ele>237.087779</ele>
        <time>2021-09-19T07:44:07.000Z</time>
      </trkpt>
      <trkpt lat="43.93174" lon="7.13212">
        <ele>237.005086</ele>
        <time>2021-09-19T07:44:10.000Z</time>
      </trkpt>
      <trkpt lat="43.93169" lon="7.13216">
        <ele>236.999317</ele>
        <time>2021-09-19T07:44:11.000Z</time>
      </trkpt>
      <trkpt lat="43.93164" lon="7.13221">
        <ele>236.993097</ele>
        <time>2021-09-19T07:44:12.000Z</time>
      </trkpt>
      <trkpt lat="43.93153" lon="7.13234">
        <ele>236.978278</ele>
        <time>2021-09-19T07:44:14.000Z</time>
      </trkpt>
      <trkpt lat="43.93144" lon="7.13252">
        <ele>236.96234</ele>
        <time>2021-09-19T07:44:16.000Z</time>
      </trkpt>
      <trkpt lat="43.93139" lon="7.13273">
        <ele>236.946858</ele>
        <time>2021-09-19T07:44:18.000Z</time>
      </trkpt>
      <trkpt lat="43.93134" lon="7.13321">
        <ele>236.91208</ele>
        <time>2021-09-19T07:44:23.000Z</time>
      </trkpt>
      <trkpt lat="43.93133" lon="7.1333">
        <ele>236.905212</ele>
        <time>2021-09-19T07:44:24.000Z</time>
      </trkpt>
      <trkpt lat="43.93128" lon="7.13389">
        <ele>236.862997</ele>
        <time>2021-09-19T07:44:30.000Z</time>
      </trkpt>
      <trkpt lat="43.93122" lon="7.13445">
        <ele>236.923345</ele>
        <time>2021-09-19T07:44:36.000Z</time>
      </trkpt>
      <trkpt lat="43.93121" lon="7.13454">
        <ele>236.970054</ele>
        <time>2021-09-19T07:44:37.000Z</time>
      </trkpt>
      <trkpt lat="43.93118" lon="7.1349">
        <ele>237.163419</ele>
        <time>2021-09-19T07:44:41.000Z</time>
      </trkpt>
      <trkpt lat="43.93116" lon="7.13507">
        <ele>237.255782</ele>
        <time>2021-09-19T07:44:43.000Z</time>
      </trkpt>
      <trkpt lat="43.93118" lon="7.13525">
        <ele>237.351408</ele>
        <time>2021-09-19T07:44:45.000Z</time>
      </trkpt>
      <trkpt lat="43.93119" lon="7.13533">
        <ele>237.397277</ele>
        <time>2021-09-19T07:44:46.000Z</time>
      </trkpt>
      <trkpt lat="43.93122" lon="7.13559">
        <ele>237.534078</ele>
        <time>2021-09-19T07:44:49.000Z</time>
      </trkpt>
      <trkpt lat="43.93149" lon="7.13633">
        <ele>237.979012</ele>
        <time>2021-09-19T07:44:58.000Z</time>
      </trkpt>
      <trkpt lat="43.93173" lon="7.13688">
        <ele>238.237806</ele>
        <time>2021-09-19T07:45:05.000Z</time>
      </trkpt>
      <trkpt lat="43.93176" lon="7.13695">
        <ele>238.259769</ele>
        <time>2021-09-19T07:45:06.000Z</time>
      </trkpt>
      <trkpt lat="43.93186" lon="7.1371">
        <ele>238.311353</ele>
        <time>2021-09-19T07:45:08.000Z</time>
      </trkpt>
      <trkpt lat="43.93195" lon="7.13718">
        <ele>238.349439</ele>
        <time>2021-09-19T07:45:10.000Z</time>
      </trkpt>
      <trkpt lat="43.93227" lon="7.13745">
        <ele>238.482343</ele>
        <time>2021-09-19T07:45:16.000Z</time>
      </trkpt>
      <trkpt lat="43.93265" lon="7.13776">
        <ele>238.636327</ele>
        <time>2021-09-19T07:45:22.000Z</time>
      </trkpt>
      <trkpt lat="43.93294" lon="7.13819">
        <ele>238.786829</ele>
        <time>2021-09-19T07:45:28.000Z</time>
      </trkpt>
      <trkpt lat="43.89163" lon="7.18913">
        <ele>176.37684</ele>
        <time>2021-09-19T07:59:56.000Z</time>
      </trkpt>
      <trkpt lat="43.89142" lon="7.18919">
        <ele>175.99629</ele>
        <time>2021-09-19T07:59:59.000Z</time>
      </trkpt>
      <trkpt lat="43.89129" lon="7.18921">
        <ele>175.757752</ele>
        <time>2021-09-19T08:00:01.000Z</time>
      </trkpt>
      <trkpt lat="43.89102" lon="7.18916">
        <ele>175.175795</ele>
        <time>2021-09-19T08:00:05.000Z</time>
      </trkpt>
      <trkpt lat="43.89095" lon="7.18914">
        <ele>174.993206</ele>
        <time>2021-09-19T08:00:06.000Z</time>
      </trkpt>
      <trkpt lat="43.89058" lon="7.18894">
        <ele>173.852518</ele>
        <time>2021-09-19T08:00:12.000Z</time>
      </trkpt>
      <trkpt lat="43.89021" lon="7.18871">
        <ele>172.712016</ele>
        <time>2021-09-19T08:00:21.000Z</time>
      </trkpt>
      <trkpt lat="43.88969" lon="7.18839">
        <ele>171.118614</ele>
        <time>2021-09-19T08:00:25.000Z</time>
      </trkpt>
      <trkpt lat="43.88943" lon="7.18864">
        <ele>170.310491</ele>
        <time>2021-09-19T08:00:30.000Z</time>
      </trkpt>
      <trkpt lat="43.88924" lon="7.18865">
        <ele>170.221111</ele>
        <time>2021-09-19T08:00:33.000Z</time>
      </trkpt>
      <trkpt lat="43.88906" lon="7.18871">
        <ele>170.127611</ele>
        <time>2021-09-19T08:00:37.000Z</time>
      </trkpt>
      <trkpt lat="43.88878" lon="7.18886">
        <ele>169.982178</ele>
        <time>2021-09-19T08:00:43.000Z</time>
      </trkpt>
      <trkpt lat="43.88832" lon="7.18914">
        <ele>169.734063</ele>
        <time>2021-09-19T08:00:50.000Z</time>
      </trkpt>
      <trkpt lat="43.888" lon="7.18933">
        <ele>169.564874</ele>
        <time>2021-09-19T08:00:57.000Z</time>
      </trkpt>
      <trkpt lat="43.88745" lon="7.18961">
        <ele>169.331057</ele>
        <time>2021-09-19T08:01:05.000Z</time>
      </trkpt>
      <trkpt lat="43.88739" lon="7.18964">
        <ele>169.309251</ele>
        <time>2021-09-19T08:01:07.000Z</time>
      </trkpt>
      <trkpt lat="43.88729" lon="7.18969">
        <ele>169.273651</ele>
        <time>2021-09-19T08:01:14.000Z</time>
      </trkpt>
      <trkpt lat="43.88645" lon="7.1895">
        <ele>168.987469</ele>
        <time>2021-09-19T08:01:17.000Z</time>
      </trkpt>
      <trkpt lat="43.88618" lon="7.18967">
        <ele>168.886217</ele>
        <time>2021-09-19T08:01:21.000Z</time>
      </trkpt>
      <trkpt lat="43.88593" lon="7.19024">
        <ele>168.561405</ele>
        <time>2021-09-19T08:01:26.000Z</time>
      </trkpt>
      <trkpt lat="43.88546" lon="7.19037">
        <ele>168.170369</ele>
        <time>2021-09-19T08:01:33.000Z</time>
      </trkpt>
      <trkpt lat="43.88502" lon="7.19056">
        <ele>167.801406</ele>
        <time>2021-09-19T08:01:39.000Z</time>
      </trkpt>
      <trkpt lat="43.88445" lon="7.19083">
        <ele>167.355437</ele>
        <time>2021-09-19T08:01:47.000Z</time>
      </trkpt>
      <trkpt lat="43.88429" lon="7.19084">
        <ele>167.29416</ele>
        <time>2021-09-19T08:01:49.000Z</time>
      </trkpt>
      <trkpt lat="43.88412" lon="7.1908">
        <ele>167.230349</ele>
        <time>2021-09-19T08:01:51.000Z</time>
      </trkpt>
      <trkpt lat="43.88367" lon="7.19065">
        <ele>167.054</ele>
        <time>2021-09-19T08:01:57.000Z</time>
      </trkpt>
      <trkpt lat="43.88314" lon="7.19056">
        <ele>166.852061</ele>
        <time>2021-09-19T08:02:04.000Z</time>
      </trkpt>
      <trkpt lat="43.88257" lon="7.19056">
        <ele>166.579672</ele>
        <time>2021-09-19T08:02:11.000Z</time>
      </trkpt>
      <trkpt lat="43.88204" lon="7.19039">
        <ele>166.224967</ele>
        <time>2021-09-19T08:02:18.000Z</time>
      </trkpt>
      <trkpt lat="43.88138" lon="7.19019">
        <ele>165.78478</ele>
        <time>2021-09-19T08:02:28.000Z</time>
      </trkpt>
      <trkpt lat="43.88078" lon="7.19003">
        <ele>165.377397</ele>
        <time>2021-09-19T08:02:36.000Z</time>
      </trkpt>
      <trkpt lat="43.88071" lon="7.19">
        <ele>165.326078</ele>
        <time>2021-09-19T08:02:37.000Z</time>
      </trkpt>
      <trkpt lat="43.88028" lon="7.18993">
        <ele>165.020208</ele>
        <time>2021-09-19T08:02:43.000Z</time>
      </trkpt>
      <trkpt lat="43.87978" lon="7.19004">
        <ele>164.665916</ele>
        <time>2021-09-19T08:02:50.000Z</time>
      </trkpt>
      <trkpt lat="43.87935" lon="7.19026">
        <ele>164.339101</ele>
        <time>2021-09-19T08:02:57.000Z</time>
      </trkpt>
      <trkpt lat="43.87891" lon="7.19063">
        <ele>164.084678</ele>
        <time>2021-09-19T08:03:04.000Z</time>
      </trkpt>
      <trkpt lat="43.87848" lon="7.191">
        <ele>163.854019</ele>
        <time>2021-09-19T08:03:14.000Z</time>
      </trkpt>
      <trkpt lat="43.87809" lon="7.19164">
        <ele>163.579852</ele>
        <time>2021-09-19T08:03:24.000Z</time>
      </trkpt>
      <trkpt lat="43.87773" lon="7.19218">
        <ele>163.330941</ele>
        <time>2021-09-19T08:03:33.000Z</time>
      </trkpt>
      <trkpt lat="43.87736" lon="7.19266">
        <ele>163.087906</ele>
        <time>2021-09-19T08:03:41.000Z</time>
      </trkpt>
      <trkpt lat="43.87681" lon="7.19302">
        <ele>162.796983</ele>
        <time>2021-09-19T08:03:50.000Z</time>
      </trkpt>
      <trkpt lat="43.87674" lon="7.19304">
        <ele>162.765148</ele>
        <time>2021-09-19T08:03:52.000Z</time>
      </trkpt>
      <trkpt lat="43.87648" lon="7.19312">
        <ele>162.637266</ele>
        <time>2021-09-19T08:03:56.000Z</time>
      </trkpt>
      <trkpt lat="43.87608" lon="7.19316">
        <ele>162.240138</ele>
        <time>2021-09-19T08:04:02.000Z</time>
      </trkpt>
      <trkpt lat="43.87562" lon="7.19315">
        <ele>161.713263</ele>
        <time>2021-09-19T08:04:09.000Z</time>
      </trkpt>
      <trkpt lat="43.87505" lon="7.19297">
        <ele>161.046149</ele>
        <time>2021-09-19T08:04:17.000Z</time>
      </trkpt>
      <trkpt lat="43.8749" lon="7.19296">
        <ele>160.87115</ele>
        <time>2021-09-19T08:04:19.000Z</time>
      </trkpt>
      <trkpt lat="43.87467" lon="7.19299">
        <ele>160.603149</ele>
        <time>2021-09-19T08:04:22.000Z</time>
      </trkpt>
      <trkpt lat="43.87445" lon="7.1931">
        <ele>160.366064</ele>
        <time>2021-09-19T08:04:25.000Z</time>
      </trkpt>
      <trkpt lat="43.87433" lon="7.19322">
        <ele>160.228815</ele>
        <time>2021-09-19T08:04:27.000Z</time>
      </trkpt>
      <trkpt lat="43.87428" lon="7.19329">
        <ele>160.155206</ele>
        <time>2021-09-19T08:04:28.000Z</time>
      </trkpt>
      <trkpt lat="43.87416" lon="7.19357">
        <ele>159.926142</ele>
        <time>2021-09-19T08:04:31.000Z</time>
      </trkpt>
      <trkpt lat="43.87401" lon="7.19405">
        <ele>159.563283</ele>
        <time>2021-09-19T08:04:36.000Z</time>
      </trkpt>
      <trkpt lat="43.87368" lon="7.19469">
        <ele>159.003756</ele>
        <time>2021-09-19T08:04:42.000Z</time>
      </trkpt>
      <trkpt lat="43.87314" lon="7.19522">
        <ele>158.336345</ele>
        <time>2021-09-19T08:04:51.000Z</time>
      </trkpt>
      <trkpt lat="43.87307" lon="7.19525">
        <ele>158.262736</ele>
        <time>2021-09-19T08:04:52.000Z</time>
      </trkpt>
      <trkpt lat="43.87263" lon="7.19563">
        <ele>157.72456</ele>
        <time>2021-09-19T08:04:58.000Z</time>
      </trkpt>
      <trkpt lat="43.87217" lon="7.19608">
        <ele>157.148928</ele>
        <time>2021-09-19T08:05:05.000Z</time>
      </trkpt>
      <trkpt lat="43.87211" lon="7.19615">
        <ele>157.06543</ele>
        <time>2021-09-19T08:05:06.000Z</time>
      </trkpt>
      <trkpt lat="43.87168" lon="7.19659">
        <ele>156.514059</ele>
        <time>2021-09-19T08:05:13.000Z</time>
      </trkpt>
      <trkpt lat="43.87134" lon="7.19724">
        <ele>155.921491</ele>
        <time>2021-09-19T08:05:21.000Z</time>
      </trkpt>
      <trkpt lat="43.87129" lon="7.19732">
        <ele>155.844569</ele>
        <time>2021-09-19T08:05:22.000Z</time>
      </trkpt>
      <trkpt lat="43.87059" lon="7.19734">
        <ele>155.128097</ele>
        <time>2021-09-19T08:05:29.000Z</time>
      </trkpt>
      <trkpt lat="43.87053" lon="7.19739">
        <ele>155.045044</ele>
        <time>2021-09-19T08:05:30.000Z</time>
      </trkpt>
      <trkpt lat="43.87" lon="7.19772">
        <ele>154.307653</ele>
        <time>2021-09-19T08:05:38.000Z</time>
      </trkpt>
      <trkpt lat="43.86946" lon="7.19803">
        <ele>153.573395</ele>
        <time>2021-09-19T08:05:46.000Z</time>
      </trkpt>
      <trkpt lat="43.86939" lon="7.19807">
        <ele>153.48299</ele>
        <time>2021-09-19T08:05:47.000Z</time>
      </trkpt>
      <trkpt lat="43.86892" lon="7.19826">
        <ele>152.857273</ele>
        <time>2021-09-19T08:05:54.000Z</time>
      </trkpt>
      <trkpt lat="43.86837" lon="7.19846">
        <ele>151.978306</ele>
        <time>2021-09-19T08:06:02.000Z</time>
      </trkpt>
      <trkpt lat="43.8678" lon="7.19862">
        <ele>151.075313</ele>
        <time>2021-09-19T08:06:10.000Z</time>
      </trkpt>
      <trkpt lat="43.86723" lon="7.1987">
        <ele>150.175168</ele>
        <time>2021-09-19T08:06:18.000Z</time>
      </trkpt>
      <trkpt lat="43.86664" lon="7.19876">
        <ele>149.413161</ele>
        <time>2021-09-19T08:06:26.000Z</time>
      </trkpt>
      <trkpt lat="43.8665" lon="7.19877">
        <ele>149.24004</ele>
        <time>2021-09-19T08:06:28.000Z</time>
      </trkpt>
      <trkpt lat="43.86592" lon="7.19873">
        <ele>148.527958</ele>
        <time>2021-09-19T08:06:36.000Z</time>
      </trkpt>
      <trkpt lat="43.86585" lon="7.19871">
        <ele>148.435277</ele>
        <time>2021-09-19T08:06:37.000Z</time>
      </trkpt>
      <trkpt lat="43.86528" lon="7.19893">
        <ele>147.717543</ele>
        <time>2021-09-19T08:06:45.000Z</time>
      </trkpt>
      <trkpt lat="43.86516" lon="7.19894">
        <ele>147.581</ele>
        <time>2021-09-19T08:06:47.000Z</time>
      </trkpt>
      <trkpt lat="43.86465" lon="7.19897">
        <ele>147.007791</ele>
        <time>2021-09-19T08:06:54.000Z</time>
      </trkpt>
      <trkpt lat="43.86408" lon="7.199">
        <ele>146.369111</ele>
        <time>2021-09-19T08:07:02.000Z</time>
      </trkpt>
      <trkpt lat="43.86401" lon="7.199">
        <ele>146.291247</ele>
        <time>2021-09-19T08:07:03.000Z</time>
      </trkpt>
      <trkpt lat="43.86394" lon="7.19901">
        <ele>146.206624</ele>
        <time>2021-09-19T08:07:04.000Z</time>
      </trkpt>
      <trkpt lat="43.86366" lon="7.19898">
        <ele>145.892676</ele>
        <time>2021-09-19T08:07:08.000Z</time>
      </trkpt>
      <trkpt lat="43.86308" lon="7.19893">
        <ele>145.330873</ele>
        <time>2021-09-19T08:07:16.000Z</time>
      </trkpt>
      <trkpt lat="43.86248" lon="7.19885">
        <ele>144.781365</ele>
        <time>2021-09-19T08:07:24.000Z</time>
      </trkpt>
      <trkpt lat="43.86233" lon="7.19882">
        <ele>144.641855</ele>
        <time>2021-09-19T08:07:26.000Z</time>
      </trkpt>
      <trkpt lat="43.86174" lon="7.19874">
        <ele>144.103029</ele>
        <time>2021-09-19T08:07:34.000Z</time>
      </trkpt>
      <trkpt lat="43.86152" lon="7.19875">
        <ele>144.054837</ele>
        <time>2021-09-19T08:07:37.000Z</time>
      </trkpt>
      <trkpt lat="43.86106" lon="7.1988">
        <ele>143.956523</ele>
        <time>2021-09-19T08:07:44.000Z</time>
      </trkpt>
      <trkpt lat="43.86067" lon="7.19875">
        <ele>143.873019</ele>
        <time>2021-09-19T08:07:51.000Z</time>
      </trkpt>
      <trkpt lat="43.86029" lon="7.19795">
        <ele>143.724314</ele>
        <time>2021-09-19T08:07:58.000Z</time>
      </trkpt>
      <trkpt lat="43.86019" lon="7.19789">
        <ele>143.693281</ele>
        <time>2021-09-19T08:08:00.000Z</time>
      </trkpt>
      <trkpt lat="43.85972" lon="7.1975">
        <ele>143.526852</ele>
        <time>2021-09-19T08:08:09.000Z</time>
      </trkpt>
      <trkpt lat="43.8593" lon="7.19714">
        <ele>143.377231</ele>
        <time>2021-09-19T08:08:16.000Z</time>
      </trkpt>
      <trkpt lat="43.85881" lon="7.19673">
        <ele>143.204683</ele>
        <time>2021-09-19T08:08:23.000Z</time>
      </trkpt>
      <trkpt lat="43.8583" lon="7.19632">
        <ele>142.840328</ele>
        <time>2021-09-19T08:08:30.000Z</time>
      </trkpt>
      <trkpt lat="43.85784" lon="7.19607">
        <ele>142.500528</ele>
        <time>2021-09-19T08:08:36.000Z</time>
      </trkpt>
      <trkpt lat="43.85737" lon="7.19595">
        <ele>142.17335</ele>
        <time>2021-09-19T08:08:42.000Z</time>
      </trkpt>
      <trkpt lat="43.8569" lon="7.19594">
        <ele>141.881551</ele>
        <time>2021-09-19T08:08:48.000Z</time>
      </trkpt>
      <trkpt lat="43.85645" lon="7.19605">
        <ele>141.675965</ele>
        <time>2021-09-19T08:08:54.000Z</time>
      </trkpt>
      <trkpt lat="43.85603" lon="7.19625">
        <ele>141.473695</ele>
        <time>2021-09-19T08:09:00.000Z</time>
      </trkpt>
      <trkpt lat="43.85559" lon="7.1966">
        <ele>141.24513</ele>
        <time>2021-09-19T08:09:07.000Z</time>
      </trkpt>
      <trkpt lat="43.85512" lon="7.19703">
        <ele>140.95915</ele>
        <time>2021-09-19T08:09:15.000Z</time>
      </trkpt>
      <trkpt lat="43.85506" lon="7.19708">
        <ele>140.919559</ele>
        <time>2021-09-19T08:09:16.000Z</time>
      </trkpt>
      <trkpt lat="43.85456" lon="7.19748">
        <ele>140.601673</ele>
        <time>2021-09-19T08:09:24.000Z</time>
      </trkpt>
      <trkpt lat="43.85449" lon="7.19752">
        <ele>140.561739</ele>
        <time>2021-09-19T08:09:25.000Z</time>
      </trkpt>
      <trkpt lat="43.85396" lon="7.19775">
        <ele>140.251745</ele>
        <time>2021-09-19T08:09:33.000Z</time>
      </trkpt>
      <trkpt lat="43.85389" lon="7.19778">
        <ele>140.212685</ele>
        <time>2021-09-19T08:09:34.000Z</time>
      </trkpt>
      <trkpt lat="43.85335" lon="7.19795">
        <ele>139.975887</ele>
        <time>2021-09-19T08:09:42.000Z</time>
      </trkpt>
      <trkpt lat="43.85328" lon="7.19796">
        <ele>139.947974</ele>
        <time>2021-09-19T08:09:43.000Z</time>
      </trkpt>
      <trkpt lat="43.85285" lon="7.19791">
        <ele>139.785693</ele>
        <time>2021-09-19T08:09:49.000Z</time>
      </trkpt>
      <trkpt lat="43.85226" lon="7.19828">
        <ele>139.539293</ele>
        <time>2021-09-19T08:09:58.000Z</time>
      </trkpt>
      <trkpt lat="43.85219" lon="7.1983">
        <ele>139.511588</ele>
        <time>2021-09-19T08:09:59.000Z</time>
      </trkpt>
      <trkpt lat="43.85163" lon="7.19835">
        <ele>139.152071</ele>
        <time>2021-09-19T08:10:06.000Z</time>
      </trkpt>
      <trkpt lat="43.85156" lon="7.19834">
        <ele>139.095641</ele>
        <time>2021-09-19T08:10:07.000Z</time>
      </trkpt>
      <trkpt lat="43.85096" lon="7.19839">
        <ele>138.649195</ele>
        <time>2021-09-19T08:10:15.000Z</time>
      </trkpt>
      <trkpt lat="43.8504" lon="7.19827">
        <ele>138.218144</ele>
        <time>2021-09-19T08:10:22.000Z</time>
      </trkpt>
      <trkpt lat="43.84981" lon="7.19816">
        <ele>137.738557</ele>
        <time>2021-09-19T08:10:30.000Z</time>
      </trkpt>
      <trkpt lat="43.84966" lon="7.19816">
        <ele>137.620211</ele>
        <time>2021-09-19T08:10:32.000Z</time>
      </trkpt>
      <trkpt lat="43.84912" lon="7.1981">
        <ele>137.16867</ele>
        <time>2021-09-19T08:10:39.000Z</time>
      </trkpt>
      <trkpt lat="43.84885" lon="7.19795">
        <ele>136.926648</ele>
        <time>2021-09-19T08:10:43.000Z</time>
      </trkpt>
      <trkpt lat="43.84829" lon="7.19779">
        <ele>136.499217</ele>
        <time>2021-09-19T08:10:51.000Z</time>
      </trkpt>
      <trkpt lat="43.84815" lon="7.19779">
        <ele>136.415768</ele>
        <time>2021-09-19T08:10:53.000Z</time>
      </trkpt>
      <trkpt lat="43.84757" lon="7.19768">
        <ele>136.074952</ele>
        <time>2021-09-19T08:11:01.000Z</time>
      </trkpt>
      <trkpt lat="43.8475" lon="7.19767">
        <ele>136.032272</ele>
        <time>2021-09-19T08:11:02.000Z</time>
      </trkpt>
      <trkpt lat="43.84691" lon="7.19752">
        <ele>135.681845</ele>
        <time>2021-09-19T08:11:10.000Z</time>
      </trkpt>
      <trkpt lat="43.84683" lon="7.1975">
        <ele>135.637942</ele>
        <time>2021-09-19T08:11:11.000Z</time>
      </trkpt>
      <trkpt lat="43.84639" lon="7.19734">
        <ele>135.421172</ele>
        <time>2021-09-19T08:11:17.000Z</time>
      </trkpt>
      <trkpt lat="43.84632" lon="7.19731">
        <ele>135.391243</ele>
        <time>2021-09-19T08:11:18.000Z</time>
      </trkpt>
      <trkpt lat="43.84625" lon="7.19729">
        <ele>135.361315</ele>
        <time>2021-09-19T08:11:19.000Z</time>
      </trkpt>
      <trkpt lat="43.84607" lon="7.19722">
        <ele>135.281127</ele>
        <time>2021-09-19T08:11:22.000Z</time>
      </trkpt>
      <trkpt lat="43.84582" lon="7.19713">
        <ele>135.173714</ele>
        <time>2021-09-19T08:11:26.000Z</time>
      </trkpt>
      <trkpt lat="43.84576" lon="7.19711">
        <ele>135.144197</ele>
        <time>2021-09-19T08:11:27.000Z</time>
      </trkpt>
      <trkpt lat="43.84569" lon="7.19708">
        <ele>135.113446</ele>
        <time>2021-09-19T08:11:28.000Z</time>
      </trkpt>
      <trkpt lat="43.84541" lon="7.19698">
        <ele>134.989874</ele>
        <time>2021-09-19T08:11:32.000Z</time>
      </trkpt>
      <trkpt lat="43.84485" lon="7.19678">
        <ele>134.732403</ele>
        <time>2021-09-19T08:11:40.000Z</time>
      </trkpt>
      <trkpt lat="43.84472" lon="7.19673">
        <ele>134.654476</ele>
        <time>2021-09-19T08:11:42.000Z</time>
      </trkpt>
      <trkpt lat="43.84415" lon="7.19651">
        <ele>134.330941</ele>
        <time>2021-09-19T08:11:50.000Z</time>
      </trkpt>
      <trkpt lat="43.84408" lon="7.19649">
        <ele>134.290857</ele>
        <time>2021-09-19T08:11:51.000Z</time>
      </trkpt>
      <trkpt lat="43.84353" lon="7.19627">
        <ele>133.970839</ele>
        <time>2021-09-19T08:11:59.000Z</time>
      </trkpt>
      <trkpt lat="43.84339" lon="7.19622">
        <ele>133.89174</ele>
        <time>2021-09-19T08:12:01.000Z</time>
      </trkpt>
      <trkpt lat="43.84286" lon="7.19604">
        <ele>133.533428</ele>
        <time>2021-09-19T08:12:09.000Z</time>
      </trkpt>
      <trkpt lat="43.84231" lon="7.19584">
        <ele>133.134515</ele>
        <time>2021-09-19T08:12:17.000Z</time>
      </trkpt>
      <trkpt lat="43.84224" lon="7.19582">
        <ele>133.085392</ele>
        <time>2021-09-19T08:12:18.000Z</time>
      </trkpt>
      <trkpt lat="43.84167" lon="7.19561">
        <ele>132.67691</ele>
        <time>2021-09-19T08:12:26.000Z</time>
      </trkpt>
      <trkpt lat="43.84153" lon="7.19556">
        <ele>132.577056</ele>
        <time>2021-09-19T08:12:28.000Z</time>
      </trkpt>
      <trkpt lat="43.841" lon="7.19537">
        <ele>132.150106</ele>
        <time>2021-09-19T08:12:36.000Z</time>
      </trkpt>
      <trkpt lat="43.84086" lon="7.19532">
        <ele>132.043856</ele>
        <time>2021-09-19T08:12:38.000Z</time>
      </trkpt>
      <trkpt lat="43.84034" lon="7.19513">
        <ele>131.624232</ele>
        <time>2021-09-19T08:12:46.000Z</time>
      </trkpt>
      <trkpt lat="43.83981" lon="7.19494">
        <ele>131.200727</ele>
        <time>2021-09-19T08:12:54.000Z</time>
      </trkpt>
      <trkpt lat="43.83974" lon="7.19491">
        <ele>131.147497</ele>
        <time>2021-09-19T08:12:55.000Z</time>
      </trkpt>
      <trkpt lat="43.8393" lon="7.19478">
        <ele>130.854435</ele>
        <time>2021-09-19T08:13:02.000Z</time>
      </trkpt>
      <trkpt lat="43.83917" lon="7.19468">
        <ele>130.759702</ele>
        <time>2021-09-19T08:13:05.000Z</time>
      </trkpt>
      <trkpt lat="43.83905" lon="7.19469">
        <ele>130.680738</ele>
        <time>2021-09-19T08:13:07.000Z</time>
      </trkpt>
      <trkpt lat="43.83894" lon="7.19464">
        <ele>130.606409</ele>
        <time>2021-09-19T08:13:09.000Z</time>
      </trkpt>
      <trkpt lat="43.83864" lon="7.19452">
        <ele>130.408815</ele>
        <time>2021-09-19T08:13:14.000Z</time>
      </trkpt>
      <trkpt lat="43.83809" lon="7.19431">
        <ele>130.036194</ele>
        <time>2021-09-19T08:13:23.000Z</time>
      </trkpt>
      <trkpt lat="43.83802" lon="7.19429">
        <ele>129.995064</ele>
        <time>2021-09-19T08:13:24.000Z</time>
      </trkpt>
      <trkpt lat="43.83758" lon="7.19414">
        <ele>129.587068</ele>
        <time>2021-09-19T08:13:31.000Z</time>
      </trkpt>
      <trkpt lat="43.83745" lon="7.19411">
        <ele>129.466637</ele>
        <time>2021-09-19T08:13:33.000Z</time>
      </trkpt>
      <trkpt lat="43.83738" lon="7.19408">
        <ele>129.405367</ele>
        <time>2021-09-19T08:13:34.000Z</time>
      </trkpt>
      <trkpt lat="43.83711" lon="7.19397">
        <ele>129.155819</ele>
        <time>2021-09-19T08:13:38.000Z</time>
      </trkpt>
      <trkpt lat="43.83659" lon="7.19379">
        <ele>128.677835</ele>
        <time>2021-09-19T08:13:46.000Z</time>
      </trkpt>
      <trkpt lat="43.83608" lon="7.1936">
        <ele>128.231587</ele>
        <time>2021-09-19T08:13:54.000Z</time>
      </trkpt>
      <trkpt lat="43.83563" lon="7.19344">
        <ele>127.887533</ele>
        <time>2021-09-19T08:14:01.000Z</time>
      </trkpt>
      <trkpt lat="43.83557" lon="7.19341">
        <ele>127.838651</ele>
        <time>2021-09-19T08:14:02.000Z</time>
      </trkpt>
      <trkpt lat="43.83538" lon="7.19333">
        <ele>127.6885</ele>
        <time>2021-09-19T08:14:05.000Z</time>
      </trkpt>
      <trkpt lat="43.83525" lon="7.19333">
        <ele>127.591201</ele>
        <time>2021-09-19T08:14:07.000Z</time>
      </trkpt>
      <trkpt lat="43.83493" lon="7.19316">
        <ele>127.334685</ele>
        <time>2021-09-19T08:14:12.000Z</time>
      </trkpt>
      <trkpt lat="43.8344" lon="7.19293">
        <ele>126.916479</ele>
        <time>2021-09-19T08:14:20.000Z</time>
      </trkpt>
      <trkpt lat="43.83386" lon="7.19273">
        <ele>126.485951</ele>
        <time>2021-09-19T08:14:28.000Z</time>
      </trkpt>
      <trkpt lat="43.83379" lon="7.1927">
        <ele>126.43332</ele>
        <time>2021-09-19T08:14:29.000Z</time>
      </trkpt>
      <trkpt lat="43.83325" lon="7.1925">
        <ele>125.999667</ele>
        <time>2021-09-19T08:14:37.000Z</time>
      </trkpt>
      <trkpt lat="43.83305" lon="7.19243">
        <ele>125.836876</ele>
        <time>2021-09-19T08:14:40.000Z</time>
      </trkpt>
      <trkpt lat="43.83249" lon="7.19222">
        <ele>125.368873</ele>
        <time>2021-09-19T08:14:48.000Z</time>
      </trkpt>
      <trkpt lat="43.83221" lon="7.19212">
        <ele>125.127033</ele>
        <time>2021-09-19T08:14:52.000Z</time>
      </trkpt>
      <trkpt lat="43.83165" lon="7.19193">
        <ele>124.644346</ele>
        <time>2021-09-19T08:15:00.000Z</time>
      </trkpt>
      <trkpt lat="43.83129" lon="7.19184">
        <ele>124.346462</ele>
        <time>2021-09-19T08:15:05.000Z</time>
      </trkpt>
      <trkpt lat="43.83075" lon="7.19163">
        <ele>123.972503</ele>
        <time>2021-09-19T08:15:13.000Z</time>
      </trkpt>
      <trkpt lat="43.83061" lon="7.19158">
        <ele>123.898653</ele>
        <time>2021-09-19T08:15:15.000Z</time>
      </trkpt>
      <trkpt lat="43.83006" lon="7.19138">
        <ele>123.594184</ele>
        <time>2021-09-19T08:15:23.000Z</time>
      </trkpt>
      <trkpt lat="43.82964" lon="7.19123">
        <ele>123.362338</ele>
        <time>2021-09-19T08:15:29.000Z</time>
      </trkpt>
      <trkpt lat="43.8291" lon="7.19104">
        <ele>123.0453</ele>
        <time>2021-09-19T08:15:37.000Z</time>
      </trkpt>
      <trkpt lat="43.82889" lon="7.19097">
        <ele>122.914792</ele>
        <time>2021-09-19T08:15:40.000Z</time>
      </trkpt>
      <trkpt lat="43.82836" lon="7.19078">
        <ele>122.57795</ele>
        <time>2021-09-19T08:15:48.000Z</time>
      </trkpt>
      <trkpt lat="43.82809" lon="7.19068">
        <ele>122.402163</ele>
        <time>2021-09-19T08:15:52.000Z</time>
      </trkpt>
      <trkpt lat="43.82753" lon="7.19048">
        <ele>122.048002</ele>
        <time>2021-09-19T08:16:00.000Z</time>
      </trkpt>
      <trkpt lat="43.8274" lon="7.19043">
        <ele>121.958836</ele>
        <time>2021-09-19T08:16:02.000Z</time>
      </trkpt>
      <trkpt lat="43.82685" lon="7.19022">
        <ele>121.595361</ele>
        <time>2021-09-19T08:16:10.000Z</time>
      </trkpt>
      <trkpt lat="43.82665" lon="7.19015">
        <ele>121.461611</ele>
        <time>2021-09-19T08:16:13.000Z</time>
      </trkpt>
      <trkpt lat="43.82618" lon="7.18997">
        <ele>121.149527</ele>
        <time>2021-09-19T08:16:20.000Z</time>
      </trkpt>
      <trkpt lat="43.82562" lon="7.18979">
        <ele>120.752496</ele>
        <time>2021-09-19T08:16:28.000Z</time>
      </trkpt>
      <trkpt lat="43.82555" lon="7.18976">
        <ele>120.696222</ele>
        <time>2021-09-19T08:16:29.000Z</time>
      </trkpt>
      <trkpt lat="43.82501" lon="7.18955">
        <ele>120.266657</ele>
        <time>2021-09-19T08:16:37.000Z</time>
      </trkpt>
      <trkpt lat="43.82486" lon="7.18951">
        <ele>120.155455</ele>
        <time>2021-09-19T08:16:39.000Z</time>
      </trkpt>
      <trkpt lat="43.8243" lon="7.18931">
        <ele>119.711044</ele>
        <time>2021-09-19T08:16:47.000Z</time>
      </trkpt>
      <trkpt lat="43.82415" lon="7.18927">
        <ele>119.600103</ele>
        <time>2021-09-19T08:16:49.000Z</time>
      </trkpt>
      <trkpt lat="43.82357" lon="7.18907">
        <ele>119.103846</ele>
        <time>2021-09-19T08:16:57.000Z</time>
      </trkpt>
      <trkpt lat="43.82335" lon="7.18901">
        <ele>118.915517</ele>
        <time>2021-09-19T08:17:00.000Z</time>
      </trkpt>
      <trkpt lat="43.82276" lon="7.18885">
        <ele>118.420609</ele>
        <time>2021-09-19T08:17:08.000Z</time>
      </trkpt>
      <trkpt lat="43.8223" lon="7.18867">
        <ele>118.018761</ele>
        <time>2021-09-19T08:17:15.000Z</time>
      </trkpt>
      <trkpt lat="43.82183" lon="7.18858">
        <ele>117.633697</ele>
        <time>2021-09-19T08:17:21.000Z</time>
      </trkpt>
      <trkpt lat="43.82147" lon="7.18856">
        <ele>117.334583</ele>
        <time>2021-09-19T08:17:26.000Z</time>
      </trkpt>
      <trkpt lat="43.82102" lon="7.18852">
        <ele>116.973106</ele>
        <time>2021-09-19T08:17:32.000Z</time>
      </trkpt>
      <trkpt lat="43.82056" lon="7.18847">
        <ele>116.592172</ele>
        <time>2021-09-19T08:17:38.000Z</time>
      </trkpt>
      <trkpt lat="43.81998" lon="7.18831">
        <ele>116.149226</ele>
        <time>2021-09-19T08:17:46.000Z</time>
      </trkpt>
      <trkpt lat="43.81946" lon="7.18816">
        <ele>115.759868</ele>
        <time>2021-09-19T08:17:53.000Z</time>
      </trkpt>
      <trkpt lat="43.81902" lon="7.18805">
        <ele>115.426751</ele>
        <time>2021-09-19T08:17:59.000Z</time>
      </trkpt>
      <trkpt lat="43.81847" lon="7.18802">
        <ele>115.004142</ele>
        <time>2021-09-19T08:18:06.000Z</time>
      </trkpt>
      <trkpt lat="43.81789" lon="7.18804">
        <ele>114.548403</ele>
        <time>2021-09-19T08:18:13.000Z</time>
      </trkpt>
      <trkpt lat="43.81772" lon="7.18805">
        <ele>114.419389</ele>
        <time>2021-09-19T08:18:15.000Z</time>
      </trkpt>
      <trkpt lat="43.81717" lon="7.1881">
        <ele>113.985488</ele>
        <time>2021-09-19T08:18:22.000Z</time>
      </trkpt>
      <trkpt lat="43.81709" lon="7.18811">
        <ele>113.923386</ele>
        <time>2021-09-19T08:18:23.000Z</time>
      </trkpt>
      <trkpt lat="43.81652" lon="7.18821">
        <ele>113.465677</ele>
        <time>2021-09-19T08:18:30.000Z</time>
      </trkpt>
      <trkpt lat="43.81644" lon="7.18822">
        <ele>113.397922</ele>
        <time>2021-09-19T08:18:31.000Z</time>
      </trkpt>
      <trkpt lat="43.81588" lon="7.18833">
        <ele>112.939419</ele>
        <time>2021-09-19T08:18:38.000Z</time>
      </trkpt>
      <trkpt lat="43.81557" lon="7.1884">
        <ele>112.680914</ele>
        <time>2021-09-19T08:18:42.000Z</time>
      </trkpt>
      <trkpt lat="43.81502" lon="7.18857">
        <ele>112.208386</ele>
        <time>2021-09-19T08:18:49.000Z</time>
      </trkpt>
      <trkpt lat="43.81486" lon="7.18862">
        <ele>112.068053</ele>
        <time>2021-09-19T08:18:51.000Z</time>
      </trkpt>
      <trkpt lat="43.81432" lon="7.18881">
        <ele>111.574266</ele>
        <time>2021-09-19T08:18:58.000Z</time>
      </trkpt>
      <trkpt lat="43.81395" lon="7.18898">
        <ele>111.226822</ele>
        <time>2021-09-19T08:19:03.000Z</time>
      </trkpt>
      <trkpt lat="43.81344" lon="7.18922">
        <ele>110.744</ele>
        <time>2021-09-19T08:19:10.000Z</time>
      </trkpt>
      <trkpt lat="43.81308" lon="7.18939">
        <ele>110.39523</ele>
        <time>2021-09-19T08:19:15.000Z</time>
      </trkpt>
      <trkpt lat="43.81255" lon="7.18967">
        <ele>109.889562</ele>
        <time>2021-09-19T08:19:22.000Z</time>
      </trkpt>
      <trkpt lat="43.8124" lon="7.18976">
        <ele>109.743824</ele>
        <time>2021-09-19T08:19:24.000Z</time>
      </trkpt>
      <trkpt lat="43.81188" lon="7.19007">
        <ele>109.231983</ele>
        <time>2021-09-19T08:19:31.000Z</time>
      </trkpt>
      <trkpt lat="43.8116" lon="7.19028">
        <ele>108.992208</ele>
        <time>2021-09-19T08:19:35.000Z</time>
      </trkpt>
      <trkpt lat="43.81112" lon="7.19064">
        <ele>108.59528</ele>
        <time>2021-09-19T08:19:42.000Z</time>
      </trkpt>
      <trkpt lat="43.81077" lon="7.19091">
        <ele>108.314308</ele>
        <time>2021-09-19T08:19:47.000Z</time>
      </trkpt>
      <trkpt lat="43.81032" lon="7.19132">
        <ele>107.926835</ele>
        <time>2021-09-19T08:19:54.000Z</time>
      </trkpt>
      <trkpt lat="43.81026" lon="7.19139">
        <ele>107.870694</ele>
        <time>2021-09-19T08:19:55.000Z</time>
      </trkpt>
      <trkpt lat="43.80983" lon="7.19187">
        <ele>107.45039</ele>
        <time>2021-09-19T08:20:02.000Z</time>
      </trkpt>
      <trkpt lat="43.80958" lon="7.19214">
        <ele>107.207622</ele>
        <time>2021-09-19T08:20:06.000Z</time>
      </trkpt>
      <trkpt lat="43.80915" lon="7.19264">
        <ele>106.783419</ele>
        <time>2021-09-19T08:20:13.000Z</time>
      </trkpt>
      <trkpt lat="43.80878" lon="7.19307">
        <ele>106.410925</ele>
        <time>2021-09-19T08:20:19.000Z</time>
      </trkpt>
      <trkpt lat="43.80837" lon="7.19356">
        <ele>105.956726</ele>
        <time>2021-09-19T08:20:26.000Z</time>
      </trkpt>
      <trkpt lat="43.80807" lon="7.19391">
        <ele>105.632438</ele>
        <time>2021-09-19T08:20:31.000Z</time>
      </trkpt>
      <trkpt lat="43.80765" lon="7.1944">
        <ele>105.178126</ele>
        <time>2021-09-19T08:20:38.000Z</time>
      </trkpt>
      <trkpt lat="43.80722" lon="7.19489">
        <ele>104.690507</ele>
        <time>2021-09-19T08:20:45.000Z</time>
      </trkpt>
      <trkpt lat="43.8068" lon="7.19538">
        <ele>104.192587</ele>
        <time>2021-09-19T08:20:52.000Z</time>
      </trkpt>
      <trkpt lat="43.80638" lon="7.19587">
        <ele>103.695778</ele>
        <time>2021-09-19T08:20:59.000Z</time>
      </trkpt>
      <trkpt lat="43.80596" lon="7.19636">
        <ele>103.187335</ele>
        <time>2021-09-19T08:21:06.000Z</time>
      </trkpt>
      <trkpt lat="43.80583" lon="7.1965">
        <ele>103.036687</ele>
        <time>2021-09-19T08:21:08.000Z</time>
      </trkpt>
      <trkpt lat="43.80542" lon="7.19698">
        <ele>102.519973</ele>
        <time>2021-09-19T08:21:15.000Z</time>
      </trkpt>
      <trkpt lat="43.8053" lon="7.19712">
        <ele>102.376067</ele>
        <time>2021-09-19T08:21:17.000Z</time>
      </trkpt>
      <trkpt lat="43.80485" lon="7.19764">
        <ele>101.816853</ele>
        <time>2021-09-19T08:21:25.000Z</time>
      </trkpt>
      <trkpt lat="43.80474" lon="7.19776">
        <ele>101.682154</ele>
        <time>2021-09-19T08:21:27.000Z</time>
      </trkpt>
      <trkpt lat="43.80431" lon="7.19827">
        <ele>101.305551</ele>
        <time>2021-09-19T08:21:35.000Z</time>
      </trkpt>
      <trkpt lat="43.80415" lon="7.19846">
        <ele>101.165627</ele>
        <time>2021-09-19T08:21:38.000Z</time>
      </trkpt>
      <trkpt lat="43.80372" lon="7.19895">
        <ele>100.79586</ele>
        <time>2021-09-19T08:21:46.000Z</time>
      </trkpt>
      <trkpt lat="43.80361" lon="7.19908">
        <ele>100.704107</ele>
        <time>2021-09-19T08:21:48.000Z</time>
      </trkpt>
      <trkpt lat="43.80318" lon="7.19958">
        <ele>100.360176</ele>
        <time>2021-09-19T08:21:56.000Z</time>
      </trkpt>
      <trkpt lat="43.80302" lon="7.19977">
        <ele>100.246816</ele>
        <time>2021-09-19T08:21:59.000Z</time>
      </trkpt>
      <trkpt lat="43.80259" lon="7.20026">
        <ele>99.947245</ele>
        <time>2021-09-19T08:22:07.000Z</time>
      </trkpt>
      <trkpt lat="43.80254" lon="7.20033">
        <ele>99.908964</ele>
        <time>2021-09-19T08:22:08.000Z</time>
      </trkpt>
      <trkpt lat="43.8021" lon="7.20083">
        <ele>99.602296</ele>
        <time>2021-09-19T08:22:16.000Z</time>
      </trkpt>
      <trkpt lat="43.80193" lon="7.20103">
        <ele>99.48232</ele>
        <time>2021-09-19T08:22:19.000Z</time>
      </trkpt>
      <trkpt lat="43.80149" lon="7.20154">
        <ele>99.138548</ele>
        <time>2021-09-19T08:22:27.000Z</time>
      </trkpt>
      <trkpt lat="43.80133" lon="7.20173">
        <ele>99.011172</ele>
        <time>2021-09-19T08:22:30.000Z</time>
      </trkpt>
      <trkpt lat="43.80091" lon="7.20221">
        <ele>98.684593</ele>
        <time>2021-09-19T08:22:38.000Z</time>
      </trkpt>
      <trkpt lat="43.80086" lon="7.20227">
        <ele>98.64532</ele>
        <time>2021-09-19T08:22:39.000Z</time>
      </trkpt>
      <trkpt lat="43.80045" lon="7.20276">
        <ele>98.299138</ele>
        <time>2021-09-19T08:22:47.000Z</time>
      </trkpt>
      <trkpt lat="43.8004" lon="7.20281">
        <ele>98.254441</ele>
        <time>2021-09-19T08:22:48.000Z</time>
      </trkpt>
      <trkpt lat="43.80007" lon="7.20324">
        <ele>97.937272</ele>
        <time>2021-09-19T08:22:55.000Z</time>
      </trkpt>
      <trkpt lat="43.79976" lon="7.2037">
        <ele>97.617229</ele>
        <time>2021-09-19T08:23:02.000Z</time>
      </trkpt>
      <trkpt lat="43.79971" lon="7.20374">
        <ele>97.572766</ele>
        <time>2021-09-19T08:23:03.000Z</time>
      </trkpt>
      <trkpt lat="43.79966" lon="7.20379">
        <ele>97.527431</ele>
        <time>2021-09-19T08:23:04.000Z</time>
      </trkpt>
      <trkpt lat="43.79948" lon="7.20387">
        <ele>97.394387</ele>
        <time>2021-09-19T08:23:07.000Z</time>
      </trkpt>
      <trkpt lat="43.79941" lon="7.20405">
        <ele>97.290704</ele>
        <time>2021-09-19T08:23:09.000Z</time>
      </trkpt>
      <trkpt lat="43.79931" lon="7.20418">
        <ele>97.196204</ele>
        <time>2021-09-19T08:23:11.000Z</time>
      </trkpt>
      <trkpt lat="43.79922" lon="7.2043">
        <ele>97.097507</ele>
        <time>2021-09-19T08:23:13.000Z</time>
      </trkpt>
      <trkpt lat="43.79911" lon="7.2044">
        <ele>96.994585</ele>
        <time>2021-09-19T08:23:15.000Z</time>
      </trkpt>
      <trkpt lat="43.79865" lon="7.20484">
        <ele>96.561618</ele>
        <time>2021-09-19T08:23:23.000Z</time>
      </trkpt>
      <trkpt lat="43.79823" lon="7.20533">
        <ele>96.12616</ele>
        <time>2021-09-19T08:23:31.000Z</time>
      </trkpt>
      <trkpt lat="43.79812" lon="7.20545">
        <ele>96.018593</ele>
        <time>2021-09-19T08:23:33.000Z</time>
      </trkpt>
      <trkpt lat="43.7977" lon="7.20595">
        <ele>95.582225</ele>
        <time>2021-09-19T08:23:41.000Z</time>
      </trkpt>
      <trkpt lat="43.79754" lon="7.20613">
        <ele>95.419463</ele>
        <time>2021-09-19T08:23:44.000Z</time>
      </trkpt>
      <trkpt lat="43.79708" lon="7.20667">
        <ele>94.947186</ele>
        <time>2021-09-19T08:23:53.000Z</time>
      </trkpt>
      <trkpt lat="43.79698" lon="7.20679">
        <ele>94.845176</ele>
        <time>2021-09-19T08:23:55.000Z</time>
      </trkpt>
      <trkpt lat="43.79653" lon="7.20731">
        <ele>94.386129</ele>
        <time>2021-09-19T08:24:04.000Z</time>
      </trkpt>
      <trkpt lat="43.79607" lon="7.20784">
        <ele>93.879492</ele>
        <time>2021-09-19T08:24:13.000Z</time>
      </trkpt>
      <trkpt lat="43.79592" lon="7.20801">
        <ele>93.714205</ele>
        <time>2021-09-19T08:24:16.000Z</time>
      </trkpt>
      <trkpt lat="43.79547" lon="7.20854">
        <ele>93.209294</ele>
        <time>2021-09-19T08:24:25.000Z</time>
      </trkpt>
      <trkpt lat="43.79537" lon="7.20866">
        <ele>93.096917</ele>
        <time>2021-09-19T08:24:27.000Z</time>
      </trkpt>
      <trkpt lat="43.79491" lon="7.20918">
        <ele>92.599339</ele>
        <time>2021-09-19T08:24:36.000Z</time>
      </trkpt>
      <trkpt lat="43.79486" lon="7.20924">
        <ele>92.546781</ele>
        <time>2021-09-19T08:24:37.000Z</time>
      </trkpt>
      <trkpt lat="43.79441" lon="7.20977">
        <ele>92.056451</ele>
        <time>2021-09-19T08:24:46.000Z</time>
      </trkpt>
      <trkpt lat="43.79425" lon="7.20995">
        <ele>91.892715</ele>
        <time>2021-09-19T08:24:49.000Z</time>
      </trkpt>
      <trkpt lat="43.7938" lon="7.21048">
        <ele>91.401372</ele>
        <time>2021-09-19T08:24:58.000Z</time>
      </trkpt>
      <trkpt lat="43.79369" lon="7.21061">
        <ele>91.293026</ele>
        <time>2021-09-19T08:25:00.000Z</time>
      </trkpt>
      <trkpt lat="43.79327" lon="7.21109">
        <ele>90.872137</ele>
        <time>2021-09-19T08:25:08.000Z</time>
      </trkpt>
      <trkpt lat="43.79312" lon="7.21127">
        <ele>90.715547</ele>
        <time>2021-09-19T08:25:11.000Z</time>
      </trkpt>
      <trkpt lat="43.79266" lon="7.21181">
        <ele>90.252045</ele>
        <time>2021-09-19T08:25:20.000Z</time>
      </trkpt>
      <trkpt lat="43.79251" lon="7.21198">
        <ele>90.10433</ele>
        <time>2021-09-19T08:25:23.000Z</time>
      </trkpt>
      <trkpt lat="43.79207" lon="7.21249">
        <ele>89.704047</ele>
        <time>2021-09-19T08:25:32.000Z</time>
      </trkpt>
      <trkpt lat="43.79183" lon="7.21277">
        <ele>89.490784</ele>
        <time>2021-09-19T08:25:37.000Z</time>
      </trkpt>
      <trkpt lat="43.79143" lon="7.21331">
        <ele>89.11875</ele>
        <time>2021-09-19T08:25:46.000Z</time>
      </trkpt>
      <trkpt lat="43.79104" lon="7.2138">
        <ele>88.766431</ele>
        <time>2021-09-19T08:25:55.000Z</time>
      </trkpt>
      <trkpt lat="43.79092" lon="7.21383">
        <ele>88.688663</ele>
        <time>2021-09-19T08:25:57.000Z</time>
      </trkpt>
      <trkpt lat="43.79082" lon="7.21395">
        <ele>88.608152</ele>
        <time>2021-09-19T08:25:59.000Z</time>
      </trkpt>
      <trkpt lat="43.7907" lon="7.21416">
        <ele>88.490498</ele>
        <time>2021-09-19T08:26:02.000Z</time>
      </trkpt>
      <trkpt lat="43.79055" lon="7.2143">
        <ele>88.376871</ele>
        <time>2021-09-19T08:26:05.000Z</time>
      </trkpt>
      <trkpt lat="43.79007" lon="7.21472">
        <ele>88.027246</ele>
        <time>2021-09-19T08:26:14.000Z</time>
      </trkpt>
      <trkpt lat="43.78991" lon="7.21487">
        <ele>87.907345</ele>
        <time>2021-09-19T08:26:17.000Z</time>
      </trkpt>
      <trkpt lat="43.78938" lon="7.21526">
        <ele>87.499263</ele>
        <time>2021-09-19T08:26:26.000Z</time>
      </trkpt>
      <trkpt lat="43.78884" lon="7.21564">
        <ele>87.00397</ele>
        <time>2021-09-19T08:26:35.000Z</time>
      </trkpt>
      <trkpt lat="43.78835" lon="7.21596">
        <ele>86.560012</ele>
        <time>2021-09-19T08:26:43.000Z</time>
      </trkpt>
      <trkpt lat="43.78816" lon="7.21607">
        <ele>86.39181</ele>
        <time>2021-09-19T08:26:46.000Z</time>
      </trkpt>
      <trkpt lat="43.78766" lon="7.21635">
        <ele>85.94327</ele>
        <time>2021-09-19T08:26:54.000Z</time>
      </trkpt>
      <trkpt lat="43.78753" lon="7.21642">
        <ele>85.827223</ele>
        <time>2021-09-19T08:26:56.000Z</time>
      </trkpt>
      <trkpt lat="43.78696" lon="7.21669">
        <ele>85.321925</ele>
        <time>2021-09-19T08:27:05.000Z</time>
      </trkpt>
      <trkpt lat="43.7869" lon="7.21672">
        <ele>85.265486</ele>
        <time>2021-09-19T08:27:06.000Z</time>
      </trkpt>
      <trkpt lat="43.78632" lon="7.21698">
        <ele>84.761711</ele>
        <time>2021-09-19T08:27:15.000Z</time>
      </trkpt>
      <trkpt lat="43.78579" lon="7.21717">
        <ele>84.284574</ele>
        <time>2021-09-19T08:27:23.000Z</time>
      </trkpt>
      <trkpt lat="43.78559" lon="7.21723">
        <ele>84.105445</ele>
        <time>2021-09-19T08:27:26.000Z</time>
      </trkpt>
      <trkpt lat="43.78504" lon="7.21741">
        <ele>83.618935</ele>
        <time>2021-09-19T08:27:34.000Z</time>
      </trkpt>
      <trkpt lat="43.78449" lon="7.21757">
        <ele>83.132179</ele>
        <time>2021-09-19T08:27:42.000Z</time>
      </trkpt>
      <trkpt lat="43.78428" lon="7.21761">
        <ele>82.918278</ele>
        <time>2021-09-19T08:27:45.000Z</time>
      </trkpt>
      <trkpt lat="43.78373" lon="7.21773">
        <ele>82.346701</ele>
        <time>2021-09-19T08:27:53.000Z</time>
      </trkpt>
      <trkpt lat="43.78347" lon="7.21778">
        <ele>82.067254</ele>
        <time>2021-09-19T08:27:57.000Z</time>
      </trkpt>
      <trkpt lat="43.78287" lon="7.21784">
        <ele>81.453747</ele>
        <time>2021-09-19T08:28:06.000Z</time>
      </trkpt>
      <trkpt lat="43.78281" lon="7.21785">
        <ele>81.38454</ele>
        <time>2021-09-19T08:28:07.000Z</time>
      </trkpt>
      <trkpt lat="43.78229" lon="7.21788">
        <ele>80.907548</ele>
        <time>2021-09-19T08:28:15.000Z</time>
      </trkpt>
      <trkpt lat="43.7817" lon="7.21791">
        <ele>80.386667</ele>
        <time>2021-09-19T08:28:24.000Z</time>
      </trkpt>
      <trkpt lat="43.78157" lon="7.21791">
        <ele>80.270485</ele>
        <time>2021-09-19T08:28:26.000Z</time>
      </trkpt>
      <trkpt lat="43.78099" lon="7.21789">
        <ele>79.756054</ele>
        <time>2021-09-19T08:28:35.000Z</time>
      </trkpt>
      <trkpt lat="43.7808" lon="7.21788">
        <ele>79.589751</ele>
        <time>2021-09-19T08:28:38.000Z</time>
      </trkpt>
      <trkpt lat="43.78023" lon="7.21783">
        <ele>79.130689</ele>
        <time>2021-09-19T08:28:47.000Z</time>
      </trkpt>
      <trkpt lat="43.78004" lon="7.21781">
        <ele>78.973301</ele>
        <time>2021-09-19T08:28:50.000Z</time>
      </trkpt>
      <trkpt lat="43.77946" lon="7.21772">
        <ele>78.499464</ele>
        <time>2021-09-19T08:28:59.000Z</time>
      </trkpt>
      <trkpt lat="43.7792" lon="7.21766">
        <ele>78.287171</ele>
        <time>2021-09-19T08:29:03.000Z</time>
      </trkpt>
      <trkpt lat="43.77869" lon="7.21755">
        <ele>77.94933</ele>
        <time>2021-09-19T08:29:11.000Z</time>
      </trkpt>
      <trkpt lat="43.77812" lon="7.21738">
        <ele>77.587285</ele>
        <time>2021-09-19T08:29:20.000Z</time>
      </trkpt>
      <trkpt lat="43.77753" lon="7.21719">
        <ele>77.220127</ele>
        <time>2021-09-19T08:29:29.000Z</time>
      </trkpt>
      <trkpt lat="43.77696" lon="7.21698">
        <ele>76.901278</ele>
        <time>2021-09-19T08:29:38.000Z</time>
      </trkpt>
      <trkpt lat="43.77683" lon="7.21692">
        <ele>76.834479</ele>
        <time>2021-09-19T08:29:40.000Z</time>
      </trkpt>
      <trkpt lat="43.77631" lon="7.2167">
        <ele>76.557633</ele>
        <time>2021-09-19T08:29:48.000Z</time>
      </trkpt>
      <trkpt lat="43.77618" lon="7.21663">
        <ele>76.488371</ele>
        <time>2021-09-19T08:29:50.000Z</time>
      </trkpt>
      <trkpt lat="43.77566" lon="7.21637">
        <ele>76.21103</ele>
        <time>2021-09-19T08:29:58.000Z</time>
      </trkpt>
      <trkpt lat="43.77514" lon="7.21608">
        <ele>76.050004</ele>
        <time>2021-09-19T08:30:06.000Z</time>
      </trkpt>
      <trkpt lat="43.77494" lon="7.21596">
        <ele>75.992086</ele>
        <time>2021-09-19T08:30:09.000Z</time>
      </trkpt>
      <trkpt lat="43.77444" lon="7.21566">
        <ele>75.844134</ele>
        <time>2021-09-19T08:30:17.000Z</time>
      </trkpt>
      <trkpt lat="43.77395" lon="7.2153">
        <ele>75.695736</ele>
        <time>2021-09-19T08:30:25.000Z</time>
      </trkpt>
      <trkpt lat="43.77383" lon="7.2152">
        <ele>75.663295</ele>
        <time>2021-09-19T08:30:27.000Z</time>
      </trkpt>
      <trkpt lat="43.77335" lon="7.21482">
        <ele>75.533331</ele>
        <time>2021-09-19T08:30:35.000Z</time>
      </trkpt>
      <trkpt lat="43.77305" lon="7.21459">
        <ele>75.451183</ele>
        <time>2021-09-19T08:30:40.000Z</time>
      </trkpt>
      <trkpt lat="43.77256" lon="7.21419">
        <ele>75.31769</ele>
        <time>2021-09-19T08:30:48.000Z</time>
      </trkpt>
      <trkpt lat="43.77232" lon="7.21398">
        <ele>75.253191</ele>
        <time>2021-09-19T08:30:52.000Z</time>
      </trkpt>
      <trkpt lat="43.77189" lon="7.21367">
        <ele>75.146603</ele>
        <time>2021-09-19T08:30:59.000Z</time>
      </trkpt>
      <trkpt lat="43.77165" lon="7.21347">
        <ele>75.084346</ele>
        <time>2021-09-19T08:31:03.000Z</time>
      </trkpt>
      <trkpt lat="43.7716" lon="7.2134">
        <ele>75.067785</ele>
        <time>2021-09-19T08:31:04.000Z</time>
      </trkpt>
      <trkpt lat="43.77144" lon="7.21319">
        <ele>75.019988</ele>
        <time>2021-09-19T08:31:07.000Z</time>
      </trkpt>
      <trkpt lat="43.77139" lon="7.21312">
        <ele>75.004613</ele>
        <time>2021-09-19T08:31:08.000Z</time>
      </trkpt>
      <trkpt lat="43.7711" lon="7.21282">
        <ele>74.92469</ele>
        <time>2021-09-19T08:31:13.000Z</time>
      </trkpt>
      <trkpt lat="43.77064" lon="7.21233">
        <ele>74.690065</ele>
        <time>2021-09-19T08:31:21.000Z</time>
      </trkpt>
      <trkpt lat="43.77029" lon="7.21196">
        <ele>74.479825</ele>
        <time>2021-09-19T08:31:27.000Z</time>
      </trkpt>
      <trkpt lat="43.76983" lon="7.21149">
        <ele>74.20378</ele>
        <time>2021-09-19T08:31:35.000Z</time>
      </trkpt>
      <trkpt lat="43.76961" lon="7.21125">
        <ele>74.068455</ele>
        <time>2021-09-19T08:31:39.000Z</time>
      </trkpt>
      <trkpt lat="43.76915" lon="7.21078">
        <ele>73.690013</ele>
        <time>2021-09-19T08:31:47.000Z</time>
      </trkpt>
      <trkpt lat="43.76909" lon="7.21072">
        <ele>73.640465</ele>
        <time>2021-09-19T08:31:48.000Z</time>
      </trkpt>
      <trkpt lat="43.76865" lon="7.21026">
        <ele>73.248218</ele>
        <time>2021-09-19T08:31:56.000Z</time>
      </trkpt>
      <trkpt lat="43.76849" lon="7.21009">
        <ele>73.105397</ele>
        <time>2021-09-19T08:31:59.000Z</time>
      </trkpt>
      <trkpt lat="43.76812" lon="7.20969">
        <ele>72.776231</ele>
        <time>2021-09-19T08:32:06.000Z</time>
      </trkpt>
      <trkpt lat="43.76764" lon="7.20919">
        <ele>72.408213</ele>
        <time>2021-09-19T08:32:15.000Z</time>
      </trkpt>
      <trkpt lat="43.76749" lon="7.20902">
        <ele>72.288338</ele>
        <time>2021-09-19T08:32:18.000Z</time>
      </trkpt>
      <trkpt lat="43.76704" lon="7.20849">
        <ele>71.928663</ele>
        <time>2021-09-19T08:32:27.000Z</time>
      </trkpt>
      <trkpt lat="43.76699" lon="7.20843">
        <ele>71.889117</ele>
        <time>2021-09-19T08:32:28.000Z</time>
      </trkpt>
      <trkpt lat="43.76663" lon="7.20802">
        <ele>71.588045</ele>
        <time>2021-09-19T08:32:35.000Z</time>
      </trkpt>
      <trkpt lat="43.76619" lon="7.20755">
        <ele>71.158015</ele>
        <time>2021-09-19T08:32:43.000Z</time>
      </trkpt>
      <trkpt lat="43.76613" lon="7.20749">
        <ele>71.102148</ele>
        <time>2021-09-19T08:32:44.000Z</time>
      </trkpt>
      <trkpt lat="43.76571" lon="7.20704">
        <ele>70.684623</ele>
        <time>2021-09-19T08:32:52.000Z</time>
      </trkpt>
      <trkpt lat="43.76532" lon="7.20663">
        <ele>70.303789</ele>
        <time>2021-09-19T08:33:00.000Z</time>
      </trkpt>
      <trkpt lat="43.76491" lon="7.20614">
        <ele>69.950616</ele>
        <time>2021-09-19T08:33:09.000Z</time>
      </trkpt>
      <trkpt lat="43.76456" lon="7.20562">
        <ele>69.622463</ele>
        <time>2021-09-19T08:33:17.000Z</time>
      </trkpt>
      <trkpt lat="43.76419" lon="7.20526">
        <ele>69.336263</ele>
        <time>2021-09-19T08:33:25.000Z</time>
      </trkpt>
      <trkpt lat="43.76414" lon="7.20522">
        <ele>69.303595</ele>
        <time>2021-09-19T08:33:28.000Z</time>
      </trkpt>
      <trkpt lat="43.7641" lon="7.20519">
        <ele>69.2735</ele>
        <time>2021-09-19T08:33:31.000Z</time>
      </trkpt>
      <trkpt lat="43.76409" lon="7.20515">
        <ele>69.256673</ele>
        <time>2021-09-19T08:33:33.000Z</time>
      </trkpt>
      <trkpt lat="43.76399" lon="7.20504">
        <ele>69.175337</ele>
        <time>2021-09-19T08:33:37.000Z</time>
      </trkpt>
      <trkpt lat="43.76379" lon="7.20485">
        <ele>68.999245</ele>
        <time>2021-09-19T08:33:42.000Z</time>
      </trkpt>
      <trkpt lat="43.76345" lon="7.20451">
        <ele>68.676848</ele>
        <time>2021-09-19T08:33:49.000Z</time>
      </trkpt>
      <trkpt lat="43.76303" lon="7.20409">
        <ele>68.273303</ele>
        <time>2021-09-19T08:33:57.000Z</time>
      </trkpt>
      <trkpt lat="43.76258" lon="7.20365">
        <ele>67.846498</ele>
        <time>2021-09-19T08:34:05.000Z</time>
      </trkpt>
      <trkpt lat="43.76253" lon="7.20359">
        <ele>67.793895</ele>
        <time>2021-09-19T08:34:06.000Z</time>
      </trkpt>
      <trkpt lat="43.76207" lon="7.20312">
        <ele>67.356026</ele>
        <time>2021-09-19T08:34:14.000Z</time>
      </trkpt>
      <trkpt lat="43.76184" lon="7.20288">
        <ele>67.130989</ele>
        <time>2021-09-19T08:34:18.000Z</time>
      </trkpt>
      <trkpt lat="43.7614" lon="7.20242">
        <ele>66.702529</ele>
        <time>2021-09-19T08:34:26.000Z</time>
      </trkpt>
      <trkpt lat="43.76134" lon="7.20236">
        <ele>66.648417</ele>
        <time>2021-09-19T08:34:27.000Z</time>
      </trkpt>
      <trkpt lat="43.76095" lon="7.20195">
        <ele>66.271935</ele>
        <time>2021-09-19T08:34:34.000Z</time>
      </trkpt>
      <trkpt lat="43.76048" lon="7.20146">
        <ele>65.83614</ele>
        <time>2021-09-19T08:34:42.000Z</time>
      </trkpt>
      <trkpt lat="43.76036" lon="7.20133">
        <ele>65.724682</ele>
        <time>2021-09-19T08:34:44.000Z</time>
      </trkpt>
      <trkpt lat="43.75988" lon="7.20085">
        <ele>65.288065</ele>
        <time>2021-09-19T08:34:52.000Z</time>
      </trkpt>
      <trkpt lat="43.75942" lon="7.20039">
        <ele>64.890624</ele>
        <time>2021-09-19T08:35:00.000Z</time>
      </trkpt>
      <trkpt lat="43.75936" lon="7.20033">
        <ele>64.848313</ele>
        <time>2021-09-19T08:35:01.000Z</time>
      </trkpt>
      <trkpt lat="43.75891" lon="7.19988">
        <ele>64.49883</ele>
        <time>2021-09-19T08:35:09.000Z</time>
      </trkpt>
      <trkpt lat="43.75885" lon="7.19983">
        <ele>64.454211</ele>
        <time>2021-09-19T08:35:10.000Z</time>
      </trkpt>
      <trkpt lat="43.75839" lon="7.19937">
        <ele>64.100618</ele>
        <time>2021-09-19T08:35:18.000Z</time>
      </trkpt>
      <trkpt lat="43.75828" lon="7.19926">
        <ele>64.014457</ele>
        <time>2021-09-19T08:35:20.000Z</time>
      </trkpt>
      <trkpt lat="43.75781" lon="7.1988">
        <ele>63.703769</ele>
        <time>2021-09-19T08:35:28.000Z</time>
      </trkpt>
      <trkpt lat="43.7577" lon="7.19868">
        <ele>63.633094</ele>
        <time>2021-09-19T08:35:30.000Z</time>
      </trkpt>
      <trkpt lat="43.75723" lon="7.19826">
        <ele>63.353248</ele>
        <time>2021-09-19T08:35:38.000Z</time>
      </trkpt>
      <trkpt lat="43.75711" lon="7.19816">
        <ele>63.282336</ele>
        <time>2021-09-19T08:35:40.000Z</time>
      </trkpt>
      <trkpt lat="43.75669" lon="7.19786">
        <ele>63.045831</ele>
        <time>2021-09-19T08:35:47.000Z</time>
      </trkpt>
      <trkpt lat="43.75663" lon="7.19782">
        <ele>63.015379</ele>
        <time>2021-09-19T08:35:48.000Z</time>
      </trkpt>
      <trkpt lat="43.7565" lon="7.19763">
        <ele>62.899108</ele>
        <time>2021-09-19T08:35:51.000Z</time>
      </trkpt>
      <trkpt lat="43.75639" lon="7.19755">
        <ele>62.809212</ele>
        <time>2021-09-19T08:35:53.000Z</time>
      </trkpt>
      <trkpt lat="43.75626" lon="7.19747">
        <ele>62.713148</ele>
        <time>2021-09-19T08:35:55.000Z</time>
      </trkpt>
      <trkpt lat="43.75606" lon="7.1972">
        <ele>62.520248</ele>
        <time>2021-09-19T08:35:59.000Z</time>
      </trkpt>
      <trkpt lat="43.75574" lon="7.19682">
        <ele>62.226947</ele>
        <time>2021-09-19T08:36:05.000Z</time>
      </trkpt>
      <trkpt lat="43.75529" lon="7.19635">
        <ele>61.83642</ele>
        <time>2021-09-19T08:36:13.000Z</time>
      </trkpt>
      <trkpt lat="43.75517" lon="7.19623">
        <ele>61.739715</ele>
        <time>2021-09-19T08:36:15.000Z</time>
      </trkpt>
      <trkpt lat="43.75473" lon="7.19577">
        <ele>61.283854</ele>
        <time>2021-09-19T08:36:23.000Z</time>
      </trkpt>
      <trkpt lat="43.75468" lon="7.19572">
        <ele>61.228087</ele>
        <time>2021-09-19T08:36:24.000Z</time>
      </trkpt>
      <trkpt lat="43.75424" lon="7.19526">
        <ele>60.770379</ele>
        <time>2021-09-19T08:36:32.000Z</time>
      </trkpt>
      <trkpt lat="43.75418" lon="7.1952">
        <ele>60.711554</ele>
        <time>2021-09-19T08:36:33.000Z</time>
      </trkpt>
      <trkpt lat="43.75373" lon="7.19473">
        <ele>60.242478</ele>
        <time>2021-09-19T08:36:41.000Z</time>
      </trkpt>
      <trkpt lat="43.75356" lon="7.19455">
        <ele>60.027732</ele>
        <time>2021-09-19T08:36:44.000Z</time>
      </trkpt>
      <trkpt lat="43.75309" lon="7.19407">
        <ele>59.439693</ele>
        <time>2021-09-19T08:36:52.000Z</time>
      </trkpt>
      <trkpt lat="43.75303" lon="7.19401">
        <ele>59.365048</ele>
        <time>2021-09-19T08:36:53.000Z</time>
      </trkpt>
      <trkpt lat="43.75258" lon="7.19354">
        <ele>58.786198</ele>
        <time>2021-09-19T08:37:01.000Z</time>
      </trkpt>
      <trkpt lat="43.75252" lon="7.19348">
        <ele>58.712803</ele>
        <time>2021-09-19T08:37:02.000Z</time>
      </trkpt>
      <trkpt lat="43.75207" lon="7.19301">
        <ele>58.160869</ele>
        <time>2021-09-19T08:37:10.000Z</time>
      </trkpt>
      <trkpt lat="43.75201" lon="7.19295">
        <ele>58.093935</ele>
        <time>2021-09-19T08:37:11.000Z</time>
      </trkpt>
      <trkpt lat="43.75158" lon="7.1925">
        <ele>57.576171</ele>
        <time>2021-09-19T08:37:19.000Z</time>
      </trkpt>
      <trkpt lat="43.75147" lon="7.19239">
        <ele>57.448205</ele>
        <time>2021-09-19T08:37:21.000Z</time>
      </trkpt>
      <trkpt lat="43.751" lon="7.1919">
        <ele>56.87649</ele>
        <time>2021-09-19T08:37:30.000Z</time>
      </trkpt>
      <trkpt lat="43.75084" lon="7.19173">
        <ele>56.693543</ele>
        <time>2021-09-19T08:37:33.000Z</time>
      </trkpt>
      <trkpt lat="43.75039" lon="7.19126">
        <ele>56.320406</ele>
        <time>2021-09-19T08:37:42.000Z</time>
      </trkpt>
      <trkpt lat="43.74995" lon="7.19079">
        <ele>55.956924</ele>
        <time>2021-09-19T08:37:51.000Z</time>
      </trkpt>
      <trkpt lat="43.7499" lon="7.19074">
        <ele>55.916125</ele>
        <time>2021-09-19T08:37:52.000Z</time>
      </trkpt>
      <trkpt lat="43.74945" lon="7.19027">
        <ele>55.550216</ele>
        <time>2021-09-19T08:38:01.000Z</time>
      </trkpt>
      <trkpt lat="43.74905" lon="7.18988">
        <ele>55.230444</ele>
        <time>2021-09-19T08:38:09.000Z</time>
      </trkpt>
      <trkpt lat="43.74861" lon="7.18944">
        <ele>54.87272</ele>
        <time>2021-09-19T08:38:18.000Z</time>
      </trkpt>
      <trkpt lat="43.74856" lon="7.18939">
        <ele>54.830977</ele>
        <time>2021-09-19T08:38:19.000Z</time>
      </trkpt>
      <trkpt lat="43.74807" lon="7.18897">
        <ele>54.456263</ele>
        <time>2021-09-19T08:38:28.000Z</time>
      </trkpt>
      <trkpt lat="43.74791" lon="7.18886">
        <ele>54.344107</ele>
        <time>2021-09-19T08:38:31.000Z</time>
      </trkpt>
      <trkpt lat="43.74782" lon="7.18874">
        <ele>54.319961</ele>
        <time>2021-09-19T08:38:33.000Z</time>
      </trkpt>
      <trkpt lat="43.74775" lon="7.18861">
        <ele>54.297308</ele>
        <time>2021-09-19T08:38:35.000Z</time>
      </trkpt>
      <trkpt lat="43.74763" lon="7.18856">
        <ele>54.273507</ele>
        <time>2021-09-19T08:38:37.000Z</time>
      </trkpt>
      <trkpt lat="43.74753" lon="7.18848">
        <ele>54.249258</ele>
        <time>2021-09-19T08:38:39.000Z</time>
      </trkpt>
      <trkpt lat="43.74747" lon="7.18842">
        <ele>54.236623</ele>
        <time>2021-09-19T08:38:40.000Z</time>
      </trkpt>
      <trkpt lat="43.74704" lon="7.18791">
        <ele>54.125908</ele>
        <time>2021-09-19T08:38:49.000Z</time>
      </trkpt>
      <trkpt lat="43.74659" lon="7.18753">
        <ele>54.024368</ele>
        <time>2021-09-19T08:38:57.000Z</time>
      </trkpt>
      <trkpt lat="43.74612" lon="7.18715">
        <ele>53.879493</ele>
        <time>2021-09-19T08:39:05.000Z</time>
      </trkpt>
      <trkpt lat="43.74594" lon="7.18701">
        <ele>53.819277</ele>
        <time>2021-09-19T08:39:08.000Z</time>
      </trkpt>
      <trkpt lat="43.74545" lon="7.18666">
        <ele>53.659469</ele>
        <time>2021-09-19T08:39:16.000Z</time>
      </trkpt>
      <trkpt lat="43.74533" lon="7.18658">
        <ele>53.619936</ele>
        <time>2021-09-19T08:39:18.000Z</time>
      </trkpt>
      <trkpt lat="43.74479" lon="7.18623">
        <ele>53.411953</ele>
        <time>2021-09-19T08:39:27.000Z</time>
      </trkpt>
      <trkpt lat="43.74466" lon="7.18616">
        <ele>53.327098</ele>
        <time>2021-09-19T08:39:29.000Z</time>
      </trkpt>
      <trkpt lat="43.74416" lon="7.18586">
        <ele>52.986585</ele>
        <time>2021-09-19T08:39:37.000Z</time>
      </trkpt>
      <trkpt lat="43.74365" lon="7.18559">
        <ele>52.647665</ele>
        <time>2021-09-19T08:39:45.000Z</time>
      </trkpt>
      <trkpt lat="43.74346" lon="7.1855">
        <ele>52.52211</ele>
        <time>2021-09-19T08:39:48.000Z</time>
      </trkpt>
      <trkpt lat="43.74308" lon="7.18531">
        <ele>52.284495</ele>
        <time>2021-09-19T08:39:54.000Z</time>
      </trkpt>
      <trkpt lat="43.74255" lon="7.18508">
        <ele>51.996908</ele>
        <time>2021-09-19T08:40:02.000Z</time>
      </trkpt>
      <trkpt lat="43.74235" lon="7.185">
        <ele>51.887522</ele>
        <time>2021-09-19T08:40:05.000Z</time>
      </trkpt>
      <trkpt lat="43.7418" lon="7.18479">
        <ele>51.594908</ele>
        <time>2021-09-19T08:40:13.000Z</time>
      </trkpt>
      <trkpt lat="43.7416" lon="7.18472">
        <ele>51.486589</ele>
        <time>2021-09-19T08:40:16.000Z</time>
      </trkpt>
      <trkpt lat="43.74107" lon="7.18456">
        <ele>51.203036</ele>
        <time>2021-09-19T08:40:24.000Z</time>
      </trkpt>
      <trkpt lat="43.74047" lon="7.18439">
        <ele>50.885862</ele>
        <time>2021-09-19T08:40:33.000Z</time>
      </trkpt>
      <trkpt lat="43.73988" lon="7.18425">
        <ele>50.571156</ele>
        <time>2021-09-19T08:40:42.000Z</time>
      </trkpt>
      <trkpt lat="43.73928" lon="7.18415">
        <ele>50.382083</ele>
        <time>2021-09-19T08:40:51.000Z</time>
      </trkpt>
      <trkpt lat="43.73922" lon="7.18414">
        <ele>50.36624</ele>
        <time>2021-09-19T08:40:52.000Z</time>
      </trkpt>
      <trkpt lat="43.73863" lon="7.18407">
        <ele>50.228981</ele>
        <time>2021-09-19T08:41:01.000Z</time>
      </trkpt>
      <trkpt lat="43.73857" lon="7.18406">
        <ele>50.213215</ele>
        <time>2021-09-19T08:41:02.000Z</time>
      </trkpt>
      <trkpt lat="43.738" lon="7.18403">
        <ele>50.078771</ele>
        <time>2021-09-19T08:41:11.000Z</time>
      </trkpt>
      <trkpt lat="43.73787" lon="7.18402">
        <ele>50.054411</ele>
        <time>2021-09-19T08:41:13.000Z</time>
      </trkpt>
      <trkpt lat="43.73729" lon="7.18401">
        <ele>49.975915</ele>
        <time>2021-09-19T08:41:22.000Z</time>
      </trkpt>
      <trkpt lat="43.73716" lon="7.18401">
        <ele>49.958757</ele>
        <time>2021-09-19T08:41:24.000Z</time>
      </trkpt>
      <trkpt lat="43.73659" lon="7.18403">
        <ele>49.881599</ele>
        <time>2021-09-19T08:41:33.000Z</time>
      </trkpt>
      <trkpt lat="43.73646" lon="7.18404">
        <ele>49.864278</ele>
        <time>2021-09-19T08:41:35.000Z</time>
      </trkpt>
      <trkpt lat="43.7359" lon="7.18408">
        <ele>49.815704</ele>
        <time>2021-09-19T08:41:44.000Z</time>
      </trkpt>
      <trkpt lat="43.73532" lon="7.18416">
        <ele>49.809881</ele>
        <time>2021-09-19T08:41:53.000Z</time>
      </trkpt>
      <trkpt lat="43.73526" lon="7.18417">
        <ele>49.809219</ele>
        <time>2021-09-19T08:41:54.000Z</time>
      </trkpt>
      <trkpt lat="43.73469" lon="7.18425">
        <ele>49.803525</ele>
        <time>2021-09-19T08:42:03.000Z</time>
      </trkpt>
      <trkpt lat="43.73457" lon="7.18426">
        <ele>49.802281</ele>
        <time>2021-09-19T08:42:05.000Z</time>
      </trkpt>
      <trkpt lat="43.73401" lon="7.18434">
        <ele>49.680725</ele>
        <time>2021-09-19T08:42:14.000Z</time>
      </trkpt>
      <trkpt lat="43.73388" lon="7.18435">
        <ele>49.63514</ele>
        <time>2021-09-19T08:42:16.000Z</time>
      </trkpt>
      <trkpt lat="43.73332" lon="7.18443">
        <ele>49.42895</ele>
        <time>2021-09-19T08:42:25.000Z</time>
      </trkpt>
      <trkpt lat="43.73326" lon="7.18444">
        <ele>49.405052</ele>
        <time>2021-09-19T08:42:26.000Z</time>
      </trkpt>
      <trkpt lat="43.7327" lon="7.18452">
        <ele>49.201615</ele>
        <time>2021-09-19T08:42:35.000Z</time>
      </trkpt>
      <trkpt lat="43.73258" lon="7.18454">
        <ele>49.155247</ele>
        <time>2021-09-19T08:42:37.000Z</time>
      </trkpt>
      <trkpt lat="43.73207" lon="7.18461">
        <ele>49.100684</ele>
        <time>2021-09-19T08:42:45.000Z</time>
      </trkpt>
      <trkpt lat="43.7315" lon="7.1847">
        <ele>49.050478</ele>
        <time>2021-09-19T08:42:54.000Z</time>
      </trkpt>
      <trkpt lat="43.73137" lon="7.18472">
        <ele>49.039156</ele>
        <time>2021-09-19T08:42:56.000Z</time>
      </trkpt>
      <trkpt lat="43.73088" lon="7.18479">
        <ele>48.995792</ele>
        <time>2021-09-19T08:43:04.000Z</time>
      </trkpt>
      <trkpt lat="43.73031" lon="7.18487">
        <ele>48.846927</ele>
        <time>2021-09-19T08:43:13.000Z</time>
      </trkpt>
      <trkpt lat="43.73025" lon="7.18489">
        <ele>48.826759</ele>
        <time>2021-09-19T08:43:14.000Z</time>
      </trkpt>
      <trkpt lat="43.72968" lon="7.18498">
        <ele>48.648716</ele>
        <time>2021-09-19T08:43:23.000Z</time>
      </trkpt>
      <trkpt lat="43.72913" lon="7.18506">
        <ele>48.473647</ele>
        <time>2021-09-19T08:43:32.000Z</time>
      </trkpt>
      <trkpt lat="43.72901" lon="7.18507">
        <ele>48.436289</ele>
        <time>2021-09-19T08:43:34.000Z</time>
      </trkpt>
      <trkpt lat="43.72883" lon="7.1851">
        <ele>48.302428</ele>
        <time>2021-09-19T08:43:37.000Z</time>
      </trkpt>
      <trkpt lat="43.72865" lon="7.18512">
        <ele>48.141801</ele>
        <time>2021-09-19T08:43:40.000Z</time>
      </trkpt>
      <trkpt lat="43.72808" lon="7.1852">
        <ele>47.634232</ele>
        <time>2021-09-19T08:43:49.000Z</time>
      </trkpt>
      <trkpt lat="43.72749" lon="7.18528">
        <ele>47.11139</ele>
        <time>2021-09-19T08:43:58.000Z</time>
      </trkpt>
      <trkpt lat="43.7269" lon="7.18536">
        <ele>46.648488</ele>
        <time>2021-09-19T08:44:07.000Z</time>
      </trkpt>
      <trkpt lat="43.72683" lon="7.18537">
        <ele>46.605862</ele>
        <time>2021-09-19T08:44:08.000Z</time>
      </trkpt>
      <trkpt lat="43.7263" lon="7.18544">
        <ele>46.2712</ele>
        <time>2021-09-19T08:44:16.000Z</time>
      </trkpt>
      <trkpt lat="43.72573" lon="7.18551">
        <ele>45.907955</ele>
        <time>2021-09-19T08:44:25.000Z</time>
      </trkpt>
      <trkpt lat="43.72567" lon="7.18552">
        <ele>45.867263</ele>
        <time>2021-09-19T08:44:26.000Z</time>
      </trkpt>
      <trkpt lat="43.7251" lon="7.1856">
        <ele>45.566241</ele>
        <time>2021-09-19T08:44:35.000Z</time>
      </trkpt>
      <trkpt lat="43.72452" lon="7.18568">
        <ele>45.31828</ele>
        <time>2021-09-19T08:44:44.000Z</time>
      </trkpt>
      <trkpt lat="43.72395" lon="7.18578">
        <ele>45.077074</ele>
        <time>2021-09-19T08:44:53.000Z</time>
      </trkpt>
      <trkpt lat="43.72384" lon="7.18581">
        <ele>45.026914</ele>
        <time>2021-09-19T08:44:55.000Z</time>
      </trkpt>
      <trkpt lat="43.72343" lon="7.18592">
        <ele>44.886494</ele>
        <time>2021-09-19T08:45:03.000Z</time>
      </trkpt>
      <trkpt lat="43.72296" lon="7.18605">
        <ele>44.778449</ele>
        <time>2021-09-19T08:45:13.000Z</time>
      </trkpt>
      <trkpt lat="43.72243" lon="7.18608">
        <ele>44.662189</ele>
        <time>2021-09-19T08:45:23.000Z</time>
      </trkpt>
      <trkpt lat="43.72193" lon="7.18612">
        <ele>44.549054</ele>
        <time>2021-09-19T08:45:32.000Z</time>
      </trkpt>
      <trkpt lat="43.72134" lon="7.18615">
        <ele>44.103692</ele>
        <time>2021-09-19T08:45:41.000Z</time>
      </trkpt>
      <trkpt lat="43.7208" lon="7.18618">
        <ele>43.617665</ele>
        <time>2021-09-19T08:45:49.000Z</time>
      </trkpt>
      <trkpt lat="43.72025" lon="7.18622">
        <ele>43.13211</ele>
        <time>2021-09-19T08:45:57.000Z</time>
      </trkpt>
      <trkpt lat="43.71983" lon="7.18627">
        <ele>42.742659</ele>
        <time>2021-09-19T08:46:03.000Z</time>
      </trkpt>
      <trkpt lat="43.71927" lon="7.18634">
        <ele>42.193982</ele>
        <time>2021-09-19T08:46:11.000Z</time>
      </trkpt>
      <trkpt lat="43.71912" lon="7.18636">
        <ele>42.055866</ele>
        <time>2021-09-19T08:46:13.000Z</time>
      </trkpt>
      <trkpt lat="43.71856" lon="7.18644">
        <ele>41.508152</ele>
        <time>2021-09-19T08:46:21.000Z</time>
      </trkpt>
      <trkpt lat="43.71802" lon="7.18651">
        <ele>40.987447</ele>
        <time>2021-09-19T08:46:29.000Z</time>
      </trkpt>
      <trkpt lat="43.71787" lon="7.18653">
        <ele>40.855019</ele>
        <time>2021-09-19T08:46:31.000Z</time>
      </trkpt>
      <trkpt lat="43.71733" lon="7.18661">
        <ele>40.343182</ele>
        <time>2021-09-19T08:46:39.000Z</time>
      </trkpt>
      <trkpt lat="43.71726" lon="7.18662">
        <ele>40.280727</ele>
        <time>2021-09-19T08:46:40.000Z</time>
      </trkpt>
      <trkpt lat="43.71667" lon="7.1867">
        <ele>39.72965</ele>
        <time>2021-09-19T08:46:49.000Z</time>
      </trkpt>
      <trkpt lat="43.71609" lon="7.18678">
        <ele>39.382531</ele>
        <time>2021-09-19T08:46:58.000Z</time>
      </trkpt>
      <trkpt lat="43.71602" lon="7.18679">
        <ele>39.357799</ele>
        <time>2021-09-19T08:46:59.000Z</time>
      </trkpt>
      <trkpt lat="43.71543" lon="7.18687">
        <ele>39.133331</ele>
        <time>2021-09-19T08:47:08.000Z</time>
      </trkpt>
      <trkpt lat="43.7153" lon="7.18689">
        <ele>39.083491</ele>
        <time>2021-09-19T08:47:10.000Z</time>
      </trkpt>
      <trkpt lat="43.71493" lon="7.18694">
        <ele>38.941587</ele>
        <time>2021-09-19T08:47:16.000Z</time>
      </trkpt>
      <trkpt lat="43.71448" lon="7.187">
        <ele>38.737824</ele>
        <time>2021-09-19T08:47:23.000Z</time>
      </trkpt>
      <trkpt lat="43.71389" lon="7.18708">
        <ele>38.405805</ele>
        <time>2021-09-19T08:47:32.000Z</time>
      </trkpt>
      <trkpt lat="43.71382" lon="7.18709">
        <ele>38.367936</ele>
        <time>2021-09-19T08:47:33.000Z</time>
      </trkpt>
      <trkpt lat="43.71329" lon="7.18716">
        <ele>38.06979</ele>
        <time>2021-09-19T08:47:41.000Z</time>
      </trkpt>
      <trkpt lat="43.71273" lon="7.18724">
        <ele>37.709914</ele>
        <time>2021-09-19T08:47:50.000Z</time>
      </trkpt>
      <trkpt lat="43.71234" lon="7.18732">
        <ele>37.378229</ele>
        <time>2021-09-19T08:47:57.000Z</time>
      </trkpt>
      <trkpt lat="43.71192" lon="7.18732">
        <ele>37.013853</ele>
        <time>2021-09-19T08:48:05.000Z</time>
      </trkpt>
      <trkpt lat="43.71157" lon="7.18737">
        <ele>36.715465</ele>
        <time>2021-09-19T08:48:10.000Z</time>
      </trkpt>
      <trkpt lat="43.71145" lon="7.18739">
        <ele>36.612162</ele>
        <time>2021-09-19T08:48:12.000Z</time>
      </trkpt>
      <trkpt lat="43.71102" lon="7.18746">
        <ele>36.236498</ele>
        <time>2021-09-19T08:48:19.000Z</time>
      </trkpt>
      <trkpt lat="43.71051" lon="7.18757">
        <ele>35.697883</ele>
        <time>2021-09-19T08:48:28.000Z</time>
      </trkpt>
      <trkpt lat="43.71039" lon="7.1876">
        <ele>35.574242</ele>
        <time>2021-09-19T08:48:32.000Z</time>
      </trkpt>
      <trkpt lat="43.71036" lon="7.18762">
        <ele>35.543322</ele>
        <time>2021-09-19T08:48:36.000Z</time>
      </trkpt>
      <trkpt lat="43.71023" lon="7.18776">
        <ele>35.371909</ele>
        <time>2021-09-19T08:48:41.000Z</time>
      </trkpt>
      <trkpt lat="43.71024" lon="7.18787">
        <ele>35.285109</ele>
        <time>2021-09-19T08:48:43.000Z</time>
      </trkpt>
      <trkpt lat="43.71025" lon="7.18791">
        <ele>35.250174</ele>
        <time>2021-09-19T08:48:44.000Z</time>
      </trkpt>
      <trkpt lat="43.71033" lon="7.18818">
        <ele>35.03939</ele>
        <time>2021-09-19T08:48:48.000Z</time>
      </trkpt>
      <trkpt lat="43.71034" lon="7.18832">
        <ele>34.929925</ele>
        <time>2021-09-19T08:48:50.000Z</time>
      </trkpt>
      <trkpt lat="43.71038" lon="7.18881">
        <ele>34.561792</ele>
        <time>2021-09-19T08:48:56.000Z</time>
      </trkpt>
      <trkpt lat="43.71042" lon="7.18939">
        <ele>34.15483</ele>
        <time>2021-09-19T08:49:03.000Z</time>
      </trkpt>
      <trkpt lat="43.71047" lon="7.18995">
        <ele>33.770153</ele>
        <time>2021-09-19T08:49:10.000Z</time>
      </trkpt>
      <trkpt lat="43.71047" lon="7.19003">
        <ele>33.714875</ele>
        <time>2021-09-19T08:49:11.000Z</time>
      </trkpt>
      <trkpt lat="43.7105" lon="7.19033">
        <ele>33.501588</ele>
        <time>2021-09-19T08:49:15.000Z</time>
      </trkpt>
      <trkpt lat="43.71055" lon="7.19105">
        <ele>33.009817</ele>
        <time>2021-09-19T08:49:24.000Z</time>
      </trkpt>
      <trkpt lat="43.71059" lon="7.19159">
        <ele>32.724362</ele>
        <time>2021-09-19T08:49:31.000Z</time>
      </trkpt>
      <trkpt lat="43.71061" lon="7.19186">
        <ele>32.723418</ele>
        <time>2021-09-19T08:49:35.000Z</time>
      </trkpt>
      <trkpt lat="43.71061" lon="7.19189">
        <ele>32.723311</ele>
        <time>2021-09-19T08:49:36.000Z</time>
      </trkpt>
      <trkpt lat="43.71056" lon="7.192">
        <ele>32.722857</ele>
        <time>2021-09-19T08:49:37.000Z</time>
      </trkpt>
      <trkpt lat="43.71059" lon="7.19212">
        <ele>32.722434</ele>
        <time>2021-09-19T08:49:39.000Z</time>
      </trkpt>
      <trkpt lat="43.71063" lon="7.19221">
        <ele>32.722058</ele>
        <time>2021-09-19T08:49:40.000Z</time>
      </trkpt>
      <trkpt lat="43.71067" lon="7.1928">
        <ele>32.720027</ele>
        <time>2021-09-19T08:49:48.000Z</time>
      </trkpt>
      <trkpt lat="43.71073" lon="7.19344">
        <ele>32.717791</ele>
        <time>2021-09-19T08:49:56.000Z</time>
      </trkpt>
      <trkpt lat="43.71077" lon="7.19391">
        <ele>32.70761</ele>
        <time>2021-09-19T08:50:03.000Z</time>
      </trkpt>
      <trkpt lat="43.71079" lon="7.19412">
        <ele>32.629186</ele>
        <time>2021-09-19T08:50:08.000Z</time>
      </trkpt>
      <trkpt lat="43.71072" lon="7.19434">
        <ele>32.543721</ele>
        <time>2021-09-19T08:50:12.000Z</time>
      </trkpt>
      <trkpt lat="43.71069" lon="7.19436">
        <ele>32.525886</ele>
        <time>2021-09-19T08:50:13.000Z</time>
      </trkpt>
      <trkpt lat="43.71043" lon="7.19451">
        <ele>32.387337</ele>
        <time>2021-09-19T08:50:19.000Z</time>
      </trkpt>
      <trkpt lat="43.71006" lon="7.19473">
        <ele>32.185428</ele>
        <time>2021-09-19T08:50:27.000Z</time>
      </trkpt>
      <trkpt lat="43.70968" lon="7.19494">
        <ele>31.981817</ele>
        <time>2021-09-19T08:50:35.000Z</time>
      </trkpt>
      <trkpt lat="43.70956" lon="7.19501">
        <ele>31.91817</ele>
        <time>2021-09-19T08:50:38.000Z</time>
      </trkpt>
      <trkpt lat="43.70946" lon="7.19498">
        <ele>31.864597</ele>
        <time>2021-09-19T08:50:40.000Z</time>
      </trkpt>
      <trkpt lat="43.70942" lon="7.195">
        <ele>31.84224</ele>
        <time>2021-09-19T08:50:41.000Z</time>
      </trkpt>
      <trkpt lat="43.70938" lon="7.19503">
        <ele>31.821396</ele>
        <time>2021-09-19T08:50:42.000Z</time>
      </trkpt>
      <trkpt lat="43.70925" lon="7.1951">
        <ele>31.597375</ele>
        <time>2021-09-19T08:50:45.000Z</time>
      </trkpt>
      <trkpt lat="43.70912" lon="7.19518">
        <ele>31.358458</ele>
        <time>2021-09-19T08:50:48.000Z</time>
      </trkpt>
      <trkpt lat="43.70906" lon="7.1952">
        <ele>31.26434</ele>
        <time>2021-09-19T08:50:49.000Z</time>
      </trkpt>
      <trkpt lat="43.70884" lon="7.19532">
        <ele>30.872023</ele>
        <time>2021-09-19T08:50:54.000Z</time>
      </trkpt>
      <trkpt lat="43.70876" lon="7.19537">
        <ele>30.729641</ele>
        <time>2021-09-19T08:50:59.000Z</time>
      </trkpt>
      <trkpt lat="43.7087" lon="7.19533">
        <ele>30.613217</ele>
        <time>2021-09-19T08:51:04.000Z</time>
      </trkpt>
      <trkpt lat="43.70861" lon="7.1952">
        <ele>30.390449</ele>
        <time>2021-09-19T08:51:09.000Z</time>
      </trkpt>
      <trkpt lat="43.70855" lon="7.19502">
        <ele>30.159591</ele>
        <time>2021-09-19T08:51:15.000Z</time>
      </trkpt>
      <trkpt lat="43.70855" lon="7.195">
        <ele>30.132512</ele>
        <time>2021-09-19T08:51:16.000Z</time>
      </trkpt>
      <trkpt lat="43.70862" lon="7.19493">
        <ele>29.984473</ele>
        <time>2021-09-19T08:51:18.000Z</time>
      </trkpt>
      <trkpt lat="43.70864" lon="7.19491">
        <ele>29.947627</ele>
        <time>2021-09-19T08:51:23.000Z</time>
      </trkpt>
      <trkpt lat="43.70855" lon="7.19496">
        <ele>29.792395</ele>
        <time>2021-09-19T08:52:29.000Z</time>
      </trkpt>
      <trkpt lat="43.70854" lon="7.195">
        <ele>29.743715</ele>
        <time>2021-09-19T08:52:31.000Z</time>
      </trkpt>
      <trkpt lat="43.70859" lon="7.19516">
        <ele>29.524732</ele>
        <time>2021-09-19T08:52:36.000Z</time>
      </trkpt>
      <trkpt lat="43.70863" lon="7.19529">
        <ele>29.358793</ele>
        <time>2021-09-19T08:52:39.000Z</time>
      </trkpt>
      <trkpt lat="43.70855" lon="7.19547">
        <ele>29.10287</ele>
        <time>2021-09-19T08:52:45.000Z</time>
      </trkpt>
      <trkpt lat="43.70845" lon="7.19551">
        <ele>28.940405</ele>
        <time>2021-09-19T08:52:49.000Z</time>
      </trkpt>
      <trkpt lat="43.70838" lon="7.19554">
        <ele>28.827796</ele>
        <time>2021-09-19T08:52:53.000Z</time>
      </trkpt>
      <trkpt lat="43.70836" lon="7.19555">
        <ele>28.812941</ele>
        <time>2021-09-19T08:52:54.000Z</time>
      </trkpt>
      <trkpt lat="43.7083" lon="7.19563">
        <ele>28.770099</ele>
        <time>2021-09-19T08:52:56.000Z</time>
      </trkpt>
      <trkpt lat="43.70822" lon="7.19566">
        <ele>28.725418</ele>
        <time>2021-09-19T08:52:58.000Z</time>
      </trkpt>
      <trkpt lat="43.70805" lon="7.19574">
        <ele>28.625725</ele>
        <time>2021-09-19T08:53:02.000Z</time>
      </trkpt>
      <trkpt lat="43.70769" lon="7.19584">
        <ele>28.427464</ele>
        <time>2021-09-19T08:53:09.000Z</time>
      </trkpt>
      <trkpt lat="43.70732" lon="7.19594">
        <ele>28.222859</ele>
        <time>2021-09-19T08:53:16.000Z</time>
      </trkpt>
      <trkpt lat="43.707" lon="7.19602">
        <ele>28.044293</ele>
        <time>2021-09-19T08:53:22.000Z</time>
      </trkpt>
      <trkpt lat="43.70667" lon="7.19605">
        <ele>27.864695</ele>
        <time>2021-09-19T08:53:28.000Z</time>
      </trkpt>
      <trkpt lat="43.70635" lon="7.19613">
        <ele>27.654407</ele>
        <time>2021-09-19T08:53:34.000Z</time>
      </trkpt>
      <trkpt lat="43.7063" lon="7.19615">
        <ele>27.619019</ele>
        <time>2021-09-19T08:53:35.000Z</time>
      </trkpt>
      <trkpt lat="43.70625" lon="7.19616">
        <ele>27.585007</ele>
        <time>2021-09-19T08:53:36.000Z</time>
      </trkpt>
      <trkpt lat="43.70599" lon="7.19622">
        <ele>27.412369</ele>
        <time>2021-09-19T08:53:41.000Z</time>
      </trkpt>
      <trkpt lat="43.70552" lon="7.19634">
        <ele>27.100374</ele>
        <time>2021-09-19T08:53:50.000Z</time>
      </trkpt>
      <trkpt lat="43.705" lon="7.19647">
        <ele>26.752683</ele>
        <time>2021-09-19T08:54:00.000Z</time>
      </trkpt>
      <trkpt lat="43.70485" lon="7.19651">
        <ele>26.658138</ele>
        <time>2021-09-19T08:54:03.000Z</time>
      </trkpt>
      <trkpt lat="43.70476" lon="7.19653">
        <ele>26.609396</ele>
        <time>2021-09-19T08:54:05.000Z</time>
      </trkpt>
      <trkpt lat="43.70462" lon="7.19656">
        <ele>26.531179</ele>
        <time>2021-09-19T08:54:09.000Z</time>
      </trkpt>
      <trkpt lat="43.70456" lon="7.19658">
        <ele>26.499517</ele>
        <time>2021-09-19T08:54:11.000Z</time>
      </trkpt>
      <trkpt lat="43.70449" lon="7.1966">
        <ele>26.45893</ele>
        <time>2021-09-19T08:54:13.000Z</time>
      </trkpt>
      <trkpt lat="43.70421" lon="7.19666">
        <ele>26.308297</ele>
        <time>2021-09-19T08:54:19.000Z</time>
      </trkpt>
      <trkpt lat="43.70412" lon="7.19668">
        <ele>26.259149</ele>
        <time>2021-09-19T08:54:21.000Z</time>
      </trkpt>
      <trkpt lat="43.70388" lon="7.19673">
        <ele>26.131588</ele>
        <time>2021-09-19T08:54:26.000Z</time>
      </trkpt>
      <trkpt lat="43.70348" lon="7.19679">
        <ele>25.917413</ele>
        <time>2021-09-19T08:54:34.000Z</time>
      </trkpt>
      <trkpt lat="43.70307" lon="7.19682">
        <ele>25.696728</ele>
        <time>2021-09-19T08:54:42.000Z</time>
      </trkpt>
      <trkpt lat="43.70272" lon="7.19684">
        <ele>25.491463</ele>
        <time>2021-09-19T08:54:49.000Z</time>
      </trkpt>
      <trkpt lat="43.70232" lon="7.19682">
        <ele>25.253892</ele>
        <time>2021-09-19T08:54:57.000Z</time>
      </trkpt>
      <trkpt lat="43.70202" lon="7.19679">
        <ele>25.078254</ele>
        <time>2021-09-19T08:55:03.000Z</time>
      </trkpt>
      <trkpt lat="43.70197" lon="7.19678">
        <ele>25.047625</ele>
        <time>2021-09-19T08:55:04.000Z</time>
      </trkpt>
      <trkpt lat="43.70171" lon="7.19675">
        <ele>24.895725</ele>
        <time>2021-09-19T08:55:09.000Z</time>
      </trkpt>
      <trkpt lat="43.70135" lon="7.19669">
        <ele>24.683195</ele>
        <time>2021-09-19T08:55:16.000Z</time>
      </trkpt>
      <trkpt lat="43.70087" lon="7.19658">
        <ele>24.311433</ele>
        <time>2021-09-19T08:55:25.000Z</time>
      </trkpt>
      <trkpt lat="43.70049" lon="7.19648">
        <ele>24.01014</ele>
        <time>2021-09-19T08:55:32.000Z</time>
      </trkpt>
      <trkpt lat="43.70004" lon="7.19636">
        <ele>23.652876</ele>
        <time>2021-09-19T08:55:40.000Z</time>
      </trkpt>
      <trkpt lat="43.69958" lon="7.19626">
        <ele>23.283667</ele>
        <time>2021-09-19T08:55:49.000Z</time>
      </trkpt>
      <trkpt lat="43.69916" lon="7.19622">
        <ele>23.08809</ele>
        <time>2021-09-19T08:55:57.000Z</time>
      </trkpt>
      <trkpt lat="43.6988" lon="7.1962">
        <ele>22.929167</ele>
        <time>2021-09-19T08:56:04.000Z</time>
      </trkpt>
      <trkpt lat="43.69838" lon="7.19622">
        <ele>22.747567</ele>
        <time>2021-09-19T08:56:12.000Z</time>
      </trkpt>
      <trkpt lat="43.69807" lon="7.19628">
        <ele>22.610036</ele>
        <time>2021-09-19T08:56:18.000Z</time>
      </trkpt>
      <trkpt lat="43.69802" lon="7.19629">
        <ele>22.587083</ele>
        <time>2021-09-19T08:56:19.000Z</time>
      </trkpt>
      <trkpt lat="43.69762" lon="7.19639">
        <ele>22.416753</ele>
        <time>2021-09-19T08:56:27.000Z</time>
      </trkpt>
      <trkpt lat="43.69746" lon="7.19642">
        <ele>22.356666</ele>
        <time>2021-09-19T08:56:31.000Z</time>
      </trkpt>
      <trkpt lat="43.69745" lon="7.19643">
        <ele>22.35276</ele>
        <time>2021-09-19T08:56:32.000Z</time>
      </trkpt>
      <trkpt lat="43.69741" lon="7.19644">
        <ele>22.336667</ele>
        <time>2021-09-19T08:56:54.000Z</time>
      </trkpt>
      <trkpt lat="43.69724" lon="7.19649">
        <ele>22.268785</ele>
        <time>2021-09-19T08:56:59.000Z</time>
      </trkpt>
      <trkpt lat="43.69696" lon="7.19659">
        <ele>22.155878</ele>
        <time>2021-09-19T08:57:05.000Z</time>
      </trkpt>
      <trkpt lat="43.6966" lon="7.19673">
        <ele>22.011838</ele>
        <time>2021-09-19T08:57:12.000Z</time>
      </trkpt>
      <trkpt lat="43.6965" lon="7.19677">
        <ele>21.97062</ele>
        <time>2021-09-19T08:57:14.000Z</time>
      </trkpt>
      <trkpt lat="43.69634" lon="7.19682">
        <ele>21.906636</ele>
        <time>2021-09-19T08:57:17.000Z</time>
      </trkpt>
      <trkpt lat="43.69586" lon="7.19709">
        <ele>21.72362</ele>
        <time>2021-09-19T08:57:26.000Z</time>
      </trkpt>
      <trkpt lat="43.69527" lon="7.19748">
        <ele>21.538871</ele>
        <time>2021-09-19T08:57:37.000Z</time>
      </trkpt>
      <trkpt lat="43.69522" lon="7.19751">
        <ele>21.523259</ele>
        <time>2021-09-19T08:57:38.000Z</time>
      </trkpt>
      <trkpt lat="43.69489" lon="7.19774">
        <ele>21.416752</ele>
        <time>2021-09-19T08:57:45.000Z</time>
      </trkpt>
      <trkpt lat="43.69453" lon="7.19799">
        <ele>21.301434</ele>
        <time>2021-09-19T08:57:52.000Z</time>
      </trkpt>
      <trkpt lat="43.69405" lon="7.19832">
        <ele>21.138797</ele>
        <time>2021-09-19T08:58:01.000Z</time>
      </trkpt>
      <trkpt lat="43.69369" lon="7.19856">
        <ele>21.012981</ele>
        <time>2021-09-19T08:58:08.000Z</time>
      </trkpt>
      <trkpt lat="43.69322" lon="7.19882">
        <ele>20.851301</ele>
        <time>2021-09-19T08:58:17.000Z</time>
      </trkpt>
      <trkpt lat="43.6928" lon="7.19906">
        <ele>20.708328</ele>
        <time>2021-09-19T08:58:25.000Z</time>
      </trkpt>
      <trkpt lat="43.69245" lon="7.19922">
        <ele>20.53783</ele>
        <time>2021-09-19T08:58:32.000Z</time>
      </trkpt>
      <trkpt lat="43.69236" lon="7.19923">
        <ele>20.495395</ele>
        <time>2021-09-19T08:58:35.000Z</time>
      </trkpt>
      <trkpt lat="43.69236" lon="7.19923">
        <ele>20.495395</ele>
        <time>2021-09-19T08:58:37.000Z</time>
      </trkpt>
      <trkpt lat="43.69234" lon="7.19925">
        <ele>20.481665</ele>
        <time>2021-09-19T08:58:56.000Z</time>
      </trkpt>
      <trkpt lat="43.69231" lon="7.19926">
        <ele>20.469716</ele>
        <time>2021-09-19T08:58:57.000Z</time>
      </trkpt>
      <trkpt lat="43.69229" lon="7.19928">
        <ele>20.454959</ele>
        <time>2021-09-19T08:58:58.000Z</time>
      </trkpt>
      <trkpt lat="43.69223" lon="7.19932">
        <ele>20.425443</ele>
        <time>2021-09-19T08:59:00.000Z</time>
      </trkpt>
      <trkpt lat="43.69211" lon="7.19943">
        <ele>20.35471</ele>
        <time>2021-09-19T08:59:04.000Z</time>
      </trkpt>
      <trkpt lat="43.69175" lon="7.19962">
        <ele>20.166039</ele>
        <time>2021-09-19T08:59:12.000Z</time>
      </trkpt>
      <trkpt lat="43.69141" lon="7.19981">
        <ele>19.98669</ele>
        <time>2021-09-19T08:59:19.000Z</time>
      </trkpt>
      <trkpt lat="43.69136" lon="7.19983">
        <ele>19.962031</ele>
        <time>2021-09-19T08:59:20.000Z</time>
      </trkpt>
      <trkpt lat="43.69089" lon="7.20008">
        <ele>19.723701</ele>
        <time>2021-09-19T08:59:29.000Z</time>
      </trkpt>
      <trkpt lat="43.69046" lon="7.20031">
        <ele>19.51737</ele>
        <time>2021-09-19T08:59:37.000Z</time>
      </trkpt>
      <trkpt lat="43.69005" lon="7.20053">
        <ele>19.316486</ele>
        <time>2021-09-19T08:59:45.000Z</time>
      </trkpt>
      <trkpt lat="43.68978" lon="7.20064">
        <ele>19.189966</ele>
        <time>2021-09-19T08:59:51.000Z</time>
      </trkpt>
      <trkpt lat="43.68942" lon="7.20076">
        <ele>19.022569</ele>
        <time>2021-09-19T08:59:58.000Z</time>
      </trkpt>
      <trkpt lat="43.68898" lon="7.2009">
        <ele>18.925145</ele>
        <time>2021-09-19T09:00:06.000Z</time>
      </trkpt>
      <trkpt lat="43.68893" lon="7.20092">
        <ele>18.914688</ele>
        <time>2021-09-19T09:00:07.000Z</time>
      </trkpt>
      <trkpt lat="43.68861" lon="7.20103">
        <ele>18.850453</ele>
        <time>2021-09-19T09:00:13.000Z</time>
      </trkpt>
      <trkpt lat="43.68813" lon="7.20119">
        <ele>18.754335</ele>
        <time>2021-09-19T09:00:22.000Z</time>
      </trkpt>
      <trkpt lat="43.68793" lon="7.20126">
        <ele>18.7126</ele>
        <time>2021-09-19T09:00:26.000Z</time>
      </trkpt>
      <trkpt lat="43.68777" lon="7.20131">
        <ele>18.68037</ele>
        <time>2021-09-19T09:00:29.000Z</time>
      </trkpt>
      <trkpt lat="43.68743" lon="7.20143">
        <ele>18.62416</ele>
        <time>2021-09-19T09:00:35.000Z</time>
      </trkpt>
      <trkpt lat="43.68706" lon="7.20156">
        <ele>18.569558</ele>
        <time>2021-09-19T09:00:42.000Z</time>
      </trkpt>
      <trkpt lat="43.68679" lon="7.20164">
        <ele>18.531324</ele>
        <time>2021-09-19T09:00:47.000Z</time>
      </trkpt>
      <trkpt lat="43.6863" lon="7.20179">
        <ele>18.460288</ele>
        <time>2021-09-19T09:00:56.000Z</time>
      </trkpt>
      <trkpt lat="43.68599" lon="7.20188">
        <ele>18.415157</ele>
        <time>2021-09-19T09:01:02.000Z</time>
      </trkpt>
      <trkpt lat="43.68594" lon="7.20189">
        <ele>18.408294</ele>
        <time>2021-09-19T09:01:03.000Z</time>
      </trkpt>
      <trkpt lat="43.68584" lon="7.20193">
        <ele>18.393878</ele>
        <time>2021-09-19T09:01:05.000Z</time>
      </trkpt>
      <trkpt lat="43.68575" lon="7.20196">
        <ele>18.378663</ele>
        <time>2021-09-19T09:01:07.000Z</time>
      </trkpt>
      <trkpt lat="43.68544" lon="7.20206">
        <ele>18.327857</ele>
        <time>2021-09-19T09:01:13.000Z</time>
      </trkpt>
      <trkpt lat="43.68493" lon="7.20222">
        <ele>18.243086</ele>
        <time>2021-09-19T09:01:22.000Z</time>
      </trkpt>
      <trkpt lat="43.68455" lon="7.20233">
        <ele>18.181574</ele>
        <time>2021-09-19T09:01:29.000Z</time>
      </trkpt>
      <trkpt lat="43.68438" lon="7.20238">
        <ele>18.154118</ele>
        <time>2021-09-19T09:01:32.000Z</time>
      </trkpt>
      <trkpt lat="43.68427" lon="7.20242">
        <ele>18.13528</ele>
        <time>2021-09-19T09:01:34.000Z</time>
      </trkpt>
      <trkpt lat="43.68398" lon="7.20254">
        <ele>18.239523</ele>
        <time>2021-09-19T09:01:39.000Z</time>
      </trkpt>
      <trkpt lat="43.68393" lon="7.20254">
        <ele>18.286155</ele>
        <time>2021-09-19T09:01:40.000Z</time>
      </trkpt>
      <trkpt lat="43.68353" lon="7.20267">
        <ele>18.627478</ele>
        <time>2021-09-19T09:01:47.000Z</time>
      </trkpt>
      <trkpt lat="43.68321" lon="7.20279">
        <ele>18.910401</ele>
        <time>2021-09-19T09:01:53.000Z</time>
      </trkpt>
      <trkpt lat="43.68312" lon="7.20282">
        <ele>18.984418</ele>
        <time>2021-09-19T09:01:56.000Z</time>
      </trkpt>
      <trkpt lat="43.68298" lon="7.20288">
        <ele>19.112155</ele>
        <time>2021-09-19T09:02:00.000Z</time>
      </trkpt>
      <trkpt lat="43.68266" lon="7.20301">
        <ele>19.388944</ele>
        <time>2021-09-19T09:02:07.000Z</time>
      </trkpt>
      <trkpt lat="43.68234" lon="7.20314">
        <ele>19.589359</ele>
        <time>2021-09-19T09:02:14.000Z</time>
      </trkpt>
      <trkpt lat="43.68197" lon="7.20328">
        <ele>19.329913</ele>
        <time>2021-09-19T09:02:22.000Z</time>
      </trkpt>
      <trkpt lat="43.6815" lon="7.20346">
        <ele>19.006158</ele>
        <time>2021-09-19T09:02:32.000Z</time>
      </trkpt>
      <trkpt lat="43.68122" lon="7.20357">
        <ele>18.810374</ele>
        <time>2021-09-19T09:02:38.000Z</time>
      </trkpt>
      <trkpt lat="43.68089" lon="7.2037">
        <ele>18.581009</ele>
        <time>2021-09-19T09:02:45.000Z</time>
      </trkpt>
      <trkpt lat="43.68085" lon="7.20372">
        <ele>18.551575</ele>
        <time>2021-09-19T09:02:46.000Z</time>
      </trkpt>
      <trkpt lat="43.68081" lon="7.20374">
        <ele>18.522785</ele>
        <time>2021-09-19T09:02:47.000Z</time>
      </trkpt>
      <trkpt lat="43.6807" lon="7.20378">
        <ele>18.445101</ele>
        <time>2021-09-19T09:02:50.000Z</time>
      </trkpt>
      <trkpt lat="43.68048" lon="7.20386">
        <ele>18.239533</ele>
        <time>2021-09-19T09:02:55.000Z</time>
      </trkpt>
      <trkpt lat="43.68017" lon="7.20399">
        <ele>17.928137</ele>
        <time>2021-09-19T09:03:02.000Z</time>
      </trkpt>
      <trkpt lat="43.67988" lon="7.20411">
        <ele>17.635914</ele>
        <time>2021-09-19T09:03:10.000Z</time>
      </trkpt>
      <trkpt lat="43.67963" lon="7.20421">
        <ele>17.384286</ele>
        <time>2021-09-19T09:03:16.000Z</time>
      </trkpt>
      <trkpt lat="43.67935" lon="7.20433">
        <ele>17.097485</ele>
        <time>2021-09-19T09:03:22.000Z</time>
      </trkpt>
      <trkpt lat="43.67931" lon="7.20435">
        <ele>17.054311</ele>
        <time>2021-09-19T09:03:23.000Z</time>
      </trkpt>
      <trkpt lat="43.67911" lon="7.20442">
        <ele>16.860035</ele>
        <time>2021-09-19T09:03:28.000Z</time>
      </trkpt>
      <trkpt lat="43.67906" lon="7.20444">
        <ele>16.809977</ele>
        <time>2021-09-19T09:03:29.000Z</time>
      </trkpt>
      <trkpt lat="43.67892" lon="7.20458">
        <ele>16.677015</ele>
        <time>2021-09-19T09:03:32.000Z</time>
      </trkpt>
      <trkpt lat="43.67874" lon="7.20465">
        <ele>16.658782</ele>
        <time>2021-09-19T09:03:36.000Z</time>
      </trkpt>
      <trkpt lat="43.67864" lon="7.20469">
        <ele>16.649765</ele>
        <time>2021-09-19T09:03:38.000Z</time>
      </trkpt>
      <trkpt lat="43.67855" lon="7.20473">
        <ele>16.640766</ele>
        <time>2021-09-19T09:03:40.000Z</time>
      </trkpt>
      <trkpt lat="43.67833" lon="7.20481">
        <ele>16.619013</ele>
        <time>2021-09-19T09:03:45.000Z</time>
      </trkpt>
      <trkpt lat="43.67806" lon="7.20492">
        <ele>16.593094</ele>
        <time>2021-09-19T09:03:52.000Z</time>
      </trkpt>
      <trkpt lat="43.67804" lon="7.20492">
        <ele>16.591045</ele>
        <time>2021-09-19T09:03:53.000Z</time>
      </trkpt>
      <trkpt lat="43.67802" lon="7.20491">
        <ele>16.589625</ele>
        <time>2021-09-19T09:03:55.000Z</time>
      </trkpt>
      <trkpt lat="43.67802" lon="7.20491">
        <ele>16.589402</ele>
        <time>2021-09-19T09:03:57.000Z</time>
      </trkpt>
      <trkpt lat="43.67804" lon="7.20498">
        <ele>16.584554</ele>
        <time>2021-09-19T09:04:11.000Z</time>
      </trkpt>
      <trkpt lat="43.67806" lon="7.20502">
        <ele>16.581012</ele>
        <time>2021-09-19T09:04:13.000Z</time>
      </trkpt>
      <trkpt lat="43.67809" lon="7.20522">
        <ele>16.567482</ele>
        <time>2021-09-19T09:04:18.000Z</time>
      </trkpt>
      <trkpt lat="43.67806" lon="7.20524">
        <ele>16.56518</ele>
        <time>2021-09-19T09:04:19.000Z</time>
      </trkpt>
      <trkpt lat="43.67799" lon="7.20531">
        <ele>16.556365</ele>
        <time>2021-09-19T09:04:23.000Z</time>
      </trkpt>
      <trkpt lat="43.67797" lon="7.20534">
        <ele>16.553761</ele>
        <time>2021-09-19T09:04:24.000Z</time>
      </trkpt>
      <trkpt lat="43.67794" lon="7.20541">
        <ele>16.548114</ele>
        <time>2021-09-19T09:04:27.000Z</time>
      </trkpt>
      <trkpt lat="43.67795" lon="7.20545">
        <ele>16.54524</ele>
        <time>2021-09-19T09:04:28.000Z</time>
      </trkpt>
      <trkpt lat="43.67801" lon="7.20571">
        <ele>16.526382</ele>
        <time>2021-09-19T09:04:33.000Z</time>
      </trkpt>
      <trkpt lat="43.67796" lon="7.20589">
        <ele>16.513416</ele>
        <time>2021-09-19T09:04:36.000Z</time>
      </trkpt>
      <trkpt lat="43.67793" lon="7.20594">
        <ele>16.522169</ele>
        <time>2021-09-19T09:04:37.000Z</time>
      </trkpt>
      <trkpt lat="43.67783" lon="7.20607">
        <ele>16.552442</ele>
        <time>2021-09-19T09:04:40.000Z</time>
      </trkpt>
      <trkpt lat="43.67774" lon="7.2062">
        <ele>16.58205</ele>
        <time>2021-09-19T09:04:43.000Z</time>
      </trkpt>
      <trkpt lat="43.67747" lon="7.20655">
        <ele>16.665894</ele>
        <time>2021-09-19T09:04:51.000Z</time>
      </trkpt>
      <trkpt lat="43.67721" lon="7.20692">
        <ele>16.749661</ele>
        <time>2021-09-19T09:04:59.000Z</time>
      </trkpt>
      <trkpt lat="43.67703" lon="7.20728">
        <ele>16.822177</ele>
        <time>2021-09-19T09:05:06.000Z</time>
      </trkpt>
      <trkpt lat="43.67681" lon="7.20772">
        <ele>16.910043</ele>
        <time>2021-09-19T09:05:15.000Z</time>
      </trkpt>
      <trkpt lat="43.67665" lon="7.20799">
        <ele>18.36374</ele>
        <time>2021-09-19T09:05:23.000Z</time>
      </trkpt>
      <trkpt lat="43.67654" lon="7.20812">
        <ele>19.423113</ele>
        <time>2021-09-19T09:05:30.000Z</time>
      </trkpt>
      <trkpt lat="43.67647" lon="7.2082">
        <ele>20.00782</ele>
        <time>2021-09-19T09:05:35.000Z</time>
      </trkpt>
      <trkpt lat="43.67638" lon="7.20828">
        <ele>20.774654</ele>
        <time>2021-09-19T09:05:41.000Z</time>
      </trkpt>
      <trkpt lat="43.67629" lon="7.20835">
        <ele>21.524146</ele>
        <time>2021-09-19T09:05:47.000Z</time>
      </trkpt>
      <trkpt lat="43.67617" lon="7.20844">
        <ele>22.478511</ele>
        <time>2021-09-19T09:05:55.000Z</time>
      </trkpt>
      <trkpt lat="43.67606" lon="7.20852">
        <ele>23.332459</ele>
        <time>2021-09-19T09:06:03.000Z</time>
      </trkpt>
      <trkpt lat="43.67596" lon="7.20861">
        <ele>24.168445</ele>
        <time>2021-09-19T09:06:10.000Z</time>
      </trkpt>
      <trkpt lat="43.67594" lon="7.20863">
        <ele>24.355805</ele>
        <time>2021-09-19T09:06:12.000Z</time>
      </trkpt>
      <trkpt lat="43.67591" lon="7.20866">
        <ele>24.60964</ele>
        <time>2021-09-19T09:06:15.000Z</time>
      </trkpt>
      <trkpt lat="43.67586" lon="7.20872">
        <ele>25.050757</ele>
        <time>2021-09-19T09:06:20.000Z</time>
      </trkpt>
      <trkpt lat="43.67581" lon="7.20878">
        <ele>25.519703</ele>
        <time>2021-09-19T09:06:26.000Z</time>
      </trkpt>
      <trkpt lat="43.67576" lon="7.20888">
        <ele>26.156616</ele>
        <time>2021-09-19T09:06:31.000Z</time>
      </trkpt>
      <trkpt lat="43.67567" lon="7.20908">
        <ele>27.322301</ele>
        <time>2021-09-19T09:06:38.000Z</time>
      </trkpt>
      <trkpt lat="43.67561" lon="7.20925">
        <ele>28.319495</ele>
        <time>2021-09-19T09:06:46.000Z</time>
      </trkpt>
      <trkpt lat="43.67553" lon="7.20945">
        <ele>29.452451</ele>
        <time>2021-09-19T09:06:54.000Z</time>
      </trkpt>
      <trkpt lat="43.67549" lon="7.20958">
        <ele>29.886376</ele>
        <time>2021-09-19T09:06:59.000Z</time>
      </trkpt>
      <trkpt lat="43.6754" lon="7.20981">
        <ele>30.654172</ele>
        <time>2021-09-19T09:07:06.000Z</time>
      </trkpt>
      <trkpt lat="43.67531" lon="7.21002">
        <ele>31.357053</ele>
        <time>2021-09-19T09:07:12.000Z</time>
      </trkpt>
      <trkpt lat="43.67521" lon="7.21029">
        <ele>32.24796</ele>
        <time>2021-09-19T09:07:19.000Z</time>
      </trkpt>
      <trkpt lat="43.67508" lon="7.21063">
        <ele>33.327391</ele>
        <time>2021-09-19T09:07:26.000Z</time>
      </trkpt>
      <trkpt lat="43.67507" lon="7.21068">
        <ele>33.49149</ele>
        <time>2021-09-19T09:07:27.000Z</time>
      </trkpt>
      <trkpt lat="43.67503" lon="7.21078">
        <ele>33.832817</ele>
        <time>2021-09-19T09:07:29.000Z</time>
      </trkpt>
      <trkpt lat="43.67501" lon="7.21084">
        <ele>34.017797</ele>
        <time>2021-09-19T09:07:30.000Z</time>
      </trkpt>
      <trkpt lat="43.67491" lon="7.21108">
        <ele>34.81623</ele>
        <time>2021-09-19T09:07:34.000Z</time>
      </trkpt>
      <trkpt lat="43.67486" lon="7.2112">
        <ele>35.214197</ele>
        <time>2021-09-19T09:07:36.000Z</time>
      </trkpt>
      <trkpt lat="43.6746" lon="7.21181">
        <ele>36.965113</ele>
        <time>2021-09-19T09:07:46.000Z</time>
      </trkpt>
      <trkpt lat="43.67446" lon="7.21216">
        <ele>37.49225</ele>
        <time>2021-09-19T09:07:52.000Z</time>
      </trkpt>
      <trkpt lat="43.67433" lon="7.21251">
        <ele>38.012106</ele>
        <time>2021-09-19T09:07:58.000Z</time>
      </trkpt>
      <trkpt lat="43.67432" lon="7.21258">
        <ele>38.0959</ele>
        <time>2021-09-19T09:07:59.000Z</time>
      </trkpt>
      <trkpt lat="43.67431" lon="7.21301">
        <ele>38.668111</ele>
        <time>2021-09-19T09:08:06.000Z</time>
      </trkpt>
      <trkpt lat="43.67437" lon="7.2135">
        <ele>39.323649</ele>
        <time>2021-09-19T09:08:13.000Z</time>
      </trkpt>
      <trkpt lat="43.67443" lon="7.21372">
        <ele>39.63903</ele>
        <time>2021-09-19T09:08:16.000Z</time>
      </trkpt>
      <trkpt lat="43.6745" lon="7.21395">
        <ele>39.961118</ele>
        <time>2021-09-19T09:08:19.000Z</time>
      </trkpt>
      <trkpt lat="43.67459" lon="7.21418">
        <ele>40.122279</ele>
        <time>2021-09-19T09:08:23.000Z</time>
      </trkpt>
      <trkpt lat="43.67472" lon="7.21452">
        <ele>40.328545</ele>
        <time>2021-09-19T09:08:30.000Z</time>
      </trkpt>
      <trkpt lat="43.6749" lon="7.21498">
        <ele>40.615744</ele>
        <time>2021-09-19T09:08:37.000Z</time>
      </trkpt>
      <trkpt lat="43.67508" lon="7.21558">
        <ele>40.965631</ele>
        <time>2021-09-19T09:08:45.000Z</time>
      </trkpt>
      <trkpt lat="43.67512" lon="7.21573">
        <ele>41.055017</ele>
        <time>2021-09-19T09:08:47.000Z</time>
      </trkpt>
      <trkpt lat="43.67514" lon="7.21599">
        <ele>41.197654</ele>
        <time>2021-09-19T09:08:50.000Z</time>
      </trkpt>
      <trkpt lat="43.67512" lon="7.21617">
        <ele>41.297878</ele>
        <time>2021-09-19T09:08:52.000Z</time>
      </trkpt>
      <trkpt lat="43.67509" lon="7.21636">
        <ele>41.295923</ele>
        <time>2021-09-19T09:08:54.000Z</time>
      </trkpt>
      <trkpt lat="43.67507" lon="7.21646">
        <ele>41.252106</ele>
        <time>2021-09-19T09:08:55.000Z</time>
      </trkpt>
      <trkpt lat="43.67501" lon="7.21664">
        <ele>41.164186</ele>
        <time>2021-09-19T09:08:57.000Z</time>
      </trkpt>
      <trkpt lat="43.67489" lon="7.21703">
        <ele>40.979408</ele>
        <time>2021-09-19T09:09:01.000Z</time>
      </trkpt>
      <trkpt lat="43.67479" lon="7.21732">
        <ele>40.83606</ele>
        <time>2021-09-19T09:09:04.000Z</time>
      </trkpt>
      <trkpt lat="43.67474" lon="7.21754">
        <ele>40.73516</ele>
        <time>2021-09-19T09:09:06.000Z</time>
      </trkpt>
      <trkpt lat="43.67467" lon="7.21791">
        <ele>40.566777</ele>
        <time>2021-09-19T09:09:09.000Z</time>
      </trkpt>
      <trkpt lat="43.67466" lon="7.21804">
        <ele>40.508808</ele>
        <time>2021-09-19T09:09:10.000Z</time>
      </trkpt>
      <trkpt lat="43.67465" lon="7.21817">
        <ele>40.451343</ele>
        <time>2021-09-19T09:09:11.000Z</time>
      </trkpt>
      <trkpt lat="43.67462" lon="7.21857">
        <ele>40.276125</ele>
        <time>2021-09-19T09:09:14.000Z</time>
      </trkpt>
      <trkpt lat="43.67457" lon="7.21939">
        <ele>39.160587</ele>
        <time>2021-09-19T09:09:20.000Z</time>
      </trkpt>
      <trkpt lat="43.67452" lon="7.21985">
        <ele>38.501141</ele>
        <time>2021-09-19T09:09:24.000Z</time>
      </trkpt>
      <trkpt lat="43.67441" lon="7.22047">
        <ele>37.581989</ele>
        <time>2021-09-19T09:09:30.000Z</time>
      </trkpt>
      <trkpt lat="43.67437" lon="7.22067">
        <ele>37.278291</ele>
        <time>2021-09-19T09:09:32.000Z</time>
      </trkpt>
      <trkpt lat="43.6743" lon="7.22096">
        <ele>36.837726</ele>
        <time>2021-09-19T09:09:36.000Z</time>
      </trkpt>
      <trkpt lat="43.67428" lon="7.22103">
        <ele>36.740868</ele>
        <time>2021-09-19T09:09:40.000Z</time>
      </trkpt>
      <trkpt lat="43.67426" lon="7.22109">
        <ele>36.620025</ele>
        <time>2021-09-19T09:09:47.000Z</time>
      </trkpt>
      <trkpt lat="43.67425" lon="7.22113">
        <ele>36.513529</ele>
        <time>2021-09-19T09:09:48.000Z</time>
      </trkpt>
      <trkpt lat="43.67416" lon="7.22145">
        <ele>35.728866</ele>
        <time>2021-09-19T09:09:53.000Z</time>
      </trkpt>
      <trkpt lat="43.67396" lon="7.22194">
        <ele>34.457957</ele>
        <time>2021-09-19T09:10:00.000Z</time>
      </trkpt>
      <trkpt lat="43.67388" lon="7.22212">
        <ele>33.967162</ele>
        <time>2021-09-19T09:10:03.000Z</time>
      </trkpt>
      <trkpt lat="43.67391" lon="7.22222">
        <ele>33.734613</ele>
        <time>2021-09-19T09:10:05.000Z</time>
      </trkpt>
      <trkpt lat="43.67398" lon="7.2223">
        <ele>33.427212</ele>
        <time>2021-09-19T09:10:07.000Z</time>
      </trkpt>
      <trkpt lat="43.67402" lon="7.22234">
        <ele>33.26696</ele>
        <time>2021-09-19T09:10:08.000Z</time>
      </trkpt>
      <trkpt lat="43.67426" lon="7.22261">
        <ele>32.302482</ele>
        <time>2021-09-19T09:10:13.000Z</time>
      </trkpt>
      <trkpt lat="43.67463" lon="7.22312">
        <ele>30.726592</ele>
        <time>2021-09-19T09:10:20.000Z</time>
      </trkpt>
      <trkpt lat="43.67468" lon="7.22319">
        <ele>30.544084</ele>
        <time>2021-09-19T09:10:21.000Z</time>
      </trkpt>
      <trkpt lat="43.6748" lon="7.22335">
        <ele>30.155261</ele>
        <time>2021-09-19T09:10:23.000Z</time>
      </trkpt>
      <trkpt lat="43.67492" lon="7.22349">
        <ele>29.773724</ele>
        <time>2021-09-19T09:10:25.000Z</time>
      </trkpt>
      <trkpt lat="43.67513" lon="7.22368">
        <ele>29.154487</ele>
        <time>2021-09-19T09:10:28.000Z</time>
      </trkpt>
      <trkpt lat="43.67545" lon="7.22406">
        <ele>28.122848</ele>
        <time>2021-09-19T09:10:33.000Z</time>
      </trkpt>
      <trkpt lat="43.67586" lon="7.22453">
        <ele>26.824941</ele>
        <time>2021-09-19T09:10:40.000Z</time>
      </trkpt>
      <trkpt lat="43.67612" lon="7.22483">
        <ele>26.035243</ele>
        <time>2021-09-19T09:10:45.000Z</time>
      </trkpt>
      <trkpt lat="43.67642" lon="7.22517">
        <ele>25.126686</ele>
        <time>2021-09-19T09:10:51.000Z</time>
      </trkpt>
      <trkpt lat="43.67682" lon="7.22561">
        <ele>23.951795</ele>
        <time>2021-09-19T09:10:59.000Z</time>
      </trkpt>
      <trkpt lat="43.67718" lon="7.22602">
        <ele>22.858524</ele>
        <time>2021-09-19T09:11:07.000Z</time>
      </trkpt>
      <trkpt lat="43.67754" lon="7.22645">
        <ele>21.792237</ele>
        <time>2021-09-19T09:11:15.000Z</time>
      </trkpt>
      <trkpt lat="43.67772" lon="7.22668">
        <ele>21.243392</ele>
        <time>2021-09-19T09:11:19.000Z</time>
      </trkpt>
      <trkpt lat="43.67777" lon="7.22673">
        <ele>21.107658</ele>
        <time>2021-09-19T09:11:20.000Z</time>
      </trkpt>
      <trkpt lat="43.67808" lon="7.22712">
        <ele>20.167933</ele>
        <time>2021-09-19T09:11:27.000Z</time>
      </trkpt>
      <trkpt lat="43.67828" lon="7.22737">
        <ele>19.574042</ele>
        <time>2021-09-19T09:11:32.000Z</time>
      </trkpt>
      <trkpt lat="43.67827" lon="7.22746">
        <ele>19.428517</ele>
        <time>2021-09-19T09:11:33.000Z</time>
      </trkpt>
      <trkpt lat="43.67826" lon="7.22752">
        <ele>19.324585</ele>
        <time>2021-09-19T09:11:34.000Z</time>
      </trkpt>
      <trkpt lat="43.67821" lon="7.22771">
        <ele>18.998472</ele>
        <time>2021-09-19T09:11:37.000Z</time>
      </trkpt>
      <trkpt lat="43.67814" lon="7.22799">
        <ele>18.523998</ele>
        <time>2021-09-19T09:11:42.000Z</time>
      </trkpt>
      <trkpt lat="43.67812" lon="7.22808">
        <ele>18.257274</ele>
        <time>2021-09-19T09:11:46.000Z</time>
      </trkpt>
      <trkpt lat="43.67806" lon="7.2283">
        <ele>17.381477</ele>
        <time>2021-09-19T09:11:51.000Z</time>
      </trkpt>
      <trkpt lat="43.67797" lon="7.22865">
        <ele>15.91274</ele>
        <time>2021-09-19T09:11:56.000Z</time>
      </trkpt>
      <trkpt lat="43.67786" lon="7.22874">
        <ele>15.237782</ele>
        <time>2021-09-19T09:11:58.000Z</time>
      </trkpt>
      <trkpt lat="43.67782" lon="7.22891">
        <ele>14.570466</ele>
        <time>2021-09-19T09:12:01.000Z</time>
      </trkpt>
      <trkpt lat="43.6778" lon="7.22896">
        <ele>14.34018</ele>
        <time>2021-09-19T09:12:05.000Z</time>
      </trkpt>
      <trkpt lat="43.6778" lon="7.22896">
        <ele>14.34018</ele>
        <time>2021-09-19T09:12:07.000Z</time>
      </trkpt>
      <trkpt lat="43.67783" lon="7.22903">
        <ele>14.054459</ele>
        <time>2021-09-19T09:13:06.000Z</time>
      </trkpt>
      <trkpt lat="43.67782" lon="7.22904">
        <ele>13.969677</ele>
        <time>2021-09-19T09:13:07.000Z</time>
      </trkpt>
      <trkpt lat="43.67778" lon="7.22915">
        <ele>13.492468</ele>
        <time>2021-09-19T09:13:13.000Z</time>
      </trkpt>
      <trkpt lat="43.67766" lon="7.22929">
        <ele>12.684584</ele>
        <time>2021-09-19T09:13:18.000Z</time>
      </trkpt>
      <trkpt lat="43.67766" lon="7.2293">
        <ele>12.63363</ele>
        <time>2021-09-19T09:13:19.000Z</time>
      </trkpt>
      <trkpt lat="43.67774" lon="7.22937">
        <ele>12.127728</ele>
        <time>2021-09-19T09:13:21.000Z</time>
      </trkpt>
      <trkpt lat="43.67786" lon="7.22945">
        <ele>11.451993</ele>
        <time>2021-09-19T09:13:28.000Z</time>
      </trkpt>
      <trkpt lat="43.67798" lon="7.22954">
        <ele>10.700546</ele>
        <time>2021-09-19T09:13:35.000Z</time>
      </trkpt>
      <trkpt lat="43.6781" lon="7.22963">
        <ele>9.965057</ele>
        <time>2021-09-19T09:13:42.000Z</time>
      </trkpt>
      <trkpt lat="43.67817" lon="7.22968">
        <ele>9.549687</ele>
        <time>2021-09-19T09:13:46.000Z</time>
      </trkpt>
      <trkpt lat="43.67818" lon="7.22968">
        <ele>9.507677</ele>
        <time>2021-09-19T09:13:47.000Z</time>
      </trkpt>
      <trkpt lat="43.6782" lon="7.2297">
        <ele>9.362096</ele>
        <time>2021-09-19T09:13:50.000Z</time>
      </trkpt>
      <trkpt lat="43.67822" lon="7.22971">
        <ele>9.260324</ele>
        <time>2021-09-19T09:13:52.000Z</time>
      </trkpt>
      <trkpt lat="43.67826" lon="7.22974">
        <ele>9.012989</ele>
        <time>2021-09-19T09:13:57.000Z</time>
      </trkpt>
      <trkpt lat="43.67829" lon="7.22976">
        <ele>8.854004</ele>
        <time>2021-09-19T09:15:01.000Z</time>
      </trkpt>
      <trkpt lat="43.67831" lon="7.22977">
        <ele>8.829057</ele>
        <time>2021-09-19T09:15:02.000Z</time>
      </trkpt>
      <trkpt lat="43.67834" lon="7.2298">
        <ele>8.770026</ele>
        <time>2021-09-19T09:15:04.000Z</time>
      </trkpt>
      <trkpt lat="43.67848" lon="7.2299">
        <ele>8.51229</ele>
        <time>2021-09-19T09:15:11.000Z</time>
      </trkpt>
      <trkpt lat="43.67859" lon="7.22998">
        <ele>8.320789</ele>
        <time>2021-09-19T09:15:17.000Z</time>
      </trkpt>
      <trkpt lat="43.67874" lon="7.23009">
        <ele>8.052515</ele>
        <time>2021-09-19T09:15:25.000Z</time>
      </trkpt>
      <trkpt lat="43.67891" lon="7.23021">
        <ele>7.746821</ele>
        <time>2021-09-19T09:15:34.000Z</time>
      </trkpt>
      <trkpt lat="43.67911" lon="7.23036">
        <ele>7.399839</ele>
        <time>2021-09-19T09:15:43.000Z</time>
      </trkpt>
      <trkpt lat="43.67923" lon="7.23045">
        <ele>7.178122</ele>
        <time>2021-09-19T09:15:50.000Z</time>
      </trkpt>
      <trkpt lat="43.67924" lon="7.23045">
        <ele>7.161774</ele>
        <time>2021-09-19T09:15:53.000Z</time>
      </trkpt>
      <trkpt lat="43.67929" lon="7.23049">
        <ele>7.07973</ele>
        <time>2021-09-19T09:17:08.000Z</time>
      </trkpt>
      <trkpt lat="43.6794" lon="7.23057">
        <ele>6.878847</ele>
        <time>2021-09-19T09:17:15.000Z</time>
      </trkpt>
      <trkpt lat="43.67946" lon="7.23064">
        <ele>6.745206</ele>
        <time>2021-09-19T09:17:20.000Z</time>
      </trkpt>
      <trkpt lat="43.6796" lon="7.23076">
        <ele>6.495641</ele>
        <time>2021-09-19T09:17:30.000Z</time>
      </trkpt>
      <trkpt lat="43.67968" lon="7.23082">
        <ele>6.350162</ele>
        <time>2021-09-19T09:17:38.000Z</time>
      </trkpt>
      <trkpt lat="43.67979" lon="7.2309">
        <ele>6.141781</ele>
        <time>2021-09-19T09:17:46.000Z</time>
      </trkpt>
      <trkpt lat="43.67994" lon="7.23098">
        <ele>6.023384</ele>
        <time>2021-09-19T09:17:53.000Z</time>
      </trkpt>
      <trkpt lat="43.68009" lon="7.2311">
        <ele>6.030178</ele>
        <time>2021-09-19T09:18:01.000Z</time>
      </trkpt>
      <trkpt lat="43.68024" lon="7.23122">
        <ele>6.036822</ele>
        <time>2021-09-19T09:18:09.000Z</time>
      </trkpt>
      <trkpt lat="43.68041" lon="7.23136">
        <ele>6.044161</ele>
        <time>2021-09-19T09:18:18.000Z</time>
      </trkpt>
      <trkpt lat="43.68055" lon="7.23147">
        <ele>6.050476</ele>
        <time>2021-09-19T09:18:27.000Z</time>
      </trkpt>
      <trkpt lat="43.68068" lon="7.23159">
        <ele>6.056544</ele>
        <time>2021-09-19T09:18:35.000Z</time>
      </trkpt>
      <trkpt lat="43.68082" lon="7.23173">
        <ele>6.063097</ele>
        <time>2021-09-19T09:18:43.000Z</time>
      </trkpt>
      <trkpt lat="43.68094" lon="7.23186">
        <ele>6.068788</ele>
        <time>2021-09-19T09:18:50.000Z</time>
      </trkpt>
      <trkpt lat="43.68108" lon="7.23201">
        <ele>6.075615</ele>
        <time>2021-09-19T09:18:58.000Z</time>
      </trkpt>
      <trkpt lat="43.68123" lon="7.23217">
        <ele>6.082914</ele>
        <time>2021-09-19T09:19:06.000Z</time>
      </trkpt>
      <trkpt lat="43.68127" lon="7.2322">
        <ele>6.08452</ele>
        <time>2021-09-19T09:19:10.000Z</time>
      </trkpt>
      <trkpt lat="43.6813" lon="7.23224">
        <ele>6.086092</ele>
        <time>2021-09-19T09:19:40.000Z</time>
      </trkpt>
      <trkpt lat="43.68132" lon="7.23226">
        <ele>6.087304</ele>
        <time>2021-09-19T09:19:42.000Z</time>
      </trkpt>
      <trkpt lat="43.68137" lon="7.23231">
        <ele>6.088386</ele>
        <time>2021-09-19T09:19:45.000Z</time>
      </trkpt>
      <trkpt lat="43.68149" lon="7.23244">
        <ele>5.985323</ele>
        <time>2021-09-19T09:19:51.000Z</time>
      </trkpt>
      <trkpt lat="43.68161" lon="7.23256">
        <ele>5.88419</ele>
        <time>2021-09-19T09:19:59.000Z</time>
      </trkpt>
      <trkpt lat="43.68182" lon="7.23278">
        <ele>5.711991</ele>
        <time>2021-09-19T09:20:07.000Z</time>
      </trkpt>
      <trkpt lat="43.68192" lon="7.2329">
        <ele>5.621504</ele>
        <time>2021-09-19T09:20:13.000Z</time>
      </trkpt>
      <trkpt lat="43.68211" lon="7.23309">
        <ele>5.46837</ele>
        <time>2021-09-19T09:20:20.000Z</time>
      </trkpt>
      <trkpt lat="43.68233" lon="7.23333">
        <ele>5.283828</ele>
        <time>2021-09-19T09:20:29.000Z</time>
      </trkpt>
      <trkpt lat="43.6825" lon="7.23352">
        <ele>5.134558</ele>
        <time>2021-09-19T09:20:37.000Z</time>
      </trkpt>
      <trkpt lat="43.68265" lon="7.23367">
        <ele>5.013419</ele>
        <time>2021-09-19T09:20:43.000Z</time>
      </trkpt>
      <trkpt lat="43.6829" lon="7.23394">
        <ele>4.69433</ele>
        <time>2021-09-19T09:20:53.000Z</time>
      </trkpt>
      <trkpt lat="43.68315" lon="7.23422">
        <ele>4.234036</ele>
        <time>2021-09-19T09:21:02.000Z</time>
      </trkpt>
      <trkpt lat="43.68338" lon="7.23448">
        <ele>3.81855</ele>
        <time>2021-09-19T09:21:11.000Z</time>
      </trkpt>
      <trkpt lat="43.6836" lon="7.23472">
        <ele>3.41297</ele>
        <time>2021-09-19T09:21:20.000Z</time>
      </trkpt>
      <trkpt lat="43.68382" lon="7.23497">
        <ele>3.002762</ele>
        <time>2021-09-19T09:21:30.000Z</time>
      </trkpt>
      <trkpt lat="43.68405" lon="7.23511">
        <ele>2.644012</ele>
        <time>2021-09-19T09:21:38.000Z</time>
      </trkpt>
      <trkpt lat="43.68431" lon="7.23538">
        <ele>2.25907</ele>
        <time>2021-09-19T09:21:48.000Z</time>
      </trkpt>
      <trkpt lat="43.68453" lon="7.23562">
        <ele>2.079903</ele>
        <time>2021-09-19T09:21:56.000Z</time>
      </trkpt>
      <trkpt lat="43.68479" lon="7.23592">
        <ele>1.852705</ele>
        <time>2021-09-19T09:22:06.000Z</time>
      </trkpt>
      <trkpt lat="43.685" lon="7.23624">
        <ele>1.647984</ele>
        <time>2021-09-19T09:22:15.000Z</time>
      </trkpt>
      <trkpt lat="43.68528" lon="7.23656">
        <ele>1.406913</ele>
        <time>2021-09-19T09:22:26.000Z</time>
      </trkpt>
      <trkpt lat="43.68549" lon="7.2368">
        <ele>1.226016</ele>
        <time>2021-09-19T09:22:34.000Z</time>
      </trkpt>
      <trkpt lat="43.68571" lon="7.23706">
        <ele>1.040258</ele>
        <time>2021-09-19T09:22:43.000Z</time>
      </trkpt>
      <trkpt lat="43.68595" lon="7.23736">
        <ele>0.830093</ele>
        <time>2021-09-19T09:22:52.000Z</time>
      </trkpt>
      <trkpt lat="43.68618" lon="7.23763">
        <ele>0.635821</ele>
        <time>2021-09-19T09:23:00.000Z</time>
      </trkpt>
      <trkpt lat="43.68639" lon="7.23791">
        <ele>0.44508</ele>
        <time>2021-09-19T09:23:08.000Z</time>
      </trkpt>
      <trkpt lat="43.68659" lon="7.23817">
        <ele>0.267893</ele>
        <time>2021-09-19T09:23:16.000Z</time>
      </trkpt>
      <trkpt lat="43.68682" lon="7.23837">
        <ele>0.087821</ele>
        <time>2021-09-19T09:23:24.000Z</time>
      </trkpt>
      <trkpt lat="43.687" lon="7.23863">
        <ele>-0.029068</ele>
        <time>2021-09-19T09:23:31.000Z</time>
      </trkpt>
      <trkpt lat="43.6872" lon="7.23893">
        <ele>-0.05103</ele>
        <time>2021-09-19T09:23:39.000Z</time>
      </trkpt>
      <trkpt lat="43.68738" lon="7.23922">
        <ele>-0.072892</ele>
        <time>2021-09-19T09:23:47.000Z</time>
      </trkpt>
      <trkpt lat="43.68757" lon="7.23952">
        <ele>-0.094619</ele>
        <time>2021-09-19T09:23:55.000Z</time>
      </trkpt>
      <trkpt lat="43.68779" lon="7.23989">
        <ele>-0.121477</ele>
        <time>2021-09-19T09:24:04.000Z</time>
      </trkpt>
      <trkpt lat="43.68793" lon="7.24013">
        <ele>-0.138528</ele>
        <time>2021-09-19T09:24:10.000Z</time>
      </trkpt>
      <trkpt lat="43.6881" lon="7.24043">
        <ele>-0.15977</ele>
        <time>2021-09-19T09:24:18.000Z</time>
      </trkpt>
      <trkpt lat="43.68828" lon="7.24077">
        <ele>0.012578</ele>
        <time>2021-09-19T09:24:27.000Z</time>
      </trkpt>
      <trkpt lat="43.6885" lon="7.24114">
        <ele>0.218946</ele>
        <time>2021-09-19T09:24:36.000Z</time>
      </trkpt>
      <trkpt lat="43.68869" lon="7.24148">
        <ele>0.398991</ele>
        <time>2021-09-19T09:24:44.000Z</time>
      </trkpt>
      <trkpt lat="43.68892" lon="7.2419">
        <ele>0.623438</ele>
        <time>2021-09-19T09:24:54.000Z</time>
      </trkpt>
      <trkpt lat="43.68911" lon="7.24226">
        <ele>0.814091</ele>
        <time>2021-09-19T09:25:02.000Z</time>
      </trkpt>
      <trkpt lat="43.68927" lon="7.24255">
        <ele>1.014458</ele>
        <time>2021-09-19T09:25:09.000Z</time>
      </trkpt>
      <trkpt lat="43.68943" lon="7.24284">
        <ele>1.265708</ele>
        <time>2021-09-19T09:25:16.000Z</time>
      </trkpt>
      <trkpt lat="43.68957" lon="7.24312">
        <ele>1.501335</ele>
        <time>2021-09-19T09:25:23.000Z</time>
      </trkpt>
      <trkpt lat="43.68969" lon="7.24336">
        <ele>1.700219</ele>
        <time>2021-09-19T09:25:29.000Z</time>
      </trkpt>
      <trkpt lat="43.68983" lon="7.24366">
        <ele>1.946452</ele>
        <time>2021-09-19T09:25:36.000Z</time>
      </trkpt>
      <trkpt lat="43.69" lon="7.24406">
        <ele>2.264586</ele>
        <time>2021-09-19T09:25:45.000Z</time>
      </trkpt>
      <trkpt lat="43.69017" lon="7.24448">
        <ele>2.595418</ele>
        <time>2021-09-19T09:25:54.000Z</time>
      </trkpt>
      <trkpt lat="43.69034" lon="7.24492">
        <ele>2.886106</ele>
        <time>2021-09-19T09:26:03.000Z</time>
      </trkpt>
      <trkpt lat="43.69049" lon="7.24532">
        <ele>3.150037</ele>
        <time>2021-09-19T09:26:12.000Z</time>
      </trkpt>
      <trkpt lat="43.69059" lon="7.2458">
        <ele>3.445684</ele>
        <time>2021-09-19T09:26:22.000Z</time>
      </trkpt>
      <trkpt lat="43.69072" lon="7.24618">
        <ele>3.69271</ele>
        <time>2021-09-19T09:26:30.000Z</time>
      </trkpt>
      <trkpt lat="43.69087" lon="7.24663">
        <ele>3.980353</ele>
        <time>2021-09-19T09:26:38.000Z</time>
      </trkpt>
      <trkpt lat="43.69104" lon="7.24712">
        <ele>4.180123</ele>
        <time>2021-09-19T09:26:46.000Z</time>
      </trkpt>
      <trkpt lat="43.69122" lon="7.24764">
        <ele>4.341967</ele>
        <time>2021-09-19T09:26:54.000Z</time>
      </trkpt>
      <trkpt lat="43.69141" lon="7.24819">
        <ele>4.516899</ele>
        <time>2021-09-19T09:27:04.000Z</time>
      </trkpt>
      <trkpt lat="43.69162" lon="7.24864">
        <ele>4.668594</ele>
        <time>2021-09-19T09:27:13.000Z</time>
      </trkpt>
      <trkpt lat="43.69177" lon="7.24907">
        <ele>4.799584</ele>
        <time>2021-09-19T09:27:22.000Z</time>
      </trkpt>
      <trkpt lat="43.69194" lon="7.24953">
        <ele>4.921794</ele>
        <time>2021-09-19T09:27:31.000Z</time>
      </trkpt>
      <trkpt lat="43.6921" lon="7.24999">
        <ele>5.042231</ele>
        <time>2021-09-19T09:27:40.000Z</time>
      </trkpt>
      <trkpt lat="43.69224" lon="7.2504">
        <ele>5.149271</ele>
        <time>2021-09-19T09:27:48.000Z</time>
      </trkpt>
      <trkpt lat="43.69239" lon="7.25084">
        <ele>5.263685</ele>
        <time>2021-09-19T09:27:57.000Z</time>
      </trkpt>
      <trkpt lat="43.69252" lon="7.25121">
        <ele>5.359383</ele>
        <time>2021-09-19T09:28:05.000Z</time>
      </trkpt>
      <trkpt lat="43.69259" lon="7.25143">
        <ele>5.427975</ele>
        <time>2021-09-19T09:28:11.000Z</time>
      </trkpt>
      <trkpt lat="43.69268" lon="7.25169">
        <ele>5.506593</ele>
        <time>2021-09-19T09:28:20.000Z</time>
      </trkpt>
      <trkpt lat="43.69276" lon="7.25201">
        <ele>5.598376</ele>
        <time>2021-09-19T09:28:27.000Z</time>
      </trkpt>
      <trkpt lat="43.69287" lon="7.25248">
        <ele>5.733122</ele>
        <time>2021-09-19T09:28:36.000Z</time>
      </trkpt>
      <trkpt lat="43.69298" lon="7.25296">
        <ele>5.870699</ele>
        <time>2021-09-19T09:28:45.000Z</time>
      </trkpt>
      <trkpt lat="43.69308" lon="7.25337">
        <ele>5.988753</ele>
        <time>2021-09-19T09:28:53.000Z</time>
      </trkpt>
      <trkpt lat="43.6932" lon="7.25389">
        <ele>6.116333</ele>
        <time>2021-09-19T09:29:03.000Z</time>
      </trkpt>
      <trkpt lat="43.6933" lon="7.25434">
        <ele>6.217891</ele>
        <time>2021-09-19T09:29:11.000Z</time>
      </trkpt>
      <trkpt lat="43.69339" lon="7.25478">
        <ele>6.316095</ele>
        <time>2021-09-19T09:29:19.000Z</time>
      </trkpt>
      <trkpt lat="43.69352" lon="7.2553">
        <ele>6.434727</ele>
        <time>2021-09-19T09:29:29.000Z</time>
      </trkpt>
      <trkpt lat="43.69353" lon="7.25574">
        <ele>6.530719</ele>
        <time>2021-09-19T09:29:36.000Z</time>
      </trkpt>
      <trkpt lat="43.69364" lon="7.25627">
        <ele>6.564506</ele>
        <time>2021-09-19T09:29:45.000Z</time>
      </trkpt>
      <trkpt lat="43.69375" lon="7.25674">
        <ele>6.550125</ele>
        <time>2021-09-19T09:29:53.000Z</time>
      </trkpt>
      <trkpt lat="43.69383" lon="7.25709">
        <ele>6.539438</ele>
        <time>2021-09-19T09:29:59.000Z</time>
      </trkpt>
      <trkpt lat="43.69385" lon="7.25721">
        <ele>6.535796</ele>
        <time>2021-09-19T09:30:01.000Z</time>
      </trkpt>
      <trkpt lat="43.69393" lon="7.25756">
        <ele>6.524901</ele>
        <time>2021-09-19T09:30:07.000Z</time>
      </trkpt>
      <trkpt lat="43.69396" lon="7.25767">
        <ele>6.521412</ele>
        <time>2021-09-19T09:30:09.000Z</time>
      </trkpt>
      <trkpt lat="43.69405" lon="7.25806">
        <ele>6.50942</ele>
        <time>2021-09-19T09:30:16.000Z</time>
      </trkpt>
      <trkpt lat="43.69414" lon="7.25845">
        <ele>6.381599</ele>
        <time>2021-09-19T09:30:23.000Z</time>
      </trkpt>
      <trkpt lat="43.69419" lon="7.2588">
        <ele>6.075858</ele>
        <time>2021-09-19T09:30:30.000Z</time>
      </trkpt>
      <trkpt lat="43.69422" lon="7.25897">
        <ele>5.929698</ele>
        <time>2021-09-19T09:30:33.000Z</time>
      </trkpt>
      <trkpt lat="43.69426" lon="7.25924">
        <ele>5.689508</ele>
        <time>2021-09-19T09:30:38.000Z</time>
      </trkpt>
      <trkpt lat="43.69428" lon="7.25935">
        <ele>5.601791</ele>
        <time>2021-09-19T09:30:40.000Z</time>
      </trkpt>
      <trkpt lat="43.6943" lon="7.25951">
        <ele>5.460036</ele>
        <time>2021-09-19T09:30:43.000Z</time>
      </trkpt>
      <trkpt lat="43.69433" lon="7.25968">
        <ele>5.307882</ele>
        <time>2021-09-19T09:30:46.000Z</time>
      </trkpt>
      <trkpt lat="43.69435" lon="7.25986">
        <ele>5.154457</ele>
        <time>2021-09-19T09:30:49.000Z</time>
      </trkpt>
      <trkpt lat="43.69441" lon="7.2603">
        <ele>4.773931</ele>
        <time>2021-09-19T09:30:57.000Z</time>
      </trkpt>
      <trkpt lat="43.69446" lon="7.26065">
        <ele>4.475481</ele>
        <time>2021-09-19T09:31:04.000Z</time>
      </trkpt>
      <trkpt lat="43.69452" lon="7.26105">
        <ele>4.418332</ele>
        <time>2021-09-19T09:31:11.000Z</time>
      </trkpt>
      <trkpt lat="43.69456" lon="7.26143">
        <ele>4.460584</ele>
        <time>2021-09-19T09:31:18.000Z</time>
      </trkpt>
      <trkpt lat="43.69459" lon="7.26181">
        <ele>4.502408</ele>
        <time>2021-09-19T09:31:25.000Z</time>
      </trkpt>
      <trkpt lat="43.69461" lon="7.26215">
        <ele>4.53908</ele>
        <time>2021-09-19T09:31:32.000Z</time>
      </trkpt>
      <trkpt lat="43.69463" lon="7.26231">
        <ele>4.557153</ele>
        <time>2021-09-19T09:31:36.000Z</time>
      </trkpt>
      <trkpt lat="43.69465" lon="7.26256">
        <ele>4.584417</ele>
        <time>2021-09-19T09:31:41.000Z</time>
      </trkpt>
      <trkpt lat="43.69469" lon="7.2631">
        <ele>4.643556</ele>
        <time>2021-09-19T09:31:49.000Z</time>
      </trkpt>
      <trkpt lat="43.69472" lon="7.26359">
        <ele>4.803861</ele>
        <time>2021-09-19T09:31:58.000Z</time>
      </trkpt>
      <trkpt lat="43.69473" lon="7.26379">
        <ele>4.883563</ele>
        <time>2021-09-19T09:32:03.000Z</time>
      </trkpt>
      <trkpt lat="43.69474" lon="7.26397">
        <ele>4.957604</ele>
        <time>2021-09-19T09:32:08.000Z</time>
      </trkpt>
      <trkpt lat="43.69474" lon="7.26417">
        <ele>5.033995</ele>
        <time>2021-09-19T09:32:12.000Z</time>
      </trkpt>
      <trkpt lat="43.69476" lon="7.2648">
        <ele>5.286215</ele>
        <time>2021-09-19T09:32:21.000Z</time>
      </trkpt>
      <trkpt lat="43.69478" lon="7.26536">
        <ele>5.508588</ele>
        <time>2021-09-19T09:32:30.000Z</time>
      </trkpt>
      <trkpt lat="43.6948" lon="7.26581">
        <ele>5.664732</ele>
        <time>2021-09-19T09:32:38.000Z</time>
      </trkpt>
      <trkpt lat="43.69484" lon="7.26645">
        <ele>5.785668</ele>
        <time>2021-09-19T09:32:49.000Z</time>
      </trkpt>
      <trkpt lat="43.69486" lon="7.26696">
        <ele>5.880616</ele>
        <time>2021-09-19T09:32:58.000Z</time>
      </trkpt>
      <trkpt lat="43.69487" lon="7.26707">
        <ele>5.901362</ele>
        <time>2021-09-19T09:33:00.000Z</time>
      </trkpt>
      <trkpt lat="43.69487" lon="7.26729">
        <ele>5.942678</ele>
        <time>2021-09-19T09:33:04.000Z</time>
      </trkpt>
      <trkpt lat="43.69489" lon="7.26771">
        <ele>6.020458</ele>
        <time>2021-09-19T09:33:12.000Z</time>
      </trkpt>
      <trkpt lat="43.69489" lon="7.26791">
        <ele>6.057274</ele>
        <time>2021-09-19T09:33:17.000Z</time>
      </trkpt>
      <trkpt lat="43.69489" lon="7.26818">
        <ele>6.108268</ele>
        <time>2021-09-19T09:33:23.000Z</time>
      </trkpt>
      <trkpt lat="43.6949" lon="7.26869">
        <ele>5.953642</ele>
        <time>2021-09-19T09:33:32.000Z</time>
      </trkpt>
      <trkpt lat="43.69495" lon="7.26904">
        <ele>5.842714</ele>
        <time>2021-09-19T09:33:39.000Z</time>
      </trkpt>
      <trkpt lat="43.69504" lon="7.26927">
        <ele>5.76031</ele>
        <time>2021-09-19T09:33:45.000Z</time>
      </trkpt>
      <trkpt lat="43.6951" lon="7.26951">
        <ele>5.685229</ele>
        <time>2021-09-19T09:33:50.000Z</time>
      </trkpt>
      <trkpt lat="43.6951" lon="7.2697">
        <ele>5.623702</ele>
        <time>2021-09-19T09:33:54.000Z</time>
      </trkpt>
      <trkpt lat="43.69511" lon="7.27004">
        <ele>5.518572</ele>
        <time>2021-09-19T09:34:00.000Z</time>
      </trkpt>
      <trkpt lat="43.69511" lon="7.27037">
        <ele>5.416851</ele>
        <time>2021-09-19T09:34:06.000Z</time>
      </trkpt>
      <trkpt lat="43.69512" lon="7.27072">
        <ele>5.277088</ele>
        <time>2021-09-19T09:34:12.000Z</time>
      </trkpt>
      <trkpt lat="43.69512" lon="7.27102">
        <ele>5.088951</ele>
        <time>2021-09-19T09:34:18.000Z</time>
      </trkpt>
      <trkpt lat="43.69513" lon="7.27129">
        <ele>4.926341</ele>
        <time>2021-09-19T09:34:23.000Z</time>
      </trkpt>
      <trkpt lat="43.69512" lon="7.27156">
        <ele>4.758103</ele>
        <time>2021-09-19T09:34:29.000Z</time>
      </trkpt>
      <trkpt lat="43.69512" lon="7.27189">
        <ele>4.548209</ele>
        <time>2021-09-19T09:34:35.000Z</time>
      </trkpt>
      <trkpt lat="43.69512" lon="7.27206">
        <ele>4.444809</ele>
        <time>2021-09-19T09:34:38.000Z</time>
      </trkpt>
      <trkpt lat="43.69512" lon="7.27229">
        <ele>4.298439</ele>
        <time>2021-09-19T09:34:42.000Z</time>
      </trkpt>
      <trkpt lat="43.69512" lon="7.27235">
        <ele>4.260438</ele>
        <time>2021-09-19T09:34:43.000Z</time>
      </trkpt>
      <trkpt lat="43.69512" lon="7.27248">
        <ele>4.183204</ele>
        <time>2021-09-19T09:34:45.000Z</time>
      </trkpt>
      <trkpt lat="43.69513" lon="7.27272">
        <ele>4.034954</ele>
        <time>2021-09-19T09:34:49.000Z</time>
      </trkpt>
      <trkpt lat="43.69513" lon="7.27288">
        <ele>3.935245</ele>
        <time>2021-09-19T09:34:52.000Z</time>
      </trkpt>
      <trkpt lat="43.69513" lon="7.27299">
        <ele>3.865442</ele>
        <time>2021-09-19T09:34:54.000Z</time>
      </trkpt>
      <trkpt lat="43.69514" lon="7.27335">
        <ele>3.890462</ele>
        <time>2021-09-19T09:35:01.000Z</time>
      </trkpt>
      <trkpt lat="43.69514" lon="7.27366">
        <ele>4.013624</ele>
        <time>2021-09-19T09:35:07.000Z</time>
      </trkpt>
      <trkpt lat="43.69514" lon="7.27392">
        <ele>4.120986</ele>
        <time>2021-09-19T09:35:13.000Z</time>
      </trkpt>
      <trkpt lat="43.69513" lon="7.27403">
        <ele>4.165825</ele>
        <time>2021-09-19T09:35:17.000Z</time>
      </trkpt>
      <trkpt lat="43.69516" lon="7.27403">
        <ele>4.181091</ele>
        <time>2021-09-19T09:35:21.000Z</time>
      </trkpt>
      <trkpt lat="43.69512" lon="7.27429">
        <ele>4.287036</ele>
        <time>2021-09-19T09:35:25.000Z</time>
      </trkpt>
      <trkpt lat="43.69511" lon="7.27453">
        <ele>4.384785</ele>
        <time>2021-09-19T09:35:30.000Z</time>
      </trkpt>
      <trkpt lat="43.69511" lon="7.27458">
        <ele>4.405546</ele>
        <time>2021-09-19T09:35:31.000Z</time>
      </trkpt>
      <trkpt lat="43.6951" lon="7.27468">
        <ele>4.447102</ele>
        <time>2021-09-19T09:35:33.000Z</time>
      </trkpt>
      <trkpt lat="43.6951" lon="7.27482">
        <ele>4.502891</ele>
        <time>2021-09-19T09:35:36.000Z</time>
      </trkpt>
      <trkpt lat="43.6951" lon="7.27484">
        <ele>4.510634</ele>
        <time>2021-09-19T09:35:37.000Z</time>
      </trkpt>
      <trkpt lat="43.69509" lon="7.27489">
        <ele>4.531554</ele>
        <time>2021-09-19T09:35:38.000Z</time>
      </trkpt>
      <trkpt lat="43.69508" lon="7.27497">
        <ele>4.565864</ele>
        <time>2021-09-19T09:35:40.000Z</time>
      </trkpt>
      <trkpt lat="43.69506" lon="7.27531">
        <ele>4.702877</ele>
        <time>2021-09-19T09:35:48.000Z</time>
      </trkpt>
      <trkpt lat="43.69506" lon="7.27533">
        <ele>4.712293</ele>
        <time>2021-09-19T09:35:51.000Z</time>
      </trkpt>
      <trkpt lat="43.69505" lon="7.27539">
        <ele>4.737247</ele>
        <time>2021-09-19T09:36:01.000Z</time>
      </trkpt>
      <trkpt lat="43.69504" lon="7.27558">
        <ele>4.818689</ele>
        <time>2021-09-19T09:36:06.000Z</time>
      </trkpt>
      <trkpt lat="43.695" lon="7.27594">
        <ele>5.048876</ele>
        <time>2021-09-19T09:36:13.000Z</time>
      </trkpt>
      <trkpt lat="43.695" lon="7.276">
        <ele>5.083502</ele>
        <time>2021-09-19T09:36:14.000Z</time>
      </trkpt>
      <trkpt lat="43.69497" lon="7.27628">
        <ele>5.263405</ele>
        <time>2021-09-19T09:36:19.000Z</time>
      </trkpt>
      <trkpt lat="43.69494" lon="7.27657">
        <ele>5.443926</ele>
        <time>2021-09-19T09:36:24.000Z</time>
      </trkpt>
      <trkpt lat="43.69493" lon="7.27667">
        <ele>5.505748</ele>
        <time>2021-09-19T09:36:26.000Z</time>
      </trkpt>
      <trkpt lat="43.69492" lon="7.27678">
        <ele>5.579073</ele>
        <time>2021-09-19T09:36:31.000Z</time>
      </trkpt>
      <trkpt lat="43.69491" lon="7.27684">
        <ele>5.616291</ele>
        <time>2021-09-19T09:36:34.000Z</time>
      </trkpt>
      <trkpt lat="43.6949" lon="7.27693">
        <ele>5.669615</ele>
        <time>2021-09-19T09:36:37.000Z</time>
      </trkpt>
      <trkpt lat="43.69486" lon="7.27718">
        <ele>5.834202</ele>
        <time>2021-09-19T09:36:44.000Z</time>
      </trkpt>
      <trkpt lat="43.69483" lon="7.27746">
        <ele>6.010159</ele>
        <time>2021-09-19T09:36:51.000Z</time>
      </trkpt>
      <trkpt lat="43.69478" lon="7.2778">
        <ele>6.225614</ele>
        <time>2021-09-19T09:36:59.000Z</time>
      </trkpt>
      <trkpt lat="43.69471" lon="7.27815">
        <ele>6.356081</ele>
        <time>2021-09-19T09:37:07.000Z</time>
      </trkpt>
      <trkpt lat="43.69456" lon="7.27851">
        <ele>6.356081</ele>
        <time>2021-09-19T09:37:16.000Z</time>
      </trkpt>
      <trkpt lat="43.69438" lon="7.27878">
        <ele>6.356081</ele>
        <time>2021-09-19T09:37:24.000Z</time>
      </trkpt>
      <trkpt lat="43.69423" lon="7.27898">
        <ele>6.356081</ele>
        <time>2021-09-19T09:37:31.000Z</time>
      </trkpt>
      <trkpt lat="43.69403" lon="7.27908">
        <ele>6.356081</ele>
        <time>2021-09-19T09:37:39.000Z</time>
      </trkpt>
      <trkpt lat="43.69391" lon="7.27909">
        <ele>6.356081</ele>
        <time>2021-09-19T09:37:45.000Z</time>
      </trkpt>
      <trkpt lat="43.6939" lon="7.27909">
        <ele>6.356081</ele>
        <time>2021-09-19T09:37:48.000Z</time>
      </trkpt>
      <trkpt lat="43.69386" lon="7.27909">
        <ele>6.356081</ele>
        <time>2021-09-19T09:37:53.000Z</time>
      </trkpt>
      <trkpt lat="43.69385" lon="7.27909">
        <ele>6.356081</ele>
        <time>2021-09-19T09:37:54.000Z</time>
      </trkpt>
      <trkpt lat="43.69373" lon="7.27912">
        <ele>6.356081</ele>
        <time>2021-09-19T09:38:02.000Z</time>
      </trkpt>
      <trkpt lat="43.69366" lon="7.27916">
        <ele>6.356081</ele>
        <time>2021-09-19T09:38:09.000Z</time>
      </trkpt>
      <trkpt lat="43.69363" lon="7.27912">
        <ele>6.356081</ele>
        <time>2021-09-19T09:38:14.000Z</time>
      </trkpt>
      <trkpt lat="43.69365" lon="7.2791">
        <ele>6.356081</ele>
        <time>2021-09-19T09:41:36.000Z</time>
      </trkpt>
      <trkpt lat="43.69367" lon="7.2791">
        <ele>6.356081</ele>
        <time>2021-09-19T09:41:37.000Z</time>
      </trkpt>
      <trkpt lat="43.69367" lon="7.2791">
        <ele>6.356081</ele>
        <time>2021-09-19T09:41:39.000Z</time>
      </trkpt>
    </trkseg>
  </trk>
</gpx>